<?xml version="1.0" encoding="UTF-8"?>
<TrainingCenterDatabase xmlns="http://www.garmin.com/xmlschemas/TrainingCenterDatabase/v2" xmlns:xsi="http://www.w3.org/2001/XMLSchema-instance" xsi:schemaLocation="http://www.garmin.com/xmlschemas/TrainingCenterDatabase/v2 http://www.garmin.com/xmlschemas/TrainingCenterDatabasev2.xsd">
  <Activities>
    <Activity Sport="Other">
      <Id>2022-08-26T19:08:50.000Z</Id>
      <Lap StartTime="2022-08-26T19:08:50.000Z">
        <TotalTimeSeconds>46328</TotalTimeSeconds>
        <DistanceMeters>67600</DistanceMeters>
        <Track>
          <Trackpoint>
            <Time>2022-08-26T19:08:50.000Z</Time>
            <Position>
              <LatitudeDegrees>50.16281557269394397735595703125</LatitudeDegrees>
              <LongitudeDegrees>16.9493199884891510009765625</LongitudeDegrees>
            </Position>
            <AltitudeMeters>554.4000244140625</AltitudeMeters>
            <DistanceMeters>0</DistanceMeters>
          </Trackpoint>
          <Trackpoint>
            <Time>2022-08-26T19:08:51.000Z</Time>
            <Position>
              <LatitudeDegrees>50.16282948665320873260498046875</LatitudeDegrees>
              <LongitudeDegrees>16.9493218325078487396240234375</LongitudeDegrees>
            </Position>
            <AltitudeMeters>554.5999755859375</AltitudeMeters>
            <DistanceMeters>1.5556543597405</DistanceMeters>
          </Trackpoint>
          <Trackpoint>
            <Time>2022-08-26T19:08:54.000Z</Time>
            <Position>
              <LatitudeDegrees>50.16286008059978485107421875</LatitudeDegrees>
              <LongitudeDegrees>16.94934622384607791900634765625</LongitudeDegrees>
            </Position>
            <AltitudeMeters>554.79998779296875</AltitudeMeters>
            <DistanceMeters>5.3804058339159</DistanceMeters>
          </Trackpoint>
          <Trackpoint>
            <Time>2022-08-26T19:08:55.000Z</Time>
            <Position>
              <LatitudeDegrees>50.16286410391330718994140625</LatitudeDegrees>
              <LongitudeDegrees>16.9493617303669452667236328125</LongitudeDegrees>
            </Position>
            <AltitudeMeters>555</AltitudeMeters>
            <DistanceMeters>6.5748731118874</DistanceMeters>
          </Trackpoint>
          <Trackpoint>
            <Time>2022-08-26T19:08:59.000Z</Time>
            <Position>
              <LatitudeDegrees>50.16288698650896549224853515625</LatitudeDegrees>
              <LongitudeDegrees>16.94941562600433826446533203125</LongitudeDegrees>
            </Position>
            <AltitudeMeters>555.5999755859375</AltitudeMeters>
            <DistanceMeters>11.185382839571</DistanceMeters>
          </Trackpoint>
          <Trackpoint>
            <Time>2022-08-26T19:09:01.000Z</Time>
            <Position>
              <LatitudeDegrees>50.1628890819847583770751953125</LatitudeDegrees>
              <LongitudeDegrees>16.94945183582603931427001953125</LongitudeDegrees>
            </Position>
            <AltitudeMeters>555.79998779296875</AltitudeMeters>
            <DistanceMeters>13.780847543086</DistanceMeters>
          </Trackpoint>
          <Trackpoint>
            <Time>2022-08-26T19:09:02.000Z</Time>
            <Position>
              <LatitudeDegrees>50.16288899816572666168212890625</LatitudeDegrees>
              <LongitudeDegrees>16.94947295822203159332275390625</LongitudeDegrees>
            </Position>
            <AltitudeMeters>555.79998779296875</AltitudeMeters>
            <DistanceMeters>15.289349867869</DistanceMeters>
          </Trackpoint>
          <Trackpoint>
            <Time>2022-08-26T19:09:06.000Z</Time>
            <Position>
              <LatitudeDegrees>50.16291397623717784881591796875</LatitudeDegrees>
              <LongitudeDegrees>16.949522495269775390625</LongitudeDegrees>
            </Position>
            <AltitudeMeters>556.20001220703125</AltitudeMeters>
            <DistanceMeters>19.782817451894</DistanceMeters>
          </Trackpoint>
          <Trackpoint>
            <Time>2022-08-26T19:09:07.000Z</Time>
            <Position>
              <LatitudeDegrees>50.16291548497974872589111328125</LatitudeDegrees>
              <LongitudeDegrees>16.94953858852386474609375</LongitudeDegrees>
            </Position>
            <AltitudeMeters>556.20001220703125</AltitudeMeters>
            <DistanceMeters>20.938867326988</DistanceMeters>
          </Trackpoint>
          <Trackpoint>
            <Time>2022-08-26T19:09:09.000Z</Time>
            <Position>
              <LatitudeDegrees>50.162922441959381103515625</LatitudeDegrees>
              <LongitudeDegrees>16.94957949221134185791015625</LongitudeDegrees>
            </Position>
            <AltitudeMeters>556.5999755859375</AltitudeMeters>
            <DistanceMeters>23.955871976555</DistanceMeters>
          </Trackpoint>
          <Trackpoint>
            <Time>2022-08-26T19:09:10.000Z</Time>
            <Position>
              <LatitudeDegrees>50.1629246212542057037353515625</LatitudeDegrees>
              <LongitudeDegrees>16.94960136897861957550048828125</LongitudeDegrees>
            </Position>
            <AltitudeMeters>556.5999755859375</AltitudeMeters>
            <DistanceMeters>25.534574322956</DistanceMeters>
          </Trackpoint>
          <Trackpoint>
            <Time>2022-08-26T19:09:12.000Z</Time>
            <Position>
              <LatitudeDegrees>50.162933506071567535400390625</LatitudeDegrees>
              <LongitudeDegrees>16.94963724352419376373291015625</LongitudeDegrees>
            </Position>
            <AltitudeMeters>556.5999755859375</AltitudeMeters>
            <DistanceMeters>28.277210587176</DistanceMeters>
          </Trackpoint>
          <Trackpoint>
            <Time>2022-08-26T19:09:17.000Z</Time>
            <Position>
              <LatitudeDegrees>50.16296426765620708465576171875</LatitudeDegrees>
              <LongitudeDegrees>16.94970379583537578582763671875</LongitudeDegrees>
            </Position>
            <AltitudeMeters>557.20001220703125</AltitudeMeters>
            <DistanceMeters>34.128881278139</DistanceMeters>
          </Trackpoint>
          <Trackpoint>
            <Time>2022-08-26T19:09:20.000Z</Time>
            <Position>
              <LatitudeDegrees>50.1629666984081268310546875</LatitudeDegrees>
              <LongitudeDegrees>16.94975241087377071380615234375</LongitudeDegrees>
            </Position>
            <AltitudeMeters>557.5999755859375</AltitudeMeters>
            <DistanceMeters>37.606131967758</DistanceMeters>
          </Trackpoint>
          <Trackpoint>
            <Time>2022-08-26T19:09:21.000Z</Time>
            <Position>
              <LatitudeDegrees>50.1629621721804141998291015625</LatitudeDegrees>
              <LongitudeDegrees>16.9497667439281940460205078125</LongitudeDegrees>
            </Position>
            <AltitudeMeters>557.79998779296875</AltitudeMeters>
            <DistanceMeters>38.746452540197</DistanceMeters>
          </Trackpoint>
          <Trackpoint>
            <Time>2022-08-26T19:09:23.000Z</Time>
            <Position>
              <LatitudeDegrees>50.16294867731630802154541015625</LatitudeDegrees>
              <LongitudeDegrees>16.94979566149413585662841796875</LongitudeDegrees>
            </Position>
            <AltitudeMeters>558</AltitudeMeters>
            <DistanceMeters>41.296286856314</DistanceMeters>
          </Trackpoint>
          <Trackpoint>
            <Time>2022-08-26T19:09:26.000Z</Time>
            <Position>
              <LatitudeDegrees>50.1629474200308322906494140625</LatitudeDegrees>
              <LongitudeDegrees>16.94983790628612041473388671875</LongitudeDegrees>
            </Position>
            <AltitudeMeters>558.4000244140625</AltitudeMeters>
            <DistanceMeters>44.310296959585</DistanceMeters>
          </Trackpoint>
          <Trackpoint>
            <Time>2022-08-26T19:09:28.000Z</Time>
            <Position>
              <LatitudeDegrees>50.16296359710395336151123046875</LatitudeDegrees>
              <LongitudeDegrees>16.9498730264604091644287109375</LongitudeDegrees>
            </Position>
            <AltitudeMeters>558.5999755859375</AltitudeMeters>
            <DistanceMeters>47.39537403673</DistanceMeters>
          </Trackpoint>
          <Trackpoint>
            <Time>2022-08-26T19:09:29.000Z</Time>
            <Position>
              <LatitudeDegrees>50.16296560876071453094482421875</LatitudeDegrees>
              <LongitudeDegrees>16.9498939812183380126953125</LongitudeDegrees>
            </Position>
            <AltitudeMeters>558.79998779296875</AltitudeMeters>
            <DistanceMeters>48.906866458253</DistanceMeters>
          </Trackpoint>
          <Trackpoint>
            <Time>2022-08-26T19:09:34.000Z</Time>
            <Position>
              <LatitudeDegrees>50.1629735715687274932861328125</LatitudeDegrees>
              <LongitudeDegrees>16.94996170699596405029296875</LongitudeDegrees>
            </Position>
            <AltitudeMeters>559.4000244140625</AltitudeMeters>
            <DistanceMeters>53.817090903771</DistanceMeters>
          </Trackpoint>
          <Trackpoint>
            <Time>2022-08-26T19:09:35.000Z</Time>
            <Position>
              <LatitudeDegrees>50.162976421415805816650390625</LatitudeDegrees>
              <LongitudeDegrees>16.949971430003643035888671875</LongitudeDegrees>
            </Position>
            <AltitudeMeters>559.4000244140625</AltitudeMeters>
            <DistanceMeters>54.577304618731</DistanceMeters>
          </Trackpoint>
          <Trackpoint>
            <Time>2022-08-26T19:09:37.000Z</Time>
            <Position>
              <LatitudeDegrees>50.1629822887480258941650390625</LatitudeDegrees>
              <LongitudeDegrees>16.9500051252543926239013671875</LongitudeDegrees>
            </Position>
            <AltitudeMeters>559.79998779296875</AltitudeMeters>
            <DistanceMeters>57.066206473074</DistanceMeters>
          </Trackpoint>
          <Trackpoint>
            <Time>2022-08-26T19:09:38.000Z</Time>
            <Position>
              <LatitudeDegrees>50.16299980692565441131591796875</LatitudeDegrees>
              <LongitudeDegrees>16.95001275278627872467041015625</LongitudeDegrees>
            </Position>
            <AltitudeMeters>559.79998779296875</AltitudeMeters>
            <DistanceMeters>59.090966880025</DistanceMeters>
          </Trackpoint>
          <Trackpoint>
            <Time>2022-08-26T19:09:40.000Z</Time>
            <Position>
              <LatitudeDegrees>50.16302076168358325958251953125</LatitudeDegrees>
              <LongitudeDegrees>16.95003052242100238800048828125</LongitudeDegrees>
            </Position>
            <AltitudeMeters>560</AltitudeMeters>
            <DistanceMeters>61.744918580091</DistanceMeters>
          </Trackpoint>
          <Trackpoint>
            <Time>2022-08-26T19:09:46.000Z</Time>
            <Position>
              <LatitudeDegrees>50.1630728133022785186767578125</LatitudeDegrees>
              <LongitudeDegrees>16.95007964037358760833740234375</LongitudeDegrees>
            </Position>
            <AltitudeMeters>560.5999755859375</AltitudeMeters>
            <DistanceMeters>68.514529939177</DistanceMeters>
          </Trackpoint>
          <Trackpoint>
            <Time>2022-08-26T19:09:47.000Z</Time>
            <Position>
              <LatitudeDegrees>50.16309209167957305908203125</LatitudeDegrees>
              <LongitudeDegrees>16.95008215494453907012939453125</LongitudeDegrees>
            </Position>
            <AltitudeMeters>560.79998779296875</AltitudeMeters>
            <DistanceMeters>70.668934565099</DistanceMeters>
          </Trackpoint>
          <Trackpoint>
            <Time>2022-08-26T19:09:50.000Z</Time>
            <Position>
              <LatitudeDegrees>50.16315051354467868804931640625</LatitudeDegrees>
              <LongitudeDegrees>16.95008785463869571685791015625</LongitudeDegrees>
            </Position>
            <AltitudeMeters>561.20001220703125</AltitudeMeters>
            <DistanceMeters>77.185023840076</DistanceMeters>
          </Trackpoint>
          <Trackpoint>
            <Time>2022-08-26T19:09:56.000Z</Time>
            <Position>
              <LatitudeDegrees>50.16324405558407306671142578125</LatitudeDegrees>
              <LongitudeDegrees>16.95012523792684078216552734375</LongitudeDegrees>
            </Position>
            <AltitudeMeters>561.5999755859375</AltitudeMeters>
            <DistanceMeters>87.932288971013</DistanceMeters>
          </Trackpoint>
          <Trackpoint>
            <Time>2022-08-26T19:09:58.000Z</Time>
            <Position>
              <LatitudeDegrees>50.16326651908457279205322265625</LatitudeDegrees>
              <LongitudeDegrees>16.95013613440096378326416015625</LongitudeDegrees>
            </Position>
            <AltitudeMeters>561.79998779296875</AltitudeMeters>
            <DistanceMeters>90.551994698267</DistanceMeters>
          </Trackpoint>
          <Trackpoint>
            <Time>2022-08-26T19:10:01.000Z</Time>
            <Position>
              <LatitudeDegrees>50.1632971130311489105224609375</LatitudeDegrees>
              <LongitudeDegrees>16.95015616714954376220703125</LongitudeDegrees>
            </Position>
            <AltitudeMeters>562.20001220703125</AltitudeMeters>
            <DistanceMeters>94.244611037716</DistanceMeters>
          </Trackpoint>
          <Trackpoint>
            <Time>2022-08-26T19:10:10.000Z</Time>
            <Position>
              <LatitudeDegrees>50.16336693428456783294677734375</LatitudeDegrees>
              <LongitudeDegrees>16.95025742053985595703125</LongitudeDegrees>
            </Position>
            <AltitudeMeters>562.79998779296875</AltitudeMeters>
            <DistanceMeters>104.85190817185</DistanceMeters>
          </Trackpoint>
          <Trackpoint>
            <Time>2022-08-26T19:10:11.000Z</Time>
            <Position>
              <LatitudeDegrees>50.1633792556822299957275390625</LatitudeDegrees>
              <LongitudeDegrees>16.9502646289765834808349609375</LongitudeDegrees>
            </Position>
            <AltitudeMeters>563</AltitudeMeters>
            <DistanceMeters>106.31482584459</DistanceMeters>
          </Trackpoint>
          <Trackpoint>
            <Time>2022-08-26T19:10:21.000Z</Time>
            <Position>
              <LatitudeDegrees>50.1634630747139453887939453125</LatitudeDegrees>
              <LongitudeDegrees>16.95036931894719600677490234375</LongitudeDegrees>
            </Position>
            <AltitudeMeters>563.79998779296875</AltitudeMeters>
            <DistanceMeters>118.26290010375</DistanceMeters>
          </Trackpoint>
          <Trackpoint>
            <Time>2022-08-26T19:10:27.000Z</Time>
            <Position>
              <LatitudeDegrees>50.1635016314685344696044921875</LatitudeDegrees>
              <LongitudeDegrees>16.9504225440323352813720703125</LongitudeDegrees>
            </Position>
            <AltitudeMeters>564.4000244140625</AltitudeMeters>
            <DistanceMeters>123.99136392901</DistanceMeters>
          </Trackpoint>
          <Trackpoint>
            <Time>2022-08-26T19:10:32.000Z</Time>
            <Position>
              <LatitudeDegrees>50.16353926621377468109130859375</LatitudeDegrees>
              <LongitudeDegrees>16.9504651241004467010498046875</LongitudeDegrees>
            </Position>
            <AltitudeMeters>565</AltitudeMeters>
            <DistanceMeters>129.16486821333</DistanceMeters>
          </Trackpoint>
          <Trackpoint>
            <Time>2022-08-26T19:10:41.000Z</Time>
            <Position>
              <LatitudeDegrees>50.16361646354198455810546875</LatitudeDegrees>
              <LongitudeDegrees>16.9505305029451847076416015625</LongitudeDegrees>
            </Position>
            <AltitudeMeters>565.5999755859375</AltitudeMeters>
            <DistanceMeters>138.94015690114</DistanceMeters>
          </Trackpoint>
          <Trackpoint>
            <Time>2022-08-26T19:10:46.000Z</Time>
            <Position>
              <LatitudeDegrees>50.16365812160074710845947265625</LatitudeDegrees>
              <LongitudeDegrees>16.95059470832347869873046875</LongitudeDegrees>
            </Position>
            <AltitudeMeters>566</AltitudeMeters>
            <DistanceMeters>145.45486021645</DistanceMeters>
          </Trackpoint>
          <Trackpoint>
            <Time>2022-08-26T19:10:53.000Z</Time>
            <Position>
              <LatitudeDegrees>50.16369315795600414276123046875</LatitudeDegrees>
              <LongitudeDegrees>16.95066318847239017486572265625</LongitudeDegrees>
            </Position>
            <AltitudeMeters>566.4000244140625</AltitudeMeters>
            <DistanceMeters>151.70354412138</DistanceMeters>
          </Trackpoint>
          <Trackpoint>
            <Time>2022-08-26T19:11:00.000Z</Time>
            <Position>
              <LatitudeDegrees>50.1637400127947330474853515625</LatitudeDegrees>
              <LongitudeDegrees>16.95075773634016513824462890625</LongitudeDegrees>
            </Position>
            <AltitudeMeters>567</AltitudeMeters>
            <DistanceMeters>160.22686301672</DistanceMeters>
          </Trackpoint>
          <Trackpoint>
            <Time>2022-08-26T19:11:04.000Z</Time>
            <Position>
              <LatitudeDegrees>50.16377295367419719696044921875</LatitudeDegrees>
              <LongitudeDegrees>16.9507869891822338104248046875</LongitudeDegrees>
            </Position>
            <AltitudeMeters>567.4000244140625</AltitudeMeters>
            <DistanceMeters>164.44459351956</DistanceMeters>
          </Trackpoint>
          <Trackpoint>
            <Time>2022-08-26T19:11:13.000Z</Time>
            <Position>
              <LatitudeDegrees>50.1638181321322917938232421875</LatitudeDegrees>
              <LongitudeDegrees>16.950892768800258636474609375</LongitudeDegrees>
            </Position>
            <AltitudeMeters>568.4000244140625</AltitudeMeters>
            <DistanceMeters>173.50906623249</DistanceMeters>
          </Trackpoint>
          <Trackpoint>
            <Time>2022-08-26T19:11:16.000Z</Time>
            <Position>
              <LatitudeDegrees>50.16385006718337535858154296875</LatitudeDegrees>
              <LongitudeDegrees>16.950936354696750640869140625</LongitudeDegrees>
            </Position>
            <AltitudeMeters>568.5999755859375</AltitudeMeters>
            <DistanceMeters>178.22989546724</DistanceMeters>
          </Trackpoint>
          <Trackpoint>
            <Time>2022-08-26T19:11:21.000Z</Time>
            <Position>
              <LatitudeDegrees>50.16386817209422588348388671875</LatitudeDegrees>
              <LongitudeDegrees>16.95101656951010227203369140625</LongitudeDegrees>
            </Position>
            <AltitudeMeters>569</AltitudeMeters>
            <DistanceMeters>184.29450603646</DistanceMeters>
          </Trackpoint>
          <Trackpoint>
            <Time>2022-08-26T19:11:25.000Z</Time>
            <Position>
              <LatitudeDegrees>50.16390605829656124114990234375</LatitudeDegrees>
              <LongitudeDegrees>16.95105470716953277587890625</LongitudeDegrees>
            </Position>
            <AltitudeMeters>569.4000244140625</AltitudeMeters>
            <DistanceMeters>189.312060533</DistanceMeters>
          </Trackpoint>
          <Trackpoint>
            <Time>2022-08-26T19:11:26.000Z</Time>
            <Position>
              <LatitudeDegrees>50.16391511075198650360107421875</LatitudeDegrees>
              <LongitudeDegrees>16.95107088424265384674072265625</LongitudeDegrees>
            </Position>
            <AltitudeMeters>569.5999755859375</AltitudeMeters>
            <DistanceMeters>190.84432026145</DistanceMeters>
          </Trackpoint>
          <Trackpoint>
            <Time>2022-08-26T19:11:34.000Z</Time>
            <Position>
              <LatitudeDegrees>50.16403262503445148468017578125</LatitudeDegrees>
              <LongitudeDegrees>16.95117163471877574920654296875</LongitudeDegrees>
            </Position>
            <AltitudeMeters>570.4000244140625</AltitudeMeters>
            <DistanceMeters>205.76684300755</DistanceMeters>
          </Trackpoint>
          <Trackpoint>
            <Time>2022-08-26T19:11:37.000Z</Time>
            <Position>
              <LatitudeDegrees>50.16409247182309627532958984375</LatitudeDegrees>
              <LongitudeDegrees>16.95122963748872280120849609375</LongitudeDegrees>
            </Position>
            <AltitudeMeters>570.79998779296875</AltitudeMeters>
            <DistanceMeters>213.60755473739</DistanceMeters>
          </Trackpoint>
          <Trackpoint>
            <Time>2022-08-26T19:11:46.000Z</Time>
            <Position>
              <LatitudeDegrees>50.16421727836132049560546875</LatitudeDegrees>
              <LongitudeDegrees>16.9513826072216033935546875</LongitudeDegrees>
            </Position>
            <AltitudeMeters>571.4000244140625</AltitudeMeters>
            <DistanceMeters>231.26872402278</DistanceMeters>
          </Trackpoint>
          <Trackpoint>
            <Time>2022-08-26T19:11:47.000Z</Time>
            <Position>
              <LatitudeDegrees>50.16422591172158718109130859375</LatitudeDegrees>
              <LongitudeDegrees>16.95140205323696136474609375</LongitudeDegrees>
            </Position>
            <AltitudeMeters>571.5999755859375</AltitudeMeters>
            <DistanceMeters>232.9579558471</DistanceMeters>
          </Trackpoint>
          <Trackpoint>
            <Time>2022-08-26T19:11:55.000Z</Time>
            <Position>
              <LatitudeDegrees>50.16426748596131801605224609375</LatitudeDegrees>
              <LongitudeDegrees>16.95146449841558933258056640625</LongitudeDegrees>
            </Position>
            <AltitudeMeters>572.5999755859375</AltitudeMeters>
            <DistanceMeters>239.3791184399</DistanceMeters>
          </Trackpoint>
          <Trackpoint>
            <Time>2022-08-26T19:11:56.000Z</Time>
            <Position>
              <LatitudeDegrees>50.16427067108452320098876953125</LatitudeDegrees>
              <LongitudeDegrees>16.95147070102393627166748046875</LongitudeDegrees>
            </Position>
            <AltitudeMeters>572.5999755859375</AltitudeMeters>
            <DistanceMeters>239.94130406364</DistanceMeters>
          </Trackpoint>
          <Trackpoint>
            <Time>2022-08-26T19:12:03.000Z</Time>
            <Position>
              <LatitudeDegrees>50.16431727446615695953369140625</LatitudeDegrees>
              <LongitudeDegrees>16.9514927454292774200439453125</LongitudeDegrees>
            </Position>
            <AltitudeMeters>573.5999755859375</AltitudeMeters>
            <DistanceMeters>245.3619930188</DistanceMeters>
          </Trackpoint>
          <Trackpoint>
            <Time>2022-08-26T19:12:07.000Z</Time>
            <Position>
              <LatitudeDegrees>50.16435549594461917877197265625</LatitudeDegrees>
              <LongitudeDegrees>16.95152769796550273895263671875</LongitudeDegrees>
            </Position>
            <AltitudeMeters>574</AltitudeMeters>
            <DistanceMeters>250.29332102082</DistanceMeters>
          </Trackpoint>
          <Trackpoint>
            <Time>2022-08-26T19:12:13.000Z</Time>
            <Position>
              <LatitudeDegrees>50.16440193168818950653076171875</LatitudeDegrees>
              <LongitudeDegrees>16.9516463018953800201416015625</LongitudeDegrees>
            </Position>
            <AltitudeMeters>574.5999755859375</AltitudeMeters>
            <DistanceMeters>260.20392854413</DistanceMeters>
          </Trackpoint>
          <Trackpoint>
            <Time>2022-08-26T19:12:17.000Z</Time>
            <Position>
              <LatitudeDegrees>50.16442690975964069366455078125</LatitudeDegrees>
              <LongitudeDegrees>16.95168972015380859375</LongitudeDegrees>
            </Position>
            <AltitudeMeters>575.20001220703125</AltitudeMeters>
            <DistanceMeters>264.36453625732</DistanceMeters>
          </Trackpoint>
          <Trackpoint>
            <Time>2022-08-26T19:12:21.000Z</Time>
            <Position>
              <LatitudeDegrees>50.16446077264845371246337890625</LatitudeDegrees>
              <LongitudeDegrees>16.95173456333577632904052734375</LongitudeDegrees>
            </Position>
            <AltitudeMeters>575.5999755859375</AltitudeMeters>
            <DistanceMeters>269.3068390385</DistanceMeters>
          </Trackpoint>
          <Trackpoint>
            <Time>2022-08-26T19:12:29.000Z</Time>
            <Position>
              <LatitudeDegrees>50.164530090987682342529296875</LatitudeDegrees>
              <LongitudeDegrees>16.95176105014979839324951171875</LongitudeDegrees>
            </Position>
            <AltitudeMeters>576.20001220703125</AltitudeMeters>
            <DistanceMeters>277.24938989055</DistanceMeters>
          </Trackpoint>
          <Trackpoint>
            <Time>2022-08-26T19:12:37.000Z</Time>
            <Position>
              <LatitudeDegrees>50.16455196775496006011962890625</LatitudeDegrees>
              <LongitudeDegrees>16.95177848450839519500732421875</LongitudeDegrees>
            </Position>
            <AltitudeMeters>576.79998779296875</AltitudeMeters>
            <DistanceMeters>279.98213086239</DistanceMeters>
          </Trackpoint>
          <Trackpoint>
            <Time>2022-08-26T19:12:40.000Z</Time>
            <Position>
              <LatitudeDegrees>50.164577029645442962646484375</LatitudeDegrees>
              <LongitudeDegrees>16.9517956674098968505859375</LongitudeDegrees>
            </Position>
            <AltitudeMeters>576.79998779296875</AltitudeMeters>
            <DistanceMeters>283.02743684175</DistanceMeters>
          </Trackpoint>
          <Trackpoint>
            <Time>2022-08-26T19:12:51.000Z</Time>
            <Position>
              <LatitudeDegrees>50.16468264162540435791015625</LatitudeDegrees>
              <LongitudeDegrees>16.95187772624194622039794921875</LongitudeDegrees>
            </Position>
            <AltitudeMeters>577.4000244140625</AltitudeMeters>
            <DistanceMeters>296.15763940942</DistanceMeters>
          </Trackpoint>
          <Trackpoint>
            <Time>2022-08-26T19:12:55.000Z</Time>
            <Position>
              <LatitudeDegrees>50.1647277362644672393798828125</LatitudeDegrees>
              <LongitudeDegrees>16.95190966129302978515625</LongitudeDegrees>
            </Position>
            <AltitudeMeters>577.79998779296875</AltitudeMeters>
            <DistanceMeters>301.66918884288</DistanceMeters>
          </Trackpoint>
          <Trackpoint>
            <Time>2022-08-26T19:12:56.000Z</Time>
            <Position>
              <LatitudeDegrees>50.1647388003766536712646484375</LatitudeDegrees>
              <LongitudeDegrees>16.9519168697297573089599609375</LongitudeDegrees>
            </Position>
            <AltitudeMeters>577.79998779296875</AltitudeMeters>
            <DistanceMeters>302.99956284406</DistanceMeters>
          </Trackpoint>
          <Trackpoint>
            <Time>2022-08-26T19:13:02.000Z</Time>
            <Position>
              <LatitudeDegrees>50.164813734591007232666015625</LatitudeDegrees>
              <LongitudeDegrees>16.95198568515479564666748046875</LongitudeDegrees>
            </Position>
            <AltitudeMeters>578.20001220703125</AltitudeMeters>
            <DistanceMeters>312.67643696352</DistanceMeters>
          </Trackpoint>
          <Trackpoint>
            <Time>2022-08-26T19:13:13.000Z</Time>
            <Position>
              <LatitudeDegrees>50.164983384311199188232421875</LatitudeDegrees>
              <LongitudeDegrees>16.9521170295774936676025390625</LongitudeDegrees>
            </Position>
            <AltitudeMeters>578.79998779296875</AltitudeMeters>
            <DistanceMeters>333.75352501517</DistanceMeters>
          </Trackpoint>
          <Trackpoint>
            <Time>2022-08-26T19:13:15.000Z</Time>
            <Position>
              <LatitudeDegrees>50.16500827856361865997314453125</LatitudeDegrees>
              <LongitudeDegrees>16.95213722996413707733154296875</LongitudeDegrees>
            </Position>
            <AltitudeMeters>578.79998779296875</AltitudeMeters>
            <DistanceMeters>336.87642151674</DistanceMeters>
          </Trackpoint>
          <Trackpoint>
            <Time>2022-08-26T19:13:24.000Z</Time>
            <Position>
              <LatitudeDegrees>50.165121518075466156005859375</LatitudeDegrees>
              <LongitudeDegrees>16.9522048719227313995361328125</LongitudeDegrees>
            </Position>
            <AltitudeMeters>579.5999755859375</AltitudeMeters>
            <DistanceMeters>350.37155329533</DistanceMeters>
          </Trackpoint>
          <Trackpoint>
            <Time>2022-08-26T19:13:28.000Z</Time>
            <Position>
              <LatitudeDegrees>50.16516468487679958343505859375</LatitudeDegrees>
              <LongitudeDegrees>16.95224225521087646484375</LongitudeDegrees>
            </Position>
            <AltitudeMeters>579.79998779296875</AltitudeMeters>
            <DistanceMeters>355.86587268468</DistanceMeters>
          </Trackpoint>
          <Trackpoint>
            <Time>2022-08-26T19:13:36.000Z</Time>
            <Position>
              <LatitudeDegrees>50.1652785949409008026123046875</LatitudeDegrees>
              <LongitudeDegrees>16.95234476588666439056396484375</LongitudeDegrees>
            </Position>
            <AltitudeMeters>580.4000244140625</AltitudeMeters>
            <DistanceMeters>370.49998669766</DistanceMeters>
          </Trackpoint>
          <Trackpoint>
            <Time>2022-08-26T19:13:43.000Z</Time>
            <Position>
              <LatitudeDegrees>50.16536819748580455780029296875</LatitudeDegrees>
              <LongitudeDegrees>16.952392794191837310791015625</LongitudeDegrees>
            </Position>
            <AltitudeMeters>580.79998779296875</AltitudeMeters>
            <DistanceMeters>381.04452705058</DistanceMeters>
          </Trackpoint>
          <Trackpoint>
            <Time>2022-08-26T19:13:47.000Z</Time>
            <Position>
              <LatitudeDegrees>50.165422260761260986328125</LatitudeDegrees>
              <LongitudeDegrees>16.95244140923023223876953125</LongitudeDegrees>
            </Position>
            <AltitudeMeters>581.20001220703125</AltitudeMeters>
            <DistanceMeters>387.98863305573</DistanceMeters>
          </Trackpoint>
          <Trackpoint>
            <Time>2022-08-26T19:13:57.000Z</Time>
            <Position>
              <LatitudeDegrees>50.16556416638195514678955078125</LatitudeDegrees>
              <LongitudeDegrees>16.952514164149761199951171875</LongitudeDegrees>
            </Position>
            <AltitudeMeters>582</AltitudeMeters>
            <DistanceMeters>404.61314867706</DistanceMeters>
          </Trackpoint>
          <Trackpoint>
            <Time>2022-08-26T19:14:00.000Z</Time>
            <Position>
              <LatitudeDegrees>50.16560121439397335052490234375</LatitudeDegrees>
              <LongitudeDegrees>16.95253930985927581787109375</LongitudeDegrees>
            </Position>
            <AltitudeMeters>582.20001220703125</AltitudeMeters>
            <DistanceMeters>409.11063366697</DistanceMeters>
          </Trackpoint>
          <Trackpoint>
            <Time>2022-08-26T19:14:12.000Z</Time>
            <Position>
              <LatitudeDegrees>50.165765583515167236328125</LatitudeDegrees>
              <LongitudeDegrees>16.9525770284235477447509765625</LongitudeDegrees>
            </Position>
            <AltitudeMeters>582.79998779296875</AltitudeMeters>
            <DistanceMeters>427.60206072458</DistanceMeters>
          </Trackpoint>
          <Trackpoint>
            <Time>2022-08-26T19:14:14.000Z</Time>
            <Position>
              <LatitudeDegrees>50.16578343696892261505126953125</LatitudeDegrees>
              <LongitudeDegrees>16.95258700288832187652587890625</LongitudeDegrees>
            </Position>
            <AltitudeMeters>583</AltitudeMeters>
            <DistanceMeters>429.71413500436</DistanceMeters>
          </Trackpoint>
          <Trackpoint>
            <Time>2022-08-26T19:14:22.000Z</Time>
            <Position>
              <LatitudeDegrees>50.16587479971349239349365234375</LatitudeDegrees>
              <LongitudeDegrees>16.95265590213239192962646484375</LongitudeDegrees>
            </Position>
            <AltitudeMeters>583.20001220703125</AltitudeMeters>
            <DistanceMeters>441.00713148971</DistanceMeters>
          </Trackpoint>
          <Trackpoint>
            <Time>2022-08-26T19:14:32.000Z</Time>
            <Position>
              <LatitudeDegrees>50.165980160236358642578125</LatitudeDegrees>
              <LongitudeDegrees>16.95277157239615917205810546875</LongitudeDegrees>
            </Position>
            <AltitudeMeters>583.79998779296875</AltitudeMeters>
            <DistanceMeters>455.34388844578</DistanceMeters>
          </Trackpoint>
          <Trackpoint>
            <Time>2022-08-26T19:14:34.000Z</Time>
            <Position>
              <LatitudeDegrees>50.1660029590129852294921875</LatitudeDegrees>
              <LongitudeDegrees>16.95278867147862911224365234375</LongitudeDegrees>
            </Position>
            <AltitudeMeters>584</AltitudeMeters>
            <DistanceMeters>458.15963117511</DistanceMeters>
          </Trackpoint>
          <Trackpoint>
            <Time>2022-08-26T19:14:36.000Z</Time>
            <Position>
              <LatitudeDegrees>50.1660431921482086181640625</LatitudeDegrees>
              <LongitudeDegrees>16.952802836894989013671875</LongitudeDegrees>
            </Position>
            <AltitudeMeters>584</AltitudeMeters>
            <DistanceMeters>462.7505132712</DistanceMeters>
          </Trackpoint>
          <Trackpoint>
            <Time>2022-08-26T19:14:41.000Z</Time>
            <Position>
              <LatitudeDegrees>50.1661301963031291961669921875</LatitudeDegrees>
              <LongitudeDegrees>16.95282354019582271575927734375</LongitudeDegrees>
            </Position>
            <AltitudeMeters>584.20001220703125</AltitudeMeters>
            <DistanceMeters>472.5461037227</DistanceMeters>
          </Trackpoint>
          <Trackpoint>
            <Time>2022-08-26T19:14:48.000Z</Time>
            <Position>
              <LatitudeDegrees>50.16622868366539478302001953125</LatitudeDegrees>
              <LongitudeDegrees>16.9528254680335521697998046875</LongitudeDegrees>
            </Position>
            <AltitudeMeters>584.79998779296875</AltitudeMeters>
            <DistanceMeters>483.50841448805</DistanceMeters>
          </Trackpoint>
          <Trackpoint>
            <Time>2022-08-26T19:14:53.000Z</Time>
            <Position>
              <LatitudeDegrees>50.16630227677524089813232421875</LatitudeDegrees>
              <LongitudeDegrees>16.952858157455921173095703125</LongitudeDegrees>
            </Position>
            <AltitudeMeters>584.79998779296875</AltitudeMeters>
            <DistanceMeters>492.02431396617</DistanceMeters>
          </Trackpoint>
          <Trackpoint>
            <Time>2022-08-26T19:14:58.000Z</Time>
            <Position>
              <LatitudeDegrees>50.1663762889802455902099609375</LatitudeDegrees>
              <LongitudeDegrees>16.95289126597344875335693359375</LongitudeDegrees>
            </Position>
            <AltitudeMeters>584.5999755859375</AltitudeMeters>
            <DistanceMeters>500.59306834273</DistanceMeters>
          </Trackpoint>
          <Trackpoint>
            <Time>2022-08-26T19:15:05.000Z</Time>
            <Position>
              <LatitudeDegrees>50.166521631181240081787109375</LatitudeDegrees>
              <LongitudeDegrees>16.95296133868396282196044921875</LongitudeDegrees>
            </Position>
            <AltitudeMeters>584.4000244140625</AltitudeMeters>
            <DistanceMeters>517.52383166388</DistanceMeters>
          </Trackpoint>
          <Trackpoint>
            <Time>2022-08-26T19:15:12.000Z</Time>
            <Position>
              <LatitudeDegrees>50.16659949906170368194580078125</LatitudeDegrees>
              <LongitudeDegrees>16.95306963287293910980224609375</LongitudeDegrees>
            </Position>
            <AltitudeMeters>584.5999755859375</AltitudeMeters>
            <DistanceMeters>529.13071369427</DistanceMeters>
          </Trackpoint>
          <Trackpoint>
            <Time>2022-08-26T19:15:18.000Z</Time>
            <Position>
              <LatitudeDegrees>50.16666035167872905731201171875</LatitudeDegrees>
              <LongitudeDegrees>16.95315177552402019500732421875</LongitudeDegrees>
            </Position>
            <AltitudeMeters>584.79998779296875</AltitudeMeters>
            <DistanceMeters>538.08493329991</DistanceMeters>
          </Trackpoint>
          <Trackpoint>
            <Time>2022-08-26T19:15:19.000Z</Time>
            <Position>
              <LatitudeDegrees>50.16666621901094913482666015625</LatitudeDegrees>
              <LongitudeDegrees>16.95316703058779239654541015625</LongitudeDegrees>
            </Position>
            <AltitudeMeters>584.79998779296875</AltitudeMeters>
            <DistanceMeters>539.35274780015</DistanceMeters>
          </Trackpoint>
          <Trackpoint>
            <Time>2022-08-26T19:15:23.000Z</Time>
            <Position>
              <LatitudeDegrees>50.1666981540620326995849609375</LatitudeDegrees>
              <LongitudeDegrees>16.95322469808161258697509765625</LongitudeDegrees>
            </Position>
            <AltitudeMeters>585</AltitudeMeters>
            <DistanceMeters>544.78840876498</DistanceMeters>
          </Trackpoint>
          <Trackpoint>
            <Time>2022-08-26T19:15:25.000Z</Time>
            <Position>
              <LatitudeDegrees>50.1667095534503459930419921875</LatitudeDegrees>
              <LongitudeDegrees>16.95325302891433238983154296875</LongitudeDegrees>
            </Position>
            <AltitudeMeters>585</AltitudeMeters>
            <DistanceMeters>547.17545259284</DistanceMeters>
          </Trackpoint>
          <Trackpoint>
            <Time>2022-08-26T19:15:28.000Z</Time>
            <Position>
              <LatitudeDegrees>50.1667162589728832244873046875</LatitudeDegrees>
              <LongitudeDegrees>16.953300721943378448486328125</LongitudeDegrees>
            </Position>
            <AltitudeMeters>585</AltitudeMeters>
            <DistanceMeters>550.65789321175</DistanceMeters>
          </Trackpoint>
          <Trackpoint>
            <Time>2022-08-26T19:15:31.000Z</Time>
            <Position>
              <LatitudeDegrees>50.16672589816153049468994140625</LatitudeDegrees>
              <LongitudeDegrees>16.953343637287616729736328125</LongitudeDegrees>
            </Position>
            <AltitudeMeters>585.20001220703125</AltitudeMeters>
            <DistanceMeters>553.89996183854</DistanceMeters>
          </Trackpoint>
          <Trackpoint>
            <Time>2022-08-26T19:15:33.000Z</Time>
            <Position>
              <LatitudeDegrees>50.166733525693416595458984375</LatitudeDegrees>
              <LongitudeDegrees>16.9533756561577320098876953125</LongitudeDegrees>
            </Position>
            <AltitudeMeters>585.20001220703125</AltitudeMeters>
            <DistanceMeters>556.33568764898</DistanceMeters>
          </Trackpoint>
          <Trackpoint>
            <Time>2022-08-26T19:15:38.000Z</Time>
            <Position>
              <LatitudeDegrees>50.16673360951244831085205078125</LatitudeDegrees>
              <LongitudeDegrees>16.953458972275257110595703125</LongitudeDegrees>
            </Position>
            <AltitudeMeters>585.4000244140625</AltitudeMeters>
            <DistanceMeters>562.27618752214</DistanceMeters>
          </Trackpoint>
          <Trackpoint>
            <Time>2022-08-26T19:15:40.000Z</Time>
            <Position>
              <LatitudeDegrees>50.166742242872714996337890625</LatitudeDegrees>
              <LongitudeDegrees>16.95349308662116527557373046875</LongitudeDegrees>
            </Position>
            <AltitudeMeters>585.4000244140625</AltitudeMeters>
            <DistanceMeters>564.89244399743</DistanceMeters>
          </Trackpoint>
          <Trackpoint>
            <Time>2022-08-26T19:15:45.000Z</Time>
            <Position>
              <LatitudeDegrees>50.16678356565535068511962890625</LatitudeDegrees>
              <LongitudeDegrees>16.95356282405555248260498046875</LongitudeDegrees>
            </Position>
            <AltitudeMeters>585.5999755859375</AltitudeMeters>
            <DistanceMeters>571.66538931947</DistanceMeters>
          </Trackpoint>
          <Trackpoint>
            <Time>2022-08-26T19:15:46.000Z</Time>
            <Position>
              <LatitudeDegrees>50.16678792424499988555908203125</LatitudeDegrees>
              <LongitudeDegrees>16.9535768218338489532470703125</LongitudeDegrees>
            </Position>
            <AltitudeMeters>585.5999755859375</AltitudeMeters>
            <DistanceMeters>572.7735817199</DistanceMeters>
          </Trackpoint>
          <Trackpoint>
            <Time>2022-08-26T19:15:52.000Z</Time>
            <Position>
              <LatitudeDegrees>50.16680938191711902618408203125</LatitudeDegrees>
              <LongitudeDegrees>16.95368939079344272613525390625</LongitudeDegrees>
            </Position>
            <AltitudeMeters>586</AltitudeMeters>
            <DistanceMeters>581.14726332284</DistanceMeters>
          </Trackpoint>
          <Trackpoint>
            <Time>2022-08-26T19:15:56.000Z</Time>
            <Position>
              <LatitudeDegrees>50.16682061366736888885498046875</LatitudeDegrees>
              <LongitudeDegrees>16.953760720789432525634765625</LongitudeDegrees>
            </Position>
            <AltitudeMeters>586.20001220703125</AltitudeMeters>
            <DistanceMeters>586.3832266615</DistanceMeters>
          </Trackpoint>
          <Trackpoint>
            <Time>2022-08-26T19:15:58.000Z</Time>
            <Position>
              <LatitudeDegrees>50.1668366231024265289306640625</LatitudeDegrees>
              <LongitudeDegrees>16.95378695614635944366455078125</LongitudeDegrees>
            </Position>
            <AltitudeMeters>586.20001220703125</AltitudeMeters>
            <DistanceMeters>588.9647371526</DistanceMeters>
          </Trackpoint>
          <Trackpoint>
            <Time>2022-08-26T19:16:01.000Z</Time>
            <Position>
              <LatitudeDegrees>50.16684559173882007598876953125</LatitudeDegrees>
              <LongitudeDegrees>16.9538410194218158721923828125</LongitudeDegrees>
            </Position>
            <AltitudeMeters>586.4000244140625</AltitudeMeters>
            <DistanceMeters>592.94679870857</DistanceMeters>
          </Trackpoint>
          <Trackpoint>
            <Time>2022-08-26T19:16:03.000Z</Time>
            <Position>
              <LatitudeDegrees>50.1668480224907398223876953125</LatitudeDegrees>
              <LongitudeDegrees>16.953876055777072906494140625</LongitudeDegrees>
            </Position>
            <AltitudeMeters>586.79998779296875</AltitudeMeters>
            <DistanceMeters>595.45917277195</DistanceMeters>
          </Trackpoint>
          <Trackpoint>
            <Time>2022-08-26T19:16:04.000Z</Time>
            <Position>
              <LatitudeDegrees>50.16684927977621555328369140625</LatitudeDegrees>
              <LongitudeDegrees>16.95389709435403347015380859375</LongitudeDegrees>
            </Position>
            <AltitudeMeters>586.79998779296875</AltitudeMeters>
            <DistanceMeters>596.96467906135</DistanceMeters>
          </Trackpoint>
          <Trackpoint>
            <Time>2022-08-26T19:16:08.000Z</Time>
            <Position>
              <LatitudeDegrees>50.16687291674315929412841796875</LatitudeDegrees>
              <LongitudeDegrees>16.9539682567119598388671875</LongitudeDegrees>
            </Position>
            <AltitudeMeters>587</AltitudeMeters>
            <DistanceMeters>602.6789381053</DistanceMeters>
          </Trackpoint>
          <Trackpoint>
            <Time>2022-08-26T19:16:10.000Z</Time>
            <Position>
              <LatitudeDegrees>50.16689135693013668060302734375</LatitudeDegrees>
              <LongitudeDegrees>16.95400714874267578125</LongitudeDegrees>
            </Position>
            <AltitudeMeters>587.20001220703125</AltitudeMeters>
            <DistanceMeters>606.12881357452</DistanceMeters>
          </Trackpoint>
          <Trackpoint>
            <Time>2022-08-26T19:16:12.000Z</Time>
            <Position>
              <LatitudeDegrees>50.16691884957253932952880859375</LatitudeDegrees>
              <LongitudeDegrees>16.9540452025830745697021484375</LongitudeDegrees>
            </Position>
            <AltitudeMeters>587.20001220703125</AltitudeMeters>
            <DistanceMeters>610.21937975179</DistanceMeters>
          </Trackpoint>
          <Trackpoint>
            <Time>2022-08-26T19:16:18.000Z</Time>
            <Position>
              <LatitudeDegrees>50.16693075187504291534423828125</LatitudeDegrees>
              <LongitudeDegrees>16.9541598670184612274169921875</LongitudeDegrees>
            </Position>
            <AltitudeMeters>587.5999755859375</AltitudeMeters>
            <DistanceMeters>618.50034591012</DistanceMeters>
          </Trackpoint>
          <Trackpoint>
            <Time>2022-08-26T19:16:24.000Z</Time>
            <Position>
              <LatitudeDegrees>50.16695824451744556427001953125</LatitudeDegrees>
              <LongitudeDegrees>16.95426799356937408447265625</LongitudeDegrees>
            </Position>
            <AltitudeMeters>588.20001220703125</AltitudeMeters>
            <DistanceMeters>626.79438728632</DistanceMeters>
          </Trackpoint>
          <Trackpoint>
            <Time>2022-08-26T19:16:25.000Z</Time>
            <Position>
              <LatitudeDegrees>50.16696578823029994964599609375</LatitudeDegrees>
              <LongitudeDegrees>16.95428651757538318634033203125</LongitudeDegrees>
            </Position>
            <AltitudeMeters>588.4000244140625</AltitudeMeters>
            <DistanceMeters>628.3587244355</DistanceMeters>
          </Trackpoint>
          <Trackpoint>
            <Time>2022-08-26T19:16:31.000Z</Time>
            <Position>
              <LatitudeDegrees>50.1670049317181110382080078125</LatitudeDegrees>
              <LongitudeDegrees>16.95438659749925136566162109375</LongitudeDegrees>
            </Position>
            <AltitudeMeters>588.79998779296875</AltitudeMeters>
            <DistanceMeters>636.71891532305</DistanceMeters>
          </Trackpoint>
          <Trackpoint>
            <Time>2022-08-26T19:16:36.000Z</Time>
            <Position>
              <LatitudeDegrees>50.16705513931810855865478515625</LatitudeDegrees>
              <LongitudeDegrees>16.95446002297103404998779296875</LongitudeDegrees>
            </Position>
            <AltitudeMeters>589.20001220703125</AltitudeMeters>
            <DistanceMeters>644.37549786843</DistanceMeters>
          </Trackpoint>
          <Trackpoint>
            <Time>2022-08-26T19:16:40.000Z</Time>
            <Position>
              <LatitudeDegrees>50.1670880801975727081298828125</LatitudeDegrees>
              <LongitudeDegrees>16.95452146232128143310546875</LongitudeDegrees>
            </Position>
            <AltitudeMeters>589.79998779296875</AltitudeMeters>
            <DistanceMeters>650.08659549634</DistanceMeters>
          </Trackpoint>
          <Trackpoint>
            <Time>2022-08-26T19:16:43.000Z</Time>
            <Position>
              <LatitudeDegrees>50.16710610128939151763916015625</LatitudeDegrees>
              <LongitudeDegrees>16.95456529967486858367919921875</LongitudeDegrees>
            </Position>
            <AltitudeMeters>590.4000244140625</AltitudeMeters>
            <DistanceMeters>653.79993990939</DistanceMeters>
          </Trackpoint>
          <Trackpoint>
            <Time>2022-08-26T19:16:49.000Z</Time>
            <Position>
              <LatitudeDegrees>50.167147256433963775634765625</LatitudeDegrees>
              <LongitudeDegrees>16.95464660413563251495361328125</LongitudeDegrees>
            </Position>
            <AltitudeMeters>591.4000244140625</AltitudeMeters>
            <DistanceMeters>661.1888398397</DistanceMeters>
          </Trackpoint>
          <Trackpoint>
            <Time>2022-08-26T19:16:56.000Z</Time>
            <Position>
              <LatitudeDegrees>50.16719629056751728057861328125</LatitudeDegrees>
              <LongitudeDegrees>16.954733021557331085205078125</LongitudeDegrees>
            </Position>
            <AltitudeMeters>592.5999755859375</AltitudeMeters>
            <DistanceMeters>669.4194919088</DistanceMeters>
          </Trackpoint>
          <Trackpoint>
            <Time>2022-08-26T19:16:58.000Z</Time>
            <Position>
              <LatitudeDegrees>50.16721053980290889739990234375</LatitudeDegrees>
              <LongitudeDegrees>16.95475892163813114166259765625</LongitudeDegrees>
            </Position>
            <AltitudeMeters>592.79998779296875</AltitudeMeters>
            <DistanceMeters>671.85336334074</DistanceMeters>
          </Trackpoint>
          <Trackpoint>
            <Time>2022-08-26T19:17:04.000Z</Time>
            <Position>
              <LatitudeDegrees>50.16724859364330768585205078125</LatitudeDegrees>
              <LongitudeDegrees>16.9548508711159229278564453125</LongitudeDegrees>
            </Position>
            <AltitudeMeters>593.5999755859375</AltitudeMeters>
            <DistanceMeters>679.65771248814</DistanceMeters>
          </Trackpoint>
          <Trackpoint>
            <Time>2022-08-26T19:17:07.000Z</Time>
            <Position>
              <LatitudeDegrees>50.16727005131542682647705078125</LatitudeDegrees>
              <LongitudeDegrees>16.95489554665982723236083984375</LongitudeDegrees>
            </Position>
            <AltitudeMeters>594</AltitudeMeters>
            <DistanceMeters>683.63977404412</DistanceMeters>
          </Trackpoint>
          <Trackpoint>
            <Time>2022-08-26T19:17:11.000Z</Time>
            <Position>
              <LatitudeDegrees>50.167284049093723297119140625</LatitudeDegrees>
              <LongitudeDegrees>16.95494935847818851470947265625</LongitudeDegrees>
            </Position>
            <AltitudeMeters>594.5999755859375</AltitudeMeters>
            <DistanceMeters>687.78080231824</DistanceMeters>
          </Trackpoint>
          <Trackpoint>
            <Time>2022-08-26T19:17:15.000Z</Time>
            <Position>
              <LatitudeDegrees>50.167294107377529144287109375</LatitudeDegrees>
              <LongitudeDegrees>16.95501205511391162872314453125</LongitudeDegrees>
            </Position>
            <AltitudeMeters>595.20001220703125</AltitudeMeters>
            <DistanceMeters>692.38935304446</DistanceMeters>
          </Trackpoint>
          <Trackpoint>
            <Time>2022-08-26T19:17:18.000Z</Time>
            <Position>
              <LatitudeDegrees>50.16730072908103466033935546875</LatitudeDegrees>
              <LongitudeDegrees>16.955050863325595855712890625</LongitudeDegrees>
            </Position>
            <AltitudeMeters>595.79998779296875</AltitudeMeters>
            <DistanceMeters>695.25279667253</DistanceMeters>
          </Trackpoint>
          <Trackpoint>
            <Time>2022-08-26T19:17:22.000Z</Time>
            <Position>
              <LatitudeDegrees>50.1673214323818683624267578125</LatitudeDegrees>
              <LongitudeDegrees>16.9550949521362781524658203125</LongitudeDegrees>
            </Position>
            <AltitudeMeters>596.20001220703125</AltitudeMeters>
            <DistanceMeters>699.15005065177</DistanceMeters>
          </Trackpoint>
          <Trackpoint>
            <Time>2022-08-26T19:17:25.000Z</Time>
            <Position>
              <LatitudeDegrees>50.1673440635204315185546875</LatitudeDegrees>
              <LongitudeDegrees>16.95512093603610992431640625</LongitudeDegrees>
            </Position>
            <AltitudeMeters>597</AltitudeMeters>
            <DistanceMeters>702.27728150171</DistanceMeters>
          </Trackpoint>
          <Trackpoint>
            <Time>2022-08-26T19:17:33.000Z</Time>
            <Position>
              <LatitudeDegrees>50.1674146391451358795166015625</LatitudeDegrees>
              <LongitudeDegrees>16.9551824592053890228271484375</LongitudeDegrees>
            </Position>
            <AltitudeMeters>598</AltitudeMeters>
            <DistanceMeters>711.27425906329</DistanceMeters>
          </Trackpoint>
          <Trackpoint>
            <Time>2022-08-26T19:17:39.000Z</Time>
            <Position>
              <LatitudeDegrees>50.167478509247303009033203125</LatitudeDegrees>
              <LongitudeDegrees>16.95523920468986034393310546875</LongitudeDegrees>
            </Position>
            <AltitudeMeters>599.20001220703125</AltitudeMeters>
            <DistanceMeters>719.45318358286</DistanceMeters>
          </Trackpoint>
          <Trackpoint>
            <Time>2022-08-26T19:17:44.000Z</Time>
            <Position>
              <LatitudeDegrees>50.167526118457317352294921875</LatitudeDegrees>
              <LongitudeDegrees>16.95528798736631870269775390625</LongitudeDegrees>
            </Position>
            <AltitudeMeters>599.79998779296875</AltitudeMeters>
            <DistanceMeters>725.79225608407</DistanceMeters>
          </Trackpoint>
          <Trackpoint>
            <Time>2022-08-26T19:17:46.000Z</Time>
            <Position>
              <LatitudeDegrees>50.16754011623561382293701171875</LatitudeDegrees>
              <LongitudeDegrees>16.9553155638277530670166015625</LongitudeDegrees>
            </Position>
            <AltitudeMeters>600.20001220703125</AltitudeMeters>
            <DistanceMeters>728.29923298963</DistanceMeters>
          </Trackpoint>
          <Trackpoint>
            <Time>2022-08-26T19:17:51.000Z</Time>
            <Position>
              <LatitudeDegrees>50.16758747398853302001953125</LatitudeDegrees>
              <LongitudeDegrees>16.955374069511890411376953125</LongitudeDegrees>
            </Position>
            <AltitudeMeters>601</AltitudeMeters>
            <DistanceMeters>735.02065192086</DistanceMeters>
          </Trackpoint>
          <Trackpoint>
            <Time>2022-08-26T19:17:53.000Z</Time>
            <Position>
              <LatitudeDegrees>50.167601890861988067626953125</LatitudeDegrees>
              <LongitudeDegrees>16.95539628155529499053955078125</LongitudeDegrees>
            </Position>
            <AltitudeMeters>601.20001220703125</AltitudeMeters>
            <DistanceMeters>737.27741134853</DistanceMeters>
          </Trackpoint>
          <Trackpoint>
            <Time>2022-08-26T19:17:58.000Z</Time>
            <Position>
              <LatitudeDegrees>50.16765142790973186492919921875</LatitudeDegrees>
              <LongitudeDegrees>16.9554376043379306793212890625</LongitudeDegrees>
            </Position>
            <AltitudeMeters>601.79998779296875</AltitudeMeters>
            <DistanceMeters>743.52898481842</DistanceMeters>
          </Trackpoint>
          <Trackpoint>
            <Time>2022-08-26T19:18:03.000Z</Time>
            <Position>
              <LatitudeDegrees>50.16770683228969573974609375</LatitudeDegrees>
              <LongitudeDegrees>16.95546920411288738250732421875</LongitudeDegrees>
            </Position>
            <AltitudeMeters>602.20001220703125</AltitudeMeters>
            <DistanceMeters>750.09477379945</DistanceMeters>
          </Trackpoint>
          <Trackpoint>
            <Time>2022-08-26T19:18:04.000Z</Time>
            <Position>
              <LatitudeDegrees>50.1677163876593112945556640625</LatitudeDegrees>
              <LongitudeDegrees>16.95547808893024921417236328125</LongitudeDegrees>
            </Position>
            <AltitudeMeters>602.4000244140625</AltitudeMeters>
            <DistanceMeters>751.33377056921</DistanceMeters>
          </Trackpoint>
          <Trackpoint>
            <Time>2022-08-26T19:18:06.000Z</Time>
            <Position>
              <LatitudeDegrees>50.1677378453314304351806640625</LatitudeDegrees>
              <LongitudeDegrees>16.95549066178500652313232421875</LongitudeDegrees>
            </Position>
            <AltitudeMeters>602.5999755859375</AltitudeMeters>
            <DistanceMeters>753.88360488533</DistanceMeters>
          </Trackpoint>
          <Trackpoint>
            <Time>2022-08-26T19:18:12.000Z</Time>
            <Position>
              <LatitudeDegrees>50.167815126478672027587890625</LatitudeDegrees>
              <LongitudeDegrees>16.95555235259234905242919921875</LongitudeDegrees>
            </Position>
            <AltitudeMeters>603.4000244140625</AltitudeMeters>
            <DistanceMeters>763.54413489399</DistanceMeters>
          </Trackpoint>
          <Trackpoint>
            <Time>2022-08-26T19:18:15.000Z</Time>
            <Position>
              <LatitudeDegrees>50.16787354834377765655517578125</LatitudeDegrees>
              <LongitudeDegrees>16.95558135397732257843017578125</LongitudeDegrees>
            </Position>
            <AltitudeMeters>603.5999755859375</AltitudeMeters>
            <DistanceMeters>770.36755589412</DistanceMeters>
          </Trackpoint>
          <Trackpoint>
            <Time>2022-08-26T19:18:22.000Z</Time>
            <Position>
              <LatitudeDegrees>50.16798871569335460662841796875</LatitudeDegrees>
              <LongitudeDegrees>16.95566433481872081756591796875</LongitudeDegrees>
            </Position>
            <AltitudeMeters>604.20001220703125</AltitudeMeters>
            <DistanceMeters>784.48534068038</DistanceMeters>
          </Trackpoint>
          <Trackpoint>
            <Time>2022-08-26T19:18:23.000Z</Time>
            <Position>
              <LatitudeDegrees>50.1680012047290802001953125</LatitudeDegrees>
              <LongitudeDegrees>16.95567875169217586517333984375</LongitudeDegrees>
            </Position>
            <AltitudeMeters>604.4000244140625</AltitudeMeters>
            <DistanceMeters>786.2168098194</DistanceMeters>
          </Trackpoint>
          <Trackpoint>
            <Time>2022-08-26T19:18:26.000Z</Time>
            <Position>
              <LatitudeDegrees>50.1680399291217327117919921875</LatitudeDegrees>
              <LongitudeDegrees>16.95571915246546268463134765625</LongitudeDegrees>
            </Position>
            <AltitudeMeters>604.5999755859375</AltitudeMeters>
            <DistanceMeters>791.40077620598</DistanceMeters>
          </Trackpoint>
          <Trackpoint>
            <Time>2022-08-26T19:18:32.000Z</Time>
            <Position>
              <LatitudeDegrees>50.16808778978884220123291015625</LatitudeDegrees>
              <LongitudeDegrees>16.95580582134425640106201171875</LongitudeDegrees>
            </Position>
            <AltitudeMeters>604.79998779296875</AltitudeMeters>
            <DistanceMeters>799.55869649194</DistanceMeters>
          </Trackpoint>
          <Trackpoint>
            <Time>2022-08-26T19:18:39.000Z</Time>
            <Position>
              <LatitudeDegrees>50.168129615485668182373046875</LatitudeDegrees>
              <LongitudeDegrees>16.95591746829450130462646484375</LongitudeDegrees>
            </Position>
            <AltitudeMeters>605.20001220703125</AltitudeMeters>
            <DistanceMeters>808.77971594731</DistanceMeters>
          </Trackpoint>
          <Trackpoint>
            <Time>2022-08-26T19:18:43.000Z</Time>
            <Position>
              <LatitudeDegrees>50.168152749538421630859375</LatitudeDegrees>
              <LongitudeDegrees>16.95598385296761989593505859375</LongitudeDegrees>
            </Position>
            <AltitudeMeters>605.4000244140625</AltitudeMeters>
            <DistanceMeters>814.16698479997</DistanceMeters>
          </Trackpoint>
          <Trackpoint>
            <Time>2022-08-26T19:18:48.000Z</Time>
            <Position>
              <LatitudeDegrees>50.168174542486667633056640625</LatitudeDegrees>
              <LongitudeDegrees>16.9560618884861469268798828125</LongitudeDegrees>
            </Position>
            <AltitudeMeters>605.5999755859375</AltitudeMeters>
            <DistanceMeters>820.23531667442</DistanceMeters>
          </Trackpoint>
          <Trackpoint>
            <Time>2022-08-26T19:18:55.000Z</Time>
            <Position>
              <LatitudeDegrees>50.16819943673908710479736328125</LatitudeDegrees>
              <LongitudeDegrees>16.9562053866684436798095703125</LongitudeDegrees>
            </Position>
            <AltitudeMeters>605.79998779296875</AltitudeMeters>
            <DistanceMeters>830.83409731008</DistanceMeters>
          </Trackpoint>
          <Trackpoint>
            <Time>2022-08-26T19:19:02.000Z</Time>
            <Position>
              <LatitudeDegrees>50.16824201680719852447509765625</LatitudeDegrees>
              <LongitudeDegrees>16.95634695701301097869873046875</LongitudeDegrees>
            </Position>
            <AltitudeMeters>606.20001220703125</AltitudeMeters>
            <DistanceMeters>841.98425840669</DistanceMeters>
          </Trackpoint>
          <Trackpoint>
            <Time>2022-08-26T19:19:08.000Z</Time>
            <Position>
              <LatitudeDegrees>50.1682799868285655975341796875</LatitudeDegrees>
              <LongitudeDegrees>16.95645558647811412811279296875</LongitudeDegrees>
            </Position>
            <AltitudeMeters>606.4000244140625</AltitudeMeters>
            <DistanceMeters>850.80691440967</DistanceMeters>
          </Trackpoint>
          <Trackpoint>
            <Time>2022-08-26T19:19:10.000Z</Time>
            <Position>
              <LatitudeDegrees>50.1682954095304012298583984375</LatitudeDegrees>
              <LongitudeDegrees>16.95649447850883007049560546875</LongitudeDegrees>
            </Position>
            <AltitudeMeters>606.5999755859375</AltitudeMeters>
            <DistanceMeters>854.06842173773</DistanceMeters>
          </Trackpoint>
          <Trackpoint>
            <Time>2022-08-26T19:19:16.000Z</Time>
            <Position>
              <LatitudeDegrees>50.16832969151437282562255859375</LatitudeDegrees>
              <LongitudeDegrees>16.9566104002296924591064453125</LongitudeDegrees>
            </Position>
            <AltitudeMeters>606.79998779296875</AltitudeMeters>
            <DistanceMeters>863.17116755697</DistanceMeters>
          </Trackpoint>
          <Trackpoint>
            <Time>2022-08-26T19:19:24.000Z</Time>
            <Position>
              <LatitudeDegrees>50.1683567650616168975830078125</LatitudeDegrees>
              <LongitudeDegrees>16.9567569158971309661865234375</LongitudeDegrees>
            </Position>
            <AltitudeMeters>607.4000244140625</AltitudeMeters>
            <DistanceMeters>874.0429047951</DistanceMeters>
          </Trackpoint>
          <Trackpoint>
            <Time>2022-08-26T19:19:26.000Z</Time>
            <Position>
              <LatitudeDegrees>50.16836338676512241363525390625</LatitudeDegrees>
              <LongitudeDegrees>16.95679203607141971588134765625</LongitudeDegrees>
            </Position>
            <AltitudeMeters>607.5999755859375</AltitudeMeters>
            <DistanceMeters>876.65224908797</DistanceMeters>
          </Trackpoint>
          <Trackpoint>
            <Time>2022-08-26T19:19:33.000Z</Time>
            <Position>
              <LatitudeDegrees>50.16838149167597293853759765625</LatitudeDegrees>
              <LongitudeDegrees>16.95691608823835849761962890625</LongitudeDegrees>
            </Position>
            <AltitudeMeters>608.20001220703125</AltitudeMeters>
            <DistanceMeters>885.72319482462</DistanceMeters>
          </Trackpoint>
          <Trackpoint>
            <Time>2022-08-26T19:19:36.000Z</Time>
            <Position>
              <LatitudeDegrees>50.1683866046369075775146484375</LatitudeDegrees>
              <LongitudeDegrees>16.95698180235922336578369140625</LongitudeDegrees>
            </Position>
            <AltitudeMeters>608.5999755859375</AltitudeMeters>
            <DistanceMeters>890.44306755461</DistanceMeters>
          </Trackpoint>
          <Trackpoint>
            <Time>2022-08-26T19:19:42.000Z</Time>
            <Position>
              <LatitudeDegrees>50.1683983393013477325439453125</LatitudeDegrees>
              <LongitudeDegrees>16.95709981955587863922119140625</LongitudeDegrees>
            </Position>
            <AltitudeMeters>609.4000244140625</AltitudeMeters>
            <DistanceMeters>898.95737631645</DistanceMeters>
          </Trackpoint>
          <Trackpoint>
            <Time>2022-08-26T19:19:45.000Z</Time>
            <Position>
              <LatitudeDegrees>50.16840077005326747894287109375</LatitudeDegrees>
              <LongitudeDegrees>16.9571575708687305450439453125</LongitudeDegrees>
            </Position>
            <AltitudeMeters>609.5999755859375</AltitudeMeters>
            <DistanceMeters>903.08311189897</DistanceMeters>
          </Trackpoint>
          <Trackpoint>
            <Time>2022-08-26T19:19:50.000Z</Time>
            <Position>
              <LatitudeDegrees>50.16841250471770763397216796875</LatitudeDegrees>
              <LongitudeDegrees>16.9572366960346698760986328125</LongitudeDegrees>
            </Position>
            <AltitudeMeters>610.20001220703125</AltitudeMeters>
            <DistanceMeters>908.87350686274</DistanceMeters>
          </Trackpoint>
          <Trackpoint>
            <Time>2022-08-26T19:19:55.000Z</Time>
            <Position>
              <LatitudeDegrees>50.16842574812471866607666015625</LatitudeDegrees>
              <LongitudeDegrees>16.95732302963733673095703125</LongitudeDegrees>
            </Position>
            <AltitudeMeters>610.5999755859375</AltitudeMeters>
            <DistanceMeters>915.20259993405</DistanceMeters>
          </Trackpoint>
          <Trackpoint>
            <Time>2022-08-26T19:19:59.000Z</Time>
            <Position>
              <LatitudeDegrees>50.1684298552572727203369140625</LatitudeDegrees>
              <LongitudeDegrees>16.95738564245402812957763671875</LongitudeDegrees>
            </Position>
            <AltitudeMeters>611</AltitudeMeters>
            <DistanceMeters>919.69003466562</DistanceMeters>
          </Trackpoint>
          <Trackpoint>
            <Time>2022-08-26T19:20:05.000Z</Time>
            <Position>
              <LatitudeDegrees>50.16844066791236400604248046875</LatitudeDegrees>
              <LongitudeDegrees>16.95750919170677661895751953125</LongitudeDegrees>
            </Position>
            <AltitudeMeters>611.5999755859375</AltitudeMeters>
            <DistanceMeters>928.57998567996</DistanceMeters>
          </Trackpoint>
          <Trackpoint>
            <Time>2022-08-26T19:20:07.000Z</Time>
            <Position>
              <LatitudeDegrees>50.168442092835903167724609375</LatitudeDegrees>
              <LongitudeDegrees>16.9575421325862407684326171875</LongitudeDegrees>
            </Position>
            <AltitudeMeters>611.79998779296875</AltitudeMeters>
            <DistanceMeters>930.9346548577</DistanceMeters>
          </Trackpoint>
          <Trackpoint>
            <Time>2022-08-26T19:20:14.000Z</Time>
            <Position>
              <LatitudeDegrees>50.16844569705426692962646484375</LatitudeDegrees>
              <LongitudeDegrees>16.9576584734022617340087890625</LongitudeDegrees>
            </Position>
            <AltitudeMeters>612.79998779296875</AltitudeMeters>
            <DistanceMeters>939.23848913628</DistanceMeters>
          </Trackpoint>
          <Trackpoint>
            <Time>2022-08-26T19:20:15.000Z</Time>
            <Position>
              <LatitudeDegrees>50.16844653524458408355712890625</LatitudeDegrees>
              <LongitudeDegrees>16.95767465047538280487060546875</LongitudeDegrees>
            </Position>
            <AltitudeMeters>613</AltitudeMeters>
            <DistanceMeters>940.39843801021</DistanceMeters>
          </Trackpoint>
          <Trackpoint>
            <Time>2022-08-26T19:20:24.000Z</Time>
            <Position>
              <LatitudeDegrees>50.16845542006194591522216796875</LatitudeDegrees>
              <LongitudeDegrees>16.95782468654215335845947265625</LongitudeDegrees>
            </Position>
            <AltitudeMeters>614</AltitudeMeters>
            <DistanceMeters>951.14066063299</DistanceMeters>
          </Trackpoint>
          <Trackpoint>
            <Time>2022-08-26T19:20:25.000Z</Time>
            <Position>
              <LatitudeDegrees>50.16845843754708766937255859375</LatitudeDegrees>
              <LongitudeDegrees>16.95784279145300388336181640625</LongitudeDegrees>
            </Position>
            <AltitudeMeters>614</AltitudeMeters>
            <DistanceMeters>952.47780502905</DistanceMeters>
          </Trackpoint>
          <Trackpoint>
            <Time>2022-08-26T19:20:30.000Z</Time>
            <Position>
              <LatitudeDegrees>50.16845977865159511566162109375</LatitudeDegrees>
              <LongitudeDegrees>16.95793063379824161529541015625</LongitudeDegrees>
            </Position>
            <AltitudeMeters>615</AltitudeMeters>
            <DistanceMeters>958.74236504755</DistanceMeters>
          </Trackpoint>
          <Trackpoint>
            <Time>2022-08-26T19:20:33.000Z</Time>
            <Position>
              <LatitudeDegrees>50.168457515537738800048828125</LatitudeDegrees>
              <LongitudeDegrees>16.95798243395984172821044921875</LongitudeDegrees>
            </Position>
            <AltitudeMeters>615.4000244140625</AltitudeMeters>
            <DistanceMeters>962.44231043756</DistanceMeters>
          </Trackpoint>
          <Trackpoint>
            <Time>2022-08-26T19:20:37.000Z</Time>
            <Position>
              <LatitudeDegrees>50.16845793463289737701416015625</LatitudeDegrees>
              <LongitudeDegrees>16.958052255213260650634765625</LongitudeDegrees>
            </Position>
            <AltitudeMeters>616.4000244140625</AltitudeMeters>
            <DistanceMeters>967.42011414624</DistanceMeters>
          </Trackpoint>
          <Trackpoint>
            <Time>2022-08-26T19:20:41.000Z</Time>
            <Position>
              <LatitudeDegrees>50.168451480567455291748046875</LatitudeDegrees>
              <LongitudeDegrees>16.958111934363842010498046875</LongitudeDegrees>
            </Position>
            <AltitudeMeters>617</AltitudeMeters>
            <DistanceMeters>971.73415952744</DistanceMeters>
          </Trackpoint>
          <Trackpoint>
            <Time>2022-08-26T19:20:43.000Z</Time>
            <Position>
              <LatitudeDegrees>50.16844821162521839141845703125</LatitudeDegrees>
              <LongitudeDegrees>16.95815057493746280670166015625</LongitudeDegrees>
            </Position>
            <AltitudeMeters>617.4000244140625</AltitudeMeters>
            <DistanceMeters>974.51277705412</DistanceMeters>
          </Trackpoint>
          <Trackpoint>
            <Time>2022-08-26T19:20:49.000Z</Time>
            <Position>
              <LatitudeDegrees>50.1684491336345672607421875</LatitudeDegrees>
              <LongitudeDegrees>16.958235986530780792236328125</LongitudeDegrees>
            </Position>
            <AltitudeMeters>618.4000244140625</AltitudeMeters>
            <DistanceMeters>980.60264765663</DistanceMeters>
          </Trackpoint>
          <Trackpoint>
            <Time>2022-08-26T19:20:50.000Z</Time>
            <Position>
              <LatitudeDegrees>50.16844720579683780670166015625</LatitudeDegrees>
              <LongitudeDegrees>16.95825383998453617095947265625</LongitudeDegrees>
            </Position>
            <AltitudeMeters>618.5999755859375</AltitudeMeters>
            <DistanceMeters>981.89165272477</DistanceMeters>
          </Trackpoint>
          <Trackpoint>
            <Time>2022-08-26T19:20:56.000Z</Time>
            <Position>
              <LatitudeDegrees>50.1684472896158695220947265625</LatitudeDegrees>
              <LongitudeDegrees>16.95834855549037456512451171875</LongitudeDegrees>
            </Position>
            <AltitudeMeters>619.79998779296875</AltitudeMeters>
            <DistanceMeters>988.64456957913</DistanceMeters>
          </Trackpoint>
          <Trackpoint>
            <Time>2022-08-26T19:21:02.000Z</Time>
            <Position>
              <LatitudeDegrees>50.168445110321044921875</LatitudeDegrees>
              <LongitudeDegrees>16.9584493897855281829833984375</LongitudeDegrees>
            </Position>
            <AltitudeMeters>620.79998779296875</AltitudeMeters>
            <DistanceMeters>995.83778430023</DistanceMeters>
          </Trackpoint>
          <Trackpoint>
            <Time>2022-08-26T19:21:04.000Z</Time>
            <Position>
              <LatitudeDegrees>50.16844175755977630615234375</LatitudeDegrees>
              <LongitudeDegrees>16.9584850966930389404296875</LongitudeDegrees>
            </Position>
            <AltitudeMeters>621.20001220703125</AltitudeMeters>
            <DistanceMeters>998.40877942994</DistanceMeters>
          </Trackpoint>
          <Trackpoint>
            <Time>2022-08-26T19:21:07.000Z</Time>
            <Position>
              <LatitudeDegrees>50.1684375666081905364990234375</LatitudeDegrees>
              <LongitudeDegrees>16.95853882469236850738525390625</LongitudeDegrees>
            </Position>
            <AltitudeMeters>621.79998779296875</AltitudeMeters>
            <DistanceMeters>1002.2664427097</DistanceMeters>
          </Trackpoint>
          <Trackpoint>
            <Time>2022-08-26T19:21:14.000Z</Time>
            <Position>
              <LatitudeDegrees>50.16843060962855815887451171875</LatitudeDegrees>
              <LongitudeDegrees>16.95865851826965808868408203125</LongitudeDegrees>
            </Position>
            <AltitudeMeters>622.79998779296875</AltitudeMeters>
            <DistanceMeters>1010.8346701512</DistanceMeters>
          </Trackpoint>
          <Trackpoint>
            <Time>2022-08-26T19:21:21.000Z</Time>
            <Position>
              <LatitudeDegrees>50.168416611850261688232421875</LatitudeDegrees>
              <LongitudeDegrees>16.9587551616132259368896484375</LongitudeDegrees>
            </Position>
            <AltitudeMeters>624</AltitudeMeters>
            <DistanceMeters>1017.8986776844</DistanceMeters>
          </Trackpoint>
          <Trackpoint>
            <Time>2022-08-26T19:21:24.000Z</Time>
            <Position>
              <LatitudeDegrees>50.16840613447129726409912109375</LatitudeDegrees>
              <LongitudeDegrees>16.9588000886142253875732421875</LongitudeDegrees>
            </Position>
            <AltitudeMeters>624.4000244140625</AltitudeMeters>
            <DistanceMeters>1021.3090645334</DistanceMeters>
          </Trackpoint>
          <Trackpoint>
            <Time>2022-08-26T19:21:28.000Z</Time>
            <Position>
              <LatitudeDegrees>50.16839926131069660186767578125</LatitudeDegrees>
              <LongitudeDegrees>16.95885867811739444732666015625</LongitudeDegrees>
            </Position>
            <AltitudeMeters>625.20001220703125</AltitudeMeters>
            <DistanceMeters>1025.5555999045</DistanceMeters>
          </Trackpoint>
          <Trackpoint>
            <Time>2022-08-26T19:21:34.000Z</Time>
            <Position>
              <LatitudeDegrees>50.16839255578815937042236328125</LatitudeDegrees>
              <LongitudeDegrees>16.95894065313041210174560546875</LongitudeDegrees>
            </Position>
            <AltitudeMeters>626.79998779296875</AltitudeMeters>
            <DistanceMeters>1031.4472561955</DistanceMeters>
          </Trackpoint>
          <Trackpoint>
            <Time>2022-08-26T19:21:35.000Z</Time>
            <Position>
              <LatitudeDegrees>50.16839104704558849334716796875</LatitudeDegrees>
              <LongitudeDegrees>16.95895423181354999542236328125</LongitudeDegrees>
            </Position>
            <AltitudeMeters>627</AltitudeMeters>
            <DistanceMeters>1032.4348027797</DistanceMeters>
          </Trackpoint>
          <Trackpoint>
            <Time>2022-08-26T19:21:36.000Z</Time>
            <Position>
              <LatitudeDegrees>50.168389119207859039306640625</LatitudeDegrees>
              <LongitudeDegrees>16.9589652121067047119140625</LongitudeDegrees>
            </Position>
            <AltitudeMeters>627</AltitudeMeters>
            <DistanceMeters>1033.2467113831</DistanceMeters>
          </Trackpoint>
          <Trackpoint>
            <Time>2022-08-26T19:21:40.000Z</Time>
            <Position>
              <LatitudeDegrees>50.168384425342082977294921875</LatitudeDegrees>
              <LongitudeDegrees>16.95900854654610157012939453125</LongitudeDegrees>
            </Position>
            <AltitudeMeters>627.79998779296875</AltitudeMeters>
            <DistanceMeters>1036.381152828</DistanceMeters>
          </Trackpoint>
          <Trackpoint>
            <Time>2022-08-26T19:21:46.000Z</Time>
            <Position>
              <LatitudeDegrees>50.16837512142956256866455078125</LatitudeDegrees>
              <LongitudeDegrees>16.95908985100686550140380859375</LongitudeDegrees>
            </Position>
            <AltitudeMeters>628.5999755859375</AltitudeMeters>
            <DistanceMeters>1042.2705096368</DistanceMeters>
          </Trackpoint>
          <Trackpoint>
            <Time>2022-08-26T19:21:47.000Z</Time>
            <Position>
              <LatitudeDegrees>50.16837428323924541473388671875</LatitudeDegrees>
              <LongitudeDegrees>16.959105692803859710693359375</LongitudeDegrees>
            </Position>
            <AltitudeMeters>628.79998779296875</AltitudeMeters>
            <DistanceMeters>1043.4028836276</DistanceMeters>
          </Trackpoint>
          <Trackpoint>
            <Time>2022-08-26T19:21:55.000Z</Time>
            <Position>
              <LatitudeDegrees>50.168372355401515960693359375</LatitudeDegrees>
              <LongitudeDegrees>16.95923276245594024658203125</LongitudeDegrees>
            </Position>
            <AltitudeMeters>630</AltitudeMeters>
            <DistanceMeters>1052.4638689508</DistanceMeters>
          </Trackpoint>
          <Trackpoint>
            <Time>2022-08-26T19:22:02.000Z</Time>
            <Position>
              <LatitudeDegrees>50.16836036927998065948486328125</LatitudeDegrees>
              <LongitudeDegrees>16.9593522883951663970947265625</LongitudeDegrees>
            </Position>
            <AltitudeMeters>630.79998779296875</AltitudeMeters>
            <DistanceMeters>1061.0888193707</DistanceMeters>
          </Trackpoint>
          <Trackpoint>
            <Time>2022-08-26T19:22:04.000Z</Time>
            <Position>
              <LatitudeDegrees>50.1683611236512660980224609375</LatitudeDegrees>
              <LongitudeDegrees>16.95938355289399623870849609375</LongitudeDegrees>
            </Position>
            <AltitudeMeters>631.20001220703125</AltitudeMeters>
            <DistanceMeters>1063.3173933641</DistanceMeters>
          </Trackpoint>
          <Trackpoint>
            <Time>2022-08-26T19:22:10.000Z</Time>
            <Position>
              <LatitudeDegrees>50.16835416667163372039794921875</LatitudeDegrees>
              <LongitudeDegrees>16.9594760052859783172607421875</LongitudeDegrees>
            </Position>
            <AltitudeMeters>631.79998779296875</AltitudeMeters>
            <DistanceMeters>1069.9543138016</DistanceMeters>
          </Trackpoint>
          <Trackpoint>
            <Time>2022-08-26T19:22:16.000Z</Time>
            <Position>
              <LatitudeDegrees>50.16836590133607387542724609375</LatitudeDegrees>
              <LongitudeDegrees>16.95956175215542316436767578125</LongitudeDegrees>
            </Position>
            <AltitudeMeters>632.20001220703125</AltitudeMeters>
            <DistanceMeters>1076.2058872715</DistanceMeters>
          </Trackpoint>
          <Trackpoint>
            <Time>2022-08-26T19:22:18.000Z</Time>
            <Position>
              <LatitudeDegrees>50.1683638058602809906005859375</LatitudeDegrees>
              <LongitudeDegrees>16.9595849700272083282470703125</LongitudeDegrees>
            </Position>
            <AltitudeMeters>632.4000244140625</AltitudeMeters>
            <DistanceMeters>1077.8790052284</DistanceMeters>
          </Trackpoint>
          <Trackpoint>
            <Time>2022-08-26T19:22:29.000Z</Time>
            <Position>
              <LatitudeDegrees>50.16838283278048038482666015625</LatitudeDegrees>
              <LongitudeDegrees>16.95974246598780155181884765625</LongitudeDegrees>
            </Position>
            <AltitudeMeters>633.20001220703125</AltitudeMeters>
            <DistanceMeters>1089.3051526643</DistanceMeters>
          </Trackpoint>
          <Trackpoint>
            <Time>2022-08-26T19:22:30.000Z</Time>
            <Position>
              <LatitudeDegrees>50.16838232986629009246826171875</LatitudeDegrees>
              <LongitudeDegrees>16.959755457937717437744140625</LongitudeDegrees>
            </Position>
            <AltitudeMeters>633.20001220703125</AltitudeMeters>
            <DistanceMeters>1090.2313585065</DistanceMeters>
          </Trackpoint>
          <Trackpoint>
            <Time>2022-08-26T19:22:36.000Z</Time>
            <Position>
              <LatitudeDegrees>50.168382413685321807861328125</LatitudeDegrees>
              <LongitudeDegrees>16.95980415679514408111572265625</LongitudeDegrees>
            </Position>
            <AltitudeMeters>633.5999755859375</AltitudeMeters>
            <DistanceMeters>1093.70471166</DistanceMeters>
          </Trackpoint>
          <Trackpoint>
            <Time>2022-08-26T19:22:53.000Z</Time>
            <Position>
              <LatitudeDegrees>50.16841149888932704925537109375</LatitudeDegrees>
              <LongitudeDegrees>16.9598075933754444122314453125</LongitudeDegrees>
            </Position>
            <AltitudeMeters>634</AltitudeMeters>
            <DistanceMeters>1096.952346074</DistanceMeters>
          </Trackpoint>
          <Trackpoint>
            <Time>2022-08-26T19:23:02.000Z</Time>
            <Position>
              <LatitudeDegrees>50.1685170270502567291259765625</LatitudeDegrees>
              <LongitudeDegrees>16.95982075296342372894287109375</LongitudeDegrees>
            </Position>
            <AltitudeMeters>634.20001220703125</AltitudeMeters>
            <DistanceMeters>1108.7352754774</DistanceMeters>
          </Trackpoint>
          <Trackpoint>
            <Time>2022-08-26T19:23:05.000Z</Time>
            <Position>
              <LatitudeDegrees>50.16854829154908657073974609375</LatitudeDegrees>
              <LongitudeDegrees>16.95983483456075191497802734375</LongitudeDegrees>
            </Position>
            <AltitudeMeters>634.4000244140625</AltitudeMeters>
            <DistanceMeters>1112.3562796194</DistanceMeters>
          </Trackpoint>
          <Trackpoint>
            <Time>2022-08-26T19:23:09.000Z</Time>
            <Position>
              <LatitudeDegrees>50.1685914583504199981689453125</LatitudeDegrees>
              <LongitudeDegrees>16.95986031554639339447021484375</LongitudeDegrees>
            </Position>
            <AltitudeMeters>634.5999755859375</AltitudeMeters>
            <DistanceMeters>1117.4929987444</DistanceMeters>
          </Trackpoint>
          <Trackpoint>
            <Time>2022-08-26T19:23:17.000Z</Time>
            <Position>
              <LatitudeDegrees>50.16867821104824542999267578125</LatitudeDegrees>
              <LongitudeDegrees>16.959867440164089202880859375</LongitudeDegrees>
            </Position>
            <AltitudeMeters>635</AltitudeMeters>
            <DistanceMeters>1127.1624046983</DistanceMeters>
          </Trackpoint>
          <Trackpoint>
            <Time>2022-08-26T19:23:24.000Z</Time>
            <Position>
              <LatitudeDegrees>50.1687171868979930877685546875</LatitudeDegrees>
              <LongitudeDegrees>16.95985159836709499359130859375</LongitudeDegrees>
            </Position>
            <AltitudeMeters>635.4000244140625</AltitudeMeters>
            <DistanceMeters>1131.6458130183</DistanceMeters>
          </Trackpoint>
          <Trackpoint>
            <Time>2022-08-26T19:23:32.000Z</Time>
            <Position>
              <LatitudeDegrees>50.168734453618526458740234375</LatitudeDegrees>
              <LongitudeDegrees>16.95980608463287353515625</LongitudeDegrees>
            </Position>
            <AltitudeMeters>635.4000244140625</AltitudeMeters>
            <DistanceMeters>1135.4170688303</DistanceMeters>
          </Trackpoint>
          <Trackpoint>
            <Time>2022-08-26T19:23:37.000Z</Time>
            <Position>
              <LatitudeDegrees>50.16876337118446826934814453125</LatitudeDegrees>
              <LongitudeDegrees>16.9597579725086688995361328125</LongitudeDegrees>
            </Position>
            <AltitudeMeters>635.4000244140625</AltitudeMeters>
            <DistanceMeters>1140.120651219</DistanceMeters>
          </Trackpoint>
          <Trackpoint>
            <Time>2022-08-26T19:23:42.000Z</Time>
            <Position>
              <LatitudeDegrees>50.1688046939671039581298828125</LatitudeDegrees>
              <LongitudeDegrees>16.95969686843454837799072265625</LongitudeDegrees>
            </Position>
            <AltitudeMeters>635.20001220703125</AltitudeMeters>
            <DistanceMeters>1146.4554487467</DistanceMeters>
          </Trackpoint>
          <Trackpoint>
            <Time>2022-08-26T19:23:52.000Z</Time>
            <Position>
              <LatitudeDegrees>50.16886445693671703338623046875</LatitudeDegrees>
              <LongitudeDegrees>16.95954163558781147003173828125</LongitudeDegrees>
            </Position>
            <AltitudeMeters>635.20001220703125</AltitudeMeters>
            <DistanceMeters>1159.3671980979</DistanceMeters>
          </Trackpoint>
          <Trackpoint>
            <Time>2022-08-26T19:23:57.000Z</Time>
            <Position>
              <LatitudeDegrees>50.16890234313905239105224609375</LatitudeDegrees>
              <LongitudeDegrees>16.95946879684925079345703125</LongitudeDegrees>
            </Position>
            <AltitudeMeters>635</AltitudeMeters>
            <DistanceMeters>1166.0562958532</DistanceMeters>
          </Trackpoint>
          <Trackpoint>
            <Time>2022-08-26T19:24:04.000Z</Time>
            <Position>
              <LatitudeDegrees>50.1689592562615871429443359375</LatitudeDegrees>
              <LongitudeDegrees>16.95937533862888813018798828125</LongitudeDegrees>
            </Position>
            <AltitudeMeters>634.5999755859375</AltitudeMeters>
            <DistanceMeters>1175.2508363892</DistanceMeters>
          </Trackpoint>
          <Trackpoint>
            <Time>2022-08-26T19:24:12.000Z</Time>
            <Position>
              <LatitudeDegrees>50.1690043509006500244140625</LatitudeDegrees>
              <LongitudeDegrees>16.9592574052512645721435546875</LongitudeDegrees>
            </Position>
            <AltitudeMeters>634</AltitudeMeters>
            <DistanceMeters>1185.0427387418</DistanceMeters>
          </Trackpoint>
          <Trackpoint>
            <Time>2022-08-26T19:24:17.000Z</Time>
            <Position>
              <LatitudeDegrees>50.1690279878675937652587890625</LatitudeDegrees>
              <LongitudeDegrees>16.95917903445661067962646484375</LongitudeDegrees>
            </Position>
            <AltitudeMeters>633.4000244140625</AltitudeMeters>
            <DistanceMeters>1191.2187441579</DistanceMeters>
          </Trackpoint>
          <Trackpoint>
            <Time>2022-08-26T19:24:18.000Z</Time>
            <Position>
              <LatitudeDegrees>50.16903243027627468109130859375</LatitudeDegrees>
              <LongitudeDegrees>16.95916646160185337066650390625</LongitudeDegrees>
            </Position>
            <AltitudeMeters>633.20001220703125</AltitudeMeters>
            <DistanceMeters>1192.2422131938</DistanceMeters>
          </Trackpoint>
          <Trackpoint>
            <Time>2022-08-26T19:24:20.000Z</Time>
            <Position>
              <LatitudeDegrees>50.1690477691590785980224609375</LatitudeDegrees>
              <LongitudeDegrees>16.95915036834776401519775390625</LongitudeDegrees>
            </Position>
            <AltitudeMeters>633.20001220703125</AltitudeMeters>
            <DistanceMeters>1194.2957578608</DistanceMeters>
          </Trackpoint>
          <Trackpoint>
            <Time>2022-08-26T19:24:23.000Z</Time>
            <Position>
              <LatitudeDegrees>50.16906193457543849945068359375</LatitudeDegrees>
              <LongitudeDegrees>16.9591129012405872344970703125</LongitudeDegrees>
            </Position>
            <AltitudeMeters>632.79998779296875</AltitudeMeters>
            <DistanceMeters>1197.3954354789</DistanceMeters>
          </Trackpoint>
          <Trackpoint>
            <Time>2022-08-26T19:24:27.000Z</Time>
            <Position>
              <LatitudeDegrees>50.1690821349620819091796875</LatitudeDegrees>
              <LongitudeDegrees>16.9590465165674686431884765625</LongitudeDegrees>
            </Position>
            <AltitudeMeters>632.20001220703125</AltitudeMeters>
            <DistanceMeters>1202.6348469334</DistanceMeters>
          </Trackpoint>
          <Trackpoint>
            <Time>2022-08-26T19:24:31.000Z</Time>
            <Position>
              <LatitudeDegrees>50.1691151596605777740478515625</LatitudeDegrees>
              <LongitudeDegrees>16.9589818082749843597412109375</LongitudeDegrees>
            </Position>
            <AltitudeMeters>631.79998779296875</AltitudeMeters>
            <DistanceMeters>1208.5326307937</DistanceMeters>
          </Trackpoint>
          <Trackpoint>
            <Time>2022-08-26T19:24:36.000Z</Time>
            <Position>
              <LatitudeDegrees>50.16915866173803806304931640625</LatitudeDegrees>
              <LongitudeDegrees>16.95889891125261783599853515625</LongitudeDegrees>
            </Position>
            <AltitudeMeters>631</AltitudeMeters>
            <DistanceMeters>1216.1726840745</DistanceMeters>
          </Trackpoint>
          <Trackpoint>
            <Time>2022-08-26T19:24:40.000Z</Time>
            <Position>
              <LatitudeDegrees>50.1691822148859500885009765625</LatitudeDegrees>
              <LongitudeDegrees>16.95883654989302158355712890625</LongitudeDegrees>
            </Position>
            <AltitudeMeters>630.4000244140625</AltitudeMeters>
            <DistanceMeters>1221.3348304872</DistanceMeters>
          </Trackpoint>
          <Trackpoint>
            <Time>2022-08-26T19:24:43.000Z</Time>
            <Position>
              <LatitudeDegrees>50.16919570975005626678466796875</LatitudeDegrees>
              <LongitudeDegrees>16.95878676138818264007568359375</LongitudeDegrees>
            </Position>
            <AltitudeMeters>630</AltitudeMeters>
            <DistanceMeters>1225.1901522412</DistanceMeters>
          </Trackpoint>
          <Trackpoint>
            <Time>2022-08-26T19:24:47.000Z</Time>
            <Position>
              <LatitudeDegrees>50.16921699978411197662353515625</LatitudeDegrees>
              <LongitudeDegrees>16.95872716605663299560546875</LongitudeDegrees>
            </Position>
            <AltitudeMeters>629.20001220703125</AltitudeMeters>
            <DistanceMeters>1230.0551116818</DistanceMeters>
          </Trackpoint>
          <Trackpoint>
            <Time>2022-08-26T19:24:49.000Z</Time>
            <Position>
              <LatitudeDegrees>50.16923300921916961669921875</LatitudeDegrees>
              <LongitudeDegrees>16.9586958177387714385986328125</LongitudeDegrees>
            </Position>
            <AltitudeMeters>628.79998779296875</AltitudeMeters>
            <DistanceMeters>1232.9122412038</DistanceMeters>
          </Trackpoint>
          <Trackpoint>
            <Time>2022-08-26T19:24:53.000Z</Time>
            <Position>
              <LatitudeDegrees>50.16926393844187259674072265625</LatitudeDegrees>
              <LongitudeDegrees>16.95862482301890850067138671875</LongitudeDegrees>
            </Position>
            <AltitudeMeters>627.79998779296875</AltitudeMeters>
            <DistanceMeters>1239.0324337735</DistanceMeters>
          </Trackpoint>
          <Trackpoint>
            <Time>2022-08-26T19:24:56.000Z</Time>
            <Position>
              <LatitudeDegrees>50.16928053461015224456787109375</LatitudeDegrees>
              <LongitudeDegrees>16.95857302285730838775634765625</LongitudeDegrees>
            </Position>
            <AltitudeMeters>627</AltitudeMeters>
            <DistanceMeters>1243.1614511295</DistanceMeters>
          </Trackpoint>
          <Trackpoint>
            <Time>2022-08-26T19:24:59.000Z</Time>
            <Position>
              <LatitudeDegrees>50.16929545439779758453369140625</LatitudeDegrees>
              <LongitudeDegrees>16.95853404700756072998046875</LongitudeDegrees>
            </Position>
            <AltitudeMeters>626.5999755859375</AltitudeMeters>
            <DistanceMeters>1246.3979443977</DistanceMeters>
          </Trackpoint>
          <Trackpoint>
            <Time>2022-08-26T19:25:02.000Z</Time>
            <Position>
              <LatitudeDegrees>50.16931607387959957122802734375</LatitudeDegrees>
              <LongitudeDegrees>16.95849607698619365692138671875</LongitudeDegrees>
            </Position>
            <AltitudeMeters>626.20001220703125</AltitudeMeters>
            <DistanceMeters>1249.9458912071</DistanceMeters>
          </Trackpoint>
          <Trackpoint>
            <Time>2022-08-26T19:25:06.000Z</Time>
            <Position>
              <LatitudeDegrees>50.16932361759245395660400390625</LatitudeDegrees>
              <LongitudeDegrees>16.95842918939888477325439453125</LongitudeDegrees>
            </Position>
            <AltitudeMeters>625.5999755859375</AltitudeMeters>
            <DistanceMeters>1254.7875932269</DistanceMeters>
          </Trackpoint>
          <Trackpoint>
            <Time>2022-08-26T19:25:08.000Z</Time>
            <Position>
              <LatitudeDegrees>50.16933216713368892669677734375</LatitudeDegrees>
              <LongitudeDegrees>16.958394907414913177490234375</LongitudeDegrees>
            </Position>
            <AltitudeMeters>625.4000244140625</AltitudeMeters>
            <DistanceMeters>1257.4090218782</DistanceMeters>
          </Trackpoint>
          <Trackpoint>
            <Time>2022-08-26T19:25:09.000Z</Time>
            <Position>
              <LatitudeDegrees>50.16933216713368892669677734375</LatitudeDegrees>
              <LongitudeDegrees>16.958377473056316375732421875</LongitudeDegrees>
            </Position>
            <AltitudeMeters>625.20001220703125</AltitudeMeters>
            <DistanceMeters>1258.648018648</DistanceMeters>
          </Trackpoint>
          <Trackpoint>
            <Time>2022-08-26T19:25:14.000Z</Time>
            <Position>
              <LatitudeDegrees>50.16935639083385467529296875</LatitudeDegrees>
              <LongitudeDegrees>16.95830337703227996826171875</LongitudeDegrees>
            </Position>
            <AltitudeMeters>624.5999755859375</AltitudeMeters>
            <DistanceMeters>1264.5778683655</DistanceMeters>
          </Trackpoint>
          <Trackpoint>
            <Time>2022-08-26T19:25:15.000Z</Time>
            <Position>
              <LatitudeDegrees>50.16935898922383785247802734375</LatitudeDegrees>
              <LongitudeDegrees>16.95828367955982685089111328125</LongitudeDegrees>
            </Position>
            <AltitudeMeters>624.4000244140625</AltitudeMeters>
            <DistanceMeters>1266.0127402864</DistanceMeters>
          </Trackpoint>
          <Trackpoint>
            <Time>2022-08-26T19:25:21.000Z</Time>
            <Position>
              <LatitudeDegrees>50.16937525011599063873291015625</LatitudeDegrees>
              <LongitudeDegrees>16.95819298736751079559326171875</LongitudeDegrees>
            </Position>
            <AltitudeMeters>623.5999755859375</AltitudeMeters>
            <DistanceMeters>1272.7267660242</DistanceMeters>
          </Trackpoint>
          <Trackpoint>
            <Time>2022-08-26T19:25:22.000Z</Time>
            <Position>
              <LatitudeDegrees>50.16937742941081523895263671875</LatitudeDegrees>
              <LongitudeDegrees>16.95818460546433925628662109375</LongitudeDegrees>
            </Position>
            <AltitudeMeters>623.4000244140625</AltitudeMeters>
            <DistanceMeters>1273.3712685583</DistanceMeters>
          </Trackpoint>
          <Trackpoint>
            <Time>2022-08-26T19:25:25.000Z</Time>
            <Position>
              <LatitudeDegrees>50.16937038861215114593505859375</LatitudeDegrees>
              <LongitudeDegrees>16.95813816972076892852783203125</LongitudeDegrees>
            </Position>
            <AltitudeMeters>622.4000244140625</AltitudeMeters>
            <DistanceMeters>1276.7737026871</DistanceMeters>
          </Trackpoint>
          <Trackpoint>
            <Time>2022-08-26T19:25:29.000Z</Time>
            <Position>
              <LatitudeDegrees>50.169356726109981536865234375</LatitudeDegrees>
              <LongitudeDegrees>16.95807547308504581451416015625</LongitudeDegrees>
            </Position>
            <AltitudeMeters>621.4000244140625</AltitudeMeters>
            <DistanceMeters>1281.4964443502</DistanceMeters>
          </Trackpoint>
          <Trackpoint>
            <Time>2022-08-26T19:25:34.000Z</Time>
            <Position>
              <LatitudeDegrees>50.1693525351583957672119140625</LatitudeDegrees>
              <LongitudeDegrees>16.95800028741359710693359375</LongitudeDegrees>
            </Position>
            <AltitudeMeters>620.4000244140625</AltitudeMeters>
            <DistanceMeters>1286.8761650682</DistanceMeters>
          </Trackpoint>
          <Trackpoint>
            <Time>2022-08-26T19:25:38.000Z</Time>
            <Position>
              <LatitudeDegrees>50.16933904029428958892822265625</LatitudeDegrees>
              <LongitudeDegrees>16.95793130435049533843994140625</LongitudeDegrees>
            </Position>
            <AltitudeMeters>619.20001220703125</AltitudeMeters>
            <DistanceMeters>1292.0181553276</DistanceMeters>
          </Trackpoint>
          <Trackpoint>
            <Time>2022-08-26T19:25:42.000Z</Time>
            <Position>
              <LatitudeDegrees>50.169312469661235809326171875</LatitudeDegrees>
              <LongitudeDegrees>16.95786458440124988555908203125</LongitudeDegrees>
            </Position>
            <AltitudeMeters>618.20001220703125</AltitudeMeters>
            <DistanceMeters>1297.6190914606</DistanceMeters>
          </Trackpoint>
          <Trackpoint>
            <Time>2022-08-26T19:25:45.000Z</Time>
            <Position>
              <LatitudeDegrees>50.16928388737142086029052734375</LatitudeDegrees>
              <LongitudeDegrees>16.95781848393380641937255859375</LongitudeDegrees>
            </Position>
            <AltitudeMeters>617.20001220703125</AltitudeMeters>
            <DistanceMeters>1302.1942108249</DistanceMeters>
          </Trackpoint>
          <Trackpoint>
            <Time>2022-08-26T19:25:46.000Z</Time>
            <Position>
              <LatitudeDegrees>50.16927667893469333648681640625</LatitudeDegrees>
              <LongitudeDegrees>16.95780582726001739501953125</LongitudeDegrees>
            </Position>
            <AltitudeMeters>617</AltitudeMeters>
            <DistanceMeters>1303.4037034391</DistanceMeters>
          </Trackpoint>
          <Trackpoint>
            <Time>2022-08-26T19:25:50.000Z</Time>
            <Position>
              <LatitudeDegrees>50.1692556403577327728271484375</LatitudeDegrees>
              <LongitudeDegrees>16.95775746367871761322021484375</LongitudeDegrees>
            </Position>
            <AltitudeMeters>615.5999755859375</AltitudeMeters>
            <DistanceMeters>1307.5719005408</DistanceMeters>
          </Trackpoint>
          <Trackpoint>
            <Time>2022-08-26T19:25:54.000Z</Time>
            <Position>
              <LatitudeDegrees>50.16923862509429454803466796875</LatitudeDegrees>
              <LongitudeDegrees>16.95767967961728572845458984375</LongitudeDegrees>
            </Position>
            <AltitudeMeters>614.5999755859375</AltitudeMeters>
            <DistanceMeters>1313.431281962</DistanceMeters>
          </Trackpoint>
          <Trackpoint>
            <Time>2022-08-26T19:25:57.000Z</Time>
            <Position>
              <LatitudeDegrees>50.16923091374337673187255859375</LatitudeDegrees>
              <LongitudeDegrees>16.9576187431812286376953125</LongitudeDegrees>
            </Position>
            <AltitudeMeters>613.79998779296875</AltitudeMeters>
            <DistanceMeters>1317.8599754529</DistanceMeters>
          </Trackpoint>
          <Trackpoint>
            <Time>2022-08-26T19:25:58.000Z</Time>
            <Position>
              <LatitudeDegrees>50.16922974027693271636962890625</LatitudeDegrees>
              <LongitudeDegrees>16.95759703405201435089111328125</LongitudeDegrees>
            </Position>
            <AltitudeMeters>613.5999755859375</AltitudeMeters>
            <DistanceMeters>1319.4156298127</DistanceMeters>
          </Trackpoint>
          <Trackpoint>
            <Time>2022-08-26T19:26:03.000Z</Time>
            <Position>
              <LatitudeDegrees>50.16922202892601490020751953125</LatitudeDegrees>
              <LongitudeDegrees>16.95752209983766078948974609375</LongitudeDegrees>
            </Position>
            <AltitudeMeters>612.4000244140625</AltitudeMeters>
            <DistanceMeters>1324.8263144118</DistanceMeters>
          </Trackpoint>
          <Trackpoint>
            <Time>2022-08-26T19:26:07.000Z</Time>
            <Position>
              <LatitudeDegrees>50.16921414993703365325927734375</LatitudeDegrees>
              <LongitudeDegrees>16.95746091194450855255126953125</LongitudeDegrees>
            </Position>
            <AltitudeMeters>611.20001220703125</AltitudeMeters>
            <DistanceMeters>1329.2763658319</DistanceMeters>
          </Trackpoint>
          <Trackpoint>
            <Time>2022-08-26T19:26:12.000Z</Time>
            <Position>
              <LatitudeDegrees>50.1692066900432109832763671875</LatitudeDegrees>
              <LongitudeDegrees>16.95740676485002040863037109375</LongitudeDegrees>
            </Position>
            <AltitudeMeters>610.4000244140625</AltitudeMeters>
            <DistanceMeters>1333.2265521687</DistanceMeters>
          </Trackpoint>
          <Trackpoint>
            <Time>2022-08-26T19:26:14.000Z</Time>
            <Position>
              <LatitudeDegrees>50.16920149326324462890625</LatitudeDegrees>
              <LongitudeDegrees>16.957388408482074737548828125</LongitudeDegrees>
            </Position>
            <AltitudeMeters>610.20001220703125</AltitudeMeters>
            <DistanceMeters>1334.6614240895</DistanceMeters>
          </Trackpoint>
          <Trackpoint>
            <Time>2022-08-26T19:26:20.000Z</Time>
            <Position>
              <LatitudeDegrees>50.1691657863557338714599609375</LatitudeDegrees>
              <LongitudeDegrees>16.9573231972754001617431640625</LongitudeDegrees>
            </Position>
            <AltitudeMeters>609</AltitudeMeters>
            <DistanceMeters>1340.7786650349</DistanceMeters>
          </Trackpoint>
          <Trackpoint>
            <Time>2022-08-26T19:26:23.000Z</Time>
            <Position>
              <LatitudeDegrees>50.16914441250264644622802734375</LatitudeDegrees>
              <LongitudeDegrees>16.9572809524834156036376953125</LongitudeDegrees>
            </Position>
            <AltitudeMeters>608.5999755859375</AltitudeMeters>
            <DistanceMeters>1344.6175561191</DistanceMeters>
          </Trackpoint>
          <Trackpoint>
            <Time>2022-08-26T19:26:31.000Z</Time>
            <Position>
              <LatitudeDegrees>50.16915027983486652374267578125</LatitudeDegrees>
              <LongitudeDegrees>16.9571696408092975616455078125</LongitudeDegrees>
            </Position>
            <AltitudeMeters>608</AltitudeMeters>
            <DistanceMeters>1352.5799782828</DistanceMeters>
          </Trackpoint>
          <Trackpoint>
            <Time>2022-08-26T19:26:33.000Z</Time>
            <Position>
              <LatitudeDegrees>50.1691567339003086090087890625</LatitudeDegrees>
              <LongitudeDegrees>16.95713929831981658935546875</LongitudeDegrees>
            </Position>
            <AltitudeMeters>607.79998779296875</AltitudeMeters>
            <DistanceMeters>1354.8606194277</DistanceMeters>
          </Trackpoint>
          <Trackpoint>
            <Time>2022-08-26T19:26:39.000Z</Time>
            <Position>
              <LatitudeDegrees>50.169174335896968841552734375</LatitudeDegrees>
              <LongitudeDegrees>16.95706696249544620513916015625</LongitudeDegrees>
            </Position>
            <AltitudeMeters>607</AltitudeMeters>
            <DistanceMeters>1360.3770818463</DistanceMeters>
          </Trackpoint>
          <Trackpoint>
            <Time>2022-08-26T19:26:45.000Z</Time>
            <Position>
              <LatitudeDegrees>50.16915363259613513946533203125</LatitudeDegrees>
              <LongitudeDegrees>16.95697627030313014984130859375</LongitudeDegrees>
            </Position>
            <AltitudeMeters>606.20001220703125</AltitudeMeters>
            <DistanceMeters>1367.2414054754</DistanceMeters>
          </Trackpoint>
          <Trackpoint>
            <Time>2022-08-26T19:26:47.000Z</Time>
            <Position>
              <LatitudeDegrees>50.169155560433864593505859375</LatitudeDegrees>
              <LongitudeDegrees>16.95695422589778900146484375</LongitudeDegrees>
            </Position>
            <AltitudeMeters>605.79998779296875</AltitudeMeters>
            <DistanceMeters>1368.8315065427</DistanceMeters>
          </Trackpoint>
          <Trackpoint>
            <Time>2022-08-26T19:26:56.000Z</Time>
            <Position>
              <LatitudeDegrees>50.1691007427871227264404296875</LatitudeDegrees>
              <LongitudeDegrees>16.95682279765605926513671875</LongitudeDegrees>
            </Position>
            <AltitudeMeters>605</AltitudeMeters>
            <DistanceMeters>1380.0123999905</DistanceMeters>
          </Trackpoint>
          <Trackpoint>
            <Time>2022-08-26T19:26:59.000Z</Time>
            <Position>
              <LatitudeDegrees>50.16908087767660617828369140625</LatitudeDegrees>
              <LongitudeDegrees>16.9567559100687503814697265625</LongitudeDegrees>
            </Position>
            <AltitudeMeters>604.79998779296875</AltitudeMeters>
            <DistanceMeters>1385.269018097</DistanceMeters>
          </Trackpoint>
          <Trackpoint>
            <Time>2022-08-26T19:27:09.000Z</Time>
            <Position>
              <LatitudeDegrees>50.169038213789463043212890625</LatitudeDegrees>
              <LongitudeDegrees>16.95659724064171314239501953125</LongitudeDegrees>
            </Position>
            <AltitudeMeters>604.20001220703125</AltitudeMeters>
            <DistanceMeters>1397.5374048764</DistanceMeters>
          </Trackpoint>
          <Trackpoint>
            <Time>2022-08-26T19:27:17.000Z</Time>
            <Position>
              <LatitudeDegrees>50.16905137337744235992431640625</LatitudeDegrees>
              <LongitudeDegrees>16.956536807119846343994140625</LongitudeDegrees>
            </Position>
            <AltitudeMeters>603.79998779296875</AltitudeMeters>
            <DistanceMeters>1402.088777786</DistanceMeters>
          </Trackpoint>
          <Trackpoint>
            <Time>2022-08-26T19:27:18.000Z</Time>
            <Position>
              <LatitudeDegrees>50.16904382966458797454833984375</LatitudeDegrees>
              <LongitudeDegrees>16.956534124910831451416015625</LongitudeDegrees>
            </Position>
            <AltitudeMeters>603.79998779296875</AltitudeMeters>
            <DistanceMeters>1402.9492812831</DistanceMeters>
          </Trackpoint>
          <Trackpoint>
            <Time>2022-08-26T19:27:22.000Z</Time>
            <Position>
              <LatitudeDegrees>50.16901717521250247955322265625</LatitudeDegrees>
              <LongitudeDegrees>16.956526748836040496826171875</LongitudeDegrees>
            </Position>
            <AltitudeMeters>603.5999755859375</AltitudeMeters>
            <DistanceMeters>1405.9632913863</DistanceMeters>
          </Trackpoint>
          <Trackpoint>
            <Time>2022-08-26T19:27:29.000Z</Time>
            <Position>
              <LatitudeDegrees>50.1690115593373775482177734375</LatitudeDegrees>
              <LongitudeDegrees>16.95645458064973354339599609375</LongitudeDegrees>
            </Position>
            <AltitudeMeters>602.5999755859375</AltitudeMeters>
            <DistanceMeters>1411.1472577729</DistanceMeters>
          </Trackpoint>
          <Trackpoint>
            <Time>2022-08-26T19:27:30.000Z</Time>
            <Position>
              <LatitudeDegrees>50.1690045185387134552001953125</LatitudeDegrees>
              <LongitudeDegrees>16.95643748156726360321044921875</LongitudeDegrees>
            </Position>
            <AltitudeMeters>602.4000244140625</AltitudeMeters>
            <DistanceMeters>1412.5946615642</DistanceMeters>
          </Trackpoint>
          <Trackpoint>
            <Time>2022-08-26T19:27:38.000Z</Time>
            <Position>
              <LatitudeDegrees>50.1689763553440570831298828125</LatitudeDegrees>
              <LongitudeDegrees>16.95631510578095912933349609375</LongitudeDegrees>
            </Position>
            <AltitudeMeters>601.4000244140625</AltitudeMeters>
            <DistanceMeters>1421.8645163333</DistanceMeters>
          </Trackpoint>
          <Trackpoint>
            <Time>2022-08-26T19:27:39.000Z</Time>
            <Position>
              <LatitudeDegrees>50.1689783670008182525634765625</LatitudeDegrees>
              <LongitudeDegrees>16.956302784383296966552734375</LongitudeDegrees>
            </Position>
            <AltitudeMeters>601.20001220703125</AltitudeMeters>
            <DistanceMeters>1422.7660189012</DistanceMeters>
          </Trackpoint>
          <Trackpoint>
            <Time>2022-08-26T19:27:51.000Z</Time>
            <Position>
              <LatitudeDegrees>50.16900359652936458587646484375</LatitudeDegrees>
              <LongitudeDegrees>16.95619859732687473297119140625</LongitudeDegrees>
            </Position>
            <AltitudeMeters>600.79998779296875</AltitudeMeters>
            <DistanceMeters>1430.7068641842</DistanceMeters>
          </Trackpoint>
          <Trackpoint>
            <Time>2022-08-26T19:28:01.000Z</Time>
            <Position>
              <LatitudeDegrees>50.16896705143153667449951171875</LatitudeDegrees>
              <LongitudeDegrees>16.9561145268380641937255859375</LongitudeDegrees>
            </Position>
            <AltitudeMeters>600.79998779296875</AltitudeMeters>
            <DistanceMeters>1437.9501192632</DistanceMeters>
          </Trackpoint>
          <Trackpoint>
            <Time>2022-08-26T19:28:12.000Z</Time>
            <Position>
              <LatitudeDegrees>50.168955735862255096435546875</LatitudeDegrees>
              <LongitudeDegrees>16.95596440695226192474365234375</LongitudeDegrees>
            </Position>
            <AltitudeMeters>600.79998779296875</AltitudeMeters>
            <DistanceMeters>1448.7263330263</DistanceMeters>
          </Trackpoint>
          <Trackpoint>
            <Time>2022-08-26T19:28:22.000Z</Time>
            <Position>
              <LatitudeDegrees>50.1689408160746097564697265625</LatitudeDegrees>
              <LongitudeDegrees>16.95581504143774509429931640625</LongitudeDegrees>
            </Position>
            <AltitudeMeters>601</AltitudeMeters>
            <DistanceMeters>1459.5038036618</DistanceMeters>
          </Trackpoint>
          <Trackpoint>
            <Time>2022-08-26T19:28:33.000Z</Time>
            <Position>
              <LatitudeDegrees>50.16896185465157032012939453125</LatitudeDegrees>
              <LongitudeDegrees>16.95563851855695247650146484375</LongitudeDegrees>
            </Position>
            <AltitudeMeters>601.4000244140625</AltitudeMeters>
            <DistanceMeters>1472.3045757929</DistanceMeters>
          </Trackpoint>
          <Trackpoint>
            <Time>2022-08-26T19:28:42.000Z</Time>
            <Position>
              <LatitudeDegrees>50.16895716078579425811767578125</LatitudeDegrees>
              <LongitudeDegrees>16.95549753494560718536376953125</LongitudeDegrees>
            </Position>
            <AltitudeMeters>600.79998779296875</AltitudeMeters>
            <DistanceMeters>1482.3693359763</DistanceMeters>
          </Trackpoint>
          <Trackpoint>
            <Time>2022-08-26T19:28:54.000Z</Time>
            <Position>
              <LatitudeDegrees>50.16895112581551074981689453125</LatitudeDegrees>
              <LongitudeDegrees>16.95545948110520839691162109375</LongitudeDegrees>
            </Position>
            <AltitudeMeters>600.4000244140625</AltitudeMeters>
            <DistanceMeters>1485.1625395219</DistanceMeters>
          </Trackpoint>
          <Trackpoint>
            <Time>2022-08-26T19:29:01.000Z</Time>
            <Position>
              <LatitudeDegrees>50.1689505390822887420654296875</LatitudeDegrees>
              <LongitudeDegrees>16.955412961542606353759765625</LongitudeDegrees>
            </Position>
            <AltitudeMeters>600.4000244140625</AltitudeMeters>
            <DistanceMeters>1488.4789582393</DistanceMeters>
          </Trackpoint>
          <Trackpoint>
            <Time>2022-08-26T19:29:14.000Z</Time>
            <Position>
              <LatitudeDegrees>50.16891877166926860809326171875</LatitudeDegrees>
              <LongitudeDegrees>16.95525194518268108367919921875</LongitudeDegrees>
            </Position>
            <AltitudeMeters>600.5999755859375</AltitudeMeters>
            <DistanceMeters>1500.490725862</DistanceMeters>
          </Trackpoint>
          <Trackpoint>
            <Time>2022-08-26T19:29:26.000Z</Time>
            <Position>
              <LatitudeDegrees>50.16889127902686595916748046875</LatitudeDegrees>
              <LongitudeDegrees>16.95510760881006717681884765625</LongitudeDegrees>
            </Position>
            <AltitudeMeters>600.5999755859375</AltitudeMeters>
            <DistanceMeters>1511.226642019</DistanceMeters>
          </Trackpoint>
          <Trackpoint>
            <Time>2022-08-26T19:29:37.000Z</Time>
            <Position>
              <LatitudeDegrees>50.16886160708963871002197265625</LatitudeDegrees>
              <LongitudeDegrees>16.95495195686817169189453125</LongitudeDegrees>
            </Position>
            <AltitudeMeters>601</AltitudeMeters>
            <DistanceMeters>1522.8043125418</DistanceMeters>
          </Trackpoint>
          <Trackpoint>
            <Time>2022-08-26T19:29:48.000Z</Time>
            <Position>
              <LatitudeDegrees>50.16878382302820682525634765625</LatitudeDegrees>
              <LongitudeDegrees>16.95483469404280185699462890625</LongitudeDegrees>
            </Position>
            <AltitudeMeters>601.5999755859375</AltitudeMeters>
            <DistanceMeters>1534.8393624445</DistanceMeters>
          </Trackpoint>
          <Trackpoint>
            <Time>2022-08-26T19:29:59.000Z</Time>
            <Position>
              <LatitudeDegrees>50.1687379740178585052490234375</LatitudeDegrees>
              <LongitudeDegrees>16.95467300713062286376953125</LongitudeDegrees>
            </Position>
            <AltitudeMeters>601.79998779296875</AltitudeMeters>
            <DistanceMeters>1547.4453643984</DistanceMeters>
          </Trackpoint>
          <Trackpoint>
            <Time>2022-08-26T19:30:10.000Z</Time>
            <Position>
              <LatitudeDegrees>50.16869145445525646209716796875</LatitudeDegrees>
              <LongitudeDegrees>16.9545212946832180023193359375</LongitudeDegrees>
            </Position>
            <AltitudeMeters>602</AltitudeMeters>
            <DistanceMeters>1559.4368170749</DistanceMeters>
          </Trackpoint>
          <Trackpoint>
            <Time>2022-08-26T19:30:18.000Z</Time>
            <Position>
              <LatitudeDegrees>50.168608725070953369140625</LatitudeDegrees>
              <LongitudeDegrees>16.95445080287754535675048828125</LongitudeDegrees>
            </Position>
            <AltitudeMeters>601.79998779296875</AltitudeMeters>
            <DistanceMeters>1569.926836691</DistanceMeters>
          </Trackpoint>
          <Trackpoint>
            <Time>2022-08-26T19:30:28.000Z</Time>
            <Position>
              <LatitudeDegrees>50.16851945780217647552490234375</LatitudeDegrees>
              <LongitudeDegrees>16.95442783646285533905029296875</LongitudeDegrees>
            </Position>
            <AltitudeMeters>601.79998779296875</AltitudeMeters>
            <DistanceMeters>1579.9965302508</DistanceMeters>
          </Trackpoint>
          <Trackpoint>
            <Time>2022-08-26T19:30:36.000Z</Time>
            <Position>
              <LatitudeDegrees>50.168431699275970458984375</LatitudeDegrees>
              <LongitudeDegrees>16.95442448370158672332763671875</LongitudeDegrees>
            </Position>
            <AltitudeMeters>601.5999755859375</AltitudeMeters>
            <DistanceMeters>1589.7671990184</DistanceMeters>
          </Trackpoint>
          <Trackpoint>
            <Time>2022-08-26T19:30:48.000Z</Time>
            <Position>
              <LatitudeDegrees>50.1684275083243846893310546875</LatitudeDegrees>
              <LongitudeDegrees>16.9544223882257938385009765625</LongitudeDegrees>
            </Position>
            <AltitudeMeters>602</AltitudeMeters>
            <DistanceMeters>1590.2609723105</DistanceMeters>
          </Trackpoint>
          <Trackpoint>
            <Time>2022-08-26T19:30:57.000Z</Time>
            <Position>
              <LatitudeDegrees>50.16838274896144866943359375</LatitudeDegrees>
              <LongitudeDegrees>16.95434435270726680755615234375</LongitudeDegrees>
            </Position>
            <AltitudeMeters>602</AltitudeMeters>
            <DistanceMeters>1597.7288871545</DistanceMeters>
          </Trackpoint>
          <Trackpoint>
            <Time>2022-08-26T19:30:58.000Z</Time>
            <Position>
              <LatitudeDegrees>50.16836707480251789093017578125</LatitudeDegrees>
              <LongitudeDegrees>16.95433513261377811431884765625</LongitudeDegrees>
            </Position>
            <AltitudeMeters>602</AltitudeMeters>
            <DistanceMeters>1599.5910228517</DistanceMeters>
          </Trackpoint>
          <Trackpoint>
            <Time>2022-08-26T19:31:06.000Z</Time>
            <Position>
              <LatitudeDegrees>50.1682612113654613494873046875</LatitudeDegrees>
              <LongitudeDegrees>16.95427746511995792388916015625</LongitudeDegrees>
            </Position>
            <AltitudeMeters>601.4000244140625</AltitudeMeters>
            <DistanceMeters>1612.0703136309</DistanceMeters>
          </Trackpoint>
          <Trackpoint>
            <Time>2022-08-26T19:31:07.000Z</Time>
            <Position>
              <LatitudeDegrees>50.16825375147163867950439453125</LatitudeDegrees>
              <LongitudeDegrees>16.9542658142745494842529296875</LongitudeDegrees>
            </Position>
            <AltitudeMeters>601.20001220703125</AltitudeMeters>
            <DistanceMeters>1613.2495641439</DistanceMeters>
          </Trackpoint>
          <Trackpoint>
            <Time>2022-08-26T19:31:12.000Z</Time>
            <Position>
              <LatitudeDegrees>50.1681908033788204193115234375</LatitudeDegrees>
              <LongitudeDegrees>16.9541940651834011077880859375</LongitudeDegrees>
            </Position>
            <AltitudeMeters>600.5999755859375</AltitudeMeters>
            <DistanceMeters>1621.9246236298</DistanceMeters>
          </Trackpoint>
          <Trackpoint>
            <Time>2022-08-26T19:31:13.000Z</Time>
            <Position>
              <LatitudeDegrees>50.16817915253341197967529296875</LatitudeDegrees>
              <LongitudeDegrees>16.9541806541383266448974609375</LongitudeDegrees>
            </Position>
            <AltitudeMeters>600.4000244140625</AltitudeMeters>
            <DistanceMeters>1623.5316711907</DistanceMeters>
          </Trackpoint>
          <Trackpoint>
            <Time>2022-08-26T19:31:18.000Z</Time>
            <Position>
              <LatitudeDegrees>50.16816909424960613250732421875</LatitudeDegrees>
              <LongitudeDegrees>16.954133547842502593994140625</LongitudeDegrees>
            </Position>
            <AltitudeMeters>599.79998779296875</AltitudeMeters>
            <DistanceMeters>1627.0719742997</DistanceMeters>
          </Trackpoint>
          <Trackpoint>
            <Time>2022-08-26T19:31:22.000Z</Time>
            <Position>
              <LatitudeDegrees>50.16815685667097568511962890625</LatitudeDegrees>
              <LongitudeDegrees>16.95411385037004947662353515625</LongitudeDegrees>
            </Position>
            <AltitudeMeters>599.20001220703125</AltitudeMeters>
            <DistanceMeters>1629.0310002028</DistanceMeters>
          </Trackpoint>
          <Trackpoint>
            <Time>2022-08-26T19:31:25.000Z</Time>
            <Position>
              <LatitudeDegrees>50.168158449232578277587890625</LatitudeDegrees>
              <LongitudeDegrees>16.95407596416771411895751953125</LongitudeDegrees>
            </Position>
            <AltitudeMeters>598.79998779296875</AltitudeMeters>
            <DistanceMeters>1631.7388447464</DistanceMeters>
          </Trackpoint>
          <Trackpoint>
            <Time>2022-08-26T19:31:26.000Z</Time>
            <Position>
              <LatitudeDegrees>50.1681566052138805389404296875</LatitudeDegrees>
              <LongitudeDegrees>16.95406221784651279449462890625</LongitudeDegrees>
            </Position>
            <AltitudeMeters>598.79998779296875</AltitudeMeters>
            <DistanceMeters>1632.7445129629</DistanceMeters>
          </Trackpoint>
          <Trackpoint>
            <Time>2022-08-26T19:31:35.000Z</Time>
            <Position>
              <LatitudeDegrees>50.16815735958516597747802734375</LatitudeDegrees>
              <LongitudeDegrees>16.953956186771392822265625</LongitudeDegrees>
            </Position>
            <AltitudeMeters>598.4000244140625</AltitudeMeters>
            <DistanceMeters>1640.3049616196</DistanceMeters>
          </Trackpoint>
          <Trackpoint>
            <Time>2022-08-26T19:31:36.000Z</Time>
            <Position>
              <LatitudeDegrees>50.16815207898616790771484375</LatitudeDegrees>
              <LongitudeDegrees>16.9539543427526950836181640625</LongitudeDegrees>
            </Position>
            <AltitudeMeters>598.20001220703125</AltitudeMeters>
            <DistanceMeters>1640.9134294776</DistanceMeters>
          </Trackpoint>
          <Trackpoint>
            <Time>2022-08-26T19:31:46.000Z</Time>
            <Position>
              <LatitudeDegrees>50.1681368239223957061767578125</LatitudeDegrees>
              <LongitudeDegrees>16.95396079681813716888427734375</LongitudeDegrees>
            </Position>
            <AltitudeMeters>597.5999755859375</AltitudeMeters>
            <DistanceMeters>1642.6759124695</DistanceMeters>
          </Trackpoint>
          <Trackpoint>
            <Time>2022-08-26T19:31:54.000Z</Time>
            <Position>
              <LatitudeDegrees>50.1681361533701419830322265625</LatitudeDegrees>
              <LongitudeDegrees>16.95395895279943943023681640625</LongitudeDegrees>
            </Position>
            <AltitudeMeters>597.5999755859375</AltitudeMeters>
            <DistanceMeters>1642.8405035668</DistanceMeters>
          </Trackpoint>
          <Trackpoint>
            <Time>2022-08-26T19:32:04.000Z</Time>
            <Position>
              <LatitudeDegrees>50.16812567599117755889892578125</LatitudeDegrees>
              <LongitudeDegrees>16.95397068746387958526611328125</LongitudeDegrees>
            </Position>
            <AltitudeMeters>597.5999755859375</AltitudeMeters>
            <DistanceMeters>1644.2753754877</DistanceMeters>
          </Trackpoint>
          <Trackpoint>
            <Time>2022-08-26T19:32:14.000Z</Time>
            <Position>
              <LatitudeDegrees>50.16812081448733806610107421875</LatitudeDegrees>
              <LongitudeDegrees>16.95395928807556629180908203125</LongitudeDegrees>
            </Position>
            <AltitudeMeters>597.4000244140625</AltitudeMeters>
            <DistanceMeters>1645.2537353924</DistanceMeters>
          </Trackpoint>
          <Trackpoint>
            <Time>2022-08-26T19:32:23.000Z</Time>
            <Position>
              <LatitudeDegrees>50.16806758940219879150390625</LatitudeDegrees>
              <LongitudeDegrees>16.9539208151400089263916015625</LongitudeDegrees>
            </Position>
            <AltitudeMeters>597.20001220703125</AltitudeMeters>
            <DistanceMeters>1651.782285064</DistanceMeters>
          </Trackpoint>
          <Trackpoint>
            <Time>2022-08-26T19:32:24.000Z</Time>
            <Position>
              <LatitudeDegrees>50.1680628955364227294921875</LatitudeDegrees>
              <LongitudeDegrees>16.95391385816037654876708984375</LongitudeDegrees>
            </Position>
            <AltitudeMeters>597.20001220703125</AltitudeMeters>
            <DistanceMeters>1652.4997210244</DistanceMeters>
          </Trackpoint>
          <Trackpoint>
            <Time>2022-08-26T19:32:32.000Z</Time>
            <Position>
              <LatitudeDegrees>50.16799609176814556121826171875</LatitudeDegrees>
              <LongitudeDegrees>16.9539211504161357879638671875</LongitudeDegrees>
            </Position>
            <AltitudeMeters>596.4000244140625</AltitudeMeters>
            <DistanceMeters>1659.9531115471</DistanceMeters>
          </Trackpoint>
          <Trackpoint>
            <Time>2022-08-26T19:32:35.000Z</Time>
            <Position>
              <LatitudeDegrees>50.16797899268567562103271484375</LatitudeDegrees>
              <LongitudeDegrees>16.95392559282481670379638671875</LongitudeDegrees>
            </Position>
            <AltitudeMeters>596.20001220703125</AltitudeMeters>
            <DistanceMeters>1661.881943187</DistanceMeters>
          </Trackpoint>
          <Trackpoint>
            <Time>2022-08-26T19:32:39.000Z</Time>
            <Position>
              <LatitudeDegrees>50.16796390525996685028076171875</LatitudeDegrees>
              <LongitudeDegrees>16.95393028669059276580810546875</LongitudeDegrees>
            </Position>
            <AltitudeMeters>595.5999755859375</AltitudeMeters>
            <DistanceMeters>1663.5976951856</DistanceMeters>
          </Trackpoint>
          <Trackpoint>
            <Time>2022-08-26T19:32:49.000Z</Time>
            <Position>
              <LatitudeDegrees>50.16795200295746326446533203125</LatitudeDegrees>
              <LongitudeDegrees>16.95393405854701995849609375</LongitudeDegrees>
            </Position>
            <AltitudeMeters>595.4000244140625</AltitudeMeters>
            <DistanceMeters>1664.9482785564</DistanceMeters>
          </Trackpoint>
          <Trackpoint>
            <Time>2022-08-26T19:33:05.000Z</Time>
            <Position>
              <LatitudeDegrees>50.16795133240520954132080078125</LatitudeDegrees>
              <LongitudeDegrees>16.95393431000411510467529296875</LongitudeDegrees>
            </Position>
            <AltitudeMeters>595.20001220703125</AltitudeMeters>
            <DistanceMeters>1665.0433052708</DistanceMeters>
          </Trackpoint>
          <Trackpoint>
            <Time>2022-08-26T19:33:27.000Z</Time>
            <Position>
              <LatitudeDegrees>50.167947895824909210205078125</LatitudeDegrees>
              <LongitudeDegrees>16.95393498055636882781982421875</LongitudeDegrees>
            </Position>
            <AltitudeMeters>595.20001220703125</AltitudeMeters>
            <DistanceMeters>1665.4464694756</DistanceMeters>
          </Trackpoint>
          <Trackpoint>
            <Time>2022-08-26T19:33:41.000Z</Time>
            <Position>
              <LatitudeDegrees>50.167951919138431549072265625</LatitudeDegrees>
              <LongitudeDegrees>16.95393347181379795074462890625</LongitudeDegrees>
            </Position>
            <AltitudeMeters>595.20001220703125</AltitudeMeters>
            <DistanceMeters>1665.9022015879</DistanceMeters>
          </Trackpoint>
          <Trackpoint>
            <Time>2022-08-26T19:33:52.000Z</Time>
            <Position>
              <LatitudeDegrees>50.16794747672975063323974609375</LatitudeDegrees>
              <LongitudeDegrees>16.95393129251897335052490234375</LongitudeDegrees>
            </Position>
            <AltitudeMeters>595.20001220703125</AltitudeMeters>
            <DistanceMeters>1666.4139361059</DistanceMeters>
          </Trackpoint>
          <Trackpoint>
            <Time>2022-08-26T19:34:14.000Z</Time>
            <Position>
              <LatitudeDegrees>50.16794479452073574066162109375</LatitudeDegrees>
              <LongitudeDegrees>16.95393179543316364288330078125</LongitudeDegrees>
            </Position>
            <AltitudeMeters>595.5999755859375</AltitudeMeters>
            <DistanceMeters>1666.7144369618</DistanceMeters>
          </Trackpoint>
          <Trackpoint>
            <Time>2022-08-26T19:34:21.000Z</Time>
            <Position>
              <LatitudeDegrees>50.1679611392319202423095703125</LatitudeDegrees>
              <LongitudeDegrees>16.9539682567119598388671875</LongitudeDegrees>
            </Position>
            <AltitudeMeters>595.5999755859375</AltitudeMeters>
            <DistanceMeters>1669.8889550845</DistanceMeters>
          </Trackpoint>
          <Trackpoint>
            <Time>2022-08-26T19:34:29.000Z</Time>
            <Position>
              <LatitudeDegrees>50.167998187243938446044921875</LatitudeDegrees>
              <LongitudeDegrees>16.9539996050298213958740234375</LongitudeDegrees>
            </Position>
            <AltitudeMeters>595.5999755859375</AltitudeMeters>
            <DistanceMeters>1674.5790794131</DistanceMeters>
          </Trackpoint>
          <Trackpoint>
            <Time>2022-08-26T19:34:36.000Z</Time>
            <Position>
              <LatitudeDegrees>50.16802526079118251800537109375</LatitudeDegrees>
              <LongitudeDegrees>16.9540187157690525054931640625</LongitudeDegrees>
            </Position>
            <AltitudeMeters>596.4000244140625</AltitudeMeters>
            <DistanceMeters>1677.8873195268</DistanceMeters>
          </Trackpoint>
          <Trackpoint>
            <Time>2022-08-26T19:34:44.000Z</Time>
            <Position>
              <LatitudeDegrees>50.16802274622023105621337890625</LatitudeDegrees>
              <LongitudeDegrees>16.95401879958808422088623046875</LongitudeDegrees>
            </Position>
            <AltitudeMeters>597</AltitudeMeters>
            <DistanceMeters>1678.1878203828</DistanceMeters>
          </Trackpoint>
          <Trackpoint>
            <Time>2022-08-26T19:34:59.000Z</Time>
            <Position>
              <LatitudeDegrees>50.16802207566797733306884765625</LatitudeDegrees>
              <LongitudeDegrees>16.954020224511623382568359375</LongitudeDegrees>
            </Position>
            <AltitudeMeters>596.79998779296875</AltitudeMeters>
            <DistanceMeters>1678.3222084511</DistanceMeters>
          </Trackpoint>
          <Trackpoint>
            <Time>2022-08-26T19:35:05.000Z</Time>
            <Position>
              <LatitudeDegrees>50.16804504208266735076904296875</LatitudeDegrees>
              <LongitudeDegrees>16.95404092781245708465576171875</LongitudeDegrees>
            </Position>
            <AltitudeMeters>597</AltitudeMeters>
            <DistanceMeters>1681.275690099</DistanceMeters>
          </Trackpoint>
          <Trackpoint>
            <Time>2022-08-26T19:35:07.000Z</Time>
            <Position>
              <LatitudeDegrees>50.16804571263492107391357421875</LatitudeDegrees>
              <LongitudeDegrees>16.95404361002147197723388671875</LongitudeDegrees>
            </Position>
            <AltitudeMeters>597</AltitudeMeters>
            <DistanceMeters>1681.4657435278</DistanceMeters>
          </Trackpoint>
          <Trackpoint>
            <Time>2022-08-26T19:35:13.000Z</Time>
            <Position>
              <LatitudeDegrees>50.16805560328066349029541015625</LatitudeDegrees>
              <LongitudeDegrees>16.9540465436875820159912109375</LongitudeDegrees>
            </Position>
            <AltitudeMeters>597.20001220703125</AltitudeMeters>
            <DistanceMeters>1682.5901147752</DistanceMeters>
          </Trackpoint>
          <Trackpoint>
            <Time>2022-08-26T19:35:14.000Z</Time>
            <Position>
              <LatitudeDegrees>50.16805727966129779815673828125</LatitudeDegrees>
              <LongitudeDegrees>16.95404897443950176239013671875</LongitudeDegrees>
            </Position>
            <AltitudeMeters>597.20001220703125</AltitudeMeters>
            <DistanceMeters>1682.8588909117</DistanceMeters>
          </Trackpoint>
          <Trackpoint>
            <Time>2022-08-26T19:35:23.000Z</Time>
            <Position>
              <LatitudeDegrees>50.1681140251457691192626953125</LatitudeDegrees>
              <LongitudeDegrees>16.95407227613031864166259765625</LongitudeDegrees>
            </Position>
            <AltitudeMeters>597.5999755859375</AltitudeMeters>
            <DistanceMeters>1689.3895150048</DistanceMeters>
          </Trackpoint>
          <Trackpoint>
            <Time>2022-08-26T19:35:28.000Z</Time>
            <Position>
              <LatitudeDegrees>50.16814629547297954559326171875</LatitudeDegrees>
              <LongitudeDegrees>16.95409440435469150543212890625</LongitudeDegrees>
            </Position>
            <AltitudeMeters>598</AltitudeMeters>
            <DistanceMeters>1693.3133244213</DistanceMeters>
          </Trackpoint>
          <Trackpoint>
            <Time>2022-08-26T19:35:29.000Z</Time>
            <Position>
              <LatitudeDegrees>50.1681525819003582000732421875</LatitudeDegrees>
              <LongitudeDegrees>16.95409633219242095947265625</LongitudeDegrees>
            </Position>
            <AltitudeMeters>598.20001220703125</AltitudeMeters>
            <DistanceMeters>1694.0244392368</DistanceMeters>
          </Trackpoint>
          <Trackpoint>
            <Time>2022-08-26T19:35:34.000Z</Time>
            <Position>
              <LatitudeDegrees>50.168202705681324005126953125</LatitudeDegrees>
              <LongitudeDegrees>16.95409767329692840576171875</LongitudeDegrees>
            </Position>
            <AltitudeMeters>598.5999755859375</AltitudeMeters>
            <DistanceMeters>1699.6035676188</DistanceMeters>
          </Trackpoint>
          <Trackpoint>
            <Time>2022-08-26T19:35:40.000Z</Time>
            <Position>
              <LatitudeDegrees>50.16826070845127105712890625</LatitudeDegrees>
              <LongitudeDegrees>16.954104043543338775634765625</LongitudeDegrees>
            </Position>
            <AltitudeMeters>598.79998779296875</AltitudeMeters>
            <DistanceMeters>1706.0751589646</DistanceMeters>
          </Trackpoint>
          <Trackpoint>
            <Time>2022-08-26T19:35:43.000Z</Time>
            <Position>
              <LatitudeDegrees>50.16828996129333972930908203125</LatitudeDegrees>
              <LongitudeDegrees>16.95411971770226955413818359375</LongitudeDegrees>
            </Position>
            <AltitudeMeters>599.4000244140625</AltitudeMeters>
            <DistanceMeters>1709.5171729527</DistanceMeters>
          </Trackpoint>
          <Trackpoint>
            <Time>2022-08-26T19:35:48.000Z</Time>
            <Position>
              <LatitudeDegrees>50.1683420129120349884033203125</LatitudeDegrees>
              <LongitudeDegrees>16.95412726141512393951416015625</LongitudeDegrees>
            </Position>
            <AltitudeMeters>599.79998779296875</AltitudeMeters>
            <DistanceMeters>1715.3363470062</DistanceMeters>
          </Trackpoint>
          <Trackpoint>
            <Time>2022-08-26T19:35:55.000Z</Time>
            <Position>
              <LatitudeDegrees>50.16840680502355098724365234375</LatitudeDegrees>
              <LongitudeDegrees>16.95419968105852603912353515625</LongitudeDegrees>
            </Position>
            <AltitudeMeters>600.4000244140625</AltitudeMeters>
            <DistanceMeters>1724.2059595107</DistanceMeters>
          </Trackpoint>
          <Trackpoint>
            <Time>2022-08-26T19:36:04.000Z</Time>
            <Position>
              <LatitudeDegrees>50.168462209403514862060546875</LatitudeDegrees>
              <LongitudeDegrees>16.95432004518806934356689453125</LongitudeDegrees>
            </Position>
            <AltitudeMeters>600.5999755859375</AltitudeMeters>
            <DistanceMeters>1734.7731694218</DistanceMeters>
          </Trackpoint>
          <Trackpoint>
            <Time>2022-08-26T19:36:12.000Z</Time>
            <Position>
              <LatitudeDegrees>50.1685207150876522064208984375</LatitudeDegrees>
              <LongitudeDegrees>16.95444778539240360260009765625</LongitudeDegrees>
            </Position>
            <AltitudeMeters>600.4000244140625</AltitudeMeters>
            <DistanceMeters>1745.9685908539</DistanceMeters>
          </Trackpoint>
          <Trackpoint>
            <Time>2022-08-26T19:36:19.000Z</Time>
            <Position>
              <LatitudeDegrees>50.16855734400451183319091796875</LatitudeDegrees>
              <LongitudeDegrees>16.9545824825763702392578125</LongitudeDegrees>
            </Position>
            <AltitudeMeters>600</AltitudeMeters>
            <DistanceMeters>1756.4007757306</DistanceMeters>
          </Trackpoint>
          <Trackpoint>
            <Time>2022-08-26T19:36:26.000Z</Time>
            <Position>
              <LatitudeDegrees>50.16857863403856754302978515625</LatitudeDegrees>
              <LongitudeDegrees>16.9547085464000701904296875</LongitudeDegrees>
            </Position>
            <AltitudeMeters>599.5999755859375</AltitudeMeters>
            <DistanceMeters>1765.6954377116</DistanceMeters>
          </Trackpoint>
          <Trackpoint>
            <Time>2022-08-26T19:36:33.000Z</Time>
            <Position>
              <LatitudeDegrees>50.168605037033557891845703125</LatitudeDegrees>
              <LongitudeDegrees>16.95482723414897918701171875</LongitudeDegrees>
            </Position>
            <AltitudeMeters>599.4000244140625</AltitudeMeters>
            <DistanceMeters>1774.6531862725</DistanceMeters>
          </Trackpoint>
          <Trackpoint>
            <Time>2022-08-26T19:36:43.000Z</Time>
            <Position>
              <LatitudeDegrees>50.16864560544490814208984375</LatitudeDegrees>
              <LongitudeDegrees>16.955015994608402252197265625</LongitudeDegrees>
            </Position>
            <AltitudeMeters>599.4000244140625</AltitudeMeters>
            <DistanceMeters>1788.8478365216</DistanceMeters>
          </Trackpoint>
          <Trackpoint>
            <Time>2022-08-26T19:36:51.000Z</Time>
            <Position>
              <LatitudeDegrees>50.1687007583677768707275390625</LatitudeDegrees>
              <LongitudeDegrees>16.95514968596398830413818359375</LongitudeDegrees>
            </Position>
            <AltitudeMeters>599.4000244140625</AltitudeMeters>
            <DistanceMeters>1800.1847266607</DistanceMeters>
          </Trackpoint>
          <Trackpoint>
            <Time>2022-08-26T19:36:59.000Z</Time>
            <Position>
              <LatitudeDegrees>50.1687473617494106292724609375</LatitudeDegrees>
              <LongitudeDegrees>16.95529737509787082672119140625</LongitudeDegrees>
            </Position>
            <AltitudeMeters>599.4000244140625</AltitudeMeters>
            <DistanceMeters>1811.92196851</DistanceMeters>
          </Trackpoint>
          <Trackpoint>
            <Time>2022-08-26T19:37:08.000Z</Time>
            <Position>
              <LatitudeDegrees>50.1688006706535816192626953125</LatitudeDegrees>
              <LongitudeDegrees>16.955453865230083465576171875</LongitudeDegrees>
            </Position>
            <AltitudeMeters>600</AltitudeMeters>
            <DistanceMeters>1824.5583778797</DistanceMeters>
          </Trackpoint>
          <Trackpoint>
            <Time>2022-08-26T19:37:13.000Z</Time>
            <Position>
              <LatitudeDegrees>50.16881668008863925933837890625</LatitudeDegrees>
              <LongitudeDegrees>16.95548311807215213775634765625</LongitudeDegrees>
            </Position>
            <AltitudeMeters>600.20001220703125</AltitudeMeters>
            <DistanceMeters>1827.2993674093</DistanceMeters>
          </Trackpoint>
          <Trackpoint>
            <Time>2022-08-26T19:37:20.000Z</Time>
            <Position>
              <LatitudeDegrees>50.168830342590808868408203125</LatitudeDegrees>
              <LongitudeDegrees>16.95558805949985980987548828125</LongitudeDegrees>
            </Position>
            <AltitudeMeters>600.4000244140625</AltitudeMeters>
            <DistanceMeters>1834.9341001123</DistanceMeters>
          </Trackpoint>
          <Trackpoint>
            <Time>2022-08-26T19:37:28.000Z</Time>
            <Position>
              <LatitudeDegrees>50.1688415743410587310791015625</LatitudeDegrees>
              <LongitudeDegrees>16.95566676557064056396484375</LongitudeDegrees>
            </Position>
            <AltitudeMeters>600.79998779296875</AltitudeMeters>
            <DistanceMeters>1840.6830199921</DistanceMeters>
          </Trackpoint>
          <Trackpoint>
            <Time>2022-08-26T19:37:41.000Z</Time>
            <Position>
              <LatitudeDegrees>50.1688461005687713623046875</LatitudeDegrees>
              <LongitudeDegrees>16.95570322684943675994873046875</LongitudeDegrees>
            </Position>
            <AltitudeMeters>601</AltitudeMeters>
            <DistanceMeters>1843.330157941</DistanceMeters>
          </Trackpoint>
          <Trackpoint>
            <Time>2022-08-26T19:37:49.000Z</Time>
            <Position>
              <LatitudeDegrees>50.16886110417544841766357421875</LatitudeDegrees>
              <LongitudeDegrees>16.9558479823172092437744140625</LongitudeDegrees>
            </Position>
            <AltitudeMeters>601</AltitudeMeters>
            <DistanceMeters>1853.7839603652</DistanceMeters>
          </Trackpoint>
          <Trackpoint>
            <Time>2022-08-26T19:37:52.000Z</Time>
            <Position>
              <LatitudeDegrees>50.1688710786402225494384765625</LatitudeDegrees>
              <LongitudeDegrees>16.95590824820101261138916015625</LongitudeDegrees>
            </Position>
            <AltitudeMeters>601</AltitudeMeters>
            <DistanceMeters>1858.2218198407</DistanceMeters>
          </Trackpoint>
          <Trackpoint>
            <Time>2022-08-26T19:37:55.000Z</Time>
            <Position>
              <LatitudeDegrees>50.1688744314014911651611328125</LatitudeDegrees>
              <LongitudeDegrees>16.95596717298030853271484375</LongitudeDegrees>
            </Position>
            <AltitudeMeters>601</AltitudeMeters>
            <DistanceMeters>1862.4395503436</DistanceMeters>
          </Trackpoint>
          <Trackpoint>
            <Time>2022-08-26T19:38:00.000Z</Time>
            <Position>
              <LatitudeDegrees>50.168868564069271087646484375</LatitudeDegrees>
              <LongitudeDegrees>16.956068761646747589111328125</LongitudeDegrees>
            </Position>
            <AltitudeMeters>600.5999755859375</AltitudeMeters>
            <DistanceMeters>1869.711422706</DistanceMeters>
          </Trackpoint>
          <Trackpoint>
            <Time>2022-08-26T19:38:05.000Z</Time>
            <Position>
              <LatitudeDegrees>50.16889027319848537445068359375</LatitudeDegrees>
              <LongitudeDegrees>16.95614947937428951263427734375</LongitudeDegrees>
            </Position>
            <AltitudeMeters>600</AltitudeMeters>
            <DistanceMeters>1875.9521534087</DistanceMeters>
          </Trackpoint>
          <Trackpoint>
            <Time>2022-08-26T19:38:11.000Z</Time>
            <Position>
              <LatitudeDegrees>50.1689113117754459381103515625</LatitudeDegrees>
              <LongitudeDegrees>16.95624235086143016815185546875</LongitudeDegrees>
            </Position>
            <AltitudeMeters>599.5999755859375</AltitudeMeters>
            <DistanceMeters>1882.9751355058</DistanceMeters>
          </Trackpoint>
          <Trackpoint>
            <Time>2022-08-26T19:38:20.000Z</Time>
            <Position>
              <LatitudeDegrees>50.16892631538212299346923828125</LatitudeDegrees>
              <LongitudeDegrees>16.956328265368938446044921875</LongitudeDegrees>
            </Position>
            <AltitudeMeters>599.79998779296875</AltitudeMeters>
            <DistanceMeters>1889.3234605739</DistanceMeters>
          </Trackpoint>
          <Trackpoint>
            <Time>2022-08-26T19:38:29.000Z</Time>
            <Position>
              <LatitudeDegrees>50.16895229928195476531982421875</LatitudeDegrees>
              <LongitudeDegrees>16.95634846575558185577392578125</LongitudeDegrees>
            </Position>
            <AltitudeMeters>599.5999755859375</AltitudeMeters>
            <DistanceMeters>1892.5543688624</DistanceMeters>
          </Trackpoint>
          <Trackpoint>
            <Time>2022-08-26T19:38:41.000Z</Time>
            <Position>
              <LatitudeDegrees>50.16898063011467456817626953125</LatitudeDegrees>
              <LongitudeDegrees>16.95638970471918582916259765625</LongitudeDegrees>
            </Position>
            <AltitudeMeters>599.5999755859375</AltitudeMeters>
            <DistanceMeters>1896.8652733292</DistanceMeters>
          </Trackpoint>
          <Trackpoint>
            <Time>2022-08-26T19:38:52.000Z</Time>
            <Position>
              <LatitudeDegrees>50.16901114024221897125244140625</LatitudeDegrees>
              <LongitudeDegrees>16.9564511440694332122802734375</LongitudeDegrees>
            </Position>
            <AltitudeMeters>600.20001220703125</AltitudeMeters>
            <DistanceMeters>1902.4078647865</DistanceMeters>
          </Trackpoint>
          <Trackpoint>
            <Time>2022-08-26T19:39:03.000Z</Time>
            <Position>
              <LatitudeDegrees>50.1690152473747730255126953125</LatitudeDegrees>
              <LongitudeDegrees>16.95648659951984882354736328125</LongitudeDegrees>
            </Position>
            <AltitudeMeters>600.5999755859375</AltitudeMeters>
            <DistanceMeters>1904.9753452254</DistanceMeters>
          </Trackpoint>
          <Trackpoint>
            <Time>2022-08-26T19:39:16.000Z</Time>
            <Position>
              <LatitudeDegrees>50.16904869116842746734619140625</LatitudeDegrees>
              <LongitudeDegrees>16.956509649753570556640625</LongitudeDegrees>
            </Position>
            <AltitudeMeters>600.5999755859375</AltitudeMeters>
            <DistanceMeters>1909.0437761418</DistanceMeters>
          </Trackpoint>
          <Trackpoint>
            <Time>2022-08-26T19:39:22.000Z</Time>
            <Position>
              <LatitudeDegrees>50.1691161654889583587646484375</LatitudeDegrees>
              <LongitudeDegrees>16.95654041133821010589599609375</LongitudeDegrees>
            </Position>
            <AltitudeMeters>599</AltitudeMeters>
            <DistanceMeters>1916.8671934346</DistanceMeters>
          </Trackpoint>
          <Trackpoint>
            <Time>2022-08-26T19:39:24.000Z</Time>
            <Position>
              <LatitudeDegrees>50.16913100145757198333740234375</LatitudeDegrees>
              <LongitudeDegrees>16.95655583404004573822021484375</LongitudeDegrees>
            </Position>
            <AltitudeMeters>598.5999755859375</AltitudeMeters>
            <DistanceMeters>1918.8514094837</DistanceMeters>
          </Trackpoint>
          <Trackpoint>
            <Time>2022-08-26T19:39:29.000Z</Time>
            <Position>
              <LatitudeDegrees>50.1691580750048160552978515625</LatitudeDegrees>
              <LongitudeDegrees>16.95656689815223217010498046875</LongitudeDegrees>
            </Position>
            <AltitudeMeters>598</AltitudeMeters>
            <DistanceMeters>1921.967068672</DistanceMeters>
          </Trackpoint>
          <Trackpoint>
            <Time>2022-08-26T19:39:33.000Z</Time>
            <Position>
              <LatitudeDegrees>50.16917207278311252593994140625</LatitudeDegrees>
              <LongitudeDegrees>16.9565634615719318389892578125</LongitudeDegrees>
            </Position>
            <AltitudeMeters>597.4000244140625</AltitudeMeters>
            <DistanceMeters>1923.5429084551</DistanceMeters>
          </Trackpoint>
          <Trackpoint>
            <Time>2022-08-26T19:39:46.000Z</Time>
            <Position>
              <LatitudeDegrees>50.16922337003052234649658203125</LatitudeDegrees>
              <LongitudeDegrees>16.95652381516993045806884765625</LongitudeDegrees>
            </Position>
            <AltitudeMeters>597.4000244140625</AltitudeMeters>
            <DistanceMeters>1929.913243104</DistanceMeters>
          </Trackpoint>
          <Trackpoint>
            <Time>2022-08-26T19:39:59.000Z</Time>
            <Position>
              <LatitudeDegrees>50.16926125623285770416259765625</LatitudeDegrees>
              <LongitudeDegrees>16.9564917124807834625244140625</LongitudeDegrees>
            </Position>
            <AltitudeMeters>597.4000244140625</AltitudeMeters>
            <DistanceMeters>1934.7109159623</DistanceMeters>
          </Trackpoint>
          <Trackpoint>
            <Time>2022-08-26T19:40:07.000Z</Time>
            <Position>
              <LatitudeDegrees>50.16924348659813404083251953125</LatitudeDegrees>
              <LongitudeDegrees>16.956442259252071380615234375</LongitudeDegrees>
            </Position>
            <AltitudeMeters>597.20001220703125</AltitudeMeters>
            <DistanceMeters>1938.7537415044</DistanceMeters>
          </Trackpoint>
          <Trackpoint>
            <Time>2022-08-26T19:40:18.000Z</Time>
            <Position>
              <LatitudeDegrees>50.16924398951232433319091796875</LatitudeDegrees>
              <LongitudeDegrees>16.9564085640013217926025390625</LongitudeDegrees>
            </Position>
            <AltitudeMeters>597.20001220703125</AltitudeMeters>
            <DistanceMeters>1941.1539891523</DistanceMeters>
          </Trackpoint>
          <Trackpoint>
            <Time>2022-08-26T19:40:29.000Z</Time>
            <Position>
              <LatitudeDegrees>50.16925983130931854248046875</LatitudeDegrees>
              <LongitudeDegrees>16.95640546269714832305908203125</LongitudeDegrees>
            </Position>
            <AltitudeMeters>597.4000244140625</AltitudeMeters>
            <DistanceMeters>1942.9266895225</DistanceMeters>
          </Trackpoint>
          <Trackpoint>
            <Time>2022-08-26T19:40:39.000Z</Time>
            <Position>
              <LatitudeDegrees>50.16928933560848236083984375</LatitudeDegrees>
              <LongitudeDegrees>16.95646178908646106719970703125</LongitudeDegrees>
            </Position>
            <AltitudeMeters>597.4000244140625</AltitudeMeters>
            <DistanceMeters>1948.1141385876</DistanceMeters>
          </Trackpoint>
          <Trackpoint>
            <Time>2022-08-26T19:40:49.000Z</Time>
            <Position>
              <LatitudeDegrees>50.1693106256425380706787109375</LatitudeDegrees>
              <LongitudeDegrees>16.95650897920131683349609375</LongitudeDegrees>
            </Position>
            <AltitudeMeters>597.5999755859375</AltitudeMeters>
            <DistanceMeters>1952.2300131494</DistanceMeters>
          </Trackpoint>
          <Trackpoint>
            <Time>2022-08-26T19:40:59.000Z</Time>
            <Position>
              <LatitudeDegrees>50.169352032244205474853515625</LatitudeDegrees>
              <LongitudeDegrees>16.9565601088106632232666015625</LongitudeDegrees>
            </Position>
            <AltitudeMeters>598.4000244140625</AltitudeMeters>
            <DistanceMeters>1958.10478567</DistanceMeters>
          </Trackpoint>
          <Trackpoint>
            <Time>2022-08-26T19:41:00.000Z</Time>
            <Position>
              <LatitudeDegrees>50.16935630701482295989990234375</LatitudeDegrees>
              <LongitudeDegrees>16.956564299762248992919921875</LongitudeDegrees>
            </Position>
            <AltitudeMeters>598.5999755859375</AltitudeMeters>
            <DistanceMeters>1958.6749459563</DistanceMeters>
          </Trackpoint>
          <Trackpoint>
            <Time>2022-08-26T19:41:10.000Z</Time>
            <Position>
              <LatitudeDegrees>50.16935965977609157562255859375</LatitudeDegrees>
              <LongitudeDegrees>16.95658667944371700286865234375</LongitudeDegrees>
            </Position>
            <AltitudeMeters>599</AltitudeMeters>
            <DistanceMeters>1960.3153613854</DistanceMeters>
          </Trackpoint>
          <Trackpoint>
            <Time>2022-08-26T19:41:16.000Z</Time>
            <Position>
              <LatitudeDegrees>50.1693498529493808746337890625</LatitudeDegrees>
              <LongitudeDegrees>16.95659321732819080352783203125</LongitudeDegrees>
            </Position>
            <AltitudeMeters>599.5999755859375</AltitudeMeters>
            <DistanceMeters>1961.5022446675</DistanceMeters>
          </Trackpoint>
          <Trackpoint>
            <Time>2022-08-26T19:41:22.000Z</Time>
            <Position>
              <LatitudeDegrees>50.1693334244191646575927734375</LatitudeDegrees>
              <LongitudeDegrees>16.9565979950129985809326171875</LongitudeDegrees>
            </Position>
            <AltitudeMeters>600.4000244140625</AltitudeMeters>
            <DistanceMeters>1963.3595247222</DistanceMeters>
          </Trackpoint>
          <Trackpoint>
            <Time>2022-08-26T19:41:26.000Z</Time>
            <Position>
              <LatitudeDegrees>50.16933619044721126556396484375</LatitudeDegrees>
              <LongitudeDegrees>16.956610567867755889892578125</LongitudeDegrees>
            </Position>
            <AltitudeMeters>600.5999755859375</AltitudeMeters>
            <DistanceMeters>1964.3097918659</DistanceMeters>
          </Trackpoint>
          <Trackpoint>
            <Time>2022-08-26T19:41:32.000Z</Time>
            <Position>
              <LatitudeDegrees>50.16934725455939769744873046875</LatitudeDegrees>
              <LongitudeDegrees>16.9566660560667514801025390625</LongitudeDegrees>
            </Position>
            <AltitudeMeters>601.5999755859375</AltitudeMeters>
            <DistanceMeters>1968.4530002024</DistanceMeters>
          </Trackpoint>
          <Trackpoint>
            <Time>2022-08-26T19:41:33.000Z</Time>
            <Position>
              <LatitudeDegrees>50.16934826038777828216552734375</LatitudeDegrees>
              <LongitudeDegrees>16.9566771201789379119873046875</LongitudeDegrees>
            </Position>
            <AltitudeMeters>601.5999755859375</AltitudeMeters>
            <DistanceMeters>1969.2480507361</DistanceMeters>
          </Trackpoint>
          <Trackpoint>
            <Time>2022-08-26T19:41:39.000Z</Time>
            <Position>
              <LatitudeDegrees>50.169344656169414520263671875</LatitudeDegrees>
              <LongitudeDegrees>16.95673763751983642578125</LongitudeDegrees>
            </Position>
            <AltitudeMeters>602.4000244140625</AltitudeMeters>
            <DistanceMeters>1973.5798516146</DistanceMeters>
          </Trackpoint>
          <Trackpoint>
            <Time>2022-08-26T19:41:44.000Z</Time>
            <Position>
              <LatitudeDegrees>50.1693639345467090606689453125</LatitudeDegrees>
              <LongitudeDegrees>16.956846602261066436767578125</LongitudeDegrees>
            </Position>
            <AltitudeMeters>602.79998779296875</AltitudeMeters>
            <DistanceMeters>1981.6386548622</DistanceMeters>
          </Trackpoint>
          <Trackpoint>
            <Time>2022-08-26T19:41:47.000Z</Time>
            <Position>
              <LatitudeDegrees>50.169386565685272216796875</LatitudeDegrees>
              <LongitudeDegrees>16.95689161308109760284423828125</LongitudeDegrees>
            </Position>
            <AltitudeMeters>603.5999755859375</AltitudeMeters>
            <DistanceMeters>1985.7170615131</DistanceMeters>
          </Trackpoint>
          <Trackpoint>
            <Time>2022-08-26T19:41:53.000Z</Time>
            <Position>
              <LatitudeDegrees>50.16942084766924381256103515625</LatitudeDegrees>
              <LongitudeDegrees>16.9569724984467029571533203125</LongitudeDegrees>
            </Position>
            <AltitudeMeters>604.4000244140625</AltitudeMeters>
            <DistanceMeters>1992.6311937576</DistanceMeters>
          </Trackpoint>
          <Trackpoint>
            <Time>2022-08-26T19:41:57.000Z</Time>
            <Position>
              <LatitudeDegrees>50.1694433949887752532958984375</LatitudeDegrees>
              <LongitudeDegrees>16.95702664554119110107421875</LongitudeDegrees>
            </Position>
            <AltitudeMeters>604.79998779296875</AltitudeMeters>
            <DistanceMeters>1997.2358239806</DistanceMeters>
          </Trackpoint>
          <Trackpoint>
            <Time>2022-08-26T19:42:05.000Z</Time>
            <Position>
              <LatitudeDegrees>50.1694970391690731048583984375</LatitudeDegrees>
              <LongitudeDegrees>16.957114152610301971435546875</LongitudeDegrees>
            </Position>
            <AltitudeMeters>605.4000244140625</AltitudeMeters>
            <DistanceMeters>2005.8712377677</DistanceMeters>
          </Trackpoint>
          <Trackpoint>
            <Time>2022-08-26T19:42:10.000Z</Time>
            <Position>
              <LatitudeDegrees>50.16951891593635082244873046875</LatitudeDegrees>
              <LongitudeDegrees>16.95715279318392276763916015625</LongitudeDegrees>
            </Position>
            <AltitudeMeters>606</AltitudeMeters>
            <DistanceMeters>2009.5466961554</DistanceMeters>
          </Trackpoint>
          <Trackpoint>
            <Time>2022-08-26T19:42:15.000Z</Time>
            <Position>
              <LatitudeDegrees>50.1695381104946136474609375</LatitudeDegrees>
              <LongitudeDegrees>16.95718732662498950958251953125</LongitudeDegrees>
            </Position>
            <AltitudeMeters>606.4000244140625</AltitudeMeters>
            <DistanceMeters>2012.8054336254</DistanceMeters>
          </Trackpoint>
          <Trackpoint>
            <Time>2022-08-26T19:42:25.000Z</Time>
            <Position>
              <LatitudeDegrees>50.16957323066890239715576171875</LatitudeDegrees>
              <LongitudeDegrees>16.95727399550378322601318359375</LongitudeDegrees>
            </Position>
            <AltitudeMeters>606.4000244140625</AltitudeMeters>
            <DistanceMeters>2020.1169350135</DistanceMeters>
          </Trackpoint>
          <Trackpoint>
            <Time>2022-08-26T19:42:35.000Z</Time>
            <Position>
              <LatitudeDegrees>50.169629640877246856689453125</LatitudeDegrees>
              <LongitudeDegrees>16.95742755196988582611083984375</LongitudeDegrees>
            </Position>
            <AltitudeMeters>605.79998779296875</AltitudeMeters>
            <DistanceMeters>2032.7368977013</DistanceMeters>
          </Trackpoint>
          <Trackpoint>
            <Time>2022-08-26T19:42:45.000Z</Time>
            <Position>
              <LatitudeDegrees>50.1696693710982799530029296875</LatitudeDegrees>
              <LongitudeDegrees>16.95761094801127910614013671875</LongitudeDegrees>
            </Position>
            <AltitudeMeters>605.4000244140625</AltitudeMeters>
            <DistanceMeters>2046.5393439605</DistanceMeters>
          </Trackpoint>
          <Trackpoint>
            <Time>2022-08-26T19:42:56.000Z</Time>
            <Position>
              <LatitudeDegrees>50.16971446573734283447265625</LatitudeDegrees>
              <LongitudeDegrees>16.9577899016439914703369140625</LongitudeDegrees>
            </Position>
            <AltitudeMeters>605.20001220703125</AltitudeMeters>
            <DistanceMeters>2060.2489030747</DistanceMeters>
          </Trackpoint>
          <Trackpoint>
            <Time>2022-08-26T19:43:08.000Z</Time>
            <Position>
              <LatitudeDegrees>50.16978160478174686431884765625</LatitudeDegrees>
              <LongitudeDegrees>16.9579722918570041656494140625</LongitudeDegrees>
            </Position>
            <AltitudeMeters>605.4000244140625</AltitudeMeters>
            <DistanceMeters>2075.2459732549</DistanceMeters>
          </Trackpoint>
          <Trackpoint>
            <Time>2022-08-26T19:43:18.000Z</Time>
            <Position>
              <LatitudeDegrees>50.16986458562314510345458984375</LatitudeDegrees>
              <LongitudeDegrees>16.95813397876918315887451171875</LongitudeDegrees>
            </Position>
            <AltitudeMeters>605.79998779296875</AltitudeMeters>
            <DistanceMeters>2090.0164386127</DistanceMeters>
          </Trackpoint>
          <Trackpoint>
            <Time>2022-08-26T19:43:28.000Z</Time>
            <Position>
              <LatitudeDegrees>50.16994387842714786529541015625</LatitudeDegrees>
              <LongitudeDegrees>16.95828284136950969696044921875</LongitudeDegrees>
            </Position>
            <AltitudeMeters>605.79998779296875</AltitudeMeters>
            <DistanceMeters>2103.8192119867</DistanceMeters>
          </Trackpoint>
          <Trackpoint>
            <Time>2022-08-26T19:43:38.000Z</Time>
            <Position>
              <LatitudeDegrees>50.17000707797706127166748046875</LatitudeDegrees>
              <LongitudeDegrees>16.95841611362993717193603515625</LongitudeDegrees>
            </Position>
            <AltitudeMeters>606</AltitudeMeters>
            <DistanceMeters>2115.6407796935</DistanceMeters>
          </Trackpoint>
          <Trackpoint>
            <Time>2022-08-26T19:43:41.000Z</Time>
            <Position>
              <LatitudeDegrees>50.17003230750560760498046875</LatitudeDegrees>
              <LongitudeDegrees>16.95847931317985057830810546875</LongitudeDegrees>
            </Position>
            <AltitudeMeters>606</AltitudeMeters>
            <DistanceMeters>2120.949533651</DistanceMeters>
          </Trackpoint>
          <Trackpoint>
            <Time>2022-08-26T19:43:47.000Z</Time>
            <Position>
              <LatitudeDegrees>50.17007497139275074005126953125</LatitudeDegrees>
              <LongitudeDegrees>16.9585771299898624420166015625</LongitudeDegrees>
            </Position>
            <AltitudeMeters>605.79998779296875</AltitudeMeters>
            <DistanceMeters>2129.3860650788</DistanceMeters>
          </Trackpoint>
          <Trackpoint>
            <Time>2022-08-26T19:43:58.000Z</Time>
            <Position>
              <LatitudeDegrees>50.17014739103615283966064453125</LatitudeDegrees>
              <LongitudeDegrees>16.9587625376880168914794921875</LongitudeDegrees>
            </Position>
            <AltitudeMeters>604.79998779296875</AltitudeMeters>
            <DistanceMeters>2144.8678388483</DistanceMeters>
          </Trackpoint>
          <Trackpoint>
            <Time>2022-08-26T19:44:07.000Z</Time>
            <Position>
              <LatitudeDegrees>50.17019365914165973663330078125</LatitudeDegrees>
              <LongitudeDegrees>16.958923973143100738525390625</LongitudeDegrees>
            </Position>
            <AltitudeMeters>604.4000244140625</AltitudeMeters>
            <DistanceMeters>2157.4767058027</DistanceMeters>
          </Trackpoint>
          <Trackpoint>
            <Time>2022-08-26T19:44:09.000Z</Time>
            <Position>
              <LatitudeDegrees>50.1702017895877361297607421875</LatitudeDegrees>
              <LongitudeDegrees>16.95896915160119533538818359375</LongitudeDegrees>
            </Position>
            <AltitudeMeters>604.4000244140625</AltitudeMeters>
            <DistanceMeters>2160.8215921556</DistanceMeters>
          </Trackpoint>
          <Trackpoint>
            <Time>2022-08-26T19:44:19.000Z</Time>
            <Position>
              <LatitudeDegrees>50.17022266052663326263427734375</LatitudeDegrees>
              <LongitudeDegrees>16.95913025178015232086181640625</LongitudeDegrees>
            </Position>
            <AltitudeMeters>604.4000244140625</AltitudeMeters>
            <DistanceMeters>2172.5388137654</DistanceMeters>
          </Trackpoint>
          <Trackpoint>
            <Time>2022-08-26T19:44:30.000Z</Time>
            <Position>
              <LatitudeDegrees>50.17024495638906955718994140625</LatitudeDegrees>
              <LongitudeDegrees>16.9592329300940036773681640625</LongitudeDegrees>
            </Position>
            <AltitudeMeters>604.5999755859375</AltitudeMeters>
            <DistanceMeters>2180.2681724551</DistanceMeters>
          </Trackpoint>
          <Trackpoint>
            <Time>2022-08-26T19:44:40.000Z</Time>
            <Position>
              <LatitudeDegrees>50.1702732034027576446533203125</LatitudeDegrees>
              <LongitudeDegrees>16.9592634402215480804443359375</LongitudeDegrees>
            </Position>
            <AltitudeMeters>605</AltitudeMeters>
            <DistanceMeters>2184.0917432682</DistanceMeters>
          </Trackpoint>
          <Trackpoint>
            <Time>2022-08-26T19:44:49.000Z</Time>
            <Position>
              <LatitudeDegrees>50.17030999995768070220947265625</LatitudeDegrees>
              <LongitudeDegrees>16.95934675633907318115234375</LongitudeDegrees>
            </Position>
            <AltitudeMeters>605.4000244140625</AltitudeMeters>
            <DistanceMeters>2191.3062675507</DistanceMeters>
          </Trackpoint>
          <Trackpoint>
            <Time>2022-08-26T19:44:59.000Z</Time>
            <Position>
              <LatitudeDegrees>50.17032206989824771881103515625</LatitudeDegrees>
              <LongitudeDegrees>16.95954121649265289306640625</LongitudeDegrees>
            </Position>
            <AltitudeMeters>606</AltitudeMeters>
            <DistanceMeters>2205.2340851173</DistanceMeters>
          </Trackpoint>
          <Trackpoint>
            <Time>2022-08-26T19:45:08.000Z</Time>
            <Position>
              <LatitudeDegrees>50.1703660748898983001708984375</LatitudeDegrees>
              <LongitudeDegrees>16.95972084067761898040771484375</LongitudeDegrees>
            </Position>
            <AltitudeMeters>606</AltitudeMeters>
            <DistanceMeters>2218.9443028857</DistanceMeters>
          </Trackpoint>
          <Trackpoint>
            <Time>2022-08-26T19:45:16.000Z</Time>
            <Position>
              <LatitudeDegrees>50.17044578678905963897705078125</LatitudeDegrees>
              <LongitudeDegrees>16.95980834774672985076904296875</LongitudeDegrees>
            </Position>
            <AltitudeMeters>606.20001220703125</AltitudeMeters>
            <DistanceMeters>2229.7898446315</DistanceMeters>
          </Trackpoint>
          <Trackpoint>
            <Time>2022-08-26T19:45:18.000Z</Time>
            <Position>
              <LatitudeDegrees>50.1704579405486583709716796875</LatitudeDegrees>
              <LongitudeDegrees>16.95981957949697971343994140625</LongitudeDegrees>
            </Position>
            <AltitudeMeters>606.20001220703125</AltitudeMeters>
            <DistanceMeters>2231.3628166419</DistanceMeters>
          </Trackpoint>
          <Trackpoint>
            <Time>2022-08-26T19:45:28.000Z</Time>
            <Position>
              <LatitudeDegrees>50.1704978384077548980712890625</LatitudeDegrees>
              <LongitudeDegrees>16.959876827895641326904296875</LongitudeDegrees>
            </Position>
            <AltitudeMeters>605.79998779296875</AltitudeMeters>
            <DistanceMeters>2237.3938321382</DistanceMeters>
          </Trackpoint>
          <Trackpoint>
            <Time>2022-08-26T19:45:39.000Z</Time>
            <Position>
              <LatitudeDegrees>50.17054905183613300323486328125</LatitudeDegrees>
              <LongitudeDegrees>16.95986031554639339447021484375</LongitudeDegrees>
            </Position>
            <AltitudeMeters>605.4000244140625</AltitudeMeters>
            <DistanceMeters>2243.2145577646</DistanceMeters>
          </Trackpoint>
          <Trackpoint>
            <Time>2022-08-26T19:45:48.000Z</Time>
            <Position>
              <LatitudeDegrees>50.17063655890524387359619140625</LatitudeDegrees>
              <LongitudeDegrees>16.959837265312671661376953125</LongitudeDegrees>
            </Position>
            <AltitudeMeters>605.5999755859375</AltitudeMeters>
            <DistanceMeters>2253.0923093294</DistanceMeters>
          </Trackpoint>
          <Trackpoint>
            <Time>2022-08-26T19:45:54.000Z</Time>
            <Position>
              <LatitudeDegrees>50.17068517394363880157470703125</LatitudeDegrees>
              <LongitudeDegrees>16.95981555618345737457275390625</LongitudeDegrees>
            </Position>
            <AltitudeMeters>606</AltitudeMeters>
            <DistanceMeters>2258.7205868782</DistanceMeters>
          </Trackpoint>
          <Trackpoint>
            <Time>2022-08-26T19:45:59.000Z</Time>
            <Position>
              <LatitudeDegrees>50.17071736045181751251220703125</LatitudeDegrees>
              <LongitudeDegrees>16.95977264083921909332275390625</LongitudeDegrees>
            </Position>
            <AltitudeMeters>606.4000244140625</AltitudeMeters>
            <DistanceMeters>2263.4318423265</DistanceMeters>
          </Trackpoint>
          <Trackpoint>
            <Time>2022-08-26T19:46:10.000Z</Time>
            <Position>
              <LatitudeDegrees>50.170811824500560760498046875</LatitudeDegrees>
              <LongitudeDegrees>16.95966686122119426727294921875</LongitudeDegrees>
            </Position>
            <AltitudeMeters>607</AltitudeMeters>
            <DistanceMeters>2276.370140403</DistanceMeters>
          </Trackpoint>
          <Trackpoint>
            <Time>2022-08-26T19:46:11.000Z</Time>
            <Position>
              <LatitudeDegrees>50.1708220504224300384521484375</LatitudeDegrees>
              <LongitudeDegrees>16.959655545651912689208984375</LongitudeDegrees>
            </Position>
            <AltitudeMeters>607.20001220703125</AltitudeMeters>
            <DistanceMeters>2277.763505551</DistanceMeters>
          </Trackpoint>
          <Trackpoint>
            <Time>2022-08-26T19:46:18.000Z</Time>
            <Position>
              <LatitudeDegrees>50.1708649657666683197021484375</LatitudeDegrees>
              <LongitudeDegrees>16.9595930166542530059814453125</LongitudeDegrees>
            </Position>
            <AltitudeMeters>608</AltitudeMeters>
            <DistanceMeters>2284.2975855495</DistanceMeters>
          </Trackpoint>
          <Trackpoint>
            <Time>2022-08-26T19:46:22.000Z</Time>
            <Position>
              <LatitudeDegrees>50.17088835127651691436767578125</LatitudeDegrees>
              <LongitudeDegrees>16.9595839641988277435302734375</LongitudeDegrees>
            </Position>
            <AltitudeMeters>608.5999755859375</AltitudeMeters>
            <DistanceMeters>2286.9786190907</DistanceMeters>
          </Trackpoint>
          <Trackpoint>
            <Time>2022-08-26T19:46:26.000Z</Time>
            <Position>
              <LatitudeDegrees>50.17092238180339336395263671875</LatitudeDegrees>
              <LongitudeDegrees>16.95957801304757595062255859375</LongitudeDegrees>
            </Position>
            <AltitudeMeters>609</AltitudeMeters>
            <DistanceMeters>2290.7891784882</DistanceMeters>
          </Trackpoint>
          <Trackpoint>
            <Time>2022-08-26T19:46:34.000Z</Time>
            <Position>
              <LatitudeDegrees>50.17098851501941680908203125</LatitudeDegrees>
              <LongitudeDegrees>16.9595588184893131256103515625</LongitudeDegrees>
            </Position>
            <AltitudeMeters>610</AltitudeMeters>
            <DistanceMeters>2298.2752091061</DistanceMeters>
          </Trackpoint>
          <Trackpoint>
            <Time>2022-08-26T19:46:35.000Z</Time>
            <Position>
              <LatitudeDegrees>50.17100335098803043365478515625</LatitudeDegrees>
              <LongitudeDegrees>16.95955060422420501708984375</LongitudeDegrees>
            </Position>
            <AltitudeMeters>610</AltitudeMeters>
            <DistanceMeters>2300.0274151416</DistanceMeters>
          </Trackpoint>
          <Trackpoint>
            <Time>2022-08-26T19:46:44.000Z</Time>
            <Position>
              <LatitudeDegrees>50.17107878811657428741455078125</LatitudeDegrees>
              <LongitudeDegrees>16.95951079018414020538330078125</LongitudeDegrees>
            </Position>
            <AltitudeMeters>610.79998779296875</AltitudeMeters>
            <DistanceMeters>2308.8909169926</DistanceMeters>
          </Trackpoint>
          <Trackpoint>
            <Time>2022-08-26T19:46:46.000Z</Time>
            <Position>
              <LatitudeDegrees>50.17109538428485393524169921875</LatitudeDegrees>
              <LongitudeDegrees>16.95949469693005084991455078125</LongitudeDegrees>
            </Position>
            <AltitudeMeters>611</AltitudeMeters>
            <DistanceMeters>2311.0620226795</DistanceMeters>
          </Trackpoint>
          <Trackpoint>
            <Time>2022-08-26T19:46:53.000Z</Time>
            <Position>
              <LatitudeDegrees>50.1711962185800075531005859375</LatitudeDegrees>
              <LongitudeDegrees>16.9594615884125232696533203125</LongitudeDegrees>
            </Position>
            <AltitudeMeters>611.5999755859375</AltitudeMeters>
            <DistanceMeters>2322.5303731889</DistanceMeters>
          </Trackpoint>
          <Trackpoint>
            <Time>2022-08-26T19:47:00.000Z</Time>
            <Position>
              <LatitudeDegrees>50.1712766848504543304443359375</LatitudeDegrees>
              <LongitudeDegrees>16.95944289676845073699951171875</LongitudeDegrees>
            </Position>
            <AltitudeMeters>612</AltitudeMeters>
            <DistanceMeters>2331.5853770051</DistanceMeters>
          </Trackpoint>
          <Trackpoint>
            <Time>2022-08-26T19:47:03.000Z</Time>
            <Position>
              <LatitudeDegrees>50.17128833569586277008056640625</LatitudeDegrees>
              <LongitudeDegrees>16.9594361074268817901611328125</LongitudeDegrees>
            </Position>
            <AltitudeMeters>612.20001220703125</AltitudeMeters>
            <DistanceMeters>2332.9689868511</DistanceMeters>
          </Trackpoint>
          <Trackpoint>
            <Time>2022-08-26T19:47:14.000Z</Time>
            <Position>
              <LatitudeDegrees>50.17138682305812835693359375</LatitudeDegrees>
              <LongitudeDegrees>16.9593703933060169219970703125</LongitudeDegrees>
            </Position>
            <AltitudeMeters>613</AltitudeMeters>
            <DistanceMeters>2344.8894433408</DistanceMeters>
          </Trackpoint>
          <Trackpoint>
            <Time>2022-08-26T19:47:23.000Z</Time>
            <Position>
              <LatitudeDegrees>50.17148933373391628265380859375</LatitudeDegrees>
              <LongitudeDegrees>16.9593331776559352874755859375</LongitudeDegrees>
            </Position>
            <AltitudeMeters>613.79998779296875</AltitudeMeters>
            <DistanceMeters>2356.6035818769</DistanceMeters>
          </Trackpoint>
          <Trackpoint>
            <Time>2022-08-26T19:47:24.000Z</Time>
            <Position>
              <LatitudeDegrees>50.171497128903865814208984375</LatitudeDegrees>
              <LongitudeDegrees>16.9593174196779727935791015625</LongitudeDegrees>
            </Position>
            <AltitudeMeters>613.79998779296875</AltitudeMeters>
            <DistanceMeters>2358.0258115079</DistanceMeters>
          </Trackpoint>
          <Trackpoint>
            <Time>2022-08-26T19:47:32.000Z</Time>
            <Position>
              <LatitudeDegrees>50.17154247500002384185791015625</LatitudeDegrees>
              <LongitudeDegrees>16.95928028784692287445068359375</LongitudeDegrees>
            </Position>
            <AltitudeMeters>614.79998779296875</AltitudeMeters>
            <DistanceMeters>2363.7242459326</DistanceMeters>
          </Trackpoint>
          <Trackpoint>
            <Time>2022-08-26T19:47:35.000Z</Time>
            <Position>
              <LatitudeDegrees>50.1715495996177196502685546875</LatitudeDegrees>
              <LongitudeDegrees>16.95927827619016170501708984375</LongitudeDegrees>
            </Position>
            <AltitudeMeters>615</AltitudeMeters>
            <DistanceMeters>2364.5305743421</DistanceMeters>
          </Trackpoint>
          <Trackpoint>
            <Time>2022-08-26T19:47:40.000Z</Time>
            <Position>
              <LatitudeDegrees>50.17155714333057403564453125</LatitudeDegrees>
              <LongitudeDegrees>16.9592785276472568511962890625</LongitudeDegrees>
            </Position>
            <AltitudeMeters>615</AltitudeMeters>
            <DistanceMeters>2365.3698275594</DistanceMeters>
          </Trackpoint>
          <Trackpoint>
            <Time>2022-08-26T19:47:48.000Z</Time>
            <Position>
              <LatitudeDegrees>50.17161489464342594146728515625</LatitudeDegrees>
              <LongitudeDegrees>16.9592745043337345123291015625</LongitudeDegrees>
            </Position>
            <AltitudeMeters>615.20001220703125</AltitudeMeters>
            <DistanceMeters>2371.8043361261</DistanceMeters>
          </Trackpoint>
          <Trackpoint>
            <Time>2022-08-26T19:47:57.000Z</Time>
            <Position>
              <LatitudeDegrees>50.17164959572255611419677734375</LatitudeDegrees>
              <LongitudeDegrees>16.9592275656759738922119140625</LongitudeDegrees>
            </Position>
            <AltitudeMeters>615.5999755859375</AltitudeMeters>
            <DistanceMeters>2376.914618024</DistanceMeters>
          </Trackpoint>
          <Trackpoint>
            <Time>2022-08-26T19:48:03.000Z</Time>
            <Position>
              <LatitudeDegrees>50.17167985439300537109375</LatitudeDegrees>
              <LongitudeDegrees>16.95917668752372264862060546875</LongitudeDegrees>
            </Position>
            <AltitudeMeters>616</AltitudeMeters>
            <DistanceMeters>2381.8633115199</DistanceMeters>
          </Trackpoint>
          <Trackpoint>
            <Time>2022-08-26T19:48:09.000Z</Time>
            <Position>
              <LatitudeDegrees>50.17171212472021579742431640625</LatitudeDegrees>
              <LongitudeDegrees>16.9591108895838260650634765625</LongitudeDegrees>
            </Position>
            <AltitudeMeters>616</AltitudeMeters>
            <DistanceMeters>2387.7710391249</DistanceMeters>
          </Trackpoint>
          <Trackpoint>
            <Time>2022-08-26T19:48:21.000Z</Time>
            <Position>
              <LatitudeDegrees>50.17172746360301971435546875</LatitudeDegrees>
              <LongitudeDegrees>16.9590119831264019012451171875</LongitudeDegrees>
            </Position>
            <AltitudeMeters>615.4000244140625</AltitudeMeters>
            <DistanceMeters>2395.0255057156</DistanceMeters>
          </Trackpoint>
          <Trackpoint>
            <Time>2022-08-26T19:48:31.000Z</Time>
            <Position>
              <LatitudeDegrees>50.1717909984290599822998046875</LatitudeDegrees>
              <LongitudeDegrees>16.95893981494009494781494140625</LongitudeDegrees>
            </Position>
            <AltitudeMeters>615.4000244140625</AltitudeMeters>
            <DistanceMeters>2403.7700289918</DistanceMeters>
          </Trackpoint>
          <Trackpoint>
            <Time>2022-08-26T19:48:42.000Z</Time>
            <Position>
              <LatitudeDegrees>50.171805918216705322265625</LatitudeDegrees>
              <LongitudeDegrees>16.958897821605205535888671875</LongitudeDegrees>
            </Position>
            <AltitudeMeters>615.79998779296875</AltitudeMeters>
            <DistanceMeters>2407.1936293225</DistanceMeters>
          </Trackpoint>
          <Trackpoint>
            <Time>2022-08-26T19:48:53.000Z</Time>
            <Position>
              <LatitudeDegrees>50.171800218522548675537109375</LatitudeDegrees>
              <LongitudeDegrees>16.95880486629903316497802734375</LongitudeDegrees>
            </Position>
            <AltitudeMeters>615.4000244140625</AltitudeMeters>
            <DistanceMeters>2413.8495706559</DistanceMeters>
          </Trackpoint>
          <Trackpoint>
            <Time>2022-08-26T19:49:02.000Z</Time>
            <Position>
              <LatitudeDegrees>50.1718225143849849700927734375</LatitudeDegrees>
              <LongitudeDegrees>16.9587464444339275360107421875</LongitudeDegrees>
            </Position>
            <AltitudeMeters>614.5999755859375</AltitudeMeters>
            <DistanceMeters>2418.6968646337</DistanceMeters>
          </Trackpoint>
          <Trackpoint>
            <Time>2022-08-26T19:49:05.000Z</Time>
            <Position>
              <LatitudeDegrees>50.17183341085910797119140625</LatitudeDegrees>
              <LongitudeDegrees>16.95872004143893718719482421875</LongitudeDegrees>
            </Position>
            <AltitudeMeters>614.5999755859375</AltitudeMeters>
            <DistanceMeters>2420.9335278515</DistanceMeters>
          </Trackpoint>
          <Trackpoint>
            <Time>2022-08-26T19:49:13.000Z</Time>
            <Position>
              <LatitudeDegrees>50.1718479953706264495849609375</LatitudeDegrees>
              <LongitudeDegrees>16.95864938199520111083984375</LongitudeDegrees>
            </Position>
            <AltitudeMeters>614.20001220703125</AltitudeMeters>
            <DistanceMeters>2426.2252446857</DistanceMeters>
          </Trackpoint>
          <Trackpoint>
            <Time>2022-08-26T19:49:24.000Z</Time>
            <Position>
              <LatitudeDegrees>50.17184070311486721038818359375</LatitudeDegrees>
              <LongitudeDegrees>16.95855709724128246307373046875</LongitudeDegrees>
            </Position>
            <AltitudeMeters>614.20001220703125</AltitudeMeters>
            <DistanceMeters>2432.8539966026</DistanceMeters>
          </Trackpoint>
          <Trackpoint>
            <Time>2022-08-26T19:49:36.000Z</Time>
            <Position>
              <LatitudeDegrees>50.1718446426093578338623046875</LatitudeDegrees>
              <LongitudeDegrees>16.95843019522726535797119140625</LongitudeDegrees>
            </Position>
            <AltitudeMeters>614</AltitudeMeters>
            <DistanceMeters>2441.9109946934</DistanceMeters>
          </Trackpoint>
          <Trackpoint>
            <Time>2022-08-26T19:49:47.000Z</Time>
            <Position>
              <LatitudeDegrees>50.171838440001010894775390625</LatitudeDegrees>
              <LongitudeDegrees>16.95836842060089111328125</LongitudeDegrees>
            </Position>
            <AltitudeMeters>613.5999755859375</AltitudeMeters>
            <DistanceMeters>2446.3681426803</DistanceMeters>
          </Trackpoint>
          <Trackpoint>
            <Time>2022-08-26T19:49:57.000Z</Time>
            <Position>
              <LatitudeDegrees>50.17184204421937465667724609375</LatitudeDegrees>
              <LongitudeDegrees>16.95826875977218151092529296875</LongitudeDegrees>
            </Position>
            <AltitudeMeters>614.5999755859375</AltitudeMeters>
            <DistanceMeters>2453.4843684143</DistanceMeters>
          </Trackpoint>
          <Trackpoint>
            <Time>2022-08-26T19:50:01.000Z</Time>
            <Position>
              <LatitudeDegrees>50.17186048440635204315185546875</LatitudeDegrees>
              <LongitudeDegrees>16.95821897126734256744384765625</LongitudeDegrees>
            </Position>
            <AltitudeMeters>615.4000244140625</AltitudeMeters>
            <DistanceMeters>2457.5826536881</DistanceMeters>
          </Trackpoint>
          <Trackpoint>
            <Time>2022-08-26T19:50:08.000Z</Time>
            <Position>
              <LatitudeDegrees>50.1718352548778057098388671875</LatitudeDegrees>
              <LongitudeDegrees>16.95818267762660980224609375</LongitudeDegrees>
            </Position>
            <AltitudeMeters>616.20001220703125</AltitudeMeters>
            <DistanceMeters>2461.4014982067</DistanceMeters>
          </Trackpoint>
          <Trackpoint>
            <Time>2022-08-26T19:50:09.000Z</Time>
            <Position>
              <LatitudeDegrees>50.171829722821712493896484375</LatitudeDegrees>
              <LongitudeDegrees>16.958185024559497833251953125</LongitudeDegrees>
            </Position>
            <AltitudeMeters>616.4000244140625</AltitudeMeters>
            <DistanceMeters>2462.0460007408</DistanceMeters>
          </Trackpoint>
          <Trackpoint>
            <Time>2022-08-26T19:50:18.000Z</Time>
            <Position>
              <LatitudeDegrees>50.171798877418041229248046875</LatitudeDegrees>
              <LongitudeDegrees>16.958118975162506103515625</LongitudeDegrees>
            </Position>
            <AltitudeMeters>616.20001220703125</AltitudeMeters>
            <DistanceMeters>2467.8729285273</DistanceMeters>
          </Trackpoint>
          <Trackpoint>
            <Time>2022-08-26T19:50:30.000Z</Time>
            <Position>
              <LatitudeDegrees>50.17176308669149875640869140625</LatitudeDegrees>
              <LongitudeDegrees>16.9580128602683544158935546875</LongitudeDegrees>
            </Position>
            <AltitudeMeters>615.4000244140625</AltitudeMeters>
            <DistanceMeters>2476.4221646766</DistanceMeters>
          </Trackpoint>
          <Trackpoint>
            <Time>2022-08-26T19:50:35.000Z</Time>
            <Position>
              <LatitudeDegrees>50.17173643223941326141357421875</LatitudeDegrees>
              <LongitudeDegrees>16.95798218250274658203125</LongitudeDegrees>
            </Position>
            <AltitudeMeters>615</AltitudeMeters>
            <DistanceMeters>2480.10743739</DistanceMeters>
          </Trackpoint>
          <Trackpoint>
            <Time>2022-08-26T19:50:39.000Z</Time>
            <Position>
              <LatitudeDegrees>50.17170860432088375091552734375</LatitudeDegrees>
              <LongitudeDegrees>16.95791454054415225982666015625</LongitudeDegrees>
            </Position>
            <AltitudeMeters>614.79998779296875</AltitudeMeters>
            <DistanceMeters>2485.8382652557</DistanceMeters>
          </Trackpoint>
          <Trackpoint>
            <Time>2022-08-26T19:50:47.000Z</Time>
            <Position>
              <LatitudeDegrees>50.1716847158968448638916015625</LatitudeDegrees>
              <LongitudeDegrees>16.95784983225166797637939453125</LongitudeDegrees>
            </Position>
            <AltitudeMeters>613.79998779296875</AltitudeMeters>
            <DistanceMeters>2491.1623060104</DistanceMeters>
          </Trackpoint>
          <Trackpoint>
            <Time>2022-08-26T19:50:48.000Z</Time>
            <Position>
              <LatitudeDegrees>50.17168211750686168670654296875</LatitudeDegrees>
              <LongitudeDegrees>16.9578458927571773529052734375</LongitudeDegrees>
            </Position>
            <AltitudeMeters>613.79998779296875</AltitudeMeters>
            <DistanceMeters>2491.5424128679</DistanceMeters>
          </Trackpoint>
          <Trackpoint>
            <Time>2022-08-26T19:51:00.000Z</Time>
            <Position>
              <LatitudeDegrees>50.17169100232422351837158203125</LatitudeDegrees>
              <LongitudeDegrees>16.95780339650809764862060546875</LongitudeDegrees>
            </Position>
            <AltitudeMeters>614</AltitudeMeters>
            <DistanceMeters>2494.729705763</DistanceMeters>
          </Trackpoint>
          <Trackpoint>
            <Time>2022-08-26T19:51:10.000Z</Time>
            <Position>
              <LatitudeDegrees>50.17169418744742870330810546875</LatitudeDegrees>
              <LongitudeDegrees>16.9577811844646930694580078125</LongitudeDegrees>
            </Position>
            <AltitudeMeters>614.20001220703125</AltitudeMeters>
            <DistanceMeters>2496.35352297</DistanceMeters>
          </Trackpoint>
          <Trackpoint>
            <Time>2022-08-26T19:51:21.000Z</Time>
            <Position>
              <LatitudeDegrees>50.17168329097330570220947265625</LatitudeDegrees>
              <LongitudeDegrees>16.95767062716186046600341796875</LongitudeDegrees>
            </Position>
            <AltitudeMeters>614.20001220703125</AltitudeMeters>
            <DistanceMeters>2504.3278441523</DistanceMeters>
          </Trackpoint>
          <Trackpoint>
            <Time>2022-08-26T19:51:32.000Z</Time>
            <Position>
              <LatitudeDegrees>50.1716689579188823699951171875</LatitudeDegrees>
              <LongitudeDegrees>16.95752528496086597442626953125</LongitudeDegrees>
            </Position>
            <AltitudeMeters>613.20001220703125</AltitudeMeters>
            <DistanceMeters>2514.8118362581</DistanceMeters>
          </Trackpoint>
          <Trackpoint>
            <Time>2022-08-26T19:51:43.000Z</Time>
            <Position>
              <LatitudeDegrees>50.17160483635962009429931640625</LatitudeDegrees>
              <LongitudeDegrees>16.95735144428908824920654296875</LongitudeDegrees>
            </Position>
            <AltitudeMeters>612.79998779296875</AltitudeMeters>
            <DistanceMeters>2529.1126464206</DistanceMeters>
          </Trackpoint>
          <Trackpoint>
            <Time>2022-08-26T19:51:48.000Z</Time>
            <Position>
              <LatitudeDegrees>50.17159645445644855499267578125</LatitudeDegrees>
              <LongitudeDegrees>16.95729930885136127471923828125</LongitudeDegrees>
            </Position>
            <AltitudeMeters>612.4000244140625</AltitudeMeters>
            <DistanceMeters>2532.9432957417</DistanceMeters>
          </Trackpoint>
          <Trackpoint>
            <Time>2022-08-26T19:51:55.000Z</Time>
            <Position>
              <LatitudeDegrees>50.1715844683349132537841796875</LatitudeDegrees>
              <LongitudeDegrees>16.95725538767874240875244140625</LongitudeDegrees>
            </Position>
            <AltitudeMeters>611.4000244140625</AltitudeMeters>
            <DistanceMeters>2536.3470566143</DistanceMeters>
          </Trackpoint>
          <Trackpoint>
            <Time>2022-08-26T19:51:56.000Z</Time>
            <Position>
              <LatitudeDegrees>50.1715827919542789459228515625</LatitudeDegrees>
              <LongitudeDegrees>16.95725052617490291595458984375</LongitudeDegrees>
            </Position>
            <AltitudeMeters>611.20001220703125</AltitudeMeters>
            <DistanceMeters>2536.750220819</DistanceMeters>
          </Trackpoint>
          <Trackpoint>
            <Time>2022-08-26T19:52:06.000Z</Time>
            <Position>
              <LatitudeDegrees>50.1715479232370853424072265625</LatitudeDegrees>
              <LongitudeDegrees>16.9571887515485286712646484375</LongitudeDegrees>
            </Position>
            <AltitudeMeters>610.5999755859375</AltitudeMeters>
            <DistanceMeters>2542.620380247</DistanceMeters>
          </Trackpoint>
          <Trackpoint>
            <Time>2022-08-26T19:52:12.000Z</Time>
            <Position>
              <LatitudeDegrees>50.17152286134660243988037109375</LatitudeDegrees>
              <LongitudeDegrees>16.95714759640395641326904296875</LongitudeDegrees>
            </Position>
            <AltitudeMeters>610.20001220703125</AltitudeMeters>
            <DistanceMeters>2546.6676705343</DistanceMeters>
          </Trackpoint>
          <Trackpoint>
            <Time>2022-08-26T19:52:17.000Z</Time>
            <Position>
              <LatitudeDegrees>50.17151691019535064697265625</LatitudeDegrees>
              <LongitudeDegrees>16.9571190141141414642333984375</LongitudeDegrees>
            </Position>
            <AltitudeMeters>609.4000244140625</AltitudeMeters>
            <DistanceMeters>2548.8094639028</DistanceMeters>
          </Trackpoint>
          <Trackpoint>
            <Time>2022-08-26T19:52:23.000Z</Time>
            <Position>
              <LatitudeDegrees>50.17148430459201335906982421875</LatitudeDegrees>
              <LongitudeDegrees>16.957096047699451446533203125</LongitudeDegrees>
            </Position>
            <AltitudeMeters>609</AltitudeMeters>
            <DistanceMeters>2552.7903914529</DistanceMeters>
          </Trackpoint>
          <Trackpoint>
            <Time>2022-08-26T19:52:29.000Z</Time>
            <Position>
              <LatitudeDegrees>50.17148061655461788177490234375</LatitudeDegrees>
              <LongitudeDegrees>16.95708942599594593048095703125</LongitudeDegrees>
            </Position>
            <AltitudeMeters>608.79998779296875</AltitudeMeters>
            <DistanceMeters>2553.4135232906</DistanceMeters>
          </Trackpoint>
          <Trackpoint>
            <Time>2022-08-26T19:52:42.000Z</Time>
            <Position>
              <LatitudeDegrees>50.1714946143329143524169921875</LatitudeDegrees>
              <LongitudeDegrees>16.957087330520153045654296875</LongitudeDegrees>
            </Position>
            <AltitudeMeters>608.79998779296875</AltitudeMeters>
            <DistanceMeters>2554.980744013</DistanceMeters>
          </Trackpoint>
          <Trackpoint>
            <Time>2022-08-26T19:52:54.000Z</Time>
            <Position>
              <LatitudeDegrees>50.17149302177131175994873046875</LatitudeDegrees>
              <LongitudeDegrees>16.95702991448342800140380859375</LongitudeDegrees>
            </Position>
            <AltitudeMeters>608.79998779296875</AltitudeMeters>
            <DistanceMeters>2559.0779274491</DistanceMeters>
          </Trackpoint>
          <Trackpoint>
            <Time>2022-08-26T19:53:05.000Z</Time>
            <Position>
              <LatitudeDegrees>50.17147759906947612762451171875</LatitudeDegrees>
              <LongitudeDegrees>16.95691692642867565155029296875</LongitudeDegrees>
            </Position>
            <AltitudeMeters>608.4000244140625</AltitudeMeters>
            <DistanceMeters>2567.3140633299</DistanceMeters>
          </Trackpoint>
          <Trackpoint>
            <Time>2022-08-26T19:53:12.000Z</Time>
            <Position>
              <LatitudeDegrees>50.17147290520370006561279296875</LatitudeDegrees>
              <LongitudeDegrees>16.95687300525605678558349609375</LongitudeDegrees>
            </Position>
            <AltitudeMeters>607.5999755859375</AltitudeMeters>
            <DistanceMeters>2570.4885814526</DistanceMeters>
          </Trackpoint>
          <Trackpoint>
            <Time>2022-08-26T19:53:15.000Z</Time>
            <Position>
              <LatitudeDegrees>50.17148070037364959716796875</LatitudeDegrees>
              <LongitudeDegrees>16.95687451399862766265869140625</LongitudeDegrees>
            </Position>
            <AltitudeMeters>607.4000244140625</AltitudeMeters>
            <DistanceMeters>2571.3646844704</DistanceMeters>
          </Trackpoint>
          <Trackpoint>
            <Time>2022-08-26T19:53:24.000Z</Time>
            <Position>
              <LatitudeDegrees>50.1714443229138851165771484375</LatitudeDegrees>
              <LongitudeDegrees>16.95681475102901458740234375</LongitudeDegrees>
            </Position>
            <AltitudeMeters>607.20001220703125</AltitudeMeters>
            <DistanceMeters>2577.2425303747</DistanceMeters>
          </Trackpoint>
          <Trackpoint>
            <Time>2022-08-26T19:53:32.000Z</Time>
            <Position>
              <LatitudeDegrees>50.17140937037765979766845703125</LatitudeDegrees>
              <LongitudeDegrees>16.956752054393291473388671875</LongitudeDegrees>
            </Position>
            <AltitudeMeters>607.5999755859375</AltitudeMeters>
            <DistanceMeters>2583.1685718267</DistanceMeters>
          </Trackpoint>
          <Trackpoint>
            <Time>2022-08-26T19:53:44.000Z</Time>
            <Position>
              <LatitudeDegrees>50.17140467651188373565673828125</LatitudeDegrees>
              <LongitudeDegrees>16.9566355459392070770263671875</LongitudeDegrees>
            </Position>
            <AltitudeMeters>607.5999755859375</AltitudeMeters>
            <DistanceMeters>2591.4908723695</DistanceMeters>
          </Trackpoint>
          <Trackpoint>
            <Time>2022-08-26T19:53:54.000Z</Time>
            <Position>
              <LatitudeDegrees>50.17137818969786167144775390625</LatitudeDegrees>
              <LongitudeDegrees>16.95653605274856090545654296875</LongitudeDegrees>
            </Position>
            <AltitudeMeters>606.4000244140625</AltitudeMeters>
            <DistanceMeters>2599.1715943023</DistanceMeters>
          </Trackpoint>
          <Trackpoint>
            <Time>2022-08-26T19:53:55.000Z</Time>
            <Position>
              <LatitudeDegrees>50.17137567512691020965576171875</LatitudeDegrees>
              <LongitudeDegrees>16.9565262459218502044677734375</LongitudeDegrees>
            </Position>
            <AltitudeMeters>606.20001220703125</AltitudeMeters>
            <DistanceMeters>2599.9198353994</DistanceMeters>
          </Trackpoint>
          <Trackpoint>
            <Time>2022-08-26T19:54:05.000Z</Time>
            <Position>
              <LatitudeDegrees>50.1713685505092144012451171875</LatitudeDegrees>
              <LongitudeDegrees>16.95647620595991611480712890625</LongitudeDegrees>
            </Position>
            <AltitudeMeters>605.4000244140625</AltitudeMeters>
            <DistanceMeters>2603.5731151566</DistanceMeters>
          </Trackpoint>
          <Trackpoint>
            <Time>2022-08-26T19:54:09.000Z</Time>
            <Position>
              <LatitudeDegrees>50.17136762849986553192138671875</LatitudeDegrees>
              <LongitudeDegrees>16.9564625434577465057373046875</LongitudeDegrees>
            </Position>
            <AltitudeMeters>605.20001220703125</AltitudeMeters>
            <DistanceMeters>2604.5514750613</DistanceMeters>
          </Trackpoint>
          <Trackpoint>
            <Time>2022-08-26T19:54:17.000Z</Time>
            <Position>
              <LatitudeDegrees>50.171342901885509490966796875</LatitudeDegrees>
              <LongitudeDegrees>16.95644955150783061981201171875</LongitudeDegrees>
            </Position>
            <AltitudeMeters>604.5999755859375</AltitudeMeters>
            <DistanceMeters>2607.4556257803</DistanceMeters>
          </Trackpoint>
          <Trackpoint>
            <Time>2022-08-26T19:54:27.000Z</Time>
            <Position>
              <LatitudeDegrees>50.17129965126514434814453125</LatitudeDegrees>
              <LongitudeDegrees>16.9564115814864635467529296875</LongitudeDegrees>
            </Position>
            <AltitudeMeters>604.5999755859375</AltitudeMeters>
            <DistanceMeters>2612.9786320475</DistanceMeters>
          </Trackpoint>
          <Trackpoint>
            <Time>2022-08-26T19:54:34.000Z</Time>
            <Position>
              <LatitudeDegrees>50.1713075302541255950927734375</LatitudeDegrees>
              <LongitudeDegrees>16.95642046630382537841796875</LongitudeDegrees>
            </Position>
            <AltitudeMeters>604.4000244140625</AltitudeMeters>
            <DistanceMeters>2614.062103292</DistanceMeters>
          </Trackpoint>
          <Trackpoint>
            <Time>2022-08-26T19:54:46.000Z</Time>
            <Position>
              <LatitudeDegrees>50.17130074091255664825439453125</LatitudeDegrees>
              <LongitudeDegrees>16.9564491324126720428466796875</LongitudeDegrees>
            </Position>
            <AltitudeMeters>604.79998779296875</AltitudeMeters>
            <DistanceMeters>2616.2415115166</DistanceMeters>
          </Trackpoint>
          <Trackpoint>
            <Time>2022-08-26T19:54:56.000Z</Time>
            <Position>
              <LatitudeDegrees>50.1712988130748271942138671875</LatitudeDegrees>
              <LongitudeDegrees>16.95648291148245334625244140625</LongitudeDegrees>
            </Position>
            <AltitudeMeters>605.4000244140625</AltitudeMeters>
            <DistanceMeters>2618.6604967451</DistanceMeters>
          </Trackpoint>
          <Trackpoint>
            <Time>2022-08-26T19:55:06.000Z</Time>
            <Position>
              <LatitudeDegrees>50.17128984443843364715576171875</LatitudeDegrees>
              <LongitudeDegrees>16.95652415044605731964111328125</LongitudeDegrees>
            </Position>
            <AltitudeMeters>606</AltitudeMeters>
            <DistanceMeters>2621.7645411336</DistanceMeters>
          </Trackpoint>
          <Trackpoint>
            <Time>2022-08-26T19:55:15.000Z</Time>
            <Position>
              <LatitudeDegrees>50.1712669618427753448486328125</LatitudeDegrees>
              <LongitudeDegrees>16.9565795548260211944580078125</LongitudeDegrees>
            </Position>
            <AltitudeMeters>607.20001220703125</AltitudeMeters>
            <DistanceMeters>2626.4642822948</DistanceMeters>
          </Trackpoint>
          <Trackpoint>
            <Time>2022-08-26T19:55:17.000Z</Time>
            <Position>
              <LatitudeDegrees>50.1712622679769992828369140625</LatitudeDegrees>
              <LongitudeDegrees>16.95657678879797458648681640625</LongitudeDegrees>
            </Position>
            <AltitudeMeters>607.20001220703125</AltitudeMeters>
            <DistanceMeters>2627.0264679185</DistanceMeters>
          </Trackpoint>
          <Trackpoint>
            <Time>2022-08-26T19:55:27.000Z</Time>
            <Position>
              <LatitudeDegrees>50.17122781835496425628662109375</LatitudeDegrees>
              <LongitudeDegrees>16.95663034915924072265625</LongitudeDegrees>
            </Position>
            <AltitudeMeters>607.20001220703125</AltitudeMeters>
            <DistanceMeters>2632.4388211945</DistanceMeters>
          </Trackpoint>
          <Trackpoint>
            <Time>2022-08-26T19:55:35.000Z</Time>
            <Position>
              <LatitudeDegrees>50.1712190173566341400146484375</LatitudeDegrees>
              <LongitudeDegrees>16.956729590892791748046875</LongitudeDegrees>
            </Position>
            <AltitudeMeters>607.4000244140625</AltitudeMeters>
            <DistanceMeters>2639.580380671</DistanceMeters>
          </Trackpoint>
          <Trackpoint>
            <Time>2022-08-26T19:55:44.000Z</Time>
            <Position>
              <LatitudeDegrees>50.171200074255466461181640625</LatitudeDegrees>
              <LongitudeDegrees>16.95682145655155181884765625</LongitudeDegrees>
            </Position>
            <AltitudeMeters>608</AltitudeMeters>
            <DistanceMeters>2646.4604722924</DistanceMeters>
          </Trackpoint>
          <Trackpoint>
            <Time>2022-08-26T19:55:47.000Z</Time>
            <Position>
              <LatitudeDegrees>50.17119999043643474578857421875</LatitudeDegrees>
              <LongitudeDegrees>16.9568561576306819915771484375</LongitudeDegrees>
            </Position>
            <AltitudeMeters>608</AltitudeMeters>
            <DistanceMeters>2648.9348190403</DistanceMeters>
          </Trackpoint>
          <Trackpoint>
            <Time>2022-08-26T19:55:56.000Z</Time>
            <Position>
              <LatitudeDegrees>50.171236284077167510986328125</LatitudeDegrees>
              <LongitudeDegrees>16.9569644518196582794189453125</LongitudeDegrees>
            </Position>
            <AltitudeMeters>608.4000244140625</AltitudeMeters>
            <DistanceMeters>2657.648307592</DistanceMeters>
          </Trackpoint>
          <Trackpoint>
            <Time>2022-08-26T19:56:02.000Z</Time>
            <Position>
              <LatitudeDegrees>50.17125950194895267486572265625</LatitudeDegrees>
              <LongitudeDegrees>16.95703393779695034027099609375</LongitudeDegrees>
            </Position>
            <AltitudeMeters>609</AltitudeMeters>
            <DistanceMeters>2663.2355228435</DistanceMeters>
          </Trackpoint>
          <Trackpoint>
            <Time>2022-08-26T19:56:06.000Z</Time>
            <Position>
              <LatitudeDegrees>50.17127542756497859954833984375</LatitudeDegrees>
              <LongitudeDegrees>16.9570903480052947998046875</LongitudeDegrees>
            </Position>
            <AltitudeMeters>609.5999755859375</AltitudeMeters>
            <DistanceMeters>2667.6304441754</DistanceMeters>
          </Trackpoint>
          <Trackpoint>
            <Time>2022-08-26T19:56:09.000Z</Time>
            <Position>
              <LatitudeDegrees>50.17129286192357540130615234375</LatitudeDegrees>
              <LongitudeDegrees>16.95713619701564311981201171875</LongitudeDegrees>
            </Position>
            <AltitudeMeters>610</AltitudeMeters>
            <DistanceMeters>2671.4315127502</DistanceMeters>
          </Trackpoint>
          <Trackpoint>
            <Time>2022-08-26T19:56:17.000Z</Time>
            <Position>
              <LatitudeDegrees>50.17132655717432498931884765625</LatitudeDegrees>
              <LongitudeDegrees>16.95722823031246662139892578125</LongitudeDegrees>
            </Position>
            <AltitudeMeters>611.20001220703125</AltitudeMeters>
            <DistanceMeters>2678.9889748579</DistanceMeters>
          </Trackpoint>
          <Trackpoint>
            <Time>2022-08-26T19:56:18.000Z</Time>
            <Position>
              <LatitudeDegrees>50.17132638953626155853271484375</LatitudeDegrees>
              <LongitudeDegrees>16.9572353549301624298095703125</LongitudeDegrees>
            </Position>
            <AltitudeMeters>611.4000244140625</AltitudeMeters>
            <DistanceMeters>2679.4918089661</DistanceMeters>
          </Trackpoint>
          <Trackpoint>
            <Time>2022-08-26T19:56:24.000Z</Time>
            <Position>
              <LatitudeDegrees>50.17134851776063442230224609375</LatitudeDegrees>
              <LongitudeDegrees>16.95727751590311527252197265625</LongitudeDegrees>
            </Position>
            <AltitudeMeters>612.20001220703125</AltitudeMeters>
            <DistanceMeters>2683.3762983454</DistanceMeters>
          </Trackpoint>
          <Trackpoint>
            <Time>2022-08-26T19:56:30.000Z</Time>
            <Position>
              <LatitudeDegrees>50.17134985886514186859130859375</LatitudeDegrees>
              <LongitudeDegrees>16.9573020748794078826904296875</LongitudeDegrees>
            </Position>
            <AltitudeMeters>613</AltitudeMeters>
            <DistanceMeters>2685.1310792626</DistanceMeters>
          </Trackpoint>
          <Trackpoint>
            <Time>2022-08-26T19:56:35.000Z</Time>
            <Position>
              <LatitudeDegrees>50.17136394046247005462646484375</LatitudeDegrees>
              <LongitudeDegrees>16.95731875486671924591064453125</LongitudeDegrees>
            </Position>
            <AltitudeMeters>613.20001220703125</AltitudeMeters>
            <DistanceMeters>2687.097007216</DistanceMeters>
          </Trackpoint>
          <Trackpoint>
            <Time>2022-08-26T19:56:41.000Z</Time>
            <Position>
              <LatitudeDegrees>50.17138070426881313323974609375</LatitudeDegrees>
              <LongitudeDegrees>16.95738178677856922149658203125</LongitudeDegrees>
            </Position>
            <AltitudeMeters>613.4000244140625</AltitudeMeters>
            <DistanceMeters>2691.9619666567</DistanceMeters>
          </Trackpoint>
          <Trackpoint>
            <Time>2022-08-26T19:56:52.000Z</Time>
            <Position>
              <LatitudeDegrees>50.17143988050520420074462890625</LatitudeDegrees>
              <LongitudeDegrees>16.95754942484200000762939453125</LongitudeDegrees>
            </Position>
            <AltitudeMeters>614</AltitudeMeters>
            <DistanceMeters>2705.6071543138</DistanceMeters>
          </Trackpoint>
          <Trackpoint>
            <Time>2022-08-26T19:56:53.000Z</Time>
            <Position>
              <LatitudeDegrees>50.17145195044577121734619140625</LatitudeDegrees>
              <LongitudeDegrees>16.95756132714450359344482421875</LongitudeDegrees>
            </Position>
            <AltitudeMeters>614.20001220703125</AltitudeMeters>
            <DistanceMeters>2707.1944133752</DistanceMeters>
          </Trackpoint>
          <Trackpoint>
            <Time>2022-08-26T19:57:00.000Z</Time>
            <Position>
              <LatitudeDegrees>50.17151112668216228485107421875</LatitudeDegrees>
              <LongitudeDegrees>16.95764615200459957122802734375</LongitudeDegrees>
            </Position>
            <AltitudeMeters>615.4000244140625</AltitudeMeters>
            <DistanceMeters>2716.1360181995</DistanceMeters>
          </Trackpoint>
          <Trackpoint>
            <Time>2022-08-26T19:57:04.000Z</Time>
            <Position>
              <LatitudeDegrees>50.1715469174087047576904296875</LatitudeDegrees>
              <LongitudeDegrees>16.95768035016953945159912109375</LongitudeDegrees>
            </Position>
            <AltitudeMeters>616.20001220703125</AltitudeMeters>
            <DistanceMeters>2720.8068494627</DistanceMeters>
          </Trackpoint>
          <Trackpoint>
            <Time>2022-08-26T19:57:05.000Z</Time>
            <Position>
              <LatitudeDegrees>50.171552784740924835205078125</LatitudeDegrees>
              <LongitudeDegrees>16.95768454112112522125244140625</LongitudeDegrees>
            </Position>
            <AltitudeMeters>616.4000244140625</AltitudeMeters>
            <DistanceMeters>2721.5305513583</DistanceMeters>
          </Trackpoint>
          <Trackpoint>
            <Time>2022-08-26T19:57:11.000Z</Time>
            <Position>
              <LatitudeDegrees>50.17159326933324337005615234375</LatitudeDegrees>
              <LongitudeDegrees>16.95771220140159130096435546875</LongitudeDegrees>
            </Position>
            <AltitudeMeters>617.4000244140625</AltitudeMeters>
            <DistanceMeters>2726.4490445009</DistanceMeters>
          </Trackpoint>
          <Trackpoint>
            <Time>2022-08-26T19:57:14.000Z</Time>
            <Position>
              <LatitudeDegrees>50.17160668037831783294677734375</LatitudeDegrees>
              <LongitudeDegrees>16.95772326551377773284912109375</LongitudeDegrees>
            </Position>
            <AltitudeMeters>618</AltitudeMeters>
            <DistanceMeters>2728.1382763252</DistanceMeters>
          </Trackpoint>
          <Trackpoint>
            <Time>2022-08-26T19:57:18.000Z</Time>
            <Position>
              <LatitudeDegrees>50.171625204384326934814453125</LatitudeDegrees>
              <LongitudeDegrees>16.95772930048406124114990234375</LongitudeDegrees>
            </Position>
            <AltitudeMeters>618.5999755859375</AltitudeMeters>
            <DistanceMeters>2730.2460708148</DistanceMeters>
          </Trackpoint>
          <Trackpoint>
            <Time>2022-08-26T19:57:23.000Z</Time>
            <Position>
              <LatitudeDegrees>50.17165026627480983734130859375</LatitudeDegrees>
              <LongitudeDegrees>16.95774489082396030426025390625</LongitudeDegrees>
            </Position>
            <AltitudeMeters>619.79998779296875</AltitudeMeters>
            <DistanceMeters>2733.2480728619</DistanceMeters>
          </Trackpoint>
          <Trackpoint>
            <Time>2022-08-26T19:57:27.000Z</Time>
            <Position>
              <LatitudeDegrees>50.1716597378253936767578125</LatitudeDegrees>
              <LongitudeDegrees>16.95775042288005352020263671875</LongitudeDegrees>
            </Position>
            <AltitudeMeters>620.4000244140625</AltitudeMeters>
            <DistanceMeters>2734.3764525758</DistanceMeters>
          </Trackpoint>
          <Trackpoint>
            <Time>2022-08-26T19:57:39.000Z</Time>
            <Position>
              <LatitudeDegrees>50.17168312333524227142333984375</LatitudeDegrees>
              <LongitudeDegrees>16.95773650892078876495361328125</LongitudeDegrees>
            </Position>
            <AltitudeMeters>620.5999755859375</AltitudeMeters>
            <DistanceMeters>2737.1631828716</DistanceMeters>
          </Trackpoint>
          <Trackpoint>
            <Time>2022-08-26T19:57:52.000Z</Time>
            <Position>
              <LatitudeDegrees>50.17166116274893283843994140625</LatitudeDegrees>
              <LongitudeDegrees>16.9578118622303009033203125</LongitudeDegrees>
            </Position>
            <AltitudeMeters>620.5999755859375</AltitudeMeters>
            <DistanceMeters>2743.0655582342</DistanceMeters>
          </Trackpoint>
          <Trackpoint>
            <Time>2022-08-26T19:58:01.000Z</Time>
            <Position>
              <LatitudeDegrees>50.171674825251102447509765625</LatitudeDegrees>
              <LongitudeDegrees>16.95779551751911640167236328125</LongitudeDegrees>
            </Position>
            <AltitudeMeters>620.5999755859375</AltitudeMeters>
            <DistanceMeters>2744.9802934734</DistanceMeters>
          </Trackpoint>
          <Trackpoint>
            <Time>2022-08-26T19:58:13.000Z</Time>
            <Position>
              <LatitudeDegrees>50.1717108674347400665283203125</LatitudeDegrees>
              <LongitudeDegrees>16.95778495632112026214599609375</LongitudeDegrees>
            </Position>
            <AltitudeMeters>620.5999755859375</AltitudeMeters>
            <DistanceMeters>2749.0631259602</DistanceMeters>
          </Trackpoint>
          <Trackpoint>
            <Time>2022-08-26T19:58:26.000Z</Time>
            <Position>
              <LatitudeDegrees>50.1717138849198818206787109375</LatitudeDegrees>
              <LongitudeDegrees>16.95779065601527690887451171875</LongitudeDegrees>
            </Position>
            <AltitudeMeters>620.5999755859375</AltitudeMeters>
            <DistanceMeters>2749.6006782332</DistanceMeters>
          </Trackpoint>
          <Trackpoint>
            <Time>2022-08-26T19:58:38.000Z</Time>
            <Position>
              <LatitudeDegrees>50.1717160642147064208984375</LatitudeDegrees>
              <LongitudeDegrees>16.9577957689762115478515625</LongitudeDegrees>
            </Position>
            <AltitudeMeters>620.79998779296875</AltitudeMeters>
            <DistanceMeters>2750.0463930319</DistanceMeters>
          </Trackpoint>
          <Trackpoint>
            <Time>2022-08-26T19:58:49.000Z</Time>
            <Position>
              <LatitudeDegrees>50.1717209257185459136962890625</LatitudeDegrees>
              <LongitudeDegrees>16.95777120999991893768310546875</LongitudeDegrees>
            </Position>
            <AltitudeMeters>620.79998779296875</AltitudeMeters>
            <DistanceMeters>2751.8792019246</DistanceMeters>
          </Trackpoint>
          <Trackpoint>
            <Time>2022-08-26T19:58:54.000Z</Time>
            <Position>
              <LatitudeDegrees>50.1717279665172100067138671875</LatitudeDegrees>
              <LongitudeDegrees>16.957752518355846405029296875</LongitudeDegrees>
            </Position>
            <AltitudeMeters>620.5999755859375</AltitudeMeters>
            <DistanceMeters>2753.4232032786</DistanceMeters>
          </Trackpoint>
          <Trackpoint>
            <Time>2022-08-26T19:59:03.000Z</Time>
            <Position>
              <LatitudeDegrees>50.17172922380268573760986328125</LatitudeDegrees>
              <LongitudeDegrees>16.95773902349174022674560546875</LongitudeDegrees>
            </Position>
            <AltitudeMeters>620.79998779296875</AltitudeMeters>
            <DistanceMeters>2754.3969373422</DistanceMeters>
          </Trackpoint>
          <Trackpoint>
            <Time>2022-08-26T19:59:12.000Z</Time>
            <Position>
              <LatitudeDegrees>50.171733163297176361083984375</LatitudeDegrees>
              <LongitudeDegrees>16.95772594772279262542724609375</LongitudeDegrees>
            </Position>
            <AltitudeMeters>620.79998779296875</AltitudeMeters>
            <DistanceMeters>2755.4291916812</DistanceMeters>
          </Trackpoint>
          <Trackpoint>
            <Time>2022-08-26T19:59:22.000Z</Time>
            <Position>
              <LatitudeDegrees>50.1717413775622844696044921875</LatitudeDegrees>
              <LongitudeDegrees>16.9577074237167835235595703125</LongitudeDegrees>
            </Position>
            <AltitudeMeters>620.79998779296875</AltitudeMeters>
            <DistanceMeters>2757.0362392421</DistanceMeters>
          </Trackpoint>
          <Trackpoint>
            <Time>2022-08-26T19:59:31.000Z</Time>
            <Position>
              <LatitudeDegrees>50.17178353853523731231689453125</LatitudeDegrees>
              <LongitudeDegrees>16.95771438069641590118408203125</LongitudeDegrees>
            </Position>
            <AltitudeMeters>621.5999755859375</AltitudeMeters>
            <DistanceMeters>2761.7551552735</DistanceMeters>
          </Trackpoint>
          <Trackpoint>
            <Time>2022-08-26T19:59:34.000Z</Time>
            <Position>
              <LatitudeDegrees>50.17179594375193119049072265625</LatitudeDegrees>
              <LongitudeDegrees>16.95772645063698291778564453125</LongitudeDegrees>
            </Position>
            <AltitudeMeters>622</AltitudeMeters>
            <DistanceMeters>2763.3845240084</DistanceMeters>
          </Trackpoint>
          <Trackpoint>
            <Time>2022-08-26T19:59:44.000Z</Time>
            <Position>
              <LatitudeDegrees>50.17183500342071056365966796875</LatitudeDegrees>
              <LongitudeDegrees>16.957765258848667144775390625</LongitudeDegrees>
            </Position>
            <AltitudeMeters>622.5999755859375</AltitudeMeters>
            <DistanceMeters>2768.537916563</DistanceMeters>
          </Trackpoint>
          <Trackpoint>
            <Time>2022-08-26T19:59:47.000Z</Time>
            <Position>
              <LatitudeDegrees>50.17185562290251255035400390625</LatitudeDegrees>
              <LongitudeDegrees>16.9577798433601856231689453125</LongitudeDegrees>
            </Position>
            <AltitudeMeters>622.5999755859375</AltitudeMeters>
            <DistanceMeters>2771.059260216</DistanceMeters>
          </Trackpoint>
          <Trackpoint>
            <Time>2022-08-26T19:59:55.000Z</Time>
            <Position>
              <LatitudeDegrees>50.1718828640878200531005859375</LatitudeDegrees>
              <LongitudeDegrees>16.957822926342487335205078125</LongitudeDegrees>
            </Position>
            <AltitudeMeters>623.79998779296875</AltitudeMeters>
            <DistanceMeters>2775.3743520606</DistanceMeters>
          </Trackpoint>
          <Trackpoint>
            <Time>2022-08-26T19:59:56.000Z</Time>
            <Position>
              <LatitudeDegrees>50.17188462428748607635498046875</LatitudeDegrees>
              <LongitudeDegrees>16.95782803930342197418212890625</LongitudeDegrees>
            </Position>
            <AltitudeMeters>624</AltitudeMeters>
            <DistanceMeters>2775.7993244467</DistanceMeters>
          </Trackpoint>
          <Trackpoint>
            <Time>2022-08-26T20:00:01.000Z</Time>
            <Position>
              <LatitudeDegrees>50.17192468978464603424072265625</LatitudeDegrees>
              <LongitudeDegrees>16.95783306844532489776611328125</LongitudeDegrees>
            </Position>
            <AltitudeMeters>624.79998779296875</AltitudeMeters>
            <DistanceMeters>2780.2746690762</DistanceMeters>
          </Trackpoint>
          <Trackpoint>
            <Time>2022-08-26T20:00:06.000Z</Time>
            <Position>
              <LatitudeDegrees>50.17196676693856716156005859375</LatitudeDegrees>
              <LongitudeDegrees>16.9578546099364757537841796875</LongitudeDegrees>
            </Position>
            <AltitudeMeters>625.4000244140625</AltitudeMeters>
            <DistanceMeters>2785.2032495649</DistanceMeters>
          </Trackpoint>
          <Trackpoint>
            <Time>2022-08-26T20:00:10.000Z</Time>
            <Position>
              <LatitudeDegrees>50.17199291847646236419677734375</LatitudeDegrees>
              <LongitudeDegrees>16.95787782780826091766357421875</LongitudeDegrees>
            </Position>
            <AltitudeMeters>625.79998779296875</AltitudeMeters>
            <DistanceMeters>2788.5521829688</DistanceMeters>
          </Trackpoint>
          <Trackpoint>
            <Time>2022-08-26T20:00:17.000Z</Time>
            <Position>
              <LatitudeDegrees>50.17207338474690914154052734375</LatitudeDegrees>
              <LongitudeDegrees>16.95791445672512054443359375</LongitudeDegrees>
            </Position>
            <AltitudeMeters>626.79998779296875</AltitudeMeters>
            <DistanceMeters>2797.8812706394</DistanceMeters>
          </Trackpoint>
          <Trackpoint>
            <Time>2022-08-26T20:00:19.000Z</Time>
            <Position>
              <LatitudeDegrees>50.17208746634423732757568359375</LatitudeDegrees>
              <LongitudeDegrees>16.9579298794269561767578125</LongitudeDegrees>
            </Position>
            <AltitudeMeters>627</AltitudeMeters>
            <DistanceMeters>2799.7960058786</DistanceMeters>
          </Trackpoint>
          <Trackpoint>
            <Time>2022-08-26T20:00:24.000Z</Time>
            <Position>
              <LatitudeDegrees>50.172102637588977813720703125</LatitudeDegrees>
              <LongitudeDegrees>16.95794404484331607818603515625</LongitudeDegrees>
            </Position>
            <AltitudeMeters>628.20001220703125</AltitudeMeters>
            <DistanceMeters>2801.761933832</DistanceMeters>
          </Trackpoint>
          <Trackpoint>
            <Time>2022-08-26T20:00:26.000Z</Time>
            <Position>
              <LatitudeDegrees>50.17211244441568851470947265625</LatitudeDegrees>
              <LongitudeDegrees>16.9579575397074222564697265625</LongitudeDegrees>
            </Position>
            <AltitudeMeters>628.5999755859375</AltitudeMeters>
            <DistanceMeters>2803.2155630447</DistanceMeters>
          </Trackpoint>
          <Trackpoint>
            <Time>2022-08-26T20:00:31.000Z</Time>
            <Position>
              <LatitudeDegrees>50.17213641665875911712646484375</LatitudeDegrees>
              <LongitudeDegrees>16.95796214975416660308837890625</LongitudeDegrees>
            </Position>
            <AltitudeMeters>629.20001220703125</AltitudeMeters>
            <DistanceMeters>2805.9033244097</DistanceMeters>
          </Trackpoint>
          <Trackpoint>
            <Time>2022-08-26T20:00:37.000Z</Time>
            <Position>
              <LatitudeDegrees>50.17216558568179607391357421875</LatitudeDegrees>
              <LongitudeDegrees>16.9579833559691905975341796875</LongitudeDegrees>
            </Position>
            <AltitudeMeters>630</AltitudeMeters>
            <DistanceMeters>2809.4829442881</DistanceMeters>
          </Trackpoint>
          <Trackpoint>
            <Time>2022-08-26T20:00:41.000Z</Time>
            <Position>
              <LatitudeDegrees>50.17220213077962398529052734375</LatitudeDegrees>
              <LongitudeDegrees>16.95798821747303009033203125</LongitudeDegrees>
            </Position>
            <AltitudeMeters>630.20001220703125</AltitudeMeters>
            <DistanceMeters>2813.563564457</DistanceMeters>
          </Trackpoint>
          <Trackpoint>
            <Time>2022-08-26T20:00:46.000Z</Time>
            <Position>
              <LatitudeDegrees>50.17223129980266094207763671875</LatitudeDegrees>
              <LongitudeDegrees>16.958009339869022369384765625</LongitudeDegrees>
            </Position>
            <AltitudeMeters>631.20001220703125</AltitudeMeters>
            <DistanceMeters>2817.1419227953</DistanceMeters>
          </Trackpoint>
          <Trackpoint>
            <Time>2022-08-26T20:00:55.000Z</Time>
            <Position>
              <LatitudeDegrees>50.172288715839385986328125</LatitudeDegrees>
              <LongitudeDegrees>16.95804295130074024200439453125</LongitudeDegrees>
            </Position>
            <AltitudeMeters>632.4000244140625</AltitudeMeters>
            <DistanceMeters>2823.9666670614</DistanceMeters>
          </Trackpoint>
          <Trackpoint>
            <Time>2022-08-26T20:01:06.000Z</Time>
            <Position>
              <LatitudeDegrees>50.1723804138600826263427734375</LatitudeDegrees>
              <LongitudeDegrees>16.9580601342022418975830078125</LongitudeDegrees>
            </Position>
            <AltitudeMeters>633.4000244140625</AltitudeMeters>
            <DistanceMeters>2834.2462562822</DistanceMeters>
          </Trackpoint>
          <Trackpoint>
            <Time>2022-08-26T20:01:15.000Z</Time>
            <Position>
              <LatitudeDegrees>50.1724105887115001678466796875</LatitudeDegrees>
              <LongitudeDegrees>16.95810263045132160186767578125</LongitudeDegrees>
            </Position>
            <AltitudeMeters>634.5999755859375</AltitudeMeters>
            <DistanceMeters>2838.769767443</DistanceMeters>
          </Trackpoint>
          <Trackpoint>
            <Time>2022-08-26T20:01:16.000Z</Time>
            <Position>
              <LatitudeDegrees>50.17241503112018108367919921875</LatitudeDegrees>
              <LongitudeDegrees>16.9581074081361293792724609375</LongitudeDegrees>
            </Position>
            <AltitudeMeters>634.5999755859375</AltitudeMeters>
            <DistanceMeters>2839.3707691549</DistanceMeters>
          </Trackpoint>
          <Trackpoint>
            <Time>2022-08-26T20:01:26.000Z</Time>
            <Position>
              <LatitudeDegrees>50.17244704999029636383056640625</LatitudeDegrees>
              <LongitudeDegrees>16.95810581557452678680419921875</LongitudeDegrees>
            </Position>
            <AltitudeMeters>635.5999755859375</AltitudeMeters>
            <DistanceMeters>2842.9364875444</DistanceMeters>
          </Trackpoint>
          <Trackpoint>
            <Time>2022-08-26T20:01:36.000Z</Time>
            <Position>
              <LatitudeDegrees>50.172482840716838836669921875</LatitudeDegrees>
              <LongitudeDegrees>16.95811268873512744903564453125</LongitudeDegrees>
            </Position>
            <AltitudeMeters>636.5999755859375</AltitudeMeters>
            <DistanceMeters>2846.9501711862</DistanceMeters>
          </Trackpoint>
          <Trackpoint>
            <Time>2022-08-26T20:01:37.000Z</Time>
            <Position>
              <LatitudeDegrees>50.172484852373600006103515625</LatitudeDegrees>
              <LongitudeDegrees>16.95811352692544460296630859375</LongitudeDegrees>
            </Position>
            <AltitudeMeters>636.5999755859375</AltitudeMeters>
            <DistanceMeters>2847.1829381483</DistanceMeters>
          </Trackpoint>
          <Trackpoint>
            <Time>2022-08-26T20:01:45.000Z</Time>
            <Position>
              <LatitudeDegrees>50.1724987663328647613525390625</LatitudeDegrees>
              <LongitudeDegrees>16.95809475146234035491943359375</LongitudeDegrees>
            </Position>
            <AltitudeMeters>637.4000244140625</AltitudeMeters>
            <DistanceMeters>2849.2298762202</DistanceMeters>
          </Trackpoint>
          <Trackpoint>
            <Time>2022-08-26T20:01:55.000Z</Time>
            <Position>
              <LatitudeDegrees>50.1725202240049839019775390625</LatitudeDegrees>
              <LongitudeDegrees>16.95803943090140819549560546875</LongitudeDegrees>
            </Position>
            <AltitudeMeters>637.20001220703125</AltitudeMeters>
            <DistanceMeters>2853.8403859478</DistanceMeters>
          </Trackpoint>
          <Trackpoint>
            <Time>2022-08-26T20:02:07.000Z</Time>
            <Position>
              <LatitudeDegrees>50.1725366525352001190185546875</LatitudeDegrees>
              <LongitudeDegrees>16.95805502124130725860595703125</LongitudeDegrees>
            </Position>
            <AltitudeMeters>636.79998779296875</AltitudeMeters>
            <DistanceMeters>2855.9779590298</DistanceMeters>
          </Trackpoint>
          <Trackpoint>
            <Time>2022-08-26T20:02:15.000Z</Time>
            <Position>
              <LatitudeDegrees>50.17252064310014247894287109375</LatitudeDegrees>
              <LongitudeDegrees>16.9581654109060764312744140625</LongitudeDegrees>
            </Position>
            <AltitudeMeters>636.20001220703125</AltitudeMeters>
            <DistanceMeters>2864.0468406847</DistanceMeters>
          </Trackpoint>
          <Trackpoint>
            <Time>2022-08-26T20:02:25.000Z</Time>
            <Position>
              <LatitudeDegrees>50.172528438270092010498046875</LatitudeDegrees>
              <LongitudeDegrees>16.9582757167518138885498046875</LongitudeDegrees>
            </Position>
            <AltitudeMeters>636.20001220703125</AltitudeMeters>
            <DistanceMeters>2871.9586350393</DistanceMeters>
          </Trackpoint>
          <Trackpoint>
            <Time>2022-08-26T20:02:34.000Z</Time>
            <Position>
              <LatitudeDegrees>50.1725507341325283050537109375</LatitudeDegrees>
              <LongitudeDegrees>16.95832542143762111663818359375</LongitudeDegrees>
            </Position>
            <AltitudeMeters>636.20001220703125</AltitudeMeters>
            <DistanceMeters>2876.2841775939</DistanceMeters>
          </Trackpoint>
          <Trackpoint>
            <Time>2022-08-26T20:02:42.000Z</Time>
            <Position>
              <LatitudeDegrees>50.17256590537726879119873046875</LatitudeDegrees>
              <LongitudeDegrees>16.95839993655681610107421875</LongitudeDegrees>
            </Position>
            <AltitudeMeters>635.5999755859375</AltitudeMeters>
            <DistanceMeters>2881.8576381856</DistanceMeters>
          </Trackpoint>
          <Trackpoint>
            <Time>2022-08-26T20:02:44.000Z</Time>
            <Position>
              <LatitudeDegrees>50.17256808467209339141845703125</LatitudeDegrees>
              <LongitudeDegrees>16.95842684246599674224853515625</LongitudeDegrees>
            </Position>
            <AltitudeMeters>635.4000244140625</AltitudeMeters>
            <DistanceMeters>2883.7911457878</DistanceMeters>
          </Trackpoint>
          <Trackpoint>
            <Time>2022-08-26T20:02:53.000Z</Time>
            <Position>
              <LatitudeDegrees>50.17260680906474590301513671875</LatitudeDegrees>
              <LongitudeDegrees>16.95853513665497303009033203125</LongitudeDegrees>
            </Position>
            <AltitudeMeters>635.4000244140625</AltitudeMeters>
            <DistanceMeters>2892.6327164501</DistanceMeters>
          </Trackpoint>
          <Trackpoint>
            <Time>2022-08-26T20:03:03.000Z</Time>
            <Position>
              <LatitudeDegrees>50.172618292272090911865234375</LatitudeDegrees>
              <LongitudeDegrees>16.95856899954378604888916015625</LongitudeDegrees>
            </Position>
            <AltitudeMeters>635.4000244140625</AltitudeMeters>
            <DistanceMeters>2895.3638047208</DistanceMeters>
          </Trackpoint>
          <Trackpoint>
            <Time>2022-08-26T20:03:09.000Z</Time>
            <Position>
              <LatitudeDegrees>50.17265542410314083099365234375</LatitudeDegrees>
              <LongitudeDegrees>16.95863504894077777862548828125</LongitudeDegrees>
            </Position>
            <AltitudeMeters>635.4000244140625</AltitudeMeters>
            <DistanceMeters>2901.6283647393</DistanceMeters>
          </Trackpoint>
          <Trackpoint>
            <Time>2022-08-26T20:03:10.000Z</Time>
            <Position>
              <LatitudeDegrees>50.17266313545405864715576171875</LatitudeDegrees>
              <LongitudeDegrees>16.9586441852152347564697265625</LongitudeDegrees>
            </Position>
            <AltitudeMeters>635.4000244140625</AltitudeMeters>
            <DistanceMeters>2902.7034692853</DistanceMeters>
          </Trackpoint>
          <Trackpoint>
            <Time>2022-08-26T20:03:16.000Z</Time>
            <Position>
              <LatitudeDegrees>50.172686688601970672607421875</LatitudeDegrees>
              <LongitudeDegrees>16.95870176889002323150634765625</LongitudeDegrees>
            </Position>
            <AltitudeMeters>635.4000244140625</AltitudeMeters>
            <DistanceMeters>2907.5739939817</DistanceMeters>
          </Trackpoint>
          <Trackpoint>
            <Time>2022-08-26T20:03:21.000Z</Time>
            <Position>
              <LatitudeDegrees>50.17273320816457271575927734375</LatitudeDegrees>
              <LongitudeDegrees>16.95872507058084011077880859375</LongitudeDegrees>
            </Position>
            <AltitudeMeters>635.20001220703125</AltitudeMeters>
            <DistanceMeters>2913.0113159584</DistanceMeters>
          </Trackpoint>
          <Trackpoint>
            <Time>2022-08-26T20:03:23.000Z</Time>
            <Position>
              <LatitudeDegrees>50.172760784626007080078125</LatitudeDegrees>
              <LongitudeDegrees>16.95873294956982135772705078125</LongitudeDegrees>
            </Position>
            <AltitudeMeters>635.4000244140625</AltitudeMeters>
            <DistanceMeters>2916.1313195491</DistanceMeters>
          </Trackpoint>
          <Trackpoint>
            <Time>2022-08-26T20:03:33.000Z</Time>
            <Position>
              <LatitudeDegrees>50.1729047857224941253662109375</LatitudeDegrees>
              <LongitudeDegrees>16.95871241390705108642578125</LongitudeDegrees>
            </Position>
            <AltitudeMeters>636.4000244140625</AltitudeMeters>
            <DistanceMeters>2932.2256583922</DistanceMeters>
          </Trackpoint>
          <Trackpoint>
            <Time>2022-08-26T20:03:37.000Z</Time>
            <Position>
              <LatitudeDegrees>50.17296253703534603118896484375</LatitudeDegrees>
              <LongitudeDegrees>16.95870394818484783172607421875</LongitudeDegrees>
            </Position>
            <AltitudeMeters>637.5999755859375</AltitudeMeters>
            <DistanceMeters>2938.6818827428</DistanceMeters>
          </Trackpoint>
          <Trackpoint>
            <Time>2022-08-26T20:03:42.000Z</Time>
            <Position>
              <LatitudeDegrees>50.1729973219335079193115234375</LatitudeDegrees>
              <LongitudeDegrees>16.95870361290872097015380859375</LongitudeDegrees>
            </Position>
            <AltitudeMeters>638.5999755859375</AltitudeMeters>
            <DistanceMeters>2942.5535654386</DistanceMeters>
          </Trackpoint>
          <Trackpoint>
            <Time>2022-08-26T20:03:49.000Z</Time>
            <Position>
              <LatitudeDegrees>50.17303143627941608428955078125</LatitudeDegrees>
              <LongitudeDegrees>16.95872624404728412628173828125</LongitudeDegrees>
            </Position>
            <AltitudeMeters>639.79998779296875</AltitudeMeters>
            <DistanceMeters>2946.6782065164</DistanceMeters>
          </Trackpoint>
          <Trackpoint>
            <Time>2022-08-26T20:03:50.000Z</Time>
            <Position>
              <LatitudeDegrees>50.17304384149610996246337890625</LatitudeDegrees>
              <LongitudeDegrees>16.95873663760721683502197265625</LongitudeDegrees>
            </Position>
            <AltitudeMeters>640</AltitudeMeters>
            <DistanceMeters>2948.2454272388</DistanceMeters>
          </Trackpoint>
          <Trackpoint>
            <Time>2022-08-26T20:03:51.000Z</Time>
            <Position>
              <LatitudeDegrees>50.17305071465671062469482421875</LatitudeDegrees>
              <LongitudeDegrees>16.958742253482341766357421875</LongitudeDegrees>
            </Position>
            <AltitudeMeters>640</AltitudeMeters>
            <DistanceMeters>2949.1111618083</DistanceMeters>
          </Trackpoint>
          <Trackpoint>
            <Time>2022-08-26T20:03:54.000Z</Time>
            <Position>
              <LatitudeDegrees>50.17308491282165050506591796875</LatitudeDegrees>
              <LongitudeDegrees>16.95877050049602985382080078125</LongitudeDegrees>
            </Position>
            <AltitudeMeters>640</AltitudeMeters>
            <DistanceMeters>2953.4178748259</DistanceMeters>
          </Trackpoint>
          <Trackpoint>
            <Time>2022-08-26T20:03:57.000Z</Time>
            <Position>
              <LatitudeDegrees>50.173105113208293914794921875</LatitudeDegrees>
              <LongitudeDegrees>16.95880419574677944183349609375</LongitudeDegrees>
            </Position>
            <AltitudeMeters>640.20001220703125</AltitudeMeters>
            <DistanceMeters>2956.7096967732</DistanceMeters>
          </Trackpoint>
          <Trackpoint>
            <Time>2022-08-26T20:04:05.000Z</Time>
            <Position>
              <LatitudeDegrees>50.17314777709543704986572265625</LatitudeDegrees>
              <LongitudeDegrees>16.958912573754787445068359375</LongitudeDegrees>
            </Position>
            <AltitudeMeters>640.5999755859375</AltitudeMeters>
            <DistanceMeters>2965.7786513023</DistanceMeters>
          </Trackpoint>
          <Trackpoint>
            <Time>2022-08-26T20:04:08.000Z</Time>
            <Position>
              <LatitudeDegrees>50.173162110149860382080078125</LatitudeDegrees>
              <LongitudeDegrees>16.958955489099025726318359375</LongitudeDegrees>
            </Position>
            <AltitudeMeters>640.79998779296875</AltitudeMeters>
            <DistanceMeters>2969.2285267715</DistanceMeters>
          </Trackpoint>
          <Trackpoint>
            <Time>2022-08-26T20:04:12.000Z</Time>
            <Position>
              <LatitudeDegrees>50.17317711375653743743896484375</LatitudeDegrees>
              <LongitudeDegrees>16.9589999131858348846435546875</LongitudeDegrees>
            </Position>
            <AltitudeMeters>641</AltitudeMeters>
            <DistanceMeters>2972.8094077456</DistanceMeters>
          </Trackpoint>
          <Trackpoint>
            <Time>2022-08-26T20:04:19.000Z</Time>
            <Position>
              <LatitudeDegrees>50.17319890670478343963623046875</LatitudeDegrees>
              <LongitudeDegrees>16.959083564579486846923828125</LongitudeDegrees>
            </Position>
            <AltitudeMeters>641.5999755859375</AltitudeMeters>
            <DistanceMeters>2979.2474238125</DistanceMeters>
          </Trackpoint>
          <Trackpoint>
            <Time>2022-08-26T20:04:22.000Z</Time>
            <Position>
              <LatitudeDegrees>50.1732142455875873565673828125</LatitudeDegrees>
              <LongitudeDegrees>16.959119103848934173583984375</LongitudeDegrees>
            </Position>
            <AltitudeMeters>642</AltitudeMeters>
            <DistanceMeters>2982.3030905226</DistanceMeters>
          </Trackpoint>
          <Trackpoint>
            <Time>2022-08-26T20:04:28.000Z</Time>
            <Position>
              <LatitudeDegrees>50.17323796637356281280517578125</LatitudeDegrees>
              <LongitudeDegrees>16.95922429673373699188232421875</LongitudeDegrees>
            </Position>
            <AltitudeMeters>642.4000244140625</AltitudeMeters>
            <DistanceMeters>2990.2530279457</DistanceMeters>
          </Trackpoint>
          <Trackpoint>
            <Time>2022-08-26T20:04:31.000Z</Time>
            <Position>
              <LatitudeDegrees>50.17325095832347869873046875</LatitudeDegrees>
              <LongitudeDegrees>16.959281377494335174560546875</LongitudeDegrees>
            </Position>
            <AltitudeMeters>643</AltitudeMeters>
            <DistanceMeters>2994.571257659</DistanceMeters>
          </Trackpoint>
          <Trackpoint>
            <Time>2022-08-26T20:04:38.000Z</Time>
            <Position>
              <LatitudeDegrees>50.17328574322164058685302734375</LatitudeDegrees>
              <LongitudeDegrees>16.959379278123378753662109375</LongitudeDegrees>
            </Position>
            <AltitudeMeters>643.79998779296875</AltitudeMeters>
            <DistanceMeters>3002.5523703155</DistanceMeters>
          </Trackpoint>
          <Trackpoint>
            <Time>2022-08-26T20:04:39.000Z</Time>
            <Position>
              <LatitudeDegrees>50.17329077236354351043701171875</LatitudeDegrees>
              <LongitudeDegrees>16.95939159952104091644287109375</LongitudeDegrees>
            </Position>
            <AltitudeMeters>644</AltitudeMeters>
            <DistanceMeters>3003.593335816</DistanceMeters>
          </Trackpoint>
          <Trackpoint>
            <Time>2022-08-26T20:04:45.000Z</Time>
            <Position>
              <LatitudeDegrees>50.17331960611045360565185546875</LatitudeDegrees>
              <LongitudeDegrees>16.959478519856929779052734375</LongitudeDegrees>
            </Position>
            <AltitudeMeters>644.5999755859375</AltitudeMeters>
            <DistanceMeters>3010.5711701638</DistanceMeters>
          </Trackpoint>
          <Trackpoint>
            <Time>2022-08-26T20:04:50.000Z</Time>
            <Position>
              <LatitudeDegrees>50.17332471907138824462890625</LatitudeDegrees>
              <LongitudeDegrees>16.95955135859549045562744140625</LongitudeDegrees>
            </Position>
            <AltitudeMeters>645</AltitudeMeters>
            <DistanceMeters>3015.7950471736</DistanceMeters>
          </Trackpoint>
          <Trackpoint>
            <Time>2022-08-26T20:04:54.000Z</Time>
            <Position>
              <LatitudeDegrees>50.1733346097171306610107421875</LatitudeDegrees>
              <LongitudeDegrees>16.95960961282253265380859375</LongitudeDegrees>
            </Position>
            <AltitudeMeters>645.5999755859375</AltitudeMeters>
            <DistanceMeters>3020.0912636779</DistanceMeters>
          </Trackpoint>
          <Trackpoint>
            <Time>2022-08-26T20:04:59.000Z</Time>
            <Position>
              <LatitudeDegrees>50.173354558646678924560546875</LatitudeDegrees>
              <LongitudeDegrees>16.9596862234175205230712890625</LongitudeDegrees>
            </Position>
            <AltitudeMeters>646</AltitudeMeters>
            <DistanceMeters>3025.9859845497</DistanceMeters>
          </Trackpoint>
          <Trackpoint>
            <Time>2022-08-26T20:05:05.000Z</Time>
            <Position>
              <LatitudeDegrees>50.17338238656520843505859375</LatitudeDegrees>
              <LongitudeDegrees>16.9597750715911388397216796875</LongitudeDegrees>
            </Position>
            <AltitudeMeters>647</AltitudeMeters>
            <DistanceMeters>3033.0365569253</DistanceMeters>
          </Trackpoint>
          <Trackpoint>
            <Time>2022-08-26T20:05:06.000Z</Time>
            <Position>
              <LatitudeDegrees>50.17338464967906475067138671875</LatitudeDegrees>
              <LongitudeDegrees>16.95978973992168903350830078125</LongitudeDegrees>
            </Position>
            <AltitudeMeters>647.20001220703125</AltitudeMeters>
            <DistanceMeters>3034.1116614713</DistanceMeters>
          </Trackpoint>
          <Trackpoint>
            <Time>2022-08-26T20:05:15.000Z</Time>
            <Position>
              <LatitudeDegrees>50.17342798411846160888671875</LatitudeDegrees>
              <LongitudeDegrees>16.95989786647260189056396484375</LongitudeDegrees>
            </Position>
            <AltitudeMeters>648.20001220703125</AltitudeMeters>
            <DistanceMeters>3043.2044817115</DistanceMeters>
          </Trackpoint>
          <Trackpoint>
            <Time>2022-08-26T20:05:16.000Z</Time>
            <Position>
              <LatitudeDegrees>50.173432342708110809326171875</LatitudeDegrees>
              <LongitudeDegrees>16.95990993641316890716552734375</LongitudeDegrees>
            </Position>
            <AltitudeMeters>648.20001220703125</AltitudeMeters>
            <DistanceMeters>3044.1920282957</DistanceMeters>
          </Trackpoint>
          <Trackpoint>
            <Time>2022-08-26T20:05:24.000Z</Time>
            <Position>
              <LatitudeDegrees>50.1734714023768901824951171875</LatitudeDegrees>
              <LongitudeDegrees>16.95999920368194580078125</LongitudeDegrees>
            </Position>
            <AltitudeMeters>649.5999755859375</AltitudeMeters>
            <DistanceMeters>3051.8991576477</DistanceMeters>
          </Trackpoint>
          <Trackpoint>
            <Time>2022-08-26T20:05:27.000Z</Time>
            <Position>
              <LatitudeDegrees>50.1734881661832332611083984375</LatitudeDegrees>
              <LongitudeDegrees>16.9600278697907924652099609375</LongitudeDegrees>
            </Position>
            <AltitudeMeters>649.79998779296875</AltitudeMeters>
            <DistanceMeters>3054.6663773398</DistanceMeters>
          </Trackpoint>
          <Trackpoint>
            <Time>2022-08-26T20:05:31.000Z</Time>
            <Position>
              <LatitudeDegrees>50.17351389862596988677978515625</LatitudeDegrees>
              <LongitudeDegrees>16.96007489226758480072021484375</LongitudeDegrees>
            </Position>
            <AltitudeMeters>650.4000244140625</AltitudeMeters>
            <DistanceMeters>3059.074633742</DistanceMeters>
          </Trackpoint>
          <Trackpoint>
            <Time>2022-08-26T20:05:37.000Z</Time>
            <Position>
              <LatitudeDegrees>50.173552371561527252197265625</LatitudeDegrees>
              <LongitudeDegrees>16.96014563553035259246826171875</LongitudeDegrees>
            </Position>
            <AltitudeMeters>651.20001220703125</AltitudeMeters>
            <DistanceMeters>3065.6897490432</DistanceMeters>
          </Trackpoint>
          <Trackpoint>
            <Time>2022-08-26T20:05:40.000Z</Time>
            <Position>
              <LatitudeDegrees>50.17356737516820430755615234375</LatitudeDegrees>
              <LongitudeDegrees>16.96018402464687824249267578125</LongitudeDegrees>
            </Position>
            <AltitudeMeters>651.5999755859375</AltitudeMeters>
            <DistanceMeters>3068.8939957435</DistanceMeters>
          </Trackpoint>
          <Trackpoint>
            <Time>2022-08-26T20:05:44.000Z</Time>
            <Position>
              <LatitudeDegrees>50.1735874079167842864990234375</LatitudeDegrees>
              <LongitudeDegrees>16.9602290354669094085693359375</LongitudeDegrees>
            </Position>
            <AltitudeMeters>652.20001220703125</AltitudeMeters>
            <DistanceMeters>3072.8005068712</DistanceMeters>
          </Trackpoint>
          <Trackpoint>
            <Time>2022-08-26T20:05:48.000Z</Time>
            <Position>
              <LatitudeDegrees>50.17361029051244258880615234375</LatitudeDegrees>
              <LongitudeDegrees>16.96027337573468685150146484375</LongitudeDegrees>
            </Position>
            <AltitudeMeters>652.79998779296875</AltitudeMeters>
            <DistanceMeters>3076.8611619398</DistanceMeters>
          </Trackpoint>
          <Trackpoint>
            <Time>2022-08-26T20:05:51.000Z</Time>
            <Position>
              <LatitudeDegrees>50.1736236177384853363037109375</LatitudeDegrees>
              <LongitudeDegrees>16.9603063166141510009765625</LongitudeDegrees>
            </Position>
            <AltitudeMeters>653.4000244140625</AltitudeMeters>
            <DistanceMeters>3079.6381540686</DistanceMeters>
          </Trackpoint>
          <Trackpoint>
            <Time>2022-08-26T20:05:54.000Z</Time>
            <Position>
              <LatitudeDegrees>50.1736333407461643218994140625</LatitudeDegrees>
              <LongitudeDegrees>16.9603406824171543121337890625</LongitudeDegrees>
            </Position>
            <AltitudeMeters>653.79998779296875</AltitudeMeters>
            <DistanceMeters>3082.3158173589</DistanceMeters>
          </Trackpoint>
          <Trackpoint>
            <Time>2022-08-26T20:06:00.000Z</Time>
            <Position>
              <LatitudeDegrees>50.17364784143865108489990234375</LatitudeDegrees>
              <LongitudeDegrees>16.9604006968438625335693359375</LongitudeDegrees>
            </Position>
            <AltitudeMeters>654.79998779296875</AltitudeMeters>
            <DistanceMeters>3086.8879751611</DistanceMeters>
          </Trackpoint>
          <Trackpoint>
            <Time>2022-08-26T20:06:05.000Z</Time>
            <Position>
              <LatitudeDegrees>50.17365538515150547027587890625</LatitudeDegrees>
              <LongitudeDegrees>16.96044587530195713043212890625</LongitudeDegrees>
            </Position>
            <AltitudeMeters>655.4000244140625</AltitudeMeters>
            <DistanceMeters>3090.2152674116</DistanceMeters>
          </Trackpoint>
          <Trackpoint>
            <Time>2022-08-26T20:06:08.000Z</Time>
            <Position>
              <LatitudeDegrees>50.1736598275601863861083984375</LatitudeDegrees>
              <LongitudeDegrees>16.96049432270228862762451171875</LongitudeDegrees>
            </Position>
            <AltitudeMeters>655.79998779296875</AltitudeMeters>
            <DistanceMeters>3093.7041845855</DistanceMeters>
          </Trackpoint>
          <Trackpoint>
            <Time>2022-08-26T20:06:10.000Z</Time>
            <Position>
              <LatitudeDegrees>50.17366359941661357879638671875</LatitudeDegrees>
              <LongitudeDegrees>16.96052198298275470733642578125</LongitudeDegrees>
            </Position>
            <AltitudeMeters>656</AltitudeMeters>
            <DistanceMeters>3095.7200056092</DistanceMeters>
          </Trackpoint>
          <Trackpoint>
            <Time>2022-08-26T20:06:16.000Z</Time>
            <Position>
              <LatitudeDegrees>50.17368874512612819671630859375</LatitudeDegrees>
              <LongitudeDegrees>16.96060471236705780029296875</LongitudeDegrees>
            </Position>
            <AltitudeMeters>656.5999755859375</AltitudeMeters>
            <DistanceMeters>3102.2485552809</DistanceMeters>
          </Trackpoint>
          <Trackpoint>
            <Time>2022-08-26T20:06:20.000Z</Time>
            <Position>
              <LatitudeDegrees>50.1736987195909023284912109375</LatitudeDegrees>
              <LongitudeDegrees>16.9606558419764041900634765625</LongitudeDegrees>
            </Position>
            <AltitudeMeters>657</AltitudeMeters>
            <DistanceMeters>3106.0579296187</DistanceMeters>
          </Trackpoint>
          <Trackpoint>
            <Time>2022-08-26T20:06:24.000Z</Time>
            <Position>
              <LatitudeDegrees>50.17370584420859813690185546875</LatitudeDegrees>
              <LongitudeDegrees>16.96070286445319652557373046875</LongitudeDegrees>
            </Position>
            <AltitudeMeters>657.5999755859375</AltitudeMeters>
            <DistanceMeters>3109.5025660941</DistanceMeters>
          </Trackpoint>
          <Trackpoint>
            <Time>2022-08-26T20:06:27.000Z</Time>
            <Position>
              <LatitudeDegrees>50.1737201772630214691162109375</LatitudeDegrees>
              <LongitudeDegrees>16.96073949337005615234375</LongitudeDegrees>
            </Position>
            <AltitudeMeters>657.79998779296875</AltitudeMeters>
            <DistanceMeters>3112.5611865667</DistanceMeters>
          </Trackpoint>
          <Trackpoint>
            <Time>2022-08-26T20:06:29.000Z</Time>
            <Position>
              <LatitudeDegrees>50.173731409013271331787109375</LatitudeDegrees>
              <LongitudeDegrees>16.96076388470828533172607421875</LongitudeDegrees>
            </Position>
            <AltitudeMeters>658</AltitudeMeters>
            <DistanceMeters>3114.7029799353</DistanceMeters>
          </Trackpoint>
          <Trackpoint>
            <Time>2022-08-26T20:06:33.000Z</Time>
            <Position>
              <LatitudeDegrees>50.1737558841705322265625</LatitudeDegrees>
              <LongitudeDegrees>16.960804201662540435791015625</LongitudeDegrees>
            </Position>
            <AltitudeMeters>658.4000244140625</AltitudeMeters>
            <DistanceMeters>3118.6622996631</DistanceMeters>
          </Trackpoint>
          <Trackpoint>
            <Time>2022-08-26T20:06:39.000Z</Time>
            <Position>
              <LatitudeDegrees>50.17380081117153167724609375</LatitudeDegrees>
              <LongitudeDegrees>16.9608368910849094390869140625</LongitudeDegrees>
            </Position>
            <AltitudeMeters>659.4000244140625</AltitudeMeters>
            <DistanceMeters>3124.1795804872</DistanceMeters>
          </Trackpoint>
          <Trackpoint>
            <Time>2022-08-26T20:06:40.000Z</Time>
            <Position>
              <LatitudeDegrees>50.1738090254366397857666015625</LatitudeDegrees>
              <LongitudeDegrees>16.9608382321894168853759765625</LongitudeDegrees>
            </Position>
            <AltitudeMeters>659.4000244140625</AltitudeMeters>
            <DistanceMeters>3125.1008986655</DistanceMeters>
          </Trackpoint>
          <Trackpoint>
            <Time>2022-08-26T20:06:41.000Z</Time>
            <Position>
              <LatitudeDegrees>50.1738184131681919097900390625</LatitudeDegrees>
              <LongitudeDegrees>16.96083596907556056976318359375</LongitudeDegrees>
            </Position>
            <AltitudeMeters>659.4000244140625</AltitudeMeters>
            <DistanceMeters>3126.1633296306</DistanceMeters>
          </Trackpoint>
          <Trackpoint>
            <Time>2022-08-26T20:06:46.000Z</Time>
            <Position>
              <LatitudeDegrees>50.17385537736117839813232421875</LatitudeDegrees>
              <LongitudeDegrees>16.960826329886913299560546875</LongitudeDegrees>
            </Position>
            <AltitudeMeters>659.79998779296875</AltitudeMeters>
            <DistanceMeters>3130.3336925921</DistanceMeters>
          </Trackpoint>
          <Trackpoint>
            <Time>2022-08-26T20:06:52.000Z</Time>
            <Position>
              <LatitudeDegrees>50.17389762215316295623779296875</LatitudeDegrees>
              <LongitudeDegrees>16.9608526490628719329833984375</LongitudeDegrees>
            </Position>
            <AltitudeMeters>659.79998779296875</AltitudeMeters>
            <DistanceMeters>3135.3951476074</DistanceMeters>
          </Trackpoint>
          <Trackpoint>
            <Time>2022-08-26T20:06:54.000Z</Time>
            <Position>
              <LatitudeDegrees>50.1739047467708587646484375</LatitudeDegrees>
              <LongitudeDegrees>16.96087787859141826629638671875</LongitudeDegrees>
            </Position>
            <AltitudeMeters>660</AltitudeMeters>
            <DistanceMeters>3137.3587775729</DistanceMeters>
          </Trackpoint>
          <Trackpoint>
            <Time>2022-08-26T20:07:00.000Z</Time>
            <Position>
              <LatitudeDegrees>50.17392310313880443572998046875</LatitudeDegrees>
              <LongitudeDegrees>16.96095407009124755859375</LongitudeDegrees>
            </Position>
            <AltitudeMeters>660</AltitudeMeters>
            <DistanceMeters>3143.1608569401</DistanceMeters>
          </Trackpoint>
          <Trackpoint>
            <Time>2022-08-26T20:07:04.000Z</Time>
            <Position>
              <LatitudeDegrees>50.173928551375865936279296875</LatitudeDegrees>
              <LongitudeDegrees>16.96100930683314800262451171875</LongitudeDegrees>
            </Position>
            <AltitudeMeters>660.4000244140625</AltitudeMeters>
            <DistanceMeters>3147.1451855396</DistanceMeters>
          </Trackpoint>
          <Trackpoint>
            <Time>2022-08-26T20:07:07.000Z</Time>
            <Position>
              <LatitudeDegrees>50.17393534071743488311767578125</LatitudeDegrees>
              <LongitudeDegrees>16.96104769594967365264892578125</LongitudeDegrees>
            </Position>
            <AltitudeMeters>660.79998779296875</AltitudeMeters>
            <DistanceMeters>3149.9832884602</DistanceMeters>
          </Trackpoint>
          <Trackpoint>
            <Time>2022-08-26T20:07:11.000Z</Time>
            <Position>
              <LatitudeDegrees>50.17393969930708408355712890625</LatitudeDegrees>
              <LongitudeDegrees>16.9611002504825592041015625</LongitudeDegrees>
            </Position>
            <AltitudeMeters>661.4000244140625</AltitudeMeters>
            <DistanceMeters>3153.7605256491</DistanceMeters>
          </Trackpoint>
          <Trackpoint>
            <Time>2022-08-26T20:07:14.000Z</Time>
            <Position>
              <LatitudeDegrees>50.173939950764179229736328125</LatitudeDegrees>
              <LongitudeDegrees>16.96113101206719875335693359375</LongitudeDegrees>
            </Position>
            <AltitudeMeters>662</AltitudeMeters>
            <DistanceMeters>3155.9543877106</DistanceMeters>
          </Trackpoint>
          <Trackpoint>
            <Time>2022-08-26T20:07:17.000Z</Time>
            <Position>
              <LatitudeDegrees>50.17394657246768474578857421875</LatitudeDegrees>
              <LongitudeDegrees>16.9611600972712039947509765625</LongitudeDegrees>
            </Position>
            <AltitudeMeters>662.5999755859375</AltitudeMeters>
            <DistanceMeters>3158.1564665126</DistanceMeters>
          </Trackpoint>
          <Trackpoint>
            <Time>2022-08-26T20:07:23.000Z</Time>
            <Position>
              <LatitudeDegrees>50.17396082170307636260986328125</LatitudeDegrees>
              <LongitudeDegrees>16.9612248055636882781982421875</LongitudeDegrees>
            </Position>
            <AltitudeMeters>663.79998779296875</AltitudeMeters>
            <DistanceMeters>3163.0353271897</DistanceMeters>
          </Trackpoint>
          <Trackpoint>
            <Time>2022-08-26T20:07:25.000Z</Time>
            <Position>
              <LatitudeDegrees>50.17396853305399417877197265625</LatitudeDegrees>
              <LongitudeDegrees>16.96125271730124950408935546875</LongitudeDegrees>
            </Position>
            <AltitudeMeters>664</AltitudeMeters>
            <DistanceMeters>3165.2043522765</DistanceMeters>
          </Trackpoint>
          <Trackpoint>
            <Time>2022-08-26T20:07:30.000Z</Time>
            <Position>
              <LatitudeDegrees>50.1739783398807048797607421875</LatitudeDegrees>
              <LongitudeDegrees>16.96130854077637195587158203125</LongitudeDegrees>
            </Position>
            <AltitudeMeters>664.79998779296875</AltitudeMeters>
            <DistanceMeters>3169.330087859</DistanceMeters>
          </Trackpoint>
          <Trackpoint>
            <Time>2022-08-26T20:07:34.000Z</Time>
            <Position>
              <LatitudeDegrees>50.173970125615596771240234375</LatitudeDegrees>
              <LongitudeDegrees>16.96131415665149688720703125</LongitudeDegrees>
            </Position>
            <AltitudeMeters>665.4000244140625</AltitudeMeters>
            <DistanceMeters>3170.3267364475</DistanceMeters>
          </Trackpoint>
          <Trackpoint>
            <Time>2022-08-26T20:07:37.000Z</Time>
            <Position>
              <LatitudeDegrees>50.17397037707269191741943359375</LatitudeDegrees>
              <LongitudeDegrees>16.961336620151996612548828125</LongitudeDegrees>
            </Position>
            <AltitudeMeters>666</AltitudeMeters>
            <DistanceMeters>3171.9281551029</DistanceMeters>
          </Trackpoint>
          <Trackpoint>
            <Time>2022-08-26T20:07:43.000Z</Time>
            <Position>
              <LatitudeDegrees>50.17397515475749969482421875</LatitudeDegrees>
              <LongitudeDegrees>16.9613374583423137664794921875</LongitudeDegrees>
            </Position>
            <AltitudeMeters>666.5999755859375</AltitudeMeters>
            <DistanceMeters>3172.4657073759</DistanceMeters>
          </Trackpoint>
          <Trackpoint>
            <Time>2022-08-26T20:07:46.000Z</Time>
            <Position>
              <LatitudeDegrees>50.17397507093846797943115234375</LatitudeDegrees>
              <LongitudeDegrees>16.9613371230661869049072265625</LongitudeDegrees>
            </Position>
            <AltitudeMeters>667</AltitudeMeters>
            <DistanceMeters>3172.5607340903</DistanceMeters>
          </Trackpoint>
          <Trackpoint>
            <Time>2022-08-26T20:08:06.000Z</Time>
            <Position>
              <LatitudeDegrees>50.17398026771843433380126953125</LatitudeDegrees>
              <LongitudeDegrees>16.96132647804915904998779296875</LongitudeDegrees>
            </Position>
            <AltitudeMeters>667</AltitudeMeters>
            <DistanceMeters>3173.5157407504</DistanceMeters>
          </Trackpoint>
          <Trackpoint>
            <Time>2022-08-26T20:08:08.000Z</Time>
            <Position>
              <LatitudeDegrees>50.1739803515374660491943359375</LatitudeDegrees>
              <LongitudeDegrees>16.96129697374999523162841796875</LongitudeDegrees>
            </Position>
            <AltitudeMeters>667.20001220703125</AltitudeMeters>
            <DistanceMeters>3175.6192467422</DistanceMeters>
          </Trackpoint>
          <Trackpoint>
            <Time>2022-08-26T20:08:12.000Z</Time>
            <Position>
              <LatitudeDegrees>50.17397574149072170257568359375</LatitudeDegrees>
              <LongitudeDegrees>16.96122698485851287841796875</LongitudeDegrees>
            </Position>
            <AltitudeMeters>667.20001220703125</AltitudeMeters>
            <DistanceMeters>3180.6350012191</DistanceMeters>
          </Trackpoint>
          <Trackpoint>
            <Time>2022-08-26T20:08:16.000Z</Time>
            <Position>
              <LatitudeDegrees>50.17397456802427768707275390625</LatitudeDegrees>
              <LongitudeDegrees>16.96115858852863311767578125</LongitudeDegrees>
            </Position>
            <AltitudeMeters>666.79998779296875</AltitudeMeters>
            <DistanceMeters>3185.5129363796</DistanceMeters>
          </Trackpoint>
          <Trackpoint>
            <Time>2022-08-26T20:08:18.000Z</Time>
            <Position>
              <LatitudeDegrees>50.17398010008037090301513671875</LatitudeDegrees>
              <LongitudeDegrees>16.96113771758973598480224609375</LongitudeDegrees>
            </Position>
            <AltitudeMeters>666.4000244140625</AltitudeMeters>
            <DistanceMeters>3187.1255931986</DistanceMeters>
          </Trackpoint>
          <Trackpoint>
            <Time>2022-08-26T20:08:20.000Z</Time>
            <Position>
              <LatitudeDegrees>50.17398320138454437255859375</LatitudeDegrees>
              <LongitudeDegrees>16.961120702326297760009765625</LongitudeDegrees>
            </Position>
            <AltitudeMeters>665.79998779296875</AltitudeMeters>
            <DistanceMeters>3188.3898414063</DistanceMeters>
          </Trackpoint>
          <Trackpoint>
            <Time>2022-08-26T20:08:24.000Z</Time>
            <Position>
              <LatitudeDegrees>50.1739837042987346649169921875</LatitudeDegrees>
              <LongitudeDegrees>16.96107250638306140899658203125</LongitudeDegrees>
            </Position>
            <AltitudeMeters>664.79998779296875</AltitudeMeters>
            <DistanceMeters>3191.8266044165</DistanceMeters>
          </Trackpoint>
          <Trackpoint>
            <Time>2022-08-26T20:08:29.000Z</Time>
            <Position>
              <LatitudeDegrees>50.17398697324097156524658203125</LatitudeDegrees>
              <LongitudeDegrees>16.9609974883496761322021484375</LongitudeDegrees>
            </Position>
            <AltitudeMeters>664</AltitudeMeters>
            <DistanceMeters>3197.1869871682</DistanceMeters>
          </Trackpoint>
          <Trackpoint>
            <Time>2022-08-26T20:08:32.000Z</Time>
            <Position>
              <LatitudeDegrees>50.173991583287715911865234375</LatitudeDegrees>
              <LongitudeDegrees>16.9609602726995944976806640625</LongitudeDegrees>
            </Position>
            <AltitudeMeters>663.5999755859375</AltitudeMeters>
            <DistanceMeters>3199.88815391</DistanceMeters>
          </Trackpoint>
          <Trackpoint>
            <Time>2022-08-26T20:08:36.000Z</Time>
            <Position>
              <LatitudeDegrees>50.17398982308804988861083984375</LatitudeDegrees>
              <LongitudeDegrees>16.96090604178607463836669921875</LongitudeDegrees>
            </Position>
            <AltitudeMeters>662.79998779296875</AltitudeMeters>
            <DistanceMeters>3203.7575035639</DistanceMeters>
          </Trackpoint>
          <Trackpoint>
            <Time>2022-08-26T20:08:37.000Z</Time>
            <Position>
              <LatitudeDegrees>50.1739900745451450347900390625</LatitudeDegrees>
              <LongitudeDegrees>16.9608910381793975830078125</LongitudeDegrees>
            </Position>
            <AltitudeMeters>662.5999755859375</AltitudeMeters>
            <DistanceMeters>3204.8241757872</DistanceMeters>
          </Trackpoint>
          <Trackpoint>
            <Time>2022-08-26T20:08:41.000Z</Time>
            <Position>
              <LatitudeDegrees>50.173990242183208465576171875</LatitudeDegrees>
              <LongitudeDegrees>16.96082859300076961517333984375</LongitudeDegrees>
            </Position>
            <AltitudeMeters>661.5999755859375</AltitudeMeters>
            <DistanceMeters>3209.2752416952</DistanceMeters>
          </Trackpoint>
          <Trackpoint>
            <Time>2022-08-26T20:08:43.000Z</Time>
            <Position>
              <LatitudeDegrees>50.1739897392690181732177734375</LatitudeDegrees>
              <LongitudeDegrees>16.9607959873974323272705078125</LongitudeDegrees>
            </Position>
            <AltitudeMeters>661.20001220703125</AltitudeMeters>
            <DistanceMeters>3211.599028629</DistanceMeters>
          </Trackpoint>
          <Trackpoint>
            <Time>2022-08-26T20:08:48.000Z</Time>
            <Position>
              <LatitudeDegrees>50.173994600772857666015625</LatitudeDegrees>
              <LongitudeDegrees>16.960749216377735137939453125</LongitudeDegrees>
            </Position>
            <AltitudeMeters>660.5999755859375</AltitudeMeters>
            <DistanceMeters>3214.9774922776</DistanceMeters>
          </Trackpoint>
          <Trackpoint>
            <Time>2022-08-26T20:08:51.000Z</Time>
            <Position>
              <LatitudeDegrees>50.17399317584931850433349609375</LatitudeDegrees>
              <LongitudeDegrees>16.96074812673032283782958984375</LongitudeDegrees>
            </Position>
            <AltitudeMeters>660</AltitudeMeters>
            <DistanceMeters>3215.1675457064</DistanceMeters>
          </Trackpoint>
          <Trackpoint>
            <Time>2022-08-26T20:08:54.000Z</Time>
            <Position>
              <LatitudeDegrees>50.17399258911609649658203125</LatitudeDegrees>
              <LongitudeDegrees>16.96074410341680049896240234375</LongitudeDegrees>
            </Position>
            <AltitudeMeters>659.4000244140625</AltitudeMeters>
            <DistanceMeters>3215.4363218429</DistanceMeters>
          </Trackpoint>
          <Trackpoint>
            <Time>2022-08-26T20:09:02.000Z</Time>
            <Position>
              <LatitudeDegrees>50.1739904098212718963623046875</LatitudeDegrees>
              <LongitudeDegrees>16.9607477076351642608642578125</LongitudeDegrees>
            </Position>
            <AltitudeMeters>659</AltitudeMeters>
            <DistanceMeters>3215.7789455341</DistanceMeters>
          </Trackpoint>
          <Trackpoint>
            <Time>2022-08-26T20:09:16.000Z</Time>
            <Position>
              <LatitudeDegrees>50.17399032600224018096923828125</LatitudeDegrees>
              <LongitudeDegrees>16.9607503898441791534423828125</LongitudeDegrees>
            </Position>
            <AltitudeMeters>659.20001220703125</AltitudeMeters>
            <DistanceMeters>3215.9435366314</DistanceMeters>
          </Trackpoint>
          <Trackpoint>
            <Time>2022-08-26T20:09:45.000Z</Time>
            <Position>
              <LatitudeDegrees>50.17399049364030361175537109375</LatitudeDegrees>
              <LongitudeDegrees>16.960751228034496307373046875</LongitudeDegrees>
            </Position>
            <AltitudeMeters>659</AltitudeMeters>
            <DistanceMeters>3215.9435366314</DistanceMeters>
          </Trackpoint>
          <Trackpoint>
            <Time>2022-08-26T20:10:07.000Z</Time>
            <Position>
              <LatitudeDegrees>50.1739867217838764190673828125</LatitudeDegrees>
              <LongitudeDegrees>16.96077561937272548675537109375</LongitudeDegrees>
            </Position>
            <AltitudeMeters>659.20001220703125</AltitudeMeters>
            <DistanceMeters>3217.7314535929</DistanceMeters>
          </Trackpoint>
          <Trackpoint>
            <Time>2022-08-26T20:10:08.000Z</Time>
            <Position>
              <LatitudeDegrees>50.17398797906935214996337890625</LatitudeDegrees>
              <LongitudeDegrees>16.9607949815690517425537109375</LongitudeDegrees>
            </Position>
            <AltitudeMeters>659.20001220703125</AltitudeMeters>
            <DistanceMeters>3219.115063439</DistanceMeters>
          </Trackpoint>
          <Trackpoint>
            <Time>2022-08-26T20:10:12.000Z</Time>
            <Position>
              <LatitudeDegrees>50.173986218869686126708984375</LatitudeDegrees>
              <LongitudeDegrees>16.96086949668824672698974609375</LongitudeDegrees>
            </Position>
            <AltitudeMeters>659.20001220703125</AltitudeMeters>
            <DistanceMeters>3224.4306169561</DistanceMeters>
          </Trackpoint>
          <Trackpoint>
            <Time>2022-08-26T20:10:20.000Z</Time>
            <Position>
              <LatitudeDegrees>50.1739813573658466339111328125</LatitudeDegrees>
              <LongitudeDegrees>16.961006037890911102294921875</LongitudeDegrees>
            </Position>
            <AltitudeMeters>660.4000244140625</AltitudeMeters>
            <DistanceMeters>3234.1790796296</DistanceMeters>
          </Trackpoint>
          <Trackpoint>
            <Time>2022-08-26T20:10:21.000Z</Time>
            <Position>
              <LatitudeDegrees>50.17398194409906864166259765625</LatitudeDegrees>
              <LongitudeDegrees>16.961023472249507904052734375</LongitudeDegrees>
            </Position>
            <AltitudeMeters>660.79998779296875</AltitudeMeters>
            <DistanceMeters>3235.4253433049</DistanceMeters>
          </Trackpoint>
          <Trackpoint>
            <Time>2022-08-26T20:10:26.000Z</Time>
            <Position>
              <LatitudeDegrees>50.1739823631942272186279296875</LatitudeDegrees>
              <LongitudeDegrees>16.96110603399574756622314453125</LongitudeDegrees>
            </Position>
            <AltitudeMeters>661.79998779296875</AltitudeMeters>
            <DistanceMeters>3241.3108656469</DistanceMeters>
          </Trackpoint>
          <Trackpoint>
            <Time>2022-08-26T20:10:30.000Z</Time>
            <Position>
              <LatitudeDegrees>50.1739820279181003570556640625</LatitudeDegrees>
              <LongitudeDegrees>16.96117141284048557281494140625</LongitudeDegrees>
            </Position>
            <AltitudeMeters>662.79998779296875</AltitudeMeters>
            <DistanceMeters>3245.9720204313</DistanceMeters>
          </Trackpoint>
          <Trackpoint>
            <Time>2022-08-26T20:10:31.000Z</Time>
            <Position>
              <LatitudeDegrees>50.1739816926419734954833984375</LatitudeDegrees>
              <LongitudeDegrees>16.9611879251897335052490234375</LongitudeDegrees>
            </Position>
            <AltitudeMeters>663</AltitudeMeters>
            <DistanceMeters>3247.1512709443</DistanceMeters>
          </Trackpoint>
          <Trackpoint>
            <Time>2022-08-26T20:10:35.000Z</Time>
            <Position>
              <LatitudeDegrees>50.1739800162613391876220703125</LatitudeDegrees>
              <LongitudeDegrees>16.96124441921710968017578125</LongitudeDegrees>
            </Position>
            <AltitudeMeters>663.79998779296875</AltitudeMeters>
            <DistanceMeters>3251.1829129918</DistanceMeters>
          </Trackpoint>
          <Trackpoint>
            <Time>2022-08-26T20:10:40.000Z</Time>
            <Position>
              <LatitudeDegrees>50.1739749871194362640380859375</LatitudeDegrees>
              <LongitudeDegrees>16.9613129831850528717041015625</LongitudeDegrees>
            </Position>
            <AltitudeMeters>665</AltitudeMeters>
            <DistanceMeters>3256.1023240206</DistanceMeters>
          </Trackpoint>
          <Trackpoint>
            <Time>2022-08-26T20:10:46.000Z</Time>
            <Position>
              <LatitudeDegrees>50.1739769987761974334716796875</LatitudeDegrees>
              <LongitudeDegrees>16.961389593780040740966796875</LongitudeDegrees>
            </Position>
            <AltitudeMeters>666</AltitudeMeters>
            <DistanceMeters>3261.5678059642</DistanceMeters>
          </Trackpoint>
          <Trackpoint>
            <Time>2022-08-26T20:10:48.000Z</Time>
            <Position>
              <LatitudeDegrees>50.1739739812910556793212890625</LatitudeDegrees>
              <LongitudeDegrees>16.96141717024147510528564453125</LongitudeDegrees>
            </Position>
            <AltitudeMeters>666.4000244140625</AltitudeMeters>
            <DistanceMeters>3263.5611031411</DistanceMeters>
          </Trackpoint>
          <Trackpoint>
            <Time>2022-08-26T20:10:51.000Z</Time>
            <Position>
              <LatitudeDegrees>50.17397205345332622528076171875</LatitudeDegrees>
              <LongitudeDegrees>16.961462013423442840576171875</LongitudeDegrees>
            </Position>
            <AltitudeMeters>667</AltitudeMeters>
            <DistanceMeters>3266.763940452</DistanceMeters>
          </Trackpoint>
          <Trackpoint>
            <Time>2022-08-26T20:10:56.000Z</Time>
            <Position>
              <LatitudeDegrees>50.1739766635000705718994140625</LatitudeDegrees>
              <LongitudeDegrees>16.96152663789689540863037109375</LongitudeDegrees>
            </Position>
            <AltitudeMeters>668.20001220703125</AltitudeMeters>
            <DistanceMeters>3271.3988678366</DistanceMeters>
          </Trackpoint>
          <Trackpoint>
            <Time>2022-08-26T20:11:00.000Z</Time>
            <Position>
              <LatitudeDegrees>50.17397859133780002593994140625</LatitudeDegrees>
              <LongitudeDegrees>16.96156821213662624359130859375</LongitudeDegrees>
            </Position>
            <AltitudeMeters>669</AltitudeMeters>
            <DistanceMeters>3274.3706374714</DistanceMeters>
          </Trackpoint>
          <Trackpoint>
            <Time>2022-08-26T20:11:02.000Z</Time>
            <Position>
              <LatitudeDegrees>50.1739793457090854644775390625</LatitudeDegrees>
              <LongitudeDegrees>16.9615915976464748382568359375</LongitudeDegrees>
            </Position>
            <AltitudeMeters>669.20001220703125</AltitudeMeters>
            <DistanceMeters>3276.0383495403</DistanceMeters>
          </Trackpoint>
          <Trackpoint>
            <Time>2022-08-26T20:11:09.000Z</Time>
            <Position>
              <LatitudeDegrees>50.17399661242961883544921875</LatitudeDegrees>
              <LongitudeDegrees>16.961672566831111907958984375</LongitudeDegrees>
            </Position>
            <AltitudeMeters>670.4000244140625</AltitudeMeters>
            <DistanceMeters>3282.1215438712</DistanceMeters>
          </Trackpoint>
          <Trackpoint>
            <Time>2022-08-26T20:11:12.000Z</Time>
            <Position>
              <LatitudeDegrees>50.1740001328289508819580078125</LatitudeDegrees>
              <LongitudeDegrees>16.96171380579471588134765625</LongitudeDegrees>
            </Position>
            <AltitudeMeters>670.79998779296875</AltitudeMeters>
            <DistanceMeters>3285.0872300407</DistanceMeters>
          </Trackpoint>
          <Trackpoint>
            <Time>2022-08-26T20:11:16.000Z</Time>
            <Position>
              <LatitudeDegrees>50.17399803735315799713134765625</LatitudeDegrees>
              <LongitudeDegrees>16.96176786907017230987548828125</LongitudeDegrees>
            </Position>
            <AltitudeMeters>671.4000244140625</AltitudeMeters>
            <DistanceMeters>3288.9472334258</DistanceMeters>
          </Trackpoint>
          <Trackpoint>
            <Time>2022-08-26T20:11:22.000Z</Time>
            <Position>
              <LatitudeDegrees>50.173990912735462188720703125</LatitudeDegrees>
              <LongitudeDegrees>16.96184791624546051025390625</LongitudeDegrees>
            </Position>
            <AltitudeMeters>672.4000244140625</AltitudeMeters>
            <DistanceMeters>3294.7079218336</DistanceMeters>
          </Trackpoint>
          <Trackpoint>
            <Time>2022-08-26T20:11:23.000Z</Time>
            <Position>
              <LatitudeDegrees>50.173989571630954742431640625</LatitudeDegrees>
              <LongitudeDegrees>16.961862333118915557861328125</LongitudeDegrees>
            </Position>
            <AltitudeMeters>672.5999755859375</AltitudeMeters>
            <DistanceMeters>3295.7445409038</DistanceMeters>
          </Trackpoint>
          <Trackpoint>
            <Time>2022-08-26T20:11:30.000Z</Time>
            <Position>
              <LatitudeDegrees>50.173990912735462188720703125</LatitudeDegrees>
              <LongitudeDegrees>16.961970962584018707275390625</LongitudeDegrees>
            </Position>
            <AltitudeMeters>673.79998779296875</AltitudeMeters>
            <DistanceMeters>3303.4890723771</DistanceMeters>
          </Trackpoint>
          <Trackpoint>
            <Time>2022-08-26T20:11:35.000Z</Time>
            <Position>
              <LatitudeDegrees>50.173992924392223358154296875</LatitudeDegrees>
              <LongitudeDegrees>16.96200055070221424102783203125</LongitudeDegrees>
            </Position>
            <AltitudeMeters>674.4000244140625</AltitudeMeters>
            <DistanceMeters>3305.6096803251</DistanceMeters>
          </Trackpoint>
          <Trackpoint>
            <Time>2022-08-26T20:11:37.000Z</Time>
            <Position>
              <LatitudeDegrees>50.173990912735462188720703125</LatitudeDegrees>
              <LongitudeDegrees>16.96202762424945831298828125</LongitudeDegrees>
            </Position>
            <AltitudeMeters>674.79998779296875</AltitudeMeters>
            <DistanceMeters>3307.5525060902</DistanceMeters>
          </Trackpoint>
          <Trackpoint>
            <Time>2022-08-26T20:11:42.000Z</Time>
            <Position>
              <LatitudeDegrees>50.17398596741259098052978515625</LatitudeDegrees>
              <LongitudeDegrees>16.9620975293219089508056640625</LongitudeDegrees>
            </Position>
            <AltitudeMeters>675.20001220703125</AltitudeMeters>
            <DistanceMeters>3312.5664599013</DistanceMeters>
          </Trackpoint>
          <Trackpoint>
            <Time>2022-08-26T20:11:48.000Z</Time>
            <Position>
              <LatitudeDegrees>50.17396786250174045562744140625</LatitudeDegrees>
              <LongitudeDegrees>16.962165422737598419189453125</LongitudeDegrees>
            </Position>
            <AltitudeMeters>675.79998779296875</AltitudeMeters>
            <DistanceMeters>3317.8093172039</DistanceMeters>
          </Trackpoint>
          <Trackpoint>
            <Time>2022-08-26T20:11:49.000Z</Time>
            <Position>
              <LatitudeDegrees>50.17396199516952037811279296875</LatitudeDegrees>
              <LongitudeDegrees>16.962176822125911712646484375</LongitudeDegrees>
            </Position>
            <AltitudeMeters>676</AltitudeMeters>
            <DistanceMeters>3318.8502827044</DistanceMeters>
          </Trackpoint>
          <Trackpoint>
            <Time>2022-08-26T20:11:50.000Z</Time>
            <Position>
              <LatitudeDegrees>50.17395830713212490081787109375</LatitudeDegrees>
              <LongitudeDegrees>16.96219123899936676025390625</LongitudeDegrees>
            </Position>
            <AltitudeMeters>676.20001220703125</AltitudeMeters>
            <DistanceMeters>3319.9584751049</DistanceMeters>
          </Trackpoint>
          <Trackpoint>
            <Time>2022-08-26T20:11:55.000Z</Time>
            <Position>
              <LatitudeDegrees>50.17394422553479671478271484375</LatitudeDegrees>
              <LongitudeDegrees>16.96225686930119991302490234375</LongitudeDegrees>
            </Position>
            <AltitudeMeters>677</AltitudeMeters>
            <DistanceMeters>3324.8925490902</DistanceMeters>
          </Trackpoint>
          <Trackpoint>
            <Time>2022-08-26T20:11:58.000Z</Time>
            <Position>
              <LatitudeDegrees>50.1739381067454814910888671875</LatitudeDegrees>
              <LongitudeDegrees>16.96229718625545501708984375</LongitudeDegrees>
            </Position>
            <AltitudeMeters>677.4000244140625</AltitudeMeters>
            <DistanceMeters>3327.8460307382</DistanceMeters>
          </Trackpoint>
          <Trackpoint>
            <Time>2022-08-26T20:12:02.000Z</Time>
            <Position>
              <LatitudeDegrees>50.173927210271358489990234375</LatitudeDegrees>
              <LongitudeDegrees>16.9623506627976894378662109375</LongitudeDegrees>
            </Position>
            <AltitudeMeters>678.20001220703125</AltitudeMeters>
            <DistanceMeters>3331.8461926672</DistanceMeters>
          </Trackpoint>
          <Trackpoint>
            <Time>2022-08-26T20:12:07.000Z</Time>
            <Position>
              <LatitudeDegrees>50.17391681671142578125</LatitudeDegrees>
              <LongitudeDegrees>16.9624136947095394134521484375</LongitudeDegrees>
            </Position>
            <AltitudeMeters>679.20001220703125</AltitudeMeters>
            <DistanceMeters>3336.485988163</DistanceMeters>
          </Trackpoint>
          <Trackpoint>
            <Time>2022-08-26T20:12:11.000Z</Time>
            <Position>
              <LatitudeDegrees>50.173908434808254241943359375</LatitudeDegrees>
              <LongitudeDegrees>16.96245384402573108673095703125</LongitudeDegrees>
            </Position>
            <AltitudeMeters>679.79998779296875</AltitudeMeters>
            <DistanceMeters>3339.4970007418</DistanceMeters>
          </Trackpoint>
          <Trackpoint>
            <Time>2022-08-26T20:12:14.000Z</Time>
            <Position>
              <LatitudeDegrees>50.17390499822795391082763671875</LatitudeDegrees>
              <LongitudeDegrees>16.96247831918299198150634765625</LongitudeDegrees>
            </Position>
            <AltitudeMeters>680.4000244140625</AltitudeMeters>
            <DistanceMeters>3341.2823906109</DistanceMeters>
          </Trackpoint>
          <Trackpoint>
            <Time>2022-08-26T20:12:19.000Z</Time>
            <Position>
              <LatitudeDegrees>50.1739060878753662109375</LatitudeDegrees>
              <LongitudeDegrees>16.9624817557632923126220703125</LongitudeDegrees>
            </Position>
            <AltitudeMeters>681.4000244140625</AltitudeMeters>
            <DistanceMeters>3341.5511667474</DistanceMeters>
          </Trackpoint>
          <Trackpoint>
            <Time>2022-08-26T20:12:21.000Z</Time>
            <Position>
              <LatitudeDegrees>50.1739047467708587646484375</LatitudeDegrees>
              <LongitudeDegrees>16.96248628199100494384765625</LongitudeDegrees>
            </Position>
            <AltitudeMeters>681.5999755859375</AltitudeMeters>
            <DistanceMeters>3341.9067241552</DistanceMeters>
          </Trackpoint>
          <Trackpoint>
            <Time>2022-08-26T20:12:29.000Z</Time>
            <Position>
              <LatitudeDegrees>50.17394657246768474578857421875</LatitudeDegrees>
              <LongitudeDegrees>16.9625498168170452117919921875</LongitudeDegrees>
            </Position>
            <AltitudeMeters>681.79998779296875</AltitudeMeters>
            <DistanceMeters>3348.4012978186</DistanceMeters>
          </Trackpoint>
          <Trackpoint>
            <Time>2022-08-26T20:12:30.000Z</Time>
            <Position>
              <LatitudeDegrees>50.1739548705518245697021484375</LatitudeDegrees>
              <LongitudeDegrees>16.96256004273891448974609375</LongitudeDegrees>
            </Position>
            <AltitudeMeters>681.79998779296875</AltitudeMeters>
            <DistanceMeters>3349.5767133604</DistanceMeters>
          </Trackpoint>
          <Trackpoint>
            <Time>2022-08-26T20:12:36.000Z</Time>
            <Position>
              <LatitudeDegrees>50.17400993965566158294677734375</LatitudeDegrees>
              <LongitudeDegrees>16.9626182131469249725341796875</LongitudeDegrees>
            </Position>
            <AltitudeMeters>681.79998779296875</AltitudeMeters>
            <DistanceMeters>3356.9766041404</DistanceMeters>
          </Trackpoint>
          <Trackpoint>
            <Time>2022-08-26T20:12:41.000Z</Time>
            <Position>
              <LatitudeDegrees>50.17404313199222087860107421875</LatitudeDegrees>
              <LongitudeDegrees>16.9626708514988422393798828125</LongitudeDegrees>
            </Position>
            <AltitudeMeters>681.5999755859375</AltitudeMeters>
            <DistanceMeters>3362.242661941</DistanceMeters>
          </Trackpoint>
          <Trackpoint>
            <Time>2022-08-26T20:12:51.000Z</Time>
            <Position>
              <LatitudeDegrees>50.17408302985131740570068359375</LatitudeDegrees>
              <LongitudeDegrees>16.9627653993666172027587890625</LongitudeDegrees>
            </Position>
            <AltitudeMeters>680.4000244140625</AltitudeMeters>
            <DistanceMeters>3370.3143409202</DistanceMeters>
          </Trackpoint>
          <Trackpoint>
            <Time>2022-08-26T20:12:53.000Z</Time>
            <Position>
              <LatitudeDegrees>50.1740826107561588287353515625</LatitudeDegrees>
              <LongitudeDegrees>16.96278459392488002777099609375</LongitudeDegrees>
            </Position>
            <AltitudeMeters>680.20001220703125</AltitudeMeters>
            <DistanceMeters>3371.684835685</DistanceMeters>
          </Trackpoint>
          <Trackpoint>
            <Time>2022-08-26T20:12:58.000Z</Time>
            <Position>
              <LatitudeDegrees>50.1740869693458080291748046875</LatitudeDegrees>
              <LongitudeDegrees>16.962829940021038055419921875</LongitudeDegrees>
            </Position>
            <AltitudeMeters>679.20001220703125</AltitudeMeters>
            <DistanceMeters>3374.9546385093</DistanceMeters>
          </Trackpoint>
          <Trackpoint>
            <Time>2022-08-26T20:13:03.000Z</Time>
            <Position>
              <LatitudeDegrees>50.17410716973245143890380859375</LatitudeDegrees>
              <LongitudeDegrees>16.9628874398767948150634765625</LongitudeDegrees>
            </Position>
            <AltitudeMeters>678.20001220703125</AltitudeMeters>
            <DistanceMeters>3379.6312660492</DistanceMeters>
          </Trackpoint>
          <Trackpoint>
            <Time>2022-08-26T20:13:10.000Z</Time>
            <Position>
              <LatitudeDegrees>50.174137093126773834228515625</LatitudeDegrees>
              <LongitudeDegrees>16.96298089809715747833251953125</LongitudeDegrees>
            </Position>
            <AltitudeMeters>677.20001220703125</AltitudeMeters>
            <DistanceMeters>3387.0798088377</DistanceMeters>
          </Trackpoint>
          <Trackpoint>
            <Time>2022-08-26T20:13:11.000Z</Time>
            <Position>
              <LatitudeDegrees>50.17414120025932788848876953125</LatitudeDegrees>
              <LongitudeDegrees>16.96299766190350055694580078125</LongitudeDegrees>
            </Position>
            <AltitudeMeters>677</AltitudeMeters>
            <DistanceMeters>3388.3617893028</DistanceMeters>
          </Trackpoint>
          <Trackpoint>
            <Time>2022-08-26T20:13:17.000Z</Time>
            <Position>
              <LatitudeDegrees>50.17415544949471950531005859375</LatitudeDegrees>
              <LongitudeDegrees>16.9631006754934787750244140625</LongitudeDegrees>
            </Position>
            <AltitudeMeters>676</AltitudeMeters>
            <DistanceMeters>3395.8743107021</DistanceMeters>
          </Trackpoint>
          <Trackpoint>
            <Time>2022-08-26T20:13:21.000Z</Time>
            <Position>
              <LatitudeDegrees>50.1741617359220981597900390625</LatitudeDegrees>
              <LongitudeDegrees>16.96317418478429317474365234375</LongitudeDegrees>
            </Position>
            <AltitudeMeters>675.5999755859375</AltitudeMeters>
            <DistanceMeters>3401.1600515695</DistanceMeters>
          </Trackpoint>
          <Trackpoint>
            <Time>2022-08-26T20:13:30.000Z</Time>
            <Position>
              <LatitudeDegrees>50.1741858758032321929931640625</LatitudeDegrees>
              <LongitudeDegrees>16.9632629491388797760009765625</LongitudeDegrees>
            </Position>
            <AltitudeMeters>675.20001220703125</AltitudeMeters>
            <DistanceMeters>3408.03357759</DistanceMeters>
          </Trackpoint>
          <Trackpoint>
            <Time>2022-08-26T20:13:40.000Z</Time>
            <Position>
              <LatitudeDegrees>50.1742274500429630279541015625</LatitudeDegrees>
              <LongitudeDegrees>16.96331902407109737396240234375</LongitudeDegrees>
            </Position>
            <AltitudeMeters>675</AltitudeMeters>
            <DistanceMeters>3414.1486038822</DistanceMeters>
          </Trackpoint>
          <Trackpoint>
            <Time>2022-08-26T20:13:51.000Z</Time>
            <Position>
              <LatitudeDegrees>50.17423993907868862152099609375</LatitudeDegrees>
              <LongitudeDegrees>16.96335355751216411590576171875</LongitudeDegrees>
            </Position>
            <AltitudeMeters>675</AltitudeMeters>
            <DistanceMeters>3416.9739512195</DistanceMeters>
          </Trackpoint>
          <Trackpoint>
            <Time>2022-08-26T20:13:58.000Z</Time>
            <Position>
              <LatitudeDegrees>50.17428201623260974884033203125</LatitudeDegrees>
              <LongitudeDegrees>16.963313408195972442626953125</LongitudeDegrees>
            </Position>
            <AltitudeMeters>675.20001220703125</AltitudeMeters>
            <DistanceMeters>3422.4625152409</DistanceMeters>
          </Trackpoint>
          <Trackpoint>
            <Time>2022-08-26T20:14:07.000Z</Time>
            <Position>
              <LatitudeDegrees>50.1743850298225879669189453125</LatitudeDegrees>
              <LongitudeDegrees>16.96325230412185192108154296875</LongitudeDegrees>
            </Position>
            <AltitudeMeters>674.4000244140625</AltitudeMeters>
            <DistanceMeters>3434.7279574896</DistanceMeters>
          </Trackpoint>
          <Trackpoint>
            <Time>2022-08-26T20:14:09.000Z</Time>
            <Position>
              <LatitudeDegrees>50.1743957586586475372314453125</LatitudeDegrees>
              <LongitudeDegrees>16.963240318000316619873046875</LongitudeDegrees>
            </Position>
            <AltitudeMeters>673.79998779296875</AltitudeMeters>
            <DistanceMeters>3436.2001050184</DistanceMeters>
          </Trackpoint>
          <Trackpoint>
            <Time>2022-08-26T20:14:12.000Z</Time>
            <Position>
              <LatitudeDegrees>50.17441210336983203887939453125</LatitudeDegrees>
              <LongitudeDegrees>16.96322514675557613372802734375</LongitudeDegrees>
            </Position>
            <AltitudeMeters>673.4000244140625</AltitudeMeters>
            <DistanceMeters>3438.3164504336</DistanceMeters>
          </Trackpoint>
          <Trackpoint>
            <Time>2022-08-26T20:14:18.000Z</Time>
            <Position>
              <LatitudeDegrees>50.17443506978452205657958984375</LatitudeDegrees>
              <LongitudeDegrees>16.9632153399288654327392578125</LongitudeDegrees>
            </Position>
            <AltitudeMeters>672.4000244140625</AltitudeMeters>
            <DistanceMeters>3440.9652934635</DistanceMeters>
          </Trackpoint>
          <Trackpoint>
            <Time>2022-08-26T20:14:20.000Z</Time>
            <Position>
              <LatitudeDegrees>50.174440853297710418701171875</LatitudeDegrees>
              <LongitudeDegrees>16.9632123224437236785888671875</LongitudeDegrees>
            </Position>
            <AltitudeMeters>671.79998779296875</AltitudeMeters>
            <DistanceMeters>3441.6372338047</DistanceMeters>
          </Trackpoint>
          <Trackpoint>
            <Time>2022-08-26T20:14:24.000Z</Time>
            <Position>
              <LatitudeDegrees>50.1744524203240871429443359375</LatitudeDegrees>
              <LongitudeDegrees>16.96323059499263763427734375</LongitudeDegrees>
            </Position>
            <AltitudeMeters>671.20001220703125</AltitudeMeters>
            <DistanceMeters>3443.4651091517</DistanceMeters>
          </Trackpoint>
          <Trackpoint>
            <Time>2022-08-26T20:14:30.000Z</Time>
            <Position>
              <LatitudeDegrees>50.1744792424142360687255859375</LatitudeDegrees>
              <LongitudeDegrees>16.9632232189178466796875</LongitudeDegrees>
            </Position>
            <AltitudeMeters>670.5999755859375</AltitudeMeters>
            <DistanceMeters>3446.4940623813</DistanceMeters>
          </Trackpoint>
          <Trackpoint>
            <Time>2022-08-26T20:14:33.000Z</Time>
            <Position>
              <LatitudeDegrees>50.17449089325964450836181640625</LatitudeDegrees>
              <LongitudeDegrees>16.96322162635624408721923828125</LongitudeDegrees>
            </Position>
            <AltitudeMeters>670</AltitudeMeters>
            <DistanceMeters>3447.790053978</DistanceMeters>
          </Trackpoint>
          <Trackpoint>
            <Time>2022-08-26T20:14:37.000Z</Time>
            <Position>
              <LatitudeDegrees>50.1745136082172393798828125</LatitudeDegrees>
              <LongitudeDegrees>16.963208131492137908935546875</LongitudeDegrees>
            </Position>
            <AltitudeMeters>669</AltitudeMeters>
            <DistanceMeters>3450.4945616817</DistanceMeters>
          </Trackpoint>
          <Trackpoint>
            <Time>2022-08-26T20:14:38.000Z</Time>
            <Position>
              <LatitudeDegrees>50.1745167933404445648193359375</LatitudeDegrees>
              <LongitudeDegrees>16.9632059521973133087158203125</LongitudeDegrees>
            </Position>
            <AltitudeMeters>668.79998779296875</AltitudeMeters>
            <DistanceMeters>3450.8746685392</DistanceMeters>
          </Trackpoint>
          <Trackpoint>
            <Time>2022-08-26T20:14:41.000Z</Time>
            <Position>
              <LatitudeDegrees>50.1745288632810115814208984375</LatitudeDegrees>
              <LongitudeDegrees>16.96320100687444210052490234375</LongitudeDegrees>
            </Position>
            <AltitudeMeters>667.79998779296875</AltitudeMeters>
            <DistanceMeters>3452.2647895264</DistanceMeters>
          </Trackpoint>
          <Trackpoint>
            <Time>2022-08-26T20:14:45.000Z</Time>
            <Position>
              <LatitudeDegrees>50.17456951551139354705810546875</LatitudeDegrees>
              <LongitudeDegrees>16.96318524889647960662841796875</LongitudeDegrees>
            </Position>
            <AltitudeMeters>666.79998779296875</AltitudeMeters>
            <DistanceMeters>3456.9269128624</DistanceMeters>
          </Trackpoint>
          <Trackpoint>
            <Time>2022-08-26T20:14:48.000Z</Time>
            <Position>
              <LatitudeDegrees>50.17461083829402923583984375</LatitudeDegrees>
              <LongitudeDegrees>16.96316094137728214263916015625</LongitudeDegrees>
            </Position>
            <AltitudeMeters>666</AltitudeMeters>
            <DistanceMeters>3461.841732746</DistanceMeters>
          </Trackpoint>
          <Trackpoint>
            <Time>2022-08-26T20:14:49.000Z</Time>
            <Position>
              <LatitudeDegrees>50.17461695708334445953369140625</LatitudeDegrees>
              <LongitudeDegrees>16.963157840073108673095703125</LongitudeDegrees>
            </Position>
            <AltitudeMeters>665.79998779296875</AltitudeMeters>
            <DistanceMeters>3462.5654346416</DistanceMeters>
          </Trackpoint>
          <Trackpoint>
            <Time>2022-08-26T20:14:53.000Z</Time>
            <Position>
              <LatitudeDegrees>50.174638330936431884765625</LatitudeDegrees>
              <LongitudeDegrees>16.96314551867544651031494140625</LongitudeDegrees>
            </Position>
            <AltitudeMeters>664.20001220703125</AltitudeMeters>
            <DistanceMeters>3465.1028436556</DistanceMeters>
          </Trackpoint>
          <Trackpoint>
            <Time>2022-08-26T20:14:58.000Z</Time>
            <Position>
              <LatitudeDegrees>50.17466607503592967987060546875</LatitudeDegrees>
              <LongitudeDegrees>16.96313596330583095550537109375</LongitudeDegrees>
            </Position>
            <AltitudeMeters>663</AltitudeMeters>
            <DistanceMeters>3468.2659631127</DistanceMeters>
          </Trackpoint>
          <Trackpoint>
            <Time>2022-08-26T20:15:03.000Z</Time>
            <Position>
              <LatitudeDegrees>50.1747099123895168304443359375</LatitudeDegrees>
              <LongitudeDegrees>16.9631258212029933929443359375</LongitudeDegrees>
            </Position>
            <AltitudeMeters>661.79998779296875</AltitudeMeters>
            <DistanceMeters>3473.1982066124</DistanceMeters>
          </Trackpoint>
          <Trackpoint>
            <Time>2022-08-26T20:15:08.000Z</Time>
            <Position>
              <LatitudeDegrees>50.17474922351539134979248046875</LatitudeDegrees>
              <LongitudeDegrees>16.9631080515682697296142578125</LongitudeDegrees>
            </Position>
            <AltitudeMeters>660.79998779296875</AltitudeMeters>
            <DistanceMeters>3477.7535458608</DistanceMeters>
          </Trackpoint>
          <Trackpoint>
            <Time>2022-08-26T20:15:10.000Z</Time>
            <Position>
              <LatitudeDegrees>50.17475978471338748931884765625</LatitudeDegrees>
              <LongitudeDegrees>16.96310092695057392120361328125</LongitudeDegrees>
            </Position>
            <AltitudeMeters>660.4000244140625</AltitudeMeters>
            <DistanceMeters>3479.0355263259</DistanceMeters>
          </Trackpoint>
          <Trackpoint>
            <Time>2022-08-26T20:15:13.000Z</Time>
            <Position>
              <LatitudeDegrees>50.17476950772106647491455078125</LatitudeDegrees>
              <LongitudeDegrees>16.9630963169038295745849609375</LongitudeDegrees>
            </Position>
            <AltitudeMeters>659.5999755859375</AltitudeMeters>
            <DistanceMeters>3480.1679003167</DistanceMeters>
          </Trackpoint>
          <Trackpoint>
            <Time>2022-08-26T20:15:17.000Z</Time>
            <Position>
              <LatitudeDegrees>50.174789540469646453857421875</LatitudeDegrees>
              <LongitudeDegrees>16.963101513683795928955078125</LongitudeDegrees>
            </Position>
            <AltitudeMeters>658.5999755859375</AltitudeMeters>
            <DistanceMeters>3482.4286575499</DistanceMeters>
          </Trackpoint>
          <Trackpoint>
            <Time>2022-08-26T20:15:21.000Z</Time>
            <Position>
              <LatitudeDegrees>50.17482298426330089569091796875</LatitudeDegrees>
              <LongitudeDegrees>16.963102854788303375244140625</LongitudeDegrees>
            </Position>
            <AltitudeMeters>657.20001220703125</AltitudeMeters>
            <DistanceMeters>3486.1529289441</DistanceMeters>
          </Trackpoint>
          <Trackpoint>
            <Time>2022-08-26T20:15:27.000Z</Time>
            <Position>
              <LatitudeDegrees>50.1748591102659702301025390625</LatitudeDegrees>
              <LongitudeDegrees>16.963116936385631561279296875</LongitudeDegrees>
            </Position>
            <AltitudeMeters>656</AltitudeMeters>
            <DistanceMeters>3490.2972268818</DistanceMeters>
          </Trackpoint>
          <Trackpoint>
            <Time>2022-08-26T20:15:31.000Z</Time>
            <Position>
              <LatitudeDegrees>50.17488383688032627105712890625</LatitudeDegrees>
              <LongitudeDegrees>16.96309975348412990570068359375</LongitudeDegrees>
            </Position>
            <AltitudeMeters>654.79998779296875</AltitudeMeters>
            <DistanceMeters>3493.3082394606</DistanceMeters>
          </Trackpoint>
          <Trackpoint>
            <Time>2022-08-26T20:15:36.000Z</Time>
            <Position>
              <LatitudeDegrees>50.17490915022790431976318359375</LatitudeDegrees>
              <LongitudeDegrees>16.963102854788303375244140625</LongitudeDegrees>
            </Position>
            <AltitudeMeters>653.5999755859375</AltitudeMeters>
            <DistanceMeters>3496.1335867979</DistanceMeters>
          </Trackpoint>
          <Trackpoint>
            <Time>2022-08-26T20:15:41.000Z</Time>
            <Position>
              <LatitudeDegrees>50.1749412529170513153076171875</LatitudeDegrees>
              <LongitudeDegrees>16.96309925056993961334228515625</LongitudeDegrees>
            </Position>
            <AltitudeMeters>652.79998779296875</AltitudeMeters>
            <DistanceMeters>3499.714467772</DistanceMeters>
          </Trackpoint>
          <Trackpoint>
            <Time>2022-08-26T20:15:42.000Z</Time>
            <Position>
              <LatitudeDegrees>50.17494536004960536956787109375</LatitudeDegrees>
              <LongitudeDegrees>16.9630966521799564361572265625</LongitudeDegrees>
            </Position>
            <AltitudeMeters>652.5999755859375</AltitudeMeters>
            <DistanceMeters>3500.1990108429</DistanceMeters>
          </Trackpoint>
          <Trackpoint>
            <Time>2022-08-26T20:15:47.000Z</Time>
            <Position>
              <LatitudeDegrees>50.17499162815511226654052734375</LatitudeDegrees>
              <LongitudeDegrees>16.9630889408290386199951171875</LongitudeDegrees>
            </Position>
            <AltitudeMeters>651.4000244140625</AltitudeMeters>
            <DistanceMeters>3505.3786205883</DistanceMeters>
          </Trackpoint>
          <Trackpoint>
            <Time>2022-08-26T20:15:49.000Z</Time>
            <Position>
              <LatitudeDegrees>50.1750106550753116607666015625</LatitudeDegrees>
              <LongitudeDegrees>16.9630797207355499267578125</LongitudeDegrees>
            </Position>
            <AltitudeMeters>651.20001220703125</AltitudeMeters>
            <DistanceMeters>3507.5990758881</DistanceMeters>
          </Trackpoint>
          <Trackpoint>
            <Time>2022-08-26T20:15:54.000Z</Time>
            <Position>
              <LatitudeDegrees>50.17504669725894927978515625</LatitudeDegrees>
              <LongitudeDegrees>16.96307594887912273406982421875</LongitudeDegrees>
            </Position>
            <AltitudeMeters>650.20001220703125</AltitudeMeters>
            <DistanceMeters>3511.6195033324</DistanceMeters>
          </Trackpoint>
          <Trackpoint>
            <Time>2022-08-26T20:15:57.000Z</Time>
            <Position>
              <LatitudeDegrees>50.17506404779851436614990234375</LatitudeDegrees>
              <LongitudeDegrees>16.963086090981960296630859375</LongitudeDegrees>
            </Position>
            <AltitudeMeters>648.79998779296875</AltitudeMeters>
            <DistanceMeters>3513.6818238712</DistanceMeters>
          </Trackpoint>
          <Trackpoint>
            <Time>2022-08-26T20:15:58.000Z</Time>
            <Position>
              <LatitudeDegrees>50.17506756819784641265869140625</LatitudeDegrees>
              <LongitudeDegrees>16.96309371851384639739990234375</LongitudeDegrees>
            </Position>
            <AltitudeMeters>648.4000244140625</AltitudeMeters>
            <DistanceMeters>3514.3537642125</DistanceMeters>
          </Trackpoint>
          <Trackpoint>
            <Time>2022-08-26T20:16:01.000Z</Time>
            <Position>
              <LatitudeDegrees>50.17507754266262054443359375</LatitudeDegrees>
              <LongitudeDegrees>16.96308801881968975067138671875</LongitudeDegrees>
            </Position>
            <AltitudeMeters>647.5999755859375</AltitudeMeters>
            <DistanceMeters>3515.5406474946</DistanceMeters>
          </Trackpoint>
          <Trackpoint>
            <Time>2022-08-26T20:16:05.000Z</Time>
            <Position>
              <LatitudeDegrees>50.175104700028896331787109375</LatitudeDegrees>
              <LongitudeDegrees>16.963082067668437957763671875</LongitudeDegrees>
            </Position>
            <AltitudeMeters>646.5999755859375</AltitudeMeters>
            <DistanceMeters>3518.593357584</DistanceMeters>
          </Trackpoint>
          <Trackpoint>
            <Time>2022-08-26T20:16:07.000Z</Time>
            <Position>
              <LatitudeDegrees>50.17511115409433841705322265625</LatitudeDegrees>
              <LongitudeDegrees>16.96308919228613376617431640625</LongitudeDegrees>
            </Position>
            <AltitudeMeters>646</AltitudeMeters>
            <DistanceMeters>3519.4745990799</DistanceMeters>
          </Trackpoint>
          <Trackpoint>
            <Time>2022-08-26T20:16:11.000Z</Time>
            <Position>
              <LatitudeDegrees>50.17513923346996307373046875</LatitudeDegrees>
              <LongitudeDegrees>16.9630850851535797119140625</LongitudeDegrees>
            </Position>
            <AltitudeMeters>645.20001220703125</AltitudeMeters>
            <DistanceMeters>3522.6119201225</DistanceMeters>
          </Trackpoint>
          <Trackpoint>
            <Time>2022-08-26T20:16:14.000Z</Time>
            <Position>
              <LatitudeDegrees>50.175163038074970245361328125</LatitudeDegrees>
              <LongitudeDegrees>16.96306522004306316375732421875</LongitudeDegrees>
            </Position>
            <AltitudeMeters>644.79998779296875</AltitudeMeters>
            <DistanceMeters>3525.6139221696</DistanceMeters>
          </Trackpoint>
          <Trackpoint>
            <Time>2022-08-26T20:16:17.000Z</Time>
            <Position>
              <LatitudeDegrees>50.1751917041838169097900390625</LatitudeDegrees>
              <LongitudeDegrees>16.96304284036159515380859375</LongitudeDegrees>
            </Position>
            <AltitudeMeters>644.20001220703125</AltitudeMeters>
            <DistanceMeters>3529.1821721309</DistanceMeters>
          </Trackpoint>
          <Trackpoint>
            <Time>2022-08-26T20:16:23.000Z</Time>
            <Position>
              <LatitudeDegrees>50.17522850073873996734619140625</LatitudeDegrees>
              <LongitudeDegrees>16.9630108214914798736572265625</LongitudeDegrees>
            </Position>
            <AltitudeMeters>643.4000244140625</AltitudeMeters>
            <DistanceMeters>3533.8703707257</DistanceMeters>
          </Trackpoint>
          <Trackpoint>
            <Time>2022-08-26T20:16:25.000Z</Time>
            <Position>
              <LatitudeDegrees>50.17524090595543384552001953125</LatitudeDegrees>
              <LongitudeDegrees>16.96300931274890899658203125</LongitudeDegrees>
            </Position>
            <AltitudeMeters>643.20001220703125</AltitudeMeters>
            <DistanceMeters>3535.2539805718</DistanceMeters>
          </Trackpoint>
          <Trackpoint>
            <Time>2022-08-26T20:16:30.000Z</Time>
            <Position>
              <LatitudeDegrees>50.17528516240417957305908203125</LatitudeDegrees>
              <LongitudeDegrees>16.96299816481769084930419921875</LongitudeDegrees>
            </Position>
            <AltitudeMeters>642</AltitudeMeters>
            <DistanceMeters>3540.2435617923</DistanceMeters>
          </Trackpoint>
          <Trackpoint>
            <Time>2022-08-26T20:16:33.000Z</Time>
            <Position>
              <LatitudeDegrees>50.17531500197947025299072265625</LatitudeDegrees>
              <LongitudeDegrees>16.963003613054752349853515625</LongitudeDegrees>
            </Position>
            <AltitudeMeters>641.20001220703125</AltitudeMeters>
            <DistanceMeters>3543.5870980397</DistanceMeters>
          </Trackpoint>
          <Trackpoint>
            <Time>2022-08-26T20:16:35.000Z</Time>
            <Position>
              <LatitudeDegrees>50.17533176578581333160400390625</LatitudeDegrees>
              <LongitudeDegrees>16.96299514733254909515380859375</LongitudeDegrees>
            </Position>
            <AltitudeMeters>640.79998779296875</AltitudeMeters>
            <DistanceMeters>3545.5461239427</DistanceMeters>
          </Trackpoint>
          <Trackpoint>
            <Time>2022-08-26T20:16:40.000Z</Time>
            <Position>
              <LatitudeDegrees>50.17537057399749755859375</LatitudeDegrees>
              <LongitudeDegrees>16.96298626251518726348876953125</LongitudeDegrees>
            </Position>
            <AltitudeMeters>639.5999755859375</AltitudeMeters>
            <DistanceMeters>3549.9111510098</DistanceMeters>
          </Trackpoint>
          <Trackpoint>
            <Time>2022-08-26T20:16:44.000Z</Time>
            <Position>
              <LatitudeDegrees>50.17540703527629375457763671875</LatitudeDegrees>
              <LongitudeDegrees>16.96296949870884418487548828125</LongitudeDegrees>
            </Position>
            <AltitudeMeters>638.20001220703125</AltitudeMeters>
            <DistanceMeters>3554.1427749993</DistanceMeters>
          </Trackpoint>
          <Trackpoint>
            <Time>2022-08-26T20:16:48.000Z</Time>
            <Position>
              <LatitudeDegrees>50.1754227094352245330810546875</LatitudeDegrees>
              <LongitudeDegrees>16.9629658944904804229736328125</LongitudeDegrees>
            </Position>
            <AltitudeMeters>637</AltitudeMeters>
            <DistanceMeters>3555.9103740629</DistanceMeters>
          </Trackpoint>
          <Trackpoint>
            <Time>2022-08-26T20:16:49.000Z</Time>
            <Position>
              <LatitudeDegrees>50.17542765475809574127197265625</LatitudeDegrees>
              <LongitudeDegrees>16.9629645533859729766845703125</LongitudeDegrees>
            </Position>
            <AltitudeMeters>636.79998779296875</AltitudeMeters>
            <DistanceMeters>3556.4725596866</DistanceMeters>
          </Trackpoint>
          <Trackpoint>
            <Time>2022-08-26T20:16:52.000Z</Time>
            <Position>
              <LatitudeDegrees>50.17544575966894626617431640625</LatitudeDegrees>
              <LongitudeDegrees>16.96295944042503833770751953125</LongitudeDegrees>
            </Position>
            <AltitudeMeters>636</AltitudeMeters>
            <DistanceMeters>3558.5217023235</DistanceMeters>
          </Trackpoint>
          <Trackpoint>
            <Time>2022-08-26T20:16:58.000Z</Time>
            <Position>
              <LatitudeDegrees>50.175486244261264801025390625</LatitudeDegrees>
              <LongitudeDegrees>16.96293530054390430450439453125</LongitudeDegrees>
            </Position>
            <AltitudeMeters>634.79998779296875</AltitudeMeters>
            <DistanceMeters>3563.3456537118</DistanceMeters>
          </Trackpoint>
          <Trackpoint>
            <Time>2022-08-26T20:17:03.000Z</Time>
            <Position>
              <LatitudeDegrees>50.1755229569971561431884765625</LatitudeDegrees>
              <LongitudeDegrees>16.9628958217799663543701171875</LongitudeDegrees>
            </Position>
            <AltitudeMeters>633.4000244140625</AltitudeMeters>
            <DistanceMeters>3568.3071039419</DistanceMeters>
          </Trackpoint>
          <Trackpoint>
            <Time>2022-08-26T20:17:08.000Z</Time>
            <Position>
              <LatitudeDegrees>50.175557993352413177490234375</LatitudeDegrees>
              <LongitudeDegrees>16.96289204992353916168212890625</LongitudeDegrees>
            </Position>
            <AltitudeMeters>632.4000244140625</AltitudeMeters>
            <DistanceMeters>3572.2159259311</DistanceMeters>
          </Trackpoint>
          <Trackpoint>
            <Time>2022-08-26T20:17:09.000Z</Time>
            <Position>
              <LatitudeDegrees>50.17556612379848957061767578125</LatitudeDegrees>
              <LongitudeDegrees>16.96289473213255405426025390625</LongitudeDegrees>
            </Position>
            <AltitudeMeters>632.20001220703125</AltitudeMeters>
            <DistanceMeters>3573.1421317733</DistanceMeters>
          </Trackpoint>
          <Trackpoint>
            <Time>2022-08-26T20:17:11.000Z</Time>
            <Position>
              <LatitudeDegrees>50.17558339051902294158935546875</LatitudeDegrees>
              <LongitudeDegrees>16.96290671825408935546875</LongitudeDegrees>
            </Position>
            <AltitudeMeters>631.79998779296875</AltitudeMeters>
            <DistanceMeters>3575.2456377651</DistanceMeters>
          </Trackpoint>
          <Trackpoint>
            <Time>2022-08-26T20:17:15.000Z</Time>
            <Position>
              <LatitudeDegrees>50.1755950413644313812255859375</LatitudeDegrees>
              <LongitudeDegrees>16.9629384018480777740478515625</LongitudeDegrees>
            </Position>
            <AltitudeMeters>631.20001220703125</AltitudeMeters>
            <DistanceMeters>3577.849785881</DistanceMeters>
          </Trackpoint>
          <Trackpoint>
            <Time>2022-08-26T20:17:16.000Z</Time>
            <Position>
              <LatitudeDegrees>50.1755977235734462738037109375</LatitudeDegrees>
              <LongitudeDegrees>16.96294083259999752044677734375</LongitudeDegrees>
            </Position>
            <AltitudeMeters>631</AltitudeMeters>
            <DistanceMeters>3578.1924095722</DistanceMeters>
          </Trackpoint>
          <Trackpoint>
            <Time>2022-08-26T20:17:27.000Z</Time>
            <Position>
              <LatitudeDegrees>50.1756530441343784332275390625</LatitudeDegrees>
              <LongitudeDegrees>16.9630309380590915679931640625</LongitudeDegrees>
            </Position>
            <AltitudeMeters>630.20001220703125</AltitudeMeters>
            <DistanceMeters>3587.0894680809</DistanceMeters>
          </Trackpoint>
          <Trackpoint>
            <Time>2022-08-26T20:17:35.000Z</Time>
            <Position>
              <LatitudeDegrees>50.175678022205829620361328125</LatitudeDegrees>
              <LongitudeDegrees>16.963091455399990081787109375</LongitudeDegrees>
            </Position>
            <AltitudeMeters>631</AltitudeMeters>
            <DistanceMeters>3592.2209106569</DistanceMeters>
          </Trackpoint>
          <Trackpoint>
            <Time>2022-08-26T20:17:44.000Z</Time>
            <Position>
              <LatitudeDegrees>50.17572772689163684844970703125</LatitudeDegrees>
              <LongitudeDegrees>16.96316027082502841949462890625</LongitudeDegrees>
            </Position>
            <AltitudeMeters>631.79998779296875</AltitudeMeters>
            <DistanceMeters>3599.6146974263</DistanceMeters>
          </Trackpoint>
          <Trackpoint>
            <Time>2022-08-26T20:17:47.000Z</Time>
            <Position>
              <LatitudeDegrees>50.1757371984422206878662109375</LatitudeDegrees>
              <LongitudeDegrees>16.9631767831742763519287109375</LongitudeDegrees>
            </Position>
            <AltitudeMeters>631.79998779296875</AltitudeMeters>
            <DistanceMeters>3601.1991093839</DistanceMeters>
          </Trackpoint>
          <Trackpoint>
            <Time>2022-08-26T20:17:54.000Z</Time>
            <Position>
              <LatitudeDegrees>50.17577030695974826812744140625</LatitudeDegrees>
              <LongitudeDegrees>16.9632337801158428192138671875</LongitudeDegrees>
            </Position>
            <AltitudeMeters>632</AltitudeMeters>
            <DistanceMeters>3606.6843819124</DistanceMeters>
          </Trackpoint>
          <Trackpoint>
            <Time>2022-08-26T20:18:01.000Z</Time>
            <Position>
              <LatitudeDegrees>50.17581238411366939544677734375</LatitudeDegrees>
              <LongitudeDegrees>16.9633001647889614105224609375</LongitudeDegrees>
            </Position>
            <AltitudeMeters>632.5999755859375</AltitudeMeters>
            <DistanceMeters>3613.3416798017</DistanceMeters>
          </Trackpoint>
          <Trackpoint>
            <Time>2022-08-26T20:18:05.000Z</Time>
            <Position>
              <LatitudeDegrees>50.1758468337357044219970703125</LatitudeDegrees>
              <LongitudeDegrees>16.96336026303470134735107421875</LongitudeDegrees>
            </Position>
            <AltitudeMeters>633.20001220703125</AltitudeMeters>
            <DistanceMeters>3619.0905996815</DistanceMeters>
          </Trackpoint>
          <Trackpoint>
            <Time>2022-08-26T20:18:08.000Z</Time>
            <Position>
              <LatitudeDegrees>50.1758679561316967010498046875</LatitudeDegrees>
              <LongitudeDegrees>16.9634015858173370361328125</LongitudeDegrees>
            </Position>
            <AltitudeMeters>633.5999755859375</AltitudeMeters>
            <DistanceMeters>3622.8606580793</DistanceMeters>
          </Trackpoint>
          <Trackpoint>
            <Time>2022-08-26T20:18:14.000Z</Time>
            <Position>
              <LatitudeDegrees>50.17589184455573558807373046875</LatitudeDegrees>
              <LongitudeDegrees>16.963440477848052978515625</LongitudeDegrees>
            </Position>
            <AltitudeMeters>634</AltitudeMeters>
            <DistanceMeters>3626.701900705</DistanceMeters>
          </Trackpoint>
          <Trackpoint>
            <Time>2022-08-26T20:18:18.000Z</Time>
            <Position>
              <LatitudeDegrees>50.17591548152267932891845703125</LatitudeDegrees>
              <LongitudeDegrees>16.963483728468418121337890625</LongitudeDegrees>
            </Position>
            <AltitudeMeters>634.5999755859375</AltitudeMeters>
            <DistanceMeters>3630.7558788905</DistanceMeters>
          </Trackpoint>
          <Trackpoint>
            <Time>2022-08-26T20:18:23.000Z</Time>
            <Position>
              <LatitudeDegrees>50.175952278077602386474609375</LatitudeDegrees>
              <LongitudeDegrees>16.9635459221899509429931640625</LongitudeDegrees>
            </Position>
            <AltitudeMeters>635</AltitudeMeters>
            <DistanceMeters>3636.7913845341</DistanceMeters>
          </Trackpoint>
          <Trackpoint>
            <Time>2022-08-26T20:18:33.000Z</Time>
            <Position>
              <LatitudeDegrees>50.1760422997176647186279296875</LatitudeDegrees>
              <LongitudeDegrees>16.9636672921478748321533203125</LongitudeDegrees>
            </Position>
            <AltitudeMeters>635.4000244140625</AltitudeMeters>
            <DistanceMeters>3650.0291208766</DistanceMeters>
          </Trackpoint>
          <Trackpoint>
            <Time>2022-08-26T20:18:34.000Z</Time>
            <Position>
              <LatitudeDegrees>50.176052190363407135009765625</LatitudeDegrees>
              <LongitudeDegrees>16.9636698067188262939453125</LongitudeDegrees>
            </Position>
            <AltitudeMeters>635.5999755859375</AltitudeMeters>
            <DistanceMeters>3651.1413800518</DistanceMeters>
          </Trackpoint>
          <Trackpoint>
            <Time>2022-08-26T20:18:41.000Z</Time>
            <Position>
              <LatitudeDegrees>50.176096446812152862548828125</LatitudeDegrees>
              <LongitudeDegrees>16.963711716234683990478515625</LongitudeDegrees>
            </Position>
            <AltitudeMeters>636</AltitudeMeters>
            <DistanceMeters>3656.9028521734</DistanceMeters>
          </Trackpoint>
          <Trackpoint>
            <Time>2022-08-26T20:18:49.000Z</Time>
            <Position>
              <LatitudeDegrees>50.17614380456507205963134765625</LatitudeDegrees>
              <LongitudeDegrees>16.963806264102458953857421875</LongitudeDegrees>
            </Position>
            <AltitudeMeters>636.20001220703125</AltitudeMeters>
            <DistanceMeters>3665.4594788339</DistanceMeters>
          </Trackpoint>
          <Trackpoint>
            <Time>2022-08-26T20:18:58.000Z</Time>
            <Position>
              <LatitudeDegrees>50.17616744153201580047607421875</LatitudeDegrees>
              <LongitudeDegrees>16.96389301680028438568115234375</LongitudeDegrees>
            </Position>
            <AltitudeMeters>636.4000244140625</AltitudeMeters>
            <DistanceMeters>3672.1802259927</DistanceMeters>
          </Trackpoint>
          <Trackpoint>
            <Time>2022-08-26T20:19:06.000Z</Time>
            <Position>
              <LatitudeDegrees>50.1762033998966217041015625</LatitudeDegrees>
              <LongitudeDegrees>16.9639948569238185882568359375</LongitudeDegrees>
            </Position>
            <AltitudeMeters>636.5999755859375</AltitudeMeters>
            <DistanceMeters>3680.4693665792</DistanceMeters>
          </Trackpoint>
          <Trackpoint>
            <Time>2022-08-26T20:19:17.000Z</Time>
            <Position>
              <LatitudeDegrees>50.17629199661314487457275390625</LatitudeDegrees>
              <LongitudeDegrees>16.96414950303733348846435546875</LongitudeDegrees>
            </Position>
            <AltitudeMeters>636.20001220703125</AltitudeMeters>
            <DistanceMeters>3695.2593825284</DistanceMeters>
          </Trackpoint>
          <Trackpoint>
            <Time>2022-08-26T20:19:26.000Z</Time>
            <Position>
              <LatitudeDegrees>50.176322758197784423828125</LatitudeDegrees>
              <LongitudeDegrees>16.96428981609642505645751953125</LongitudeDegrees>
            </Position>
            <AltitudeMeters>636.20001220703125</AltitudeMeters>
            <DistanceMeters>3705.8308642632</DistanceMeters>
          </Trackpoint>
          <Trackpoint>
            <Time>2022-08-26T20:19:33.000Z</Time>
            <Position>
              <LatitudeDegrees>50.1763872988522052764892578125</LatitudeDegrees>
              <LongitudeDegrees>16.96439794264733791351318359375</LongitudeDegrees>
            </Position>
            <AltitudeMeters>636.20001220703125</AltitudeMeters>
            <DistanceMeters>3716.3672659167</DistanceMeters>
          </Trackpoint>
          <Trackpoint>
            <Time>2022-08-26T20:19:42.000Z</Time>
            <Position>
              <LatitudeDegrees>50.17644907347857952117919921875</LatitudeDegrees>
              <LongitudeDegrees>16.96446977555751800537109375</LongitudeDegrees>
            </Position>
            <AltitudeMeters>636.20001220703125</AltitudeMeters>
            <DistanceMeters>3724.9407612513</DistanceMeters>
          </Trackpoint>
          <Trackpoint>
            <Time>2022-08-26T20:19:52.000Z</Time>
            <Position>
              <LatitudeDegrees>50.176516883075237274169921875</LatitudeDegrees>
              <LongitudeDegrees>16.96460380218923091888427734375</LongitudeDegrees>
            </Position>
            <AltitudeMeters>636.20001220703125</AltitudeMeters>
            <DistanceMeters>3737.1160532357</DistanceMeters>
          </Trackpoint>
          <Trackpoint>
            <Time>2022-08-26T20:20:00.000Z</Time>
            <Position>
              <LatitudeDegrees>50.17658066935837268829345703125</LatitudeDegrees>
              <LongitudeDegrees>16.96474763564765453338623046875</LongitudeDegrees>
            </Position>
            <AltitudeMeters>636</AltitudeMeters>
            <DistanceMeters>3749.5866577326</DistanceMeters>
          </Trackpoint>
          <Trackpoint>
            <Time>2022-08-26T20:20:12.000Z</Time>
            <Position>
              <LatitudeDegrees>50.1766903884708881378173828125</LatitudeDegrees>
              <LongitudeDegrees>16.96493354625999927520751953125</LongitudeDegrees>
            </Position>
            <AltitudeMeters>635.4000244140625</AltitudeMeters>
            <DistanceMeters>3767.607190718</DistanceMeters>
          </Trackpoint>
          <Trackpoint>
            <Time>2022-08-26T20:20:21.000Z</Time>
            <Position>
              <LatitudeDegrees>50.17673246562480926513671875</LatitudeDegrees>
              <LongitudeDegrees>16.96503597311675548553466796875</LongitudeDegrees>
            </Position>
            <AltitudeMeters>635</AltitudeMeters>
            <DistanceMeters>3776.2812092175</DistanceMeters>
          </Trackpoint>
          <Trackpoint>
            <Time>2022-08-26T20:20:31.000Z</Time>
            <Position>
              <LatitudeDegrees>50.17678116448223590850830078125</LatitudeDegrees>
              <LongitudeDegrees>16.96513756178319454193115234375</LongitudeDegrees>
            </Position>
            <AltitudeMeters>635</AltitudeMeters>
            <DistanceMeters>3785.3262350651</DistanceMeters>
          </Trackpoint>
          <Trackpoint>
            <Time>2022-08-26T20:20:43.000Z</Time>
            <Position>
              <LatitudeDegrees>50.1768027059733867645263671875</LatitudeDegrees>
              <LongitudeDegrees>16.96525306440889835357666015625</LongitudeDegrees>
            </Position>
            <AltitudeMeters>636</AltitudeMeters>
            <DistanceMeters>3793.90078359</DistanceMeters>
          </Trackpoint>
          <Trackpoint>
            <Time>2022-08-26T20:20:46.000Z</Time>
            <Position>
              <LatitudeDegrees>50.1768097467720508575439453125</LatitudeDegrees>
              <LongitudeDegrees>16.96527821011841297149658203125</LongitudeDegrees>
            </Position>
            <AltitudeMeters>636.20001220703125</AltitudeMeters>
            <DistanceMeters>3795.8575033993</DistanceMeters>
          </Trackpoint>
          <Trackpoint>
            <Time>2022-08-26T20:20:53.000Z</Time>
            <Position>
              <LatitudeDegrees>50.17681066878139972686767578125</LatitudeDegrees>
              <LongitudeDegrees>16.96536429226398468017578125</LongitudeDegrees>
            </Position>
            <AltitudeMeters>636.20001220703125</AltitudeMeters>
            <DistanceMeters>3801.9953759073</DistanceMeters>
          </Trackpoint>
          <Trackpoint>
            <Time>2022-08-26T20:21:04.000Z</Time>
            <Position>
              <LatitudeDegrees>50.1768472976982593536376953125</LatitudeDegrees>
              <LongitudeDegrees>16.965535618364810943603515625</LongitudeDegrees>
            </Position>
            <AltitudeMeters>636.20001220703125</AltitudeMeters>
            <DistanceMeters>3814.8700053468</DistanceMeters>
          </Trackpoint>
          <Trackpoint>
            <Time>2022-08-26T20:21:13.000Z</Time>
            <Position>
              <LatitudeDegrees>50.17689096741378307342529296875</LatitudeDegrees>
              <LongitudeDegrees>16.96561533026397228240966796875</LongitudeDegrees>
            </Position>
            <AltitudeMeters>635</AltitudeMeters>
            <DistanceMeters>3822.3463796812</DistanceMeters>
          </Trackpoint>
          <Trackpoint>
            <Time>2022-08-26T20:21:14.000Z</Time>
            <Position>
              <LatitudeDegrees>50.17688962630927562713623046875</LatitudeDegrees>
              <LongitudeDegrees>16.96562170051038265228271484375</LongitudeDegrees>
            </Position>
            <AltitudeMeters>634.79998779296875</AltitudeMeters>
            <DistanceMeters>3822.8119136055</DistanceMeters>
          </Trackpoint>
          <Trackpoint>
            <Time>2022-08-26T20:21:16.000Z</Time>
            <Position>
              <LatitudeDegrees>50.17690001986920833587646484375</LatitudeDegrees>
              <LongitudeDegrees>16.96563846431672573089599609375</LongitudeDegrees>
            </Position>
            <AltitudeMeters>634</AltitudeMeters>
            <DistanceMeters>3824.4742022062</DistanceMeters>
          </Trackpoint>
          <Trackpoint>
            <Time>2022-08-26T20:21:20.000Z</Time>
            <Position>
              <LatitudeDegrees>50.17689214088022708892822265625</LatitudeDegrees>
              <LongitudeDegrees>16.96567215956747531890869140625</LongitudeDegrees>
            </Position>
            <AltitudeMeters>633</AltitudeMeters>
            <DistanceMeters>3827.0311095853</DistanceMeters>
          </Trackpoint>
          <Trackpoint>
            <Time>2022-08-26T20:21:23.000Z</Time>
            <Position>
              <LatitudeDegrees>50.1768942363560199737548828125</LatitudeDegrees>
              <LongitudeDegrees>16.96571105159819126129150390625</LongitudeDegrees>
            </Position>
            <AltitudeMeters>632.20001220703125</AltitudeMeters>
            <DistanceMeters>3829.8145976109</DistanceMeters>
          </Trackpoint>
          <Trackpoint>
            <Time>2022-08-26T20:21:24.000Z</Time>
            <Position>
              <LatitudeDegrees>50.1769019477069377899169921875</LatitudeDegrees>
              <LongitudeDegrees>16.9657238759100437164306640625</LongitudeDegrees>
            </Position>
            <AltitudeMeters>632</AltitudeMeters>
            <DistanceMeters>3831.0680860637</DistanceMeters>
          </Trackpoint>
          <Trackpoint>
            <Time>2022-08-26T20:21:28.000Z</Time>
            <Position>
              <LatitudeDegrees>50.17692784778773784637451171875</LatitudeDegrees>
              <LongitudeDegrees>16.96575983427464962005615234375</LongitudeDegrees>
            </Position>
            <AltitudeMeters>630.79998779296875</AltitudeMeters>
            <DistanceMeters>3834.9257493434</DistanceMeters>
          </Trackpoint>
          <Trackpoint>
            <Time>2022-08-26T20:21:31.000Z</Time>
            <Position>
              <LatitudeDegrees>50.17693706788122653961181640625</LatitudeDegrees>
              <LongitudeDegrees>16.9657745026051998138427734375</LongitudeDegrees>
            </Position>
            <AltitudeMeters>630.20001220703125</AltitudeMeters>
            <DistanceMeters>3836.3855774295</DistanceMeters>
          </Trackpoint>
          <Trackpoint>
            <Time>2022-08-26T20:21:33.000Z</Time>
            <Position>
              <LatitudeDegrees>50.1769475452601909637451171875</LatitudeDegrees>
              <LongitudeDegrees>16.9657887518405914306640625</LongitudeDegrees>
            </Position>
            <AltitudeMeters>629.5999755859375</AltitudeMeters>
            <DistanceMeters>3837.9295787835</DistanceMeters>
          </Trackpoint>
          <Trackpoint>
            <Time>2022-08-26T20:21:37.000Z</Time>
            <Position>
              <LatitudeDegrees>50.176967494189739227294921875</LatitudeDegrees>
              <LongitudeDegrees>16.965827643871307373046875</LongitudeDegrees>
            </Position>
            <AltitudeMeters>628.4000244140625</AltitudeMeters>
            <DistanceMeters>3841.4800698363</DistanceMeters>
          </Trackpoint>
          <Trackpoint>
            <Time>2022-08-26T20:21:41.000Z</Time>
            <Position>
              <LatitudeDegrees>50.17698920331895351409912109375</LatitudeDegrees>
              <LongitudeDegrees>16.96583904325962066650390625</LongitudeDegrees>
            </Position>
            <AltitudeMeters>627.4000244140625</AltitudeMeters>
            <DistanceMeters>3844.0299041524</DistanceMeters>
          </Trackpoint>
          <Trackpoint>
            <Time>2022-08-26T20:21:43.000Z</Time>
            <Position>
              <LatitudeDegrees>50.177006386220455169677734375</LatitudeDegrees>
              <LongitudeDegrees>16.9658395461738109588623046875</LongitudeDegrees>
            </Position>
            <AltitudeMeters>626.79998779296875</AltitudeMeters>
            <DistanceMeters>3845.9422798895</DistanceMeters>
          </Trackpoint>
          <Trackpoint>
            <Time>2022-08-26T20:21:45.000Z</Time>
            <Position>
              <LatitudeDegrees>50.17702239565551280975341796875</LatitudeDegrees>
              <LongitudeDegrees>16.96583694778382778167724609375</LongitudeDegrees>
            </Position>
            <AltitudeMeters>626.20001220703125</AltitudeMeters>
            <DistanceMeters>3847.7327203765</DistanceMeters>
          </Trackpoint>
          <Trackpoint>
            <Time>2022-08-26T20:21:49.000Z</Time>
            <Position>
              <LatitudeDegrees>50.177053995430469512939453125</LatitudeDegrees>
              <LongitudeDegrees>16.965838037431240081787109375</LongitudeDegrees>
            </Position>
            <AltitudeMeters>625</AltitudeMeters>
            <DistanceMeters>3851.2499927185</DistanceMeters>
          </Trackpoint>
          <Trackpoint>
            <Time>2022-08-26T20:21:52.000Z</Time>
            <Position>
              <LatitudeDegrees>50.17707084305584430694580078125</LatitudeDegrees>
              <LongitudeDegrees>16.96583636105060577392578125</LongitudeDegrees>
            </Position>
            <AltitudeMeters>623.79998779296875</AltitudeMeters>
            <DistanceMeters>3853.1290243547</DistanceMeters>
          </Trackpoint>
          <Trackpoint>
            <Time>2022-08-26T20:21:55.000Z</Time>
            <Position>
              <LatitudeDegrees>50.1770940609276294708251953125</LatitudeDegrees>
              <LongitudeDegrees>16.96584281511604785919189453125</LongitudeDegrees>
            </Position>
            <AltitudeMeters>622.5999755859375</AltitudeMeters>
            <DistanceMeters>3855.7538954614</DistanceMeters>
          </Trackpoint>
          <Trackpoint>
            <Time>2022-08-26T20:21:58.000Z</Time>
            <Position>
              <LatitudeDegrees>50.17711325548589229583740234375</LatitudeDegrees>
              <LongitudeDegrees>16.96584952063858509063720703125</LongitudeDegrees>
            </Position>
            <AltitudeMeters>621.5999755859375</AltitudeMeters>
            <DistanceMeters>3857.9415747147</DistanceMeters>
          </Trackpoint>
          <Trackpoint>
            <Time>2022-08-26T20:22:02.000Z</Time>
            <Position>
              <LatitudeDegrees>50.17713756300508975982666015625</LatitudeDegrees>
              <LongitudeDegrees>16.96584030054509639739990234375</LongitudeDegrees>
            </Position>
            <AltitudeMeters>620.5999755859375</AltitudeMeters>
            <DistanceMeters>3860.7250627403</DistanceMeters>
          </Trackpoint>
          <Trackpoint>
            <Time>2022-08-26T20:22:07.000Z</Time>
            <Position>
              <LatitudeDegrees>50.17717637121677398681640625</LatitudeDegrees>
              <LongitudeDegrees>16.96583879180252552032470703125</LongitudeDegrees>
            </Position>
            <AltitudeMeters>619.4000244140625</AltitudeMeters>
            <DistanceMeters>3865.0453830999</DistanceMeters>
          </Trackpoint>
          <Trackpoint>
            <Time>2022-08-26T20:22:12.000Z</Time>
            <Position>
              <LatitudeDegrees>50.17721383832395076751708984375</LatitudeDegrees>
              <LongitudeDegrees>16.9658053480088710784912109375</LongitudeDegrees>
            </Position>
            <AltitudeMeters>618.20001220703125</AltitudeMeters>
            <DistanceMeters>3869.8486991747</DistanceMeters>
          </Trackpoint>
          <Trackpoint>
            <Time>2022-08-26T20:22:15.000Z</Time>
            <Position>
              <LatitudeDegrees>50.17722976393997669219970703125</LatitudeDegrees>
              <LongitudeDegrees>16.9657872430980205535888671875</LongitudeDegrees>
            </Position>
            <AltitudeMeters>617.20001220703125</AltitudeMeters>
            <DistanceMeters>3872.040502238</DistanceMeters>
          </Trackpoint>
          <Trackpoint>
            <Time>2022-08-26T20:22:19.000Z</Time>
            <Position>
              <LatitudeDegrees>50.17724904231727123260498046875</LatitudeDegrees>
              <LongitudeDegrees>16.9657406397163867950439453125</LongitudeDegrees>
            </Position>
            <AltitudeMeters>617</AltitudeMeters>
            <DistanceMeters>3875.994116069</DistanceMeters>
          </Trackpoint>
          <Trackpoint>
            <Time>2022-08-26T20:22:25.000Z</Time>
            <Position>
              <LatitudeDegrees>50.17726798541843891143798828125</LatitudeDegrees>
              <LongitudeDegrees>16.96564458310604095458984375</LongitudeDegrees>
            </Position>
            <AltitudeMeters>617.20001220703125</AltitudeMeters>
            <DistanceMeters>3883.1583993204</DistanceMeters>
          </Trackpoint>
          <Trackpoint>
            <Time>2022-08-26T20:22:30.000Z</Time>
            <Position>
              <LatitudeDegrees>50.177277624607086181640625</LatitudeDegrees>
              <LongitudeDegrees>16.96557694114744663238525390625</LongitudeDegrees>
            </Position>
            <AltitudeMeters>618.20001220703125</AltitudeMeters>
            <DistanceMeters>3888.0979606928</DistanceMeters>
          </Trackpoint>
          <Trackpoint>
            <Time>2022-08-26T20:22:34.000Z</Time>
            <Position>
              <LatitudeDegrees>50.17729128710925579071044921875</LatitudeDegrees>
              <LongitudeDegrees>16.96555246599018573760986328125</LongitudeDegrees>
            </Position>
            <AltitudeMeters>619.20001220703125</AltitudeMeters>
            <DistanceMeters>3890.410060443</DistanceMeters>
          </Trackpoint>
          <Trackpoint>
            <Time>2022-08-26T20:22:36.000Z</Time>
            <Position>
              <LatitudeDegrees>50.17729011364281177520751953125</LatitudeDegrees>
              <LongitudeDegrees>16.9655424915254116058349609375</LongitudeDegrees>
            </Position>
            <AltitudeMeters>619.5999755859375</AltitudeMeters>
            <DistanceMeters>3891.1274964034</DistanceMeters>
          </Trackpoint>
          <Trackpoint>
            <Time>2022-08-26T20:22:39.000Z</Time>
            <Position>
              <LatitudeDegrees>50.1772754453122615814208984375</LatitudeDegrees>
              <LongitudeDegrees>16.96552924811840057373046875</LongitudeDegrees>
            </Position>
            <AltitudeMeters>620.20001220703125</AltitudeMeters>
            <DistanceMeters>3893.0137228265</DistanceMeters>
          </Trackpoint>
          <Trackpoint>
            <Time>2022-08-26T20:22:46.000Z</Time>
            <Position>
              <LatitudeDegrees>50.17728424631059169769287109375</LatitudeDegrees>
              <LongitudeDegrees>16.96553461253643035888671875</LongitudeDegrees>
            </Position>
            <AltitudeMeters>621.20001220703125</AltitudeMeters>
            <DistanceMeters>3894.063327193</DistanceMeters>
          </Trackpoint>
          <Trackpoint>
            <Time>2022-08-26T20:22:56.000Z</Time>
            <Position>
              <LatitudeDegrees>50.17727888189256191253662109375</LatitudeDegrees>
              <LongitudeDegrees>16.96553586982190608978271484375</LongitudeDegrees>
            </Position>
            <AltitudeMeters>620.5999755859375</AltitudeMeters>
            <DistanceMeters>3894.6643289049</DistanceMeters>
          </Trackpoint>
          <Trackpoint>
            <Time>2022-08-26T20:23:06.000Z</Time>
            <Position>
              <LatitudeDegrees>50.17725105397403240203857421875</LatitudeDegrees>
              <LongitudeDegrees>16.9655944593250751495361328125</LongitudeDegrees>
            </Position>
            <AltitudeMeters>620.4000244140625</AltitudeMeters>
            <DistanceMeters>3899.863948975</DistanceMeters>
          </Trackpoint>
          <Trackpoint>
            <Time>2022-08-26T20:23:15.000Z</Time>
            <Position>
              <LatitudeDegrees>50.1772682368755340576171875</LatitudeDegrees>
              <LongitudeDegrees>16.96565623395144939422607421875</LongitudeDegrees>
            </Position>
            <AltitudeMeters>619</AltitudeMeters>
            <DistanceMeters>3904.6644442708</DistanceMeters>
          </Trackpoint>
          <Trackpoint>
            <Time>2022-08-26T20:23:16.000Z</Time>
            <Position>
              <LatitudeDegrees>50.17727251164615154266357421875</LatitudeDegrees>
              <LongitudeDegrees>16.96565841324627399444580078125</LongitudeDegrees>
            </Position>
            <AltitudeMeters>619</AltitudeMeters>
            <DistanceMeters>3905.167278379</DistanceMeters>
          </Trackpoint>
          <Trackpoint>
            <Time>2022-08-26T20:23:19.000Z</Time>
            <Position>
              <LatitudeDegrees>50.17729346640408039093017578125</LatitudeDegrees>
              <LongitudeDegrees>16.9656809605658054351806640625</LongitudeDegrees>
            </Position>
            <AltitudeMeters>617.79998779296875</AltitudeMeters>
            <DistanceMeters>3907.9990106902</DistanceMeters>
          </Trackpoint>
          <Trackpoint>
            <Time>2022-08-26T20:23:23.000Z</Time>
            <Position>
              <LatitudeDegrees>50.1773089729249477386474609375</LatitudeDegrees>
              <LongitudeDegrees>16.96570032276213169097900390625</LongitudeDegrees>
            </Position>
            <AltitudeMeters>616.5999755859375</AltitudeMeters>
            <DistanceMeters>3910.2072319834</DistanceMeters>
          </Trackpoint>
          <Trackpoint>
            <Time>2022-08-26T20:23:25.000Z</Time>
            <Position>
              <LatitudeDegrees>50.17731240950524806976318359375</LatitudeDegrees>
              <LongitudeDegrees>16.9657151587307453155517578125</LongitudeDegrees>
            </Position>
            <AltitudeMeters>616.20001220703125</AltitudeMeters>
            <DistanceMeters>3911.3316032309</DistanceMeters>
          </Trackpoint>
          <Trackpoint>
            <Time>2022-08-26T20:23:27.000Z</Time>
            <Position>
              <LatitudeDegrees>50.1773116551339626312255859375</LatitudeDegrees>
              <LongitudeDegrees>16.9657285697758197784423828125</LongitudeDegrees>
            </Position>
            <AltitudeMeters>615.5999755859375</AltitudeMeters>
            <DistanceMeters>3912.291326002</DistanceMeters>
          </Trackpoint>
          <Trackpoint>
            <Time>2022-08-26T20:23:31.000Z</Time>
            <Position>
              <LatitudeDegrees>50.1773173548281192779541015625</LatitudeDegrees>
              <LongitudeDegrees>16.965737454593181610107421875</LongitudeDegrees>
            </Position>
            <AltitudeMeters>614.4000244140625</AltitudeMeters>
            <DistanceMeters>3913.1878062324</DistanceMeters>
          </Trackpoint>
          <Trackpoint>
            <Time>2022-08-26T20:23:34.000Z</Time>
            <Position>
              <LatitudeDegrees>50.17732397653162479400634765625</LatitudeDegrees>
              <LongitudeDegrees>16.96574055589735507965087890625</LongitudeDegrees>
            </Position>
            <AltitudeMeters>613.79998779296875</AltitudeMeters>
            <DistanceMeters>3913.9598069094</DistanceMeters>
          </Trackpoint>
          <Trackpoint>
            <Time>2022-08-26T20:23:36.000Z</Time>
            <Position>
              <LatitudeDegrees>50.17733101733028888702392578125</LatitudeDegrees>
              <LongitudeDegrees>16.96574608795344829559326171875</LongitudeDegrees>
            </Position>
            <AltitudeMeters>613.4000244140625</AltitudeMeters>
            <DistanceMeters>3914.8410484053</DistanceMeters>
          </Trackpoint>
          <Trackpoint>
            <Time>2022-08-26T20:23:46.000Z</Time>
            <Position>
              <LatitudeDegrees>50.17734224908053874969482421875</LatitudeDegrees>
              <LongitudeDegrees>16.9657178409397602081298828125</LongitudeDegrees>
            </Position>
            <AltitudeMeters>612.4000244140625</AltitudeMeters>
            <DistanceMeters>3917.2110078033</DistanceMeters>
          </Trackpoint>
          <Trackpoint>
            <Time>2022-08-26T20:23:57.000Z</Time>
            <Position>
              <LatitudeDegrees>50.17738348804414272308349609375</LatitudeDegrees>
              <LongitudeDegrees>16.96571691893041133880615234375</LongitudeDegrees>
            </Position>
            <AltitudeMeters>612.20001220703125</AltitudeMeters>
            <DistanceMeters>3921.8018898994</DistanceMeters>
          </Trackpoint>
          <Trackpoint>
            <Time>2022-08-26T20:24:02.000Z</Time>
            <Position>
              <LatitudeDegrees>50.17741014249622821807861328125</LatitudeDegrees>
              <LongitudeDegrees>16.965714991092681884765625</LongitudeDegrees>
            </Position>
            <AltitudeMeters>610.79998779296875</AltitudeMeters>
            <DistanceMeters>3924.7736595342</DistanceMeters>
          </Trackpoint>
          <Trackpoint>
            <Time>2022-08-26T20:24:06.000Z</Time>
            <Position>
              <LatitudeDegrees>50.1774518005549907684326171875</LatitudeDegrees>
              <LongitudeDegrees>16.9657228700816631317138671875</LongitudeDegrees>
            </Position>
            <AltitudeMeters>609.5999755859375</AltitudeMeters>
            <DistanceMeters>3929.4435240517</DistanceMeters>
          </Trackpoint>
          <Trackpoint>
            <Time>2022-08-26T20:24:09.000Z</Time>
            <Position>
              <LatitudeDegrees>50.1774900220334529876708984375</LatitudeDegrees>
              <LongitudeDegrees>16.9657228700816631317138671875</LongitudeDegrees>
            </Position>
            <AltitudeMeters>608.79998779296875</AltitudeMeters>
            <DistanceMeters>3933.697495513</DistanceMeters>
          </Trackpoint>
          <Trackpoint>
            <Time>2022-08-26T20:24:10.000Z</Time>
            <Position>
              <LatitudeDegrees>50.1775044389069080352783203125</LatitudeDegrees>
              <LongitudeDegrees>16.965721361339092254638671875</LongitudeDegrees>
            </Position>
            <AltitudeMeters>608.5999755859375</AltitudeMeters>
            <DistanceMeters>3935.3045430739</DistanceMeters>
          </Trackpoint>
          <Trackpoint>
            <Time>2022-08-26T20:24:13.000Z</Time>
            <Position>
              <LatitudeDegrees>50.17753310501575469970703125</LatitudeDegrees>
              <LongitudeDegrees>16.965714655816555023193359375</LongitudeDegrees>
            </Position>
            <AltitudeMeters>607.20001220703125</AltitudeMeters>
            <DistanceMeters>3938.5298567119</DistanceMeters>
          </Trackpoint>
          <Trackpoint>
            <Time>2022-08-26T20:24:18.000Z</Time>
            <Position>
              <LatitudeDegrees>50.17758733592927455902099609375</LatitudeDegrees>
              <LongitudeDegrees>16.96570619009435176849365234375</LongitudeDegrees>
            </Position>
            <AltitudeMeters>606</AltitudeMeters>
            <DistanceMeters>3944.5967003382</DistanceMeters>
          </Trackpoint>
          <Trackpoint>
            <Time>2022-08-26T20:24:20.000Z</Time>
            <Position>
              <LatitudeDegrees>50.17759873531758785247802734375</LatitudeDegrees>
              <LongitudeDegrees>16.9657040946185588836669921875</LongitudeDegrees>
            </Position>
            <AltitudeMeters>605.5999755859375</AltitudeMeters>
            <DistanceMeters>3945.8716174962</DistanceMeters>
          </Trackpoint>
          <Trackpoint>
            <Time>2022-08-26T20:24:24.000Z</Time>
            <Position>
              <LatitudeDegrees>50.17763360403478145599365234375</LatitudeDegrees>
              <LongitudeDegrees>16.96570501662790775299072265625</LongitudeDegrees>
            </Position>
            <AltitudeMeters>604.79998779296875</AltitudeMeters>
            <DistanceMeters>3949.7526183348</DistanceMeters>
          </Trackpoint>
          <Trackpoint>
            <Time>2022-08-26T20:24:31.000Z</Time>
            <Position>
              <LatitudeDegrees>50.17769278027117252349853515625</LatitudeDegrees>
              <LongitudeDegrees>16.96566947735846042633056640625</LongitudeDegrees>
            </Position>
            <AltitudeMeters>604</AltitudeMeters>
            <DistanceMeters>3956.8089517673</DistanceMeters>
          </Trackpoint>
          <Trackpoint>
            <Time>2022-08-26T20:24:38.000Z</Time>
            <Position>
              <LatitudeDegrees>50.17773921601474285125732421875</LatitudeDegrees>
              <LongitudeDegrees>16.96564483456313610076904296875</LongitudeDegrees>
            </Position>
            <AltitudeMeters>603.79998779296875</AltitudeMeters>
            <DistanceMeters>3962.2669937412</DistanceMeters>
          </Trackpoint>
          <Trackpoint>
            <Time>2022-08-26T20:24:43.000Z</Time>
            <Position>
              <LatitudeDegrees>50.1777907647192478179931640625</LatitudeDegrees>
              <LongitudeDegrees>16.965595968067646026611328125</LongitudeDegrees>
            </Position>
            <AltitudeMeters>602.5999755859375</AltitudeMeters>
            <DistanceMeters>3968.9783290258</DistanceMeters>
          </Trackpoint>
          <Trackpoint>
            <Time>2022-08-26T20:24:46.000Z</Time>
            <Position>
              <LatitudeDegrees>50.1778279803693294525146484375</LatitudeDegrees>
              <LongitudeDegrees>16.96556436829268932342529296875</LongitudeDegrees>
            </Position>
            <AltitudeMeters>601.5999755859375</AltitudeMeters>
            <DistanceMeters>3973.6934163214</DistanceMeters>
          </Trackpoint>
          <Trackpoint>
            <Time>2022-08-26T20:24:49.000Z</Time>
            <Position>
              <LatitudeDegrees>50.17785388045012950897216796875</LatitudeDegrees>
              <LongitudeDegrees>16.96553939022123813629150390625</LongitudeDegrees>
            </Position>
            <AltitudeMeters>600.4000244140625</AltitudeMeters>
            <DistanceMeters>3977.0798889824</DistanceMeters>
          </Trackpoint>
          <Trackpoint>
            <Time>2022-08-26T20:24:52.000Z</Time>
            <Position>
              <LatitudeDegrees>50.1778755895793437957763671875</LatitudeDegrees>
              <LongitudeDegrees>16.9655072875320911407470703125</LongitudeDegrees>
            </Position>
            <AltitudeMeters>599.20001220703125</AltitudeMeters>
            <DistanceMeters>3980.4071812329</DistanceMeters>
          </Trackpoint>
          <Trackpoint>
            <Time>2022-08-26T20:24:54.000Z</Time>
            <Position>
              <LatitudeDegrees>50.1778876595199108123779296875</LatitudeDegrees>
              <LongitudeDegrees>16.965491361916065216064453125</LongitudeDegrees>
            </Position>
            <AltitudeMeters>598.5999755859375</AltitudeMeters>
            <DistanceMeters>3982.1645332591</DistanceMeters>
          </Trackpoint>
          <Trackpoint>
            <Time>2022-08-26T20:24:56.000Z</Time>
            <Position>
              <LatitudeDegrees>50.17789998091757297515869140625</LatitudeDegrees>
              <LongitudeDegrees>16.96547300554811954498291015625</LongitudeDegrees>
            </Position>
            <AltitudeMeters>597.79998779296875</AltitudeMeters>
            <DistanceMeters>3984.0603102567</DistanceMeters>
          </Trackpoint>
          <Trackpoint>
            <Time>2022-08-26T20:25:00.000Z</Time>
            <Position>
              <LatitudeDegrees>50.17792680300772190093994140625</LatitudeDegrees>
              <LongitudeDegrees>16.965426988899707794189453125</LongitudeDegrees>
            </Position>
            <AltitudeMeters>596.4000244140625</AltitudeMeters>
            <DistanceMeters>3988.4961344836</DistanceMeters>
          </Trackpoint>
          <Trackpoint>
            <Time>2022-08-26T20:25:03.000Z</Time>
            <Position>
              <LatitudeDegrees>50.177939794957637786865234375</LatitudeDegrees>
              <LongitudeDegrees>16.96540561504662036895751953125</LongitudeDegrees>
            </Position>
            <AltitudeMeters>595.20001220703125</AltitudeMeters>
            <DistanceMeters>3990.5953432165</DistanceMeters>
          </Trackpoint>
          <Trackpoint>
            <Time>2022-08-26T20:25:05.000Z</Time>
            <Position>
              <LatitudeDegrees>50.177948512136936187744140625</LatitudeDegrees>
              <LongitudeDegrees>16.96539404802024364471435546875</LongitudeDegrees>
            </Position>
            <AltitudeMeters>594.79998779296875</AltitudeMeters>
            <DistanceMeters>3991.8667140057</DistanceMeters>
          </Trackpoint>
          <Trackpoint>
            <Time>2022-08-26T20:25:07.000Z</Time>
            <Position>
              <LatitudeDegrees>50.177960582077503204345703125</LatitudeDegrees>
              <LongitudeDegrees>16.96538751013576984405517578125</LongitudeDegrees>
            </Position>
            <AltitudeMeters>593.79998779296875</AltitudeMeters>
            <DistanceMeters>3993.2889436367</DistanceMeters>
          </Trackpoint>
          <Trackpoint>
            <Time>2022-08-26T20:25:12.000Z</Time>
            <Position>
              <LatitudeDegrees>50.177988074719905853271484375</LatitudeDegrees>
              <LongitudeDegrees>16.96537845768034458160400390625</LongitudeDegrees>
            </Position>
            <AltitudeMeters>592.5999755859375</AltitudeMeters>
            <DistanceMeters>3996.4147303717</DistanceMeters>
          </Trackpoint>
          <Trackpoint>
            <Time>2022-08-26T20:25:15.000Z</Time>
            <Position>
              <LatitudeDegrees>50.17801313661038875579833984375</LatitudeDegrees>
              <LongitudeDegrees>16.96536831557750701904296875</LongitudeDegrees>
            </Position>
            <AltitudeMeters>592.20001220703125</AltitudeMeters>
            <DistanceMeters>3999.2970333274</DistanceMeters>
          </Trackpoint>
          <Trackpoint>
            <Time>2022-08-26T20:25:23.000Z</Time>
            <Position>
              <LatitudeDegrees>50.17806409858167171478271484375</LatitudeDegrees>
              <LongitudeDegrees>16.96535666473209857940673828125</LongitudeDegrees>
            </Position>
            <AltitudeMeters>591.5999755859375</AltitudeMeters>
            <DistanceMeters>4005.0302242588</DistanceMeters>
          </Trackpoint>
          <Trackpoint>
            <Time>2022-08-26T20:25:25.000Z</Time>
            <Position>
              <LatitudeDegrees>50.17807348631322383880615234375</LatitudeDegrees>
              <LongitudeDegrees>16.96536186151206493377685546875</LongitudeDegrees>
            </Position>
            <AltitudeMeters>591.5999755859375</AltitudeMeters>
            <DistanceMeters>4006.1384166592</DistanceMeters>
          </Trackpoint>
          <Trackpoint>
            <Time>2022-08-26T20:25:35.000Z</Time>
            <Position>
              <LatitudeDegrees>50.17814590595662593841552734375</LatitudeDegrees>
              <LongitudeDegrees>16.96536404080688953399658203125</LongitudeDegrees>
            </Position>
            <AltitudeMeters>591</AltitudeMeters>
            <DistanceMeters>4014.2005807759</DistanceMeters>
          </Trackpoint>
          <Trackpoint>
            <Time>2022-08-26T20:25:37.000Z</Time>
            <Position>
              <LatitudeDegrees>50.17816417850553989410400390625</LatitudeDegrees>
              <LongitudeDegrees>16.9653658010065555572509765625</LongitudeDegrees>
            </Position>
            <AltitudeMeters>590.4000244140625</AltitudeMeters>
            <DistanceMeters>4016.2386767413</DistanceMeters>
          </Trackpoint>
          <Trackpoint>
            <Time>2022-08-26T20:25:43.000Z</Time>
            <Position>
              <LatitudeDegrees>50.17820902168750762939453125</LatitudeDegrees>
              <LongitudeDegrees>16.965364627540111541748046875</LongitudeDegrees>
            </Position>
            <AltitudeMeters>589.4000244140625</AltitudeMeters>
            <DistanceMeters>4021.2309719033</DistanceMeters>
          </Trackpoint>
          <Trackpoint>
            <Time>2022-08-26T20:25:52.000Z</Time>
            <Position>
              <LatitudeDegrees>50.1783044077455997467041015625</LatitudeDegrees>
              <LongitudeDegrees>16.96542891673743724822998046875</LongitudeDegrees>
            </Position>
            <AltitudeMeters>588.4000244140625</AltitudeMeters>
            <DistanceMeters>4032.7945946913</DistanceMeters>
          </Trackpoint>
          <Trackpoint>
            <Time>2022-08-26T20:25:53.000Z</Time>
            <Position>
              <LatitudeDegrees>50.17831538803875446319580078125</LatitudeDegrees>
              <LongitudeDegrees>16.96543679572641849517822265625</LongitudeDegrees>
            </Position>
            <AltitudeMeters>588.20001220703125</AltitudeMeters>
            <DistanceMeters>4034.1384753738</DistanceMeters>
          </Trackpoint>
          <Trackpoint>
            <Time>2022-08-26T20:26:03.000Z</Time>
            <Position>
              <LatitudeDegrees>50.17841345630586147308349609375</LatitudeDegrees>
              <LongitudeDegrees>16.96551055647432804107666015625</LongitudeDegrees>
            </Position>
            <AltitudeMeters>587.20001220703125</AltitudeMeters>
            <DistanceMeters>4046.2535429559</DistanceMeters>
          </Trackpoint>
          <Trackpoint>
            <Time>2022-08-26T20:26:13.000Z</Time>
            <Position>
              <LatitudeDegrees>50.17852862365543842315673828125</LatitudeDegrees>
              <LongitudeDegrees>16.9656390510499477386474609375</LongitudeDegrees>
            </Position>
            <AltitudeMeters>586.4000244140625</AltitudeMeters>
            <DistanceMeters>4062.007929048</DistanceMeters>
          </Trackpoint>
          <Trackpoint>
            <Time>2022-08-26T20:26:14.000Z</Time>
            <Position>
              <LatitudeDegrees>50.1785407774150371551513671875</LatitudeDegrees>
              <LongitudeDegrees>16.96564433164894580841064453125</LongitudeDegrees>
            </Position>
            <AltitudeMeters>586.20001220703125</AltitudeMeters>
            <DistanceMeters>4063.4109816717</DistanceMeters>
          </Trackpoint>
          <Trackpoint>
            <Time>2022-08-26T20:26:22.000Z</Time>
            <Position>
              <LatitudeDegrees>50.1786192320287227630615234375</LatitudeDegrees>
              <LongitudeDegrees>16.96571373380720615386962890625</LongitudeDegrees>
            </Position>
            <AltitudeMeters>585.20001220703125</AltitudeMeters>
            <DistanceMeters>4073.4465405789</DistanceMeters>
          </Trackpoint>
          <Trackpoint>
            <Time>2022-08-26T20:26:24.000Z</Time>
            <Position>
              <LatitudeDegrees>50.178641863167285919189453125</LatitudeDegrees>
              <LongitudeDegrees>16.96573401801288127899169921875</LongitudeDegrees>
            </Position>
            <AltitudeMeters>584.79998779296875</AltitudeMeters>
            <DistanceMeters>4076.3506912979</DistanceMeters>
          </Trackpoint>
          <Trackpoint>
            <Time>2022-08-26T20:26:30.000Z</Time>
            <Position>
              <LatitudeDegrees>50.178731717169284820556640625</LatitudeDegrees>
              <LongitudeDegrees>16.96581213735044002532958984375</LongitudeDegrees>
            </Position>
            <AltitudeMeters>583.79998779296875</AltitudeMeters>
            <DistanceMeters>4087.7973680733</DistanceMeters>
          </Trackpoint>
          <Trackpoint>
            <Time>2022-08-26T20:26:32.000Z</Time>
            <Position>
              <LatitudeDegrees>50.17875510267913341522216796875</LatitudeDegrees>
              <LongitudeDegrees>16.9658301584422588348388671875</LongitudeDegrees>
            </Position>
            <AltitudeMeters>583.5999755859375</AltitudeMeters>
            <DistanceMeters>4090.7015187923</DistanceMeters>
          </Trackpoint>
          <Trackpoint>
            <Time>2022-08-26T20:26:36.000Z</Time>
            <Position>
              <LatitudeDegrees>50.1787798292934894561767578125</LatitudeDegrees>
              <LongitudeDegrees>16.96585136465728282928466796875</LongitudeDegrees>
            </Position>
            <AltitudeMeters>582.79998779296875</AltitudeMeters>
            <DistanceMeters>4093.841716792</DistanceMeters>
          </Trackpoint>
          <Trackpoint>
            <Time>2022-08-26T20:26:41.000Z</Time>
            <Position>
              <LatitudeDegrees>50.17881846986711025238037109375</LatitudeDegrees>
              <LongitudeDegrees>16.96589159779250621795654296875</LongitudeDegrees>
            </Position>
            <AltitudeMeters>582</AltitudeMeters>
            <DistanceMeters>4099.0117290041</DistanceMeters>
          </Trackpoint>
          <Trackpoint>
            <Time>2022-08-26T20:26:51.000Z</Time>
            <Position>
              <LatitudeDegrees>50.178871192038059234619140625</LatitudeDegrees>
              <LongitudeDegrees>16.96599519811570644378662109375</LongitudeDegrees>
            </Position>
            <AltitudeMeters>581.79998779296875</AltitudeMeters>
            <DistanceMeters>4108.443818546</DistanceMeters>
          </Trackpoint>
          <Trackpoint>
            <Time>2022-08-26T20:27:02.000Z</Time>
            <Position>
              <LatitudeDegrees>50.17892207019031047821044921875</LatitudeDegrees>
              <LongitudeDegrees>16.96615093387663364410400390625</LongitudeDegrees>
            </Position>
            <AltitudeMeters>582</AltitudeMeters>
            <DistanceMeters>4120.9053683937</DistanceMeters>
          </Trackpoint>
          <Trackpoint>
            <Time>2022-08-26T20:27:12.000Z</Time>
            <Position>
              <LatitudeDegrees>50.1789830066263675689697265625</LatitudeDegrees>
              <LongitudeDegrees>16.96623642928898334503173828125</LongitudeDegrees>
            </Position>
            <AltitudeMeters>582.4000244140625</AltitudeMeters>
            <DistanceMeters>4130.0239726672</DistanceMeters>
          </Trackpoint>
          <Trackpoint>
            <Time>2022-08-26T20:27:22.000Z</Time>
            <Position>
              <LatitudeDegrees>50.17898543737828731536865234375</LatitudeDegrees>
              <LongitudeDegrees>16.96637053973972797393798828125</LongitudeDegrees>
            </Position>
            <AltitudeMeters>582.79998779296875</AltitudeMeters>
            <DistanceMeters>4139.5872678223</DistanceMeters>
          </Trackpoint>
          <Trackpoint>
            <Time>2022-08-26T20:27:26.000Z</Time>
            <Position>
              <LatitudeDegrees>50.1789679192006587982177734375</LatitudeDegrees>
              <LongitudeDegrees>16.96641814894974231719970703125</LongitudeDegrees>
            </Position>
            <AltitudeMeters>583</AltitudeMeters>
            <DistanceMeters>4143.5018609973</DistanceMeters>
          </Trackpoint>
          <Trackpoint>
            <Time>2022-08-26T20:27:30.000Z</Time>
            <Position>
              <LatitudeDegrees>50.17896674573421478271484375</LatitudeDegrees>
              <LongitudeDegrees>16.96646810509264469146728515625</LongitudeDegrees>
            </Position>
            <AltitudeMeters>583</AltitudeMeters>
            <DistanceMeters>4147.0650460163</DistanceMeters>
          </Trackpoint>
          <Trackpoint>
            <Time>2022-08-26T20:27:33.000Z</Time>
            <Position>
              <LatitudeDegrees>50.17897286452353000640869140625</LatitudeDegrees>
              <LongitudeDegrees>16.9665209949016571044921875</LongitudeDegrees>
            </Position>
            <AltitudeMeters>583.20001220703125</AltitudeMeters>
            <DistanceMeters>4150.8968738175</DistanceMeters>
          </Trackpoint>
          <Trackpoint>
            <Time>2022-08-26T20:27:39.000Z</Time>
            <Position>
              <LatitudeDegrees>50.1790044642984867095947265625</LatitudeDegrees>
              <LongitudeDegrees>16.96662249974906444549560546875</LongitudeDegrees>
            </Position>
            <AltitudeMeters>583.4000244140625</AltitudeMeters>
            <DistanceMeters>4158.9416583313</DistanceMeters>
          </Trackpoint>
          <Trackpoint>
            <Time>2022-08-26T20:27:46.000Z</Time>
            <Position>
              <LatitudeDegrees>50.17904209904372692108154296875</LatitudeDegrees>
              <LongitudeDegrees>16.9667327217757701873779296875</LongitudeDegrees>
            </Position>
            <AltitudeMeters>583.5999755859375</AltitudeMeters>
            <DistanceMeters>4167.8448044621</DistanceMeters>
          </Trackpoint>
          <Trackpoint>
            <Time>2022-08-26T20:27:53.000Z</Time>
            <Position>
              <LatitudeDegrees>50.17909674905240535736083984375</LatitudeDegrees>
              <LongitudeDegrees>16.96687160991132259368896484375</LongitudeDegrees>
            </Position>
            <AltitudeMeters>584.20001220703125</AltitudeMeters>
            <DistanceMeters>4179.4637391308</DistanceMeters>
          </Trackpoint>
          <Trackpoint>
            <Time>2022-08-26T20:27:55.000Z</Time>
            <Position>
              <LatitudeDegrees>50.17911300994455814361572265625</LatitudeDegrees>
              <LongitudeDegrees>16.966914944350719451904296875</LongitudeDegrees>
            </Position>
            <AltitudeMeters>584.20001220703125</AltitudeMeters>
            <DistanceMeters>4183.0446201049</DistanceMeters>
          </Trackpoint>
          <Trackpoint>
            <Time>2022-08-26T20:27:58.000Z</Time>
            <Position>
              <LatitudeDegrees>50.17913949675858020782470703125</LatitudeDegrees>
              <LongitudeDegrees>16.966977305710315704345703125</LongitudeDegrees>
            </Position>
            <AltitudeMeters>584.4000244140625</AltitudeMeters>
            <DistanceMeters>4188.3788277194</DistanceMeters>
          </Trackpoint>
          <Trackpoint>
            <Time>2022-08-26T20:28:05.000Z</Time>
            <Position>
              <LatitudeDegrees>50.179173611104488372802734375</LatitudeDegrees>
              <LongitudeDegrees>16.96712725795805454254150390625</LongitudeDegrees>
            </Position>
            <AltitudeMeters>585</AltitudeMeters>
            <DistanceMeters>4199.7208940665</DistanceMeters>
          </Trackpoint>
          <Trackpoint>
            <Time>2022-08-26T20:28:10.000Z</Time>
            <Position>
              <LatitudeDegrees>50.17919967882335186004638671875</LatitudeDegrees>
              <LongitudeDegrees>16.9672212190926074981689453125</LongitudeDegrees>
            </Position>
            <AltitudeMeters>585.4000244140625</AltitudeMeters>
            <DistanceMeters>4207.0200344966</DistanceMeters>
          </Trackpoint>
          <Trackpoint>
            <Time>2022-08-26T20:28:11.000Z</Time>
            <Position>
              <LatitudeDegrees>50.17920319922268390655517578125</LatitudeDegrees>
              <LongitudeDegrees>16.96724359877407550811767578125</LongitudeDegrees>
            </Position>
            <AltitudeMeters>585.4000244140625</AltitudeMeters>
            <DistanceMeters>4208.6604499258</DistanceMeters>
          </Trackpoint>
          <Trackpoint>
            <Time>2022-08-26T20:28:14.000Z</Time>
            <Position>
              <LatitudeDegrees>50.17921208404004573822021484375</LatitudeDegrees>
              <LongitudeDegrees>16.96729950606822967529296875</LongitudeDegrees>
            </Position>
            <AltitudeMeters>585.5999755859375</AltitudeMeters>
            <DistanceMeters>4212.765340015</DistanceMeters>
          </Trackpoint>
          <Trackpoint>
            <Time>2022-08-26T20:28:17.000Z</Time>
            <Position>
              <LatitudeDegrees>50.17923102714121341705322265625</LatitudeDegrees>
              <LongitudeDegrees>16.96734652854502201080322265625</LongitudeDegrees>
            </Position>
            <AltitudeMeters>585.79998779296875</AltitudeMeters>
            <DistanceMeters>4216.7246597428</DistanceMeters>
          </Trackpoint>
          <Trackpoint>
            <Time>2022-08-26T20:28:23.000Z</Time>
            <Position>
              <LatitudeDegrees>50.179262794554233551025390625</LatitudeDegrees>
              <LongitudeDegrees>16.96746018715202808380126953125</LongitudeDegrees>
            </Position>
            <AltitudeMeters>586</AltitudeMeters>
            <DistanceMeters>4225.5636767353</DistanceMeters>
          </Trackpoint>
          <Trackpoint>
            <Time>2022-08-26T20:28:26.000Z</Time>
            <Position>
              <LatitudeDegrees>50.17926044762134552001953125</LatitudeDegrees>
              <LongitudeDegrees>16.96751433424651622772216796875</LongitudeDegrees>
            </Position>
            <AltitudeMeters>586</AltitudeMeters>
            <DistanceMeters>4229.4330263891</DistanceMeters>
          </Trackpoint>
          <Trackpoint>
            <Time>2022-08-26T20:28:27.000Z</Time>
            <Position>
              <LatitudeDegrees>50.17926312983036041259765625</LatitudeDegrees>
              <LongitudeDegrees>16.967537887394428253173828125</LongitudeDegrees>
            </Position>
            <AltitudeMeters>586.20001220703125</AltitudeMeters>
            <DistanceMeters>4231.1382198136</DistanceMeters>
          </Trackpoint>
          <Trackpoint>
            <Time>2022-08-26T20:28:28.000Z</Time>
            <Position>
              <LatitudeDegrees>50.17926254309713840484619140625</LatitudeDegrees>
              <LongitudeDegrees>16.967560350894927978515625</LongitudeDegrees>
            </Position>
            <AltitudeMeters>586.20001220703125</AltitudeMeters>
            <DistanceMeters>4232.7396384691</DistanceMeters>
          </Trackpoint>
          <Trackpoint>
            <Time>2022-08-26T20:28:30.000Z</Time>
            <Position>
              <LatitudeDegrees>50.17927008680999279022216796875</LatitudeDegrees>
              <LongitudeDegrees>16.967592202126979827880859375</LongitudeDegrees>
            </Position>
            <AltitudeMeters>586.4000244140625</AltitudeMeters>
            <DistanceMeters>4235.1586236976</DistanceMeters>
          </Trackpoint>
          <Trackpoint>
            <Time>2022-08-26T20:28:32.000Z</Time>
            <Position>
              <LatitudeDegrees>50.1792720146477222442626953125</LatitudeDegrees>
              <LongitudeDegrees>16.9676305912435054779052734375</LongitudeDegrees>
            </Position>
            <AltitudeMeters>586.4000244140625</AltitudeMeters>
            <DistanceMeters>4237.9045504684</DistanceMeters>
          </Trackpoint>
          <Trackpoint>
            <Time>2022-08-26T20:28:34.000Z</Time>
            <Position>
              <LatitudeDegrees>50.179274193942546844482421875</LatitudeDegrees>
              <LongitudeDegrees>16.96765950880944728851318359375</LongitudeDegrees>
            </Position>
            <AltitudeMeters>586.5999755859375</AltitudeMeters>
            <DistanceMeters>4239.9821395857</DistanceMeters>
          </Trackpoint>
          <Trackpoint>
            <Time>2022-08-26T20:28:38.000Z</Time>
            <Position>
              <LatitudeDegrees>50.1792691648006439208984375</LatitudeDegrees>
              <LongitudeDegrees>16.9677264802157878875732421875</LongitudeDegrees>
            </Position>
            <AltitudeMeters>587</AltitudeMeters>
            <DistanceMeters>4244.7882747839</DistanceMeters>
          </Trackpoint>
          <Trackpoint>
            <Time>2022-08-26T20:28:40.000Z</Time>
            <Position>
              <LatitudeDegrees>50.17926673404872417449951171875</LatitudeDegrees>
              <LongitudeDegrees>16.96776428259909152984619140625</LongitudeDegrees>
            </Position>
            <AltitudeMeters>587</AltitudeMeters>
            <DistanceMeters>4247.4961193276</DistanceMeters>
          </Trackpoint>
          <Trackpoint>
            <Time>2022-08-26T20:28:41.000Z</Time>
            <Position>
              <LatitudeDegrees>50.17925952561199665069580078125</LatitudeDegrees>
              <LongitudeDegrees>16.96778004057705402374267578125</LongitudeDegrees>
            </Position>
            <AltitudeMeters>587</AltitudeMeters>
            <DistanceMeters>4248.8797291736</DistanceMeters>
          </Trackpoint>
          <Trackpoint>
            <Time>2022-08-26T20:28:44.000Z</Time>
            <Position>
              <LatitudeDegrees>50.1792552508413791656494140625</LatitudeDegrees>
              <LongitudeDegrees>16.96782119572162628173828125</LongitudeDegrees>
            </Position>
            <AltitudeMeters>587.20001220703125</AltitudeMeters>
            <DistanceMeters>4251.8514988084</DistanceMeters>
          </Trackpoint>
          <Trackpoint>
            <Time>2022-08-26T20:28:46.000Z</Time>
            <Position>
              <LatitudeDegrees>50.17924779094755649566650390625</LatitudeDegrees>
              <LongitudeDegrees>16.9678451679646968841552734375</LongitudeDegrees>
            </Position>
            <AltitudeMeters>587.20001220703125</AltitudeMeters>
            <DistanceMeters>4253.7520330958</DistanceMeters>
          </Trackpoint>
          <Trackpoint>
            <Time>2022-08-26T20:28:51.000Z</Time>
            <Position>
              <LatitudeDegrees>50.1792223937809467315673828125</LatitudeDegrees>
              <LongitudeDegrees>16.96792337112128734588623046875</LongitudeDegrees>
            </Position>
            <AltitudeMeters>587.4000244140625</AltitudeMeters>
            <DistanceMeters>4260.0021619502</DistanceMeters>
          </Trackpoint>
          <Trackpoint>
            <Time>2022-08-26T20:29:02.000Z</Time>
            <Position>
              <LatitudeDegrees>50.17915139906108379364013671875</LatitudeDegrees>
              <LongitudeDegrees>16.96814280934631824493408203125</LongitudeDegrees>
            </Position>
            <AltitudeMeters>588</AltitudeMeters>
            <DistanceMeters>4277.5255106449</DistanceMeters>
          </Trackpoint>
          <Trackpoint>
            <Time>2022-08-26T20:29:08.000Z</Time>
            <Position>
              <LatitudeDegrees>50.17912960611283779144287109375</LatitudeDegrees>
              <LongitudeDegrees>16.96824355982244014739990234375</LongitudeDegrees>
            </Position>
            <AltitudeMeters>588.20001220703125</AltitudeMeters>
            <DistanceMeters>4285.1050453494</DistanceMeters>
          </Trackpoint>
          <Trackpoint>
            <Time>2022-08-26T20:29:11.000Z</Time>
            <Position>
              <LatitudeDegrees>50.1791216433048248291015625</LatitudeDegrees>
              <LongitudeDegrees>16.9682890735566616058349609375</LongitudeDegrees>
            </Position>
            <AltitudeMeters>588.4000244140625</AltitudeMeters>
            <DistanceMeters>4288.4674337428</DistanceMeters>
          </Trackpoint>
          <Trackpoint>
            <Time>2022-08-26T20:29:22.000Z</Time>
            <Position>
              <LatitudeDegrees>50.17908467911183834075927734375</LatitudeDegrees>
              <LongitudeDegrees>16.9684791751205921173095703125</LongitudeDegrees>
            </Position>
            <AltitudeMeters>588.5999755859375</AltitudeMeters>
            <DistanceMeters>4302.6283273442</DistanceMeters>
          </Trackpoint>
          <Trackpoint>
            <Time>2022-08-26T20:29:32.000Z</Time>
            <Position>
              <LatitudeDegrees>50.17903556115925312042236328125</LatitudeDegrees>
              <LongitudeDegrees>16.96864689700305461883544921875</LongitudeDegrees>
            </Position>
            <AltitudeMeters>589.20001220703125</AltitudeMeters>
            <DistanceMeters>4315.7739948019</DistanceMeters>
          </Trackpoint>
          <Trackpoint>
            <Time>2022-08-26T20:29:33.000Z</Time>
            <Position>
              <LatitudeDegrees>50.17902600578963756561279296875</LatitudeDegrees>
              <LongitudeDegrees>16.9686783291399478912353515625</LongitudeDegrees>
            </Position>
            <AltitudeMeters>589.20001220703125</AltitudeMeters>
            <DistanceMeters>4318.255629774</DistanceMeters>
          </Trackpoint>
          <Trackpoint>
            <Time>2022-08-26T20:29:38.000Z</Time>
            <Position>
              <LatitudeDegrees>50.1790172047913074493408203125</LatitudeDegrees>
              <LongitudeDegrees>16.96878050453960895538330078125</LongitudeDegrees>
            </Position>
            <AltitudeMeters>589.4000244140625</AltitudeMeters>
            <DistanceMeters>4325.6040892816</DistanceMeters>
          </Trackpoint>
          <Trackpoint>
            <Time>2022-08-26T20:29:39.000Z</Time>
            <Position>
              <LatitudeDegrees>50.1790148578584194183349609375</LatitudeDegrees>
              <LongitudeDegrees>16.96880280040204524993896484375</LongitudeDegrees>
            </Position>
            <AltitudeMeters>589.4000244140625</AltitudeMeters>
            <DistanceMeters>4327.2111368425</DistanceMeters>
          </Trackpoint>
          <Trackpoint>
            <Time>2022-08-26T20:29:41.000Z</Time>
            <Position>
              <LatitudeDegrees>50.17901008017361164093017578125</LatitudeDegrees>
              <LongitudeDegrees>16.968835406005382537841796875</LongitudeDegrees>
            </Position>
            <AltitudeMeters>589.5999755859375</AltitudeMeters>
            <DistanceMeters>4329.5943947142</DistanceMeters>
          </Trackpoint>
          <Trackpoint>
            <Time>2022-08-26T20:29:44.000Z</Time>
            <Position>
              <LatitudeDegrees>50.17897839657962322235107421875</LatitudeDegrees>
              <LongitudeDegrees>16.96889835409820079803466796875</LongitudeDegrees>
            </Position>
            <AltitudeMeters>589.79998779296875</AltitudeMeters>
            <DistanceMeters>4335.3007469341</DistanceMeters>
          </Trackpoint>
          <Trackpoint>
            <Time>2022-08-26T20:29:47.000Z</Time>
            <Position>
              <LatitudeDegrees>50.17895358614623546600341796875</LatitudeDegrees>
              <LongitudeDegrees>16.96895585395395755767822265625</LongitudeDegrees>
            </Position>
            <AltitudeMeters>590</AltitudeMeters>
            <DistanceMeters>4340.2430497153</DistanceMeters>
          </Trackpoint>
          <Trackpoint>
            <Time>2022-08-26T20:29:49.000Z</Time>
            <Position>
              <LatitudeDegrees>50.1789397560060024261474609375</LatitudeDegrees>
              <LongitudeDegrees>16.96898795664310455322265625</LongitudeDegrees>
            </Position>
            <AltitudeMeters>590</AltitudeMeters>
            <DistanceMeters>4343.0020992694</DistanceMeters>
          </Trackpoint>
          <Trackpoint>
            <Time>2022-08-26T20:29:50.000Z</Time>
            <Position>
              <LatitudeDegrees>50.178930200636386871337890625</LatitudeDegrees>
              <LongitudeDegrees>16.969007067382335662841796875</LongitudeDegrees>
            </Position>
            <AltitudeMeters>590</AltitudeMeters>
            <DistanceMeters>4344.7309588076</DistanceMeters>
          </Trackpoint>
          <Trackpoint>
            <Time>2022-08-26T20:29:52.000Z</Time>
            <Position>
              <LatitudeDegrees>50.178909413516521453857421875</LatitudeDegrees>
              <LongitudeDegrees>16.9690347276628017425537109375</LongitudeDegrees>
            </Position>
            <AltitudeMeters>590</AltitudeMeters>
            <DistanceMeters>4347.7718136675</DistanceMeters>
          </Trackpoint>
          <Trackpoint>
            <Time>2022-08-26T20:29:54.000Z</Time>
            <Position>
              <LatitudeDegrees>50.17889608629047870635986328125</LatitudeDegrees>
              <LongitudeDegrees>16.969063393771648406982421875</LongitudeDegrees>
            </Position>
            <AltitudeMeters>590</AltitudeMeters>
            <DistanceMeters>4350.2967362345</DistanceMeters>
          </Trackpoint>
          <Trackpoint>
            <Time>2022-08-26T20:29:58.000Z</Time>
            <Position>
              <LatitudeDegrees>50.17889055423438549041748046875</LatitudeDegrees>
              <LongitudeDegrees>16.9691182114183902740478515625</LongitudeDegrees>
            </Position>
            <AltitudeMeters>590.5999755859375</AltitudeMeters>
            <DistanceMeters>4354.2526334118</DistanceMeters>
          </Trackpoint>
          <Trackpoint>
            <Time>2022-08-26T20:30:00.000Z</Time>
            <Position>
              <LatitudeDegrees>50.1788856089115142822265625</LatitudeDegrees>
              <LongitudeDegrees>16.96914494968950748443603515625</LongitudeDegrees>
            </Position>
            <AltitudeMeters>590.4000244140625</AltitudeMeters>
            <DistanceMeters>4356.2391236348</DistanceMeters>
          </Trackpoint>
          <Trackpoint>
            <Time>2022-08-26T20:30:05.000Z</Time>
            <Position>
              <LatitudeDegrees>50.17886624671518802642822265625</LatitudeDegrees>
              <LongitudeDegrees>16.96922130882740020751953125</LongitudeDegrees>
            </Position>
            <AltitudeMeters>590.5999755859375</AltitudeMeters>
            <DistanceMeters>4362.0923372844</DistanceMeters>
          </Trackpoint>
          <Trackpoint>
            <Time>2022-08-26T20:30:13.000Z</Time>
            <Position>
              <LatitudeDegrees>50.1788193918764591217041015625</LatitudeDegrees>
              <LongitudeDegrees>16.9693347997963428497314453125</LongitudeDegrees>
            </Position>
            <AltitudeMeters>591</AltitudeMeters>
            <DistanceMeters>4371.7168125513</DistanceMeters>
          </Trackpoint>
          <Trackpoint>
            <Time>2022-08-26T20:30:18.000Z</Time>
            <Position>
              <LatitudeDegrees>50.1787882111966609954833984375</LatitudeDegrees>
              <LongitudeDegrees>16.96941576898097991943359375</LongitudeDegrees>
            </Position>
            <AltitudeMeters>591.20001220703125</AltitudeMeters>
            <DistanceMeters>4378.4516528595</DistanceMeters>
          </Trackpoint>
          <Trackpoint>
            <Time>2022-08-26T20:30:20.000Z</Time>
            <Position>
              <LatitudeDegrees>50.178775303065776824951171875</LatitudeDegrees>
              <LongitudeDegrees>16.9694365561008453369140625</LongitudeDegrees>
            </Position>
            <AltitudeMeters>591.4000244140625</AltitudeMeters>
            <DistanceMeters>4380.5161615375</DistanceMeters>
          </Trackpoint>
          <Trackpoint>
            <Time>2022-08-26T20:30:27.000Z</Time>
            <Position>
              <LatitudeDegrees>50.17876088619232177734375</LatitudeDegrees>
              <LongitudeDegrees>16.96954392828047275543212890625</LongitudeDegrees>
            </Position>
            <AltitudeMeters>591.5999755859375</AltitudeMeters>
            <DistanceMeters>4388.3349605198</DistanceMeters>
          </Trackpoint>
          <Trackpoint>
            <Time>2022-08-26T20:30:32.000Z</Time>
            <Position>
              <LatitudeDegrees>50.17875895835459232330322265625</LatitudeDegrees>
              <LongitudeDegrees>16.969616599380970001220703125</LongitudeDegrees>
            </Position>
            <AltitudeMeters>591.79998779296875</AltitudeMeters>
            <DistanceMeters>4393.5189269064</DistanceMeters>
          </Trackpoint>
          <Trackpoint>
            <Time>2022-08-26T20:30:36.000Z</Time>
            <Position>
              <LatitudeDegrees>50.178753174841403961181640625</LatitudeDegrees>
              <LongitudeDegrees>16.96967334486544132232666015625</LongitudeDegrees>
            </Position>
            <AltitudeMeters>592</AltitudeMeters>
            <DistanceMeters>4397.6139057777</DistanceMeters>
          </Trackpoint>
          <Trackpoint>
            <Time>2022-08-26T20:30:47.000Z</Time>
            <Position>
              <LatitudeDegrees>50.17873029224574565887451171875</LatitudeDegrees>
              <LongitudeDegrees>16.96983075700700283050537109375</LongitudeDegrees>
            </Position>
            <AltitudeMeters>592.20001220703125</AltitudeMeters>
            <DistanceMeters>4409.1188117102</DistanceMeters>
          </Trackpoint>
          <Trackpoint>
            <Time>2022-08-26T20:30:57.000Z</Time>
            <Position>
              <LatitudeDegrees>50.17878544516861438751220703125</LatitudeDegrees>
              <LongitudeDegrees>16.9700563140213489532470703125</LongitudeDegrees>
            </Position>
            <AltitudeMeters>592.5999755859375</AltitudeMeters>
            <DistanceMeters>4426.3278322244</DistanceMeters>
          </Trackpoint>
          <Trackpoint>
            <Time>2022-08-26T20:30:58.000Z</Time>
            <Position>
              <LatitudeDegrees>50.1787969283759593963623046875</LatitudeDegrees>
              <LongitudeDegrees>16.97008422575891017913818359375</LongitudeDegrees>
            </Position>
            <AltitudeMeters>592.5999755859375</AltitudeMeters>
            <DistanceMeters>4428.6939783304</DistanceMeters>
          </Trackpoint>
          <Trackpoint>
            <Time>2022-08-26T20:31:08.000Z</Time>
            <Position>
              <LatitudeDegrees>50.17882886342704296112060546875</LatitudeDegrees>
              <LongitudeDegrees>16.97035454213619232177734375</LongitudeDegrees>
            </Position>
            <AltitudeMeters>593</AltitudeMeters>
            <DistanceMeters>4448.2865419614</DistanceMeters>
          </Trackpoint>
          <Trackpoint>
            <Time>2022-08-26T20:31:18.000Z</Time>
            <Position>
              <LatitudeDegrees>50.17887831665575504302978515625</LatitudeDegrees>
              <LongitudeDegrees>16.9705997966229915618896484375</LongitudeDegrees>
            </Position>
            <AltitudeMeters>593.4000244140625</AltitudeMeters>
            <DistanceMeters>4466.6136454807</DistanceMeters>
          </Trackpoint>
          <Trackpoint>
            <Time>2022-08-26T20:31:23.000Z</Time>
            <Position>
              <LatitudeDegrees>50.17890245653688907623291015625</LatitudeDegrees>
              <LongitudeDegrees>16.9707141257822513580322265625</LongitudeDegrees>
            </Position>
            <AltitudeMeters>593.5999755859375</AltitudeMeters>
            <DistanceMeters>4475.1945104327</DistanceMeters>
          </Trackpoint>
          <Trackpoint>
            <Time>2022-08-26T20:31:25.000Z</Time>
            <Position>
              <LatitudeDegrees>50.17889910377562046051025390625</LatitudeDegrees>
              <LongitudeDegrees>16.9707701168954372406005859375</LongitudeDegrees>
            </Position>
            <AltitudeMeters>593.79998779296875</AltitudeMeters>
            <DistanceMeters>4479.2025655713</DistanceMeters>
          </Trackpoint>
          <Trackpoint>
            <Time>2022-08-26T20:31:28.000Z</Time>
            <Position>
              <LatitudeDegrees>50.17887957394123077392578125</LatitudeDegrees>
              <LongitudeDegrees>16.970848739147186279296875</LongitudeDegrees>
            </Position>
            <AltitudeMeters>594</AltitudeMeters>
            <DistanceMeters>4485.2125826907</DistanceMeters>
          </Trackpoint>
          <Trackpoint>
            <Time>2022-08-26T20:31:38.000Z</Time>
            <Position>
              <LatitudeDegrees>50.17888988368213176727294921875</LatitudeDegrees>
              <LongitudeDegrees>16.97106800973415374755859375</LongitudeDegrees>
            </Position>
            <AltitudeMeters>594.20001220703125</AltitudeMeters>
            <DistanceMeters>4500.8836375043</DistanceMeters>
          </Trackpoint>
          <Trackpoint>
            <Time>2022-08-26T20:31:48.000Z</Time>
            <Position>
              <LatitudeDegrees>50.1788319647312164306640625</LatitudeDegrees>
              <LongitudeDegrees>16.97131686843931674957275390625</LongitudeDegrees>
            </Position>
            <AltitudeMeters>594.20001220703125</AltitudeMeters>
            <DistanceMeters>4519.7564310245</DistanceMeters>
          </Trackpoint>
          <Trackpoint>
            <Time>2022-08-26T20:31:57.000Z</Time>
            <Position>
              <LatitudeDegrees>50.1786939986050128936767578125</LatitudeDegrees>
              <LongitudeDegrees>16.97152574546635150909423828125</LongitudeDegrees>
            </Position>
            <AltitudeMeters>594.5999755859375</AltitudeMeters>
            <DistanceMeters>4541.1448314474</DistanceMeters>
          </Trackpoint>
          <Trackpoint>
            <Time>2022-08-26T20:32:06.000Z</Time>
            <Position>
              <LatitudeDegrees>50.17867262475192546844482421875</LatitudeDegrees>
              <LongitudeDegrees>16.9716874323785305023193359375</LongitudeDegrees>
            </Position>
            <AltitudeMeters>595.20001220703125</AltitudeMeters>
            <DistanceMeters>4552.9124234809</DistanceMeters>
          </Trackpoint>
          <Trackpoint>
            <Time>2022-08-26T20:32:13.000Z</Time>
            <Position>
              <LatitudeDegrees>50.1787238381803035736083984375</LatitudeDegrees>
              <LongitudeDegrees>16.97182238101959228515625</LongitudeDegrees>
            </Position>
            <AltitudeMeters>595.4000244140625</AltitudeMeters>
            <DistanceMeters>4564.0933169287</DistanceMeters>
          </Trackpoint>
          <Trackpoint>
            <Time>2022-08-26T20:32:17.000Z</Time>
            <Position>
              <LatitudeDegrees>50.17873129807412624359130859375</LatitudeDegrees>
              <LongitudeDegrees>16.97188331745564937591552734375</LongitudeDegrees>
            </Position>
            <AltitudeMeters>595.5999755859375</AltitudeMeters>
            <DistanceMeters>4568.5158892094</DistanceMeters>
          </Trackpoint>
          <Trackpoint>
            <Time>2022-08-26T20:32:25.000Z</Time>
            <Position>
              <LatitudeDegrees>50.178693830966949462890625</LatitudeDegrees>
              <LongitudeDegrees>16.97208263911306858062744140625</LongitudeDegrees>
            </Position>
            <AltitudeMeters>595.79998779296875</AltitudeMeters>
            <DistanceMeters>4583.3223808906</DistanceMeters>
          </Trackpoint>
          <Trackpoint>
            <Time>2022-08-26T20:32:35.000Z</Time>
            <Position>
              <LatitudeDegrees>50.17864412628114223480224609375</LatitudeDegrees>
              <LongitudeDegrees>16.9723103754222393035888671875</LongitudeDegrees>
            </Position>
            <AltitudeMeters>596</AltitudeMeters>
            <DistanceMeters>4600.4720044952</DistanceMeters>
          </Trackpoint>
          <Trackpoint>
            <Time>2022-08-26T20:32:40.000Z</Time>
            <Position>
              <LatitudeDegrees>50.1786817610263824462890625</LatitudeDegrees>
              <LongitudeDegrees>16.97243836708366870880126953125</LongitudeDegrees>
            </Position>
            <AltitudeMeters>596.20001220703125</AltitudeMeters>
            <DistanceMeters>4610.5102624635</DistanceMeters>
          </Trackpoint>
          <Trackpoint>
            <Time>2022-08-26T20:32:44.000Z</Time>
            <Position>
              <LatitudeDegrees>50.178680419921875</LatitudeDegrees>
              <LongitudeDegrees>16.972579769790172576904296875</LongitudeDegrees>
            </Position>
            <AltitudeMeters>596.4000244140625</AltitudeMeters>
            <DistanceMeters>4620.5893675822</DistanceMeters>
          </Trackpoint>
          <Trackpoint>
            <Time>2022-08-26T20:32:54.000Z</Time>
            <Position>
              <LatitudeDegrees>50.1787328906357288360595703125</LatitudeDegrees>
              <LongitudeDegrees>16.9728515110909938812255859375</LongitudeDegrees>
            </Position>
            <AltitudeMeters>596.20001220703125</AltitudeMeters>
            <DistanceMeters>4640.8195708584</DistanceMeters>
          </Trackpoint>
          <Trackpoint>
            <Time>2022-08-26T20:33:01.000Z</Time>
            <Position>
              <LatitudeDegrees>50.17879164777696132659912109375</LatitudeDegrees>
              <LongitudeDegrees>16.9730087555944919586181640625</LongitudeDegrees>
            </Position>
            <AltitudeMeters>596.4000244140625</AltitudeMeters>
            <DistanceMeters>4653.7961985222</DistanceMeters>
          </Trackpoint>
          <Trackpoint>
            <Time>2022-08-26T20:33:04.000Z</Time>
            <Position>
              <LatitudeDegrees>50.17882819287478923797607421875</LatitudeDegrees>
              <LongitudeDegrees>16.973069272935390472412109375</LongitudeDegrees>
            </Position>
            <AltitudeMeters>596.4000244140625</AltitudeMeters>
            <DistanceMeters>4659.7245252271</DistanceMeters>
          </Trackpoint>
          <Trackpoint>
            <Time>2022-08-26T20:33:11.000Z</Time>
            <Position>
              <LatitudeDegrees>50.17889793030917644500732421875</LatitudeDegrees>
              <LongitudeDegrees>16.9732069037854671478271484375</LongitudeDegrees>
            </Position>
            <AltitudeMeters>596.5999755859375</AltitudeMeters>
            <DistanceMeters>4672.2338095671</DistanceMeters>
          </Trackpoint>
          <Trackpoint>
            <Time>2022-08-26T20:33:23.000Z</Time>
            <Position>
              <LatitudeDegrees>50.17899666912853717803955078125</LatitudeDegrees>
              <LongitudeDegrees>16.9734385795891284942626953125</LongitudeDegrees>
            </Position>
            <AltitudeMeters>597</AltitudeMeters>
            <DistanceMeters>4692.0698253185</DistanceMeters>
          </Trackpoint>
          <Trackpoint>
            <Time>2022-08-26T20:33:30.000Z</Time>
            <Position>
              <LatitudeDegrees>50.17902332358062267303466796875</LatitudeDegrees>
              <LongitudeDegrees>16.97354092262685298919677734375</LongitudeDegrees>
            </Position>
            <AltitudeMeters>597.20001220703125</AltitudeMeters>
            <DistanceMeters>4699.9450119841</DistanceMeters>
          </Trackpoint>
          <Trackpoint>
            <Time>2022-08-26T20:33:34.000Z</Time>
            <Position>
              <LatitudeDegrees>50.179042853415012359619140625</LatitudeDegrees>
              <LongitudeDegrees>16.97360630147159099578857421875</LongitudeDegrees>
            </Position>
            <AltitudeMeters>597.4000244140625</AltitudeMeters>
            <DistanceMeters>4705.0870022435</DistanceMeters>
          </Trackpoint>
          <Trackpoint>
            <Time>2022-08-26T20:33:41.000Z</Time>
            <Position>
              <LatitudeDegrees>50.17908568494021892547607421875</LatitudeDegrees>
              <LongitudeDegrees>16.97371828369796276092529296875</LongitudeDegrees>
            </Position>
            <AltitudeMeters>597.79998779296875</AltitudeMeters>
            <DistanceMeters>4714.3836070885</DistanceMeters>
          </Trackpoint>
          <Trackpoint>
            <Time>2022-08-26T20:33:52.000Z</Time>
            <Position>
              <LatitudeDegrees>50.17908987589180469512939453125</LatitudeDegrees>
              <LongitudeDegrees>16.973901428282260894775390625</LongitudeDegrees>
            </Position>
            <AltitudeMeters>598.4000244140625</AltitudeMeters>
            <DistanceMeters>4727.4458922794</DistanceMeters>
          </Trackpoint>
          <Trackpoint>
            <Time>2022-08-26T20:33:53.000Z</Time>
            <Position>
              <LatitudeDegrees>50.179085098206996917724609375</LatitudeDegrees>
              <LongitudeDegrees>16.97391609661281108856201171875</LongitudeDegrees>
            </Position>
            <AltitudeMeters>598.4000244140625</AltitudeMeters>
            <DistanceMeters>4728.6174602969</DistanceMeters>
          </Trackpoint>
          <Trackpoint>
            <Time>2022-08-26T20:34:04.000Z</Time>
            <Position>
              <LatitudeDegrees>50.1790309511125087738037109375</LatitudeDegrees>
              <LongitudeDegrees>16.9740739278495311737060546875</LongitudeDegrees>
            </Position>
            <AltitudeMeters>599</AltitudeMeters>
            <DistanceMeters>4741.3793746808</DistanceMeters>
          </Trackpoint>
          <Trackpoint>
            <Time>2022-08-26T20:34:13.000Z</Time>
            <Position>
              <LatitudeDegrees>50.179047547280788421630859375</LatitudeDegrees>
              <LongitudeDegrees>16.9742603413760662078857421875</LongitudeDegrees>
            </Position>
            <AltitudeMeters>599.20001220703125</AltitudeMeters>
            <DistanceMeters>4754.7939698434</DistanceMeters>
          </Trackpoint>
          <Trackpoint>
            <Time>2022-08-26T20:34:17.000Z</Time>
            <Position>
              <LatitudeDegrees>50.17904997803270816802978515625</LatitudeDegrees>
              <LongitudeDegrees>16.97434038855135440826416015625</LongitudeDegrees>
            </Position>
            <AltitudeMeters>599.4000244140625</AltitudeMeters>
            <DistanceMeters>4760.506648398</DistanceMeters>
          </Trackpoint>
          <Trackpoint>
            <Time>2022-08-26T20:34:21.000Z</Time>
            <Position>
              <LatitudeDegrees>50.179058946669101715087890625</LatitudeDegrees>
              <LongitudeDegrees>16.9744236208498477935791015625</LongitudeDegrees>
            </Position>
            <AltitudeMeters>599.5999755859375</AltitudeMeters>
            <DistanceMeters>4766.5226725325</DistanceMeters>
          </Trackpoint>
          <Trackpoint>
            <Time>2022-08-26T20:34:24.000Z</Time>
            <Position>
              <LatitudeDegrees>50.179060287773609161376953125</LatitudeDegrees>
              <LongitudeDegrees>16.97448221035301685333251953125</LongitudeDegrees>
            </Position>
            <AltitudeMeters>599.5999755859375</AltitudeMeters>
            <DistanceMeters>4770.7016877087</DistanceMeters>
          </Trackpoint>
          <Trackpoint>
            <Time>2022-08-26T20:34:28.000Z</Time>
            <Position>
              <LatitudeDegrees>50.17905391752719879150390625</LatitudeDegrees>
              <LongitudeDegrees>16.97456820867955684661865234375</LongitudeDegrees>
            </Position>
            <AltitudeMeters>599.5999755859375</AltitudeMeters>
            <DistanceMeters>4776.8725735741</DistanceMeters>
          </Trackpoint>
          <Trackpoint>
            <Time>2022-08-26T20:34:35.000Z</Time>
            <Position>
              <LatitudeDegrees>50.1790322922170162200927734375</LatitudeDegrees>
              <LongitudeDegrees>16.97469678707420825958251953125</LongitudeDegrees>
            </Position>
            <AltitudeMeters>600</AltitudeMeters>
            <DistanceMeters>4786.3476471889</DistanceMeters>
          </Trackpoint>
          <Trackpoint>
            <Time>2022-08-26T20:34:41.000Z</Time>
            <Position>
              <LatitudeDegrees>50.179006643593311309814453125</LatitudeDegrees>
              <LongitudeDegrees>16.97479628026485443115234375</LongitudeDegrees>
            </Position>
            <AltitudeMeters>600</AltitudeMeters>
            <DistanceMeters>4793.9924267636</DistanceMeters>
          </Trackpoint>
          <Trackpoint>
            <Time>2022-08-26T20:34:47.000Z</Time>
            <Position>
              <LatitudeDegrees>50.17898820340633392333984375</LatitudeDegrees>
              <LongitudeDegrees>16.974894516170024871826171875</LongitudeDegrees>
            </Position>
            <AltitudeMeters>600.4000244140625</AltitudeMeters>
            <DistanceMeters>4801.2890924894</DistanceMeters>
          </Trackpoint>
          <Trackpoint>
            <Time>2022-08-26T20:34:48.000Z</Time>
            <Position>
              <LatitudeDegrees>50.1789843477308750152587890625</LatitudeDegrees>
              <LongitudeDegrees>16.97491236962378025054931640625</LongitudeDegrees>
            </Position>
            <AltitudeMeters>600.4000244140625</AltitudeMeters>
            <DistanceMeters>4802.6329731719</DistanceMeters>
          </Trackpoint>
          <Trackpoint>
            <Time>2022-08-26T20:34:54.000Z</Time>
            <Position>
              <LatitudeDegrees>50.17894788645207881927490234375</LatitudeDegrees>
              <LongitudeDegrees>16.97500591166317462921142578125</LongitudeDegrees>
            </Position>
            <AltitudeMeters>600.5999755859375</AltitudeMeters>
            <DistanceMeters>4810.4390577117</DistanceMeters>
          </Trackpoint>
          <Trackpoint>
            <Time>2022-08-26T20:34:55.000Z</Time>
            <Position>
              <LatitudeDegrees>50.1789424382150173187255859375</LatitudeDegrees>
              <LongitudeDegrees>16.975025273859500885009765625</LongitudeDegrees>
            </Position>
            <AltitudeMeters>600.5999755859375</AltitudeMeters>
            <DistanceMeters>4811.9475600365</DistanceMeters>
          </Trackpoint>
          <Trackpoint>
            <Time>2022-08-26T20:35:02.000Z</Time>
            <Position>
              <LatitudeDegrees>50.178908742964267730712890625</LatitudeDegrees>
              <LongitudeDegrees>16.97515703737735748291015625</LongitudeDegrees>
            </Position>
            <AltitudeMeters>600.79998779296875</AltitudeMeters>
            <DistanceMeters>4822.0606528278</DistanceMeters>
          </Trackpoint>
          <Trackpoint>
            <Time>2022-08-26T20:35:08.000Z</Time>
            <Position>
              <LatitudeDegrees>50.17887798137962818145751953125</LatitudeDegrees>
              <LongitudeDegrees>16.9752715341746807098388671875</LongitudeDegrees>
            </Position>
            <AltitudeMeters>601</AltitudeMeters>
            <DistanceMeters>4830.9109004557</DistanceMeters>
          </Trackpoint>
          <Trackpoint>
            <Time>2022-08-26T20:35:09.000Z</Time>
            <Position>
              <LatitudeDegrees>50.17887362278997898101806640625</LatitudeDegrees>
              <LongitudeDegrees>16.9752906449139118194580078125</LongitudeDegrees>
            </Position>
            <AltitudeMeters>601</AltitudeMeters>
            <DistanceMeters>4832.3583042469</DistanceMeters>
          </Trackpoint>
          <Trackpoint>
            <Time>2022-08-26T20:35:14.000Z</Time>
            <Position>
              <LatitudeDegrees>50.1788452081382274627685546875</LatitudeDegrees>
              <LongitudeDegrees>16.97538125328719615936279296875</LongitudeDegrees>
            </Position>
            <AltitudeMeters>601.20001220703125</AltitudeMeters>
            <DistanceMeters>4839.549007809</DistanceMeters>
          </Trackpoint>
          <Trackpoint>
            <Time>2022-08-26T20:35:17.000Z</Time>
            <Position>
              <LatitudeDegrees>50.1788271032273769378662109375</LatitudeDegrees>
              <LongitudeDegrees>16.9754247553646564483642578125</LongitudeDegrees>
            </Position>
            <AltitudeMeters>601.20001220703125</AltitudeMeters>
            <DistanceMeters>4843.2465117963</DistanceMeters>
          </Trackpoint>
          <Trackpoint>
            <Time>2022-08-26T20:35:24.000Z</Time>
            <Position>
              <LatitudeDegrees>50.17881427891552448272705078125</LatitudeDegrees>
              <LongitudeDegrees>16.97559013031423091888427734375</LongitudeDegrees>
            </Position>
            <AltitudeMeters>601.20001220703125</AltitudeMeters>
            <DistanceMeters>4855.1199086752</DistanceMeters>
          </Trackpoint>
          <Trackpoint>
            <Time>2022-08-26T20:35:32.000Z</Time>
            <Position>
              <LatitudeDegrees>50.17878477461636066436767578125</LatitudeDegrees>
              <LongitudeDegrees>16.9757221452891826629638671875</LongitudeDegrees>
            </Position>
            <AltitudeMeters>601.4000244140625</AltitudeMeters>
            <DistanceMeters>4865.0863945596</DistanceMeters>
          </Trackpoint>
          <Trackpoint>
            <Time>2022-08-26T20:35:33.000Z</Time>
            <Position>
              <LatitudeDegrees>50.17877840436995029449462890625</LatitudeDegrees>
              <LongitudeDegrees>16.975736729800701141357421875</LongitudeDegrees>
            </Position>
            <AltitudeMeters>601.4000244140625</AltitudeMeters>
            <DistanceMeters>4866.3470663861</DistanceMeters>
          </Trackpoint>
          <Trackpoint>
            <Time>2022-08-26T20:35:39.000Z</Time>
            <Position>
              <LatitudeDegrees>50.17874144017696380615234375</LatitudeDegrees>
              <LongitudeDegrees>16.97582180611789226531982421875</LongitudeDegrees>
            </Position>
            <AltitudeMeters>601.5999755859375</AltitudeMeters>
            <DistanceMeters>4873.6746058459</DistanceMeters>
          </Trackpoint>
          <Trackpoint>
            <Time>2022-08-26T20:35:40.000Z</Time>
            <Position>
              <LatitudeDegrees>50.1787342317402362823486328125</LatitudeDegrees>
              <LongitudeDegrees>16.97583496570587158203125</LongitudeDegrees>
            </Position>
            <AltitudeMeters>601.5999755859375</AltitudeMeters>
            <DistanceMeters>4874.9062928365</DistanceMeters>
          </Trackpoint>
          <Trackpoint>
            <Time>2022-08-26T20:35:43.000Z</Time>
            <Position>
              <LatitudeDegrees>50.1787127740681171417236328125</LatitudeDegrees>
              <LongitudeDegrees>16.97587830014526844024658203125</LongitudeDegrees>
            </Position>
            <AltitudeMeters>601.5999755859375</AltitudeMeters>
            <DistanceMeters>4878.8104917347</DistanceMeters>
          </Trackpoint>
          <Trackpoint>
            <Time>2022-08-26T20:35:49.000Z</Time>
            <Position>
              <LatitudeDegrees>50.1786710321903228759765625</LatitudeDegrees>
              <LongitudeDegrees>16.975958682596683502197265625</LongitudeDegrees>
            </Position>
            <AltitudeMeters>601.79998779296875</AltitudeMeters>
            <DistanceMeters>4886.1871604037</DistanceMeters>
          </Trackpoint>
          <Trackpoint>
            <Time>2022-08-26T20:35:53.000Z</Time>
            <Position>
              <LatitudeDegrees>50.1786266081035137176513671875</LatitudeDegrees>
              <LongitudeDegrees>16.97596262209117412567138671875</LongitudeDegrees>
            </Position>
            <AltitudeMeters>602</AltitudeMeters>
            <DistanceMeters>4891.1395020338</DistanceMeters>
          </Trackpoint>
          <Trackpoint>
            <Time>2022-08-26T20:35:56.000Z</Time>
            <Position>
              <LatitudeDegrees>50.1785726286470890045166015625</LatitudeDegrees>
              <LongitudeDegrees>16.97593378834426403045654296875</LongitudeDegrees>
            </Position>
            <AltitudeMeters>602</AltitudeMeters>
            <DistanceMeters>4897.4899603951</DistanceMeters>
          </Trackpoint>
          <Trackpoint>
            <Time>2022-08-26T20:36:04.000Z</Time>
            <Position>
              <LatitudeDegrees>50.17852258868515491485595703125</LatitudeDegrees>
              <LongitudeDegrees>16.97603655047714710235595703125</LongitudeDegrees>
            </Position>
            <AltitudeMeters>602.20001220703125</AltitudeMeters>
            <DistanceMeters>4906.6913731529</DistanceMeters>
          </Trackpoint>
          <Trackpoint>
            <Time>2022-08-26T20:36:08.000Z</Time>
            <Position>
              <LatitudeDegrees>50.178485624492168426513671875</LatitudeDegrees>
              <LongitudeDegrees>16.976108551025390625</LongitudeDegrees>
            </Position>
            <AltitudeMeters>602.4000244140625</AltitudeMeters>
            <DistanceMeters>4913.2695283897</DistanceMeters>
          </Trackpoint>
          <Trackpoint>
            <Time>2022-08-26T20:36:09.000Z</Time>
            <Position>
              <LatitudeDegrees>50.17848202027380466461181640625</LatitudeDegrees>
              <LongitudeDegrees>16.9761281646788120269775390625</LongitudeDegrees>
            </Position>
            <AltitudeMeters>602.4000244140625</AltitudeMeters>
            <DistanceMeters>4914.7262603363</DistanceMeters>
          </Trackpoint>
          <Trackpoint>
            <Time>2022-08-26T20:36:11.000Z</Time>
            <Position>
              <LatitudeDegrees>50.17846408300101757049560546875</LatitudeDegrees>
              <LongitudeDegrees>16.97614400647580623626708984375</LongitudeDegrees>
            </Position>
            <AltitudeMeters>602.4000244140625</AltitudeMeters>
            <DistanceMeters>4917.0226846532</DistanceMeters>
          </Trackpoint>
          <Trackpoint>
            <Time>2022-08-26T20:36:13.000Z</Time>
            <Position>
              <LatitudeDegrees>50.17845050431787967681884765625</LatitudeDegrees>
              <LongitudeDegrees>16.9761616922914981842041015625</LongitudeDegrees>
            </Position>
            <AltitudeMeters>602.4000244140625</AltitudeMeters>
            <DistanceMeters>4918.9909079115</DistanceMeters>
          </Trackpoint>
          <Trackpoint>
            <Time>2022-08-26T20:36:21.000Z</Time>
            <Position>
              <LatitudeDegrees>50.178376995027065277099609375</LatitudeDegrees>
              <LongitudeDegrees>16.97627459652721881866455078125</LongitudeDegrees>
            </Position>
            <AltitudeMeters>602.5999755859375</AltitudeMeters>
            <DistanceMeters>4930.4667361979</DistanceMeters>
          </Trackpoint>
          <Trackpoint>
            <Time>2022-08-26T20:36:27.000Z</Time>
            <Position>
              <LatitudeDegrees>50.17831362783908843994140625</LatitudeDegrees>
              <LongitudeDegrees>16.97636671364307403564453125</LongitudeDegrees>
            </Position>
            <AltitudeMeters>602.79998779296875</AltitudeMeters>
            <DistanceMeters>4940.1024637779</DistanceMeters>
          </Trackpoint>
          <Trackpoint>
            <Time>2022-08-26T20:36:35.000Z</Time>
            <Position>
              <LatitudeDegrees>50.17828923650085926055908203125</LatitudeDegrees>
              <LongitudeDegrees>16.976511217653751373291015625</LongitudeDegrees>
            </Position>
            <AltitudeMeters>603</AltitudeMeters>
            <DistanceMeters>4950.7539369362</DistanceMeters>
          </Trackpoint>
          <Trackpoint>
            <Time>2022-08-26T20:36:43.000Z</Time>
            <Position>
              <LatitudeDegrees>50.17829418182373046875</LatitudeDegrees>
              <LongitudeDegrees>16.97656813077628612518310546875</LongitudeDegrees>
            </Position>
            <AltitudeMeters>603.20001220703125</AltitudeMeters>
            <DistanceMeters>4954.8478130799</DistanceMeters>
          </Trackpoint>
          <Trackpoint>
            <Time>2022-08-26T20:36:49.000Z</Time>
            <Position>
              <LatitudeDegrees>50.17830700613558292388916015625</LatitudeDegrees>
              <LongitudeDegrees>16.97658263146877288818359375</LongitudeDegrees>
            </Position>
            <AltitudeMeters>603.20001220703125</AltitudeMeters>
            <DistanceMeters>4956.6102960718</DistanceMeters>
          </Trackpoint>
          <Trackpoint>
            <Time>2022-08-26T20:36:52.000Z</Time>
            <Position>
              <LatitudeDegrees>50.17830566503107547760009765625</LatitudeDegrees>
              <LongitudeDegrees>16.97659009136259555816650390625</LongitudeDegrees>
            </Position>
            <AltitudeMeters>603.20001220703125</AltitudeMeters>
            <DistanceMeters>4957.1643922721</DistanceMeters>
          </Trackpoint>
          <Trackpoint>
            <Time>2022-08-26T20:37:03.000Z</Time>
            <Position>
              <LatitudeDegrees>50.17831471748650074005126953125</LatitudeDegrees>
              <LongitudeDegrees>16.97656997479498386383056640625</LongitudeDegrees>
            </Position>
            <AltitudeMeters>603.5999755859375</AltitudeMeters>
            <DistanceMeters>4958.9165983076</DistanceMeters>
          </Trackpoint>
          <Trackpoint>
            <Time>2022-08-26T20:37:11.000Z</Time>
            <Position>
              <LatitudeDegrees>50.178324691951274871826171875</LatitudeDegrees>
              <LongitudeDegrees>16.9765881635248661041259765625</LongitudeDegrees>
            </Position>
            <AltitudeMeters>603.5999755859375</AltitudeMeters>
            <DistanceMeters>4960.6244374954</DistanceMeters>
          </Trackpoint>
          <Trackpoint>
            <Time>2022-08-26T20:37:22.000Z</Time>
            <Position>
              <LatitudeDegrees>50.17834573052823543548583984375</LatitudeDegrees>
              <LongitudeDegrees>16.97653426788747310638427734375</LongitudeDegrees>
            </Position>
            <AltitudeMeters>603.5999755859375</AltitudeMeters>
            <DistanceMeters>4965.1239298431</DistanceMeters>
          </Trackpoint>
          <Trackpoint>
            <Time>2022-08-26T20:37:33.000Z</Time>
            <Position>
              <LatitudeDegrees>50.17835293896496295928955078125</LatitudeDegrees>
              <LongitudeDegrees>16.97642245329916477203369140625</LongitudeDegrees>
            </Position>
            <AltitudeMeters>603.5999755859375</AltitudeMeters>
            <DistanceMeters>4973.1344056848</DistanceMeters>
          </Trackpoint>
          <Trackpoint>
            <Time>2022-08-26T20:37:39.000Z</Time>
            <Position>
              <LatitudeDegrees>50.17836215905845165252685546875</LatitudeDegrees>
              <LongitudeDegrees>16.976356990635395050048828125</LongitudeDegrees>
            </Position>
            <AltitudeMeters>604.20001220703125</AltitudeMeters>
            <DistanceMeters>4977.9113297133</DistanceMeters>
          </Trackpoint>
          <Trackpoint>
            <Time>2022-08-26T20:37:44.000Z</Time>
            <Position>
              <LatitudeDegrees>50.178361572325229644775390625</LatitudeDegrees>
              <LongitudeDegrees>16.9762662984430789947509765625</LongitudeDegrees>
            </Position>
            <AltitudeMeters>604.5999755859375</AltitudeMeters>
            <DistanceMeters>4984.3759405897</DistanceMeters>
          </Trackpoint>
          <Trackpoint>
            <Time>2022-08-26T20:37:54.000Z</Time>
            <Position>
              <LatitudeDegrees>50.1783654280006885528564453125</LatitudeDegrees>
              <LongitudeDegrees>16.976104192435741424560546875</LongitudeDegrees>
            </Position>
            <AltitudeMeters>604.79998779296875</AltitudeMeters>
            <DistanceMeters>4995.9383919627</DistanceMeters>
          </Trackpoint>
          <Trackpoint>
            <Time>2022-08-26T20:37:57.000Z</Time>
            <Position>
              <LatitudeDegrees>50.17835679464042186737060546875</LatitudeDegrees>
              <LongitudeDegrees>16.97604761458933353424072265625</LongitudeDegrees>
            </Position>
            <AltitudeMeters>605.20001220703125</AltitudeMeters>
            <DistanceMeters>5000.0848682437</DistanceMeters>
          </Trackpoint>
          <Trackpoint>
            <Time>2022-08-26T20:38:01.000Z</Time>
            <Position>
              <LatitudeDegrees>50.17835092730820178985595703125</LatitudeDegrees>
              <LongitudeDegrees>16.9759865105152130126953125</LongitudeDegrees>
            </Position>
            <AltitudeMeters>606.4000244140625</AltitudeMeters>
            <DistanceMeters>5004.4890258478</DistanceMeters>
          </Trackpoint>
          <Trackpoint>
            <Time>2022-08-26T20:38:05.000Z</Time>
            <Position>
              <LatitudeDegrees>50.1783496700227260589599609375</LatitudeDegrees>
              <LongitudeDegrees>16.975934207439422607421875</LongitudeDegrees>
            </Position>
            <AltitudeMeters>607.4000244140625</AltitudeMeters>
            <DistanceMeters>5008.2205641199</DistanceMeters>
          </Trackpoint>
          <Trackpoint>
            <Time>2022-08-26T20:38:11.000Z</Time>
            <Position>
              <LatitudeDegrees>50.178335420787334442138671875</LatitudeDegrees>
              <LongitudeDegrees>16.97585885412991046905517578125</LongitudeDegrees>
            </Position>
            <AltitudeMeters>608.5999755859375</AltitudeMeters>
            <DistanceMeters>5013.8206940729</DistanceMeters>
          </Trackpoint>
          <Trackpoint>
            <Time>2022-08-26T20:38:15.000Z</Time>
            <Position>
              <LatitudeDegrees>50.1783101074397563934326171875</LatitudeDegrees>
              <LongitudeDegrees>16.97581912390887737274169921875</LongitudeDegrees>
            </Position>
            <AltitudeMeters>609.4000244140625</AltitudeMeters>
            <DistanceMeters>5017.8163385957</DistanceMeters>
          </Trackpoint>
          <Trackpoint>
            <Time>2022-08-26T20:38:17.000Z</Time>
            <Position>
              <LatitudeDegrees>50.17829376272857189178466796875</LatitudeDegrees>
              <LongitudeDegrees>16.9758029468357563018798828125</LongitudeDegrees>
            </Position>
            <AltitudeMeters>609.79998779296875</AltitudeMeters>
            <DistanceMeters>5019.9707432217</DistanceMeters>
          </Trackpoint>
          <Trackpoint>
            <Time>2022-08-26T20:38:23.000Z</Time>
            <Position>
              <LatitudeDegrees>50.178246907889842987060546875</LatitudeDegrees>
              <LongitudeDegrees>16.9757692515850067138671875</LongitudeDegrees>
            </Position>
            <AltitudeMeters>610.79998779296875</AltitudeMeters>
            <DistanceMeters>5025.7118040139</DistanceMeters>
          </Trackpoint>
          <Trackpoint>
            <Time>2022-08-26T20:38:28.000Z</Time>
            <Position>
              <LatitudeDegrees>50.17822067253291606903076171875</LatitudeDegrees>
              <LongitudeDegrees>16.97575022466480731964111328125</LongitudeDegrees>
            </Position>
            <AltitudeMeters>612</AltitudeMeters>
            <DistanceMeters>5028.9315132799</DistanceMeters>
          </Trackpoint>
          <Trackpoint>
            <Time>2022-08-26T20:38:36.000Z</Time>
            <Position>
              <LatitudeDegrees>50.17820239998400211334228515625</LatitudeDegrees>
              <LongitudeDegrees>16.9757399149239063262939453125</LongitudeDegrees>
            </Position>
            <AltitudeMeters>613</AltitudeMeters>
            <DistanceMeters>5031.0942845572</DistanceMeters>
          </Trackpoint>
          <Trackpoint>
            <Time>2022-08-26T20:38:38.000Z</Time>
            <Position>
              <LatitudeDegrees>50.17819871194660663604736328125</LatitudeDegrees>
              <LongitudeDegrees>16.975740082561969757080078125</LongitudeDegrees>
            </Position>
            <AltitudeMeters>613.20001220703125</AltitudeMeters>
            <DistanceMeters>5031.497448762</DistanceMeters>
          </Trackpoint>
          <Trackpoint>
            <Time>2022-08-26T20:38:45.000Z</Time>
            <Position>
              <LatitudeDegrees>50.17816451378166675567626953125</LatitudeDegrees>
              <LongitudeDegrees>16.97572876699268817901611328125</LongitudeDegrees>
            </Position>
            <AltitudeMeters>614</AltitudeMeters>
            <DistanceMeters>5035.3877454242</DistanceMeters>
          </Trackpoint>
          <Trackpoint>
            <Time>2022-08-26T20:38:49.000Z</Time>
            <Position>
              <LatitudeDegrees>50.1781451515853404998779296875</LatitudeDegrees>
              <LongitudeDegrees>16.97573413141071796417236328125</LongitudeDegrees>
            </Position>
            <AltitudeMeters>614.4000244140625</AltitudeMeters>
            <DistanceMeters>5037.5754246775</DistanceMeters>
          </Trackpoint>
          <Trackpoint>
            <Time>2022-08-26T20:38:53.000Z</Time>
            <Position>
              <LatitudeDegrees>50.1781354285776615142822265625</LatitudeDegrees>
              <LongitudeDegrees>16.975743435323238372802734375</LongitudeDegrees>
            </Position>
            <AltitudeMeters>615.20001220703125</AltitudeMeters>
            <DistanceMeters>5038.8467954666</DistanceMeters>
          </Trackpoint>
          <Trackpoint>
            <Time>2022-08-26T20:38:57.000Z</Time>
            <Position>
              <LatitudeDegrees>50.178128220140933990478515625</LatitudeDegrees>
              <LongitudeDegrees>16.97574435733258724212646484375</LongitudeDegrees>
            </Position>
            <AltitudeMeters>616.4000244140625</AltitudeMeters>
            <DistanceMeters>5039.6531238761</DistanceMeters>
          </Trackpoint>
          <Trackpoint>
            <Time>2022-08-26T20:39:00.000Z</Time>
            <Position>
              <LatitudeDegrees>50.1781196705996990203857421875</LatitudeDegrees>
              <LongitudeDegrees>16.9757479615509510040283203125</LongitudeDegrees>
            </Position>
            <AltitudeMeters>616.79998779296875</AltitudeMeters>
            <DistanceMeters>5040.6360878528</DistanceMeters>
          </Trackpoint>
          <Trackpoint>
            <Time>2022-08-26T20:39:03.000Z</Time>
            <Position>
              <LatitudeDegrees>50.17810315825045108795166015625</LatitudeDegrees>
              <LongitudeDegrees>16.97574804536998271942138671875</LongitudeDegrees>
            </Position>
            <AltitudeMeters>617.4000244140625</AltitudeMeters>
            <DistanceMeters>5042.4738170467</DistanceMeters>
          </Trackpoint>
          <Trackpoint>
            <Time>2022-08-26T20:39:08.000Z</Time>
            <Position>
              <LatitudeDegrees>50.17806954681873321533203125</LatitudeDegrees>
              <LongitudeDegrees>16.97574787773191928863525390625</LongitudeDegrees>
            </Position>
            <AltitudeMeters>618.4000244140625</AltitudeMeters>
            <DistanceMeters>5046.2150225327</DistanceMeters>
          </Trackpoint>
          <Trackpoint>
            <Time>2022-08-26T20:39:12.000Z</Time>
            <Position>
              <LatitudeDegrees>50.17804331146180629730224609375</LatitudeDegrees>
              <LongitudeDegrees>16.9757553376257419586181640625</LongitudeDegrees>
            </Position>
            <AltitudeMeters>619.5999755859375</AltitudeMeters>
            <DistanceMeters>5049.1837519931</DistanceMeters>
          </Trackpoint>
          <Trackpoint>
            <Time>2022-08-26T20:39:18.000Z</Time>
            <Position>
              <LatitudeDegrees>50.17802470363676548004150390625</LatitudeDegrees>
              <LongitudeDegrees>16.97576112113893032073974609375</LongitudeDegrees>
            </Position>
            <AltitudeMeters>620.5999755859375</AltitudeMeters>
            <DistanceMeters>5051.2958262729</DistanceMeters>
          </Trackpoint>
          <Trackpoint>
            <Time>2022-08-26T20:39:22.000Z</Time>
            <Position>
              <LatitudeDegrees>50.17801481299102306365966796875</LatitudeDegrees>
              <LongitudeDegrees>16.975758187472820281982421875</LongitudeDegrees>
            </Position>
            <AltitudeMeters>621</AltitudeMeters>
            <DistanceMeters>5052.4161747123</DistanceMeters>
          </Trackpoint>
          <Trackpoint>
            <Time>2022-08-26T20:39:25.000Z</Time>
            <Position>
              <LatitudeDegrees>50.1779993064701557159423828125</LatitudeDegrees>
              <LongitudeDegrees>16.975754164159297943115234375</LongitudeDegrees>
            </Position>
            <AltitudeMeters>621.5999755859375</AltitudeMeters>
            <DistanceMeters>5054.1632195996</DistanceMeters>
          </Trackpoint>
          <Trackpoint>
            <Time>2022-08-26T20:39:30.000Z</Time>
            <Position>
              <LatitudeDegrees>50.17795999534428119659423828125</LatitudeDegrees>
              <LongitudeDegrees>16.97575525380671024322509765625</LongitudeDegrees>
            </Position>
            <AltitudeMeters>622.5999755859375</AltitudeMeters>
            <DistanceMeters>5058.5385781062</DistanceMeters>
          </Trackpoint>
          <Trackpoint>
            <Time>2022-08-26T20:39:32.000Z</Time>
            <Position>
              <LatitudeDegrees>50.1779476739466190338134765625</LatitudeDegrees>
              <LongitudeDegrees>16.9757553376257419586181640625</LongitudeDegrees>
            </Position>
            <AltitudeMeters>623</AltitudeMeters>
            <DistanceMeters>5059.909072871</DistanceMeters>
          </Trackpoint>
          <Trackpoint>
            <Time>2022-08-26T20:39:35.000Z</Time>
            <Position>
              <LatitudeDegrees>50.17792412079870700836181640625</LatitudeDegrees>
              <LongitudeDegrees>16.975752152502536773681640625</LongitudeDegrees>
            </Position>
            <AltitudeMeters>623.79998779296875</AltitudeMeters>
            <DistanceMeters>5062.5390992123</DistanceMeters>
          </Trackpoint>
          <Trackpoint>
            <Time>2022-08-26T20:39:41.000Z</Time>
            <Position>
              <LatitudeDegrees>50.1778983883559703826904296875</LatitudeDegrees>
              <LongitudeDegrees>16.97574955411255359649658203125</LongitudeDegrees>
            </Position>
            <AltitudeMeters>625</AltitudeMeters>
            <DistanceMeters>5065.408843054</DistanceMeters>
          </Trackpoint>
          <Trackpoint>
            <Time>2022-08-26T20:39:47.000Z</Time>
            <Position>
              <LatitudeDegrees>50.17786896787583827972412109375</LatitudeDegrees>
              <LongitudeDegrees>16.97575475089251995086669921875</LongitudeDegrees>
            </Position>
            <AltitudeMeters>626.20001220703125</AltitudeMeters>
            <DistanceMeters>5068.7034070442</DistanceMeters>
          </Trackpoint>
          <Trackpoint>
            <Time>2022-08-26T20:39:51.000Z</Time>
            <Position>
              <LatitudeDegrees>50.1778511144220829010009765625</LatitudeDegrees>
              <LongitudeDegrees>16.97575776837766170501708984375</LongitudeDegrees>
            </Position>
            <AltitudeMeters>627.20001220703125</AltitudeMeters>
            <DistanceMeters>5070.7012293056</DistanceMeters>
          </Trackpoint>
          <Trackpoint>
            <Time>2022-08-26T20:39:56.000Z</Time>
            <Position>
              <LatitudeDegrees>50.17781415022909641265869140625</LatitudeDegrees>
              <LongitudeDegrees>16.9757612049579620361328125</LongitudeDegrees>
            </Position>
            <AltitudeMeters>628.20001220703125</AltitudeMeters>
            <DistanceMeters>5074.8214894569</DistanceMeters>
          </Trackpoint>
          <Trackpoint>
            <Time>2022-08-26T20:40:02.000Z</Time>
            <Position>
              <LatitudeDegrees>50.177790261805057525634765625</LatitudeDegrees>
              <LongitudeDegrees>16.97575743310153484344482421875</LongitudeDegrees>
            </Position>
            <AltitudeMeters>629.4000244140625</AltitudeMeters>
            <DistanceMeters>5077.4940894022</DistanceMeters>
          </Trackpoint>
          <Trackpoint>
            <Time>2022-08-26T20:40:08.000Z</Time>
            <Position>
              <LatitudeDegrees>50.17775841057300567626953125</LatitudeDegrees>
              <LongitudeDegrees>16.97576078586280345916748046875</LongitudeDegrees>
            </Position>
            <AltitudeMeters>630.4000244140625</AltitudeMeters>
            <DistanceMeters>5081.0471228763</DistanceMeters>
          </Trackpoint>
          <Trackpoint>
            <Time>2022-08-26T20:40:13.000Z</Time>
            <Position>
              <LatitudeDegrees>50.1777341030538082122802734375</LatitudeDegrees>
              <LongitudeDegrees>16.9757774658501148223876953125</LongitudeDegrees>
            </Position>
            <AltitudeMeters>631.4000244140625</AltitudeMeters>
            <DistanceMeters>5084.0006045243</DistanceMeters>
          </Trackpoint>
          <Trackpoint>
            <Time>2022-08-26T20:40:23.000Z</Time>
            <Position>
              <LatitudeDegrees>50.177703760564327239990234375</LatitudeDegrees>
              <LongitudeDegrees>16.9757719337940216064453125</LongitudeDegrees>
            </Position>
            <AltitudeMeters>632.4000244140625</AltitudeMeters>
            <DistanceMeters>5087.4003836125</DistanceMeters>
          </Trackpoint>
          <Trackpoint>
            <Time>2022-08-26T20:40:25.000Z</Time>
            <Position>
              <LatitudeDegrees>50.17769378609955310821533203125</LatitudeDegrees>
              <LongitudeDegrees>16.975768245756626129150390625</LongitudeDegrees>
            </Position>
            <AltitudeMeters>632.5999755859375</AltitudeMeters>
            <DistanceMeters>5088.5407041849</DistanceMeters>
          </Trackpoint>
          <Trackpoint>
            <Time>2022-08-26T20:40:31.000Z</Time>
            <Position>
              <LatitudeDegrees>50.177669562399387359619140625</LatitudeDegrees>
              <LongitudeDegrees>16.97575173340737819671630859375</LongitudeDegrees>
            </Position>
            <AltitudeMeters>633.5999755859375</AltitudeMeters>
            <DistanceMeters>5091.4819306694</DistanceMeters>
          </Trackpoint>
          <Trackpoint>
            <Time>2022-08-26T20:40:34.000Z</Time>
            <Position>
              <LatitudeDegrees>50.17765908502042293548583984375</LatitudeDegrees>
              <LongitudeDegrees>16.97574133984744548797607421875</LongitudeDegrees>
            </Position>
            <AltitudeMeters>634.20001220703125</AltitudeMeters>
            <DistanceMeters>5092.8589985883</DistanceMeters>
          </Trackpoint>
          <Trackpoint>
            <Time>2022-08-26T20:40:37.000Z</Time>
            <Position>
              <LatitudeDegrees>50.1776402257382869720458984375</LatitudeDegrees>
              <LongitudeDegrees>16.9757424294948577880859375</LongitudeDegrees>
            </Position>
            <AltitudeMeters>634.5999755859375</AltitudeMeters>
            <DistanceMeters>5094.9582073213</DistanceMeters>
          </Trackpoint>
          <Trackpoint>
            <Time>2022-08-26T20:40:46.000Z</Time>
            <Position>
              <LatitudeDegrees>50.1776221208274364471435546875</LatitudeDegrees>
              <LongitudeDegrees>16.9757318682968616485595703125</LongitudeDegrees>
            </Position>
            <AltitudeMeters>635.5999755859375</AltitudeMeters>
            <DistanceMeters>5097.1084164133</DistanceMeters>
          </Trackpoint>
          <Trackpoint>
            <Time>2022-08-26T20:40:47.000Z</Time>
            <Position>
              <LatitudeDegrees>50.17761818133294582366943359375</LatitudeDegrees>
              <LongitudeDegrees>16.9757285155355930328369140625</LongitudeDegrees>
            </Position>
            <AltitudeMeters>635.79998779296875</AltitudeMeters>
            <DistanceMeters>5097.6112505216</DistanceMeters>
          </Trackpoint>
          <Trackpoint>
            <Time>2022-08-26T20:40:54.000Z</Time>
            <Position>
              <LatitudeDegrees>50.17759068869054317474365234375</LatitudeDegrees>
              <LongitudeDegrees>16.9757201336324214935302734375</LongitudeDegrees>
            </Position>
            <AltitudeMeters>636.79998779296875</AltitudeMeters>
            <DistanceMeters>5100.7283585167</DistanceMeters>
          </Trackpoint>
          <Trackpoint>
            <Time>2022-08-26T20:40:58.000Z</Time>
            <Position>
              <LatitudeDegrees>50.1775711588561534881591796875</LatitudeDegrees>
              <LongitudeDegrees>16.9757167808711528778076171875</LongitudeDegrees>
            </Position>
            <AltitudeMeters>637.5999755859375</AltitudeMeters>
            <DistanceMeters>5102.91603777</DistanceMeters>
          </Trackpoint>
          <Trackpoint>
            <Time>2022-08-26T20:41:00.000Z</Time>
            <Position>
              <LatitudeDegrees>50.17756168730556964874267578125</LatitudeDegrees>
              <LongitudeDegrees>16.97571619413793087005615234375</LongitudeDegrees>
            </Position>
            <AltitudeMeters>637.79998779296875</AltitudeMeters>
            <DistanceMeters>5103.9742104776</DistanceMeters>
          </Trackpoint>
          <Trackpoint>
            <Time>2022-08-26T20:41:06.000Z</Time>
            <Position>
              <LatitudeDegrees>50.1775399781763553619384765625</LatitudeDegrees>
              <LongitudeDegrees>16.97572574950754642486572265625</LongitudeDegrees>
            </Position>
            <AltitudeMeters>639</AltitudeMeters>
            <DistanceMeters>5106.4847867776</DistanceMeters>
          </Trackpoint>
          <Trackpoint>
            <Time>2022-08-26T20:41:09.000Z</Time>
            <Position>
              <LatitudeDegrees>50.17752505838871002197265625</LatitudeDegrees>
              <LongitudeDegrees>16.97572004981338977813720703125</LongitudeDegrees>
            </Position>
            <AltitudeMeters>639.5999755859375</AltitudeMeters>
            <DistanceMeters>5108.1952676362</DistanceMeters>
          </Trackpoint>
          <Trackpoint>
            <Time>2022-08-26T20:41:13.000Z</Time>
            <Position>
              <LatitudeDegrees>50.17750251106917858123779296875</LatitudeDegrees>
              <LongitudeDegrees>16.9757181219756603240966796875</LongitudeDegrees>
            </Position>
            <AltitudeMeters>640.4000244140625</AltitudeMeters>
            <DistanceMeters>5110.7076416996</DistanceMeters>
          </Trackpoint>
          <Trackpoint>
            <Time>2022-08-26T20:41:19.000Z</Time>
            <Position>
              <LatitudeDegrees>50.17746739089488983154296875</LatitudeDegrees>
              <LongitudeDegrees>16.97574687190353870391845703125</LongitudeDegrees>
            </Position>
            <AltitudeMeters>641.5999755859375</AltitudeMeters>
            <DistanceMeters>5115.1210162463</DistanceMeters>
          </Trackpoint>
          <Trackpoint>
            <Time>2022-08-26T20:41:20.000Z</Time>
            <Position>
              <LatitudeDegrees>50.17745808698236942291259765625</LatitudeDegrees>
              <LongitudeDegrees>16.97574938647449016571044921875</LongitudeDegrees>
            </Position>
            <AltitudeMeters>641.79998779296875</AltitudeMeters>
            <DistanceMeters>5116.1749134911</DistanceMeters>
          </Trackpoint>
          <Trackpoint>
            <Time>2022-08-26T20:41:25.000Z</Time>
            <Position>
              <LatitudeDegrees>50.17743327654898166656494140625</LatitudeDegrees>
              <LongitudeDegrees>16.97574385441839694976806640625</LongitudeDegrees>
            </Position>
            <AltitudeMeters>642.5999755859375</AltitudeMeters>
            <DistanceMeters>5118.9648822893</DistanceMeters>
          </Trackpoint>
          <Trackpoint>
            <Time>2022-08-26T20:41:29.000Z</Time>
            <Position>
              <LatitudeDegrees>50.17740997485816478729248046875</LatitudeDegrees>
              <LongitudeDegrees>16.97573999874293804168701171875</LongitudeDegrees>
            </Position>
            <AltitudeMeters>643.20001220703125</AltitudeMeters>
            <DistanceMeters>5121.5707636154</DistanceMeters>
          </Trackpoint>
          <Trackpoint>
            <Time>2022-08-26T20:41:32.000Z</Time>
            <Position>
              <LatitudeDegrees>50.17739203758537769317626953125</LatitudeDegrees>
              <LongitudeDegrees>16.9757436029613018035888671875</LongitudeDegrees>
            </Position>
            <AltitudeMeters>643.79998779296875</AltitudeMeters>
            <DistanceMeters>5123.5821000485</DistanceMeters>
          </Trackpoint>
          <Trackpoint>
            <Time>2022-08-26T20:41:38.000Z</Time>
            <Position>
              <LatitudeDegrees>50.1773565821349620819091796875</LatitudeDegrees>
              <LongitudeDegrees>16.97576782666146755218505859375</LongitudeDegrees>
            </Position>
            <AltitudeMeters>644.79998779296875</AltitudeMeters>
            <DistanceMeters>5127.888813066</DistanceMeters>
          </Trackpoint>
          <Trackpoint>
            <Time>2022-08-26T20:41:40.000Z</Time>
            <Position>
              <LatitudeDegrees>50.17735339701175689697265625</LatitudeDegrees>
              <LongitudeDegrees>16.975772939622402191162109375</LongitudeDegrees>
            </Position>
            <AltitudeMeters>645.4000244140625</AltitudeMeters>
            <DistanceMeters>5128.400547584</DistanceMeters>
          </Trackpoint>
          <Trackpoint>
            <Time>2022-08-26T20:41:43.000Z</Time>
            <Position>
              <LatitudeDegrees>50.17734945751726627349853515625</LatitudeDegrees>
              <LongitudeDegrees>16.9757754541933536529541015625</LongitudeDegrees>
            </Position>
            <AltitudeMeters>646</AltitudeMeters>
            <DistanceMeters>5128.8660815083</DistanceMeters>
          </Trackpoint>
          <Trackpoint>
            <Time>2022-08-26T20:41:50.000Z</Time>
            <Position>
              <LatitudeDegrees>50.17734409309923648834228515625</LatitudeDegrees>
              <LongitudeDegrees>16.97577889077365398406982421875</LongitudeDegrees>
            </Position>
            <AltitudeMeters>646.4000244140625</AltitudeMeters>
            <DistanceMeters>5129.5105840424</DistanceMeters>
          </Trackpoint>
          <Trackpoint>
            <Time>2022-08-26T20:42:01.000Z</Time>
            <Position>
              <LatitudeDegrees>50.17732984386384487152099609375</LatitudeDegrees>
              <LongitudeDegrees>16.97578107006847858428955078125</LongitudeDegrees>
            </Position>
            <AltitudeMeters>646.5999755859375</AltitudeMeters>
            <DistanceMeters>5131.1063539372</DistanceMeters>
          </Trackpoint>
          <Trackpoint>
            <Time>2022-08-26T20:42:10.000Z</Time>
            <Position>
              <LatitudeDegrees>50.17731743864715099334716796875</LatitudeDegrees>
              <LongitudeDegrees>16.975826583802700042724609375</LongitudeDegrees>
            </Position>
            <AltitudeMeters>646.79998779296875</AltitudeMeters>
            <DistanceMeters>5134.6326005626</DistanceMeters>
          </Trackpoint>
          <Trackpoint>
            <Time>2022-08-26T20:42:20.000Z</Time>
            <Position>
              <LatitudeDegrees>50.17726957798004150390625</LatitudeDegrees>
              <LongitudeDegrees>16.97592272423207759857177734375</LongitudeDegrees>
            </Position>
            <AltitudeMeters>647</AltitudeMeters>
            <DistanceMeters>5143.3118227452</DistanceMeters>
          </Trackpoint>
          <Trackpoint>
            <Time>2022-08-26T20:42:25.000Z</Time>
            <Position>
              <LatitudeDegrees>50.17726614139974117279052734375</LatitudeDegrees>
              <LongitudeDegrees>16.9759677350521087646484375</LongitudeDegrees>
            </Position>
            <AltitudeMeters>647</AltitudeMeters>
            <DistanceMeters>5146.5427310338</DistanceMeters>
          </Trackpoint>
          <Trackpoint>
            <Time>2022-08-26T20:42:30.000Z</Time>
            <Position>
              <LatitudeDegrees>50.17725055105984210968017578125</LatitudeDegrees>
              <LongitudeDegrees>16.97601676918566226959228515625</LongitudeDegrees>
            </Position>
            <AltitudeMeters>647.20001220703125</AltitudeMeters>
            <DistanceMeters>5150.4446163325</DistanceMeters>
          </Trackpoint>
          <Trackpoint>
            <Time>2022-08-26T20:42:39.000Z</Time>
            <Position>
              <LatitudeDegrees>50.17723479308187961578369140625</LatitudeDegrees>
              <LongitudeDegrees>16.976036466658115386962890625</LongitudeDegrees>
            </Position>
            <AltitudeMeters>647.5999755859375</AltitudeMeters>
            <DistanceMeters>5152.6933588275</DistanceMeters>
          </Trackpoint>
          <Trackpoint>
            <Time>2022-08-26T20:42:46.000Z</Time>
            <Position>
              <LatitudeDegrees>50.17721258103847503662109375</LatitudeDegrees>
              <LongitudeDegrees>16.9760527275502681732177734375</LongitudeDegrees>
            </Position>
            <AltitudeMeters>648</AltitudeMeters>
            <DistanceMeters>5155.4244470983</DistanceMeters>
          </Trackpoint>
          <Trackpoint>
            <Time>2022-08-26T20:42:51.000Z</Time>
            <Position>
              <LatitudeDegrees>50.1771865971386432647705078125</LatitudeDegrees>
              <LongitudeDegrees>16.976091451942920684814453125</LongitudeDegrees>
            </Position>
            <AltitudeMeters>649.20001220703125</AltitudeMeters>
            <DistanceMeters>5159.4223509623</DistanceMeters>
          </Trackpoint>
          <Trackpoint>
            <Time>2022-08-26T20:42:57.000Z</Time>
            <Position>
              <LatitudeDegrees>50.17719405703246593475341796875</LatitudeDegrees>
              <LongitudeDegrees>16.9761764444410800933837890625</LongitudeDegrees>
            </Position>
            <AltitudeMeters>650.4000244140625</AltitudeMeters>
            <DistanceMeters>5165.5373772545</DistanceMeters>
          </Trackpoint>
          <Trackpoint>
            <Time>2022-08-26T20:43:00.000Z</Time>
            <Position>
              <LatitudeDegrees>50.1772003434598445892333984375</LatitudeDegrees>
              <LongitudeDegrees>16.97622329927980899810791015625</LongitudeDegrees>
            </Position>
            <AltitudeMeters>650.79998779296875</AltitudeMeters>
            <DistanceMeters>5168.9504108923</DistanceMeters>
          </Trackpoint>
          <Trackpoint>
            <Time>2022-08-26T20:43:11.000Z</Time>
            <Position>
              <LatitudeDegrees>50.1772412471473217010498046875</LatitudeDegrees>
              <LongitudeDegrees>16.976304687559604644775390625</LongitudeDegrees>
            </Position>
            <AltitudeMeters>651</AltitudeMeters>
            <DistanceMeters>5176.3246308744</DistanceMeters>
          </Trackpoint>
          <Trackpoint>
            <Time>2022-08-26T20:43:20.000Z</Time>
            <Position>
              <LatitudeDegrees>50.17728902399539947509765625</LatitudeDegrees>
              <LongitudeDegrees>16.9763900153338909149169921875</LongitudeDegrees>
            </Position>
            <AltitudeMeters>650.4000244140625</AltitudeMeters>
            <DistanceMeters>5184.4035783639</DistanceMeters>
          </Trackpoint>
          <Trackpoint>
            <Time>2022-08-26T20:43:31.000Z</Time>
            <Position>
              <LatitudeDegrees>50.17727921716868877410888671875</LatitudeDegrees>
              <LongitudeDegrees>16.97643988765776157379150390625</LongitudeDegrees>
            </Position>
            <AltitudeMeters>650</AltitudeMeters>
            <DistanceMeters>5188.1229972852</DistanceMeters>
          </Trackpoint>
          <Trackpoint>
            <Time>2022-08-26T20:43:40.000Z</Time>
            <Position>
              <LatitudeDegrees>50.1772566698491573333740234375</LatitudeDegrees>
              <LongitudeDegrees>16.9765073619782924652099609375</LongitudeDegrees>
            </Position>
            <AltitudeMeters>650.5999755859375</AltitudeMeters>
            <DistanceMeters>5193.5470169251</DistanceMeters>
          </Trackpoint>
          <Trackpoint>
            <Time>2022-08-26T20:43:52.000Z</Time>
            <Position>
              <LatitudeDegrees>50.1772486232221126556396484375</LatitudeDegrees>
              <LongitudeDegrees>16.97652764618396759033203125</LongitudeDegrees>
            </Position>
            <AltitudeMeters>650.4000244140625</AltitudeMeters>
            <DistanceMeters>5195.2495604748</DistanceMeters>
          </Trackpoint>
          <Trackpoint>
            <Time>2022-08-26T20:44:02.000Z</Time>
            <Position>
              <LatitudeDegrees>50.1772492937743663787841796875</LatitudeDegrees>
              <LongitudeDegrees>16.97660132311284542083740234375</LongitudeDegrees>
            </Position>
            <AltitudeMeters>649</AltitudeMeters>
            <DistanceMeters>5200.5018822029</DistanceMeters>
          </Trackpoint>
          <Trackpoint>
            <Time>2022-08-26T20:44:07.000Z</Time>
            <Position>
              <LatitudeDegrees>50.17724501900374889373779296875</LatitudeDegrees>
              <LongitudeDegrees>16.97664792649447917938232421875</LongitudeDegrees>
            </Position>
            <AltitudeMeters>647.79998779296875</AltitudeMeters>
            <DistanceMeters>5203.8562040792</DistanceMeters>
          </Trackpoint>
          <Trackpoint>
            <Time>2022-08-26T20:44:12.000Z</Time>
            <Position>
              <LatitudeDegrees>50.1772419176995754241943359375</LatitudeDegrees>
              <LongitudeDegrees>16.97670693509280681610107421875</LongitudeDegrees>
            </Position>
            <AltitudeMeters>646.79998779296875</AltitudeMeters>
            <DistanceMeters>5208.0760750188</DistanceMeters>
          </Trackpoint>
          <Trackpoint>
            <Time>2022-08-26T20:44:13.000Z</Time>
            <Position>
              <LatitudeDegrees>50.17724535427987575531005859375</LatitudeDegrees>
              <LongitudeDegrees>16.976716406643390655517578125</LongitudeDegrees>
            </Position>
            <AltitudeMeters>646.79998779296875</AltitudeMeters>
            <DistanceMeters>5208.8480756958</DistanceMeters>
          </Trackpoint>
          <Trackpoint>
            <Time>2022-08-26T20:44:23.000Z</Time>
            <Position>
              <LatitudeDegrees>50.17725876532495021820068359375</LatitudeDegrees>
              <LongitudeDegrees>16.97678622789680957794189453125</LongitudeDegrees>
            </Position>
            <AltitudeMeters>645.5999755859375</AltitudeMeters>
            <DistanceMeters>5214.0442212449</DistanceMeters>
          </Trackpoint>
          <Trackpoint>
            <Time>2022-08-26T20:44:31.000Z</Time>
            <Position>
              <LatitudeDegrees>50.1772556640207767486572265625</LatitudeDegrees>
              <LongitudeDegrees>16.9768540374934673309326171875</LongitudeDegrees>
            </Position>
            <AltitudeMeters>644.5999755859375</AltitudeMeters>
            <DistanceMeters>5218.8896519538</DistanceMeters>
          </Trackpoint>
          <Trackpoint>
            <Time>2022-08-26T20:44:32.000Z</Time>
            <Position>
              <LatitudeDegrees>50.1772549934685230255126953125</LatitudeDegrees>
              <LongitudeDegrees>16.97686837054789066314697265625</LongitudeDegrees>
            </Position>
            <AltitudeMeters>644.4000244140625</AltitudeMeters>
            <DistanceMeters>5219.9131209897</DistanceMeters>
          </Trackpoint>
          <Trackpoint>
            <Time>2022-08-26T20:44:39.000Z</Time>
            <Position>
              <LatitudeDegrees>50.17727150581777095794677734375</LatitudeDegrees>
              <LongitudeDegrees>16.9769494235515594482421875</LongitudeDegrees>
            </Position>
            <AltitudeMeters>643.4000244140625</AltitudeMeters>
            <DistanceMeters>5225.9754976793</DistanceMeters>
          </Trackpoint>
          <Trackpoint>
            <Time>2022-08-26T20:44:40.000Z</Time>
            <Position>
              <LatitudeDegrees>50.17727234400808811187744140625</LatitudeDegrees>
              <LongitudeDegrees>16.97696082293987274169921875</LongitudeDegrees>
            </Position>
            <AltitudeMeters>643.20001220703125</AltitudeMeters>
            <DistanceMeters>5226.7874062828</DistanceMeters>
          </Trackpoint>
          <Trackpoint>
            <Time>2022-08-26T20:44:49.000Z</Time>
            <Position>
              <LatitudeDegrees>50.1772601902484893798828125</LatitudeDegrees>
              <LongitudeDegrees>16.97703600861132144927978515625</LongitudeDegrees>
            </Position>
            <AltitudeMeters>642.4000244140625</AltitudeMeters>
            <DistanceMeters>5232.3136815685</DistanceMeters>
          </Trackpoint>
          <Trackpoint>
            <Time>2022-08-26T20:44:55.000Z</Time>
            <Position>
              <LatitudeDegrees>50.17726697959005832672119140625</LatitudeDegrees>
              <LongitudeDegrees>16.97710926644504070281982421875</LongitudeDegrees>
            </Position>
            <AltitudeMeters>642.20001220703125</AltitudeMeters>
            <DistanceMeters>5237.5891621722</DistanceMeters>
          </Trackpoint>
          <Trackpoint>
            <Time>2022-08-26T20:45:00.000Z</Time>
            <Position>
              <LatitudeDegrees>50.17728692851960659027099609375</LatitudeDegrees>
              <LongitudeDegrees>16.977160312235355377197265625</LongitudeDegrees>
            </Position>
            <AltitudeMeters>642</AltitudeMeters>
            <DistanceMeters>5241.8516161374</DistanceMeters>
          </Trackpoint>
          <Trackpoint>
            <Time>2022-08-26T20:45:05.000Z</Time>
            <Position>
              <LatitudeDegrees>50.17730377614498138427734375</LatitudeDegrees>
              <LongitudeDegrees>16.9771839492022991180419921875</LongitudeDegrees>
            </Position>
            <AltitudeMeters>641</AltitudeMeters>
            <DistanceMeters>5244.371168427</DistanceMeters>
          </Trackpoint>
          <Trackpoint>
            <Time>2022-08-26T20:45:09.000Z</Time>
            <Position>
              <LatitudeDegrees>50.1773072965443134307861328125</LatitudeDegrees>
              <LongitudeDegrees>16.97720649652183055877685546875</LongitudeDegrees>
            </Position>
            <AltitudeMeters>640</AltitudeMeters>
            <DistanceMeters>5246.0252884839</DistanceMeters>
          </Trackpoint>
          <Trackpoint>
            <Time>2022-08-26T20:45:10.000Z</Time>
            <Position>
              <LatitudeDegrees>50.177307464182376861572265625</LatitudeDegrees>
              <LongitudeDegrees>16.9772097654640674591064453125</LongitudeDegrees>
            </Position>
            <AltitudeMeters>640</AltitudeMeters>
            <DistanceMeters>5246.276705538</DistanceMeters>
          </Trackpoint>
          <Trackpoint>
            <Time>2022-08-26T20:45:16.000Z</Time>
            <Position>
              <LatitudeDegrees>50.17732791602611541748046875</LatitudeDegrees>
              <LongitudeDegrees>16.97724672965705394744873046875</LongitudeDegrees>
            </Position>
            <AltitudeMeters>639</AltitudeMeters>
            <DistanceMeters>5249.7578494</DistanceMeters>
          </Trackpoint>
          <Trackpoint>
            <Time>2022-08-26T20:45:20.000Z</Time>
            <Position>
              <LatitudeDegrees>50.17733990214765071868896484375</LatitudeDegrees>
              <LongitudeDegrees>16.977273635566234588623046875</LongitudeDegrees>
            </Position>
            <AltitudeMeters>638.20001220703125</AltitudeMeters>
            <DistanceMeters>5252.0971284182</DistanceMeters>
          </Trackpoint>
          <Trackpoint>
            <Time>2022-08-26T20:45:24.000Z</Time>
            <Position>
              <LatitudeDegrees>50.1773579232394695281982421875</LatitudeDegrees>
              <LongitudeDegrees>16.97730121202766895294189453125</LongitudeDegrees>
            </Position>
            <AltitudeMeters>637.79998779296875</AltitudeMeters>
            <DistanceMeters>5254.9064498331</DistanceMeters>
          </Trackpoint>
          <Trackpoint>
            <Time>2022-08-26T20:45:29.000Z</Time>
            <Position>
              <LatitudeDegrees>50.1773674786090850830078125</LatitudeDegrees>
              <LongitudeDegrees>16.97730724699795246124267578125</LongitudeDegrees>
            </Position>
            <AltitudeMeters>636.79998779296875</AltitudeMeters>
            <DistanceMeters>5256.0546619915</DistanceMeters>
          </Trackpoint>
          <Trackpoint>
            <Time>2022-08-26T20:45:31.000Z</Time>
            <Position>
              <LatitudeDegrees>50.17736789770424365997314453125</LatitudeDegrees>
              <LongitudeDegrees>16.977307833731174468994140625</LongitudeDegrees>
            </Position>
            <AltitudeMeters>636.4000244140625</AltitudeMeters>
            <DistanceMeters>5256.0546619915</DistanceMeters>
          </Trackpoint>
          <Trackpoint>
            <Time>2022-08-26T20:45:35.000Z</Time>
            <Position>
              <LatitudeDegrees>50.177378542721271514892578125</LatitudeDegrees>
              <LongitudeDegrees>16.97732803411781787872314453125</LongitudeDegrees>
            </Position>
            <AltitudeMeters>635.79998779296875</AltitudeMeters>
            <DistanceMeters>5257.9216407025</DistanceMeters>
          </Trackpoint>
          <Trackpoint>
            <Time>2022-08-26T20:45:37.000Z</Time>
            <Position>
              <LatitudeDegrees>50.17737845890223979949951171875</LatitudeDegrees>
              <LongitudeDegrees>16.97733004577457904815673828125</LongitudeDegrees>
            </Position>
            <AltitudeMeters>635.5999755859375</AltitudeMeters>
            <DistanceMeters>5258.1116941313</DistanceMeters>
          </Trackpoint>
          <Trackpoint>
            <Time>2022-08-26T20:45:46.000Z</Time>
            <Position>
              <LatitudeDegrees>50.1773969829082489013671875</LatitudeDegrees>
              <LongitudeDegrees>16.9773566164076328277587890625</LongitudeDegrees>
            </Position>
            <AltitudeMeters>634.79998779296875</AltitudeMeters>
            <DistanceMeters>5260.9129682039</DistanceMeters>
          </Trackpoint>
          <Trackpoint>
            <Time>2022-08-26T20:45:49.000Z</Time>
            <Position>
              <LatitudeDegrees>50.17739706672728061676025390625</LatitudeDegrees>
              <LongitudeDegrees>16.9773566164076328277587890625</LongitudeDegrees>
            </Position>
            <AltitudeMeters>634.5999755859375</AltitudeMeters>
            <DistanceMeters>5260.9129682039</DistanceMeters>
          </Trackpoint>
          <Trackpoint>
            <Time>2022-08-26T20:45:58.000Z</Time>
            <Position>
              <LatitudeDegrees>50.17739756964147090911865234375</LatitudeDegrees>
              <LongitudeDegrees>16.977338008582592010498046875</LongitudeDegrees>
            </Position>
            <AltitudeMeters>634.20001220703125</AltitudeMeters>
            <DistanceMeters>5262.2433422051</DistanceMeters>
          </Trackpoint>
          <Trackpoint>
            <Time>2022-08-26T20:46:09.000Z</Time>
            <Position>
              <LatitudeDegrees>50.17739522270858287811279296875</LatitudeDegrees>
              <LongitudeDegrees>16.97728629224002361297607421875</LongitudeDegrees>
            </Position>
            <AltitudeMeters>635</AltitudeMeters>
            <DistanceMeters>5265.9408461924</DistanceMeters>
          </Trackpoint>
          <Trackpoint>
            <Time>2022-08-26T20:46:12.000Z</Time>
            <Position>
              <LatitudeDegrees>50.17739455215632915496826171875</LatitudeDegrees>
              <LongitudeDegrees>16.97726332582533359527587890625</LongitudeDegrees>
            </Position>
            <AltitudeMeters>635.79998779296875</AltitudeMeters>
            <DistanceMeters>5267.5812616215</DistanceMeters>
          </Trackpoint>
          <Trackpoint>
            <Time>2022-08-26T20:46:16.000Z</Time>
            <Position>
              <LatitudeDegrees>50.17739237286150455474853515625</LatitudeDegrees>
              <LongitudeDegrees>16.97724253870546817779541015625</LongitudeDegrees>
            </Position>
            <AltitudeMeters>636.79998779296875</AltitudeMeters>
            <DistanceMeters>5269.0837659014</DistanceMeters>
          </Trackpoint>
          <Trackpoint>
            <Time>2022-08-26T20:46:20.000Z</Time>
            <Position>
              <LatitudeDegrees>50.17737695015966892242431640625</LatitudeDegrees>
              <LongitudeDegrees>16.9772298820316791534423828125</LongitudeDegrees>
            </Position>
            <AltitudeMeters>637.79998779296875</AltitudeMeters>
            <DistanceMeters>5271.0242663207</DistanceMeters>
          </Trackpoint>
          <Trackpoint>
            <Time>2022-08-26T20:46:21.000Z</Time>
            <Position>
              <LatitudeDegrees>50.17736555077135562896728515625</LatitudeDegrees>
              <LongitudeDegrees>16.977227032184600830078125</LongitudeDegrees>
            </Position>
            <AltitudeMeters>638</AltitudeMeters>
            <DistanceMeters>5272.3097638855</DistanceMeters>
          </Trackpoint>
          <Trackpoint>
            <Time>2022-08-26T20:46:25.000Z</Time>
            <Position>
              <LatitudeDegrees>50.1773532293736934661865234375</LatitudeDegrees>
              <LongitudeDegrees>16.97721621952950954437255859375</LongitudeDegrees>
            </Position>
            <AltitudeMeters>639</AltitudeMeters>
            <DistanceMeters>5273.882735896</DistanceMeters>
          </Trackpoint>
          <Trackpoint>
            <Time>2022-08-26T20:46:28.000Z</Time>
            <Position>
              <LatitudeDegrees>50.17734878696501255035400390625</LatitudeDegrees>
              <LongitudeDegrees>16.9772033952176570892333984375</LongitudeDegrees>
            </Position>
            <AltitudeMeters>639.5999755859375</AltitudeMeters>
            <DistanceMeters>5274.9237013965</DistanceMeters>
          </Trackpoint>
          <Trackpoint>
            <Time>2022-08-26T20:46:32.000Z</Time>
            <Position>
              <LatitudeDegrees>50.17733889631927013397216796875</LatitudeDegrees>
              <LongitudeDegrees>16.97719409130513668060302734375</LongitudeDegrees>
            </Position>
            <AltitudeMeters>640.20001220703125</AltitudeMeters>
            <DistanceMeters>5276.2127064646</DistanceMeters>
          </Trackpoint>
          <Trackpoint>
            <Time>2022-08-26T20:46:37.000Z</Time>
            <Position>
              <LatitudeDegrees>50.17732380889356136322021484375</LatitudeDegrees>
              <LongitudeDegrees>16.97719057090580463409423828125</LongitudeDegrees>
            </Position>
            <AltitudeMeters>641</AltitudeMeters>
            <DistanceMeters>5277.9125960087</DistanceMeters>
          </Trackpoint>
          <Trackpoint>
            <Time>2022-08-26T20:46:39.000Z</Time>
            <Position>
              <LatitudeDegrees>50.177316851913928985595703125</LatitudeDegrees>
              <LongitudeDegrees>16.97720163501799106597900390625</LongitudeDegrees>
            </Position>
            <AltitudeMeters>641.20001220703125</AltitudeMeters>
            <DistanceMeters>5279.0207884091</DistanceMeters>
          </Trackpoint>
          <Trackpoint>
            <Time>2022-08-26T20:46:46.000Z</Time>
            <Position>
              <LatitudeDegrees>50.17728826962411403656005859375</LatitudeDegrees>
              <LongitudeDegrees>16.97724522091448307037353515625</LongitudeDegrees>
            </Position>
            <AltitudeMeters>642.20001220703125</AltitudeMeters>
            <DistanceMeters>5283.4677949767</DistanceMeters>
          </Trackpoint>
          <Trackpoint>
            <Time>2022-08-26T20:46:47.000Z</Time>
            <Position>
              <LatitudeDegrees>50.17728625796735286712646484375</LatitudeDegrees>
              <LongitudeDegrees>16.97725125588476657867431640625</LongitudeDegrees>
            </Position>
            <AltitudeMeters>642.20001220703125</AltitudeMeters>
            <DistanceMeters>5283.9523380476</DistanceMeters>
          </Trackpoint>
          <Trackpoint>
            <Time>2022-08-26T20:46:56.000Z</Time>
            <Position>
              <LatitudeDegrees>50.177257843315601348876953125</LatitudeDegrees>
              <LongitudeDegrees>16.97730012238025665283203125</LongitudeDegrees>
            </Position>
            <AltitudeMeters>642.5999755859375</AltitudeMeters>
            <DistanceMeters>5288.6568802532</DistanceMeters>
          </Trackpoint>
          <Trackpoint>
            <Time>2022-08-26T20:47:00.000Z</Time>
            <Position>
              <LatitudeDegrees>50.17724837176501750946044921875</LatitudeDegrees>
              <LongitudeDegrees>16.9773190654814243316650390625</LongitudeDegrees>
            </Position>
            <AltitudeMeters>643.4000244140625</AltitudeMeters>
            <DistanceMeters>5290.3699987092</DistanceMeters>
          </Trackpoint>
          <Trackpoint>
            <Time>2022-08-26T20:47:05.000Z</Time>
            <Position>
              <LatitudeDegrees>50.17724736593663692474365234375</LatitudeDegrees>
              <LongitudeDegrees>16.9773227535188198089599609375</LongitudeDegrees>
            </Position>
            <AltitudeMeters>643.5999755859375</AltitudeMeters>
            <DistanceMeters>5290.6704995652</DistanceMeters>
          </Trackpoint>
          <Trackpoint>
            <Time>2022-08-26T20:47:14.000Z</Time>
            <Position>
              <LatitudeDegrees>50.1772254891693592071533203125</LatitudeDegrees>
              <LongitudeDegrees>16.9773559458553791046142578125</LongitudeDegrees>
            </Position>
            <AltitudeMeters>643.5999755859375</AltitudeMeters>
            <DistanceMeters>5294.0662922</DistanceMeters>
          </Trackpoint>
          <Trackpoint>
            <Time>2022-08-26T20:47:29.000Z</Time>
            <Position>
              <LatitudeDegrees>50.17719916999340057373046875</LatitudeDegrees>
              <LongitudeDegrees>16.9774421118199825286865234375</LongitudeDegrees>
            </Position>
            <AltitudeMeters>644.20001220703125</AltitudeMeters>
            <DistanceMeters>5300.8711604577</DistanceMeters>
          </Trackpoint>
          <Trackpoint>
            <Time>2022-08-26T20:47:40.000Z</Time>
            <Position>
              <LatitudeDegrees>50.17717025242745876312255859375</LatitudeDegrees>
              <LongitudeDegrees>16.97751344181597232818603515625</LongitudeDegrees>
            </Position>
            <AltitudeMeters>644.20001220703125</AltitudeMeters>
            <DistanceMeters>5306.8886854091</DistanceMeters>
          </Trackpoint>
          <Trackpoint>
            <Time>2022-08-26T20:47:50.000Z</Time>
            <Position>
              <LatitudeDegrees>50.17715818248689174652099609375</LatitudeDegrees>
              <LongitudeDegrees>16.97758971713483333587646484375</LongitudeDegrees>
            </Position>
            <AltitudeMeters>644.20001220703125</AltitudeMeters>
            <DistanceMeters>5312.4896215421</DistanceMeters>
          </Trackpoint>
          <Trackpoint>
            <Time>2022-08-26T20:48:01.000Z</Time>
            <Position>
              <LatitudeDegrees>50.17716807313263416290283203125</LatitudeDegrees>
              <LongitudeDegrees>16.9776258431375026702880859375</LongitudeDegrees>
            </Position>
            <AltitudeMeters>643.5999755859375</AltitudeMeters>
            <DistanceMeters>5315.2908956147</DistanceMeters>
          </Trackpoint>
          <Trackpoint>
            <Time>2022-08-26T20:48:17.000Z</Time>
            <Position>
              <LatitudeDegrees>50.1771711744368076324462890625</LatitudeDegrees>
              <LongitudeDegrees>16.97762877680361270904541015625</LongitudeDegrees>
            </Position>
            <AltitudeMeters>643.4000244140625</AltitudeMeters>
            <DistanceMeters>5315.6940598195</DistanceMeters>
          </Trackpoint>
          <Trackpoint>
            <Time>2022-08-26T20:48:31.000Z</Time>
            <Position>
              <LatitudeDegrees>50.17717276699841022491455078125</LatitudeDegrees>
              <LongitudeDegrees>16.97762575931847095489501953125</LongitudeDegrees>
            </Position>
            <AltitudeMeters>643.4000244140625</AltitudeMeters>
            <DistanceMeters>5315.9791399626</DistanceMeters>
          </Trackpoint>
          <Trackpoint>
            <Time>2022-08-26T20:48:44.000Z</Time>
            <Position>
              <LatitudeDegrees>50.17717176117002964019775390625</LatitudeDegrees>
              <LongitudeDegrees>16.97762995027005672454833984375</LongitudeDegrees>
            </Position>
            <AltitudeMeters>643.4000244140625</AltitudeMeters>
            <DistanceMeters>5316.3083221573</DistanceMeters>
          </Trackpoint>
          <Trackpoint>
            <Time>2022-08-26T20:49:02.000Z</Time>
            <Position>
              <LatitudeDegrees>50.17716924659907817840576171875</LatitudeDegrees>
              <LongitudeDegrees>16.9776312075555324554443359375</LongitudeDegrees>
            </Position>
            <AltitudeMeters>643.4000244140625</AltitudeMeters>
            <DistanceMeters>5316.6088230133</DistanceMeters>
          </Trackpoint>
          <Trackpoint>
            <Time>2022-08-26T20:49:20.000Z</Time>
            <Position>
              <LatitudeDegrees>50.1771423406898975372314453125</LatitudeDegrees>
              <LongitudeDegrees>16.977681331336498260498046875</LongitudeDegrees>
            </Position>
            <AltitudeMeters>642.79998779296875</AltitudeMeters>
            <DistanceMeters>5321.2699777977</DistanceMeters>
          </Trackpoint>
          <Trackpoint>
            <Time>2022-08-26T20:49:34.000Z</Time>
            <Position>
              <LatitudeDegrees>50.1770997606217861175537109375</LatitudeDegrees>
              <LongitudeDegrees>16.97780747897922992706298828125</LongitudeDegrees>
            </Position>
            <AltitudeMeters>644</AltitudeMeters>
            <DistanceMeters>5331.433838999</DistanceMeters>
          </Trackpoint>
          <Trackpoint>
            <Time>2022-08-26T20:49:43.000Z</Time>
            <Position>
              <LatitudeDegrees>50.1770751178264617919921875</LatitudeDegrees>
              <LongitudeDegrees>16.9779202155768871307373046875</LongitudeDegrees>
            </Position>
            <AltitudeMeters>644</AltitudeMeters>
            <DistanceMeters>5339.9247830176</DistanceMeters>
          </Trackpoint>
          <Trackpoint>
            <Time>2022-08-26T20:49:53.000Z</Time>
            <Position>
              <LatitudeDegrees>50.17705894075334072113037109375</LatitudeDegrees>
              <LongitudeDegrees>16.9779986701905727386474609375</LongitudeDegrees>
            </Position>
            <AltitudeMeters>643.79998779296875</AltitudeMeters>
            <DistanceMeters>5345.7995555382</DistanceMeters>
          </Trackpoint>
          <Trackpoint>
            <Time>2022-08-26T20:50:03.000Z</Time>
            <Position>
              <LatitudeDegrees>50.17705491743981838226318359375</LatitudeDegrees>
              <LongitudeDegrees>16.9780117459595203399658203125</LongitudeDegrees>
            </Position>
            <AltitudeMeters>643.79998779296875</AltitudeMeters>
            <DistanceMeters>5346.8361746085</DistanceMeters>
          </Trackpoint>
          <Trackpoint>
            <Time>2022-08-26T20:50:11.000Z</Time>
            <Position>
              <LatitudeDegrees>50.17704636789858341217041015625</LatitudeDegrees>
              <LongitudeDegrees>16.97796489112079143524169921875</LongitudeDegrees>
            </Position>
            <AltitudeMeters>643.20001220703125</AltitudeMeters>
            <DistanceMeters>5350.309527762</DistanceMeters>
          </Trackpoint>
          <Trackpoint>
            <Time>2022-08-26T20:50:13.000Z</Time>
            <Position>
              <LatitudeDegrees>50.1770454458892345428466796875</LatitudeDegrees>
              <LongitudeDegrees>16.97794142179191112518310546875</LongitudeDegrees>
            </Position>
            <AltitudeMeters>643.20001220703125</AltitudeMeters>
            <DistanceMeters>5351.9853421235</DistanceMeters>
          </Trackpoint>
          <Trackpoint>
            <Time>2022-08-26T20:50:18.000Z</Time>
            <Position>
              <LatitudeDegrees>50.177041590213775634765625</LatitudeDegrees>
              <LongitudeDegrees>16.9779265858232975006103515625</LongitudeDegrees>
            </Position>
            <AltitudeMeters>643.4000244140625</AltitudeMeters>
            <DistanceMeters>5353.1256626959</DistanceMeters>
          </Trackpoint>
          <Trackpoint>
            <Time>2022-08-26T20:50:25.000Z</Time>
            <Position>
              <LatitudeDegrees>50.177040584385395050048828125</LatitudeDegrees>
              <LongitudeDegrees>16.97793404571712017059326171875</LongitudeDegrees>
            </Position>
            <AltitudeMeters>643.4000244140625</AltitudeMeters>
            <DistanceMeters>5353.6632149689</DistanceMeters>
          </Trackpoint>
          <Trackpoint>
            <Time>2022-08-26T20:50:35.000Z</Time>
            <Position>
              <LatitudeDegrees>50.177042596042156219482421875</LatitudeDegrees>
              <LongitudeDegrees>16.97792985476553440093994140625</LongitudeDegrees>
            </Position>
            <AltitudeMeters>642.20001220703125</AltitudeMeters>
            <DistanceMeters>5354.0433218264</DistanceMeters>
          </Trackpoint>
          <Trackpoint>
            <Time>2022-08-26T20:50:43.000Z</Time>
            <Position>
              <LatitudeDegrees>50.177050642669200897216796875</LatitudeDegrees>
              <LongitudeDegrees>16.97795768268406391143798828125</LongitudeDegrees>
            </Position>
            <AltitudeMeters>641.5999755859375</AltitudeMeters>
            <DistanceMeters>5356.2206573846</DistanceMeters>
          </Trackpoint>
          <Trackpoint>
            <Time>2022-08-26T20:50:44.000Z</Time>
            <Position>
              <LatitudeDegrees>50.177049972116947174072265625</LatitudeDegrees>
              <LongitudeDegrees>16.97796170599758625030517578125</LongitudeDegrees>
            </Position>
            <AltitudeMeters>641.20001220703125</AltitudeMeters>
            <DistanceMeters>5356.5211582406</DistanceMeters>
          </Trackpoint>
          <Trackpoint>
            <Time>2022-08-26T20:50:48.000Z</Time>
            <Position>
              <LatitudeDegrees>50.17705910839140415191650390625</LatitudeDegrees>
              <LongitudeDegrees>16.97798484005033969879150390625</LongitudeDegrees>
            </Position>
            <AltitudeMeters>640</AltitudeMeters>
            <DistanceMeters>5358.4569995885</DistanceMeters>
          </Trackpoint>
          <Trackpoint>
            <Time>2022-08-26T20:50:54.000Z</Time>
            <Position>
              <LatitudeDegrees>50.1770692504942417144775390625</LatitudeDegrees>
              <LongitudeDegrees>16.9780087284743785858154296875</LongitudeDegrees>
            </Position>
            <AltitudeMeters>639.4000244140625</AltitudeMeters>
            <DistanceMeters>5360.4995213918</DistanceMeters>
          </Trackpoint>
          <Trackpoint>
            <Time>2022-08-26T20:50:58.000Z</Time>
            <Position>
              <LatitudeDegrees>50.177078135311603546142578125</LatitudeDegrees>
              <LongitudeDegrees>16.97802289389073848724365234375</LongitudeDegrees>
            </Position>
            <AltitudeMeters>639</AltitudeMeters>
            <DistanceMeters>5361.9153875474</DistanceMeters>
          </Trackpoint>
          <Trackpoint>
            <Time>2022-08-26T20:51:03.000Z</Time>
            <Position>
              <LatitudeDegrees>50.17708919942378997802734375</LatitudeDegrees>
              <LongitudeDegrees>16.9780449382960796356201171875</LongitudeDegrees>
            </Position>
            <AltitudeMeters>638.5999755859375</AltitudeMeters>
            <DistanceMeters>5363.9132098088</DistanceMeters>
          </Trackpoint>
          <Trackpoint>
            <Time>2022-08-26T20:51:13.000Z</Time>
            <Position>
              <LatitudeDegrees>50.1771339587867259979248046875</LatitudeDegrees>
              <LongitudeDegrees>16.97809346951544284820556640625</LongitudeDegrees>
            </Position>
            <AltitudeMeters>638.20001220703125</AltitudeMeters>
            <DistanceMeters>5369.9785648218</DistanceMeters>
          </Trackpoint>
          <Trackpoint>
            <Time>2022-08-26T20:51:14.000Z</Time>
            <Position>
              <LatitudeDegrees>50.17713437788188457489013671875</LatitudeDegrees>
              <LongitudeDegrees>16.97809598408639430999755859375</LongitudeDegrees>
            </Position>
            <AltitudeMeters>638</AltitudeMeters>
            <DistanceMeters>5370.1686182505</DistanceMeters>
          </Trackpoint>
          <Trackpoint>
            <Time>2022-08-26T20:51:24.000Z</Time>
            <Position>
              <LatitudeDegrees>50.1771557517349720001220703125</LatitudeDegrees>
              <LongitudeDegrees>16.97811962105333805084228515625</LongitudeDegrees>
            </Position>
            <AltitudeMeters>637</AltitudeMeters>
            <DistanceMeters>5373.0820821438</DistanceMeters>
          </Trackpoint>
          <Trackpoint>
            <Time>2022-08-26T20:51:26.000Z</Time>
            <Position>
              <LatitudeDegrees>50.17716455273330211639404296875</LatitudeDegrees>
              <LongitudeDegrees>16.97813286446034908294677734375</LongitudeDegrees>
            </Position>
            <AltitudeMeters>637</AltitudeMeters>
            <DistanceMeters>5374.4459720761</DistanceMeters>
          </Trackpoint>
          <Trackpoint>
            <Time>2022-08-26T20:51:34.000Z</Time>
            <Position>
              <LatitudeDegrees>50.17717234790325164794921875</LatitudeDegrees>
              <LongitudeDegrees>16.97816991247236728668212890625</LongitudeDegrees>
            </Position>
            <AltitudeMeters>636.5999755859375</AltitudeMeters>
            <DistanceMeters>5377.2262140504</DistanceMeters>
          </Trackpoint>
          <Trackpoint>
            <Time>2022-08-26T20:51:43.000Z</Time>
            <Position>
              <LatitudeDegrees>50.17717259936034679412841796875</LatitudeDegrees>
              <LongitudeDegrees>16.97820645757019519805908203125</LongitudeDegrees>
            </Position>
            <AltitudeMeters>636.4000244140625</AltitudeMeters>
            <DistanceMeters>5379.8320953766</DistanceMeters>
          </Trackpoint>
          <Trackpoint>
            <Time>2022-08-26T20:51:52.000Z</Time>
            <Position>
              <LatitudeDegrees>50.17720277421176433563232421875</LatitudeDegrees>
              <LongitudeDegrees>16.97823512367904186248779296875</LongitudeDegrees>
            </Position>
            <AltitudeMeters>635.79998779296875</AltitudeMeters>
            <DistanceMeters>5383.7628027933</DistanceMeters>
          </Trackpoint>
          <Trackpoint>
            <Time>2022-08-26T20:51:59.000Z</Time>
            <Position>
              <LatitudeDegrees>50.17719908617436885833740234375</LatitudeDegrees>
              <LongitudeDegrees>16.9782234728336334228515625</LongitudeDegrees>
            </Position>
            <AltitudeMeters>634.79998779296875</AltitudeMeters>
            <DistanceMeters>5384.6841209716</DistanceMeters>
          </Trackpoint>
          <Trackpoint>
            <Time>2022-08-26T20:52:02.000Z</Time>
            <Position>
              <LatitudeDegrees>50.177199505269527435302734375</LatitudeDegrees>
              <LongitudeDegrees>16.97821475565433502197265625</LongitudeDegrees>
            </Position>
            <AltitudeMeters>634.5999755859375</AltitudeMeters>
            <DistanceMeters>5385.2999644668</DistanceMeters>
          </Trackpoint>
          <Trackpoint>
            <Time>2022-08-26T20:52:08.000Z</Time>
            <Position>
              <LatitudeDegrees>50.177211575210094451904296875</LatitudeDegrees>
              <LongitudeDegrees>16.97821651585400104522705078125</LongitudeDegrees>
            </Position>
            <AltitudeMeters>633.79998779296875</AltitudeMeters>
            <DistanceMeters>5386.6438451493</DistanceMeters>
          </Trackpoint>
          <Trackpoint>
            <Time>2022-08-26T20:52:12.000Z</Time>
            <Position>
              <LatitudeDegrees>50.17721568234264850616455078125</LatitudeDegrees>
              <LongitudeDegrees>16.97821651585400104522705078125</LongitudeDegrees>
            </Position>
            <AltitudeMeters>633.20001220703125</AltitudeMeters>
            <DistanceMeters>5387.089559948</DistanceMeters>
          </Trackpoint>
          <Trackpoint>
            <Time>2022-08-26T20:52:18.000Z</Time>
            <Position>
              <LatitudeDegrees>50.17722062766551971435546875</LatitudeDegrees>
              <LongitudeDegrees>16.97820880450308322906494140625</LongitudeDegrees>
            </Position>
            <AltitudeMeters>632.79998779296875</AltitudeMeters>
            <DistanceMeters>5387.861560625</DistanceMeters>
          </Trackpoint>
          <Trackpoint>
            <Time>2022-08-26T20:52:21.000Z</Time>
            <Position>
              <LatitudeDegrees>50.17722054384648799896240234375</LatitudeDegrees>
              <LongitudeDegrees>16.97821852751076221466064453125</LongitudeDegrees>
            </Position>
            <AltitudeMeters>632.4000244140625</AltitudeMeters>
            <DistanceMeters>5388.5598615115</DistanceMeters>
          </Trackpoint>
          <Trackpoint>
            <Time>2022-08-26T20:52:25.000Z</Time>
            <Position>
              <LatitudeDegrees>50.17722339369356632232666015625</LatitudeDegrees>
              <LongitudeDegrees>16.97822908870875835418701171875</LongitudeDegrees>
            </Position>
            <AltitudeMeters>631.5999755859375</AltitudeMeters>
            <DistanceMeters>5389.3773122175</DistanceMeters>
          </Trackpoint>
          <Trackpoint>
            <Time>2022-08-26T20:52:31.000Z</Time>
            <Position>
              <LatitudeDegrees>50.17723093740642070770263671875</LatitudeDegrees>
              <LongitudeDegrees>16.97825322858989238739013671875</LongitudeDegrees>
            </Position>
            <AltitudeMeters>630.5999755859375</AltitudeMeters>
            <DistanceMeters>5391.2896879546</DistanceMeters>
          </Trackpoint>
          <Trackpoint>
            <Time>2022-08-26T20:52:33.000Z</Time>
            <Position>
              <LatitudeDegrees>50.17723915167152881622314453125</LatitudeDegrees>
              <LongitudeDegrees>16.9782514683902263641357421875</LongitudeDegrees>
            </Position>
            <AltitudeMeters>630.4000244140625</AltitudeMeters>
            <DistanceMeters>5392.2110061329</DistanceMeters>
          </Trackpoint>
          <Trackpoint>
            <Time>2022-08-26T20:52:38.000Z</Time>
            <Position>
              <LatitudeDegrees>50.1772709190845489501953125</LatitudeDegrees>
              <LongitudeDegrees>16.97827837429940700531005859375</LongitudeDegrees>
            </Position>
            <AltitudeMeters>629.4000244140625</AltitudeMeters>
            <DistanceMeters>5396.233678999</DistanceMeters>
          </Trackpoint>
          <Trackpoint>
            <Time>2022-08-26T20:52:40.000Z</Time>
            <Position>
              <LatitudeDegrees>50.17727938480675220489501953125</LatitudeDegrees>
              <LongitudeDegrees>16.978289186954498291015625</LongitudeDegrees>
            </Position>
            <AltitudeMeters>629</AltitudeMeters>
            <DistanceMeters>5397.450614715</DistanceMeters>
          </Trackpoint>
          <Trackpoint>
            <Time>2022-08-26T20:52:43.000Z</Time>
            <Position>
              <LatitudeDegrees>50.17728843726217746734619140625</LatitudeDegrees>
              <LongitudeDegrees>16.9782876782119274139404296875</LongitudeDegrees>
            </Position>
            <AltitudeMeters>628.20001220703125</AltitudeMeters>
            <DistanceMeters>5398.4652223804</DistanceMeters>
          </Trackpoint>
          <Trackpoint>
            <Time>2022-08-26T20:52:49.000Z</Time>
            <Position>
              <LatitudeDegrees>50.177297405898571014404296875</LatitudeDegrees>
              <LongitudeDegrees>16.978292874991893768310546875</LongitudeDegrees>
            </Position>
            <AltitudeMeters>627.20001220703125</AltitudeMeters>
            <DistanceMeters>5399.5276533454</DistanceMeters>
          </Trackpoint>
          <Trackpoint>
            <Time>2022-08-26T20:52:50.000Z</Time>
            <Position>
              <LatitudeDegrees>50.17729983665049076080322265625</LatitudeDegrees>
              <LongitudeDegrees>16.9782970659434795379638671875</LongitudeDegrees>
            </Position>
            <AltitudeMeters>627.20001220703125</AltitudeMeters>
            <DistanceMeters>5399.9308175502</DistanceMeters>
          </Trackpoint>
          <Trackpoint>
            <Time>2022-08-26T20:52:56.000Z</Time>
            <Position>
              <LatitudeDegrees>50.177298076450824737548828125</LatitudeDegrees>
              <LongitudeDegrees>16.97832397185266017913818359375</LongitudeDegrees>
            </Position>
            <AltitudeMeters>627</AltitudeMeters>
            <DistanceMeters>5401.85964919</DistanceMeters>
          </Trackpoint>
          <Trackpoint>
            <Time>2022-08-26T20:53:02.000Z</Time>
            <Position>
              <LatitudeDegrees>50.17730184830725193023681640625</LatitudeDegrees>
              <LongitudeDegrees>16.97832405567169189453125</LongitudeDegrees>
            </Position>
            <AltitudeMeters>626.20001220703125</AltitudeMeters>
            <DistanceMeters>5402.2628133948</DistanceMeters>
          </Trackpoint>
          <Trackpoint>
            <Time>2022-08-26T20:53:06.000Z</Time>
            <Position>
              <LatitudeDegrees>50.17731375060975551605224609375</LatitudeDegrees>
              <LongitudeDegrees>16.97833738289773464202880859375</LongitudeDegrees>
            </Position>
            <AltitudeMeters>625.79998779296875</AltitudeMeters>
            <DistanceMeters>5403.8921821297</DistanceMeters>
          </Trackpoint>
          <Trackpoint>
            <Time>2022-08-26T20:53:15.000Z</Time>
            <Position>
              <LatitudeDegrees>50.17732397653162479400634765625</LatitudeDegrees>
              <LongitudeDegrees>16.97833788581192493438720703125</LongitudeDegrees>
            </Position>
            <AltitudeMeters>625.5999755859375</AltitudeMeters>
            <DistanceMeters>5405.0245561205</DistanceMeters>
          </Trackpoint>
          <Trackpoint>
            <Time>2022-08-26T20:53:28.000Z</Time>
            <Position>
              <LatitudeDegrees>50.1773384772241115570068359375</LatitudeDegrees>
              <LongitudeDegrees>16.97833134792745113372802734375</LongitudeDegrees>
            </Position>
            <AltitudeMeters>625.5999755859375</AltitudeMeters>
            <DistanceMeters>5406.703062555</DistanceMeters>
          </Trackpoint>
          <Trackpoint>
            <Time>2022-08-26T20:53:38.000Z</Time>
            <Position>
              <LatitudeDegrees>50.17733906395733356475830078125</LatitudeDegrees>
              <LongitudeDegrees>16.97834425605833530426025390625</LongitudeDegrees>
            </Position>
            <AltitudeMeters>625.20001220703125</AltitudeMeters>
            <DistanceMeters>5407.6341304036</DistanceMeters>
          </Trackpoint>
          <Trackpoint>
            <Time>2022-08-26T20:53:40.000Z</Time>
            <Position>
              <LatitudeDegrees>50.17734107561409473419189453125</LatitudeDegrees>
              <LongitudeDegrees>16.9783453457057476043701171875</LongitudeDegrees>
            </Position>
            <AltitudeMeters>625.20001220703125</AltitudeMeters>
            <DistanceMeters>5407.8668973657</DistanceMeters>
          </Trackpoint>
          <Trackpoint>
            <Time>2022-08-26T20:53:53.000Z</Time>
            <Position>
              <LatitudeDegrees>50.177354402840137481689453125</LatitudeDegrees>
              <LongitudeDegrees>16.978341825306415557861328125</LongitudeDegrees>
            </Position>
            <AltitudeMeters>625.20001220703125</AltitudeMeters>
            <DistanceMeters>5409.3694016456</DistanceMeters>
          </Trackpoint>
          <Trackpoint>
            <Time>2022-08-26T20:54:07.000Z</Time>
            <Position>
              <LatitudeDegrees>50.1773525588214397430419921875</LatitudeDegrees>
              <LongitudeDegrees>16.9783372990787029266357421875</LongitudeDegrees>
            </Position>
            <AltitudeMeters>625</AltitudeMeters>
            <DistanceMeters>5409.749508503</DistanceMeters>
          </Trackpoint>
          <Trackpoint>
            <Time>2022-08-26T20:54:21.000Z</Time>
            <Position>
              <LatitudeDegrees>50.17734945751726627349853515625</LatitudeDegrees>
              <LongitudeDegrees>16.97833956219255924224853515625</LongitudeDegrees>
            </Position>
            <AltitudeMeters>625</AltitudeMeters>
            <DistanceMeters>5410.1296153605</DistanceMeters>
          </Trackpoint>
          <Trackpoint>
            <Time>2022-08-26T20:54:34.000Z</Time>
            <Position>
              <LatitudeDegrees>50.17737544141709804534912109375</LatitudeDegrees>
              <LongitudeDegrees>16.97833956219255924224853515625</LongitudeDegrees>
            </Position>
            <AltitudeMeters>624.79998779296875</AltitudeMeters>
            <DistanceMeters>5413.0213018558</DistanceMeters>
          </Trackpoint>
          <Trackpoint>
            <Time>2022-08-26T20:54:46.000Z</Time>
            <Position>
              <LatitudeDegrees>50.17736949026584625244140625</LatitudeDegrees>
              <LongitudeDegrees>16.97833411395549774169921875</LongitudeDegrees>
            </Position>
            <AltitudeMeters>625</AltitudeMeters>
            <DistanceMeters>5413.7933025328</DistanceMeters>
          </Trackpoint>
          <Trackpoint>
            <Time>2022-08-26T20:54:58.000Z</Time>
            <Position>
              <LatitudeDegrees>50.177358090877532958984375</LatitudeDegrees>
              <LongitudeDegrees>16.97832732461392879486083984375</LongitudeDegrees>
            </Position>
            <AltitudeMeters>625</AltitudeMeters>
            <DistanceMeters>5415.1538780254</DistanceMeters>
          </Trackpoint>
          <Trackpoint>
            <Time>2022-08-26T20:55:09.000Z</Time>
            <Position>
              <LatitudeDegrees>50.17736949026584625244140625</LatitudeDegrees>
              <LongitudeDegrees>16.9783225469291210174560546875</LongitudeDegrees>
            </Position>
            <AltitudeMeters>624.79998779296875</AltitudeMeters>
            <DistanceMeters>5416.4706068043</DistanceMeters>
          </Trackpoint>
          <Trackpoint>
            <Time>2022-08-26T20:55:19.000Z</Time>
            <Position>
              <LatitudeDegrees>50.1773518882691860198974609375</LatitudeDegrees>
              <LongitudeDegrees>16.97831936180591583251953125</LongitudeDegrees>
            </Position>
            <AltitudeMeters>624.79998779296875</AltitudeMeters>
            <DistanceMeters>5418.4434126608</DistanceMeters>
          </Trackpoint>
          <Trackpoint>
            <Time>2022-08-26T20:55:27.000Z</Time>
            <Position>
              <LatitudeDegrees>50.17733017913997173309326171875</LatitudeDegrees>
              <LongitudeDegrees>16.97827518917620182037353515625</LongitudeDegrees>
            </Position>
            <AltitudeMeters>625.20001220703125</AltitudeMeters>
            <DistanceMeters>5422.4129823345</DistanceMeters>
          </Trackpoint>
          <Trackpoint>
            <Time>2022-08-26T20:55:33.000Z</Time>
            <Position>
              <LatitudeDegrees>50.17733193933963775634765625</LatitudeDegrees>
              <LongitudeDegrees>16.9782990776002407073974609375</LongitudeDegrees>
            </Position>
            <AltitudeMeters>626.20001220703125</AltitudeMeters>
            <DistanceMeters>5424.1261007905</DistanceMeters>
          </Trackpoint>
          <Trackpoint>
            <Time>2022-08-26T20:55:36.000Z</Time>
            <Position>
              <LatitudeDegrees>50.17733789049088954925537109375</LatitudeDegrees>
              <LongitudeDegrees>16.9783074595034122467041015625</LongitudeDegrees>
            </Position>
            <AltitudeMeters>626.79998779296875</AltitudeMeters>
            <DistanceMeters>5425.0175303879</DistanceMeters>
          </Trackpoint>
          <Trackpoint>
            <Time>2022-08-26T20:55:43.000Z</Time>
            <Position>
              <LatitudeDegrees>50.177331268787384033203125</LatitudeDegrees>
              <LongitudeDegrees>16.97834207676351070404052734375</LongitudeDegrees>
            </Position>
            <AltitudeMeters>627.20001220703125</AltitudeMeters>
            <DistanceMeters>5427.5920354102</DistanceMeters>
          </Trackpoint>
          <Trackpoint>
            <Time>2022-08-26T20:55:44.000Z</Time>
            <Position>
              <LatitudeDegrees>50.17733034677803516387939453125</LatitudeDegrees>
              <LongitudeDegrees>16.97834610007703304290771484375</LongitudeDegrees>
            </Position>
            <AltitudeMeters>627.20001220703125</AltitudeMeters>
            <DistanceMeters>5427.8925362662</DistanceMeters>
          </Trackpoint>
          <Trackpoint>
            <Time>2022-08-26T20:55:54.000Z</Time>
            <Position>
              <LatitudeDegrees>50.1773163489997386932373046875</LatitudeDegrees>
              <LongitudeDegrees>16.97837007232010364532470703125</LongitudeDegrees>
            </Position>
            <AltitudeMeters>627.79998779296875</AltitudeMeters>
            <DistanceMeters>5430.2046360164</DistanceMeters>
          </Trackpoint>
          <Trackpoint>
            <Time>2022-08-26T20:55:57.000Z</Time>
            <Position>
              <LatitudeDegrees>50.17731626518070697784423828125</LatitudeDegrees>
              <LongitudeDegrees>16.97838163934648036956787109375</LongitudeDegrees>
            </Position>
            <AltitudeMeters>628.4000244140625</AltitudeMeters>
            <DistanceMeters>5431.0275915032</DistanceMeters>
          </Trackpoint>
          <Trackpoint>
            <Time>2022-08-26T20:56:04.000Z</Time>
            <Position>
              <LatitudeDegrees>50.17731458880007266998291015625</LatitudeDegrees>
              <LongitudeDegrees>16.97841851972043514251708984375</LongitudeDegrees>
            </Position>
            <AltitudeMeters>629.4000244140625</AltitudeMeters>
            <DistanceMeters>5433.6627629939</DistanceMeters>
          </Trackpoint>
          <Trackpoint>
            <Time>2022-08-26T20:56:05.000Z</Time>
            <Position>
              <LatitudeDegrees>50.17731341533362865447998046875</LatitudeDegrees>
              <LongitudeDegrees>16.97842069901525974273681640625</LongitudeDegrees>
            </Position>
            <AltitudeMeters>629.4000244140625</AltitudeMeters>
            <DistanceMeters>5433.895529956</DistanceMeters>
          </Trackpoint>
          <Trackpoint>
            <Time>2022-08-26T20:56:12.000Z</Time>
            <Position>
              <LatitudeDegrees>50.1773059554398059844970703125</LatitudeDegrees>
              <LongitudeDegrees>16.9784559868276119232177734375</LongitudeDegrees>
            </Position>
            <AltitudeMeters>629.5999755859375</AltitudeMeters>
            <DistanceMeters>5436.5443729859</DistanceMeters>
          </Trackpoint>
          <Trackpoint>
            <Time>2022-08-26T20:56:20.000Z</Time>
            <Position>
              <LatitudeDegrees>50.17729581333696842193603515625</LatitudeDegrees>
              <LongitudeDegrees>16.978494711220264434814453125</LongitudeDegrees>
            </Position>
            <AltitudeMeters>629.4000244140625</AltitudeMeters>
            <DistanceMeters>5439.5282723431</DistanceMeters>
          </Trackpoint>
          <Trackpoint>
            <Time>2022-08-26T20:56:31.000Z</Time>
            <Position>
              <LatitudeDegrees>50.177277289330959320068359375</LatitudeDegrees>
              <LongitudeDegrees>16.978531591594219207763671875</LongitudeDegrees>
            </Position>
            <AltitudeMeters>630.4000244140625</AltitudeMeters>
            <DistanceMeters>5442.8691067426</DistanceMeters>
          </Trackpoint>
          <Trackpoint>
            <Time>2022-08-26T20:56:35.000Z</Time>
            <Position>
              <LatitudeDegrees>50.1772630400955677032470703125</LatitudeDegrees>
              <LongitudeDegrees>16.97856302373111248016357421875</LongitudeDegrees>
            </Position>
            <AltitudeMeters>630.4000244140625</AltitudeMeters>
            <DistanceMeters>5445.6117430068</DistanceMeters>
          </Trackpoint>
          <Trackpoint>
            <Time>2022-08-26T20:56:42.000Z</Time>
            <Position>
              <LatitudeDegrees>50.17726060934364795684814453125</LatitudeDegrees>
              <LongitudeDegrees>16.97862186469137668609619140625</LongitudeDegrees>
            </Position>
            <AltitudeMeters>630.4000244140625</AltitudeMeters>
            <DistanceMeters>5449.8144599286</DistanceMeters>
          </Trackpoint>
          <Trackpoint>
            <Time>2022-08-26T20:56:51.000Z</Time>
            <Position>
              <LatitudeDegrees>50.17728558741509914398193359375</LatitudeDegrees>
              <LongitudeDegrees>16.978684477508068084716796875</LongitudeDegrees>
            </Position>
            <AltitudeMeters>630</AltitudeMeters>
            <DistanceMeters>5455.0727956036</DistanceMeters>
          </Trackpoint>
          <Trackpoint>
            <Time>2022-08-26T20:56:54.000Z</Time>
            <Position>
              <LatitudeDegrees>50.177284665405750274658203125</LatitudeDegrees>
              <LongitudeDegrees>16.9786963798105716705322265625</LongitudeDegrees>
            </Position>
            <AltitudeMeters>629.4000244140625</AltitudeMeters>
            <DistanceMeters>5455.9227403756</DistanceMeters>
          </Trackpoint>
          <Trackpoint>
            <Time>2022-08-26T20:57:00.000Z</Time>
            <Position>
              <LatitudeDegrees>50.17727955244481563568115234375</LatitudeDegrees>
              <LongitudeDegrees>16.97872169315814971923828125</LongitudeDegrees>
            </Position>
            <AltitudeMeters>628.20001220703125</AltitudeMeters>
            <DistanceMeters>5457.8137481154</DistanceMeters>
          </Trackpoint>
          <Trackpoint>
            <Time>2022-08-26T20:57:01.000Z</Time>
            <Position>
              <LatitudeDegrees>50.17727804370224475860595703125</LatitudeDegrees>
              <LongitudeDegrees>16.97872395627200603485107421875</LongitudeDegrees>
            </Position>
            <AltitudeMeters>628</AltitudeMeters>
            <DistanceMeters>5458.0465150775</DistanceMeters>
          </Trackpoint>
          <Trackpoint>
            <Time>2022-08-26T20:57:10.000Z</Time>
            <Position>
              <LatitudeDegrees>50.1772843301296234130859375</LatitudeDegrees>
              <LongitudeDegrees>16.97876720689237117767333984375</LongitudeDegrees>
            </Position>
            <AltitudeMeters>627.4000244140625</AltitudeMeters>
            <DistanceMeters>5461.2067784442</DistanceMeters>
          </Trackpoint>
          <Trackpoint>
            <Time>2022-08-26T20:57:18.000Z</Time>
            <Position>
              <LatitudeDegrees>50.17728072591125965118408203125</LatitudeDegrees>
              <LongitudeDegrees>16.97880090214312076568603515625</LongitudeDegrees>
            </Position>
            <AltitudeMeters>627.4000244140625</AltitudeMeters>
            <DistanceMeters>5463.6425042547</DistanceMeters>
          </Trackpoint>
          <Trackpoint>
            <Time>2022-08-26T20:57:20.000Z</Time>
            <Position>
              <LatitudeDegrees>50.1772767864167690277099609375</LatitudeDegrees>
              <LongitudeDegrees>16.97880475781857967376708984375</LongitudeDegrees>
            </Position>
            <AltitudeMeters>627.20001220703125</AltitudeMeters>
            <DistanceMeters>5464.1629870049</DistanceMeters>
          </Trackpoint>
          <Trackpoint>
            <Time>2022-08-26T20:57:30.000Z</Time>
            <Position>
              <LatitudeDegrees>50.17725172452628612518310546875</LatitudeDegrees>
              <LongitudeDegrees>16.9788459129631519317626953125</LongitudeDegrees>
            </Position>
            <AltitudeMeters>626.5999755859375</AltitudeMeters>
            <DistanceMeters>5468.2113927091</DistanceMeters>
          </Trackpoint>
          <Trackpoint>
            <Time>2022-08-26T20:57:35.000Z</Time>
            <Position>
              <LatitudeDegrees>50.17725306563079357147216796875</LatitudeDegrees>
              <LongitudeDegrees>16.9788794405758380889892578125</LongitudeDegrees>
            </Position>
            <AltitudeMeters>626.4000244140625</AltitudeMeters>
            <DistanceMeters>5470.6059904921</DistanceMeters>
          </Trackpoint>
          <Trackpoint>
            <Time>2022-08-26T20:57:40.000Z</Time>
            <Position>
              <LatitudeDegrees>50.1772610284388065338134765625</LatitudeDegrees>
              <LongitudeDegrees>16.978910453617572784423828125</LongitudeDegrees>
            </Position>
            <AltitudeMeters>626.20001220703125</AltitudeMeters>
            <DistanceMeters>5472.9892483638</DistanceMeters>
          </Trackpoint>
          <Trackpoint>
            <Time>2022-08-26T20:57:48.000Z</Time>
            <Position>
              <LatitudeDegrees>50.1772539876401424407958984375</LatitudeDegrees>
              <LongitudeDegrees>16.978916823863983154296875</LongitudeDegrees>
            </Position>
            <AltitudeMeters>625.79998779296875</AltitudeMeters>
            <DistanceMeters>5473.895745444</DistanceMeters>
          </Trackpoint>
          <Trackpoint>
            <Time>2022-08-26T20:57:58.000Z</Time>
            <Position>
              <LatitudeDegrees>50.17725172452628612518310546875</LatitudeDegrees>
              <LongitudeDegrees>16.97896719910204410552978515625</LongitudeDegrees>
            </Position>
            <AltitudeMeters>626.4000244140625</AltitudeMeters>
            <DistanceMeters>5477.4942353524</DistanceMeters>
          </Trackpoint>
          <Trackpoint>
            <Time>2022-08-26T20:58:08.000Z</Time>
            <Position>
              <LatitudeDegrees>50.17726312391459941864013671875</LatitudeDegrees>
              <LongitudeDegrees>16.97900542058050632476806640625</LongitudeDegrees>
            </Position>
            <AltitudeMeters>626.4000244140625</AltitudeMeters>
            <DistanceMeters>5480.4992439121</DistanceMeters>
          </Trackpoint>
          <Trackpoint>
            <Time>2022-08-26T20:58:19.000Z</Time>
            <Position>
              <LatitudeDegrees>50.17725943587720394134521484375</LatitudeDegrees>
              <LongitudeDegrees>16.97900977917015552520751953125</LongitudeDegrees>
            </Position>
            <AltitudeMeters>626.4000244140625</AltitudeMeters>
            <DistanceMeters>5481.01097843</DistanceMeters>
          </Trackpoint>
          <Trackpoint>
            <Time>2022-08-26T20:58:26.000Z</Time>
            <Position>
              <LatitudeDegrees>50.17725817859172821044921875</LatitudeDegrees>
              <LongitudeDegrees>16.97901271283626556396484375</LongitudeDegrees>
            </Position>
            <AltitudeMeters>626.4000244140625</AltitudeMeters>
            <DistanceMeters>5481.2797545665</DistanceMeters>
          </Trackpoint>
          <Trackpoint>
            <Time>2022-08-26T20:58:36.000Z</Time>
            <Position>
              <LatitudeDegrees>50.17725859768688678741455078125</LatitudeDegrees>
              <LongitudeDegrees>16.97902302257716655731201171875</LongitudeDegrees>
            </Position>
            <AltitudeMeters>626.4000244140625</AltitudeMeters>
            <DistanceMeters>5482.0219369316</DistanceMeters>
          </Trackpoint>
          <Trackpoint>
            <Time>2022-08-26T20:58:47.000Z</Time>
            <Position>
              <LatitudeDegrees>50.1772548258304595947265625</LatitudeDegrees>
              <LongitudeDegrees>16.97902268730103969573974609375</LongitudeDegrees>
            </Position>
            <AltitudeMeters>626.5999755859375</AltitudeMeters>
            <DistanceMeters>5482.4469093177</DistanceMeters>
          </Trackpoint>
          <Trackpoint>
            <Time>2022-08-26T20:58:55.000Z</Time>
            <Position>
              <LatitudeDegrees>50.17725474201142787933349609375</LatitudeDegrees>
              <LongitudeDegrees>16.97898245416581630706787109375</LongitudeDegrees>
            </Position>
            <AltitudeMeters>626.5999755859375</AltitudeMeters>
            <DistanceMeters>5485.3150794034</DistanceMeters>
          </Trackpoint>
          <Trackpoint>
            <Time>2022-08-26T20:59:03.000Z</Time>
            <Position>
              <LatitudeDegrees>50.17726832069456577301025390625</LatitudeDegrees>
              <LongitudeDegrees>16.97894322685897350311279296875</LongitudeDegrees>
            </Position>
            <AltitudeMeters>627.20001220703125</AltitudeMeters>
            <DistanceMeters>5488.4924408031</DistanceMeters>
          </Trackpoint>
          <Trackpoint>
            <Time>2022-08-26T20:59:05.000Z</Time>
            <Position>
              <LatitudeDegrees>50.17727133817970752716064453125</LatitudeDegrees>
              <LongitudeDegrees>16.97893090546131134033203125</LongitudeDegrees>
            </Position>
            <AltitudeMeters>627.4000244140625</AltitudeMeters>
            <DistanceMeters>5489.4331572808</DistanceMeters>
          </Trackpoint>
          <Trackpoint>
            <Time>2022-08-26T20:59:10.000Z</Time>
            <Position>
              <LatitudeDegrees>50.177281983196735382080078125</LatitudeDegrees>
              <LongitudeDegrees>16.978911459445953369140625</LongitudeDegrees>
            </Position>
            <AltitudeMeters>628.79998779296875</AltitudeMeters>
            <DistanceMeters>5491.2560857301</DistanceMeters>
          </Trackpoint>
          <Trackpoint>
            <Time>2022-08-26T20:59:15.000Z</Time>
            <Position>
              <LatitudeDegrees>50.17728659324347972869873046875</LatitudeDegrees>
              <LongitudeDegrees>16.9788993895053863525390625</LongitudeDegrees>
            </Position>
            <AltitudeMeters>629.79998779296875</AltitudeMeters>
            <DistanceMeters>5492.2617539467</DistanceMeters>
          </Trackpoint>
          <Trackpoint>
            <Time>2022-08-26T20:59:25.000Z</Time>
            <Position>
              <LatitudeDegrees>50.177286677062511444091796875</LatitudeDegrees>
              <LongitudeDegrees>16.97887063957750797271728515625</LongitudeDegrees>
            </Position>
            <AltitudeMeters>631</AltitudeMeters>
            <DistanceMeters>5494.3130987794</DistanceMeters>
          </Trackpoint>
          <Trackpoint>
            <Time>2022-08-26T20:59:32.000Z</Time>
            <Position>
              <LatitudeDegrees>50.1772932149469852447509765625</LatitudeDegrees>
              <LongitudeDegrees>16.97883308865129947662353515625</LongitudeDegrees>
            </Position>
            <AltitudeMeters>631.79998779296875</AltitudeMeters>
            <DistanceMeters>5497.0868372549</DistanceMeters>
          </Trackpoint>
          <Trackpoint>
            <Time>2022-08-26T20:59:36.000Z</Time>
            <Position>
              <LatitudeDegrees>50.17728902399539947509765625</LatitudeDegrees>
              <LongitudeDegrees>16.97880408726632595062255859375</LongitudeDegrees>
            </Position>
            <AltitudeMeters>632</AltitudeMeters>
            <DistanceMeters>5499.2053150085</DistanceMeters>
          </Trackpoint>
          <Trackpoint>
            <Time>2022-08-26T20:59:42.000Z</Time>
            <Position>
              <LatitudeDegrees>50.17727754078805446624755859375</LatitudeDegrees>
              <LongitudeDegrees>16.9787664525210857391357421875</LongitudeDegrees>
            </Position>
            <AltitudeMeters>632.5999755859375</AltitudeMeters>
            <DistanceMeters>5502.1770846433</DistanceMeters>
          </Trackpoint>
          <Trackpoint>
            <Time>2022-08-26T20:59:45.000Z</Time>
            <Position>
              <LatitudeDegrees>50.17727418802678585052490234375</LatitudeDegrees>
              <LongitudeDegrees>16.97875781916081905364990234375</LongitudeDegrees>
            </Position>
            <AltitudeMeters>633</AltitudeMeters>
            <DistanceMeters>5502.9007865389</DistanceMeters>
          </Trackpoint>
          <Trackpoint>
            <Time>2022-08-26T20:59:52.000Z</Time>
            <Position>
              <LatitudeDegrees>50.17725759185850620269775390625</LatitudeDegrees>
              <LongitudeDegrees>16.9787572324275970458984375</LongitudeDegrees>
            </Position>
            <AltitudeMeters>633.4000244140625</AltitudeMeters>
            <DistanceMeters>5504.7483170247</DistanceMeters>
          </Trackpoint>
          <Trackpoint>
            <Time>2022-08-26T21:00:02.000Z</Time>
            <Position>
              <LatitudeDegrees>50.17725859768688678741455078125</LatitudeDegrees>
              <LongitudeDegrees>16.97878296487033367156982421875</LongitudeDegrees>
            </Position>
            <AltitudeMeters>633.20001220703125</AltitudeMeters>
            <DistanceMeters>5506.5860462186</DistanceMeters>
          </Trackpoint>
          <Trackpoint>
            <Time>2022-08-26T21:00:10.000Z</Time>
            <Position>
              <LatitudeDegrees>50.1772469468414783477783203125</LatitudeDegrees>
              <LongitudeDegrees>16.97882135398685932159423828125</LongitudeDegrees>
            </Position>
            <AltitudeMeters>632</AltitudeMeters>
            <DistanceMeters>5509.6149994482</DistanceMeters>
          </Trackpoint>
          <Trackpoint>
            <Time>2022-08-26T21:00:11.000Z</Time>
            <Position>
              <LatitudeDegrees>50.17724736593663692474365234375</LatitudeDegrees>
              <LongitudeDegrees>16.97882604785263538360595703125</LongitudeDegrees>
            </Position>
            <AltitudeMeters>632</AltitudeMeters>
            <DistanceMeters>5509.9705568559</DistanceMeters>
          </Trackpoint>
          <Trackpoint>
            <Time>2022-08-26T21:00:21.000Z</Time>
            <Position>
              <LatitudeDegrees>50.17721031792461872100830078125</LatitudeDegrees>
              <LongitudeDegrees>16.9788537919521331787109375</LongitudeDegrees>
            </Position>
            <AltitudeMeters>631.4000244140625</AltitudeMeters>
            <DistanceMeters>5514.5446892459</DistanceMeters>
          </Trackpoint>
          <Trackpoint>
            <Time>2022-08-26T21:00:30.000Z</Time>
            <Position>
              <LatitudeDegrees>50.17719925381243228912353515625</LatitudeDegrees>
              <LongitudeDegrees>16.97887885384261608123779296875</LongitudeDegrees>
            </Position>
            <AltitudeMeters>631.79998779296875</AltitudeMeters>
            <DistanceMeters>5516.7157949328</DistanceMeters>
          </Trackpoint>
          <Trackpoint>
            <Time>2022-08-26T21:00:39.000Z</Time>
            <Position>
              <LatitudeDegrees>50.17719875089824199676513671875</LatitudeDegrees>
              <LongitudeDegrees>16.97887751273810863494873046875</LongitudeDegrees>
            </Position>
            <AltitudeMeters>632</AltitudeMeters>
            <DistanceMeters>5516.850183001</DistanceMeters>
          </Trackpoint>
          <Trackpoint>
            <Time>2022-08-26T21:00:49.000Z</Time>
            <Position>
              <LatitudeDegrees>50.177208222448825836181640625</LatitudeDegrees>
              <LongitudeDegrees>16.97886661626398563385009765625</LongitudeDegrees>
            </Position>
            <AltitudeMeters>632</AltitudeMeters>
            <DistanceMeters>5518.1600358647</DistanceMeters>
          </Trackpoint>
          <Trackpoint>
            <Time>2022-08-26T21:00:56.000Z</Time>
            <Position>
              <LatitudeDegrees>50.177229344844818115234375</LatitudeDegrees>
              <LongitudeDegrees>16.97891992516815662384033203125</LongitudeDegrees>
            </Position>
            <AltitudeMeters>631.4000244140625</AltitudeMeters>
            <DistanceMeters>5522.6283128276</DistanceMeters>
          </Trackpoint>
          <Trackpoint>
            <Time>2022-08-26T21:00:58.000Z</Time>
            <Position>
              <LatitudeDegrees>50.17723328433930873870849609375</LatitudeDegrees>
              <LongitudeDegrees>16.9789391197264194488525390625</LongitudeDegrees>
            </Position>
            <AltitudeMeters>631</AltitudeMeters>
            <DistanceMeters>5524.0631847484</DistanceMeters>
          </Trackpoint>
          <Trackpoint>
            <Time>2022-08-26T21:01:01.000Z</Time>
            <Position>
              <LatitudeDegrees>50.17723462544381618499755859375</LatitudeDegrees>
              <LongitudeDegrees>16.97895563207566738128662109375</LongitudeDegrees>
            </Position>
            <AltitudeMeters>629.79998779296875</AltitudeMeters>
            <DistanceMeters>5525.2500680305</DistanceMeters>
          </Trackpoint>
          <Trackpoint>
            <Time>2022-08-26T21:01:04.000Z</Time>
            <Position>
              <LatitudeDegrees>50.177238397300243377685546875</LatitudeDegrees>
              <LongitudeDegrees>16.9789682887494564056396484375</LongitudeDegrees>
            </Position>
            <AltitudeMeters>628.4000244140625</AltitudeMeters>
            <DistanceMeters>5526.2467166189</DistanceMeters>
          </Trackpoint>
          <Trackpoint>
            <Time>2022-08-26T21:01:07.000Z</Time>
            <Position>
              <LatitudeDegrees>50.17724585719406604766845703125</LatitudeDegrees>
              <LongitudeDegrees>16.978978849947452545166015625</LongitudeDegrees>
            </Position>
            <AltitudeMeters>627.20001220703125</AltitudeMeters>
            <DistanceMeters>5527.3670650584</DistanceMeters>
          </Trackpoint>
          <Trackpoint>
            <Time>2022-08-26T21:01:08.000Z</Time>
            <Position>
              <LatitudeDegrees>50.1772494614124298095703125</LatitudeDegrees>
              <LongitudeDegrees>16.978980861604213714599609375</LongitudeDegrees>
            </Position>
            <AltitudeMeters>626.79998779296875</AltitudeMeters>
            <DistanceMeters>5527.7920374444</DistanceMeters>
          </Trackpoint>
          <Trackpoint>
            <Time>2022-08-26T21:01:11.000Z</Time>
            <Position>
              <LatitudeDegrees>50.17725549638271331787109375</LatitudeDegrees>
              <LongitudeDegrees>16.9790038280189037322998046875</LongitudeDegrees>
            </Position>
            <AltitudeMeters>626</AltitudeMeters>
            <DistanceMeters>5529.5621889989</DistanceMeters>
          </Trackpoint>
          <Trackpoint>
            <Time>2022-08-26T21:01:18.000Z</Time>
            <Position>
              <LatitudeDegrees>50.17728072591125965118408203125</LatitudeDegrees>
              <LongitudeDegrees>16.97906007058918476104736328125</LongitudeDegrees>
            </Position>
            <AltitudeMeters>625</AltitudeMeters>
            <DistanceMeters>5534.4576790543</DistanceMeters>
          </Trackpoint>
          <Trackpoint>
            <Time>2022-08-26T21:01:25.000Z</Time>
            <Position>
              <LatitudeDegrees>50.17728659324347972869873046875</LatitudeDegrees>
              <LongitudeDegrees>16.9790886528789997100830078125</LongitudeDegrees>
            </Position>
            <AltitudeMeters>623.79998779296875</AltitudeMeters>
            <DistanceMeters>5536.5994724228</DistanceMeters>
          </Trackpoint>
          <Trackpoint>
            <Time>2022-08-26T21:01:27.000Z</Time>
            <Position>
              <LatitudeDegrees>50.17728156410157680511474609375</LatitudeDegrees>
              <LongitudeDegrees>16.97909510694444179534912109375</LongitudeDegrees>
            </Position>
            <AltitudeMeters>623.20001220703125</AltitudeMeters>
            <DistanceMeters>5537.3231743185</DistanceMeters>
          </Trackpoint>
          <Trackpoint>
            <Time>2022-08-26T21:01:29.000Z</Time>
            <Position>
              <LatitudeDegrees>50.17728022299706935882568359375</LatitudeDegrees>
              <LongitudeDegrees>16.97910080663859844207763671875</LongitudeDegrees>
            </Position>
            <AltitudeMeters>622.79998779296875</AltitudeMeters>
            <DistanceMeters>5537.7688891172</DistanceMeters>
          </Trackpoint>
          <Trackpoint>
            <Time>2022-08-26T21:01:37.000Z</Time>
            <Position>
              <LatitudeDegrees>50.177266895771026611328125</LatitudeDegrees>
              <LongitudeDegrees>16.9791225157678127288818359375</LongitudeDegrees>
            </Position>
            <AltitudeMeters>621.79998779296875</AltitudeMeters>
            <DistanceMeters>5539.9148944728</DistanceMeters>
          </Trackpoint>
          <Trackpoint>
            <Time>2022-08-26T21:01:39.000Z</Time>
            <Position>
              <LatitudeDegrees>50.17726278863847255706787109375</LatitudeDegrees>
              <LongitudeDegrees>16.979129053652286529541015625</LongitudeDegrees>
            </Position>
            <AltitudeMeters>621.5999755859375</AltitudeMeters>
            <DistanceMeters>5540.5663648043</DistanceMeters>
          </Trackpoint>
          <Trackpoint>
            <Time>2022-08-26T21:01:49.000Z</Time>
            <Position>
              <LatitudeDegrees>50.17724133096635341644287109375</LatitudeDegrees>
              <LongitudeDegrees>16.9791671074926853179931640625</LongitudeDegrees>
            </Position>
            <AltitudeMeters>621.4000244140625</AltitudeMeters>
            <DistanceMeters>5544.1811290587</DistanceMeters>
          </Trackpoint>
          <Trackpoint>
            <Time>2022-08-26T21:01:57.000Z</Time>
            <Position>
              <LatitudeDegrees>50.17724820412695407867431640625</LatitudeDegrees>
              <LongitudeDegrees>16.9791845418512821197509765625</LongitudeDegrees>
            </Position>
            <AltitudeMeters>621.4000244140625</AltitudeMeters>
            <DistanceMeters>5545.6409571447</DistanceMeters>
          </Trackpoint>
          <Trackpoint>
            <Time>2022-08-26T21:02:05.000Z</Time>
            <Position>
              <LatitudeDegrees>50.1772320270538330078125</LatitudeDegrees>
              <LongitudeDegrees>16.979195438325405120849609375</LongitudeDegrees>
            </Position>
            <AltitudeMeters>621.5999755859375</AltitudeMeters>
            <DistanceMeters>5547.6022864299</DistanceMeters>
          </Trackpoint>
          <Trackpoint>
            <Time>2022-08-26T21:02:12.000Z</Time>
            <Position>
              <LatitudeDegrees>50.1772399060428142547607421875</LatitudeDegrees>
              <LongitudeDegrees>16.97922066785395145416259765625</LongitudeDegrees>
            </Position>
            <AltitudeMeters>622.79998779296875</AltitudeMeters>
            <DistanceMeters>5549.6001086914</DistanceMeters>
          </Trackpoint>
          <Trackpoint>
            <Time>2022-08-26T21:02:14.000Z</Time>
            <Position>
              <LatitudeDegrees>50.17724250443279743194580078125</LatitudeDegrees>
              <LongitudeDegrees>16.9792160578072071075439453125</LongitudeDegrees>
            </Position>
            <AltitudeMeters>623.20001220703125</AltitudeMeters>
            <DistanceMeters>5550.04582349</DistanceMeters>
          </Trackpoint>
          <Trackpoint>
            <Time>2022-08-26T21:02:16.000Z</Time>
            <Position>
              <LatitudeDegrees>50.17723948694765567779541015625</LatitudeDegrees>
              <LongitudeDegrees>16.9792066700756549835205078125</LongitudeDegrees>
            </Position>
            <AltitudeMeters>624</AltitudeMeters>
            <DistanceMeters>5550.7940645872</DistanceMeters>
          </Trackpoint>
          <Trackpoint>
            <Time>2022-08-26T21:02:24.000Z</Time>
            <Position>
              <LatitudeDegrees>50.1772320270538330078125</LatitudeDegrees>
              <LongitudeDegrees>16.97918864898383617401123046875</LongitudeDegrees>
            </Position>
            <AltitudeMeters>625</AltitudeMeters>
            <DistanceMeters>5552.320419632</DistanceMeters>
          </Trackpoint>
          <Trackpoint>
            <Time>2022-08-26T21:02:35.000Z</Time>
            <Position>
              <LatitudeDegrees>50.17721367068588733673095703125</LatitudeDegrees>
              <LongitudeDegrees>16.9791583903133869171142578125</LongitudeDegrees>
            </Position>
            <AltitudeMeters>625.79998779296875</AltitudeMeters>
            <DistanceMeters>5555.2921892667</DistanceMeters>
          </Trackpoint>
          <Trackpoint>
            <Time>2022-08-26T21:02:41.000Z</Time>
            <Position>
              <LatitudeDegrees>50.17722330987453460693359375</LatitudeDegrees>
              <LongitudeDegrees>16.97915554046630859375</LongitudeDegrees>
            </Position>
            <AltitudeMeters>626</AltitudeMeters>
            <DistanceMeters>5556.3839630943</DistanceMeters>
          </Trackpoint>
          <Trackpoint>
            <Time>2022-08-26T21:02:53.000Z</Time>
            <Position>
              <LatitudeDegrees>50.17722666263580322265625</LatitudeDegrees>
              <LongitudeDegrees>16.97918881662189960479736328125</LongitudeDegrees>
            </Position>
            <AltitudeMeters>625.20001220703125</AltitudeMeters>
            <DistanceMeters>5558.7842107422</DistanceMeters>
          </Trackpoint>
          <Trackpoint>
            <Time>2022-08-26T21:03:06.000Z</Time>
            <Position>
              <LatitudeDegrees>50.177221633493900299072265625</LatitudeDegrees>
              <LongitudeDegrees>16.97919485159218311309814453125</LongitudeDegrees>
            </Position>
            <AltitudeMeters>625</AltitudeMeters>
            <DistanceMeters>5559.4825116286</DistanceMeters>
          </Trackpoint>
          <Trackpoint>
            <Time>2022-08-26T21:03:17.000Z</Time>
            <Position>
              <LatitudeDegrees>50.17719338648021221160888671875</LatitudeDegrees>
              <LongitudeDegrees>16.979213543236255645751953125</LongitudeDegrees>
            </Position>
            <AltitudeMeters>624.4000244140625</AltitudeMeters>
            <DistanceMeters>5562.8955452664</DistanceMeters>
          </Trackpoint>
          <Trackpoint>
            <Time>2022-08-26T21:03:23.000Z</Time>
            <Position>
              <LatitudeDegrees>50.17719246447086334228515625</LatitudeDegrees>
              <LongitudeDegrees>16.97922787629067897796630859375</LongitudeDegrees>
            </Position>
            <AltitudeMeters>624</AltitudeMeters>
            <DistanceMeters>5563.9190143023</DistanceMeters>
          </Trackpoint>
          <Trackpoint>
            <Time>2022-08-26T21:03:27.000Z</Time>
            <Position>
              <LatitudeDegrees>50.17720160074532032012939453125</LatitudeDegrees>
              <LongitudeDegrees>16.97925746440887451171875</LongitudeDegrees>
            </Position>
            <AltitudeMeters>623.20001220703125</AltitudeMeters>
            <DistanceMeters>5566.2621503372</DistanceMeters>
          </Trackpoint>
          <Trackpoint>
            <Time>2022-08-26T21:03:29.000Z</Time>
            <Position>
              <LatitudeDegrees>50.17719506286084651947021484375</LatitudeDegrees>
              <LongitudeDegrees>16.979270875453948974609375</LongitudeDegrees>
            </Position>
            <AltitudeMeters>623</AltitudeMeters>
            <DistanceMeters>5567.4679041709</DistanceMeters>
          </Trackpoint>
          <Trackpoint>
            <Time>2022-08-26T21:03:35.000Z</Time>
            <Position>
              <LatitudeDegrees>50.17718014307320117950439453125</LatitudeDegrees>
              <LongitudeDegrees>16.9792814366519451141357421875</LongitudeDegrees>
            </Position>
            <AltitudeMeters>621.79998779296875</AltitudeMeters>
            <DistanceMeters>5569.2908326202</DistanceMeters>
          </Trackpoint>
          <Trackpoint>
            <Time>2022-08-26T21:03:36.000Z</Time>
            <Position>
              <LatitudeDegrees>50.17717905342578887939453125</LatitudeDegrees>
              <LongitudeDegrees>16.97928495705127716064453125</LongitudeDegrees>
            </Position>
            <AltitudeMeters>621.5999755859375</AltitudeMeters>
            <DistanceMeters>5569.5596087567</DistanceMeters>
          </Trackpoint>
          <Trackpoint>
            <Time>2022-08-26T21:03:45.000Z</Time>
            <Position>
              <LatitudeDegrees>50.17715164460241794586181640625</LatitudeDegrees>
              <LongitudeDegrees>16.97931052185595035552978515625</LongitudeDegrees>
            </Position>
            <AltitudeMeters>621.4000244140625</AltitudeMeters>
            <DistanceMeters>5573.1151828344</DistanceMeters>
          </Trackpoint>
          <Trackpoint>
            <Time>2022-08-26T21:03:56.000Z</Time>
            <Position>
              <LatitudeDegrees>50.17712482251226902008056640625</LatitudeDegrees>
              <LongitudeDegrees>16.9792948476970195770263671875</LongitudeDegrees>
            </Position>
            <AltitudeMeters>621.5999755859375</AltitudeMeters>
            <DistanceMeters>5576.3024757295</DistanceMeters>
          </Trackpoint>
          <Trackpoint>
            <Time>2022-08-26T21:04:06.000Z</Time>
            <Position>
              <LatitudeDegrees>50.17714418470859527587890625</LatitudeDegrees>
              <LongitudeDegrees>16.97929627262055873870849609375</LongitudeDegrees>
            </Position>
            <AltitudeMeters>621.79998779296875</AltitudeMeters>
            <DistanceMeters>5578.4589750615</DistanceMeters>
          </Trackpoint>
          <Trackpoint>
            <Time>2022-08-26T21:04:15.000Z</Time>
            <Position>
              <LatitudeDegrees>50.177130438387393951416015625</LatitudeDegrees>
              <LongitudeDegrees>16.97932183742523193359375</LongitudeDegrees>
            </Position>
            <AltitudeMeters>622.20001220703125</AltitudeMeters>
            <DistanceMeters>5580.8384409533</DistanceMeters>
          </Trackpoint>
          <Trackpoint>
            <Time>2022-08-26T21:04:27.000Z</Time>
            <Position>
              <LatitudeDegrees>50.1770994253456592559814453125</LatitudeDegrees>
              <LongitudeDegrees>16.97933315299451351165771484375</LongitudeDegrees>
            </Position>
            <AltitudeMeters>622</AltitudeMeters>
            <DistanceMeters>5584.3825679732</DistanceMeters>
          </Trackpoint>
          <Trackpoint>
            <Time>2022-08-26T21:04:40.000Z</Time>
            <Position>
              <LatitudeDegrees>50.17709565348923206329345703125</LatitudeDegrees>
              <LongitudeDegrees>16.979335583746433258056640625</LongitudeDegrees>
            </Position>
            <AltitudeMeters>622</AltitudeMeters>
            <DistanceMeters>5584.8383000856</DistanceMeters>
          </Trackpoint>
          <Trackpoint>
            <Time>2022-08-26T21:04:51.000Z</Time>
            <Position>
              <LatitudeDegrees>50.17710168845951557159423828125</LatitudeDegrees>
              <LongitudeDegrees>16.97933717630803585052490234375</LongitudeDegrees>
            </Position>
            <AltitudeMeters>622.4000244140625</AltitudeMeters>
            <DistanceMeters>5585.516926565</DistanceMeters>
          </Trackpoint>
          <Trackpoint>
            <Time>2022-08-26T21:05:03.000Z</Time>
            <Position>
              <LatitudeDegrees>50.17709992825984954833984375</LatitudeDegrees>
              <LongitudeDegrees>16.9793535210192203521728515625</LongitudeDegrees>
            </Position>
            <AltitudeMeters>622</AltitudeMeters>
            <DistanceMeters>5586.696177078</DistanceMeters>
          </Trackpoint>
          <Trackpoint>
            <Time>2022-08-26T21:05:13.000Z</Time>
            <Position>
              <LatitudeDegrees>50.177090875804424285888671875</LatitudeDegrees>
              <LongitudeDegrees>16.9793910719454288482666015625</LongitudeDegrees>
            </Position>
            <AltitudeMeters>622</AltitudeMeters>
            <DistanceMeters>5589.5533066</DistanceMeters>
          </Trackpoint>
          <Trackpoint>
            <Time>2022-08-26T21:05:26.000Z</Time>
            <Position>
              <LatitudeDegrees>50.17705944366753101348876953125</LatitudeDegrees>
              <LongitudeDegrees>16.97942384518682956695556640625</LongitudeDegrees>
            </Position>
            <AltitudeMeters>622</AltitudeMeters>
            <DistanceMeters>5593.7603185836</DistanceMeters>
          </Trackpoint>
          <Trackpoint>
            <Time>2022-08-26T21:05:37.000Z</Time>
            <Position>
              <LatitudeDegrees>50.1770603656768798828125</LatitudeDegrees>
              <LongitudeDegrees>16.97944748215377330780029296875</LongitudeDegrees>
            </Position>
            <AltitudeMeters>622.20001220703125</AltitudeMeters>
            <DistanceMeters>5595.4468754548</DistanceMeters>
          </Trackpoint>
          <Trackpoint>
            <Time>2022-08-26T21:05:50.000Z</Time>
            <Position>
              <LatitudeDegrees>50.177051983773708343505859375</LatitudeDegrees>
              <LongitudeDegrees>16.979477405548095703125</LongitudeDegrees>
            </Position>
            <AltitudeMeters>621.5999755859375</AltitudeMeters>
            <DistanceMeters>5597.7764839934</DistanceMeters>
          </Trackpoint>
          <Trackpoint>
            <Time>2022-08-26T21:06:05.000Z</Time>
            <Position>
              <LatitudeDegrees>50.17710403539240360260009765625</LatitudeDegrees>
              <LongitudeDegrees>16.97949224151670932769775390625</LongitudeDegrees>
            </Position>
            <AltitudeMeters>622</AltitudeMeters>
            <DistanceMeters>5603.6658408021</DistanceMeters>
          </Trackpoint>
          <Trackpoint>
            <Time>2022-08-26T21:06:17.000Z</Time>
            <Position>
              <LatitudeDegrees>50.1771341264247894287109375</LatitudeDegrees>
              <LongitudeDegrees>16.97954085655510425567626953125</LongitudeDegrees>
            </Position>
            <AltitudeMeters>622</AltitudeMeters>
            <DistanceMeters>5608.485110105</DistanceMeters>
          </Trackpoint>
          <Trackpoint>
            <Time>2022-08-26T21:06:27.000Z</Time>
            <Position>
              <LatitudeDegrees>50.1771564222872257232666015625</LatitudeDegrees>
              <LongitudeDegrees>16.9795566983520984649658203125</LongitudeDegrees>
            </Position>
            <AltitudeMeters>621.5999755859375</AltitudeMeters>
            <DistanceMeters>5611.2128899697</DistanceMeters>
          </Trackpoint>
          <Trackpoint>
            <Time>2022-08-26T21:06:39.000Z</Time>
            <Position>
              <LatitudeDegrees>50.17715717665851116180419921875</LatitudeDegrees>
              <LongitudeDegrees>16.97955225594341754913330078125</LongitudeDegrees>
            </Position>
            <AltitudeMeters>621.5999755859375</AltitudeMeters>
            <DistanceMeters>5611.5420721644</DistanceMeters>
          </Trackpoint>
          <Trackpoint>
            <Time>2022-08-26T21:06:50.000Z</Time>
            <Position>
              <LatitudeDegrees>50.177207887172698974609375</LatitudeDegrees>
              <LongitudeDegrees>16.979574970901012420654296875</LongitudeDegrees>
            </Position>
            <AltitudeMeters>621.4000244140625</AltitudeMeters>
            <DistanceMeters>5617.4137696926</DistanceMeters>
          </Trackpoint>
          <Trackpoint>
            <Time>2022-08-26T21:07:02.000Z</Time>
            <Position>
              <LatitudeDegrees>50.1772647164762020111083984375</LatitudeDegrees>
              <LongitudeDegrees>16.97959030978381633758544921875</LongitudeDegrees>
            </Position>
            <AltitudeMeters>621</AltitudeMeters>
            <DistanceMeters>5623.8335258321</DistanceMeters>
          </Trackpoint>
          <Trackpoint>
            <Time>2022-08-26T21:07:13.000Z</Time>
            <Position>
              <LatitudeDegrees>50.1773072965443134307861328125</LatitudeDegrees>
              <LongitudeDegrees>16.979574970901012420654296875</LongitudeDegrees>
            </Position>
            <AltitudeMeters>620.79998779296875</AltitudeMeters>
            <DistanceMeters>5628.6975571111</DistanceMeters>
          </Trackpoint>
          <Trackpoint>
            <Time>2022-08-26T21:07:23.000Z</Time>
            <Position>
              <LatitudeDegrees>50.17731727100908756256103515625</LatitudeDegrees>
              <LongitudeDegrees>16.97956365533173084259033203125</LongitudeDegrees>
            </Position>
            <AltitudeMeters>620.79998779296875</AltitudeMeters>
            <DistanceMeters>5630.07462503</DistanceMeters>
          </Trackpoint>
          <Trackpoint>
            <Time>2022-08-26T21:07:33.000Z</Time>
            <Position>
              <LatitudeDegrees>50.17731760628521442413330078125</LatitudeDegrees>
              <LongitudeDegrees>16.97957103140652179718017578125</LongitudeDegrees>
            </Position>
            <AltitudeMeters>621</AltitudeMeters>
            <DistanceMeters>5630.612177303</DistanceMeters>
          </Trackpoint>
          <Trackpoint>
            <Time>2022-08-26T21:07:44.000Z</Time>
            <Position>
              <LatitudeDegrees>50.17731660045683383941650390625</LatitudeDegrees>
              <LongitudeDegrees>16.97957740165293216705322265625</LongitudeDegrees>
            </Position>
            <AltitudeMeters>621</AltitudeMeters>
            <DistanceMeters>5631.0777112273</DistanceMeters>
          </Trackpoint>
          <Trackpoint>
            <Time>2022-08-26T21:07:58.000Z</Time>
            <Position>
              <LatitudeDegrees>50.1773057878017425537109375</LatitudeDegrees>
              <LongitudeDegrees>16.9795868732035160064697265625</LongitudeDegrees>
            </Position>
            <AltitudeMeters>621</AltitudeMeters>
            <DistanceMeters>5632.4547791461</DistanceMeters>
          </Trackpoint>
          <Trackpoint>
            <Time>2022-08-26T21:08:06.000Z</Time>
            <Position>
              <LatitudeDegrees>50.17724971286952495574951171875</LatitudeDegrees>
              <LongitudeDegrees>16.9795939140021800994873046875</LongitudeDegrees>
            </Position>
            <AltitudeMeters>621.20001220703125</AltitudeMeters>
            <DistanceMeters>5638.7164555926</DistanceMeters>
          </Trackpoint>
          <Trackpoint>
            <Time>2022-08-26T21:08:15.000Z</Time>
            <Position>
              <LatitudeDegrees>50.177227668464183807373046875</LatitudeDegrees>
              <LongitudeDegrees>16.97958846576511859893798828125</LongitudeDegrees>
            </Position>
            <AltitudeMeters>621.5999755859375</AltitudeMeters>
            <DistanceMeters>5641.2017266618</DistanceMeters>
          </Trackpoint>
          <Trackpoint>
            <Time>2022-08-26T21:08:27.000Z</Time>
            <Position>
              <LatitudeDegrees>50.1772218011319637298583984375</LatitudeDegrees>
              <LongitudeDegrees>16.97957304306328296661376953125</LongitudeDegrees>
            </Position>
            <AltitudeMeters>621.5999755859375</AltitudeMeters>
            <DistanceMeters>5642.4837071269</DistanceMeters>
          </Trackpoint>
          <Trackpoint>
            <Time>2022-08-26T21:08:37.000Z</Time>
            <Position>
              <LatitudeDegrees>50.1771984994411468505859375</LatitudeDegrees>
              <LongitudeDegrees>16.9796074926853179931640625</LongitudeDegrees>
            </Position>
            <AltitudeMeters>621.5999755859375</AltitudeMeters>
            <DistanceMeters>5646.0544868651</DistanceMeters>
          </Trackpoint>
          <Trackpoint>
            <Time>2022-08-26T21:08:48.000Z</Time>
            <Position>
              <LatitudeDegrees>50.177165977656841278076171875</LatitudeDegrees>
              <LongitudeDegrees>16.97970832698047161102294921875</LongitudeDegrees>
            </Position>
            <AltitudeMeters>622.4000244140625</AltitudeMeters>
            <DistanceMeters>5654.1020770793</DistanceMeters>
          </Trackpoint>
          <Trackpoint>
            <Time>2022-08-26T21:08:50.000Z</Time>
            <Position>
              <LatitudeDegrees>50.17716103233397006988525390625</LatitudeDegrees>
              <LongitudeDegrees>16.9797283597290515899658203125</LongitudeDegrees>
            </Position>
            <AltitudeMeters>622.5999755859375</AltitudeMeters>
            <DistanceMeters>5655.6372806332</DistanceMeters>
          </Trackpoint>
          <Trackpoint>
            <Time>2022-08-26T21:08:58.000Z</Time>
            <Position>
              <LatitudeDegrees>50.17713840119540691375732421875</LatitudeDegrees>
              <LongitudeDegrees>16.97982332669198513031005859375</LongitudeDegrees>
            </Position>
            <AltitudeMeters>623.4000244140625</AltitudeMeters>
            <DistanceMeters>5662.859936074</DistanceMeters>
          </Trackpoint>
          <Trackpoint>
            <Time>2022-08-26T21:09:00.000Z</Time>
            <Position>
              <LatitudeDegrees>50.177135802805423736572265625</LatitudeDegrees>
              <LongitudeDegrees>16.97983271442353725433349609375</LongitudeDegrees>
            </Position>
            <AltitudeMeters>623.5999755859375</AltitudeMeters>
            <DistanceMeters>5663.5836379697</DistanceMeters>
          </Trackpoint>
          <Trackpoint>
            <Time>2022-08-26T21:09:13.000Z</Time>
            <Position>
              <LatitudeDegrees>50.17713957466185092926025390625</LatitudeDegrees>
              <LongitudeDegrees>16.97983791120350360870361328125</LongitudeDegrees>
            </Position>
            <AltitudeMeters>624</AltitudeMeters>
            <DistanceMeters>5664.1377341699</DistanceMeters>
          </Trackpoint>
          <Trackpoint>
            <Time>2022-08-26T21:09:23.000Z</Time>
            <Position>
              <LatitudeDegrees>50.17713479697704315185546875</LatitudeDegrees>
              <LongitudeDegrees>16.97986506856977939605712890625</LongitudeDegrees>
            </Position>
            <AltitudeMeters>624.20001220703125</AltitudeMeters>
            <DistanceMeters>5666.1445759907</DistanceMeters>
          </Trackpoint>
          <Trackpoint>
            <Time>2022-08-26T21:09:34.000Z</Time>
            <Position>
              <LatitudeDegrees>50.177140496671199798583984375</LatitudeDegrees>
              <LongitudeDegrees>16.98000068776309490203857421875</LongitudeDegrees>
            </Position>
            <AltitudeMeters>624.20001220703125</AltitudeMeters>
            <DistanceMeters>5675.8326415644</DistanceMeters>
          </Trackpoint>
          <Trackpoint>
            <Time>2022-08-26T21:09:44.000Z</Time>
            <Position>
              <LatitudeDegrees>50.17713940702378749847412109375</LatitudeDegrees>
              <LongitudeDegrees>16.98000906966626644134521484375</LongitudeDegrees>
            </Position>
            <AltitudeMeters>624.4000244140625</AltitudeMeters>
            <DistanceMeters>5676.4484850596</DistanceMeters>
          </Trackpoint>
          <Trackpoint>
            <Time>2022-08-26T21:09:55.000Z</Time>
            <Position>
              <LatitudeDegrees>50.1771289296448230743408203125</LatitudeDegrees>
              <LongitudeDegrees>16.98000336997210979461669921875</LongitudeDegrees>
            </Position>
            <AltitudeMeters>624.4000244140625</AltitudeMeters>
            <DistanceMeters>5677.6838323464</DistanceMeters>
          </Trackpoint>
          <Trackpoint>
            <Time>2022-08-26T21:10:04.000Z</Time>
            <Position>
              <LatitudeDegrees>50.17715063877403736114501953125</LatitudeDegrees>
              <LongitudeDegrees>16.97998258285224437713623046875</LongitudeDegrees>
            </Position>
            <AltitudeMeters>624.20001220703125</AltitudeMeters>
            <DistanceMeters>5680.5187517518</DistanceMeters>
          </Trackpoint>
          <Trackpoint>
            <Time>2022-08-26T21:10:15.000Z</Time>
            <Position>
              <LatitudeDegrees>50.17717326991260051727294921875</LatitudeDegrees>
              <LongitudeDegrees>16.97993136942386627197265625</LongitudeDegrees>
            </Position>
            <AltitudeMeters>623.4000244140625</AltitudeMeters>
            <DistanceMeters>5684.9535580041</DistanceMeters>
          </Trackpoint>
          <Trackpoint>
            <Time>2022-08-26T21:10:23.000Z</Time>
            <Position>
              <LatitudeDegrees>50.17721232958137989044189453125</LatitudeDegrees>
              <LongitudeDegrees>16.97987814433872699737548828125</LongitudeDegrees>
            </Position>
            <AltitudeMeters>622.5999755859375</AltitudeMeters>
            <DistanceMeters>5690.7228614085</DistanceMeters>
          </Trackpoint>
          <Trackpoint>
            <Time>2022-08-26T21:10:26.000Z</Time>
            <Position>
              <LatitudeDegrees>50.1772161014378070831298828125</LatitudeDegrees>
              <LongitudeDegrees>16.9798376597464084625244140625</LongitudeDegrees>
            </Position>
            <AltitudeMeters>622.4000244140625</AltitudeMeters>
            <DistanceMeters>5693.6378746047</DistanceMeters>
          </Trackpoint>
          <Trackpoint>
            <Time>2022-08-26T21:10:38.000Z</Time>
            <Position>
              <LatitudeDegrees>50.1772228069603443145751953125</LatitudeDegrees>
              <LongitudeDegrees>16.979711093008518218994140625</LongitudeDegrees>
            </Position>
            <AltitudeMeters>621.79998779296875</AltitudeMeters>
            <DistanceMeters>5702.6898861851</DistanceMeters>
          </Trackpoint>
          <Trackpoint>
            <Time>2022-08-26T21:10:50.000Z</Time>
            <Position>
              <LatitudeDegrees>50.17721928656101226806640625</LatitudeDegrees>
              <LongitudeDegrees>16.97962517850100994110107421875</LongitudeDegrees>
            </Position>
            <AltitudeMeters>622</AltitudeMeters>
            <DistanceMeters>5708.8262873105</DistanceMeters>
          </Trackpoint>
          <Trackpoint>
            <Time>2022-08-26T21:11:02.000Z</Time>
            <Position>
              <LatitudeDegrees>50.17720310948789119720458984375</LatitudeDegrees>
              <LongitudeDegrees>16.979563571512699127197265625</LongitudeDegrees>
            </Position>
            <AltitudeMeters>622.20001220703125</AltitudeMeters>
            <DistanceMeters>5713.571918001</DistanceMeters>
          </Trackpoint>
          <Trackpoint>
            <Time>2022-08-26T21:11:10.000Z</Time>
            <Position>
              <LatitudeDegrees>50.17719623632729053497314453125</LatitudeDegrees>
              <LongitudeDegrees>16.9795265235006809234619140625</LongitudeDegrees>
            </Position>
            <AltitudeMeters>621.5999755859375</AltitudeMeters>
            <DistanceMeters>5716.3211313401</DistanceMeters>
          </Trackpoint>
          <Trackpoint>
            <Time>2022-08-26T21:11:11.000Z</Time>
            <Position>
              <LatitudeDegrees>50.177191793918609619140625</LatitudeDegrees>
              <LongitudeDegrees>16.979521326720714569091796875</LongitudeDegrees>
            </Position>
            <AltitudeMeters>621.5999755859375</AltitudeMeters>
            <DistanceMeters>5716.9369748353</DistanceMeters>
          </Trackpoint>
          <Trackpoint>
            <Time>2022-08-26T21:11:19.000Z</Time>
            <Position>
              <LatitudeDegrees>50.177213586866855621337890625</LatitudeDegrees>
              <LongitudeDegrees>16.97950867004692554473876953125</LongitudeDegrees>
            </Position>
            <AltitudeMeters>621.5999755859375</AltitudeMeters>
            <DistanceMeters>5719.5219809414</DistanceMeters>
          </Trackpoint>
          <Trackpoint>
            <Time>2022-08-26T21:11:27.000Z</Time>
            <Position>
              <LatitudeDegrees>50.17722330987453460693359375</LatitudeDegrees>
              <LongitudeDegrees>16.97952845133841037750244140625</LongitudeDegrees>
            </Position>
            <AltitudeMeters>621.5999755859375</AltitudeMeters>
            <DistanceMeters>5721.2972264678</DistanceMeters>
          </Trackpoint>
          <Trackpoint>
            <Time>2022-08-26T21:11:37.000Z</Time>
            <Position>
              <LatitudeDegrees>50.1772559992969036102294921875</LatitudeDegrees>
              <LongitudeDegrees>16.97950758039951324462890625</LongitudeDegrees>
            </Position>
            <AltitudeMeters>621.5999755859375</AltitudeMeters>
            <DistanceMeters>5725.2290823746</DistanceMeters>
          </Trackpoint>
          <Trackpoint>
            <Time>2022-08-26T21:11:48.000Z</Time>
            <Position>
              <LatitudeDegrees>50.177283324301242828369140625</LatitudeDegrees>
              <LongitudeDegrees>16.97945686988532543182373046875</LongitudeDegrees>
            </Position>
            <AltitudeMeters>621.5999755859375</AltitudeMeters>
            <DistanceMeters>5729.953735692</DistanceMeters>
          </Trackpoint>
          <Trackpoint>
            <Time>2022-08-26T21:11:58.000Z</Time>
            <Position>
              <LatitudeDegrees>50.17733084969222545623779296875</LatitudeDegrees>
              <LongitudeDegrees>16.979365088045597076416015625</LongitudeDegrees>
            </Position>
            <AltitudeMeters>621.79998779296875</AltitudeMeters>
            <DistanceMeters>5738.3672230334</DistanceMeters>
          </Trackpoint>
          <Trackpoint>
            <Time>2022-08-26T21:12:09.000Z</Time>
            <Position>
              <LatitudeDegrees>50.17737041227519512176513671875</LatitudeDegrees>
              <LongitudeDegrees>16.97928990237414836883544921875</LongitudeDegrees>
            </Position>
            <AltitudeMeters>622</AltitudeMeters>
            <DistanceMeters>5745.303522284</DistanceMeters>
          </Trackpoint>
          <Trackpoint>
            <Time>2022-08-26T21:12:16.000Z</Time>
            <Position>
              <LatitudeDegrees>50.17739086411893367767333984375</LatitudeDegrees>
              <LongitudeDegrees>16.9791969470679759979248046875</LongitudeDegrees>
            </Position>
            <AltitudeMeters>621.79998779296875</AltitudeMeters>
            <DistanceMeters>5752.3091247187</DistanceMeters>
          </Trackpoint>
          <Trackpoint>
            <Time>2022-08-26T21:12:22.000Z</Time>
            <Position>
              <LatitudeDegrees>50.17739488743245601654052734375</LatitudeDegrees>
              <LongitudeDegrees>16.979169286787509918212890625</LongitudeDegrees>
            </Position>
            <AltitudeMeters>620.5999755859375</AltitudeMeters>
            <DistanceMeters>5754.3294203784</DistanceMeters>
          </Trackpoint>
          <Trackpoint>
            <Time>2022-08-26T21:12:25.000Z</Time>
            <Position>
              <LatitudeDegrees>50.17739622853696346282958984375</LatitudeDegrees>
              <LongitudeDegrees>16.97916568256914615631103515625</LongitudeDegrees>
            </Position>
            <AltitudeMeters>620</AltitudeMeters>
            <DistanceMeters>5754.6299212344</DistanceMeters>
          </Trackpoint>
          <Trackpoint>
            <Time>2022-08-26T21:12:34.000Z</Time>
            <Position>
              <LatitudeDegrees>50.17741684801876544952392578125</LatitudeDegrees>
              <LongitudeDegrees>16.9791013933718204498291015625</LongitudeDegrees>
            </Position>
            <AltitudeMeters>619.79998779296875</AltitudeMeters>
            <DistanceMeters>5759.75608183</DistanceMeters>
          </Trackpoint>
          <Trackpoint>
            <Time>2022-08-26T21:12:42.000Z</Time>
            <Position>
              <LatitudeDegrees>50.17745976336300373077392578125</LatitudeDegrees>
              <LongitudeDegrees>16.97906560264527797698974609375</LongitudeDegrees>
            </Position>
            <AltitudeMeters>619.79998779296875</AltitudeMeters>
            <DistanceMeters>5765.1717709172</DistanceMeters>
          </Trackpoint>
          <Trackpoint>
            <Time>2022-08-26T21:12:47.000Z</Time>
            <Position>
              <LatitudeDegrees>50.17746663652360439300537109375</LatitudeDegrees>
              <LongitudeDegrees>16.97903894819319248199462890625</LongitudeDegrees>
            </Position>
            <AltitudeMeters>619.79998779296875</AltitudeMeters>
            <DistanceMeters>5767.22311575</DistanceMeters>
          </Trackpoint>
          <Trackpoint>
            <Time>2022-08-26T21:12:51.000Z</Time>
            <Position>
              <LatitudeDegrees>50.17747753299772739410400390625</LatitudeDegrees>
              <LongitudeDegrees>16.97903324849903583526611328125</LongitudeDegrees>
            </Position>
            <AltitudeMeters>619.20001220703125</AltitudeMeters>
            <DistanceMeters>5768.5015694395</DistanceMeters>
          </Trackpoint>
          <Trackpoint>
            <Time>2022-08-26T21:12:56.000Z</Time>
            <Position>
              <LatitudeDegrees>50.177493877708911895751953125</LatitudeDegrees>
              <LongitudeDegrees>16.9790041632950305938720703125</LongitudeDegrees>
            </Position>
            <AltitudeMeters>618.5999755859375</AltitudeMeters>
            <DistanceMeters>5771.2589820612</DistanceMeters>
          </Trackpoint>
          <Trackpoint>
            <Time>2022-08-26T21:12:59.000Z</Time>
            <Position>
              <LatitudeDegrees>50.17749379388988018035888671875</LatitudeDegrees>
              <LongitudeDegrees>16.97898312471807003021240234375</LongitudeDegrees>
            </Position>
            <AltitudeMeters>618.4000244140625</AltitudeMeters>
            <DistanceMeters>5772.7554642555</DistanceMeters>
          </Trackpoint>
          <Trackpoint>
            <Time>2022-08-26T21:13:09.000Z</Time>
            <Position>
              <LatitudeDegrees>50.17747652716934680938720703125</LatitudeDegrees>
              <LongitudeDegrees>16.978976838290691375732421875</LongitudeDegrees>
            </Position>
            <AltitudeMeters>618</AltitudeMeters>
            <DistanceMeters>5774.7259801451</DistanceMeters>
          </Trackpoint>
          <Trackpoint>
            <Time>2022-08-26T21:13:19.000Z</Time>
            <Position>
              <LatitudeDegrees>50.17744995653629302978515625</LatitudeDegrees>
              <LongitudeDegrees>16.97897692210972309112548828125</LongitudeDegrees>
            </Position>
            <AltitudeMeters>618.4000244140625</AltitudeMeters>
            <DistanceMeters>5777.6825176466</DistanceMeters>
          </Trackpoint>
          <Trackpoint>
            <Time>2022-08-26T21:13:28.000Z</Time>
            <Position>
              <LatitudeDegrees>50.17743294127285480499267578125</LatitudeDegrees>
              <LongitudeDegrees>16.978949010372161865234375</LongitudeDegrees>
            </Position>
            <AltitudeMeters>618.79998779296875</AltitudeMeters>
            <DistanceMeters>5780.4300881929</DistanceMeters>
          </Trackpoint>
          <Trackpoint>
            <Time>2022-08-26T21:13:36.000Z</Time>
            <Position>
              <LatitudeDegrees>50.1774095557630062103271484375</LatitudeDegrees>
              <LongitudeDegrees>16.97892629541456699371337890625</LongitudeDegrees>
            </Position>
            <AltitudeMeters>619.20001220703125</AltitudeMeters>
            <DistanceMeters>5783.4946076498</DistanceMeters>
          </Trackpoint>
          <Trackpoint>
            <Time>2022-08-26T21:13:47.000Z</Time>
            <Position>
              <LatitudeDegrees>50.1774169318377971649169921875</LatitudeDegrees>
              <LongitudeDegrees>16.97892461903393268585205078125</LongitudeDegrees>
            </Position>
            <AltitudeMeters>619.79998779296875</AltitudeMeters>
            <DistanceMeters>5784.3230313396</DistanceMeters>
          </Trackpoint>
          <Trackpoint>
            <Time>2022-08-26T21:13:49.000Z</Time>
            <Position>
              <LatitudeDegrees>50.17741852439939975738525390625</LatitudeDegrees>
              <LongitudeDegrees>16.97892830707132816314697265625</LongitudeDegrees>
            </Position>
            <AltitudeMeters>619.79998779296875</AltitudeMeters>
            <DistanceMeters>5784.6381992962</DistanceMeters>
          </Trackpoint>
          <Trackpoint>
            <Time>2022-08-26T21:13:58.000Z</Time>
            <Position>
              <LatitudeDegrees>50.17745054326951503753662109375</LatitudeDegrees>
              <LongitudeDegrees>16.97891707532107830047607421875</LongitudeDegrees>
            </Position>
            <AltitudeMeters>619.79998779296875</AltitudeMeters>
            <DistanceMeters>5788.2890064441</DistanceMeters>
          </Trackpoint>
          <Trackpoint>
            <Time>2022-08-26T21:14:07.000Z</Time>
            <Position>
              <LatitudeDegrees>50.177453644573688507080078125</LatitudeDegrees>
              <LongitudeDegrees>16.97889762930572032928466796875</LongitudeDegrees>
            </Position>
            <AltitudeMeters>619.20001220703125</AltitudeMeters>
            <DistanceMeters>5789.7175712051</DistanceMeters>
          </Trackpoint>
          <Trackpoint>
            <Time>2022-08-26T21:14:08.000Z</Time>
            <Position>
              <LatitudeDegrees>50.1774457655847072601318359375</LatitudeDegrees>
              <LongitudeDegrees>16.9789042510092258453369140625</LongitudeDegrees>
            </Position>
            <AltitudeMeters>619.20001220703125</AltitudeMeters>
            <DistanceMeters>5790.7142197935</DistanceMeters>
          </Trackpoint>
          <Trackpoint>
            <Time>2022-08-26T21:14:13.000Z</Time>
            <Position>
              <LatitudeDegrees>50.1774095557630062103271484375</LatitudeDegrees>
              <LongitudeDegrees>16.97893551550805568695068359375</LongitudeDegrees>
            </Position>
            <AltitudeMeters>619.20001220703125</AltitudeMeters>
            <DistanceMeters>5795.3188500165</DistanceMeters>
          </Trackpoint>
          <Trackpoint>
            <Time>2022-08-26T21:14:20.000Z</Time>
            <Position>
              <LatitudeDegrees>50.1773740164935588836669921875</LatitudeDegrees>
              <LongitudeDegrees>16.97895680554211139678955078125</LongitudeDegrees>
            </Position>
            <AltitudeMeters>620.20001220703125</AltitudeMeters>
            <DistanceMeters>5799.5547397571</DistanceMeters>
          </Trackpoint>
          <Trackpoint>
            <Time>2022-08-26T21:14:25.000Z</Time>
            <Position>
              <LatitudeDegrees>50.1773512177169322967529296875</LatitudeDegrees>
              <LongitudeDegrees>16.97898186743259429931640625</LongitudeDegrees>
            </Position>
            <AltitudeMeters>621</AltitudeMeters>
            <DistanceMeters>5802.6573292383</DistanceMeters>
          </Trackpoint>
          <Trackpoint>
            <Time>2022-08-26T21:14:28.000Z</Time>
            <Position>
              <LatitudeDegrees>50.17734258435666561126708984375</LatitudeDegrees>
              <LongitudeDegrees>16.9790013134479522705078125</LongitudeDegrees>
            </Position>
            <AltitudeMeters>622</AltitudeMeters>
            <DistanceMeters>5804.3438861095</DistanceMeters>
          </Trackpoint>
          <Trackpoint>
            <Time>2022-08-26T21:14:31.000Z</Time>
            <Position>
              <LatitudeDegrees>50.17732322216033935546875</LatitudeDegrees>
              <LongitudeDegrees>16.97902319021522998809814453125</LongitudeDegrees>
            </Position>
            <AltitudeMeters>622.20001220703125</AltitudeMeters>
            <DistanceMeters>5807.0046341119</DistanceMeters>
          </Trackpoint>
          <Trackpoint>
            <Time>2022-08-26T21:14:44.000Z</Time>
            <Position>
              <LatitudeDegrees>50.17725281417369842529296875</LatitudeDegrees>
              <LongitudeDegrees>16.97910650633275508880615234375</LongitudeDegrees>
            </Position>
            <AltitudeMeters>621.5999755859375</AltitudeMeters>
            <DistanceMeters>5816.8370294665</DistanceMeters>
          </Trackpoint>
          <Trackpoint>
            <Time>2022-08-26T21:14:54.000Z</Time>
            <Position>
              <LatitudeDegrees>50.17724451608955860137939453125</LatitudeDegrees>
              <LongitudeDegrees>16.97915889322757720947265625</LongitudeDegrees>
            </Position>
            <AltitudeMeters>621.5999755859375</AltitudeMeters>
            <DistanceMeters>5820.6829708617</DistanceMeters>
          </Trackpoint>
          <Trackpoint>
            <Time>2022-08-26T21:15:04.000Z</Time>
            <Position>
              <LatitudeDegrees>50.1772333681583404541015625</LatitudeDegrees>
              <LongitudeDegrees>16.9792184047400951385498046875</LongitudeDegrees>
            </Position>
            <AltitudeMeters>622</AltitudeMeters>
            <DistanceMeters>5825.1035008553</DistanceMeters>
          </Trackpoint>
          <Trackpoint>
            <Time>2022-08-26T21:15:07.000Z</Time>
            <Position>
              <LatitudeDegrees>50.17723680473864078521728515625</LatitudeDegrees>
              <LongitudeDegrees>16.9792239367961883544921875</LongitudeDegrees>
            </Position>
            <AltitudeMeters>623</AltitudeMeters>
            <DistanceMeters>5825.6410531283</DistanceMeters>
          </Trackpoint>
          <Trackpoint>
            <Time>2022-08-26T21:15:12.000Z</Time>
            <Position>
              <LatitudeDegrees>50.17723881639540195465087890625</LatitudeDegrees>
              <LongitudeDegrees>16.9792207516729831695556640625</LongitudeDegrees>
            </Position>
            <AltitudeMeters>624</AltitudeMeters>
            <DistanceMeters>5825.9415539843</DistanceMeters>
          </Trackpoint>
          <Trackpoint>
            <Time>2022-08-26T21:15:20.000Z</Time>
            <Position>
              <LatitudeDegrees>50.17723672091960906982421875</LatitudeDegrees>
              <LongitudeDegrees>16.97919803671538829803466796875</LongitudeDegrees>
            </Position>
            <AltitudeMeters>625.20001220703125</AltitudeMeters>
            <DistanceMeters>5827.5764553964</DistanceMeters>
          </Trackpoint>
          <Trackpoint>
            <Time>2022-08-26T21:15:23.000Z</Time>
            <Position>
              <LatitudeDegrees>50.1772365532815456390380859375</LatitudeDegrees>
              <LongitudeDegrees>16.979200132191181182861328125</LongitudeDegrees>
            </Position>
            <AltitudeMeters>625.5999755859375</AltitudeMeters>
            <DistanceMeters>5827.7108434647</DistanceMeters>
          </Trackpoint>
          <Trackpoint>
            <Time>2022-08-26T21:15:33.000Z</Time>
            <Position>
              <LatitudeDegrees>50.1772306859493255615234375</LatitudeDegrees>
              <LongitudeDegrees>16.97919602505862712860107421875</LongitudeDegrees>
            </Position>
            <AltitudeMeters>626</AltitudeMeters>
            <DistanceMeters>5828.4345453603</DistanceMeters>
          </Trackpoint>
          <Trackpoint>
            <Time>2022-08-26T21:15:44.000Z</Time>
            <Position>
              <LatitudeDegrees>50.17722733318805694580078125</LatitudeDegrees>
              <LongitudeDegrees>16.9792197458446025848388671875</LongitudeDegrees>
            </Position>
            <AltitudeMeters>625.79998779296875</AltitudeMeters>
            <DistanceMeters>5830.1660144993</DistanceMeters>
          </Trackpoint>
          <Trackpoint>
            <Time>2022-08-26T21:15:55.000Z</Time>
            <Position>
              <LatitudeDegrees>50.17721501179039478302001953125</LatitudeDegrees>
              <LongitudeDegrees>16.979226283729076385498046875</LongitudeDegrees>
            </Position>
            <AltitudeMeters>625.5999755859375</AltitudeMeters>
            <DistanceMeters>5831.6165343411</DistanceMeters>
          </Trackpoint>
          <Trackpoint>
            <Time>2022-08-26T21:16:06.000Z</Time>
            <Position>
              <LatitudeDegrees>50.17719908617436885833740234375</LatitudeDegrees>
              <LongitudeDegrees>16.97926274500787258148193359375</LongitudeDegrees>
            </Position>
            <AltitudeMeters>624.20001220703125</AltitudeMeters>
            <DistanceMeters>5834.762478362</DistanceMeters>
          </Trackpoint>
          <Trackpoint>
            <Time>2022-08-26T21:16:07.000Z</Time>
            <Position>
              <LatitudeDegrees>50.17719958908855915069580078125</LatitudeDegrees>
              <LongitudeDegrees>16.97926475666463375091552734375</LongitudeDegrees>
            </Position>
            <AltitudeMeters>624</AltitudeMeters>
            <DistanceMeters>5834.8968664303</DistanceMeters>
          </Trackpoint>
          <Trackpoint>
            <Time>2022-08-26T21:16:12.000Z</Time>
            <Position>
              <LatitudeDegrees>50.17719053663313388824462890625</LatitudeDegrees>
              <LongitudeDegrees>16.97929644025862216949462890625</LongitudeDegrees>
            </Position>
            <AltitudeMeters>622.79998779296875</AltitudeMeters>
            <DistanceMeters>5837.3693877654</DistanceMeters>
          </Trackpoint>
          <Trackpoint>
            <Time>2022-08-26T21:16:14.000Z</Time>
            <Position>
              <LatitudeDegrees>50.177191793918609619140625</LatitudeDegrees>
              <LongitudeDegrees>16.97930800728499889373779296875</LongitudeDegrees>
            </Position>
            <AltitudeMeters>622.20001220703125</AltitudeMeters>
            <DistanceMeters>5838.2086409826</DistanceMeters>
          </Trackpoint>
          <Trackpoint>
            <Time>2022-08-26T21:16:19.000Z</Time>
            <Position>
              <LatitudeDegrees>50.1772134192287921905517578125</LatitudeDegrees>
              <LongitudeDegrees>16.97932326234877109527587890625</LongitudeDegrees>
            </Position>
            <AltitudeMeters>621.79998779296875</AltitudeMeters>
            <DistanceMeters>5840.8489475964</DistanceMeters>
          </Trackpoint>
          <Trackpoint>
            <Time>2022-08-26T21:16:23.000Z</Time>
            <Position>
              <LatitudeDegrees>50.17723261378705501556396484375</LatitudeDegrees>
              <LongitudeDegrees>16.97931907139718532562255859375</LongitudeDegrees>
            </Position>
            <AltitudeMeters>621.5999755859375</AltitudeMeters>
            <DistanceMeters>5843.0054469283</DistanceMeters>
          </Trackpoint>
          <Trackpoint>
            <Time>2022-08-26T21:16:33.000Z</Time>
            <Position>
              <LatitudeDegrees>50.17730176448822021484375</LatitudeDegrees>
              <LongitudeDegrees>16.97931823320686817169189453125</LongitudeDegrees>
            </Position>
            <AltitudeMeters>621.5999755859375</AltitudeMeters>
            <DistanceMeters>5850.7020241853</DistanceMeters>
          </Trackpoint>
          <Trackpoint>
            <Time>2022-08-26T21:16:41.000Z</Time>
            <Position>
              <LatitudeDegrees>50.17735163681209087371826171875</LatitudeDegrees>
              <LongitudeDegrees>16.9792427122592926025390625</LongitudeDegrees>
            </Position>
            <AltitudeMeters>622.20001220703125</AltitudeMeters>
            <DistanceMeters>5858.4348869289</DistanceMeters>
          </Trackpoint>
          <Trackpoint>
            <Time>2022-08-26T21:16:51.000Z</Time>
            <Position>
              <LatitudeDegrees>50.17739136703312397003173828125</LatitudeDegrees>
              <LongitudeDegrees>16.97919703088700771331787109375</LongitudeDegrees>
            </Position>
            <AltitudeMeters>622.4000244140625</AltitudeMeters>
            <DistanceMeters>5863.9267404706</DistanceMeters>
          </Trackpoint>
          <Trackpoint>
            <Time>2022-08-26T21:17:02.000Z</Time>
            <Position>
              <LatitudeDegrees>50.17746110446751117706298828125</LatitudeDegrees>
              <LongitudeDegrees>16.97908957488834857940673828125</LongitudeDegrees>
            </Position>
            <AltitudeMeters>621.20001220703125</AltitudeMeters>
            <DistanceMeters>5874.8312370942</DistanceMeters>
          </Trackpoint>
          <Trackpoint>
            <Time>2022-08-26T21:17:04.000Z</Time>
            <Position>
              <LatitudeDegrees>50.1774722523987293243408203125</LatitudeDegrees>
              <LongitudeDegrees>16.97905923239886760711669921875</LongitudeDegrees>
            </Position>
            <AltitudeMeters>620.5999755859375</AltitudeMeters>
            <DistanceMeters>5877.3237644447</DistanceMeters>
          </Trackpoint>
          <Trackpoint>
            <Time>2022-08-26T21:17:10.000Z</Time>
            <Position>
              <LatitudeDegrees>50.1774937100708484649658203125</LatitudeDegrees>
              <LongitudeDegrees>16.97900374419987201690673828125</LongitudeDegrees>
            </Position>
            <AltitudeMeters>619.5999755859375</AltitudeMeters>
            <DistanceMeters>5881.9440567205</DistanceMeters>
          </Trackpoint>
          <Trackpoint>
            <Time>2022-08-26T21:17:11.000Z</Time>
            <Position>
              <LatitudeDegrees>50.177495218813419342041015625</LatitudeDegrees>
              <LongitudeDegrees>16.9789850525557994842529296875</LongitudeDegrees>
            </Position>
            <AltitudeMeters>619.5999755859375</AltitudeMeters>
            <DistanceMeters>5883.287937403</DistanceMeters>
          </Trackpoint>
          <Trackpoint>
            <Time>2022-08-26T21:17:20.000Z</Time>
            <Position>
              <LatitudeDegrees>50.17748658545315265655517578125</LatitudeDegrees>
              <LongitudeDegrees>16.97885571978986263275146484375</LongitudeDegrees>
            </Position>
            <AltitudeMeters>619</AltitudeMeters>
            <DistanceMeters>5892.5568179874</DistanceMeters>
          </Trackpoint>
          <Trackpoint>
            <Time>2022-08-26T21:17:30.000Z</Time>
            <Position>
              <LatitudeDegrees>50.17747887410223484039306640625</LatitudeDegrees>
              <LongitudeDegrees>16.97874004952609539031982421875</LongitudeDegrees>
            </Position>
            <AltitudeMeters>620.5999755859375</AltitudeMeters>
            <DistanceMeters>5900.8465032491</DistanceMeters>
          </Trackpoint>
          <Trackpoint>
            <Time>2022-08-26T21:17:31.000Z</Time>
            <Position>
              <LatitudeDegrees>50.177483148872852325439453125</LatitudeDegrees>
              <LongitudeDegrees>16.97873049415647983551025390625</LongitudeDegrees>
            </Position>
            <AltitudeMeters>620.79998779296875</AltitudeMeters>
            <DistanceMeters>5901.6749269389</DistanceMeters>
          </Trackpoint>
          <Trackpoint>
            <Time>2022-08-26T21:17:39.000Z</Time>
            <Position>
              <LatitudeDegrees>50.17748616635799407958984375</LatitudeDegrees>
              <LongitudeDegrees>16.978657655417919158935546875</LongitudeDegrees>
            </Position>
            <AltitudeMeters>621.20001220703125</AltitudeMeters>
            <DistanceMeters>5906.8780192097</DistanceMeters>
          </Trackpoint>
          <Trackpoint>
            <Time>2022-08-26T21:17:49.000Z</Time>
            <Position>
              <LatitudeDegrees>50.17748348414897918701171875</LatitudeDegrees>
              <LongitudeDegrees>16.9785968028008937835693359375</LongitudeDegrees>
            </Position>
            <AltitudeMeters>621</AltitudeMeters>
            <DistanceMeters>5911.2264649175</DistanceMeters>
          </Trackpoint>
          <Trackpoint>
            <Time>2022-08-26T21:17:59.000Z</Time>
            <Position>
              <LatitudeDegrees>50.17748390324413776397705078125</LatitudeDegrees>
              <LongitudeDegrees>16.97851675562560558319091796875</LongitudeDegrees>
            </Position>
            <AltitudeMeters>621</AltitudeMeters>
            <DistanceMeters>5916.9312344575</DistanceMeters>
          </Trackpoint>
          <Trackpoint>
            <Time>2022-08-26T21:18:07.000Z</Time>
            <Position>
              <LatitudeDegrees>50.17745666205883026123046875</LatitudeDegrees>
              <LongitudeDegrees>16.9785190187394618988037109375</LongitudeDegrees>
            </Position>
            <AltitudeMeters>621.4000244140625</AltitudeMeters>
            <DistanceMeters>5919.9661443363</DistanceMeters>
          </Trackpoint>
          <Trackpoint>
            <Time>2022-08-26T21:18:17.000Z</Time>
            <Position>
              <LatitudeDegrees>50.177438557147979736328125</LatitudeDegrees>
              <LongitudeDegrees>16.97852932848036289215087890625</LongitudeDegrees>
            </Position>
            <AltitudeMeters>621.4000244140625</AltitudeMeters>
            <DistanceMeters>5922.112149692</DistanceMeters>
          </Trackpoint>
          <Trackpoint>
            <Time>2022-08-26T21:18:27.000Z</Time>
            <Position>
              <LatitudeDegrees>50.17742472700774669647216796875</LatitudeDegrees>
              <LongitudeDegrees>16.97856386192142963409423828125</LongitudeDegrees>
            </Position>
            <AltitudeMeters>621.5999755859375</AltitudeMeters>
            <DistanceMeters>5925.0147453101</DistanceMeters>
          </Trackpoint>
          <Trackpoint>
            <Time>2022-08-26T21:18:38.000Z</Time>
            <Position>
              <LatitudeDegrees>50.177414081990718841552734375</LatitudeDegrees>
              <LongitudeDegrees>16.97863628156483173370361328125</LongitudeDegrees>
            </Position>
            <AltitudeMeters>621.79998779296875</AltitudeMeters>
            <DistanceMeters>5930.3115790352</DistanceMeters>
          </Trackpoint>
          <Trackpoint>
            <Time>2022-08-26T21:18:47.000Z</Time>
            <Position>
              <LatitudeDegrees>50.17740762792527675628662109375</LatitudeDegrees>
              <LongitudeDegrees>16.97866804897785186767578125</LongitudeDegrees>
            </Position>
            <AltitudeMeters>621.79998779296875</AltitudeMeters>
            <DistanceMeters>5932.6853455993</DistanceMeters>
          </Trackpoint>
          <Trackpoint>
            <Time>2022-08-26T21:18:49.000Z</Time>
            <Position>
              <LatitudeDegrees>50.17740528099238872528076171875</LatitudeDegrees>
              <LongitudeDegrees>16.97866846807301044464111328125</LongitudeDegrees>
            </Position>
            <AltitudeMeters>622</AltitudeMeters>
            <DistanceMeters>5932.9541217358</DistanceMeters>
          </Trackpoint>
          <Trackpoint>
            <Time>2022-08-26T21:18:55.000Z</Time>
            <Position>
              <LatitudeDegrees>50.17738734371960163116455078125</LatitudeDegrees>
              <LongitudeDegrees>16.9786745868623256683349609375</LongitudeDegrees>
            </Position>
            <AltitudeMeters>622</AltitudeMeters>
            <DistanceMeters>5934.9966435392</DistanceMeters>
          </Trackpoint>
          <Trackpoint>
            <Time>2022-08-26T21:19:07.000Z</Time>
            <Position>
              <LatitudeDegrees>50.17736923880875110626220703125</LatitudeDegrees>
              <LongitudeDegrees>16.978733427822589874267578125</LongitudeDegrees>
            </Position>
            <AltitudeMeters>622.20001220703125</AltitudeMeters>
            <DistanceMeters>5939.6481017148</DistanceMeters>
          </Trackpoint>
          <Trackpoint>
            <Time>2022-08-26T21:19:19.000Z</Time>
            <Position>
              <LatitudeDegrees>50.1773461885750293731689453125</LatitudeDegrees>
              <LongitudeDegrees>16.9787845574319362640380859375</LongitudeDegrees>
            </Position>
            <AltitudeMeters>622.4000244140625</AltitudeMeters>
            <DistanceMeters>5944.1032232646</DistanceMeters>
          </Trackpoint>
          <Trackpoint>
            <Time>2022-08-26T21:19:28.000Z</Time>
            <Position>
              <LatitudeDegrees>50.1773344539105892181396484375</LatitudeDegrees>
              <LongitudeDegrees>16.9787999801337718963623046875</LongitudeDegrees>
            </Position>
            <AltitudeMeters>622.5999755859375</AltitudeMeters>
            <DistanceMeters>5945.8084166891</DistanceMeters>
          </Trackpoint>
          <Trackpoint>
            <Time>2022-08-26T21:19:38.000Z</Time>
            <Position>
              <LatitudeDegrees>50.17734132707118988037109375</LatitudeDegrees>
              <LongitudeDegrees>16.97885404340922832489013671875</LongitudeDegrees>
            </Position>
            <AltitudeMeters>622.5999755859375</AltitudeMeters>
            <DistanceMeters>5949.7356766202</DistanceMeters>
          </Trackpoint>
          <Trackpoint>
            <Time>2022-08-26T21:19:49.000Z</Time>
            <Position>
              <LatitudeDegrees>50.177341662347316741943359375</LatitudeDegrees>
              <LongitudeDegrees>16.97895043529570102691650390625</LongitudeDegrees>
            </Position>
            <AltitudeMeters>622.4000244140625</AltitudeMeters>
            <DistanceMeters>5956.6065746437</DistanceMeters>
          </Trackpoint>
          <Trackpoint>
            <Time>2022-08-26T21:20:00.000Z</Time>
            <Position>
              <LatitudeDegrees>50.17733353190124034881591796875</LatitudeDegrees>
              <LongitudeDegrees>16.978986896574497222900390625</LongitudeDegrees>
            </Position>
            <AltitudeMeters>622</AltitudeMeters>
            <DistanceMeters>5959.3590706267</DistanceMeters>
          </Trackpoint>
          <Trackpoint>
            <Time>2022-08-26T21:20:10.000Z</Time>
            <Position>
              <LatitudeDegrees>50.17735339701175689697265625</LatitudeDegrees>
              <LongitudeDegrees>16.9790603220462799072265625</LongitudeDegrees>
            </Position>
            <AltitudeMeters>621.4000244140625</AltitudeMeters>
            <DistanceMeters>5965.0408417667</DistanceMeters>
          </Trackpoint>
          <Trackpoint>
            <Time>2022-08-26T21:20:20.000Z</Time>
            <Position>
              <LatitudeDegrees>50.17733705230057239532470703125</LatitudeDegrees>
              <LongitudeDegrees>16.979061663150787353515625</LongitudeDegrees>
            </Position>
            <AltitudeMeters>621.4000244140625</AltitudeMeters>
            <DistanceMeters>5966.863770216</DistanceMeters>
          </Trackpoint>
          <Trackpoint>
            <Time>2022-08-26T21:20:29.000Z</Time>
            <Position>
              <LatitudeDegrees>50.17731945030391216278076171875</LatitudeDegrees>
              <LongitudeDegrees>16.97907851077616214752197265625</LongitudeDegrees>
            </Position>
            <AltitudeMeters>622.4000244140625</AltitudeMeters>
            <DistanceMeters>5969.1621598087</DistanceMeters>
          </Trackpoint>
          <Trackpoint>
            <Time>2022-08-26T21:20:38.000Z</Time>
            <Position>
              <LatitudeDegrees>50.17730168066918849945068359375</LatitudeDegrees>
              <LongitudeDegrees>16.97915084660053253173828125</LongitudeDegrees>
            </Position>
            <AltitudeMeters>622.20001220703125</AltitudeMeters>
            <DistanceMeters>5974.6851660759</DistanceMeters>
          </Trackpoint>
          <Trackpoint>
            <Time>2022-08-26T21:20:49.000Z</Time>
            <Position>
              <LatitudeDegrees>50.1773421652615070343017578125</LatitudeDegrees>
              <LongitudeDegrees>16.97923156432807445526123046875</LongitudeDegrees>
            </Position>
            <AltitudeMeters>621.5999755859375</AltitudeMeters>
            <DistanceMeters>5981.992961372</DistanceMeters>
          </Trackpoint>
          <Trackpoint>
            <Time>2022-08-26T21:20:53.000Z</Time>
            <Position>
              <LatitudeDegrees>50.1773659698665142059326171875</LatitudeDegrees>
              <LongitudeDegrees>16.9792546145617961883544921875</LongitudeDegrees>
            </Position>
            <AltitudeMeters>620.79998779296875</AltitudeMeters>
            <DistanceMeters>5985.1100693672</DistanceMeters>
          </Trackpoint>
          <Trackpoint>
            <Time>2022-08-26T21:20:57.000Z</Time>
            <Position>
              <LatitudeDegrees>50.17739740200340747833251953125</LatitudeDegrees>
              <LongitudeDegrees>16.97928219102323055267333984375</LongitudeDegrees>
            </Position>
            <AltitudeMeters>619.79998779296875</AltitudeMeters>
            <DistanceMeters>5989.1237530089</DistanceMeters>
          </Trackpoint>
          <Trackpoint>
            <Time>2022-08-26T21:20:59.000Z</Time>
            <Position>
              <LatitudeDegrees>50.177417099475860595703125</LatitudeDegrees>
              <LongitudeDegrees>16.97928688488900661468505859375</LongitudeDegrees>
            </Position>
            <AltitudeMeters>619.4000244140625</AltitudeMeters>
            <DistanceMeters>5991.3401378098</DistanceMeters>
          </Trackpoint>
          <Trackpoint>
            <Time>2022-08-26T21:21:03.000Z</Time>
            <Position>
              <LatitudeDegrees>50.1774452626705169677734375</LatitudeDegrees>
              <LongitudeDegrees>16.97928269393742084503173828125</LongitudeDegrees>
            </Position>
            <AltitudeMeters>618.79998779296875</AltitudeMeters>
            <DistanceMeters>5994.4875166969</DistanceMeters>
          </Trackpoint>
          <Trackpoint>
            <Time>2022-08-26T21:21:07.000Z</Time>
            <Position>
              <LatitudeDegrees>50.17747166566550731658935546875</LatitudeDegrees>
              <LongitudeDegrees>16.97927825152873992919921875</LongitudeDegrees>
            </Position>
            <AltitudeMeters>617.5999755859375</AltitudeMeters>
            <DistanceMeters>5997.4440541984</DistanceMeters>
          </Trackpoint>
          <Trackpoint>
            <Time>2022-08-26T21:21:10.000Z</Time>
            <Position>
              <LatitudeDegrees>50.177493877708911895751953125</LatitudeDegrees>
              <LongitudeDegrees>16.9792787544429302215576171875</LongitudeDegrees>
            </Position>
            <AltitudeMeters>617</AltitudeMeters>
            <DistanceMeters>5999.9184009463</DistanceMeters>
          </Trackpoint>
          <Trackpoint>
            <Time>2022-08-26T21:21:12.000Z</Time>
            <Position>
              <LatitudeDegrees>50.1775064505636692047119140625</LatitudeDegrees>
              <LongitudeDegrees>16.97927665896713733673095703125</LongitudeDegrees>
            </Position>
            <AltitudeMeters>616.5999755859375</AltitudeMeters>
            <DistanceMeters>6001.327874897</DistanceMeters>
          </Trackpoint>
          <Trackpoint>
            <Time>2022-08-26T21:21:16.000Z</Time>
            <Position>
              <LatitudeDegrees>50.17752631567418575286865234375</LatitudeDegrees>
              <LongitudeDegrees>16.9792534410953521728515625</LongitudeDegrees>
            </Position>
            <AltitudeMeters>615.4000244140625</AltitudeMeters>
            <DistanceMeters>6004.0885604131</DistanceMeters>
          </Trackpoint>
          <Trackpoint>
            <Time>2022-08-26T21:21:20.000Z</Time>
            <Position>
              <LatitudeDegrees>50.17755012027919292449951171875</LatitudeDegrees>
              <LongitudeDegrees>16.979224272072315216064453125</LongitudeDegrees>
            </Position>
            <AltitudeMeters>614.20001220703125</AltitudeMeters>
            <DistanceMeters>6007.4563157506</DistanceMeters>
          </Trackpoint>
          <Trackpoint>
            <Time>2022-08-26T21:21:24.000Z</Time>
            <Position>
              <LatitudeDegrees>50.1775792054831981658935546875</LatitudeDegrees>
              <LongitudeDegrees>16.9792194105684757232666015625</LongitudeDegrees>
            </Position>
            <AltitudeMeters>613.20001220703125</AltitudeMeters>
            <DistanceMeters>6010.7108940135</DistanceMeters>
          </Trackpoint>
          <Trackpoint>
            <Time>2022-08-26T21:21:28.000Z</Time>
            <Position>
              <LatitudeDegrees>50.177587755024433135986328125</LatitudeDegrees>
              <LongitudeDegrees>16.9791771657764911651611328125</LongitudeDegrees>
            </Position>
            <AltitudeMeters>612.4000244140625</AltitudeMeters>
            <DistanceMeters>6013.8697283666</DistanceMeters>
          </Trackpoint>
          <Trackpoint>
            <Time>2022-08-26T21:21:29.000Z</Time>
            <Position>
              <LatitudeDegrees>50.1775912754237651824951171875</LatitudeDegrees>
              <LongitudeDegrees>16.9791756570339202880859375</LongitudeDegrees>
            </Position>
            <AltitudeMeters>612.20001220703125</AltitudeMeters>
            <DistanceMeters>6014.2728925713</DistanceMeters>
          </Trackpoint>
          <Trackpoint>
            <Time>2022-08-26T21:21:35.000Z</Time>
            <Position>
              <LatitudeDegrees>50.177631676197052001953125</LatitudeDegrees>
              <LongitudeDegrees>16.979159899055957794189453125</LongitudeDegrees>
            </Position>
            <AltitudeMeters>611.20001220703125</AltitudeMeters>
            <DistanceMeters>6018.9087939871</DistanceMeters>
          </Trackpoint>
          <Trackpoint>
            <Time>2022-08-26T21:21:37.000Z</Time>
            <Position>
              <LatitudeDegrees>50.17764701507985591888427734375</LatitudeDegrees>
              <LongitudeDegrees>16.9791409559547901153564453125</LongitudeDegrees>
            </Position>
            <AltitudeMeters>611.20001220703125</AltitudeMeters>
            <DistanceMeters>6021.0861295453</DistanceMeters>
          </Trackpoint>
          <Trackpoint>
            <Time>2022-08-26T21:21:47.000Z</Time>
            <Position>
              <LatitudeDegrees>50.17768641002476215362548828125</LatitudeDegrees>
              <LongitudeDegrees>16.97911019437015056610107421875</LongitudeDegrees>
            </Position>
            <AltitudeMeters>610.5999755859375</AltitudeMeters>
            <DistanceMeters>6025.9889923309</DistanceMeters>
          </Trackpoint>
          <Trackpoint>
            <Time>2022-08-26T21:21:56.000Z</Time>
            <Position>
              <LatitudeDegrees>50.17771172337234020233154296875</LatitudeDegrees>
              <LongitudeDegrees>16.97905688546597957611083984375</LongitudeDegrees>
            </Position>
            <AltitudeMeters>610.5999755859375</AltitudeMeters>
            <DistanceMeters>6030.7184214033</DistanceMeters>
          </Trackpoint>
          <Trackpoint>
            <Time>2022-08-26T21:22:06.000Z</Time>
            <Position>
              <LatitudeDegrees>50.177693031728267669677734375</LatitudeDegrees>
              <LongitudeDegrees>16.9790242798626422882080078125</LongitudeDegrees>
            </Position>
            <AltitudeMeters>610.5999755859375</AltitudeMeters>
            <DistanceMeters>6033.8384249941</DistanceMeters>
          </Trackpoint>
          <Trackpoint>
            <Time>2022-08-26T21:22:13.000Z</Time>
            <Position>
              <LatitudeDegrees>50.1776705682277679443359375</LatitudeDegrees>
              <LongitudeDegrees>16.97897222824394702911376953125</LongitudeDegrees>
            </Position>
            <AltitudeMeters>610.5999755859375</AltitudeMeters>
            <DistanceMeters>6038.3137696236</DistanceMeters>
          </Trackpoint>
          <Trackpoint>
            <Time>2022-08-26T21:22:15.000Z</Time>
            <Position>
              <LatitudeDegrees>50.17767257988452911376953125</LatitudeDegrees>
              <LongitudeDegrees>16.9789468310773372650146484375</LongitudeDegrees>
            </Position>
            <AltitudeMeters>610.5999755859375</AltitudeMeters>
            <DistanceMeters>6040.136698073</DistanceMeters>
          </Trackpoint>
          <Trackpoint>
            <Time>2022-08-26T21:22:21.000Z</Time>
            <Position>
              <LatitudeDegrees>50.17765942029654979705810546875</LatitudeDegrees>
              <LongitudeDegrees>16.97889042086899280548095703125</LongitudeDegrees>
            </Position>
            <AltitudeMeters>610.5999755859375</AltitudeMeters>
            <DistanceMeters>6044.4160666045</DistanceMeters>
          </Trackpoint>
          <Trackpoint>
            <Time>2022-08-26T21:22:28.000Z</Time>
            <Position>
              <LatitudeDegrees>50.1776670478284358978271484375</LatitudeDegrees>
              <LongitudeDegrees>16.978866867721080780029296875</LongitudeDegrees>
            </Position>
            <AltitudeMeters>610.5999755859375</AltitudeMeters>
            <DistanceMeters>6046.2950982406</DistanceMeters>
          </Trackpoint>
          <Trackpoint>
            <Time>2022-08-26T21:22:35.000Z</Time>
            <Position>
              <LatitudeDegrees>50.177673585712909698486328125</LatitudeDegrees>
              <LongitudeDegrees>16.97882219217717647552490234375</LongitudeDegrees>
            </Position>
            <AltitudeMeters>610.5999755859375</AltitudeMeters>
            <DistanceMeters>6049.5607559508</DistanceMeters>
          </Trackpoint>
          <Trackpoint>
            <Time>2022-08-26T21:22:43.000Z</Time>
            <Position>
              <LatitudeDegrees>50.17766319215297698974609375</LatitudeDegrees>
              <LongitudeDegrees>16.9787449948489665985107421875</LongitudeDegrees>
            </Position>
            <AltitudeMeters>610.5999755859375</AltitudeMeters>
            <DistanceMeters>6055.1834152532</DistanceMeters>
          </Trackpoint>
          <Trackpoint>
            <Time>2022-08-26T21:22:49.000Z</Time>
            <Position>
              <LatitudeDegrees>50.17766444943845272064208984375</LatitudeDegrees>
              <LongitudeDegrees>16.97867634706199169158935546875</LongitudeDegrees>
            </Position>
            <AltitudeMeters>610.79998779296875</AltitudeMeters>
            <DistanceMeters>6060.0789053085</DistanceMeters>
          </Trackpoint>
          <Trackpoint>
            <Time>2022-08-26T21:22:56.000Z</Time>
            <Position>
              <LatitudeDegrees>50.17766319215297698974609375</LatitudeDegrees>
              <LongitudeDegrees>16.97867148555815219879150390625</LongitudeDegrees>
            </Position>
            <AltitudeMeters>610.79998779296875</AltitudeMeters>
            <DistanceMeters>6060.4469421907</DistanceMeters>
          </Trackpoint>
          <Trackpoint>
            <Time>2022-08-26T21:23:03.000Z</Time>
            <Position>
              <LatitudeDegrees>50.17767534591257572174072265625</LatitudeDegrees>
              <LongitudeDegrees>16.97863376699388027191162109375</LongitudeDegrees>
            </Position>
            <AltitudeMeters>610.79998779296875</AltitudeMeters>
            <DistanceMeters>6063.4579547695</DistanceMeters>
          </Trackpoint>
          <Trackpoint>
            <Time>2022-08-26T21:23:11.000Z</Time>
            <Position>
              <LatitudeDegrees>50.177686326205730438232421875</LatitudeDegrees>
              <LongitudeDegrees>16.9785672985017299652099609375</LongitudeDegrees>
            </Position>
            <AltitudeMeters>610.79998779296875</AltitudeMeters>
            <DistanceMeters>6068.3515999068</DistanceMeters>
          </Trackpoint>
          <Trackpoint>
            <Time>2022-08-26T21:23:19.000Z</Time>
            <Position>
              <LatitudeDegrees>50.17768590711057186126708984375</LatitudeDegrees>
              <LongitudeDegrees>16.9785548932850360870361328125</LongitudeDegrees>
            </Position>
            <AltitudeMeters>610.79998779296875</AltitudeMeters>
            <DistanceMeters>6069.2328414027</DistanceMeters>
          </Trackpoint>
          <Trackpoint>
            <Time>2022-08-26T21:23:32.000Z</Time>
            <Position>
              <LatitudeDegrees>50.1776754297316074371337890625</LatitudeDegrees>
              <LongitudeDegrees>16.97856117971241474151611328125</LongitudeDegrees>
            </Position>
            <AltitudeMeters>611</AltitudeMeters>
            <DistanceMeters>6070.479105078</DistanceMeters>
          </Trackpoint>
          <Trackpoint>
            <Time>2022-08-26T21:23:40.000Z</Time>
            <Position>
              <LatitudeDegrees>50.17766528762876987457275390625</LatitudeDegrees>
              <LongitudeDegrees>16.97850518859922885894775390625</LongitudeDegrees>
            </Position>
            <AltitudeMeters>611</AltitudeMeters>
            <DistanceMeters>6074.6277585586</DistanceMeters>
          </Trackpoint>
          <Trackpoint>
            <Time>2022-08-26T21:23:50.000Z</Time>
            <Position>
              <LatitudeDegrees>50.17766528762876987457275390625</LatitudeDegrees>
              <LongitudeDegrees>16.9784774444997310638427734375</LongitudeDegrees>
            </Position>
            <AltitudeMeters>611</AltitudeMeters>
            <DistanceMeters>6076.6051363931</DistanceMeters>
          </Trackpoint>
          <Trackpoint>
            <Time>2022-08-26T21:23:59.000Z</Time>
            <Position>
              <LatitudeDegrees>50.177661515772342681884765625</LatitudeDegrees>
              <LongitudeDegrees>16.97846042923629283905029296875</LongitudeDegrees>
            </Position>
            <AltitudeMeters>611</AltitudeMeters>
            <DistanceMeters>6077.890633958</DistanceMeters>
          </Trackpoint>
          <Trackpoint>
            <Time>2022-08-26T21:24:08.000Z</Time>
            <Position>
              <LatitudeDegrees>50.17765891738235950469970703125</LatitudeDegrees>
              <LongitudeDegrees>16.97846311144530773162841796875</LongitudeDegrees>
            </Position>
            <AltitudeMeters>611</AltitudeMeters>
            <DistanceMeters>6078.2332576492</DistanceMeters>
          </Trackpoint>
          <Trackpoint>
            <Time>2022-08-26T21:24:19.000Z</Time>
            <Position>
              <LatitudeDegrees>50.17765841446816921234130859375</LatitudeDegrees>
              <LongitudeDegrees>16.9784818030893802642822265625</LongitudeDegrees>
            </Position>
            <AltitudeMeters>611</AltitudeMeters>
            <DistanceMeters>6079.5704020452</DistanceMeters>
          </Trackpoint>
          <Trackpoint>
            <Time>2022-08-26T21:24:28.000Z</Time>
            <Position>
              <LatitudeDegrees>50.17764517106115818023681640625</LatitudeDegrees>
              <LongitudeDegrees>16.97851038537919521331787109375</LongitudeDegrees>
            </Position>
            <AltitudeMeters>611</AltitudeMeters>
            <DistanceMeters>6082.0845725865</DistanceMeters>
          </Trackpoint>
          <Trackpoint>
            <Time>2022-08-26T21:24:40.000Z</Time>
            <Position>
              <LatitudeDegrees>50.17760560847818851470947265625</LatitudeDegrees>
              <LongitudeDegrees>16.97852664627134799957275390625</LongitudeDegrees>
            </Position>
            <AltitudeMeters>611.20001220703125</AltitudeMeters>
            <DistanceMeters>6086.6379290974</DistanceMeters>
          </Trackpoint>
          <Trackpoint>
            <Time>2022-08-26T21:24:48.000Z</Time>
            <Position>
              <LatitudeDegrees>50.17759253270924091339111328125</LatitudeDegrees>
              <LongitudeDegrees>16.97852714918553829193115234375</LongitudeDegrees>
            </Position>
            <AltitudeMeters>611.20001220703125</AltitudeMeters>
            <DistanceMeters>6088.0915583101</DistanceMeters>
          </Trackpoint>
          <Trackpoint>
            <Time>2022-08-26T21:24:55.000Z</Time>
            <Position>
              <LatitudeDegrees>50.177560932934284210205078125</LatitudeDegrees>
              <LongitudeDegrees>16.9785441644489765167236328125</LongitudeDegrees>
            </Position>
            <AltitudeMeters>611.20001220703125</AltitudeMeters>
            <DistanceMeters>6091.8109772314</DistanceMeters>
          </Trackpoint>
          <Trackpoint>
            <Time>2022-08-26T21:25:03.000Z</Time>
            <Position>
              <LatitudeDegrees>50.177540481090545654296875</LatitudeDegrees>
              <LongitudeDegrees>16.9785632751882076263427734375</LongitudeDegrees>
            </Position>
            <AltitudeMeters>611</AltitudeMeters>
            <DistanceMeters>6094.4615242454</DistanceMeters>
          </Trackpoint>
          <Trackpoint>
            <Time>2022-08-26T21:25:14.000Z</Time>
            <Position>
              <LatitudeDegrees>50.17753981053829193115234375</LatitudeDegrees>
              <LongitudeDegrees>16.9785602577030658721923828125</LongitudeDegrees>
            </Position>
            <AltitudeMeters>611.79998779296875</AltitudeMeters>
            <DistanceMeters>6094.6942912075</DistanceMeters>
          </Trackpoint>
          <Trackpoint>
            <Time>2022-08-26T21:25:20.000Z</Time>
            <Position>
              <LatitudeDegrees>50.17754140309989452362060546875</LatitudeDegrees>
              <LongitudeDegrees>16.97855003178119659423828125</LongitudeDegrees>
            </Position>
            <AltitudeMeters>612</AltitudeMeters>
            <DistanceMeters>6095.4425323047</DistanceMeters>
          </Trackpoint>
          <Trackpoint>
            <Time>2022-08-26T21:25:23.000Z</Time>
            <Position>
              <LatitudeDegrees>50.1775473542511463165283203125</LatitudeDegrees>
              <LongitudeDegrees>16.97855162434279918670654296875</LongitudeDegrees>
            </Position>
            <AltitudeMeters>612.4000244140625</AltitudeMeters>
            <DistanceMeters>6096.1144726459</DistanceMeters>
          </Trackpoint>
          <Trackpoint>
            <Time>2022-08-26T21:25:31.000Z</Time>
            <Position>
              <LatitudeDegrees>50.17754542641341686248779296875</LatitudeDegrees>
              <LongitudeDegrees>16.978557407855987548828125</LongitudeDegrees>
            </Position>
            <AltitudeMeters>613</AltitudeMeters>
            <DistanceMeters>6096.5896062178</DistanceMeters>
          </Trackpoint>
          <Trackpoint>
            <Time>2022-08-26T21:25:33.000Z</Time>
            <Position>
              <LatitudeDegrees>50.17754224129021167755126953125</LatitudeDegrees>
              <LongitudeDegrees>16.97855765931308269500732421875</LongitudeDegrees>
            </Position>
            <AltitudeMeters>613</AltitudeMeters>
            <DistanceMeters>6096.9451636256</DistanceMeters>
          </Trackpoint>
          <Trackpoint>
            <Time>2022-08-26T21:25:44.000Z</Time>
            <Position>
              <LatitudeDegrees>50.1775423251092433929443359375</LatitudeDegrees>
              <LongitudeDegrees>16.97856034152209758758544921875</LongitudeDegrees>
            </Position>
            <AltitudeMeters>613.4000244140625</AltitudeMeters>
            <DistanceMeters>6097.1352170543</DistanceMeters>
          </Trackpoint>
          <Trackpoint>
            <Time>2022-08-26T21:25:55.000Z</Time>
            <Position>
              <LatitudeDegrees>50.177542828023433685302734375</LatitudeDegrees>
              <LongitudeDegrees>16.978557072579860687255859375</LongitudeDegrees>
            </Position>
            <AltitudeMeters>613.4000244140625</AltitudeMeters>
            <DistanceMeters>6097.3679840164</DistanceMeters>
          </Trackpoint>
          <Trackpoint>
            <Time>2022-08-26T21:26:04.000Z</Time>
            <Position>
              <LatitudeDegrees>50.1775600947439670562744140625</LatitudeDegrees>
              <LongitudeDegrees>16.978573165833950042724609375</LongitudeDegrees>
            </Position>
            <AltitudeMeters>613</AltitudeMeters>
            <DistanceMeters>6099.6046472343</DistanceMeters>
          </Trackpoint>
          <Trackpoint>
            <Time>2022-08-26T21:26:10.000Z</Time>
            <Position>
              <LatitudeDegrees>50.17756202258169651031494140625</LatitudeDegrees>
              <LongitudeDegrees>16.9786001555621623992919921875</LongitudeDegrees>
            </Position>
            <AltitudeMeters>611.79998779296875</AltitudeMeters>
            <DistanceMeters>6101.5381548365</DistanceMeters>
          </Trackpoint>
          <Trackpoint>
            <Time>2022-08-26T21:26:13.000Z</Time>
            <Position>
              <LatitudeDegrees>50.1775621064007282257080078125</LatitudeDegrees>
              <LongitudeDegrees>16.9786179251968860626220703125</LongitudeDegrees>
            </Position>
            <AltitudeMeters>611.20001220703125</AltitudeMeters>
            <DistanceMeters>6102.798826663</DistanceMeters>
          </Trackpoint>
          <Trackpoint>
            <Time>2022-08-26T21:26:24.000Z</Time>
            <Position>
              <LatitudeDegrees>50.17754919826984405517578125</LatitudeDegrees>
              <LongitudeDegrees>16.97866000235080718994140625</LongitudeDegrees>
            </Position>
            <AltitudeMeters>611</AltitudeMeters>
            <DistanceMeters>6106.1234038643</DistanceMeters>
          </Trackpoint>
          <Trackpoint>
            <Time>2022-08-26T21:26:31.000Z</Time>
            <Position>
              <LatitudeDegrees>50.17756403423845767974853515625</LatitudeDegrees>
              <LongitudeDegrees>16.97869093157351016998291015625</LongitudeDegrees>
            </Position>
            <AltitudeMeters>611</AltitudeMeters>
            <DistanceMeters>6108.877539702</DistanceMeters>
          </Trackpoint>
          <Trackpoint>
            <Time>2022-08-26T21:26:42.000Z</Time>
            <Position>
              <LatitudeDegrees>50.17757208086550235748291015625</LatitudeDegrees>
              <LongitudeDegrees>16.97881096042692661285400390625</LongitudeDegrees>
            </Position>
            <AltitudeMeters>611</AltitudeMeters>
            <DistanceMeters>6117.4794259127</DistanceMeters>
          </Trackpoint>
          <Trackpoint>
            <Time>2022-08-26T21:26:49.000Z</Time>
            <Position>
              <LatitudeDegrees>50.17763234674930572509765625</LatitudeDegrees>
              <LongitudeDegrees>16.97889729402959346771240234375</LongitudeDegrees>
            </Position>
            <AltitudeMeters>611</AltitudeMeters>
            <DistanceMeters>6126.5826677268</DistanceMeters>
          </Trackpoint>
          <Trackpoint>
            <Time>2022-08-26T21:26:59.000Z</Time>
            <Position>
              <LatitudeDegrees>50.177717171609401702880859375</LatitudeDegrees>
              <LongitudeDegrees>16.97893853299319744110107421875</LongitudeDegrees>
            </Position>
            <AltitudeMeters>610.79998779296875</AltitudeMeters>
            <DistanceMeters>6136.4718399818</DistanceMeters>
          </Trackpoint>
          <Trackpoint>
            <Time>2022-08-26T21:27:01.000Z</Time>
            <Position>
              <LatitudeDegrees>50.17770686186850070953369140625</LatitudeDegrees>
              <LongitudeDegrees>16.9789226911962032318115234375</LongitudeDegrees>
            </Position>
            <AltitudeMeters>610.79998779296875</AltitudeMeters>
            <DistanceMeters>6138.0844968008</DistanceMeters>
          </Trackpoint>
          <Trackpoint>
            <Time>2022-08-26T21:27:07.000Z</Time>
            <Position>
              <LatitudeDegrees>50.177697055041790008544921875</LatitudeDegrees>
              <LongitudeDegrees>16.978907771408557891845703125</LongitudeDegrees>
            </Position>
            <AltitudeMeters>610.79998779296875</AltitudeMeters>
            <DistanceMeters>6139.6108518455</DistanceMeters>
          </Trackpoint>
          <Trackpoint>
            <Time>2022-08-26T21:27:17.000Z</Time>
            <Position>
              <LatitudeDegrees>50.17767031677067279815673828125</LatitudeDegrees>
              <LongitudeDegrees>16.97889880277216434478759765625</LongitudeDegrees>
            </Position>
            <AltitudeMeters>610.79998779296875</AltitudeMeters>
            <DistanceMeters>6142.6546748416</DistanceMeters>
          </Trackpoint>
          <Trackpoint>
            <Time>2022-08-26T21:27:25.000Z</Time>
            <Position>
              <LatitudeDegrees>50.17763561569154262542724609375</LatitudeDegrees>
              <LongitudeDegrees>16.97886829264461994171142578125</LongitudeDegrees>
            </Position>
            <AltitudeMeters>610.79998779296875</AltitudeMeters>
            <DistanceMeters>6147.0874444433</DistanceMeters>
          </Trackpoint>
          <Trackpoint>
            <Time>2022-08-26T21:27:27.000Z</Time>
            <Position>
              <LatitudeDegrees>50.17762471921741962432861328125</LatitudeDegrees>
              <LongitudeDegrees>16.97884515859186649322509765625</LongitudeDegrees>
            </Position>
            <AltitudeMeters>610.79998779296875</AltitudeMeters>
            <DistanceMeters>6149.1343825152</DistanceMeters>
          </Trackpoint>
          <Trackpoint>
            <Time>2022-08-26T21:27:30.000Z</Time>
            <Position>
              <LatitudeDegrees>50.17760393209755420684814453125</LatitudeDegrees>
              <LongitudeDegrees>16.97884314693510532379150390625</LongitudeDegrees>
            </Position>
            <AltitudeMeters>610.79998779296875</AltitudeMeters>
            <DistanceMeters>6151.4542802631</DistanceMeters>
          </Trackpoint>
          <Trackpoint>
            <Time>2022-08-26T21:27:37.000Z</Time>
            <Position>
              <LatitudeDegrees>50.17760560847818851470947265625</LatitudeDegrees>
              <LongitudeDegrees>16.978852786123752593994140625</LongitudeDegrees>
            </Position>
            <AltitudeMeters>611</AltitudeMeters>
            <DistanceMeters>6152.1590172384</DistanceMeters>
          </Trackpoint>
          <Trackpoint>
            <Time>2022-08-26T21:27:43.000Z</Time>
            <Position>
              <LatitudeDegrees>50.17758917994797229766845703125</LatitudeDegrees>
              <LongitudeDegrees>16.97886661626398563385009765625</LongitudeDegrees>
            </Position>
            <AltitudeMeters>611</AltitudeMeters>
            <DistanceMeters>6154.2344320075</DistanceMeters>
          </Trackpoint>
          <Trackpoint>
            <Time>2022-08-26T21:27:50.000Z</Time>
            <Position>
              <LatitudeDegrees>50.177579037845134735107421875</LatitudeDegrees>
              <LongitudeDegrees>16.97885924018919467926025390625</LongitudeDegrees>
            </Position>
            <AltitudeMeters>611.20001220703125</AltitudeMeters>
            <DistanceMeters>6155.4806956828</DistanceMeters>
          </Trackpoint>
          <Trackpoint>
            <Time>2022-08-26T21:27:57.000Z</Time>
            <Position>
              <LatitudeDegrees>50.1775781996548175811767578125</LatitudeDegrees>
              <LongitudeDegrees>16.97886477224528789520263671875</LongitudeDegrees>
            </Position>
            <AltitudeMeters>611.5999755859375</AltitudeMeters>
            <DistanceMeters>6155.8838598875</DistanceMeters>
          </Trackpoint>
          <Trackpoint>
            <Time>2022-08-26T21:28:00.000Z</Time>
            <Position>
              <LatitudeDegrees>50.17757995985448360443115234375</LatitudeDegrees>
              <LongitudeDegrees>16.9788645207881927490234375</LongitudeDegrees>
            </Position>
            <AltitudeMeters>612.4000244140625</AltitudeMeters>
            <DistanceMeters>6156.0739133163</DistanceMeters>
          </Trackpoint>
          <Trackpoint>
            <Time>2022-08-26T21:28:02.000Z</Time>
            <Position>
              <LatitudeDegrees>50.1775792054831981658935546875</LatitudeDegrees>
              <LongitudeDegrees>16.97885655798017978668212890625</LongitudeDegrees>
            </Position>
            <AltitudeMeters>612.79998779296875</AltitudeMeters>
            <DistanceMeters>6156.6440736025</DistanceMeters>
          </Trackpoint>
          <Trackpoint>
            <Time>2022-08-26T21:28:07.000Z</Time>
            <Position>
              <LatitudeDegrees>50.1775698177516460418701171875</LatitudeDegrees>
              <LongitudeDegrees>16.9788418896496295928955078125</LongitudeDegrees>
            </Position>
            <AltitudeMeters>613.5999755859375</AltitudeMeters>
            <DistanceMeters>6158.1223423532</DistanceMeters>
          </Trackpoint>
          <Trackpoint>
            <Time>2022-08-26T21:28:10.000Z</Time>
            <Position>
              <LatitudeDegrees>50.1775641180574893951416015625</LatitudeDegrees>
              <LongitudeDegrees>16.97883878834545612335205078125</LongitudeDegrees>
            </Position>
            <AltitudeMeters>614.20001220703125</AltitudeMeters>
            <DistanceMeters>6158.7942826945</DistanceMeters>
          </Trackpoint>
          <Trackpoint>
            <Time>2022-08-26T21:28:15.000Z</Time>
            <Position>
              <LatitudeDegrees>50.1775580830872058868408203125</LatitudeDegrees>
              <LongitudeDegrees>16.9788237847387790679931640625</LongitudeDegrees>
            </Position>
            <AltitudeMeters>615.20001220703125</AltitudeMeters>
            <DistanceMeters>6160.054954521</DistanceMeters>
          </Trackpoint>
          <Trackpoint>
            <Time>2022-08-26T21:28:16.000Z</Time>
            <Position>
              <LatitudeDegrees>50.17755615524947643280029296875</LatitudeDegrees>
              <LongitudeDegrees>16.9788207672536373138427734375</LongitudeDegrees>
            </Position>
            <AltitudeMeters>615.20001220703125</AltitudeMeters>
            <DistanceMeters>6160.355455377</DistanceMeters>
          </Trackpoint>
          <Trackpoint>
            <Time>2022-08-26T21:28:20.000Z</Time>
            <Position>
              <LatitudeDegrees>50.1775513775646686553955078125</LatitudeDegrees>
              <LongitudeDegrees>16.9788184203207492828369140625</LongitudeDegrees>
            </Position>
            <AltitudeMeters>616.5999755859375</AltitudeMeters>
            <DistanceMeters>6160.9095515772</DistanceMeters>
          </Trackpoint>
          <Trackpoint>
            <Time>2022-08-26T21:28:24.000Z</Time>
            <Position>
              <LatitudeDegrees>50.177550204098224639892578125</LatitudeDegrees>
              <LongitudeDegrees>16.9788162410259246826171875</LongitudeDegrees>
            </Position>
            <AltitudeMeters>617.5999755859375</AltitudeMeters>
            <DistanceMeters>6161.0996050059</DistanceMeters>
          </Trackpoint>
          <Trackpoint>
            <Time>2022-08-26T21:28:25.000Z</Time>
            <Position>
              <LatitudeDegrees>50.1775463484227657318115234375</LatitudeDegrees>
              <LongitudeDegrees>16.97880978696048259735107421875</LongitudeDegrees>
            </Position>
            <AltitudeMeters>618.20001220703125</AltitudeMeters>
            <DistanceMeters>6161.7299409192</DistanceMeters>
          </Trackpoint>
          <Trackpoint>
            <Time>2022-08-26T21:28:30.000Z</Time>
            <Position>
              <LatitudeDegrees>50.17753251828253269195556640625</LatitudeDegrees>
              <LongitudeDegrees>16.97880174033343791961669921875</LongitudeDegrees>
            </Position>
            <AltitudeMeters>618.79998779296875</AltitudeMeters>
            <DistanceMeters>6163.3758518928</DistanceMeters>
          </Trackpoint>
          <Trackpoint>
            <Time>2022-08-26T21:28:34.000Z</Time>
            <Position>
              <LatitudeDegrees>50.17753042280673980712890625</LatitudeDegrees>
              <LongitudeDegrees>16.9788040034472942352294921875</LongitudeDegrees>
            </Position>
            <AltitudeMeters>619.20001220703125</AltitudeMeters>
            <DistanceMeters>6163.6763527488</DistanceMeters>
          </Trackpoint>
          <Trackpoint>
            <Time>2022-08-26T21:28:38.000Z</Time>
            <Position>
              <LatitudeDegrees>50.177527405321598052978515625</LatitudeDegrees>
              <LongitudeDegrees>16.97880660183727741241455078125</LongitudeDegrees>
            </Position>
            <AltitudeMeters>619.79998779296875</AltitudeMeters>
            <DistanceMeters>6164.0564596063</DistanceMeters>
          </Trackpoint>
          <Trackpoint>
            <Time>2022-08-26T21:28:47.000Z</Time>
            <Position>
              <LatitudeDegrees>50.17754039727151393890380859375</LatitudeDegrees>
              <LongitudeDegrees>16.9787962920963764190673828125</LongitudeDegrees>
            </Position>
            <AltitudeMeters>620</AltitudeMeters>
            <DistanceMeters>6165.6802768132</DistanceMeters>
          </Trackpoint>
          <Trackpoint>
            <Time>2022-08-26T21:28:57.000Z</Time>
            <Position>
              <LatitudeDegrees>50.17751189880073070526123046875</LatitudeDegrees>
              <LongitudeDegrees>16.97877039201557636260986328125</LongitudeDegrees>
            </Position>
            <AltitudeMeters>619.5999755859375</AltitudeMeters>
            <DistanceMeters>6169.3508181976</DistanceMeters>
          </Trackpoint>
          <Trackpoint>
            <Time>2022-08-26T21:29:05.000Z</Time>
            <Position>
              <LatitudeDegrees>50.177477784454822540283203125</LatitudeDegrees>
              <LongitudeDegrees>16.97871104814112186431884765625</LongitudeDegrees>
            </Position>
            <AltitudeMeters>620.4000244140625</AltitudeMeters>
            <DistanceMeters>6175.0349727976</DistanceMeters>
          </Trackpoint>
          <Trackpoint>
            <Time>2022-08-26T21:29:07.000Z</Time>
            <Position>
              <LatitudeDegrees>50.1774688996374607086181640625</LatitudeDegrees>
              <LongitudeDegrees>16.97871507145464420318603515625</LongitudeDegrees>
            </Position>
            <AltitudeMeters>621</AltitudeMeters>
            <DistanceMeters>6176.0672271366</DistanceMeters>
          </Trackpoint>
          <Trackpoint>
            <Time>2022-08-26T21:29:11.000Z</Time>
            <Position>
              <LatitudeDegrees>50.1774638704955577850341796875</LatitudeDegrees>
              <LongitudeDegrees>16.978690512478351593017578125</LongitudeDegrees>
            </Position>
            <AltitudeMeters>622</AltitudeMeters>
            <DistanceMeters>6177.9024978288</DistanceMeters>
          </Trackpoint>
          <Trackpoint>
            <Time>2022-08-26T21:29:12.000Z</Time>
            <Position>
              <LatitudeDegrees>50.1774601824581623077392578125</LatitudeDegrees>
              <LongitudeDegrees>16.97868757881224155426025390625</LongitudeDegrees>
            </Position>
            <AltitudeMeters>622.20001220703125</AltitudeMeters>
            <DistanceMeters>6178.3680317531</DistanceMeters>
          </Trackpoint>
          <Trackpoint>
            <Time>2022-08-26T21:29:17.000Z</Time>
            <Position>
              <LatitudeDegrees>50.17743528820574283599853515625</LatitudeDegrees>
              <LongitudeDegrees>16.9786715693771839141845703125</LongitudeDegrees>
            </Position>
            <AltitudeMeters>623.20001220703125</AltitudeMeters>
            <DistanceMeters>6181.3640117238</DistanceMeters>
          </Trackpoint>
          <Trackpoint>
            <Time>2022-08-26T21:29:20.000Z</Time>
            <Position>
              <LatitudeDegrees>50.1774269901216030120849609375</LatitudeDegrees>
              <LongitudeDegrees>16.97865773923695087432861328125</LongitudeDegrees>
            </Position>
            <AltitudeMeters>624.20001220703125</AltitudeMeters>
            <DistanceMeters>6182.7145950947</DistanceMeters>
          </Trackpoint>
          <Trackpoint>
            <Time>2022-08-26T21:29:21.000Z</Time>
            <Position>
              <LatitudeDegrees>50.17742673866450786590576171875</LatitudeDegrees>
              <LongitudeDegrees>16.97865505702793598175048828125</LongitudeDegrees>
            </Position>
            <AltitudeMeters>624.4000244140625</AltitudeMeters>
            <DistanceMeters>6182.9046485234</DistanceMeters>
          </Trackpoint>
          <Trackpoint>
            <Time>2022-08-26T21:29:26.000Z</Time>
            <Position>
              <LatitudeDegrees>50.1774209551513195037841796875</LatitudeDegrees>
              <LongitudeDegrees>16.97864080779254436492919921875</LongitudeDegrees>
            </Position>
            <AltitudeMeters>625.5999755859375</AltitudeMeters>
            <DistanceMeters>6184.1066519473</DistanceMeters>
          </Trackpoint>
          <Trackpoint>
            <Time>2022-08-26T21:29:28.000Z</Time>
            <Position>
              <LatitudeDegrees>50.1774176023900508880615234375</LatitudeDegrees>
              <LongitudeDegrees>16.97863812558352947235107421875</LongitudeDegrees>
            </Position>
            <AltitudeMeters>626.20001220703125</AltitudeMeters>
            <DistanceMeters>6184.5316243334</DistanceMeters>
          </Trackpoint>
          <Trackpoint>
            <Time>2022-08-26T21:29:36.000Z</Time>
            <Position>
              <LatitudeDegrees>50.1773880980908870697021484375</LatitudeDegrees>
              <LongitudeDegrees>16.97862756438553333282470703125</LongitudeDegrees>
            </Position>
            <AltitudeMeters>626.79998779296875</AltitudeMeters>
            <DistanceMeters>6187.9020599382</DistanceMeters>
          </Trackpoint>
          <Trackpoint>
            <Time>2022-08-26T21:29:37.000Z</Time>
            <Position>
              <LatitudeDegrees>50.1773857511579990386962890625</LatitudeDegrees>
              <LongitudeDegrees>16.97862722910940647125244140625</LongitudeDegrees>
            </Position>
            <AltitudeMeters>627</AltitudeMeters>
            <DistanceMeters>6188.1708360747</DistanceMeters>
          </Trackpoint>
          <Trackpoint>
            <Time>2022-08-26T21:29:42.000Z</Time>
            <Position>
              <LatitudeDegrees>50.17737778834998607635498046875</LatitudeDegrees>
              <LongitudeDegrees>16.978626139461994171142578125</LongitudeDegrees>
            </Position>
            <AltitudeMeters>628</AltitudeMeters>
            <DistanceMeters>6189.0622656721</DistanceMeters>
          </Trackpoint>
          <Trackpoint>
            <Time>2022-08-26T21:29:46.000Z</Time>
            <Position>
              <LatitudeDegrees>50.17736680805683135986328125</LatitudeDegrees>
              <LongitudeDegrees>16.97861549444496631622314453125</LongitudeDegrees>
            </Position>
            <AltitudeMeters>628.79998779296875</AltitudeMeters>
            <DistanceMeters>6190.4971375929</DistanceMeters>
          </Trackpoint>
          <Trackpoint>
            <Time>2022-08-26T21:29:48.000Z</Time>
            <Position>
              <LatitudeDegrees>50.17736672423779964447021484375</LatitudeDegrees>
              <LongitudeDegrees>16.9786128960549831390380859375</LongitudeDegrees>
            </Position>
            <AltitudeMeters>629.4000244140625</AltitudeMeters>
            <DistanceMeters>6190.6617286903</DistanceMeters>
          </Trackpoint>
          <Trackpoint>
            <Time>2022-08-26T21:29:55.000Z</Time>
            <Position>
              <LatitudeDegrees>50.17733872868120670318603515625</LatitudeDegrees>
              <LongitudeDegrees>16.9786082021892070770263671875</LongitudeDegrees>
            </Position>
            <AltitudeMeters>630.4000244140625</AltitudeMeters>
            <DistanceMeters>6193.7961701351</DistanceMeters>
          </Trackpoint>
          <Trackpoint>
            <Time>2022-08-26T21:29:56.000Z</Time>
            <Position>
              <LatitudeDegrees>50.17733470536768436431884765625</LatitudeDegrees>
              <LongitudeDegrees>16.9786068610846996307373046875</LongitudeDegrees>
            </Position>
            <AltitudeMeters>630.5999755859375</AltitudeMeters>
            <DistanceMeters>6194.2617040594</DistanceMeters>
          </Trackpoint>
          <Trackpoint>
            <Time>2022-08-26T21:30:00.000Z</Time>
            <Position>
              <LatitudeDegrees>50.17732179723680019378662109375</LatitudeDegrees>
              <LongitudeDegrees>16.97859638370573520660400390625</LongitudeDegrees>
            </Position>
            <AltitudeMeters>631.5999755859375</AltitudeMeters>
            <DistanceMeters>6195.8855212664</DistanceMeters>
          </Trackpoint>
          <Trackpoint>
            <Time>2022-08-26T21:30:06.000Z</Time>
            <Position>
              <LatitudeDegrees>50.17729648388922214508056640625</LatitudeDegrees>
              <LongitudeDegrees>16.97859537787735462188720703125</LongitudeDegrees>
            </Position>
            <AltitudeMeters>632.5999755859375</AltitudeMeters>
            <DistanceMeters>6198.7044691677</DistanceMeters>
          </Trackpoint>
          <Trackpoint>
            <Time>2022-08-26T21:30:08.000Z</Time>
            <Position>
              <LatitudeDegrees>50.1772891916334629058837890625</LatitudeDegrees>
              <LongitudeDegrees>16.978594623506069183349609375</LongitudeDegrees>
            </Position>
            <AltitudeMeters>633.20001220703125</AltitudeMeters>
            <DistanceMeters>6199.5219198738</DistanceMeters>
          </Trackpoint>
          <Trackpoint>
            <Time>2022-08-26T21:30:11.000Z</Time>
            <Position>
              <LatitudeDegrees>50.17728005535900592803955078125</LatitudeDegrees>
              <LongitudeDegrees>16.97858934290707111358642578125</LongitudeDegrees>
            </Position>
            <AltitudeMeters>634</AltitudeMeters>
            <DistanceMeters>6200.6053911183</DistanceMeters>
          </Trackpoint>
          <Trackpoint>
            <Time>2022-08-26T21:30:16.000Z</Time>
            <Position>
              <LatitudeDegrees>50.17728055827319622039794921875</LatitudeDegrees>
              <LongitudeDegrees>16.97858087718486785888671875</LongitudeDegrees>
            </Position>
            <AltitudeMeters>635.20001220703125</AltitudeMeters>
            <DistanceMeters>6201.2063928303</DistanceMeters>
          </Trackpoint>
          <Trackpoint>
            <Time>2022-08-26T21:30:19.000Z</Time>
            <Position>
              <LatitudeDegrees>50.17727888189256191253662109375</LatitudeDegrees>
              <LongitudeDegrees>16.97858096100389957427978515625</LongitudeDegrees>
            </Position>
            <AltitudeMeters>635.79998779296875</AltitudeMeters>
            <DistanceMeters>6201.396446259</DistanceMeters>
          </Trackpoint>
          <Trackpoint>
            <Time>2022-08-26T21:30:22.000Z</Time>
            <Position>
              <LatitudeDegrees>50.17727695405483245849609375</LatitudeDegrees>
              <LongitudeDegrees>16.97858154773712158203125</LongitudeDegrees>
            </Position>
            <AltitudeMeters>636.4000244140625</AltitudeMeters>
            <DistanceMeters>6201.608932452</DistanceMeters>
          </Trackpoint>
          <Trackpoint>
            <Time>2022-08-26T21:30:27.000Z</Time>
            <Position>
              <LatitudeDegrees>50.17725884914398193359375</LatitudeDegrees>
              <LongitudeDegrees>16.97858481667935848236083984375</LongitudeDegrees>
            </Position>
            <AltitudeMeters>636.5999755859375</AltitudeMeters>
            <DistanceMeters>6203.6381477827</DistanceMeters>
          </Trackpoint>
          <Trackpoint>
            <Time>2022-08-26T21:30:33.000Z</Time>
            <Position>
              <LatitudeDegrees>50.17724451608955860137939453125</LatitudeDegrees>
              <LongitudeDegrees>16.97858800180256366729736328125</LongitudeDegrees>
            </Position>
            <AltitudeMeters>636.5999755859375</AltitudeMeters>
            <DistanceMeters>6205.2480024157</DistanceMeters>
          </Trackpoint>
          <Trackpoint>
            <Time>2022-08-26T21:30:35.000Z</Time>
            <Position>
              <LatitudeDegrees>50.177229680120944976806640625</LatitudeDegrees>
              <LongitudeDegrees>16.97859403677284717559814453125</LongitudeDegrees>
            </Position>
            <AltitudeMeters>636.5999755859375</AltitudeMeters>
            <DistanceMeters>6206.9531958402</DistanceMeters>
          </Trackpoint>
          <Trackpoint>
            <Time>2022-08-26T21:30:43.000Z</Time>
            <Position>
              <LatitudeDegrees>50.177200175821781158447265625</LatitudeDegrees>
              <LongitudeDegrees>16.978599987924098968505859375</LongitudeDegrees>
            </Position>
            <AltitudeMeters>638</AltitudeMeters>
            <DistanceMeters>6210.2641643999</DistanceMeters>
          </Trackpoint>
          <Trackpoint>
            <Time>2022-08-26T21:30:45.000Z</Time>
            <Position>
              <LatitudeDegrees>50.17719455994665622711181640625</LatitudeDegrees>
              <LongitudeDegrees>16.9786004908382892608642578125</LongitudeDegrees>
            </Position>
            <AltitudeMeters>638.5999755859375</AltitudeMeters>
            <DistanceMeters>6210.8872962375</DistanceMeters>
          </Trackpoint>
          <Trackpoint>
            <Time>2022-08-26T21:30:51.000Z</Time>
            <Position>
              <LatitudeDegrees>50.17718332819640636444091796875</LatitudeDegrees>
              <LongitudeDegrees>16.97861197404563426971435546875</LongitudeDegrees>
            </Position>
            <AltitudeMeters>639.20001220703125</AltitudeMeters>
            <DistanceMeters>6212.3807582831</DistanceMeters>
          </Trackpoint>
          <Trackpoint>
            <Time>2022-08-26T21:30:54.000Z</Time>
            <Position>
              <LatitudeDegrees>50.17718014307320117950439453125</LatitudeDegrees>
              <LongitudeDegrees>16.97861214168369770050048828125</LongitudeDegrees>
            </Position>
            <AltitudeMeters>639.20001220703125</AltitudeMeters>
            <DistanceMeters>6212.7363156909</DistanceMeters>
          </Trackpoint>
          <Trackpoint>
            <Time>2022-08-26T21:31:03.000Z</Time>
            <Position>
              <LatitudeDegrees>50.17715030349791049957275390625</LatitudeDegrees>
              <LongitudeDegrees>16.97861582972109317779541015625</LongitudeDegrees>
            </Position>
            <AltitudeMeters>638.4000244140625</AltitudeMeters>
            <DistanceMeters>6216.0676763663</DistanceMeters>
          </Trackpoint>
          <Trackpoint>
            <Time>2022-08-26T21:31:12.000Z</Time>
            <Position>
              <LatitudeDegrees>50.17712934873998165130615234375</LatitudeDegrees>
              <LongitudeDegrees>16.97862320579588413238525390625</LongitudeDegrees>
            </Position>
            <AltitudeMeters>638.5999755859375</AltitudeMeters>
            <DistanceMeters>6218.4585001551</DistanceMeters>
          </Trackpoint>
          <Trackpoint>
            <Time>2022-08-26T21:31:21.000Z</Time>
            <Position>
              <LatitudeDegrees>50.17707939259707927703857421875</LatitudeDegrees>
              <LongitudeDegrees>16.97864768095314502716064453125</LongitudeDegrees>
            </Position>
            <AltitudeMeters>639.5999755859375</AltitudeMeters>
            <DistanceMeters>6224.2854279416</DistanceMeters>
          </Trackpoint>
          <Trackpoint>
            <Time>2022-08-26T21:31:25.000Z</Time>
            <Position>
              <LatitudeDegrees>50.1770793087780475616455078125</LatitudeDegrees>
              <LongitudeDegrees>16.97864533402025699615478515625</LongitudeDegrees>
            </Position>
            <AltitudeMeters>640.20001220703125</AltitudeMeters>
            <DistanceMeters>6224.450019039</DistanceMeters>
          </Trackpoint>
          <Trackpoint>
            <Time>2022-08-26T21:31:29.000Z</Time>
            <Position>
              <LatitudeDegrees>50.17707352526485919952392578125</LatitudeDegrees>
              <LongitudeDegrees>16.9786316715180873870849609375</LongitudeDegrees>
            </Position>
            <AltitudeMeters>641.5999755859375</AltitudeMeters>
            <DistanceMeters>6225.6177268548</DistanceMeters>
          </Trackpoint>
          <Trackpoint>
            <Time>2022-08-26T21:31:30.000Z</Time>
            <Position>
              <LatitudeDegrees>50.17707218416035175323486328125</LatitudeDegrees>
              <LongitudeDegrees>16.9786340184509754180908203125</LongitudeDegrees>
            </Position>
            <AltitudeMeters>641.79998779296875</AltitudeMeters>
            <DistanceMeters>6225.8691439089</DistanceMeters>
          </Trackpoint>
          <Trackpoint>
            <Time>2022-08-26T21:31:35.000Z</Time>
            <Position>
              <LatitudeDegrees>50.17707386054098606109619140625</LatitudeDegrees>
              <LongitudeDegrees>16.97863980196416378021240234375</LongitudeDegrees>
            </Position>
            <AltitudeMeters>642.5999755859375</AltitudeMeters>
            <DistanceMeters>6226.3248760212</DistanceMeters>
          </Trackpoint>
          <Trackpoint>
            <Time>2022-08-26T21:31:40.000Z</Time>
            <Position>
              <LatitudeDegrees>50.17707251943647861480712890625</LatitudeDegrees>
              <LongitudeDegrees>16.97863611392676830291748046875</LongitudeDegrees>
            </Position>
            <AltitudeMeters>643.20001220703125</AltitudeMeters>
            <DistanceMeters>6226.6400439778</DistanceMeters>
          </Trackpoint>
          <Trackpoint>
            <Time>2022-08-26T21:31:47.000Z</Time>
            <Position>
              <LatitudeDegrees>50.1770541630685329437255859375</LatitudeDegrees>
              <LongitudeDegrees>16.97862940840423107147216796875</LongitudeDegrees>
            </Position>
            <AltitudeMeters>643.20001220703125</AltitudeMeters>
            <DistanceMeters>6228.7392527108</DistanceMeters>
          </Trackpoint>
          <Trackpoint>
            <Time>2022-08-26T21:31:57.000Z</Time>
            <Position>
              <LatitudeDegrees>50.17705441452562808990478515625</LatitudeDegrees>
              <LongitudeDegrees>16.9786367006599903106689453125</LongitudeDegrees>
            </Position>
            <AltitudeMeters>643.20001220703125</AltitudeMeters>
            <DistanceMeters>6229.2420868191</DistanceMeters>
          </Trackpoint>
          <Trackpoint>
            <Time>2022-08-26T21:32:05.000Z</Time>
            <Position>
              <LatitudeDegrees>50.17702222801744937896728515625</LatitudeDegrees>
              <LongitudeDegrees>16.978636197745800018310546875</LongitudeDegrees>
            </Position>
            <AltitudeMeters>642.79998779296875</AltitudeMeters>
            <DistanceMeters>6232.8242284448</DistanceMeters>
          </Trackpoint>
          <Trackpoint>
            <Time>2022-08-26T21:32:13.000Z</Time>
            <Position>
              <LatitudeDegrees>50.17701099626719951629638671875</LatitudeDegrees>
              <LongitudeDegrees>16.9786410592496395111083984375</LongitudeDegrees>
            </Position>
            <AltitudeMeters>641.5999755859375</AltitudeMeters>
            <DistanceMeters>6234.1202200415</DistanceMeters>
          </Trackpoint>
          <Trackpoint>
            <Time>2022-08-26T21:32:17.000Z</Time>
            <Position>
              <LatitudeDegrees>50.1770005188882350921630859375</LatitudeDegrees>
              <LongitudeDegrees>16.9786472618579864501953125</LongitudeDegrees>
            </Position>
            <AltitudeMeters>641.5999755859375</AltitudeMeters>
            <DistanceMeters>6235.3701013258</DistanceMeters>
          </Trackpoint>
          <Trackpoint>
            <Time>2022-08-26T21:32:27.000Z</Time>
            <Position>
              <LatitudeDegrees>50.17698518000543117523193359375</LatitudeDegrees>
              <LongitudeDegrees>16.9786584936082363128662109375</LongitudeDegrees>
            </Position>
            <AltitudeMeters>641.20001220703125</AltitudeMeters>
            <DistanceMeters>6237.2563277488</DistanceMeters>
          </Trackpoint>
          <Trackpoint>
            <Time>2022-08-26T21:32:36.000Z</Time>
            <Position>
              <LatitudeDegrees>50.176950059831142425537109375</LatitudeDegrees>
              <LongitudeDegrees>16.97865061461925506591796875</LongitudeDegrees>
            </Position>
            <AltitudeMeters>641.4000244140625</AltitudeMeters>
            <DistanceMeters>6241.2053709264</DistanceMeters>
          </Trackpoint>
          <Trackpoint>
            <Time>2022-08-26T21:32:47.000Z</Time>
            <Position>
              <LatitudeDegrees>50.17690974287688732147216796875</LatitudeDegrees>
              <LongitudeDegrees>16.978680454194545745849609375</LongitudeDegrees>
            </Position>
            <AltitudeMeters>641</AltitudeMeters>
            <DistanceMeters>6246.1713691915</DistanceMeters>
          </Trackpoint>
          <Trackpoint>
            <Time>2022-08-26T21:32:57.000Z</Time>
            <Position>
              <LatitudeDegrees>50.17686364240944385528564453125</LatitudeDegrees>
              <LongitudeDegrees>16.9787171669304370880126953125</LongitudeDegrees>
            </Position>
            <AltitudeMeters>641.20001220703125</AltitudeMeters>
            <DistanceMeters>6251.9312737788</DistanceMeters>
          </Trackpoint>
          <Trackpoint>
            <Time>2022-08-26T21:33:06.000Z</Time>
            <Position>
              <LatitudeDegrees>50.176878310739994049072265625</LatitudeDegrees>
              <LongitudeDegrees>16.978821270167827606201171875</LongitudeDegrees>
            </Position>
            <AltitudeMeters>642.20001220703125</AltitudeMeters>
            <DistanceMeters>6259.529846591</DistanceMeters>
          </Trackpoint>
          <Trackpoint>
            <Time>2022-08-26T21:33:15.000Z</Time>
            <Position>
              <LatitudeDegrees>50.1768949069082736968994140625</LatitudeDegrees>
              <LongitudeDegrees>16.97886996902525424957275390625</LongitudeDegrees>
            </Position>
            <AltitudeMeters>642.4000244140625</AltitudeMeters>
            <DistanceMeters>6263.4639984723</DistanceMeters>
          </Trackpoint>
          <Trackpoint>
            <Time>2022-08-26T21:33:24.000Z</Time>
            <Position>
              <LatitudeDegrees>50.17688266932964324951171875</LatitudeDegrees>
              <LongitudeDegrees>16.97888723574578762054443359375</LongitudeDegrees>
            </Position>
            <AltitudeMeters>642.4000244140625</AltitudeMeters>
            <DistanceMeters>6265.3017276662</DistanceMeters>
          </Trackpoint>
          <Trackpoint>
            <Time>2022-08-26T21:33:33.000Z</Time>
            <Position>
              <LatitudeDegrees>50.176914520561695098876953125</LatitudeDegrees>
              <LongitudeDegrees>16.9789454899728298187255859375</LongitudeDegrees>
            </Position>
            <AltitudeMeters>642.20001220703125</AltitudeMeters>
            <DistanceMeters>6270.7614238428</DistanceMeters>
          </Trackpoint>
          <Trackpoint>
            <Time>2022-08-26T21:33:43.000Z</Time>
            <Position>
              <LatitudeDegrees>50.1769364811480045318603515625</LatitudeDegrees>
              <LongitudeDegrees>16.97901078499853610992431640625</LongitudeDegrees>
            </Position>
            <AltitudeMeters>641.79998779296875</AltitudeMeters>
            <DistanceMeters>6276.0189008038</DistanceMeters>
          </Trackpoint>
          <Trackpoint>
            <Time>2022-08-26T21:33:52.000Z</Time>
            <Position>
              <LatitudeDegrees>50.17695567570626735687255859375</LatitudeDegrees>
              <LongitudeDegrees>16.9790514372289180755615234375</LongitudeDegrees>
            </Position>
            <AltitudeMeters>640.79998779296875</AltitudeMeters>
            <DistanceMeters>6279.619899245</DistanceMeters>
          </Trackpoint>
          <Trackpoint>
            <Time>2022-08-26T21:33:53.000Z</Time>
            <Position>
              <LatitudeDegrees>50.1769576035439968109130859375</LatitudeDegrees>
              <LongitudeDegrees>16.97905688546597957611083984375</LongitudeDegrees>
            </Position>
            <AltitudeMeters>640.4000244140625</AltitudeMeters>
            <DistanceMeters>6280.0656140437</DistanceMeters>
          </Trackpoint>
          <Trackpoint>
            <Time>2022-08-26T21:33:59.000Z</Time>
            <Position>
              <LatitudeDegrees>50.17696984112262725830078125</LatitudeDegrees>
              <LongitudeDegrees>16.9790987111628055572509765625</LongitudeDegrees>
            </Position>
            <AltitudeMeters>639.4000244140625</AltitudeMeters>
            <DistanceMeters>6283.3436913717</DistanceMeters>
          </Trackpoint>
          <Trackpoint>
            <Time>2022-08-26T21:34:02.000Z</Time>
            <Position>
              <LatitudeDegrees>50.17698056995868682861328125</LatitudeDegrees>
              <LongitudeDegrees>16.97912477888166904449462890625</LongitudeDegrees>
            </Position>
            <AltitudeMeters>638.5999755859375</AltitudeMeters>
            <DistanceMeters>6285.5519126649</DistanceMeters>
          </Trackpoint>
          <Trackpoint>
            <Time>2022-08-26T21:34:03.000Z</Time>
            <Position>
              <LatitudeDegrees>50.17698031850159168243408203125</LatitudeDegrees>
              <LongitudeDegrees>16.9791273772716522216796875</LongitudeDegrees>
            </Position>
            <AltitudeMeters>638</AltitudeMeters>
            <DistanceMeters>6285.7419660936</DistanceMeters>
          </Trackpoint>
          <Trackpoint>
            <Time>2022-08-26T21:34:05.000Z</Time>
            <Position>
              <LatitudeDegrees>50.17697780393064022064208984375</LatitudeDegrees>
              <LongitudeDegrees>16.97913601063191890716552734375</LongitudeDegrees>
            </Position>
            <AltitudeMeters>636.5999755859375</AltitudeMeters>
            <DistanceMeters>6286.427213476</DistanceMeters>
          </Trackpoint>
          <Trackpoint>
            <Time>2022-08-26T21:34:10.000Z</Time>
            <Position>
              <LatitudeDegrees>50.17697679810225963592529296875</LatitudeDegrees>
              <LongitudeDegrees>16.9791500084102153778076171875</LongitudeDegrees>
            </Position>
            <AltitudeMeters>635.5999755859375</AltitudeMeters>
            <DistanceMeters>6287.4328816925</DistanceMeters>
          </Trackpoint>
          <Trackpoint>
            <Time>2022-08-26T21:34:11.000Z</Time>
            <Position>
              <LatitudeDegrees>50.17697386443614959716796875</LatitudeDegrees>
              <LongitudeDegrees>16.97915176860988140106201171875</LongitudeDegrees>
            </Position>
            <AltitudeMeters>635.5999755859375</AltitudeMeters>
            <DistanceMeters>6287.7884391003</DistanceMeters>
          </Trackpoint>
          <Trackpoint>
            <Time>2022-08-26T21:34:18.000Z</Time>
            <Position>
              <LatitudeDegrees>50.1769542507827281951904296875</LatitudeDegrees>
              <LongitudeDegrees>16.979169286787509918212890625</LongitudeDegrees>
            </Position>
            <AltitudeMeters>634.5999755859375</AltitudeMeters>
            <DistanceMeters>6290.3026096416</DistanceMeters>
          </Trackpoint>
          <Trackpoint>
            <Time>2022-08-26T21:34:20.000Z</Time>
            <Position>
              <LatitudeDegrees>50.17694813199341297149658203125</LatitudeDegrees>
              <LongitudeDegrees>16.97917708195745944976806640625</LongitudeDegrees>
            </Position>
            <AltitudeMeters>634.4000244140625</AltitudeMeters>
            <DistanceMeters>6291.1838511375</DistanceMeters>
          </Trackpoint>
          <Trackpoint>
            <Time>2022-08-26T21:34:31.000Z</Time>
            <Position>
              <LatitudeDegrees>50.17691846005618572235107421875</LatitudeDegrees>
              <LongitudeDegrees>16.9792002998292446136474609375</LongitudeDegrees>
            </Position>
            <AltitudeMeters>634.20001220703125</AltitudeMeters>
            <DistanceMeters>6294.8789121091</DistanceMeters>
          </Trackpoint>
          <Trackpoint>
            <Time>2022-08-26T21:34:37.000Z</Time>
            <Position>
              <LatitudeDegrees>50.17689314670860767364501953125</LatitudeDegrees>
              <LongitudeDegrees>16.97922050021588802337646484375</LongitudeDegrees>
            </Position>
            <AltitudeMeters>633.5999755859375</AltitudeMeters>
            <DistanceMeters>6298.0434586447</DistanceMeters>
          </Trackpoint>
          <Trackpoint>
            <Time>2022-08-26T21:34:42.000Z</Time>
            <Position>
              <LatitudeDegrees>50.17686582170426845550537109375</LatitudeDegrees>
              <LongitudeDegrees>16.979235671460628509521484375</LongitudeDegrees>
            </Position>
            <AltitudeMeters>633</AltitudeMeters>
            <DistanceMeters>6301.2701718548</DistanceMeters>
          </Trackpoint>
          <Trackpoint>
            <Time>2022-08-26T21:34:45.000Z</Time>
            <Position>
              <LatitudeDegrees>50.1768513210117816925048828125</LatitudeDegrees>
              <LongitudeDegrees>16.97924614883959293365478515625</LongitudeDegrees>
            </Position>
            <AltitudeMeters>632.4000244140625</AltitudeMeters>
            <DistanceMeters>6303.0479588936</DistanceMeters>
          </Trackpoint>
          <Trackpoint>
            <Time>2022-08-26T21:34:55.000Z</Time>
            <Position>
              <LatitudeDegrees>50.1768003590404987335205078125</LatitudeDegrees>
              <LongitudeDegrees>16.9792936742305755615234375</LongitudeDegrees>
            </Position>
            <AltitudeMeters>632</AltitudeMeters>
            <DistanceMeters>6309.6555620601</DistanceMeters>
          </Trackpoint>
          <Trackpoint>
            <Time>2022-08-26T21:35:07.000Z</Time>
            <Position>
              <LatitudeDegrees>50.1767353154718875885009765625</LatitudeDegrees>
              <LongitudeDegrees>16.97936550714075565338134765625</LongitudeDegrees>
            </Position>
            <AltitudeMeters>632</AltitudeMeters>
            <DistanceMeters>6318.523138148</DistanceMeters>
          </Trackpoint>
          <Trackpoint>
            <Time>2022-08-26T21:35:19.000Z</Time>
            <Position>
              <LatitudeDegrees>50.17671695910394191741943359375</LatitudeDegrees>
              <LongitudeDegrees>16.97949551045894622802734375</LongitudeDegrees>
            </Position>
            <AltitudeMeters>632.79998779296875</AltitudeMeters>
            <DistanceMeters>6328.0124965193</DistanceMeters>
          </Trackpoint>
          <Trackpoint>
            <Time>2022-08-26T21:35:27.000Z</Time>
            <Position>
              <LatitudeDegrees>50.17669851891696453094482421875</LatitudeDegrees>
              <LongitudeDegrees>16.97958544827997684478759765625</LongitudeDegrees>
            </Position>
            <AltitudeMeters>633</AltitudeMeters>
            <DistanceMeters>6334.7446546927</DistanceMeters>
          </Trackpoint>
          <Trackpoint>
            <Time>2022-08-26T21:35:37.000Z</Time>
            <Position>
              <LatitudeDegrees>50.17670162022113800048828125</LatitudeDegrees>
              <LongitudeDegrees>16.979714445769786834716796875</LongitudeDegrees>
            </Position>
            <AltitudeMeters>633.20001220703125</AltitudeMeters>
            <DistanceMeters>6343.9460674505</DistanceMeters>
          </Trackpoint>
          <Trackpoint>
            <Time>2022-08-26T21:35:49.000Z</Time>
            <Position>
              <LatitudeDegrees>50.176759622991085052490234375</LatitudeDegrees>
              <LongitudeDegrees>16.97987512685358524322509765625</LongitudeDegrees>
            </Position>
            <AltitudeMeters>631.5999755859375</AltitudeMeters>
            <DistanceMeters>6357.0934521064</DistanceMeters>
          </Trackpoint>
          <Trackpoint>
            <Time>2022-08-26T21:35:54.000Z</Time>
            <Position>
              <LatitudeDegrees>50.17676674760878086090087890625</LatitudeDegrees>
              <LongitudeDegrees>16.97994939051568508148193359375</LongitudeDegrees>
            </Position>
            <AltitudeMeters>631</AltitudeMeters>
            <DistanceMeters>6362.4470922356</DistanceMeters>
          </Trackpoint>
          <Trackpoint>
            <Time>2022-08-26T21:35:58.000Z</Time>
            <Position>
              <LatitudeDegrees>50.176801867783069610595703125</LatitudeDegrees>
              <LongitudeDegrees>16.9799814932048320770263671875</LongitudeDegrees>
            </Position>
            <AltitudeMeters>630.5999755859375</AltitudeMeters>
            <DistanceMeters>6366.9765881988</DistanceMeters>
          </Trackpoint>
          <Trackpoint>
            <Time>2022-08-26T21:36:08.000Z</Time>
            <Position>
              <LatitudeDegrees>50.17687453888356685638427734375</LatitudeDegrees>
              <LongitudeDegrees>16.98007193394005298614501953125</LongitudeDegrees>
            </Position>
            <AltitudeMeters>629.79998779296875</AltitudeMeters>
            <DistanceMeters>6377.3192322299</DistanceMeters>
          </Trackpoint>
          <Trackpoint>
            <Time>2022-08-26T21:36:10.000Z</Time>
            <Position>
              <LatitudeDegrees>50.17690689302980899810791015625</LatitudeDegrees>
              <LongitudeDegrees>16.980118453502655029296875</LongitudeDegrees>
            </Position>
            <AltitudeMeters>629.5999755859375</AltitudeMeters>
            <DistanceMeters>6382.2147222853</DistanceMeters>
          </Trackpoint>
          <Trackpoint>
            <Time>2022-08-26T21:36:13.000Z</Time>
            <Position>
              <LatitudeDegrees>50.176957435905933380126953125</LatitudeDegrees>
              <LongitudeDegrees>16.9801927171647548675537109375</LongitudeDegrees>
            </Position>
            <AltitudeMeters>628.79998779296875</AltitudeMeters>
            <DistanceMeters>6389.9394064304</DistanceMeters>
          </Trackpoint>
          <Trackpoint>
            <Time>2022-08-26T21:36:15.000Z</Time>
            <Position>
              <LatitudeDegrees>50.1769814081490039825439453125</LatitudeDegrees>
              <LongitudeDegrees>16.98021191172301769256591796875</LongitudeDegrees>
            </Position>
            <AltitudeMeters>628.4000244140625</AltitudeMeters>
            <DistanceMeters>6392.9383989509</DistanceMeters>
          </Trackpoint>
          <Trackpoint>
            <Time>2022-08-26T21:36:19.000Z</Time>
            <Position>
              <LatitudeDegrees>50.17701418139040470123291015625</LatitudeDegrees>
              <LongitudeDegrees>16.98025700636208057403564453125</LongitudeDegrees>
            </Position>
            <AltitudeMeters>627.5999755859375</AltitudeMeters>
            <DistanceMeters>6397.800573375</DistanceMeters>
          </Trackpoint>
          <Trackpoint>
            <Time>2022-08-26T21:36:23.000Z</Time>
            <Position>
              <LatitudeDegrees>50.17704167403280735015869140625</LatitudeDegrees>
              <LongitudeDegrees>16.98031702078878879547119140625</LongitudeDegrees>
            </Position>
            <AltitudeMeters>626.5999755859375</AltitudeMeters>
            <DistanceMeters>6403.0606260577</DistanceMeters>
          </Trackpoint>
          <Trackpoint>
            <Time>2022-08-26T21:36:26.000Z</Time>
            <Position>
              <LatitudeDegrees>50.1770628802478313446044921875</LatitudeDegrees>
              <LongitudeDegrees>16.980354487895965576171875</LongitudeDegrees>
            </Position>
            <AltitudeMeters>626.4000244140625</AltitudeMeters>
            <DistanceMeters>6406.625077987</DistanceMeters>
          </Trackpoint>
          <Trackpoint>
            <Time>2022-08-26T21:36:37.000Z</Time>
            <Position>
              <LatitudeDegrees>50.17712985165417194366455078125</LatitudeDegrees>
              <LongitudeDegrees>16.980439312756061553955078125</LongitudeDegrees>
            </Position>
            <AltitudeMeters>626.5999755859375</AltitudeMeters>
            <DistanceMeters>6416.2227761384</DistanceMeters>
          </Trackpoint>
          <Trackpoint>
            <Time>2022-08-26T21:36:47.000Z</Time>
            <Position>
              <LatitudeDegrees>50.17715969122946262359619140625</LatitudeDegrees>
              <LongitudeDegrees>16.98056043125689029693603515625</LongitudeDegrees>
            </Position>
            <AltitudeMeters>627.4000244140625</AltitudeMeters>
            <DistanceMeters>6425.4726396134</DistanceMeters>
          </Trackpoint>
          <Trackpoint>
            <Time>2022-08-26T21:36:51.000Z</Time>
            <Position>
              <LatitudeDegrees>50.1771674863994121551513671875</LatitudeDegrees>
              <LongitudeDegrees>16.98059965856373310089111328125</LongitudeDegrees>
            </Position>
            <AltitudeMeters>627.5999755859375</AltitudeMeters>
            <DistanceMeters>6428.4000177143</DistanceMeters>
          </Trackpoint>
          <Trackpoint>
            <Time>2022-08-26T21:36:57.000Z</Time>
            <Position>
              <LatitudeDegrees>50.17719221301376819610595703125</LatitudeDegrees>
              <LongitudeDegrees>16.98061306960880756378173828125</LongitudeDegrees>
            </Position>
            <AltitudeMeters>627.5999755859375</AltitudeMeters>
            <DistanceMeters>6431.3150309104</DistanceMeters>
          </Trackpoint>
          <Trackpoint>
            <Time>2022-08-26T21:37:09.000Z</Time>
            <Position>
              <LatitudeDegrees>50.1772254891693592071533203125</LatitudeDegrees>
              <LongitudeDegrees>16.980643160641193389892578125</LongitudeDegrees>
            </Position>
            <AltitudeMeters>627.5999755859375</AltitudeMeters>
            <DistanceMeters>6435.5943994419</DistanceMeters>
          </Trackpoint>
          <Trackpoint>
            <Time>2022-08-26T21:37:19.000Z</Time>
            <Position>
              <LatitudeDegrees>50.1772496290504932403564453125</LatitudeDegrees>
              <LongitudeDegrees>16.98073594830930233001708984375</LongitudeDegrees>
            </Position>
            <AltitudeMeters>627.4000244140625</AltitudeMeters>
            <DistanceMeters>6442.7334295896</DistanceMeters>
          </Trackpoint>
          <Trackpoint>
            <Time>2022-08-26T21:37:29.000Z</Time>
            <Position>
              <LatitudeDegrees>50.177259184420108795166015625</LatitudeDegrees>
              <LongitudeDegrees>16.9808035902678966522216796875</LongitudeDegrees>
            </Position>
            <AltitudeMeters>627</AltitudeMeters>
            <DistanceMeters>6447.6711625106</DistanceMeters>
          </Trackpoint>
          <Trackpoint>
            <Time>2022-08-26T21:37:38.000Z</Time>
            <Position>
              <LatitudeDegrees>50.17723026685416698455810546875</LatitudeDegrees>
              <LongitudeDegrees>16.98085136711597442626953125</LongitudeDegrees>
            </Position>
            <AltitudeMeters>627</AltitudeMeters>
            <DistanceMeters>6452.3574345803</DistanceMeters>
          </Trackpoint>
          <Trackpoint>
            <Time>2022-08-26T21:37:48.000Z</Time>
            <Position>
              <LatitudeDegrees>50.1771824061870574951171875</LatitudeDegrees>
              <LongitudeDegrees>16.9808984734117984771728515625</LongitudeDegrees>
            </Position>
            <AltitudeMeters>629</AltitudeMeters>
            <DistanceMeters>6458.6550607793</DistanceMeters>
          </Trackpoint>
          <Trackpoint>
            <Time>2022-08-26T21:37:49.000Z</Time>
            <Position>
              <LatitudeDegrees>50.1771798916161060333251953125</LatitudeDegrees>
              <LongitudeDegrees>16.980901993811130523681640625</LongitudeDegrees>
            </Position>
            <AltitudeMeters>629.20001220703125</AltitudeMeters>
            <DistanceMeters>6459.0351676368</DistanceMeters>
          </Trackpoint>
          <Trackpoint>
            <Time>2022-08-26T21:37:53.000Z</Time>
            <Position>
              <LatitudeDegrees>50.17716404981911182403564453125</LatitudeDegrees>
              <LongitudeDegrees>16.98092420585453510284423828125</LongitudeDegrees>
            </Position>
            <AltitudeMeters>630</AltitudeMeters>
            <DistanceMeters>6461.4051270348</DistanceMeters>
          </Trackpoint>
          <Trackpoint>
            <Time>2022-08-26T21:37:59.000Z</Time>
            <Position>
              <LatitudeDegrees>50.1771560870110988616943359375</LatitudeDegrees>
              <LongitudeDegrees>16.9809373654425144195556640625</LongitudeDegrees>
            </Position>
            <AltitudeMeters>631</AltitudeMeters>
            <DistanceMeters>6462.6941321029</DistanceMeters>
          </Trackpoint>
          <Trackpoint>
            <Time>2022-08-26T21:38:01.000Z</Time>
            <Position>
              <LatitudeDegrees>50.17715063877403736114501953125</LatitudeDegrees>
              <LongitudeDegrees>16.980944238603115081787109375</LongitudeDegrees>
            </Position>
            <AltitudeMeters>631.5999755859375</AltitudeMeters>
            <DistanceMeters>6463.4719592828</DistanceMeters>
          </Trackpoint>
          <Trackpoint>
            <Time>2022-08-26T21:38:04.000Z</Time>
            <Position>
              <LatitudeDegrees>50.17713823355734348297119140625</LatitudeDegrees>
              <LongitudeDegrees>16.980956308543682098388671875</LongitudeDegrees>
            </Position>
            <AltitudeMeters>632.20001220703125</AltitudeMeters>
            <DistanceMeters>6465.0985546221</DistanceMeters>
          </Trackpoint>
          <Trackpoint>
            <Time>2022-08-26T21:38:14.000Z</Time>
            <Position>
              <LatitudeDegrees>50.17711694352328777313232421875</LatitudeDegrees>
              <LongitudeDegrees>16.98106250725686550140380859375</LongitudeDegrees>
            </Position>
            <AltitudeMeters>632.79998779296875</AltitudeMeters>
            <DistanceMeters>6473.0302973427</DistanceMeters>
          </Trackpoint>
          <Trackpoint>
            <Time>2022-08-26T21:38:27.000Z</Time>
            <Position>
              <LatitudeDegrees>50.1771260797977447509765625</LatitudeDegrees>
              <LongitudeDegrees>16.981193684041500091552734375</LongitudeDegrees>
            </Position>
            <AltitudeMeters>633</AltitudeMeters>
            <DistanceMeters>6482.4355420947</DistanceMeters>
          </Trackpoint>
          <Trackpoint>
            <Time>2022-08-26T21:38:30.000Z</Time>
            <Position>
              <LatitudeDegrees>50.17712985165417194366455078125</LatitudeDegrees>
              <LongitudeDegrees>16.9812240265309810638427734375</LongitudeDegrees>
            </Position>
            <AltitudeMeters>633.4000244140625</AltitudeMeters>
            <DistanceMeters>6484.6355695886</DistanceMeters>
          </Trackpoint>
          <Trackpoint>
            <Time>2022-08-26T21:38:38.000Z</Time>
            <Position>
              <LatitudeDegrees>50.1771430112421512603759765625</LatitudeDegrees>
              <LongitudeDegrees>16.98127649724483489990234375</LongitudeDegrees>
            </Position>
            <AltitudeMeters>634.4000244140625</AltitudeMeters>
            <DistanceMeters>6488.6515024228</DistanceMeters>
          </Trackpoint>
          <Trackpoint>
            <Time>2022-08-26T21:38:39.000Z</Time>
            <Position>
              <LatitudeDegrees>50.17714510671794414520263671875</LatitudeDegrees>
              <LongitudeDegrees>16.98128546588122844696044921875</LongitudeDegrees>
            </Position>
            <AltitudeMeters>634.5999755859375</AltitudeMeters>
            <DistanceMeters>6489.3301289023</DistanceMeters>
          </Trackpoint>
          <Trackpoint>
            <Time>2022-08-26T21:38:45.000Z</Time>
            <Position>
              <LatitudeDegrees>50.17715893685817718505859375</LatitudeDegrees>
              <LongitudeDegrees>16.9813400320708751678466796875</LongitudeDegrees>
            </Position>
            <AltitudeMeters>635.5999755859375</AltitudeMeters>
            <DistanceMeters>6493.5134634751</DistanceMeters>
          </Trackpoint>
          <Trackpoint>
            <Time>2022-08-26T21:38:50.000Z</Time>
            <Position>
              <LatitudeDegrees>50.17716270871460437774658203125</LatitudeDegrees>
              <LongitudeDegrees>16.98138923384249210357666015625</LongitudeDegrees>
            </Position>
            <AltitudeMeters>636.20001220703125</AltitudeMeters>
            <DistanceMeters>6497.0461063449</DistanceMeters>
          </Trackpoint>
          <Trackpoint>
            <Time>2022-08-26T21:38:53.000Z</Time>
            <Position>
              <LatitudeDegrees>50.177168659865856170654296875</LatitudeDegrees>
              <LongitudeDegrees>16.9814258627593517303466796875</LongitudeDegrees>
            </Position>
            <AltitudeMeters>636.5999755859375</AltitudeMeters>
            <DistanceMeters>6499.740578735</DistanceMeters>
          </Trackpoint>
          <Trackpoint>
            <Time>2022-08-26T21:38:59.000Z</Time>
            <Position>
              <LatitudeDegrees>50.177179388701915740966796875</LatitudeDegrees>
              <LongitudeDegrees>16.9814769923686981201171875</LongitudeDegrees>
            </Position>
            <AltitudeMeters>637.79998779296875</AltitudeMeters>
            <DistanceMeters>6503.5747624096</DistanceMeters>
          </Trackpoint>
          <Trackpoint>
            <Time>2022-08-26T21:39:03.000Z</Time>
            <Position>
              <LatitudeDegrees>50.1771869324147701263427734375</LatitudeDegrees>
              <LongitudeDegrees>16.981525607407093048095703125</LongitudeDegrees>
            </Position>
            <AltitudeMeters>638</AltitudeMeters>
            <DistanceMeters>6507.1404807991</DistanceMeters>
          </Trackpoint>
          <Trackpoint>
            <Time>2022-08-26T21:39:16.000Z</Time>
            <Position>
              <LatitudeDegrees>50.1772134192287921905517578125</LatitudeDegrees>
              <LongitudeDegrees>16.9816888868808746337890625</LongitudeDegrees>
            </Position>
            <AltitudeMeters>638.79998779296875</AltitudeMeters>
            <DistanceMeters>6519.1469848845</DistanceMeters>
          </Trackpoint>
          <Trackpoint>
            <Time>2022-08-26T21:39:18.000Z</Time>
            <Position>
              <LatitudeDegrees>50.17721568234264850616455078125</LatitudeDegrees>
              <LongitudeDegrees>16.98170757852494716644287109375</LongitudeDegrees>
            </Position>
            <AltitudeMeters>639</AltitudeMeters>
            <DistanceMeters>6520.5009071563</DistanceMeters>
          </Trackpoint>
          <Trackpoint>
            <Time>2022-08-26T21:39:29.000Z</Time>
            <Position>
              <LatitudeDegrees>50.1772258244454860687255859375</LatitudeDegrees>
              <LongitudeDegrees>16.98188024573028087615966796875</LongitudeDegrees>
            </Position>
            <AltitudeMeters>639.5999755859375</AltitudeMeters>
            <DistanceMeters>6532.8602264388</DistanceMeters>
          </Trackpoint>
          <Trackpoint>
            <Time>2022-08-26T21:39:40.000Z</Time>
            <Position>
              <LatitudeDegrees>50.177240073680877685546875</LatitudeDegrees>
              <LongitudeDegrees>16.982023157179355621337890625</LongitudeDegrees>
            </Position>
            <AltitudeMeters>639.79998779296875</AltitudeMeters>
            <DistanceMeters>6543.1696396008</DistanceMeters>
          </Trackpoint>
          <Trackpoint>
            <Time>2022-08-26T21:39:52.000Z</Time>
            <Position>
              <LatitudeDegrees>50.17725549638271331787109375</LatitudeDegrees>
              <LongitudeDegrees>16.982198171317577362060546875</LongitudeDegrees>
            </Position>
            <AltitudeMeters>639.20001220703125</AltitudeMeters>
            <DistanceMeters>6555.7620239007</DistanceMeters>
          </Trackpoint>
          <Trackpoint>
            <Time>2022-08-26T21:40:01.000Z</Time>
            <Position>
              <LatitudeDegrees>50.17726010642945766448974609375</LatitudeDegrees>
              <LongitudeDegrees>16.98236371390521526336669921875</LongitudeDegrees>
            </Position>
            <AltitudeMeters>638.20001220703125</AltitudeMeters>
            <DistanceMeters>6567.5728926624</DistanceMeters>
          </Trackpoint>
          <Trackpoint>
            <Time>2022-08-26T21:40:04.000Z</Time>
            <Position>
              <LatitudeDegrees>50.17726932652294635772705078125</LatitudeDegrees>
              <LongitudeDegrees>16.9824142567813396453857421875</LongitudeDegrees>
            </Position>
            <AltitudeMeters>637.79998779296875</AltitudeMeters>
            <DistanceMeters>6571.3189223998</DistanceMeters>
          </Trackpoint>
          <Trackpoint>
            <Time>2022-08-26T21:40:10.000Z</Time>
            <Position>
              <LatitudeDegrees>50.17726756632328033447265625</LatitudeDegrees>
              <LongitudeDegrees>16.982524059712886810302734375</LongitudeDegrees>
            </Position>
            <AltitudeMeters>637.20001220703125</AltitudeMeters>
            <DistanceMeters>6579.1481087497</DistanceMeters>
          </Trackpoint>
          <Trackpoint>
            <Time>2022-08-26T21:40:13.000Z</Time>
            <Position>
              <LatitudeDegrees>50.177266560494899749755859375</LatitudeDegrees>
              <LongitudeDegrees>16.98260393925011157989501953125</LongitudeDegrees>
            </Position>
            <AltitudeMeters>637</AltitudeMeters>
            <DistanceMeters>6584.8433729742</DistanceMeters>
          </Trackpoint>
          <Trackpoint>
            <Time>2022-08-26T21:40:25.000Z</Time>
            <Position>
              <LatitudeDegrees>50.17728994600474834442138671875</LatitudeDegrees>
              <LongitudeDegrees>16.9828380458056926727294921875</LongitudeDegrees>
            </Position>
            <AltitudeMeters>636.79998779296875</AltitudeMeters>
            <DistanceMeters>6601.7322161743</DistanceMeters>
          </Trackpoint>
          <Trackpoint>
            <Time>2022-08-26T21:40:37.000Z</Time>
            <Position>
              <LatitudeDegrees>50.1773111522197723388671875</LatitudeDegrees>
              <LongitudeDegrees>16.983002163469791412353515625</LongitudeDegrees>
            </Position>
            <AltitudeMeters>636.4000244140625</AltitudeMeters>
            <DistanceMeters>6613.6663003735</DistanceMeters>
          </Trackpoint>
          <Trackpoint>
            <Time>2022-08-26T21:40:40.000Z</Time>
            <Position>
              <LatitudeDegrees>50.17731911502778530120849609375</LatitudeDegrees>
              <LongitudeDegrees>16.98302839882671833038330078125</LongitudeDegrees>
            </Position>
            <AltitudeMeters>636.4000244140625</AltitudeMeters>
            <DistanceMeters>6615.7351783869</DistanceMeters>
          </Trackpoint>
          <Trackpoint>
            <Time>2022-08-26T21:40:46.000Z</Time>
            <Position>
              <LatitudeDegrees>50.17734392546117305755615234375</LatitudeDegrees>
              <LongitudeDegrees>16.98313250206410884857177734375</LongitudeDegrees>
            </Position>
            <AltitudeMeters>636.20001220703125</AltitudeMeters>
            <DistanceMeters>6623.6526774032</DistanceMeters>
          </Trackpoint>
          <Trackpoint>
            <Time>2022-08-26T21:40:54.000Z</Time>
            <Position>
              <LatitudeDegrees>50.1773808896541595458984375</LatitudeDegrees>
              <LongitudeDegrees>16.98328974656760692596435546875</LongitudeDegrees>
            </Position>
            <AltitudeMeters>636.20001220703125</AltitudeMeters>
            <DistanceMeters>6635.5920570665</DistanceMeters>
          </Trackpoint>
          <Trackpoint>
            <Time>2022-08-26T21:41:03.000Z</Time>
            <Position>
              <LatitudeDegrees>50.1774130761623382568359375</LatitudeDegrees>
              <LongitudeDegrees>16.9834593124687671661376953125</LongitudeDegrees>
            </Position>
            <AltitudeMeters>636.20001220703125</AltitudeMeters>
            <DistanceMeters>6648.1980590204</DistanceMeters>
          </Trackpoint>
          <Trackpoint>
            <Time>2022-08-26T21:41:11.000Z</Time>
            <Position>
              <LatitudeDegrees>50.17743126489222049713134765625</LatitudeDegrees>
              <LongitudeDegrees>16.983578503131866455078125</LongitudeDegrees>
            </Position>
            <AltitudeMeters>636.20001220703125</AltitudeMeters>
            <DistanceMeters>6656.9317326874</DistanceMeters>
          </Trackpoint>
          <Trackpoint>
            <Time>2022-08-26T21:41:19.000Z</Time>
            <Position>
              <LatitudeDegrees>50.1774534769356250762939453125</LatitudeDegrees>
              <LongitudeDegrees>16.98370926082134246826171875</LongitudeDegrees>
            </Position>
            <AltitudeMeters>636.20001220703125</AltitudeMeters>
            <DistanceMeters>6666.5749545152</DistanceMeters>
          </Trackpoint>
          <Trackpoint>
            <Time>2022-08-26T21:41:30.000Z</Time>
            <Position>
              <LatitudeDegrees>50.17748490907251834869384765625</LatitudeDegrees>
              <LongitudeDegrees>16.983895339071750640869140625</LongitudeDegrees>
            </Position>
            <AltitudeMeters>636</AltitudeMeters>
            <DistanceMeters>6680.2924153932</DistanceMeters>
          </Trackpoint>
          <Trackpoint>
            <Time>2022-08-26T21:41:38.000Z</Time>
            <Position>
              <LatitudeDegrees>50.17751843668520450592041015625</LatitudeDegrees>
              <LongitudeDegrees>16.9840250909328460693359375</LongitudeDegrees>
            </Position>
            <AltitudeMeters>635.79998779296875</AltitudeMeters>
            <DistanceMeters>6690.2661469971</DistanceMeters>
          </Trackpoint>
          <Trackpoint>
            <Time>2022-08-26T21:41:42.000Z</Time>
            <Position>
              <LatitudeDegrees>50.1775470189750194549560546875</LatitudeDegrees>
              <LongitudeDegrees>16.98409390635788440704345703125</LongitudeDegrees>
            </Position>
            <AltitudeMeters>635.5999755859375</AltitudeMeters>
            <DistanceMeters>6696.1124141258</DistanceMeters>
          </Trackpoint>
          <Trackpoint>
            <Time>2022-08-26T21:41:47.000Z</Time>
            <Position>
              <LatitudeDegrees>50.1775605976581573486328125</LatitudeDegrees>
              <LongitudeDegrees>16.9841913878917694091796875</LongitudeDegrees>
            </Position>
            <AltitudeMeters>635.4000244140625</AltitudeMeters>
            <DistanceMeters>6703.2222923198</DistanceMeters>
          </Trackpoint>
          <Trackpoint>
            <Time>2022-08-26T21:41:55.000Z</Time>
            <Position>
              <LatitudeDegrees>50.1775647886097431182861328125</LatitudeDegrees>
              <LongitudeDegrees>16.98433463461697101593017578125</LongitudeDegrees>
            </Position>
            <AltitudeMeters>634.79998779296875</AltitudeMeters>
            <DistanceMeters>6713.4428561156</DistanceMeters>
          </Trackpoint>
          <Trackpoint>
            <Time>2022-08-26T21:42:04.000Z</Time>
            <Position>
              <LatitudeDegrees>50.17755766399204730987548828125</LatitudeDegrees>
              <LongitudeDegrees>16.98448550887405872344970703125</LongitudeDegrees>
            </Position>
            <AltitudeMeters>634.79998779296875</AltitudeMeters>
            <DistanceMeters>6724.2257715049</DistanceMeters>
          </Trackpoint>
          <Trackpoint>
            <Time>2022-08-26T21:42:05.000Z</Time>
            <Position>
              <LatitudeDegrees>50.177558250725269317626953125</LatitudeDegrees>
              <LongitudeDegrees>16.98450260795652866363525390625</LongitudeDegrees>
            </Position>
            <AltitudeMeters>634.79998779296875</AltitudeMeters>
            <DistanceMeters>6725.4464117521</DistanceMeters>
          </Trackpoint>
          <Trackpoint>
            <Time>2022-08-26T21:42:12.000Z</Time>
            <Position>
              <LatitudeDegrees>50.17755967564880847930908203125</LatitudeDegrees>
              <LongitudeDegrees>16.9846126623451709747314453125</LongitudeDegrees>
            </Position>
            <AltitudeMeters>634.5999755859375</AltitudeMeters>
            <DistanceMeters>6733.2923043794</DistanceMeters>
          </Trackpoint>
          <Trackpoint>
            <Time>2022-08-26T21:42:22.000Z</Time>
            <Position>
              <LatitudeDegrees>50.1775721646845340728759765625</LatitudeDegrees>
              <LongitudeDegrees>16.984803266823291778564453125</LongitudeDegrees>
            </Position>
            <AltitudeMeters>633.5999755859375</AltitudeMeters>
            <DistanceMeters>6746.9490682301</DistanceMeters>
          </Trackpoint>
          <Trackpoint>
            <Time>2022-08-26T21:42:32.000Z</Time>
            <Position>
              <LatitudeDegrees>50.17758716829121112823486328125</LatitudeDegrees>
              <LongitudeDegrees>16.98493947274982929229736328125</LongitudeDegrees>
            </Position>
            <AltitudeMeters>633.20001220703125</AltitudeMeters>
            <DistanceMeters>6756.8002728033</DistanceMeters>
          </Trackpoint>
          <Trackpoint>
            <Time>2022-08-26T21:42:38.000Z</Time>
            <Position>
              <LatitudeDegrees>50.177596472203731536865234375</LatitudeDegrees>
              <LongitudeDegrees>16.9850129820406436920166015625</LongitudeDegrees>
            </Position>
            <AltitudeMeters>633</AltitudeMeters>
            <DistanceMeters>6762.1404021472</DistanceMeters>
          </Trackpoint>
          <Trackpoint>
            <Time>2022-08-26T21:42:40.000Z</Time>
            <Position>
              <LatitudeDegrees>50.17759705893695354461669921875</LatitudeDegrees>
              <LongitudeDegrees>16.9850364513695240020751953125</LongitudeDegrees>
            </Position>
            <AltitudeMeters>633</AltitudeMeters>
            <DistanceMeters>6763.8135201041</DistanceMeters>
          </Trackpoint>
          <Trackpoint>
            <Time>2022-08-26T21:42:49.000Z</Time>
            <Position>
              <LatitudeDegrees>50.17762019298970699310302734375</LatitudeDegrees>
              <LongitudeDegrees>16.9851594977080821990966796875</LongitudeDegrees>
            </Position>
            <AltitudeMeters>633.4000244140625</AltitudeMeters>
            <DistanceMeters>6772.9543787802</DistanceMeters>
          </Trackpoint>
          <Trackpoint>
            <Time>2022-08-26T21:42:59.000Z</Time>
            <Position>
              <LatitudeDegrees>50.177624635398387908935546875</LatitudeDegrees>
              <LongitudeDegrees>16.98527474887669086456298828125</LongitudeDegrees>
            </Position>
            <AltitudeMeters>634.4000244140625</AltitudeMeters>
            <DistanceMeters>6781.1850308493</DistanceMeters>
          </Trackpoint>
          <Trackpoint>
            <Time>2022-08-26T21:43:03.000Z</Time>
            <Position>
              <LatitudeDegrees>50.1776157505810260772705078125</LatitudeDegrees>
              <LongitudeDegrees>16.98531246744096279144287109375</LongitudeDegrees>
            </Position>
            <AltitudeMeters>634.79998779296875</AltitudeMeters>
            <DistanceMeters>6784.051626315</DistanceMeters>
          </Trackpoint>
          <Trackpoint>
            <Time>2022-08-26T21:43:10.000Z</Time>
            <Position>
              <LatitudeDegrees>50.1775909401476383209228515625</LatitudeDegrees>
              <LongitudeDegrees>16.98536979965865612030029296875</LongitudeDegrees>
            </Position>
            <AltitudeMeters>635.79998779296875</AltitudeMeters>
            <DistanceMeters>6788.9838698147</DistanceMeters>
          </Trackpoint>
          <Trackpoint>
            <Time>2022-08-26T21:43:14.000Z</Time>
            <Position>
              <LatitudeDegrees>50.17757275141775608062744140625</LatitudeDegrees>
              <LongitudeDegrees>16.98539771139621734619140625</LongitudeDegrees>
            </Position>
            <AltitudeMeters>636</AltitudeMeters>
            <DistanceMeters>6791.8219727353</DistanceMeters>
          </Trackpoint>
          <Trackpoint>
            <Time>2022-08-26T21:43:21.000Z</Time>
            <Position>
              <LatitudeDegrees>50.17754375003278255462646484375</LatitudeDegrees>
              <LongitudeDegrees>16.98545537889003753662109375</LongitudeDegrees>
            </Position>
            <AltitudeMeters>636.79998779296875</AltitudeMeters>
            <DistanceMeters>6797.0484420256</DistanceMeters>
          </Trackpoint>
          <Trackpoint>
            <Time>2022-08-26T21:43:27.000Z</Time>
            <Position>
              <LatitudeDegrees>50.177518017590045928955078125</LatitudeDegrees>
              <LongitudeDegrees>16.98549083434045314788818359375</LongitudeDegrees>
            </Position>
            <AltitudeMeters>637</AltitudeMeters>
            <DistanceMeters>6800.868468666</DistanceMeters>
          </Trackpoint>
          <Trackpoint>
            <Time>2022-08-26T21:43:33.000Z</Time>
            <Position>
              <LatitudeDegrees>50.17749228514730930328369140625</LatitudeDegrees>
              <LongitudeDegrees>16.9855390302836894989013671875</LongitudeDegrees>
            </Position>
            <AltitudeMeters>637.4000244140625</AltitudeMeters>
            <DistanceMeters>6805.3417951017</DistanceMeters>
          </Trackpoint>
          <Trackpoint>
            <Time>2022-08-26T21:43:46.000Z</Time>
            <Position>
              <LatitudeDegrees>50.17747568897902965545654296875</LatitudeDegrees>
              <LongitudeDegrees>16.985681019723415374755859375</LongitudeDegrees>
            </Position>
            <AltitudeMeters>638.20001220703125</AltitudeMeters>
            <DistanceMeters>6815.6292873094</DistanceMeters>
          </Trackpoint>
          <Trackpoint>
            <Time>2022-08-26T21:43:47.000Z</Time>
            <Position>
              <LatitudeDegrees>50.1774772815406322479248046875</LatitudeDegrees>
              <LongitudeDegrees>16.98568646796047687530517578125</LongitudeDegrees>
            </Position>
            <AltitudeMeters>638.20001220703125</AltitudeMeters>
            <DistanceMeters>6816.0542596954</DistanceMeters>
          </Trackpoint>
          <Trackpoint>
            <Time>2022-08-26T21:43:58.000Z</Time>
            <Position>
              <LatitudeDegrees>50.1774720847606658935546875</LatitudeDegrees>
              <LongitudeDegrees>16.98576626367866992950439453125</LongitudeDegrees>
            </Position>
            <AltitudeMeters>638.4000244140625</AltitudeMeters>
            <DistanceMeters>6821.7716784073</DistanceMeters>
          </Trackpoint>
          <Trackpoint>
            <Time>2022-08-26T21:44:08.000Z</Time>
            <Position>
              <LatitudeDegrees>50.17743612639605998992919921875</LatitudeDegrees>
              <LongitudeDegrees>16.98582795448601245880126953125</LongitudeDegrees>
            </Position>
            <AltitudeMeters>638.5999755859375</AltitudeMeters>
            <DistanceMeters>6827.7182555197</DistanceMeters>
          </Trackpoint>
          <Trackpoint>
            <Time>2022-08-26T21:44:17.000Z</Time>
            <Position>
              <LatitudeDegrees>50.17741684801876544952392578125</LatitudeDegrees>
              <LongitudeDegrees>16.98591831140220165252685546875</LongitudeDegrees>
            </Position>
            <AltitudeMeters>639.20001220703125</AltitudeMeters>
            <DistanceMeters>6834.5071810732</DistanceMeters>
          </Trackpoint>
          <Trackpoint>
            <Time>2022-08-26T21:44:24.000Z</Time>
            <Position>
              <LatitudeDegrees>50.17741098068654537200927734375</LatitudeDegrees>
              <LongitudeDegrees>16.98592652566730976104736328125</LongitudeDegrees>
            </Position>
            <AltitudeMeters>639.5999755859375</AltitudeMeters>
            <DistanceMeters>6835.3884225691</DistanceMeters>
          </Trackpoint>
          <Trackpoint>
            <Time>2022-08-26T21:44:27.000Z</Time>
            <Position>
              <LatitudeDegrees>50.1774085499346256256103515625</LatitudeDegrees>
              <LongitudeDegrees>16.98593272827565670013427734375</LongitudeDegrees>
            </Position>
            <AltitudeMeters>640</AltitudeMeters>
            <DistanceMeters>6835.9089053194</DistanceMeters>
          </Trackpoint>
          <Trackpoint>
            <Time>2022-08-26T21:44:36.000Z</Time>
            <Position>
              <LatitudeDegrees>50.17740628682076930999755859375</LatitudeDegrees>
              <LongitudeDegrees>16.98596139438450336456298828125</LongitudeDegrees>
            </Position>
            <AltitudeMeters>640</AltitudeMeters>
            <DistanceMeters>6837.9646474666</DistanceMeters>
          </Trackpoint>
          <Trackpoint>
            <Time>2022-08-26T21:44:45.000Z</Time>
            <Position>
              <LatitudeDegrees>50.1774313487112522125244140625</LatitudeDegrees>
              <LongitudeDegrees>16.98595033027231693267822265625</LongitudeDegrees>
            </Position>
            <AltitudeMeters>640.4000244140625</AltitudeMeters>
            <DistanceMeters>6840.8625727749</DistanceMeters>
          </Trackpoint>
          <Trackpoint>
            <Time>2022-08-26T21:44:49.000Z</Time>
            <Position>
              <LatitudeDegrees>50.17744165845215320587158203125</LatitudeDegrees>
              <LongitudeDegrees>16.98594261892139911651611328125</LongitudeDegrees>
            </Position>
            <AltitudeMeters>641</AltitudeMeters>
            <DistanceMeters>6842.137489933</DistanceMeters>
          </Trackpoint>
          <Trackpoint>
            <Time>2022-08-26T21:44:54.000Z</Time>
            <Position>
              <LatitudeDegrees>50.17744316719472408294677734375</LatitudeDegrees>
              <LongitudeDegrees>16.98593256063759326934814453125</LongitudeDegrees>
            </Position>
            <AltitudeMeters>641.79998779296875</AltitudeMeters>
            <DistanceMeters>6842.8735636974</DistanceMeters>
          </Trackpoint>
          <Trackpoint>
            <Time>2022-08-26T21:45:01.000Z</Time>
            <Position>
              <LatitudeDegrees>50.177444927394390106201171875</LatitudeDegrees>
              <LongitudeDegrees>16.9859135337173938751220703125</LongitudeDegrees>
            </Position>
            <AltitudeMeters>643.20001220703125</AltitudeMeters>
            <DistanceMeters>6844.2440584622</DistanceMeters>
          </Trackpoint>
          <Trackpoint>
            <Time>2022-08-26T21:45:04.000Z</Time>
            <Position>
              <LatitudeDegrees>50.1774487830698490142822265625</LatitudeDegrees>
              <LongitudeDegrees>16.9858816824853420257568359375</LongitudeDegrees>
            </Position>
            <AltitudeMeters>643.5999755859375</AltitudeMeters>
            <DistanceMeters>6846.5561582124</DistanceMeters>
          </Trackpoint>
          <Trackpoint>
            <Time>2022-08-26T21:45:07.000Z</Time>
            <Position>
              <LatitudeDegrees>50.17744869925081729888916015625</LatitudeDegrees>
              <LongitudeDegrees>16.985839270055294036865234375</LongitudeDegrees>
            </Position>
            <AltitudeMeters>644.20001220703125</AltitudeMeters>
            <DistanceMeters>6849.5791430554</DistanceMeters>
          </Trackpoint>
          <Trackpoint>
            <Time>2022-08-26T21:45:13.000Z</Time>
            <Position>
              <LatitudeDegrees>50.17744651995599269866943359375</LatitudeDegrees>
              <LongitudeDegrees>16.98576492257416248321533203125</LongitudeDegrees>
            </Position>
            <AltitudeMeters>645.20001220703125</AltitudeMeters>
            <DistanceMeters>6854.8836428621</DistanceMeters>
          </Trackpoint>
          <Trackpoint>
            <Time>2022-08-26T21:45:15.000Z</Time>
            <Position>
              <LatitudeDegrees>50.17744216136634349822998046875</LatitudeDegrees>
              <LongitudeDegrees>16.98574078269302845001220703125</LongitudeDegrees>
            </Position>
            <AltitudeMeters>645.5999755859375</AltitudeMeters>
            <DistanceMeters>6856.6715598236</DistanceMeters>
          </Trackpoint>
          <Trackpoint>
            <Time>2022-08-26T21:45:21.000Z</Time>
            <Position>
              <LatitudeDegrees>50.17739539034664630889892578125</LatitudeDegrees>
              <LongitudeDegrees>16.98567221872508525848388671875</LongitudeDegrees>
            </Position>
            <AltitudeMeters>646.20001220703125</AltitudeMeters>
            <DistanceMeters>6863.8118547477</DistanceMeters>
          </Trackpoint>
          <Trackpoint>
            <Time>2022-08-26T21:45:23.000Z</Time>
            <Position>
              <LatitudeDegrees>50.17737695015966892242431640625</LatitudeDegrees>
              <LongitudeDegrees>16.98564388789236545562744140625</LongitudeDegrees>
            </Position>
            <AltitudeMeters>646.4000244140625</AltitudeMeters>
            <DistanceMeters>6866.6910230608</DistanceMeters>
          </Trackpoint>
          <Trackpoint>
            <Time>2022-08-26T21:45:29.000Z</Time>
            <Position>
              <LatitudeDegrees>50.17732682637870311737060546875</LatitudeDegrees>
              <LongitudeDegrees>16.98555923067033290863037109375</LongitudeDegrees>
            </Position>
            <AltitudeMeters>646.4000244140625</AltitudeMeters>
            <DistanceMeters>6874.9095978644</DistanceMeters>
          </Trackpoint>
          <Trackpoint>
            <Time>2022-08-26T21:45:31.000Z</Time>
            <Position>
              <LatitudeDegrees>50.1773180253803730010986328125</LatitudeDegrees>
              <LongitudeDegrees>16.9855400361120700836181640625</LongitudeDegrees>
            </Position>
            <AltitudeMeters>646.5999755859375</AltitudeMeters>
            <DistanceMeters>6876.5934755331</DistanceMeters>
          </Trackpoint>
          <Trackpoint>
            <Time>2022-08-26T21:45:41.000Z</Time>
            <Position>
              <LatitudeDegrees>50.1772063784301280975341796875</LatitudeDegrees>
              <LongitudeDegrees>16.98547172360122203826904296875</LongitudeDegrees>
            </Position>
            <AltitudeMeters>647.4000244140625</AltitudeMeters>
            <DistanceMeters>6889.9399090617</DistanceMeters>
          </Trackpoint>
          <Trackpoint>
            <Time>2022-08-26T21:45:42.000Z</Time>
            <Position>
              <LatitudeDegrees>50.17719707451760768890380859375</LatitudeDegrees>
              <LongitudeDegrees>16.9854659400880336761474609375</LongitudeDegrees>
            </Position>
            <AltitudeMeters>647.5999755859375</AltitudeMeters>
            <DistanceMeters>6891.0562201964</DistanceMeters>
          </Trackpoint>
          <Trackpoint>
            <Time>2022-08-26T21:45:51.000Z</Time>
            <Position>
              <LatitudeDegrees>50.17710529267787933349609375</LatitudeDegrees>
              <LongitudeDegrees>16.98544238694012165069580078125</LongitudeDegrees>
            </Position>
            <AltitudeMeters>648.4000244140625</AltitudeMeters>
            <DistanceMeters>6901.4093360264</DistanceMeters>
          </Trackpoint>
          <Trackpoint>
            <Time>2022-08-26T21:45:58.000Z</Time>
            <Position>
              <LatitudeDegrees>50.1770142652094364166259765625</LatitudeDegrees>
              <LongitudeDegrees>16.9854233600199222564697265625</LongitudeDegrees>
            </Position>
            <AltitudeMeters>648.79998779296875</AltitudeMeters>
            <DistanceMeters>6911.6316667102</DistanceMeters>
          </Trackpoint>
          <Trackpoint>
            <Time>2022-08-26T21:46:02.000Z</Time>
            <Position>
              <LatitudeDegrees>50.1769812405109405517578125</LatitudeDegrees>
              <LongitudeDegrees>16.98542512021958827972412109375</LongitudeDegrees>
            </Position>
            <AltitudeMeters>649</AltitudeMeters>
            <DistanceMeters>6915.3095811346</DistanceMeters>
          </Trackpoint>
          <Trackpoint>
            <Time>2022-08-26T21:46:11.000Z</Time>
            <Position>
              <LatitudeDegrees>50.17687001265585422515869140625</LatitudeDegrees>
              <LongitudeDegrees>16.985421516001224517822265625</LongitudeDegrees>
            </Position>
            <AltitudeMeters>649.20001220703125</AltitudeMeters>
            <DistanceMeters>6927.692258471</DistanceMeters>
          </Trackpoint>
          <Trackpoint>
            <Time>2022-08-26T21:46:19.000Z</Time>
            <Position>
              <LatitudeDegrees>50.17679038457572460174560546875</LatitudeDegrees>
              <LongitudeDegrees>16.985416151583194732666015625</LongitudeDegrees>
            </Position>
            <AltitudeMeters>649.79998779296875</AltitudeMeters>
            <DistanceMeters>6936.5628890085</DistanceMeters>
          </Trackpoint>
          <Trackpoint>
            <Time>2022-08-26T21:46:22.000Z</Time>
            <Position>
              <LatitudeDegrees>50.1767658255994319915771484375</LatitudeDegrees>
              <LongitudeDegrees>16.98541590012609958648681640625</LongitudeDegrees>
            </Position>
            <AltitudeMeters>650</AltitudeMeters>
            <DistanceMeters>6939.2972816825</DistanceMeters>
          </Trackpoint>
          <Trackpoint>
            <Time>2022-08-26T21:46:30.000Z</Time>
            <Position>
              <LatitudeDegrees>50.17671327106654644012451171875</LatitudeDegrees>
              <LongitudeDegrees>16.98539595119655132293701171875</LongitudeDegrees>
            </Position>
            <AltitudeMeters>651</AltitudeMeters>
            <DistanceMeters>6945.3170571575</DistanceMeters>
          </Trackpoint>
          <Trackpoint>
            <Time>2022-08-26T21:46:33.000Z</Time>
            <Position>
              <LatitudeDegrees>50.17668955028057098388671875</LatitudeDegrees>
              <LongitudeDegrees>16.98538421653211116790771484375</LongitudeDegrees>
            </Position>
            <AltitudeMeters>651.20001220703125</AltitudeMeters>
            <DistanceMeters>6948.0859079843</DistanceMeters>
          </Trackpoint>
          <Trackpoint>
            <Time>2022-08-26T21:46:40.000Z</Time>
            <Position>
              <LatitudeDegrees>50.176580585539340972900390625</LatitudeDegrees>
              <LongitudeDegrees>16.985386647284030914306640625</LongitudeDegrees>
            </Position>
            <AltitudeMeters>652</AltitudeMeters>
            <DistanceMeters>6960.2151291227</DistanceMeters>
          </Trackpoint>
          <Trackpoint>
            <Time>2022-08-26T21:46:41.000Z</Time>
            <Position>
              <LatitudeDegrees>50.1765643246471881866455078125</LatitudeDegrees>
              <LongitudeDegrees>16.98538891039788722991943359375</LongitudeDegrees>
            </Position>
            <AltitudeMeters>652</AltitudeMeters>
            <DistanceMeters>6962.0330972133</DistanceMeters>
          </Trackpoint>
          <Trackpoint>
            <Time>2022-08-26T21:46:49.000Z</Time>
            <Position>
              <LatitudeDegrees>50.17654999159276485443115234375</LatitudeDegrees>
              <LongitudeDegrees>16.98548530228435993194580078125</LongitudeDegrees>
            </Position>
            <AltitudeMeters>652.5999755859375</AltitudeMeters>
            <DistanceMeters>6969.0862306397</DistanceMeters>
          </Trackpoint>
          <Trackpoint>
            <Time>2022-08-26T21:46:55.000Z</Time>
            <Position>
              <LatitudeDegrees>50.176524929702281951904296875</LatitudeDegrees>
              <LongitudeDegrees>16.98556761257350444793701171875</LongitudeDegrees>
            </Position>
            <AltitudeMeters>653</AltitudeMeters>
            <DistanceMeters>6975.5821945576</DistanceMeters>
          </Trackpoint>
          <Trackpoint>
            <Time>2022-08-26T21:46:59.000Z</Time>
            <Position>
              <LatitudeDegrees>50.17650439403951168060302734375</LatitudeDegrees>
              <LongitudeDegrees>16.98557347990572452545166015625</LongitudeDegrees>
            </Position>
            <AltitudeMeters>654</AltitudeMeters>
            <DistanceMeters>6977.9040377127</DistanceMeters>
          </Trackpoint>
          <Trackpoint>
            <Time>2022-08-26T21:47:00.000Z</Time>
            <Position>
              <LatitudeDegrees>50.17649634741246700286865234375</LatitudeDegrees>
              <LongitudeDegrees>16.98557339608669281005859375</LongitudeDegrees>
            </Position>
            <AltitudeMeters>654.20001220703125</AltitudeMeters>
            <DistanceMeters>6978.8055402806</DistanceMeters>
          </Trackpoint>
          <Trackpoint>
            <Time>2022-08-26T21:47:03.000Z</Time>
            <Position>
              <LatitudeDegrees>50.17647723667323589324951171875</LatitudeDegrees>
              <LongitudeDegrees>16.98556325398385524749755859375</LongitudeDegrees>
            </Position>
            <AltitudeMeters>655.20001220703125</AltitudeMeters>
            <DistanceMeters>6981.0522740726</DistanceMeters>
          </Trackpoint>
          <Trackpoint>
            <Time>2022-08-26T21:47:09.000Z</Time>
            <Position>
              <LatitudeDegrees>50.176424346864223480224609375</LatitudeDegrees>
              <LongitudeDegrees>16.98555872775614261627197265625</LongitudeDegrees>
            </Position>
            <AltitudeMeters>656.20001220703125</AltitudeMeters>
            <DistanceMeters>6986.9477608407</DistanceMeters>
          </Trackpoint>
          <Trackpoint>
            <Time>2022-08-26T21:47:10.000Z</Time>
            <Position>
              <LatitudeDegrees>50.17642543651163578033447265625</LatitudeDegrees>
              <LongitudeDegrees>16.98555470444262027740478515625</LongitudeDegrees>
            </Position>
            <AltitudeMeters>656.5999755859375</AltitudeMeters>
            <DistanceMeters>6987.2482616967</DistanceMeters>
          </Trackpoint>
          <Trackpoint>
            <Time>2022-08-26T21:47:16.000Z</Time>
            <Position>
              <LatitudeDegrees>50.1764000393450260162353515625</LatitudeDegrees>
              <LongitudeDegrees>16.9855956919491291046142578125</LongitudeDegrees>
            </Position>
            <AltitudeMeters>657.5999755859375</AltitudeMeters>
            <DistanceMeters>6991.3133619282</DistanceMeters>
          </Trackpoint>
          <Trackpoint>
            <Time>2022-08-26T21:47:18.000Z</Time>
            <Position>
              <LatitudeDegrees>50.17639190889894962310791015625</LatitudeDegrees>
              <LongitudeDegrees>16.98562511242926120758056640625</LongitudeDegrees>
            </Position>
            <AltitudeMeters>658</AltitudeMeters>
            <DistanceMeters>6993.5979590885</DistanceMeters>
          </Trackpoint>
          <Trackpoint>
            <Time>2022-08-26T21:47:21.000Z</Time>
            <Position>
              <LatitudeDegrees>50.17637313343584537506103515625</LatitudeDegrees>
              <LongitudeDegrees>16.985667608678340911865234375</LongitudeDegrees>
            </Position>
            <AltitudeMeters>658.5999755859375</AltitudeMeters>
            <DistanceMeters>6997.2783279105</DistanceMeters>
          </Trackpoint>
          <Trackpoint>
            <Time>2022-08-26T21:47:26.000Z</Time>
            <Position>
              <LatitudeDegrees>50.176357962191104888916015625</LatitudeDegrees>
              <LongitudeDegrees>16.9857358373701572418212890625</LongitudeDegrees>
            </Position>
            <AltitudeMeters>659.79998779296875</AltitudeMeters>
            <DistanceMeters>7002.4255839063</DistanceMeters>
          </Trackpoint>
          <Trackpoint>
            <Time>2022-08-26T21:47:29.000Z</Time>
            <Position>
              <LatitudeDegrees>50.1763482391834259033203125</LatitudeDegrees>
              <LongitudeDegrees>16.9857935048639774322509765625</LongitudeDegrees>
            </Position>
            <AltitudeMeters>660.5999755859375</AltitudeMeters>
            <DistanceMeters>7006.6753077665</DistanceMeters>
          </Trackpoint>
          <Trackpoint>
            <Time>2022-08-26T21:47:32.000Z</Time>
            <Position>
              <LatitudeDegrees>50.17633692361414432525634765625</LatitudeDegrees>
              <LongitudeDegrees>16.9858250208199024200439453125</LongitudeDegrees>
            </Position>
            <AltitudeMeters>661</AltitudeMeters>
            <DistanceMeters>7009.2515659419</DistanceMeters>
          </Trackpoint>
          <Trackpoint>
            <Time>2022-08-26T21:47:37.000Z</Time>
            <Position>
              <LatitudeDegrees>50.1763333193957805633544921875</LatitudeDegrees>
              <LongitudeDegrees>16.9858870469033718109130859375</LongitudeDegrees>
            </Position>
            <AltitudeMeters>662</AltitudeMeters>
            <DistanceMeters>7013.6914597331</DistanceMeters>
          </Trackpoint>
          <Trackpoint>
            <Time>2022-08-26T21:47:41.000Z</Time>
            <Position>
              <LatitudeDegrees>50.1763376779854297637939453125</LatitudeDegrees>
              <LongitudeDegrees>16.98594161309301853179931640625</LongitudeDegrees>
            </Position>
            <AltitudeMeters>663.20001220703125</AltitudeMeters>
            <DistanceMeters>7017.611815598</DistanceMeters>
          </Trackpoint>
          <Trackpoint>
            <Time>2022-08-26T21:47:43.000Z</Time>
            <Position>
              <LatitudeDegrees>50.1763390190899372100830078125</LatitudeDegrees>
              <LongitudeDegrees>16.9859644956886768341064453125</LongitudeDegrees>
            </Position>
            <AltitudeMeters>663.5999755859375</AltitudeMeters>
            <DistanceMeters>7019.2494763394</DistanceMeters>
          </Trackpoint>
          <Trackpoint>
            <Time>2022-08-26T21:47:46.000Z</Time>
            <Position>
              <LatitudeDegrees>50.176337175071239471435546875</LatitudeDegrees>
              <LongitudeDegrees>16.9859913177788257598876953125</LongitudeDegrees>
            </Position>
            <AltitudeMeters>664.20001220703125</AltitudeMeters>
            <DistanceMeters>7021.1736206536</DistanceMeters>
          </Trackpoint>
          <Trackpoint>
            <Time>2022-08-26T21:47:53.000Z</Time>
            <Position>
              <LatitudeDegrees>50.1763447187840938568115234375</LatitudeDegrees>
              <LongitudeDegrees>16.98602794669568538665771484375</LongitudeDegrees>
            </Position>
            <AltitudeMeters>665.5999755859375</AltitudeMeters>
            <DistanceMeters>7023.9146101832</DistanceMeters>
          </Trackpoint>
          <Trackpoint>
            <Time>2022-08-26T21:47:54.000Z</Time>
            <Position>
              <LatitudeDegrees>50.17634647898375988006591796875</LatitudeDegrees>
              <LongitudeDegrees>16.986027024686336517333984375</LongitudeDegrees>
            </Position>
            <AltitudeMeters>665.79998779296875</AltitudeMeters>
            <DistanceMeters>7024.104663612</DistanceMeters>
          </Trackpoint>
          <Trackpoint>
            <Time>2022-08-26T21:47:58.000Z</Time>
            <Position>
              <LatitudeDegrees>50.17635159194469451904296875</LatitudeDegrees>
              <LongitudeDegrees>16.98602962307631969451904296875</LongitudeDegrees>
            </Position>
            <AltitudeMeters>666.5999755859375</AltitudeMeters>
            <DistanceMeters>7024.7056653239</DistanceMeters>
          </Trackpoint>
          <Trackpoint>
            <Time>2022-08-26T21:48:03.000Z</Time>
            <Position>
              <LatitudeDegrees>50.17635695636272430419921875</LatitudeDegrees>
              <LongitudeDegrees>16.986064575612545013427734375</LongitudeDegrees>
            </Position>
            <AltitudeMeters>667.79998779296875</AltitudeMeters>
            <DistanceMeters>7027.2678646867</DistanceMeters>
          </Trackpoint>
          <Trackpoint>
            <Time>2022-08-26T21:48:05.000Z</Time>
            <Position>
              <LatitudeDegrees>50.1763557828962802886962890625</LatitudeDegrees>
              <LongitudeDegrees>16.98607496917247772216796875</LongitudeDegrees>
            </Position>
            <AltitudeMeters>668.4000244140625</AltitudeMeters>
            <DistanceMeters>7028.0161057839</DistanceMeters>
          </Trackpoint>
          <Trackpoint>
            <Time>2022-08-26T21:48:08.000Z</Time>
            <Position>
              <LatitudeDegrees>50.176349245011806488037109375</LatitudeDegrees>
              <LongitudeDegrees>16.98608678765594959259033203125</LongitudeDegrees>
            </Position>
            <AltitudeMeters>669</AltitudeMeters>
            <DistanceMeters>7029.1283649591</DistanceMeters>
          </Trackpoint>
          <Trackpoint>
            <Time>2022-08-26T21:48:12.000Z</Time>
            <Position>
              <LatitudeDegrees>50.17634094692766666412353515625</LatitudeDegrees>
              <LongitudeDegrees>16.9860932417213916778564453125</LongitudeDegrees>
            </Position>
            <AltitudeMeters>669.79998779296875</AltitudeMeters>
            <DistanceMeters>7030.1606192981</DistanceMeters>
          </Trackpoint>
          <Trackpoint>
            <Time>2022-08-26T21:48:13.000Z</Time>
            <Position>
              <LatitudeDegrees>50.1763370074331760406494140625</LatitudeDegrees>
              <LongitudeDegrees>16.9860925711691379547119140625</LongitudeDegrees>
            </Position>
            <AltitudeMeters>670</AltitudeMeters>
            <DistanceMeters>7030.6063340968</DistanceMeters>
          </Trackpoint>
          <Trackpoint>
            <Time>2022-08-26T21:48:18.000Z</Time>
            <Position>
              <LatitudeDegrees>50.17632217146456241607666015625</LatitudeDegrees>
              <LongitudeDegrees>16.986143030226230621337890625</LongitudeDegrees>
            </Position>
            <AltitudeMeters>671.20001220703125</AltitudeMeters>
            <DistanceMeters>7034.5633724532</DistanceMeters>
          </Trackpoint>
          <Trackpoint>
            <Time>2022-08-26T21:48:21.000Z</Time>
            <Position>
              <LatitudeDegrees>50.17630306072533130645751953125</LatitudeDegrees>
              <LongitudeDegrees>16.98617412708699703216552734375</LongitudeDegrees>
            </Position>
            <AltitudeMeters>671.79998779296875</AltitudeMeters>
            <DistanceMeters>7037.6367191567</DistanceMeters>
          </Trackpoint>
          <Trackpoint>
            <Time>2022-08-26T21:48:23.000Z</Time>
            <Position>
              <LatitudeDegrees>50.17630741931498050689697265625</LatitudeDegrees>
              <LongitudeDegrees>16.9862176291644573211669921875</LongitudeDegrees>
            </Position>
            <AltitudeMeters>672.20001220703125</AltitudeMeters>
            <DistanceMeters>7040.7740401993</DistanceMeters>
          </Trackpoint>
          <Trackpoint>
            <Time>2022-08-26T21:48:28.000Z</Time>
            <Position>
              <LatitudeDegrees>50.176304988563060760498046875</LatitudeDegrees>
              <LongitudeDegrees>16.986252330243587493896484375</LongitudeDegrees>
            </Position>
            <AltitudeMeters>673.4000244140625</AltitudeMeters>
            <DistanceMeters>7043.2629420536</DistanceMeters>
          </Trackpoint>
          <Trackpoint>
            <Time>2022-08-26T21:48:29.000Z</Time>
            <Position>
              <LatitudeDegrees>50.1763041503727436065673828125</LatitudeDegrees>
              <LongitudeDegrees>16.9862535037100315093994140625</LongitudeDegrees>
            </Position>
            <AltitudeMeters>673.5999755859375</AltitudeMeters>
            <DistanceMeters>7043.3973301219</DistanceMeters>
          </Trackpoint>
          <Trackpoint>
            <Time>2022-08-26T21:48:38.000Z</Time>
            <Position>
              <LatitudeDegrees>50.17632720060646533966064453125</LatitudeDegrees>
              <LongitudeDegrees>16.98627722449600696563720703125</LongitudeDegrees>
            </Position>
            <AltitudeMeters>673.79998779296875</AltitudeMeters>
            <DistanceMeters>7046.4677372296</DistanceMeters>
          </Trackpoint>
          <Trackpoint>
            <Time>2022-08-26T21:48:46.000Z</Time>
            <Position>
              <LatitudeDegrees>50.17636961303651332855224609375</LatitudeDegrees>
              <LongitudeDegrees>16.98631192557513713836669921875</LongitudeDegrees>
            </Position>
            <AltitudeMeters>673.5999755859375</AltitudeMeters>
            <DistanceMeters>7051.7977110094</DistanceMeters>
          </Trackpoint>
          <Trackpoint>
            <Time>2022-08-26T21:48:54.000Z</Time>
            <Position>
              <LatitudeDegrees>50.17635653726756572723388671875</LatitudeDegrees>
              <LongitudeDegrees>16.9862969219684600830078125</LongitudeDegrees>
            </Position>
            <AltitudeMeters>673</AltitudeMeters>
            <DistanceMeters>7053.6032185824</DistanceMeters>
          </Trackpoint>
          <Trackpoint>
            <Time>2022-08-26T21:49:03.000Z</Time>
            <Position>
              <LatitudeDegrees>50.176400877535343170166015625</LatitudeDegrees>
              <LongitudeDegrees>16.98628879152238368988037109375</LongitudeDegrees>
            </Position>
            <AltitudeMeters>673</AltitudeMeters>
            <DistanceMeters>7058.5728522786</DistanceMeters>
          </Trackpoint>
          <Trackpoint>
            <Time>2022-08-26T21:49:08.000Z</Time>
            <Position>
              <LatitudeDegrees>50.17642342485487461090087890625</LatitudeDegrees>
              <LongitudeDegrees>16.98627370409667491912841796875</LongitudeDegrees>
            </Position>
            <AltitudeMeters>672.4000244140625</AltitudeMeters>
            <DistanceMeters>7061.3022868476</DistanceMeters>
          </Trackpoint>
          <Trackpoint>
            <Time>2022-08-26T21:49:13.000Z</Time>
            <Position>
              <LatitudeDegrees>50.176439099013805389404296875</LatitudeDegrees>
              <LongitudeDegrees>16.98626414872705936431884765625</LongitudeDegrees>
            </Position>
            <AltitudeMeters>671.79998779296875</AltitudeMeters>
            <DistanceMeters>7063.174096042</DistanceMeters>
          </Trackpoint>
          <Trackpoint>
            <Time>2022-08-26T21:49:14.000Z</Time>
            <Position>
              <LatitudeDegrees>50.17644136212766170501708984375</LatitudeDegrees>
              <LongitudeDegrees>16.98626683093607425689697265625</LongitudeDegrees>
            </Position>
            <AltitudeMeters>671.4000244140625</AltitudeMeters>
            <DistanceMeters>7063.4892639986</DistanceMeters>
          </Trackpoint>
          <Trackpoint>
            <Time>2022-08-26T21:49:20.000Z</Time>
            <Position>
              <LatitudeDegrees>50.17644345760345458984375</LatitudeDegrees>
              <LongitudeDegrees>16.9862350635230541229248046875</LongitudeDegrees>
            </Position>
            <AltitudeMeters>670.4000244140625</AltitudeMeters>
            <DistanceMeters>7065.765942254</DistanceMeters>
          </Trackpoint>
          <Trackpoint>
            <Time>2022-08-26T21:49:22.000Z</Time>
            <Position>
              <LatitudeDegrees>50.17644437961280345916748046875</LatitudeDegrees>
              <LongitudeDegrees>16.9862250052392482757568359375</LongitudeDegrees>
            </Position>
            <AltitudeMeters>670</AltitudeMeters>
            <DistanceMeters>7066.4896441497</DistanceMeters>
          </Trackpoint>
          <Trackpoint>
            <Time>2022-08-26T21:49:26.000Z</Time>
            <Position>
              <LatitudeDegrees>50.17646030522882938385009765625</LatitudeDegrees>
              <LongitudeDegrees>16.9862065650522708892822265625</LongitudeDegrees>
            </Position>
            <AltitudeMeters>669.20001220703125</AltitudeMeters>
            <DistanceMeters>7068.6978654429</DistanceMeters>
          </Trackpoint>
          <Trackpoint>
            <Time>2022-08-26T21:49:30.000Z</Time>
            <Position>
              <LatitudeDegrees>50.17646986059844493865966796875</LatitudeDegrees>
              <LongitudeDegrees>16.98617714457213878631591796875</LongitudeDegrees>
            </Position>
            <AltitudeMeters>668.20001220703125</AltitudeMeters>
            <DistanceMeters>7071.0486965265</DistanceMeters>
          </Trackpoint>
          <Trackpoint>
            <Time>2022-08-26T21:49:31.000Z</Time>
            <Position>
              <LatitudeDegrees>50.176470614969730377197265625</LatitudeDegrees>
              <LongitudeDegrees>16.98616993613541126251220703125</LongitudeDegrees>
            </Position>
            <AltitudeMeters>668</AltitudeMeters>
            <DistanceMeters>7071.5691792767</DistanceMeters>
          </Trackpoint>
          <Trackpoint>
            <Time>2022-08-26T21:49:37.000Z</Time>
            <Position>
              <LatitudeDegrees>50.1764654181897640228271484375</LatitudeDegrees>
              <LongitudeDegrees>16.9861254282295703887939453125</LongitudeDegrees>
            </Position>
            <AltitudeMeters>666.79998779296875</AltitudeMeters>
            <DistanceMeters>7074.7944929147</DistanceMeters>
          </Trackpoint>
          <Trackpoint>
            <Time>2022-08-26T21:49:40.000Z</Time>
            <Position>
              <LatitudeDegrees>50.1764677651226520538330078125</LatitudeDegrees>
              <LongitudeDegrees>16.986104138195514678955078125</LongitudeDegrees>
            </Position>
            <AltitudeMeters>666</AltitudeMeters>
            <DistanceMeters>7076.3355672493</DistanceMeters>
          </Trackpoint>
          <Trackpoint>
            <Time>2022-08-26T21:49:42.000Z</Time>
            <Position>
              <LatitudeDegrees>50.17646801657974720001220703125</LatitudeDegrees>
              <LongitudeDegrees>16.98607455007731914520263671875</LongitudeDegrees>
            </Position>
            <AltitudeMeters>665.5999755859375</AltitudeMeters>
            <DistanceMeters>7078.4433617389</DistanceMeters>
          </Trackpoint>
          <Trackpoint>
            <Time>2022-08-26T21:49:47.000Z</Time>
            <Position>
              <LatitudeDegrees>50.1764769852161407470703125</LatitudeDegrees>
              <LongitudeDegrees>16.98602132499217987060546875</LongitudeDegrees>
            </Position>
            <AltitudeMeters>664.5999755859375</AltitudeMeters>
            <DistanceMeters>7082.3660203094</DistanceMeters>
          </Trackpoint>
          <Trackpoint>
            <Time>2022-08-26T21:49:50.000Z</Time>
            <Position>
              <LatitudeDegrees>50.1764935813844203948974609375</LatitudeDegrees>
              <LongitudeDegrees>16.985982097685337066650390625</LongitudeDegrees>
            </Position>
            <AltitudeMeters>664</AltitudeMeters>
            <DistanceMeters>7085.7163016438</DistanceMeters>
          </Trackpoint>
          <Trackpoint>
            <Time>2022-08-26T21:49:52.000Z</Time>
            <Position>
              <LatitudeDegrees>50.17650523222982883453369140625</LatitudeDegrees>
              <LongitudeDegrees>16.98595368303358554840087890625</LongitudeDegrees>
            </Position>
            <AltitudeMeters>663.4000244140625</AltitudeMeters>
            <DistanceMeters>7088.1203084916</DistanceMeters>
          </Trackpoint>
          <Trackpoint>
            <Time>2022-08-26T21:49:54.000Z</Time>
            <Position>
              <LatitudeDegrees>50.17651520669460296630859375</LatitudeDegrees>
              <LongitudeDegrees>16.985943876206874847412109375</LongitudeDegrees>
            </Position>
            <AltitudeMeters>662.20001220703125</AltitudeMeters>
            <DistanceMeters>7089.4336038129</DistanceMeters>
          </Trackpoint>
          <Trackpoint>
            <Time>2022-08-26T21:49:57.000Z</Time>
            <Position>
              <LatitudeDegrees>50.17653574235737323760986328125</LatitudeDegrees>
              <LongitudeDegrees>16.98593608103692531585693359375</LongitudeDegrees>
            </Position>
            <AltitudeMeters>661.20001220703125</AltitudeMeters>
            <DistanceMeters>7091.7844348965</DistanceMeters>
          </Trackpoint>
          <Trackpoint>
            <Time>2022-08-26T21:50:00.000Z</Time>
            <Position>
              <LatitudeDegrees>50.17654932104051113128662109375</LatitudeDegrees>
              <LongitudeDegrees>16.9859309680759906768798828125</LongitudeDegrees>
            </Position>
            <AltitudeMeters>659.79998779296875</AltitudeMeters>
            <DistanceMeters>7093.3400892562</DistanceMeters>
          </Trackpoint>
          <Trackpoint>
            <Time>2022-08-26T21:50:03.000Z</Time>
            <Position>
              <LatitudeDegrees>50.176558457314968109130859375</LatitudeDegrees>
              <LongitudeDegrees>16.98592065833508968353271484375</LongitudeDegrees>
            </Position>
            <AltitudeMeters>658.5999755859375</AltitudeMeters>
            <DistanceMeters>7094.593577709</DistanceMeters>
          </Trackpoint>
          <Trackpoint>
            <Time>2022-08-26T21:50:04.000Z</Time>
            <Position>
              <LatitudeDegrees>50.176564492285251617431640625</LatitudeDegrees>
              <LongitudeDegrees>16.9859128631651401519775390625</LongitudeDegrees>
            </Position>
            <AltitudeMeters>658.4000244140625</AltitudeMeters>
            <DistanceMeters>7095.4593122785</DistanceMeters>
          </Trackpoint>
          <Trackpoint>
            <Time>2022-08-26T21:50:07.000Z</Time>
            <Position>
              <LatitudeDegrees>50.17659123055636882781982421875</LatitudeDegrees>
              <LongitudeDegrees>16.9858971051871776580810546875</LongitudeDegrees>
            </Position>
            <AltitudeMeters>657.5999755859375</AltitudeMeters>
            <DistanceMeters>7098.6395144132</DistanceMeters>
          </Trackpoint>
          <Trackpoint>
            <Time>2022-08-26T21:50:12.000Z</Time>
            <Position>
              <LatitudeDegrees>50.17661771737039089202880859375</LatitudeDegrees>
              <LongitudeDegrees>16.985884867608547210693359375</LongitudeDegrees>
            </Position>
            <AltitudeMeters>656.4000244140625</AltitudeMeters>
            <DistanceMeters>7101.7128611167</DistanceMeters>
          </Trackpoint>
          <Trackpoint>
            <Time>2022-08-26T21:50:13.000Z</Time>
            <Position>
              <LatitudeDegrees>50.17661704681813716888427734375</LatitudeDegrees>
              <LongitudeDegrees>16.9858863763511180877685546875</LongitudeDegrees>
            </Position>
            <AltitudeMeters>656.20001220703125</AltitudeMeters>
            <DistanceMeters>7101.8078878311</DistanceMeters>
          </Trackpoint>
          <Trackpoint>
            <Time>2022-08-26T21:50:18.000Z</Time>
            <Position>
              <LatitudeDegrees>50.1766250096261501312255859375</LatitudeDegrees>
              <LongitudeDegrees>16.9858652539551258087158203125</LongitudeDegrees>
            </Position>
            <AltitudeMeters>655.4000244140625</AltitudeMeters>
            <DistanceMeters>7103.5523464181</DistanceMeters>
          </Trackpoint>
          <Trackpoint>
            <Time>2022-08-26T21:50:23.000Z</Time>
            <Position>
              <LatitudeDegrees>50.17664772458374500274658203125</LatitudeDegrees>
              <LongitudeDegrees>16.985830552875995635986328125</LongitudeDegrees>
            </Position>
            <AltitudeMeters>654.4000244140625</AltitudeMeters>
            <DistanceMeters>7107.090097957</DistanceMeters>
          </Trackpoint>
          <Trackpoint>
            <Time>2022-08-26T21:50:28.000Z</Time>
            <Position>
              <LatitudeDegrees>50.17667748034000396728515625</LatitudeDegrees>
              <LongitudeDegrees>16.9858072511851787567138671875</LongitudeDegrees>
            </Position>
            <AltitudeMeters>653.20001220703125</AltitudeMeters>
            <DistanceMeters>7110.7949213259</DistanceMeters>
          </Trackpoint>
          <Trackpoint>
            <Time>2022-08-26T21:50:32.000Z</Time>
            <Position>
              <LatitudeDegrees>50.17670966684818267822265625</LatitudeDegrees>
              <LongitudeDegrees>16.9858176447451114654541015625</LongitudeDegrees>
            </Position>
            <AltitudeMeters>652</AltitudeMeters>
            <DistanceMeters>7114.4519068623</DistanceMeters>
          </Trackpoint>
          <Trackpoint>
            <Time>2022-08-26T21:50:33.000Z</Time>
            <Position>
              <LatitudeDegrees>50.176717378199100494384765625</LatitudeDegrees>
              <LongitudeDegrees>16.98582150042057037353515625</LongitudeDegrees>
            </Position>
            <AltitudeMeters>651.5999755859375</AltitudeMeters>
            <DistanceMeters>7115.3534094302</DistanceMeters>
          </Trackpoint>
          <Trackpoint>
            <Time>2022-08-26T21:50:36.000Z</Time>
            <Position>
              <LatitudeDegrees>50.17673523165285587310791015625</LatitudeDegrees>
              <LongitudeDegrees>16.985838599503040313720703125</LongitudeDegrees>
            </Position>
            <AltitudeMeters>651</AltitudeMeters>
            <DistanceMeters>7117.6849552735</DistanceMeters>
          </Trackpoint>
          <Trackpoint>
            <Time>2022-08-26T21:50:42.000Z</Time>
            <Position>
              <LatitudeDegrees>50.176752246916294097900390625</LatitudeDegrees>
              <LongitudeDegrees>16.9858328998088836669921875</LongitudeDegrees>
            </Position>
            <AltitudeMeters>650.4000244140625</AltitudeMeters>
            <DistanceMeters>7119.623127557</DistanceMeters>
          </Trackpoint>
          <Trackpoint>
            <Time>2022-08-26T21:50:48.000Z</Time>
            <Position>
              <LatitudeDegrees>50.17679021693766117095947265625</LatitudeDegrees>
              <LongitudeDegrees>16.985852010548114776611328125</LongitudeDegrees>
            </Position>
            <AltitudeMeters>649.79998779296875</AltitudeMeters>
            <DistanceMeters>7124.0640381566</DistanceMeters>
          </Trackpoint>
          <Trackpoint>
            <Time>2022-08-26T21:50:52.000Z</Time>
            <Position>
              <LatitudeDegrees>50.1768278516829013824462890625</LatitudeDegrees>
              <LongitudeDegrees>16.98584027588367462158203125</LongitudeDegrees>
            </Position>
            <AltitudeMeters>649.4000244140625</AltitudeMeters>
            <DistanceMeters>7128.3370715721</DistanceMeters>
          </Trackpoint>
          <Trackpoint>
            <Time>2022-08-26T21:51:00.000Z</Time>
            <Position>
              <LatitudeDegrees>50.17691946588456630706787109375</LatitudeDegrees>
              <LongitudeDegrees>16.98583650402724742889404296875</LongitudeDegrees>
            </Position>
            <AltitudeMeters>648.4000244140625</AltitudeMeters>
            <DistanceMeters>7138.5372941573</DistanceMeters>
          </Trackpoint>
          <Trackpoint>
            <Time>2022-08-26T21:51:01.000Z</Time>
            <Position>
              <LatitudeDegrees>50.17693757079541683197021484375</LatitudeDegrees>
              <LongitudeDegrees>16.98583985678851604461669921875</LongitudeDegrees>
            </Position>
            <AltitudeMeters>648.4000244140625</AltitudeMeters>
            <DistanceMeters>7140.566509488</DistanceMeters>
          </Trackpoint>
          <Trackpoint>
            <Time>2022-08-26T21:51:10.000Z</Time>
            <Position>
              <LatitudeDegrees>50.17703019082546234130859375</LatitudeDegrees>
              <LongitudeDegrees>16.985852681100368499755859375</LongitudeDegrees>
            </Position>
            <AltitudeMeters>647.79998779296875</AltitudeMeters>
            <DistanceMeters>7150.9161358957</DistanceMeters>
          </Trackpoint>
          <Trackpoint>
            <Time>2022-08-26T21:51:13.000Z</Time>
            <Position>
              <LatitudeDegrees>50.17705407924950122833251953125</LatitudeDegrees>
              <LongitudeDegrees>16.98585276491940021514892578125</LongitudeDegrees>
            </Position>
            <AltitudeMeters>647.4000244140625</AltitudeMeters>
            <DistanceMeters>7153.575186451</DistanceMeters>
          </Trackpoint>
          <Trackpoint>
            <Time>2022-08-26T21:51:20.000Z</Time>
            <Position>
              <LatitudeDegrees>50.17711560241878032684326171875</LatitudeDegrees>
              <LongitudeDegrees>16.98588612489402294158935546875</LongitudeDegrees>
            </Position>
            <AltitudeMeters>646.5999755859375</AltitudeMeters>
            <DistanceMeters>7160.823426565</DistanceMeters>
          </Trackpoint>
          <Trackpoint>
            <Time>2022-08-26T21:51:24.000Z</Time>
            <Position>
              <LatitudeDegrees>50.17714552581310272216796875</LatitudeDegrees>
              <LongitudeDegrees>16.9858897291123867034912109375</LongitudeDegrees>
            </Position>
            <AltitudeMeters>646.4000244140625</AltitudeMeters>
            <DistanceMeters>7164.1642609645</DistanceMeters>
          </Trackpoint>
          <Trackpoint>
            <Time>2022-08-26T21:51:30.000Z</Time>
            <Position>
              <LatitudeDegrees>50.17717477865517139434814453125</LatitudeDegrees>
              <LongitudeDegrees>16.98590640909969806671142578125</LongitudeDegrees>
            </Position>
            <AltitudeMeters>645.79998779296875</AltitudeMeters>
            <DistanceMeters>7167.6311084874</DistanceMeters>
          </Trackpoint>
          <Trackpoint>
            <Time>2022-08-26T21:51:31.000Z</Time>
            <Position>
              <LatitudeDegrees>50.1771741919219493865966796875</LatitudeDegrees>
              <LongitudeDegrees>16.9859165512025356292724609375</LongitudeDegrees>
            </Position>
            <AltitudeMeters>645.5999755859375</AltitudeMeters>
            <DistanceMeters>7168.3610225304</DistanceMeters>
          </Trackpoint>
          <Trackpoint>
            <Time>2022-08-26T21:51:35.000Z</Time>
            <Position>
              <LatitudeDegrees>50.1771718449890613555908203125</LatitudeDegrees>
              <LongitudeDegrees>16.98595016263425350189208984375</LongitudeDegrees>
            </Position>
            <AltitudeMeters>644.4000244140625</AltitudeMeters>
            <DistanceMeters>7170.7706571818</DistanceMeters>
          </Trackpoint>
          <Trackpoint>
            <Time>2022-08-26T21:51:40.000Z</Time>
            <Position>
              <LatitudeDegrees>50.17716941423714160919189453125</LatitudeDegrees>
              <LongitudeDegrees>16.98600397445261478424072265625</LongitudeDegrees>
            </Position>
            <AltitudeMeters>643.4000244140625</AltitudeMeters>
            <DistanceMeters>7174.616598577</DistanceMeters>
          </Trackpoint>
          <Trackpoint>
            <Time>2022-08-26T21:51:41.000Z</Time>
            <Position>
              <LatitudeDegrees>50.17717042006552219390869140625</LatitudeDegrees>
              <LongitudeDegrees>16.986016295850276947021484375</LongitudeDegrees>
            </Position>
            <AltitudeMeters>643.20001220703125</AltitudeMeters>
            <DistanceMeters>7175.5080281744</DistanceMeters>
          </Trackpoint>
          <Trackpoint>
            <Time>2022-08-26T21:51:46.000Z</Time>
            <Position>
              <LatitudeDegrees>50.17716966569423675537109375</LatitudeDegrees>
              <LongitudeDegrees>16.98606633581221103668212890625</LongitudeDegrees>
            </Position>
            <AltitudeMeters>642</AltitudeMeters>
            <DistanceMeters>7179.0762781357</DistanceMeters>
          </Trackpoint>
          <Trackpoint>
            <Time>2022-08-26T21:51:50.000Z</Time>
            <Position>
              <LatitudeDegrees>50.17717863433063030242919921875</LatitudeDegrees>
              <LongitudeDegrees>16.9860885478556156158447265625</LongitudeDegrees>
            </Position>
            <AltitudeMeters>641</AltitudeMeters>
            <DistanceMeters>7180.9480873301</DistanceMeters>
          </Trackpoint>
          <Trackpoint>
            <Time>2022-08-26T21:51:51.000Z</Time>
            <Position>
              <LatitudeDegrees>50.17718039453029632568359375</LatitudeDegrees>
              <LongitudeDegrees>16.98609919287264347076416015625</LongitudeDegrees>
            </Position>
            <AltitudeMeters>640.79998779296875</AltitudeMeters>
            <DistanceMeters>7181.7316976913</DistanceMeters>
          </Trackpoint>
          <Trackpoint>
            <Time>2022-08-26T21:52:01.000Z</Time>
            <Position>
              <LatitudeDegrees>50.17717595212161540985107421875</LatitudeDegrees>
              <LongitudeDegrees>16.986211426556110382080078125</LongitudeDegrees>
            </Position>
            <AltitudeMeters>640.4000244140625</AltitudeMeters>
            <DistanceMeters>7189.7472447031</DistanceMeters>
          </Trackpoint>
          <Trackpoint>
            <Time>2022-08-26T21:52:11.000Z</Time>
            <Position>
              <LatitudeDegrees>50.17718165181577205657958984375</LatitudeDegrees>
              <LongitudeDegrees>16.98627948760986328125</LongitudeDegrees>
            </Position>
            <AltitudeMeters>640.4000244140625</AltitudeMeters>
            <DistanceMeters>7194.6408898403</DistanceMeters>
          </Trackpoint>
          <Trackpoint>
            <Time>2022-08-26T21:52:22.000Z</Time>
            <Position>
              <LatitudeDegrees>50.17715801484882831573486328125</LatitudeDegrees>
              <LongitudeDegrees>16.98643840849399566650390625</LongitudeDegrees>
            </Position>
            <AltitudeMeters>640.20001220703125</AltitudeMeters>
            <DistanceMeters>7206.2703117908</DistanceMeters>
          </Trackpoint>
          <Trackpoint>
            <Time>2022-08-26T21:52:29.000Z</Time>
            <Position>
              <LatitudeDegrees>50.17713068984448909759521484375</LatitudeDegrees>
              <LongitudeDegrees>16.98654033243656158447265625</LongitudeDegrees>
            </Position>
            <AltitudeMeters>639.79998779296875</AltitudeMeters>
            <DistanceMeters>7214.14607176</DistanceMeters>
          </Trackpoint>
          <Trackpoint>
            <Time>2022-08-26T21:52:33.000Z</Time>
            <Position>
              <LatitudeDegrees>50.17711375840008258819580078125</LatitudeDegrees>
              <LongitudeDegrees>16.986605040729045867919921875</LongitudeDegrees>
            </Position>
            <AltitudeMeters>639.4000244140625</AltitudeMeters>
            <DistanceMeters>7219.1293147022</DistanceMeters>
          </Trackpoint>
          <Trackpoint>
            <Time>2022-08-26T21:52:41.000Z</Time>
            <Position>
              <LatitudeDegrees>50.17709246836602687835693359375</LatitudeDegrees>
              <LongitudeDegrees>16.98671727441251277923583984375</LongitudeDegrees>
            </Position>
            <AltitudeMeters>638.4000244140625</AltitudeMeters>
            <DistanceMeters>7227.4732879394</DistanceMeters>
          </Trackpoint>
          <Trackpoint>
            <Time>2022-08-26T21:52:43.000Z</Time>
            <Position>
              <LatitudeDegrees>50.17709800042212009429931640625</LatitudeDegrees>
              <LongitudeDegrees>16.9867574237287044525146484375</LongitudeDegrees>
            </Position>
            <AltitudeMeters>638.4000244140625</AltitudeMeters>
            <DistanceMeters>7230.402207983</DistanceMeters>
          </Trackpoint>
          <Trackpoint>
            <Time>2022-08-26T21:52:53.000Z</Time>
            <Position>
              <LatitudeDegrees>50.17707335762679576873779296875</LatitudeDegrees>
              <LongitudeDegrees>16.986969821155071258544921875</LongitudeDegrees>
            </Position>
            <AltitudeMeters>637.79998779296875</AltitudeMeters>
            <DistanceMeters>7245.7886147803</DistanceMeters>
          </Trackpoint>
          <Trackpoint>
            <Time>2022-08-26T21:53:01.000Z</Time>
            <Position>
              <LatitudeDegrees>50.1770333759486675262451171875</LatitudeDegrees>
              <LongitudeDegrees>16.9870866648852825164794921875</LongitudeDegrees>
            </Position>
            <AltitudeMeters>637.4000244140625</AltitudeMeters>
            <DistanceMeters>7255.2321858718</DistanceMeters>
          </Trackpoint>
          <Trackpoint>
            <Time>2022-08-26T21:53:03.000Z</Time>
            <Position>
              <LatitudeDegrees>50.17701904289424419403076171875</LatitudeDegrees>
              <LongitudeDegrees>16.98710803873836994171142578125</LongitudeDegrees>
            </Position>
            <AltitudeMeters>637.4000244140625</AltitudeMeters>
            <DistanceMeters>7257.440407165</DistanceMeters>
          </Trackpoint>
          <Trackpoint>
            <Time>2022-08-26T21:53:13.000Z</Time>
            <Position>
              <LatitudeDegrees>50.17695567570626735687255859375</LatitudeDegrees>
              <LongitudeDegrees>16.98727685026824474334716796875</LongitudeDegrees>
            </Position>
            <AltitudeMeters>636.5999755859375</AltitudeMeters>
            <DistanceMeters>7271.388309047</DistanceMeters>
          </Trackpoint>
          <Trackpoint>
            <Time>2022-08-26T21:53:16.000Z</Time>
            <Position>
              <LatitudeDegrees>50.17693120054900646209716796875</LatitudeDegrees>
              <LongitudeDegrees>16.98732663877308368682861328125</LongitudeDegrees>
            </Position>
            <AltitudeMeters>636.4000244140625</AltitudeMeters>
            <DistanceMeters>7275.8636536764</DistanceMeters>
          </Trackpoint>
          <Trackpoint>
            <Time>2022-08-26T21:53:25.000Z</Time>
            <Position>
              <LatitudeDegrees>50.1769141852855682373046875</LatitudeDegrees>
              <LongitudeDegrees>16.9874859787523746490478515625</LongitudeDegrees>
            </Position>
            <AltitudeMeters>635.4000244140625</AltitudeMeters>
            <DistanceMeters>7287.3779744271</DistanceMeters>
          </Trackpoint>
          <Trackpoint>
            <Time>2022-08-26T21:53:28.000Z</Time>
            <Position>
              <LatitudeDegrees>50.176908485591411590576171875</LatitudeDegrees>
              <LongitudeDegrees>16.98755479417741298675537109375</LongitudeDegrees>
            </Position>
            <AltitudeMeters>635.20001220703125</AltitudeMeters>
            <DistanceMeters>7292.324842847</DistanceMeters>
          </Trackpoint>
          <Trackpoint>
            <Time>2022-08-26T21:53:36.000Z</Time>
            <Position>
              <LatitudeDegrees>50.17690421082079410552978515625</LatitudeDegrees>
              <LongitudeDegrees>16.98771790601313114166259765625</LongitudeDegrees>
            </Position>
            <AltitudeMeters>634.4000244140625</AltitudeMeters>
            <DistanceMeters>7303.9608630515</DistanceMeters>
          </Trackpoint>
          <Trackpoint>
            <Time>2022-08-26T21:53:40.000Z</Time>
            <Position>
              <LatitudeDegrees>50.17689884640276432037353515625</LatitudeDegrees>
              <LongitudeDegrees>16.987813375890254974365234375</LongitudeDegrees>
            </Position>
            <AltitudeMeters>634</AltitudeMeters>
            <DistanceMeters>7310.7922198027</DistanceMeters>
          </Trackpoint>
          <Trackpoint>
            <Time>2022-08-26T21:53:47.000Z</Time>
            <Position>
              <LatitudeDegrees>50.1769237406551837921142578125</LatitudeDegrees>
              <LongitudeDegrees>16.9880081713199615478515625</LongitudeDegrees>
            </Position>
            <AltitudeMeters>633.79998779296875</AltitudeMeters>
            <DistanceMeters>7324.9508813587</DistanceMeters>
          </Trackpoint>
          <Trackpoint>
            <Time>2022-08-26T21:53:59.000Z</Time>
            <Position>
              <LatitudeDegrees>50.1769678294658660888671875</LatitudeDegrees>
              <LongitudeDegrees>16.9882494024932384490966796875</LongitudeDegrees>
            </Position>
            <AltitudeMeters>633</AltitudeMeters>
            <DistanceMeters>7342.8323236049</DistanceMeters>
          </Trackpoint>
          <Trackpoint>
            <Time>2022-08-26T21:54:01.000Z</Time>
            <Position>
              <LatitudeDegrees>50.17698735930025577545166015625</LatitudeDegrees>
              <LongitudeDegrees>16.98831989429891109466552734375</LongitudeDegrees>
            </Position>
            <AltitudeMeters>633</AltitudeMeters>
            <DistanceMeters>7348.306885114</DistanceMeters>
          </Trackpoint>
          <Trackpoint>
            <Time>2022-08-26T21:54:09.000Z</Time>
            <Position>
              <LatitudeDegrees>50.1770348846912384033203125</LatitudeDegrees>
              <LongitudeDegrees>16.9885499775409698486328125</LongitudeDegrees>
            </Position>
            <AltitudeMeters>633</AltitudeMeters>
            <DistanceMeters>7365.5389782482</DistanceMeters>
          </Trackpoint>
          <Trackpoint>
            <Time>2022-08-26T21:54:20.000Z</Time>
            <Position>
              <LatitudeDegrees>50.17710118554532527923583984375</LatitudeDegrees>
              <LongitudeDegrees>16.98883370496332645416259765625</LongitudeDegrees>
            </Position>
            <AltitudeMeters>632.79998779296875</AltitudeMeters>
            <DistanceMeters>7387.0670911104</DistanceMeters>
          </Trackpoint>
          <Trackpoint>
            <Time>2022-08-26T21:54:29.000Z</Time>
            <Position>
              <LatitudeDegrees>50.17717662267386913299560546875</LatitudeDegrees>
              <LongitudeDegrees>16.98902766220271587371826171875</LongitudeDegrees>
            </Position>
            <AltitudeMeters>632.79998779296875</AltitudeMeters>
            <DistanceMeters>7403.24202248</DistanceMeters>
          </Trackpoint>
          <Trackpoint>
            <Time>2022-08-26T21:54:36.000Z</Time>
            <Position>
              <LatitudeDegrees>50.17728340812027454376220703125</LatitudeDegrees>
              <LongitudeDegrees>16.98912371881306171417236328125</LongitudeDegrees>
            </Position>
            <AltitudeMeters>632.79998779296875</AltitudeMeters>
            <DistanceMeters>7416.9584958865</DistanceMeters>
          </Trackpoint>
          <Trackpoint>
            <Time>2022-08-26T21:54:44.000Z</Time>
            <Position>
              <LatitudeDegrees>50.1773941330611705780029296875</LatitudeDegrees>
              <LongitudeDegrees>16.989185325801372528076171875</LongitudeDegrees>
            </Position>
            <AltitudeMeters>632.79998779296875</AltitudeMeters>
            <DistanceMeters>7430.0411588004</DistanceMeters>
          </Trackpoint>
          <Trackpoint>
            <Time>2022-08-26T21:54:47.000Z</Time>
            <Position>
              <LatitudeDegrees>50.17740310169756412506103515625</LatitudeDegrees>
              <LongitudeDegrees>16.9892210327088832855224609375</LongitudeDegrees>
            </Position>
            <AltitudeMeters>633</AltitudeMeters>
            <DistanceMeters>7432.7755514744</DistanceMeters>
          </Trackpoint>
          <Trackpoint>
            <Time>2022-08-26T21:54:53.000Z</Time>
            <Position>
              <LatitudeDegrees>50.17743327654898166656494140625</LatitudeDegrees>
              <LongitudeDegrees>16.98929638601839542388916015625</LongitudeDegrees>
            </Position>
            <AltitudeMeters>633.20001220703125</AltitudeMeters>
            <DistanceMeters>7439.1103490021</DistanceMeters>
          </Trackpoint>
          <Trackpoint>
            <Time>2022-08-26T21:55:05.000Z</Time>
            <Position>
              <LatitudeDegrees>50.17750821076333522796630859375</LatitudeDegrees>
              <LongitudeDegrees>16.98944843374192714691162109375</LongitudeDegrees>
            </Position>
            <AltitudeMeters>633.79998779296875</AltitudeMeters>
            <DistanceMeters>7452.7859445368</DistanceMeters>
          </Trackpoint>
          <Trackpoint>
            <Time>2022-08-26T21:55:16.000Z</Time>
            <Position>
              <LatitudeDegrees>50.17761063762009143829345703125</LatitudeDegrees>
              <LongitudeDegrees>16.98964943177998065948486328125</LongitudeDegrees>
            </Position>
            <AltitudeMeters>634.20001220703125</AltitudeMeters>
            <DistanceMeters>7471.0953016502</DistanceMeters>
          </Trackpoint>
          <Trackpoint>
            <Time>2022-08-26T21:55:24.000Z</Time>
            <Position>
              <LatitudeDegrees>50.17768959514796733856201171875</LatitudeDegrees>
              <LongitudeDegrees>16.98979276232421398162841796875</LongitudeDegrees>
            </Position>
            <AltitudeMeters>634.5999755859375</AltitudeMeters>
            <DistanceMeters>7484.5713495636</DistanceMeters>
          </Trackpoint>
          <Trackpoint>
            <Time>2022-08-26T21:55:25.000Z</Time>
            <Position>
              <LatitudeDegrees>50.17770049162209033966064453125</LatitudeDegrees>
              <LongitudeDegrees>16.98981421999633312225341796875</LongitudeDegrees>
            </Position>
            <AltitudeMeters>634.79998779296875</AltitudeMeters>
            <DistanceMeters>7486.5234490128</DistanceMeters>
          </Trackpoint>
          <Trackpoint>
            <Time>2022-08-26T21:55:34.000Z</Time>
            <Position>
              <LatitudeDegrees>50.1777703128755092620849609375</LatitudeDegrees>
              <LongitudeDegrees>16.9899398647248744964599609375</LongitudeDegrees>
            </Position>
            <AltitudeMeters>635.4000244140625</AltitudeMeters>
            <DistanceMeters>7498.3808640022</DistanceMeters>
          </Trackpoint>
          <Trackpoint>
            <Time>2022-08-26T21:55:43.000Z</Time>
            <Position>
              <LatitudeDegrees>50.1778011582791805267333984375</LatitudeDegrees>
              <LongitudeDegrees>16.99000750668346881866455078125</LongitudeDegrees>
            </Position>
            <AltitudeMeters>635.5999755859375</AltitudeMeters>
            <DistanceMeters>7504.3000444018</DistanceMeters>
          </Trackpoint>
          <Trackpoint>
            <Time>2022-08-26T21:55:50.000Z</Time>
            <Position>
              <LatitudeDegrees>50.1777837239205837249755859375</LatitudeDegrees>
              <LongitudeDegrees>16.99005109257996082305908203125</LongitudeDegrees>
            </Position>
            <AltitudeMeters>635.5999755859375</AltitudeMeters>
            <DistanceMeters>7507.9644302538</DistanceMeters>
          </Trackpoint>
          <Trackpoint>
            <Time>2022-08-26T21:55:51.000Z</Time>
            <Position>
              <LatitudeDegrees>50.17777877859771251678466796875</LatitudeDegrees>
              <LongitudeDegrees>16.9900520145893096923828125</LongitudeDegrees>
            </Position>
            <AltitudeMeters>635.5999755859375</AltitudeMeters>
            <DistanceMeters>7508.518526454</DistanceMeters>
          </Trackpoint>
          <Trackpoint>
            <Time>2022-08-26T21:56:01.000Z</Time>
            <Position>
              <LatitudeDegrees>50.17771775834262371063232421875</LatitudeDegrees>
              <LongitudeDegrees>16.98998571373522281646728515625</LongitudeDegrees>
            </Position>
            <AltitudeMeters>636.20001220703125</AltitudeMeters>
            <DistanceMeters>7516.7924015752</DistanceMeters>
          </Trackpoint>
          <Trackpoint>
            <Time>2022-08-26T21:56:10.000Z</Time>
            <Position>
              <LatitudeDegrees>50.17769378609955310821533203125</LatitudeDegrees>
              <LongitudeDegrees>16.9898771680891513824462890625</LongitudeDegrees>
            </Position>
            <AltitudeMeters>636.5999755859375</AltitudeMeters>
            <DistanceMeters>7524.9768445655</DistanceMeters>
          </Trackpoint>
          <Trackpoint>
            <Time>2022-08-26T21:56:13.000Z</Time>
            <Position>
              <LatitudeDegrees>50.17769596539437770843505859375</LatitudeDegrees>
              <LongitudeDegrees>16.989867277443408966064453125</LongitudeDegrees>
            </Position>
            <AltitudeMeters>637</AltitudeMeters>
            <DistanceMeters>7525.7129183299</DistanceMeters>
          </Trackpoint>
          <Trackpoint>
            <Time>2022-08-26T21:56:19.000Z</Time>
            <Position>
              <LatitudeDegrees>50.17770250327885150909423828125</LatitudeDegrees>
              <LongitudeDegrees>16.98990122415125370025634765625</LongitudeDegrees>
            </Position>
            <AltitudeMeters>637.79998779296875</AltitudeMeters>
            <DistanceMeters>7528.2396284529</DistanceMeters>
          </Trackpoint>
          <Trackpoint>
            <Time>2022-08-26T21:56:25.000Z</Time>
            <Position>
              <LatitudeDegrees>50.17774499952793121337890625</LatitudeDegrees>
              <LongitudeDegrees>16.99002812616527080535888671875</LongitudeDegrees>
            </Position>
            <AltitudeMeters>637.79998779296875</AltitudeMeters>
            <DistanceMeters>7538.4469308395</DistanceMeters>
          </Trackpoint>
          <Trackpoint>
            <Time>2022-08-26T21:56:37.000Z</Time>
            <Position>
              <LatitudeDegrees>50.17774407751858234405517578125</LatitudeDegrees>
              <LongitudeDegrees>16.99006383307278156280517578125</LongitudeDegrees>
            </Position>
            <AltitudeMeters>637.79998779296875</AltitudeMeters>
            <DistanceMeters>7540.9932212563</DistanceMeters>
          </Trackpoint>
          <Trackpoint>
            <Time>2022-08-26T21:56:47.000Z</Time>
            <Position>
              <LatitudeDegrees>50.17761734314262866973876953125</LatitudeDegrees>
              <LongitudeDegrees>16.99001605622470378875732421875</LongitudeDegrees>
            </Position>
            <AltitudeMeters>638.20001220703125</AltitudeMeters>
            <DistanceMeters>7555.5043326058</DistanceMeters>
          </Trackpoint>
          <Trackpoint>
            <Time>2022-08-26T21:56:52.000Z</Time>
            <Position>
              <LatitudeDegrees>50.17757878638803958892822265625</LatitudeDegrees>
              <LongitudeDegrees>16.989987306296825408935546875</LongitudeDegrees>
            </Position>
            <AltitudeMeters>638.79998779296875</AltitudeMeters>
            <DistanceMeters>7560.2604172867</DistanceMeters>
          </Trackpoint>
          <Trackpoint>
            <Time>2022-08-26T21:56:57.000Z</Time>
            <Position>
              <LatitudeDegrees>50.1775416545569896697998046875</LatitudeDegrees>
              <LongitudeDegrees>16.9899608194828033447265625</LongitudeDegrees>
            </Position>
            <AltitudeMeters>639.20001220703125</AltitudeMeters>
            <DistanceMeters>7564.8038471311</DistanceMeters>
          </Trackpoint>
          <Trackpoint>
            <Time>2022-08-26T21:57:05.000Z</Time>
            <Position>
              <LatitudeDegrees>50.17749932594597339630126953125</LatitudeDegrees>
              <LongitudeDegrees>16.9899231009185314178466796875</LongitudeDegrees>
            </Position>
            <AltitudeMeters>639.79998779296875</AltitudeMeters>
            <DistanceMeters>7570.227866771</DistanceMeters>
          </Trackpoint>
          <Trackpoint>
            <Time>2022-08-26T21:57:06.000Z</Time>
            <Position>
              <LatitudeDegrees>50.177491866052150726318359375</LatitudeDegrees>
              <LongitudeDegrees>16.98992201127111911773681640625</LongitudeDegrees>
            </Position>
            <AltitudeMeters>640</AltitudeMeters>
            <DistanceMeters>7571.0617228055</DistanceMeters>
          </Trackpoint>
          <Trackpoint>
            <Time>2022-08-26T21:57:15.000Z</Time>
            <Position>
              <LatitudeDegrees>50.17740393988788127899169921875</LatitudeDegrees>
              <LongitudeDegrees>16.98991547338664531707763671875</LongitudeDegrees>
            </Position>
            <AltitudeMeters>640.79998779296875</AltitudeMeters>
            <DistanceMeters>7580.8591567858</DistanceMeters>
          </Trackpoint>
          <Trackpoint>
            <Time>2022-08-26T21:57:23.000Z</Time>
            <Position>
              <LatitudeDegrees>50.17734576947987079620361328125</LatitudeDegrees>
              <LongitudeDegrees>16.989906840026378631591796875</LongitudeDegrees>
            </Position>
            <AltitudeMeters>641.5999755859375</AltitudeMeters>
            <DistanceMeters>7587.362761791</DistanceMeters>
          </Trackpoint>
          <Trackpoint>
            <Time>2022-08-26T21:57:30.000Z</Time>
            <Position>
              <LatitudeDegrees>50.177285671234130859375</LatitudeDegrees>
              <LongitudeDegrees>16.98990172706544399261474609375</LongitudeDegrees>
            </Position>
            <AltitudeMeters>642</AltitudeMeters>
            <DistanceMeters>7594.0619766649</DistanceMeters>
          </Trackpoint>
          <Trackpoint>
            <Time>2022-08-26T21:57:31.000Z</Time>
            <Position>
              <LatitudeDegrees>50.17727703787386417388916015625</LatitudeDegrees>
              <LongitudeDegrees>16.9899026490747928619384765625</LongitudeDegrees>
            </Position>
            <AltitudeMeters>642.20001220703125</AltitudeMeters>
            <DistanceMeters>7595.0216994359</DistanceMeters>
          </Trackpoint>
          <Trackpoint>
            <Time>2022-08-26T21:57:39.000Z</Time>
            <Position>
              <LatitudeDegrees>50.17720319330692291259765625</LatitudeDegrees>
              <LongitudeDegrees>16.9899339973926544189453125</LongitudeDegrees>
            </Position>
            <AltitudeMeters>643.20001220703125</AltitudeMeters>
            <DistanceMeters>7603.5391893332</DistanceMeters>
          </Trackpoint>
          <Trackpoint>
            <Time>2022-08-26T21:57:46.000Z</Time>
            <Position>
              <LatitudeDegrees>50.17710755579173564910888671875</LatitudeDegrees>
              <LongitudeDegrees>16.98994916863739490509033203125</LongitudeDegrees>
            </Position>
            <AltitudeMeters>644.20001220703125</AltitudeMeters>
            <DistanceMeters>7614.2388766724</DistanceMeters>
          </Trackpoint>
          <Trackpoint>
            <Time>2022-08-26T21:57:50.000Z</Time>
            <Position>
              <LatitudeDegrees>50.177070759236812591552734375</LatitudeDegrees>
              <LongitudeDegrees>16.98994799517095088958740234375</LongitudeDegrees>
            </Position>
            <AltitudeMeters>644.5999755859375</AltitudeMeters>
            <DistanceMeters>7618.3349579745</DistanceMeters>
          </Trackpoint>
          <Trackpoint>
            <Time>2022-08-26T21:57:55.000Z</Time>
            <Position>
              <LatitudeDegrees>50.1770112477242946624755859375</LatitudeDegrees>
              <LongitudeDegrees>16.989967525005340576171875</LongitudeDegrees>
            </Position>
            <AltitudeMeters>645.20001220703125</AltitudeMeters>
            <DistanceMeters>7625.1032352885</DistanceMeters>
          </Trackpoint>
          <Trackpoint>
            <Time>2022-08-26T21:57:59.000Z</Time>
            <Position>
              <LatitudeDegrees>50.1769624650478363037109375</LatitudeDegrees>
              <LongitudeDegrees>16.989987976849079132080078125</LongitudeDegrees>
            </Position>
            <AltitudeMeters>645.5999755859375</AltitudeMeters>
            <DistanceMeters>7630.7258945909</DistanceMeters>
          </Trackpoint>
          <Trackpoint>
            <Time>2022-08-26T21:58:04.000Z</Time>
            <Position>
              <LatitudeDegrees>50.1769150234758853912353515625</LatitudeDegrees>
              <LongitudeDegrees>16.990009434521198272705078125</LongitudeDegrees>
            </Position>
            <AltitudeMeters>646.4000244140625</AltitudeMeters>
            <DistanceMeters>7636.2226787218</DistanceMeters>
          </Trackpoint>
          <Trackpoint>
            <Time>2022-08-26T21:58:09.000Z</Time>
            <Position>
              <LatitudeDegrees>50.17686598934233188629150390625</LatitudeDegrees>
              <LongitudeDegrees>16.99005427770316600799560546875</LongitudeDegrees>
            </Position>
            <AltitudeMeters>647.5999755859375</AltitudeMeters>
            <DistanceMeters>7642.5474900744</DistanceMeters>
          </Trackpoint>
          <Trackpoint>
            <Time>2022-08-26T21:58:16.000Z</Time>
            <Position>
              <LatitudeDegrees>50.17682240344583988189697265625</LatitudeDegrees>
              <LongitudeDegrees>16.9900842010974884033203125</LongitudeDegrees>
            </Position>
            <AltitudeMeters>648.5999755859375</AltitudeMeters>
            <DistanceMeters>7647.8468803923</DistanceMeters>
          </Trackpoint>
          <Trackpoint>
            <Time>2022-08-26T21:58:18.000Z</Time>
            <Position>
              <LatitudeDegrees>50.176803208887577056884765625</LatitudeDegrees>
              <LongitudeDegrees>16.99008998461067676544189453125</LongitudeDegrees>
            </Position>
            <AltitudeMeters>648.79998779296875</AltitudeMeters>
            <DistanceMeters>7650.0221413092</DistanceMeters>
          </Trackpoint>
          <Trackpoint>
            <Time>2022-08-26T21:58:24.000Z</Time>
            <Position>
              <LatitudeDegrees>50.17675048671662807464599609375</LatitudeDegrees>
              <LongitudeDegrees>16.99010272510349750518798828125</LongitudeDegrees>
            </Position>
            <AltitudeMeters>649.5999755859375</AltitudeMeters>
            <DistanceMeters>7655.9603606141</DistanceMeters>
          </Trackpoint>
          <Trackpoint>
            <Time>2022-08-26T21:58:29.000Z</Time>
            <Position>
              <LatitudeDegrees>50.17671008594334125518798828125</LatitudeDegrees>
              <LongitudeDegrees>16.99010574258863925933837890625</LongitudeDegrees>
            </Position>
            <AltitudeMeters>650.4000244140625</AltitudeMeters>
            <DistanceMeters>7660.4618594245</DistanceMeters>
          </Trackpoint>
          <Trackpoint>
            <Time>2022-08-26T21:58:31.000Z</Time>
            <Position>
              <LatitudeDegrees>50.17669198103249073028564453125</LatitudeDegrees>
              <LongitudeDegrees>16.9901098497211933135986328125</LongitudeDegrees>
            </Position>
            <AltitudeMeters>650.79998779296875</AltitudeMeters>
            <DistanceMeters>7662.4999553899</DistanceMeters>
          </Trackpoint>
          <Trackpoint>
            <Time>2022-08-26T21:58:37.000Z</Time>
            <Position>
              <LatitudeDegrees>50.17663858830928802490234375</LatitudeDegrees>
              <LongitudeDegrees>16.990131475031375885009765625</LongitudeDegrees>
            </Position>
            <AltitudeMeters>652</AltitudeMeters>
            <DistanceMeters>7668.6400343107</DistanceMeters>
          </Trackpoint>
          <Trackpoint>
            <Time>2022-08-26T21:58:39.000Z</Time>
            <Position>
              <LatitudeDegrees>50.176616124808788299560546875</LatitudeDegrees>
              <LongitudeDegrees>16.99015217833220958709716796875</LongitudeDegrees>
            </Position>
            <AltitudeMeters>652.20001220703125</AltitudeMeters>
            <DistanceMeters>7671.5426299288</DistanceMeters>
          </Trackpoint>
          <Trackpoint>
            <Time>2022-08-26T21:58:44.000Z</Time>
            <Position>
              <LatitudeDegrees>50.17656122334301471710205078125</LatitudeDegrees>
              <LongitudeDegrees>16.99017866514623165130615234375</LongitudeDegrees>
            </Position>
            <AltitudeMeters>653.20001220703125</AltitudeMeters>
            <DistanceMeters>7677.9384290416</DistanceMeters>
          </Trackpoint>
          <Trackpoint>
            <Time>2022-08-26T21:58:48.000Z</Time>
            <Position>
              <LatitudeDegrees>50.17651881091296672821044921875</LatitudeDegrees>
              <LongitudeDegrees>16.990208588540554046630859375</LongitudeDegrees>
            </Position>
            <AltitudeMeters>653.5999755859375</AltitudeMeters>
            <DistanceMeters>7683.1189104084</DistanceMeters>
          </Trackpoint>
          <Trackpoint>
            <Time>2022-08-26T21:58:52.000Z</Time>
            <Position>
              <LatitudeDegrees>50.17648980952799320220947265625</LatitudeDegrees>
              <LongitudeDegrees>16.9902389310300350189208984375</LongitudeDegrees>
            </Position>
            <AltitudeMeters>654.20001220703125</AltitudeMeters>
            <DistanceMeters>7687.0045619386</DistanceMeters>
          </Trackpoint>
          <Trackpoint>
            <Time>2022-08-26T21:58:58.000Z</Time>
            <Position>
              <LatitudeDegrees>50.17648109234869480133056640625</LatitudeDegrees>
              <LongitudeDegrees>16.99031193740665912628173828125</LongitudeDegrees>
            </Position>
            <AltitudeMeters>655</AltitudeMeters>
            <DistanceMeters>7692.2979849526</DistanceMeters>
          </Trackpoint>
          <Trackpoint>
            <Time>2022-08-26T21:59:00.000Z</Time>
            <Position>
              <LatitudeDegrees>50.17646558582782745361328125</LatitudeDegrees>
              <LongitudeDegrees>16.99035116471350193023681640625</LongitudeDegrees>
            </Position>
            <AltitudeMeters>655.20001220703125</AltitudeMeters>
            <DistanceMeters>7695.5843159504</DistanceMeters>
          </Trackpoint>
          <Trackpoint>
            <Time>2022-08-26T21:59:07.000Z</Time>
            <Position>
              <LatitudeDegrees>50.1764206588268280029296875</LatitudeDegrees>
              <LongitudeDegrees>16.9904172979295253753662109375</LongitudeDegrees>
            </Position>
            <AltitudeMeters>656</AltitudeMeters>
            <DistanceMeters>7702.456528098</DistanceMeters>
          </Trackpoint>
          <Trackpoint>
            <Time>2022-08-26T21:59:10.000Z</Time>
            <Position>
              <LatitudeDegrees>50.1763799227774143218994140625</LatitudeDegrees>
              <LongitudeDegrees>16.99044789187610149383544921875</LongitudeDegrees>
            </Position>
            <AltitudeMeters>656.20001220703125</AltitudeMeters>
            <DistanceMeters>7707.488459571</DistanceMeters>
          </Trackpoint>
          <Trackpoint>
            <Time>2022-08-26T21:59:17.000Z</Time>
            <Position>
              <LatitudeDegrees>50.1762840338051319122314453125</LatitudeDegrees>
              <LongitudeDegrees>16.9904773123562335968017578125</LongitudeDegrees>
            </Position>
            <AltitudeMeters>657.4000244140625</AltitudeMeters>
            <DistanceMeters>7718.3651792738</DistanceMeters>
          </Trackpoint>
          <Trackpoint>
            <Time>2022-08-26T21:59:24.000Z</Time>
            <Position>
              <LatitudeDegrees>50.17620197497308254241943359375</LatitudeDegrees>
              <LongitudeDegrees>16.99048225767910480499267578125</LongitudeDegrees>
            </Position>
            <AltitudeMeters>658.5999755859375</AltitudeMeters>
            <DistanceMeters>7727.5055439962</DistanceMeters>
          </Trackpoint>
          <Trackpoint>
            <Time>2022-08-26T21:59:28.000Z</Time>
            <Position>
              <LatitudeDegrees>50.17616190947592258453369140625</LatitudeDegrees>
              <LongitudeDegrees>16.990484185516834259033203125</LongitudeDegrees>
            </Position>
            <AltitudeMeters>659.4000244140625</AltitudeMeters>
            <DistanceMeters>7731.9667420957</DistanceMeters>
          </Trackpoint>
          <Trackpoint>
            <Time>2022-08-26T21:59:32.000Z</Time>
            <Position>
              <LatitudeDegrees>50.1761301420629024505615234375</LatitudeDegrees>
              <LongitudeDegrees>16.99047957547008991241455078125</LongitudeDegrees>
            </Position>
            <AltitudeMeters>660.4000244140625</AltitudeMeters>
            <DistanceMeters>7735.5172331484</DistanceMeters>
          </Trackpoint>
          <Trackpoint>
            <Time>2022-08-26T21:59:39.000Z</Time>
            <Position>
              <LatitudeDegrees>50.17607457004487514495849609375</LatitudeDegrees>
              <LongitudeDegrees>16.99047890491783618927001953125</LongitudeDegrees>
            </Position>
            <AltitudeMeters>661.5999755859375</AltitudeMeters>
            <DistanceMeters>7741.7020050777</DistanceMeters>
          </Trackpoint>
          <Trackpoint>
            <Time>2022-08-26T21:59:47.000Z</Time>
            <Position>
              <LatitudeDegrees>50.17601237632334232330322265625</LatitudeDegrees>
              <LongitudeDegrees>16.99049851857125759124755859375</LongitudeDegrees>
            </Position>
            <AltitudeMeters>662.5999755859375</AltitudeMeters>
            <DistanceMeters>7748.7647341732</DistanceMeters>
          </Trackpoint>
          <Trackpoint>
            <Time>2022-08-26T21:59:49.000Z</Time>
            <Position>
              <LatitudeDegrees>50.17599846236407756805419921875</LatitudeDegrees>
              <LongitudeDegrees>16.9905118457973003387451171875</LongitudeDegrees>
            </Position>
            <AltitudeMeters>663</AltitudeMeters>
            <DistanceMeters>7750.5827022638</DistanceMeters>
          </Trackpoint>
          <Trackpoint>
            <Time>2022-08-26T21:59:53.000Z</Time>
            <Position>
              <LatitudeDegrees>50.17597013153135776519775390625</LatitudeDegrees>
              <LongitudeDegrees>16.99053405784070491790771484375</LongitudeDegrees>
            </Position>
            <AltitudeMeters>663.79998779296875</AltitudeMeters>
            <DistanceMeters>7754.1115087782</DistanceMeters>
          </Trackpoint>
          <Trackpoint>
            <Time>2022-08-26T21:59:57.000Z</Time>
            <Position>
              <LatitudeDegrees>50.1759383641183376312255859375</LatitudeDegrees>
              <LongitudeDegrees>16.9905648194253444671630859375</LongitudeDegrees>
            </Position>
            <AltitudeMeters>664.4000244140625</AltitudeMeters>
            <DistanceMeters>7758.2721164914</DistanceMeters>
          </Trackpoint>
          <Trackpoint>
            <Time>2022-08-26T21:59:59.000Z</Time>
            <Position>
              <LatitudeDegrees>50.175920762121677398681640625</LatitudeDegrees>
              <LongitudeDegrees>16.990588121116161346435546875</LongitudeDegrees>
            </Position>
            <AltitudeMeters>664.79998779296875</AltitudeMeters>
            <DistanceMeters>7760.8395969303</DistanceMeters>
          </Trackpoint>
          <Trackpoint>
            <Time>2022-08-26T22:00:03.000Z</Time>
            <Position>
              <LatitudeDegrees>50.17589067108929157257080078125</LatitudeDegrees>
              <LongitudeDegrees>16.99062340892851352691650390625</LongitudeDegrees>
            </Position>
            <AltitudeMeters>665.79998779296875</AltitudeMeters>
            <DistanceMeters>7765.0283244854</DistanceMeters>
          </Trackpoint>
          <Trackpoint>
            <Time>2022-08-26T22:00:09.000Z</Time>
            <Position>
              <LatitudeDegrees>50.1758458279073238372802734375</LatitudeDegrees>
              <LongitudeDegrees>16.99065961875021457672119140625</LongitudeDegrees>
            </Position>
            <AltitudeMeters>666.79998779296875</AltitudeMeters>
            <DistanceMeters>7770.6469673151</DistanceMeters>
          </Trackpoint>
          <Trackpoint>
            <Time>2022-08-26T22:00:10.000Z</Time>
            <Position>
              <LatitudeDegrees>50.1758411340415477752685546875</LatitudeDegrees>
              <LongitudeDegrees>16.99066615663468837738037109375</LongitudeDegrees>
            </Position>
            <AltitudeMeters>667</AltitudeMeters>
            <DistanceMeters>7771.3452682015</DistanceMeters>
          </Trackpoint>
          <Trackpoint>
            <Time>2022-08-26T22:00:15.000Z</Time>
            <Position>
              <LatitudeDegrees>50.17581607215106487274169921875</LatitudeDegrees>
              <LongitudeDegrees>16.990680657327175140380859375</LongitudeDegrees>
            </Position>
            <AltitudeMeters>668</AltitudeMeters>
            <DistanceMeters>7774.3200749036</DistanceMeters>
          </Trackpoint>
          <Trackpoint>
            <Time>2022-08-26T22:00:20.000Z</Time>
            <Position>
              <LatitudeDegrees>50.175791680812835693359375</LatitudeDegrees>
              <LongitudeDegrees>16.9907032884657382965087890625</LongitudeDegrees>
            </Position>
            <AltitudeMeters>668.79998779296875</AltitudeMeters>
            <DistanceMeters>7777.4789092568</DistanceMeters>
          </Trackpoint>
          <Trackpoint>
            <Time>2022-08-26T22:00:26.000Z</Time>
            <Position>
              <LatitudeDegrees>50.1757635176181793212890625</LatitudeDegrees>
              <LongitudeDegrees>16.99073530733585357666015625</LongitudeDegrees>
            </Position>
            <AltitudeMeters>670</AltitudeMeters>
            <DistanceMeters>7781.3564184159</DistanceMeters>
          </Trackpoint>
          <Trackpoint>
            <Time>2022-08-26T22:00:30.000Z</Time>
            <Position>
              <LatitudeDegrees>50.1757449097931385040283203125</LatitudeDegrees>
              <LongitudeDegrees>16.99075282551348209381103515625</LongitudeDegrees>
            </Position>
            <AltitudeMeters>670.79998779296875</AltitudeMeters>
            <DistanceMeters>7783.7754036444</DistanceMeters>
          </Trackpoint>
          <Trackpoint>
            <Time>2022-08-26T22:00:32.000Z</Time>
            <Position>
              <LatitudeDegrees>50.1757361926138401031494140625</LatitudeDegrees>
              <LongitudeDegrees>16.99076321907341480255126953125</LongitudeDegrees>
            </Position>
            <AltitudeMeters>671.20001220703125</AltitudeMeters>
            <DistanceMeters>7784.9923393604</DistanceMeters>
          </Trackpoint>
          <Trackpoint>
            <Time>2022-08-26T22:00:38.000Z</Time>
            <Position>
              <LatitudeDegrees>50.175704844295978546142578125</LatitudeDegrees>
              <LongitudeDegrees>16.9908125884830951690673828125</LongitudeDegrees>
            </Position>
            <AltitudeMeters>672.4000244140625</AltitudeMeters>
            <DistanceMeters>7789.9483264394</DistanceMeters>
          </Trackpoint>
          <Trackpoint>
            <Time>2022-08-26T22:00:42.000Z</Time>
            <Position>
              <LatitudeDegrees>50.17568112351000308990478515625</LatitudeDegrees>
              <LongitudeDegrees>16.990836560726165771484375</LongitudeDegrees>
            </Position>
            <AltitudeMeters>673.20001220703125</AltitudeMeters>
            <DistanceMeters>7793.0928349394</DistanceMeters>
          </Trackpoint>
          <Trackpoint>
            <Time>2022-08-26T22:00:44.000Z</Time>
            <Position>
              <LatitudeDegrees>50.17566218040883541107177734375</LatitudeDegrees>
              <LongitudeDegrees>16.9908544979989528656005859375</LongitudeDegrees>
            </Position>
            <AltitudeMeters>673.4000244140625</AltitudeMeters>
            <DistanceMeters>7795.559871932</DistanceMeters>
          </Trackpoint>
          <Trackpoint>
            <Time>2022-08-26T22:00:50.000Z</Time>
            <Position>
              <LatitudeDegrees>50.17562999390065670013427734375</LatitudeDegrees>
              <LongitudeDegrees>16.99088609777390956878662109375</LongitudeDegrees>
            </Position>
            <AltitudeMeters>674.4000244140625</AltitudeMeters>
            <DistanceMeters>7799.7914959215</DistanceMeters>
          </Trackpoint>
          <Trackpoint>
            <Time>2022-08-26T22:00:52.000Z</Time>
            <Position>
              <LatitudeDegrees>50.17562328837811946868896484375</LatitudeDegrees>
              <LongitudeDegrees>16.99089582078158855438232421875</LongitudeDegrees>
            </Position>
            <AltitudeMeters>674.79998779296875</AltitudeMeters>
            <DistanceMeters>7800.8149649574</DistanceMeters>
          </Trackpoint>
          <Trackpoint>
            <Time>2022-08-26T22:00:55.000Z</Time>
            <Position>
              <LatitudeDegrees>50.17560803331434726715087890625</LatitudeDegrees>
              <LongitudeDegrees>16.9909111596643924713134765625</LongitudeDegrees>
            </Position>
            <AltitudeMeters>675.5999755859375</AltitudeMeters>
            <DistanceMeters>7802.8352606172</DistanceMeters>
          </Trackpoint>
          <Trackpoint>
            <Time>2022-08-26T22:01:01.000Z</Time>
            <Position>
              <LatitudeDegrees>50.17558389343321323394775390625</LatitudeDegrees>
              <LongitudeDegrees>16.99095030315220355987548828125</LongitudeDegrees>
            </Position>
            <AltitudeMeters>676.5999755859375</AltitudeMeters>
            <DistanceMeters>7806.7081093069</DistanceMeters>
          </Trackpoint>
          <Trackpoint>
            <Time>2022-08-26T22:01:03.000Z</Time>
            <Position>
              <LatitudeDegrees>50.17557417042553424835205078125</LatitudeDegrees>
              <LongitudeDegrees>16.99096539057791233062744140625</LongitudeDegrees>
            </Position>
            <AltitudeMeters>677</AltitudeMeters>
            <DistanceMeters>7808.2344643516</DistanceMeters>
          </Trackpoint>
          <Trackpoint>
            <Time>2022-08-26T22:01:07.000Z</Time>
            <Position>
              <LatitudeDegrees>50.17555229365825653076171875</LatitudeDegrees>
              <LongitudeDegrees>16.9909876026213169097900390625</LongitudeDegrees>
            </Position>
            <AltitudeMeters>677.79998779296875</AltitudeMeters>
            <DistanceMeters>7811.1401693392</DistanceMeters>
          </Trackpoint>
          <Trackpoint>
            <Time>2022-08-26T22:01:13.000Z</Time>
            <Position>
              <LatitudeDegrees>50.175515748560428619384765625</LatitudeDegrees>
              <LongitudeDegrees>16.991013921797275543212890625</LongitudeDegrees>
            </Position>
            <AltitudeMeters>678.79998779296875</AltitudeMeters>
            <DistanceMeters>7815.6195476285</DistanceMeters>
          </Trackpoint>
          <Trackpoint>
            <Time>2022-08-26T22:01:14.000Z</Time>
            <Position>
              <LatitudeDegrees>50.17551130615174770355224609375</LatitudeDegrees>
              <LongitudeDegrees>16.991013251245021820068359375</LongitudeDegrees>
            </Position>
            <AltitudeMeters>679</AltitudeMeters>
            <DistanceMeters>7816.1040906994</DistanceMeters>
          </Trackpoint>
          <Trackpoint>
            <Time>2022-08-26T22:01:18.000Z</Time>
            <Position>
              <LatitudeDegrees>50.1754944585263729095458984375</LatitudeDegrees>
              <LongitudeDegrees>16.99103278107941150665283203125</LongitudeDegrees>
            </Position>
            <AltitudeMeters>680</AltitudeMeters>
            <DistanceMeters>7818.4395063309</DistanceMeters>
          </Trackpoint>
          <Trackpoint>
            <Time>2022-08-26T22:01:23.000Z</Time>
            <Position>
              <LatitudeDegrees>50.17547274939715862274169921875</LatitudeDegrees>
              <LongitudeDegrees>16.991060860455036163330078125</LongitudeDegrees>
            </Position>
            <AltitudeMeters>681</AltitudeMeters>
            <DistanceMeters>7821.5768273735</DistanceMeters>
          </Trackpoint>
          <Trackpoint>
            <Time>2022-08-26T22:01:24.000Z</Time>
            <Position>
              <LatitudeDegrees>50.17546243965625762939453125</LatitudeDegrees>
              <LongitudeDegrees>16.991072259843349456787109375</LongitudeDegrees>
            </Position>
            <AltitudeMeters>681.20001220703125</AltitudeMeters>
            <DistanceMeters>7822.9830943258</DistanceMeters>
          </Trackpoint>
          <Trackpoint>
            <Time>2022-08-26T22:01:30.000Z</Time>
            <Position>
              <LatitudeDegrees>50.17542799003422260284423828125</LatitudeDegrees>
              <LongitudeDegrees>16.99110587127506732940673828125</LongitudeDegrees>
            </Position>
            <AltitudeMeters>682.20001220703125</AltitudeMeters>
            <DistanceMeters>7827.5046087921</DistanceMeters>
          </Trackpoint>
          <Trackpoint>
            <Time>2022-08-26T22:01:33.000Z</Time>
            <Position>
              <LatitudeDegrees>50.17541147768497467041015625</LatitudeDegrees>
              <LongitudeDegrees>16.9911287538707256317138671875</LongitudeDegrees>
            </Position>
            <AltitudeMeters>682.5999755859375</AltitudeMeters>
            <DistanceMeters>7829.9624780199</DistanceMeters>
          </Trackpoint>
          <Trackpoint>
            <Time>2022-08-26T22:01:36.000Z</Time>
            <Position>
              <LatitudeDegrees>50.175397731363773345947265625</LatitudeDegrees>
              <LongitudeDegrees>16.99115641415119171142578125</LongitudeDegrees>
            </Position>
            <AltitudeMeters>683.4000244140625</AltitudeMeters>
            <DistanceMeters>7832.458625601</DistanceMeters>
          </Trackpoint>
          <Trackpoint>
            <Time>2022-08-26T22:01:42.000Z</Time>
            <Position>
              <LatitudeDegrees>50.17536009661853313446044921875</LatitudeDegrees>
              <LongitudeDegrees>16.99122615158557891845703125</LongitudeDegrees>
            </Position>
            <AltitudeMeters>684.4000244140625</AltitudeMeters>
            <DistanceMeters>7838.9594530681</DistanceMeters>
          </Trackpoint>
          <Trackpoint>
            <Time>2022-08-26T22:01:45.000Z</Time>
            <Position>
              <LatitudeDegrees>50.1753311790525913238525390625</LatitudeDegrees>
              <LongitudeDegrees>16.991264708340167999267578125</LongitudeDegrees>
            </Position>
            <AltitudeMeters>685</AltitudeMeters>
            <DistanceMeters>7843.1921438984</DistanceMeters>
          </Trackpoint>
          <Trackpoint>
            <Time>2022-08-26T22:01:47.000Z</Time>
            <Position>
              <LatitudeDegrees>50.17532028257846832275390625</LatitudeDegrees>
              <LongitudeDegrees>16.99128339998424053192138671875</LongitudeDegrees>
            </Position>
            <AltitudeMeters>685.4000244140625</AltitudeMeters>
            <DistanceMeters>7844.9951490342</DistanceMeters>
          </Trackpoint>
          <Trackpoint>
            <Time>2022-08-26T22:01:51.000Z</Time>
            <Position>
              <LatitudeDegrees>50.17529019154608249664306640625</LatitudeDegrees>
              <LongitudeDegrees>16.99132899753749370574951171875</LongitudeDegrees>
            </Position>
            <AltitudeMeters>686.4000244140625</AltitudeMeters>
            <DistanceMeters>7849.6630794599</DistanceMeters>
          </Trackpoint>
          <Trackpoint>
            <Time>2022-08-26T22:01:58.000Z</Time>
            <Position>
              <LatitudeDegrees>50.17522363923490047454833984375</LatitudeDegrees>
              <LongitudeDegrees>16.99142086319625377655029296875</LongitudeDegrees>
            </Position>
            <AltitudeMeters>687.4000244140625</AltitudeMeters>
            <DistanceMeters>7859.550425291</DistanceMeters>
          </Trackpoint>
          <Trackpoint>
            <Time>2022-08-26T22:02:04.000Z</Time>
            <Position>
              <LatitudeDegrees>50.175175108015537261962890625</LatitudeDegrees>
              <LongitudeDegrees>16.99148573912680149078369140625</LongitudeDegrees>
            </Position>
            <AltitudeMeters>688.4000244140625</AltitudeMeters>
            <DistanceMeters>7866.6615734462</DistanceMeters>
          </Trackpoint>
          <Trackpoint>
            <Time>2022-08-26T22:02:09.000Z</Time>
            <Position>
              <LatitudeDegrees>50.175143592059612274169921875</LatitudeDegrees>
              <LongitudeDegrees>16.99154441244900226593017578125</LongitudeDegrees>
            </Position>
            <AltitudeMeters>689.4000244140625</AltitudeMeters>
            <DistanceMeters>7872.1204425842</DistanceMeters>
          </Trackpoint>
          <Trackpoint>
            <Time>2022-08-26T22:02:10.000Z</Time>
            <Position>
              <LatitudeDegrees>50.1751387305557727813720703125</LatitudeDegrees>
              <LongitudeDegrees>16.99155949987471103668212890625</LongitudeDegrees>
            </Position>
            <AltitudeMeters>689.4000244140625</AltitudeMeters>
            <DistanceMeters>7873.3224460081</DistanceMeters>
          </Trackpoint>
          <Trackpoint>
            <Time>2022-08-26T22:02:16.000Z</Time>
            <Position>
              <LatitudeDegrees>50.17510293982923030853271484375</LatitudeDegrees>
              <LongitudeDegrees>16.9916534610092639923095703125</LongitudeDegrees>
            </Position>
            <AltitudeMeters>690.4000244140625</AltitudeMeters>
            <DistanceMeters>7881.115215996</DistanceMeters>
          </Trackpoint>
          <Trackpoint>
            <Time>2022-08-26T22:02:21.000Z</Time>
            <Position>
              <LatitudeDegrees>50.175072513520717620849609375</LatitudeDegrees>
              <LongitudeDegrees>16.99171607382595539093017578125</LongitudeDegrees>
            </Position>
            <AltitudeMeters>691.5999755859375</AltitudeMeters>
            <DistanceMeters>7886.7177641412</DistanceMeters>
          </Trackpoint>
          <Trackpoint>
            <Time>2022-08-26T22:02:27.000Z</Time>
            <Position>
              <LatitudeDegrees>50.17503571696579456329345703125</LatitudeDegrees>
              <LongitudeDegrees>16.9917775131762027740478515625</LongitudeDegrees>
            </Position>
            <AltitudeMeters>692.79998779296875</AltitudeMeters>
            <DistanceMeters>7892.714243475</DistanceMeters>
          </Trackpoint>
          <Trackpoint>
            <Time>2022-08-26T22:02:33.000Z</Time>
            <Position>
              <LatitudeDegrees>50.1750098168849945068359375</LatitudeDegrees>
              <LongitudeDegrees>16.99181078933179378509521484375</LongitudeDegrees>
            </Position>
            <AltitudeMeters>693.5999755859375</AltitudeMeters>
            <DistanceMeters>7896.448200897</DistanceMeters>
          </Trackpoint>
          <Trackpoint>
            <Time>2022-08-26T22:02:34.000Z</Time>
            <Position>
              <LatitudeDegrees>50.175002776086330413818359375</LatitudeDegrees>
              <LongitudeDegrees>16.991817913949489593505859375</LongitudeDegrees>
            </Position>
            <AltitudeMeters>693.79998779296875</AltitudeMeters>
            <DistanceMeters>7897.3792687455</DistanceMeters>
          </Trackpoint>
          <Trackpoint>
            <Time>2022-08-26T22:02:40.000Z</Time>
            <Position>
              <LatitudeDegrees>50.17498207278549671173095703125</LatitudeDegrees>
              <LongitudeDegrees>16.99184247292578220367431640625</LongitudeDegrees>
            </Position>
            <AltitudeMeters>694.79998779296875</AltitudeMeters>
            <DistanceMeters>7900.2725162053</DistanceMeters>
          </Trackpoint>
          <Trackpoint>
            <Time>2022-08-26T22:02:43.000Z</Time>
            <Position>
              <LatitudeDegrees>50.174977965652942657470703125</LatitudeDegrees>
              <LongitudeDegrees>16.99185186065733432769775390625</LongitudeDegrees>
            </Position>
            <AltitudeMeters>695.4000244140625</AltitudeMeters>
            <DistanceMeters>7901.0788446148</DistanceMeters>
          </Trackpoint>
          <Trackpoint>
            <Time>2022-08-26T22:02:46.000Z</Time>
            <Position>
              <LatitudeDegrees>50.17498374916613101959228515625</LatitudeDegrees>
              <LongitudeDegrees>16.99187667109072208404541015625</LongitudeDegrees>
            </Position>
            <AltitudeMeters>696</AltitudeMeters>
            <DistanceMeters>7902.9602775703</DistanceMeters>
          </Trackpoint>
          <Trackpoint>
            <Time>2022-08-26T22:02:53.000Z</Time>
            <Position>
              <LatitudeDegrees>50.1749895326793193817138671875</LatitudeDegrees>
              <LongitudeDegrees>16.99193752370774745941162109375</LongitudeDegrees>
            </Position>
            <AltitudeMeters>696.79998779296875</AltitudeMeters>
            <DistanceMeters>7907.3449135585</DistanceMeters>
          </Trackpoint>
          <Trackpoint>
            <Time>2022-08-26T22:02:54.000Z</Time>
            <Position>
              <LatitudeDegrees>50.17498760484158992767333984375</LatitudeDegrees>
              <LongitudeDegrees>16.9919458217918872833251953125</LongitudeDegrees>
            </Position>
            <AltitudeMeters>696.79998779296875</AltitudeMeters>
            <DistanceMeters>7907.9752494718</DistanceMeters>
          </Trackpoint>
          <Trackpoint>
            <Time>2022-08-26T22:03:00.000Z</Time>
            <Position>
              <LatitudeDegrees>50.1749751158058643341064453125</LatitudeDegrees>
              <LongitudeDegrees>16.991984881460666656494140625</LongitudeDegrees>
            </Position>
            <AltitudeMeters>697.79998779296875</AltitudeMeters>
            <DistanceMeters>7911.0880090231</DistanceMeters>
          </Trackpoint>
          <Trackpoint>
            <Time>2022-08-26T22:03:04.000Z</Time>
            <Position>
              <LatitudeDegrees>50.17495550215244293212890625</LatitudeDegrees>
              <LongitudeDegrees>16.992025114595890045166015625</LongitudeDegrees>
            </Position>
            <AltitudeMeters>698.5999755859375</AltitudeMeters>
            <DistanceMeters>7914.6915142509</DistanceMeters>
          </Trackpoint>
          <Trackpoint>
            <Time>2022-08-26T22:03:07.000Z</Time>
            <Position>
              <LatitudeDegrees>50.17494075000286102294921875</LatitudeDegrees>
              <LongitudeDegrees>16.9920443929731845855712890625</LongitudeDegrees>
            </Position>
            <AltitudeMeters>699</AltitudeMeters>
            <DistanceMeters>7916.8333076194</DistanceMeters>
          </Trackpoint>
          <Trackpoint>
            <Time>2022-08-26T22:03:12.000Z</Time>
            <Position>
              <LatitudeDegrees>50.17491803504526615142822265625</LatitudeDegrees>
              <LongitudeDegrees>16.992081105709075927734375</LongitudeDegrees>
            </Position>
            <AltitudeMeters>700</AltitudeMeters>
            <DistanceMeters>7920.4729672385</DistanceMeters>
          </Trackpoint>
          <Trackpoint>
            <Time>2022-08-26T22:03:15.000Z</Time>
            <Position>
              <LatitudeDegrees>50.1748906262218952178955078125</LatitudeDegrees>
              <LongitudeDegrees>16.99212058447301387786865234375</LongitudeDegrees>
            </Position>
            <AltitudeMeters>700.79998779296875</AltitudeMeters>
            <DistanceMeters>7924.6237967767</DistanceMeters>
          </Trackpoint>
          <Trackpoint>
            <Time>2022-08-26T22:03:18.000Z</Time>
            <Position>
              <LatitudeDegrees>50.17486673779785633087158203125</LatitudeDegrees>
              <LongitudeDegrees>16.9921624101698398590087890625</LongitudeDegrees>
            </Position>
            <AltitudeMeters>701.20001220703125</AltitudeMeters>
            <DistanceMeters>7928.6183111498</DistanceMeters>
          </Trackpoint>
          <Trackpoint>
            <Time>2022-08-26T22:03:27.000Z</Time>
            <Position>
              <LatitudeDegrees>50.174816362559795379638671875</LatitudeDegrees>
              <LongitudeDegrees>16.99224673211574554443359375</LongitudeDegrees>
            </Position>
            <AltitudeMeters>702.20001220703125</AltitudeMeters>
            <DistanceMeters>7936.8379846198</DistanceMeters>
          </Trackpoint>
          <Trackpoint>
            <Time>2022-08-26T22:03:37.000Z</Time>
            <Position>
              <LatitudeDegrees>50.17474084161221981048583984375</LatitudeDegrees>
              <LongitudeDegrees>16.992328874766826629638671875</LongitudeDegrees>
            </Position>
            <AltitudeMeters>703.4000244140625</AltitudeMeters>
            <DistanceMeters>7947.0819349494</DistanceMeters>
          </Trackpoint>
          <Trackpoint>
            <Time>2022-08-26T22:03:39.000Z</Time>
            <Position>
              <LatitudeDegrees>50.17472022213041782379150390625</LatitudeDegrees>
              <LongitudeDegrees>16.99234865605831146240234375</LongitudeDegrees>
            </Position>
            <AltitudeMeters>703.5999755859375</AltitudeMeters>
            <DistanceMeters>7949.7764073395</DistanceMeters>
          </Trackpoint>
          <Trackpoint>
            <Time>2022-08-26T22:03:42.000Z</Time>
            <Position>
              <LatitudeDegrees>50.17470446415245532989501953125</LatitudeDegrees>
              <LongitudeDegrees>16.992377154529094696044921875</LongitudeDegrees>
            </Position>
            <AltitudeMeters>704.4000244140625</AltitudeMeters>
            <DistanceMeters>7952.4608069003</DistanceMeters>
          </Trackpoint>
          <Trackpoint>
            <Time>2022-08-26T22:03:50.000Z</Time>
            <Position>
              <LatitudeDegrees>50.1746488921344280242919921875</LatitudeDegrees>
              <LongitudeDegrees>16.9924671761691570281982421875</LongitudeDegrees>
            </Position>
            <AltitudeMeters>705.5999755859375</AltitudeMeters>
            <DistanceMeters>7961.3735832622</DistanceMeters>
          </Trackpoint>
          <Trackpoint>
            <Time>2022-08-26T22:03:51.000Z</Time>
            <Position>
              <LatitudeDegrees>50.17464159987866878509521484375</LatitudeDegrees>
              <LongitudeDegrees>16.99247932992875576019287109375</LongitudeDegrees>
            </Position>
            <AltitudeMeters>705.79998779296875</AltitudeMeters>
            <DistanceMeters>7962.5604665443</DistanceMeters>
          </Trackpoint>
          <Trackpoint>
            <Time>2022-08-26T22:03:56.000Z</Time>
            <Position>
              <LatitudeDegrees>50.174599774181842803955078125</LatitudeDegrees>
              <LongitudeDegrees>16.992531716823577880859375</LongitudeDegrees>
            </Position>
            <AltitudeMeters>706.4000244140625</AltitudeMeters>
            <DistanceMeters>7968.5282652587</DistanceMeters>
          </Trackpoint>
          <Trackpoint>
            <Time>2022-08-26T22:04:00.000Z</Time>
            <Position>
              <LatitudeDegrees>50.1745744608342647552490234375</LatitudeDegrees>
              <LongitudeDegrees>16.9925546832382678985595703125</LongitudeDegrees>
            </Position>
            <AltitudeMeters>707.20001220703125</AltitudeMeters>
            <DistanceMeters>7971.7870027286</DistanceMeters>
          </Trackpoint>
          <Trackpoint>
            <Time>2022-08-26T22:04:02.000Z</Time>
            <Position>
              <LatitudeDegrees>50.1745633967220783233642578125</LatitudeDegrees>
              <LongitudeDegrees>16.99256784282624721527099609375</LongitudeDegrees>
            </Position>
            <AltitudeMeters>707.5999755859375</AltitudeMeters>
            <DistanceMeters>7973.3368415377</DistanceMeters>
          </Trackpoint>
          <Trackpoint>
            <Time>2022-08-26T22:04:08.000Z</Time>
            <Position>
              <LatitudeDegrees>50.17452391795814037322998046875</LatitudeDegrees>
              <LongitudeDegrees>16.99260639958083629608154296875</LongitudeDegrees>
            </Position>
            <AltitudeMeters>708.4000244140625</AltitudeMeters>
            <DistanceMeters>7978.519936889</DistanceMeters>
          </Trackpoint>
          <Trackpoint>
            <Time>2022-08-26T22:04:09.000Z</Time>
            <Position>
              <LatitudeDegrees>50.17451754771173000335693359375</LatitudeDegrees>
              <LongitudeDegrees>16.99261444620788097381591796875</LongitudeDegrees>
            </Position>
            <AltitudeMeters>708.5999755859375</AltitudeMeters>
            <DistanceMeters>7979.4314011136</DistanceMeters>
          </Trackpoint>
          <Trackpoint>
            <Time>2022-08-26T22:04:17.000Z</Time>
            <Position>
              <LatitudeDegrees>50.17446876503527164459228515625</LatitudeDegrees>
              <LongitudeDegrees>16.9926572777330875396728515625</LongitudeDegrees>
            </Position>
            <AltitudeMeters>709.79998779296875</AltitudeMeters>
            <DistanceMeters>7985.6612701778</DistanceMeters>
          </Trackpoint>
          <Trackpoint>
            <Time>2022-08-26T22:04:18.000Z</Time>
            <Position>
              <LatitudeDegrees>50.17446524463593959808349609375</LatitudeDegrees>
              <LongitudeDegrees>16.9926592893898487091064453125</LongitudeDegrees>
            </Position>
            <AltitudeMeters>710</AltitudeMeters>
            <DistanceMeters>7986.0754820226</DistanceMeters>
          </Trackpoint>
          <Trackpoint>
            <Time>2022-08-26T22:04:22.000Z</Time>
            <Position>
              <LatitudeDegrees>50.174441523849964141845703125</LatitudeDegrees>
              <LongitudeDegrees>16.9926777295768260955810546875</LongitudeDegrees>
            </Position>
            <AltitudeMeters>710.5999755859375</AltitudeMeters>
            <DistanceMeters>7989.0228424585</DistanceMeters>
          </Trackpoint>
          <Trackpoint>
            <Time>2022-08-26T22:04:25.000Z</Time>
            <Position>
              <LatitudeDegrees>50.1744198985397815704345703125</LatitudeDegrees>
              <LongitudeDegrees>16.9926966726779937744140625</LongitudeDegrees>
            </Position>
            <AltitudeMeters>710.79998779296875</AltitudeMeters>
            <DistanceMeters>7991.7802550801</DistanceMeters>
          </Trackpoint>
          <Trackpoint>
            <Time>2022-08-26T22:04:30.000Z</Time>
            <Position>
              <LatitudeDegrees>50.17437572591006755828857421875</LatitudeDegrees>
              <LongitudeDegrees>16.9927370734512805938720703125</LongitudeDegrees>
            </Position>
            <AltitudeMeters>711.20001220703125</AltitudeMeters>
            <DistanceMeters>7997.4771046253</DistanceMeters>
          </Trackpoint>
          <Trackpoint>
            <Time>2022-08-26T22:04:34.000Z</Time>
            <Position>
              <LatitudeDegrees>50.17433431930840015411376953125</LatitudeDegrees>
              <LongitudeDegrees>16.99278795160353183746337890625</LongitudeDegrees>
            </Position>
            <AltitudeMeters>711.79998779296875</AltitudeMeters>
            <DistanceMeters>8003.341107618</DistanceMeters>
          </Trackpoint>
          <Trackpoint>
            <Time>2022-08-26T22:04:41.000Z</Time>
            <Position>
              <LatitudeDegrees>50.17428989522159099578857421875</LatitudeDegrees>
              <LongitudeDegrees>16.99284628964960575103759765625</LongitudeDegrees>
            </Position>
            <AltitudeMeters>712.79998779296875</AltitudeMeters>
            <DistanceMeters>8009.8015265923</DistanceMeters>
          </Trackpoint>
          <Trackpoint>
            <Time>2022-08-26T22:04:44.000Z</Time>
            <Position>
              <LatitudeDegrees>50.17426508478820323944091796875</LatitudeDegrees>
              <LongitudeDegrees>16.99287210591137409210205078125</LongitudeDegrees>
            </Position>
            <AltitudeMeters>713.4000244140625</AltitudeMeters>
            <DistanceMeters>8013.1193064502</DistanceMeters>
          </Trackpoint>
          <Trackpoint>
            <Time>2022-08-26T22:04:46.000Z</Time>
            <Position>
              <LatitudeDegrees>50.17424069344997406005859375</LatitudeDegrees>
              <LongitudeDegrees>16.9928976707160472869873046875</LongitudeDegrees>
            </Position>
            <AltitudeMeters>713.79998779296875</AltitudeMeters>
            <DistanceMeters>8016.3891092744</DistanceMeters>
          </Trackpoint>
          <Trackpoint>
            <Time>2022-08-26T22:04:54.000Z</Time>
            <Position>
              <LatitudeDegrees>50.17417204566299915313720703125</LatitudeDegrees>
              <LongitudeDegrees>16.99297629296779632568359375</LongitudeDegrees>
            </Position>
            <AltitudeMeters>714.79998779296875</AltitudeMeters>
            <DistanceMeters>8025.8651358763</DistanceMeters>
          </Trackpoint>
          <Trackpoint>
            <Time>2022-08-26T22:04:55.000Z</Time>
            <Position>
              <LatitudeDegrees>50.1741635799407958984375</LatitudeDegrees>
              <LongitudeDegrees>16.99298911727964878082275390625</LongitudeDegrees>
            </Position>
            <AltitudeMeters>715</AltitudeMeters>
            <DistanceMeters>8027.1749887399</DistanceMeters>
          </Trackpoint>
          <Trackpoint>
            <Time>2022-08-26T22:05:04.000Z</Time>
            <Position>
              <LatitudeDegrees>50.1741085946559906005859375</LatitudeDegrees>
              <LongitudeDegrees>16.99310277588665485382080078125</LongitudeDegrees>
            </Position>
            <AltitudeMeters>716</AltitudeMeters>
            <DistanceMeters>8037.3286276325</DistanceMeters>
          </Trackpoint>
          <Trackpoint>
            <Time>2022-08-26T22:05:11.000Z</Time>
            <Position>
              <LatitudeDegrees>50.17407179810106754302978515625</LatitudeDegrees>
              <LongitudeDegrees>16.99318709783256053924560546875</LongitudeDegrees>
            </Position>
            <AltitudeMeters>717</AltitudeMeters>
            <DistanceMeters>8044.6017416704</DistanceMeters>
          </Trackpoint>
          <Trackpoint>
            <Time>2022-08-26T22:05:15.000Z</Time>
            <Position>
              <LatitudeDegrees>50.17401538789272308349609375</LatitudeDegrees>
              <LongitudeDegrees>16.993255913257598876953125</LongitudeDegrees>
            </Position>
            <AltitudeMeters>717.5999755859375</AltitudeMeters>
            <DistanceMeters>8052.5698322495</DistanceMeters>
          </Trackpoint>
          <Trackpoint>
            <Time>2022-08-26T22:05:18.000Z</Time>
            <Position>
              <LatitudeDegrees>50.17398630268871784210205078125</LatitudeDegrees>
              <LongitudeDegrees>16.99330058880150318145751953125</LongitudeDegrees>
            </Position>
            <AltitudeMeters>717.79998779296875</AltitudeMeters>
            <DistanceMeters>8057.1112741569</DistanceMeters>
          </Trackpoint>
          <Trackpoint>
            <Time>2022-08-26T22:05:26.000Z</Time>
            <Position>
              <LatitudeDegrees>50.1738968677818775177001953125</LatitudeDegrees>
              <LongitudeDegrees>16.9934274069964885711669921875</LongitudeDegrees>
            </Position>
            <AltitudeMeters>719</AltitudeMeters>
            <DistanceMeters>8070.5581418484</DistanceMeters>
          </Trackpoint>
          <Trackpoint>
            <Time>2022-08-26T22:05:32.000Z</Time>
            <Position>
              <LatitudeDegrees>50.17384313978254795074462890625</LatitudeDegrees>
              <LongitudeDegrees>16.99351483024656772613525390625</LongitudeDegrees>
            </Position>
            <AltitudeMeters>720</AltitudeMeters>
            <DistanceMeters>8079.1951240473</DistanceMeters>
          </Trackpoint>
          <Trackpoint>
            <Time>2022-08-26T22:05:39.000Z</Time>
            <Position>
              <LatitudeDegrees>50.1737929321825504302978515625</LatitudeDegrees>
              <LongitudeDegrees>16.9936166703701019287109375</LongitudeDegrees>
            </Position>
            <AltitudeMeters>721</AltitudeMeters>
            <DistanceMeters>8088.3562118905</DistanceMeters>
          </Trackpoint>
          <Trackpoint>
            <Time>2022-08-26T22:05:40.000Z</Time>
            <Position>
              <LatitudeDegrees>50.17378496937453746795654296875</LatitudeDegrees>
              <LongitudeDegrees>16.993631422519683837890625</LongitudeDegrees>
            </Position>
            <AltitudeMeters>721.20001220703125</AltitudeMeters>
            <DistanceMeters>8089.7332798094</DistanceMeters>
          </Trackpoint>
          <Trackpoint>
            <Time>2022-08-26T22:05:46.000Z</Time>
            <Position>
              <LatitudeDegrees>50.173746831715106964111328125</LatitudeDegrees>
              <LongitudeDegrees>16.99372437782585620880126953125</LongitudeDegrees>
            </Position>
            <AltitudeMeters>721.79998779296875</AltitudeMeters>
            <DistanceMeters>8097.6027311405</DistanceMeters>
          </Trackpoint>
          <Trackpoint>
            <Time>2022-08-26T22:05:53.000Z</Time>
            <Position>
              <LatitudeDegrees>50.173687823116779327392578125</LatitudeDegrees>
              <LongitudeDegrees>16.99380937032401561737060546875</LongitudeDegrees>
            </Position>
            <AltitudeMeters>723</AltitudeMeters>
            <DistanceMeters>8106.5382745441</DistanceMeters>
          </Trackpoint>
          <Trackpoint>
            <Time>2022-08-26T22:05:54.000Z</Time>
            <Position>
              <LatitudeDegrees>50.17368036322295665740966796875</LatitudeDegrees>
              <LongitudeDegrees>16.993820853531360626220703125</LongitudeDegrees>
            </Position>
            <AltitudeMeters>723</AltitudeMeters>
            <DistanceMeters>8107.7021093548</DistanceMeters>
          </Trackpoint>
          <Trackpoint>
            <Time>2022-08-26T22:05:59.000Z</Time>
            <Position>
              <LatitudeDegrees>50.17363912425935268402099609375</LatitudeDegrees>
              <LongitudeDegrees>16.9938847236335277557373046875</LongitudeDegrees>
            </Position>
            <AltitudeMeters>724</AltitudeMeters>
            <DistanceMeters>8114.1681169279</DistanceMeters>
          </Trackpoint>
          <Trackpoint>
            <Time>2022-08-26T22:06:03.000Z</Time>
            <Position>
              <LatitudeDegrees>50.17360945232212543487548828125</LatitudeDegrees>
              <LongitudeDegrees>16.99392889626324176788330078125</LongitudeDegrees>
            </Position>
            <AltitudeMeters>724.4000244140625</AltitudeMeters>
            <DistanceMeters>8118.7313785114</DistanceMeters>
          </Trackpoint>
          <Trackpoint>
            <Time>2022-08-26T22:06:05.000Z</Time>
            <Position>
              <LatitudeDegrees>50.17359201796352863311767578125</LatitudeDegrees>
              <LongitudeDegrees>16.99394750408828258514404296875</LongitudeDegrees>
            </Position>
            <AltitudeMeters>724.79998779296875</AltitudeMeters>
            <DistanceMeters>8121.082209595</DistanceMeters>
          </Trackpoint>
          <Trackpoint>
            <Time>2022-08-26T22:06:10.000Z</Time>
            <Position>
              <LatitudeDegrees>50.17355941236019134521484375</LatitudeDegrees>
              <LongitudeDegrees>16.9940295629203319549560546875</LongitudeDegrees>
            </Position>
            <AltitudeMeters>726</AltitudeMeters>
            <DistanceMeters>8127.9662375713</DistanceMeters>
          </Trackpoint>
          <Trackpoint>
            <Time>2022-08-26T22:06:14.000Z</Time>
            <Position>
              <LatitudeDegrees>50.17352965660393238067626953125</LatitudeDegrees>
              <LongitudeDegrees>16.99405814521014690399169921875</LongitudeDegrees>
            </Position>
            <AltitudeMeters>726.5999755859375</AltitudeMeters>
            <DistanceMeters>8131.8542123612</DistanceMeters>
          </Trackpoint>
          <Trackpoint>
            <Time>2022-08-26T22:06:17.000Z</Time>
            <Position>
              <LatitudeDegrees>50.173518843948841094970703125</LatitudeDegrees>
              <LongitudeDegrees>16.99407759122550487518310546875</LongitudeDegrees>
            </Position>
            <AltitudeMeters>727</AltitudeMeters>
            <DistanceMeters>8133.6919415551</DistanceMeters>
          </Trackpoint>
          <Trackpoint>
            <Time>2022-08-26T22:06:25.000Z</Time>
            <Position>
              <LatitudeDegrees>50.1734982244670391082763671875</LatitudeDegrees>
              <LongitudeDegrees>16.994136683642864227294921875</LongitudeDegrees>
            </Position>
            <AltitudeMeters>728.20001220703125</AltitudeMeters>
            <DistanceMeters>8138.4886732319</DistanceMeters>
          </Trackpoint>
          <Trackpoint>
            <Time>2022-08-26T22:06:30.000Z</Time>
            <Position>
              <LatitudeDegrees>50.17348305322229862213134765625</LatitudeDegrees>
              <LongitudeDegrees>16.99414665810763835906982421875</LongitudeDegrees>
            </Position>
            <AltitudeMeters>729.20001220703125</AltitudeMeters>
            <DistanceMeters>8140.3214821246</DistanceMeters>
          </Trackpoint>
          <Trackpoint>
            <Time>2022-08-26T22:06:36.000Z</Time>
            <Position>
              <LatitudeDegrees>50.17348431050777435302734375</LatitudeDegrees>
              <LongitudeDegrees>16.994151435792446136474609375</LongitudeDegrees>
            </Position>
            <AltitudeMeters>730.20001220703125</AltitudeMeters>
            <DistanceMeters>8140.6895190068</DistanceMeters>
          </Trackpoint>
          <Trackpoint>
            <Time>2022-08-26T22:06:38.000Z</Time>
            <Position>
              <LatitudeDegrees>50.1734821312129497528076171875</LatitudeDegrees>
              <LongitudeDegrees>16.994157135486602783203125</LongitudeDegrees>
            </Position>
            <AltitudeMeters>730.4000244140625</AltitudeMeters>
            <DistanceMeters>8141.1740620777</DistanceMeters>
          </Trackpoint>
          <Trackpoint>
            <Time>2022-08-26T22:06:45.000Z</Time>
            <Position>
              <LatitudeDegrees>50.17347048036754131317138671875</LatitudeDegrees>
              <LongitudeDegrees>16.9941613264381885528564453125</LongitudeDegrees>
            </Position>
            <AltitudeMeters>731</AltitudeMeters>
            <DistanceMeters>8142.5044360788</DistanceMeters>
          </Trackpoint>
          <Trackpoint>
            <Time>2022-08-26T22:06:49.000Z</Time>
            <Position>
              <LatitudeDegrees>50.173450447618961334228515625</LatitudeDegrees>
              <LongitudeDegrees>16.99415520764887332916259765625</LongitudeDegrees>
            </Position>
            <AltitudeMeters>731.4000244140625</AltitudeMeters>
            <DistanceMeters>8144.7771445348</DistanceMeters>
          </Trackpoint>
          <Trackpoint>
            <Time>2022-08-26T22:06:54.000Z</Time>
            <Position>
              <LatitudeDegrees>50.173424296081066131591796875</LatitudeDegrees>
              <LongitudeDegrees>16.994180269539356231689453125</LongitudeDegrees>
            </Position>
            <AltitudeMeters>732</AltitudeMeters>
            <DistanceMeters>8148.1928229104</DistanceMeters>
          </Trackpoint>
          <Trackpoint>
            <Time>2022-08-26T22:06:58.000Z</Time>
            <Position>
              <LatitudeDegrees>50.17339579761028289794921875</LatitudeDegrees>
              <LongitudeDegrees>16.994213126599788665771484375</LongitudeDegrees>
            </Position>
            <AltitudeMeters>732.4000244140625</AltitudeMeters>
            <DistanceMeters>8152.1350001718</DistanceMeters>
          </Trackpoint>
          <Trackpoint>
            <Time>2022-08-26T22:07:06.000Z</Time>
            <Position>
              <LatitudeDegrees>50.1733289100229740142822265625</LatitudeDegrees>
              <LongitudeDegrees>16.9943014718592166900634765625</LongitudeDegrees>
            </Position>
            <AltitudeMeters>733.20001220703125</AltitudeMeters>
            <DistanceMeters>8161.8857783397</DistanceMeters>
          </Trackpoint>
          <Trackpoint>
            <Time>2022-08-26T22:07:07.000Z</Time>
            <Position>
              <LatitudeDegrees>50.17331977374851703643798828125</LatitudeDegrees>
              <LongitudeDegrees>16.99430742301046848297119140625</LongitudeDegrees>
            </Position>
            <AltitudeMeters>733.4000244140625</AltitudeMeters>
            <DistanceMeters>8162.9857920866</DistanceMeters>
          </Trackpoint>
          <Trackpoint>
            <Time>2022-08-26T22:07:14.000Z</Time>
            <Position>
              <LatitudeDegrees>50.17325690947473049163818359375</LatitudeDegrees>
              <LongitudeDegrees>16.99440700002014636993408203125</LongitudeDegrees>
            </Position>
            <AltitudeMeters>734.4000244140625</AltitudeMeters>
            <DistanceMeters>8172.9527309828</DistanceMeters>
          </Trackpoint>
          <Trackpoint>
            <Time>2022-08-26T22:07:17.000Z</Time>
            <Position>
              <LatitudeDegrees>50.1732420735061168670654296875</LatitudeDegrees>
              <LongitudeDegrees>16.9944556988775730133056640625</LongitudeDegrees>
            </Position>
            <AltitudeMeters>734.79998779296875</AltitudeMeters>
            <DistanceMeters>8176.7974982239</DistanceMeters>
          </Trackpoint>
          <Trackpoint>
            <Time>2022-08-26T22:07:22.000Z</Time>
            <Position>
              <LatitudeDegrees>50.17320041544735431671142578125</LatitudeDegrees>
              <LongitudeDegrees>16.9945837743580341339111328125</LongitudeDegrees>
            </Position>
            <AltitudeMeters>735.5999755859375</AltitudeMeters>
            <DistanceMeters>8187.0374810202</DistanceMeters>
          </Trackpoint>
          <Trackpoint>
            <Time>2022-08-26T22:07:27.000Z</Time>
            <Position>
              <LatitudeDegrees>50.17317241989076137542724609375</LatitudeDegrees>
              <LongitudeDegrees>16.994705311954021453857421875</LongitudeDegrees>
            </Position>
            <AltitudeMeters>736.20001220703125</AltitudeMeters>
            <DistanceMeters>8196.2447801712</DistanceMeters>
          </Trackpoint>
          <Trackpoint>
            <Time>2022-08-26T22:07:30.000Z</Time>
            <Position>
              <LatitudeDegrees>50.17316512763500213623046875</LatitudeDegrees>
              <LongitudeDegrees>16.994784437119960784912109375</LongitudeDegrees>
            </Position>
            <AltitudeMeters>736.5999755859375</AltitudeMeters>
            <DistanceMeters>8201.9432145959</DistanceMeters>
          </Trackpoint>
          <Trackpoint>
            <Time>2022-08-26T22:07:37.000Z</Time>
            <Position>
              <LatitudeDegrees>50.17312212847173213958740234375</LatitudeDegrees>
              <LongitudeDegrees>16.99492760002613067626953125</LongitudeDegrees>
            </Position>
            <AltitudeMeters>737.5999755859375</AltitudeMeters>
            <DistanceMeters>8213.2150013028</DistanceMeters>
          </Trackpoint>
          <Trackpoint>
            <Time>2022-08-26T22:07:38.000Z</Time>
            <Position>
              <LatitudeDegrees>50.17312380485236644744873046875</LatitudeDegrees>
              <LongitudeDegrees>16.99494503438472747802734375</LongitudeDegrees>
            </Position>
            <AltitudeMeters>737.79998779296875</AltitudeMeters>
            <DistanceMeters>8214.4720865734</DistanceMeters>
          </Trackpoint>
          <Trackpoint>
            <Time>2022-08-26T22:07:44.000Z</Time>
            <Position>
              <LatitudeDegrees>50.17310922034084796905517578125</LatitudeDegrees>
              <LongitudeDegrees>16.99499809183180332183837890625</LongitudeDegrees>
            </Position>
            <AltitudeMeters>738.5999755859375</AltitudeMeters>
            <DistanceMeters>8218.5879611353</DistanceMeters>
          </Trackpoint>
          <Trackpoint>
            <Time>2022-08-26T22:07:47.000Z</Time>
            <Position>
              <LatitudeDegrees>50.17308876849710941314697265625</LatitudeDegrees>
              <LongitudeDegrees>16.99503195472061634063720703125</LongitudeDegrees>
            </Position>
            <AltitudeMeters>739.20001220703125</AltitudeMeters>
            <DistanceMeters>8221.9057409931</DistanceMeters>
          </Trackpoint>
          <Trackpoint>
            <Time>2022-08-26T22:07:50.000Z</Time>
            <Position>
              <LatitudeDegrees>50.17306982539594173431396484375</LatitudeDegrees>
              <LongitudeDegrees>16.99505710043013095855712890625</LongitudeDegrees>
            </Position>
            <AltitudeMeters>739.79998779296875</AltitudeMeters>
            <DistanceMeters>8224.6729606853</DistanceMeters>
          </Trackpoint>
          <Trackpoint>
            <Time>2022-08-26T22:07:56.000Z</Time>
            <Position>
              <LatitudeDegrees>50.1730383932590484619140625</LatitudeDegrees>
              <LongitudeDegrees>16.99508610181510448455810546875</LongitudeDegrees>
            </Position>
            <AltitudeMeters>740.5999755859375</AltitudeMeters>
            <DistanceMeters>8228.7380609168</DistanceMeters>
          </Trackpoint>
          <Trackpoint>
            <Time>2022-08-26T22:07:57.000Z</Time>
            <Position>
              <LatitudeDegrees>50.17303663305938243865966796875</LatitudeDegrees>
              <LongitudeDegrees>16.995098590850830078125</LongitudeDegrees>
            </Position>
            <AltitudeMeters>740.79998779296875</AltitudeMeters>
            <DistanceMeters>8229.6495251415</DistanceMeters>
          </Trackpoint>
          <Trackpoint>
            <Time>2022-08-26T22:08:06.000Z</Time>
            <Position>
              <LatitudeDegrees>50.17296471633017063140869140625</LatitudeDegrees>
              <LongitudeDegrees>16.99515952728688716888427734375</LongitudeDegrees>
            </Position>
            <AltitudeMeters>741.79998779296875</AltitudeMeters>
            <DistanceMeters>8238.7567339421</DistanceMeters>
          </Trackpoint>
          <Trackpoint>
            <Time>2022-08-26T22:08:07.000Z</Time>
            <Position>
              <LatitudeDegrees>50.17295650206506252288818359375</LatitudeDegrees>
              <LongitudeDegrees>16.99516874738037586212158203125</LongitudeDegrees>
            </Position>
            <AltitudeMeters>742</AltitudeMeters>
            <DistanceMeters>8239.8851136559</DistanceMeters>
          </Trackpoint>
          <Trackpoint>
            <Time>2022-08-26T22:08:12.000Z</Time>
            <Position>
              <LatitudeDegrees>50.17292917706072330474853515625</LatitudeDegrees>
              <LongitudeDegrees>16.99520596303045749664306640625</LongitudeDegrees>
            </Position>
            <AltitudeMeters>743</AltitudeMeters>
            <DistanceMeters>8243.9212328198</DistanceMeters>
          </Trackpoint>
          <Trackpoint>
            <Time>2022-08-26T22:08:18.000Z</Time>
            <Position>
              <LatitudeDegrees>50.17287067137658596038818359375</LatitudeDegrees>
              <LongitudeDegrees>16.99523831717669963836669921875</LongitudeDegrees>
            </Position>
            <AltitudeMeters>744</AltitudeMeters>
            <DistanceMeters>8250.8294854213</DistanceMeters>
          </Trackpoint>
          <Trackpoint>
            <Time>2022-08-26T22:08:19.000Z</Time>
            <Position>
              <LatitudeDegrees>50.17285977490246295928955078125</LatitudeDegrees>
              <LongitudeDegrees>16.995239742100238800048828125</LongitudeDegrees>
            </Position>
            <AltitudeMeters>744.20001220703125</AltitudeMeters>
            <DistanceMeters>8252.0464211373</DistanceMeters>
          </Trackpoint>
          <Trackpoint>
            <Time>2022-08-26T22:08:26.000Z</Time>
            <Position>
              <LatitudeDegrees>50.17277880571782588958740234375</LatitudeDegrees>
              <LongitudeDegrees>16.99529372155666351318359375</LongitudeDegrees>
            </Position>
            <AltitudeMeters>745.20001220703125</AltitudeMeters>
            <DistanceMeters>8261.8456982996</DistanceMeters>
          </Trackpoint>
          <Trackpoint>
            <Time>2022-08-26T22:08:29.000Z</Time>
            <Position>
              <LatitudeDegrees>50.172744356095790863037109375</LatitudeDegrees>
              <LongitudeDegrees>16.99530067853629589080810546875</LongitudeDegrees>
            </Position>
            <AltitudeMeters>745.79998779296875</AltitudeMeters>
            <DistanceMeters>8265.7103776444</DistanceMeters>
          </Trackpoint>
          <Trackpoint>
            <Time>2022-08-26T22:08:32.000Z</Time>
            <Position>
              <LatitudeDegrees>50.17270638607442378997802734375</LatitudeDegrees>
              <LongitudeDegrees>16.99532129801809787750244140625</LongitudeDegrees>
            </Position>
            <AltitudeMeters>746.4000244140625</AltitudeMeters>
            <DistanceMeters>8270.1837040801</DistanceMeters>
          </Trackpoint>
          <Trackpoint>
            <Time>2022-08-26T22:08:37.000Z</Time>
            <Position>
              <LatitudeDegrees>50.17264687456190586090087890625</LatitudeDegrees>
              <LongitudeDegrees>16.995365135371685028076171875</LongitudeDegrees>
            </Position>
            <AltitudeMeters>747.4000244140625</AltitudeMeters>
            <DistanceMeters>8277.5075455637</DistanceMeters>
          </Trackpoint>
          <Trackpoint>
            <Time>2022-08-26T22:08:40.000Z</Time>
            <Position>
              <LatitudeDegrees>50.1726234890520572662353515625</LatitudeDegrees>
              <LongitudeDegrees>16.9953854195773601531982421875</LongitudeDegrees>
            </Position>
            <AltitudeMeters>747.5999755859375</AltitudeMeters>
            <DistanceMeters>8280.4853862357</DistanceMeters>
          </Trackpoint>
          <Trackpoint>
            <Time>2022-08-26T22:08:44.000Z</Time>
            <Position>
              <LatitudeDegrees>50.172598846256732940673828125</LatitudeDegrees>
              <LongitudeDegrees>16.995425485074520111083984375</LongitudeDegrees>
            </Position>
            <AltitudeMeters>748.4000244140625</AltitudeMeters>
            <DistanceMeters>8284.4469860211</DistanceMeters>
          </Trackpoint>
          <Trackpoint>
            <Time>2022-08-26T22:08:50.000Z</Time>
            <Position>
              <LatitudeDegrees>50.1725395023822784423828125</LatitudeDegrees>
              <LongitudeDegrees>16.99545465409755706787109375</LongitudeDegrees>
            </Position>
            <AltitudeMeters>749.20001220703125</AltitudeMeters>
            <DistanceMeters>8291.3715586373</DistanceMeters>
          </Trackpoint>
          <Trackpoint>
            <Time>2022-08-26T22:08:52.000Z</Time>
            <Position>
              <LatitudeDegrees>50.17251779325306415557861328125</LatitudeDegrees>
              <LongitudeDegrees>16.99546865187585353851318359375</LongitudeDegrees>
            </Position>
            <AltitudeMeters>749.5999755859375</AltitudeMeters>
            <DistanceMeters>8293.9860887802</DistanceMeters>
          </Trackpoint>
          <Trackpoint>
            <Time>2022-08-26T22:08:59.000Z</Time>
            <Position>
              <LatitudeDegrees>50.17244227230548858642578125</LatitudeDegrees>
              <LongitudeDegrees>16.99552028439939022064208984375</LongitudeDegrees>
            </Position>
            <AltitudeMeters>750.5999755859375</AltitudeMeters>
            <DistanceMeters>8303.1619501983</DistanceMeters>
          </Trackpoint>
          <Trackpoint>
            <Time>2022-08-26T22:09:00.000Z</Time>
            <Position>
              <LatitudeDegrees>50.17243715934455394744873046875</LatitudeDegrees>
              <LongitudeDegrees>16.99552363716065883636474609375</LongitudeDegrees>
            </Position>
            <AltitudeMeters>750.5999755859375</AltitudeMeters>
            <DistanceMeters>8303.7777936935</DistanceMeters>
          </Trackpoint>
          <Trackpoint>
            <Time>2022-08-26T22:09:07.000Z</Time>
            <Position>
              <LatitudeDegrees>50.17236649990081787109375</LatitudeDegrees>
              <LongitudeDegrees>16.99557133018970489501953125</LongitudeDegrees>
            </Position>
            <AltitudeMeters>751.5999755859375</AltitudeMeters>
            <DistanceMeters>8312.346021135</DistanceMeters>
          </Trackpoint>
          <Trackpoint>
            <Time>2022-08-26T22:09:11.000Z</Time>
            <Position>
              <LatitudeDegrees>50.17232685349881649017333984375</LatitudeDegrees>
              <LongitudeDegrees>16.99560326524078845977783203125</LongitudeDegrees>
            </Position>
            <AltitudeMeters>752.20001220703125</AltitudeMeters>
            <DistanceMeters>8317.3111101264</DistanceMeters>
          </Trackpoint>
          <Trackpoint>
            <Time>2022-08-26T22:09:13.000Z</Time>
            <Position>
              <LatitudeDegrees>50.17230321653187274932861328125</LatitudeDegrees>
              <LongitudeDegrees>16.9956174306571483612060546875</LongitudeDegrees>
            </Position>
            <AltitudeMeters>752.5999755859375</AltitudeMeters>
            <DistanceMeters>8320.1300580278</DistanceMeters>
          </Trackpoint>
          <Trackpoint>
            <Time>2022-08-26T22:09:19.000Z</Time>
            <Position>
              <LatitudeDegrees>50.17223163507878780364990234375</LatitudeDegrees>
              <LongitudeDegrees>16.99567635543644428253173828125</LongitudeDegrees>
            </Position>
            <AltitudeMeters>753.79998779296875</AltitudeMeters>
            <DistanceMeters>8329.1370667861</DistanceMeters>
          </Trackpoint>
          <Trackpoint>
            <Time>2022-08-26T22:09:22.000Z</Time>
            <Position>
              <LatitudeDegrees>50.17220632173120975494384765625</LatitudeDegrees>
              <LongitudeDegrees>16.9957129843533039093017578125</LongitudeDegrees>
            </Position>
            <AltitudeMeters>754</AltitudeMeters>
            <DistanceMeters>8332.9783094118</DistanceMeters>
          </Trackpoint>
          <Trackpoint>
            <Time>2022-08-26T22:09:27.000Z</Time>
            <Position>
              <LatitudeDegrees>50.1721611432731151580810546875</LatitudeDegrees>
              <LongitudeDegrees>16.99573553167283535003662109375</LongitudeDegrees>
            </Position>
            <AltitudeMeters>754.79998779296875</AltitudeMeters>
            <DistanceMeters>8338.2572123192</DistanceMeters>
          </Trackpoint>
          <Trackpoint>
            <Time>2022-08-26T22:09:31.000Z</Time>
            <Position>
              <LatitudeDegrees>50.1721323095262050628662109375</LatitudeDegrees>
              <LongitudeDegrees>16.99575682170689105987548828125</LongitudeDegrees>
            </Position>
            <AltitudeMeters>755.5999755859375</AltitudeMeters>
            <DistanceMeters>8341.807703372</DistanceMeters>
          </Trackpoint>
          <Trackpoint>
            <Time>2022-08-26T22:09:34.000Z</Time>
            <Position>
              <LatitudeDegrees>50.17211630009114742279052734375</LatitudeDegrees>
              <LongitudeDegrees>16.99577526189386844635009765625</LongitudeDegrees>
            </Position>
            <AltitudeMeters>756</AltitudeMeters>
            <DistanceMeters>8344.0200101845</DistanceMeters>
          </Trackpoint>
          <Trackpoint>
            <Time>2022-08-26T22:09:40.000Z</Time>
            <Position>
              <LatitudeDegrees>50.17207623459398746490478515625</LatitudeDegrees>
              <LongitudeDegrees>16.99580392800271511077880859375</LongitudeDegrees>
            </Position>
            <AltitudeMeters>757</AltitudeMeters>
            <DistanceMeters>8348.9247144209</DistanceMeters>
          </Trackpoint>
          <Trackpoint>
            <Time>2022-08-26T22:09:42.000Z</Time>
            <Position>
              <LatitudeDegrees>50.17206139862537384033203125</LatitudeDegrees>
              <LongitudeDegrees>16.9958179257810115814208984375</LongitudeDegrees>
            </Position>
            <AltitudeMeters>757.5999755859375</AltitudeMeters>
            <DistanceMeters>8350.8535460607</DistanceMeters>
          </Trackpoint>
          <Trackpoint>
            <Time>2022-08-26T22:09:45.000Z</Time>
            <Position>
              <LatitudeDegrees>50.17203868366777896881103515625</LatitudeDegrees>
              <LongitudeDegrees>16.99584600515663623809814453125</LongitudeDegrees>
            </Position>
            <AltitudeMeters>758.20001220703125</AltitudeMeters>
            <DistanceMeters>8354.0802592708</DistanceMeters>
          </Trackpoint>
          <Trackpoint>
            <Time>2022-08-26T22:09:52.000Z</Time>
            <Position>
              <LatitudeDegrees>50.172008089721202850341796875</LatitudeDegrees>
              <LongitudeDegrees>16.9959134794771671295166015625</LongitudeDegrees>
            </Position>
            <AltitudeMeters>759</AltitudeMeters>
            <DistanceMeters>8359.9734480514</DistanceMeters>
          </Trackpoint>
          <Trackpoint>
            <Time>2022-08-26T22:09:53.000Z</Time>
            <Position>
              <LatitudeDegrees>50.1720032282173633575439453125</LatitudeDegrees>
              <LongitudeDegrees>16.99592848308384418487548828125</LongitudeDegrees>
            </Position>
            <AltitudeMeters>759.20001220703125</AltitudeMeters>
            <DistanceMeters>8361.1679153293</DistanceMeters>
          </Trackpoint>
          <Trackpoint>
            <Time>2022-08-26T22:10:02.000Z</Time>
            <Position>
              <LatitudeDegrees>50.17197414301335811614990234375</LatitudeDegrees>
              <LongitudeDegrees>16.99601733125746250152587890625</LongitudeDegrees>
            </Position>
            <AltitudeMeters>760.20001220703125</AltitudeMeters>
            <DistanceMeters>8368.2803332191</DistanceMeters>
          </Trackpoint>
          <Trackpoint>
            <Time>2022-08-26T22:10:12.000Z</Time>
            <Position>
              <LatitudeDegrees>50.17194329760968685150146484375</LatitudeDegrees>
              <LongitudeDegrees>16.996066868305206298828125</LongitudeDegrees>
            </Position>
            <AltitudeMeters>761.20001220703125</AltitudeMeters>
            <DistanceMeters>8373.2052479725</DistanceMeters>
          </Trackpoint>
          <Trackpoint>
            <Time>2022-08-26T22:10:13.000Z</Time>
            <Position>
              <LatitudeDegrees>50.17194111831486225128173828125</LatitudeDegrees>
              <LongitudeDegrees>16.99607147835195064544677734375</LongitudeDegrees>
            </Position>
            <AltitudeMeters>761.4000244140625</AltitudeMeters>
            <DistanceMeters>8373.6084121773</DistanceMeters>
          </Trackpoint>
          <Trackpoint>
            <Time>2022-08-26T22:10:21.000Z</Time>
            <Position>
              <LatitudeDegrees>50.17191597260534763336181640625</LatitudeDegrees>
              <LongitudeDegrees>16.99614708311855792999267578125</LongitudeDegrees>
            </Position>
            <AltitudeMeters>761.79998779296875</AltitudeMeters>
            <DistanceMeters>8379.681206608</DistanceMeters>
          </Trackpoint>
          <Trackpoint>
            <Time>2022-08-26T22:10:30.000Z</Time>
            <Position>
              <LatitudeDegrees>50.1718815229833126068115234375</LatitudeDegrees>
              <LongitudeDegrees>16.99629678390920162200927734375</LongitudeDegrees>
            </Position>
            <AltitudeMeters>761.79998779296875</AltitudeMeters>
            <DistanceMeters>8391.0208842296</DistanceMeters>
          </Trackpoint>
          <Trackpoint>
            <Time>2022-08-26T22:10:41.000Z</Time>
            <Position>
              <LatitudeDegrees>50.17183265648782253265380859375</LatitudeDegrees>
              <LongitudeDegrees>16.9964804314076900482177734375</LongitudeDegrees>
            </Position>
            <AltitudeMeters>761.5999755859375</AltitudeMeters>
            <DistanceMeters>8405.1973923094</DistanceMeters>
          </Trackpoint>
          <Trackpoint>
            <Time>2022-08-26T22:10:51.000Z</Time>
            <Position>
              <LatitudeDegrees>50.17177297733724117279052734375</LatitudeDegrees>
              <LongitudeDegrees>16.996596269309520721435546875</LongitudeDegrees>
            </Position>
            <AltitudeMeters>761.20001220703125</AltitudeMeters>
            <DistanceMeters>8415.7953209188</DistanceMeters>
          </Trackpoint>
          <Trackpoint>
            <Time>2022-08-26T22:11:00.000Z</Time>
            <Position>
              <LatitudeDegrees>50.17168630845844745635986328125</LatitudeDegrees>
              <LongitudeDegrees>16.9966970197856426239013671875</LongitudeDegrees>
            </Position>
            <AltitudeMeters>761</AltitudeMeters>
            <DistanceMeters>8427.8221145263</DistanceMeters>
          </Trackpoint>
          <Trackpoint>
            <Time>2022-08-26T22:11:07.000Z</Time>
            <Position>
              <LatitudeDegrees>50.17164942808449268341064453125</LatitudeDegrees>
              <LongitudeDegrees>16.9967253506183624267578125</LongitudeDegrees>
            </Position>
            <AltitudeMeters>761</AltitudeMeters>
            <DistanceMeters>8432.3972338906</DistanceMeters>
          </Trackpoint>
          <Trackpoint>
            <Time>2022-08-26T22:11:19.000Z</Time>
            <Position>
              <LatitudeDegrees>50.17164431512355804443359375</LatitudeDegrees>
              <LongitudeDegrees>16.99674974195659160614013671875</LongitudeDegrees>
            </Position>
            <AltitudeMeters>761.4000244140625</AltitudeMeters>
            <DistanceMeters>8434.2275776727</DistanceMeters>
          </Trackpoint>
          <Trackpoint>
            <Time>2022-08-26T22:11:29.000Z</Time>
            <Position>
              <LatitudeDegrees>50.1716401241719722747802734375</LatitudeDegrees>
              <LongitudeDegrees>16.99675963260233402252197265625</LongitudeDegrees>
            </Position>
            <AltitudeMeters>761.5999755859375</AltitudeMeters>
            <DistanceMeters>8435.0775224447</DistanceMeters>
          </Trackpoint>
          <Trackpoint>
            <Time>2022-08-26T22:11:34.000Z</Time>
            <Position>
              <LatitudeDegrees>50.17164959572255611419677734375</LatitudeDegrees>
              <LongitudeDegrees>16.99682165868580341339111328125</LongitudeDegrees>
            </Position>
            <AltitudeMeters>761.5999755859375</AltitudeMeters>
            <DistanceMeters>8439.6219459315</DistanceMeters>
          </Trackpoint>
          <Trackpoint>
            <Time>2022-08-26T22:11:37.000Z</Time>
            <Position>
              <LatitudeDegrees>50.17165345139801502227783203125</LatitudeDegrees>
              <LongitudeDegrees>16.99687957763671875</LongitudeDegrees>
            </Position>
            <AltitudeMeters>761.5999755859375</AltitudeMeters>
            <DistanceMeters>8443.7727754697</DistanceMeters>
          </Trackpoint>
          <Trackpoint>
            <Time>2022-08-26T22:11:41.000Z</Time>
            <Position>
              <LatitudeDegrees>50.1716525293886661529541015625</LatitudeDegrees>
              <LongitudeDegrees>16.99696515686810016632080078125</LongitudeDegrees>
            </Position>
            <AltitudeMeters>761.5999755859375</AltitudeMeters>
            <DistanceMeters>8449.8744969627</DistanceMeters>
          </Trackpoint>
          <Trackpoint>
            <Time>2022-08-26T22:11:45.000Z</Time>
            <Position>
              <LatitudeDegrees>50.17163551412522792816162109375</LatitudeDegrees>
              <LongitudeDegrees>16.99704629369080066680908203125</LongitudeDegrees>
            </Position>
            <AltitudeMeters>761.4000244140625</AltitudeMeters>
            <DistanceMeters>8455.9606594296</DistanceMeters>
          </Trackpoint>
          <Trackpoint>
            <Time>2022-08-26T22:11:46.000Z</Time>
            <Position>
              <LatitudeDegrees>50.17163182608783245086669921875</LatitudeDegrees>
              <LongitudeDegrees>16.9970671646296977996826171875</LongitudeDegrees>
            </Position>
            <AltitudeMeters>761.20001220703125</AltitudeMeters>
            <DistanceMeters>8457.5046607836</DistanceMeters>
          </Trackpoint>
          <Trackpoint>
            <Time>2022-08-26T22:11:52.000Z</Time>
            <Position>
              <LatitudeDegrees>50.17160718329250812530517578125</LatitudeDegrees>
              <LongitudeDegrees>16.9971813261508941650390625</LongitudeDegrees>
            </Position>
            <AltitudeMeters>760.5999755859375</AltitudeMeters>
            <DistanceMeters>8466.0923632888</DistanceMeters>
          </Trackpoint>
          <Trackpoint>
            <Time>2022-08-26T22:11:55.000Z</Time>
            <Position>
              <LatitudeDegrees>50.17159477807581424713134765625</LatitudeDegrees>
              <LongitudeDegrees>16.99722683988511562347412109375</LongitudeDegrees>
            </Position>
            <AltitudeMeters>760.4000244140625</AltitudeMeters>
            <DistanceMeters>8469.6186099142</DistanceMeters>
          </Trackpoint>
          <Trackpoint>
            <Time>2022-08-26T22:12:02.000Z</Time>
            <Position>
              <LatitudeDegrees>50.1715573109686374664306640625</LatitudeDegrees>
              <LongitudeDegrees>16.99733882211148738861083984375</LongitudeDegrees>
            </Position>
            <AltitudeMeters>760.20001220703125</AltitudeMeters>
            <DistanceMeters>8478.6256186726</DistanceMeters>
          </Trackpoint>
          <Trackpoint>
            <Time>2022-08-26T22:12:08.000Z</Time>
            <Position>
              <LatitudeDegrees>50.1715133897960186004638671875</LatitudeDegrees>
              <LongitudeDegrees>16.997418701648712158203125</LongitudeDegrees>
            </Position>
            <AltitudeMeters>759.79998779296875</AltitudeMeters>
            <DistanceMeters>8486.1303229826</DistanceMeters>
          </Trackpoint>
          <Trackpoint>
            <Time>2022-08-26T22:12:10.000Z</Time>
            <Position>
              <LatitudeDegrees>50.1714959554374217987060546875</LatitudeDegrees>
              <LongitudeDegrees>16.99744141660630702972412109375</LongitudeDegrees>
            </Position>
            <AltitudeMeters>759.79998779296875</AltitudeMeters>
            <DistanceMeters>8488.6588193979</DistanceMeters>
          </Trackpoint>
          <Trackpoint>
            <Time>2022-08-26T22:12:17.000Z</Time>
            <Position>
              <LatitudeDegrees>50.1714557223021984100341796875</LatitudeDegrees>
              <LongitudeDegrees>16.9975187815725803375244140625</LongitudeDegrees>
            </Position>
            <AltitudeMeters>759.5999755859375</AltitudeMeters>
            <DistanceMeters>8495.7636154768</DistanceMeters>
          </Trackpoint>
          <Trackpoint>
            <Time>2022-08-26T22:12:25.000Z</Time>
            <Position>
              <LatitudeDegrees>50.17144910059869289398193359375</LatitudeDegrees>
              <LongitudeDegrees>16.9975459389388561248779296875</LongitudeDegrees>
            </Position>
            <AltitudeMeters>759.4000244140625</AltitudeMeters>
            <DistanceMeters>8497.8346747011</DistanceMeters>
          </Trackpoint>
          <Trackpoint>
            <Time>2022-08-26T22:12:30.000Z</Time>
            <Position>
              <LatitudeDegrees>50.17141892574727535247802734375</LatitudeDegrees>
              <LongitudeDegrees>16.9975975714623928070068359375</LongitudeDegrees>
            </Position>
            <AltitudeMeters>759.20001220703125</AltitudeMeters>
            <DistanceMeters>8502.8161052254</DistanceMeters>
          </Trackpoint>
          <Trackpoint>
            <Time>2022-08-26T22:12:32.000Z</Time>
            <Position>
              <LatitudeDegrees>50.1714061014354228973388671875</LatitudeDegrees>
              <LongitudeDegrees>16.99761995114386081695556640625</LongitudeDegrees>
            </Position>
            <AltitudeMeters>759.20001220703125</AltitudeMeters>
            <DistanceMeters>8504.9578985939</DistanceMeters>
          </Trackpoint>
          <Trackpoint>
            <Time>2022-08-26T22:12:40.000Z</Time>
            <Position>
              <LatitudeDegrees>50.17136578448116779327392578125</LatitudeDegrees>
              <LongitudeDegrees>16.997693292796611785888671875</LongitudeDegrees>
            </Position>
            <AltitudeMeters>759</AltitudeMeters>
            <DistanceMeters>8511.8478268857</DistanceMeters>
          </Trackpoint>
          <Trackpoint>
            <Time>2022-08-26T22:12:44.000Z</Time>
            <Position>
              <LatitudeDegrees>50.17133929766714572906494140625</LatitudeDegrees>
              <LongitudeDegrees>16.99772137217223644256591796875</LongitudeDegrees>
            </Position>
            <AltitudeMeters>758.79998779296875</AltitudeMeters>
            <DistanceMeters>8515.4110119048</DistanceMeters>
          </Trackpoint>
          <Trackpoint>
            <Time>2022-08-26T22:12:48.000Z</Time>
            <Position>
              <LatitudeDegrees>50.17131683416664600372314453125</LatitudeDegrees>
              <LongitudeDegrees>16.99775473214685916900634765625</LongitudeDegrees>
            </Position>
            <AltitudeMeters>758.5999755859375</AltitudeMeters>
            <DistanceMeters>8518.860887374</DistanceMeters>
          </Trackpoint>
          <Trackpoint>
            <Time>2022-08-26T22:12:55.000Z</Time>
            <Position>
              <LatitudeDegrees>50.1712599210441112518310546875</LatitudeDegrees>
              <LongitudeDegrees>16.9978232122957706451416015625</LongitudeDegrees>
            </Position>
            <AltitudeMeters>758.4000244140625</AltitudeMeters>
            <DistanceMeters>8526.8578243736</DistanceMeters>
          </Trackpoint>
          <Trackpoint>
            <Time>2022-08-26T22:13:03.000Z</Time>
            <Position>
              <LatitudeDegrees>50.17121247947216033935546875</LatitudeDegrees>
              <LongitudeDegrees>16.99790594168007373809814453125</LongitudeDegrees>
            </Position>
            <AltitudeMeters>758.20001220703125</AltitudeMeters>
            <DistanceMeters>8534.7730420187</DistanceMeters>
          </Trackpoint>
          <Trackpoint>
            <Time>2022-08-26T22:13:09.000Z</Time>
            <Position>
              <LatitudeDegrees>50.1711640320718288421630859375</LatitudeDegrees>
              <LongitudeDegrees>16.99796595610678195953369140625</LongitudeDegrees>
            </Position>
            <AltitudeMeters>758</AltitudeMeters>
            <DistanceMeters>8541.6564140921</DistanceMeters>
          </Trackpoint>
          <Trackpoint>
            <Time>2022-08-26T22:13:11.000Z</Time>
            <Position>
              <LatitudeDegrees>50.17114852555096149444580078125</LatitudeDegrees>
              <LongitudeDegrees>16.9979915209114551544189453125</LongitudeDegrees>
            </Position>
            <AltitudeMeters>757.79998779296875</AltitudeMeters>
            <DistanceMeters>8544.1669903921</DistanceMeters>
          </Trackpoint>
          <Trackpoint>
            <Time>2022-08-26T22:13:15.000Z</Time>
            <Position>
              <LatitudeDegrees>50.17113528214395046234130859375</LatitudeDegrees>
              <LongitudeDegrees>16.998017169535160064697265625</LongitudeDegrees>
            </Position>
            <AltitudeMeters>757.5999755859375</AltitudeMeters>
            <DistanceMeters>8546.513977105</DistanceMeters>
          </Trackpoint>
          <Trackpoint>
            <Time>2022-08-26T22:13:25.000Z</Time>
            <Position>
              <LatitudeDegrees>50.171094126999378204345703125</LatitudeDegrees>
              <LongitudeDegrees>16.99814063496887683868408203125</LongitudeDegrees>
            </Position>
            <AltitudeMeters>757.20001220703125</AltitudeMeters>
            <DistanceMeters>8556.4368775653</DistanceMeters>
          </Trackpoint>
          <Trackpoint>
            <Time>2022-08-26T22:13:34.000Z</Time>
            <Position>
              <LatitudeDegrees>50.17103252001106739044189453125</LatitudeDegrees>
              <LongitudeDegrees>16.998276002705097198486328125</LongitudeDegrees>
            </Position>
            <AltitudeMeters>756.4000244140625</AltitudeMeters>
            <DistanceMeters>8568.2752383644</DistanceMeters>
          </Trackpoint>
          <Trackpoint>
            <Time>2022-08-26T22:13:38.000Z</Time>
            <Position>
              <LatitudeDegrees>50.17099714837968349456787109375</LatitudeDegrees>
              <LongitudeDegrees>16.99833744205534458160400390625</LongitudeDegrees>
            </Position>
            <AltitudeMeters>756</AltitudeMeters>
            <DistanceMeters>8574.1638284796</DistanceMeters>
          </Trackpoint>
          <Trackpoint>
            <Time>2022-08-26T22:13:41.000Z</Time>
            <Position>
              <LatitudeDegrees>50.1709809713065624237060546875</LatitudeDegrees>
              <LongitudeDegrees>16.9983794353902339935302734375</LongitudeDegrees>
            </Position>
            <AltitudeMeters>755.79998779296875</AltitudeMeters>
            <DistanceMeters>8577.6566258221</DistanceMeters>
          </Trackpoint>
          <Trackpoint>
            <Time>2022-08-26T22:13:48.000Z</Time>
            <Position>
              <LatitudeDegrees>50.1709222979843616485595703125</LatitudeDegrees>
              <LongitudeDegrees>16.99846333824098110198974609375</LongitudeDegrees>
            </Position>
            <AltitudeMeters>755</AltitudeMeters>
            <DistanceMeters>8586.5119735759</DistanceMeters>
          </Trackpoint>
          <Trackpoint>
            <Time>2022-08-26T22:13:55.000Z</Time>
            <Position>
              <LatitudeDegrees>50.1708689890801906585693359375</LatitudeDegrees>
              <LongitudeDegrees>16.99853894300758838653564453125</LongitudeDegrees>
            </Position>
            <AltitudeMeters>754.20001220703125</AltitudeMeters>
            <DistanceMeters>8594.5269572828</DistanceMeters>
          </Trackpoint>
          <Trackpoint>
            <Time>2022-08-26T22:13:58.000Z</Time>
            <Position>
              <LatitudeDegrees>50.17084124498069286346435546875</LatitudeDegrees>
              <LongitudeDegrees>16.9985640048980712890625</LongitudeDegrees>
            </Position>
            <AltitudeMeters>754</AltitudeMeters>
            <DistanceMeters>8598.0926756723</DistanceMeters>
          </Trackpoint>
          <Trackpoint>
            <Time>2022-08-26T22:14:01.000Z</Time>
            <Position>
              <LatitudeDegrees>50.17081224359571933746337890625</LatitudeDegrees>
              <LongitudeDegrees>16.9985795952379703521728515625</LongitudeDegrees>
            </Position>
            <AltitudeMeters>753.5999755859375</AltitudeMeters>
            <DistanceMeters>8601.5057093101</DistanceMeters>
          </Trackpoint>
          <Trackpoint>
            <Time>2022-08-26T22:14:08.000Z</Time>
            <Position>
              <LatitudeDegrees>50.170748122036457061767578125</LatitudeDegrees>
              <LongitudeDegrees>16.9985896535217761993408203125</LongitudeDegrees>
            </Position>
            <AltitudeMeters>753.20001220703125</AltitudeMeters>
            <DistanceMeters>8608.6788101443</DistanceMeters>
          </Trackpoint>
          <Trackpoint>
            <Time>2022-08-26T22:14:10.000Z</Time>
            <Position>
              <LatitudeDegrees>50.170722641050815582275390625</LatitudeDegrees>
              <LongitudeDegrees>16.99859979562461376190185546875</LongitudeDegrees>
            </Position>
            <AltitudeMeters>753.20001220703125</AltitudeMeters>
            <DistanceMeters>8611.6046454897</DistanceMeters>
          </Trackpoint>
          <Trackpoint>
            <Time>2022-08-26T22:14:12.000Z</Time>
            <Position>
              <LatitudeDegrees>50.17070378176867961883544921875</LatitudeDegrees>
              <LongitudeDegrees>16.9986171461641788482666015625</LongitudeDegrees>
            </Position>
            <AltitudeMeters>752.79998779296875</AltitudeMeters>
            <DistanceMeters>8614.0403713002</DistanceMeters>
          </Trackpoint>
          <Trackpoint>
            <Time>2022-08-26T22:14:15.000Z</Time>
            <Position>
              <LatitudeDegrees>50.17068207263946533203125</LatitudeDegrees>
              <LongitudeDegrees>16.99864254333078861236572265625</LongitudeDegrees>
            </Position>
            <AltitudeMeters>752.20001220703125</AltitudeMeters>
            <DistanceMeters>8617.0603675267</DistanceMeters>
          </Trackpoint>
          <Trackpoint>
            <Time>2022-08-26T22:14:16.000Z</Time>
            <Position>
              <LatitudeDegrees>50.17067394219338893890380859375</LatitudeDegrees>
              <LongitudeDegrees>16.99865310452878475189208984375</LongitudeDegrees>
            </Position>
            <AltitudeMeters>752</AltitudeMeters>
            <DistanceMeters>8618.2396180397</DistanceMeters>
          </Trackpoint>
          <Trackpoint>
            <Time>2022-08-26T22:14:22.000Z</Time>
            <Position>
              <LatitudeDegrees>50.17063052393496036529541015625</LatitudeDegrees>
              <LongitudeDegrees>16.99866953305900096893310546875</LongitudeDegrees>
            </Position>
            <AltitudeMeters>751</AltitudeMeters>
            <DistanceMeters>8623.211976565</DistanceMeters>
          </Trackpoint>
          <Trackpoint>
            <Time>2022-08-26T22:14:23.000Z</Time>
            <Position>
              <LatitudeDegrees>50.17062842845916748046875</LatitudeDegrees>
              <LongitudeDegrees>16.99866852723062038421630859375</LongitudeDegrees>
            </Position>
            <AltitudeMeters>750.79998779296875</AltitudeMeters>
            <DistanceMeters>8623.4447435271</DistanceMeters>
          </Trackpoint>
          <Trackpoint>
            <Time>2022-08-26T22:14:29.000Z</Time>
            <Position>
              <LatitudeDegrees>50.1706188730895519256591796875</LatitudeDegrees>
              <LongitudeDegrees>16.99867472983896732330322265625</LongitudeDegrees>
            </Position>
            <AltitudeMeters>750</AltitudeMeters>
            <DistanceMeters>8624.6007934022</DistanceMeters>
          </Trackpoint>
          <Trackpoint>
            <Time>2022-08-26T22:14:31.000Z</Time>
            <Position>
              <LatitudeDegrees>50.17060604877769947052001953125</LatitudeDegrees>
              <LongitudeDegrees>16.99868361465632915496826171875</LongitudeDegrees>
            </Position>
            <AltitudeMeters>749.79998779296875</AltitudeMeters>
            <DistanceMeters>8626.162241653</DistanceMeters>
          </Trackpoint>
          <Trackpoint>
            <Time>2022-08-26T22:14:35.000Z</Time>
            <Position>
              <LatitudeDegrees>50.170569084584712982177734375</LatitudeDegrees>
              <LongitudeDegrees>16.99869987554848194122314453125</LongitudeDegrees>
            </Position>
            <AltitudeMeters>749.5999755859375</AltitudeMeters>
            <DistanceMeters>8630.4373878169</DistanceMeters>
          </Trackpoint>
          <Trackpoint>
            <Time>2022-08-26T22:14:43.000Z</Time>
            <Position>
              <LatitudeDegrees>50.17048903740942478179931640625</LatitudeDegrees>
              <LongitudeDegrees>16.99874362908303737640380859375</LongitudeDegrees>
            </Position>
            <AltitudeMeters>749.20001220703125</AltitudeMeters>
            <DistanceMeters>8639.8766549639</DistanceMeters>
          </Trackpoint>
          <Trackpoint>
            <Time>2022-08-26T22:14:45.000Z</Time>
            <Position>
              <LatitudeDegrees>50.17046892084181308746337890625</LatitudeDegrees>
              <LongitudeDegrees>16.9987442158162593841552734375</LongitudeDegrees>
            </Position>
            <AltitudeMeters>748.79998779296875</AltitudeMeters>
            <DistanceMeters>8642.1153359207</DistanceMeters>
          </Trackpoint>
          <Trackpoint>
            <Time>2022-08-26T22:14:50.000Z</Time>
            <Position>
              <LatitudeDegrees>50.170416869223117828369140625</LatitudeDegrees>
              <LongitudeDegrees>16.99876609258353710174560546875</LongitudeDegrees>
            </Position>
            <AltitudeMeters>748.20001220703125</AltitudeMeters>
            <DistanceMeters>8648.116331243</DistanceMeters>
          </Trackpoint>
          <Trackpoint>
            <Time>2022-08-26T22:14:53.000Z</Time>
            <Position>
              <LatitudeDegrees>50.1703804917633533477783203125</LatitudeDegrees>
              <LongitudeDegrees>16.99880464933812618255615234375</LongitudeDegrees>
            </Position>
            <AltitudeMeters>747.79998779296875</AltitudeMeters>
            <DistanceMeters>8653.0099763803</DistanceMeters>
          </Trackpoint>
          <Trackpoint>
            <Time>2022-08-26T22:14:56.000Z</Time>
            <Position>
              <LatitudeDegrees>50.1703529991209506988525390625</LatitudeDegrees>
              <LongitudeDegrees>16.9988126121461391448974609375</LongitudeDegrees>
            </Position>
            <AltitudeMeters>747.5999755859375</AltitudeMeters>
            <DistanceMeters>8656.1212850997</DistanceMeters>
          </Trackpoint>
          <Trackpoint>
            <Time>2022-08-26T22:15:03.000Z</Time>
            <Position>
              <LatitudeDegrees>50.17028317786753177642822265625</LatitudeDegrees>
              <LongitudeDegrees>16.998856700956821441650390625</LongitudeDegrees>
            </Position>
            <AltitudeMeters>746.5999755859375</AltitudeMeters>
            <DistanceMeters>8664.5041279878</DistanceMeters>
          </Trackpoint>
          <Trackpoint>
            <Time>2022-08-26T22:15:04.000Z</Time>
            <Position>
              <LatitudeDegrees>50.1702730357646942138671875</LatitudeDegrees>
              <LongitudeDegrees>16.9988525100052356719970703125</LongitudeDegrees>
            </Position>
            <AltitudeMeters>746.4000244140625</AltitudeMeters>
            <DistanceMeters>8665.6756960053</DistanceMeters>
          </Trackpoint>
          <Trackpoint>
            <Time>2022-08-26T22:15:09.000Z</Time>
            <Position>
              <LatitudeDegrees>50.17021846957504749298095703125</LatitudeDegrees>
              <LongitudeDegrees>16.99885913170874118804931640625</LongitudeDegrees>
            </Position>
            <AltitudeMeters>745.79998779296875</AltitudeMeters>
            <DistanceMeters>8671.76704923</DistanceMeters>
          </Trackpoint>
          <Trackpoint>
            <Time>2022-08-26T22:15:10.000Z</Time>
            <Position>
              <LatitudeDegrees>50.17020665109157562255859375</LatitudeDegrees>
              <LongitudeDegrees>16.99886801652610301971435546875</LongitudeDegrees>
            </Position>
            <AltitudeMeters>745.5999755859375</AltitudeMeters>
            <DistanceMeters>8673.2237811766</DistanceMeters>
          </Trackpoint>
          <Trackpoint>
            <Time>2022-08-26T22:15:12.000Z</Time>
            <Position>
              <LatitudeDegrees>50.17019047401845455169677734375</LatitudeDegrees>
              <LongitudeDegrees>16.9988669268786907196044921875</LongitudeDegrees>
            </Position>
            <AltitudeMeters>745.20001220703125</AltitudeMeters>
            <DistanceMeters>8675.0267863125</DistanceMeters>
          </Trackpoint>
          <Trackpoint>
            <Time>2022-08-26T22:15:17.000Z</Time>
            <Position>
              <LatitudeDegrees>50.17015242017805576324462890625</LatitudeDegrees>
              <LongitudeDegrees>16.99886885471642017364501953125</LongitudeDegrees>
            </Position>
            <AltitudeMeters>744.4000244140625</AltitudeMeters>
            <DistanceMeters>8679.2648073184</DistanceMeters>
          </Trackpoint>
          <Trackpoint>
            <Time>2022-08-26T22:15:21.000Z</Time>
            <Position>
              <LatitudeDegrees>50.17011704854667186737060546875</LatitudeDegrees>
              <LongitudeDegrees>16.99886248447000980377197265625</LongitudeDegrees>
            </Position>
            <AltitudeMeters>744</AltitudeMeters>
            <DistanceMeters>8683.2275466407</DistanceMeters>
          </Trackpoint>
          <Trackpoint>
            <Time>2022-08-26T22:15:26.000Z</Time>
            <Position>
              <LatitudeDegrees>50.17006055451929569244384765625</LatitudeDegrees>
              <LongitudeDegrees>16.9988813437521457672119140625</LongitudeDegrees>
            </Position>
            <AltitudeMeters>743.4000244140625</AltitudeMeters>
            <DistanceMeters>8689.6571414926</DistanceMeters>
          </Trackpoint>
          <Trackpoint>
            <Time>2022-08-26T22:15:28.000Z</Time>
            <Position>
              <LatitudeDegrees>50.17004513181746006011962890625</LatitudeDegrees>
              <LongitudeDegrees>16.9988736324012279510498046875</LongitudeDegrees>
            </Position>
            <AltitudeMeters>743.4000244140625</AltitudeMeters>
            <DistanceMeters>8691.4601466285</DistanceMeters>
          </Trackpoint>
          <Trackpoint>
            <Time>2022-08-26T22:15:35.000Z</Time>
            <Position>
              <LatitudeDegrees>50.1699821837246417999267578125</LatitudeDegrees>
              <LongitudeDegrees>16.9988994486629962921142578125</LongitudeDegrees>
            </Position>
            <AltitudeMeters>742.5999755859375</AltitudeMeters>
            <DistanceMeters>8698.7046482878</DistanceMeters>
          </Trackpoint>
          <Trackpoint>
            <Time>2022-08-26T22:15:36.000Z</Time>
            <Position>
              <LatitudeDegrees>50.16997673548758029937744140625</LatitudeDegrees>
              <LongitudeDegrees>16.998903639614582061767578125</LongitudeDegrees>
            </Position>
            <AltitudeMeters>742.4000244140625</AltitudeMeters>
            <DistanceMeters>8699.3898956702</DistanceMeters>
          </Trackpoint>
          <Trackpoint>
            <Time>2022-08-26T22:15:40.000Z</Time>
            <Position>
              <LatitudeDegrees>50.169944465160369873046875</LatitudeDegrees>
              <LongitudeDegrees>16.998919062316417694091796875</LongitudeDegrees>
            </Position>
            <AltitudeMeters>741.20001220703125</AltitudeMeters>
            <DistanceMeters>8703.14555532</DistanceMeters>
          </Trackpoint>
          <Trackpoint>
            <Time>2022-08-26T22:15:42.000Z</Time>
            <Position>
              <LatitudeDegrees>50.16992610879242420196533203125</LatitudeDegrees>
              <LongitudeDegrees>16.99892886914312839508056640625</LongitudeDegrees>
            </Position>
            <AltitudeMeters>740.79998779296875</AltitudeMeters>
            <DistanceMeters>8705.3041473253</DistanceMeters>
          </Trackpoint>
          <Trackpoint>
            <Time>2022-08-26T22:15:43.000Z</Time>
            <Position>
              <LatitudeDegrees>50.16991789452731609344482421875</LatitudeDegrees>
              <LongitudeDegrees>16.9989366643130779266357421875</LongitudeDegrees>
            </Position>
            <AltitudeMeters>740.5999755859375</AltitudeMeters>
            <DistanceMeters>8706.3708195486</DistanceMeters>
          </Trackpoint>
          <Trackpoint>
            <Time>2022-08-26T22:15:46.000Z</Time>
            <Position>
              <LatitudeDegrees>50.1698930002748966217041015625</LatitudeDegrees>
              <LongitudeDegrees>16.998952925205230712890625</LongitudeDegrees>
            </Position>
            <AltitudeMeters>740.20001220703125</AltitudeMeters>
            <DistanceMeters>8709.3758281083</DistanceMeters>
          </Trackpoint>
          <Trackpoint>
            <Time>2022-08-26T22:15:48.000Z</Time>
            <Position>
              <LatitudeDegrees>50.16987397335469722747802734375</LatitudeDegrees>
              <LongitudeDegrees>16.998975388705730438232421875</LongitudeDegrees>
            </Position>
            <AltitudeMeters>739.79998779296875</AltitudeMeters>
            <DistanceMeters>8712.0314805145</DistanceMeters>
          </Trackpoint>
          <Trackpoint>
            <Time>2022-08-26T22:15:54.000Z</Time>
            <Position>
              <LatitudeDegrees>50.16981613822281360626220703125</LatitudeDegrees>
              <LongitudeDegrees>16.99900849722325801849365234375</LongitudeDegrees>
            </Position>
            <AltitudeMeters>739</AltitudeMeters>
            <DistanceMeters>8718.8879065491</DistanceMeters>
          </Trackpoint>
          <Trackpoint>
            <Time>2022-08-26T22:15:55.000Z</Time>
            <Position>
              <LatitudeDegrees>50.16980524174869060516357421875</LatitudeDegrees>
              <LongitudeDegrees>16.999020315706729888916015625</LongitudeDegrees>
            </Position>
            <AltitudeMeters>739</AltitudeMeters>
            <DistanceMeters>8720.3661752998</DistanceMeters>
          </Trackpoint>
          <Trackpoint>
            <Time>2022-08-26T22:16:03.000Z</Time>
            <Position>
              <LatitudeDegrees>50.16972226090729236602783203125</LatitudeDegrees>
              <LongitudeDegrees>16.9990302063524723052978515625</LongitudeDegrees>
            </Position>
            <AltitudeMeters>738</AltitudeMeters>
            <DistanceMeters>8729.6292086243</DistanceMeters>
          </Trackpoint>
          <Trackpoint>
            <Time>2022-08-26T22:16:09.000Z</Time>
            <Position>
              <LatitudeDegrees>50.16966509632766246795654296875</LatitudeDegrees>
              <LongitudeDegrees>16.9990560226142406463623046875</LongitudeDegrees>
            </Position>
            <AltitudeMeters>737.4000244140625</AltitudeMeters>
            <DistanceMeters>8736.2525092641</DistanceMeters>
          </Trackpoint>
          <Trackpoint>
            <Time>2022-08-26T22:16:10.000Z</Time>
            <Position>
              <LatitudeDegrees>50.16965520568192005157470703125</LatitudeDegrees>
              <LongitudeDegrees>16.99906398542225360870361328125</LongitudeDegrees>
            </Position>
            <AltitudeMeters>737.4000244140625</AltitudeMeters>
            <DistanceMeters>8737.4878565509</DistanceMeters>
          </Trackpoint>
          <Trackpoint>
            <Time>2022-08-26T22:16:13.000Z</Time>
            <Position>
              <LatitudeDegrees>50.16962972469627857208251953125</LatitudeDegrees>
              <LongitudeDegrees>16.9990865327417850494384765625</LongitudeDegrees>
            </Position>
            <AltitudeMeters>737.20001220703125</AltitudeMeters>
            <DistanceMeters>8740.7465940208</DistanceMeters>
          </Trackpoint>
          <Trackpoint>
            <Time>2022-08-26T22:16:16.000Z</Time>
            <Position>
              <LatitudeDegrees>50.16960424371063709259033203125</LatitudeDegrees>
              <LongitudeDegrees>16.9991160370409488677978515625</LongitudeDegrees>
            </Position>
            <AltitudeMeters>737</AltitudeMeters>
            <DistanceMeters>8744.2766797836</DistanceMeters>
          </Trackpoint>
          <Trackpoint>
            <Time>2022-08-26T22:16:18.000Z</Time>
            <Position>
              <LatitudeDegrees>50.1695845462381839752197265625</LatitudeDegrees>
              <LongitudeDegrees>16.999135315418243408203125</LongitudeDegrees>
            </Position>
            <AltitudeMeters>736.79998779296875</AltitudeMeters>
            <DistanceMeters>8746.8634319258</DistanceMeters>
          </Trackpoint>
          <Trackpoint>
            <Time>2022-08-26T22:16:24.000Z</Time>
            <Position>
              <LatitudeDegrees>50.169536434113979339599609375</LatitudeDegrees>
              <LongitudeDegrees>16.99917429126799106597900390625</LongitudeDegrees>
            </Position>
            <AltitudeMeters>736.20001220703125</AltitudeMeters>
            <DistanceMeters>8752.8966929135</DistanceMeters>
          </Trackpoint>
          <Trackpoint>
            <Time>2022-08-26T22:16:25.000Z</Time>
            <Position>
              <LatitudeDegrees>50.16952998004853725433349609375</LatitudeDegrees>
              <LongitudeDegrees>16.99917781166732311248779296875</LongitudeDegrees>
            </Position>
            <AltitudeMeters>736.20001220703125</AltitudeMeters>
            <DistanceMeters>8753.6628227777</DistanceMeters>
          </Trackpoint>
          <Trackpoint>
            <Time>2022-08-26T22:16:31.000Z</Time>
            <Position>
              <LatitudeDegrees>50.16951455734670162200927734375</LatitudeDegrees>
              <LongitudeDegrees>16.999175548553466796875</LongitudeDegrees>
            </Position>
            <AltitudeMeters>735.79998779296875</AltitudeMeters>
            <DistanceMeters>8755.3890687702</DistanceMeters>
          </Trackpoint>
          <Trackpoint>
            <Time>2022-08-26T22:16:39.000Z</Time>
            <Position>
              <LatitudeDegrees>50.16946879215538501739501953125</LatitudeDegrees>
              <LongitudeDegrees>16.9991737045347690582275390625</LongitudeDegrees>
            </Position>
            <AltitudeMeters>734.79998779296875</AltitudeMeters>
            <DistanceMeters>8760.4843086837</DistanceMeters>
          </Trackpoint>
          <Trackpoint>
            <Time>2022-08-26T22:16:40.000Z</Time>
            <Position>
              <LatitudeDegrees>50.1694591529667377471923828125</LatitudeDegrees>
              <LongitudeDegrees>16.99918166734278202056884765625</LongitudeDegrees>
            </Position>
            <AltitudeMeters>734.79998779296875</AltitudeMeters>
            <DistanceMeters>8761.6938012979</DistanceMeters>
          </Trackpoint>
          <Trackpoint>
            <Time>2022-08-26T22:16:49.000Z</Time>
            <Position>
              <LatitudeDegrees>50.169392935931682586669921875</LatitudeDegrees>
              <LongitudeDegrees>16.99920010752975940704345703125</LongitudeDegrees>
            </Position>
            <AltitudeMeters>734.20001220703125</AltitudeMeters>
            <DistanceMeters>8769.1798319158</DistanceMeters>
          </Trackpoint>
          <Trackpoint>
            <Time>2022-08-26T22:16:52.000Z</Time>
            <Position>
              <LatitudeDegrees>50.16937441192567348480224609375</LatitudeDegrees>
              <LongitudeDegrees>16.99920237064361572265625</LongitudeDegrees>
            </Position>
            <AltitudeMeters>733.79998779296875</AltitudeMeters>
            <DistanceMeters>8771.2487099292</DistanceMeters>
          </Trackpoint>
          <Trackpoint>
            <Time>2022-08-26T22:16:59.000Z</Time>
            <Position>
              <LatitudeDegrees>50.16932596452534198760986328125</LatitudeDegrees>
              <LongitudeDegrees>16.99924168176949024200439453125</LongitudeDegrees>
            </Position>
            <AltitudeMeters>733.4000244140625</AltitudeMeters>
            <DistanceMeters>8777.3259636392</DistanceMeters>
          </Trackpoint>
          <Trackpoint>
            <Time>2022-08-26T22:17:07.000Z</Time>
            <Position>
              <LatitudeDegrees>50.16928690485656261444091796875</LatitudeDegrees>
              <LongitudeDegrees>16.999243609607219696044921875</LongitudeDegrees>
            </Position>
            <AltitudeMeters>732.79998779296875</AltitudeMeters>
            <DistanceMeters>8781.6754475339</DistanceMeters>
          </Trackpoint>
          <Trackpoint>
            <Time>2022-08-26T22:17:09.000Z</Time>
            <Position>
              <LatitudeDegrees>50.16927885822951793670654296875</LatitudeDegrees>
              <LongitudeDegrees>16.999256350100040435791015625</LongitudeDegrees>
            </Position>
            <AltitudeMeters>732.5999755859375</AltitudeMeters>
            <DistanceMeters>8782.9503646919</DistanceMeters>
          </Trackpoint>
          <Trackpoint>
            <Time>2022-08-26T22:17:20.000Z</Time>
            <Position>
              <LatitudeDegrees>50.16921289265155792236328125</LatitudeDegrees>
              <LongitudeDegrees>16.999314017593860626220703125</LongitudeDegrees>
            </Position>
            <AltitudeMeters>731.79998779296875</AltitudeMeters>
            <DistanceMeters>8791.3654618081</DistanceMeters>
          </Trackpoint>
          <Trackpoint>
            <Time>2022-08-26T22:17:21.000Z</Time>
            <Position>
              <LatitudeDegrees>50.16920677386224269866943359375</LatitudeDegrees>
              <LongitudeDegrees>16.99932097457349300384521484375</LongitudeDegrees>
            </Position>
            <AltitudeMeters>731.5999755859375</AltitudeMeters>
            <DistanceMeters>8792.2100777202</DistanceMeters>
          </Trackpoint>
          <Trackpoint>
            <Time>2022-08-26T22:17:28.000Z</Time>
            <Position>
              <LatitudeDegrees>50.1691540516912937164306640625</LatitudeDegrees>
              <LongitudeDegrees>16.99936154298484325408935546875</LongitudeDegrees>
            </Position>
            <AltitudeMeters>730.5999755859375</AltitudeMeters>
            <DistanceMeters>8798.7524444437</DistanceMeters>
          </Trackpoint>
          <Trackpoint>
            <Time>2022-08-26T22:17:32.000Z</Time>
            <Position>
              <LatitudeDegrees>50.16913150437176227569580078125</LatitudeDegrees>
              <LongitudeDegrees>16.999379061162471771240234375</LongitudeDegrees>
            </Position>
            <AltitudeMeters>730.4000244140625</AltitudeMeters>
            <DistanceMeters>8801.5553298331</DistanceMeters>
          </Trackpoint>
          <Trackpoint>
            <Time>2022-08-26T22:17:41.000Z</Time>
            <Position>
              <LatitudeDegrees>50.169082470238208770751953125</LatitudeDegrees>
              <LongitudeDegrees>16.99942457489669322967529296875</LongitudeDegrees>
            </Position>
            <AltitudeMeters>729.4000244140625</AltitudeMeters>
            <DistanceMeters>8807.9043660785</DistanceMeters>
          </Trackpoint>
          <Trackpoint>
            <Time>2022-08-26T22:17:45.000Z</Time>
            <Position>
              <LatitudeDegrees>50.16904416494071483612060546875</LatitudeDegrees>
              <LongitudeDegrees>16.9994861818850040435791015625</LongitudeDegrees>
            </Position>
            <AltitudeMeters>729.4000244140625</AltitudeMeters>
            <DistanceMeters>8814.0252963319</DistanceMeters>
          </Trackpoint>
          <Trackpoint>
            <Time>2022-08-26T22:17:54.000Z</Time>
            <Position>
              <LatitudeDegrees>50.1689753495156764984130859375</LatitudeDegrees>
              <LongitudeDegrees>16.9996142573654651641845703125</LongitudeDegrees>
            </Position>
            <AltitudeMeters>729.20001220703125</AltitudeMeters>
            <DistanceMeters>8825.9431011795</DistanceMeters>
          </Trackpoint>
          <Trackpoint>
            <Time>2022-08-26T22:18:01.000Z</Time>
            <Position>
              <LatitudeDegrees>50.16894006170332431793212890625</LatitudeDegrees>
              <LongitudeDegrees>16.99971660040318965911865234375</LongitudeDegrees>
            </Position>
            <AltitudeMeters>728.4000244140625</AltitudeMeters>
            <DistanceMeters>8834.2289729625</DistanceMeters>
          </Trackpoint>
          <Trackpoint>
            <Time>2022-08-26T22:18:08.000Z</Time>
            <Position>
              <LatitudeDegrees>50.16891307197511196136474609375</LatitudeDegrees>
              <LongitudeDegrees>16.99980125762522220611572265625</LongitudeDegrees>
            </Position>
            <AltitudeMeters>727.4000244140625</AltitudeMeters>
            <DistanceMeters>8840.9711836399</DistanceMeters>
          </Trackpoint>
          <Trackpoint>
            <Time>2022-08-26T22:18:17.000Z</Time>
            <Position>
              <LatitudeDegrees>50.16886864788830280303955078125</LatitudeDegrees>
              <LongitudeDegrees>16.99995146133005619049072265625</LongitudeDegrees>
            </Position>
            <AltitudeMeters>726.20001220703125</AltitudeMeters>
            <DistanceMeters>8852.7659857873</DistanceMeters>
          </Trackpoint>
          <Trackpoint>
            <Time>2022-08-26T22:18:21.000Z</Time>
            <Position>
              <LatitudeDegrees>50.1688395626842975616455078125</LatitudeDegrees>
              <LongitudeDegrees>17.000029496848583221435546875</LongitudeDegrees>
            </Position>
            <AltitudeMeters>725.79998779296875</AltitudeMeters>
            <DistanceMeters>8859.2025990835</DistanceMeters>
          </Trackpoint>
          <Trackpoint>
            <Time>2022-08-26T22:18:27.000Z</Time>
            <Position>
              <LatitudeDegrees>50.1688134111464023590087890625</LatitudeDegrees>
              <LongitudeDegrees>17.00010719709098339080810546875</LongitudeDegrees>
            </Position>
            <AltitudeMeters>725.20001220703125</AltitudeMeters>
            <DistanceMeters>8865.4599476802</DistanceMeters>
          </Trackpoint>
          <Trackpoint>
            <Time>2022-08-26T22:18:31.000Z</Time>
            <Position>
              <LatitudeDegrees>50.16882757656276226043701171875</LatitudeDegrees>
              <LongitudeDegrees>17.00018766336143016815185546875</LongitudeDegrees>
            </Position>
            <AltitudeMeters>724.5999755859375</AltitudeMeters>
            <DistanceMeters>8871.4095610845</DistanceMeters>
          </Trackpoint>
          <Trackpoint>
            <Time>2022-08-26T22:18:40.000Z</Time>
            <Position>
              <LatitudeDegrees>50.16891424544155597686767578125</LatitudeDegrees>
              <LongitudeDegrees>17.00037323869764804840087890625</LongitudeDegrees>
            </Position>
            <AltitudeMeters>724.4000244140625</AltitudeMeters>
            <DistanceMeters>8887.7828597585</DistanceMeters>
          </Trackpoint>
          <Trackpoint>
            <Time>2022-08-26T22:18:51.000Z</Time>
            <Position>
              <LatitudeDegrees>50.1689507067203521728515625</LatitudeDegrees>
              <LongitudeDegrees>17.00049846433103084564208984375</LongitudeDegrees>
            </Position>
            <AltitudeMeters>724.79998779296875</AltitudeMeters>
            <DistanceMeters>8897.5895061847</DistanceMeters>
          </Trackpoint>
          <Trackpoint>
            <Time>2022-08-26T22:19:02.000Z</Time>
            <Position>
              <LatitudeDegrees>50.16895833425223827362060546875</LatitudeDegrees>
              <LongitudeDegrees>17.0005211792886257171630859375</LongitudeDegrees>
            </Position>
            <AltitudeMeters>725.5999755859375</AltitudeMeters>
            <DistanceMeters>8899.4173815317</DistanceMeters>
          </Trackpoint>
          <Trackpoint>
            <Time>2022-08-26T22:19:10.000Z</Time>
            <Position>
              <LatitudeDegrees>50.168964453041553497314453125</LatitudeDegrees>
              <LongitudeDegrees>17.00057767331600189208984375</LongitudeDegrees>
            </Position>
            <AltitudeMeters>726</AltitudeMeters>
            <DistanceMeters>8903.5013197281</DistanceMeters>
          </Trackpoint>
          <Trackpoint>
            <Time>2022-08-26T22:19:14.000Z</Time>
            <Position>
              <LatitudeDegrees>50.16895682550966739654541015625</LatitudeDegrees>
              <LongitudeDegrees>17.0006177388131618499755859375</LongitudeDegrees>
            </Position>
            <AltitudeMeters>726.5999755859375</AltitudeMeters>
            <DistanceMeters>8906.482191282</DistanceMeters>
          </Trackpoint>
          <Trackpoint>
            <Time>2022-08-26T22:19:18.000Z</Time>
            <Position>
              <LatitudeDegrees>50.16894735395908355712890625</LatitudeDegrees>
              <LongitudeDegrees>17.00061446987092494964599609375</LongitudeDegrees>
            </Position>
            <AltitudeMeters>727</AltitudeMeters>
            <DistanceMeters>8907.5656625265</DistanceMeters>
          </Trackpoint>
          <Trackpoint>
            <Time>2022-08-26T22:19:25.000Z</Time>
            <Position>
              <LatitudeDegrees>50.168932266533374786376953125</LatitudeDegrees>
              <LongitudeDegrees>17.00062192976474761962890625</LongitudeDegrees>
            </Position>
            <AltitudeMeters>728</AltitudeMeters>
            <DistanceMeters>8909.3281455184</DistanceMeters>
          </Trackpoint>
          <Trackpoint>
            <Time>2022-08-26T22:19:29.000Z</Time>
            <Position>
              <LatitudeDegrees>50.168934278190135955810546875</LatitudeDegrees>
              <LongitudeDegrees>17.00062888674437999725341796875</LongitudeDegrees>
            </Position>
            <AltitudeMeters>728</AltitudeMeters>
            <DistanceMeters>8909.8822417186</DistanceMeters>
          </Trackpoint>
          <Trackpoint>
            <Time>2022-08-26T22:19:38.000Z</Time>
            <Position>
              <LatitudeDegrees>50.168940313160419464111328125</LatitudeDegrees>
              <LongitudeDegrees>17.00065738521516323089599609375</LongitudeDegrees>
            </Position>
            <AltitudeMeters>729</AltitudeMeters>
            <DistanceMeters>8912.0219259844</DistanceMeters>
          </Trackpoint>
          <Trackpoint>
            <Time>2022-08-26T22:19:39.000Z</Time>
            <Position>
              <LatitudeDegrees>50.1689421571791172027587890625</LatitudeDegrees>
              <LongitudeDegrees>17.0006636716425418853759765625</LongitudeDegrees>
            </Position>
            <AltitudeMeters>729.4000244140625</AltitudeMeters>
            <DistanceMeters>8912.5064690552</DistanceMeters>
          </Trackpoint>
          <Trackpoint>
            <Time>2022-08-26T22:19:43.000Z</Time>
            <Position>
              <LatitudeDegrees>50.1689505390822887420654296875</LatitudeDegrees>
              <LongitudeDegrees>17.000680603086948394775390625</LongitudeDegrees>
            </Position>
            <AltitudeMeters>730.4000244140625</AltitudeMeters>
            <DistanceMeters>8914.0298631757</DistanceMeters>
          </Trackpoint>
          <Trackpoint>
            <Time>2022-08-26T22:19:49.000Z</Time>
            <Position>
              <LatitudeDegrees>50.16898029483854770660400390625</LatitudeDegrees>
              <LongitudeDegrees>17.000684626400470733642578125</LongitudeDegrees>
            </Position>
            <AltitudeMeters>730.5999755859375</AltitudeMeters>
            <DistanceMeters>8917.354440377</DistanceMeters>
          </Trackpoint>
          <Trackpoint>
            <Time>2022-08-26T22:19:57.000Z</Time>
            <Position>
              <LatitudeDegrees>50.16900376416742801666259765625</LatitudeDegrees>
              <LongitudeDegrees>17.000683955848217010498046875</LongitudeDegrees>
            </Position>
            <AltitudeMeters>729.4000244140625</AltitudeMeters>
            <DistanceMeters>8919.9672430468</DistanceMeters>
          </Trackpoint>
          <Trackpoint>
            <Time>2022-08-26T22:19:58.000Z</Time>
            <Position>
              <LatitudeDegrees>50.16900409944355487823486328125</LatitudeDegrees>
              <LongitudeDegrees>17.00068219564855098724365234375</LongitudeDegrees>
            </Position>
            <AltitudeMeters>729.4000244140625</AltitudeMeters>
            <DistanceMeters>8920.1016311151</DistanceMeters>
          </Trackpoint>
          <Trackpoint>
            <Time>2022-08-26T22:20:10.000Z</Time>
            <Position>
              <LatitudeDegrees>50.16904927790164947509765625</LatitudeDegrees>
              <LongitudeDegrees>17.00057976879179477691650390625</LongitudeDegrees>
            </Position>
            <AltitudeMeters>729.4000244140625</AltitudeMeters>
            <DistanceMeters>8928.9676795835</DistanceMeters>
          </Trackpoint>
          <Trackpoint>
            <Time>2022-08-26T22:20:22.000Z</Time>
            <Position>
              <LatitudeDegrees>50.1690943725407123565673828125</LatitudeDegrees>
              <LongitudeDegrees>17.00048035942018032073974609375</LongitudeDegrees>
            </Position>
            <AltitudeMeters>730.4000244140625</AltitudeMeters>
            <DistanceMeters>8937.6521023312</DistanceMeters>
          </Trackpoint>
          <Trackpoint>
            <Time>2022-08-26T22:20:32.000Z</Time>
            <Position>
              <LatitudeDegrees>50.16910032369196414947509765625</LatitudeDegrees>
              <LongitudeDegrees>17.00043551623821258544921875</LongitudeDegrees>
            </Position>
            <AltitudeMeters>729.5999755859375</AltitudeMeters>
            <DistanceMeters>8940.916377167</DistanceMeters>
          </Trackpoint>
          <Trackpoint>
            <Time>2022-08-26T22:20:44.000Z</Time>
            <Position>
              <LatitudeDegrees>50.1690605096518993377685546875</LatitudeDegrees>
              <LongitudeDegrees>17.00034222565591335296630859375</LongitudeDegrees>
            </Position>
            <AltitudeMeters>728.4000244140625</AltitudeMeters>
            <DistanceMeters>8948.9076662127</DistanceMeters>
          </Trackpoint>
          <Trackpoint>
            <Time>2022-08-26T22:20:50.000Z</Time>
            <Position>
              <LatitudeDegrees>50.1690474338829517364501953125</LatitudeDegrees>
              <LongitudeDegrees>17.00032152235507965087890625</LongitudeDegrees>
            </Position>
            <AltitudeMeters>727.20001220703125</AltitudeMeters>
            <DistanceMeters>8950.978725437</DistanceMeters>
          </Trackpoint>
          <Trackpoint>
            <Time>2022-08-26T22:20:55.000Z</Time>
            <Position>
              <LatitudeDegrees>50.16903243027627468109130859375</LatitudeDegrees>
              <LongitudeDegrees>17.00030148960649967193603515625</LongitudeDegrees>
            </Position>
            <AltitudeMeters>726.4000244140625</AltitudeMeters>
            <DistanceMeters>8953.174644566</DistanceMeters>
          </Trackpoint>
          <Trackpoint>
            <Time>2022-08-26T22:20:56.000Z</Time>
            <Position>
              <LatitudeDegrees>50.16902773641049861907958984375</LatitudeDegrees>
              <LongitudeDegrees>17.00029947794973850250244140625</LongitudeDegrees>
            </Position>
            <AltitudeMeters>726.20001220703125</AltitudeMeters>
            <DistanceMeters>8953.712196839</DistanceMeters>
          </Trackpoint>
          <Trackpoint>
            <Time>2022-08-26T22:21:04.000Z</Time>
            <Position>
              <LatitudeDegrees>50.16899295151233673095703125</LatitudeDegrees>
              <LongitudeDegrees>17.00027701444923877716064453125</LongitudeDegrees>
            </Position>
            <AltitudeMeters>725.20001220703125</AltitudeMeters>
            <DistanceMeters>8957.9020021576</DistanceMeters>
          </Trackpoint>
          <Trackpoint>
            <Time>2022-08-26T22:21:07.000Z</Time>
            <Position>
              <LatitudeDegrees>50.1689802110195159912109375</LatitudeDegrees>
              <LongitudeDegrees>17.0002754218876361846923828125</LongitudeDegrees>
            </Position>
            <AltitudeMeters>725</AltitudeMeters>
            <DistanceMeters>8959.3210536179</DistanceMeters>
          </Trackpoint>
          <Trackpoint>
            <Time>2022-08-26T22:21:15.000Z</Time>
            <Position>
              <LatitudeDegrees>50.168924890458583831787109375</LatitudeDegrees>
              <LongitudeDegrees>17.0002958737313747406005859375</LongitudeDegrees>
            </Position>
            <AltitudeMeters>724.4000244140625</AltitudeMeters>
            <DistanceMeters>8965.6487197715</DistanceMeters>
          </Trackpoint>
          <Trackpoint>
            <Time>2022-08-26T22:21:20.000Z</Time>
            <Position>
              <LatitudeDegrees>50.1688673906028270721435546875</LatitudeDegrees>
              <LongitudeDegrees>17.000325210392475128173828125</LongitudeDegrees>
            </Position>
            <AltitudeMeters>724</AltitudeMeters>
            <DistanceMeters>8972.3815485789</DistanceMeters>
          </Trackpoint>
          <Trackpoint>
            <Time>2022-08-26T22:21:23.000Z</Time>
            <Position>
              <LatitudeDegrees>50.16883763484656810760498046875</LatitudeDegrees>
              <LongitudeDegrees>17.00034826062619686126708984375</LongitudeDegrees>
            </Position>
            <AltitudeMeters>723.5999755859375</AltitudeMeters>
            <DistanceMeters>8976.0790525662</DistanceMeters>
          </Trackpoint>
          <Trackpoint>
            <Time>2022-08-26T22:21:26.000Z</Time>
            <Position>
              <LatitudeDegrees>50.16881416551768779754638671875</LatitudeDegrees>
              <LongitudeDegrees>17.0003622584044933319091796875</LongitudeDegrees>
            </Position>
            <AltitudeMeters>722.79998779296875</AltitudeMeters>
            <DistanceMeters>8978.8754871176</DistanceMeters>
          </Trackpoint>
          <Trackpoint>
            <Time>2022-08-26T22:21:30.000Z</Time>
            <Position>
              <LatitudeDegrees>50.1687772013247013092041015625</LatitudeDegrees>
              <LongitudeDegrees>17.0003984682261943817138671875</LongitudeDegrees>
            </Position>
            <AltitudeMeters>721.79998779296875</AltitudeMeters>
            <DistanceMeters>8983.7320867173</DistanceMeters>
          </Trackpoint>
          <Trackpoint>
            <Time>2022-08-26T22:21:32.000Z</Time>
            <Position>
              <LatitudeDegrees>50.16876538284122943878173828125</LatitudeDegrees>
              <LongitudeDegrees>17.0004102028906345367431640625</LongitudeDegrees>
            </Position>
            <AltitudeMeters>721.20001220703125</AltitudeMeters>
            <DistanceMeters>8985.2906407149</DistanceMeters>
          </Trackpoint>
          <Trackpoint>
            <Time>2022-08-26T22:21:35.000Z</Time>
            <Position>
              <LatitudeDegrees>50.1687507145106792449951171875</LatitudeDegrees>
              <LongitudeDegrees>17.00042654760181903839111328125</LongitudeDegrees>
            </Position>
            <AltitudeMeters>720.5999755859375</AltitudeMeters>
            <DistanceMeters>8987.2974825358</DistanceMeters>
          </Trackpoint>
          <Trackpoint>
            <Time>2022-08-26T22:21:40.000Z</Time>
            <Position>
              <LatitudeDegrees>50.16870620660483837127685546875</LatitudeDegrees>
              <LongitudeDegrees>17.00046326033771038055419921875</LongitudeDegrees>
            </Position>
            <AltitudeMeters>719.4000244140625</AltitudeMeters>
            <DistanceMeters>8992.9000306809</DistanceMeters>
          </Trackpoint>
          <Trackpoint>
            <Time>2022-08-26T22:21:44.000Z</Time>
            <Position>
              <LatitudeDegrees>50.1686514727771282196044921875</LatitudeDegrees>
              <LongitudeDegrees>17.0005054213106632232666015625</LongitudeDegrees>
            </Position>
            <AltitudeMeters>718.5999755859375</AltitudeMeters>
            <DistanceMeters>8999.6929454183</DistanceMeters>
          </Trackpoint>
          <Trackpoint>
            <Time>2022-08-26T22:21:47.000Z</Time>
            <Position>
              <LatitudeDegrees>50.16863227821886539459228515625</LatitudeDegrees>
              <LongitudeDegrees>17.0005433075129985809326171875</LongitudeDegrees>
            </Position>
            <AltitudeMeters>718.20001220703125</AltitudeMeters>
            <DistanceMeters>9003.1362708997</DistanceMeters>
          </Trackpoint>
          <Trackpoint>
            <Time>2022-08-26T22:21:54.000Z</Time>
            <Position>
              <LatitudeDegrees>50.16859070397913455963134765625</LatitudeDegrees>
              <LongitudeDegrees>17.00065118260681629180908203125</LongitudeDegrees>
            </Position>
            <AltitudeMeters>717.4000244140625</AltitudeMeters>
            <DistanceMeters>9012.1121464577</DistanceMeters>
          </Trackpoint>
          <Trackpoint>
            <Time>2022-08-26T22:21:56.000Z</Time>
            <Position>
              <LatitudeDegrees>50.16858433373272418975830078125</LatitudeDegrees>
              <LongitudeDegrees>17.00069292448461055755615234375</LongitudeDegrees>
            </Position>
            <AltitudeMeters>717</AltitudeMeters>
            <DistanceMeters>9015.1707669304</DistanceMeters>
          </Trackpoint>
          <Trackpoint>
            <Time>2022-08-26T22:22:05.000Z</Time>
            <Position>
              <LatitudeDegrees>50.16854208894073963165283203125</LatitudeDegrees>
              <LongitudeDegrees>17.0008457265794277191162109375</LongitudeDegrees>
            </Position>
            <AltitudeMeters>716</AltitudeMeters>
            <DistanceMeters>9027.0354144888</DistanceMeters>
          </Trackpoint>
          <Trackpoint>
            <Time>2022-08-26T22:22:13.000Z</Time>
            <Position>
              <LatitudeDegrees>50.1684824936091899871826171875</LatitudeDegrees>
              <LongitudeDegrees>17.00099249370396137237548828125</LongitudeDegrees>
            </Position>
            <AltitudeMeters>715</AltitudeMeters>
            <DistanceMeters>9039.4239244573</DistanceMeters>
          </Trackpoint>
          <Trackpoint>
            <Time>2022-08-26T22:22:15.000Z</Time>
            <Position>
              <LatitudeDegrees>50.16845039092004299163818359375</LatitudeDegrees>
              <LongitudeDegrees>17.001027278602123260498046875</LongitudeDegrees>
            </Position>
            <AltitudeMeters>714.4000244140625</AltitudeMeters>
            <DistanceMeters>9043.7723701651</DistanceMeters>
          </Trackpoint>
          <Trackpoint>
            <Time>2022-08-26T22:22:20.000Z</Time>
            <Position>
              <LatitudeDegrees>50.16838735900819301605224609375</LatitudeDegrees>
              <LongitudeDegrees>17.00109425000846385955810546875</LongitudeDegrees>
            </Position>
            <AltitudeMeters>713.5999755859375</AltitudeMeters>
            <DistanceMeters>9052.2590591377</DistanceMeters>
          </Trackpoint>
          <Trackpoint>
            <Time>2022-08-26T22:22:26.000Z</Time>
            <Position>
              <LatitudeDegrees>50.16832902096211910247802734375</LatitudeDegrees>
              <LongitudeDegrees>17.0011913962662220001220703125</LongitudeDegrees>
            </Position>
            <AltitudeMeters>712.79998779296875</AltitudeMeters>
            <DistanceMeters>9061.7531743184</DistanceMeters>
          </Trackpoint>
          <Trackpoint>
            <Time>2022-08-26T22:22:27.000Z</Time>
            <Position>
              <LatitudeDegrees>50.16832348890602588653564453125</LatitudeDegrees>
              <LongitudeDegrees>17.0012162066996097564697265625</LongitudeDegrees>
            </Position>
            <AltitudeMeters>712.5999755859375</AltitudeMeters>
            <DistanceMeters>9063.6249835128</DistanceMeters>
          </Trackpoint>
          <Trackpoint>
            <Time>2022-08-26T22:22:34.000Z</Time>
            <Position>
              <LatitudeDegrees>50.16828325577080249786376953125</LatitudeDegrees>
              <LongitudeDegrees>17.0013320446014404296875</LongitudeDegrees>
            </Position>
            <AltitudeMeters>711.5999755859375</AltitudeMeters>
            <DistanceMeters>9073.0196611104</DistanceMeters>
          </Trackpoint>
          <Trackpoint>
            <Time>2022-08-26T22:22:35.000Z</Time>
            <Position>
              <LatitudeDegrees>50.1682796515524387359619140625</LatitudeDegrees>
              <LongitudeDegrees>17.00134621001780033111572265625</LongitudeDegrees>
            </Position>
            <AltitudeMeters>711.4000244140625</AltitudeMeters>
            <DistanceMeters>9074.1072915688</DistanceMeters>
          </Trackpoint>
          <Trackpoint>
            <Time>2022-08-26T22:22:41.000Z</Time>
            <Position>
              <LatitudeDegrees>50.168239586055278778076171875</LatitudeDegrees>
              <LongitudeDegrees>17.00138309039175510406494140625</LongitudeDegrees>
            </Position>
            <AltitudeMeters>710.4000244140625</AltitudeMeters>
            <DistanceMeters>9079.2842855698</DistanceMeters>
          </Trackpoint>
          <Trackpoint>
            <Time>2022-08-26T22:22:43.000Z</Time>
            <Position>
              <LatitudeDegrees>50.16822206787765026092529296875</LatitudeDegrees>
              <LongitudeDegrees>17.0013949088752269744873046875</LongitudeDegrees>
            </Position>
            <AltitudeMeters>710.20001220703125</AltitudeMeters>
            <DistanceMeters>9081.4091474999</DistanceMeters>
          </Trackpoint>
          <Trackpoint>
            <Time>2022-08-26T22:22:45.000Z</Time>
            <Position>
              <LatitudeDegrees>50.16820765100419521331787109375</LatitudeDegrees>
              <LongitudeDegrees>17.0014123432338237762451171875</LongitudeDegrees>
            </Position>
            <AltitudeMeters>710.20001220703125</AltitudeMeters>
            <DistanceMeters>9083.4383628306</DistanceMeters>
          </Trackpoint>
          <Trackpoint>
            <Time>2022-08-26T22:22:53.000Z</Time>
            <Position>
              <LatitudeDegrees>50.1681431941688060760498046875</LatitudeDegrees>
              <LongitudeDegrees>17.00150580145418643951416015625</LongitudeDegrees>
            </Position>
            <AltitudeMeters>709.5999755859375</AltitudeMeters>
            <DistanceMeters>9093.2293429413</DistanceMeters>
          </Trackpoint>
          <Trackpoint>
            <Time>2022-08-26T22:22:59.000Z</Time>
            <Position>
              <LatitudeDegrees>50.16809214837849140167236328125</LatitudeDegrees>
              <LongitudeDegrees>17.00159490108489990234375</LongitudeDegrees>
            </Position>
            <AltitudeMeters>709.4000244140625</AltitudeMeters>
            <DistanceMeters>9101.7516023154</DistanceMeters>
          </Trackpoint>
          <Trackpoint>
            <Time>2022-08-26T22:23:01.000Z</Time>
            <Position>
              <LatitudeDegrees>50.16807521693408489227294921875</LatitudeDegrees>
              <LongitudeDegrees>17.00162717141211032867431640625</LongitudeDegrees>
            </Position>
            <AltitudeMeters>709.20001220703125</AltitudeMeters>
            <DistanceMeters>9104.7264090175</DistanceMeters>
          </Trackpoint>
          <Trackpoint>
            <Time>2022-08-26T22:23:06.000Z</Time>
            <Position>
              <LatitudeDegrees>50.1680328883230686187744140625</LatitudeDegrees>
              <LongitudeDegrees>17.00169322080910205841064453125</LongitudeDegrees>
            </Position>
            <AltitudeMeters>708.5999755859375</AltitudeMeters>
            <DistanceMeters>9111.3870970878</DistanceMeters>
          </Trackpoint>
          <Trackpoint>
            <Time>2022-08-26T22:23:12.000Z</Time>
            <Position>
              <LatitudeDegrees>50.16797907650470733642578125</LatitudeDegrees>
              <LongitudeDegrees>17.0017737708985805511474609375</LongitudeDegrees>
            </Position>
            <AltitudeMeters>708.20001220703125</AltitudeMeters>
            <DistanceMeters>9119.684404049</DistanceMeters>
          </Trackpoint>
          <Trackpoint>
            <Time>2022-08-26T22:23:14.000Z</Time>
            <Position>
              <LatitudeDegrees>50.1679614745080471038818359375</LatitudeDegrees>
              <LongitudeDegrees>17.00180419720709323883056640625</LongitudeDegrees>
            </Position>
            <AltitudeMeters>708</AltitudeMeters>
            <DistanceMeters>9122.6071514408</DistanceMeters>
          </Trackpoint>
          <Trackpoint>
            <Time>2022-08-26T22:23:19.000Z</Time>
            <Position>
              <LatitudeDegrees>50.16792132519185543060302734375</LatitudeDegrees>
              <LongitudeDegrees>17.00186907313764095306396484375</LongitudeDegrees>
            </Position>
            <AltitudeMeters>707.20001220703125</AltitudeMeters>
            <DistanceMeters>9129.0381505943</DistanceMeters>
          </Trackpoint>
          <Trackpoint>
            <Time>2022-08-26T22:23:22.000Z</Time>
            <Position>
              <LatitudeDegrees>50.16789886169135570526123046875</LatitudeDegrees>
              <LongitudeDegrees>17.00192003510892391204833984375</LongitudeDegrees>
            </Position>
            <AltitudeMeters>707</AltitudeMeters>
            <DistanceMeters>9133.4484549671</DistanceMeters>
          </Trackpoint>
          <Trackpoint>
            <Time>2022-08-26T22:23:26.000Z</Time>
            <Position>
              <LatitudeDegrees>50.1678608916699886322021484375</LatitudeDegrees>
              <LongitudeDegrees>17.0019863359630107879638671875</LongitudeDegrees>
            </Position>
            <AltitudeMeters>706.4000244140625</AltitudeMeters>
            <DistanceMeters>9139.7882396836</DistanceMeters>
          </Trackpoint>
          <Trackpoint>
            <Time>2022-08-26T22:23:30.000Z</Time>
            <Position>
              <LatitudeDegrees>50.16782459802925586700439453125</LatitudeDegrees>
              <LongitudeDegrees>17.0020554028451442718505859375</LongitudeDegrees>
            </Position>
            <AltitudeMeters>705.79998779296875</AltitudeMeters>
            <DistanceMeters>9146.1571566548</DistanceMeters>
          </Trackpoint>
          <Trackpoint>
            <Time>2022-08-26T22:23:34.000Z</Time>
            <Position>
              <LatitudeDegrees>50.167798362672328948974609375</LatitudeDegrees>
              <LongitudeDegrees>17.00211600400507450103759765625</LongitudeDegrees>
            </Position>
            <AltitudeMeters>705.20001220703125</AltitudeMeters>
            <DistanceMeters>9151.3723834235</DistanceMeters>
          </Trackpoint>
          <Trackpoint>
            <Time>2022-08-26T22:23:37.000Z</Time>
            <Position>
              <LatitudeDegrees>50.1677703671157360076904296875</LatitudeDegrees>
              <LongitudeDegrees>17.002141736447811126708984375</LongitudeDegrees>
            </Position>
            <AltitudeMeters>704.79998779296875</AltitudeMeters>
            <DistanceMeters>9154.9871476779</DistanceMeters>
          </Trackpoint>
          <Trackpoint>
            <Time>2022-08-26T22:23:41.000Z</Time>
            <Position>
              <LatitudeDegrees>50.16773340292274951934814453125</LatitudeDegrees>
              <LongitudeDegrees>17.00216143392026424407958984375</LongitudeDegrees>
            </Position>
            <AltitudeMeters>704.20001220703125</AltitudeMeters>
            <DistanceMeters>9159.333516268</DistanceMeters>
          </Trackpoint>
          <Trackpoint>
            <Time>2022-08-26T22:23:44.000Z</Time>
            <Position>
              <LatitudeDegrees>50.1677048206329345703125</LatitudeDegrees>
              <LongitudeDegrees>17.0021905191242694854736328125</LongitudeDegrees>
            </Position>
            <AltitudeMeters>703.5999755859375</AltitudeMeters>
            <DistanceMeters>9163.132208432</DistanceMeters>
          </Trackpoint>
          <Trackpoint>
            <Time>2022-08-26T22:23:48.000Z</Time>
            <Position>
              <LatitudeDegrees>50.16766450367867946624755859375</LatitudeDegrees>
              <LongitudeDegrees>17.00221859849989414215087890625</LongitudeDegrees>
            </Position>
            <AltitudeMeters>703</AltitudeMeters>
            <DistanceMeters>9168.0461095718</DistanceMeters>
          </Trackpoint>
          <Trackpoint>
            <Time>2022-08-26T22:23:53.000Z</Time>
            <Position>
              <LatitudeDegrees>50.16762812621891498565673828125</LatitudeDegrees>
              <LongitudeDegrees>17.00226319022476673126220703125</LongitudeDegrees>
            </Position>
            <AltitudeMeters>702.4000244140625</AltitudeMeters>
            <DistanceMeters>9173.1933655676</DistanceMeters>
          </Trackpoint>
          <Trackpoint>
            <Time>2022-08-26T22:23:54.000Z</Time>
            <Position>
              <LatitudeDegrees>50.16762125305831432342529296875</LatitudeDegrees>
              <LongitudeDegrees>17.00227408669888973236083984375</LongitudeDegrees>
            </Position>
            <AltitudeMeters>702.4000244140625</AltitudeMeters>
            <DistanceMeters>9174.2809960261</DistanceMeters>
          </Trackpoint>
          <Trackpoint>
            <Time>2022-08-26T22:23:56.000Z</Time>
            <Position>
              <LatitudeDegrees>50.16760448925197124481201171875</LatitudeDegrees>
              <LongitudeDegrees>17.0022988133132457733154296875</LongitudeDegrees>
            </Position>
            <AltitudeMeters>702</AltitudeMeters>
            <DistanceMeters>9176.8484764649</DistanceMeters>
          </Trackpoint>
          <Trackpoint>
            <Time>2022-08-26T22:24:01.000Z</Time>
            <Position>
              <LatitudeDegrees>50.16757666133344173431396484375</LatitudeDegrees>
              <LongitudeDegrees>17.002345584332942962646484375</LongitudeDegrees>
            </Position>
            <AltitudeMeters>701.20001220703125</AltitudeMeters>
            <DistanceMeters>9181.3998493746</DistanceMeters>
          </Trackpoint>
          <Trackpoint>
            <Time>2022-08-26T22:24:04.000Z</Time>
            <Position>
              <LatitudeDegrees>50.1675681956112384796142578125</LatitudeDegrees>
              <LongitudeDegrees>17.0023812912404537200927734375</LongitudeDegrees>
            </Position>
            <AltitudeMeters>701</AltitudeMeters>
            <DistanceMeters>9184.1143552925</DistanceMeters>
          </Trackpoint>
          <Trackpoint>
            <Time>2022-08-26T22:24:10.000Z</Time>
            <Position>
              <LatitudeDegrees>50.16753894276916980743408203125</LatitudeDegrees>
              <LongitudeDegrees>17.0024369470775127410888671875</LongitudeDegrees>
            </Position>
            <AltitudeMeters>700.20001220703125</AltitudeMeters>
            <DistanceMeters>9189.24667767</DistanceMeters>
          </Trackpoint>
          <Trackpoint>
            <Time>2022-08-26T22:24:13.000Z</Time>
            <Position>
              <LatitudeDegrees>50.16752016730606555938720703125</LatitudeDegrees>
              <LongitudeDegrees>17.0024543814361095428466796875</LongitudeDegrees>
            </Position>
            <AltitudeMeters>699.79998779296875</AltitudeMeters>
            <DistanceMeters>9191.6786933095</DistanceMeters>
          </Trackpoint>
          <Trackpoint>
            <Time>2022-08-26T22:24:18.000Z</Time>
            <Position>
              <LatitudeDegrees>50.1674997992813587188720703125</LatitudeDegrees>
              <LongitudeDegrees>17.0025081932544708251953125</LongitudeDegrees>
            </Position>
            <AltitudeMeters>699</AltitudeMeters>
            <DistanceMeters>9196.134828193</DistanceMeters>
          </Trackpoint>
          <Trackpoint>
            <Time>2022-08-26T22:24:25.000Z</Time>
            <Position>
              <LatitudeDegrees>50.1674746535718441009521484375</LatitudeDegrees>
              <LongitudeDegrees>17.00257751159369945526123046875</LongitudeDegrees>
            </Position>
            <AltitudeMeters>698.20001220703125</AltitudeMeters>
            <DistanceMeters>9201.8142148728</DistanceMeters>
          </Trackpoint>
          <Trackpoint>
            <Time>2022-08-26T22:24:29.000Z</Time>
            <Position>
              <LatitudeDegrees>50.16744975931942462921142578125</LatitudeDegrees>
              <LongitudeDegrees>17.002607770264148712158203125</LongitudeDegrees>
            </Position>
            <AltitudeMeters>698</AltitudeMeters>
            <DistanceMeters>9205.3250629677</DistanceMeters>
          </Trackpoint>
          <Trackpoint>
            <Time>2022-08-26T22:24:36.000Z</Time>
            <Position>
              <LatitudeDegrees>50.16737767495214939117431640625</LatitudeDegrees>
              <LongitudeDegrees>17.00264942832291126251220703125</LongitudeDegrees>
            </Position>
            <AltitudeMeters>697.4000244140625</AltitudeMeters>
            <DistanceMeters>9213.8806342318</DistanceMeters>
          </Trackpoint>
          <Trackpoint>
            <Time>2022-08-26T22:24:41.000Z</Time>
            <Position>
              <LatitudeDegrees>50.1673392020165920257568359375</LatitudeDegrees>
              <LongitudeDegrees>17.0026934333145618438720703125</LongitudeDegrees>
            </Position>
            <AltitudeMeters>696.5999755859375</AltitudeMeters>
            <DistanceMeters>9219.1885376319</DistanceMeters>
          </Trackpoint>
          <Trackpoint>
            <Time>2022-08-26T22:24:47.000Z</Time>
            <Position>
              <LatitudeDegrees>50.1673127152025699615478515625</LatitudeDegrees>
              <LongitudeDegrees>17.00278018601238727569580078125</LongitudeDegrees>
            </Position>
            <AltitudeMeters>696</AltitudeMeters>
            <DistanceMeters>9226.0410114559</DistanceMeters>
          </Trackpoint>
          <Trackpoint>
            <Time>2022-08-26T22:24:52.000Z</Time>
            <Position>
              <LatitudeDegrees>50.16727088950574398040771484375</LatitudeDegrees>
              <LongitudeDegrees>17.0028436370193958282470703125</LongitudeDegrees>
            </Position>
            <AltitudeMeters>695.5999755859375</AltitudeMeters>
            <DistanceMeters>9232.5321081805</DistanceMeters>
          </Trackpoint>
          <Trackpoint>
            <Time>2022-08-26T22:24:58.000Z</Time>
            <Position>
              <LatitudeDegrees>50.1672235317528247833251953125</LatitudeDegrees>
              <LongitudeDegrees>17.0029158890247344970703125</LongitudeDegrees>
            </Position>
            <AltitudeMeters>695</AltitudeMeters>
            <DistanceMeters>9239.9014283482</DistanceMeters>
          </Trackpoint>
          <Trackpoint>
            <Time>2022-08-26T22:25:02.000Z</Time>
            <Position>
              <LatitudeDegrees>50.16719612292945384979248046875</LatitudeDegrees>
              <LongitudeDegrees>17.00296827591955661773681640625</LongitudeDegrees>
            </Position>
            <AltitudeMeters>694.5999755859375</AltitudeMeters>
            <DistanceMeters>9244.7235074478</DistanceMeters>
          </Trackpoint>
          <Trackpoint>
            <Time>2022-08-26T22:25:07.000Z</Time>
            <Position>
              <LatitudeDegrees>50.167139209806919097900390625</LatitudeDegrees>
              <LongitudeDegrees>17.0030714571475982666015625</LongitudeDegrees>
            </Position>
            <AltitudeMeters>693.79998779296875</AltitudeMeters>
            <DistanceMeters>9254.4311270206</DistanceMeters>
          </Trackpoint>
          <Trackpoint>
            <Time>2022-08-26T22:25:08.000Z</Time>
            <Position>
              <LatitudeDegrees>50.16712973825633525848388671875</LatitudeDegrees>
              <LongitudeDegrees>17.00308511964976787567138671875</LongitudeDegrees>
            </Position>
            <AltitudeMeters>693.5999755859375</AltitudeMeters>
            <DistanceMeters>9255.8659989414</DistanceMeters>
          </Trackpoint>
          <Trackpoint>
            <Time>2022-08-26T22:25:09.000Z</Time>
            <Position>
              <LatitudeDegrees>50.16711833886802196502685546875</LatitudeDegrees>
              <LongitudeDegrees>17.00309987179934978485107421875</LongitudeDegrees>
            </Position>
            <AltitudeMeters>693.4000244140625</AltitudeMeters>
            <DistanceMeters>9257.5173871714</DistanceMeters>
          </Trackpoint>
          <Trackpoint>
            <Time>2022-08-26T22:25:16.000Z</Time>
            <Position>
              <LatitudeDegrees>50.167088918387889862060546875</LatitudeDegrees>
              <LongitudeDegrees>17.00322878547012805938720703125</LongitudeDegrees>
            </Position>
            <AltitudeMeters>692</AltitudeMeters>
            <DistanceMeters>9267.2741830528</DistanceMeters>
          </Trackpoint>
          <Trackpoint>
            <Time>2022-08-26T22:25:20.000Z</Time>
            <Position>
              <LatitudeDegrees>50.1670817099511623382568359375</LatitudeDegrees>
              <LongitudeDegrees>17.00330807827413082122802734375</LongitudeDegrees>
            </Position>
            <AltitudeMeters>691.5999755859375</AltitudeMeters>
            <DistanceMeters>9272.9836993163</DistanceMeters>
          </Trackpoint>
          <Trackpoint>
            <Time>2022-08-26T22:25:23.000Z</Time>
            <Position>
              <LatitudeDegrees>50.16706268303096294403076171875</LatitudeDegrees>
              <LongitudeDegrees>17.0033572800457477569580078125</LongitudeDegrees>
            </Position>
            <AltitudeMeters>691</AltitudeMeters>
            <DistanceMeters>9277.0797806183</DistanceMeters>
          </Trackpoint>
          <Trackpoint>
            <Time>2022-08-26T22:25:30.000Z</Time>
            <Position>
              <LatitudeDegrees>50.16700468026101589202880859375</LatitudeDegrees>
              <LongitudeDegrees>17.0034652389585971832275390625</LongitudeDegrees>
            </Position>
            <AltitudeMeters>690</AltitudeMeters>
            <DistanceMeters>9287.1256819884</DistanceMeters>
          </Trackpoint>
          <Trackpoint>
            <Time>2022-08-26T22:25:40.000Z</Time>
            <Position>
              <LatitudeDegrees>50.16698741354048252105712890625</LatitudeDegrees>
              <LongitudeDegrees>17.0036080665886402130126953125</LongitudeDegrees>
            </Position>
            <AltitudeMeters>688.5999755859375</AltitudeMeters>
            <DistanceMeters>9297.4879519615</DistanceMeters>
          </Trackpoint>
          <Trackpoint>
            <Time>2022-08-26T22:25:41.000Z</Time>
            <Position>
              <LatitudeDegrees>50.1669851504266262054443359375</LatitudeDegrees>
              <LongitudeDegrees>17.00362876988947391510009765625</LongitudeDegrees>
            </Position>
            <AltitudeMeters>688.5999755859375</AltitudeMeters>
            <DistanceMeters>9298.9844341559</DistanceMeters>
          </Trackpoint>
          <Trackpoint>
            <Time>2022-08-26T22:25:54.000Z</Time>
            <Position>
              <LatitudeDegrees>50.16693745739758014678955078125</LatitudeDegrees>
              <LongitudeDegrees>17.00385524891316890716552734375</LongitudeDegrees>
            </Position>
            <AltitudeMeters>688</AltitudeMeters>
            <DistanceMeters>9315.9817358755</DistanceMeters>
          </Trackpoint>
          <Trackpoint>
            <Time>2022-08-26T22:25:59.000Z</Time>
            <Position>
              <LatitudeDegrees>50.16689923591911792755126953125</LatitudeDegrees>
              <LongitudeDegrees>17.00398718006908893585205078125</LongitudeDegrees>
            </Position>
            <AltitudeMeters>687.5999755859375</AltitudeMeters>
            <DistanceMeters>9326.3051540203</DistanceMeters>
          </Trackpoint>
          <Trackpoint>
            <Time>2022-08-26T22:26:05.000Z</Time>
            <Position>
              <LatitudeDegrees>50.16688632778823375701904296875</LatitudeDegrees>
              <LongitudeDegrees>17.0041207037866115570068359375</LongitudeDegrees>
            </Position>
            <AltitudeMeters>687.4000244140625</AltitudeMeters>
            <DistanceMeters>9335.9324435984</DistanceMeters>
          </Trackpoint>
          <Trackpoint>
            <Time>2022-08-26T22:26:06.000Z</Time>
            <Position>
              <LatitudeDegrees>50.1668835617601871490478515625</LatitudeDegrees>
              <LongitudeDegrees>17.00416688807308673858642578125</LongitudeDegrees>
            </Position>
            <AltitudeMeters>687.4000244140625</AltitudeMeters>
            <DistanceMeters>9339.2406837121</DistanceMeters>
          </Trackpoint>
          <Trackpoint>
            <Time>2022-08-26T22:26:17.000Z</Time>
            <Position>
              <LatitudeDegrees>50.16687559895217418670654296875</LatitudeDegrees>
              <LongitudeDegrees>17.00450685806572437286376953125</LongitudeDegrees>
            </Position>
            <AltitudeMeters>686.79998779296875</AltitudeMeters>
            <DistanceMeters>9363.4950309517</DistanceMeters>
          </Trackpoint>
          <Trackpoint>
            <Time>2022-08-26T22:26:26.000Z</Time>
            <Position>
              <LatitudeDegrees>50.166915245354175567626953125</LatitudeDegrees>
              <LongitudeDegrees>17.00482361018657684326171875</LongitudeDegrees>
            </Position>
            <AltitudeMeters>686.4000244140625</AltitudeMeters>
            <DistanceMeters>9386.5048428167</DistanceMeters>
          </Trackpoint>
          <Trackpoint>
            <Time>2022-08-26T22:26:28.000Z</Time>
            <Position>
              <LatitudeDegrees>50.16691516153514385223388671875</LatitudeDegrees>
              <LongitudeDegrees>17.00488320551812648773193359375</LongitudeDegrees>
            </Position>
            <AltitudeMeters>686.20001220703125</AltitudeMeters>
            <DistanceMeters>9390.7535041131</DistanceMeters>
          </Trackpoint>
          <Trackpoint>
            <Time>2022-08-26T22:26:40.000Z</Time>
            <Position>
              <LatitudeDegrees>50.1669040136039257049560546875</LatitudeDegrees>
              <LongitudeDegrees>17.0052334852516651153564453125</LongitudeDegrees>
            </Position>
            <AltitudeMeters>685.5999755859375</AltitudeMeters>
            <DistanceMeters>9415.7576312259</DistanceMeters>
          </Trackpoint>
          <Trackpoint>
            <Time>2022-08-26T22:26:42.000Z</Time>
            <Position>
              <LatitudeDegrees>50.16690351068973541259765625</LatitudeDegrees>
              <LongitudeDegrees>17.0052824355661869049072265625</LongitudeDegrees>
            </Position>
            <AltitudeMeters>685.4000244140625</AltitudeMeters>
            <DistanceMeters>9419.2478422686</DistanceMeters>
          </Trackpoint>
          <Trackpoint>
            <Time>2022-08-26T22:26:51.000Z</Time>
            <Position>
              <LatitudeDegrees>50.16689739190042018890380859375</LatitudeDegrees>
              <LongitudeDegrees>17.0054829306900501251220703125</LongitudeDegrees>
            </Position>
            <AltitudeMeters>684.20001220703125</AltitudeMeters>
            <DistanceMeters>9433.5581208682</DistanceMeters>
          </Trackpoint>
          <Trackpoint>
            <Time>2022-08-26T22:26:54.000Z</Time>
            <Position>
              <LatitudeDegrees>50.1668778620660305023193359375</LatitudeDegrees>
              <LongitudeDegrees>17.00554738752543926239013671875</LongitudeDegrees>
            </Position>
            <AltitudeMeters>684</AltitudeMeters>
            <DistanceMeters>9438.6418280571</DistanceMeters>
          </Trackpoint>
          <Trackpoint>
            <Time>2022-08-26T22:27:03.000Z</Time>
            <Position>
              <LatitudeDegrees>50.1668336056172847747802734375</LatitudeDegrees>
              <LongitudeDegrees>17.0056623034179210662841796875</LongitudeDegrees>
            </Position>
            <AltitudeMeters>683.20001220703125</AltitudeMeters>
            <DistanceMeters>9448.2013454933</DistanceMeters>
          </Trackpoint>
          <Trackpoint>
            <Time>2022-08-26T22:27:05.000Z</Time>
            <Position>
              <LatitudeDegrees>50.166816003620624542236328125</LatitudeDegrees>
              <LongitudeDegrees>17.00568300671875476837158203125</LongitudeDegrees>
            </Position>
            <AltitudeMeters>683</AltitudeMeters>
            <DistanceMeters>9450.6555380261</DistanceMeters>
          </Trackpoint>
          <Trackpoint>
            <Time>2022-08-26T22:27:16.000Z</Time>
            <Position>
              <LatitudeDegrees>50.16673662699759006500244140625</LatitudeDegrees>
              <LongitudeDegrees>17.005771100521087646484375</LongitudeDegrees>
            </Position>
            <AltitudeMeters>682.20001220703125</AltitudeMeters>
            <DistanceMeters>9461.4952499544</DistanceMeters>
          </Trackpoint>
          <Trackpoint>
            <Time>2022-08-26T22:27:17.000Z</Time>
            <Position>
              <LatitudeDegrees>50.16672925092279911041259765625</LatitudeDegrees>
              <LongitudeDegrees>17.005781829357147216796875</LongitudeDegrees>
            </Position>
            <AltitudeMeters>682.20001220703125</AltitudeMeters>
            <DistanceMeters>9462.611561089</DistanceMeters>
          </Trackpoint>
          <Trackpoint>
            <Time>2022-08-26T22:27:26.000Z</Time>
            <Position>
              <LatitudeDegrees>50.16668021678924560546875</LatitudeDegrees>
              <LongitudeDegrees>17.0058493874967098236083984375</LongitudeDegrees>
            </Position>
            <AltitudeMeters>681.4000244140625</AltitudeMeters>
            <DistanceMeters>9469.8908803273</DistanceMeters>
          </Trackpoint>
          <Trackpoint>
            <Time>2022-08-26T22:27:34.000Z</Time>
            <Position>
              <LatitudeDegrees>50.166621543467044830322265625</LatitudeDegrees>
              <LongitudeDegrees>17.00592868030071258544921875</LongitudeDegrees>
            </Position>
            <AltitudeMeters>681.20001220703125</AltitudeMeters>
            <DistanceMeters>9478.5283852668</DistanceMeters>
          </Trackpoint>
          <Trackpoint>
            <Time>2022-08-26T22:27:35.000Z</Time>
            <Position>
              <LatitudeDegrees>50.1666103117167949676513671875</LatitudeDegrees>
              <LongitudeDegrees>17.0059355534613132476806640625</LongitudeDegrees>
            </Position>
            <AltitudeMeters>681.20001220703125</AltitudeMeters>
            <DistanceMeters>9479.8689020375</DistanceMeters>
          </Trackpoint>
          <Trackpoint>
            <Time>2022-08-26T22:27:46.000Z</Time>
            <Position>
              <LatitudeDegrees>50.16653579659759998321533203125</LatitudeDegrees>
              <LongitudeDegrees>17.00607393868267536163330078125</LongitudeDegrees>
            </Position>
            <AltitudeMeters>680.4000244140625</AltitudeMeters>
            <DistanceMeters>9492.7579018567</DistanceMeters>
          </Trackpoint>
          <Trackpoint>
            <Time>2022-08-26T22:27:49.000Z</Time>
            <Position>
              <LatitudeDegrees>50.16651819460093975067138671875</LatitudeDegrees>
              <LongitudeDegrees>17.00612439773976802825927734375</LongitudeDegrees>
            </Position>
            <AltitudeMeters>680.20001220703125</AltitudeMeters>
            <DistanceMeters>9496.8539831587</DistanceMeters>
          </Trackpoint>
          <Trackpoint>
            <Time>2022-08-26T22:27:51.000Z</Time>
            <Position>
              <LatitudeDegrees>50.16650293953716754913330078125</LatitudeDegrees>
              <LongitudeDegrees>17.00615691952407360076904296875</LongitudeDegrees>
            </Position>
            <AltitudeMeters>680.20001220703125</AltitudeMeters>
            <DistanceMeters>9499.7284430986</DistanceMeters>
          </Trackpoint>
          <Trackpoint>
            <Time>2022-08-26T22:27:58.000Z</Time>
            <Position>
              <LatitudeDegrees>50.166449882090091705322265625</LatitudeDegrees>
              <LongitudeDegrees>17.0062554068863391876220703125</LongitudeDegrees>
            </Position>
            <AltitudeMeters>680</AltitudeMeters>
            <DistanceMeters>9508.9033203518</DistanceMeters>
          </Trackpoint>
          <Trackpoint>
            <Time>2022-08-26T22:28:09.000Z</Time>
            <Position>
              <LatitudeDegrees>50.16637302003800868988037109375</LatitudeDegrees>
              <LongitudeDegrees>17.00641709379851818084716796875</LongitudeDegrees>
            </Position>
            <AltitudeMeters>679.20001220703125</AltitudeMeters>
            <DistanceMeters>9523.2583314786</DistanceMeters>
          </Trackpoint>
          <Trackpoint>
            <Time>2022-08-26T22:28:10.000Z</Time>
            <Position>
              <LatitudeDegrees>50.16636371612548828125</LatitudeDegrees>
              <LongitudeDegrees>17.00642849318683147430419921875</LongitudeDegrees>
            </Position>
            <AltitudeMeters>679.20001220703125</AltitudeMeters>
            <DistanceMeters>9524.5750602575</DistanceMeters>
          </Trackpoint>
          <Trackpoint>
            <Time>2022-08-26T22:28:19.000Z</Time>
            <Position>
              <LatitudeDegrees>50.16629196703433990478515625</LatitudeDegrees>
              <LongitudeDegrees>17.00661859475076198577880859375</LongitudeDegrees>
            </Position>
            <AltitudeMeters>678.5999755859375</AltitudeMeters>
            <DistanceMeters>9540.3065024998</DistanceMeters>
          </Trackpoint>
          <Trackpoint>
            <Time>2022-08-26T22:28:27.000Z</Time>
            <Position>
              <LatitudeDegrees>50.166231282055377960205078125</LatitudeDegrees>
              <LongitudeDegrees>17.00678740628063678741455078125</LongitudeDegrees>
            </Position>
            <AltitudeMeters>678.20001220703125</AltitudeMeters>
            <DistanceMeters>9554.1079673681</DistanceMeters>
          </Trackpoint>
          <Trackpoint>
            <Time>2022-08-26T22:28:29.000Z</Time>
            <Position>
              <LatitudeDegrees>50.16621728427708148956298828125</LatitudeDegrees>
              <LongitudeDegrees>17.00681339018046855926513671875</LongitudeDegrees>
            </Position>
            <AltitudeMeters>678.20001220703125</AltitudeMeters>
            <DistanceMeters>9556.5269525966</DistanceMeters>
          </Trackpoint>
          <Trackpoint>
            <Time>2022-08-26T22:28:34.000Z</Time>
            <Position>
              <LatitudeDegrees>50.16618392430245876312255859375</LatitudeDegrees>
              <LongitudeDegrees>17.00690005905926227569580078125</LongitudeDegrees>
            </Position>
            <AltitudeMeters>677.79998779296875</AltitudeMeters>
            <DistanceMeters>9563.7364685312</DistanceMeters>
          </Trackpoint>
          <Trackpoint>
            <Time>2022-08-26T22:28:41.000Z</Time>
            <Position>
              <LatitudeDegrees>50.1661258377134799957275390625</LatitudeDegrees>
              <LongitudeDegrees>17.0069960318505764007568359375</LongitudeDegrees>
            </Position>
            <AltitudeMeters>677.4000244140625</AltitudeMeters>
            <DistanceMeters>9573.150350314</DistanceMeters>
          </Trackpoint>
          <Trackpoint>
            <Time>2022-08-26T22:28:48.000Z</Time>
            <Position>
              <LatitudeDegrees>50.1660718582570552825927734375</LatitudeDegrees>
              <LongitudeDegrees>17.0070959441363811492919921875</LongitudeDegrees>
            </Position>
            <AltitudeMeters>677.4000244140625</AltitudeMeters>
            <DistanceMeters>9582.4687844681</DistanceMeters>
          </Trackpoint>
          <Trackpoint>
            <Time>2022-08-26T22:28:55.000Z</Time>
            <Position>
              <LatitudeDegrees>50.16602986492216587066650390625</LatitudeDegrees>
              <LongitudeDegrees>17.007166855037212371826171875</LongitudeDegrees>
            </Position>
            <AltitudeMeters>677.20001220703125</AltitudeMeters>
            <DistanceMeters>9589.3534682847</DistanceMeters>
          </Trackpoint>
          <Trackpoint>
            <Time>2022-08-26T22:29:02.000Z</Time>
            <Position>
              <LatitudeDegrees>50.165990889072418212890625</LatitudeDegrees>
              <LongitudeDegrees>17.0072112791240215301513671875</LongitudeDegrees>
            </Position>
            <AltitudeMeters>677.20001220703125</AltitudeMeters>
            <DistanceMeters>9594.7247897458</DistanceMeters>
          </Trackpoint>
          <Trackpoint>
            <Time>2022-08-26T22:29:04.000Z</Time>
            <Position>
              <LatitudeDegrees>50.165981836616992950439453125</LatitudeDegrees>
              <LongitudeDegrees>17.00723248533904552459716796875</LongitudeDegrees>
            </Position>
            <AltitudeMeters>677.20001220703125</AltitudeMeters>
            <DistanceMeters>9596.5402725747</DistanceMeters>
          </Trackpoint>
          <Trackpoint>
            <Time>2022-08-26T22:29:13.000Z</Time>
            <Position>
              <LatitudeDegrees>50.1659357361495494842529296875</LatitudeDegrees>
              <LongitudeDegrees>17.00735427439212799072265625</LongitudeDegrees>
            </Position>
            <AltitudeMeters>677</AltitudeMeters>
            <DistanceMeters>9606.6256471867</DistanceMeters>
          </Trackpoint>
          <Trackpoint>
            <Time>2022-08-26T22:29:24.000Z</Time>
            <Position>
              <LatitudeDegrees>50.16585753299295902252197265625</LatitudeDegrees>
              <LongitudeDegrees>17.00748997740447521209716796875</LongitudeDegrees>
            </Position>
            <AltitudeMeters>676.79998779296875</AltitudeMeters>
            <DistanceMeters>9619.6397977077</DistanceMeters>
          </Trackpoint>
          <Trackpoint>
            <Time>2022-08-26T22:29:32.000Z</Time>
            <Position>
              <LatitudeDegrees>50.165784023702144622802734375</LatitudeDegrees>
              <LongitudeDegrees>17.00758754275739192962646484375</LongitudeDegrees>
            </Position>
            <AltitudeMeters>676</AltitudeMeters>
            <DistanceMeters>9630.378657343</DistanceMeters>
          </Trackpoint>
          <Trackpoint>
            <Time>2022-08-26T22:29:36.000Z</Time>
            <Position>
              <LatitudeDegrees>50.1657432876527309417724609375</LatitudeDegrees>
              <LongitudeDegrees>17.00764906592667102813720703125</LongitudeDegrees>
            </Position>
            <AltitudeMeters>675.79998779296875</AltitudeMeters>
            <DistanceMeters>9636.6877441996</DistanceMeters>
          </Trackpoint>
          <Trackpoint>
            <Time>2022-08-26T22:29:44.000Z</Time>
            <Position>
              <LatitudeDegrees>50.16563524492084980010986328125</LatitudeDegrees>
              <LongitudeDegrees>17.00773674063384532928466796875</LongitudeDegrees>
            </Position>
            <AltitudeMeters>675</AltitudeMeters>
            <DistanceMeters>9650.2409657732</DistanceMeters>
          </Trackpoint>
          <Trackpoint>
            <Time>2022-08-26T22:29:50.000Z</Time>
            <Position>
              <LatitudeDegrees>50.16558813862502574920654296875</LatitudeDegrees>
              <LongitudeDegrees>17.00779281556606292724609375</LongitudeDegrees>
            </Position>
            <AltitudeMeters>674.5999755859375</AltitudeMeters>
            <DistanceMeters>9656.8342038245</DistanceMeters>
          </Trackpoint>
          <Trackpoint>
            <Time>2022-08-26T22:29:56.000Z</Time>
            <Position>
              <LatitudeDegrees>50.16556148417294025421142578125</LatitudeDegrees>
              <LongitudeDegrees>17.00785794295370578765869140625</LongitudeDegrees>
            </Position>
            <AltitudeMeters>674</AltitudeMeters>
            <DistanceMeters>9662.3441146228</DistanceMeters>
          </Trackpoint>
          <Trackpoint>
            <Time>2022-08-26T22:30:00.000Z</Time>
            <Position>
              <LatitudeDegrees>50.16553684137761592864990234375</LatitudeDegrees>
              <LongitudeDegrees>17.00786950998008251190185546875</LongitudeDegrees>
            </Position>
            <AltitudeMeters>673.4000244140625</AltitudeMeters>
            <DistanceMeters>9665.2075582508</DistanceMeters>
          </Trackpoint>
          <Trackpoint>
            <Time>2022-08-26T22:30:03.000Z</Time>
            <Position>
              <LatitudeDegrees>50.165526531636714935302734375</LatitudeDegrees>
              <LongitudeDegrees>17.00788560323417186737060546875</LongitudeDegrees>
            </Position>
            <AltitudeMeters>672.79998779296875</AltitudeMeters>
            <DistanceMeters>9666.8313754578</DistanceMeters>
          </Trackpoint>
          <Trackpoint>
            <Time>2022-08-26T22:30:11.000Z</Time>
            <Position>
              <LatitudeDegrees>50.16549577005207538604736328125</LatitudeDegrees>
              <LongitudeDegrees>17.00798098929226398468017578125</LongitudeDegrees>
            </Position>
            <AltitudeMeters>671.79998779296875</AltitudeMeters>
            <DistanceMeters>9674.4459746493</DistanceMeters>
          </Trackpoint>
          <Trackpoint>
            <Time>2022-08-26T22:30:12.000Z</Time>
            <Position>
              <LatitudeDegrees>50.1654894836246967315673828125</LatitudeDegrees>
              <LongitudeDegrees>17.00798903591930866241455078125</LongitudeDegrees>
            </Position>
            <AltitudeMeters>671.79998779296875</AltitudeMeters>
            <DistanceMeters>9675.3524717295</DistanceMeters>
          </Trackpoint>
          <Trackpoint>
            <Time>2022-08-26T22:30:20.000Z</Time>
            <Position>
              <LatitudeDegrees>50.16539879143238067626953125</LatitudeDegrees>
              <LongitudeDegrees>17.00803111307322978973388671875</LongitudeDegrees>
            </Position>
            <AltitudeMeters>671</AltitudeMeters>
            <DistanceMeters>9685.8828724214</DistanceMeters>
          </Trackpoint>
          <Trackpoint>
            <Time>2022-08-26T22:30:24.000Z</Time>
            <Position>
              <LatitudeDegrees>50.16536132432520389556884765625</LatitudeDegrees>
              <LongitudeDegrees>17.00806145556271076202392578125</LongitudeDegrees>
            </Position>
            <AltitudeMeters>670.79998779296875</AltitudeMeters>
            <DistanceMeters>9690.5806917909</DistanceMeters>
          </Trackpoint>
          <Trackpoint>
            <Time>2022-08-26T22:30:30.000Z</Time>
            <Position>
              <LatitudeDegrees>50.1653020642697811126708984375</LatitudeDegrees>
              <LongitudeDegrees>17.0081021077930927276611328125</LongitudeDegrees>
            </Position>
            <AltitudeMeters>670.4000244140625</AltitudeMeters>
            <DistanceMeters>9697.785195896</DistanceMeters>
          </Trackpoint>
          <Trackpoint>
            <Time>2022-08-26T22:30:40.000Z</Time>
            <Position>
              <LatitudeDegrees>50.165223442018032073974609375</LatitudeDegrees>
              <LongitudeDegrees>17.0081409998238086700439453125</LongitudeDegrees>
            </Position>
            <AltitudeMeters>670</AltitudeMeters>
            <DistanceMeters>9706.9649929185</DistanceMeters>
          </Trackpoint>
          <Trackpoint>
            <Time>2022-08-26T22:30:44.000Z</Time>
            <Position>
              <LatitudeDegrees>50.1651783473789691925048828125</LatitudeDegrees>
              <LongitudeDegrees>17.00816002674400806427001953125</LongitudeDegrees>
            </Position>
            <AltitudeMeters>670</AltitudeMeters>
            <DistanceMeters>9712.1637445761</DistanceMeters>
          </Trackpoint>
          <Trackpoint>
            <Time>2022-08-26T22:30:49.000Z</Time>
            <Position>
              <LatitudeDegrees>50.16512545756995677947998046875</LatitudeDegrees>
              <LongitudeDegrees>17.0081906206905841827392578125</LongitudeDegrees>
            </Position>
            <AltitudeMeters>669.79998779296875</AltitudeMeters>
            <DistanceMeters>9718.4412642775</DistanceMeters>
          </Trackpoint>
          <Trackpoint>
            <Time>2022-08-26T22:30:51.000Z</Time>
            <Position>
              <LatitudeDegrees>50.16510240733623504638671875</LatitudeDegrees>
              <LongitudeDegrees>17.00820126570761203765869140625</LongitudeDegrees>
            </Position>
            <AltitudeMeters>669.79998779296875</AltitudeMeters>
            <DistanceMeters>9721.1172408506</DistanceMeters>
          </Trackpoint>
          <Trackpoint>
            <Time>2022-08-26T22:31:01.000Z</Time>
            <Position>
              <LatitudeDegrees>50.1649543829262256622314453125</LatitudeDegrees>
              <LongitudeDegrees>17.008292712271213531494140625</LongitudeDegrees>
            </Position>
            <AltitudeMeters>669.4000244140625</AltitudeMeters>
            <DistanceMeters>9738.8360923315</DistanceMeters>
          </Trackpoint>
          <Trackpoint>
            <Time>2022-08-26T22:31:12.000Z</Time>
            <Position>
              <LatitudeDegrees>50.164739973843097686767578125</LatitudeDegrees>
              <LongitudeDegrees>17.0084477774798870086669921875</LongitudeDegrees>
            </Position>
            <AltitudeMeters>669</AltitudeMeters>
            <DistanceMeters>9765.1370424268</DistanceMeters>
          </Trackpoint>
          <Trackpoint>
            <Time>2022-08-26T22:31:20.000Z</Time>
            <Position>
              <LatitudeDegrees>50.1646147482097148895263671875</LatitudeDegrees>
              <LongitudeDegrees>17.00857191346585750579833984375</LongitudeDegrees>
            </Position>
            <AltitudeMeters>668.79998779296875</AltitudeMeters>
            <DistanceMeters>9781.6476434967</DistanceMeters>
          </Trackpoint>
          <Trackpoint>
            <Time>2022-08-26T22:31:22.000Z</Time>
            <Position>
              <LatitudeDegrees>50.164593793451786041259765625</LatitudeDegrees>
              <LongitudeDegrees>17.00863578356802463531494140625</LongitudeDegrees>
            </Position>
            <AltitudeMeters>668.5999755859375</AltitudeMeters>
            <DistanceMeters>9786.7641062994</DistanceMeters>
          </Trackpoint>
          <Trackpoint>
            <Time>2022-08-26T22:31:29.000Z</Time>
            <Position>
              <LatitudeDegrees>50.164525397121906280517578125</LatitudeDegrees>
              <LongitudeDegrees>17.0087290741503238677978515625</LongitudeDegrees>
            </Position>
            <AltitudeMeters>668.4000244140625</AltitudeMeters>
            <DistanceMeters>9796.8736268218</DistanceMeters>
          </Trackpoint>
          <Trackpoint>
            <Time>2022-08-26T22:31:37.000Z</Time>
            <Position>
              <LatitudeDegrees>50.16445138491690158843994140625</LatitudeDegrees>
              <LongitudeDegrees>17.0088544674217700958251953125</LongitudeDegrees>
            </Position>
            <AltitudeMeters>668.20001220703125</AltitudeMeters>
            <DistanceMeters>9809.0307342556</DistanceMeters>
          </Trackpoint>
          <Trackpoint>
            <Time>2022-08-26T22:31:40.000Z</Time>
            <Position>
              <LatitudeDegrees>50.1644276641309261322021484375</LatitudeDegrees>
              <LongitudeDegrees>17.00890333391726016998291015625</LongitudeDegrees>
            </Position>
            <AltitudeMeters>667.79998779296875</AltitudeMeters>
            <DistanceMeters>9813.4019631167</DistanceMeters>
          </Trackpoint>
          <Trackpoint>
            <Time>2022-08-26T22:31:44.000Z</Time>
            <Position>
              <LatitudeDegrees>50.1643951423466205596923828125</LatitudeDegrees>
              <LongitudeDegrees>17.0089543797075748443603515625</LongitudeDegrees>
            </Position>
            <AltitudeMeters>667.5999755859375</AltitudeMeters>
            <DistanceMeters>9818.535165145</DistanceMeters>
          </Trackpoint>
          <Trackpoint>
            <Time>2022-08-26T22:31:52.000Z</Time>
            <Position>
              <LatitudeDegrees>50.16433018259704113006591796875</LatitudeDegrees>
              <LongitudeDegrees>17.0090452395379543304443359375</LongitudeDegrees>
            </Position>
            <AltitudeMeters>667</AltitudeMeters>
            <DistanceMeters>9828.2427847177</DistanceMeters>
          </Trackpoint>
          <Trackpoint>
            <Time>2022-08-26T22:31:57.000Z</Time>
            <Position>
              <LatitudeDegrees>50.1642851717770099639892578125</LatitudeDegrees>
              <LongitudeDegrees>17.0090925134718418121337890625</LongitudeDegrees>
            </Position>
            <AltitudeMeters>666.79998779296875</AltitudeMeters>
            <DistanceMeters>9834.2797863351</DistanceMeters>
          </Trackpoint>
          <Trackpoint>
            <Time>2022-08-26T22:32:00.000Z</Time>
            <Position>
              <LatitudeDegrees>50.1642553322017192840576171875</LatitudeDegrees>
              <LongitudeDegrees>17.0091444812715053558349609375</LongitudeDegrees>
            </Position>
            <AltitudeMeters>666.5999755859375</AltitudeMeters>
            <DistanceMeters>9839.2557756447</DistanceMeters>
          </Trackpoint>
          <Trackpoint>
            <Time>2022-08-26T22:32:06.000Z</Time>
            <Position>
              <LatitudeDegrees>50.1642080582678318023681640625</LatitudeDegrees>
              <LongitudeDegrees>17.0091961137950420379638671875</LongitudeDegrees>
            </Position>
            <AltitudeMeters>666.4000244140625</AltitudeMeters>
            <DistanceMeters>9845.6776413486</DistanceMeters>
          </Trackpoint>
          <Trackpoint>
            <Time>2022-08-26T22:32:12.000Z</Time>
            <Position>
              <LatitudeDegrees>50.1641513966023921966552734375</LatitudeDegrees>
              <LongitudeDegrees>17.00923190452158451080322265625</LongitudeDegrees>
            </Position>
            <AltitudeMeters>666.20001220703125</AltitudeMeters>
            <DistanceMeters>9852.4805188115</DistanceMeters>
          </Trackpoint>
          <Trackpoint>
            <Time>2022-08-26T22:32:13.000Z</Time>
            <Position>
              <LatitudeDegrees>50.16414619982242584228515625</LatitudeDegrees>
              <LongitudeDegrees>17.009242884814739227294921875</LongitudeDegrees>
            </Position>
            <AltitudeMeters>666.20001220703125</AltitudeMeters>
            <DistanceMeters>9853.4496049533</DistanceMeters>
          </Trackpoint>
          <Trackpoint>
            <Time>2022-08-26T22:32:19.000Z</Time>
            <Position>
              <LatitudeDegrees>50.16410822980105876922607421875</LatitudeDegrees>
              <LongitudeDegrees>17.00930331833660602569580078125</LongitudeDegrees>
            </Position>
            <AltitudeMeters>665.79998779296875</AltitudeMeters>
            <DistanceMeters>9859.485110597</DistanceMeters>
          </Trackpoint>
          <Trackpoint>
            <Time>2022-08-26T22:32:20.000Z</Time>
            <Position>
              <LatitudeDegrees>50.16410353593528270721435546875</LatitudeDegrees>
              <LongitudeDegrees>17.00930893421173095703125</LongitudeDegrees>
            </Position>
            <AltitudeMeters>665.5999755859375</AltitudeMeters>
            <DistanceMeters>9860.1434749864</DistanceMeters>
          </Trackpoint>
          <Trackpoint>
            <Time>2022-08-26T22:32:28.000Z</Time>
            <Position>
              <LatitudeDegrees>50.16406397335231304168701171875</LatitudeDegrees>
              <LongitudeDegrees>17.0093848742544651031494140625</LongitudeDegrees>
            </Position>
            <AltitudeMeters>665.20001220703125</AltitudeMeters>
            <DistanceMeters>9867.122603323</DistanceMeters>
          </Trackpoint>
          <Trackpoint>
            <Time>2022-08-26T22:32:32.000Z</Time>
            <Position>
              <LatitudeDegrees>50.16402977518737316131591796875</LatitudeDegrees>
              <LongitudeDegrees>17.0094284601509571075439453125</LongitudeDegrees>
            </Position>
            <AltitudeMeters>664.5999755859375</AltitudeMeters>
            <DistanceMeters>9872.0365044628</DistanceMeters>
          </Trackpoint>
          <Trackpoint>
            <Time>2022-08-26T22:32:41.000Z</Time>
            <Position>
              <LatitudeDegrees>50.16397462226450443267822265625</LatitudeDegrees>
              <LongitudeDegrees>17.00953415594995021820068359375</LongitudeDegrees>
            </Position>
            <AltitudeMeters>663.5999755859375</AltitudeMeters>
            <DistanceMeters>9881.7562091783</DistanceMeters>
          </Trackpoint>
          <Trackpoint>
            <Time>2022-08-26T22:32:51.000Z</Time>
            <Position>
              <LatitudeDegrees>50.1639103330671787261962890625</LatitudeDegrees>
              <LongitudeDegrees>17.0096825994551181793212890625</LongitudeDegrees>
            </Position>
            <AltitudeMeters>662.79998779296875</AltitudeMeters>
            <DistanceMeters>9894.5322673263</DistanceMeters>
          </Trackpoint>
          <Trackpoint>
            <Time>2022-08-26T22:32:53.000Z</Time>
            <Position>
              <LatitudeDegrees>50.16391192562878131866455078125</LatitudeDegrees>
              <LongitudeDegrees>17.00972861610352993011474609375</LongitudeDegrees>
            </Position>
            <AltitudeMeters>662.5999755859375</AltitudeMeters>
            <DistanceMeters>9897.8185983241</DistanceMeters>
          </Trackpoint>
          <Trackpoint>
            <Time>2022-08-26T22:33:01.000Z</Time>
            <Position>
              <LatitudeDegrees>50.163846798241138458251953125</LatitudeDegrees>
              <LongitudeDegrees>17.009837329387664794921875</LongitudeDegrees>
            </Position>
            <AltitudeMeters>662</AltitudeMeters>
            <DistanceMeters>9908.4310020767</DistanceMeters>
          </Trackpoint>
          <Trackpoint>
            <Time>2022-08-26T22:33:04.000Z</Time>
            <Position>
              <LatitudeDegrees>50.16382567584514617919921875</LatitudeDegrees>
              <LongitudeDegrees>17.00987982563674449920654296875</LongitudeDegrees>
            </Position>
            <AltitudeMeters>661.5999755859375</AltitudeMeters>
            <DistanceMeters>9912.2675401781</DistanceMeters>
          </Trackpoint>
          <Trackpoint>
            <Time>2022-08-26T22:33:13.000Z</Time>
            <Position>
              <LatitudeDegrees>50.16375820152461528778076171875</LatitudeDegrees>
              <LongitudeDegrees>17.00996079482138156890869140625</LongitudeDegrees>
            </Position>
            <AltitudeMeters>661</AltitudeMeters>
            <DistanceMeters>9921.7397542565</DistanceMeters>
          </Trackpoint>
          <Trackpoint>
            <Time>2022-08-26T22:33:21.000Z</Time>
            <Position>
              <LatitudeDegrees>50.1637007854878902435302734375</LatitudeDegrees>
              <LongitudeDegrees>17.0100477151572704315185546875</LongitudeDegrees>
            </Position>
            <AltitudeMeters>660.5999755859375</AltitudeMeters>
            <DistanceMeters>9930.641378872</DistanceMeters>
          </Trackpoint>
          <Trackpoint>
            <Time>2022-08-26T22:33:23.000Z</Time>
            <Position>
              <LatitudeDegrees>50.1636920683085918426513671875</LatitudeDegrees>
              <LongitudeDegrees>17.0100762136280536651611328125</LongitudeDegrees>
            </Position>
            <AltitudeMeters>660.4000244140625</AltitudeMeters>
            <DistanceMeters>9932.8941333996</DistanceMeters>
          </Trackpoint>
          <Trackpoint>
            <Time>2022-08-26T22:33:29.000Z</Time>
            <Position>
              <LatitudeDegrees>50.163642950356006622314453125</LatitudeDegrees>
              <LongitudeDegrees>17.01016732491552829742431640625</LongitudeDegrees>
            </Position>
            <AltitudeMeters>660.20001220703125</AltitudeMeters>
            <DistanceMeters>9941.3845456542</DistanceMeters>
          </Trackpoint>
          <Trackpoint>
            <Time>2022-08-26T22:33:33.000Z</Time>
            <Position>
              <LatitudeDegrees>50.1636173017323017120361328125</LatitudeDegrees>
              <LongitudeDegrees>17.01022314839065074920654296875</LongitudeDegrees>
            </Position>
            <AltitudeMeters>660</AltitudeMeters>
            <DistanceMeters>9946.2837234615</DistanceMeters>
          </Trackpoint>
          <Trackpoint>
            <Time>2022-08-26T22:33:42.000Z</Time>
            <Position>
              <LatitudeDegrees>50.16356089152395725250244140625</LatitudeDegrees>
              <LongitudeDegrees>17.0103913731873035430908203125</LongitudeDegrees>
            </Position>
            <AltitudeMeters>659.79998779296875</AltitudeMeters>
            <DistanceMeters>9959.8216122004</DistanceMeters>
          </Trackpoint>
          <Trackpoint>
            <Time>2022-08-26T22:33:52.000Z</Time>
            <Position>
              <LatitudeDegrees>50.1634841971099376678466796875</LatitudeDegrees>
              <LongitudeDegrees>17.01056881807744503021240234375</LongitudeDegrees>
            </Position>
            <AltitudeMeters>659.5999755859375</AltitudeMeters>
            <DistanceMeters>9975.0839793808</DistanceMeters>
          </Trackpoint>
          <Trackpoint>
            <Time>2022-08-26T22:34:00.000Z</Time>
            <Position>
              <LatitudeDegrees>50.1634292118251323699951171875</LatitudeDegrees>
              <LongitudeDegrees>17.01070779003202915191650390625</LongitudeDegrees>
            </Position>
            <AltitudeMeters>659.4000244140625</AltitudeMeters>
            <DistanceMeters>9986.7300838019</DistanceMeters>
          </Trackpoint>
          <Trackpoint>
            <Time>2022-08-26T22:34:02.000Z</Time>
            <Position>
              <LatitudeDegrees>50.16341940499842166900634765625</LatitudeDegrees>
              <LongitudeDegrees>17.01073176227509975433349609375</LongitudeDegrees>
            </Position>
            <AltitudeMeters>659.4000244140625</AltitudeMeters>
            <DistanceMeters>9988.7592991326</DistanceMeters>
          </Trackpoint>
          <Trackpoint>
            <Time>2022-08-26T22:34:13.000Z</Time>
            <Position>
              <LatitudeDegrees>50.16335519962012767791748046875</LatitudeDegrees>
              <LongitudeDegrees>17.01091482304036617279052734375</LongitudeDegrees>
            </Position>
            <AltitudeMeters>659.20001220703125</AltitudeMeters>
            <DistanceMeters>10003.640009282</DistanceMeters>
          </Trackpoint>
          <Trackpoint>
            <Time>2022-08-26T22:34:24.000Z</Time>
            <Position>
              <LatitudeDegrees>50.16327179968357086181640625</LatitudeDegrees>
              <LongitudeDegrees>17.01108816079795360565185546875</LongitudeDegrees>
            </Position>
            <AltitudeMeters>658.79998779296875</AltitudeMeters>
            <DistanceMeters>10019.096974138</DistanceMeters>
          </Trackpoint>
          <Trackpoint>
            <Time>2022-08-26T22:34:28.000Z</Time>
            <Position>
              <LatitudeDegrees>50.16324070282280445098876953125</LatitudeDegrees>
              <LongitudeDegrees>17.0111534558236598968505859375</LongitudeDegrees>
            </Position>
            <AltitudeMeters>658.4000244140625</AltitudeMeters>
            <DistanceMeters>10024.898275277</DistanceMeters>
          </Trackpoint>
          <Trackpoint>
            <Time>2022-08-26T22:34:34.000Z</Time>
            <Position>
              <LatitudeDegrees>50.1631901599466800689697265625</LatitudeDegrees>
              <LongitudeDegrees>17.01124892570078372955322265625</LongitudeDegrees>
            </Position>
            <AltitudeMeters>658</AltitudeMeters>
            <DistanceMeters>10033.729115564</DistanceMeters>
          </Trackpoint>
          <Trackpoint>
            <Time>2022-08-26T22:34:43.000Z</Time>
            <Position>
              <LatitudeDegrees>50.163089074194431304931640625</LatitudeDegrees>
              <LongitudeDegrees>17.01142578385770320892333984375</LongitudeDegrees>
            </Position>
            <AltitudeMeters>657.4000244140625</AltitudeMeters>
            <DistanceMeters>10050.628916089</DistanceMeters>
          </Trackpoint>
          <Trackpoint>
            <Time>2022-08-26T22:34:44.000Z</Time>
            <Position>
              <LatitudeDegrees>50.1630739867687225341796875</LatitudeDegrees>
              <LongitudeDegrees>17.01144204474985599517822265625</LongitudeDegrees>
            </Position>
            <AltitudeMeters>657.4000244140625</AltitudeMeters>
            <DistanceMeters>10052.671437892</DistanceMeters>
          </Trackpoint>
          <Trackpoint>
            <Time>2022-08-26T22:34:45.000Z</Time>
            <Position>
              <LatitudeDegrees>50.16306518577039241790771484375</LatitudeDegrees>
              <LongitudeDegrees>17.01145797036588191986083984375</LongitudeDegrees>
            </Position>
            <AltitudeMeters>657.4000244140625</AltitudeMeters>
            <DistanceMeters>10054.167920086</DistanceMeters>
          </Trackpoint>
          <Trackpoint>
            <Time>2022-08-26T22:34:58.000Z</Time>
            <Position>
              <LatitudeDegrees>50.16295664012432098388671875</LatitudeDegrees>
              <LongitudeDegrees>17.01167003251612186431884765625</LongitudeDegrees>
            </Position>
            <AltitudeMeters>656.79998779296875</AltitudeMeters>
            <DistanceMeters>10073.521668325</DistanceMeters>
          </Trackpoint>
          <Trackpoint>
            <Time>2022-08-26T22:35:09.000Z</Time>
            <Position>
              <LatitudeDegrees>50.1627408899366855621337890625</LatitudeDegrees>
              <LongitudeDegrees>17.01187605969607830047607421875</LongitudeDegrees>
            </Position>
            <AltitudeMeters>656.5999755859375</AltitudeMeters>
            <DistanceMeters>10101.671878952</DistanceMeters>
          </Trackpoint>
          <Trackpoint>
            <Time>2022-08-26T22:35:14.000Z</Time>
            <Position>
              <LatitudeDegrees>50.1626996509730815887451171875</LatitudeDegrees>
              <LongitudeDegrees>17.01193808577954769134521484375</LongitudeDegrees>
            </Position>
            <AltitudeMeters>656.4000244140625</AltitudeMeters>
            <DistanceMeters>10108.045756416</DistanceMeters>
          </Trackpoint>
          <Trackpoint>
            <Time>2022-08-26T22:35:15.000Z</Time>
            <Position>
              <LatitudeDegrees>50.16269470565021038055419921875</LatitudeDegrees>
              <LongitudeDegrees>17.011954598128795623779296875</LongitudeDegrees>
            </Position>
            <AltitudeMeters>656.4000244140625</AltitudeMeters>
            <DistanceMeters>10109.348697079</DistanceMeters>
          </Trackpoint>
          <Trackpoint>
            <Time>2022-08-26T22:35:16.000Z</Time>
            <Position>
              <LatitudeDegrees>50.16269118525087833404541015625</LatitudeDegrees>
              <LongitudeDegrees>17.0119711942970752716064453125</LongitudeDegrees>
            </Position>
            <AltitudeMeters>656.20001220703125</AltitudeMeters>
            <DistanceMeters>10110.594960754</DistanceMeters>
          </Trackpoint>
          <Trackpoint>
            <Time>2022-08-26T22:35:25.000Z</Time>
            <Position>
              <LatitudeDegrees>50.162608623504638671875</LatitudeDegrees>
              <LongitudeDegrees>17.01207839883863925933837890625</LongitudeDegrees>
            </Position>
            <AltitudeMeters>655.4000244140625</AltitudeMeters>
            <DistanceMeters>10122.547946552</DistanceMeters>
          </Trackpoint>
          <Trackpoint>
            <Time>2022-08-26T22:35:26.000Z</Time>
            <Position>
              <LatitudeDegrees>50.1626014150679111480712890625</LatitudeDegrees>
              <LongitudeDegrees>17.01208837330341339111328125</LongitudeDegrees>
            </Position>
            <AltitudeMeters>655.20001220703125</AltitudeMeters>
            <DistanceMeters>10123.614618776</DistanceMeters>
          </Trackpoint>
          <Trackpoint>
            <Time>2022-08-26T22:35:35.000Z</Time>
            <Position>
              <LatitudeDegrees>50.16251767985522747039794921875</LatitudeDegrees>
              <LongitudeDegrees>17.0122142694890499114990234375</LongitudeDegrees>
            </Position>
            <AltitudeMeters>654</AltitudeMeters>
            <DistanceMeters>10136.554312645</DistanceMeters>
          </Trackpoint>
          <Trackpoint>
            <Time>2022-08-26T22:35:41.000Z</Time>
            <Position>
              <LatitudeDegrees>50.16249186359345912933349609375</LatitudeDegrees>
              <LongitudeDegrees>17.0122665725648403167724609375</LongitudeDegrees>
            </Position>
            <AltitudeMeters>653.4000244140625</AltitudeMeters>
            <DistanceMeters>10141.261733127</DistanceMeters>
          </Trackpoint>
          <Trackpoint>
            <Time>2022-08-26T22:35:44.000Z</Time>
            <Position>
              <LatitudeDegrees>50.16248180530965328216552734375</LatitudeDegrees>
              <LongitudeDegrees>17.01229867525398731231689453125</LongitudeDegrees>
            </Position>
            <AltitudeMeters>653</AltitudeMeters>
            <DistanceMeters>10143.811567443</DistanceMeters>
          </Trackpoint>
          <Trackpoint>
            <Time>2022-08-26T22:35:46.000Z</Time>
            <Position>
              <LatitudeDegrees>50.16246504150331020355224609375</LatitudeDegrees>
              <LongitudeDegrees>17.01230051927268505096435546875</LongitudeDegrees>
            </Position>
            <AltitudeMeters>652.79998779296875</AltitudeMeters>
            <DistanceMeters>10145.683376637</DistanceMeters>
          </Trackpoint>
          <Trackpoint>
            <Time>2022-08-26T22:35:58.000Z</Time>
            <Position>
              <LatitudeDegrees>50.16234518028795719146728515625</LatitudeDegrees>
              <LongitudeDegrees>17.0124110765755176544189453125</LongitudeDegrees>
            </Position>
            <AltitudeMeters>652</AltitudeMeters>
            <DistanceMeters>10161.179433968</DistanceMeters>
          </Trackpoint>
          <Trackpoint>
            <Time>2022-08-26T22:36:08.000Z</Time>
            <Position>
              <LatitudeDegrees>50.162284076213836669921875</LatitudeDegrees>
              <LongitudeDegrees>17.012627162039279937744140625</LongitudeDegrees>
            </Position>
            <AltitudeMeters>651.79998779296875</AltitudeMeters>
            <DistanceMeters>10178.021159865</DistanceMeters>
          </Trackpoint>
          <Trackpoint>
            <Time>2022-08-26T22:36:20.000Z</Time>
            <Position>
              <LatitudeDegrees>50.16221635043621063232421875</LatitudeDegrees>
              <LongitudeDegrees>17.01278734020888805389404296875</LongitudeDegrees>
            </Position>
            <AltitudeMeters>651.5999755859375</AltitudeMeters>
            <DistanceMeters>10191.705666626</DistanceMeters>
          </Trackpoint>
          <Trackpoint>
            <Time>2022-08-26T22:36:32.000Z</Time>
            <Position>
              <LatitudeDegrees>50.162099339067935943603515625</LatitudeDegrees>
              <LongitudeDegrees>17.012988589704036712646484375</LongitudeDegrees>
            </Position>
            <AltitudeMeters>651.4000244140625</AltitudeMeters>
            <DistanceMeters>10211.084127839</DistanceMeters>
          </Trackpoint>
          <Trackpoint>
            <Time>2022-08-26T22:36:42.000Z</Time>
            <Position>
              <LatitudeDegrees>50.161829777061939239501953125</LatitudeDegrees>
              <LongitudeDegrees>17.01307886280119419097900390625</LongitudeDegrees>
            </Position>
            <AltitudeMeters>651.4000244140625</AltitudeMeters>
            <DistanceMeters>10241.769665004</DistanceMeters>
          </Trackpoint>
          <Trackpoint>
            <Time>2022-08-26T22:36:54.000Z</Time>
            <Position>
              <LatitudeDegrees>50.1617114245891571044921875</LatitudeDegrees>
              <LongitudeDegrees>17.013193108141422271728515625</LongitudeDegrees>
            </Position>
            <AltitudeMeters>651.5999755859375</AltitudeMeters>
            <DistanceMeters>10257.257561913</DistanceMeters>
          </Trackpoint>
          <Trackpoint>
            <Time>2022-08-26T22:37:04.000Z</Time>
            <Position>
              <LatitudeDegrees>50.1614715345203876495361328125</LatitudeDegrees>
              <LongitudeDegrees>17.01328187249600887298583984375</LongitudeDegrees>
            </Position>
            <AltitudeMeters>651.4000244140625</AltitudeMeters>
            <DistanceMeters>10284.697749489</DistanceMeters>
          </Trackpoint>
          <Trackpoint>
            <Time>2022-08-26T22:37:13.000Z</Time>
            <Position>
              <LatitudeDegrees>50.16135242767632007598876953125</LatitudeDegrees>
              <LongitudeDegrees>17.01353316195309162139892578125</LongitudeDegrees>
            </Position>
            <AltitudeMeters>651.5999755859375</AltitudeMeters>
            <DistanceMeters>10306.98673075</DistanceMeters>
          </Trackpoint>
          <Trackpoint>
            <Time>2022-08-26T22:37:22.000Z</Time>
            <Position>
              <LatitudeDegrees>50.1612609811127185821533203125</LatitudeDegrees>
              <LongitudeDegrees>17.01367582194507122039794921875</LongitudeDegrees>
            </Position>
            <AltitudeMeters>651.79998779296875</AltitudeMeters>
            <DistanceMeters>10321.37692578</DistanceMeters>
          </Trackpoint>
          <Trackpoint>
            <Time>2022-08-26T22:37:32.000Z</Time>
            <Position>
              <LatitudeDegrees>50.1611816883087158203125</LatitudeDegrees>
              <LongitudeDegrees>17.01386533677577972412109375</LongitudeDegrees>
            </Position>
            <AltitudeMeters>652</AltitudeMeters>
            <DistanceMeters>10337.516647438</DistanceMeters>
          </Trackpoint>
          <Trackpoint>
            <Time>2022-08-26T22:37:40.000Z</Time>
            <Position>
              <LatitudeDegrees>50.1611174829304218292236328125</LatitudeDegrees>
              <LongitudeDegrees>17.0140103437006473541259765625</LongitudeDegrees>
            </Position>
            <AltitudeMeters>652.20001220703125</AltitudeMeters>
            <DistanceMeters>10350.085344956</DistanceMeters>
          </Trackpoint>
          <Trackpoint>
            <Time>2022-08-26T22:37:48.000Z</Time>
            <Position>
              <LatitudeDegrees>50.16104481182992458343505859375</LatitudeDegrees>
              <LongitudeDegrees>17.01416498981416225433349609375</LongitudeDegrees>
            </Position>
            <AltitudeMeters>653.20001220703125</AltitudeMeters>
            <DistanceMeters>10363.760610334</DistanceMeters>
          </Trackpoint>
          <Trackpoint>
            <Time>2022-08-26T22:37:56.000Z</Time>
            <Position>
              <LatitudeDegrees>50.16096778213977813720703125</LatitudeDegrees>
              <LongitudeDegrees>17.01429222710430622100830078125</LongitudeDegrees>
            </Position>
            <AltitudeMeters>653.5999755859375</AltitudeMeters>
            <DistanceMeters>10376.243156911</DistanceMeters>
          </Trackpoint>
          <Trackpoint>
            <Time>2022-08-26T22:37:57.000Z</Time>
            <Position>
              <LatitudeDegrees>50.1609575562179088592529296875</LatitudeDegrees>
              <LongitudeDegrees>17.0143077336251735687255859375</LongitudeDegrees>
            </Position>
            <AltitudeMeters>653.5999755859375</AltitudeMeters>
            <DistanceMeters>10377.833257978</DistanceMeters>
          </Trackpoint>
          <Trackpoint>
            <Time>2022-08-26T22:38:06.000Z</Time>
            <Position>
              <LatitudeDegrees>50.160868875682353973388671875</LatitudeDegrees>
              <LongitudeDegrees>17.0144428499042987823486328125</LongitudeDegrees>
            </Position>
            <AltitudeMeters>654.5999755859375</AltitudeMeters>
            <DistanceMeters>10391.626214533</DistanceMeters>
          </Trackpoint>
          <Trackpoint>
            <Time>2022-08-26T22:38:11.000Z</Time>
            <Position>
              <LatitudeDegrees>50.1608174107968807220458984375</LatitudeDegrees>
              <LongitudeDegrees>17.01451283879578113555908203125</LongitudeDegrees>
            </Position>
            <AltitudeMeters>654.79998779296875</AltitudeMeters>
            <DistanceMeters>10399.222410191</DistanceMeters>
          </Trackpoint>
          <Trackpoint>
            <Time>2022-08-26T22:38:16.000Z</Time>
            <Position>
              <LatitudeDegrees>50.16077022068202495574951171875</LatitudeDegrees>
              <LongitudeDegrees>17.0145754516124725341796875</LongitudeDegrees>
            </Position>
            <AltitudeMeters>655.20001220703125</AltitudeMeters>
            <DistanceMeters>10406.115614254</DistanceMeters>
          </Trackpoint>
          <Trackpoint>
            <Time>2022-08-26T22:38:20.000Z</Time>
            <Position>
              <LatitudeDegrees>50.16072780825197696685791015625</LatitudeDegrees>
              <LongitudeDegrees>17.01462666504085063934326171875</LongitudeDegrees>
            </Position>
            <AltitudeMeters>656</AltitudeMeters>
            <DistanceMeters>10412.083412968</DistanceMeters>
          </Trackpoint>
          <Trackpoint>
            <Time>2022-08-26T22:38:27.000Z</Time>
            <Position>
              <LatitudeDegrees>50.160653293132781982421875</LatitudeDegrees>
              <LongitudeDegrees>17.01471819542348384857177734375</LongitudeDegrees>
            </Position>
            <AltitudeMeters>656.79998779296875</AltitudeMeters>
            <DistanceMeters>10422.636941423</DistanceMeters>
          </Trackpoint>
          <Trackpoint>
            <Time>2022-08-26T22:38:32.000Z</Time>
            <Position>
              <LatitudeDegrees>50.16060300171375274658203125</LatitudeDegrees>
              <LongitudeDegrees>17.01477636583149433135986328125</LongitudeDegrees>
            </Position>
            <AltitudeMeters>657.20001220703125</AltitudeMeters>
            <DistanceMeters>10429.603119056</DistanceMeters>
          </Trackpoint>
          <Trackpoint>
            <Time>2022-08-26T22:38:38.000Z</Time>
            <Position>
              <LatitudeDegrees>50.16054240055382251739501953125</LatitudeDegrees>
              <LongitudeDegrees>17.01485834084451198577880859375</LongitudeDegrees>
            </Position>
            <AltitudeMeters>657.5999755859375</AltitudeMeters>
            <DistanceMeters>10438.528550944</DistanceMeters>
          </Trackpoint>
          <Trackpoint>
            <Time>2022-08-26T22:38:47.000Z</Time>
            <Position>
              <LatitudeDegrees>50.16045288182795047760009765625</LatitudeDegrees>
              <LongitudeDegrees>17.015008293092250823974609375</LongitudeDegrees>
            </Position>
            <AltitudeMeters>658.20001220703125</AltitudeMeters>
            <DistanceMeters>10453.143523685</DistanceMeters>
          </Trackpoint>
          <Trackpoint>
            <Time>2022-08-26T22:38:53.000Z</Time>
            <Position>
              <LatitudeDegrees>50.16039806418120861053466796875</LatitudeDegrees>
              <LongitudeDegrees>17.0150966383516788482666015625</LongitudeDegrees>
            </Position>
            <AltitudeMeters>658.4000244140625</AltitudeMeters>
            <DistanceMeters>10461.913310516</DistanceMeters>
          </Trackpoint>
          <Trackpoint>
            <Time>2022-08-26T22:38:57.000Z</Time>
            <Position>
              <LatitudeDegrees>50.1603711582720279693603515625</LatitudeDegrees>
              <LongitudeDegrees>17.01514868997037410736083984375</LongitudeDegrees>
            </Position>
            <AltitudeMeters>658.79998779296875</AltitudeMeters>
            <DistanceMeters>10466.682667136</DistanceMeters>
          </Trackpoint>
          <Trackpoint>
            <Time>2022-08-26T22:38:58.000Z</Time>
            <Position>
              <LatitudeDegrees>50.16036956571042537689208984375</LatitudeDegrees>
              <LongitudeDegrees>17.015159837901592254638671875</LongitudeDegrees>
            </Position>
            <AltitudeMeters>658.79998779296875</AltitudeMeters>
            <DistanceMeters>10467.500117842</DistanceMeters>
          </Trackpoint>
          <Trackpoint>
            <Time>2022-08-26T22:39:08.000Z</Time>
            <Position>
              <LatitudeDegrees>50.160308293998241424560546875</LatitudeDegrees>
              <LongitudeDegrees>17.01525530777871608734130859375</LongitudeDegrees>
            </Position>
            <AltitudeMeters>659.5999755859375</AltitudeMeters>
            <DistanceMeters>10477.135845422</DistanceMeters>
          </Trackpoint>
          <Trackpoint>
            <Time>2022-08-26T22:39:09.000Z</Time>
            <Position>
              <LatitudeDegrees>50.16030200757086277008056640625</LatitudeDegrees>
              <LongitudeDegrees>17.0152713172137737274169921875</LongitudeDegrees>
            </Position>
            <AltitudeMeters>659.5999755859375</AltitudeMeters>
            <DistanceMeters>10478.472989818</DistanceMeters>
          </Trackpoint>
          <Trackpoint>
            <Time>2022-08-26T22:39:17.000Z</Time>
            <Position>
              <LatitudeDegrees>50.16021466813981533050537109375</LatitudeDegrees>
              <LongitudeDegrees>17.0153742469847202301025390625</LongitudeDegrees>
            </Position>
            <AltitudeMeters>660.20001220703125</AltitudeMeters>
            <DistanceMeters>10490.653472402</DistanceMeters>
          </Trackpoint>
          <Trackpoint>
            <Time>2022-08-26T22:39:24.000Z</Time>
            <Position>
              <LatitudeDegrees>50.16015314497053623199462890625</LatitudeDegrees>
              <LongitudeDegrees>17.01543635688722133636474609375</LongitudeDegrees>
            </Position>
            <AltitudeMeters>660.79998779296875</AltitudeMeters>
            <DistanceMeters>10498.808624945</DistanceMeters>
          </Trackpoint>
          <Trackpoint>
            <Time>2022-08-26T22:39:29.000Z</Time>
            <Position>
              <LatitudeDegrees>50.160125233232975006103515625</LatitudeDegrees>
              <LongitudeDegrees>17.01543434523046016693115234375</LongitudeDegrees>
            </Position>
            <AltitudeMeters>661.4000244140625</AltitudeMeters>
            <DistanceMeters>10501.919933665</DistanceMeters>
          </Trackpoint>
          <Trackpoint>
            <Time>2022-08-26T22:39:31.000Z</Time>
            <Position>
              <LatitudeDegrees>50.1601039431989192962646484375</LatitudeDegrees>
              <LongitudeDegrees>17.0154275558888912200927734375</LongitudeDegrees>
            </Position>
            <AltitudeMeters>661.4000244140625</AltitudeMeters>
            <DistanceMeters>10504.338918893</DistanceMeters>
          </Trackpoint>
          <Trackpoint>
            <Time>2022-08-26T22:39:33.000Z</Time>
            <Position>
              <LatitudeDegrees>50.16008357517421245574951171875</LatitudeDegrees>
              <LongitudeDegrees>17.01541858725249767303466796875</LongitudeDegrees>
            </Position>
            <AltitudeMeters>661.4000244140625</AltitudeMeters>
            <DistanceMeters>10506.693588071</DistanceMeters>
          </Trackpoint>
          <Trackpoint>
            <Time>2022-08-26T22:39:40.000Z</Time>
            <Position>
              <LatitudeDegrees>50.15999020077288150787353515625</LatitudeDegrees>
              <LongitudeDegrees>17.01540534384548664093017578125</LongitudeDegrees>
            </Position>
            <AltitudeMeters>661.4000244140625</AltitudeMeters>
            <DistanceMeters>10517.129234764</DistanceMeters>
          </Trackpoint>
          <Trackpoint>
            <Time>2022-08-26T22:39:51.000Z</Time>
            <Position>
              <LatitudeDegrees>50.15985273756086826324462890625</LatitudeDegrees>
              <LongitudeDegrees>17.015362344682216644287109375</LongitudeDegrees>
            </Position>
            <AltitudeMeters>661.4000244140625</AltitudeMeters>
            <DistanceMeters>10532.733304145</DistanceMeters>
          </Trackpoint>
          <Trackpoint>
            <Time>2022-08-26T22:39:59.000Z</Time>
            <Position>
              <LatitudeDegrees>50.15975676476955413818359375</LatitudeDegrees>
              <LongitudeDegrees>17.01534348540008068084716796875</LongitudeDegrees>
            </Position>
            <AltitudeMeters>661.79998779296875</AltitudeMeters>
            <DistanceMeters>10543.499877013</DistanceMeters>
          </Trackpoint>
          <Trackpoint>
            <Time>2022-08-26T22:40:00.000Z</Time>
            <Position>
              <LatitudeDegrees>50.15974645502865314483642578125</LatitudeDegrees>
              <LongitudeDegrees>17.015341222286224365234375</LongitudeDegrees>
            </Position>
            <AltitudeMeters>662</AltitudeMeters>
            <DistanceMeters>10544.659825887</DistanceMeters>
          </Trackpoint>
          <Trackpoint>
            <Time>2022-08-26T22:40:04.000Z</Time>
            <Position>
              <LatitudeDegrees>50.15969867818057537078857421875</LatitudeDegrees>
              <LongitudeDegrees>17.01533250510692596435546875</LongitudeDegrees>
            </Position>
            <AltitudeMeters>662</AltitudeMeters>
            <DistanceMeters>10550.013466016</DistanceMeters>
          </Trackpoint>
          <Trackpoint>
            <Time>2022-08-26T22:40:08.000Z</Time>
            <Position>
              <LatitudeDegrees>50.15963866375386714935302734375</LatitudeDegrees>
              <LongitudeDegrees>17.01532714068889617919921875</LongitudeDegrees>
            </Position>
            <AltitudeMeters>662</AltitudeMeters>
            <DistanceMeters>10556.703913604</DistanceMeters>
          </Trackpoint>
          <Trackpoint>
            <Time>2022-08-26T22:40:11.000Z</Time>
            <Position>
              <LatitudeDegrees>50.15959943644702434539794921875</LatitudeDegrees>
              <LongitudeDegrees>17.015319764614105224609375</LongitudeDegrees>
            </Position>
            <AltitudeMeters>662</AltitudeMeters>
            <DistanceMeters>10561.101915849</DistanceMeters>
          </Trackpoint>
          <Trackpoint>
            <Time>2022-08-26T22:40:14.000Z</Time>
            <Position>
              <LatitudeDegrees>50.1595433615148067474365234375</LatitudeDegrees>
              <LongitudeDegrees>17.01531716622412204742431640625</LongitudeDegrees>
            </Position>
            <AltitudeMeters>662</AltitudeMeters>
            <DistanceMeters>10567.344816611</DistanceMeters>
          </Trackpoint>
          <Trackpoint>
            <Time>2022-08-26T22:40:17.000Z</Time>
            <Position>
              <LatitudeDegrees>50.15949801541864871978759765625</LatitudeDegrees>
              <LongitudeDegrees>17.01531817205250263214111328125</LongitudeDegrees>
            </Position>
            <AltitudeMeters>662.20001220703125</AltitudeMeters>
            <DistanceMeters>10572.3910841</DistanceMeters>
          </Trackpoint>
          <Trackpoint>
            <Time>2022-08-26T22:40:24.000Z</Time>
            <Position>
              <LatitudeDegrees>50.15939173288643360137939453125</LatitudeDegrees>
              <LongitudeDegrees>17.01530140824615955352783203125</LongitudeDegrees>
            </Position>
            <AltitudeMeters>662.20001220703125</AltitudeMeters>
            <DistanceMeters>10584.280821134</DistanceMeters>
          </Trackpoint>
          <Trackpoint>
            <Time>2022-08-26T22:40:26.000Z</Time>
            <Position>
              <LatitudeDegrees>50.15936893410980701446533203125</LatitudeDegrees>
              <LongitudeDegrees>17.01529604382812976837158203125</LongitudeDegrees>
            </Position>
            <AltitudeMeters>662.20001220703125</AltitudeMeters>
            <DistanceMeters>10586.846542422</DistanceMeters>
          </Trackpoint>
          <Trackpoint>
            <Time>2022-08-26T22:40:30.000Z</Time>
            <Position>
              <LatitudeDegrees>50.1593281142413616180419921875</LatitudeDegrees>
              <LongitudeDegrees>17.0152830518782138824462890625</LongitudeDegrees>
            </Position>
            <AltitudeMeters>662.20001220703125</AltitudeMeters>
            <DistanceMeters>10591.484391287</DistanceMeters>
          </Trackpoint>
          <Trackpoint>
            <Time>2022-08-26T22:40:37.000Z</Time>
            <Position>
              <LatitudeDegrees>50.15925829298794269561767578125</LatitudeDegrees>
              <LongitudeDegrees>17.01529252342879772186279296875</LongitudeDegrees>
            </Position>
            <AltitudeMeters>662.20001220703125</AltitudeMeters>
            <DistanceMeters>10599.285268491</DistanceMeters>
          </Trackpoint>
          <Trackpoint>
            <Time>2022-08-26T22:40:45.000Z</Time>
            <Position>
              <LatitudeDegrees>50.159167014062404632568359375</LatitudeDegrees>
              <LongitudeDegrees>17.01530040241777896881103515625</LongitudeDegrees>
            </Position>
            <AltitudeMeters>662.20001220703125</AltitudeMeters>
            <DistanceMeters>10609.460229249</DistanceMeters>
          </Trackpoint>
          <Trackpoint>
            <Time>2022-08-26T22:40:48.000Z</Time>
            <Position>
              <LatitudeDegrees>50.15913424082100391387939453125</LatitudeDegrees>
              <LongitudeDegrees>17.01529134996235370635986328125</LongitudeDegrees>
            </Position>
            <AltitudeMeters>662.20001220703125</AltitudeMeters>
            <DistanceMeters>10613.165052618</DistanceMeters>
          </Trackpoint>
          <Trackpoint>
            <Time>2022-08-26T22:40:51.000Z</Time>
            <Position>
              <LatitudeDegrees>50.159091241657733917236328125</LatitudeDegrees>
              <LongitudeDegrees>17.01527106575667858123779296875</LongitudeDegrees>
            </Position>
            <AltitudeMeters>662.20001220703125</AltitudeMeters>
            <DistanceMeters>10618.165480767</DistanceMeters>
          </Trackpoint>
          <Trackpoint>
            <Time>2022-08-26T22:40:57.000Z</Time>
            <Position>
              <LatitudeDegrees>50.1590265333652496337890625</LatitudeDegrees>
              <LongitudeDegrees>17.01527617871761322021484375</LongitudeDegrees>
            </Position>
            <AltitudeMeters>662.20001220703125</AltitudeMeters>
            <DistanceMeters>10625.37750131</DistanceMeters>
          </Trackpoint>
          <Trackpoint>
            <Time>2022-08-26T22:41:05.000Z</Time>
            <Position>
              <LatitudeDegrees>50.15892603434622287750244140625</LatitudeDegrees>
              <LongitudeDegrees>17.01528917066752910614013671875</LongitudeDegrees>
            </Position>
            <AltitudeMeters>662.4000244140625</AltitudeMeters>
            <DistanceMeters>10636.601520041</DistanceMeters>
          </Trackpoint>
          <Trackpoint>
            <Time>2022-08-26T22:41:12.000Z</Time>
            <Position>
              <LatitudeDegrees>50.1588412933051586151123046875</LatitudeDegrees>
              <LongitudeDegrees>17.01530559919774532318115234375</LongitudeDegrees>
            </Position>
            <AltitudeMeters>662.20001220703125</AltitudeMeters>
            <DistanceMeters>10646.106091822</DistanceMeters>
          </Trackpoint>
          <Trackpoint>
            <Time>2022-08-26T22:41:20.000Z</Time>
            <Position>
              <LatitudeDegrees>50.1587262935936450958251953125</LatitudeDegrees>
              <LongitudeDegrees>17.0152942836284637451171875</LongitudeDegrees>
            </Position>
            <AltitudeMeters>662.4000244140625</AltitudeMeters>
            <DistanceMeters>10658.930826219</DistanceMeters>
          </Trackpoint>
          <Trackpoint>
            <Time>2022-08-26T22:41:26.000Z</Time>
            <Position>
              <LatitudeDegrees>50.1586096175014972686767578125</LatitudeDegrees>
              <LongitudeDegrees>17.0153340138494968414306640625</LongitudeDegrees>
            </Position>
            <AltitudeMeters>662.4000244140625</AltitudeMeters>
            <DistanceMeters>10672.222342895</DistanceMeters>
          </Trackpoint>
          <Trackpoint>
            <Time>2022-08-26T22:41:27.000Z</Time>
            <Position>
              <LatitudeDegrees>50.15858857892453670501708984375</LatitudeDegrees>
              <LongitudeDegrees>17.01535337604582309722900390625</LongitudeDegrees>
            </Position>
            <AltitudeMeters>662.4000244140625</AltitudeMeters>
            <DistanceMeters>10674.940173378</DistanceMeters>
          </Trackpoint>
          <Trackpoint>
            <Time>2022-08-26T22:41:36.000Z</Time>
            <Position>
              <LatitudeDegrees>50.15847458504140377044677734375</LatitudeDegrees>
              <LongitudeDegrees>17.01551347039639949798583984375</LongitudeDegrees>
            </Position>
            <AltitudeMeters>662.5999755859375</AltitudeMeters>
            <DistanceMeters>10692.007722587</DistanceMeters>
          </Trackpoint>
          <Trackpoint>
            <Time>2022-08-26T22:41:44.000Z</Time>
            <Position>
              <LatitudeDegrees>50.158403255045413970947265625</LatitudeDegrees>
              <LongitudeDegrees>17.0156236924231052398681640625</LongitudeDegrees>
            </Position>
            <AltitudeMeters>662.5999755859375</AltitudeMeters>
            <DistanceMeters>10703.179728522</DistanceMeters>
          </Trackpoint>
          <Trackpoint>
            <Time>2022-08-26T22:41:45.000Z</Time>
            <Position>
              <LatitudeDegrees>50.15839110128581523895263671875</LatitudeDegrees>
              <LongitudeDegrees>17.0156303979456424713134765625</LongitudeDegrees>
            </Position>
            <AltitudeMeters>662.5999755859375</AltitudeMeters>
            <DistanceMeters>10704.614600442</DistanceMeters>
          </Trackpoint>
          <Trackpoint>
            <Time>2022-08-26T22:41:49.000Z</Time>
            <Position>
              <LatitudeDegrees>50.15835153870284557342529296875</LatitudeDegrees>
              <LongitudeDegrees>17.01563584618270397186279296875</LongitudeDegrees>
            </Position>
            <AltitudeMeters>663</AltitudeMeters>
            <DistanceMeters>10709.034108939</DistanceMeters>
          </Trackpoint>
          <Trackpoint>
            <Time>2022-08-26T22:41:56.000Z</Time>
            <Position>
              <LatitudeDegrees>50.15830912627279758453369140625</LatitudeDegrees>
              <LongitudeDegrees>17.0155801065266132354736328125</LongitudeDegrees>
            </Position>
            <AltitudeMeters>663.20001220703125</AltitudeMeters>
            <DistanceMeters>10715.205726428</DistanceMeters>
          </Trackpoint>
          <Trackpoint>
            <Time>2022-08-26T22:42:04.000Z</Time>
            <Position>
              <LatitudeDegrees>50.15823955647647380828857421875</LatitudeDegrees>
              <LongitudeDegrees>17.01551749370992183685302734375</LongitudeDegrees>
            </Position>
            <AltitudeMeters>663.20001220703125</AltitudeMeters>
            <DistanceMeters>10724.144301056</DistanceMeters>
          </Trackpoint>
          <Trackpoint>
            <Time>2022-08-26T22:42:06.000Z</Time>
            <Position>
              <LatitudeDegrees>50.1582213677465915679931640625</LatitudeDegrees>
              <LongitudeDegrees>17.01549687422811985015869140625</LongitudeDegrees>
            </Position>
            <AltitudeMeters>662.79998779296875</AltitudeMeters>
            <DistanceMeters>10726.64586916</DistanceMeters>
          </Trackpoint>
          <Trackpoint>
            <Time>2022-08-26T22:42:10.000Z</Time>
            <Position>
              <LatitudeDegrees>50.1581784524023532867431640625</LatitudeDegrees>
              <LongitudeDegrees>17.0154537074267864227294921875</LongitudeDegrees>
            </Position>
            <AltitudeMeters>662.5999755859375</AltitudeMeters>
            <DistanceMeters>10732.3276403</DistanceMeters>
          </Trackpoint>
          <Trackpoint>
            <Time>2022-08-26T22:42:19.000Z</Time>
            <Position>
              <LatitudeDegrees>50.15808348543941974639892578125</LatitudeDegrees>
              <LongitudeDegrees>17.0153806172311305999755859375</LongitudeDegrees>
            </Position>
            <AltitudeMeters>661.79998779296875</AltitudeMeters>
            <DistanceMeters>10744.113251691</DistanceMeters>
          </Trackpoint>
          <Trackpoint>
            <Time>2022-08-26T22:42:20.000Z</Time>
            <Position>
              <LatitudeDegrees>50.1580797135829925537109375</LatitudeDegrees>
              <LongitudeDegrees>17.0153685472905635833740234375</LongitudeDegrees>
            </Position>
            <AltitudeMeters>661.79998779296875</AltitudeMeters>
            <DistanceMeters>10745.072974462</DistanceMeters>
          </Trackpoint>
          <Trackpoint>
            <Time>2022-08-26T22:42:25.000Z</Time>
            <Position>
              <LatitudeDegrees>50.158040821552276611328125</LatitudeDegrees>
              <LongitudeDegrees>17.015319764614105224609375</LongitudeDegrees>
            </Position>
            <AltitudeMeters>661.5999755859375</AltitudeMeters>
            <DistanceMeters>10750.626958719</DistanceMeters>
          </Trackpoint>
          <Trackpoint>
            <Time>2022-08-26T22:42:26.000Z</Time>
            <Position>
              <LatitudeDegrees>50.15803805552423000335693359375</LatitudeDegrees>
              <LongitudeDegrees>17.015314400196075439453125</LongitudeDegrees>
            </Position>
            <AltitudeMeters>661.5999755859375</AltitudeMeters>
            <DistanceMeters>10751.120732011</DistanceMeters>
          </Trackpoint>
          <Trackpoint>
            <Time>2022-08-26T22:42:29.000Z</Time>
            <Position>
              <LatitudeDegrees>50.15801307745277881622314453125</LatitudeDegrees>
              <LongitudeDegrees>17.015292942523956298828125</LongitudeDegrees>
            </Position>
            <AltitudeMeters>661.4000244140625</AltitudeMeters>
            <DistanceMeters>10754.29382754</DistanceMeters>
          </Trackpoint>
          <Trackpoint>
            <Time>2022-08-26T22:42:32.000Z</Time>
            <Position>
              <LatitudeDegrees>50.15796328894793987274169921875</LatitudeDegrees>
              <LongitudeDegrees>17.01530543155968189239501953125</LongitudeDegrees>
            </Position>
            <AltitudeMeters>661.20001220703125</AltitudeMeters>
            <DistanceMeters>10759.906038035</DistanceMeters>
          </Trackpoint>
          <Trackpoint>
            <Time>2022-08-26T22:42:39.000Z</Time>
            <Position>
              <LatitudeDegrees>50.15788299031555652618408203125</LatitudeDegrees>
              <LongitudeDegrees>17.015291266143321990966796875</LongitudeDegrees>
            </Position>
            <AltitudeMeters>660.5999755859375</AltitudeMeters>
            <DistanceMeters>10768.900004056</DistanceMeters>
          </Trackpoint>
          <Trackpoint>
            <Time>2022-08-26T22:42:41.000Z</Time>
            <Position>
              <LatitudeDegrees>50.15786354430019855499267578125</LatitudeDegrees>
              <LongitudeDegrees>17.0152686350047588348388671875</LongitudeDegrees>
            </Position>
            <AltitudeMeters>660.5999755859375</AltitudeMeters>
            <DistanceMeters>10771.599498766</DistanceMeters>
          </Trackpoint>
          <Trackpoint>
            <Time>2022-08-26T22:42:49.000Z</Time>
            <Position>
              <LatitudeDegrees>50.15778643079102039337158203125</LatitudeDegrees>
              <LongitudeDegrees>17.0151623524725437164306640625</LongitudeDegrees>
            </Position>
            <AltitudeMeters>660.20001220703125</AltitudeMeters>
            <DistanceMeters>10783.04972496</DistanceMeters>
          </Trackpoint>
          <Trackpoint>
            <Time>2022-08-26T22:42:56.000Z</Time>
            <Position>
              <LatitudeDegrees>50.15772365033626556396484375</LatitudeDegrees>
              <LongitudeDegrees>17.0150691457092761993408203125</LongitudeDegrees>
            </Position>
            <AltitudeMeters>659.79998779296875</AltitudeMeters>
            <DistanceMeters>10792.692946787</DistanceMeters>
          </Trackpoint>
          <Trackpoint>
            <Time>2022-08-26T22:42:57.000Z</Time>
            <Position>
              <LatitudeDegrees>50.157711915671825408935546875</LatitudeDegrees>
              <LongitudeDegrees>17.0150553993880748748779296875</LongitudeDegrees>
            </Position>
            <AltitudeMeters>659.5999755859375</AltitudeMeters>
            <DistanceMeters>10794.325084205</DistanceMeters>
          </Trackpoint>
          <Trackpoint>
            <Time>2022-08-26T22:43:04.000Z</Time>
            <Position>
              <LatitudeDegrees>50.15764444135129451751708984375</LatitudeDegrees>
              <LongitudeDegrees>17.0149517990648746490478515625</LongitudeDegrees>
            </Position>
            <AltitudeMeters>658.79998779296875</AltitudeMeters>
            <DistanceMeters>10804.859343051</DistanceMeters>
          </Trackpoint>
          <Trackpoint>
            <Time>2022-08-26T22:43:07.000Z</Time>
            <Position>
              <LatitudeDegrees>50.15761828981339931488037109375</LatitudeDegrees>
              <LongitudeDegrees>17.01490343548357486724853515625</LongitudeDegrees>
            </Position>
            <AltitudeMeters>658.20001220703125</AltitudeMeters>
            <DistanceMeters>10809.370860789</DistanceMeters>
          </Trackpoint>
          <Trackpoint>
            <Time>2022-08-26T22:43:11.000Z</Time>
            <Position>
              <LatitudeDegrees>50.1575823314487934112548828125</LatitudeDegrees>
              <LongitudeDegrees>17.014840655028820037841796875</LongitudeDegrees>
            </Position>
            <AltitudeMeters>657.79998779296875</AltitudeMeters>
            <DistanceMeters>10815.376368704</DistanceMeters>
          </Trackpoint>
          <Trackpoint>
            <Time>2022-08-26T22:43:18.000Z</Time>
            <Position>
              <LatitudeDegrees>50.15751586295664310455322265625</LatitudeDegrees>
              <LongitudeDegrees>17.0147452689707279205322265625</LongitudeDegrees>
            </Position>
            <AltitudeMeters>657</AltitudeMeters>
            <DistanceMeters>10825.426314228</DistanceMeters>
          </Trackpoint>
          <Trackpoint>
            <Time>2022-08-26T22:43:22.000Z</Time>
            <Position>
              <LatitudeDegrees>50.15748367644846439361572265625</LatitudeDegrees>
              <LongitudeDegrees>17.01468936167657375335693359375</LongitudeDegrees>
            </Position>
            <AltitudeMeters>656.79998779296875</AltitudeMeters>
            <DistanceMeters>10830.785854615</DistanceMeters>
          </Trackpoint>
          <Trackpoint>
            <Time>2022-08-26T22:43:28.000Z</Time>
            <Position>
              <LatitudeDegrees>50.1574475504457950592041015625</LatitudeDegrees>
              <LongitudeDegrees>17.01458961702883243560791015625</LongitudeDegrees>
            </Position>
            <AltitudeMeters>656</AltitudeMeters>
            <DistanceMeters>10838.955941829</DistanceMeters>
          </Trackpoint>
          <Trackpoint>
            <Time>2022-08-26T22:43:31.000Z</Time>
            <Position>
              <LatitudeDegrees>50.15742232091724872589111328125</LatitudeDegrees>
              <LongitudeDegrees>17.0145459473133087158203125</LongitudeDegrees>
            </Position>
            <AltitudeMeters>655.4000244140625</AltitudeMeters>
            <DistanceMeters>10843.147901843</DistanceMeters>
          </Trackpoint>
          <Trackpoint>
            <Time>2022-08-26T22:43:36.000Z</Time>
            <Position>
              <LatitudeDegrees>50.15738761983811855316162109375</LatitudeDegrees>
              <LongitudeDegrees>17.01446925289928913116455078125</LongitudeDegrees>
            </Position>
            <AltitudeMeters>655</AltitudeMeters>
            <DistanceMeters>10849.842397297</DistanceMeters>
          </Trackpoint>
          <Trackpoint>
            <Time>2022-08-26T22:43:41.000Z</Time>
            <Position>
              <LatitudeDegrees>50.15734545886516571044921875</LatitudeDegrees>
              <LongitudeDegrees>17.014398761093616485595703125</LongitudeDegrees>
            </Position>
            <AltitudeMeters>654.5999755859375</AltitudeMeters>
            <DistanceMeters>10856.718550311</DistanceMeters>
          </Trackpoint>
          <Trackpoint>
            <Time>2022-08-26T22:43:48.000Z</Time>
            <Position>
              <LatitudeDegrees>50.1572852768003940582275390625</LatitudeDegrees>
              <LongitudeDegrees>17.0142965018749237060546875</LongitudeDegrees>
            </Position>
            <AltitudeMeters>654</AltitudeMeters>
            <DistanceMeters>10866.6204981</DistanceMeters>
          </Trackpoint>
          <Trackpoint>
            <Time>2022-08-26T22:43:52.000Z</Time>
            <Position>
              <LatitudeDegrees>50.15725694596767425537109375</LatitudeDegrees>
              <LongitudeDegrees>17.0142309553921222686767578125</LongitudeDegrees>
            </Position>
            <AltitudeMeters>653.5999755859375</AltitudeMeters>
            <DistanceMeters>10872.258393903</DistanceMeters>
          </Trackpoint>
          <Trackpoint>
            <Time>2022-08-26T22:43:57.000Z</Time>
            <Position>
              <LatitudeDegrees>50.15721981413662433624267578125</LatitudeDegrees>
              <LongitudeDegrees>17.01415476389229297637939453125</LongitudeDegrees>
            </Position>
            <AltitudeMeters>653</AltitudeMeters>
            <DistanceMeters>10879.085783932</DistanceMeters>
          </Trackpoint>
          <Trackpoint>
            <Time>2022-08-26T22:44:00.000Z</Time>
            <Position>
              <LatitudeDegrees>50.15720036812126636505126953125</LatitudeDegrees>
              <LongitudeDegrees>17.01410807669162750244140625</LongitudeDegrees>
            </Position>
            <AltitudeMeters>652.79998779296875</AltitudeMeters>
            <DistanceMeters>10883.057627779</DistanceMeters>
          </Trackpoint>
          <Trackpoint>
            <Time>2022-08-26T22:44:05.000Z</Time>
            <Position>
              <LatitudeDegrees>50.1571558602154254913330078125</LatitudeDegrees>
              <LongitudeDegrees>17.0140291191637516021728515625</LongitudeDegrees>
            </Position>
            <AltitudeMeters>652.20001220703125</AltitudeMeters>
            <DistanceMeters>10890.556915485</DistanceMeters>
          </Trackpoint>
          <Trackpoint>
            <Time>2022-08-26T22:44:09.000Z</Time>
            <Position>
              <LatitudeDegrees>50.15712283551692962646484375</LatitudeDegrees>
              <LongitudeDegrees>17.01396726071834564208984375</LongitudeDegrees>
            </Position>
            <AltitudeMeters>651.5999755859375</AltitudeMeters>
            <DistanceMeters>10896.299548955</DistanceMeters>
          </Trackpoint>
          <Trackpoint>
            <Time>2022-08-26T22:44:13.000Z</Time>
            <Position>
              <LatitudeDegrees>50.1570891402661800384521484375</LatitudeDegrees>
              <LongitudeDegrees>17.01390967704355716705322265625</LongitudeDegrees>
            </Position>
            <AltitudeMeters>651</AltitudeMeters>
            <DistanceMeters>10901.86165664</DistanceMeters>
          </Trackpoint>
          <Trackpoint>
            <Time>2022-08-26T22:44:16.000Z</Time>
            <Position>
              <LatitudeDegrees>50.15706508420407772064208984375</LatitudeDegrees>
              <LongitudeDegrees>17.01386407949030399322509765625</LongitudeDegrees>
            </Position>
            <AltitudeMeters>650.5999755859375</AltitudeMeters>
            <DistanceMeters>10906.072959305</DistanceMeters>
          </Trackpoint>
          <Trackpoint>
            <Time>2022-08-26T22:44:20.000Z</Time>
            <Position>
              <LatitudeDegrees>50.15703440643846988677978515625</LatitudeDegrees>
              <LongitudeDegrees>17.01380691491067409515380859375</LongitudeDegrees>
            </Position>
            <AltitudeMeters>650.20001220703125</AltitudeMeters>
            <DistanceMeters>10911.390211353</DistanceMeters>
          </Trackpoint>
          <Trackpoint>
            <Time>2022-08-26T22:44:26.000Z</Time>
            <Position>
              <LatitudeDegrees>50.1569934189319610595703125</LatitudeDegrees>
              <LongitudeDegrees>17.0137290470302104949951171875</LongitudeDegrees>
            </Position>
            <AltitudeMeters>649.5999755859375</AltitudeMeters>
            <DistanceMeters>10918.576518275</DistanceMeters>
          </Trackpoint>
          <Trackpoint>
            <Time>2022-08-26T22:44:28.000Z</Time>
            <Position>
              <LatitudeDegrees>50.1569815166294574737548828125</LatitudeDegrees>
              <LongitudeDegrees>17.01369778253138065338134765625</LongitudeDegrees>
            </Position>
            <AltitudeMeters>649.4000244140625</AltitudeMeters>
            <DistanceMeters>10921.168501469</DistanceMeters>
          </Trackpoint>
          <Trackpoint>
            <Time>2022-08-26T22:44:35.000Z</Time>
            <Position>
              <LatitudeDegrees>50.15693600289523601531982421875</LatitudeDegrees>
              <LongitudeDegrees>17.01357163488864898681640625</LongitudeDegrees>
            </Position>
            <AltitudeMeters>648.79998779296875</AltitudeMeters>
            <DistanceMeters>10931.491919614</DistanceMeters>
          </Trackpoint>
          <Trackpoint>
            <Time>2022-08-26T22:44:36.000Z</Time>
            <Position>
              <LatitudeDegrees>50.1569295488297939300537109375</LatitudeDegrees>
              <LongitudeDegrees>17.01355244033038616180419921875</LongitudeDegrees>
            </Position>
            <AltitudeMeters>648.5999755859375</AltitudeMeters>
            <DistanceMeters>10933.041758423</DistanceMeters>
          </Trackpoint>
          <Trackpoint>
            <Time>2022-08-26T22:44:40.000Z</Time>
            <Position>
              <LatitudeDegrees>50.15690825879573822021484375</LatitudeDegrees>
              <LongitudeDegrees>17.01348320581018924713134765625</LongitudeDegrees>
            </Position>
            <AltitudeMeters>648.20001220703125</AltitudeMeters>
            <DistanceMeters>10938.518793565</DistanceMeters>
          </Trackpoint>
          <Trackpoint>
            <Time>2022-08-26T22:44:44.000Z</Time>
            <Position>
              <LatitudeDegrees>50.15688420273363590240478515625</LatitudeDegrees>
              <LongitudeDegrees>17.0134189166128635406494140625</LongitudeDegrees>
            </Position>
            <AltitudeMeters>647.79998779296875</AltitudeMeters>
            <DistanceMeters>10943.826696965</DistanceMeters>
          </Trackpoint>
          <Trackpoint>
            <Time>2022-08-26T22:44:46.000Z</Time>
            <Position>
              <LatitudeDegrees>50.15686810947954654693603515625</LatitudeDegrees>
              <LongitudeDegrees>17.01338849030435085296630859375</LongitudeDegrees>
            </Position>
            <AltitudeMeters>647.5999755859375</AltitudeMeters>
            <DistanceMeters>10946.639230869</DistanceMeters>
          </Trackpoint>
          <Trackpoint>
            <Time>2022-08-26T22:44:53.000Z</Time>
            <Position>
              <LatitudeDegrees>50.15681647695600986480712890625</LatitudeDegrees>
              <LongitudeDegrees>17.01329830102622509002685546875</LongitudeDegrees>
            </Position>
            <AltitudeMeters>647</AltitudeMeters>
            <DistanceMeters>10955.263657788</DistanceMeters>
          </Trackpoint>
          <Trackpoint>
            <Time>2022-08-26T22:44:57.000Z</Time>
            <Position>
              <LatitudeDegrees>50.1567873917520046234130859375</LatitudeDegrees>
              <LongitudeDegrees>17.01323635876178741455078125</LongitudeDegrees>
            </Position>
            <AltitudeMeters>646.5999755859375</AltitudeMeters>
            <DistanceMeters>10960.74069293</DistanceMeters>
          </Trackpoint>
          <Trackpoint>
            <Time>2022-08-26T22:45:02.000Z</Time>
            <Position>
              <LatitudeDegrees>50.1567491702735424041748046875</LatitudeDegrees>
              <LongitudeDegrees>17.01316905207931995391845703125</LongitudeDegrees>
            </Position>
            <AltitudeMeters>646</AltitudeMeters>
            <DistanceMeters>10967.154116212</DistanceMeters>
          </Trackpoint>
          <Trackpoint>
            <Time>2022-08-26T22:45:03.000Z</Time>
            <Position>
              <LatitudeDegrees>50.1567444764077663421630859375</LatitudeDegrees>
              <LongitudeDegrees>17.01315597631037235260009765625</LongitudeDegrees>
            </Position>
            <AltitudeMeters>645.79998779296875</AltitudeMeters>
            <DistanceMeters>10968.220788436</DistanceMeters>
          </Trackpoint>
          <Trackpoint>
            <Time>2022-08-26T22:45:06.000Z</Time>
            <Position>
              <LatitudeDegrees>50.156722851097583770751953125</LatitudeDegrees>
              <LongitudeDegrees>17.01312295161187648773193359375</LongitudeDegrees>
            </Position>
            <AltitudeMeters>645.5999755859375</AltitudeMeters>
            <DistanceMeters>10971.587202839</DistanceMeters>
          </Trackpoint>
          <Trackpoint>
            <Time>2022-08-26T22:45:07.000Z</Time>
            <Position>
              <LatitudeDegrees>50.156716145575046539306640625</LatitudeDegrees>
              <LongitudeDegrees>17.01311004348099231719970703125</LongitudeDegrees>
            </Position>
            <AltitudeMeters>645.4000244140625</AltitudeMeters>
            <DistanceMeters>10972.774086121</DistanceMeters>
          </Trackpoint>
          <Trackpoint>
            <Time>2022-08-26T22:45:14.000Z</Time>
            <Position>
              <LatitudeDegrees>50.1566740684211254119873046875</LatitudeDegrees>
              <LongitudeDegrees>17.01300728134810924530029296875</LongitudeDegrees>
            </Position>
            <AltitudeMeters>645</AltitudeMeters>
            <DistanceMeters>10981.470977537</DistanceMeters>
          </Trackpoint>
          <Trackpoint>
            <Time>2022-08-26T22:45:16.000Z</Time>
            <Position>
              <LatitudeDegrees>50.15666023828089237213134765625</LatitudeDegrees>
              <LongitudeDegrees>17.01297928579151630401611328125</LongitudeDegrees>
            </Position>
            <AltitudeMeters>644.5999755859375</AltitudeMeters>
            <DistanceMeters>10983.99232119</DistanceMeters>
          </Trackpoint>
          <Trackpoint>
            <Time>2022-08-26T22:45:21.000Z</Time>
            <Position>
              <LatitudeDegrees>50.15663509257137775421142578125</LatitudeDegrees>
              <LongitudeDegrees>17.01290510594844818115234375</LongitudeDegrees>
            </Position>
            <AltitudeMeters>644.20001220703125</AltitudeMeters>
            <DistanceMeters>10989.976741227</DistanceMeters>
          </Trackpoint>
          <Trackpoint>
            <Time>2022-08-26T22:45:22.000Z</Time>
            <Position>
              <LatitudeDegrees>50.15663492493331432342529296875</LatitudeDegrees>
              <LongitudeDegrees>17.01288742013275623321533203125</LongitudeDegrees>
            </Position>
            <AltitudeMeters>644</AltitudeMeters>
            <DistanceMeters>10991.233826497</DistanceMeters>
          </Trackpoint>
          <Trackpoint>
            <Time>2022-08-26T22:45:25.000Z</Time>
            <Position>
              <LatitudeDegrees>50.15663106925785541534423828125</LatitudeDegrees>
              <LongitudeDegrees>17.01283402740955352783203125</LongitudeDegrees>
            </Position>
            <AltitudeMeters>643.5999755859375</AltitudeMeters>
            <DistanceMeters>10995.065654299</DistanceMeters>
          </Trackpoint>
          <Trackpoint>
            <Time>2022-08-26T22:45:30.000Z</Time>
            <Position>
              <LatitudeDegrees>50.1565835438668727874755859375</LatitudeDegrees>
              <LongitudeDegrees>17.01276185922324657440185546875</LongitudeDegrees>
            </Position>
            <AltitudeMeters>643</AltitudeMeters>
            <DistanceMeters>11002.445382683</DistanceMeters>
          </Trackpoint>
          <Trackpoint>
            <Time>2022-08-26T22:45:35.000Z</Time>
            <Position>
              <LatitudeDegrees>50.15656485222280025482177734375</LatitudeDegrees>
              <LongitudeDegrees>17.0126782916486263275146484375</LongitudeDegrees>
            </Position>
            <AltitudeMeters>642.79998779296875</AltitudeMeters>
            <DistanceMeters>11008.758046729</DistanceMeters>
          </Trackpoint>
          <Trackpoint>
            <Time>2022-08-26T22:45:38.000Z</Time>
            <Position>
              <LatitudeDegrees>50.1565302349627017974853515625</LatitudeDegrees>
              <LongitudeDegrees>17.0126414112746715545654296875</LongitudeDegrees>
            </Position>
            <AltitudeMeters>642.4000244140625</AltitudeMeters>
            <DistanceMeters>11013.423074513</DistanceMeters>
          </Trackpoint>
          <Trackpoint>
            <Time>2022-08-26T22:45:45.000Z</Time>
            <Position>
              <LatitudeDegrees>50.15645898878574371337890625</LatitudeDegrees>
              <LongitudeDegrees>17.01253621838986873626708984375</LongitudeDegrees>
            </Position>
            <AltitudeMeters>641.79998779296875</AltitudeMeters>
            <DistanceMeters>11024.33874484</DistanceMeters>
          </Trackpoint>
          <Trackpoint>
            <Time>2022-08-26T22:45:46.000Z</Time>
            <Position>
              <LatitudeDegrees>50.156453289091587066650390625</LatitudeDegrees>
              <LongitudeDegrees>17.012521214783191680908203125</LongitudeDegrees>
            </Position>
            <AltitudeMeters>641.79998779296875</AltitudeMeters>
            <DistanceMeters>11025.585008515</DistanceMeters>
          </Trackpoint>
          <Trackpoint>
            <Time>2022-08-26T22:45:54.000Z</Time>
            <Position>
              <LatitudeDegrees>50.1563967950642108917236328125</LatitudeDegrees>
              <LongitudeDegrees>17.012411244213581085205078125</LongitudeDegrees>
            </Position>
            <AltitudeMeters>640.5999755859375</AltitudeMeters>
            <DistanceMeters>11035.636301728</DistanceMeters>
          </Trackpoint>
          <Trackpoint>
            <Time>2022-08-26T22:46:04.000Z</Time>
            <Position>
              <LatitudeDegrees>50.15631406567990779876708984375</LatitudeDegrees>
              <LongitudeDegrees>17.012246958911418914794921875</LongitudeDegrees>
            </Position>
            <AltitudeMeters>639.4000244140625</AltitudeMeters>
            <DistanceMeters>11050.537023845</DistanceMeters>
          </Trackpoint>
          <Trackpoint>
            <Time>2022-08-26T22:46:14.000Z</Time>
            <Position>
              <LatitudeDegrees>50.15614877454936504364013671875</LatitudeDegrees>
              <LongitudeDegrees>17.0121019519865512847900390625</LongitudeDegrees>
            </Position>
            <AltitudeMeters>638.4000244140625</AltitudeMeters>
            <DistanceMeters>11071.641085785</DistanceMeters>
          </Trackpoint>
          <Trackpoint>
            <Time>2022-08-26T22:46:15.000Z</Time>
            <Position>
              <LatitudeDegrees>50.15613712370395660400390625</LatitudeDegrees>
              <LongitudeDegrees>17.0120871998369693756103515625</LongitudeDegrees>
            </Position>
            <AltitudeMeters>638.20001220703125</AltitudeMeters>
            <DistanceMeters>11073.308797854</DistanceMeters>
          </Trackpoint>
          <Trackpoint>
            <Time>2022-08-26T22:46:21.000Z</Time>
            <Position>
              <LatitudeDegrees>50.1560554839670658111572265625</LatitudeDegrees>
              <LongitudeDegrees>17.0119970105588436126708984375</LongitudeDegrees>
            </Position>
            <AltitudeMeters>637.79998779296875</AltitudeMeters>
            <DistanceMeters>11084.441127759</DistanceMeters>
          </Trackpoint>
          <Trackpoint>
            <Time>2022-08-26T22:46:23.000Z</Time>
            <Position>
              <LatitudeDegrees>50.15603293664753437042236328125</LatitudeDegrees>
              <LongitudeDegrees>17.01197597198188304901123046875</LongitudeDegrees>
            </Position>
            <AltitudeMeters>637.4000244140625</AltitudeMeters>
            <DistanceMeters>11087.363875151</DistanceMeters>
          </Trackpoint>
          <Trackpoint>
            <Time>2022-08-26T22:46:29.000Z</Time>
            <Position>
              <LatitudeDegrees>50.15596588142216205596923828125</LatitudeDegrees>
              <LongitudeDegrees>17.01189299114048480987548828125</LongitudeDegrees>
            </Position>
            <AltitudeMeters>637.20001220703125</AltitudeMeters>
            <DistanceMeters>11096.888377655</DistanceMeters>
          </Trackpoint>
          <Trackpoint>
            <Time>2022-08-26T22:46:35.000Z</Time>
            <Position>
              <LatitudeDegrees>50.1559364609420299530029296875</LatitudeDegrees>
              <LongitudeDegrees>17.01185703277587890625</LongitudeDegrees>
            </Position>
            <AltitudeMeters>636.4000244140625</AltitudeMeters>
            <DistanceMeters>11101.045728532</DistanceMeters>
          </Trackpoint>
          <Trackpoint>
            <Time>2022-08-26T22:46:37.000Z</Time>
            <Position>
              <LatitudeDegrees>50.1559210382401943206787109375</LatitudeDegrees>
              <LongitudeDegrees>17.01183549128472805023193359375</LongitudeDegrees>
            </Position>
            <AltitudeMeters>636.4000244140625</AltitudeMeters>
            <DistanceMeters>11103.346081721</DistanceMeters>
          </Trackpoint>
          <Trackpoint>
            <Time>2022-08-26T22:46:45.000Z</Time>
            <Position>
              <LatitudeDegrees>50.1558348722755908966064453125</LatitudeDegrees>
              <LongitudeDegrees>17.01171931810677051544189453125</LongitudeDegrees>
            </Position>
            <AltitudeMeters>636</AltitudeMeters>
            <DistanceMeters>11116.019239956</DistanceMeters>
          </Trackpoint>
          <Trackpoint>
            <Time>2022-08-26T22:46:52.000Z</Time>
            <Position>
              <LatitudeDegrees>50.15575247816741466522216796875</LatitudeDegrees>
              <LongitudeDegrees>17.0116325654089450836181640625</LongitudeDegrees>
            </Position>
            <AltitudeMeters>635.5999755859375</AltitudeMeters>
            <DistanceMeters>11127.081590337</DistanceMeters>
          </Trackpoint>
          <Trackpoint>
            <Time>2022-08-26T22:46:53.000Z</Time>
            <Position>
              <LatitudeDegrees>50.1557376421988010406494140625</LatitudeDegrees>
              <LongitudeDegrees>17.01162192039191722869873046875</LongitudeDegrees>
            </Position>
            <AltitudeMeters>635.5999755859375</AltitudeMeters>
            <DistanceMeters>11128.897073166</DistanceMeters>
          </Trackpoint>
          <Trackpoint>
            <Time>2022-08-26T22:47:01.000Z</Time>
            <Position>
              <LatitudeDegrees>50.15566463582217693328857421875</LatitudeDegrees>
              <LongitudeDegrees>17.01152510941028594970703125</LongitudeDegrees>
            </Position>
            <AltitudeMeters>635</AltitudeMeters>
            <DistanceMeters>11139.559561733</DistanceMeters>
          </Trackpoint>
          <Trackpoint>
            <Time>2022-08-26T22:47:05.000Z</Time>
            <Position>
              <LatitudeDegrees>50.15563580207526683807373046875</LatitudeDegrees>
              <LongitudeDegrees>17.011474482715129852294921875</LongitudeDegrees>
            </Position>
            <AltitudeMeters>634.5999755859375</AltitudeMeters>
            <DistanceMeters>11144.390060416</DistanceMeters>
          </Trackpoint>
          <Trackpoint>
            <Time>2022-08-26T22:47:11.000Z</Time>
            <Position>
              <LatitudeDegrees>50.15561115927994251251220703125</LatitudeDegrees>
              <LongitudeDegrees>17.01138370670378208160400390625</LongitudeDegrees>
            </Position>
            <AltitudeMeters>634.20001220703125</AltitudeMeters>
            <DistanceMeters>11151.420753018</DistanceMeters>
          </Trackpoint>
          <Trackpoint>
            <Time>2022-08-26T22:47:18.000Z</Time>
            <Position>
              <LatitudeDegrees>50.15556514263153076171875</LatitudeDegrees>
              <LongitudeDegrees>17.011303491890430450439453125</LongitudeDegrees>
            </Position>
            <AltitudeMeters>633.5999755859375</AltitudeMeters>
            <DistanceMeters>11159.098535186</DistanceMeters>
          </Trackpoint>
          <Trackpoint>
            <Time>2022-08-26T22:47:19.000Z</Time>
            <Position>
              <LatitudeDegrees>50.15556220896542072296142578125</LatitudeDegrees>
              <LongitudeDegrees>17.01128907501697540283203125</LongitudeDegrees>
            </Position>
            <AltitudeMeters>633.5999755859375</AltitudeMeters>
            <DistanceMeters>11160.182006431</DistanceMeters>
          </Trackpoint>
          <Trackpoint>
            <Time>2022-08-26T22:47:27.000Z</Time>
            <Position>
              <LatitudeDegrees>50.1555150188505649566650390625</LatitudeDegrees>
              <LongitudeDegrees>17.01120031066238880157470703125</LongitudeDegrees>
            </Position>
            <AltitudeMeters>633</AltitudeMeters>
            <DistanceMeters>11168.408268818</DistanceMeters>
          </Trackpoint>
          <Trackpoint>
            <Time>2022-08-26T22:47:31.000Z</Time>
            <Position>
              <LatitudeDegrees>50.15549029223620891571044921875</LatitudeDegrees>
              <LongitudeDegrees>17.01115370728075504302978515625</LongitudeDegrees>
            </Position>
            <AltitudeMeters>632.79998779296875</AltitudeMeters>
            <DistanceMeters>11172.724406873</DistanceMeters>
          </Trackpoint>
          <Trackpoint>
            <Time>2022-08-26T22:47:36.000Z</Time>
            <Position>
              <LatitudeDegrees>50.1554630510509014129638671875</LatitudeDegrees>
              <LongitudeDegrees>17.01108916662633419036865234375</LongitudeDegrees>
            </Position>
            <AltitudeMeters>632.4000244140625</AltitudeMeters>
            <DistanceMeters>11178.235956306</DistanceMeters>
          </Trackpoint>
          <Trackpoint>
            <Time>2022-08-26T22:47:42.000Z</Time>
            <Position>
              <LatitudeDegrees>50.15542843379080295562744140625</LatitudeDegrees>
              <LongitudeDegrees>17.01101507060229778289794921875</LongitudeDegrees>
            </Position>
            <AltitudeMeters>631.79998779296875</AltitudeMeters>
            <DistanceMeters>11184.775561955</DistanceMeters>
          </Trackpoint>
          <Trackpoint>
            <Time>2022-08-26T22:47:44.000Z</Time>
            <Position>
              <LatitudeDegrees>50.15541669912636280059814453125</LatitudeDegrees>
              <LongitudeDegrees>17.01098891906440258026123046875</LongitudeDegrees>
            </Position>
            <AltitudeMeters>631.5999755859375</AltitudeMeters>
            <DistanceMeters>11187.05224021</DistanceMeters>
          </Trackpoint>
          <Trackpoint>
            <Time>2022-08-26T22:47:51.000Z</Time>
            <Position>
              <LatitudeDegrees>50.15539205633103847503662109375</LatitudeDegrees>
              <LongitudeDegrees>17.01089370064437389373779296875</LongitudeDegrees>
            </Position>
            <AltitudeMeters>631.20001220703125</AltitudeMeters>
            <DistanceMeters>11194.37484862</DistanceMeters>
          </Trackpoint>
          <Trackpoint>
            <Time>2022-08-26T22:47:54.000Z</Time>
            <Position>
              <LatitudeDegrees>50.1553718559443950653076171875</LatitudeDegrees>
              <LongitudeDegrees>17.0108594186604022979736328125</LongitudeDegrees>
            </Position>
            <AltitudeMeters>630.79998779296875</AltitudeMeters>
            <DistanceMeters>11197.696708553</DistanceMeters>
          </Trackpoint>
          <Trackpoint>
            <Time>2022-08-26T22:47:59.000Z</Time>
            <Position>
              <LatitudeDegrees>50.15528124757111072540283203125</LatitudeDegrees>
              <LongitudeDegrees>17.01080719940364360809326171875</LongitudeDegrees>
            </Position>
            <AltitudeMeters>630.5999755859375</AltitudeMeters>
            <DistanceMeters>11208.447754013</DistanceMeters>
          </Trackpoint>
          <Trackpoint>
            <Time>2022-08-26T22:48:00.000Z</Time>
            <Position>
              <LatitudeDegrees>50.15527169220149517059326171875</LatitudeDegrees>
              <LongitudeDegrees>17.0107997395098209381103515625</LongitudeDegrees>
            </Position>
            <AltitudeMeters>630.5999755859375</AltitudeMeters>
            <DistanceMeters>11209.634637295</DistanceMeters>
          </Trackpoint>
          <Trackpoint>
            <Time>2022-08-26T22:48:08.000Z</Time>
            <Position>
              <LatitudeDegrees>50.155192650854587554931640625</LatitudeDegrees>
              <LongitudeDegrees>17.0107279904186725616455078125</LongitudeDegrees>
            </Position>
            <AltitudeMeters>630</AltitudeMeters>
            <DistanceMeters>11219.811372859</DistanceMeters>
          </Trackpoint>
          <Trackpoint>
            <Time>2022-08-26T22:48:16.000Z</Time>
            <Position>
              <LatitudeDegrees>50.1551351509988307952880859375</LatitudeDegrees>
              <LongitudeDegrees>17.010641656816005706787109375</LongitudeDegrees>
            </Position>
            <AltitudeMeters>629.79998779296875</AltitudeMeters>
            <DistanceMeters>11228.691160441</DistanceMeters>
          </Trackpoint>
          <Trackpoint>
            <Time>2022-08-26T22:48:19.000Z</Time>
            <Position>
              <LatitudeDegrees>50.1551140286028385162353515625</LatitudeDegrees>
              <LongitudeDegrees>17.0106062851846218109130859375</LongitudeDegrees>
            </Position>
            <AltitudeMeters>629.4000244140625</AltitudeMeters>
            <DistanceMeters>11232.138417409</DistanceMeters>
          </Trackpoint>
          <Trackpoint>
            <Time>2022-08-26T22:48:27.000Z</Time>
            <Position>
              <LatitudeDegrees>50.1550580374896526336669921875</LatitudeDegrees>
              <LongitudeDegrees>17.010505534708499908447265625</LongitudeDegrees>
            </Position>
            <AltitudeMeters>629</AltitudeMeters>
            <DistanceMeters>11241.649162686</DistanceMeters>
          </Trackpoint>
          <Trackpoint>
            <Time>2022-08-26T22:48:39.000Z</Time>
            <Position>
              <LatitudeDegrees>50.15494278632104396820068359375</LatitudeDegrees>
              <LongitudeDegrees>17.01038022525608539581298828125</LongitudeDegrees>
            </Position>
            <AltitudeMeters>628.4000244140625</AltitudeMeters>
            <DistanceMeters>11257.282717913</DistanceMeters>
          </Trackpoint>
          <Trackpoint>
            <Time>2022-08-26T22:48:40.000Z</Time>
            <Position>
              <LatitudeDegrees>50.154935829341411590576171875</LatitudeDegrees>
              <LongitudeDegrees>17.01037217862904071807861328125</LongitudeDegrees>
            </Position>
            <AltitudeMeters>628.4000244140625</AltitudeMeters>
            <DistanceMeters>11258.247133733</DistanceMeters>
          </Trackpoint>
          <Trackpoint>
            <Time>2022-08-26T22:48:53.000Z</Time>
            <Position>
              <LatitudeDegrees>50.1547013036906719207763671875</LatitudeDegrees>
              <LongitudeDegrees>17.0102391578257083892822265625</LongitudeDegrees>
            </Position>
            <AltitudeMeters>627.5999755859375</AltitudeMeters>
            <DistanceMeters>11286.020631712</DistanceMeters>
          </Trackpoint>
          <Trackpoint>
            <Time>2022-08-26T22:48:59.000Z</Time>
            <Position>
              <LatitudeDegrees>50.154661238193511962890625</LatitudeDegrees>
              <LongitudeDegrees>17.01016246341168880462646484375</LongitudeDegrees>
            </Position>
            <AltitudeMeters>627.4000244140625</AltitudeMeters>
            <DistanceMeters>11293.076965145</DistanceMeters>
          </Trackpoint>
          <Trackpoint>
            <Time>2022-08-26T22:49:06.000Z</Time>
            <Position>
              <LatitudeDegrees>50.15457415021955966949462890625</LatitudeDegrees>
              <LongitudeDegrees>17.0100963301956653594970703125</LongitudeDegrees>
            </Position>
            <AltitudeMeters>626.5999755859375</AltitudeMeters>
            <DistanceMeters>11303.856530242</DistanceMeters>
          </Trackpoint>
          <Trackpoint>
            <Time>2022-08-26T22:49:09.000Z</Time>
            <Position>
              <LatitudeDegrees>50.1545343361794948577880859375</LatitudeDegrees>
              <LongitudeDegrees>17.0100701786577701568603515625</LongitudeDegrees>
            </Position>
            <AltitudeMeters>626.4000244140625</AltitudeMeters>
            <DistanceMeters>11308.664543938</DistanceMeters>
          </Trackpoint>
          <Trackpoint>
            <Time>2022-08-26T22:49:20.000Z</Time>
            <Position>
              <LatitudeDegrees>50.15426066704094409942626953125</LatitudeDegrees>
              <LongitudeDegrees>17.0099397562444210052490234375</LongitudeDegrees>
            </Position>
            <AltitudeMeters>626</AltitudeMeters>
            <DistanceMeters>11340.512814953</DistanceMeters>
          </Trackpoint>
          <Trackpoint>
            <Time>2022-08-26T22:49:31.000Z</Time>
            <Position>
              <LatitudeDegrees>50.15407056547701358795166015625</LatitudeDegrees>
              <LongitudeDegrees>17.00983188115060329437255859375</LongitudeDegrees>
            </Position>
            <AltitudeMeters>625.79998779296875</AltitudeMeters>
            <DistanceMeters>11363.026727339</DistanceMeters>
          </Trackpoint>
          <Trackpoint>
            <Time>2022-08-26T22:49:37.000Z</Time>
            <Position>
              <LatitudeDegrees>50.1539947092533111572265625</LatitudeDegrees>
              <LongitudeDegrees>17.009789384901523590087890625</LongitudeDegrees>
            </Position>
            <AltitudeMeters>625.4000244140625</AltitudeMeters>
            <DistanceMeters>11371.997067979</DistanceMeters>
          </Trackpoint>
          <Trackpoint>
            <Time>2022-08-26T22:49:38.000Z</Time>
            <Position>
              <LatitudeDegrees>50.15398196876049041748046875</LatitudeDegrees>
              <LongitudeDegrees>17.00978242792189121246337890625</LongitudeDegrees>
            </Position>
            <AltitudeMeters>625.4000244140625</AltitudeMeters>
            <DistanceMeters>11373.496564239</DistanceMeters>
          </Trackpoint>
          <Trackpoint>
            <Time>2022-08-26T22:49:46.000Z</Time>
            <Position>
              <LatitudeDegrees>50.153861604630947113037109375</LatitudeDegrees>
              <LongitudeDegrees>17.00972543098032474517822265625</LongitudeDegrees>
            </Position>
            <AltitudeMeters>625</AltitudeMeters>
            <DistanceMeters>11387.496163488</DistanceMeters>
          </Trackpoint>
          <Trackpoint>
            <Time>2022-08-26T22:49:55.000Z</Time>
            <Position>
              <LatitudeDegrees>50.15373663045465946197509765625</LatitudeDegrees>
              <LongitudeDegrees>17.009658627212047576904296875</LongitudeDegrees>
            </Position>
            <AltitudeMeters>624.4000244140625</AltitudeMeters>
            <DistanceMeters>11402.198918332</DistanceMeters>
          </Trackpoint>
          <Trackpoint>
            <Time>2022-08-26T22:49:56.000Z</Time>
            <Position>
              <LatitudeDegrees>50.1537243090569972991943359375</LatitudeDegrees>
              <LongitudeDegrees>17.0096524246037006378173828125</LongitudeDegrees>
            </Position>
            <AltitudeMeters>624.4000244140625</AltitudeMeters>
            <DistanceMeters>11403.64006981</DistanceMeters>
          </Trackpoint>
          <Trackpoint>
            <Time>2022-08-26T22:50:02.000Z</Time>
            <Position>
              <LatitudeDegrees>50.15364392660558223724365234375</LatitudeDegrees>
              <LongitudeDegrees>17.0096101798117160797119140625</LongitudeDegrees>
            </Position>
            <AltitudeMeters>624</AltitudeMeters>
            <DistanceMeters>11413.080293559</DistanceMeters>
          </Trackpoint>
          <Trackpoint>
            <Time>2022-08-26T22:50:10.000Z</Time>
            <Position>
              <LatitudeDegrees>50.15352071262896060943603515625</LatitudeDegrees>
              <LongitudeDegrees>17.00953382067382335662841796875</LongitudeDegrees>
            </Position>
            <AltitudeMeters>623.4000244140625</AltitudeMeters>
            <DistanceMeters>11427.836078974</DistanceMeters>
          </Trackpoint>
          <Trackpoint>
            <Time>2022-08-26T22:50:12.000Z</Time>
            <Position>
              <LatitudeDegrees>50.1534953154623508453369140625</LatitudeDegrees>
              <LongitudeDegrees>17.0095179788768291473388671875</LongitudeDegrees>
            </Position>
            <AltitudeMeters>623.4000244140625</AltitudeMeters>
            <DistanceMeters>11430.87990197</DistanceMeters>
          </Trackpoint>
          <Trackpoint>
            <Time>2022-08-26T22:50:19.000Z</Time>
            <Position>
              <LatitudeDegrees>50.153398253023624420166015625</LatitudeDegrees>
              <LongitudeDegrees>17.00946249067783355712890625</LongitudeDegrees>
            </Position>
            <AltitudeMeters>623</AltitudeMeters>
            <DistanceMeters>11442.384807902</DistanceMeters>
          </Trackpoint>
          <Trackpoint>
            <Time>2022-08-26T22:50:27.000Z</Time>
            <Position>
              <LatitudeDegrees>50.153307057917118072509765625</LatitudeDegrees>
              <LongitudeDegrees>17.00938009656965732574462890625</LongitudeDegrees>
            </Position>
            <AltitudeMeters>622.5999755859375</AltitudeMeters>
            <DistanceMeters>11454.112813888</DistanceMeters>
          </Trackpoint>
          <Trackpoint>
            <Time>2022-08-26T22:50:34.000Z</Time>
            <Position>
              <LatitudeDegrees>50.1532562635838985443115234375</LatitudeDegrees>
              <LongitudeDegrees>17.00927817262709140777587890625</LongitudeDegrees>
            </Position>
            <AltitudeMeters>622.4000244140625</AltitudeMeters>
            <DistanceMeters>11463.321584049</DistanceMeters>
          </Trackpoint>
          <Trackpoint>
            <Time>2022-08-26T22:50:35.000Z</Time>
            <Position>
              <LatitudeDegrees>50.15324478037655353546142578125</LatitudeDegrees>
              <LongitudeDegrees>17.00926559977233409881591796875</LongitudeDegrees>
            </Position>
            <AltitudeMeters>622.5999755859375</AltitudeMeters>
            <DistanceMeters>11464.8830323</DistanceMeters>
          </Trackpoint>
          <Trackpoint>
            <Time>2022-08-26T22:50:41.000Z</Time>
            <Position>
              <LatitudeDegrees>50.1531768031418323516845703125</LatitudeDegrees>
              <LongitudeDegrees>17.009220421314239501953125</LongitudeDegrees>
            </Position>
            <AltitudeMeters>622.4000244140625</AltitudeMeters>
            <DistanceMeters>11473.106000889</DistanceMeters>
          </Trackpoint>
          <Trackpoint>
            <Time>2022-08-26T22:50:52.000Z</Time>
            <Position>
              <LatitudeDegrees>50.153044201433658599853515625</LatitudeDegrees>
              <LongitudeDegrees>17.0091508515179157257080078125</LongitudeDegrees>
            </Position>
            <AltitudeMeters>621.79998779296875</AltitudeMeters>
            <DistanceMeters>11488.676469487</DistanceMeters>
          </Trackpoint>
          <Trackpoint>
            <Time>2022-08-26T22:50:56.000Z</Time>
            <Position>
              <LatitudeDegrees>50.15299986116588115692138671875</LatitudeDegrees>
              <LongitudeDegrees>17.0091156475245952606201171875</LongitudeDegrees>
            </Position>
            <AltitudeMeters>621.4000244140625</AltitudeMeters>
            <DistanceMeters>11494.21417114</DistanceMeters>
          </Trackpoint>
          <Trackpoint>
            <Time>2022-08-26T22:50:59.000Z</Time>
            <Position>
              <LatitudeDegrees>50.1529749669134616851806640625</LatitudeDegrees>
              <LongitudeDegrees>17.00907533057034015655517578125</LongitudeDegrees>
            </Position>
            <AltitudeMeters>621.20001220703125</AltitudeMeters>
            <DistanceMeters>11498.206424254</DistanceMeters>
          </Trackpoint>
          <Trackpoint>
            <Time>2022-08-26T22:51:04.000Z</Time>
            <Position>
              <LatitudeDegrees>50.1529478095471858978271484375</LatitudeDegrees>
              <LongitudeDegrees>17.008998803794384002685546875</LongitudeDegrees>
            </Position>
            <AltitudeMeters>621</AltitudeMeters>
            <DistanceMeters>11504.444984142</DistanceMeters>
          </Trackpoint>
          <Trackpoint>
            <Time>2022-08-26T22:51:06.000Z</Time>
            <Position>
              <LatitudeDegrees>50.1529400981962680816650390625</LatitudeDegrees>
              <LongitudeDegrees>17.0089651085436344146728515625</LongitudeDegrees>
            </Position>
            <AltitudeMeters>621</AltitudeMeters>
            <DistanceMeters>11506.996588562</DistanceMeters>
          </Trackpoint>
          <Trackpoint>
            <Time>2022-08-26T22:51:15.000Z</Time>
            <Position>
              <LatitudeDegrees>50.1528955064713954925537109375</LatitudeDegrees>
              <LongitudeDegrees>17.0088212750852108001708984375</LongitudeDegrees>
            </Position>
            <AltitudeMeters>621</AltitudeMeters>
            <DistanceMeters>11518.391872642</DistanceMeters>
          </Trackpoint>
          <Trackpoint>
            <Time>2022-08-26T22:51:23.000Z</Time>
            <Position>
              <LatitudeDegrees>50.152842700481414794921875</LatitudeDegrees>
              <LongitudeDegrees>17.0087314210832118988037109375</LongitudeDegrees>
            </Position>
            <AltitudeMeters>621.79998779296875</AltitudeMeters>
            <DistanceMeters>11527.087206452</DistanceMeters>
          </Trackpoint>
          <Trackpoint>
            <Time>2022-08-26T22:51:27.000Z</Time>
            <Position>
              <LatitudeDegrees>50.15281478874385356903076171875</LatitudeDegrees>
              <LongitudeDegrees>17.0086826384067535400390625</LongitudeDegrees>
            </Position>
            <AltitudeMeters>622.20001220703125</AltitudeMeters>
            <DistanceMeters>11531.751266288</DistanceMeters>
          </Trackpoint>
          <Trackpoint>
            <Time>2022-08-26T22:51:29.000Z</Time>
            <Position>
              <LatitudeDegrees>50.15279601328074932098388671875</LatitudeDegrees>
              <LongitudeDegrees>17.00866713188588619232177734375</LongitudeDegrees>
            </Position>
            <AltitudeMeters>622.5999755859375</AltitudeMeters>
            <DistanceMeters>11534.115503441</DistanceMeters>
          </Trackpoint>
          <Trackpoint>
            <Time>2022-08-26T22:51:36.000Z</Time>
            <Position>
              <LatitudeDegrees>50.15272744931280612945556640625</LatitudeDegrees>
              <LongitudeDegrees>17.00861147604882717132568359375</LongitudeDegrees>
            </Position>
            <AltitudeMeters>623.5999755859375</AltitudeMeters>
            <DistanceMeters>11542.716864747</DistanceMeters>
          </Trackpoint>
          <Trackpoint>
            <Time>2022-08-26T22:51:37.000Z</Time>
            <Position>
              <LatitudeDegrees>50.1527188159525394439697265625</LatitudeDegrees>
              <LongitudeDegrees>17.0086006633937358856201171875</LongitudeDegrees>
            </Position>
            <AltitudeMeters>623.79998779296875</AltitudeMeters>
            <DistanceMeters>11543.948551737</DistanceMeters>
          </Trackpoint>
          <Trackpoint>
            <Time>2022-08-26T22:51:41.000Z</Time>
            <Position>
              <LatitudeDegrees>50.15268377959728240966796875</LatitudeDegrees>
              <LongitudeDegrees>17.00855188071727752685546875</LongitudeDegrees>
            </Position>
            <AltitudeMeters>624.4000244140625</AltitudeMeters>
            <DistanceMeters>11549.174157077</DistanceMeters>
          </Trackpoint>
          <Trackpoint>
            <Time>2022-08-26T22:51:44.000Z</Time>
            <Position>
              <LatitudeDegrees>50.15266743488609790802001953125</LatitudeDegrees>
              <LongitudeDegrees>17.0085118152201175689697265625</LongitudeDegrees>
            </Position>
            <AltitudeMeters>624.79998779296875</AltitudeMeters>
            <DistanceMeters>11552.560629738</DistanceMeters>
          </Trackpoint>
          <Trackpoint>
            <Time>2022-08-26T22:51:51.000Z</Time>
            <Position>
              <LatitudeDegrees>50.152653940021991729736328125</LatitudeDegrees>
              <LongitudeDegrees>17.0083803869783878326416015625</LongitudeDegrees>
            </Position>
            <AltitudeMeters>625.5999755859375</AltitudeMeters>
            <DistanceMeters>11562.053793747</DistanceMeters>
          </Trackpoint>
          <Trackpoint>
            <Time>2022-08-26T22:51:52.000Z</Time>
            <Position>
              <LatitudeDegrees>50.1526551134884357452392578125</LatitudeDegrees>
              <LongitudeDegrees>17.00836236588656902313232421875</LongitudeDegrees>
            </Position>
            <AltitudeMeters>625.79998779296875</AltitudeMeters>
            <DistanceMeters>11563.349785344</DistanceMeters>
          </Trackpoint>
          <Trackpoint>
            <Time>2022-08-26T22:51:53.000Z</Time>
            <Position>
              <LatitudeDegrees>50.1526554487645626068115234375</LatitudeDegrees>
              <LongitudeDegrees>17.00834694318473339080810546875</LongitudeDegrees>
            </Position>
            <AltitudeMeters>626</AltitudeMeters>
            <DistanceMeters>11564.449799091</DistanceMeters>
          </Trackpoint>
          <Trackpoint>
            <Time>2022-08-26T22:51:59.000Z</Time>
            <Position>
              <LatitudeDegrees>50.15266911126673221588134765625</LatitudeDegrees>
              <LongitudeDegrees>17.0082415826618671417236328125</LongitudeDegrees>
            </Position>
            <AltitudeMeters>626.4000244140625</AltitudeMeters>
            <DistanceMeters>11572.115810929</DistanceMeters>
          </Trackpoint>
          <Trackpoint>
            <Time>2022-08-26T22:52:02.000Z</Time>
            <Position>
              <LatitudeDegrees>50.15268134884536266326904296875</LatitudeDegrees>
              <LongitudeDegrees>17.0081963203847408294677734375</LongitudeDegrees>
            </Position>
            <AltitudeMeters>626.79998779296875</AltitudeMeters>
            <DistanceMeters>11575.620223</DistanceMeters>
          </Trackpoint>
          <Trackpoint>
            <Time>2022-08-26T22:52:05.000Z</Time>
            <Position>
              <LatitudeDegrees>50.15269459225237369537353515625</LatitudeDegrees>
              <LongitudeDegrees>17.00815550051629543304443359375</LongitudeDegrees>
            </Position>
            <AltitudeMeters>626.79998779296875</AltitudeMeters>
            <DistanceMeters>11578.884497836</DistanceMeters>
          </Trackpoint>
          <Trackpoint>
            <Time>2022-08-26T22:52:10.000Z</Time>
            <Position>
              <LatitudeDegrees>50.15271688811480998992919921875</LatitudeDegrees>
              <LongitudeDegrees>17.00809297151863574981689453125</LongitudeDegrees>
            </Position>
            <AltitudeMeters>627.20001220703125</AltitudeMeters>
            <DistanceMeters>11583.987706676</DistanceMeters>
          </Trackpoint>
          <Trackpoint>
            <Time>2022-08-26T22:52:13.000Z</Time>
            <Position>
              <LatitudeDegrees>50.15271688811480998992919921875</LatitudeDegrees>
              <LongitudeDegrees>17.00808123685419559478759765625</LongitudeDegrees>
            </Position>
            <AltitudeMeters>627.4000244140625</AltitudeMeters>
            <DistanceMeters>11584.826959893</DistanceMeters>
          </Trackpoint>
          <Trackpoint>
            <Time>2022-08-26T22:52:21.000Z</Time>
            <Position>
              <LatitudeDegrees>50.15271990559995174407958984375</LatitudeDegrees>
              <LongitudeDegrees>17.0080390758812427520751953125</LongitudeDegrees>
            </Position>
            <AltitudeMeters>627.5999755859375</AltitudeMeters>
            <DistanceMeters>11587.852930401</DistanceMeters>
          </Trackpoint>
          <Trackpoint>
            <Time>2022-08-26T22:52:30.000Z</Time>
            <Position>
              <LatitudeDegrees>50.1527385972440242767333984375</LatitudeDegrees>
              <LongitudeDegrees>17.00796774588525295257568359375</LongitudeDegrees>
            </Position>
            <AltitudeMeters>627.5999755859375</AltitudeMeters>
            <DistanceMeters>11593.348893074</DistanceMeters>
          </Trackpoint>
          <Trackpoint>
            <Time>2022-08-26T22:52:36.000Z</Time>
            <Position>
              <LatitudeDegrees>50.15277363359928131103515625</LatitudeDegrees>
              <LongitudeDegrees>17.0078979246318340301513671875</LongitudeDegrees>
            </Position>
            <AltitudeMeters>628</AltitudeMeters>
            <DistanceMeters>11599.673704427</DistanceMeters>
          </Trackpoint>
          <Trackpoint>
            <Time>2022-08-26T22:52:38.000Z</Time>
            <Position>
              <LatitudeDegrees>50.15278629027307033538818359375</LatitudeDegrees>
              <LongitudeDegrees>17.0078699290752410888671875</LongitudeDegrees>
            </Position>
            <AltitudeMeters>628</AltitudeMeters>
            <DistanceMeters>11602.114984921</DistanceMeters>
          </Trackpoint>
          <Trackpoint>
            <Time>2022-08-26T22:52:43.000Z</Time>
            <Position>
              <LatitudeDegrees>50.15280992724001407623291015625</LatitudeDegrees>
              <LongitudeDegrees>17.0078104175627231597900390625</LongitudeDegrees>
            </Position>
            <AltitudeMeters>628.20001220703125</AltitudeMeters>
            <DistanceMeters>11607.109088558</DistanceMeters>
          </Trackpoint>
          <Trackpoint>
            <Time>2022-08-26T22:52:47.000Z</Time>
            <Position>
              <LatitudeDegrees>50.15283272601664066314697265625</LatitudeDegrees>
              <LongitudeDegrees>17.0077752135694026947021484375</LongitudeDegrees>
            </Position>
            <AltitudeMeters>628.4000244140625</AltitudeMeters>
            <DistanceMeters>11610.679868296</DistanceMeters>
          </Trackpoint>
          <Trackpoint>
            <Time>2022-08-26T22:52:58.000Z</Time>
            <Position>
              <LatitudeDegrees>50.1529005356132984161376953125</LatitudeDegrees>
              <LongitudeDegrees>17.0076789893209934234619140625</LongitudeDegrees>
            </Position>
            <AltitudeMeters>628.4000244140625</AltitudeMeters>
            <DistanceMeters>11620.880976126</DistanceMeters>
          </Trackpoint>
          <Trackpoint>
            <Time>2022-08-26T22:53:09.000Z</Time>
            <Position>
              <LatitudeDegrees>50.1529850251972675323486328125</LatitudeDegrees>
              <LongitudeDegrees>17.007502801716327667236328125</LongitudeDegrees>
            </Position>
            <AltitudeMeters>628</AltitudeMeters>
            <DistanceMeters>11636.575063072</DistanceMeters>
          </Trackpoint>
          <Trackpoint>
            <Time>2022-08-26T22:53:15.000Z</Time>
            <Position>
              <LatitudeDegrees>50.15302785672247409820556640625</LatitudeDegrees>
              <LongitudeDegrees>17.0074580423533916473388671875</LongitudeDegrees>
            </Position>
            <AltitudeMeters>628</AltitudeMeters>
            <DistanceMeters>11642.312977215</DistanceMeters>
          </Trackpoint>
          <Trackpoint>
            <Time>2022-08-26T22:53:19.000Z</Time>
            <Position>
              <LatitudeDegrees>50.15306456945836544036865234375</LatitudeDegrees>
              <LongitudeDegrees>17.0074354112148284912109375</LongitudeDegrees>
            </Position>
            <AltitudeMeters>628</AltitudeMeters>
            <DistanceMeters>11646.705843405</DistanceMeters>
          </Trackpoint>
          <Trackpoint>
            <Time>2022-08-26T22:53:29.000Z</Time>
            <Position>
              <LatitudeDegrees>50.1531338877975940704345703125</LatitudeDegrees>
              <LongitudeDegrees>17.0073386840522289276123046875</LongitudeDegrees>
            </Position>
            <AltitudeMeters>628</AltitudeMeters>
            <DistanceMeters>11657.054597273</DistanceMeters>
          </Trackpoint>
          <Trackpoint>
            <Time>2022-08-26T22:53:41.000Z</Time>
            <Position>
              <LatitudeDegrees>50.1532244123518466949462890625</LatitudeDegrees>
              <LongitudeDegrees>17.0072538591921329498291015625</LongitudeDegrees>
            </Position>
            <AltitudeMeters>627.79998779296875</AltitudeMeters>
            <DistanceMeters>11668.806447729</DistanceMeters>
          </Trackpoint>
          <Trackpoint>
            <Time>2022-08-26T22:53:50.000Z</Time>
            <Position>
              <LatitudeDegrees>50.15330915339291095733642578125</LatitudeDegrees>
              <LongitudeDegrees>17.00718236155807971954345703125</LongitudeDegrees>
            </Position>
            <AltitudeMeters>628</AltitudeMeters>
            <DistanceMeters>11679.528055497</DistanceMeters>
          </Trackpoint>
          <Trackpoint>
            <Time>2022-08-26T22:54:00.000Z</Time>
            <Position>
              <LatitudeDegrees>50.15342750586569309234619140625</LatitudeDegrees>
              <LongitudeDegrees>17.0070262067019939422607421875</LongitudeDegrees>
            </Position>
            <AltitudeMeters>628.4000244140625</AltitudeMeters>
            <DistanceMeters>11696.777432843</DistanceMeters>
          </Trackpoint>
          <Trackpoint>
            <Time>2022-08-26T22:54:09.000Z</Time>
            <Position>
              <LatitudeDegrees>50.1535110734403133392333984375</LatitudeDegrees>
              <LongitudeDegrees>17.0067943632602691650390625</LongitudeDegrees>
            </Position>
            <AltitudeMeters>628.4000244140625</AltitudeMeters>
            <DistanceMeters>11715.748059259</DistanceMeters>
          </Trackpoint>
          <Trackpoint>
            <Time>2022-08-26T22:54:16.000Z</Time>
            <Position>
              <LatitudeDegrees>50.15353295020759105682373046875</LatitudeDegrees>
              <LongitudeDegrees>17.0066151581704616546630859375</LongitudeDegrees>
            </Position>
            <AltitudeMeters>628.5999755859375</AltitudeMeters>
            <DistanceMeters>11728.758045918</DistanceMeters>
          </Trackpoint>
          <Trackpoint>
            <Time>2022-08-26T22:54:24.000Z</Time>
            <Position>
              <LatitudeDegrees>50.15351652167737483978271484375</LatitudeDegrees>
              <LongitudeDegrees>17.00647928752005100250244140625</LongitudeDegrees>
            </Position>
            <AltitudeMeters>628.5999755859375</AltitudeMeters>
            <DistanceMeters>11738.618870586</DistanceMeters>
          </Trackpoint>
          <Trackpoint>
            <Time>2022-08-26T22:54:33.000Z</Time>
            <Position>
              <LatitudeDegrees>50.15348785556852817535400390625</LatitudeDegrees>
              <LongitudeDegrees>17.0063523016870021820068359375</LongitudeDegrees>
            </Position>
            <AltitudeMeters>628.4000244140625</AltitudeMeters>
            <DistanceMeters>11748.220801668</DistanceMeters>
          </Trackpoint>
          <Trackpoint>
            <Time>2022-08-26T22:54:34.000Z</Time>
            <Position>
              <LatitudeDegrees>50.1534805633127689361572265625</LatitudeDegrees>
              <LongitudeDegrees>17.0063378848135471343994140625</LongitudeDegrees>
            </Position>
            <AltitudeMeters>628.4000244140625</AltitudeMeters>
            <DistanceMeters>11749.530654531</DistanceMeters>
          </Trackpoint>
          <Trackpoint>
            <Time>2022-08-26T22:54:41.000Z</Time>
            <Position>
              <LatitudeDegrees>50.15344996936619281768798828125</LatitudeDegrees>
              <LongitudeDegrees>17.0062537305057048797607421875</LongitudeDegrees>
            </Position>
            <AltitudeMeters>629.79998779296875</AltitudeMeters>
            <DistanceMeters>11756.431059816</DistanceMeters>
          </Trackpoint>
          <Trackpoint>
            <Time>2022-08-26T22:54:42.000Z</Time>
            <Position>
              <LatitudeDegrees>50.1534463651478290557861328125</LatitudeDegrees>
              <LongitudeDegrees>17.00624509714543819427490234375</LongitudeDegrees>
            </Position>
            <AltitudeMeters>629.79998779296875</AltitudeMeters>
            <DistanceMeters>11757.16713358</DistanceMeters>
          </Trackpoint>
          <Trackpoint>
            <Time>2022-08-26T22:54:47.000Z</Time>
            <Position>
              <LatitudeDegrees>50.15343152917921543121337890625</LatitudeDegrees>
              <LongitudeDegrees>17.00619849376380443572998046875</LongitudeDegrees>
            </Position>
            <AltitudeMeters>630.79998779296875</AltitudeMeters>
            <DistanceMeters>11760.879261899</DistanceMeters>
          </Trackpoint>
          <Trackpoint>
            <Time>2022-08-26T22:54:52.000Z</Time>
            <Position>
              <LatitudeDegrees>50.1534232310950756072998046875</LatitudeDegrees>
              <LongitudeDegrees>17.0061561651527881622314453125</LongitudeDegrees>
            </Position>
            <AltitudeMeters>631.79998779296875</AltitudeMeters>
            <DistanceMeters>11764.035236284</DistanceMeters>
          </Trackpoint>
          <Trackpoint>
            <Time>2022-08-26T22:54:53.000Z</Time>
            <Position>
              <LatitudeDegrees>50.15342281199991703033447265625</LatitudeDegrees>
              <LongitudeDegrees>17.0061467774212360382080078125</LongitudeDegrees>
            </Position>
            <AltitudeMeters>631.79998779296875</AltitudeMeters>
            <DistanceMeters>11764.707176625</DistanceMeters>
          </Trackpoint>
          <Trackpoint>
            <Time>2022-08-26T22:54:59.000Z</Time>
            <Position>
              <LatitudeDegrees>50.1534141786396503448486328125</LatitudeDegrees>
              <LongitudeDegrees>17.0060934685170650482177734375</LongitudeDegrees>
            </Position>
            <AltitudeMeters>633</AltitudeMeters>
            <DistanceMeters>11768.628684012</DistanceMeters>
          </Trackpoint>
          <Trackpoint>
            <Time>2022-08-26T22:55:03.000Z</Time>
            <Position>
              <LatitudeDegrees>50.1534054614603519439697265625</LatitudeDegrees>
              <LongitudeDegrees>17.00605382211506366729736328125</LongitudeDegrees>
            </Position>
            <AltitudeMeters>633.5999755859375</AltitudeMeters>
            <DistanceMeters>11771.618629777</DistanceMeters>
          </Trackpoint>
          <Trackpoint>
            <Time>2022-08-26T22:55:07.000Z</Time>
            <Position>
              <LatitudeDegrees>50.15339498408138751983642578125</LatitudeDegrees>
              <LongitudeDegrees>17.00601425953209400177001953125</LongitudeDegrees>
            </Position>
            <AltitudeMeters>634.20001220703125</AltitudeMeters>
            <DistanceMeters>11774.671339866</DistanceMeters>
          </Trackpoint>
          <Trackpoint>
            <Time>2022-08-26T22:55:13.000Z</Time>
            <Position>
              <LatitudeDegrees>50.15338660217821598052978515625</LatitudeDegrees>
              <LongitudeDegrees>17.005969919264316558837890625</LongitudeDegrees>
            </Position>
            <AltitudeMeters>635.20001220703125</AltitudeMeters>
            <DistanceMeters>11777.967274023</DistanceMeters>
          </Trackpoint>
          <Trackpoint>
            <Time>2022-08-26T22:55:14.000Z</Time>
            <Position>
              <LatitudeDegrees>50.15338358469307422637939453125</LatitudeDegrees>
              <LongitudeDegrees>17.005961202085018157958984375</LongitudeDegrees>
            </Position>
            <AltitudeMeters>635.4000244140625</AltitudeMeters>
            <DistanceMeters>11778.672010998</DistanceMeters>
          </Trackpoint>
          <Trackpoint>
            <Time>2022-08-26T22:55:19.000Z</Time>
            <Position>
              <LatitudeDegrees>50.15337000600993633270263671875</LatitudeDegrees>
              <LongitudeDegrees>17.00591837055981159210205078125</LongitudeDegrees>
            </Position>
            <AltitudeMeters>636.4000244140625</AltitudeMeters>
            <DistanceMeters>11782.079749002</DistanceMeters>
          </Trackpoint>
          <Trackpoint>
            <Time>2022-08-26T22:55:27.000Z</Time>
            <Position>
              <LatitudeDegrees>50.153345949947834014892578125</LatitudeDegrees>
              <LongitudeDegrees>17.005846537649631500244140625</LongitudeDegrees>
            </Position>
            <AltitudeMeters>637.20001220703125</AltitudeMeters>
            <DistanceMeters>11787.859998378</DistanceMeters>
          </Trackpoint>
          <Trackpoint>
            <Time>2022-08-26T22:55:28.000Z</Time>
            <Position>
              <LatitudeDegrees>50.1533417589962482452392578125</LatitudeDegrees>
              <LongitudeDegrees>17.0058386586606502532958984375</LongitudeDegrees>
            </Position>
            <AltitudeMeters>637.5999755859375</AltitudeMeters>
            <DistanceMeters>11788.596072142</DistanceMeters>
          </Trackpoint>
          <Trackpoint>
            <Time>2022-08-26T22:55:34.000Z</Time>
            <Position>
              <LatitudeDegrees>50.15332943759858608245849609375</LatitudeDegrees>
              <LongitudeDegrees>17.00581527315080165863037109375</LongitudeDegrees>
            </Position>
            <AltitudeMeters>638.5999755859375</AltitudeMeters>
            <DistanceMeters>11790.754664147</DistanceMeters>
          </Trackpoint>
          <Trackpoint>
            <Time>2022-08-26T22:55:36.000Z</Time>
            <Position>
              <LatitudeDegrees>50.1533296890556812286376953125</LatitudeDegrees>
              <LongitudeDegrees>17.00581309385597705841064453125</LongitudeDegrees>
            </Position>
            <AltitudeMeters>639</AltitudeMeters>
            <DistanceMeters>11790.944717576</DistanceMeters>
          </Trackpoint>
          <Trackpoint>
            <Time>2022-08-26T22:55:44.000Z</Time>
            <Position>
              <LatitudeDegrees>50.15331720001995563507080078125</LatitudeDegrees>
              <LongitudeDegrees>17.00578409247100353240966796875</LongitudeDegrees>
            </Position>
            <AltitudeMeters>639.5999755859375</AltitudeMeters>
            <DistanceMeters>11793.437244927</DistanceMeters>
          </Trackpoint>
          <Trackpoint>
            <Time>2022-08-26T22:55:46.000Z</Time>
            <Position>
              <LatitudeDegrees>50.153317786753177642822265625</LatitudeDegrees>
              <LongitudeDegrees>17.00578006915748119354248046875</LongitudeDegrees>
            </Position>
            <AltitudeMeters>639.5999755859375</AltitudeMeters>
            <DistanceMeters>11793.737745783</DistanceMeters>
          </Trackpoint>
          <Trackpoint>
            <Time>2022-08-26T22:55:56.000Z</Time>
            <Position>
              <LatitudeDegrees>50.1532736979424953460693359375</LatitudeDegrees>
              <LongitudeDegrees>17.0056787319481372833251953125</LongitudeDegrees>
            </Position>
            <AltitudeMeters>640.20001220703125</AltitudeMeters>
            <DistanceMeters>11802.472970219</DistanceMeters>
          </Trackpoint>
          <Trackpoint>
            <Time>2022-08-26T22:56:01.000Z</Time>
            <Position>
              <LatitudeDegrees>50.1532468758523464202880859375</LatitudeDegrees>
              <LongitudeDegrees>17.0056244172155857086181640625</LongitudeDegrees>
            </Position>
            <AltitudeMeters>640.79998779296875</AltitudeMeters>
            <DistanceMeters>11807.362923432</DistanceMeters>
          </Trackpoint>
          <Trackpoint>
            <Time>2022-08-26T22:56:06.000Z</Time>
            <Position>
              <LatitudeDegrees>50.15322198159992694854736328125</LatitudeDegrees>
              <LongitudeDegrees>17.00557454489171504974365234375</LongitudeDegrees>
            </Position>
            <AltitudeMeters>641.79998779296875</AltitudeMeters>
            <DistanceMeters>11811.872439165</DistanceMeters>
          </Trackpoint>
          <Trackpoint>
            <Time>2022-08-26T22:56:11.000Z</Time>
            <Position>
              <LatitudeDegrees>50.15320940874516963958740234375</LatitudeDegrees>
              <LongitudeDegrees>17.0055449567735195159912109375</LongitudeDegrees>
            </Position>
            <AltitudeMeters>642.79998779296875</AltitudeMeters>
            <DistanceMeters>11814.404504385</DistanceMeters>
          </Trackpoint>
          <Trackpoint>
            <Time>2022-08-26T22:56:13.000Z</Time>
            <Position>
              <LatitudeDegrees>50.15320354141294956207275390625</LatitudeDegrees>
              <LongitudeDegrees>17.0055318810045719146728515625</LongitudeDegrees>
            </Position>
            <AltitudeMeters>643.4000244140625</AltitudeMeters>
            <DistanceMeters>11815.544824957</DistanceMeters>
          </Trackpoint>
          <Trackpoint>
            <Time>2022-08-26T22:56:18.000Z</Time>
            <Position>
              <LatitudeDegrees>50.1531902141869068145751953125</LatitudeDegrees>
              <LongitudeDegrees>17.0055104233324527740478515625</LongitudeDegrees>
            </Position>
            <AltitudeMeters>644</AltitudeMeters>
            <DistanceMeters>11817.678169404</DistanceMeters>
          </Trackpoint>
          <Trackpoint>
            <Time>2022-08-26T22:56:23.000Z</Time>
            <Position>
              <LatitudeDegrees>50.15320069156587123870849609375</LatitudeDegrees>
              <LongitudeDegrees>17.00550178997218608856201171875</LongitudeDegrees>
            </Position>
            <AltitudeMeters>644.5999755859375</AltitudeMeters>
            <DistanceMeters>11818.994898183</DistanceMeters>
          </Trackpoint>
          <Trackpoint>
            <Time>2022-08-26T22:56:25.000Z</Time>
            <Position>
              <LatitudeDegrees>50.1532016135752201080322265625</LatitudeDegrees>
              <LongitudeDegrees>17.005502544343471527099609375</LongitudeDegrees>
            </Position>
            <AltitudeMeters>645</AltitudeMeters>
            <DistanceMeters>11819.129286251</DistanceMeters>
          </Trackpoint>
          <Trackpoint>
            <Time>2022-08-26T22:56:29.000Z</Time>
            <Position>
              <LatitudeDegrees>50.153196752071380615234375</LatitudeDegrees>
              <LongitudeDegrees>17.00549818575382232666015625</LongitudeDegrees>
            </Position>
            <AltitudeMeters>645.20001220703125</AltitudeMeters>
            <DistanceMeters>11819.759622164</DistanceMeters>
          </Trackpoint>
          <Trackpoint>
            <Time>2022-08-26T22:56:31.000Z</Time>
            <Position>
              <LatitudeDegrees>50.15318040736019611358642578125</LatitudeDegrees>
              <LongitudeDegrees>17.005495838820934295654296875</LongitudeDegrees>
            </Position>
            <AltitudeMeters>645.20001220703125</AltitudeMeters>
            <DistanceMeters>11821.587497511</DistanceMeters>
          </Trackpoint>
          <Trackpoint>
            <Time>2022-08-26T22:56:34.000Z</Time>
            <Position>
              <LatitudeDegrees>50.1531766355037689208984375</LatitudeDegrees>
              <LongitudeDegrees>17.00549189932644367218017578125</LongitudeDegrees>
            </Position>
            <AltitudeMeters>645.20001220703125</AltitudeMeters>
            <DistanceMeters>11822.090331619</DistanceMeters>
          </Trackpoint>
          <Trackpoint>
            <Time>2022-08-26T22:56:48.000Z</Time>
            <Position>
              <LatitudeDegrees>50.153175629675388336181640625</LatitudeDegrees>
              <LongitudeDegrees>17.00549089349806308746337890625</LongitudeDegrees>
            </Position>
            <AltitudeMeters>645</AltitudeMeters>
            <DistanceMeters>11822.224719688</DistanceMeters>
          </Trackpoint>
          <Trackpoint>
            <Time>2022-08-26T22:56:53.000Z</Time>
            <Position>
              <LatitudeDegrees>50.15316121280193328857421875</LatitudeDegrees>
              <LongitudeDegrees>17.00547245331108570098876953125</LongitudeDegrees>
            </Position>
            <AltitudeMeters>645</AltitudeMeters>
            <DistanceMeters>11824.297957828</DistanceMeters>
          </Trackpoint>
          <Trackpoint>
            <Time>2022-08-26T22:57:01.000Z</Time>
            <Position>
              <LatitudeDegrees>50.15312634408473968505859375</LatitudeDegrees>
              <LongitudeDegrees>17.0054460503160953521728515625</LongitudeDegrees>
            </Position>
            <AltitudeMeters>645.20001220703125</AltitudeMeters>
            <DistanceMeters>11828.610956492</DistanceMeters>
          </Trackpoint>
          <Trackpoint>
            <Time>2022-08-26T22:57:08.000Z</Time>
            <Position>
              <LatitudeDegrees>50.15312693081796169281005859375</LatitudeDegrees>
              <LongitudeDegrees>17.00543121434748172760009765625</LongitudeDegrees>
            </Position>
            <AltitudeMeters>646.20001220703125</AltitudeMeters>
            <DistanceMeters>11829.6691292</DistanceMeters>
          </Trackpoint>
          <Trackpoint>
            <Time>2022-08-26T22:57:12.000Z</Time>
            <Position>
              <LatitudeDegrees>50.1531256735324859619140625</LatitudeDegrees>
              <LongitudeDegrees>17.005442194640636444091796875</LongitudeDegrees>
            </Position>
            <AltitudeMeters>646.20001220703125</AltitudeMeters>
            <DistanceMeters>11830.464179733</DistanceMeters>
          </Trackpoint>
          <Trackpoint>
            <Time>2022-08-26T22:57:23.000Z</Time>
            <Position>
              <LatitudeDegrees>50.15313036739826202392578125</LatitudeDegrees>
              <LongitudeDegrees>17.00544898398220539093017578125</LongitudeDegrees>
            </Position>
            <AltitudeMeters>646</AltitudeMeters>
            <DistanceMeters>11831.175294549</DistanceMeters>
          </Trackpoint>
          <Trackpoint>
            <Time>2022-08-26T22:57:35.000Z</Time>
            <Position>
              <LatitudeDegrees>50.15311695635318756103515625</LatitudeDegrees>
              <LongitudeDegrees>17.00542584992945194244384765625</LongitudeDegrees>
            </Position>
            <AltitudeMeters>645.5999755859375</AltitudeMeters>
            <DistanceMeters>11833.401841644</DistanceMeters>
          </Trackpoint>
          <Trackpoint>
            <Time>2022-08-26T22:57:45.000Z</Time>
            <Position>
              <LatitudeDegrees>50.15305115841329097747802734375</LatitudeDegrees>
              <LongitudeDegrees>17.00540338642895221710205078125</LongitudeDegrees>
            </Position>
            <AltitudeMeters>645.5999755859375</AltitudeMeters>
            <DistanceMeters>11840.898118434</DistanceMeters>
          </Trackpoint>
          <Trackpoint>
            <Time>2022-08-26T22:57:55.000Z</Time>
            <Position>
              <LatitudeDegrees>50.1530208997428417205810546875</LatitudeDegrees>
              <LongitudeDegrees>17.00539835728704929351806640625</LongitudeDegrees>
            </Position>
            <AltitudeMeters>646</AltitudeMeters>
            <DistanceMeters>11844.284591095</DistanceMeters>
          </Trackpoint>
          <Trackpoint>
            <Time>2022-08-26T22:58:05.000Z</Time>
            <Position>
              <LatitudeDegrees>50.1530182175338268280029296875</LatitudeDegrees>
              <LongitudeDegrees>17.00541369616985321044921875</LongitudeDegrees>
            </Position>
            <AltitudeMeters>645.5999755859375</AltitudeMeters>
            <DistanceMeters>11845.416965086</DistanceMeters>
          </Trackpoint>
          <Trackpoint>
            <Time>2022-08-26T22:58:10.000Z</Time>
            <Position>
              <LatitudeDegrees>50.15301193110644817352294921875</LatitudeDegrees>
              <LongitudeDegrees>17.00541730038821697235107421875</LongitudeDegrees>
            </Position>
            <AltitudeMeters>644.79998779296875</AltitudeMeters>
            <DistanceMeters>11846.165206183</DistanceMeters>
          </Trackpoint>
          <Trackpoint>
            <Time>2022-08-26T22:58:15.000Z</Time>
            <Position>
              <LatitudeDegrees>50.15299516730010509490966796875</LatitudeDegrees>
              <LongitudeDegrees>17.0054400153458118438720703125</LongitudeDegrees>
            </Position>
            <AltitudeMeters>644</AltitudeMeters>
            <DistanceMeters>11848.635900757</DistanceMeters>
          </Trackpoint>
          <Trackpoint>
            <Time>2022-08-26T22:58:16.000Z</Time>
            <Position>
              <LatitudeDegrees>50.1529937423765659332275390625</LatitudeDegrees>
              <LongitudeDegrees>17.0054440386593341827392578125</LongitudeDegrees>
            </Position>
            <AltitudeMeters>643.79998779296875</AltitudeMeters>
            <DistanceMeters>11848.965082951</DistanceMeters>
          </Trackpoint>
          <Trackpoint>
            <Time>2022-08-26T22:58:28.000Z</Time>
            <Position>
              <LatitudeDegrees>50.15297203324735164642333984375</LatitudeDegrees>
              <LongitudeDegrees>17.0054668374359607696533203125</LongitudeDegrees>
            </Position>
            <AltitudeMeters>643</AltitudeMeters>
            <DistanceMeters>11851.878546845</DistanceMeters>
          </Trackpoint>
          <Trackpoint>
            <Time>2022-08-26T22:58:39.000Z</Time>
            <Position>
              <LatitudeDegrees>50.152969099581241607666015625</LatitudeDegrees>
              <LongitudeDegrees>17.00547404587268829345703125</LongitudeDegrees>
            </Position>
            <AltitudeMeters>643.5999755859375</AltitudeMeters>
            <DistanceMeters>11852.479548557</DistanceMeters>
          </Trackpoint>
          <Trackpoint>
            <Time>2022-08-26T22:58:49.000Z</Time>
            <Position>
              <LatitudeDegrees>50.1529437862336635589599609375</LatitudeDegrees>
              <LongitudeDegrees>17.005453594028949737548828125</LongitudeDegrees>
            </Position>
            <AltitudeMeters>644.79998779296875</AltitudeMeters>
            <DistanceMeters>11855.651220854</DistanceMeters>
          </Trackpoint>
          <Trackpoint>
            <Time>2022-08-26T22:59:00.000Z</Time>
            <Position>
              <LatitudeDegrees>50.15290112234652042388916015625</LatitudeDegrees>
              <LongitudeDegrees>17.00546474196016788482666015625</LongitudeDegrees>
            </Position>
            <AltitudeMeters>645.4000244140625</AltitudeMeters>
            <DistanceMeters>11860.464865643</DistanceMeters>
          </Trackpoint>
          <Trackpoint>
            <Time>2022-08-26T22:59:12.000Z</Time>
            <Position>
              <LatitudeDegrees>50.152874886989593505859375</LatitudeDegrees>
              <LongitudeDegrees>17.0054450444877147674560546875</LongitudeDegrees>
            </Position>
            <AltitudeMeters>644.5999755859375</AltitudeMeters>
            <DistanceMeters>11863.70414779</DistanceMeters>
          </Trackpoint>
          <Trackpoint>
            <Time>2022-08-26T22:59:28.000Z</Time>
            <Position>
              <LatitudeDegrees>50.15284278430044651031494140625</LatitudeDegrees>
              <LongitudeDegrees>17.0054105110466480255126953125</LongitudeDegrees>
            </Position>
            <AltitudeMeters>644</AltitudeMeters>
            <DistanceMeters>11868.043238637</DistanceMeters>
          </Trackpoint>
          <Trackpoint>
            <Time>2022-08-26T22:59:41.000Z</Time>
            <Position>
              <LatitudeDegrees>50.15282518230378627777099609375</LatitudeDegrees>
              <LongitudeDegrees>17.00540699064731597900390625</LongitudeDegrees>
            </Position>
            <AltitudeMeters>644.20001220703125</AltitudeMeters>
            <DistanceMeters>11870.018331806</DistanceMeters>
          </Trackpoint>
          <Trackpoint>
            <Time>2022-08-26T22:59:55.000Z</Time>
            <Position>
              <LatitudeDegrees>50.15281076543033123016357421875</LatitudeDegrees>
              <LongitudeDegrees>17.00536273419857025146484375</LongitudeDegrees>
            </Position>
            <AltitudeMeters>644.5999755859375</AltitudeMeters>
            <DistanceMeters>11873.558634915</DistanceMeters>
          </Trackpoint>
          <Trackpoint>
            <Time>2022-08-26T23:00:05.000Z</Time>
            <Position>
              <LatitudeDegrees>50.1528033055365085601806640625</LatitudeDegrees>
              <LongitudeDegrees>17.0053379237651824951171875</LongitudeDegrees>
            </Position>
            <AltitudeMeters>645.79998779296875</AltitudeMeters>
            <DistanceMeters>11875.515354724</DistanceMeters>
          </Trackpoint>
          <Trackpoint>
            <Time>2022-08-26T23:00:06.000Z</Time>
            <Position>
              <LatitudeDegrees>50.15280590392649173736572265625</LatitudeDegrees>
              <LongitudeDegrees>17.00533364899456501007080078125</LongitudeDegrees>
            </Position>
            <AltitudeMeters>646</AltitudeMeters>
            <DistanceMeters>11875.94032711</DistanceMeters>
          </Trackpoint>
          <Trackpoint>
            <Time>2022-08-26T23:00:09.000Z</Time>
            <Position>
              <LatitudeDegrees>50.15281118452548980712890625</LatitudeDegrees>
              <LongitudeDegrees>17.00532493181526660919189453125</LongitudeDegrees>
            </Position>
            <AltitudeMeters>646.79998779296875</AltitudeMeters>
            <DistanceMeters>11876.79556754</DistanceMeters>
          </Trackpoint>
          <Trackpoint>
            <Time>2022-08-26T23:00:16.000Z</Time>
            <Position>
              <LatitudeDegrees>50.1528022997081279754638671875</LatitudeDegrees>
              <LongitudeDegrees>17.00532224960625171661376953125</LongitudeDegrees>
            </Position>
            <AltitudeMeters>647.79998779296875</AltitudeMeters>
            <DistanceMeters>11877.801235756</DistanceMeters>
          </Trackpoint>
          <Trackpoint>
            <Time>2022-08-26T23:00:18.000Z</Time>
            <Position>
              <LatitudeDegrees>50.1528022997081279754638671875</LatitudeDegrees>
              <LongitudeDegrees>17.005318142473697662353515625</LongitudeDegrees>
            </Position>
            <AltitudeMeters>648</AltitudeMeters>
            <DistanceMeters>11878.070011893</DistanceMeters>
          </Trackpoint>
          <Trackpoint>
            <Time>2022-08-26T23:00:25.000Z</Time>
            <Position>
              <LatitudeDegrees>50.15279215760529041290283203125</LatitudeDegrees>
              <LongitudeDegrees>17.0053005404770374298095703125</LongitudeDegrees>
            </Position>
            <AltitudeMeters>649</AltitudeMeters>
            <DistanceMeters>11879.756568764</DistanceMeters>
          </Trackpoint>
          <Trackpoint>
            <Time>2022-08-26T23:00:27.000Z</Time>
            <Position>
              <LatitudeDegrees>50.15279048122465610504150390625</LatitudeDegrees>
              <LongitudeDegrees>17.0052924938499927520751953125</LongitudeDegrees>
            </Position>
            <AltitudeMeters>649.20001220703125</AltitudeMeters>
            <DistanceMeters>11880.357570476</DistanceMeters>
          </Trackpoint>
          <Trackpoint>
            <Time>2022-08-26T23:00:36.000Z</Time>
            <Position>
              <LatitudeDegrees>50.15277170576155185699462890625</LatitudeDegrees>
              <LongitudeDegrees>17.00527564622461795806884765625</LongitudeDegrees>
            </Position>
            <AltitudeMeters>650</AltitudeMeters>
            <DistanceMeters>11882.767205127</DistanceMeters>
          </Trackpoint>
          <Trackpoint>
            <Time>2022-08-26T23:00:38.000Z</Time>
            <Position>
              <LatitudeDegrees>50.15276734717190265655517578125</LatitudeDegrees>
              <LongitudeDegrees>17.00527799315750598907470703125</LongitudeDegrees>
            </Position>
            <AltitudeMeters>650.4000244140625</AltitudeMeters>
            <DistanceMeters>11883.278939645</DistanceMeters>
          </Trackpoint>
          <Trackpoint>
            <Time>2022-08-26T23:00:40.000Z</Time>
            <Position>
              <LatitudeDegrees>50.15276231802999973297119140625</LatitudeDegrees>
              <LongitudeDegrees>17.0052814297378063201904296875</LongitudeDegrees>
            </Position>
            <AltitudeMeters>651.20001220703125</AltitudeMeters>
            <DistanceMeters>11883.887407503</DistanceMeters>
          </Trackpoint>
          <Trackpoint>
            <Time>2022-08-26T23:00:43.000Z</Time>
            <Position>
              <LatitudeDegrees>50.152748487889766693115234375</LatitudeDegrees>
              <LongitudeDegrees>17.00527464039623737335205078125</LongitudeDegrees>
            </Position>
            <AltitudeMeters>652.4000244140625</AltitudeMeters>
            <DistanceMeters>11885.500064322</DistanceMeters>
          </Trackpoint>
          <Trackpoint>
            <Time>2022-08-26T23:00:49.000Z</Time>
            <Position>
              <LatitudeDegrees>50.15273968689143657684326171875</LatitudeDegrees>
              <LongitudeDegrees>17.0052593015134334564208984375</LongitudeDegrees>
            </Position>
            <AltitudeMeters>652.5999755859375</AltitudeMeters>
            <DistanceMeters>11886.96606507</DistanceMeters>
          </Trackpoint>
          <Trackpoint>
            <Time>2022-08-26T23:01:01.000Z</Time>
            <Position>
              <LatitudeDegrees>50.15270917676389217376708984375</LatitudeDegrees>
              <LongitudeDegrees>17.005217559635639190673828125</LongitudeDegrees>
            </Position>
            <AltitudeMeters>653.20001220703125</AltitudeMeters>
            <DistanceMeters>11891.481584156</DistanceMeters>
          </Trackpoint>
          <Trackpoint>
            <Time>2022-08-26T23:01:07.000Z</Time>
            <Position>
              <LatitudeDegrees>50.15269174240529537200927734375</LatitudeDegrees>
              <LongitudeDegrees>17.00519534759223461151123046875</LongitudeDegrees>
            </Position>
            <AltitudeMeters>653.4000244140625</AltitudeMeters>
            <DistanceMeters>11893.984956492</DistanceMeters>
          </Trackpoint>
          <Trackpoint>
            <Time>2022-08-26T23:01:14.000Z</Time>
            <Position>
              <LatitudeDegrees>50.15267363749444484710693359375</LatitudeDegrees>
              <LongitudeDegrees>17.0051838643848896026611328125</LongitudeDegrees>
            </Position>
            <AltitudeMeters>653.5999755859375</AltitudeMeters>
            <DistanceMeters>11896.160217408</DistanceMeters>
          </Trackpoint>
          <Trackpoint>
            <Time>2022-08-26T23:01:27.000Z</Time>
            <Position>
              <LatitudeDegrees>50.15263994224369525909423828125</LatitudeDegrees>
              <LongitudeDegrees>17.00516299344599246978759765625</LongitudeDegrees>
            </Position>
            <AltitudeMeters>653.4000244140625</AltitudeMeters>
            <DistanceMeters>11900.196336572</DistanceMeters>
          </Trackpoint>
          <Trackpoint>
            <Time>2022-08-26T23:01:42.000Z</Time>
            <Position>
              <LatitudeDegrees>50.152614377439022064208984375</LatitudeDegrees>
              <LongitudeDegrees>17.00515913777053356170654296875</LongitudeDegrees>
            </Position>
            <AltitudeMeters>653.4000244140625</AltitudeMeters>
            <DistanceMeters>11903.053466094</DistanceMeters>
          </Trackpoint>
          <Trackpoint>
            <Time>2022-08-26T23:01:53.000Z</Time>
            <Position>
              <LatitudeDegrees>50.15259669162333011627197265625</LatitudeDegrees>
              <LongitudeDegrees>17.0052113570272922515869140625</LongitudeDegrees>
            </Position>
            <AltitudeMeters>653.20001220703125</AltitudeMeters>
            <DistanceMeters>11907.266912461</DistanceMeters>
          </Trackpoint>
          <Trackpoint>
            <Time>2022-08-26T23:02:04.000Z</Time>
            <Position>
              <LatitudeDegrees>50.15257649123668670654296875</LatitudeDegrees>
              <LongitudeDegrees>17.00530548579990863800048828125</LongitudeDegrees>
            </Position>
            <AltitudeMeters>653</AltitudeMeters>
            <DistanceMeters>11914.346243239</DistanceMeters>
          </Trackpoint>
          <Trackpoint>
            <Time>2022-08-26T23:02:19.000Z</Time>
            <Position>
              <LatitudeDegrees>50.1526048220694065093994140625</LatitudeDegrees>
              <LongitudeDegrees>17.00538058765232563018798828125</LongitudeDegrees>
            </Position>
            <AltitudeMeters>653</AltitudeMeters>
            <DistanceMeters>11920.561600593</DistanceMeters>
          </Trackpoint>
          <Trackpoint>
            <Time>2022-08-26T23:02:29.000Z</Time>
            <Position>
              <LatitudeDegrees>50.1525743119418621063232421875</LatitudeDegrees>
              <LongitudeDegrees>17.00550614856183528900146484375</LongitudeDegrees>
            </Position>
            <AltitudeMeters>653</AltitudeMeters>
            <DistanceMeters>11930.138106029</DistanceMeters>
          </Trackpoint>
          <Trackpoint>
            <Time>2022-08-26T23:02:39.000Z</Time>
            <Position>
              <LatitudeDegrees>50.15260222367942333221435546875</LatitudeDegrees>
              <LongitudeDegrees>17.005552835762500762939453125</LongitudeDegrees>
            </Position>
            <AltitudeMeters>652.79998779296875</AltitudeMeters>
            <DistanceMeters>11934.692454016</DistanceMeters>
          </Trackpoint>
          <Trackpoint>
            <Time>2022-08-26T23:02:46.000Z</Time>
            <Position>
              <LatitudeDegrees>50.152618400752544403076171875</LatitudeDegrees>
              <LongitudeDegrees>17.00555711053311824798583984375</LongitudeDegrees>
            </Position>
            <AltitudeMeters>652.5999755859375</AltitudeMeters>
            <DistanceMeters>11936.520329363</DistanceMeters>
          </Trackpoint>
          <Trackpoint>
            <Time>2022-08-26T23:02:55.000Z</Time>
            <Position>
              <LatitudeDegrees>50.15265234746038913726806640625</LatitudeDegrees>
              <LongitudeDegrees>17.00559885241091251373291015625</LongitudeDegrees>
            </Position>
            <AltitudeMeters>652.5999755859375</AltitudeMeters>
            <DistanceMeters>11941.330220822</DistanceMeters>
          </Trackpoint>
          <Trackpoint>
            <Time>2022-08-26T23:02:56.000Z</Time>
            <Position>
              <LatitudeDegrees>50.1526554487645626068115234375</LatitudeDegrees>
              <LongitudeDegrees>17.00560010969638824462890625</LongitudeDegrees>
            </Position>
            <AltitudeMeters>652.4000244140625</AltitudeMeters>
            <DistanceMeters>11941.68577823</DistanceMeters>
          </Trackpoint>
          <Trackpoint>
            <Time>2022-08-26T23:03:02.000Z</Time>
            <Position>
              <LatitudeDegrees>50.15268084593117237091064453125</LatitudeDegrees>
              <LongitudeDegrees>17.00559298507869243621826171875</LongitudeDegrees>
            </Position>
            <AltitudeMeters>651.4000244140625</AltitudeMeters>
            <DistanceMeters>11944.558666997</DistanceMeters>
          </Trackpoint>
          <Trackpoint>
            <Time>2022-08-26T23:03:06.000Z</Time>
            <Position>
              <LatitudeDegrees>50.15269895084202289581298828125</LatitudeDegrees>
              <LongitudeDegrees>17.0055892132222652435302734375</LongitudeDegrees>
            </Position>
            <AltitudeMeters>650.4000244140625</AltitudeMeters>
            <DistanceMeters>11946.592327493</DistanceMeters>
          </Trackpoint>
          <Trackpoint>
            <Time>2022-08-26T23:03:07.000Z</Time>
            <Position>
              <LatitudeDegrees>50.15270414762198925018310546875</LatitudeDegrees>
              <LongitudeDegrees>17.0055952481925487518310546875</LongitudeDegrees>
            </Position>
            <AltitudeMeters>650</AltitudeMeters>
            <DistanceMeters>11947.309763453</DistanceMeters>
          </Trackpoint>
          <Trackpoint>
            <Time>2022-08-26T23:03:12.000Z</Time>
            <Position>
              <LatitudeDegrees>50.1527385972440242767333984375</LatitudeDegrees>
              <LongitudeDegrees>17.005611173808574676513671875</LongitudeDegrees>
            </Position>
            <AltitudeMeters>649</AltitudeMeters>
            <DistanceMeters>11951.308796509</DistanceMeters>
          </Trackpoint>
          <Trackpoint>
            <Time>2022-08-26T23:03:16.000Z</Time>
            <Position>
              <LatitudeDegrees>50.15277120284736156463623046875</LatitudeDegrees>
              <LongitudeDegrees>17.00562022626399993896484375</LongitudeDegrees>
            </Position>
            <AltitudeMeters>647.79998779296875</AltitudeMeters>
            <DistanceMeters>11954.994069223</DistanceMeters>
          </Trackpoint>
          <Trackpoint>
            <Time>2022-08-26T23:03:17.000Z</Time>
            <Position>
              <LatitudeDegrees>50.1527791656553745269775390625</LatitudeDegrees>
              <LongitudeDegrees>17.0056210644543170928955078125</LongitudeDegrees>
            </Position>
            <AltitudeMeters>647.5999755859375</AltitudeMeters>
            <DistanceMeters>11955.88549882</DistanceMeters>
          </Trackpoint>
          <Trackpoint>
            <Time>2022-08-26T23:03:21.000Z</Time>
            <Position>
              <LatitudeDegrees>50.15279240906238555908203125</LatitudeDegrees>
              <LongitudeDegrees>17.00562701560556888580322265625</LongitudeDegrees>
            </Position>
            <AltitudeMeters>646.79998779296875</AltitudeMeters>
            <DistanceMeters>11957.417758549</DistanceMeters>
          </Trackpoint>
          <Trackpoint>
            <Time>2022-08-26T23:03:26.000Z</Time>
            <Position>
              <LatitudeDegrees>50.15280171297490596771240234375</LatitudeDegrees>
              <LongitudeDegrees>17.00564394704997539520263671875</LongitudeDegrees>
            </Position>
            <AltitudeMeters>645.4000244140625</AltitudeMeters>
            <DistanceMeters>11959.007859616</DistanceMeters>
          </Trackpoint>
          <Trackpoint>
            <Time>2022-08-26T23:03:30.000Z</Time>
            <Position>
              <LatitudeDegrees>50.15281680040061473846435546875</LatitudeDegrees>
              <LongitudeDegrees>17.00565953738987445831298828125</LongitudeDegrees>
            </Position>
            <AltitudeMeters>644.4000244140625</AltitudeMeters>
            <DistanceMeters>11961.021439593</DistanceMeters>
          </Trackpoint>
          <Trackpoint>
            <Time>2022-08-26T23:03:35.000Z</Time>
            <Position>
              <LatitudeDegrees>50.1528448797762393951416015625</LatitudeDegrees>
              <LongitudeDegrees>17.00568451546132564544677734375</LongitudeDegrees>
            </Position>
            <AltitudeMeters>643.4000244140625</AltitudeMeters>
            <DistanceMeters>11964.618674579</DistanceMeters>
          </Trackpoint>
          <Trackpoint>
            <Time>2022-08-26T23:03:40.000Z</Time>
            <Position>
              <LatitudeDegrees>50.152885951101779937744140625</LatitudeDegrees>
              <LongitudeDegrees>17.005722485482692718505859375</LongitudeDegrees>
            </Position>
            <AltitudeMeters>642</AltitudeMeters>
            <DistanceMeters>11969.931679281</DistanceMeters>
          </Trackpoint>
          <Trackpoint>
            <Time>2022-08-26T23:03:43.000Z</Time>
            <Position>
              <LatitudeDegrees>50.15292190946638584136962890625</LatitudeDegrees>
              <LongitudeDegrees>17.0057410933077335357666015625</LongitudeDegrees>
            </Position>
            <AltitudeMeters>641.20001220703125</AltitudeMeters>
            <DistanceMeters>11974.148339158</DistanceMeters>
          </Trackpoint>
          <Trackpoint>
            <Time>2022-08-26T23:03:55.000Z</Time>
            <Position>
              <LatitudeDegrees>50.1530970074236392974853515625</LatitudeDegrees>
              <LongitudeDegrees>17.0058091543614864349365234375</LongitudeDegrees>
            </Position>
            <AltitudeMeters>641</AltitudeMeters>
            <DistanceMeters>11994.232499951</DistanceMeters>
          </Trackpoint>
          <Trackpoint>
            <Time>2022-08-26T23:04:04.000Z</Time>
            <Position>
              <LatitudeDegrees>50.15315107069909572601318359375</LatitudeDegrees>
              <LongitudeDegrees>17.005806304514408111572265625</LongitudeDegrees>
            </Position>
            <AltitudeMeters>640.5999755859375</AltitudeMeters>
            <DistanceMeters>12000.253025413</DistanceMeters>
          </Trackpoint>
          <Trackpoint>
            <Time>2022-08-26T23:04:15.000Z</Time>
            <Position>
              <LatitudeDegrees>50.15319608151912689208984375</LatitudeDegrees>
              <LongitudeDegrees>17.005829773843288421630859375</LongitudeDegrees>
            </Position>
            <AltitudeMeters>639.5999755859375</AltitudeMeters>
            <DistanceMeters>12005.535348407</DistanceMeters>
          </Trackpoint>
          <Trackpoint>
            <Time>2022-08-26T23:04:16.000Z</Time>
            <Position>
              <LatitudeDegrees>50.1531972549855709075927734375</LatitudeDegrees>
              <LongitudeDegrees>17.00583438389003276824951171875</LongitudeDegrees>
            </Position>
            <AltitudeMeters>639.5999755859375</AltitudeMeters>
            <DistanceMeters>12005.890905815</DistanceMeters>
          </Trackpoint>
          <Trackpoint>
            <Time>2022-08-26T23:04:23.000Z</Time>
            <Position>
              <LatitudeDegrees>50.15323304571211338043212890625</LatitudeDegrees>
              <LongitudeDegrees>17.0058815740048885345458984375</LongitudeDegrees>
            </Position>
            <AltitudeMeters>639.20001220703125</AltitudeMeters>
            <DistanceMeters>12011.106132584</DistanceMeters>
          </Trackpoint>
          <Trackpoint>
            <Time>2022-08-26T23:04:30.000Z</Time>
            <Position>
              <LatitudeDegrees>50.15326774679124355316162109375</LatitudeDegrees>
              <LongitudeDegrees>17.005940414965152740478515625</LongitudeDegrees>
            </Position>
            <AltitudeMeters>638.79998779296875</AltitudeMeters>
            <DistanceMeters>12016.810110619</DistanceMeters>
          </Trackpoint>
          <Trackpoint>
            <Time>2022-08-26T23:04:32.000Z</Time>
            <Position>
              <LatitudeDegrees>50.1532807387411594390869140625</LatitudeDegrees>
              <LongitudeDegrees>17.0059617049992084503173828125</LongitudeDegrees>
            </Position>
            <AltitudeMeters>638.20001220703125</AltitudeMeters>
            <DistanceMeters>12018.909319352</DistanceMeters>
          </Trackpoint>
          <Trackpoint>
            <Time>2022-08-26T23:04:33.000Z</Time>
            <Position>
              <LatitudeDegrees>50.153286270797252655029296875</LatitudeDegrees>
              <LongitudeDegrees>17.00597419403493404388427734375</LongitudeDegrees>
            </Position>
            <AltitudeMeters>637.5999755859375</AltitudeMeters>
            <DistanceMeters>12019.992790596</DistanceMeters>
          </Trackpoint>
          <Trackpoint>
            <Time>2022-08-26T23:04:38.000Z</Time>
            <Position>
              <LatitudeDegrees>50.15329859219491481781005859375</LatitudeDegrees>
              <LongitudeDegrees>17.0060347951948642730712890625</LongitudeDegrees>
            </Position>
            <AltitudeMeters>636.4000244140625</AltitudeMeters>
            <DistanceMeters>12024.528263465</DistanceMeters>
          </Trackpoint>
          <Trackpoint>
            <Time>2022-08-26T23:04:43.000Z</Time>
            <Position>
              <LatitudeDegrees>50.15330948866903781890869140625</LatitudeDegrees>
              <LongitudeDegrees>17.00608869083225727081298828125</LongitudeDegrees>
            </Position>
            <AltitudeMeters>635.20001220703125</AltitudeMeters>
            <DistanceMeters>12028.557665089</DistanceMeters>
          </Trackpoint>
          <Trackpoint>
            <Time>2022-08-26T23:04:44.000Z</Time>
            <Position>
              <LatitudeDegrees>50.1533132605254650115966796875</LatitudeDegrees>
              <LongitudeDegrees>17.0061001740396022796630859375</LongitudeDegrees>
            </Position>
            <AltitudeMeters>635</AltitudeMeters>
            <DistanceMeters>12029.478983267</DistanceMeters>
          </Trackpoint>
          <Trackpoint>
            <Time>2022-08-26T23:04:48.000Z</Time>
            <Position>
              <LatitudeDegrees>50.1533303596079349517822265625</LatitudeDegrees>
              <LongitudeDegrees>17.0061399042606353759765625</LongitudeDegrees>
            </Position>
            <AltitudeMeters>634</AltitudeMeters>
            <DistanceMeters>12032.892016905</DistanceMeters>
          </Trackpoint>
          <Trackpoint>
            <Time>2022-08-26T23:04:53.000Z</Time>
            <Position>
              <LatitudeDegrees>50.15333865769207477569580078125</LatitudeDegrees>
              <LongitudeDegrees>17.00618810020387172698974609375</LongitudeDegrees>
            </Position>
            <AltitudeMeters>632.79998779296875</AltitudeMeters>
            <DistanceMeters>12036.451398487</DistanceMeters>
          </Trackpoint>
          <Trackpoint>
            <Time>2022-08-26T23:04:55.000Z</Time>
            <Position>
              <LatitudeDegrees>50.15334754250943660736083984375</LatitudeDegrees>
              <LongitudeDegrees>17.0062027685344219207763671875</LongitudeDegrees>
            </Position>
            <AltitudeMeters>632.4000244140625</AltitudeMeters>
            <DistanceMeters>12037.892549965</DistanceMeters>
          </Trackpoint>
          <Trackpoint>
            <Time>2022-08-26T23:04:58.000Z</Time>
            <Position>
              <LatitudeDegrees>50.15336011536419391632080078125</LatitudeDegrees>
              <LongitudeDegrees>17.0062339492142200469970703125</LongitudeDegrees>
            </Position>
            <AltitudeMeters>631.79998779296875</AltitudeMeters>
            <DistanceMeters>12040.522576307</DistanceMeters>
          </Trackpoint>
          <Trackpoint>
            <Time>2022-08-26T23:05:03.000Z</Time>
            <Position>
              <LatitudeDegrees>50.15337847173213958740234375</LatitudeDegrees>
              <LongitudeDegrees>17.0062852464616298675537109375</LongitudeDegrees>
            </Position>
            <AltitudeMeters>630.79998779296875</AltitudeMeters>
            <DistanceMeters>12044.713459111</DistanceMeters>
          </Trackpoint>
          <Trackpoint>
            <Time>2022-08-26T23:05:05.000Z</Time>
            <Position>
              <LatitudeDegrees>50.15338710509240627288818359375</LatitudeDegrees>
              <LongitudeDegrees>17.00630955398082733154296875</LongitudeDegrees>
            </Position>
            <AltitudeMeters>630.20001220703125</AltitudeMeters>
            <DistanceMeters>12046.695398377</DistanceMeters>
          </Trackpoint>
          <Trackpoint>
            <Time>2022-08-26T23:05:08.000Z</Time>
            <Position>
              <LatitudeDegrees>50.15340219251811504364013671875</LatitudeDegrees>
              <LongitudeDegrees>17.00632858090102672576904296875</LongitudeDegrees>
            </Position>
            <AltitudeMeters>629.4000244140625</AltitudeMeters>
            <DistanceMeters>12048.851897709</DistanceMeters>
          </Trackpoint>
          <Trackpoint>
            <Time>2022-08-26T23:05:13.000Z</Time>
            <Position>
              <LatitudeDegrees>50.15341811813414096832275390625</LatitudeDegrees>
              <LongitudeDegrees>17.006375603377819061279296875</LongitudeDegrees>
            </Position>
            <AltitudeMeters>628.4000244140625</AltitudeMeters>
            <DistanceMeters>12052.644642332</DistanceMeters>
          </Trackpoint>
          <Trackpoint>
            <Time>2022-08-26T23:05:14.000Z</Time>
            <Position>
              <LatitudeDegrees>50.15341711230576038360595703125</LatitudeDegrees>
              <LongitudeDegrees>17.0063839852809906005859375</LongitudeDegrees>
            </Position>
            <AltitudeMeters>628</AltitudeMeters>
            <DistanceMeters>12053.260485827</DistanceMeters>
          </Trackpoint>
          <Trackpoint>
            <Time>2022-08-26T23:05:23.000Z</Time>
            <Position>
              <LatitudeDegrees>50.153433792293071746826171875</LatitudeDegrees>
              <LongitudeDegrees>17.006431259214878082275390625</LongitudeDegrees>
            </Position>
            <AltitudeMeters>627.79998779296875</AltitudeMeters>
            <DistanceMeters>12057.111120258</DistanceMeters>
          </Trackpoint>
          <Trackpoint>
            <Time>2022-08-26T23:05:33.000Z</Time>
            <Position>
              <LatitudeDegrees>50.15345114283263683319091796875</LatitudeDegrees>
              <LongitudeDegrees>17.006460763514041900634765625</LongitudeDegrees>
            </Position>
            <AltitudeMeters>627.79998779296875</AltitudeMeters>
            <DistanceMeters>12059.96824978</DistanceMeters>
          </Trackpoint>
          <Trackpoint>
            <Time>2022-08-26T23:05:45.000Z</Time>
            <Position>
              <LatitudeDegrees>50.15347578562796115875244140625</LatitudeDegrees>
              <LongitudeDegrees>17.006444670259952545166015625</LongitudeDegrees>
            </Position>
            <AltitudeMeters>627.79998779296875</AltitudeMeters>
            <DistanceMeters>12062.941538336</DistanceMeters>
          </Trackpoint>
          <Trackpoint>
            <Time>2022-08-26T23:05:53.000Z</Time>
            <Position>
              <LatitudeDegrees>50.153474025428295135498046875</LatitudeDegrees>
              <LongitudeDegrees>17.0064455084502696990966796875</LongitudeDegrees>
            </Position>
            <AltitudeMeters>627.79998779296875</AltitudeMeters>
            <DistanceMeters>12063.154024529</DistanceMeters>
          </Trackpoint>
          <Trackpoint>
            <Time>2022-08-26T23:06:02.000Z</Time>
            <Position>
              <LatitudeDegrees>50.153466649353504180908203125</LatitudeDegrees>
              <LongitudeDegrees>17.0064376294612884521484375</LongitudeDegrees>
            </Position>
            <AltitudeMeters>627.79998779296875</AltitudeMeters>
            <DistanceMeters>12064.150673118</DistanceMeters>
          </Trackpoint>
          <Trackpoint>
            <Time>2022-08-26T23:06:14.000Z</Time>
            <Position>
              <LatitudeDegrees>50.15348131768405437469482421875</LatitudeDegrees>
              <LongitudeDegrees>17.00643419288098812103271484375</LongitudeDegrees>
            </Position>
            <AltitudeMeters>627.79998779296875</AltitudeMeters>
            <DistanceMeters>12065.802061348</DistanceMeters>
          </Trackpoint>
          <Trackpoint>
            <Time>2022-08-26T23:06:20.000Z</Time>
            <Position>
              <LatitudeDegrees>50.153482072055339813232421875</LatitudeDegrees>
              <LongitudeDegrees>17.00643436051905155181884765625</LongitudeDegrees>
            </Position>
            <AltitudeMeters>628</AltitudeMeters>
            <DistanceMeters>12065.802061348</DistanceMeters>
          </Trackpoint>
          <Trackpoint>
            <Time>2022-08-26T23:06:31.000Z</Time>
            <Position>
              <LatitudeDegrees>50.15349187888205051422119140625</LatitudeDegrees>
              <LongitudeDegrees>17.00644257478415966033935546875</LongitudeDegrees>
            </Position>
            <AltitudeMeters>628</AltitudeMeters>
            <DistanceMeters>12067.044696882</DistanceMeters>
          </Trackpoint>
          <Trackpoint>
            <Time>2022-08-26T23:06:45.000Z</Time>
            <Position>
              <LatitudeDegrees>50.15350126661360263824462890625</LatitudeDegrees>
              <LongitudeDegrees>17.00644676573574542999267578125</LongitudeDegrees>
            </Position>
            <AltitudeMeters>628</AltitudeMeters>
            <DistanceMeters>12068.13647071</DistanceMeters>
          </Trackpoint>
          <Trackpoint>
            <Time>2022-08-26T23:06:57.000Z</Time>
            <Position>
              <LatitudeDegrees>50.15350411646068096160888671875</LatitudeDegrees>
              <LongitudeDegrees>17.0064468495547771453857421875</LongitudeDegrees>
            </Position>
            <AltitudeMeters>628</AltitudeMeters>
            <DistanceMeters>12068.465652905</DistanceMeters>
          </Trackpoint>
          <Trackpoint>
            <Time>2022-08-26T23:07:05.000Z</Time>
            <Position>
              <LatitudeDegrees>50.1535040326416492462158203125</LatitudeDegrees>
              <LongitudeDegrees>17.00645380653440952301025390625</LongitudeDegrees>
            </Position>
            <AltitudeMeters>628</AltitudeMeters>
            <DistanceMeters>12068.968487013</DistanceMeters>
          </Trackpoint>
          <Trackpoint>
            <Time>2022-08-26T23:07:16.000Z</Time>
            <Position>
              <LatitudeDegrees>50.15351182781159877777099609375</LatitudeDegrees>
              <LongitudeDegrees>17.00645531527698040008544921875</LongitudeDegrees>
            </Position>
            <AltitudeMeters>628</AltitudeMeters>
            <DistanceMeters>12069.839421236</DistanceMeters>
          </Trackpoint>
          <Trackpoint>
            <Time>2022-08-26T23:07:26.000Z</Time>
            <Position>
              <LatitudeDegrees>50.15352758578956127166748046875</LatitudeDegrees>
              <LongitudeDegrees>17.00646805576980113983154296875</LongitudeDegrees>
            </Position>
            <AltitudeMeters>627.79998779296875</AltitudeMeters>
            <DistanceMeters>12071.814514405</DistanceMeters>
          </Trackpoint>
          <Trackpoint>
            <Time>2022-08-26T23:07:38.000Z</Time>
            <Position>
              <LatitudeDegrees>50.1535288430750370025634765625</LatitudeDegrees>
              <LongitudeDegrees>17.0064716599881649017333984375</LongitudeDegrees>
            </Position>
            <AltitudeMeters>627.4000244140625</AltitudeMeters>
            <DistanceMeters>12072.115015261</DistanceMeters>
          </Trackpoint>
          <Trackpoint>
            <Time>2022-08-26T23:07:51.000Z</Time>
            <Position>
              <LatitudeDegrees>50.1535280048847198486328125</LatitudeDegrees>
              <LongitudeDegrees>17.00647006742656230926513671875</LongitudeDegrees>
            </Position>
            <AltitudeMeters>627.4000244140625</AltitudeMeters>
            <DistanceMeters>12072.279606358</DistanceMeters>
          </Trackpoint>
          <Trackpoint>
            <Time>2022-08-26T23:08:10.000Z</Time>
            <Position>
              <LatitudeDegrees>50.15353680588304996490478515625</LatitudeDegrees>
              <LongitudeDegrees>17.00647710822522640228271484375</LongitudeDegrees>
            </Position>
            <AltitudeMeters>627.79998779296875</AltitudeMeters>
            <DistanceMeters>12073.379620105</DistanceMeters>
          </Trackpoint>
          <Trackpoint>
            <Time>2022-08-26T23:08:17.000Z</Time>
            <Position>
              <LatitudeDegrees>50.15351417474448680877685546875</LatitudeDegrees>
              <LongitudeDegrees>17.00650393031537532806396484375</LongitudeDegrees>
            </Position>
            <AltitudeMeters>628</AltitudeMeters>
            <DistanceMeters>12076.542739562</DistanceMeters>
          </Trackpoint>
          <Trackpoint>
            <Time>2022-08-26T23:08:20.000Z</Time>
            <Position>
              <LatitudeDegrees>50.15350109897553920745849609375</LatitudeDegrees>
              <LongitudeDegrees>17.0065139047801494598388671875</LongitudeDegrees>
            </Position>
            <AltitudeMeters>627.79998779296875</AltitudeMeters>
            <DistanceMeters>12078.160986196</DistanceMeters>
          </Trackpoint>
          <Trackpoint>
            <Time>2022-08-26T23:08:22.000Z</Time>
            <Position>
              <LatitudeDegrees>50.15348550863564014434814453125</LatitudeDegrees>
              <LongitudeDegrees>17.00652505271136760711669921875</LongitudeDegrees>
            </Position>
            <AltitudeMeters>628</AltitudeMeters>
            <DistanceMeters>12080.070999516</DistanceMeters>
          </Trackpoint>
          <Trackpoint>
            <Time>2022-08-26T23:08:27.000Z</Time>
            <Position>
              <LatitudeDegrees>50.15345164574682712554931640625</LatitudeDegrees>
              <LongitudeDegrees>17.0065584965050220489501953125</LongitudeDegrees>
            </Position>
            <AltitudeMeters>628.20001220703125</AltitudeMeters>
            <DistanceMeters>12084.531185432</DistanceMeters>
          </Trackpoint>
          <Trackpoint>
            <Time>2022-08-26T23:08:29.000Z</Time>
            <Position>
              <LatitudeDegrees>50.15343924053013324737548828125</LatitudeDegrees>
              <LongitudeDegrees>17.00657643377780914306640625</LongitudeDegrees>
            </Position>
            <AltitudeMeters>628.20001220703125</AltitudeMeters>
            <DistanceMeters>12086.412618388</DistanceMeters>
          </Trackpoint>
          <Trackpoint>
            <Time>2022-08-26T23:08:31.000Z</Time>
            <Position>
              <LatitudeDegrees>50.15342951752245426177978515625</LatitudeDegrees>
              <LongitudeDegrees>17.00659386813640594482421875</LongitudeDegrees>
            </Position>
            <AltitudeMeters>628</AltitudeMeters>
            <DistanceMeters>12088.058529362</DistanceMeters>
          </Trackpoint>
          <Trackpoint>
            <Time>2022-08-26T23:08:38.000Z</Time>
            <Position>
              <LatitudeDegrees>50.153395235538482666015625</LatitudeDegrees>
              <LongitudeDegrees>17.00664826668798923492431640625</LongitudeDegrees>
            </Position>
            <AltitudeMeters>628</AltitudeMeters>
            <DistanceMeters>12093.50000165</DistanceMeters>
          </Trackpoint>
          <Trackpoint>
            <Time>2022-08-26T23:08:48.000Z</Time>
            <Position>
              <LatitudeDegrees>50.1533719338476657867431640625</LatitudeDegrees>
              <LongitudeDegrees>17.006702832877635955810546875</LongitudeDegrees>
            </Position>
            <AltitudeMeters>627.79998779296875</AltitudeMeters>
            <DistanceMeters>12098.176629189</DistanceMeters>
          </Trackpoint>
          <Trackpoint>
            <Time>2022-08-26T23:08:58.000Z</Time>
            <Position>
              <LatitudeDegrees>50.1533746160566806793212890625</LatitudeDegrees>
              <LongitudeDegrees>17.00680551119148731231689453125</LongitudeDegrees>
            </Position>
            <AltitudeMeters>627.5999755859375</AltitudeMeters>
            <DistanceMeters>12105.505400893</DistanceMeters>
          </Trackpoint>
          <Trackpoint>
            <Time>2022-08-26T23:09:09.000Z</Time>
            <Position>
              <LatitudeDegrees>50.15335969626903533935546875</LatitudeDegrees>
              <LongitudeDegrees>17.006934843957424163818359375</LongitudeDegrees>
            </Position>
            <AltitudeMeters>627.5999755859375</AltitudeMeters>
            <DistanceMeters>12114.876981523</DistanceMeters>
          </Trackpoint>
          <Trackpoint>
            <Time>2022-08-26T23:09:17.000Z</Time>
            <Position>
              <LatitudeDegrees>50.15327026136219501495361328125</LatitudeDegrees>
              <LongitudeDegrees>17.00700416229665279388427734375</LongitudeDegrees>
            </Position>
            <AltitudeMeters>627.5999755859375</AltitudeMeters>
            <DistanceMeters>12125.99145163</DistanceMeters>
          </Trackpoint>
          <Trackpoint>
            <Time>2022-08-26T23:09:26.000Z</Time>
            <Position>
              <LatitudeDegrees>50.15315274707973003387451171875</LatitudeDegrees>
              <LongitudeDegrees>17.00711647979915142059326171875</LongitudeDegrees>
            </Position>
            <AltitudeMeters>627.5999755859375</AltitudeMeters>
            <DistanceMeters>12141.328775104</DistanceMeters>
          </Trackpoint>
          <Trackpoint>
            <Time>2022-08-26T23:09:36.000Z</Time>
            <Position>
              <LatitudeDegrees>50.15314268879592418670654296875</LatitudeDegrees>
              <LongitudeDegrees>17.0071256160736083984375</LongitudeDegrees>
            </Position>
            <AltitudeMeters>627.5999755859375</AltitudeMeters>
            <DistanceMeters>12142.624766701</DistanceMeters>
          </Trackpoint>
          <Trackpoint>
            <Time>2022-08-26T23:09:47.000Z</Time>
            <Position>
              <LatitudeDegrees>50.15311854891479015350341796875</LatitudeDegrees>
              <LongitudeDegrees>17.00716107152402400970458984375</LongitudeDegrees>
            </Position>
            <AltitudeMeters>627.5999755859375</AltitudeMeters>
            <DistanceMeters>12146.314936789</DistanceMeters>
          </Trackpoint>
          <Trackpoint>
            <Time>2022-08-26T23:10:00.000Z</Time>
            <Position>
              <LatitudeDegrees>50.1530597917735576629638671875</LatitudeDegrees>
              <LongitudeDegrees>17.00724623166024684906005859375</LongitudeDegrees>
            </Position>
            <AltitudeMeters>627.79998779296875</AltitudeMeters>
            <DistanceMeters>12155.239356895</DistanceMeters>
          </Trackpoint>
          <Trackpoint>
            <Time>2022-08-26T23:10:12.000Z</Time>
            <Position>
              <LatitudeDegrees>50.15301025472581386566162109375</LatitudeDegrees>
              <LongitudeDegrees>17.007368691265583038330078125</LongitudeDegrees>
            </Position>
            <AltitudeMeters>627.79998779296875</AltitudeMeters>
            <DistanceMeters>12165.567147702</DistanceMeters>
          </Trackpoint>
          <Trackpoint>
            <Time>2022-08-26T23:10:24.000Z</Time>
            <Position>
              <LatitudeDegrees>50.152993239462375640869140625</LatitudeDegrees>
              <LongitudeDegrees>17.00754445977509021759033203125</LongitudeDegrees>
            </Position>
            <AltitudeMeters>628</AltitudeMeters>
            <DistanceMeters>12178.243868114</DistanceMeters>
          </Trackpoint>
          <Trackpoint>
            <Time>2022-08-26T23:10:32.000Z</Time>
            <Position>
              <LatitudeDegrees>50.15294236131012439727783203125</LatitudeDegrees>
              <LongitudeDegrees>17.00764797627925872802734375</LongitudeDegrees>
            </Position>
            <AltitudeMeters>628</AltitudeMeters>
            <DistanceMeters>12187.547755086</DistanceMeters>
          </Trackpoint>
          <Trackpoint>
            <Time>2022-08-26T23:10:35.000Z</Time>
            <Position>
              <LatitudeDegrees>50.15290128998458385467529296875</LatitudeDegrees>
              <LongitudeDegrees>17.00767479836940765380859375</LongitudeDegrees>
            </Position>
            <AltitudeMeters>628</AltitudeMeters>
            <DistanceMeters>12192.502831054</DistanceMeters>
          </Trackpoint>
          <Trackpoint>
            <Time>2022-08-26T23:10:43.000Z</Time>
            <Position>
              <LatitudeDegrees>50.15281529165804386138916015625</LatitudeDegrees>
              <LongitudeDegrees>17.00775803066790103912353515625</LongitudeDegrees>
            </Position>
            <AltitudeMeters>627.4000244140625</AltitudeMeters>
            <DistanceMeters>12203.765801972</DistanceMeters>
          </Trackpoint>
          <Trackpoint>
            <Time>2022-08-26T23:10:47.000Z</Time>
            <Position>
              <LatitudeDegrees>50.15278302133083343505859375</LatitudeDegrees>
              <LongitudeDegrees>17.0078120939433574676513671875</LongitudeDegrees>
            </Position>
            <AltitudeMeters>627</AltitudeMeters>
            <DistanceMeters>12209.036144953</DistanceMeters>
          </Trackpoint>
          <Trackpoint>
            <Time>2022-08-26T23:10:49.000Z</Time>
            <Position>
              <LatitudeDegrees>50.1527691073715686798095703125</LatitudeDegrees>
              <LongitudeDegrees>17.007843442261219024658203125</LongitudeDegrees>
            </Position>
            <AltitudeMeters>626.79998779296875</AltitudeMeters>
            <DistanceMeters>12211.757295938</DistanceMeters>
          </Trackpoint>
          <Trackpoint>
            <Time>2022-08-26T23:10:51.000Z</Time>
            <Position>
              <LatitudeDegrees>50.15274538658559322357177734375</LatitudeDegrees>
              <LongitudeDegrees>17.00787789188325405120849609375</LongitudeDegrees>
            </Position>
            <AltitudeMeters>626.79998779296875</AltitudeMeters>
            <DistanceMeters>12215.365809515</DistanceMeters>
          </Trackpoint>
          <Trackpoint>
            <Time>2022-08-26T23:10:54.000Z</Time>
            <Position>
              <LatitudeDegrees>50.15272141434252262115478515625</LatitudeDegrees>
              <LongitudeDegrees>17.0079277642071247100830078125</LongitudeDegrees>
            </Position>
            <AltitudeMeters>626.79998779296875</AltitudeMeters>
            <DistanceMeters>12219.812816082</DistanceMeters>
          </Trackpoint>
          <Trackpoint>
            <Time>2022-08-26T23:10:55.000Z</Time>
            <Position>
              <LatitudeDegrees>50.15271789394319057464599609375</LatitudeDegrees>
              <LongitudeDegrees>17.007943354547023773193359375</LongitudeDegrees>
            </Position>
            <AltitudeMeters>626.79998779296875</AltitudeMeters>
            <DistanceMeters>12220.992066595</DistanceMeters>
          </Trackpoint>
          <Trackpoint>
            <Time>2022-08-26T23:11:00.000Z</Time>
            <Position>
              <LatitudeDegrees>50.15270532108843326568603515625</LatitudeDegrees>
              <LongitudeDegrees>17.0080424286425113677978515625</LongitudeDegrees>
            </Position>
            <AltitudeMeters>626.5999755859375</AltitudeMeters>
            <DistanceMeters>12228.195317198</DistanceMeters>
          </Trackpoint>
          <Trackpoint>
            <Time>2022-08-26T23:11:02.000Z</Time>
            <Position>
              <LatitudeDegrees>50.15270766802132129669189453125</LatitudeDegrees>
              <LongitudeDegrees>17.0080732740461826324462890625</LongitudeDegrees>
            </Position>
            <AltitudeMeters>626.5999755859375</AltitudeMeters>
            <DistanceMeters>12230.411701999</DistanceMeters>
          </Trackpoint>
          <Trackpoint>
            <Time>2022-08-26T23:11:04.000Z</Time>
            <Position>
              <LatitudeDegrees>50.15271864831447601318359375</LatitudeDegrees>
              <LongitudeDegrees>17.00812951661646366119384765625</LongitudeDegrees>
            </Position>
            <AltitudeMeters>626.4000244140625</AltitudeMeters>
            <DistanceMeters>12234.605815602</DistanceMeters>
          </Trackpoint>
          <Trackpoint>
            <Time>2022-08-26T23:11:08.000Z</Time>
            <Position>
              <LatitudeDegrees>50.1527179777622222900390625</LatitudeDegrees>
              <LongitudeDegrees>17.0082382299005985260009765625</LongitudeDegrees>
            </Position>
            <AltitudeMeters>626.20001220703125</AltitudeMeters>
            <DistanceMeters>12242.358504736</DistanceMeters>
          </Trackpoint>
          <Trackpoint>
            <Time>2022-08-26T23:11:10.000Z</Time>
            <Position>
              <LatitudeDegrees>50.15270263887941837310791015625</LatitudeDegrees>
              <LongitudeDegrees>17.008308134973049163818359375</LongitudeDegrees>
            </Position>
            <AltitudeMeters>626</AltitudeMeters>
            <DistanceMeters>12247.627134063</DistanceMeters>
          </Trackpoint>
          <Trackpoint>
            <Time>2022-08-26T23:11:11.000Z</Time>
            <Position>
              <LatitudeDegrees>50.15269844792783260345458984375</LatitudeDegrees>
              <LongitudeDegrees>17.00834191404283046722412109375</LongitudeDegrees>
            </Position>
            <AltitudeMeters>626</AltitudeMeters>
            <DistanceMeters>12250.081326596</DistanceMeters>
          </Trackpoint>
          <Trackpoint>
            <Time>2022-08-26T23:11:15.000Z</Time>
            <Position>
              <LatitudeDegrees>50.1526983641088008880615234375</LatitudeDegrees>
              <LongitudeDegrees>17.0084467716515064239501953125</LongitudeDegrees>
            </Position>
            <AltitudeMeters>625.5999755859375</AltitudeMeters>
            <DistanceMeters>12257.56011617</DistanceMeters>
          </Trackpoint>
          <Trackpoint>
            <Time>2022-08-26T23:11:16.000Z</Time>
            <Position>
              <LatitudeDegrees>50.15270012430846691131591796875</LatitudeDegrees>
              <LongitudeDegrees>17.0084561593830585479736328125</LongitudeDegrees>
            </Position>
            <AltitudeMeters>625.4000244140625</AltitudeMeters>
            <DistanceMeters>12258.258417057</DistanceMeters>
          </Trackpoint>
          <Trackpoint>
            <Time>2022-08-26T23:11:18.000Z</Time>
            <Position>
              <LatitudeDegrees>50.1527027226984500885009765625</LatitudeDegrees>
              <LongitudeDegrees>17.00849689543247222900390625</LongitudeDegrees>
            </Position>
            <AltitudeMeters>625.20001220703125</AltitudeMeters>
            <DistanceMeters>12261.178073229</DistanceMeters>
          </Trackpoint>
          <Trackpoint>
            <Time>2022-08-26T23:11:21.000Z</Time>
            <Position>
              <LatitudeDegrees>50.15271973796188831329345703125</LatitudeDegrees>
              <LongitudeDegrees>17.008536122739315032958984375</LongitudeDegrees>
            </Position>
            <AltitudeMeters>624.79998779296875</AltitudeMeters>
            <DistanceMeters>12264.556536877</DistanceMeters>
          </Trackpoint>
          <Trackpoint>
            <Time>2022-08-26T23:11:24.000Z</Time>
            <Position>
              <LatitudeDegrees>50.15273113735020160675048828125</LatitudeDegrees>
              <LongitudeDegrees>17.0085906051099300384521484375</LongitudeDegrees>
            </Position>
            <AltitudeMeters>624.4000244140625</AltitudeMeters>
            <DistanceMeters>12268.643790408</DistanceMeters>
          </Trackpoint>
          <Trackpoint>
            <Time>2022-08-26T23:11:27.000Z</Time>
            <Position>
              <LatitudeDegrees>50.15275779180228710174560546875</LatitudeDegrees>
              <LongitudeDegrees>17.0086442492902278900146484375</LongitudeDegrees>
            </Position>
            <AltitudeMeters>624</AltitudeMeters>
            <DistanceMeters>12273.485492428</DistanceMeters>
          </Trackpoint>
          <Trackpoint>
            <Time>2022-08-26T23:11:32.000Z</Time>
            <Position>
              <LatitudeDegrees>50.152792073786258697509765625</LatitudeDegrees>
              <LongitudeDegrees>17.00873292982578277587890625</LongitudeDegrees>
            </Position>
            <AltitudeMeters>623.20001220703125</AltitudeMeters>
            <DistanceMeters>12280.871947726</DistanceMeters>
          </Trackpoint>
          <Trackpoint>
            <Time>2022-08-26T23:11:38.000Z</Time>
            <Position>
              <LatitudeDegrees>50.15282191336154937744140625</LatitudeDegrees>
              <LongitudeDegrees>17.0088350214064121246337890625</LongitudeDegrees>
            </Position>
            <AltitudeMeters>622.20001220703125</AltitudeMeters>
            <DistanceMeters>12288.874528693</DistanceMeters>
          </Trackpoint>
          <Trackpoint>
            <Time>2022-08-26T23:11:40.000Z</Time>
            <Position>
              <LatitudeDegrees>50.15283591113984584808349609375</LatitudeDegrees>
              <LongitudeDegrees>17.00886695645749568939208984375</LongitudeDegrees>
            </Position>
            <AltitudeMeters>622.20001220703125</AltitudeMeters>
            <DistanceMeters>12291.633578248</DistanceMeters>
          </Trackpoint>
          <Trackpoint>
            <Time>2022-08-26T23:11:47.000Z</Time>
            <Position>
              <LatitudeDegrees>50.152881927788257598876953125</LatitudeDegrees>
              <LongitudeDegrees>17.0089808665215969085693359375</LongitudeDegrees>
            </Position>
            <AltitudeMeters>621.4000244140625</AltitudeMeters>
            <DistanceMeters>12301.236919891</DistanceMeters>
          </Trackpoint>
          <Trackpoint>
            <Time>2022-08-26T23:11:49.000Z</Time>
            <Position>
              <LatitudeDegrees>50.1528968475759029388427734375</LatitudeDegrees>
              <LongitudeDegrees>17.009008191525936126708984375</LongitudeDegrees>
            </Position>
            <AltitudeMeters>621.4000244140625</AltitudeMeters>
            <DistanceMeters>12303.797356475</DistanceMeters>
          </Trackpoint>
          <Trackpoint>
            <Time>2022-08-26T23:11:54.000Z</Time>
            <Position>
              <LatitudeDegrees>50.15296407043933868408203125</LatitudeDegrees>
              <LongitudeDegrees>17.009061165153980255126953125</LongitudeDegrees>
            </Position>
            <AltitudeMeters>621.4000244140625</AltitudeMeters>
            <DistanceMeters>12312.179122084</DistanceMeters>
          </Trackpoint>
          <Trackpoint>
            <Time>2022-08-26T23:12:04.000Z</Time>
            <Position>
              <LatitudeDegrees>50.1530849374830722808837890625</LatitudeDegrees>
              <LongitudeDegrees>17.0091692917048931121826171875</LongitudeDegrees>
            </Position>
            <AltitudeMeters>621.5999755859375</AltitudeMeters>
            <DistanceMeters>12327.685082725</DistanceMeters>
          </Trackpoint>
          <Trackpoint>
            <Time>2022-08-26T23:12:12.000Z</Time>
            <Position>
              <LatitudeDegrees>50.1531846821308135986328125</LatitudeDegrees>
              <LongitudeDegrees>17.00924028642475605010986328125</LongitudeDegrees>
            </Position>
            <AltitudeMeters>622</AltitudeMeters>
            <DistanceMeters>12339.887045699</DistanceMeters>
          </Trackpoint>
          <Trackpoint>
            <Time>2022-08-26T23:12:21.000Z</Time>
            <Position>
              <LatitudeDegrees>50.1532934792339801788330078125</LatitudeDegrees>
              <LongitudeDegrees>17.0093184895813465118408203125</LongitudeDegrees>
            </Position>
            <AltitudeMeters>622.5999755859375</AltitudeMeters>
            <DistanceMeters>12353.219263246</DistanceMeters>
          </Trackpoint>
          <Trackpoint>
            <Time>2022-08-26T23:12:33.000Z</Time>
            <Position>
              <LatitudeDegrees>50.15343538485467433929443359375</LatitudeDegrees>
              <LongitudeDegrees>17.00942083261907100677490234375</LongitudeDegrees>
            </Position>
            <AltitudeMeters>623</AltitudeMeters>
            <DistanceMeters>12370.618496355</DistanceMeters>
          </Trackpoint>
          <Trackpoint>
            <Time>2022-08-26T23:12:38.000Z</Time>
            <Position>
              <LatitudeDegrees>50.15349355526268482208251953125</LatitudeDegrees>
              <LongitudeDegrees>17.00946324504911899566650390625</LongitudeDegrees>
            </Position>
            <AltitudeMeters>623.4000244140625</AltitudeMeters>
            <DistanceMeters>12377.764480002</DistanceMeters>
          </Trackpoint>
          <Trackpoint>
            <Time>2022-08-26T23:12:45.000Z</Time>
            <Position>
              <LatitudeDegrees>50.15357485972344875335693359375</LatitudeDegrees>
              <LongitudeDegrees>17.009521834552288055419921875</LongitudeDegrees>
            </Position>
            <AltitudeMeters>623.79998779296875</AltitudeMeters>
            <DistanceMeters>12387.73187189</DistanceMeters>
          </Trackpoint>
          <Trackpoint>
            <Time>2022-08-26T23:12:55.000Z</Time>
            <Position>
              <LatitudeDegrees>50.1536803878843784332275390625</LatitudeDegrees>
              <LongitudeDegrees>17.00960255227982997894287109375</LongitudeDegrees>
            </Position>
            <AltitudeMeters>624.20001220703125</AltitudeMeters>
            <DistanceMeters>12400.812118767</DistanceMeters>
          </Trackpoint>
          <Trackpoint>
            <Time>2022-08-26T23:12:57.000Z</Time>
            <Position>
              <LatitudeDegrees>50.1537023484706878662109375</LatitudeDegrees>
              <LongitudeDegrees>17.009614370763301849365234375</LongitudeDegrees>
            </Position>
            <AltitudeMeters>624.4000244140625</AltitudeMeters>
            <DistanceMeters>12403.397124874</DistanceMeters>
          </Trackpoint>
          <Trackpoint>
            <Time>2022-08-26T23:13:03.000Z</Time>
            <Position>
              <LatitudeDegrees>50.15376093797385692596435546875</LatitudeDegrees>
              <LongitudeDegrees>17.00964848510921001434326171875</LongitudeDegrees>
            </Position>
            <AltitudeMeters>624.79998779296875</AltitudeMeters>
            <DistanceMeters>12410.356818117</DistanceMeters>
          </Trackpoint>
          <Trackpoint>
            <Time>2022-08-26T23:13:13.000Z</Time>
            <Position>
              <LatitudeDegrees>50.1538751833140850067138671875</LatitudeDegrees>
              <LongitudeDegrees>17.0097474753856658935546875</LongitudeDegrees>
            </Position>
            <AltitudeMeters>625.20001220703125</AltitudeMeters>
            <DistanceMeters>12424.900562842</DistanceMeters>
          </Trackpoint>
          <Trackpoint>
            <Time>2022-08-26T23:13:17.000Z</Time>
            <Position>
              <LatitudeDegrees>50.15392220579087734222412109375</LatitudeDegrees>
              <LongitudeDegrees>17.00978058390319347381591796875</LongitudeDegrees>
            </Position>
            <AltitudeMeters>625.4000244140625</AltitudeMeters>
            <DistanceMeters>12430.643196312</DistanceMeters>
          </Trackpoint>
          <Trackpoint>
            <Time>2022-08-26T23:13:24.000Z</Time>
            <Position>
              <LatitudeDegrees>50.15400879085063934326171875</LatitudeDegrees>
              <LongitudeDegrees>17.00984110124409198760986328125</LongitudeDegrees>
            </Position>
            <AltitudeMeters>625.5999755859375</AltitudeMeters>
            <DistanceMeters>12441.202284997</DistanceMeters>
          </Trackpoint>
          <Trackpoint>
            <Time>2022-08-26T23:13:34.000Z</Time>
            <Position>
              <LatitudeDegrees>50.154120437800884246826171875</LatitudeDegrees>
              <LongitudeDegrees>17.0099434442818164825439453125</LongitudeDegrees>
            </Position>
            <AltitudeMeters>626.20001220703125</AltitudeMeters>
            <DistanceMeters>12455.613486478</DistanceMeters>
          </Trackpoint>
          <Trackpoint>
            <Time>2022-08-26T23:13:39.000Z</Time>
            <Position>
              <LatitudeDegrees>50.15419193543493747711181640625</LatitudeDegrees>
              <LongitudeDegrees>17.010003626346588134765625</LongitudeDegrees>
            </Position>
            <AltitudeMeters>626.5999755859375</AltitudeMeters>
            <DistanceMeters>12464.655017435</DistanceMeters>
          </Trackpoint>
          <Trackpoint>
            <Time>2022-08-26T23:13:44.000Z</Time>
            <Position>
              <LatitudeDegrees>50.15425094403326511383056640625</LatitudeDegrees>
              <LongitudeDegrees>17.0100651495158672332763671875</LongitudeDegrees>
            </Position>
            <AltitudeMeters>627</AltitudeMeters>
            <DistanceMeters>12472.553103791</DistanceMeters>
          </Trackpoint>
          <Trackpoint>
            <Time>2022-08-26T23:13:45.000Z</Time>
            <Position>
              <LatitudeDegrees>50.15426234342157840728759765625</LatitudeDegrees>
              <LongitudeDegrees>17.01007395051419734954833984375</LongitudeDegrees>
            </Position>
            <AltitudeMeters>627</AltitudeMeters>
            <DistanceMeters>12473.965777459</DistanceMeters>
          </Trackpoint>
          <Trackpoint>
            <Time>2022-08-26T23:13:51.000Z</Time>
            <Position>
              <LatitudeDegrees>50.1543237827718257904052734375</LatitudeDegrees>
              <LongitudeDegrees>17.010128013789653778076171875</LongitudeDegrees>
            </Position>
            <AltitudeMeters>627.20001220703125</AltitudeMeters>
            <DistanceMeters>12481.815697309</DistanceMeters>
          </Trackpoint>
          <Trackpoint>
            <Time>2022-08-26T23:13:58.000Z</Time>
            <Position>
              <LatitudeDegrees>50.15439276583492755889892578125</LatitudeDegrees>
              <LongitudeDegrees>17.01019364409148693084716796875</LongitudeDegrees>
            </Position>
            <AltitudeMeters>627.5999755859375</AltitudeMeters>
            <DistanceMeters>12490.807655076</DistanceMeters>
          </Trackpoint>
          <Trackpoint>
            <Time>2022-08-26T23:13:59.000Z</Time>
            <Position>
              <LatitudeDegrees>50.154406763613224029541015625</LatitudeDegrees>
              <LongitudeDegrees>17.01021258719265460968017578125</LongitudeDegrees>
            </Position>
            <AltitudeMeters>627.5999755859375</AltitudeMeters>
            <DistanceMeters>12492.867785152</DistanceMeters>
          </Trackpoint>
          <Trackpoint>
            <Time>2022-08-26T23:14:05.000Z</Time>
            <Position>
              <LatitudeDegrees>50.15449033118784427642822265625</LatitudeDegrees>
              <LongitudeDegrees>17.01029992662370204925537109375</LongitudeDegrees>
            </Position>
            <AltitudeMeters>627.79998779296875</AltitudeMeters>
            <DistanceMeters>12504.061593295</DistanceMeters>
          </Trackpoint>
          <Trackpoint>
            <Time>2022-08-26T23:14:16.000Z</Time>
            <Position>
              <LatitudeDegrees>50.1546355895698070526123046875</LatitudeDegrees>
              <LongitudeDegrees>17.0104300975799560546875</LongitudeDegrees>
            </Position>
            <AltitudeMeters>628</AltitudeMeters>
            <DistanceMeters>12522.704759397</DistanceMeters>
          </Trackpoint>
          <Trackpoint>
            <Time>2022-08-26T23:14:25.000Z</Time>
            <Position>
              <LatitudeDegrees>50.15473223291337490081787109375</LatitudeDegrees>
              <LongitudeDegrees>17.0105238072574138641357421875</LongitudeDegrees>
            </Position>
            <AltitudeMeters>628.4000244140625</AltitudeMeters>
            <DistanceMeters>12535.367938204</DistanceMeters>
          </Trackpoint>
          <Trackpoint>
            <Time>2022-08-26T23:14:29.000Z</Time>
            <Position>
              <LatitudeDegrees>50.15477883629500865936279296875</LatitudeDegrees>
              <LongitudeDegrees>17.0105623640120029449462890625</LongitudeDegrees>
            </Position>
            <AltitudeMeters>628.5999755859375</AltitudeMeters>
            <DistanceMeters>12541.238097632</DistanceMeters>
          </Trackpoint>
          <Trackpoint>
            <Time>2022-08-26T23:14:34.000Z</Time>
            <Position>
              <LatitudeDegrees>50.154827535152435302734375</LatitudeDegrees>
              <LongitudeDegrees>17.01060553081333637237548828125</LongitudeDegrees>
            </Position>
            <AltitudeMeters>628.79998779296875</AltitudeMeters>
            <DistanceMeters>12547.471589345</DistanceMeters>
          </Trackpoint>
          <Trackpoint>
            <Time>2022-08-26T23:14:42.000Z</Time>
            <Position>
              <LatitudeDegrees>50.1549138687551021575927734375</LatitudeDegrees>
              <LongitudeDegrees>17.01068314723670482635498046875</LongitudeDegrees>
            </Position>
            <AltitudeMeters>629.20001220703125</AltitudeMeters>
            <DistanceMeters>12558.560844551</DistanceMeters>
          </Trackpoint>
          <Trackpoint>
            <Time>2022-08-26T23:14:50.000Z</Time>
            <Position>
              <LatitudeDegrees>50.1549879647791385650634765625</LatitudeDegrees>
              <LongitudeDegrees>17.0107414014637470245361328125</LongitudeDegrees>
            </Position>
            <AltitudeMeters>629.79998779296875</AltitudeMeters>
            <DistanceMeters>12567.795074993</DistanceMeters>
          </Trackpoint>
          <Trackpoint>
            <Time>2022-08-26T23:14:51.000Z</Time>
            <Position>
              <LatitudeDegrees>50.15500313602387905120849609375</LatitudeDegrees>
              <LongitudeDegrees>17.01074802316725254058837890625</LongitudeDegrees>
            </Position>
            <AltitudeMeters>629.79998779296875</AltitudeMeters>
            <DistanceMeters>12569.547281028</DistanceMeters>
          </Trackpoint>
          <Trackpoint>
            <Time>2022-08-26T23:14:57.000Z</Time>
            <Position>
              <LatitudeDegrees>50.1550724543631076812744140625</LatitudeDegrees>
              <LongitudeDegrees>17.010799907147884368896484375</LongitudeDegrees>
            </Position>
            <AltitudeMeters>630.4000244140625</AltitudeMeters>
            <DistanceMeters>12578.103907689</DistanceMeters>
          </Trackpoint>
          <Trackpoint>
            <Time>2022-08-26T23:15:04.000Z</Time>
            <Position>
              <LatitudeDegrees>50.15513590537011623382568359375</LatitudeDegrees>
              <LongitudeDegrees>17.01090543530881404876708984375</LongitudeDegrees>
            </Position>
            <AltitudeMeters>630.79998779296875</AltitudeMeters>
            <DistanceMeters>12588.42382637</DistanceMeters>
          </Trackpoint>
          <Trackpoint>
            <Time>2022-08-26T23:15:06.000Z</Time>
            <Position>
              <LatitudeDegrees>50.1551478914916515350341796875</LatitudeDegrees>
              <LongitudeDegrees>17.0109294913709163665771484375</LongitudeDegrees>
            </Position>
            <AltitudeMeters>630.79998779296875</AltitudeMeters>
            <DistanceMeters>12590.597010665</DistanceMeters>
          </Trackpoint>
          <Trackpoint>
            <Time>2022-08-26T23:15:11.000Z</Time>
            <Position>
              <LatitudeDegrees>50.15518737025558948516845703125</LatitudeDegrees>
              <LongitudeDegrees>17.010986991226673126220703125</LongitudeDegrees>
            </Position>
            <AltitudeMeters>631.20001220703125</AltitudeMeters>
            <DistanceMeters>12596.607027784</DistanceMeters>
          </Trackpoint>
          <Trackpoint>
            <Time>2022-08-26T23:15:13.000Z</Time>
            <Position>
              <LatitudeDegrees>50.15521100722253322601318359375</LatitudeDegrees>
              <LongitudeDegrees>17.01101222075521945953369140625</LongitudeDegrees>
            </Position>
            <AltitudeMeters>631.4000244140625</AltitudeMeters>
            <DistanceMeters>12599.79290379</DistanceMeters>
          </Trackpoint>
          <Trackpoint>
            <Time>2022-08-26T23:15:17.000Z</Time>
            <Position>
              <LatitudeDegrees>50.15525610186159610748291015625</LatitudeDegrees>
              <LongitudeDegrees>17.011072151362895965576171875</LongitudeDegrees>
            </Position>
            <AltitudeMeters>631.4000244140625</AltitudeMeters>
            <DistanceMeters>12606.384772102</DistanceMeters>
          </Trackpoint>
          <Trackpoint>
            <Time>2022-08-26T23:15:23.000Z</Time>
            <Position>
              <LatitudeDegrees>50.1553084887564182281494140625</LatitudeDegrees>
              <LongitudeDegrees>17.01115437783300876617431640625</LongitudeDegrees>
            </Position>
            <AltitudeMeters>632</AltitudeMeters>
            <DistanceMeters>12614.654826454</DistanceMeters>
          </Trackpoint>
          <Trackpoint>
            <Time>2022-08-26T23:15:25.000Z</Time>
            <Position>
              <LatitudeDegrees>50.155323408544063568115234375</LatitudeDegrees>
              <LongitudeDegrees>17.01117918826639652252197265625</LongitudeDegrees>
            </Position>
            <AltitudeMeters>632.20001220703125</AltitudeMeters>
            <DistanceMeters>12617.0812662</DistanceMeters>
          </Trackpoint>
          <Trackpoint>
            <Time>2022-08-26T23:15:34.000Z</Time>
            <Position>
              <LatitudeDegrees>50.15538753010332584381103515625</LatitudeDegrees>
              <LongitudeDegrees>17.01128547079861164093017578125</LongitudeDegrees>
            </Position>
            <AltitudeMeters>633</AltitudeMeters>
            <DistanceMeters>12627.492222331</DistanceMeters>
          </Trackpoint>
          <Trackpoint>
            <Time>2022-08-26T23:15:47.000Z</Time>
            <Position>
              <LatitudeDegrees>50.1554563455283641815185546875</LatitudeDegrees>
              <LongitudeDegrees>17.01143902726471424102783203125</LongitudeDegrees>
            </Position>
            <AltitudeMeters>633.79998779296875</AltitudeMeters>
            <DistanceMeters>12640.855559929</DistanceMeters>
          </Trackpoint>
          <Trackpoint>
            <Time>2022-08-26T23:15:52.000Z</Time>
            <Position>
              <LatitudeDegrees>50.15549448318779468536376953125</LatitudeDegrees>
              <LongitudeDegrees>17.0114954374730587005615234375</LongitudeDegrees>
            </Position>
            <AltitudeMeters>634</AltitudeMeters>
            <DistanceMeters>12646.704143482</DistanceMeters>
          </Trackpoint>
          <Trackpoint>
            <Time>2022-08-26T23:15:58.000Z</Time>
            <Position>
              <LatitudeDegrees>50.15554041601717472076416015625</LatitudeDegrees>
              <LongitudeDegrees>17.01156157068908214569091796875</LongitudeDegrees>
            </Position>
            <AltitudeMeters>634.4000244140625</AltitudeMeters>
            <DistanceMeters>12653.65994319</DistanceMeters>
          </Trackpoint>
          <Trackpoint>
            <Time>2022-08-26T23:16:04.000Z</Time>
            <Position>
              <LatitudeDegrees>50.15557846985757350921630859375</LatitudeDegrees>
              <LongitudeDegrees>17.01161219738423824310302734375</LongitudeDegrees>
            </Position>
            <AltitudeMeters>635</AltitudeMeters>
            <DistanceMeters>12659.225296926</DistanceMeters>
          </Trackpoint>
          <Trackpoint>
            <Time>2022-08-26T23:16:09.000Z</Time>
            <Position>
              <LatitudeDegrees>50.155600346624851226806640625</LatitudeDegrees>
              <LongitudeDegrees>17.01163918711245059967041015625</LongitudeDegrees>
            </Position>
            <AltitudeMeters>635.20001220703125</AltitudeMeters>
            <DistanceMeters>12662.327886407</DistanceMeters>
          </Trackpoint>
          <Trackpoint>
            <Time>2022-08-26T23:16:20.000Z</Time>
            <Position>
              <LatitudeDegrees>50.15571325086057186126708984375</LatitudeDegrees>
              <LongitudeDegrees>17.0117522589862346649169921875</LongitudeDegrees>
            </Position>
            <AltitudeMeters>636</AltitudeMeters>
            <DistanceMeters>12677.258878579</DistanceMeters>
          </Trackpoint>
          <Trackpoint>
            <Time>2022-08-26T23:16:23.000Z</Time>
            <Position>
              <LatitudeDegrees>50.155727751553058624267578125</LatitudeDegrees>
              <LongitudeDegrees>17.01178771443665027618408203125</LongitudeDegrees>
            </Position>
            <AltitudeMeters>636.20001220703125</AltitudeMeters>
            <DistanceMeters>12680.260880627</DistanceMeters>
          </Trackpoint>
          <Trackpoint>
            <Time>2022-08-26T23:16:31.000Z</Time>
            <Position>
              <LatitudeDegrees>50.15580461360514163970947265625</LatitudeDegrees>
              <LongitudeDegrees>17.01186952181160449981689453125</LongitudeDegrees>
            </Position>
            <AltitudeMeters>637</AltitudeMeters>
            <DistanceMeters>12690.616176748</DistanceMeters>
          </Trackpoint>
          <Trackpoint>
            <Time>2022-08-26T23:16:36.000Z</Time>
            <Position>
              <LatitudeDegrees>50.15586513094604015350341796875</LatitudeDegrees>
              <LongitudeDegrees>17.01194210909307003021240234375</LongitudeDegrees>
            </Position>
            <AltitudeMeters>637.4000244140625</AltitudeMeters>
            <DistanceMeters>12699.111373682</DistanceMeters>
          </Trackpoint>
          <Trackpoint>
            <Time>2022-08-26T23:16:42.000Z</Time>
            <Position>
              <LatitudeDegrees>50.15592061914503574371337890625</LatitudeDegrees>
              <LongitudeDegrees>17.012031376361846923828125</LongitudeDegrees>
            </Position>
            <AltitudeMeters>637.79998779296875</AltitudeMeters>
            <DistanceMeters>12707.980986186</DistanceMeters>
          </Trackpoint>
          <Trackpoint>
            <Time>2022-08-26T23:16:48.000Z</Time>
            <Position>
              <LatitudeDegrees>50.15597543679177761077880859375</LatitudeDegrees>
              <LongitudeDegrees>17.01211142353713512420654296875</LongitudeDegrees>
            </Position>
            <AltitudeMeters>638.4000244140625</AltitudeMeters>
            <DistanceMeters>12716.336315084</DistanceMeters>
          </Trackpoint>
          <Trackpoint>
            <Time>2022-08-26T23:16:56.000Z</Time>
            <Position>
              <LatitudeDegrees>50.15601516701281070709228515625</LatitudeDegrees>
              <LongitudeDegrees>17.01220898889005184173583984375</LongitudeDegrees>
            </Position>
            <AltitudeMeters>639.20001220703125</AltitudeMeters>
            <DistanceMeters>12724.580122173</DistanceMeters>
          </Trackpoint>
          <Trackpoint>
            <Time>2022-08-26T23:17:01.000Z</Time>
            <Position>
              <LatitudeDegrees>50.15604819171130657196044921875</LatitudeDegrees>
              <LongitudeDegrees>17.01227051205933094024658203125</LongitudeDegrees>
            </Position>
            <AltitudeMeters>639.4000244140625</AltitudeMeters>
            <DistanceMeters>12730.303854988</DistanceMeters>
          </Trackpoint>
          <Trackpoint>
            <Time>2022-08-26T23:17:09.000Z</Time>
            <Position>
              <LatitudeDegrees>50.1560920290648937225341796875</LatitudeDegrees>
              <LongitudeDegrees>17.01235592365264892578125</LongitudeDegrees>
            </Position>
            <AltitudeMeters>640.20001220703125</AltitudeMeters>
            <DistanceMeters>12738.108782642</DistanceMeters>
          </Trackpoint>
          <Trackpoint>
            <Time>2022-08-26T23:17:13.000Z</Time>
            <Position>
              <LatitudeDegrees>50.15611843205988407135009765625</LatitudeDegrees>
              <LongitudeDegrees>17.01239204965531826019287109375</LongitudeDegrees>
            </Position>
            <AltitudeMeters>640.79998779296875</AltitudeMeters>
            <DistanceMeters>12742.017604632</DistanceMeters>
          </Trackpoint>
          <Trackpoint>
            <Time>2022-08-26T23:17:21.000Z</Time>
            <Position>
              <LatitudeDegrees>50.15616436488926410675048828125</LatitudeDegrees>
              <LongitudeDegrees>17.01247385703027248382568359375</LongitudeDegrees>
            </Position>
            <AltitudeMeters>641.79998779296875</AltitudeMeters>
            <DistanceMeters>12749.77378728</DistanceMeters>
          </Trackpoint>
          <Trackpoint>
            <Time>2022-08-26T23:17:22.000Z</Time>
            <Position>
              <LatitudeDegrees>50.1561714895069599151611328125</LatitudeDegrees>
              <LongitudeDegrees>17.0124865137040615081787109375</LongitudeDegrees>
            </Position>
            <AltitudeMeters>641.79998779296875</AltitudeMeters>
            <DistanceMeters>12750.972028555</DistanceMeters>
          </Trackpoint>
          <Trackpoint>
            <Time>2022-08-26T23:17:36.000Z</Time>
            <Position>
              <LatitudeDegrees>50.1562241278588771820068359375</LatitudeDegrees>
              <LongitudeDegrees>17.0126404054462909698486328125</LongitudeDegrees>
            </Position>
            <AltitudeMeters>643</AltitudeMeters>
            <DistanceMeters>12763.412183301</DistanceMeters>
          </Trackpoint>
          <Trackpoint>
            <Time>2022-08-26T23:17:47.000Z</Time>
            <Position>
              <LatitudeDegrees>50.156316496431827545166015625</LatitudeDegrees>
              <LongitudeDegrees>17.01281282119452953338623046875</LongitudeDegrees>
            </Position>
            <AltitudeMeters>643.79998779296875</AltitudeMeters>
            <DistanceMeters>12779.439333844</DistanceMeters>
          </Trackpoint>
          <Trackpoint>
            <Time>2022-08-26T23:17:49.000Z</Time>
            <Position>
              <LatitudeDegrees>50.156334936618804931640625</LatitudeDegrees>
              <LongitudeDegrees>17.01284534297883510589599609375</LongitudeDegrees>
            </Position>
            <AltitudeMeters>644</AltitudeMeters>
            <DistanceMeters>12782.537554504</DistanceMeters>
          </Trackpoint>
          <Trackpoint>
            <Time>2022-08-26T23:17:59.000Z</Time>
            <Position>
              <LatitudeDegrees>50.15642303042113780975341796875</LatitudeDegrees>
              <LongitudeDegrees>17.01297425664961338043212890625</LongitudeDegrees>
            </Position>
            <AltitudeMeters>645.20001220703125</AltitudeMeters>
            <DistanceMeters>12795.977705143</DistanceMeters>
          </Trackpoint>
          <Trackpoint>
            <Time>2022-08-26T23:18:11.000Z</Time>
            <Position>
              <LatitudeDegrees>50.15654750168323516845703125</LatitudeDegrees>
              <LongitudeDegrees>17.0131667889654636383056640625</LongitudeDegrees>
            </Position>
            <AltitudeMeters>646.20001220703125</AltitudeMeters>
            <DistanceMeters>12815.482039544</DistanceMeters>
          </Trackpoint>
          <Trackpoint>
            <Time>2022-08-26T23:18:13.000Z</Time>
            <Position>
              <LatitudeDegrees>50.15656133182346820831298828125</LatitudeDegrees>
              <LongitudeDegrees>17.013195455074310302734375</LongitudeDegrees>
            </Position>
            <AltitudeMeters>646.4000244140625</AltitudeMeters>
            <DistanceMeters>12818.038946923</DistanceMeters>
          </Trackpoint>
          <Trackpoint>
            <Time>2022-08-26T23:18:24.000Z</Time>
            <Position>
              <LatitudeDegrees>50.15661614947021007537841796875</LatitudeDegrees>
              <LongitudeDegrees>17.0133438147604465484619140625</LongitudeDegrees>
            </Position>
            <AltitudeMeters>647.4000244140625</AltitudeMeters>
            <DistanceMeters>12830.252005619</DistanceMeters>
          </Trackpoint>
          <Trackpoint>
            <Time>2022-08-26T23:18:37.000Z</Time>
            <Position>
              <LatitudeDegrees>50.156757049262523651123046875</LatitudeDegrees>
              <LongitudeDegrees>17.013623602688312530517578125</LongitudeDegrees>
            </Position>
            <AltitudeMeters>648.5999755859375</AltitudeMeters>
            <DistanceMeters>12855.629298457</DistanceMeters>
          </Trackpoint>
          <Trackpoint>
            <Time>2022-08-26T23:18:49.000Z</Time>
            <Position>
              <LatitudeDegrees>50.156891159713268280029296875</LatitudeDegrees>
              <LongitudeDegrees>17.01383977197110652923583984375</LongitudeDegrees>
            </Position>
            <AltitudeMeters>649.79998779296875</AltitudeMeters>
            <DistanceMeters>12877.087247984</DistanceMeters>
          </Trackpoint>
          <Trackpoint>
            <Time>2022-08-26T23:18:50.000Z</Time>
            <Position>
              <LatitudeDegrees>50.1569030620157718658447265625</LatitudeDegrees>
              <LongitudeDegrees>17.0138567872345447540283203125</LongitudeDegrees>
            </Position>
            <AltitudeMeters>649.79998779296875</AltitudeMeters>
            <DistanceMeters>12878.885237797</DistanceMeters>
          </Trackpoint>
          <Trackpoint>
            <Time>2022-08-26T23:19:00.000Z</Time>
            <Position>
              <LatitudeDegrees>50.1569982804358005523681640625</LatitudeDegrees>
              <LongitudeDegrees>17.013987042009830474853515625</LongitudeDegrees>
            </Position>
            <AltitudeMeters>651</AltitudeMeters>
            <DistanceMeters>12892.97773478</DistanceMeters>
          </Trackpoint>
          <Trackpoint>
            <Time>2022-08-26T23:19:02.000Z</Time>
            <Position>
              <LatitudeDegrees>50.15701831318438053131103515625</LatitudeDegrees>
              <LongitudeDegrees>17.01401126570999622344970703125</LongitudeDegrees>
            </Position>
            <AltitudeMeters>651.20001220703125</AltitudeMeters>
            <DistanceMeters>12895.799884213</DistanceMeters>
          </Trackpoint>
          <Trackpoint>
            <Time>2022-08-26T23:19:12.000Z</Time>
            <Position>
              <LatitudeDegrees>50.157072544097900390625</LatitudeDegrees>
              <LongitudeDegrees>17.01412861235439777374267578125</LongitudeDegrees>
            </Position>
            <AltitudeMeters>652</AltitudeMeters>
            <DistanceMeters>12906.118052717</DistanceMeters>
          </Trackpoint>
          <Trackpoint>
            <Time>2022-08-26T23:19:16.000Z</Time>
            <Position>
              <LatitudeDegrees>50.15717647969722747802734375</LatitudeDegrees>
              <LongitudeDegrees>17.01423388905823230743408203125</LongitudeDegrees>
            </Position>
            <AltitudeMeters>652.4000244140625</AltitudeMeters>
            <DistanceMeters>12919.90904507</DistanceMeters>
          </Trackpoint>
          <Trackpoint>
            <Time>2022-08-26T23:19:21.000Z</Time>
            <Position>
              <LatitudeDegrees>50.15724278055131435394287109375</LatitudeDegrees>
              <LongitudeDegrees>17.01432324014604091644287109375</LongitudeDegrees>
            </Position>
            <AltitudeMeters>653</AltitudeMeters>
            <DistanceMeters>12929.658434007</DistanceMeters>
          </Trackpoint>
          <Trackpoint>
            <Time>2022-08-26T23:19:24.000Z</Time>
            <Position>
              <LatitudeDegrees>50.15727429650723934173583984375</LatitudeDegrees>
              <LongitudeDegrees>17.01436548493802547454833984375</LongitudeDegrees>
            </Position>
            <AltitudeMeters>653.5999755859375</AltitudeMeters>
            <DistanceMeters>12934.282633507</DistanceMeters>
          </Trackpoint>
          <Trackpoint>
            <Time>2022-08-26T23:19:31.000Z</Time>
            <Position>
              <LatitudeDegrees>50.15732140280306339263916015625</LatitudeDegrees>
              <LongitudeDegrees>17.014454416930675506591796875</LongitudeDegrees>
            </Position>
            <AltitudeMeters>654</AltitudeMeters>
            <DistanceMeters>12942.511091028</DistanceMeters>
          </Trackpoint>
          <Trackpoint>
            <Time>2022-08-26T23:19:32.000Z</Time>
            <Position>
              <LatitudeDegrees>50.15732576139271259307861328125</LatitudeDegrees>
              <LongitudeDegrees>17.014469169080257415771484375</LongitudeDegrees>
            </Position>
            <AltitudeMeters>654.20001220703125</AltitudeMeters>
            <DistanceMeters>12943.667140903</DistanceMeters>
          </Trackpoint>
          <Trackpoint>
            <Time>2022-08-26T23:19:38.000Z</Time>
            <Position>
              <LatitudeDegrees>50.1573677547276020050048828125</LatitudeDegrees>
              <LongitudeDegrees>17.01453999616205692291259765625</LongitudeDegrees>
            </Position>
            <AltitudeMeters>655</AltitudeMeters>
            <DistanceMeters>12950.548544893</DistanceMeters>
          </Trackpoint>
          <Trackpoint>
            <Time>2022-08-26T23:19:42.000Z</Time>
            <Position>
              <LatitudeDegrees>50.1573996059596538543701171875</LatitudeDegrees>
              <LongitudeDegrees>17.01459649018943309783935546875</LongitudeDegrees>
            </Position>
            <AltitudeMeters>655.4000244140625</AltitudeMeters>
            <DistanceMeters>12955.915661797</DistanceMeters>
          </Trackpoint>
          <Trackpoint>
            <Time>2022-08-26T23:19:46.000Z</Time>
            <Position>
              <LatitudeDegrees>50.157434642314910888671875</LatitudeDegrees>
              <LongitudeDegrees>17.0146534033119678497314453125</LongitudeDegrees>
            </Position>
            <AltitudeMeters>655.5999755859375</AltitudeMeters>
            <DistanceMeters>12961.543939346</DistanceMeters>
          </Trackpoint>
          <Trackpoint>
            <Time>2022-08-26T23:19:53.000Z</Time>
            <Position>
              <LatitudeDegrees>50.15749440528452396392822265625</LatitudeDegrees>
              <LongitudeDegrees>17.01475021429359912872314453125</LongitudeDegrees>
            </Position>
            <AltitudeMeters>656.4000244140625</AltitudeMeters>
            <DistanceMeters>12971.130811518</DistanceMeters>
          </Trackpoint>
          <Trackpoint>
            <Time>2022-08-26T23:20:02.000Z</Time>
            <Position>
              <LatitudeDegrees>50.15757478773593902587890625</LatitudeDegrees>
              <LongitudeDegrees>17.01486320234835147857666015625</LongitudeDegrees>
            </Position>
            <AltitudeMeters>657.4000244140625</AltitudeMeters>
            <DistanceMeters>12983.171112479</DistanceMeters>
          </Trackpoint>
          <Trackpoint>
            <Time>2022-08-26T23:20:06.000Z</Time>
            <Position>
              <LatitudeDegrees>50.157607309520244598388671875</LatitudeDegrees>
              <LongitudeDegrees>17.01492237858474254608154296875</LongitudeDegrees>
            </Position>
            <AltitudeMeters>657.5999755859375</AltitudeMeters>
            <DistanceMeters>12988.730784382</DistanceMeters>
          </Trackpoint>
          <Trackpoint>
            <Time>2022-08-26T23:20:10.000Z</Time>
            <Position>
              <LatitudeDegrees>50.157636813819408416748046875</LatitudeDegrees>
              <LongitudeDegrees>17.0149732567369937896728515625</LongitudeDegrees>
            </Position>
            <AltitudeMeters>658</AltitudeMeters>
            <DistanceMeters>12993.624429519</DistanceMeters>
          </Trackpoint>
          <Trackpoint>
            <Time>2022-08-26T23:20:16.000Z</Time>
            <Position>
              <LatitudeDegrees>50.15767344273626804351806640625</LatitudeDegrees>
              <LongitudeDegrees>17.01505112461745738983154296875</LongitudeDegrees>
            </Position>
            <AltitudeMeters>658.79998779296875</AltitudeMeters>
            <DistanceMeters>13000.5123916</DistanceMeters>
          </Trackpoint>
          <Trackpoint>
            <Time>2022-08-26T23:20:18.000Z</Time>
            <Position>
              <LatitudeDegrees>50.15768316574394702911376953125</LatitudeDegrees>
              <LongitudeDegrees>17.015075348317623138427734375</LongitudeDegrees>
            </Position>
            <AltitudeMeters>659</AltitudeMeters>
            <DistanceMeters>13002.550487566</DistanceMeters>
          </Trackpoint>
          <Trackpoint>
            <Time>2022-08-26T23:20:26.000Z</Time>
            <Position>
              <LatitudeDegrees>50.15775022096931934356689453125</LatitudeDegrees>
              <LongitudeDegrees>17.01516930945217609405517578125</LongitudeDegrees>
            </Position>
            <AltitudeMeters>659.79998779296875</AltitudeMeters>
            <DistanceMeters>13012.580196016</DistanceMeters>
          </Trackpoint>
          <Trackpoint>
            <Time>2022-08-26T23:20:34.000Z</Time>
            <Position>
              <LatitudeDegrees>50.157840661704540252685546875</LatitudeDegrees>
              <LongitudeDegrees>17.015275843441486358642578125</LongitudeDegrees>
            </Position>
            <AltitudeMeters>660.4000244140625</AltitudeMeters>
            <DistanceMeters>13025.191211293</DistanceMeters>
          </Trackpoint>
          <Trackpoint>
            <Time>2022-08-26T23:20:41.000Z</Time>
            <Position>
              <LatitudeDegrees>50.15791836194694042205810546875</LatitudeDegrees>
              <LongitudeDegrees>17.01536091975867748260498046875</LongitudeDegrees>
            </Position>
            <AltitudeMeters>661</AltitudeMeters>
            <DistanceMeters>13035.755002502</DistanceMeters>
          </Trackpoint>
          <Trackpoint>
            <Time>2022-08-26T23:20:42.000Z</Time>
            <Position>
              <LatitudeDegrees>50.157929845154285430908203125</LatitudeDegrees>
              <LongitudeDegrees>17.01537567190825939178466796875</LongitudeDegrees>
            </Position>
            <AltitudeMeters>661.20001220703125</AltitudeMeters>
            <DistanceMeters>13037.409122558</DistanceMeters>
          </Trackpoint>
          <Trackpoint>
            <Time>2022-08-26T23:20:51.000Z</Time>
            <Position>
              <LatitudeDegrees>50.15803034417331218719482421875</LatitudeDegrees>
              <LongitudeDegrees>17.0154766738414764404296875</LongitudeDegrees>
            </Position>
            <AltitudeMeters>661.79998779296875</AltitudeMeters>
            <DistanceMeters>13050.713201947</DistanceMeters>
          </Trackpoint>
          <Trackpoint>
            <Time>2022-08-26T23:20:53.000Z</Time>
            <Position>
              <LatitudeDegrees>50.1580502092838287353515625</LatitudeDegrees>
              <LongitudeDegrees>17.01549268327653408050537109375</LongitudeDegrees>
            </Position>
            <AltitudeMeters>662</AltitudeMeters>
            <DistanceMeters>13053.202103801</DistanceMeters>
          </Trackpoint>
          <Trackpoint>
            <Time>2022-08-26T23:20:54.000Z</Time>
            <Position>
              <LatitudeDegrees>50.1580597646534442901611328125</LatitudeDegrees>
              <LongitudeDegrees>17.0154966227710247039794921875</LongitudeDegrees>
            </Position>
            <AltitudeMeters>662</AltitudeMeters>
            <DistanceMeters>13054.302117548</DistanceMeters>
          </Trackpoint>
          <Trackpoint>
            <Time>2022-08-26T23:20:57.000Z</Time>
            <Position>
              <LatitudeDegrees>50.1580939628183841705322265625</LatitudeDegrees>
              <LongitudeDegrees>17.015517912805080413818359375</LongitudeDegrees>
            </Position>
            <AltitudeMeters>662.4000244140625</AltitudeMeters>
            <DistanceMeters>13058.400402822</DistanceMeters>
          </Trackpoint>
          <Trackpoint>
            <Time>2022-08-26T23:21:05.000Z</Time>
            <Position>
              <LatitudeDegrees>50.15819882042706012725830078125</LatitudeDegrees>
              <LongitudeDegrees>17.01560433022677898406982421875</LongitudeDegrees>
            </Position>
            <AltitudeMeters>662.79998779296875</AltitudeMeters>
            <DistanceMeters>13071.59817326</DistanceMeters>
          </Trackpoint>
          <Trackpoint>
            <Time>2022-08-26T23:21:09.000Z</Time>
            <Position>
              <LatitudeDegrees>50.15824944712221622467041015625</LatitudeDegrees>
              <LongitudeDegrees>17.01563718728721141815185546875</LongitudeDegrees>
            </Position>
            <AltitudeMeters>663.20001220703125</AltitudeMeters>
            <DistanceMeters>13077.700634669</DistanceMeters>
          </Trackpoint>
          <Trackpoint>
            <Time>2022-08-26T23:21:13.000Z</Time>
            <Position>
              <LatitudeDegrees>50.158296637237071990966796875</LatitudeDegrees>
              <LongitudeDegrees>17.015674151480197906494140625</LongitudeDegrees>
            </Position>
            <AltitudeMeters>663.5999755859375</AltitudeMeters>
            <DistanceMeters>13083.576944083</DistanceMeters>
          </Trackpoint>
          <Trackpoint>
            <Time>2022-08-26T23:21:20.000Z</Time>
            <Position>
              <LatitudeDegrees>50.1583672128617763519287109375</LatitudeDegrees>
              <LongitudeDegrees>17.01574346981942653656005859375</LongitudeDegrees>
            </Position>
            <AltitudeMeters>664.20001220703125</AltitudeMeters>
            <DistanceMeters>13092.858481093</DistanceMeters>
          </Trackpoint>
          <Trackpoint>
            <Time>2022-08-26T23:21:22.000Z</Time>
            <Position>
              <LatitudeDegrees>50.1583883352577686309814453125</LatitudeDegrees>
              <LongitudeDegrees>17.015759646892547607421875</LongitudeDegrees>
            </Position>
            <AltitudeMeters>664.4000244140625</AltitudeMeters>
            <DistanceMeters>13095.47818682</DistanceMeters>
          </Trackpoint>
          <Trackpoint>
            <Time>2022-08-26T23:21:27.000Z</Time>
            <Position>
              <LatitudeDegrees>50.158437788486480712890625</LatitudeDegrees>
              <LongitudeDegrees>17.015805579721927642822265625</LongitudeDegrees>
            </Position>
            <AltitudeMeters>664.79998779296875</AltitudeMeters>
            <DistanceMeters>13101.883156554</DistanceMeters>
          </Trackpoint>
          <Trackpoint>
            <Time>2022-08-26T23:21:34.000Z</Time>
            <Position>
              <LatitudeDegrees>50.1585137285292148590087890625</LatitudeDegrees>
              <LongitudeDegrees>17.01586433686316013336181640625</LongitudeDegrees>
            </Position>
            <AltitudeMeters>665.20001220703125</AltitudeMeters>
            <DistanceMeters>13111.316682054</DistanceMeters>
          </Trackpoint>
          <Trackpoint>
            <Time>2022-08-26T23:21:38.000Z</Time>
            <Position>
              <LatitudeDegrees>50.1585573144257068634033203125</LatitudeDegrees>
              <LongitudeDegrees>17.0158956013619899749755859375</LongitudeDegrees>
            </Position>
            <AltitudeMeters>665.4000244140625</AltitudeMeters>
            <DistanceMeters>13116.655120145</DistanceMeters>
          </Trackpoint>
          <Trackpoint>
            <Time>2022-08-26T23:21:43.000Z</Time>
            <Position>
              <LatitudeDegrees>50.1585988886654376983642578125</LatitudeDegrees>
              <LongitudeDegrees>17.0159388519823551177978515625</LongitudeDegrees>
            </Position>
            <AltitudeMeters>665.79998779296875</AltitudeMeters>
            <DistanceMeters>13122.215604094</DistanceMeters>
          </Trackpoint>
          <Trackpoint>
            <Time>2022-08-26T23:21:52.000Z</Time>
            <Position>
              <LatitudeDegrees>50.158684216439723968505859375</LatitudeDegrees>
              <LongitudeDegrees>17.01603524386882781982421875</LongitudeDegrees>
            </Position>
            <AltitudeMeters>666.4000244140625</AltitudeMeters>
            <DistanceMeters>13133.939374543</DistanceMeters>
          </Trackpoint>
          <Trackpoint>
            <Time>2022-08-26T23:21:55.000Z</Time>
            <Position>
              <LatitudeDegrees>50.158716402947902679443359375</LatitudeDegrees>
              <LongitudeDegrees>17.01606986112892627716064453125</LongitudeDegrees>
            </Position>
            <AltitudeMeters>666.5999755859375</AltitudeMeters>
            <DistanceMeters>13138.290934069</DistanceMeters>
          </Trackpoint>
          <Trackpoint>
            <Time>2022-08-26T23:21:58.000Z</Time>
            <Position>
              <LatitudeDegrees>50.1587484218180179595947265625</LatitudeDegrees>
              <LongitudeDegrees>17.0160991139709949493408203125</LongitudeDegrees>
            </Position>
            <AltitudeMeters>666.79998779296875</AltitudeMeters>
            <DistanceMeters>13142.419951425</DistanceMeters>
          </Trackpoint>
          <Trackpoint>
            <Time>2022-08-26T23:22:07.000Z</Time>
            <Position>
              <LatitudeDegrees>50.1588446460664272308349609375</LatitudeDegrees>
              <LongitudeDegrees>17.01621302403509616851806640625</LongitudeDegrees>
            </Position>
            <AltitudeMeters>667.20001220703125</AltitudeMeters>
            <DistanceMeters>13155.861781641</DistanceMeters>
          </Trackpoint>
          <Trackpoint>
            <Time>2022-08-26T23:22:13.000Z</Time>
            <Position>
              <LatitudeDegrees>50.158922262489795684814453125</LatitudeDegrees>
              <LongitudeDegrees>17.016279995441436767578125</LongitudeDegrees>
            </Position>
            <AltitudeMeters>667.5999755859375</AltitudeMeters>
            <DistanceMeters>13165.732674449</DistanceMeters>
          </Trackpoint>
          <Trackpoint>
            <Time>2022-08-26T23:22:14.000Z</Time>
            <Position>
              <LatitudeDegrees>50.15893458388745784759521484375</LatitudeDegrees>
              <LongitudeDegrees>17.0162915624678134918212890625</LongitudeDegrees>
            </Position>
            <AltitudeMeters>667.79998779296875</AltitudeMeters>
            <DistanceMeters>13167.331271219</DistanceMeters>
          </Trackpoint>
          <Trackpoint>
            <Time>2022-08-26T23:22:22.000Z</Time>
            <Position>
              <LatitudeDegrees>50.15905863605439662933349609375</LatitudeDegrees>
              <LongitudeDegrees>17.01639608480036258697509765625</LongitudeDegrees>
            </Position>
            <AltitudeMeters>668.4000244140625</AltitudeMeters>
            <DistanceMeters>13183.021617745</DistanceMeters>
          </Trackpoint>
          <Trackpoint>
            <Time>2022-08-26T23:22:29.000Z</Time>
            <Position>
              <LatitudeDegrees>50.159132815897464752197265625</LatitudeDegrees>
              <LongitudeDegrees>17.0164548419415950775146484375</LongitudeDegrees>
            </Position>
            <AltitudeMeters>668.5999755859375</AltitudeMeters>
            <DistanceMeters>13192.280263201</DistanceMeters>
          </Trackpoint>
          <Trackpoint>
            <Time>2022-08-26T23:22:33.000Z</Time>
            <Position>
              <LatitudeDegrees>50.159167684614658355712890625</LatitudeDegrees>
              <LongitudeDegrees>17.01647688634693622589111328125</LongitudeDegrees>
            </Position>
            <AltitudeMeters>669</AltitudeMeters>
            <DistanceMeters>13196.468990756</DistanceMeters>
          </Trackpoint>
          <Trackpoint>
            <Time>2022-08-26T23:22:37.000Z</Time>
            <Position>
              <LatitudeDegrees>50.15921571291983127593994140625</LatitudeDegrees>
              <LongitudeDegrees>17.0165104977786540985107421875</LongitudeDegrees>
            </Position>
            <AltitudeMeters>669.20001220703125</AltitudeMeters>
            <DistanceMeters>13202.326830843</DistanceMeters>
          </Trackpoint>
          <Trackpoint>
            <Time>2022-08-26T23:22:44.000Z</Time>
            <Position>
              <LatitudeDegrees>50.15928603708744049072265625</LatitudeDegrees>
              <LongitudeDegrees>17.01656573452055454254150390625</LongitudeDegrees>
            </Position>
            <AltitudeMeters>669.5999755859375</AltitudeMeters>
            <DistanceMeters>13211.08889167</DistanceMeters>
          </Trackpoint>
          <Trackpoint>
            <Time>2022-08-26T23:22:51.000Z</Time>
            <Position>
              <LatitudeDegrees>50.15934261493384838104248046875</LatitudeDegrees>
              <LongitudeDegrees>17.0166258327662944793701171875</LongitudeDegrees>
            </Position>
            <AltitudeMeters>669.79998779296875</AltitudeMeters>
            <DistanceMeters>13218.705862272</DistanceMeters>
          </Trackpoint>
          <Trackpoint>
            <Time>2022-08-26T23:22:55.000Z</Time>
            <Position>
              <LatitudeDegrees>50.15937748365104198455810546875</LatitudeDegrees>
              <LongitudeDegrees>17.01665173284709453582763671875</LongitudeDegrees>
            </Position>
            <AltitudeMeters>670.20001220703125</AltitudeMeters>
            <DistanceMeters>13223.004180129</DistanceMeters>
          </Trackpoint>
          <Trackpoint>
            <Time>2022-08-26T23:22:59.000Z</Time>
            <Position>
              <LatitudeDegrees>50.1594246737658977508544921875</LatitudeDegrees>
              <LongitudeDegrees>17.0166855119168758392333984375</LongitudeDegrees>
            </Position>
            <AltitudeMeters>670.4000244140625</AltitudeMeters>
            <DistanceMeters>13228.782867064</DistanceMeters>
          </Trackpoint>
          <Trackpoint>
            <Time>2022-08-26T23:23:06.000Z</Time>
            <Position>
              <LatitudeDegrees>50.1595012843608856201171875</LatitudeDegrees>
              <LongitudeDegrees>17.01674611307680606842041015625</LongitudeDegrees>
            </Position>
            <AltitudeMeters>670.79998779296875</AltitudeMeters>
            <DistanceMeters>13238.3423845</DistanceMeters>
          </Trackpoint>
          <Trackpoint>
            <Time>2022-08-26T23:23:13.000Z</Time>
            <Position>
              <LatitudeDegrees>50.1595815829932689666748046875</LatitudeDegrees>
              <LongitudeDegrees>17.01683060266077518463134765625</LongitudeDegrees>
            </Position>
            <AltitudeMeters>671.20001220703125</AltitudeMeters>
            <DistanceMeters>13249.121111862</DistanceMeters>
          </Trackpoint>
          <Trackpoint>
            <Time>2022-08-26T23:23:21.000Z</Time>
            <Position>
              <LatitudeDegrees>50.159636400640010833740234375</LatitudeDegrees>
              <LongitudeDegrees>17.0169088058173656463623046875</LongitudeDegrees>
            </Position>
            <AltitudeMeters>671.5999755859375</AltitudeMeters>
            <DistanceMeters>13257.387343679</DistanceMeters>
          </Trackpoint>
          <Trackpoint>
            <Time>2022-08-26T23:23:29.000Z</Time>
            <Position>
              <LatitudeDegrees>50.15969641506671905517578125</LatitudeDegrees>
              <LongitudeDegrees>17.016995809972286224365234375</LongitudeDegrees>
            </Position>
            <AltitudeMeters>671.79998779296875</AltitudeMeters>
            <DistanceMeters>13266.503967154</DistanceMeters>
          </Trackpoint>
          <Trackpoint>
            <Time>2022-08-26T23:23:37.000Z</Time>
            <Position>
              <LatitudeDegrees>50.1597710140049457550048828125</LatitudeDegrees>
              <LongitudeDegrees>17.01709245331585407257080078125</LongitudeDegrees>
            </Position>
            <AltitudeMeters>672.20001220703125</AltitudeMeters>
            <DistanceMeters>13277.294416897</DistanceMeters>
          </Trackpoint>
          <Trackpoint>
            <Time>2022-08-26T23:23:42.000Z</Time>
            <Position>
              <LatitudeDegrees>50.159808732569217681884765625</LatitudeDegrees>
              <LongitudeDegrees>17.01714861206710338592529296875</LongitudeDegrees>
            </Position>
            <AltitudeMeters>672.4000244140625</AltitudeMeters>
            <DistanceMeters>13283.096496265</DistanceMeters>
          </Trackpoint>
          <Trackpoint>
            <Time>2022-08-26T23:23:45.000Z</Time>
            <Position>
              <LatitudeDegrees>50.15983211807906627655029296875</LatitudeDegrees>
              <LongitudeDegrees>17.0171783678233623504638671875</LongitudeDegrees>
            </Position>
            <AltitudeMeters>672.5999755859375</AltitudeMeters>
            <DistanceMeters>13286.453509134</DistanceMeters>
          </Trackpoint>
          <Trackpoint>
            <Time>2022-08-26T23:23:53.000Z</Time>
            <Position>
              <LatitudeDegrees>50.159901268780231475830078125</LatitudeDegrees>
              <LongitudeDegrees>17.0172900147736072540283203125</LongitudeDegrees>
            </Position>
            <AltitudeMeters>673</AltitudeMeters>
            <DistanceMeters>13297.526466189</DistanceMeters>
          </Trackpoint>
          <Trackpoint>
            <Time>2022-08-26T23:24:01.000Z</Time>
            <Position>
              <LatitudeDegrees>50.1599465310573577880859375</LatitudeDegrees>
              <LongitudeDegrees>17.017385400831699371337890625</LongitudeDegrees>
            </Position>
            <AltitudeMeters>673.4000244140625</AltitudeMeters>
            <DistanceMeters>13305.990781076</DistanceMeters>
          </Trackpoint>
          <Trackpoint>
            <Time>2022-08-26T23:24:04.000Z</Time>
            <Position>
              <LatitudeDegrees>50.159969329833984375</LatitudeDegrees>
              <LongitudeDegrees>17.01741230674088001251220703125</LongitudeDegrees>
            </Position>
            <AltitudeMeters>673.5999755859375</AltitudeMeters>
            <DistanceMeters>13309.170983211</DistanceMeters>
          </Trackpoint>
          <Trackpoint>
            <Time>2022-08-26T23:24:08.000Z</Time>
            <Position>
              <LatitudeDegrees>50.1599902845919132232666015625</LatitudeDegrees>
              <LongitudeDegrees>17.0174526236951351165771484375</LongitudeDegrees>
            </Position>
            <AltitudeMeters>673.79998779296875</AltitudeMeters>
            <DistanceMeters>13312.873368394</DistanceMeters>
          </Trackpoint>
          <Trackpoint>
            <Time>2022-08-26T23:24:19.000Z</Time>
            <Position>
              <LatitudeDegrees>50.16005541197955608367919921875</LatitudeDegrees>
              <LongitudeDegrees>17.0175706408917903900146484375</LongitudeDegrees>
            </Position>
            <AltitudeMeters>674</AltitudeMeters>
            <DistanceMeters>13323.980117436</DistanceMeters>
          </Trackpoint>
          <Trackpoint>
            <Time>2022-08-26T23:24:30.000Z</Time>
            <Position>
              <LatitudeDegrees>50.160135962069034576416015625</LatitudeDegrees>
              <LongitudeDegrees>17.01771908439695835113525390625</LongitudeDegrees>
            </Position>
            <AltitudeMeters>674.4000244140625</AltitudeMeters>
            <DistanceMeters>13337.85108852</DistanceMeters>
          </Trackpoint>
          <Trackpoint>
            <Time>2022-08-26T23:24:37.000Z</Time>
            <Position>
              <LatitudeDegrees>50.1602028496563434600830078125</LatitudeDegrees>
              <LongitudeDegrees>17.01781530864536762237548828125</LongitudeDegrees>
            </Position>
            <AltitudeMeters>674.79998779296875</AltitudeMeters>
            <DistanceMeters>13347.975336527</DistanceMeters>
          </Trackpoint>
          <Trackpoint>
            <Time>2022-08-26T23:24:42.000Z</Time>
            <Position>
              <LatitudeDegrees>50.16023947857320308685302734375</LatitudeDegrees>
              <LongitudeDegrees>17.01787498779594898223876953125</LongitudeDegrees>
            </Position>
            <AltitudeMeters>675</AltitudeMeters>
            <DistanceMeters>13353.868525308</DistanceMeters>
          </Trackpoint>
          <Trackpoint>
            <Time>2022-08-26T23:24:55.000Z</Time>
            <Position>
              <LatitudeDegrees>50.16033603809773921966552734375</LatitudeDegrees>
              <LongitudeDegrees>17.0180403627455234527587890625</LongitudeDegrees>
            </Position>
            <AltitudeMeters>675.5999755859375</AltitudeMeters>
            <DistanceMeters>13369.823394626</DistanceMeters>
          </Trackpoint>
          <Trackpoint>
            <Time>2022-08-26T23:24:56.000Z</Time>
            <Position>
              <LatitudeDegrees>50.16034039668738842010498046875</LatitudeDegrees>
              <LongitudeDegrees>17.01804597862064838409423828125</LongitudeDegrees>
            </Position>
            <AltitudeMeters>675.79998779296875</AltitudeMeters>
            <DistanceMeters>13370.446526463</DistanceMeters>
          </Trackpoint>
          <Trackpoint>
            <Time>2022-08-26T23:25:07.000Z</Time>
            <Position>
              <LatitudeDegrees>50.1604097150266170501708984375</LatitudeDegrees>
              <LongitudeDegrees>17.0181831903755664825439453125</LongitudeDegrees>
            </Position>
            <AltitudeMeters>676.5999755859375</AltitudeMeters>
            <DistanceMeters>13382.906264592</DistanceMeters>
          </Trackpoint>
          <Trackpoint>
            <Time>2022-08-26T23:25:13.000Z</Time>
            <Position>
              <LatitudeDegrees>50.16043779440224170684814453125</LatitudeDegrees>
              <LongitudeDegrees>17.0182609744369983673095703125</LongitudeDegrees>
            </Position>
            <AltitudeMeters>677</AltitudeMeters>
            <DistanceMeters>13389.27234526</DistanceMeters>
          </Trackpoint>
          <Trackpoint>
            <Time>2022-08-26T23:25:21.000Z</Time>
            <Position>
              <LatitudeDegrees>50.16048255376517772674560546875</LatitudeDegrees>
              <LongitudeDegrees>17.0183618925511837005615234375</LongitudeDegrees>
            </Position>
            <AltitudeMeters>677.4000244140625</AltitudeMeters>
            <DistanceMeters>13398.025125878</DistanceMeters>
          </Trackpoint>
          <Trackpoint>
            <Time>2022-08-26T23:25:31.000Z</Time>
            <Position>
              <LatitudeDegrees>50.16055765561759471893310546875</LatitudeDegrees>
              <LongitudeDegrees>17.018496505916118621826171875</LongitudeDegrees>
            </Position>
            <AltitudeMeters>678</AltitudeMeters>
            <DistanceMeters>13410.753031103</DistanceMeters>
          </Trackpoint>
          <Trackpoint>
            <Time>2022-08-26T23:25:35.000Z</Time>
            <Position>
              <LatitudeDegrees>50.160589925944805145263671875</LatitudeDegrees>
              <LongitudeDegrees>17.0185566879808902740478515625</LongitudeDegrees>
            </Position>
            <AltitudeMeters>678.4000244140625</AltitudeMeters>
            <DistanceMeters>13416.349128413</DistanceMeters>
          </Trackpoint>
          <Trackpoint>
            <Time>2022-08-26T23:25:48.000Z</Time>
            <Position>
              <LatitudeDegrees>50.160646922886371612548828125</LatitudeDegrees>
              <LongitudeDegrees>17.0187504775822162628173828125</LongitudeDegrees>
            </Position>
            <AltitudeMeters>679.20001220703125</AltitudeMeters>
            <DistanceMeters>13431.553996618</DistanceMeters>
          </Trackpoint>
          <Trackpoint>
            <Time>2022-08-26T23:25:50.000Z</Time>
            <Position>
              <LatitudeDegrees>50.1606571488082408905029296875</LatitudeDegrees>
              <LongitudeDegrees>17.0187803171575069427490234375</LongitudeDegrees>
            </Position>
            <AltitudeMeters>679.20001220703125</AltitudeMeters>
            <DistanceMeters>13433.96924596</DistanceMeters>
          </Trackpoint>
          <Trackpoint>
            <Time>2022-08-26T23:26:02.000Z</Time>
            <Position>
              <LatitudeDegrees>50.16073920764029026031494140625</LatitudeDegrees>
              <LongitudeDegrees>17.0189402438700199127197265625</LongitudeDegrees>
            </Position>
            <AltitudeMeters>680</AltitudeMeters>
            <DistanceMeters>13448.579274946</DistanceMeters>
          </Trackpoint>
          <Trackpoint>
            <Time>2022-08-26T23:26:07.000Z</Time>
            <Position>
              <LatitudeDegrees>50.16078715212643146514892578125</LatitudeDegrees>
              <LongitudeDegrees>17.01901844702661037445068359375</LongitudeDegrees>
            </Position>
            <AltitudeMeters>680.4000244140625</AltitudeMeters>
            <DistanceMeters>13456.296941966</DistanceMeters>
          </Trackpoint>
          <Trackpoint>
            <Time>2022-08-26T23:26:15.000Z</Time>
            <Position>
              <LatitudeDegrees>50.1608324982225894927978515625</LatitudeDegrees>
              <LongitudeDegrees>17.01913143508136272430419921875</LongitudeDegrees>
            </Position>
            <AltitudeMeters>681</AltitudeMeters>
            <DistanceMeters>13465.803413711</DistanceMeters>
          </Trackpoint>
          <Trackpoint>
            <Time>2022-08-26T23:26:21.000Z</Time>
            <Position>
              <LatitudeDegrees>50.1608933508396148681640625</LatitudeDegrees>
              <LongitudeDegrees>17.0192218758165836334228515625</LongitudeDegrees>
            </Position>
            <AltitudeMeters>681.5999755859375</AltitudeMeters>
            <DistanceMeters>13475.155220508</DistanceMeters>
          </Trackpoint>
          <Trackpoint>
            <Time>2022-08-26T23:26:27.000Z</Time>
            <Position>
              <LatitudeDegrees>50.16096803359687328338623046875</LatitudeDegrees>
              <LongitudeDegrees>17.01933427713811397552490234375</LongitudeDegrees>
            </Position>
            <AltitudeMeters>682.20001220703125</AltitudeMeters>
            <DistanceMeters>13486.701650632</DistanceMeters>
          </Trackpoint>
          <Trackpoint>
            <Time>2022-08-26T23:26:32.000Z</Time>
            <Position>
              <LatitudeDegrees>50.1610769145190715789794921875</LatitudeDegrees>
              <LongitudeDegrees>17.01946855522692203521728515625</LongitudeDegrees>
            </Position>
            <AltitudeMeters>682.5999755859375</AltitudeMeters>
            <DistanceMeters>13502.146342256</DistanceMeters>
          </Trackpoint>
          <Trackpoint>
            <Time>2022-08-26T23:26:36.000Z</Time>
            <Position>
              <LatitudeDegrees>50.16110717318952083587646484375</LatitudeDegrees>
              <LongitudeDegrees>17.01954047195613384246826171875</LongitudeDegrees>
            </Position>
            <AltitudeMeters>683</AltitudeMeters>
            <DistanceMeters>13508.281271646</DistanceMeters>
          </Trackpoint>
          <Trackpoint>
            <Time>2022-08-26T23:26:44.000Z</Time>
            <Position>
              <LatitudeDegrees>50.16117389313876628875732421875</LatitudeDegrees>
              <LongitudeDegrees>17.0196681283414363861083984375</LongitudeDegrees>
            </Position>
            <AltitudeMeters>683.5999755859375</AltitudeMeters>
            <DistanceMeters>13520.028895162</DistanceMeters>
          </Trackpoint>
          <Trackpoint>
            <Time>2022-08-26T23:26:53.000Z</Time>
            <Position>
              <LatitudeDegrees>50.1612509228289127349853515625</LatitudeDegrees>
              <LongitudeDegrees>17.01982830651104450225830078125</LongitudeDegrees>
            </Position>
            <AltitudeMeters>684</AltitudeMeters>
            <DistanceMeters>13534.309801173</DistanceMeters>
          </Trackpoint>
          <Trackpoint>
            <Time>2022-08-26T23:26:55.000Z</Time>
            <Position>
              <LatitudeDegrees>50.1612629927694797515869140625</LatitudeDegrees>
              <LongitudeDegrees>17.019873820245265960693359375</LongitudeDegrees>
            </Position>
            <AltitudeMeters>684</AltitudeMeters>
            <DistanceMeters>13537.821935058</DistanceMeters>
          </Trackpoint>
          <Trackpoint>
            <Time>2022-08-26T23:27:06.000Z</Time>
            <Position>
              <LatitudeDegrees>50.16130683012306690216064453125</LatitudeDegrees>
              <LongitudeDegrees>17.02005176804959774017333984375</LongitudeDegrees>
            </Position>
            <AltitudeMeters>684.4000244140625</AltitudeMeters>
            <DistanceMeters>13551.416070353</DistanceMeters>
          </Trackpoint>
          <Trackpoint>
            <Time>2022-08-26T23:27:15.000Z</Time>
            <Position>
              <LatitudeDegrees>50.1613504998385906219482421875</LatitudeDegrees>
              <LongitudeDegrees>17.02020884491503238677978515625</LongitudeDegrees>
            </Position>
            <AltitudeMeters>685</AltitudeMeters>
            <DistanceMeters>13563.625431595</DistanceMeters>
          </Trackpoint>
          <Trackpoint>
            <Time>2022-08-26T23:27:16.000Z</Time>
            <Position>
              <LatitudeDegrees>50.161357708275318145751953125</LatitudeDegrees>
              <LongitudeDegrees>17.02023533172905445098876953125</LongitudeDegrees>
            </Position>
            <AltitudeMeters>685</AltitudeMeters>
            <DistanceMeters>13565.676776428</DistanceMeters>
          </Trackpoint>
          <Trackpoint>
            <Time>2022-08-26T23:27:27.000Z</Time>
            <Position>
              <LatitudeDegrees>50.16144010238349437713623046875</LatitudeDegrees>
              <LongitudeDegrees>17.0204744674265384674072265625</LongitudeDegrees>
            </Position>
            <AltitudeMeters>685.4000244140625</AltitudeMeters>
            <DistanceMeters>13585.037522105</DistanceMeters>
          </Trackpoint>
          <Trackpoint>
            <Time>2022-08-26T23:27:38.000Z</Time>
            <Position>
              <LatitudeDegrees>50.16153238713741302490234375</LatitudeDegrees>
              <LongitudeDegrees>17.020701281726360321044921875</LongitudeDegrees>
            </Position>
            <AltitudeMeters>685.4000244140625</AltitudeMeters>
            <DistanceMeters>13604.196189786</DistanceMeters>
          </Trackpoint>
          <Trackpoint>
            <Time>2022-08-26T23:27:46.000Z</Time>
            <Position>
              <LatitudeDegrees>50.161610506474971771240234375</LatitudeDegrees>
              <LongitudeDegrees>17.0208620466291904449462890625</LongitudeDegrees>
            </Position>
            <AltitudeMeters>685.4000244140625</AltitudeMeters>
            <DistanceMeters>13618.583560717</DistanceMeters>
          </Trackpoint>
          <Trackpoint>
            <Time>2022-08-26T23:27:57.000Z</Time>
            <Position>
              <LatitudeDegrees>50.1616988517343997955322265625</LatitudeDegrees>
              <LongitudeDegrees>17.02107511460781097412109375</LongitudeDegrees>
            </Position>
            <AltitudeMeters>685</AltitudeMeters>
            <DistanceMeters>13636.680100506</DistanceMeters>
          </Trackpoint>
          <Trackpoint>
            <Time>2022-08-26T23:28:05.000Z</Time>
            <Position>
              <LatitudeDegrees>50.16174159944057464599609375</LatitudeDegrees>
              <LongitudeDegrees>17.02118634246289730072021484375</LongitudeDegrees>
            </Position>
            <AltitudeMeters>684.4000244140625</AltitudeMeters>
            <DistanceMeters>13645.928499507</DistanceMeters>
          </Trackpoint>
          <Trackpoint>
            <Time>2022-08-26T23:28:09.000Z</Time>
            <Position>
              <LatitudeDegrees>50.161770768463611602783203125</LatitudeDegrees>
              <LongitudeDegrees>17.021258510649204254150390625</LongitudeDegrees>
            </Position>
            <AltitudeMeters>684.20001220703125</AltitudeMeters>
            <DistanceMeters>13652.013178086</DistanceMeters>
          </Trackpoint>
          <Trackpoint>
            <Time>2022-08-26T23:28:12.000Z</Time>
            <Position>
              <LatitudeDegrees>50.16179163940250873565673828125</LatitudeDegrees>
              <LongitudeDegrees>17.02130804769694805145263671875</LongitudeDegrees>
            </Position>
            <AltitudeMeters>684.20001220703125</AltitudeMeters>
            <DistanceMeters>13656.24053202</DistanceMeters>
          </Trackpoint>
          <Trackpoint>
            <Time>2022-08-26T23:28:21.000Z</Time>
            <Position>
              <LatitudeDegrees>50.1618428528308868408203125</LatitudeDegrees>
              <LongitudeDegrees>17.02144215814769268035888671875</LongitudeDegrees>
            </Position>
            <AltitudeMeters>683.5999755859375</AltitudeMeters>
            <DistanceMeters>13667.372861925</DistanceMeters>
          </Trackpoint>
          <Trackpoint>
            <Time>2022-08-26T23:28:27.000Z</Time>
            <Position>
              <LatitudeDegrees>50.16188400797545909881591796875</LatitudeDegrees>
              <LongitudeDegrees>17.02154693193733692169189453125</LongitudeDegrees>
            </Position>
            <AltitudeMeters>683.4000244140625</AltitudeMeters>
            <DistanceMeters>13676.135953279</DistanceMeters>
          </Trackpoint>
          <Trackpoint>
            <Time>2022-08-26T23:28:31.000Z</Time>
            <Position>
              <LatitudeDegrees>50.1619127579033374786376953125</LatitudeDegrees>
              <LongitudeDegrees>17.02160610817372798919677734375</LongitudeDegrees>
            </Position>
            <AltitudeMeters>683.20001220703125</AltitudeMeters>
            <DistanceMeters>13681.431934533</DistanceMeters>
          </Trackpoint>
          <Trackpoint>
            <Time>2022-08-26T23:28:36.000Z</Time>
            <Position>
              <LatitudeDegrees>50.161943100392818450927734375</LatitudeDegrees>
              <LongitudeDegrees>17.021684981882572174072265625</LongitudeDegrees>
            </Position>
            <AltitudeMeters>682.79998779296875</AltitudeMeters>
            <DistanceMeters>13687.992219918</DistanceMeters>
          </Trackpoint>
          <Trackpoint>
            <Time>2022-08-26T23:28:42.000Z</Time>
            <Position>
              <LatitudeDegrees>50.16196346841752529144287109375</LatitudeDegrees>
              <LongitudeDegrees>17.0217823795974254608154296875</LongitudeDegrees>
            </Position>
            <AltitudeMeters>682.79998779296875</AltitudeMeters>
            <DistanceMeters>13695.298161463</DistanceMeters>
          </Trackpoint>
          <Trackpoint>
            <Time>2022-08-26T23:28:49.000Z</Time>
            <Position>
              <LatitudeDegrees>50.16199615783989429473876953125</LatitudeDegrees>
              <LongitudeDegrees>17.0219003967940807342529296875</LongitudeDegrees>
            </Position>
            <AltitudeMeters>682.4000244140625</AltitudeMeters>
            <DistanceMeters>13704.466146603</DistanceMeters>
          </Trackpoint>
          <Trackpoint>
            <Time>2022-08-26T23:28:52.000Z</Time>
            <Position>
              <LatitudeDegrees>50.16200772486627101898193359375</LatitudeDegrees>
              <LongitudeDegrees>17.02195127494633197784423828125</LongitudeDegrees>
            </Position>
            <AltitudeMeters>682.4000244140625</AltitudeMeters>
            <DistanceMeters>13708.314435232</DistanceMeters>
          </Trackpoint>
          <Trackpoint>
            <Time>2022-08-26T23:28:56.000Z</Time>
            <Position>
              <LatitudeDegrees>50.16202784143388271331787109375</LatitudeDegrees>
              <LongitudeDegrees>17.02201732434332370758056640625</LongitudeDegrees>
            </Position>
            <AltitudeMeters>682</AltitudeMeters>
            <DistanceMeters>13713.528796187</DistanceMeters>
          </Trackpoint>
          <Trackpoint>
            <Time>2022-08-26T23:29:03.000Z</Time>
            <Position>
              <LatitudeDegrees>50.16206589527428150177001953125</LatitudeDegrees>
              <LongitudeDegrees>17.022131569683551788330078125</LongitudeDegrees>
            </Position>
            <AltitudeMeters>681.79998779296875</AltitudeMeters>
            <DistanceMeters>13722.710068627</DistanceMeters>
          </Trackpoint>
          <Trackpoint>
            <Time>2022-08-26T23:29:10.000Z</Time>
            <Position>
              <LatitudeDegrees>50.16211970709264278411865234375</LatitudeDegrees>
              <LongitudeDegrees>17.02225956134498119354248046875</LongitudeDegrees>
            </Position>
            <AltitudeMeters>681.5999755859375</AltitudeMeters>
            <DistanceMeters>13733.626152574</DistanceMeters>
          </Trackpoint>
          <Trackpoint>
            <Time>2022-08-26T23:29:16.000Z</Time>
            <Position>
              <LatitudeDegrees>50.1621561683714389801025390625</LatitudeDegrees>
              <LongitudeDegrees>17.022336423397064208984375</LongitudeDegrees>
            </Position>
            <AltitudeMeters>681.4000244140625</AltitudeMeters>
            <DistanceMeters>13740.445602236</DistanceMeters>
          </Trackpoint>
          <Trackpoint>
            <Time>2022-08-26T23:29:27.000Z</Time>
            <Position>
              <LatitudeDegrees>50.1621990837156772613525390625</LatitudeDegrees>
              <LongitudeDegrees>17.022515796124935150146484375</LongitudeDegrees>
            </Position>
            <AltitudeMeters>681</AltitudeMeters>
            <DistanceMeters>13754.097736787</DistanceMeters>
          </Trackpoint>
          <Trackpoint>
            <Time>2022-08-26T23:29:38.000Z</Time>
            <Position>
              <LatitudeDegrees>50.16228013671934604644775390625</LatitudeDegrees>
              <LongitudeDegrees>17.02271184884011745452880859375</LongitudeDegrees>
            </Position>
            <AltitudeMeters>680.5999755859375</AltitudeMeters>
            <DistanceMeters>13770.735012202</DistanceMeters>
          </Trackpoint>
          <Trackpoint>
            <Time>2022-08-26T23:29:44.000Z</Time>
            <Position>
              <LatitudeDegrees>50.16233277507126331329345703125</LatitudeDegrees>
              <LongitudeDegrees>17.02280513942241668701171875</LongitudeDegrees>
            </Position>
            <AltitudeMeters>680.4000244140625</AltitudeMeters>
            <DistanceMeters>13779.599532788</DistanceMeters>
          </Trackpoint>
          <Trackpoint>
            <Time>2022-08-26T23:29:51.000Z</Time>
            <Position>
              <LatitudeDegrees>50.162406452000141143798828125</LatitudeDegrees>
              <LongitudeDegrees>17.02293924987316131591796875</LongitudeDegrees>
            </Position>
            <AltitudeMeters>680</AltitudeMeters>
            <DistanceMeters>13792.196935831</DistanceMeters>
          </Trackpoint>
          <Trackpoint>
            <Time>2022-08-26T23:30:03.000Z</Time>
            <Position>
              <LatitudeDegrees>50.162472836673259735107421875</LatitudeDegrees>
              <LongitudeDegrees>17.02311049215495586395263671875</LongitudeDegrees>
            </Position>
            <AltitudeMeters>679.79998779296875</AltitudeMeters>
            <DistanceMeters>13806.468670283</DistanceMeters>
          </Trackpoint>
          <Trackpoint>
            <Time>2022-08-26T23:30:05.000Z</Time>
            <Position>
              <LatitudeDegrees>50.162482224404811859130859375</LatitudeDegrees>
              <LongitudeDegrees>17.02313345856964588165283203125</LongitudeDegrees>
            </Position>
            <AltitudeMeters>679.5999755859375</AltitudeMeters>
            <DistanceMeters>13808.411496048</DistanceMeters>
          </Trackpoint>
          <Trackpoint>
            <Time>2022-08-26T23:30:16.000Z</Time>
            <Position>
              <LatitudeDegrees>50.1625732518732547760009765625</LatitudeDegrees>
              <LongitudeDegrees>17.0233182795345783233642578125</LongitudeDegrees>
            </Position>
            <AltitudeMeters>679.20001220703125</AltitudeMeters>
            <DistanceMeters>13825.034110436</DistanceMeters>
          </Trackpoint>
          <Trackpoint>
            <Time>2022-08-26T23:30:30.000Z</Time>
            <Position>
              <LatitudeDegrees>50.162690095603466033935546875</LatitudeDegrees>
              <LongitudeDegrees>17.0235355384647846221923828125</LongitudeDegrees>
            </Position>
            <AltitudeMeters>678.79998779296875</AltitudeMeters>
            <DistanceMeters>13845.260296019</DistanceMeters>
          </Trackpoint>
          <Trackpoint>
            <Time>2022-08-26T23:30:41.000Z</Time>
            <Position>
              <LatitudeDegrees>50.16280853189527988433837890625</LatitudeDegrees>
              <LongitudeDegrees>17.02376930974423885345458984375</LongitudeDegrees>
            </Position>
            <AltitudeMeters>678.5999755859375</AltitudeMeters>
            <DistanceMeters>13866.511040076</DistanceMeters>
          </Trackpoint>
          <Trackpoint>
            <Time>2022-08-26T23:30:44.000Z</Time>
            <Position>
              <LatitudeDegrees>50.16283057630062103271484375</LatitudeDegrees>
              <LongitudeDegrees>17.0238188467919826507568359375</LongitudeDegrees>
            </Position>
            <AltitudeMeters>678.4000244140625</AltitudeMeters>
            <DistanceMeters>13870.812508038</DistanceMeters>
          </Trackpoint>
          <Trackpoint>
            <Time>2022-08-26T23:30:57.000Z</Time>
            <Position>
              <LatitudeDegrees>50.16295923851430416107177734375</LatitudeDegrees>
              <LongitudeDegrees>17.02399075962603092193603515625</LongitudeDegrees>
            </Position>
            <AltitudeMeters>677.79998779296875</AltitudeMeters>
            <DistanceMeters>13889.662320979</DistanceMeters>
          </Trackpoint>
          <Trackpoint>
            <Time>2022-08-26T23:31:03.000Z</Time>
            <Position>
              <LatitudeDegrees>50.163013301789760589599609375</LatitudeDegrees>
              <LongitudeDegrees>17.02409955672919750213623046875</LongitudeDegrees>
            </Position>
            <AltitudeMeters>677.5999755859375</AltitudeMeters>
            <DistanceMeters>13899.48001093</DistanceMeters>
          </Trackpoint>
          <Trackpoint>
            <Time>2022-08-26T23:31:12.000Z</Time>
            <Position>
              <LatitudeDegrees>50.163104832172393798828125</LatitudeDegrees>
              <LongitudeDegrees>17.02425160445272922515869140625</LongitudeDegrees>
            </Position>
            <AltitudeMeters>677.4000244140625</AltitudeMeters>
            <DistanceMeters>13914.357079648</DistanceMeters>
          </Trackpoint>
          <Trackpoint>
            <Time>2022-08-26T23:31:26.000Z</Time>
            <Position>
              <LatitudeDegrees>50.1632213406264781951904296875</LatitudeDegrees>
              <LongitudeDegrees>17.024469785392284393310546875</LongitudeDegrees>
            </Position>
            <AltitudeMeters>676.79998779296875</AltitudeMeters>
            <DistanceMeters>13934.60958893</DistanceMeters>
          </Trackpoint>
          <Trackpoint>
            <Time>2022-08-26T23:31:32.000Z</Time>
            <Position>
              <LatitudeDegrees>50.16325394622981548309326171875</LatitudeDegrees>
              <LongitudeDegrees>17.02457078732550144195556640625</LongitudeDegrees>
            </Position>
            <AltitudeMeters>676.5999755859375</AltitudeMeters>
            <DistanceMeters>13942.673992848</DistanceMeters>
          </Trackpoint>
          <Trackpoint>
            <Time>2022-08-26T23:31:37.000Z</Time>
            <Position>
              <LatitudeDegrees>50.16328898258507251739501953125</LatitudeDegrees>
              <LongitudeDegrees>17.0246738009154796600341796875</LongitudeDegrees>
            </Position>
            <AltitudeMeters>676.4000244140625</AltitudeMeters>
            <DistanceMeters>13950.989780568</DistanceMeters>
          </Trackpoint>
          <Trackpoint>
            <Time>2022-08-26T23:31:50.000Z</Time>
            <Position>
              <LatitudeDegrees>50.163378082215785980224609375</LatitudeDegrees>
              <LongitudeDegrees>17.0248893834650516510009765625</LongitudeDegrees>
            </Position>
            <AltitudeMeters>675.79998779296875</AltitudeMeters>
            <DistanceMeters>13969.282361379</DistanceMeters>
          </Trackpoint>
          <Trackpoint>
            <Time>2022-08-26T23:31:57.000Z</Time>
            <Position>
              <LatitudeDegrees>50.16342678107321262359619140625</LatitudeDegrees>
              <LongitudeDegrees>17.02501259744167327880859375</LongitudeDegrees>
            </Position>
            <AltitudeMeters>675.4000244140625</AltitudeMeters>
            <DistanceMeters>13979.605342156</DistanceMeters>
          </Trackpoint>
          <Trackpoint>
            <Time>2022-08-26T23:32:02.000Z</Time>
            <Position>
              <LatitudeDegrees>50.16344320960342884063720703125</LatitudeDegrees>
              <LongitudeDegrees>17.02508577145636081695556640625</LongitudeDegrees>
            </Position>
            <AltitudeMeters>675.20001220703125</AltitudeMeters>
            <DistanceMeters>13985.134067937</DistanceMeters>
          </Trackpoint>
          <Trackpoint>
            <Time>2022-08-26T23:32:15.000Z</Time>
            <Position>
              <LatitudeDegrees>50.16347807832062244415283203125</LatitudeDegrees>
              <LongitudeDegrees>17.02525022439658641815185546875</LongitudeDegrees>
            </Position>
            <AltitudeMeters>674.79998779296875</AltitudeMeters>
            <DistanceMeters>13997.485347686</DistanceMeters>
          </Trackpoint>
          <Trackpoint>
            <Time>2022-08-26T23:32:22.000Z</Time>
            <Position>
              <LatitudeDegrees>50.16349417157471179962158203125</LatitudeDegrees>
              <LongitudeDegrees>17.02533043920993804931640625</LongitudeDegrees>
            </Position>
            <AltitudeMeters>674.4000244140625</AltitudeMeters>
            <DistanceMeters>14003.477307628</DistanceMeters>
          </Trackpoint>
          <Trackpoint>
            <Time>2022-08-26T23:32:28.000Z</Time>
            <Position>
              <LatitudeDegrees>50.1635002903640270233154296875</LatitudeDegrees>
              <LongitudeDegrees>17.02541383914649486541748046875</LongitudeDegrees>
            </Position>
            <AltitudeMeters>674.20001220703125</AltitudeMeters>
            <DistanceMeters>14009.461727664</DistanceMeters>
          </Trackpoint>
          <Trackpoint>
            <Time>2022-08-26T23:32:41.000Z</Time>
            <Position>
              <LatitudeDegrees>50.1635120250284671783447265625</LatitudeDegrees>
              <LongitudeDegrees>17.0255740173161029815673828125</LongitudeDegrees>
            </Position>
            <AltitudeMeters>673.4000244140625</AltitudeMeters>
            <DistanceMeters>14020.956818295</DistanceMeters>
          </Trackpoint>
          <Trackpoint>
            <Time>2022-08-26T23:32:42.000Z</Time>
            <Position>
              <LatitudeDegrees>50.16351043246686458587646484375</LatitudeDegrees>
              <LongitudeDegrees>17.02558650635182857513427734375</LongitudeDegrees>
            </Position>
            <AltitudeMeters>673.4000244140625</AltitudeMeters>
            <DistanceMeters>14021.868282519</DistanceMeters>
          </Trackpoint>
          <Trackpoint>
            <Time>2022-08-26T23:32:55.000Z</Time>
            <Position>
              <LatitudeDegrees>50.1635529287159442901611328125</LatitudeDegrees>
              <LongitudeDegrees>17.02577610500156879425048828125</LongitudeDegrees>
            </Position>
            <AltitudeMeters>672.5999755859375</AltitudeMeters>
            <DistanceMeters>14036.190545487</DistanceMeters>
          </Trackpoint>
          <Trackpoint>
            <Time>2022-08-26T23:33:01.000Z</Time>
            <Position>
              <LatitudeDegrees>50.163613446056842803955078125</LatitudeDegrees>
              <LongitudeDegrees>17.02588557265698909759521484375</LongitudeDegrees>
            </Position>
            <AltitudeMeters>672.4000244140625</AltitudeMeters>
            <DistanceMeters>14046.499958649</DistanceMeters>
          </Trackpoint>
          <Trackpoint>
            <Time>2022-08-26T23:33:03.000Z</Time>
            <Position>
              <LatitudeDegrees>50.16363699920475482940673828125</LatitudeDegrees>
              <LongitudeDegrees>17.0259284041821956634521484375</LongitudeDegrees>
            </Position>
            <AltitudeMeters>672.20001220703125</AltitudeMeters>
            <DistanceMeters>14050.524875684</DistanceMeters>
          </Trackpoint>
          <Trackpoint>
            <Time>2022-08-26T23:33:07.000Z</Time>
            <Position>
              <LatitudeDegrees>50.16367010772228240966796875</LatitudeDegrees>
              <LongitudeDegrees>17.02600308693945407867431640625</LongitudeDegrees>
            </Position>
            <AltitudeMeters>671.79998779296875</AltitudeMeters>
            <DistanceMeters>14057.0006517</DistanceMeters>
          </Trackpoint>
          <Trackpoint>
            <Time>2022-08-26T23:33:19.000Z</Time>
            <Position>
              <LatitudeDegrees>50.16378066502511501312255859375</LatitudeDegrees>
              <LongitudeDegrees>17.02623761259019374847412109375</LongitudeDegrees>
            </Position>
            <AltitudeMeters>671.20001220703125</AltitudeMeters>
            <DistanceMeters>14077.762194729</DistanceMeters>
          </Trackpoint>
          <Trackpoint>
            <Time>2022-08-26T23:33:21.000Z</Time>
            <Position>
              <LatitudeDegrees>50.16380145214498043060302734375</LatitudeDegrees>
              <LongitudeDegrees>17.02627399004995822906494140625</LongitudeDegrees>
            </Position>
            <AltitudeMeters>671</AltitudeMeters>
            <DistanceMeters>14081.238146726</DistanceMeters>
          </Trackpoint>
          <Trackpoint>
            <Time>2022-08-26T23:33:36.000Z</Time>
            <Position>
              <LatitudeDegrees>50.16392483375966548919677734375</LatitudeDegrees>
              <LongitudeDegrees>17.02654589898884296417236328125</LongitudeDegrees>
            </Position>
            <AltitudeMeters>670.20001220703125</AltitudeMeters>
            <DistanceMeters>14104.995965612</DistanceMeters>
          </Trackpoint>
          <Trackpoint>
            <Time>2022-08-26T23:33:38.000Z</Time>
            <Position>
              <LatitudeDegrees>50.16394528560340404510498046875</LatitudeDegrees>
              <LongitudeDegrees>17.02657221816480159759521484375</LongitudeDegrees>
            </Position>
            <AltitudeMeters>670</AltitudeMeters>
            <DistanceMeters>14107.946388241</DistanceMeters>
          </Trackpoint>
          <Trackpoint>
            <Time>2022-08-26T23:33:51.000Z</Time>
            <Position>
              <LatitudeDegrees>50.1640789769589900970458984375</LatitudeDegrees>
              <LongitudeDegrees>17.02670909464359283447265625</LongitudeDegrees>
            </Position>
            <AltitudeMeters>669.4000244140625</AltitudeMeters>
            <DistanceMeters>14125.74152018</DistanceMeters>
          </Trackpoint>
          <Trackpoint>
            <Time>2022-08-26T23:33:59.000Z</Time>
            <Position>
              <LatitudeDegrees>50.164188444614410400390625</LatitudeDegrees>
              <LongitudeDegrees>17.0268023014068603515625</LongitudeDegrees>
            </Position>
            <AltitudeMeters>669</AltitudeMeters>
            <DistanceMeters>14139.619975806</DistanceMeters>
          </Trackpoint>
          <Trackpoint>
            <Time>2022-08-26T23:34:04.000Z</Time>
            <Position>
              <LatitudeDegrees>50.16424141824245452880859375</LatitudeDegrees>
              <LongitudeDegrees>17.0268634893000125885009765625</LongitudeDegrees>
            </Position>
            <AltitudeMeters>668.79998779296875</AltitudeMeters>
            <DistanceMeters>14146.954290046</DistanceMeters>
          </Trackpoint>
          <Trackpoint>
            <Time>2022-08-26T23:34:16.000Z</Time>
            <Position>
              <LatitudeDegrees>50.16437125392258167266845703125</LatitudeDegrees>
              <LongitudeDegrees>17.02698628418147563934326171875</LongitudeDegrees>
            </Position>
            <AltitudeMeters>668</AltitudeMeters>
            <DistanceMeters>14163.850349844</DistanceMeters>
          </Trackpoint>
          <Trackpoint>
            <Time>2022-08-26T23:34:18.000Z</Time>
            <Position>
              <LatitudeDegrees>50.1643981598317623138427734375</LatitudeDegrees>
              <LongitudeDegrees>17.027003802359104156494140625</LongitudeDegrees>
            </Position>
            <AltitudeMeters>668</AltitudeMeters>
            <DistanceMeters>14167.093810813</DistanceMeters>
          </Trackpoint>
          <Trackpoint>
            <Time>2022-08-26T23:34:31.000Z</Time>
            <Position>
              <LatitudeDegrees>50.16468591056764125823974609375</LatitudeDegrees>
              <LongitudeDegrees>17.0272044651210308074951171875</LongitudeDegrees>
            </Position>
            <AltitudeMeters>667.4000244140625</AltitudeMeters>
            <DistanceMeters>14202.171413586</DistanceMeters>
          </Trackpoint>
          <Trackpoint>
            <Time>2022-08-26T23:34:40.000Z</Time>
            <Position>
              <LatitudeDegrees>50.164866037666797637939453125</LatitudeDegrees>
              <LongitudeDegrees>17.027306221425533294677734375</LongitudeDegrees>
            </Position>
            <AltitudeMeters>667</AltitudeMeters>
            <DistanceMeters>14223.492367557</DistanceMeters>
          </Trackpoint>
          <Trackpoint>
            <Time>2022-08-26T23:34:43.000Z</Time>
            <Position>
              <LatitudeDegrees>50.16489428468048572540283203125</LatitudeDegrees>
              <LongitudeDegrees>17.0273137651383876800537109375</LongitudeDegrees>
            </Position>
            <AltitudeMeters>667</AltitudeMeters>
            <DistanceMeters>14226.681076712</DistanceMeters>
          </Trackpoint>
          <Trackpoint>
            <Time>2022-08-26T23:34:51.000Z</Time>
            <Position>
              <LatitudeDegrees>50.16494072042405605316162109375</LatitudeDegrees>
              <LongitudeDegrees>17.0273590274155139923095703125</LongitudeDegrees>
            </Position>
            <AltitudeMeters>666.4000244140625</AltitudeMeters>
            <DistanceMeters>14232.774653194</DistanceMeters>
          </Trackpoint>
          <Trackpoint>
            <Time>2022-08-26T23:35:02.000Z</Time>
            <Position>
              <LatitudeDegrees>50.16501314006745815277099609375</LatitudeDegrees>
              <LongitudeDegrees>17.02747846953570842742919921875</LongitudeDegrees>
            </Position>
            <AltitudeMeters>666.20001220703125</AltitudeMeters>
            <DistanceMeters>14244.500349077</DistanceMeters>
          </Trackpoint>
          <Trackpoint>
            <Time>2022-08-26T23:35:05.000Z</Time>
            <Position>
              <LatitudeDegrees>50.1650382019579410552978515625</LatitudeDegrees>
              <LongitudeDegrees>17.0275063812732696533203125</LongitudeDegrees>
            </Position>
            <AltitudeMeters>666</AltitudeMeters>
            <DistanceMeters>14247.926585989</DistanceMeters>
          </Trackpoint>
          <Trackpoint>
            <Time>2022-08-26T23:35:14.000Z</Time>
            <Position>
              <LatitudeDegrees>50.16514666378498077392578125</LatitudeDegrees>
              <LongitudeDegrees>17.02756530605256557464599609375</LongitudeDegrees>
            </Position>
            <AltitudeMeters>665.5999755859375</AltitudeMeters>
            <DistanceMeters>14260.708650497</DistanceMeters>
          </Trackpoint>
          <Trackpoint>
            <Time>2022-08-26T23:35:24.000Z</Time>
            <Position>
              <LatitudeDegrees>50.165282785892486572265625</LatitudeDegrees>
              <LongitudeDegrees>17.02762146480381488800048828125</LongitudeDegrees>
            </Position>
            <AltitudeMeters>665.20001220703125</AltitudeMeters>
            <DistanceMeters>14276.379417195</DistanceMeters>
          </Trackpoint>
          <Trackpoint>
            <Time>2022-08-26T23:35:27.000Z</Time>
            <Position>
              <LatitudeDegrees>50.16532226465642452239990234375</LatitudeDegrees>
              <LongitudeDegrees>17.02762867324054241180419921875</LongitudeDegrees>
            </Position>
            <AltitudeMeters>665.20001220703125</AltitudeMeters>
            <DistanceMeters>14280.80403082</DistanceMeters>
          </Trackpoint>
          <Trackpoint>
            <Time>2022-08-26T23:35:35.000Z</Time>
            <Position>
              <LatitudeDegrees>50.16543122939765453338623046875</LatitudeDegrees>
              <LongitudeDegrees>17.02763454057276248931884765625</LongitudeDegrees>
            </Position>
            <AltitudeMeters>665.20001220703125</AltitudeMeters>
            <DistanceMeters>14292.939578468</DistanceMeters>
          </Trackpoint>
          <Trackpoint>
            <Time>2022-08-26T23:35:47.000Z</Time>
            <Position>
              <LatitudeDegrees>50.16554052941501140594482421875</LatitudeDegrees>
              <LongitudeDegrees>17.02762599103152751922607421875</LongitudeDegrees>
            </Position>
            <AltitudeMeters>664.5999755859375</AltitudeMeters>
            <DistanceMeters>14305.120431725</DistanceMeters>
          </Trackpoint>
          <Trackpoint>
            <Time>2022-08-26T23:35:58.000Z</Time>
            <Position>
              <LatitudeDegrees>50.16564044170081615447998046875</LatitudeDegrees>
              <LongitudeDegrees>17.02763956971466541290283203125</LongitudeDegrees>
            </Position>
            <AltitudeMeters>664.4000244140625</AltitudeMeters>
            <DistanceMeters>14316.283138603</DistanceMeters>
          </Trackpoint>
          <Trackpoint>
            <Time>2022-08-26T23:36:08.000Z</Time>
            <Position>
              <LatitudeDegrees>50.1657285355031490325927734375</LatitudeDegrees>
              <LongitudeDegrees>17.02760872431099414825439453125</LongitudeDegrees>
            </Position>
            <AltitudeMeters>664.20001220703125</AltitudeMeters>
            <DistanceMeters>14326.331736256</DistanceMeters>
          </Trackpoint>
          <Trackpoint>
            <Time>2022-08-26T23:36:10.000Z</Time>
            <Position>
              <LatitudeDegrees>50.16574571840465068817138671875</LatitudeDegrees>
              <LongitudeDegrees>17.02760905958712100982666015625</LongitudeDegrees>
            </Position>
            <AltitudeMeters>664</AltitudeMeters>
            <DistanceMeters>14328.246471495</DistanceMeters>
          </Trackpoint>
          <Trackpoint>
            <Time>2022-08-26T23:36:21.000Z</Time>
            <Position>
              <LatitudeDegrees>50.16583330929279327392578125</LatitudeDegrees>
              <LongitudeDegrees>17.027592547237873077392578125</LongitudeDegrees>
            </Position>
            <AltitudeMeters>663.5999755859375</AltitudeMeters>
            <DistanceMeters>14338.066460617</DistanceMeters>
          </Trackpoint>
          <Trackpoint>
            <Time>2022-08-26T23:36:32.000Z</Time>
            <Position>
              <LatitudeDegrees>50.1659196428954601287841796875</LatitudeDegrees>
              <LongitudeDegrees>17.02756882645189762115478515625</LongitudeDegrees>
            </Position>
            <AltitudeMeters>663.20001220703125</AltitudeMeters>
            <DistanceMeters>14347.823719246</DistanceMeters>
          </Trackpoint>
          <Trackpoint>
            <Time>2022-08-26T23:36:33.000Z</Time>
            <Position>
              <LatitudeDegrees>50.16592894680798053741455078125</LatitudeDegrees>
              <LongitudeDegrees>17.02756404876708984375</LongitudeDegrees>
            </Position>
            <AltitudeMeters>663.20001220703125</AltitudeMeters>
            <DistanceMeters>14348.915493073</DistanceMeters>
          </Trackpoint>
          <Trackpoint>
            <Time>2022-08-26T23:36:43.000Z</Time>
            <Position>
              <LatitudeDegrees>50.16607739031314849853515625</LatitudeDegrees>
              <LongitudeDegrees>17.02747293747961521148681640625</LongitudeDegrees>
            </Position>
            <AltitudeMeters>662.79998779296875</AltitudeMeters>
            <DistanceMeters>14366.66871132</DistanceMeters>
          </Trackpoint>
          <Trackpoint>
            <Time>2022-08-26T23:36:56.000Z</Time>
            <Position>
              <LatitudeDegrees>50.16624611802399158477783203125</LatitudeDegrees>
              <LongitudeDegrees>17.02740705572068691253662109375</LongitudeDegrees>
            </Position>
            <AltitudeMeters>662.20001220703125</AltitudeMeters>
            <DistanceMeters>14386.026891564</DistanceMeters>
          </Trackpoint>
          <Trackpoint>
            <Time>2022-08-26T23:37:01.000Z</Time>
            <Position>
              <LatitudeDegrees>50.16628668643534183502197265625</LatitudeDegrees>
              <LongitudeDegrees>17.02734167687594890594482421875</LongitudeDegrees>
            </Position>
            <AltitudeMeters>662.20001220703125</AltitudeMeters>
            <DistanceMeters>14392.516596991</DistanceMeters>
          </Trackpoint>
          <Trackpoint>
            <Time>2022-08-26T23:37:07.000Z</Time>
            <Position>
              <LatitudeDegrees>50.16633848659694194793701171875</LatitudeDegrees>
              <LongitudeDegrees>17.0273379050195217132568359375</LongitudeDegrees>
            </Position>
            <AltitudeMeters>662</AltitudeMeters>
            <DistanceMeters>14398.288247708</DistanceMeters>
          </Trackpoint>
          <Trackpoint>
            <Time>2022-08-26T23:37:17.000Z</Time>
            <Position>
              <LatitudeDegrees>50.1664567552506923675537109375</LatitudeDegrees>
              <LongitudeDegrees>17.02730898745357990264892578125</LongitudeDegrees>
            </Position>
            <AltitudeMeters>661.79998779296875</AltitudeMeters>
            <DistanceMeters>14411.612335028</DistanceMeters>
          </Trackpoint>
          <Trackpoint>
            <Time>2022-08-26T23:37:26.000Z</Time>
            <Position>
              <LatitudeDegrees>50.1665140874683856964111328125</LatitudeDegrees>
              <LongitudeDegrees>17.02729457058012485504150390625</LongitudeDegrees>
            </Position>
            <AltitudeMeters>661.5999755859375</AltitudeMeters>
            <DistanceMeters>14418.075548905</DistanceMeters>
          </Trackpoint>
          <Trackpoint>
            <Time>2022-08-26T23:37:37.000Z</Time>
            <Position>
              <LatitudeDegrees>50.16658290289342403411865234375</LatitudeDegrees>
              <LongitudeDegrees>17.02725894749164581298828125</LongitudeDegrees>
            </Position>
            <AltitudeMeters>661.4000244140625</AltitudeMeters>
            <DistanceMeters>14426.145549606</DistanceMeters>
          </Trackpoint>
          <Trackpoint>
            <Time>2022-08-26T23:37:41.000Z</Time>
            <Position>
              <LatitudeDegrees>50.16661073081195354461669921875</LatitudeDegrees>
              <LongitudeDegrees>17.027263641357421875</LongitudeDegrees>
            </Position>
            <AltitudeMeters>661</AltitudeMeters>
            <DistanceMeters>14429.262657602</DistanceMeters>
          </Trackpoint>
          <Trackpoint>
            <Time>2022-08-26T23:37:48.000Z</Time>
            <Position>
              <LatitudeDegrees>50.16665733419358730316162109375</LatitudeDegrees>
              <LongitudeDegrees>17.0272359810769557952880859375</LongitudeDegrees>
            </Position>
            <AltitudeMeters>660.5999755859375</AltitudeMeters>
            <DistanceMeters>14434.811762094</DistanceMeters>
          </Trackpoint>
          <Trackpoint>
            <Time>2022-08-26T23:37:53.000Z</Time>
            <Position>
              <LatitudeDegrees>50.16664476133882999420166015625</LatitudeDegrees>
              <LongitudeDegrees>17.02717873267829418182373046875</LongitudeDegrees>
            </Position>
            <AltitudeMeters>660.5999755859375</AltitudeMeters>
            <DistanceMeters>14439.127900149</DistanceMeters>
          </Trackpoint>
          <Trackpoint>
            <Time>2022-08-26T23:37:57.000Z</Time>
            <Position>
              <LatitudeDegrees>50.166653729975223541259765625</LatitudeDegrees>
              <LongitudeDegrees>17.02711888588964939117431640625</LongitudeDegrees>
            </Position>
            <AltitudeMeters>660.5999755859375</AltitudeMeters>
            <DistanceMeters>14443.511506275</DistanceMeters>
          </Trackpoint>
          <Trackpoint>
            <Time>2022-08-26T23:38:05.000Z</Time>
            <Position>
              <LatitudeDegrees>50.16669161617755889892578125</LatitudeDegrees>
              <LongitudeDegrees>17.02708167023956775665283203125</LongitudeDegrees>
            </Position>
            <AltitudeMeters>660.79998779296875</AltitudeMeters>
            <DistanceMeters>14448.494749218</DistanceMeters>
          </Trackpoint>
          <Trackpoint>
            <Time>2022-08-26T23:38:17.000Z</Time>
            <Position>
              <LatitudeDegrees>50.16670477576553821563720703125</LatitudeDegrees>
              <LongitudeDegrees>17.02703925780951976776123046875</LongitudeDegrees>
            </Position>
            <AltitudeMeters>662.20001220703125</AltitudeMeters>
            <DistanceMeters>14451.854450924</DistanceMeters>
          </Trackpoint>
          <Trackpoint>
            <Time>2022-08-26T23:38:18.000Z</Time>
            <Position>
              <LatitudeDegrees>50.1667083799839019775390625</LatitudeDegrees>
              <LongitudeDegrees>17.027033977210521697998046875</LongitudeDegrees>
            </Position>
            <AltitudeMeters>662.4000244140625</AltitudeMeters>
            <DistanceMeters>14452.408547124</DistanceMeters>
          </Trackpoint>
          <Trackpoint>
            <Time>2022-08-26T23:38:23.000Z</Time>
            <Position>
              <LatitudeDegrees>50.166715420782566070556640625</LatitudeDegrees>
              <LongitudeDegrees>17.02701126225292682647705078125</LongitudeDegrees>
            </Position>
            <AltitudeMeters>663.20001220703125</AltitudeMeters>
            <DistanceMeters>14454.209046345</DistanceMeters>
          </Trackpoint>
          <Trackpoint>
            <Time>2022-08-26T23:38:26.000Z</Time>
            <Position>
              <LatitudeDegrees>50.16672355122864246368408203125</LatitudeDegrees>
              <LongitudeDegrees>17.02699474990367889404296875</LongitudeDegrees>
            </Position>
            <AltitudeMeters>663.4000244140625</AltitudeMeters>
            <DistanceMeters>14455.693411075</DistanceMeters>
          </Trackpoint>
          <Trackpoint>
            <Time>2022-08-26T23:38:34.000Z</Time>
            <Position>
              <LatitudeDegrees>50.1667450927197933197021484375</LatitudeDegrees>
              <LongitudeDegrees>17.02699349261820316314697265625</LongitudeDegrees>
            </Position>
            <AltitudeMeters>664.20001220703125</AltitudeMeters>
            <DistanceMeters>14458.093658723</DistanceMeters>
          </Trackpoint>
          <Trackpoint>
            <Time>2022-08-26T23:38:44.000Z</Time>
            <Position>
              <LatitudeDegrees>50.1667271554470062255859375</LatitudeDegrees>
              <LongitudeDegrees>17.02698804438114166259765625</LongitudeDegrees>
            </Position>
            <AltitudeMeters>664.4000244140625</AltitudeMeters>
            <DistanceMeters>14460.129538161</DistanceMeters>
          </Trackpoint>
          <Trackpoint>
            <Time>2022-08-26T23:38:55.000Z</Time>
            <Position>
              <LatitudeDegrees>50.16674232669174671173095703125</LatitudeDegrees>
              <LongitudeDegrees>17.02701595611870288848876953125</LongitudeDegrees>
            </Position>
            <AltitudeMeters>664.20001220703125</AltitudeMeters>
            <DistanceMeters>14462.738882454</DistanceMeters>
          </Trackpoint>
          <Trackpoint>
            <Time>2022-08-26T23:39:04.000Z</Time>
            <Position>
              <LatitudeDegrees>50.16677803359925746917724609375</LatitudeDegrees>
              <LongitudeDegrees>17.02703825198113918304443359375</LongitudeDegrees>
            </Position>
            <AltitudeMeters>664</AltitudeMeters>
            <DistanceMeters>14467.020360608</DistanceMeters>
          </Trackpoint>
          <Trackpoint>
            <Time>2022-08-26T23:39:15.000Z</Time>
            <Position>
              <LatitudeDegrees>50.16684316098690032958984375</LatitudeDegrees>
              <LongitudeDegrees>17.0270167104899883270263671875</LongitudeDegrees>
            </Position>
            <AltitudeMeters>664</AltitudeMeters>
            <DistanceMeters>14474.429397975</DistanceMeters>
          </Trackpoint>
          <Trackpoint>
            <Time>2022-08-26T23:39:26.000Z</Time>
            <Position>
              <LatitudeDegrees>50.16686470247805118560791015625</LatitudeDegrees>
              <LongitudeDegrees>17.02692509628832340240478515625</LongitudeDegrees>
            </Position>
            <AltitudeMeters>665.4000244140625</AltitudeMeters>
            <DistanceMeters>14481.38649577</DistanceMeters>
          </Trackpoint>
          <Trackpoint>
            <Time>2022-08-26T23:39:31.000Z</Time>
            <Position>
              <LatitudeDegrees>50.16688029281795024871826171875</LatitudeDegrees>
              <LongitudeDegrees>17.0268886350095272064208984375</LongitudeDegrees>
            </Position>
            <AltitudeMeters>666.5999755859375</AltitudeMeters>
            <DistanceMeters>14484.512282505</DistanceMeters>
          </Trackpoint>
          <Trackpoint>
            <Time>2022-08-26T23:39:35.000Z</Time>
            <Position>
              <LatitudeDegrees>50.166883729398250579833984375</LatitudeDegrees>
              <LongitudeDegrees>17.026875056326389312744140625</LongitudeDegrees>
            </Position>
            <AltitudeMeters>667.5999755859375</AltitudeMeters>
            <DistanceMeters>14485.553248006</DistanceMeters>
          </Trackpoint>
          <Trackpoint>
            <Time>2022-08-26T23:39:37.000Z</Time>
            <Position>
              <LatitudeDegrees>50.1668894290924072265625</LatitudeDegrees>
              <LongitudeDegrees>17.0268779061734676361083984375</LongitudeDegrees>
            </Position>
            <AltitudeMeters>667.79998779296875</AltitudeMeters>
            <DistanceMeters>14486.225188347</DistanceMeters>
          </Trackpoint>
          <Trackpoint>
            <Time>2022-08-26T23:39:51.000Z</Time>
            <Position>
              <LatitudeDegrees>50.1669174246490001678466796875</LatitudeDegrees>
              <LongitudeDegrees>17.0268789120018482208251953125</LongitudeDegrees>
            </Position>
            <AltitudeMeters>668</AltitudeMeters>
            <DistanceMeters>14489.342296342</DistanceMeters>
          </Trackpoint>
          <Trackpoint>
            <Time>2022-08-26T23:39:58.000Z</Time>
            <Position>
              <LatitudeDegrees>50.1669194363057613372802734375</LatitudeDegrees>
              <LongitudeDegrees>17.02687296085059642791748046875</LongitudeDegrees>
            </Position>
            <AltitudeMeters>668</AltitudeMeters>
            <DistanceMeters>14489.826839413</DistanceMeters>
          </Trackpoint>
          <Trackpoint>
            <Time>2022-08-26T23:40:09.000Z</Time>
            <Position>
              <LatitudeDegrees>50.16693410463631153106689453125</LatitudeDegrees>
              <LongitudeDegrees>17.02686927281320095062255859375</LongitudeDegrees>
            </Position>
            <AltitudeMeters>667.79998779296875</AltitudeMeters>
            <DistanceMeters>14491.483686793</DistanceMeters>
          </Trackpoint>
          <Trackpoint>
            <Time>2022-08-26T23:40:19.000Z</Time>
            <Position>
              <LatitudeDegrees>50.16695623286068439483642578125</LatitudeDegrees>
              <LongitudeDegrees>17.0268779061734676361083984375</LongitudeDegrees>
            </Position>
            <AltitudeMeters>667.4000244140625</AltitudeMeters>
            <DistanceMeters>14494.022874572</DistanceMeters>
          </Trackpoint>
          <Trackpoint>
            <Time>2022-08-26T23:40:30.000Z</Time>
            <Position>
              <LatitudeDegrees>50.16696344129741191864013671875</LatitudeDegrees>
              <LongitudeDegrees>17.02688989229500293731689453125</LongitudeDegrees>
            </Position>
            <AltitudeMeters>667.4000244140625</AltitudeMeters>
            <DistanceMeters>14495.19444259</DistanceMeters>
          </Trackpoint>
          <Trackpoint>
            <Time>2022-08-26T23:40:41.000Z</Time>
            <Position>
              <LatitudeDegrees>50.1669553108513355255126953125</LatitudeDegrees>
              <LongitudeDegrees>17.02687673270702362060546875</LongitudeDegrees>
            </Position>
            <AltitudeMeters>667.4000244140625</AltitudeMeters>
            <DistanceMeters>14496.497383253</DistanceMeters>
          </Trackpoint>
          <Trackpoint>
            <Time>2022-08-26T23:40:51.000Z</Time>
            <Position>
              <LatitudeDegrees>50.16697861254215240478515625</LatitudeDegrees>
              <LongitudeDegrees>17.026895172894001007080078125</LongitudeDegrees>
            </Position>
            <AltitudeMeters>667.20001220703125</AltitudeMeters>
            <DistanceMeters>14499.404641678</DistanceMeters>
          </Trackpoint>
          <Trackpoint>
            <Time>2022-08-26T23:40:54.000Z</Time>
            <Position>
              <LatitudeDegrees>50.1669885031878948211669921875</LatitudeDegrees>
              <LongitudeDegrees>17.026901878416538238525390625</LongitudeDegrees>
            </Position>
            <AltitudeMeters>666.5999755859375</AltitudeMeters>
            <DistanceMeters>14500.606645102</DistanceMeters>
          </Trackpoint>
          <Trackpoint>
            <Time>2022-08-26T23:41:00.000Z</Time>
            <Position>
              <LatitudeDegrees>50.16699604690074920654296875</LatitudeDegrees>
              <LongitudeDegrees>17.02693465165793895721435546875</LongitudeDegrees>
            </Position>
            <AltitudeMeters>665.4000244140625</AltitudeMeters>
            <DistanceMeters>14503.088280074</DistanceMeters>
          </Trackpoint>
          <Trackpoint>
            <Time>2022-08-26T23:41:02.000Z</Time>
            <Position>
              <LatitudeDegrees>50.166994370520114898681640625</LatitudeDegrees>
              <LongitudeDegrees>17.0269365794956684112548828125</LongitudeDegrees>
            </Position>
            <AltitudeMeters>665</AltitudeMeters>
            <DistanceMeters>14503.321047036</DistanceMeters>
          </Trackpoint>
          <Trackpoint>
            <Time>2022-08-26T23:41:08.000Z</Time>
            <Position>
              <LatitudeDegrees>50.1669988967478275299072265625</LatitudeDegrees>
              <LongitudeDegrees>17.0269352383911609649658203125</LongitudeDegrees>
            </Position>
            <AltitudeMeters>664.4000244140625</AltitudeMeters>
            <DistanceMeters>14503.841529787</DistanceMeters>
          </Trackpoint>
          <Trackpoint>
            <Time>2022-08-26T23:41:14.000Z</Time>
            <Position>
              <LatitudeDegrees>50.1669975556433200836181640625</LatitudeDegrees>
              <LongitudeDegrees>17.0269379206001758575439453125</LongitudeDegrees>
            </Position>
            <AltitudeMeters>664</AltitudeMeters>
            <DistanceMeters>14504.092946841</DistanceMeters>
          </Trackpoint>
          <Trackpoint>
            <Time>2022-08-26T23:41:26.000Z</Time>
            <Position>
              <LatitudeDegrees>50.166986323893070220947265625</LatitudeDegrees>
              <LongitudeDegrees>17.0269392617046833038330078125</LongitudeDegrees>
            </Position>
            <AltitudeMeters>663.4000244140625</AltitudeMeters>
            <DistanceMeters>14505.346435294</DistanceMeters>
          </Trackpoint>
          <Trackpoint>
            <Time>2022-08-26T23:41:27.000Z</Time>
            <Position>
              <LatitudeDegrees>50.1669864915311336517333984375</LatitudeDegrees>
              <LongitudeDegrees>17.026938758790493011474609375</LongitudeDegrees>
            </Position>
            <AltitudeMeters>663.4000244140625</AltitudeMeters>
            <DistanceMeters>14505.346435294</DistanceMeters>
          </Trackpoint>
          <Trackpoint>
            <Time>2022-08-26T23:41:35.000Z</Time>
            <Position>
              <LatitudeDegrees>50.1669851504266262054443359375</LatitudeDegrees>
              <LongitudeDegrees>17.02693582512438297271728515625</LongitudeDegrees>
            </Position>
            <AltitudeMeters>663.20001220703125</AltitudeMeters>
            <DistanceMeters>14505.61521143</DistanceMeters>
          </Trackpoint>
          <Trackpoint>
            <Time>2022-08-26T23:41:49.000Z</Time>
            <Position>
              <LatitudeDegrees>50.16701222397387027740478515625</LatitudeDegrees>
              <LongitudeDegrees>17.02693574130535125732421875</LongitudeDegrees>
            </Position>
            <AltitudeMeters>663.4000244140625</AltitudeMeters>
            <DistanceMeters>14508.629221533</DistanceMeters>
          </Trackpoint>
          <Trackpoint>
            <Time>2022-08-26T23:42:00.000Z</Time>
            <Position>
              <LatitudeDegrees>50.1670756749808788299560546875</LatitudeDegrees>
              <LongitudeDegrees>17.02692727558314800262451171875</LongitudeDegrees>
            </Position>
            <AltitudeMeters>664.4000244140625</AltitudeMeters>
            <DistanceMeters>14515.717475573</DistanceMeters>
          </Trackpoint>
          <Trackpoint>
            <Time>2022-08-26T23:42:06.000Z</Time>
            <Position>
              <LatitudeDegrees>50.16711649484932422637939453125</LatitudeDegrees>
              <LongitudeDegrees>17.02693381346762180328369140625</LongitudeDegrees>
            </Position>
            <AltitudeMeters>665.5999755859375</AltitudeMeters>
            <DistanceMeters>14520.284693171</DistanceMeters>
          </Trackpoint>
          <Trackpoint>
            <Time>2022-08-26T23:42:07.000Z</Time>
            <Position>
              <LatitudeDegrees>50.16712320037186145782470703125</LatitudeDegrees>
              <LongitudeDegrees>17.02693347819149494171142578125</LongitudeDegrees>
            </Position>
            <AltitudeMeters>665.79998779296875</AltitudeMeters>
            <DistanceMeters>14521.032934268</DistanceMeters>
          </Trackpoint>
          <Trackpoint>
            <Time>2022-08-26T23:42:13.000Z</Time>
            <Position>
              <LatitudeDegrees>50.16716460697352886199951171875</LatitudeDegrees>
              <LongitudeDegrees>17.02690648846328258514404296875</LongitudeDegrees>
            </Position>
            <AltitudeMeters>666.79998779296875</AltitudeMeters>
            <DistanceMeters>14526.027037905</DistanceMeters>
          </Trackpoint>
          <Trackpoint>
            <Time>2022-08-26T23:42:22.000Z</Time>
            <Position>
              <LatitudeDegrees>50.16723216511309146881103515625</LatitudeDegrees>
              <LongitudeDegrees>17.0268839411437511444091796875</LongitudeDegrees>
            </Position>
            <AltitudeMeters>667.79998779296875</AltitudeMeters>
            <DistanceMeters>14533.715985199</DistanceMeters>
          </Trackpoint>
          <Trackpoint>
            <Time>2022-08-26T23:42:24.000Z</Time>
            <Position>
              <LatitudeDegrees>50.16724406741559505462646484375</LatitudeDegrees>
              <LongitudeDegrees>17.0268681831657886505126953125</LongitudeDegrees>
            </Position>
            <AltitudeMeters>667.79998779296875</AltitudeMeters>
            <DistanceMeters>14535.455259647</DistanceMeters>
          </Trackpoint>
          <Trackpoint>
            <Time>2022-08-26T23:42:31.000Z</Time>
            <Position>
              <LatitudeDegrees>50.1672664470970630645751953125</LatitudeDegrees>
              <LongitudeDegrees>17.0268185622990131378173828125</LongitudeDegrees>
            </Position>
            <AltitudeMeters>668.79998779296875</AltitudeMeters>
            <DistanceMeters>14539.782889316</DistanceMeters>
          </Trackpoint>
          <Trackpoint>
            <Time>2022-08-26T23:42:32.000Z</Time>
            <Position>
              <LatitudeDegrees>50.1672708056867122650146484375</LatitudeDegrees>
              <LongitudeDegrees>17.02681076712906360626220703125</LongitudeDegrees>
            </Position>
            <AltitudeMeters>669</AltitudeMeters>
            <DistanceMeters>14540.525071681</DistanceMeters>
          </Trackpoint>
          <Trackpoint>
            <Time>2022-08-26T23:42:37.000Z</Time>
            <Position>
              <LatitudeDegrees>50.16729419119656085968017578125</LatitudeDegrees>
              <LongitudeDegrees>17.0267795026302337646484375</LongitudeDegrees>
            </Position>
            <AltitudeMeters>669.79998779296875</AltitudeMeters>
            <DistanceMeters>14543.951308593</DistanceMeters>
          </Trackpoint>
          <Trackpoint>
            <Time>2022-08-26T23:42:39.000Z</Time>
            <Position>
              <LatitudeDegrees>50.16730056144297122955322265625</LatitudeDegrees>
              <LongitudeDegrees>17.0267645828425884246826171875</LongitudeDegrees>
            </Position>
            <AltitudeMeters>670.20001220703125</AltitudeMeters>
            <DistanceMeters>14545.226225751</DistanceMeters>
          </Trackpoint>
          <Trackpoint>
            <Time>2022-08-26T23:42:44.000Z</Time>
            <Position>
              <LatitudeDegrees>50.16732621006667613983154296875</LatitudeDegrees>
              <LongitudeDegrees>17.02673683874309062957763671875</LongitudeDegrees>
            </Position>
            <AltitudeMeters>671</AltitudeMeters>
            <DistanceMeters>14548.699578904</DistanceMeters>
          </Trackpoint>
          <Trackpoint>
            <Time>2022-08-26T23:42:46.000Z</Time>
            <Position>
              <LatitudeDegrees>50.167334340512752532958984375</LatitudeDegrees>
              <LongitudeDegrees>17.02673868276178836822509765625</LongitudeDegrees>
            </Position>
            <AltitudeMeters>671.5999755859375</AltitudeMeters>
            <DistanceMeters>14549.611043129</DistanceMeters>
          </Trackpoint>
          <Trackpoint>
            <Time>2022-08-26T23:42:48.000Z</Time>
            <Position>
              <LatitudeDegrees>50.1673415489494800567626953125</LatitudeDegrees>
              <LongitudeDegrees>17.02674773521721363067626953125</LongitudeDegrees>
            </Position>
            <AltitudeMeters>672.20001220703125</AltitudeMeters>
            <DistanceMeters>14550.638914203</DistanceMeters>
          </Trackpoint>
          <Trackpoint>
            <Time>2022-08-26T23:42:55.000Z</Time>
            <Position>
              <LatitudeDegrees>50.16735571436583995819091796875</LatitudeDegrees>
              <LongitudeDegrees>17.02674941159784793853759765625</LongitudeDegrees>
            </Position>
            <AltitudeMeters>673</AltitudeMeters>
            <DistanceMeters>14552.220473931</DistanceMeters>
          </Trackpoint>
          <Trackpoint>
            <Time>2022-08-26T23:42:56.000Z</Time>
            <Position>
              <LatitudeDegrees>50.16735755838453769683837890625</LatitudeDegrees>
              <LongitudeDegrees>17.02675075270235538482666015625</LongitudeDegrees>
            </Position>
            <AltitudeMeters>673.20001220703125</AltitudeMeters>
            <DistanceMeters>14552.453240893</DistanceMeters>
          </Trackpoint>
          <Trackpoint>
            <Time>2022-08-26T23:43:04.000Z</Time>
            <Position>
              <LatitudeDegrees>50.16737432219088077545166015625</LatitudeDegrees>
              <LongitudeDegrees>17.02671085484325885772705078125</LongitudeDegrees>
            </Position>
            <AltitudeMeters>674</AltitudeMeters>
            <DistanceMeters>14555.855675022</DistanceMeters>
          </Trackpoint>
          <Trackpoint>
            <Time>2022-08-26T23:43:07.000Z</Time>
            <Position>
              <LatitudeDegrees>50.1673790998756885528564453125</LatitudeDegrees>
              <LongitudeDegrees>17.0266948454082012176513671875</LongitudeDegrees>
            </Position>
            <AltitudeMeters>674.20001220703125</AltitudeMeters>
            <DistanceMeters>14557.112760293</DistanceMeters>
          </Trackpoint>
          <Trackpoint>
            <Time>2022-08-26T23:43:16.000Z</Time>
            <Position>
              <LatitudeDegrees>50.16742385923862457275390625</LatitudeDegrees>
              <LongitudeDegrees>17.02666861005127429962158203125</LongitudeDegrees>
            </Position>
            <AltitudeMeters>675</AltitudeMeters>
            <DistanceMeters>14562.434256298</DistanceMeters>
          </Trackpoint>
          <Trackpoint>
            <Time>2022-08-26T23:43:18.000Z</Time>
            <Position>
              <LatitudeDegrees>50.16742813400924205780029296875</LatitudeDegrees>
              <LongitudeDegrees>17.02666307799518108367919921875</LongitudeDegrees>
            </Position>
            <AltitudeMeters>675.20001220703125</AltitudeMeters>
            <DistanceMeters>14563.057388135</DistanceMeters>
          </Trackpoint>
          <Trackpoint>
            <Time>2022-08-26T23:43:27.000Z</Time>
            <Position>
              <LatitudeDegrees>50.1674196682870388031005859375</LatitudeDegrees>
              <LongitudeDegrees>17.0267089270055294036865234375</LongitudeDegrees>
            </Position>
            <AltitudeMeters>676.20001220703125</AltitudeMeters>
            <DistanceMeters>14566.459822264</DistanceMeters>
          </Trackpoint>
          <Trackpoint>
            <Time>2022-08-26T23:43:40.000Z</Time>
            <Position>
              <LatitudeDegrees>50.167428217828273773193359375</LatitudeDegrees>
              <LongitudeDegrees>17.026703394949436187744140625</LongitudeDegrees>
            </Position>
            <AltitudeMeters>677</AltitudeMeters>
            <DistanceMeters>14567.487693338</DistanceMeters>
          </Trackpoint>
          <Trackpoint>
            <Time>2022-08-26T23:43:41.000Z</Time>
            <Position>
              <LatitudeDegrees>50.16742913983762264251708984375</LatitudeDegrees>
              <LongitudeDegrees>17.02670783735811710357666015625</LongitudeDegrees>
            </Position>
            <AltitudeMeters>677.20001220703125</AltitudeMeters>
            <DistanceMeters>14567.802861294</DistanceMeters>
          </Trackpoint>
          <Trackpoint>
            <Time>2022-08-26T23:43:53.000Z</Time>
            <Position>
              <LatitudeDegrees>50.16745177097618579864501953125</LatitudeDegrees>
              <LongitudeDegrees>17.026723511517047882080078125</LongitudeDegrees>
            </Position>
            <AltitudeMeters>677.20001220703125</AltitudeMeters>
            <DistanceMeters>14570.556997132</DistanceMeters>
          </Trackpoint>
          <Trackpoint>
            <Time>2022-08-26T23:44:04.000Z</Time>
            <Position>
              <LatitudeDegrees>50.16751932911574840545654296875</LatitudeDegrees>
              <LongitudeDegrees>17.02675092034041881561279296875</LongitudeDegrees>
            </Position>
            <AltitudeMeters>677.20001220703125</AltitudeMeters>
            <DistanceMeters>14578.325975891</DistanceMeters>
          </Trackpoint>
          <Trackpoint>
            <Time>2022-08-26T23:44:15.000Z</Time>
            <Position>
              <LatitudeDegrees>50.16758822835981845855712890625</LatitudeDegrees>
              <LongitudeDegrees>17.02668537385761737823486328125</LongitudeDegrees>
            </Position>
            <AltitudeMeters>677.5999755859375</AltitudeMeters>
            <DistanceMeters>14587.306377481</DistanceMeters>
          </Trackpoint>
          <Trackpoint>
            <Time>2022-08-26T23:44:27.000Z</Time>
            <Position>
              <LatitudeDegrees>50.16765612177550792694091796875</LatitudeDegrees>
              <LongitudeDegrees>17.0266314782202243804931640625</LongitudeDegrees>
            </Position>
            <AltitudeMeters>678</AltitudeMeters>
            <DistanceMeters>14595.784549954</DistanceMeters>
          </Trackpoint>
          <Trackpoint>
            <Time>2022-08-26T23:44:37.000Z</Time>
            <Position>
              <LatitudeDegrees>50.167688392102718353271484375</LatitudeDegrees>
              <LongitudeDegrees>17.02658646740019321441650390625</LongitudeDegrees>
            </Position>
            <AltitudeMeters>678.20001220703125</AltitudeMeters>
            <DistanceMeters>14600.601007821</DistanceMeters>
          </Trackpoint>
          <Trackpoint>
            <Time>2022-08-26T23:44:41.000Z</Time>
            <Position>
              <LatitudeDegrees>50.16769870184361934661865234375</LatitudeDegrees>
              <LongitudeDegrees>17.0265637524425983428955078125</LongitudeDegrees>
            </Position>
            <AltitudeMeters>678</AltitudeMeters>
            <DistanceMeters>14602.585223871</DistanceMeters>
          </Trackpoint>
          <Trackpoint>
            <Time>2022-08-26T23:44:51.000Z</Time>
            <Position>
              <LatitudeDegrees>50.16770775429904460906982421875</LatitudeDegrees>
              <LongitudeDegrees>17.0265630818903446197509765625</LongitudeDegrees>
            </Position>
            <AltitudeMeters>678</AltitudeMeters>
            <DistanceMeters>14603.590892087</DistanceMeters>
          </Trackpoint>
          <Trackpoint>
            <Time>2022-08-26T23:45:00.000Z</Time>
            <Position>
              <LatitudeDegrees>50.1677569560706615447998046875</LatitudeDegrees>
              <LongitudeDegrees>17.0264946855604648590087890625</LongitudeDegrees>
            </Position>
            <AltitudeMeters>678</AltitudeMeters>
            <DistanceMeters>14610.923359281</DistanceMeters>
          </Trackpoint>
          <Trackpoint>
            <Time>2022-08-26T23:45:10.000Z</Time>
            <Position>
              <LatitudeDegrees>50.1678005419671535491943359375</LatitudeDegrees>
              <LongitudeDegrees>17.02646367251873016357421875</LongitudeDegrees>
            </Position>
            <AltitudeMeters>678.20001220703125</AltitudeMeters>
            <DistanceMeters>14616.253333061</DistanceMeters>
          </Trackpoint>
          <Trackpoint>
            <Time>2022-08-26T23:45:17.000Z</Time>
            <Position>
              <LatitudeDegrees>50.167797692120075225830078125</LatitudeDegrees>
              <LongitudeDegrees>17.0264792628586292266845703125</LongitudeDegrees>
            </Position>
            <AltitudeMeters>678.79998779296875</AltitudeMeters>
            <DistanceMeters>14617.409382936</DistanceMeters>
          </Trackpoint>
          <Trackpoint>
            <Time>2022-08-26T23:45:26.000Z</Time>
            <Position>
              <LatitudeDegrees>50.16777413897216320037841796875</LatitudeDegrees>
              <LongitudeDegrees>17.02644749544560909271240234375</LongitudeDegrees>
            </Position>
            <AltitudeMeters>678.79998779296875</AltitudeMeters>
            <DistanceMeters>14620.874927867</DistanceMeters>
          </Trackpoint>
          <Trackpoint>
            <Time>2022-08-26T23:45:40.000Z</Time>
            <Position>
              <LatitudeDegrees>50.1677854545414447784423828125</LatitudeDegrees>
              <LongitudeDegrees>17.026430480182170867919921875</LongitudeDegrees>
            </Position>
            <AltitudeMeters>678</AltitudeMeters>
            <DistanceMeters>14622.624555231</DistanceMeters>
          </Trackpoint>
          <Trackpoint>
            <Time>2022-08-26T23:45:54.000Z</Time>
            <Position>
              <LatitudeDegrees>50.16772367991507053375244140625</LatitudeDegrees>
              <LongitudeDegrees>17.02641799114644527435302734375</LongitudeDegrees>
            </Position>
            <AltitudeMeters>678.20001220703125</AltitudeMeters>
            <DistanceMeters>14629.557599073</DistanceMeters>
          </Trackpoint>
          <Trackpoint>
            <Time>2022-08-26T23:46:07.000Z</Time>
            <Position>
              <LatitudeDegrees>50.16766400076448917388916015625</LatitudeDegrees>
              <LongitudeDegrees>17.02652427367866039276123046875</LongitudeDegrees>
            </Position>
            <AltitudeMeters>677.79998779296875</AltitudeMeters>
            <DistanceMeters>14639.634464142</DistanceMeters>
          </Trackpoint>
          <Trackpoint>
            <Time>2022-08-26T23:46:19.000Z</Time>
            <Position>
              <LatitudeDegrees>50.167664587497711181640625</LatitudeDegrees>
              <LongitudeDegrees>17.026593424379825592041015625</LongitudeDegrees>
            </Position>
            <AltitudeMeters>677.4000244140625</AltitudeMeters>
            <DistanceMeters>14644.564876476</DistanceMeters>
          </Trackpoint>
          <Trackpoint>
            <Time>2022-08-26T23:46:32.000Z</Time>
            <Position>
              <LatitudeDegrees>50.167672298848628997802734375</LatitudeDegrees>
              <LongitudeDegrees>17.02662787400186061859130859375</LongitudeDegrees>
            </Position>
            <AltitudeMeters>677.5999755859375</AltitudeMeters>
            <DistanceMeters>14647.165554706</DistanceMeters>
          </Trackpoint>
          <Trackpoint>
            <Time>2022-08-26T23:46:45.000Z</Time>
            <Position>
              <LatitudeDegrees>50.16765109263360500335693359375</LatitudeDegrees>
              <LongitudeDegrees>17.026565261185169219970703125</LongitudeDegrees>
            </Position>
            <AltitudeMeters>678.4000244140625</AltitudeMeters>
            <DistanceMeters>14652.21539984</DistanceMeters>
          </Trackpoint>
          <Trackpoint>
            <Time>2022-08-26T23:46:59.000Z</Time>
            <Position>
              <LatitudeDegrees>50.16759057529270648956298828125</LatitudeDegrees>
              <LongitudeDegrees>17.02650248073041439056396484375</LongitudeDegrees>
            </Position>
            <AltitudeMeters>679</AltitudeMeters>
            <DistanceMeters>14660.303284221</DistanceMeters>
          </Trackpoint>
          <Trackpoint>
            <Time>2022-08-26T23:47:07.000Z</Time>
            <Position>
              <LatitudeDegrees>50.167546570301055908203125</LatitudeDegrees>
              <LongitudeDegrees>17.02647649683058261871337890625</LongitudeDegrees>
            </Position>
            <AltitudeMeters>679.20001220703125</AltitudeMeters>
            <DistanceMeters>14665.53924756</DistanceMeters>
          </Trackpoint>
          <Trackpoint>
            <Time>2022-08-26T23:47:13.000Z</Time>
            <Position>
              <LatitudeDegrees>50.16750792972743511199951171875</LatitudeDegrees>
              <LongitudeDegrees>17.026422433555126190185546875</LongitudeDegrees>
            </Position>
            <AltitudeMeters>679.5999755859375</AltitudeMeters>
            <DistanceMeters>14671.314026543</DistanceMeters>
          </Trackpoint>
          <Trackpoint>
            <Time>2022-08-26T23:47:21.000Z</Time>
            <Position>
              <LatitudeDegrees>50.16745470464229583740234375</LatitudeDegrees>
              <LongitudeDegrees>17.02637515962123870849609375</LongitudeDegrees>
            </Position>
            <AltitudeMeters>680.20001220703125</AltitudeMeters>
            <DistanceMeters>14678.129502552</DistanceMeters>
          </Trackpoint>
          <Trackpoint>
            <Time>2022-08-26T23:47:26.000Z</Time>
            <Position>
              <LatitudeDegrees>50.16742788255214691162109375</LatitudeDegrees>
              <LongitudeDegrees>17.02635864727199077606201171875</LongitudeDegrees>
            </Position>
            <AltitudeMeters>680.4000244140625</AltitudeMeters>
            <DistanceMeters>14681.339380622</DistanceMeters>
          </Trackpoint>
          <Trackpoint>
            <Time>2022-08-26T23:47:38.000Z</Time>
            <Position>
              <LatitudeDegrees>50.16733668744564056396484375</LatitudeDegrees>
              <LongitudeDegrees>17.0263369381427764892578125</LongitudeDegrees>
            </Position>
            <AltitudeMeters>680.20001220703125</AltitudeMeters>
            <DistanceMeters>14691.606664216</DistanceMeters>
          </Trackpoint>
          <Trackpoint>
            <Time>2022-08-26T23:47:52.000Z</Time>
            <Position>
              <LatitudeDegrees>50.16723216511309146881103515625</LatitudeDegrees>
              <LongitudeDegrees>17.02628823928534984588623046875</LongitudeDegrees>
            </Position>
            <AltitudeMeters>680.79998779296875</AltitudeMeters>
            <DistanceMeters>14703.74704756</DistanceMeters>
          </Trackpoint>
          <Trackpoint>
            <Time>2022-08-26T23:47:58.000Z</Time>
            <Position>
              <LatitudeDegrees>50.1672144792973995208740234375</LatitudeDegrees>
              <LongitudeDegrees>17.02626250684261322021484375</LongitudeDegrees>
            </Position>
            <AltitudeMeters>681</AltitudeMeters>
            <DistanceMeters>14706.438166529</DistanceMeters>
          </Trackpoint>
          <Trackpoint>
            <Time>2022-08-26T23:48:05.000Z</Time>
            <Position>
              <LatitudeDegrees>50.16720567829906940460205078125</LatitudeDegrees>
              <LongitudeDegrees>17.02625043690204620361328125</LongitudeDegrees>
            </Position>
            <AltitudeMeters>681.79998779296875</AltitudeMeters>
            <DistanceMeters>14707.744567864</DistanceMeters>
          </Trackpoint>
          <Trackpoint>
            <Time>2022-08-26T23:48:08.000Z</Time>
            <Position>
              <LatitudeDegrees>50.16720165498554706573486328125</LatitudeDegrees>
              <LongitudeDegrees>17.02625068835914134979248046875</LongitudeDegrees>
            </Position>
            <AltitudeMeters>682</AltitudeMeters>
            <DistanceMeters>14708.190282663</DistanceMeters>
          </Trackpoint>
          <Trackpoint>
            <Time>2022-08-26T23:48:16.000Z</Time>
            <Position>
              <LatitudeDegrees>50.16716879792511463165283203125</LatitudeDegrees>
              <LongitudeDegrees>17.026217244565486907958984375</LongitudeDegrees>
            </Position>
            <AltitudeMeters>682.20001220703125</AltitudeMeters>
            <DistanceMeters>14712.55530973</DistanceMeters>
          </Trackpoint>
          <Trackpoint>
            <Time>2022-08-26T23:48:25.000Z</Time>
            <Position>
              <LatitudeDegrees>50.1671249605715274810791015625</LatitudeDegrees>
              <LongitudeDegrees>17.026156894862651824951171875</LongitudeDegrees>
            </Position>
            <AltitudeMeters>683.20001220703125</AltitudeMeters>
            <DistanceMeters>14719.060303059</DistanceMeters>
          </Trackpoint>
          <Trackpoint>
            <Time>2022-08-26T23:48:27.000Z</Time>
            <Position>
              <LatitudeDegrees>50.16711900942027568817138671875</LatitudeDegrees>
              <LongitudeDegrees>17.0261436514556407928466796875</LongitudeDegrees>
            </Position>
            <AltitudeMeters>683.5999755859375</AltitudeMeters>
            <DistanceMeters>14720.216352934</DistanceMeters>
          </Trackpoint>
          <Trackpoint>
            <Time>2022-08-26T23:48:30.000Z</Time>
            <Position>
              <LatitudeDegrees>50.16710861586034297943115234375</LatitudeDegrees>
              <LongitudeDegrees>17.02612663619220256805419921875</LongitudeDegrees>
            </Position>
            <AltitudeMeters>684.20001220703125</AltitudeMeters>
            <DistanceMeters>14721.894859369</DistanceMeters>
          </Trackpoint>
          <Trackpoint>
            <Time>2022-08-26T23:48:36.000Z</Time>
            <Position>
              <LatitudeDegrees>50.16708933748304843902587890625</LatitudeDegrees>
              <LongitudeDegrees>17.02606846578419208526611328125</LongitudeDegrees>
            </Position>
            <AltitudeMeters>685.4000244140625</AltitudeMeters>
            <DistanceMeters>14726.565690632</DistanceMeters>
          </Trackpoint>
          <Trackpoint>
            <Time>2022-08-26T23:48:41.000Z</Time>
            <Position>
              <LatitudeDegrees>50.16707022674381732940673828125</LatitudeDegrees>
              <LongitudeDegrees>17.02602387405931949615478515625</LongitudeDegrees>
            </Position>
            <AltitudeMeters>686.4000244140625</AltitudeMeters>
            <DistanceMeters>14730.392802336</DistanceMeters>
          </Trackpoint>
          <Trackpoint>
            <Time>2022-08-26T23:48:42.000Z</Time>
            <Position>
              <LatitudeDegrees>50.16706687398254871368408203125</LatitudeDegrees>
              <LongitudeDegrees>17.0260172523558139801025390625</LongitudeDegrees>
            </Position>
            <AltitudeMeters>686.5999755859375</AltitudeMeters>
            <DistanceMeters>14730.993804047</DistanceMeters>
          </Trackpoint>
          <Trackpoint>
            <Time>2022-08-26T23:48:49.000Z</Time>
            <Position>
              <LatitudeDegrees>50.16703971661627292633056640625</LatitudeDegrees>
              <LongitudeDegrees>17.02595480717718601226806640625</LongitudeDegrees>
            </Position>
            <AltitudeMeters>687.5999755859375</AltitudeMeters>
            <DistanceMeters>14736.375203044</DistanceMeters>
          </Trackpoint>
          <Trackpoint>
            <Time>2022-08-26T23:48:54.000Z</Time>
            <Position>
              <LatitudeDegrees>50.16701641492545604705810546875</LatitudeDegrees>
              <LongitudeDegrees>17.02591356821358203887939453125</LongitudeDegrees>
            </Position>
            <AltitudeMeters>688.4000244140625</AltitudeMeters>
            <DistanceMeters>14740.295558909</DistanceMeters>
          </Trackpoint>
          <Trackpoint>
            <Time>2022-08-26T23:48:58.000Z</Time>
            <Position>
              <LatitudeDegrees>50.16700468026101589202880859375</LatitudeDegrees>
              <LongitudeDegrees>17.02587584964931011199951171875</LongitudeDegrees>
            </Position>
            <AltitudeMeters>688.79998779296875</AltitudeMeters>
            <DistanceMeters>14743.285504674</DistanceMeters>
          </Trackpoint>
          <Trackpoint>
            <Time>2022-08-26T23:49:05.000Z</Time>
            <Position>
              <LatitudeDegrees>50.166977941989898681640625</LatitudeDegrees>
              <LongitudeDegrees>17.02582304365932941436767578125</LongitudeDegrees>
            </Position>
            <AltitudeMeters>689.20001220703125</AltitudeMeters>
            <DistanceMeters>14748.084118529</DistanceMeters>
          </Trackpoint>
          <Trackpoint>
            <Time>2022-08-26T23:49:15.000Z</Time>
            <Position>
              <LatitudeDegrees>50.16692035831511020660400390625</LatitudeDegrees>
              <LongitudeDegrees>17.02572514303028583526611328125</LongitudeDegrees>
            </Position>
            <AltitudeMeters>689.79998779296875</AltitudeMeters>
            <DistanceMeters>14757.560145131</DistanceMeters>
          </Trackpoint>
          <Trackpoint>
            <Time>2022-08-26T23:49:17.000Z</Time>
            <Position>
              <LatitudeDegrees>50.16689454205334186553955078125</LatitudeDegrees>
              <LongitudeDegrees>17.02571290545165538787841796875</LongitudeDegrees>
            </Position>
            <AltitudeMeters>690</AltitudeMeters>
            <DistanceMeters>14760.562147178</DistanceMeters>
          </Trackpoint>
          <Trackpoint>
            <Time>2022-08-26T23:49:21.000Z</Time>
            <Position>
              <LatitudeDegrees>50.16686336137354373931884765625</LatitudeDegrees>
              <LongitudeDegrees>17.0256809704005718231201171875</LongitudeDegrees>
            </Position>
            <AltitudeMeters>690.79998779296875</AltitudeMeters>
            <DistanceMeters>14764.712976716</DistanceMeters>
          </Trackpoint>
          <Trackpoint>
            <Time>2022-08-26T23:49:28.000Z</Time>
            <Position>
              <LatitudeDegrees>50.1668332703411579132080078125</LatitudeDegrees>
              <LongitudeDegrees>17.025630511343479156494140625</LongitudeDegrees>
            </Position>
            <AltitudeMeters>691.79998779296875</AltitudeMeters>
            <DistanceMeters>14769.6277966</DistanceMeters>
          </Trackpoint>
          <Trackpoint>
            <Time>2022-08-26T23:49:34.000Z</Time>
            <Position>
              <LatitudeDegrees>50.16680904664099216461181640625</LatitudeDegrees>
              <LongitudeDegrees>17.025615088641643524169921875</LongitudeDegrees>
            </Position>
            <AltitudeMeters>693</AltitudeMeters>
            <DistanceMeters>14772.539710366</DistanceMeters>
          </Trackpoint>
          <Trackpoint>
            <Time>2022-08-26T23:49:38.000Z</Time>
            <Position>
              <LatitudeDegrees>50.16678859479725360870361328125</LatitudeDegrees>
              <LongitudeDegrees>17.02560779638588428497314453125</LongitudeDegrees>
            </Position>
            <AltitudeMeters>693.20001220703125</AltitudeMeters>
            <DistanceMeters>14774.875125997</DistanceMeters>
          </Trackpoint>
          <Trackpoint>
            <Time>2022-08-26T23:49:48.000Z</Time>
            <Position>
              <LatitudeDegrees>50.16673478297889232635498046875</LatitudeDegrees>
              <LongitudeDegrees>17.02560578472912311553955078125</LongitudeDegrees>
            </Position>
            <AltitudeMeters>693.20001220703125</AltitudeMeters>
            <DistanceMeters>14780.866332376</DistanceMeters>
          </Trackpoint>
          <Trackpoint>
            <Time>2022-08-26T23:50:01.000Z</Time>
            <Position>
              <LatitudeDegrees>50.166650712490081787109375</LatitudeDegrees>
              <LongitudeDegrees>17.0255713351070880889892578125</LongitudeDegrees>
            </Position>
            <AltitudeMeters>693.20001220703125</AltitudeMeters>
            <DistanceMeters>14790.540406609</DistanceMeters>
          </Trackpoint>
          <Trackpoint>
            <Time>2022-08-26T23:50:13.000Z</Time>
            <Position>
              <LatitudeDegrees>50.1666123233735561370849609375</LatitudeDegrees>
              <LongitudeDegrees>17.0255376398563385009765625</LongitudeDegrees>
            </Position>
            <AltitudeMeters>693.20001220703125</AltitudeMeters>
            <DistanceMeters>14795.443269394</DistanceMeters>
          </Trackpoint>
          <Trackpoint>
            <Time>2022-08-26T23:50:25.000Z</Time>
            <Position>
              <LatitudeDegrees>50.166521631181240081787109375</LatitudeDegrees>
              <LongitudeDegrees>17.02549095265567302703857421875</LongitudeDegrees>
            </Position>
            <AltitudeMeters>694</AltitudeMeters>
            <DistanceMeters>14806.071827919</DistanceMeters>
          </Trackpoint>
          <Trackpoint>
            <Time>2022-08-26T23:50:27.000Z</Time>
            <Position>
              <LatitudeDegrees>50.16650528647005558013916015625</LatitudeDegrees>
              <LongitudeDegrees>17.02548198401927947998046875</LongitudeDegrees>
            </Position>
            <AltitudeMeters>694.20001220703125</AltitudeMeters>
            <DistanceMeters>14807.995972233</DistanceMeters>
          </Trackpoint>
          <Trackpoint>
            <Time>2022-08-26T23:50:33.000Z</Time>
            <Position>
              <LatitudeDegrees>50.16645491123199462890625</LatitudeDegrees>
              <LongitudeDegrees>17.0254690758883953094482421875</LongitudeDegrees>
            </Position>
            <AltitudeMeters>695.4000244140625</AltitudeMeters>
            <DistanceMeters>14813.678537971</DistanceMeters>
          </Trackpoint>
          <Trackpoint>
            <Time>2022-08-26T23:50:35.000Z</Time>
            <Position>
              <LatitudeDegrees>50.16644543968141078948974609375</LatitudeDegrees>
              <LongitudeDegrees>17.02546698041260242462158203125</LongitudeDegrees>
            </Position>
            <AltitudeMeters>695.79998779296875</AltitudeMeters>
            <DistanceMeters>14814.745210194</DistanceMeters>
          </Trackpoint>
          <Trackpoint>
            <Time>2022-08-26T23:50:38.000Z</Time>
            <Position>
              <LatitudeDegrees>50.166418366134166717529296875</LatitudeDegrees>
              <LongitudeDegrees>17.0254570059478282928466796875</LongitudeDegrees>
            </Position>
            <AltitudeMeters>696.4000244140625</AltitudeMeters>
            <DistanceMeters>14817.840514881</DistanceMeters>
          </Trackpoint>
          <Trackpoint>
            <Time>2022-08-26T23:50:44.000Z</Time>
            <Position>
              <LatitudeDegrees>50.16637905500829219818115234375</LatitudeDegrees>
              <LongitudeDegrees>17.0254114083945751190185546875</LongitudeDegrees>
            </Position>
            <AltitudeMeters>697</AltitudeMeters>
            <DistanceMeters>14823.29110673</DistanceMeters>
          </Trackpoint>
          <Trackpoint>
            <Time>2022-08-26T23:50:48.000Z</Time>
            <Position>
              <LatitudeDegrees>50.16633756458759307861328125</LatitudeDegrees>
              <LongitudeDegrees>17.0253886096179485321044921875</LongitudeDegrees>
            </Position>
            <AltitudeMeters>697.4000244140625</AltitudeMeters>
            <DistanceMeters>14828.186596785</DistanceMeters>
          </Trackpoint>
          <Trackpoint>
            <Time>2022-08-26T23:50:53.000Z</Time>
            <Position>
              <LatitudeDegrees>50.1663102395832538604736328125</LatitudeDegrees>
              <LongitudeDegrees>17.0253659784793853759765625</LongitudeDegrees>
            </Position>
            <AltitudeMeters>698.4000244140625</AltitudeMeters>
            <DistanceMeters>14831.631233261</DistanceMeters>
          </Trackpoint>
          <Trackpoint>
            <Time>2022-08-26T23:50:56.000Z</Time>
            <Position>
              <LatitudeDegrees>50.16629188321530818939208984375</LatitudeDegrees>
              <LongitudeDegrees>17.025351561605930328369140625</LongitudeDegrees>
            </Position>
            <AltitudeMeters>699</AltitudeMeters>
            <DistanceMeters>14833.919779598</DistanceMeters>
          </Trackpoint>
          <Trackpoint>
            <Time>2022-08-26T23:51:05.000Z</Time>
            <Position>
              <LatitudeDegrees>50.1662456989288330078125</LatitudeDegrees>
              <LongitudeDegrees>17.02531174756586551666259765625</LongitudeDegrees>
            </Position>
            <AltitudeMeters>699.4000244140625</AltitudeMeters>
            <DistanceMeters>14839.791477126</DistanceMeters>
          </Trackpoint>
          <Trackpoint>
            <Time>2022-08-26T23:51:11.000Z</Time>
            <Position>
              <LatitudeDegrees>50.16621745191514492034912109375</LatitudeDegrees>
              <LongitudeDegrees>17.02527872286736965179443359375</LongitudeDegrees>
            </Position>
            <AltitudeMeters>699.5999755859375</AltitudeMeters>
            <DistanceMeters>14843.718737057</DistanceMeters>
          </Trackpoint>
          <Trackpoint>
            <Time>2022-08-26T23:51:17.000Z</Time>
            <Position>
              <LatitudeDegrees>50.16619012691080570220947265625</LatitudeDegrees>
              <LongitudeDegrees>17.02522222883999347686767578125</LongitudeDegrees>
            </Position>
            <AltitudeMeters>699.5999755859375</AltitudeMeters>
            <DistanceMeters>14848.765004546</DistanceMeters>
          </Trackpoint>
          <Trackpoint>
            <Time>2022-08-26T23:51:29.000Z</Time>
            <Position>
              <LatitudeDegrees>50.1661251671612262725830078125</LatitudeDegrees>
              <LongitudeDegrees>17.025183923542499542236328125</LongitudeDegrees>
            </Position>
            <AltitudeMeters>700.4000244140625</AltitudeMeters>
            <DistanceMeters>14856.494363236</DistanceMeters>
          </Trackpoint>
          <Trackpoint>
            <Time>2022-08-26T23:51:31.000Z</Time>
            <Position>
              <LatitudeDegrees>50.166117958724498748779296875</LatitudeDegrees>
              <LongitudeDegrees>17.0251934789121150970458984375</LongitudeDegrees>
            </Position>
            <AltitudeMeters>700.5999755859375</AltitudeMeters>
            <DistanceMeters>14857.548260481</DistanceMeters>
          </Trackpoint>
          <Trackpoint>
            <Time>2022-08-26T23:51:40.000Z</Time>
            <Position>
              <LatitudeDegrees>50.16611360013484954833984375</LatitudeDegrees>
              <LongitudeDegrees>17.02519272454082965850830078125</LongitudeDegrees>
            </Position>
            <AltitudeMeters>701</AltitudeMeters>
            <DistanceMeters>14858.042033773</DistanceMeters>
          </Trackpoint>
          <Trackpoint>
            <Time>2022-08-26T23:51:50.000Z</Time>
            <Position>
              <LatitudeDegrees>50.16611494123935699462890625</LatitudeDegrees>
              <LongitudeDegrees>17.02516020275652408599853515625</LongitudeDegrees>
            </Position>
            <AltitudeMeters>701</AltitudeMeters>
            <DistanceMeters>14860.365820707</DistanceMeters>
          </Trackpoint>
          <Trackpoint>
            <Time>2022-08-26T23:51:59.000Z</Time>
            <Position>
              <LatitudeDegrees>50.1660869456827640533447265625</LatitudeDegrees>
              <LongitudeDegrees>17.02509080059826374053955078125</LongitudeDegrees>
            </Position>
            <AltitudeMeters>701.79998779296875</AltitudeMeters>
            <DistanceMeters>14866.212860079</DistanceMeters>
          </Trackpoint>
          <Trackpoint>
            <Time>2022-08-26T23:52:01.000Z</Time>
            <Position>
              <LatitudeDegrees>50.1660807430744171142578125</LatitudeDegrees>
              <LongitudeDegrees>17.025073282420635223388671875</LongitudeDegrees>
            </Position>
            <AltitudeMeters>702.4000244140625</AltitudeMeters>
            <DistanceMeters>14867.638260794</DistanceMeters>
          </Trackpoint>
          <Trackpoint>
            <Time>2022-08-26T23:52:04.000Z</Time>
            <Position>
              <LatitudeDegrees>50.16607068479061126708984375</LatitudeDegrees>
              <LongitudeDegrees>17.02504788525402545928955078125</LongitudeDegrees>
            </Position>
            <AltitudeMeters>703</AltitudeMeters>
            <DistanceMeters>14869.767368207</DistanceMeters>
          </Trackpoint>
          <Trackpoint>
            <Time>2022-08-26T23:52:10.000Z</Time>
            <Position>
              <LatitudeDegrees>50.1660619676113128662109375</LatitudeDegrees>
              <LongitudeDegrees>17.02499826438724994659423828125</LongitudeDegrees>
            </Position>
            <AltitudeMeters>704</AltitudeMeters>
            <DistanceMeters>14873.435448618</DistanceMeters>
          </Trackpoint>
          <Trackpoint>
            <Time>2022-08-26T23:52:11.000Z</Time>
            <Position>
              <LatitudeDegrees>50.1660624705255031585693359375</LatitudeDegrees>
              <LongitudeDegrees>17.02498937956988811492919921875</LongitudeDegrees>
            </Position>
            <AltitudeMeters>704.20001220703125</AltitudeMeters>
            <DistanceMeters>14874.065784531</DistanceMeters>
          </Trackpoint>
          <Trackpoint>
            <Time>2022-08-26T23:52:16.000Z</Time>
            <Position>
              <LatitudeDegrees>50.16605886630713939666748046875</LatitudeDegrees>
              <LongitudeDegrees>17.0249493978917598724365234375</LongitudeDegrees>
            </Position>
            <AltitudeMeters>705.20001220703125</AltitudeMeters>
            <DistanceMeters>14876.944952844</DistanceMeters>
          </Trackpoint>
          <Trackpoint>
            <Time>2022-08-26T23:52:18.000Z</Time>
            <Position>
              <LatitudeDegrees>50.1660584472119808197021484375</LatitudeDegrees>
              <LongitudeDegrees>17.02493288554251194000244140625</LongitudeDegrees>
            </Position>
            <AltitudeMeters>705.5999755859375</AltitudeMeters>
            <DistanceMeters>14878.124203357</DistanceMeters>
          </Trackpoint>
          <Trackpoint>
            <Time>2022-08-26T23:52:22.000Z</Time>
            <Position>
              <LatitudeDegrees>50.1660571061074733734130859375</LatitudeDegrees>
              <LongitudeDegrees>17.02489667572081089019775390625</LongitudeDegrees>
            </Position>
            <AltitudeMeters>706.4000244140625</AltitudeMeters>
            <DistanceMeters>14880.710955499</DistanceMeters>
          </Trackpoint>
          <Trackpoint>
            <Time>2022-08-26T23:52:26.000Z</Time>
            <Position>
              <LatitudeDegrees>50.1660539209842681884765625</LatitudeDegrees>
              <LongitudeDegrees>17.0248655788600444793701171875</LongitudeDegrees>
            </Position>
            <AltitudeMeters>707.20001220703125</AltitudeMeters>
            <DistanceMeters>14882.955678791</DistanceMeters>
          </Trackpoint>
          <Trackpoint>
            <Time>2022-08-26T23:52:28.000Z</Time>
            <Position>
              <LatitudeDegrees>50.1660540886223316192626953125</LatitudeDegrees>
              <LongitudeDegrees>17.0248511619865894317626953125</LongitudeDegrees>
            </Position>
            <AltitudeMeters>707.79998779296875</AltitudeMeters>
            <DistanceMeters>14883.983549865</DistanceMeters>
          </Trackpoint>
          <Trackpoint>
            <Time>2022-08-26T23:52:34.000Z</Time>
            <Position>
              <LatitudeDegrees>50.16604729928076267242431640625</LatitudeDegrees>
              <LongitudeDegrees>17.02481277287006378173828125</LongitudeDegrees>
            </Position>
            <AltitudeMeters>708.5999755859375</AltitudeMeters>
            <DistanceMeters>14886.823243204</DistanceMeters>
          </Trackpoint>
          <Trackpoint>
            <Time>2022-08-26T23:52:35.000Z</Time>
            <Position>
              <LatitudeDegrees>50.1660458743572235107421875</LatitudeDegrees>
              <LongitudeDegrees>17.024808414280414581298828125</LongitudeDegrees>
            </Position>
            <AltitudeMeters>708.79998779296875</AltitudeMeters>
            <DistanceMeters>14887.165866896</DistanceMeters>
          </Trackpoint>
          <Trackpoint>
            <Time>2022-08-26T23:52:41.000Z</Time>
            <Position>
              <LatitudeDegrees>50.166053585708141326904296875</LatitudeDegrees>
              <LongitudeDegrees>17.02478301711380481719970703125</LongitudeDegrees>
            </Position>
            <AltitudeMeters>710</AltitudeMeters>
            <DistanceMeters>14889.168204015</DistanceMeters>
          </Trackpoint>
          <Trackpoint>
            <Time>2022-08-26T23:52:44.000Z</Time>
            <Position>
              <LatitudeDegrees>50.1660587824881076812744140625</LatitudeDegrees>
              <LongitudeDegrees>17.0247683487832546234130859375</LongitudeDegrees>
            </Position>
            <AltitudeMeters>710.4000244140625</AltitudeMeters>
            <DistanceMeters>14890.362671293</DistanceMeters>
          </Trackpoint>
          <Trackpoint>
            <Time>2022-08-26T23:52:48.000Z</Time>
            <Position>
              <LatitudeDegrees>50.16607546247541904449462890625</LatitudeDegrees>
              <LongitudeDegrees>17.0247613079845905303955078125</LongitudeDegrees>
            </Position>
            <AltitudeMeters>711</AltitudeMeters>
            <DistanceMeters>14892.284467658</DistanceMeters>
          </Trackpoint>
          <Trackpoint>
            <Time>2022-08-26T23:52:54.000Z</Time>
            <Position>
              <LatitudeDegrees>50.16610882245004177093505859375</LatitudeDegrees>
              <LongitudeDegrees>17.02473230659961700439453125</LongitudeDegrees>
            </Position>
            <AltitudeMeters>712.20001220703125</AltitudeMeters>
            <DistanceMeters>14896.534191518</DistanceMeters>
          </Trackpoint>
          <Trackpoint>
            <Time>2022-08-26T23:52:55.000Z</Time>
            <Position>
              <LatitudeDegrees>50.16611435450613498687744140625</LatitudeDegrees>
              <LongitudeDegrees>17.02472384087741374969482421875</LongitudeDegrees>
            </Position>
            <AltitudeMeters>712.4000244140625</AltitudeMeters>
            <DistanceMeters>14897.394695015</DistanceMeters>
          </Trackpoint>
          <Trackpoint>
            <Time>2022-08-26T23:53:01.000Z</Time>
            <Position>
              <LatitudeDegrees>50.166145451366901397705078125</LatitudeDegrees>
              <LongitudeDegrees>17.02465452253818511962890625</LongitudeDegrees>
            </Position>
            <AltitudeMeters>713.4000244140625</AltitudeMeters>
            <DistanceMeters>14903.427956002</DistanceMeters>
          </Trackpoint>
          <Trackpoint>
            <Time>2022-08-26T23:53:02.000Z</Time>
            <Position>
              <LatitudeDegrees>50.16615123488008975982666015625</LatitudeDegrees>
              <LongitudeDegrees>17.02464320696890354156494140625</LongitudeDegrees>
            </Position>
            <AltitudeMeters>713.4000244140625</AltitudeMeters>
            <DistanceMeters>14904.460210341</DistanceMeters>
          </Trackpoint>
          <Trackpoint>
            <Time>2022-08-26T23:53:06.000Z</Time>
            <Position>
              <LatitudeDegrees>50.16617369838058948516845703125</LatitudeDegrees>
              <LongitudeDegrees>17.024595178663730621337890625</LongitudeDegrees>
            </Position>
            <AltitudeMeters>714</AltitudeMeters>
            <DistanceMeters>14908.699296578</DistanceMeters>
          </Trackpoint>
          <Trackpoint>
            <Time>2022-08-26T23:53:10.000Z</Time>
            <Position>
              <LatitudeDegrees>50.1661925576627254486083984375</LatitudeDegrees>
              <LongitudeDegrees>17.0245406962931156158447265625</LongitudeDegrees>
            </Position>
            <AltitudeMeters>714.5999755859375</AltitudeMeters>
            <DistanceMeters>14913.113694042</DistanceMeters>
          </Trackpoint>
          <Trackpoint>
            <Time>2022-08-26T23:53:16.000Z</Time>
            <Position>
              <LatitudeDegrees>50.166221223771572113037109375</LatitudeDegrees>
              <LongitudeDegrees>17.0244568772614002227783203125</LongitudeDegrees>
            </Position>
            <AltitudeMeters>715.20001220703125</AltitudeMeters>
            <DistanceMeters>14919.88797249</DistanceMeters>
          </Trackpoint>
          <Trackpoint>
            <Time>2022-08-26T23:53:19.000Z</Time>
            <Position>
              <LatitudeDegrees>50.1662341319024562835693359375</LatitudeDegrees>
              <LongitudeDegrees>17.02441580593585968017578125</LongitudeDegrees>
            </Position>
            <AltitudeMeters>715.5999755859375</AltitudeMeters>
            <DistanceMeters>14923.149479818</DistanceMeters>
          </Trackpoint>
          <Trackpoint>
            <Time>2022-08-26T23:53:26.000Z</Time>
            <Position>
              <LatitudeDegrees>50.16626380383968353271484375</LatitudeDegrees>
              <LongitudeDegrees>17.02433089725673198699951171875</LongitudeDegrees>
            </Position>
            <AltitudeMeters>716.79998779296875</AltitudeMeters>
            <DistanceMeters>14930.045303376</DistanceMeters>
          </Trackpoint>
          <Trackpoint>
            <Time>2022-08-26T23:53:34.000Z</Time>
            <Position>
              <LatitudeDegrees>50.1662985049188137054443359375</LatitudeDegrees>
              <LongitudeDegrees>17.02423400245606899261474609375</LongitudeDegrees>
            </Position>
            <AltitudeMeters>718</AltitudeMeters>
            <DistanceMeters>14937.959950576</DistanceMeters>
          </Trackpoint>
          <Trackpoint>
            <Time>2022-08-26T23:53:36.000Z</Time>
            <Position>
              <LatitudeDegrees>50.16631183214485645294189453125</LatitudeDegrees>
              <LongitudeDegrees>17.0242127962410449981689453125</LongitudeDegrees>
            </Position>
            <AltitudeMeters>718.20001220703125</AltitudeMeters>
            <DistanceMeters>14940.076295991</DistanceMeters>
          </Trackpoint>
          <Trackpoint>
            <Time>2022-08-26T23:53:43.000Z</Time>
            <Position>
              <LatitudeDegrees>50.166341252624988555908203125</LatitudeDegrees>
              <LongitudeDegrees>17.0241407118737697601318359375</LongitudeDegrees>
            </Position>
            <AltitudeMeters>719.20001220703125</AltitudeMeters>
            <DistanceMeters>14946.169872473</DistanceMeters>
          </Trackpoint>
          <Trackpoint>
            <Time>2022-08-26T23:53:44.000Z</Time>
            <Position>
              <LatitudeDegrees>50.16634452156722545623779296875</LatitudeDegrees>
              <LongitudeDegrees>17.0241286419332027435302734375</LongitudeDegrees>
            </Position>
            <AltitudeMeters>719.20001220703125</AltitudeMeters>
            <DistanceMeters>14947.100940321</DistanceMeters>
          </Trackpoint>
          <Trackpoint>
            <Time>2022-08-26T23:53:52.000Z</Time>
            <Position>
              <LatitudeDegrees>50.16638047993183135986328125</LatitudeDegrees>
              <LongitudeDegrees>17.02402344904839992523193359375</LongitudeDegrees>
            </Position>
            <AltitudeMeters>720.20001220703125</AltitudeMeters>
            <DistanceMeters>14955.601450406</DistanceMeters>
          </Trackpoint>
          <Trackpoint>
            <Time>2022-08-26T23:53:58.000Z</Time>
            <Position>
              <LatitudeDegrees>50.16640755347907543182373046875</LatitudeDegrees>
              <LongitudeDegrees>17.02392898499965667724609375</LongitudeDegrees>
            </Position>
            <AltitudeMeters>720.79998779296875</AltitudeMeters>
            <DistanceMeters>14962.979343114</DistanceMeters>
          </Trackpoint>
          <Trackpoint>
            <Time>2022-08-26T23:54:02.000Z</Time>
            <Position>
              <LatitudeDegrees>50.166423059999942779541015625</LatitudeDegrees>
              <LongitudeDegrees>17.02386167831718921661376953125</LongitudeDegrees>
            </Position>
            <AltitudeMeters>721.4000244140625</AltitudeMeters>
            <DistanceMeters>14968.079011746</DistanceMeters>
          </Trackpoint>
          <Trackpoint>
            <Time>2022-08-26T23:54:07.000Z</Time>
            <Position>
              <LatitudeDegrees>50.166440494358539581298828125</LatitudeDegrees>
              <LongitudeDegrees>17.0237786136567592620849609375</LongitudeDegrees>
            </Position>
            <AltitudeMeters>722</AltitudeMeters>
            <DistanceMeters>14974.310330123</DistanceMeters>
          </Trackpoint>
          <Trackpoint>
            <Time>2022-08-26T23:54:13.000Z</Time>
            <Position>
              <LatitudeDegrees>50.16645415686070919036865234375</LatitudeDegrees>
              <LongitudeDegrees>17.02368414960801601409912109375</LongitudeDegrees>
            </Position>
            <AltitudeMeters>722.5999755859375</AltitudeMeters>
            <DistanceMeters>14981.21466018</DistanceMeters>
          </Trackpoint>
          <Trackpoint>
            <Time>2022-08-26T23:54:16.000Z</Time>
            <Position>
              <LatitudeDegrees>50.166457593441009521484375</LatitudeDegrees>
              <LongitudeDegrees>17.0236317627131938934326171875</LongitudeDegrees>
            </Position>
            <AltitudeMeters>722.79998779296875</AltitudeMeters>
            <DistanceMeters>14984.969117442</DistanceMeters>
          </Trackpoint>
          <Trackpoint>
            <Time>2022-08-26T23:54:18.000Z</Time>
            <Position>
              <LatitudeDegrees>50.16645801253616809844970703125</LatitudeDegrees>
              <LongitudeDegrees>17.02359966002404689788818359375</LongitudeDegrees>
            </Position>
            <AltitudeMeters>723</AltitudeMeters>
            <DistanceMeters>14987.257663779</DistanceMeters>
          </Trackpoint>
          <Trackpoint>
            <Time>2022-08-26T23:54:23.000Z</Time>
            <Position>
              <LatitudeDegrees>50.1664604432880878448486328125</LatitudeDegrees>
              <LongitudeDegrees>17.023520953953266143798828125</LongitudeDegrees>
            </Position>
            <AltitudeMeters>723.5999755859375</AltitudeMeters>
            <DistanceMeters>14992.876306609</DistanceMeters>
          </Trackpoint>
          <Trackpoint>
            <Time>2022-08-26T23:54:24.000Z</Time>
            <Position>
              <LatitudeDegrees>50.1664617843925952911376953125</LatitudeDegrees>
              <LongitudeDegrees>17.02350511215627193450927734375</LongitudeDegrees>
            </Position>
            <AltitudeMeters>723.5999755859375</AltitudeMeters>
            <DistanceMeters>14994.012660837</DistanceMeters>
          </Trackpoint>
          <Trackpoint>
            <Time>2022-08-26T23:54:33.000Z</Time>
            <Position>
              <LatitudeDegrees>50.16646639443933963775634765625</LatitudeDegrees>
              <LongitudeDegrees>17.02334384433925151824951171875</LongitudeDegrees>
            </Position>
            <AltitudeMeters>724</AltitudeMeters>
            <DistanceMeters>15005.52188285</DistanceMeters>
          </Trackpoint>
          <Trackpoint>
            <Time>2022-08-26T23:54:42.000Z</Time>
            <Position>
              <LatitudeDegrees>50.166492797434329986572265625</LatitudeDegrees>
              <LongitudeDegrees>17.02317235060036182403564453125</LongitudeDegrees>
            </Position>
            <AltitudeMeters>724.79998779296875</AltitudeMeters>
            <DistanceMeters>15018.096326716</DistanceMeters>
          </Trackpoint>
          <Trackpoint>
            <Time>2022-08-26T23:54:43.000Z</Time>
            <Position>
              <LatitudeDegrees>50.166497491300106048583984375</LatitudeDegrees>
              <LongitudeDegrees>17.02315458096563816070556640625</LongitudeDegrees>
            </Position>
            <AltitudeMeters>724.79998779296875</AltitudeMeters>
            <DistanceMeters>15019.466821481</DistanceMeters>
          </Trackpoint>
          <Trackpoint>
            <Time>2022-08-26T23:54:51.000Z</Time>
            <Position>
              <LatitudeDegrees>50.16653512604534626007080078125</LatitudeDegrees>
              <LongitudeDegrees>17.0230128429830074310302734375</LongitudeDegrees>
            </Position>
            <AltitudeMeters>725.4000244140625</AltitudeMeters>
            <DistanceMeters>15030.405630509</DistanceMeters>
          </Trackpoint>
          <Trackpoint>
            <Time>2022-08-26T23:54:58.000Z</Time>
            <Position>
              <LatitudeDegrees>50.1665737666189670562744140625</LatitudeDegrees>
              <LongitudeDegrees>17.022903375327587127685546875</LongitudeDegrees>
            </Position>
            <AltitudeMeters>726</AltitudeMeters>
            <DistanceMeters>15039.316887</DistanceMeters>
          </Trackpoint>
          <Trackpoint>
            <Time>2022-08-26T23:55:01.000Z</Time>
            <Position>
              <LatitudeDegrees>50.16659279353916645050048828125</LatitudeDegrees>
              <LongitudeDegrees>17.02286372892558574676513671875</LongitudeDegrees>
            </Position>
            <AltitudeMeters>726</AltitudeMeters>
            <DistanceMeters>15042.846972763</DistanceMeters>
          </Trackpoint>
          <Trackpoint>
            <Time>2022-08-26T23:55:10.000Z</Time>
            <Position>
              <LatitudeDegrees>50.16665163449943065643310546875</LatitudeDegrees>
              <LongitudeDegrees>17.022770605981349945068359375</LongitudeDegrees>
            </Position>
            <AltitudeMeters>726.79998779296875</AltitudeMeters>
            <DistanceMeters>15052.172187836</DistanceMeters>
          </Trackpoint>
          <Trackpoint>
            <Time>2022-08-26T23:55:12.000Z</Time>
            <Position>
              <LatitudeDegrees>50.1666636206209659576416015625</LatitudeDegrees>
              <LongitudeDegrees>17.02274839393794536590576171875</LongitudeDegrees>
            </Position>
            <AltitudeMeters>727</AltitudeMeters>
            <DistanceMeters>15054.245425976</DistanceMeters>
          </Trackpoint>
          <Trackpoint>
            <Time>2022-08-26T23:55:20.000Z</Time>
            <Position>
              <LatitudeDegrees>50.16671575605869293212890625</LatitudeDegrees>
              <LongitudeDegrees>17.02267262153327465057373046875</LongitudeDegrees>
            </Position>
            <AltitudeMeters>727.4000244140625</AltitudeMeters>
            <DistanceMeters>15062.173752542</DistanceMeters>
          </Trackpoint>
          <Trackpoint>
            <Time>2022-08-26T23:55:30.000Z</Time>
            <Position>
              <LatitudeDegrees>50.16679194755852222442626953125</LatitudeDegrees>
              <LongitudeDegrees>17.02260472811758518218994140625</LongitudeDegrees>
            </Position>
            <AltitudeMeters>727.5999755859375</AltitudeMeters>
            <DistanceMeters>15071.93887452</DistanceMeters>
          </Trackpoint>
          <Trackpoint>
            <Time>2022-08-26T23:55:41.000Z</Time>
            <Position>
              <LatitudeDegrees>50.166858248412609100341796875</LatitudeDegrees>
              <LongitudeDegrees>17.0225751399993896484375</LongitudeDegrees>
            </Position>
            <AltitudeMeters>728.20001220703125</AltitudeMeters>
            <DistanceMeters>15079.614304066</DistanceMeters>
          </Trackpoint>
          <Trackpoint>
            <Time>2022-08-26T23:55:44.000Z</Time>
            <Position>
              <LatitudeDegrees>50.1668745093047618865966796875</LatitudeDegrees>
              <LongitudeDegrees>17.02257044613361358642578125</LongitudeDegrees>
            </Position>
            <AltitudeMeters>728.4000244140625</AltitudeMeters>
            <DistanceMeters>15081.456940423</DistanceMeters>
          </Trackpoint>
          <Trackpoint>
            <Time>2022-08-26T23:55:57.000Z</Time>
            <Position>
              <LatitudeDegrees>50.16696746461093425750732421875</LatitudeDegrees>
              <LongitudeDegrees>17.02253021299839019775390625</LongitudeDegrees>
            </Position>
            <AltitudeMeters>729.20001220703125</AltitudeMeters>
            <DistanceMeters>15092.193277126</DistanceMeters>
          </Trackpoint>
          <Trackpoint>
            <Time>2022-08-26T23:55:58.000Z</Time>
            <Position>
              <LatitudeDegrees>50.166975595057010650634765625</LatitudeDegrees>
              <LongitudeDegrees>17.02252442948520183563232421875</LongitudeDegrees>
            </Position>
            <AltitudeMeters>729.20001220703125</AltitudeMeters>
            <DistanceMeters>15093.189925715</DistanceMeters>
          </Trackpoint>
          <Trackpoint>
            <Time>2022-08-26T23:56:10.000Z</Time>
            <Position>
              <LatitudeDegrees>50.16707374714314937591552734375</LatitudeDegrees>
              <LongitudeDegrees>17.0225149579346179962158203125</LongitudeDegrees>
            </Position>
            <AltitudeMeters>730</AltitudeMeters>
            <DistanceMeters>15104.135336816</DistanceMeters>
          </Trackpoint>
          <Trackpoint>
            <Time>2022-08-26T23:56:16.000Z</Time>
            <Position>
              <LatitudeDegrees>50.16713242046535015106201171875</LatitudeDegrees>
              <LongitudeDegrees>17.0225116051733493804931640625</LongitudeDegrees>
            </Position>
            <AltitudeMeters>730.4000244140625</AltitudeMeters>
            <DistanceMeters>15110.670107777</DistanceMeters>
          </Trackpoint>
          <Trackpoint>
            <Time>2022-08-26T23:56:22.000Z</Time>
            <Position>
              <LatitudeDegrees>50.1671953685581684112548828125</LatitudeDegrees>
              <LongitudeDegrees>17.02249936759471893310546875</LongitudeDegrees>
            </Position>
            <AltitudeMeters>730.79998779296875</AltitudeMeters>
            <DistanceMeters>15117.730279302</DistanceMeters>
          </Trackpoint>
          <Trackpoint>
            <Time>2022-08-26T23:56:31.000Z</Time>
            <Position>
              <LatitudeDegrees>50.16729134134948253631591796875</LatitudeDegrees>
              <LongitudeDegrees>17.022467516362667083740234375</LongitudeDegrees>
            </Position>
            <AltitudeMeters>731.5999755859375</AltitudeMeters>
            <DistanceMeters>15128.6504986</DistanceMeters>
          </Trackpoint>
          <Trackpoint>
            <Time>2022-08-26T23:56:34.000Z</Time>
            <Position>
              <LatitudeDegrees>50.16733006574213504791259765625</LatitudeDegrees>
              <LongitudeDegrees>17.0224492438137531280517578125</LongitudeDegrees>
            </Position>
            <AltitudeMeters>731.79998779296875</AltitudeMeters>
            <DistanceMeters>15133.151997411</DistanceMeters>
          </Trackpoint>
          <Trackpoint>
            <Time>2022-08-26T23:56:44.000Z</Time>
            <Position>
              <LatitudeDegrees>50.16744372434914112091064453125</LatitudeDegrees>
              <LongitudeDegrees>17.02239610254764556884765625</LongitudeDegrees>
            </Position>
            <AltitudeMeters>732.5999755859375</AltitudeMeters>
            <DistanceMeters>15146.357633945</DistanceMeters>
          </Trackpoint>
          <Trackpoint>
            <Time>2022-08-26T23:56:46.000Z</Time>
            <Position>
              <LatitudeDegrees>50.16746534965932369232177734375</LatitudeDegrees>
              <LongitudeDegrees>17.02237975783646106719970703125</LongitudeDegrees>
            </Position>
            <AltitudeMeters>732.5999755859375</AltitudeMeters>
            <DistanceMeters>15149.031922737</DistanceMeters>
          </Trackpoint>
          <Trackpoint>
            <Time>2022-08-26T23:56:51.000Z</Time>
            <Position>
              <LatitudeDegrees>50.16752385534346103668212890625</LatitudeDegrees>
              <LongitudeDegrees>17.02234514057636260986328125</LongitudeDegrees>
            </Position>
            <AltitudeMeters>732.79998779296875</AltitudeMeters>
            <DistanceMeters>15155.995507339</DistanceMeters>
          </Trackpoint>
          <Trackpoint>
            <Time>2022-08-26T23:57:01.000Z</Time>
            <Position>
              <LatitudeDegrees>50.16764991916716098785400390625</LatitudeDegrees>
              <LongitudeDegrees>17.0222943462431430816650390625</LongitudeDegrees>
            </Position>
            <AltitudeMeters>733.4000244140625</AltitudeMeters>
            <DistanceMeters>15170.486380247</DistanceMeters>
          </Trackpoint>
          <Trackpoint>
            <Time>2022-08-26T23:57:06.000Z</Time>
            <Position>
              <LatitudeDegrees>50.167709179222583770751953125</LatitudeDegrees>
              <LongitudeDegrees>17.02226425521075725555419921875</LongitudeDegrees>
            </Position>
            <AltitudeMeters>734</AltitudeMeters>
            <DistanceMeters>15177.422028538</DistanceMeters>
          </Trackpoint>
          <Trackpoint>
            <Time>2022-08-26T23:57:11.000Z</Time>
            <Position>
              <LatitudeDegrees>50.16777866519987583160400390625</LatitudeDegrees>
              <LongitudeDegrees>17.022240869700908660888671875</LongitudeDegrees>
            </Position>
            <AltitudeMeters>734.20001220703125</AltitudeMeters>
            <DistanceMeters>15185.333822892</DistanceMeters>
          </Trackpoint>
          <Trackpoint>
            <Time>2022-08-26T23:57:20.000Z</Time>
            <Position>
              <LatitudeDegrees>50.16788545064628124237060546875</LatitudeDegrees>
              <LongitudeDegrees>17.022209353744983673095703125</LongitudeDegrees>
            </Position>
            <AltitudeMeters>734.79998779296875</AltitudeMeters>
            <DistanceMeters>15197.430242143</DistanceMeters>
          </Trackpoint>
          <Trackpoint>
            <Time>2022-08-26T23:57:22.000Z</Time>
            <Position>
              <LatitudeDegrees>50.16790975816547870635986328125</LatitudeDegrees>
              <LongitudeDegrees>17.0222101919353008270263671875</LongitudeDegrees>
            </Position>
            <AltitudeMeters>735</AltitudeMeters>
            <DistanceMeters>15200.138086687</DistanceMeters>
          </Trackpoint>
          <Trackpoint>
            <Time>2022-08-26T23:57:30.000Z</Time>
            <Position>
              <LatitudeDegrees>50.1679966785013675689697265625</LatitudeDegrees>
              <LongitudeDegrees>17.02223190106451511383056640625</LongitudeDegrees>
            </Position>
            <AltitudeMeters>735.5999755859375</AltitudeMeters>
            <DistanceMeters>15209.935981495</DistanceMeters>
          </Trackpoint>
          <Trackpoint>
            <Time>2022-08-26T23:57:35.000Z</Time>
            <Position>
              <LatitudeDegrees>50.16804923303425312042236328125</LatitudeDegrees>
              <LongitudeDegrees>17.022258304059505462646484375</LongitudeDegrees>
            </Position>
            <AltitudeMeters>736</AltitudeMeters>
            <DistanceMeters>15216.07973601</DistanceMeters>
          </Trackpoint>
          <Trackpoint>
            <Time>2022-08-26T23:57:39.000Z</Time>
            <Position>
              <LatitudeDegrees>50.168090723454952239990234375</LatitudeDegrees>
              <LongitudeDegrees>17.022286467254161834716796875</LongitudeDegrees>
            </Position>
            <AltitudeMeters>736.4000244140625</AltitudeMeters>
            <DistanceMeters>15221.115255313</DistanceMeters>
          </Trackpoint>
          <Trackpoint>
            <Time>2022-08-26T23:57:44.000Z</Time>
            <Position>
              <LatitudeDegrees>50.1681371591985225677490234375</LatitudeDegrees>
              <LongitudeDegrees>17.02232611365616321563720703125</LongitudeDegrees>
            </Position>
            <AltitudeMeters>737.20001220703125</AltitudeMeters>
            <DistanceMeters>15227.00614521</DistanceMeters>
          </Trackpoint>
          <Trackpoint>
            <Time>2022-08-26T23:57:49.000Z</Time>
            <Position>
              <LatitudeDegrees>50.1681782305240631103515625</LatitudeDegrees>
              <LongitudeDegrees>17.02238671481609344482421875</LongitudeDegrees>
            </Position>
            <AltitudeMeters>738.20001220703125</AltitudeMeters>
            <DistanceMeters>15233.295880093</DistanceMeters>
          </Trackpoint>
          <Trackpoint>
            <Time>2022-08-26T23:57:52.000Z</Time>
            <Position>
              <LatitudeDegrees>50.168198682367801666259765625</LatitudeDegrees>
              <LongitudeDegrees>17.02242451719939708709716796875</LongitudeDegrees>
            </Position>
            <AltitudeMeters>738.5999755859375</AltitudeMeters>
            <DistanceMeters>15236.823406895</DistanceMeters>
          </Trackpoint>
          <Trackpoint>
            <Time>2022-08-26T23:57:59.000Z</Time>
            <Position>
              <LatitudeDegrees>50.16824168153107166290283203125</LatitudeDegrees>
              <LongitudeDegrees>17.0225179754197597503662109375</LongitudeDegrees>
            </Position>
            <AltitudeMeters>739.4000244140625</AltitudeMeters>
            <DistanceMeters>15245.027685646</DistanceMeters>
          </Trackpoint>
          <Trackpoint>
            <Time>2022-08-26T23:58:02.000Z</Time>
            <Position>
              <LatitudeDegrees>50.16826112754642963409423828125</LatitudeDegrees>
              <LongitudeDegrees>17.0225531794130802154541015625</LongitudeDegrees>
            </Position>
            <AltitudeMeters>739.5999755859375</AltitudeMeters>
            <DistanceMeters>15248.341380405</DistanceMeters>
          </Trackpoint>
          <Trackpoint>
            <Time>2022-08-26T23:58:10.000Z</Time>
            <Position>
              <LatitudeDegrees>50.1683222316205501556396484375</LatitudeDegrees>
              <LongitudeDegrees>17.02263691462576389312744140625</LongitudeDegrees>
            </Position>
            <AltitudeMeters>740.4000244140625</AltitudeMeters>
            <DistanceMeters>15257.39039876</DistanceMeters>
          </Trackpoint>
          <Trackpoint>
            <Time>2022-08-26T23:58:13.000Z</Time>
            <Position>
              <LatitudeDegrees>50.16834896989166736602783203125</LatitudeDegrees>
              <LongitudeDegrees>17.02265485189855098724365234375</LongitudeDegrees>
            </Position>
            <AltitudeMeters>740.5999755859375</AltitudeMeters>
            <DistanceMeters>15260.629680907</DistanceMeters>
          </Trackpoint>
          <Trackpoint>
            <Time>2022-08-26T23:58:20.000Z</Time>
            <Position>
              <LatitudeDegrees>50.1684201322495937347412109375</LatitudeDegrees>
              <LongitudeDegrees>17.02270145528018474578857421875</LongitudeDegrees>
            </Position>
            <AltitudeMeters>741.4000244140625</AltitudeMeters>
            <DistanceMeters>15269.218960536</DistanceMeters>
          </Trackpoint>
          <Trackpoint>
            <Time>2022-08-26T23:58:22.000Z</Time>
            <Position>
              <LatitudeDegrees>50.168441422283649444580078125</LatitudeDegrees>
              <LongitudeDegrees>17.02271126210689544677734375</LongitudeDegrees>
            </Position>
            <AltitudeMeters>741.79998779296875</AltitudeMeters>
            <DistanceMeters>15271.68965511</DistanceMeters>
          </Trackpoint>
          <Trackpoint>
            <Time>2022-08-26T23:58:30.000Z</Time>
            <Position>
              <LatitudeDegrees>50.16852783970534801483154296875</LatitudeDegrees>
              <LongitudeDegrees>17.02276566065847873687744140625</LongitudeDegrees>
            </Position>
            <AltitudeMeters>742.4000244140625</AltitudeMeters>
            <DistanceMeters>15282.06020044</DistanceMeters>
          </Trackpoint>
          <Trackpoint>
            <Time>2022-08-26T23:58:35.000Z</Time>
            <Position>
              <LatitudeDegrees>50.16857947222888469696044921875</LatitudeDegrees>
              <LongitudeDegrees>17.02278728596866130828857421875</LongitudeDegrees>
            </Position>
            <AltitudeMeters>743</AltitudeMeters>
            <DistanceMeters>15288.009813844</DistanceMeters>
          </Trackpoint>
          <Trackpoint>
            <Time>2022-08-26T23:58:39.000Z</Time>
            <Position>
              <LatitudeDegrees>50.1686212979257106781005859375</LatitudeDegrees>
              <LongitudeDegrees>17.02280019409954547882080078125</LongitudeDegrees>
            </Position>
            <AltitudeMeters>743.20001220703125</AltitudeMeters>
            <DistanceMeters>15292.755444535</DistanceMeters>
          </Trackpoint>
          <Trackpoint>
            <Time>2022-08-26T23:58:51.000Z</Time>
            <Position>
              <LatitudeDegrees>50.16874560154974460601806640625</LatitudeDegrees>
              <LongitudeDegrees>17.02285610139369964599609375</LongitudeDegrees>
            </Position>
            <AltitudeMeters>744</AltitudeMeters>
            <DistanceMeters>15307.153794961</DistanceMeters>
          </Trackpoint>
          <Trackpoint>
            <Time>2022-08-26T23:58:52.000Z</Time>
            <Position>
              <LatitudeDegrees>50.16875700093805789947509765625</LatitudeDegrees>
              <LongitudeDegrees>17.022857107222080230712890625</LongitudeDegrees>
            </Position>
            <AltitudeMeters>744</AltitudeMeters>
            <DistanceMeters>15308.42516575</DistanceMeters>
          </Trackpoint>
          <Trackpoint>
            <Time>2022-08-26T23:59:01.000Z</Time>
            <Position>
              <LatitudeDegrees>50.1688539795577526092529296875</LatitudeDegrees>
              <LongitudeDegrees>17.02289876528084278106689453125</LongitudeDegrees>
            </Position>
            <AltitudeMeters>744.4000244140625</AltitudeMeters>
            <DistanceMeters>15319.620587182</DistanceMeters>
          </Trackpoint>
          <Trackpoint>
            <Time>2022-08-26T23:59:10.000Z</Time>
            <Position>
              <LatitudeDegrees>50.16894442029297351837158203125</LatitudeDegrees>
              <LongitudeDegrees>17.0229380764067173004150390625</LongitudeDegrees>
            </Position>
            <AltitudeMeters>744.79998779296875</AltitudeMeters>
            <DistanceMeters>15330.070069675</DistanceMeters>
          </Trackpoint>
          <Trackpoint>
            <Time>2022-08-26T23:59:18.000Z</Time>
            <Position>
              <LatitudeDegrees>50.1690346933901309967041015625</LatitudeDegrees>
              <LongitudeDegrees>17.02294268645346164703369140625</LongitudeDegrees>
            </Position>
            <AltitudeMeters>745</AltitudeMeters>
            <DistanceMeters>15340.123159526</DistanceMeters>
          </Trackpoint>
          <Trackpoint>
            <Time>2022-08-26T23:59:19.000Z</Time>
            <Position>
              <LatitudeDegrees>50.1690445840358734130859375</LatitudeDegrees>
              <LongitudeDegrees>17.022932209074497222900390625</LongitudeDegrees>
            </Position>
            <AltitudeMeters>745</AltitudeMeters>
            <DistanceMeters>15341.456923021</DistanceMeters>
          </Trackpoint>
          <Trackpoint>
            <Time>2022-08-26T23:59:20.000Z</Time>
            <Position>
              <LatitudeDegrees>50.1690517924726009368896484375</LatitudeDegrees>
              <LongitudeDegrees>17.02292315661907196044921875</LongitudeDegrees>
            </Position>
            <AltitudeMeters>745.20001220703125</AltitudeMeters>
            <DistanceMeters>15342.48917736</DistanceMeters>
          </Trackpoint>
          <Trackpoint>
            <Time>2022-08-26T23:59:29.000Z</Time>
            <Position>
              <LatitudeDegrees>50.1691275648772716522216796875</LatitudeDegrees>
              <LongitudeDegrees>17.022872529923915863037109375</LongitudeDegrees>
            </Position>
            <AltitudeMeters>745.20001220703125</AltitudeMeters>
            <DistanceMeters>15351.662578168</DistanceMeters>
          </Trackpoint>
          <Trackpoint>
            <Time>2022-08-26T23:59:38.000Z</Time>
            <Position>
              <LatitudeDegrees>50.1692294888198375701904296875</LatitudeDegrees>
              <LongitudeDegrees>17.02291536144912242889404296875</LongitudeDegrees>
            </Position>
            <AltitudeMeters>744.5999755859375</AltitudeMeters>
            <DistanceMeters>15363.410586015</DistanceMeters>
          </Trackpoint>
          <Trackpoint>
            <Time>2022-08-26T23:59:48.000Z</Time>
            <Position>
              <LatitudeDegrees>50.16935463063418865203857421875</LatitudeDegrees>
              <LongitudeDegrees>17.02291200868785381317138671875</LongitudeDegrees>
            </Position>
            <AltitudeMeters>744.79998779296875</AltitudeMeters>
            <DistanceMeters>15377.340996733</DistanceMeters>
          </Trackpoint>
          <Trackpoint>
            <Time>2022-08-26T23:59:58.000Z</Time>
            <Position>
              <LatitudeDegrees>50.1694614998996257781982421875</LatitudeDegrees>
              <LongitudeDegrees>17.022873200476169586181640625</LongitudeDegrees>
            </Position>
            <AltitudeMeters>745.20001220703125</AltitudeMeters>
            <DistanceMeters>15389.553316027</DistanceMeters>
          </Trackpoint>
          <Trackpoint>
            <Time>2022-08-27T00:00:07.000Z</Time>
            <Position>
              <LatitudeDegrees>50.169552527368068695068359375</LatitudeDegrees>
              <LongitudeDegrees>17.022834978997707366943359375</LongitudeDegrees>
            </Position>
            <AltitudeMeters>746.20001220703125</AltitudeMeters>
            <DistanceMeters>15400.044626802</DistanceMeters>
          </Trackpoint>
          <Trackpoint>
            <Time>2022-08-27T00:00:11.000Z</Time>
            <Position>
              <LatitudeDegrees>50.16959242522716522216796875</LatitudeDegrees>
              <LongitudeDegrees>17.02281544916331768035888671875</LongitudeDegrees>
            </Position>
            <AltitudeMeters>746.4000244140625</AltitudeMeters>
            <DistanceMeters>15404.698025916</DistanceMeters>
          </Trackpoint>
          <Trackpoint>
            <Time>2022-08-27T00:00:17.000Z</Time>
            <Position>
              <LatitudeDegrees>50.16965671442449092864990234375</LatitudeDegrees>
              <LongitudeDegrees>17.02278359793126583099365234375</LongitudeDegrees>
            </Position>
            <AltitudeMeters>746.79998779296875</AltitudeMeters>
            <DistanceMeters>15412.205136351</DistanceMeters>
          </Trackpoint>
          <Trackpoint>
            <Time>2022-08-27T00:00:18.000Z</Time>
            <Position>
              <LatitudeDegrees>50.16966459341347217559814453125</LatitudeDegrees>
              <LongitudeDegrees>17.0227788202464580535888671875</LongitudeDegrees>
            </Position>
            <AltitudeMeters>746.79998779296875</AltitudeMeters>
            <DistanceMeters>15413.145852829</DistanceMeters>
          </Trackpoint>
          <Trackpoint>
            <Time>2022-08-27T00:00:22.000Z</Time>
            <Position>
              <LatitudeDegrees>50.1697035692632198333740234375</LatitudeDegrees>
              <LongitudeDegrees>17.0227623917162418365478515625</LongitudeDegrees>
            </Position>
            <AltitudeMeters>747</AltitudeMeters>
            <DistanceMeters>15417.6383155</DistanceMeters>
          </Trackpoint>
          <Trackpoint>
            <Time>2022-08-27T00:00:26.000Z</Time>
            <Position>
              <LatitudeDegrees>50.16974858008325099945068359375</LatitudeDegrees>
              <LongitudeDegrees>17.02273137867450714111328125</LongitudeDegrees>
            </Position>
            <AltitudeMeters>747.4000244140625</AltitudeMeters>
            <DistanceMeters>15423.113701678</DistanceMeters>
          </Trackpoint>
          <Trackpoint>
            <Time>2022-08-27T00:00:27.000Z</Time>
            <Position>
              <LatitudeDegrees>50.16975947655737400054931640625</LatitudeDegrees>
              <LongitudeDegrees>17.0227241702377796173095703125</LongitudeDegrees>
            </Position>
            <AltitudeMeters>747.5999755859375</AltitudeMeters>
            <DistanceMeters>15424.430430457</DistanceMeters>
          </Trackpoint>
          <Trackpoint>
            <Time>2022-08-27T00:00:37.000Z</Time>
            <Position>
              <LatitudeDegrees>50.1698668487370014190673828125</LatitudeDegrees>
              <LongitudeDegrees>17.02265501953661441802978515625</LongitudeDegrees>
            </Position>
            <AltitudeMeters>748.4000244140625</AltitudeMeters>
            <DistanceMeters>15437.358255286</DistanceMeters>
          </Trackpoint>
          <Trackpoint>
            <Time>2022-08-27T00:00:38.000Z</Time>
            <Position>
              <LatitudeDegrees>50.169877745211124420166015625</LatitudeDegrees>
              <LongitudeDegrees>17.022646553814411163330078125</LongitudeDegrees>
            </Position>
            <AltitudeMeters>748.5999755859375</AltitudeMeters>
            <DistanceMeters>15438.712177558</DistanceMeters>
          </Trackpoint>
          <Trackpoint>
            <Time>2022-08-27T00:00:46.000Z</Time>
            <Position>
              <LatitudeDegrees>50.16996164806187152862548828125</LatitudeDegrees>
              <LongitudeDegrees>17.02259886078536510467529296875</LongitudeDegrees>
            </Position>
            <AltitudeMeters>749.4000244140625</AltitudeMeters>
            <DistanceMeters>15448.650990677</DistanceMeters>
          </Trackpoint>
          <Trackpoint>
            <Time>2022-08-27T00:00:49.000Z</Time>
            <Position>
              <LatitudeDegrees>50.16999232582747936248779296875</LatitudeDegrees>
              <LongitudeDegrees>17.02258251607418060302734375</LongitudeDegrees>
            </Position>
            <AltitudeMeters>749.5999755859375</AltitudeMeters>
            <DistanceMeters>15452.257000949</DistanceMeters>
          </Trackpoint>
          <Trackpoint>
            <Time>2022-08-27T00:00:56.000Z</Time>
            <Position>
              <LatitudeDegrees>50.17006021924316883087158203125</LatitudeDegrees>
              <LongitudeDegrees>17.02254898846149444580078125</LongitudeDegrees>
            </Position>
            <AltitudeMeters>750.5999755859375</AltitudeMeters>
            <DistanceMeters>15460.182479594</DistanceMeters>
          </Trackpoint>
          <Trackpoint>
            <Time>2022-08-27T00:00:57.000Z</Time>
            <Position>
              <LatitudeDegrees>50.17006876878440380096435546875</LatitudeDegrees>
              <LongitudeDegrees>17.0225437916815280914306640625</LongitudeDegrees>
            </Position>
            <AltitudeMeters>750.79998779296875</AltitudeMeters>
            <DistanceMeters>15461.201527576</DistanceMeters>
          </Trackpoint>
          <Trackpoint>
            <Time>2022-08-27T00:01:06.000Z</Time>
            <Position>
              <LatitudeDegrees>50.1701509952545166015625</LatitudeDegrees>
              <LongitudeDegrees>17.0224931649863719940185546875</LongitudeDegrees>
            </Position>
            <AltitudeMeters>751.4000244140625</AltitudeMeters>
            <DistanceMeters>15471.03943179</DistanceMeters>
          </Trackpoint>
          <Trackpoint>
            <Time>2022-08-27T00:01:10.000Z</Time>
            <Position>
              <LatitudeDegrees>50.17018812708556652069091796875</LatitudeDegrees>
              <LongitudeDegrees>17.02247254550457000732421875</LongitudeDegrees>
            </Position>
            <AltitudeMeters>751.79998779296875</AltitudeMeters>
            <DistanceMeters>15475.425097398</DistanceMeters>
          </Trackpoint>
          <Trackpoint>
            <Time>2022-08-27T00:01:15.000Z</Time>
            <Position>
              <LatitudeDegrees>50.17023615539073944091796875</LatitudeDegrees>
              <LongitudeDegrees>17.02244530431926250457763671875</LongitudeDegrees>
            </Position>
            <AltitudeMeters>752.20001220703125</AltitudeMeters>
            <DistanceMeters>15481.112428391</DistanceMeters>
          </Trackpoint>
          <Trackpoint>
            <Time>2022-08-27T00:01:21.000Z</Time>
            <Position>
              <LatitudeDegrees>50.1702960021793842315673828125</LatitudeDegrees>
              <LongitudeDegrees>17.02240842394530773162841796875</LongitudeDegrees>
            </Position>
            <AltitudeMeters>753</AltitudeMeters>
            <DistanceMeters>15488.272929355</DistanceMeters>
          </Trackpoint>
          <Trackpoint>
            <Time>2022-08-27T00:01:25.000Z</Time>
            <Position>
              <LatitudeDegrees>50.17033279873430728912353515625</LatitudeDegrees>
              <LongitudeDegrees>17.02238545753061771392822265625</LongitudeDegrees>
            </Position>
            <AltitudeMeters>753.5999755859375</AltitudeMeters>
            <DistanceMeters>15492.683233728</DistanceMeters>
          </Trackpoint>
          <Trackpoint>
            <Time>2022-08-27T00:01:29.000Z</Time>
            <Position>
              <LatitudeDegrees>50.17036615870893001556396484375</LatitudeDegrees>
              <LongitudeDegrees>17.02236592769622802734375</LongitudeDegrees>
            </Position>
            <AltitudeMeters>754</AltitudeMeters>
            <DistanceMeters>15496.649389696</DistanceMeters>
          </Trackpoint>
          <Trackpoint>
            <Time>2022-08-27T00:01:34.000Z</Time>
            <Position>
              <LatitudeDegrees>50.17040153034031391143798828125</LatitudeDegrees>
              <LongitudeDegrees>17.02234086580574512481689453125</LongitudeDegrees>
            </Position>
            <AltitudeMeters>754.4000244140625</AltitudeMeters>
            <DistanceMeters>15500.973888316</DistanceMeters>
          </Trackpoint>
          <Trackpoint>
            <Time>2022-08-27T00:01:43.000Z</Time>
            <Position>
              <LatitudeDegrees>50.17047495581209659576416015625</LatitudeDegrees>
              <LongitudeDegrees>17.0222819410264492034912109375</LongitudeDegrees>
            </Position>
            <AltitudeMeters>755.20001220703125</AltitudeMeters>
            <DistanceMeters>15510.162534286</DistanceMeters>
          </Trackpoint>
          <Trackpoint>
            <Time>2022-08-27T00:01:52.000Z</Time>
            <Position>
              <LatitudeDegrees>50.170553661882877349853515625</LatitudeDegrees>
              <LongitudeDegrees>17.0222128741443157196044921875</LongitudeDegrees>
            </Position>
            <AltitudeMeters>755.79998779296875</AltitudeMeters>
            <DistanceMeters>15520.211131939</DistanceMeters>
          </Trackpoint>
          <Trackpoint>
            <Time>2022-08-27T00:01:56.000Z</Time>
            <Position>
              <LatitudeDegrees>50.1705868542194366455078125</LatitudeDegrees>
              <LongitudeDegrees>17.022182531654834747314453125</LongitudeDegrees>
            </Position>
            <AltitudeMeters>756.20001220703125</AltitudeMeters>
            <DistanceMeters>15524.492610092</DistanceMeters>
          </Trackpoint>
          <Trackpoint>
            <Time>2022-08-27T00:02:03.000Z</Time>
            <Position>
              <LatitudeDegrees>50.17064678482711315155029296875</LatitudeDegrees>
              <LongitudeDegrees>17.02213190495967864990234375</LongitudeDegrees>
            </Position>
            <AltitudeMeters>757</AltitudeMeters>
            <DistanceMeters>15532.076908804</DistanceMeters>
          </Trackpoint>
          <Trackpoint>
            <Time>2022-08-27T00:02:09.000Z</Time>
            <Position>
              <LatitudeDegrees>50.1706949807703495025634765625</LatitudeDegrees>
              <LongitudeDegrees>17.022104077041149139404296875</LongitudeDegrees>
            </Position>
            <AltitudeMeters>757.5999755859375</AltitudeMeters>
            <DistanceMeters>15537.795906695</DistanceMeters>
          </Trackpoint>
          <Trackpoint>
            <Time>2022-08-27T00:02:11.000Z</Time>
            <Position>
              <LatitudeDegrees>50.17071233130991458892822265625</LatitudeDegrees>
              <LongitudeDegrees>17.02209494076669216156005859375</LongitudeDegrees>
            </Position>
            <AltitudeMeters>757.79998779296875</AltitudeMeters>
            <DistanceMeters>15539.834002661</DistanceMeters>
          </Trackpoint>
          <Trackpoint>
            <Time>2022-08-27T00:02:19.000Z</Time>
            <Position>
              <LatitudeDegrees>50.17077854834496974945068359375</LatitudeDegrees>
              <LongitudeDegrees>17.02203911729156970977783203125</LongitudeDegrees>
            </Position>
            <AltitudeMeters>758.5999755859375</AltitudeMeters>
            <DistanceMeters>15548.2103798</DistanceMeters>
          </Trackpoint>
          <Trackpoint>
            <Time>2022-08-27T00:02:20.000Z</Time>
            <Position>
              <LatitudeDegrees>50.17078659497201442718505859375</LatitudeDegrees>
              <LongitudeDegrees>17.0220321603119373321533203125</LongitudeDegrees>
            </Position>
            <AltitudeMeters>758.79998779296875</AltitudeMeters>
            <DistanceMeters>15549.233848835</DistanceMeters>
          </Trackpoint>
          <Trackpoint>
            <Time>2022-08-27T00:02:27.000Z</Time>
            <Position>
              <LatitudeDegrees>50.1708465255796909332275390625</LatitudeDegrees>
              <LongitudeDegrees>17.0219731517136096954345703125</LongitudeDegrees>
            </Position>
            <AltitudeMeters>759.5999755859375</AltitudeMeters>
            <DistanceMeters>15557.119348591</DistanceMeters>
          </Trackpoint>
          <Trackpoint>
            <Time>2022-08-27T00:02:31.000Z</Time>
            <Position>
              <LatitudeDegrees>50.17088256776332855224609375</LatitudeDegrees>
              <LongitudeDegrees>17.02193249948322772979736328125</LongitudeDegrees>
            </Position>
            <AltitudeMeters>760</AltitudeMeters>
            <DistanceMeters>15562.068042087</DistanceMeters>
          </Trackpoint>
          <Trackpoint>
            <Time>2022-08-27T00:02:38.000Z</Time>
            <Position>
              <LatitudeDegrees>50.1709462702274322509765625</LatitudeDegrees>
              <LongitudeDegrees>17.02187282033264636993408203125</LongitudeDegrees>
            </Position>
            <AltitudeMeters>760.5999755859375</AltitudeMeters>
            <DistanceMeters>15570.337004466</DistanceMeters>
          </Trackpoint>
          <Trackpoint>
            <Time>2022-08-27T00:02:42.000Z</Time>
            <Position>
              <LatitudeDegrees>50.17097719945013523101806640625</LatitudeDegrees>
              <LongitudeDegrees>17.02184532769024372100830078125</LongitudeDegrees>
            </Position>
            <AltitudeMeters>761</AltitudeMeters>
            <DistanceMeters>15574.298604252</DistanceMeters>
          </Trackpoint>
          <Trackpoint>
            <Time>2022-08-27T00:02:47.000Z</Time>
            <Position>
              <LatitudeDegrees>50.17101776786148548126220703125</LatitudeDegrees>
              <LongitudeDegrees>17.0218026638031005859375</LongitudeDegrees>
            </Position>
            <AltitudeMeters>761.5999755859375</AltitudeMeters>
            <DistanceMeters>15579.743394511</DistanceMeters>
          </Trackpoint>
          <Trackpoint>
            <Time>2022-08-27T00:02:53.000Z</Time>
            <Position>
              <LatitudeDegrees>50.17105582170188426971435546875</LatitudeDegrees>
              <LongitudeDegrees>17.021762095391750335693359375</LongitudeDegrees>
            </Position>
            <AltitudeMeters>762.20001220703125</AltitudeMeters>
            <DistanceMeters>15584.873077031</DistanceMeters>
          </Trackpoint>
          <Trackpoint>
            <Time>2022-08-27T00:02:59.000Z</Time>
            <Position>
              <LatitudeDegrees>50.17111055552959442138671875</LatitudeDegrees>
              <LongitudeDegrees>17.02172295190393924713134765625</LongitudeDegrees>
            </Position>
            <AltitudeMeters>762.5999755859375</AltitudeMeters>
            <DistanceMeters>15591.5736397</DistanceMeters>
          </Trackpoint>
          <Trackpoint>
            <Time>2022-08-27T00:03:01.000Z</Time>
            <Position>
              <LatitudeDegrees>50.1711308397352695465087890625</LatitudeDegrees>
              <LongitudeDegrees>17.0217119716107845306396484375</LongitudeDegrees>
            </Position>
            <AltitudeMeters>763</AltitudeMeters>
            <DistanceMeters>15593.962574256</DistanceMeters>
          </Trackpoint>
          <Trackpoint>
            <Time>2022-08-27T00:03:06.000Z</Time>
            <Position>
              <LatitudeDegrees>50.1711777783930301666259765625</LatitudeDegrees>
              <LongitudeDegrees>17.02168774791061878204345703125</LongitudeDegrees>
            </Position>
            <AltitudeMeters>764</AltitudeMeters>
            <DistanceMeters>15599.464284557</DistanceMeters>
          </Trackpoint>
          <Trackpoint>
            <Time>2022-08-27T00:03:09.000Z</Time>
            <Position>
              <LatitudeDegrees>50.1712029241025447845458984375</LatitudeDegrees>
              <LongitudeDegrees>17.02166930772364139556884765625</LongitudeDegrees>
            </Position>
            <AltitudeMeters>764</AltitudeMeters>
            <DistanceMeters>15602.555210127</DistanceMeters>
          </Trackpoint>
          <Trackpoint>
            <Time>2022-08-27T00:03:10.000Z</Time>
            <Position>
              <LatitudeDegrees>50.17121289856731891632080078125</LatitudeDegrees>
              <LongitudeDegrees>17.021665871143341064453125</LongitudeDegrees>
            </Position>
            <AltitudeMeters>764.20001220703125</AltitudeMeters>
            <DistanceMeters>15603.691564355</DistanceMeters>
          </Trackpoint>
          <Trackpoint>
            <Time>2022-08-27T00:03:16.000Z</Time>
            <Position>
              <LatitudeDegrees>50.17126251943409442901611328125</LatitudeDegrees>
              <LongitudeDegrees>17.02164701186120510101318359375</LongitudeDegrees>
            </Position>
            <AltitudeMeters>764.5999755859375</AltitudeMeters>
            <DistanceMeters>15609.376513219</DistanceMeters>
          </Trackpoint>
          <Trackpoint>
            <Time>2022-08-27T00:03:23.000Z</Time>
            <Position>
              <LatitudeDegrees>50.1713175885379314422607421875</LatitudeDegrees>
              <LongitudeDegrees>17.0216455869376659393310546875</LongitudeDegrees>
            </Position>
            <AltitudeMeters>764.79998779296875</AltitudeMeters>
            <DistanceMeters>15615.506288752</DistanceMeters>
          </Trackpoint>
          <Trackpoint>
            <Time>2022-08-27T00:03:25.000Z</Time>
            <Position>
              <LatitudeDegrees>50.17133393324911594390869140625</LatitudeDegrees>
              <LongitudeDegrees>17.02164215035736560821533203125</LongitudeDegrees>
            </Position>
            <AltitudeMeters>765</AltitudeMeters>
            <DistanceMeters>15617.339097645</DistanceMeters>
          </Trackpoint>
          <Trackpoint>
            <Time>2022-08-27T00:03:29.000Z</Time>
            <Position>
              <LatitudeDegrees>50.17136670649051666259765625</LatitudeDegrees>
              <LongitudeDegrees>17.0216174237430095672607421875</LongitudeDegrees>
            </Position>
            <AltitudeMeters>765.20001220703125</AltitudeMeters>
            <DistanceMeters>15621.390847758</DistanceMeters>
          </Trackpoint>
          <Trackpoint>
            <Time>2022-08-27T00:03:34.000Z</Time>
            <Position>
              <LatitudeDegrees>50.171409286558628082275390625</LatitudeDegrees>
              <LongitudeDegrees>17.02159169130027294158935546875</LongitudeDegrees>
            </Position>
            <AltitudeMeters>765.4000244140625</AltitudeMeters>
            <DistanceMeters>15626.47366673</DistanceMeters>
          </Trackpoint>
          <Trackpoint>
            <Time>2022-08-27T00:03:37.000Z</Time>
            <Position>
              <LatitudeDegrees>50.1714362762868404388427734375</LatitudeDegrees>
              <LongitudeDegrees>17.0215760171413421630859375</LongitudeDegrees>
            </Position>
            <AltitudeMeters>765.5999755859375</AltitudeMeters>
            <DistanceMeters>15629.6793222</DistanceMeters>
          </Trackpoint>
          <Trackpoint>
            <Time>2022-08-27T00:03:46.000Z</Time>
            <Position>
              <LatitudeDegrees>50.17150760628283023834228515625</LatitudeDegrees>
              <LongitudeDegrees>17.02149680815637111663818359375</LongitudeDegrees>
            </Position>
            <AltitudeMeters>766</AltitudeMeters>
            <DistanceMeters>15639.421762013</DistanceMeters>
          </Trackpoint>
          <Trackpoint>
            <Time>2022-08-27T00:03:47.000Z</Time>
            <Position>
              <LatitudeDegrees>50.17151665873825550079345703125</LatitudeDegrees>
              <LongitudeDegrees>17.021488510072231292724609375</LongitudeDegrees>
            </Position>
            <AltitudeMeters>766</AltitudeMeters>
            <DistanceMeters>15640.585596823</DistanceMeters>
          </Trackpoint>
          <Trackpoint>
            <Time>2022-08-27T00:03:52.000Z</Time>
            <Position>
              <LatitudeDegrees>50.17155714333057403564453125</LatitudeDegrees>
              <LongitudeDegrees>17.02144416980445384979248046875</LongitudeDegrees>
            </Position>
            <AltitudeMeters>766.20001220703125</AltitudeMeters>
            <DistanceMeters>15646.089768557</DistanceMeters>
          </Trackpoint>
          <Trackpoint>
            <Time>2022-08-27T00:03:53.000Z</Time>
            <Position>
              <LatitudeDegrees>50.1715660281479358673095703125</LatitudeDegrees>
              <LongitudeDegrees>17.02143511734902858734130859375</LongitudeDegrees>
            </Position>
            <AltitudeMeters>766.5999755859375</AltitudeMeters>
            <DistanceMeters>15647.26901907</DistanceMeters>
          </Trackpoint>
          <Trackpoint>
            <Time>2022-08-27T00:04:02.000Z</Time>
            <Position>
              <LatitudeDegrees>50.17164540477097034454345703125</LatitudeDegrees>
              <LongitudeDegrees>17.02131123282015323638916015625</LongitudeDegrees>
            </Position>
            <AltitudeMeters>767.20001220703125</AltitudeMeters>
            <DistanceMeters>15659.760605076</DistanceMeters>
          </Trackpoint>
          <Trackpoint>
            <Time>2022-08-27T00:04:03.000Z</Time>
            <Position>
              <LatitudeDegrees>50.171654038131237030029296875</LatitudeDegrees>
              <LongitudeDegrees>17.02130033634603023529052734375</LongitudeDegrees>
            </Position>
            <AltitudeMeters>767.20001220703125</AltitudeMeters>
            <DistanceMeters>15660.995952363</DistanceMeters>
          </Trackpoint>
          <Trackpoint>
            <Time>2022-08-27T00:04:11.000Z</Time>
            <Position>
              <LatitudeDegrees>50.171711705625057220458984375</LatitudeDegrees>
              <LongitudeDegrees>17.0212248153984546661376953125</LongitudeDegrees>
            </Position>
            <AltitudeMeters>767.79998779296875</AltitudeMeters>
            <DistanceMeters>15669.373407473</DistanceMeters>
          </Trackpoint>
          <Trackpoint>
            <Time>2022-08-27T00:04:19.000Z</Time>
            <Position>
              <LatitudeDegrees>50.17176861874759197235107421875</LatitudeDegrees>
              <LongitudeDegrees>17.02116253785789012908935546875</LongitudeDegrees>
            </Position>
            <AltitudeMeters>768</AltitudeMeters>
            <DistanceMeters>15677.108605371</DistanceMeters>
          </Trackpoint>
          <Trackpoint>
            <Time>2022-08-27T00:04:21.000Z</Time>
            <Position>
              <LatitudeDegrees>50.17178404144942760467529296875</LatitudeDegrees>
              <LongitudeDegrees>17.0211450196802616119384765625</LongitudeDegrees>
            </Position>
            <AltitudeMeters>768.20001220703125</AltitudeMeters>
            <DistanceMeters>15679.231341375</DistanceMeters>
          </Trackpoint>
          <Trackpoint>
            <Time>2022-08-27T00:04:27.000Z</Time>
            <Position>
              <LatitudeDegrees>50.17183047719299793243408203125</LatitudeDegrees>
              <LongitudeDegrees>17.02107821591198444366455078125</LongitudeDegrees>
            </Position>
            <AltitudeMeters>768.79998779296875</AltitudeMeters>
            <DistanceMeters>15686.259464748</DistanceMeters>
          </Trackpoint>
          <Trackpoint>
            <Time>2022-08-27T00:04:35.000Z</Time>
            <Position>
              <LatitudeDegrees>50.1718828640878200531005859375</LatitudeDegrees>
              <LongitudeDegrees>17.020982913672924041748046875</LongitudeDegrees>
            </Position>
            <AltitudeMeters>769.20001220703125</AltitudeMeters>
            <DistanceMeters>15695.212171519</DistanceMeters>
          </Trackpoint>
          <Trackpoint>
            <Time>2022-08-27T00:04:36.000Z</Time>
            <Position>
              <LatitudeDegrees>50.1718904078006744384765625</LatitudeDegrees>
              <LongitudeDegrees>17.0209726877510547637939453125</LongitudeDegrees>
            </Position>
            <AltitudeMeters>769.4000244140625</AltitudeMeters>
            <DistanceMeters>15696.320363919</DistanceMeters>
          </Trackpoint>
          <Trackpoint>
            <Time>2022-08-27T00:04:42.000Z</Time>
            <Position>
              <LatitudeDegrees>50.17194011248648166656494140625</LatitudeDegrees>
              <LongitudeDegrees>17.02090345323085784912109375</LongitudeDegrees>
            </Position>
            <AltitudeMeters>770</AltitudeMeters>
            <DistanceMeters>15703.734274852</DistanceMeters>
          </Trackpoint>
          <Trackpoint>
            <Time>2022-08-27T00:04:45.000Z</Time>
            <Position>
              <LatitudeDegrees>50.171958468854427337646484375</LatitudeDegrees>
              <LongitudeDegrees>17.02087738551199436187744140625</LongitudeDegrees>
            </Position>
            <AltitudeMeters>770.4000244140625</AltitudeMeters>
            <DistanceMeters>15706.498229387</DistanceMeters>
          </Trackpoint>
          <Trackpoint>
            <Time>2022-08-27T00:04:52.000Z</Time>
            <Position>
              <LatitudeDegrees>50.172002725303173065185546875</LatitudeDegrees>
              <LongitudeDegrees>17.02078870497643947601318359375</LongitudeDegrees>
            </Position>
            <AltitudeMeters>770.79998779296875</AltitudeMeters>
            <DistanceMeters>15714.512086365</DistanceMeters>
          </Trackpoint>
          <Trackpoint>
            <Time>2022-08-27T00:04:59.000Z</Time>
            <Position>
              <LatitudeDegrees>50.17203725874423980712890625</LatitudeDegrees>
              <LongitudeDegrees>17.02071846462786197662353515625</LongitudeDegrees>
            </Position>
            <AltitudeMeters>771.4000244140625</AltitudeMeters>
            <DistanceMeters>15720.824035135</DistanceMeters>
          </Trackpoint>
          <Trackpoint>
            <Time>2022-08-27T00:05:02.000Z</Time>
            <Position>
              <LatitudeDegrees>50.17205159179866313934326171875</LatitudeDegrees>
              <LongitudeDegrees>17.02068644575774669647216796875</LongitudeDegrees>
            </Position>
            <AltitudeMeters>771.79998779296875</AltitudeMeters>
            <DistanceMeters>15723.60752316</DistanceMeters>
          </Trackpoint>
          <Trackpoint>
            <Time>2022-08-27T00:05:10.000Z</Time>
            <Position>
              <LatitudeDegrees>50.17209534533321857452392578125</LatitudeDegrees>
              <LongitudeDegrees>17.02060061506927013397216796875</LongitudeDegrees>
            </Position>
            <AltitudeMeters>772.5999755859375</AltitudeMeters>
            <DistanceMeters>15731.426322143</DistanceMeters>
          </Trackpoint>
          <Trackpoint>
            <Time>2022-08-27T00:05:11.000Z</Time>
            <Position>
              <LatitudeDegrees>50.17210070975124835968017578125</LatitudeDegrees>
              <LongitudeDegrees>17.02059256844222545623779296875</LongitudeDegrees>
            </Position>
            <AltitudeMeters>772.5999755859375</AltitudeMeters>
            <DistanceMeters>15732.24927763</DistanceMeters>
          </Trackpoint>
          <Trackpoint>
            <Time>2022-08-27T00:05:17.000Z</Time>
            <Position>
              <LatitudeDegrees>50.17211529426276683807373046875</LatitudeDegrees>
              <LongitudeDegrees>17.0205676741898059844970703125</LongitudeDegrees>
            </Position>
            <AltitudeMeters>773.5999755859375</AltitudeMeters>
            <DistanceMeters>15734.653284477</DistanceMeters>
          </Trackpoint>
          <Trackpoint>
            <Time>2022-08-27T00:05:18.000Z</Time>
            <Position>
              <LatitudeDegrees>50.17211495898663997650146484375</LatitudeDegrees>
              <LongitudeDegrees>17.02056775800883769989013671875</LongitudeDegrees>
            </Position>
            <AltitudeMeters>773.5999755859375</AltitudeMeters>
            <DistanceMeters>15734.653284477</DistanceMeters>
          </Trackpoint>
          <Trackpoint>
            <Time>2022-08-27T00:05:30.000Z</Time>
            <Position>
              <LatitudeDegrees>50.17213406972587108612060546875</LatitudeDegrees>
              <LongitudeDegrees>17.02053607441484928131103515625</LongitudeDegrees>
            </Position>
            <AltitudeMeters>774.20001220703125</AltitudeMeters>
            <DistanceMeters>15737.755873959</DistanceMeters>
          </Trackpoint>
          <Trackpoint>
            <Time>2022-08-27T00:05:39.000Z</Time>
            <Position>
              <LatitudeDegrees>50.17217916436493396759033203125</LatitudeDegrees>
              <LongitudeDegrees>17.020454518496990203857421875</LongitudeDegrees>
            </Position>
            <AltitudeMeters>774.5999755859375</AltitudeMeters>
            <DistanceMeters>15745.436595891</DistanceMeters>
          </Trackpoint>
          <Trackpoint>
            <Time>2022-08-27T00:05:48.000Z</Time>
            <Position>
              <LatitudeDegrees>50.172234065830707550048828125</LatitudeDegrees>
              <LongitudeDegrees>17.020357958972454071044921875</LongitudeDegrees>
            </Position>
            <AltitudeMeters>775.79998779296875</AltitudeMeters>
            <DistanceMeters>15754.641442836</DistanceMeters>
          </Trackpoint>
          <Trackpoint>
            <Time>2022-08-27T00:05:49.000Z</Time>
            <Position>
              <LatitudeDegrees>50.17224001698195934295654296875</LatitudeDegrees>
              <LongitudeDegrees>17.0203473977744579315185546875</LongitudeDegrees>
            </Position>
            <AltitudeMeters>775.79998779296875</AltitudeMeters>
            <DistanceMeters>15755.647111052</DistanceMeters>
          </Trackpoint>
          <Trackpoint>
            <Time>2022-08-27T00:05:56.000Z</Time>
            <Position>
              <LatitudeDegrees>50.172283686697483062744140625</LatitudeDegrees>
              <LongitudeDegrees>17.0202885568141937255859375</LongitudeDegrees>
            </Position>
            <AltitudeMeters>776.5999755859375</AltitudeMeters>
            <DistanceMeters>15762.068273645</DistanceMeters>
          </Trackpoint>
          <Trackpoint>
            <Time>2022-08-27T00:05:58.000Z</Time>
            <Position>
              <LatitudeDegrees>50.1722962595522403717041015625</LatitudeDegrees>
              <LongitudeDegrees>17.02026785351336002349853515625</LongitudeDegrees>
            </Position>
            <AltitudeMeters>777</AltitudeMeters>
            <DistanceMeters>15764.101934141</DistanceMeters>
          </Trackpoint>
          <Trackpoint>
            <Time>2022-08-27T00:06:04.000Z</Time>
            <Position>
              <LatitudeDegrees>50.17233171500265598297119140625</LatitudeDegrees>
              <LongitudeDegrees>17.020208425819873809814453125</LongitudeDegrees>
            </Position>
            <AltitudeMeters>777.79998779296875</AltitudeMeters>
            <DistanceMeters>15769.891549306</DistanceMeters>
          </Trackpoint>
          <Trackpoint>
            <Time>2022-08-27T00:06:07.000Z</Time>
            <Position>
              <LatitudeDegrees>50.17234646715223789215087890625</LatitudeDegrees>
              <LongitudeDegrees>17.0201787538826465606689453125</LongitudeDegrees>
            </Position>
            <AltitudeMeters>778.4000244140625</AltitudeMeters>
            <DistanceMeters>15772.569212596</DistanceMeters>
          </Trackpoint>
          <Trackpoint>
            <Time>2022-08-27T00:06:12.000Z</Time>
            <Position>
              <LatitudeDegrees>50.17237295396625995635986328125</LatitudeDegrees>
              <LongitudeDegrees>17.02013139612972736358642578125</LongitudeDegrees>
            </Position>
            <AltitudeMeters>779</AltitudeMeters>
            <DistanceMeters>15777.050606354</DistanceMeters>
          </Trackpoint>
          <Trackpoint>
            <Time>2022-08-27T00:06:18.000Z</Time>
            <Position>
              <LatitudeDegrees>50.17240564338862895965576171875</LatitudeDegrees>
              <LongitudeDegrees>17.02007289044559001922607421875</LongitudeDegrees>
            </Position>
            <AltitudeMeters>779.5999755859375</AltitudeMeters>
            <DistanceMeters>15782.585045738</DistanceMeters>
          </Trackpoint>
          <Trackpoint>
            <Time>2022-08-27T00:06:22.000Z</Time>
            <Position>
              <LatitudeDegrees>50.17242752015590667724609375</LatitudeDegrees>
              <LongitudeDegrees>17.02003818936645984649658203125</LongitudeDegrees>
            </Position>
            <AltitudeMeters>780</AltitudeMeters>
            <DistanceMeters>15786.057098741</DistanceMeters>
          </Trackpoint>
          <Trackpoint>
            <Time>2022-08-27T00:06:27.000Z</Time>
            <Position>
              <LatitudeDegrees>50.17245174385607242584228515625</LatitudeDegrees>
              <LongitudeDegrees>17.0199849642813205718994140625</LongitudeDegrees>
            </Position>
            <AltitudeMeters>780.79998779296875</AltitudeMeters>
            <DistanceMeters>15790.71146802</DistanceMeters>
          </Trackpoint>
          <Trackpoint>
            <Time>2022-08-27T00:06:29.000Z</Time>
            <Position>
              <LatitudeDegrees>50.17246046103537082672119140625</LatitudeDegrees>
              <LongitudeDegrees>17.01996602118015289306640625</LongitudeDegrees>
            </Position>
            <AltitudeMeters>781</AltitudeMeters>
            <DistanceMeters>15792.373756621</DistanceMeters>
          </Trackpoint>
          <Trackpoint>
            <Time>2022-08-27T00:06:38.000Z</Time>
            <Position>
              <LatitudeDegrees>50.17250664532184600830078125</LatitudeDegrees>
              <LongitudeDegrees>17.01990005560219287872314453125</LongitudeDegrees>
            </Position>
            <AltitudeMeters>782</AltitudeMeters>
            <DistanceMeters>15799.34058236</DistanceMeters>
          </Trackpoint>
          <Trackpoint>
            <Time>2022-08-27T00:06:47.000Z</Time>
            <Position>
              <LatitudeDegrees>50.17255903221666812896728515625</LatitudeDegrees>
              <LongitudeDegrees>17.01981305144727230072021484375</LongitudeDegrees>
            </Position>
            <AltitudeMeters>783</AltitudeMeters>
            <DistanceMeters>15807.853300109</DistanceMeters>
          </Trackpoint>
          <Trackpoint>
            <Time>2022-08-27T00:06:57.000Z</Time>
            <Position>
              <LatitudeDegrees>50.17262139357626438140869140625</LatitudeDegrees>
              <LongitudeDegrees>17.0196929387748241424560546875</LongitudeDegrees>
            </Position>
            <AltitudeMeters>784.20001220703125</AltitudeMeters>
            <DistanceMeters>15818.875579749</DistanceMeters>
          </Trackpoint>
          <Trackpoint>
            <Time>2022-08-27T00:06:58.000Z</Time>
            <Position>
              <LatitudeDegrees>50.17262659035623073577880859375</LatitudeDegrees>
              <LongitudeDegrees>17.0196812041103839874267578125</LongitudeDegrees>
            </Position>
            <AltitudeMeters>784.4000244140625</AltitudeMeters>
            <DistanceMeters>15819.890187415</DistanceMeters>
          </Trackpoint>
          <Trackpoint>
            <Time>2022-08-27T00:07:05.000Z</Time>
            <Position>
              <LatitudeDegrees>50.1726704277098178863525390625</LatitudeDegrees>
              <LongitudeDegrees>17.01960216276347637176513671875</LongitudeDegrees>
            </Position>
            <AltitudeMeters>785.20001220703125</AltitudeMeters>
            <DistanceMeters>15827.343577937</DistanceMeters>
          </Trackpoint>
          <Trackpoint>
            <Time>2022-08-27T00:07:06.000Z</Time>
            <Position>
              <LatitudeDegrees>50.17267604358494281768798828125</LatitudeDegrees>
              <LongitudeDegrees>17.019592188298702239990234375</LongitudeDegrees>
            </Position>
            <AltitudeMeters>785.4000244140625</AltitudeMeters>
            <DistanceMeters>15828.284294415</DistanceMeters>
          </Trackpoint>
          <Trackpoint>
            <Time>2022-08-27T00:07:11.000Z</Time>
            <Position>
              <LatitudeDegrees>50.17269984818994998931884765625</LatitudeDegrees>
              <LongitudeDegrees>17.01954918913543224334716796875</LongitudeDegrees>
            </Position>
            <AltitudeMeters>786.20001220703125</AltitudeMeters>
            <DistanceMeters>15832.336044528</DistanceMeters>
          </Trackpoint>
          <Trackpoint>
            <Time>2022-08-27T00:07:16.000Z</Time>
            <Position>
              <LatitudeDegrees>50.17272985540330410003662109375</LatitudeDegrees>
              <LongitudeDegrees>17.01950308866798877716064453125</LongitudeDegrees>
            </Position>
            <AltitudeMeters>786.79998779296875</AltitudeMeters>
            <DistanceMeters>15837.022316598</DistanceMeters>
          </Trackpoint>
          <Trackpoint>
            <Time>2022-08-27T00:07:21.000Z</Time>
            <Position>
              <LatitudeDegrees>50.1727579347789287567138671875</LatitudeDegrees>
              <LongitudeDegrees>17.01944290660321712493896484375</LongitudeDegrees>
            </Position>
            <AltitudeMeters>787.4000244140625</AltitudeMeters>
            <DistanceMeters>15842.330219998</DistanceMeters>
          </Trackpoint>
          <Trackpoint>
            <Time>2022-08-27T00:07:26.000Z</Time>
            <Position>
              <LatitudeDegrees>50.17278693616390228271484375</LatitudeDegrees>
              <LongitudeDegrees>17.019381634891033172607421875</LongitudeDegrees>
            </Position>
            <AltitudeMeters>788</AltitudeMeters>
            <DistanceMeters>15847.760894879</DistanceMeters>
          </Trackpoint>
          <Trackpoint>
            <Time>2022-08-27T00:07:29.000Z</Time>
            <Position>
              <LatitudeDegrees>50.17280311323702335357666015625</LatitudeDegrees>
              <LongitudeDegrees>17.0193415693938732147216796875</LongitudeDegrees>
            </Position>
            <AltitudeMeters>788.4000244140625</AltitudeMeters>
            <DistanceMeters>15851.138021846</DistanceMeters>
          </Trackpoint>
          <Trackpoint>
            <Time>2022-08-27T00:07:36.000Z</Time>
            <Position>
              <LatitudeDegrees>50.17283999361097812652587890625</LatitudeDegrees>
              <LongitudeDegrees>17.019256912171840667724609375</LongitudeDegrees>
            </Position>
            <AltitudeMeters>789.5999755859375</AltitudeMeters>
            <DistanceMeters>15858.436543678</DistanceMeters>
          </Trackpoint>
          <Trackpoint>
            <Time>2022-08-27T00:07:41.000Z</Time>
            <Position>
              <LatitudeDegrees>50.172867067158222198486328125</LatitudeDegrees>
              <LongitudeDegrees>17.01920117251574993133544921875</LongitudeDegrees>
            </Position>
            <AltitudeMeters>790.79998779296875</AltitudeMeters>
            <DistanceMeters>15863.42340948</DistanceMeters>
          </Trackpoint>
          <Trackpoint>
            <Time>2022-08-27T00:07:47.000Z</Time>
            <Position>
              <LatitudeDegrees>50.17290134914219379425048828125</LatitudeDegrees>
              <LongitudeDegrees>17.019142918288707733154296875</LongitudeDegrees>
            </Position>
            <AltitudeMeters>791.4000244140625</AltitudeMeters>
            <DistanceMeters>15869.062906731</DistanceMeters>
          </Trackpoint>
          <Trackpoint>
            <Time>2022-08-27T00:07:51.000Z</Time>
            <Position>
              <LatitudeDegrees>50.17292263917624950408935546875</LatitudeDegrees>
              <LongitudeDegrees>17.0191083848476409912109375</LongitudeDegrees>
            </Position>
            <AltitudeMeters>791.79998779296875</AltitudeMeters>
            <DistanceMeters>15872.481227798</DistanceMeters>
          </Trackpoint>
          <Trackpoint>
            <Time>2022-08-27T00:07:56.000Z</Time>
            <Position>
              <LatitudeDegrees>50.17294979654252529144287109375</LatitudeDegrees>
              <LongitudeDegrees>17.01904962770640850067138671875</LongitudeDegrees>
            </Position>
            <AltitudeMeters>792.4000244140625</AltitudeMeters>
            <DistanceMeters>15877.645997475</DistanceMeters>
          </Trackpoint>
          <Trackpoint>
            <Time>2022-08-27T00:08:00.000Z</Time>
            <Position>
              <LatitudeDegrees>50.172972343862056732177734375</LatitudeDegrees>
              <LongitudeDegrees>17.01900319196283817291259765625</LongitudeDegrees>
            </Position>
            <AltitudeMeters>792.79998779296875</AltitudeMeters>
            <DistanceMeters>15881.79900193</DistanceMeters>
          </Trackpoint>
          <Trackpoint>
            <Time>2022-08-27T00:08:06.000Z</Time>
            <Position>
              <LatitudeDegrees>50.1730062067508697509765625</LatitudeDegrees>
              <LongitudeDegrees>17.01893798075616359710693359375</LongitudeDegrees>
            </Position>
            <AltitudeMeters>793.5999755859375</AltitudeMeters>
            <DistanceMeters>15887.783421967</DistanceMeters>
          </Trackpoint>
          <Trackpoint>
            <Time>2022-08-27T00:08:08.000Z</Time>
            <Position>
              <LatitudeDegrees>50.17301903106272220611572265625</LatitudeDegrees>
              <LongitudeDegrees>17.01891652308404445648193359375</LongitudeDegrees>
            </Position>
            <AltitudeMeters>794</AltitudeMeters>
            <DistanceMeters>15889.876168267</DistanceMeters>
          </Trackpoint>
          <Trackpoint>
            <Time>2022-08-27T00:08:15.000Z</Time>
            <Position>
              <LatitudeDegrees>50.17305809073150157928466796875</LatitudeDegrees>
              <LongitudeDegrees>17.01884108595550060272216796875</LongitudeDegrees>
            </Position>
            <AltitudeMeters>795</AltitudeMeters>
            <DistanceMeters>15896.79160642</DistanceMeters>
          </Trackpoint>
          <Trackpoint>
            <Time>2022-08-27T00:08:16.000Z</Time>
            <Position>
              <LatitudeDegrees>50.173064209520816802978515625</LatitudeDegrees>
              <LongitudeDegrees>17.01883010566234588623046875</LongitudeDegrees>
            </Position>
            <AltitudeMeters>795</AltitudeMeters>
            <DistanceMeters>15897.823860759</DistanceMeters>
          </Trackpoint>
          <Trackpoint>
            <Time>2022-08-27T00:08:25.000Z</Time>
            <Position>
              <LatitudeDegrees>50.17311844043433666229248046875</LatitudeDegrees>
              <LongitudeDegrees>17.01872675679624080657958984375</LongitudeDegrees>
            </Position>
            <AltitudeMeters>796</AltitudeMeters>
            <DistanceMeters>15907.348363263</DistanceMeters>
          </Trackpoint>
          <Trackpoint>
            <Time>2022-08-27T00:08:27.000Z</Time>
            <Position>
              <LatitudeDegrees>50.17312891781330108642578125</LatitudeDegrees>
              <LongitudeDegrees>17.0187075622379779815673828125</LongitudeDegrees>
            </Position>
            <AltitudeMeters>796.20001220703125</AltitudeMeters>
            <DistanceMeters>15909.146353076</DistanceMeters>
          </Trackpoint>
          <Trackpoint>
            <Time>2022-08-27T00:08:33.000Z</Time>
            <Position>
              <LatitudeDegrees>50.17316219396889209747314453125</LatitudeDegrees>
              <LongitudeDegrees>17.01863430440425872802734375</LongitudeDegrees>
            </Position>
            <AltitudeMeters>797.20001220703125</AltitudeMeters>
            <DistanceMeters>15915.547797202</DistanceMeters>
          </Trackpoint>
          <Trackpoint>
            <Time>2022-08-27T00:08:38.000Z</Time>
            <Position>
              <LatitudeDegrees>50.17318801023066043853759765625</LatitudeDegrees>
              <LongitudeDegrees>17.01856867410242557525634765625</LongitudeDegrees>
            </Position>
            <AltitudeMeters>798</AltitudeMeters>
            <DistanceMeters>15921.037183789</DistanceMeters>
          </Trackpoint>
          <Trackpoint>
            <Time>2022-08-27T00:08:41.000Z</Time>
            <Position>
              <LatitudeDegrees>50.17320041544735431671142578125</LatitudeDegrees>
              <LongitudeDegrees>17.0185308717191219329833984375</LongitudeDegrees>
            </Position>
            <AltitudeMeters>798.20001220703125</AltitudeMeters>
            <DistanceMeters>15924.063154296</DistanceMeters>
          </Trackpoint>
          <Trackpoint>
            <Time>2022-08-27T00:08:46.000Z</Time>
            <Position>
              <LatitudeDegrees>50.1732206158339977264404296875</LatitudeDegrees>
              <LongitudeDegrees>17.01846666634082794189453125</LongitudeDegrees>
            </Position>
            <AltitudeMeters>798.79998779296875</AltitudeMeters>
            <DistanceMeters>15929.162822929</DistanceMeters>
          </Trackpoint>
          <Trackpoint>
            <Time>2022-08-27T00:08:49.000Z</Time>
            <Position>
              <LatitudeDegrees>50.17323913984000682830810546875</LatitudeDegrees>
              <LongitudeDegrees>17.018428109586238861083984375</LongitudeDegrees>
            </Position>
            <AltitudeMeters>799</AltitudeMeters>
            <DistanceMeters>15932.59827194</DistanceMeters>
          </Trackpoint>
          <Trackpoint>
            <Time>2022-08-27T00:08:52.000Z</Time>
            <Position>
              <LatitudeDegrees>50.17325229942798614501953125</LatitudeDegrees>
              <LongitudeDegrees>17.0183897204697132110595703125</LongitudeDegrees>
            </Position>
            <AltitudeMeters>799.4000244140625</AltitudeMeters>
            <DistanceMeters>15935.700861422</DistanceMeters>
          </Trackpoint>
          <Trackpoint>
            <Time>2022-08-27T00:08:59.000Z</Time>
            <Position>
              <LatitudeDegrees>50.173280127346515655517578125</LatitudeDegrees>
              <LongitudeDegrees>17.0182918198406696319580078125</LongitudeDegrees>
            </Position>
            <AltitudeMeters>799.79998779296875</AltitudeMeters>
            <DistanceMeters>15943.336185483</DistanceMeters>
          </Trackpoint>
          <Trackpoint>
            <Time>2022-08-27T00:09:05.000Z</Time>
            <Position>
              <LatitudeDegrees>50.17330854199826717376708984375</LatitudeDegrees>
              <LongitudeDegrees>17.01821110211312770843505859375</LongitudeDegrees>
            </Position>
            <AltitudeMeters>800.4000244140625</AltitudeMeters>
            <DistanceMeters>15949.901974464</DistanceMeters>
          </Trackpoint>
          <Trackpoint>
            <Time>2022-08-27T00:09:09.000Z</Time>
            <Position>
              <LatitudeDegrees>50.17332714982330799102783203125</LatitudeDegrees>
              <LongitudeDegrees>17.01815745793282985687255859375</LongitudeDegrees>
            </Position>
            <AltitudeMeters>800.5999755859375</AltitudeMeters>
            <DistanceMeters>15954.250420172</DistanceMeters>
          </Trackpoint>
          <Trackpoint>
            <Time>2022-08-27T00:09:17.000Z</Time>
            <Position>
              <LatitudeDegrees>50.17337090335786342620849609375</LatitudeDegrees>
              <LongitudeDegrees>17.0180551148951053619384765625</LongitudeDegrees>
            </Position>
            <AltitudeMeters>801.4000244140625</AltitudeMeters>
            <DistanceMeters>15963.021751388</DistanceMeters>
          </Trackpoint>
          <Trackpoint>
            <Time>2022-08-27T00:09:20.000Z</Time>
            <Position>
              <LatitudeDegrees>50.17338506877422332763671875</LatitudeDegrees>
              <LongitudeDegrees>17.01801781542599201202392578125</LongitudeDegrees>
            </Position>
            <AltitudeMeters>801.5999755859375</AltitudeMeters>
            <DistanceMeters>15966.112676958</DistanceMeters>
          </Trackpoint>
          <Trackpoint>
            <Time>2022-08-27T00:09:30.000Z</Time>
            <Position>
              <LatitudeDegrees>50.17343745566904544830322265625</LatitudeDegrees>
              <LongitudeDegrees>17.0179002173244953155517578125</LongitudeDegrees>
            </Position>
            <AltitudeMeters>802.4000244140625</AltitudeMeters>
            <DistanceMeters>15976.323959575</DistanceMeters>
          </Trackpoint>
          <Trackpoint>
            <Time>2022-08-27T00:09:40.000Z</Time>
            <Position>
              <LatitudeDegrees>50.17348791472613811492919921875</LatitudeDegrees>
              <LongitudeDegrees>17.0177862234413623809814453125</LongitudeDegrees>
            </Position>
            <AltitudeMeters>803.5999755859375</AltitudeMeters>
            <DistanceMeters>15986.202168221</DistanceMeters>
          </Trackpoint>
          <Trackpoint>
            <Time>2022-08-27T00:09:41.000Z</Time>
            <Position>
              <LatitudeDegrees>50.173493362963199615478515625</LatitudeDegrees>
              <LongitudeDegrees>17.0177751593291759490966796875</LongitudeDegrees>
            </Position>
            <AltitudeMeters>803.5999755859375</AltitudeMeters>
            <DistanceMeters>15987.19881681</DistanceMeters>
          </Trackpoint>
          <Trackpoint>
            <Time>2022-08-27T00:09:52.000Z</Time>
            <Position>
              <LatitudeDegrees>50.17354734241962432861328125</LatitudeDegrees>
              <LongitudeDegrees>17.01764934696257114410400390625</LongitudeDegrees>
            </Position>
            <AltitudeMeters>804.4000244140625</AltitudeMeters>
            <DistanceMeters>15997.993450033</DistanceMeters>
          </Trackpoint>
          <Trackpoint>
            <Time>2022-08-27T00:09:53.000Z</Time>
            <Position>
              <LatitudeDegrees>50.173552036285400390625</LatitudeDegrees>
              <LongitudeDegrees>17.01763794757425785064697265625</LongitudeDegrees>
            </Position>
            <AltitudeMeters>804.5999755859375</AltitudeMeters>
            <DistanceMeters>15998.962536175</DistanceMeters>
          </Trackpoint>
          <Trackpoint>
            <Time>2022-08-27T00:10:00.000Z</Time>
            <Position>
              <LatitudeDegrees>50.17358631826937198638916015625</LatitudeDegrees>
              <LongitudeDegrees>17.01756821013987064361572265625</LongitudeDegrees>
            </Position>
            <AltitudeMeters>805.5999755859375</AltitudeMeters>
            <DistanceMeters>16005.229978439</DistanceMeters>
          </Trackpoint>
          <Trackpoint>
            <Time>2022-08-27T00:10:03.000Z</Time>
            <Position>
              <LatitudeDegrees>50.17359788529574871063232421875</LatitudeDegrees>
              <LongitudeDegrees>17.0175384543836116790771484375</LongitudeDegrees>
            </Position>
            <AltitudeMeters>806.20001220703125</AltitudeMeters>
            <DistanceMeters>16007.711613411</DistanceMeters>
          </Trackpoint>
          <Trackpoint>
            <Time>2022-08-27T00:10:07.000Z</Time>
            <Position>
              <LatitudeDegrees>50.173611380159854888916015625</LatitudeDegrees>
              <LongitudeDegrees>17.01750534586608409881591796875</LongitudeDegrees>
            </Position>
            <AltitudeMeters>806.79998779296875</AltitudeMeters>
            <DistanceMeters>16010.51127524</DistanceMeters>
          </Trackpoint>
          <Trackpoint>
            <Time>2022-08-27T00:10:13.000Z</Time>
            <Position>
              <LatitudeDegrees>50.1736323349177837371826171875</LatitudeDegrees>
              <LongitudeDegrees>17.01744969002902507781982421875</LongitudeDegrees>
            </Position>
            <AltitudeMeters>808</AltitudeMeters>
            <DistanceMeters>16015.113943959</DistanceMeters>
          </Trackpoint>
          <Trackpoint>
            <Time>2022-08-27T00:10:20.000Z</Time>
            <Position>
              <LatitudeDegrees>50.173659659922122955322265625</LatitudeDegrees>
              <LongitudeDegrees>17.01738196425139904022216796875</LongitudeDegrees>
            </Position>
            <AltitudeMeters>809</AltitudeMeters>
            <DistanceMeters>16020.818713499</DistanceMeters>
          </Trackpoint>
          <Trackpoint>
            <Time>2022-08-27T00:10:25.000Z</Time>
            <Position>
              <LatitudeDegrees>50.173677764832973480224609375</LatitudeDegrees>
              <LongitudeDegrees>17.0173336006700992584228515625</LongitudeDegrees>
            </Position>
            <AltitudeMeters>809.79998779296875</AltitudeMeters>
            <DistanceMeters>16024.810966612</DistanceMeters>
          </Trackpoint>
          <Trackpoint>
            <Time>2022-08-27T00:10:28.000Z</Time>
            <Position>
              <LatitudeDegrees>50.17368807457387447357177734375</LatitudeDegrees>
              <LongitudeDegrees>17.0173059403896331787109375</LongitudeDegrees>
            </Position>
            <AltitudeMeters>810.20001220703125</AltitudeMeters>
            <DistanceMeters>16027.091607757</DistanceMeters>
          </Trackpoint>
          <Trackpoint>
            <Time>2022-08-27T00:10:35.000Z</Time>
            <Position>
              <LatitudeDegrees>50.17371355555951595306396484375</LatitudeDegrees>
              <LongitudeDegrees>17.017239220440387725830078125</LongitudeDegrees>
            </Position>
            <AltitudeMeters>811.20001220703125</AltitudeMeters>
            <DistanceMeters>16032.629309411</DistanceMeters>
          </Trackpoint>
          <Trackpoint>
            <Time>2022-08-27T00:10:36.000Z</Time>
            <Position>
              <LatitudeDegrees>50.1737168245017528533935546875</LatitudeDegrees>
              <LongitudeDegrees>17.01722882688045501708984375</LongitudeDegrees>
            </Position>
            <AltitudeMeters>811.4000244140625</AltitudeMeters>
            <DistanceMeters>16033.446760117</DistanceMeters>
          </Trackpoint>
          <Trackpoint>
            <Time>2022-08-27T00:10:44.000Z</Time>
            <Position>
              <LatitudeDegrees>50.17373937182128429412841796875</LatitudeDegrees>
              <LongitudeDegrees>17.0171381346881389617919921875</LongitudeDegrees>
            </Position>
            <AltitudeMeters>812.20001220703125</AltitudeMeters>
            <DistanceMeters>16040.381757387</DistanceMeters>
          </Trackpoint>
          <Trackpoint>
            <Time>2022-08-27T00:10:45.000Z</Time>
            <Position>
              <LatitudeDegrees>50.1737416349351406097412109375</LatitudeDegrees>
              <LongitudeDegrees>17.01712681911885738372802734375</LongitudeDegrees>
            </Position>
            <AltitudeMeters>812.4000244140625</AltitudeMeters>
            <DistanceMeters>16041.226373299</DistanceMeters>
          </Trackpoint>
          <Trackpoint>
            <Time>2022-08-27T00:10:54.000Z</Time>
            <Position>
              <LatitudeDegrees>50.17377038486301898956298828125</LatitudeDegrees>
              <LongitudeDegrees>17.01702523045241832733154296875</LongitudeDegrees>
            </Position>
            <AltitudeMeters>813.4000244140625</AltitudeMeters>
            <DistanceMeters>16049.143302034</DistanceMeters>
          </Trackpoint>
          <Trackpoint>
            <Time>2022-08-27T00:10:55.000Z</Time>
            <Position>
              <LatitudeDegrees>50.17377356998622417449951171875</LatitudeDegrees>
              <LongitudeDegrees>17.01701425015926361083984375</LongitudeDegrees>
            </Position>
            <AltitudeMeters>813.4000244140625</AltitudeMeters>
            <DistanceMeters>16050.003805531</DistanceMeters>
          </Trackpoint>
          <Trackpoint>
            <Time>2022-08-27T00:11:00.000Z</Time>
            <Position>
              <LatitudeDegrees>50.1737902499735355377197265625</LatitudeDegrees>
              <LongitudeDegrees>17.01695859432220458984375</LongitudeDegrees>
            </Position>
            <AltitudeMeters>814.4000244140625</AltitudeMeters>
            <DistanceMeters>16054.385351209</DistanceMeters>
          </Trackpoint>
          <Trackpoint>
            <Time>2022-08-27T00:11:05.000Z</Time>
            <Position>
              <LatitudeDegrees>50.1738043315708637237548828125</LatitudeDegrees>
              <LongitudeDegrees>17.01690369285643100738525390625</LongitudeDegrees>
            </Position>
            <AltitudeMeters>815.5999755859375</AltitudeMeters>
            <DistanceMeters>16058.600940188</DistanceMeters>
          </Trackpoint>
          <Trackpoint>
            <Time>2022-08-27T00:11:06.000Z</Time>
            <Position>
              <LatitudeDegrees>50.17380642704665660858154296875</LatitudeDegrees>
              <LongitudeDegrees>17.0168928802013397216796875</LongitudeDegrees>
            </Position>
            <AltitudeMeters>815.5999755859375</AltitudeMeters>
            <DistanceMeters>16059.407268597</DistanceMeters>
          </Trackpoint>
          <Trackpoint>
            <Time>2022-08-27T00:11:12.000Z</Time>
            <Position>
              <LatitudeDegrees>50.1738224364817142486572265625</LatitudeDegrees>
              <LongitudeDegrees>17.01683311723172664642333984375</LongitudeDegrees>
            </Position>
            <AltitudeMeters>816.79998779296875</AltitudeMeters>
            <DistanceMeters>16064.025606021</DistanceMeters>
          </Trackpoint>
          <Trackpoint>
            <Time>2022-08-27T00:11:17.000Z</Time>
            <Position>
              <LatitudeDegrees>50.1738368533551692962646484375</LatitudeDegrees>
              <LongitudeDegrees>17.0167815685272216796875</LongitudeDegrees>
            </Position>
            <AltitudeMeters>817.4000244140625</AltitudeMeters>
            <DistanceMeters>16068.034787492</DistanceMeters>
          </Trackpoint>
          <Trackpoint>
            <Time>2022-08-27T00:11:19.000Z</Time>
            <Position>
              <LatitudeDegrees>50.17384397797286510467529296875</LatitudeDegrees>
              <LongitudeDegrees>17.01676052995026111602783203125</LongitudeDegrees>
            </Position>
            <AltitudeMeters>817.79998779296875</AltitudeMeters>
            <DistanceMeters>16069.729356555</DistanceMeters>
          </Trackpoint>
          <Trackpoint>
            <Time>2022-08-27T00:11:26.000Z</Time>
            <Position>
              <LatitudeDegrees>50.1738645136356353759765625</LatitudeDegrees>
              <LongitudeDegrees>17.0166809856891632080078125</LongitudeDegrees>
            </Position>
            <AltitudeMeters>819</AltitudeMeters>
            <DistanceMeters>16075.842905966</DistanceMeters>
          </Trackpoint>
          <Trackpoint>
            <Time>2022-08-27T00:11:28.000Z</Time>
            <Position>
              <LatitudeDegrees>50.17387029714882373809814453125</LatitudeDegrees>
              <LongitudeDegrees>17.01665927655994892120361328125</LongitudeDegrees>
            </Position>
            <AltitudeMeters>819.20001220703125</AltitudeMeters>
            <DistanceMeters>16077.521412401</DistanceMeters>
          </Trackpoint>
          <Trackpoint>
            <Time>2022-08-27T00:11:34.000Z</Time>
            <Position>
              <LatitudeDegrees>50.17388957552611827850341796875</LatitudeDegrees>
              <LongitudeDegrees>17.01658752746880054473876953125</LongitudeDegrees>
            </Position>
            <AltitudeMeters>820</AltitudeMeters>
            <DistanceMeters>16083.068075402</DistanceMeters>
          </Trackpoint>
          <Trackpoint>
            <Time>2022-08-27T00:11:40.000Z</Time>
            <Position>
              <LatitudeDegrees>50.1739132963120937347412109375</LatitudeDegrees>
              <LongitudeDegrees>17.01651276089251041412353515625</LongitudeDegrees>
            </Position>
            <AltitudeMeters>820.5999755859375</AltitudeMeters>
            <DistanceMeters>16089.015411732</DistanceMeters>
          </Trackpoint>
          <Trackpoint>
            <Time>2022-08-27T00:11:44.000Z</Time>
            <Position>
              <LatitudeDegrees>50.1739257015287876129150390625</LatitudeDegrees>
              <LongitudeDegrees>17.01646129600703716278076171875</LongitudeDegrees>
            </Position>
            <AltitudeMeters>821</AltitudeMeters>
            <DistanceMeters>16092.934615737</DistanceMeters>
          </Trackpoint>
          <Trackpoint>
            <Time>2022-08-27T00:11:50.000Z</Time>
            <Position>
              <LatitudeDegrees>50.1739471592009067535400390625</LatitudeDegrees>
              <LongitudeDegrees>17.01639155857264995574951171875</LongitudeDegrees>
            </Position>
            <AltitudeMeters>821.79998779296875</AltitudeMeters>
            <DistanceMeters>16098.450259629</DistanceMeters>
          </Trackpoint>
          <Trackpoint>
            <Time>2022-08-27T00:11:53.000Z</Time>
            <Position>
              <LatitudeDegrees>50.17395629547536373138427734375</LatitudeDegrees>
              <LongitudeDegrees>17.01635652221739292144775390625</LongitudeDegrees>
            </Position>
            <AltitudeMeters>822</AltitudeMeters>
            <DistanceMeters>16101.148081271</DistanceMeters>
          </Trackpoint>
          <Trackpoint>
            <Time>2022-08-27T00:12:01.000Z</Time>
            <Position>
              <LatitudeDegrees>50.173978172242641448974609375</LatitudeDegrees>
              <LongitudeDegrees>17.01625292189419269561767578125</LongitudeDegrees>
            </Position>
            <AltitudeMeters>822.79998779296875</AltitudeMeters>
            <DistanceMeters>16108.924030851</DistanceMeters>
          </Trackpoint>
          <Trackpoint>
            <Time>2022-08-27T00:12:05.000Z</Time>
            <Position>
              <LatitudeDegrees>50.17399133183062076568603515625</LatitudeDegrees>
              <LongitudeDegrees>17.0162003673613071441650390625</LongitudeDegrees>
            </Position>
            <AltitudeMeters>823</AltitudeMeters>
            <DistanceMeters>16112.946703717</DistanceMeters>
          </Trackpoint>
          <Trackpoint>
            <Time>2022-08-27T00:12:11.000Z</Time>
            <Position>
              <LatitudeDegrees>50.17401262186467647552490234375</LatitudeDegrees>
              <LongitudeDegrees>17.0161222480237483978271484375</LongitudeDegrees>
            </Position>
            <AltitudeMeters>823.5999755859375</AltitudeMeters>
            <DistanceMeters>16118.998644733</DistanceMeters>
          </Trackpoint>
          <Trackpoint>
            <Time>2022-08-27T00:12:17.000Z</Time>
            <Position>
              <LatitudeDegrees>50.17402821220457553863525390625</LatitudeDegrees>
              <LongitudeDegrees>17.01604739762842655181884765625</LongitudeDegrees>
            </Position>
            <AltitudeMeters>824.20001220703125</AltitudeMeters>
            <DistanceMeters>16124.609245992</DistanceMeters>
          </Trackpoint>
          <Trackpoint>
            <Time>2022-08-27T00:12:22.000Z</Time>
            <Position>
              <LatitudeDegrees>50.1740460656583309173583984375</LatitudeDegrees>
              <LongitudeDegrees>17.0159851200878620147705078125</LongitudeDegrees>
            </Position>
            <AltitudeMeters>824.5999755859375</AltitudeMeters>
            <DistanceMeters>16129.473277271</DistanceMeters>
          </Trackpoint>
          <Trackpoint>
            <Time>2022-08-27T00:12:31.000Z</Time>
            <Position>
              <LatitudeDegrees>50.17406634986400604248046875</LatitudeDegrees>
              <LongitudeDegrees>17.01590205542743206024169921875</LongitudeDegrees>
            </Position>
            <AltitudeMeters>825.20001220703125</AltitudeMeters>
            <DistanceMeters>16135.810925101</DistanceMeters>
          </Trackpoint>
          <Trackpoint>
            <Time>2022-08-27T00:12:32.000Z</Time>
            <Position>
              <LatitudeDegrees>50.174066685140132904052734375</LatitudeDegrees>
              <LongitudeDegrees>17.01590222306549549102783203125</LongitudeDegrees>
            </Position>
            <AltitudeMeters>825.4000244140625</AltitudeMeters>
            <DistanceMeters>16135.905951815</DistanceMeters>
          </Trackpoint>
          <Trackpoint>
            <Time>2022-08-27T00:12:41.000Z</Time>
            <Position>
              <LatitudeDegrees>50.1740826107561588287353515625</LatitudeDegrees>
              <LongitudeDegrees>17.01583516784012317657470703125</LongitudeDegrees>
            </Position>
            <AltitudeMeters>825.5999755859375</AltitudeMeters>
            <DistanceMeters>16141.004735012</DistanceMeters>
          </Trackpoint>
          <Trackpoint>
            <Time>2022-08-27T00:12:52.000Z</Time>
            <Position>
              <LatitudeDegrees>50.17411404289305210113525390625</LatitudeDegrees>
              <LongitudeDegrees>17.01569820754230022430419921875</LongitudeDegrees>
            </Position>
            <AltitudeMeters>826.4000244140625</AltitudeMeters>
            <DistanceMeters>16151.375715704</DistanceMeters>
          </Trackpoint>
          <Trackpoint>
            <Time>2022-08-27T00:12:53.000Z</Time>
            <Position>
              <LatitudeDegrees>50.17411739565432071685791015625</LatitudeDegrees>
              <LongitudeDegrees>17.0156847126781940460205078125</LongitudeDegrees>
            </Position>
            <AltitudeMeters>826.4000244140625</AltitudeMeters>
            <DistanceMeters>16152.407970043</DistanceMeters>
          </Trackpoint>
          <Trackpoint>
            <Time>2022-08-27T00:13:03.000Z</Time>
            <Position>
              <LatitudeDegrees>50.17414949834346771240234375</LatitudeDegrees>
              <LongitudeDegrees>17.0155495963990688323974609375</LongitudeDegrees>
            </Position>
            <AltitudeMeters>827.4000244140625</AltitudeMeters>
            <DistanceMeters>16162.680968797</DistanceMeters>
          </Trackpoint>
          <Trackpoint>
            <Time>2022-08-27T00:13:11.000Z</Time>
            <Position>
              <LatitudeDegrees>50.1741798408329486846923828125</LatitudeDegrees>
              <LongitudeDegrees>17.0154543779790401458740234375</LongitudeDegrees>
            </Position>
            <AltitudeMeters>828.5999755859375</AltitudeMeters>
            <DistanceMeters>16170.262290355</DistanceMeters>
          </Trackpoint>
          <Trackpoint>
            <Time>2022-08-27T00:13:12.000Z</Time>
            <Position>
              <LatitudeDegrees>50.1741835288703441619873046875</LatitudeDegrees>
              <LongitudeDegrees>17.01544239185750484466552734375</LongitudeDegrees>
            </Position>
            <AltitudeMeters>828.5999755859375</AltitudeMeters>
            <DistanceMeters>16171.212557499</DistanceMeters>
          </Trackpoint>
          <Trackpoint>
            <Time>2022-08-27T00:13:19.000Z</Time>
            <Position>
              <LatitudeDegrees>50.1742160506546497344970703125</LatitudeDegrees>
              <LongitudeDegrees>17.0153631828725337982177734375</LongitudeDegrees>
            </Position>
            <AltitudeMeters>829.5999755859375</AltitudeMeters>
            <DistanceMeters>16177.91985508</DistanceMeters>
          </Trackpoint>
          <Trackpoint>
            <Time>2022-08-27T00:13:22.000Z</Time>
            <Position>
              <LatitudeDegrees>50.174225270748138427734375</LatitudeDegrees>
              <LongitudeDegrees>17.0153333432972431182861328125</LongitudeDegrees>
            </Position>
            <AltitudeMeters>830</AltitudeMeters>
            <DistanceMeters>16180.280269697</DistanceMeters>
          </Trackpoint>
          <Trackpoint>
            <Time>2022-08-27T00:13:25.000Z</Time>
            <Position>
              <LatitudeDegrees>50.174236334860324859619140625</LatitudeDegrees>
              <LongitudeDegrees>17.01530140824615955352783203125</LongitudeDegrees>
            </Position>
            <AltitudeMeters>830.79998779296875</AltitudeMeters>
            <DistanceMeters>16182.86702184</DistanceMeters>
          </Trackpoint>
          <Trackpoint>
            <Time>2022-08-27T00:13:32.000Z</Time>
            <Position>
              <LatitudeDegrees>50.1742616482079029083251953125</LatitudeDegrees>
              <LongitudeDegrees>17.01521976850926876068115234375</LongitudeDegrees>
            </Position>
            <AltitudeMeters>831.79998779296875</AltitudeMeters>
            <DistanceMeters>16189.332331102</DistanceMeters>
          </Trackpoint>
          <Trackpoint>
            <Time>2022-08-27T00:13:41.000Z</Time>
            <Position>
              <LatitudeDegrees>50.17429190687835216522216796875</LatitudeDegrees>
              <LongitudeDegrees>17.01510510407388210296630859375</LongitudeDegrees>
            </Position>
            <AltitudeMeters>833</AltitudeMeters>
            <DistanceMeters>16198.172369651</DistanceMeters>
          </Trackpoint>
          <Trackpoint>
            <Time>2022-08-27T00:13:42.000Z</Time>
            <Position>
              <LatitudeDegrees>50.17429391853511333465576171875</LatitudeDegrees>
              <LongitudeDegrees>17.01509135775268077850341796875</LongitudeDegrees>
            </Position>
            <AltitudeMeters>833.20001220703125</AltitudeMeters>
            <DistanceMeters>16199.178037867</DistanceMeters>
          </Trackpoint>
          <Trackpoint>
            <Time>2022-08-27T00:13:49.000Z</Time>
            <Position>
              <LatitudeDegrees>50.1743065752089023590087890625</LatitudeDegrees>
              <LongitudeDegrees>17.0149846561253070831298828125</LongitudeDegrees>
            </Position>
            <AltitudeMeters>834.20001220703125</AltitudeMeters>
            <DistanceMeters>16206.913235765</DistanceMeters>
          </Trackpoint>
          <Trackpoint>
            <Time>2022-08-27T00:13:53.000Z</Time>
            <Position>
              <LatitudeDegrees>50.17430716194212436676025390625</LatitudeDegrees>
              <LongitudeDegrees>17.01492212712764739990234375</LongitudeDegrees>
            </Position>
            <AltitudeMeters>834.5999755859375</AltitudeMeters>
            <DistanceMeters>16211.370383752</DistanceMeters>
          </Trackpoint>
          <Trackpoint>
            <Time>2022-08-27T00:14:03.000Z</Time>
            <Position>
              <LatitudeDegrees>50.1743186451494693756103515625</LatitudeDegrees>
              <LongitudeDegrees>17.01475583016872406005859375</LongitudeDegrees>
            </Position>
            <AltitudeMeters>835.20001220703125</AltitudeMeters>
            <DistanceMeters>16223.293869968</DistanceMeters>
          </Trackpoint>
          <Trackpoint>
            <Time>2022-08-27T00:14:05.000Z</Time>
            <Position>
              <LatitudeDegrees>50.1743206568062305450439453125</LatitudeDegrees>
              <LongitudeDegrees>17.0147216320037841796875</LongitudeDegrees>
            </Position>
            <AltitudeMeters>835.20001220703125</AltitudeMeters>
            <DistanceMeters>16225.740692536</DistanceMeters>
          </Trackpoint>
          <Trackpoint>
            <Time>2022-08-27T00:14:11.000Z</Time>
            <Position>
              <LatitudeDegrees>50.1743253506720066070556640625</LatitudeDegrees>
              <LongitudeDegrees>17.01463135890662670135498046875</LongitudeDegrees>
            </Position>
            <AltitudeMeters>835.4000244140625</AltitudeMeters>
            <DistanceMeters>16232.196217518</DistanceMeters>
          </Trackpoint>
          <Trackpoint>
            <Time>2022-08-27T00:14:20.000Z</Time>
            <Position>
              <LatitudeDegrees>50.1743404380977153778076171875</LatitudeDegrees>
              <LongitudeDegrees>17.01450504362583160400390625</LongitudeDegrees>
            </Position>
            <AltitudeMeters>835.79998779296875</AltitudeMeters>
            <DistanceMeters>16241.355333751</DistanceMeters>
          </Trackpoint>
          <Trackpoint>
            <Time>2022-08-27T00:14:30.000Z</Time>
            <Position>
              <LatitudeDegrees>50.1743531785905361175537109375</LatitudeDegrees>
              <LongitudeDegrees>17.014360539615154266357421875</LongitudeDegrees>
            </Position>
            <AltitudeMeters>836</AltitudeMeters>
            <DistanceMeters>16251.753271299</DistanceMeters>
          </Trackpoint>
          <Trackpoint>
            <Time>2022-08-27T00:14:37.000Z</Time>
            <Position>
              <LatitudeDegrees>50.17437606118619441986083984375</LatitudeDegrees>
              <LongitudeDegrees>17.0142591185867786407470703125</LongitudeDegrees>
            </Position>
            <AltitudeMeters>836.20001220703125</AltitudeMeters>
            <DistanceMeters>16259.41810511</DistanceMeters>
          </Trackpoint>
          <Trackpoint>
            <Time>2022-08-27T00:14:41.000Z</Time>
            <Position>
              <LatitudeDegrees>50.1743870414793491363525390625</LatitudeDegrees>
              <LongitudeDegrees>17.01420555822551250457763671875</LongitudeDegrees>
            </Position>
            <AltitudeMeters>836.4000244140625</AltitudeMeters>
            <DistanceMeters>16263.427286581</DistanceMeters>
          </Trackpoint>
          <Trackpoint>
            <Time>2022-08-27T00:14:52.000Z</Time>
            <Position>
              <LatitudeDegrees>50.17442501150071620941162109375</LatitudeDegrees>
              <LongitudeDegrees>17.01403792016208171844482421875</LongitudeDegrees>
            </Position>
            <AltitudeMeters>837</AltitudeMeters>
            <DistanceMeters>16276.102226029</DistanceMeters>
          </Trackpoint>
          <Trackpoint>
            <Time>2022-08-27T00:14:59.000Z</Time>
            <Position>
              <LatitudeDegrees>50.17444043420255184173583984375</LatitudeDegrees>
              <LongitudeDegrees>17.01393909752368927001953125</LongitudeDegrees>
            </Position>
            <AltitudeMeters>837.20001220703125</AltitudeMeters>
            <DistanceMeters>16283.352957376</DistanceMeters>
          </Trackpoint>
          <Trackpoint>
            <Time>2022-08-27T00:15:01.000Z</Time>
            <Position>
              <LatitudeDegrees>50.17444026656448841094970703125</LatitudeDegrees>
              <LongitudeDegrees>17.0139402709901332855224609375</LongitudeDegrees>
            </Position>
            <AltitudeMeters>837.20001220703125</AltitudeMeters>
            <DistanceMeters>16283.44798409</DistanceMeters>
          </Trackpoint>
          <Trackpoint>
            <Time>2022-08-27T00:15:08.000Z</Time>
            <Position>
              <LatitudeDegrees>50.1744406856596469879150390625</LatitudeDegrees>
              <LongitudeDegrees>17.013939432799816131591796875</LongitudeDegrees>
            </Position>
            <AltitudeMeters>837.4000244140625</AltitudeMeters>
            <DistanceMeters>16283.44798409</DistanceMeters>
          </Trackpoint>
          <Trackpoint>
            <Time>2022-08-27T00:15:17.000Z</Time>
            <Position>
              <LatitudeDegrees>50.1744504086673259735107421875</LatitudeDegrees>
              <LongitudeDegrees>17.0138941705226898193359375</LongitudeDegrees>
            </Position>
            <AltitudeMeters>837.4000244140625</AltitudeMeters>
            <DistanceMeters>16286.850418219</DistanceMeters>
          </Trackpoint>
          <Trackpoint>
            <Time>2022-08-27T00:15:26.000Z</Time>
            <Position>
              <LatitudeDegrees>50.17448351718485355377197265625</LatitudeDegrees>
              <LongitudeDegrees>17.01375268399715423583984375</LongitudeDegrees>
            </Position>
            <AltitudeMeters>837.4000244140625</AltitudeMeters>
            <DistanceMeters>16297.588016462</DistanceMeters>
          </Trackpoint>
          <Trackpoint>
            <Time>2022-08-27T00:15:35.000Z</Time>
            <Position>
              <LatitudeDegrees>50.1745120994746685028076171875</LatitudeDegrees>
              <LongitudeDegrees>17.013613879680633544921875</LongitudeDegrees>
            </Position>
            <AltitudeMeters>837.4000244140625</AltitudeMeters>
            <DistanceMeters>16307.981176445</DistanceMeters>
          </Trackpoint>
          <Trackpoint>
            <Time>2022-08-27T00:15:46.000Z</Time>
            <Position>
              <LatitudeDegrees>50.174551494419574737548828125</LatitudeDegrees>
              <LongitudeDegrees>17.01343190856277942657470703125</LongitudeDegrees>
            </Position>
            <AltitudeMeters>836.79998779296875</AltitudeMeters>
            <DistanceMeters>16321.673599427</DistanceMeters>
          </Trackpoint>
          <Trackpoint>
            <Time>2022-08-27T00:15:55.000Z</Time>
            <Position>
              <LatitudeDegrees>50.17458644695580005645751953125</LatitudeDegrees>
              <LongitudeDegrees>17.01329478062689304351806640625</LongitudeDegrees>
            </Position>
            <AltitudeMeters>836.5999755859375</AltitudeMeters>
            <DistanceMeters>16332.194563121</DistanceMeters>
          </Trackpoint>
          <Trackpoint>
            <Time>2022-08-27T00:16:06.000Z</Time>
            <Position>
              <LatitudeDegrees>50.1746180467307567596435546875</LatitudeDegrees>
              <LongitudeDegrees>17.0131201855838298797607421875</LongitudeDegrees>
            </Position>
            <AltitudeMeters>836.5999755859375</AltitudeMeters>
            <DistanceMeters>16345.127974738</DistanceMeters>
          </Trackpoint>
          <Trackpoint>
            <Time>2022-08-27T00:16:17.000Z</Time>
            <Position>
              <LatitudeDegrees>50.17464973032474517822265625</LatitudeDegrees>
              <LongitudeDegrees>17.0129669643938541412353515625</LongitudeDegrees>
            </Position>
            <AltitudeMeters>836.5999755859375</AltitudeMeters>
            <DistanceMeters>16356.605376672</DistanceMeters>
          </Trackpoint>
          <Trackpoint>
            <Time>2022-08-27T00:16:23.000Z</Time>
            <Position>
              <LatitudeDegrees>50.17466523684561252593994140625</LatitudeDegrees>
              <LongitudeDegrees>17.01287836767733097076416015625</LongitudeDegrees>
            </Position>
            <AltitudeMeters>836.4000244140625</AltitudeMeters>
            <DistanceMeters>16363.151882825</DistanceMeters>
          </Trackpoint>
          <Trackpoint>
            <Time>2022-08-27T00:16:28.000Z</Time>
            <Position>
              <LatitudeDegrees>50.17468166537582874298095703125</LatitudeDegrees>
              <LongitudeDegrees>17.012803852558135986328125</LongitudeDegrees>
            </Position>
            <AltitudeMeters>836.20001220703125</AltitudeMeters>
            <DistanceMeters>16368.768918261</DistanceMeters>
          </Trackpoint>
          <Trackpoint>
            <Time>2022-08-27T00:16:29.000Z</Time>
            <Position>
              <LatitudeDegrees>50.17468594014644622802734375</LatitudeDegrees>
              <LongitudeDegrees>17.0127906091511249542236328125</LongitudeDegrees>
            </Position>
            <AltitudeMeters>836.20001220703125</AltitudeMeters>
            <DistanceMeters>16369.827090969</DistanceMeters>
          </Trackpoint>
          <Trackpoint>
            <Time>2022-08-27T00:16:36.000Z</Time>
            <Position>
              <LatitudeDegrees>50.1747119240462779998779296875</LatitudeDegrees>
              <LongitudeDegrees>17.0126846618950366973876953125</LongitudeDegrees>
            </Position>
            <AltitudeMeters>836</AltitudeMeters>
            <DistanceMeters>16377.914417083</DistanceMeters>
          </Trackpoint>
          <Trackpoint>
            <Time>2022-08-27T00:16:44.000Z</Time>
            <Position>
              <LatitudeDegrees>50.1747323758900165557861328125</LatitudeDegrees>
              <LongitudeDegrees>17.012574188411235809326171875</LongitudeDegrees>
            </Position>
            <AltitudeMeters>835.4000244140625</AltitudeMeters>
            <DistanceMeters>16386.112089247</DistanceMeters>
          </Trackpoint>
          <Trackpoint>
            <Time>2022-08-27T00:16:46.000Z</Time>
            <Position>
              <LatitudeDegrees>50.17473564483225345611572265625</LatitudeDegrees>
              <LongitudeDegrees>17.012551724910736083984375</LongitudeDegrees>
            </Position>
            <AltitudeMeters>835.4000244140625</AltitudeMeters>
            <DistanceMeters>16387.752504676</DistanceMeters>
          </Trackpoint>
          <Trackpoint>
            <Time>2022-08-27T00:16:54.000Z</Time>
            <Position>
              <LatitudeDegrees>50.17475165426731109619140625</LatitudeDegrees>
              <LongitudeDegrees>17.01245449483394622802734375</LongitudeDegrees>
            </Position>
            <AltitudeMeters>835</AltitudeMeters>
            <DistanceMeters>16394.909221353</DistanceMeters>
          </Trackpoint>
          <Trackpoint>
            <Time>2022-08-27T00:17:03.000Z</Time>
            <Position>
              <LatitudeDegrees>50.17476447857916355133056640625</LatitudeDegrees>
              <LongitudeDegrees>17.0123197138309478759765625</LongitudeDegrees>
            </Position>
            <AltitudeMeters>835.20001220703125</AltitudeMeters>
            <DistanceMeters>16404.622420552</DistanceMeters>
          </Trackpoint>
          <Trackpoint>
            <Time>2022-08-27T00:17:13.000Z</Time>
            <Position>
              <LatitudeDegrees>50.1747799851000308990478515625</LatitudeDegrees>
              <LongitudeDegrees>17.012177221477031707763671875</LongitudeDegrees>
            </Position>
            <AltitudeMeters>835.4000244140625</AltitudeMeters>
            <DistanceMeters>16414.925700548</DistanceMeters>
          </Trackpoint>
          <Trackpoint>
            <Time>2022-08-27T00:17:22.000Z</Time>
            <Position>
              <LatitudeDegrees>50.17479515634477138519287109375</LatitudeDegrees>
              <LongitudeDegrees>17.012055180966854095458984375</LongitudeDegrees>
            </Position>
            <AltitudeMeters>835.79998779296875</AltitudeMeters>
            <DistanceMeters>16423.787164578</DistanceMeters>
          </Trackpoint>
          <Trackpoint>
            <Time>2022-08-27T00:17:23.000Z</Time>
            <Position>
              <LatitudeDegrees>50.1747944019734859466552734375</LatitudeDegrees>
              <LongitudeDegrees>17.01204185374081134796142578125</LongitudeDegrees>
            </Position>
            <AltitudeMeters>835.79998779296875</AltitudeMeters>
            <DistanceMeters>16424.742171238</DistanceMeters>
          </Trackpoint>
          <Trackpoint>
            <Time>2022-08-27T00:17:30.000Z</Time>
            <Position>
              <LatitudeDegrees>50.174800939857959747314453125</LatitudeDegrees>
              <LongitudeDegrees>17.01194143854081630706787109375</LongitudeDegrees>
            </Position>
            <AltitudeMeters>835.79998779296875</AltitudeMeters>
            <DistanceMeters>16431.93664121</DistanceMeters>
          </Trackpoint>
          <Trackpoint>
            <Time>2022-08-27T00:17:40.000Z</Time>
            <Position>
              <LatitudeDegrees>50.1748235709965229034423828125</LatitudeDegrees>
              <LongitudeDegrees>17.01179542578756809234619140625</LongitudeDegrees>
            </Position>
            <AltitudeMeters>835.4000244140625</AltitudeMeters>
            <DistanceMeters>16442.645186432</DistanceMeters>
          </Trackpoint>
          <Trackpoint>
            <Time>2022-08-27T00:17:50.000Z</Time>
            <Position>
              <LatitudeDegrees>50.17482985742390155792236328125</LatitudeDegrees>
              <LongitudeDegrees>17.01165293343365192413330078125</LongitudeDegrees>
            </Position>
            <AltitudeMeters>835.5999755859375</AltitudeMeters>
            <DistanceMeters>16452.826357656</DistanceMeters>
          </Trackpoint>
          <Trackpoint>
            <Time>2022-08-27T00:18:00.000Z</Time>
            <Position>
              <LatitudeDegrees>50.17483136616647243499755859375</LatitudeDegrees>
              <LongitudeDegrees>17.01151681132614612579345703125</LongitudeDegrees>
            </Position>
            <AltitudeMeters>835.4000244140625</AltitudeMeters>
            <DistanceMeters>16462.530720965</DistanceMeters>
          </Trackpoint>
          <Trackpoint>
            <Time>2022-08-27T00:18:08.000Z</Time>
            <Position>
              <LatitudeDegrees>50.17483555711805820465087890625</LatitudeDegrees>
              <LongitudeDegrees>17.01139242388308048248291015625</LongitudeDegrees>
            </Position>
            <AltitudeMeters>835.4000244140625</AltitudeMeters>
            <DistanceMeters>16471.409491564</DistanceMeters>
          </Trackpoint>
          <Trackpoint>
            <Time>2022-08-27T00:18:16.000Z</Time>
            <Position>
              <LatitudeDegrees>50.174845866858959197998046875</LatitudeDegrees>
              <LongitudeDegrees>17.01128345914185047149658203125</LongitudeDegrees>
            </Position>
            <AltitudeMeters>834.79998779296875</AltitudeMeters>
            <DistanceMeters>16479.261711757</DistanceMeters>
          </Trackpoint>
          <Trackpoint>
            <Time>2022-08-27T00:18:25.000Z</Time>
            <Position>
              <LatitudeDegrees>50.17489490099251270294189453125</LatitudeDegrees>
              <LongitudeDegrees>17.0112114585936069488525390625</LongitudeDegrees>
            </Position>
            <AltitudeMeters>834.79998779296875</AltitudeMeters>
            <DistanceMeters>16486.753168565</DistanceMeters>
          </Trackpoint>
          <Trackpoint>
            <Time>2022-08-27T00:18:33.000Z</Time>
            <Position>
              <LatitudeDegrees>50.17491929233074188232421875</LatitudeDegrees>
              <LongitudeDegrees>17.01116862706840038299560546875</LongitudeDegrees>
            </Position>
            <AltitudeMeters>835</AltitudeMeters>
            <DistanceMeters>16490.838212171</DistanceMeters>
          </Trackpoint>
          <Trackpoint>
            <Time>2022-08-27T00:18:45.000Z</Time>
            <Position>
              <LatitudeDegrees>50.17493278719484806060791015625</LatitudeDegrees>
              <LongitudeDegrees>17.0111108757555484771728515625</LongitudeDegrees>
            </Position>
            <AltitudeMeters>835.4000244140625</AltitudeMeters>
            <DistanceMeters>16495.220788194</DistanceMeters>
          </Trackpoint>
          <Trackpoint>
            <Time>2022-08-27T00:18:57.000Z</Time>
            <Position>
              <LatitudeDegrees>50.17495810054242610931396484375</LatitudeDegrees>
              <LongitudeDegrees>17.01102890074253082275390625</LongitudeDegrees>
            </Position>
            <AltitudeMeters>835.4000244140625</AltitudeMeters>
            <DistanceMeters>16501.707710132</DistanceMeters>
          </Trackpoint>
          <Trackpoint>
            <Time>2022-08-27T00:19:11.000Z</Time>
            <Position>
              <LatitudeDegrees>50.17497771419584751129150390625</LatitudeDegrees>
              <LongitudeDegrees>17.01094499789178371429443359375</LongitudeDegrees>
            </Position>
            <AltitudeMeters>835.5999755859375</AltitudeMeters>
            <DistanceMeters>16508.07520911</DistanceMeters>
          </Trackpoint>
          <Trackpoint>
            <Time>2022-08-27T00:19:20.000Z</Time>
            <Position>
              <LatitudeDegrees>50.17497369088232517242431640625</LatitudeDegrees>
              <LongitudeDegrees>17.0108939521014690399169921875</LongitudeDegrees>
            </Position>
            <AltitudeMeters>835.5999755859375</AltitudeMeters>
            <DistanceMeters>16511.740826896</DistanceMeters>
          </Trackpoint>
          <Trackpoint>
            <Time>2022-08-27T00:19:31.000Z</Time>
            <Position>
              <LatitudeDegrees>50.1749695837497711181640625</LatitudeDegrees>
              <LongitudeDegrees>17.01080250553786754608154296875</LongitudeDegrees>
            </Position>
            <AltitudeMeters>835.5999755859375</AltitudeMeters>
            <DistanceMeters>16518.275597856</DistanceMeters>
          </Trackpoint>
          <Trackpoint>
            <Time>2022-08-27T00:19:46.000Z</Time>
            <Position>
              <LatitudeDegrees>50.17495441250503063201904296875</LatitudeDegrees>
              <LongitudeDegrees>17.01070611365139484405517578125</LongitudeDegrees>
            </Position>
            <AltitudeMeters>834.79998779296875</AltitudeMeters>
            <DistanceMeters>16525.352377064</DistanceMeters>
          </Trackpoint>
          <Trackpoint>
            <Time>2022-08-27T00:19:54.000Z</Time>
            <Position>
              <LatitudeDegrees>50.17497570253908634185791015625</LatitudeDegrees>
              <LongitudeDegrees>17.010691277682781219482421875</LongitudeDegrees>
            </Position>
            <AltitudeMeters>834.79998779296875</AltitudeMeters>
            <DistanceMeters>16527.947841767</DistanceMeters>
          </Trackpoint>
          <Trackpoint>
            <Time>2022-08-27T00:20:05.000Z</Time>
            <Position>
              <LatitudeDegrees>50.1750143431127071380615234375</LatitudeDegrees>
              <LongitudeDegrees>17.01066948473453521728515625</LongitudeDegrees>
            </Position>
            <AltitudeMeters>835.79998779296875</AltitudeMeters>
            <DistanceMeters>16532.52098697</DistanceMeters>
          </Trackpoint>
          <Trackpoint>
            <Time>2022-08-27T00:20:13.000Z</Time>
            <Position>
              <LatitudeDegrees>50.17504979856312274932861328125</LatitudeDegrees>
              <LongitudeDegrees>17.010663785040378570556640625</LongitudeDegrees>
            </Position>
            <AltitudeMeters>836.5999755859375</AltitudeMeters>
            <DistanceMeters>16536.488281166</DistanceMeters>
          </Trackpoint>
          <Trackpoint>
            <Time>2022-08-27T00:20:17.000Z</Time>
            <Position>
              <LatitudeDegrees>50.17506371252238750457763671875</LatitudeDegrees>
              <LongitudeDegrees>17.01066537760198116302490234375</LongitudeDegrees>
            </Position>
            <AltitudeMeters>836.79998779296875</AltitudeMeters>
            <DistanceMeters>16538.038119976</DistanceMeters>
          </Trackpoint>
          <Trackpoint>
            <Time>2022-08-27T00:20:28.000Z</Time>
            <Position>
              <LatitudeDegrees>50.1750703342258930206298828125</LatitudeDegrees>
              <LongitudeDegrees>17.01060033403337001800537109375</LongitudeDegrees>
            </Position>
            <AltitudeMeters>837.4000244140625</AltitudeMeters>
            <DistanceMeters>16542.732093401</DistanceMeters>
          </Trackpoint>
          <Trackpoint>
            <Time>2022-08-27T00:20:42.000Z</Time>
            <Position>
              <LatitudeDegrees>50.1750726811587810516357421875</LatitudeDegrees>
              <LongitudeDegrees>17.0105818100273609161376953125</LongitudeDegrees>
            </Position>
            <AltitudeMeters>837.5999755859375</AltitudeMeters>
            <DistanceMeters>16544.079329597</DistanceMeters>
          </Trackpoint>
          <Trackpoint>
            <Time>2022-08-27T00:20:57.000Z</Time>
            <Position>
              <LatitudeDegrees>50.17507963813841342926025390625</LatitudeDegrees>
              <LongitudeDegrees>17.01057032682001590728759765625</LongitudeDegrees>
            </Position>
            <AltitudeMeters>837.4000244140625</AltitudeMeters>
            <DistanceMeters>16545.203700844</DistanceMeters>
          </Trackpoint>
          <Trackpoint>
            <Time>2022-08-27T00:21:14.000Z</Time>
            <Position>
              <LatitudeDegrees>50.175079889595508575439453125</LatitudeDegrees>
              <LongitudeDegrees>17.010566890239715576171875</LongitudeDegrees>
            </Position>
            <AltitudeMeters>837.4000244140625</AltitudeMeters>
            <DistanceMeters>16545.455117898</DistanceMeters>
          </Trackpoint>
          <Trackpoint>
            <Time>2022-08-27T00:21:32.000Z</Time>
            <Position>
              <LatitudeDegrees>50.17508952878415584564208984375</LatitudeDegrees>
              <LongitudeDegrees>17.01056663878262042999267578125</LongitudeDegrees>
            </Position>
            <AltitudeMeters>837.4000244140625</AltitudeMeters>
            <DistanceMeters>16546.526014582</DistanceMeters>
          </Trackpoint>
          <Trackpoint>
            <Time>2022-08-27T00:21:46.000Z</Time>
            <Position>
              <LatitudeDegrees>50.17509640194475650787353515625</LatitudeDegrees>
              <LongitudeDegrees>17.01055641286075115203857421875</LongitudeDegrees>
            </Position>
            <AltitudeMeters>837.4000244140625</AltitudeMeters>
            <DistanceMeters>16547.575618949</DistanceMeters>
          </Trackpoint>
          <Trackpoint>
            <Time>2022-08-27T00:21:56.000Z</Time>
            <Position>
              <LatitudeDegrees>50.17512448132038116455078125</LatitudeDegrees>
              <LongitudeDegrees>17.0105154253542423248291015625</LongitudeDegrees>
            </Position>
            <AltitudeMeters>837.5999755859375</AltitudeMeters>
            <DistanceMeters>16551.852876818</DistanceMeters>
          </Trackpoint>
          <Trackpoint>
            <Time>2022-08-27T00:21:57.000Z</Time>
            <Position>
              <LatitudeDegrees>50.1751286722719669342041015625</LatitudeDegrees>
              <LongitudeDegrees>17.0105127431452274322509765625</LongitudeDegrees>
            </Position>
            <AltitudeMeters>837.79998779296875</AltitudeMeters>
            <DistanceMeters>16552.34665011</DistanceMeters>
          </Trackpoint>
          <Trackpoint>
            <Time>2022-08-27T00:22:09.000Z</Time>
            <Position>
              <LatitudeDegrees>50.1751672290265560150146484375</LatitudeDegrees>
              <LongitudeDegrees>17.010436467826366424560546875</LongitudeDegrees>
            </Position>
            <AltitudeMeters>838</AltitudeMeters>
            <DistanceMeters>16559.272526666</DistanceMeters>
          </Trackpoint>
          <Trackpoint>
            <Time>2022-08-27T00:22:21.000Z</Time>
            <Position>
              <LatitudeDegrees>50.1752029359340667724609375</LatitudeDegrees>
              <LongitudeDegrees>17.01033529825508594512939453125</LongitudeDegrees>
            </Position>
            <AltitudeMeters>837.79998779296875</AltitudeMeters>
            <DistanceMeters>16567.50646946</DistanceMeters>
          </Trackpoint>
          <Trackpoint>
            <Time>2022-08-27T00:22:33.000Z</Time>
            <Position>
              <LatitudeDegrees>50.17523487098515033721923828125</LatitudeDegrees>
              <LongitudeDegrees>17.01028903014957904815673828125</LongitudeDegrees>
            </Position>
            <AltitudeMeters>838</AltitudeMeters>
            <DistanceMeters>16572.355625991</DistanceMeters>
          </Trackpoint>
          <Trackpoint>
            <Time>2022-08-27T00:22:46.000Z</Time>
            <Position>
              <LatitudeDegrees>50.17525456845760345458984375</LatitudeDegrees>
              <LongitudeDegrees>17.01025483198463916778564453125</LongitudeDegrees>
            </Position>
            <AltitudeMeters>837.5999755859375</AltitudeMeters>
            <DistanceMeters>16575.633703319</DistanceMeters>
          </Trackpoint>
          <Trackpoint>
            <Time>2022-08-27T00:22:58.000Z</Time>
            <Position>
              <LatitudeDegrees>50.1752614416182041168212890625</LatitudeDegrees>
              <LongitudeDegrees>17.0102411694824695587158203125</LongitudeDegrees>
            </Position>
            <AltitudeMeters>837.20001220703125</AltitudeMeters>
            <DistanceMeters>16576.872700089</DistanceMeters>
          </Trackpoint>
          <Trackpoint>
            <Time>2022-08-27T00:23:07.000Z</Time>
            <Position>
              <LatitudeDegrees>50.17525993287563323974609375</LatitudeDegrees>
              <LongitudeDegrees>17.0102324523031711578369140625</LongitudeDegrees>
            </Position>
            <AltitudeMeters>837</AltitudeMeters>
            <DistanceMeters>16577.517202623</DistanceMeters>
          </Trackpoint>
          <Trackpoint>
            <Time>2022-08-27T00:23:16.000Z</Time>
            <Position>
              <LatitudeDegrees>50.175295807421207427978515625</LatitudeDegrees>
              <LongitudeDegrees>17.01020814478397369384765625</LongitudeDegrees>
            </Position>
            <AltitudeMeters>837</AltitudeMeters>
            <DistanceMeters>16581.869799592</DistanceMeters>
          </Trackpoint>
          <Trackpoint>
            <Time>2022-08-27T00:23:18.000Z</Time>
            <Position>
              <LatitudeDegrees>50.17530863173305988311767578125</LatitudeDegrees>
              <LongitudeDegrees>17.0101965777575969696044921875</LongitudeDegrees>
            </Position>
            <AltitudeMeters>837</AltitudeMeters>
            <DistanceMeters>16583.518451469</DistanceMeters>
          </Trackpoint>
          <Trackpoint>
            <Time>2022-08-27T00:23:27.000Z</Time>
            <Position>
              <LatitudeDegrees>50.17539597116410732269287109375</LatitudeDegrees>
              <LongitudeDegrees>17.01019381172955036163330078125</LongitudeDegrees>
            </Position>
            <AltitudeMeters>836</AltitudeMeters>
            <DistanceMeters>16593.24094293</DistanceMeters>
          </Trackpoint>
          <Trackpoint>
            <Time>2022-08-27T00:23:28.000Z</Time>
            <Position>
              <LatitudeDegrees>50.17541139386594295501708984375</LatitudeDegrees>
              <LongitudeDegrees>17.01019783504307270050048828125</LongitudeDegrees>
            </Position>
            <AltitudeMeters>835.79998779296875</AltitudeMeters>
            <DistanceMeters>16594.982811377</DistanceMeters>
          </Trackpoint>
          <Trackpoint>
            <Time>2022-08-27T00:23:38.000Z</Time>
            <Position>
              <LatitudeDegrees>50.17551985569298267364501953125</LatitudeDegrees>
              <LongitudeDegrees>17.0101674087345600128173828125</LongitudeDegrees>
            </Position>
            <AltitudeMeters>835</AltitudeMeters>
            <DistanceMeters>16607.248253625</DistanceMeters>
          </Trackpoint>
          <Trackpoint>
            <Time>2022-08-27T00:23:39.000Z</Time>
            <Position>
              <LatitudeDegrees>50.17552857287228107452392578125</LatitudeDegrees>
              <LongitudeDegrees>17.01016380451619625091552734375</LongitudeDegrees>
            </Position>
            <AltitudeMeters>834.79998779296875</AltitudeMeters>
            <DistanceMeters>16608.249422185</DistanceMeters>
          </Trackpoint>
          <Trackpoint>
            <Time>2022-08-27T00:23:47.000Z</Time>
            <Position>
              <LatitudeDegrees>50.17561306245625019073486328125</LatitudeDegrees>
              <LongitudeDegrees>17.01013849116861820220947265625</LongitudeDegrees>
            </Position>
            <AltitudeMeters>834</AltitudeMeters>
            <DistanceMeters>16617.824984634</DistanceMeters>
          </Trackpoint>
          <Trackpoint>
            <Time>2022-08-27T00:23:48.000Z</Time>
            <Position>
              <LatitudeDegrees>50.17562345601618289947509765625</LatitudeDegrees>
              <LongitudeDegrees>17.010127343237400054931640625</LongitudeDegrees>
            </Position>
            <AltitudeMeters>834</AltitudeMeters>
            <DistanceMeters>16619.231251586</DistanceMeters>
          </Trackpoint>
          <Trackpoint>
            <Time>2022-08-27T00:23:53.000Z</Time>
            <Position>
              <LatitudeDegrees>50.17567240633070468902587890625</LatitudeDegrees>
              <LongitudeDegrees>17.01008073985576629638671875</LongitudeDegrees>
            </Position>
            <AltitudeMeters>833.79998779296875</AltitudeMeters>
            <DistanceMeters>16625.612916319</DistanceMeters>
          </Trackpoint>
          <Trackpoint>
            <Time>2022-08-27T00:23:56.000Z</Time>
            <Position>
              <LatitudeDegrees>50.1756983064115047454833984375</LatitudeDegrees>
              <LongitudeDegrees>17.01006104238331317901611328125</LongitudeDegrees>
            </Position>
            <AltitudeMeters>833.5999755859375</AltitudeMeters>
            <DistanceMeters>16628.818571789</DistanceMeters>
          </Trackpoint>
          <Trackpoint>
            <Time>2022-08-27T00:24:05.000Z</Time>
            <Position>
              <LatitudeDegrees>50.175783298909664154052734375</LatitudeDegrees>
              <LongitudeDegrees>17.010003961622714996337890625</LongitudeDegrees>
            </Position>
            <AltitudeMeters>832.79998779296875</AltitudeMeters>
            <DistanceMeters>16639.116591879</DistanceMeters>
          </Trackpoint>
          <Trackpoint>
            <Time>2022-08-27T00:24:09.000Z</Time>
            <Position>
              <LatitudeDegrees>50.17581783235073089599609375</LatitudeDegrees>
              <LongitudeDegrees>17.0099746249616146087646484375</LongitudeDegrees>
            </Position>
            <AltitudeMeters>832.79998779296875</AltitudeMeters>
            <DistanceMeters>16643.491950385</DistanceMeters>
          </Trackpoint>
          <Trackpoint>
            <Time>2022-08-27T00:24:14.000Z</Time>
            <Position>
              <LatitudeDegrees>50.17586351372301578521728515625</LatitudeDegrees>
              <LongitudeDegrees>17.00993455946445465087890625</LongitudeDegrees>
            </Position>
            <AltitudeMeters>832.5999755859375</AltitudeMeters>
            <DistanceMeters>16649.323525463</DistanceMeters>
          </Trackpoint>
          <Trackpoint>
            <Time>2022-08-27T00:24:23.000Z</Time>
            <Position>
              <LatitudeDegrees>50.17593987286090850830078125</LatitudeDegrees>
              <LongitudeDegrees>17.00986306183040142059326171875</LongitudeDegrees>
            </Position>
            <AltitudeMeters>832</AltitudeMeters>
            <DistanceMeters>16659.233677399</DistanceMeters>
          </Trackpoint>
          <Trackpoint>
            <Time>2022-08-27T00:24:26.000Z</Time>
            <Position>
              <LatitudeDegrees>50.1759660243988037109375</LatitudeDegrees>
              <LongitudeDegrees>17.0098445378243923187255859375</LongitudeDegrees>
            </Position>
            <AltitudeMeters>831.79998779296875</AltitudeMeters>
            <DistanceMeters>16662.43087094</DistanceMeters>
          </Trackpoint>
          <Trackpoint>
            <Time>2022-08-27T00:24:32.000Z</Time>
            <Position>
              <LatitudeDegrees>50.17601924948394298553466796875</LatitudeDegrees>
              <LongitudeDegrees>17.00980489142239093780517578125</LongitudeDegrees>
            </Position>
            <AltitudeMeters>831.4000244140625</AltitudeMeters>
            <DistanceMeters>16668.995284454</DistanceMeters>
          </Trackpoint>
          <Trackpoint>
            <Time>2022-08-27T00:24:42.000Z</Time>
            <Position>
              <LatitudeDegrees>50.1761100254952907562255859375</LatitudeDegrees>
              <LongitudeDegrees>17.0097315497696399688720703125</LongitudeDegrees>
            </Position>
            <AltitudeMeters>830.79998779296875</AltitudeMeters>
            <DistanceMeters>16680.371534082</DistanceMeters>
          </Trackpoint>
          <Trackpoint>
            <Time>2022-08-27T00:24:43.000Z</Time>
            <Position>
              <LatitudeDegrees>50.17611899413168430328369140625</LatitudeDegrees>
              <LongitudeDegrees>17.00972442515194416046142578125</LongitudeDegrees>
            </Position>
            <AltitudeMeters>830.79998779296875</AltitudeMeters>
            <DistanceMeters>16681.49590533</DistanceMeters>
          </Trackpoint>
          <Trackpoint>
            <Time>2022-08-27T00:24:51.000Z</Time>
            <Position>
              <LatitudeDegrees>50.17620197497308254241943359375</LatitudeDegrees>
              <LongitudeDegrees>17.0096732117235660552978515625</LongitudeDegrees>
            </Position>
            <AltitudeMeters>830.20001220703125</AltitudeMeters>
            <DistanceMeters>16691.426992628</DistanceMeters>
          </Trackpoint>
          <Trackpoint>
            <Time>2022-08-27T00:24:56.000Z</Time>
            <Position>
              <LatitudeDegrees>50.17625679261982440948486328125</LatitudeDegrees>
              <LongitudeDegrees>17.009635157883167266845703125</LongitudeDegrees>
            </Position>
            <AltitudeMeters>829.79998779296875</AltitudeMeters>
            <DistanceMeters>16698.103929605</DistanceMeters>
          </Trackpoint>
          <Trackpoint>
            <Time>2022-08-27T00:25:00.000Z</Time>
            <Position>
              <LatitudeDegrees>50.17629199661314487457275390625</LatitudeDegrees>
              <LongitudeDegrees>17.00960841961205005645751953125</LongitudeDegrees>
            </Position>
            <AltitudeMeters>829.5999755859375</AltitudeMeters>
            <DistanceMeters>16702.461710091</DistanceMeters>
          </Trackpoint>
          <Trackpoint>
            <Time>2022-08-27T00:25:07.000Z</Time>
            <Position>
              <LatitudeDegrees>50.17635670490562915802001953125</LatitudeDegrees>
              <LongitudeDegrees>17.00957958586513996124267578125</LongitudeDegrees>
            </Position>
            <AltitudeMeters>829</AltitudeMeters>
            <DistanceMeters>16709.951358606</DistanceMeters>
          </Trackpoint>
          <Trackpoint>
            <Time>2022-08-27T00:25:09.000Z</Time>
            <Position>
              <LatitudeDegrees>50.17637698911130428314208984375</LatitudeDegrees>
              <LongitudeDegrees>17.00957589782774448394775390625</LongitudeDegrees>
            </Position>
            <AltitudeMeters>828.5999755859375</AltitudeMeters>
            <DistanceMeters>16712.222079559</DistanceMeters>
          </Trackpoint>
          <Trackpoint>
            <Time>2022-08-27T00:25:16.000Z</Time>
            <Position>
              <LatitudeDegrees>50.176444463431835174560546875</LatitudeDegrees>
              <LongitudeDegrees>17.00957019813358783721923828125</LongitudeDegrees>
            </Position>
            <AltitudeMeters>828</AltitudeMeters>
            <DistanceMeters>16719.743010276</DistanceMeters>
          </Trackpoint>
          <Trackpoint>
            <Time>2022-08-27T00:25:24.000Z</Time>
            <Position>
              <LatitudeDegrees>50.176514871418476104736328125</LatitudeDegrees>
              <LongitudeDegrees>17.00957321561872959136962890625</LongitudeDegrees>
            </Position>
            <AltitudeMeters>827.79998779296875</AltitudeMeters>
            <DistanceMeters>16727.58257023</DistanceMeters>
          </Trackpoint>
          <Trackpoint>
            <Time>2022-08-27T00:25:30.000Z</Time>
            <Position>
              <LatitudeDegrees>50.1765197329223155975341796875</LatitudeDegrees>
              <LongitudeDegrees>17.00956332497298717498779296875</LongitudeDegrees>
            </Position>
            <AltitudeMeters>827.5999755859375</AltitudeMeters>
            <DistanceMeters>16728.473999828</DistanceMeters>
          </Trackpoint>
          <Trackpoint>
            <Time>2022-08-27T00:25:33.000Z</Time>
            <Position>
              <LatitudeDegrees>50.176522918045520782470703125</LatitudeDegrees>
              <LongitudeDegrees>17.0095642469823360443115234375</LongitudeDegrees>
            </Position>
            <AltitudeMeters>827.5999755859375</AltitudeMeters>
            <DistanceMeters>16728.84203671</DistanceMeters>
          </Trackpoint>
          <Trackpoint>
            <Time>2022-08-27T00:25:40.000Z</Time>
            <Position>
              <LatitudeDegrees>50.176569856703281402587890625</LatitudeDegrees>
              <LongitudeDegrees>17.00958511792123317718505859375</LongitudeDegrees>
            </Position>
            <AltitudeMeters>827.5999755859375</AltitudeMeters>
            <DistanceMeters>16734.274374127</DistanceMeters>
          </Trackpoint>
          <Trackpoint>
            <Time>2022-08-27T00:25:47.000Z</Time>
            <Position>
              <LatitudeDegrees>50.1766256801784038543701171875</LatitudeDegrees>
              <LongitudeDegrees>17.00961847789585590362548828125</LongitudeDegrees>
            </Position>
            <AltitudeMeters>827.79998779296875</AltitudeMeters>
            <DistanceMeters>16740.927601519</DistanceMeters>
          </Trackpoint>
          <Trackpoint>
            <Time>2022-08-27T00:25:57.000Z</Time>
            <Position>
              <LatitudeDegrees>50.1766900531947612762451171875</LatitudeDegrees>
              <LongitudeDegrees>17.0096080005168914794921875</LongitudeDegrees>
            </Position>
            <AltitudeMeters>827.79998779296875</AltitudeMeters>
            <DistanceMeters>16748.131478901</DistanceMeters>
          </Trackpoint>
          <Trackpoint>
            <Time>2022-08-27T00:26:08.000Z</Time>
            <Position>
              <LatitudeDegrees>50.17674344591796398162841796875</LatitudeDegrees>
              <LongitudeDegrees>17.009549997746944427490234375</LongitudeDegrees>
            </Position>
            <AltitudeMeters>827</AltitudeMeters>
            <DistanceMeters>16755.370992951</DistanceMeters>
          </Trackpoint>
          <Trackpoint>
            <Time>2022-08-27T00:26:12.000Z</Time>
            <Position>
              <LatitudeDegrees>50.1767505705356597900390625</LatitudeDegrees>
              <LongitudeDegrees>17.00954974628984928131103515625</LongitudeDegrees>
            </Position>
            <AltitudeMeters>826.5999755859375</AltitudeMeters>
            <DistanceMeters>16756.160344124</DistanceMeters>
          </Trackpoint>
          <Trackpoint>
            <Time>2022-08-27T00:26:17.000Z</Time>
            <Position>
              <LatitudeDegrees>50.176773034036159515380859375</LatitudeDegrees>
              <LongitudeDegrees>17.0095444656908512115478515625</LongitudeDegrees>
            </Position>
            <AltitudeMeters>826.20001220703125</AltitudeMeters>
            <DistanceMeters>16758.688840539</DistanceMeters>
          </Trackpoint>
          <Trackpoint>
            <Time>2022-08-27T00:26:28.000Z</Time>
            <Position>
              <LatitudeDegrees>50.1768364012241363525390625</LatitudeDegrees>
              <LongitudeDegrees>17.00951202772557735443115234375</LongitudeDegrees>
            </Position>
            <AltitudeMeters>825.5999755859375</AltitudeMeters>
            <DistanceMeters>16766.11066419</DistanceMeters>
          </Trackpoint>
          <Trackpoint>
            <Time>2022-08-27T00:26:31.000Z</Time>
            <Position>
              <LatitudeDegrees>50.1768570207059383392333984375</LatitudeDegrees>
              <LongitudeDegrees>17.0095018856227397918701171875</LongitudeDegrees>
            </Position>
            <AltitudeMeters>825.5999755859375</AltitudeMeters>
            <DistanceMeters>16768.518424369</DistanceMeters>
          </Trackpoint>
          <Trackpoint>
            <Time>2022-08-27T00:26:39.000Z</Time>
            <Position>
              <LatitudeDegrees>50.17690387554466724395751953125</LatitudeDegrees>
              <LongitudeDegrees>17.009458132088184356689453125</LongitudeDegrees>
            </Position>
            <AltitudeMeters>824.5999755859375</AltitudeMeters>
            <DistanceMeters>16774.594935093</DistanceMeters>
          </Trackpoint>
          <Trackpoint>
            <Time>2022-08-27T00:26:46.000Z</Time>
            <Position>
              <LatitudeDegrees>50.17695902846753597259521484375</LatitudeDegrees>
              <LongitudeDegrees>17.00940205715596675872802734375</LongitudeDegrees>
            </Position>
            <AltitudeMeters>823.4000244140625</AltitudeMeters>
            <DistanceMeters>16781.920009443</DistanceMeters>
          </Trackpoint>
          <Trackpoint>
            <Time>2022-08-27T00:26:51.000Z</Time>
            <Position>
              <LatitudeDegrees>50.176998339593410491943359375</LatitudeDegrees>
              <LongitudeDegrees>17.00937129557132720947265625</LongitudeDegrees>
            </Position>
            <AltitudeMeters>822.5999755859375</AltitudeMeters>
            <DistanceMeters>16786.81365458</DistanceMeters>
          </Trackpoint>
          <Trackpoint>
            <Time>2022-08-27T00:26:53.000Z</Time>
            <Position>
              <LatitudeDegrees>50.17701208591461181640625</LatitudeDegrees>
              <LongitudeDegrees>17.00935998000204563140869140625</LongitudeDegrees>
            </Position>
            <AltitudeMeters>822.4000244140625</AltitudeMeters>
            <DistanceMeters>16788.545123719</DistanceMeters>
          </Trackpoint>
          <Trackpoint>
            <Time>2022-08-27T00:27:00.000Z</Time>
            <Position>
              <LatitudeDegrees>50.17705994658172130584716796875</LatitudeDegrees>
              <LongitudeDegrees>17.00932142324745655059814453125</LongitudeDegrees>
            </Position>
            <AltitudeMeters>821.79998779296875</AltitudeMeters>
            <DistanceMeters>16794.538590503</DistanceMeters>
          </Trackpoint>
          <Trackpoint>
            <Time>2022-08-27T00:27:04.000Z</Time>
            <Position>
              <LatitudeDegrees>50.17708676867187023162841796875</LatitudeDegrees>
              <LongitudeDegrees>17.009298540651798248291015625</LongitudeDegrees>
            </Position>
            <AltitudeMeters>821.4000244140625</AltitudeMeters>
            <DistanceMeters>16797.939697371</DistanceMeters>
          </Trackpoint>
          <Trackpoint>
            <Time>2022-08-27T00:27:07.000Z</Time>
            <Position>
              <LatitudeDegrees>50.17710152082145214080810546875</LatitudeDegrees>
              <LongitudeDegrees>17.00927197001874446868896484375</LongitudeDegrees>
            </Position>
            <AltitudeMeters>821.20001220703125</AltitudeMeters>
            <DistanceMeters>16800.446674276</DistanceMeters>
          </Trackpoint>
          <Trackpoint>
            <Time>2022-08-27T00:27:15.000Z</Time>
            <Position>
              <LatitudeDegrees>50.17715700902044773101806640625</LatitudeDegrees>
              <LongitudeDegrees>17.0092209242284297943115234375</LongitudeDegrees>
            </Position>
            <AltitudeMeters>820.4000244140625</AltitudeMeters>
            <DistanceMeters>16807.61473782</DistanceMeters>
          </Trackpoint>
          <Trackpoint>
            <Time>2022-08-27T00:27:24.000Z</Time>
            <Position>
              <LatitudeDegrees>50.17722154967486858367919921875</LatitudeDegrees>
              <LongitudeDegrees>17.009173817932605743408203125</LongitudeDegrees>
            </Position>
            <AltitudeMeters>819.5999755859375</AltitudeMeters>
            <DistanceMeters>16815.544772647</DistanceMeters>
          </Trackpoint>
          <Trackpoint>
            <Time>2022-08-27T00:27:28.000Z</Time>
            <Position>
              <LatitudeDegrees>50.17725138925015926361083984375</LatitudeDegrees>
              <LongitudeDegrees>17.00915009714663028717041015625</LongitudeDegrees>
            </Position>
            <AltitudeMeters>819.4000244140625</AltitudeMeters>
            <DistanceMeters>16819.271467908</DistanceMeters>
          </Trackpoint>
          <Trackpoint>
            <Time>2022-08-27T00:27:35.000Z</Time>
            <Position>
              <LatitudeDegrees>50.1772962324321269989013671875</LatitudeDegrees>
              <LongitudeDegrees>17.00911841355264186859130859375</LongitudeDegrees>
            </Position>
            <AltitudeMeters>818.5999755859375</AltitudeMeters>
            <DistanceMeters>16824.750151518</DistanceMeters>
          </Trackpoint>
          <Trackpoint>
            <Time>2022-08-27T00:27:40.000Z</Time>
            <Position>
              <LatitudeDegrees>50.1773341186344623565673828125</LatitudeDegrees>
              <LongitudeDegrees>17.0090754143893718719482421875</LongitudeDegrees>
            </Position>
            <AltitudeMeters>818.4000244140625</AltitudeMeters>
            <DistanceMeters>16829.962780415</DistanceMeters>
          </Trackpoint>
          <Trackpoint>
            <Time>2022-08-27T00:27:43.000Z</Time>
            <Position>
              <LatitudeDegrees>50.17735884524881839752197265625</LatitudeDegrees>
              <LongitudeDegrees>17.00904062949120998382568359375</LongitudeDegrees>
            </Position>
            <AltitudeMeters>818</AltitudeMeters>
            <DistanceMeters>16833.667603784</DistanceMeters>
          </Trackpoint>
          <Trackpoint>
            <Time>2022-08-27T00:27:45.000Z</Time>
            <Position>
              <LatitudeDegrees>50.1773773692548274993896484375</LatitudeDegrees>
              <LongitudeDegrees>17.00901950709521770477294921875</LongitudeDegrees>
            </Position>
            <AltitudeMeters>817.79998779296875</AltitudeMeters>
            <DistanceMeters>16836.220977081</DistanceMeters>
          </Trackpoint>
          <Trackpoint>
            <Time>2022-08-27T00:27:49.000Z</Time>
            <Position>
              <LatitudeDegrees>50.17740477807819843292236328125</LatitudeDegrees>
              <LongitudeDegrees>17.008972652256488800048828125</LongitudeDegrees>
            </Position>
            <AltitudeMeters>817.4000244140625</AltitudeMeters>
            <DistanceMeters>16840.744488242</DistanceMeters>
          </Trackpoint>
          <Trackpoint>
            <Time>2022-08-27T00:27:51.000Z</Time>
            <Position>
              <LatitudeDegrees>50.1774233020842075347900390625</LatitudeDegrees>
              <LongitudeDegrees>17.00895823538303375244140625</LongitudeDegrees>
            </Position>
            <AltitudeMeters>817.20001220703125</AltitudeMeters>
            <DistanceMeters>16843.048763605</DistanceMeters>
          </Trackpoint>
          <Trackpoint>
            <Time>2022-08-27T00:27:52.000Z</Time>
            <Position>
              <LatitudeDegrees>50.17743051052093505859375</LatitudeDegrees>
              <LongitudeDegrees>17.008952200412750244140625</LongitudeDegrees>
            </Position>
            <AltitudeMeters>817.20001220703125</AltitudeMeters>
            <DistanceMeters>16843.950266173</DistanceMeters>
          </Trackpoint>
          <Trackpoint>
            <Time>2022-08-27T00:27:59.000Z</Time>
            <Position>
              <LatitudeDegrees>50.177488513290882110595703125</LatitudeDegrees>
              <LongitudeDegrees>17.008909620344638824462890625</LongitudeDegrees>
            </Position>
            <AltitudeMeters>816.4000244140625</AltitudeMeters>
            <DistanceMeters>16851.083602052</DistanceMeters>
          </Trackpoint>
          <Trackpoint>
            <Time>2022-08-27T00:28:02.000Z</Time>
            <Position>
              <LatitudeDegrees>50.1775074563920497894287109375</LatitudeDegrees>
              <LongitudeDegrees>17.00889109633862972259521484375</LongitudeDegrees>
            </Position>
            <AltitudeMeters>816.20001220703125</AltitudeMeters>
            <DistanceMeters>16853.568873121</DistanceMeters>
          </Trackpoint>
          <Trackpoint>
            <Time>2022-08-27T00:28:06.000Z</Time>
            <Position>
              <LatitudeDegrees>50.17751592211425304412841796875</LatitudeDegrees>
              <LongitudeDegrees>17.00888313353061676025390625</LongitudeDegrees>
            </Position>
            <AltitudeMeters>816</AltitudeMeters>
            <DistanceMeters>16854.668886868</DistanceMeters>
          </Trackpoint>
          <Trackpoint>
            <Time>2022-08-27T00:28:13.000Z</Time>
            <Position>
              <LatitudeDegrees>50.1775604300200939178466796875</LatitudeDegrees>
              <LongitudeDegrees>17.00882907025516033172607421875</LongitudeDegrees>
            </Position>
            <AltitudeMeters>815.4000244140625</AltitudeMeters>
            <DistanceMeters>16860.944967926</DistanceMeters>
          </Trackpoint>
          <Trackpoint>
            <Time>2022-08-27T00:28:14.000Z</Time>
            <Position>
              <LatitudeDegrees>50.17756621353328227996826171875</LatitudeDegrees>
              <LongitudeDegrees>17.00881599448621273040771484375</LongitudeDegrees>
            </Position>
            <AltitudeMeters>815.20001220703125</AltitudeMeters>
            <DistanceMeters>16862.077341917</DistanceMeters>
          </Trackpoint>
          <Trackpoint>
            <Time>2022-08-27T00:28:17.000Z</Time>
            <Position>
              <LatitudeDegrees>50.1775825582444667816162109375</LatitudeDegrees>
              <LongitudeDegrees>17.0087845623493194580078125</LongitudeDegrees>
            </Position>
            <AltitudeMeters>815.20001220703125</AltitudeMeters>
            <DistanceMeters>16864.96277611</DistanceMeters>
          </Trackpoint>
          <Trackpoint>
            <Time>2022-08-27T00:28:19.000Z</Time>
            <Position>
              <LatitudeDegrees>50.17759806476533412933349609375</LatitudeDegrees>
              <LongitudeDegrees>17.00877089984714984893798828125</LongitudeDegrees>
            </Position>
            <AltitudeMeters>815.20001220703125</AltitudeMeters>
            <DistanceMeters>16866.944715376</DistanceMeters>
          </Trackpoint>
          <Trackpoint>
            <Time>2022-08-27T00:28:22.000Z</Time>
            <Position>
              <LatitudeDegrees>50.1776231266558170318603515625</LatitudeDegrees>
              <LongitudeDegrees>17.00875145383179187774658203125</LongitudeDegrees>
            </Position>
            <AltitudeMeters>814.79998779296875</AltitudeMeters>
            <DistanceMeters>16870.058925083</DistanceMeters>
          </Trackpoint>
          <Trackpoint>
            <Time>2022-08-27T00:28:28.000Z</Time>
            <Position>
              <LatitudeDegrees>50.177674256265163421630859375</LatitudeDegrees>
              <LongitudeDegrees>17.00871742330491542816162109375</LongitudeDegrees>
            </Position>
            <AltitudeMeters>814</AltitudeMeters>
            <DistanceMeters>16876.24515689</DistanceMeters>
          </Trackpoint>
          <Trackpoint>
            <Time>2022-08-27T00:28:32.000Z</Time>
            <Position>
              <LatitudeDegrees>50.1777096278965473175048828125</LatitudeDegrees>
              <LongitudeDegrees>17.00869412161409854888916015625</LongitudeDegrees>
            </Position>
            <AltitudeMeters>813.79998779296875</AltitudeMeters>
            <DistanceMeters>16880.518190305</DistanceMeters>
          </Trackpoint>
          <Trackpoint>
            <Time>2022-08-27T00:28:37.000Z</Time>
            <Position>
              <LatitudeDegrees>50.17775061540305614471435546875</LatitudeDegrees>
              <LongitudeDegrees>17.00867568142712116241455078125</LongitudeDegrees>
            </Position>
            <AltitudeMeters>813.20001220703125</AltitudeMeters>
            <DistanceMeters>16885.265723434</DistanceMeters>
          </Trackpoint>
          <Trackpoint>
            <Time>2022-08-27T00:28:42.000Z</Time>
            <Position>
              <LatitudeDegrees>50.1777931116521358489990234375</LatitudeDegrees>
              <LongitudeDegrees>17.0086476020514965057373046875</LongitudeDegrees>
            </Position>
            <AltitudeMeters>812.4000244140625</AltitudeMeters>
            <DistanceMeters>16890.402442559</DistanceMeters>
          </Trackpoint>
          <Trackpoint>
            <Time>2022-08-27T00:28:45.000Z</Time>
            <Position>
              <LatitudeDegrees>50.17781599424779415130615234375</LatitudeDegrees>
              <LongitudeDegrees>17.00863058678805828094482421875</LongitudeDegrees>
            </Position>
            <AltitudeMeters>812</AltitudeMeters>
            <DistanceMeters>16893.22299168</DistanceMeters>
          </Trackpoint>
          <Trackpoint>
            <Time>2022-08-27T00:28:51.000Z</Time>
            <Position>
              <LatitudeDegrees>50.177868045866489410400390625</LatitudeDegrees>
              <LongitudeDegrees>17.00860778801143169403076171875</LongitudeDegrees>
            </Position>
            <AltitudeMeters>811.4000244140625</AltitudeMeters>
            <DistanceMeters>16899.240516631</DistanceMeters>
          </Trackpoint>
          <Trackpoint>
            <Time>2022-08-27T00:29:00.000Z</Time>
            <Position>
              <LatitudeDegrees>50.177923031151294708251953125</LatitudeDegrees>
              <LongitudeDegrees>17.0085929520428180694580078125</LongitudeDegrees>
            </Position>
            <AltitudeMeters>811</AltitudeMeters>
            <DistanceMeters>16905.45151386</DistanceMeters>
          </Trackpoint>
          <Trackpoint>
            <Time>2022-08-27T00:29:01.000Z</Time>
            <Position>
              <LatitudeDegrees>50.177930407226085662841796875</LatitudeDegrees>
              <LongitudeDegrees>17.00859337113797664642333984375</LongitudeDegrees>
            </Position>
            <AltitudeMeters>811</AltitudeMeters>
            <DistanceMeters>16906.274469347</DistanceMeters>
          </Trackpoint>
          <Trackpoint>
            <Time>2022-08-27T00:29:11.000Z</Time>
            <Position>
              <LatitudeDegrees>50.1779956184327602386474609375</LatitudeDegrees>
              <LongitudeDegrees>17.00859270058572292327880859375</LongitudeDegrees>
            </Position>
            <AltitudeMeters>810.4000244140625</AltitudeMeters>
            <DistanceMeters>16913.532669259</DistanceMeters>
          </Trackpoint>
          <Trackpoint>
            <Time>2022-08-27T00:29:18.000Z</Time>
            <Position>
              <LatitudeDegrees>50.17801263369619846343994140625</LatitudeDegrees>
              <LongitudeDegrees>17.008550874888896942138671875</LongitudeDegrees>
            </Position>
            <AltitudeMeters>810</AltitudeMeters>
            <DistanceMeters>16917.065312129</DistanceMeters>
          </Trackpoint>
          <Trackpoint>
            <Time>2022-08-27T00:29:30.000Z</Time>
            <Position>
              <LatitudeDegrees>50.17799050547182559967041015625</LatitudeDegrees>
              <LongitudeDegrees>17.00842447578907012939453125</LongitudeDegrees>
            </Position>
            <AltitudeMeters>809.20001220703125</AltitudeMeters>
            <DistanceMeters>16926.405041164</DistanceMeters>
          </Trackpoint>
          <Trackpoint>
            <Time>2022-08-27T00:29:34.000Z</Time>
            <Position>
              <LatitudeDegrees>50.17798346467316150665283203125</LatitudeDegrees>
              <LongitudeDegrees>17.00838935561478137969970703125</LongitudeDegrees>
            </Position>
            <AltitudeMeters>809</AltitudeMeters>
            <DistanceMeters>16929.028191608</DistanceMeters>
          </Trackpoint>
          <Trackpoint>
            <Time>2022-08-27T00:29:38.000Z</Time>
            <Position>
              <LatitudeDegrees>50.17797575332224369049072265625</LatitudeDegrees>
              <LongitudeDegrees>17.00836236588656902313232421875</LongitudeDegrees>
            </Position>
            <AltitudeMeters>808.79998779296875</AltitudeMeters>
            <DistanceMeters>16931.135986097</DistanceMeters>
          </Trackpoint>
          <Trackpoint>
            <Time>2022-08-27T00:29:45.000Z</Time>
            <Position>
              <LatitudeDegrees>50.1779768429696559906005859375</LatitudeDegrees>
              <LongitudeDegrees>17.00830570422112941741943359375</LongitudeDegrees>
            </Position>
            <AltitudeMeters>808.20001220703125</AltitudeMeters>
            <DistanceMeters>16935.176577417</DistanceMeters>
          </Trackpoint>
          <Trackpoint>
            <Time>2022-08-27T00:29:49.000Z</Time>
            <Position>
              <LatitudeDegrees>50.17797793261706829071044921875</LatitudeDegrees>
              <LongitudeDegrees>17.00828994624316692352294921875</LongitudeDegrees>
            </Position>
            <AltitudeMeters>808</AltitudeMeters>
            <DistanceMeters>16936.308951408</DistanceMeters>
          </Trackpoint>
          <Trackpoint>
            <Time>2022-08-27T00:29:52.000Z</Time>
            <Position>
              <LatitudeDegrees>50.17797659151256084442138671875</LatitudeDegrees>
              <LongitudeDegrees>17.00825306586921215057373046875</LongitudeDegrees>
            </Position>
            <AltitudeMeters>807.79998779296875</AltitudeMeters>
            <DistanceMeters>16938.942408966</DistanceMeters>
          </Trackpoint>
          <Trackpoint>
            <Time>2022-08-27T00:29:54.000Z</Time>
            <Position>
              <LatitudeDegrees>50.177972652018070220947265625</LatitudeDegrees>
              <LongitudeDegrees>17.00822599232196807861328125</LongitudeDegrees>
            </Position>
            <AltitudeMeters>807.79998779296875</AltitudeMeters>
            <DistanceMeters>16940.9197868</DistanceMeters>
          </Trackpoint>
          <Trackpoint>
            <Time>2022-08-27T00:30:00.000Z</Time>
            <Position>
              <LatitudeDegrees>50.17796770669519901275634765625</LatitudeDegrees>
              <LongitudeDegrees>17.008131444454193115234375</LongitudeDegrees>
            </Position>
            <AltitudeMeters>807.5999755859375</AltitudeMeters>
            <DistanceMeters>16947.682057655</DistanceMeters>
          </Trackpoint>
          <Trackpoint>
            <Time>2022-08-27T00:30:08.000Z</Time>
            <Position>
              <LatitudeDegrees>50.1779533736407756805419921875</LatitudeDegrees>
              <LongitudeDegrees>17.0080266706645488739013671875</LongitudeDegrees>
            </Position>
            <AltitudeMeters>807</AltitudeMeters>
            <DistanceMeters>16955.318564296</DistanceMeters>
          </Trackpoint>
          <Trackpoint>
            <Time>2022-08-27T00:30:09.000Z</Time>
            <Position>
              <LatitudeDegrees>50.1779500208795070648193359375</LatitudeDegrees>
              <LongitudeDegrees>17.008013762533664703369140625</LongitudeDegrees>
            </Position>
            <AltitudeMeters>806.79998779296875</AltitudeMeters>
            <DistanceMeters>16956.315212884</DistanceMeters>
          </Trackpoint>
          <Trackpoint>
            <Time>2022-08-27T00:30:15.000Z</Time>
            <Position>
              <LatitudeDegrees>50.17793132923543453216552734375</LatitudeDegrees>
              <LongitudeDegrees>17.00794880278408527374267578125</LongitudeDegrees>
            </Position>
            <AltitudeMeters>806.4000244140625</AltitudeMeters>
            <DistanceMeters>16961.390920529</DistanceMeters>
          </Trackpoint>
          <Trackpoint>
            <Time>2022-08-27T00:30:25.000Z</Time>
            <Position>
              <LatitudeDegrees>50.1778950355947017669677734375</LatitudeDegrees>
              <LongitudeDegrees>17.00782944448292255401611328125</LongitudeDegrees>
            </Position>
            <AltitudeMeters>806</AltitudeMeters>
            <DistanceMeters>16970.809117857</DistanceMeters>
          </Trackpoint>
          <Trackpoint>
            <Time>2022-08-27T00:30:29.000Z</Time>
            <Position>
              <LatitudeDegrees>50.17789578996598720550537109375</LatitudeDegrees>
              <LongitudeDegrees>17.00782441534101963043212890625</LongitudeDegrees>
            </Position>
            <AltitudeMeters>805.79998779296875</AltitudeMeters>
            <DistanceMeters>16971.189224714</DistanceMeters>
          </Trackpoint>
          <Trackpoint>
            <Time>2022-08-27T00:30:32.000Z</Time>
            <Position>
              <LatitudeDegrees>50.177902244031429290771484375</LatitudeDegrees>
              <LongitudeDegrees>17.0078275166451930999755859375</LongitudeDegrees>
            </Position>
            <AltitudeMeters>805.5999755859375</AltitudeMeters>
            <DistanceMeters>16971.937465811</DistanceMeters>
          </Trackpoint>
          <Trackpoint>
            <Time>2022-08-27T00:30:40.000Z</Time>
            <Position>
              <LatitudeDegrees>50.1779066026210784912109375</LatitudeDegrees>
              <LongitudeDegrees>17.0078234933316707611083984375</LongitudeDegrees>
            </Position>
            <AltitudeMeters>805.5999755859375</AltitudeMeters>
            <DistanceMeters>16972.491562012</DistanceMeters>
          </Trackpoint>
          <Trackpoint>
            <Time>2022-08-27T00:30:46.000Z</Time>
            <Position>
              <LatitudeDegrees>50.17791976220905780792236328125</LatitudeDegrees>
              <LongitudeDegrees>17.00781754218041896820068359375</LongitudeDegrees>
            </Position>
            <AltitudeMeters>805.5999755859375</AltitudeMeters>
            <DistanceMeters>16974.011989441</DistanceMeters>
          </Trackpoint>
          <Trackpoint>
            <Time>2022-08-27T00:30:49.000Z</Time>
            <Position>
              <LatitudeDegrees>50.17794641666114330291748046875</LatitudeDegrees>
              <LongitudeDegrees>17.0078120939433574676513671875</LongitudeDegrees>
            </Position>
            <AltitudeMeters>805.4000244140625</AltitudeMeters>
            <DistanceMeters>16977.00495383</DistanceMeters>
          </Trackpoint>
          <Trackpoint>
            <Time>2022-08-27T00:30:57.000Z</Time>
            <Position>
              <LatitudeDegrees>50.1780241169035434722900390625</LatitudeDegrees>
              <LongitudeDegrees>17.00781184248626232147216796875</LongitudeDegrees>
            </Position>
            <AltitudeMeters>805.4000244140625</AltitudeMeters>
            <DistanceMeters>16985.652906947</DistanceMeters>
          </Trackpoint>
          <Trackpoint>
            <Time>2022-08-27T00:31:07.000Z</Time>
            <Position>
              <LatitudeDegrees>50.17811304889619350433349609375</LatitudeDegrees>
              <LongitudeDegrees>17.0078462921082973480224609375</LongitudeDegrees>
            </Position>
            <AltitudeMeters>804.79998779296875</AltitudeMeters>
            <DistanceMeters>16995.850916086</DistanceMeters>
          </Trackpoint>
          <Trackpoint>
            <Time>2022-08-27T00:31:15.000Z</Time>
            <Position>
              <LatitudeDegrees>50.178172476589679718017578125</LatitudeDegrees>
              <LongitudeDegrees>17.00788929127156734466552734375</LongitudeDegrees>
            </Position>
            <AltitudeMeters>804.20001220703125</AltitudeMeters>
            <DistanceMeters>17003.140152658</DistanceMeters>
          </Trackpoint>
          <Trackpoint>
            <Time>2022-08-27T00:31:21.000Z</Time>
            <Position>
              <LatitudeDegrees>50.17822586931288242340087890625</LatitudeDegrees>
              <LongitudeDegrees>17.00790949165821075439453125</LongitudeDegrees>
            </Position>
            <AltitudeMeters>803.79998779296875</AltitudeMeters>
            <DistanceMeters>17009.25517895</DistanceMeters>
          </Trackpoint>
          <Trackpoint>
            <Time>2022-08-27T00:31:23.000Z</Time>
            <Position>
              <LatitudeDegrees>50.178240202367305755615234375</LatitudeDegrees>
              <LongitudeDegrees>17.00791192241013050079345703125</LongitudeDegrees>
            </Position>
            <AltitudeMeters>803.5999755859375</AltitudeMeters>
            <DistanceMeters>17010.862226511</DistanceMeters>
          </Trackpoint>
          <Trackpoint>
            <Time>2022-08-27T00:31:30.000Z</Time>
            <Position>
              <LatitudeDegrees>50.17828085459768772125244140625</LatitudeDegrees>
              <LongitudeDegrees>17.00791510753333568572998046875</LongitudeDegrees>
            </Position>
            <AltitudeMeters>802.79998779296875</AltitudeMeters>
            <DistanceMeters>17015.392719173</DistanceMeters>
          </Trackpoint>
          <Trackpoint>
            <Time>2022-08-27T00:31:37.000Z</Time>
            <Position>
              <LatitudeDegrees>50.178317986428737640380859375</LatitudeDegrees>
              <LongitudeDegrees>17.007931284606456756591796875</LongitudeDegrees>
            </Position>
            <AltitudeMeters>801.5999755859375</AltitudeMeters>
            <DistanceMeters>17019.682625441</DistanceMeters>
          </Trackpoint>
          <Trackpoint>
            <Time>2022-08-27T00:31:45.000Z</Time>
            <Position>
              <LatitudeDegrees>50.17835143022239208221435546875</LatitudeDegrees>
              <LongitudeDegrees>17.00791946612298488616943359375</LongitudeDegrees>
            </Position>
            <AltitudeMeters>800.5999755859375</AltitudeMeters>
            <DistanceMeters>17023.497921397</DistanceMeters>
          </Trackpoint>
          <Trackpoint>
            <Time>2022-08-27T00:31:53.000Z</Time>
            <Position>
              <LatitudeDegrees>50.17836551181972026824951171875</LatitudeDegrees>
              <LongitudeDegrees>17.007920555770397186279296875</LongitudeDegrees>
            </Position>
            <AltitudeMeters>799.5999755859375</AltitudeMeters>
            <DistanceMeters>17025.065142119</DistanceMeters>
          </Trackpoint>
          <Trackpoint>
            <Time>2022-08-27T00:31:54.000Z</Time>
            <Position>
              <LatitudeDegrees>50.17837129533290863037109375</LatitudeDegrees>
              <LongitudeDegrees>17.007921896874904632568359375</LongitudeDegrees>
            </Position>
            <AltitudeMeters>799.5999755859375</AltitudeMeters>
            <DistanceMeters>17025.709644653</DistanceMeters>
          </Trackpoint>
          <Trackpoint>
            <Time>2022-08-27T00:32:02.000Z</Time>
            <Position>
              <LatitudeDegrees>50.17842150293290615081787109375</LatitudeDegrees>
              <LongitudeDegrees>17.0079301111400127410888671875</LongitudeDegrees>
            </Position>
            <AltitudeMeters>799</AltitudeMeters>
            <DistanceMeters>17031.328287483</DistanceMeters>
          </Trackpoint>
          <Trackpoint>
            <Time>2022-08-27T00:32:10.000Z</Time>
            <Position>
              <LatitudeDegrees>50.17847548238933086395263671875</LatitudeDegrees>
              <LongitudeDegrees>17.00792566873133182525634765625</LongitudeDegrees>
            </Position>
            <AltitudeMeters>798.20001220703125</AltitudeMeters>
            <DistanceMeters>17037.345062072</DistanceMeters>
          </Trackpoint>
          <Trackpoint>
            <Time>2022-08-27T00:32:11.000Z</Time>
            <Position>
              <LatitudeDegrees>50.178481601178646087646484375</LatitudeDegrees>
              <LongitudeDegrees>17.00792449526488780975341796875</LongitudeDegrees>
            </Position>
            <AltitudeMeters>798.20001220703125</AltitudeMeters>
            <DistanceMeters>17038.036866996</DistanceMeters>
          </Trackpoint>
          <Trackpoint>
            <Time>2022-08-27T00:32:18.000Z</Time>
            <Position>
              <LatitudeDegrees>50.178526528179645538330078125</LatitudeDegrees>
              <LongitudeDegrees>17.0079083181917667388916015625</LongitudeDegrees>
            </Position>
            <AltitudeMeters>797.20001220703125</AltitudeMeters>
            <DistanceMeters>17043.168309571</DistanceMeters>
          </Trackpoint>
          <Trackpoint>
            <Time>2022-08-27T00:32:22.000Z</Time>
            <Position>
              <LatitudeDegrees>50.178550668060779571533203125</LatitudeDegrees>
              <LongitudeDegrees>17.00790010392665863037109375</LongitudeDegrees>
            </Position>
            <AltitudeMeters>796.5999755859375</AltitudeMeters>
            <DistanceMeters>17045.915880118</DistanceMeters>
          </Trackpoint>
          <Trackpoint>
            <Time>2022-08-27T00:32:25.000Z</Time>
            <Position>
              <LatitudeDegrees>50.178570784628391265869140625</LatitudeDegrees>
              <LongitudeDegrees>17.007889039814472198486328125</LongitudeDegrees>
            </Position>
            <AltitudeMeters>796</AltitudeMeters>
            <DistanceMeters>17048.289646682</DistanceMeters>
          </Trackpoint>
          <Trackpoint>
            <Time>2022-08-27T00:32:32.000Z</Time>
            <Position>
              <LatitudeDegrees>50.1786066591739654541015625</LatitudeDegrees>
              <LongitudeDegrees>17.0078784786164760589599609375</LongitudeDegrees>
            </Position>
            <AltitudeMeters>795</AltitudeMeters>
            <DistanceMeters>17052.35252494</DistanceMeters>
          </Trackpoint>
          <Trackpoint>
            <Time>2022-08-27T00:32:34.000Z</Time>
            <Position>
              <LatitudeDegrees>50.1786173880100250244140625</LatitudeDegrees>
              <LongitudeDegrees>17.00787370093166828155517578125</LongitudeDegrees>
            </Position>
            <AltitudeMeters>794.4000244140625</AltitudeMeters>
            <DistanceMeters>17053.59152171</DistanceMeters>
          </Trackpoint>
          <Trackpoint>
            <Time>2022-08-27T00:32:37.000Z</Time>
            <Position>
              <LatitudeDegrees>50.17863708548247814178466796875</LatitudeDegrees>
              <LongitudeDegrees>17.00787001289427280426025390625</LongitudeDegrees>
            </Position>
            <AltitudeMeters>793.5999755859375</AltitudeMeters>
            <DistanceMeters>17055.799743003</DistanceMeters>
          </Trackpoint>
          <Trackpoint>
            <Time>2022-08-27T00:32:44.000Z</Time>
            <Position>
              <LatitudeDegrees>50.1786819286644458770751953125</LatitudeDegrees>
              <LongitudeDegrees>17.0078640617430210113525390625</LongitudeDegrees>
            </Position>
            <AltitudeMeters>792.5999755859375</AltitudeMeters>
            <DistanceMeters>17060.810093541</DistanceMeters>
          </Trackpoint>
          <Trackpoint>
            <Time>2022-08-27T00:32:50.000Z</Time>
            <Position>
              <LatitudeDegrees>50.17872056923806667327880859375</LatitudeDegrees>
              <LongitudeDegrees>17.0078677497804164886474609375</LongitudeDegrees>
            </Position>
            <AltitudeMeters>791.4000244140625</AltitudeMeters>
            <DistanceMeters>17065.118902793</DistanceMeters>
          </Trackpoint>
          <Trackpoint>
            <Time>2022-08-27T00:32:57.000Z</Time>
            <Position>
              <LatitudeDegrees>50.17875895835459232330322265625</LatitudeDegrees>
              <LongitudeDegrees>17.00786062516272068023681640625</LongitudeDegrees>
            </Position>
            <AltitudeMeters>790.4000244140625</AltitudeMeters>
            <DistanceMeters>17069.421420278</DistanceMeters>
          </Trackpoint>
          <Trackpoint>
            <Time>2022-08-27T00:32:58.000Z</Time>
            <Position>
              <LatitudeDegrees>50.17876449041068553924560546875</LatitudeDegrees>
              <LongitudeDegrees>17.00785744003951549530029296875</LongitudeDegrees>
            </Position>
            <AltitudeMeters>790.20001220703125</AltitudeMeters>
            <DistanceMeters>17070.079784667</DistanceMeters>
          </Trackpoint>
          <Trackpoint>
            <Time>2022-08-27T00:33:02.000Z</Time>
            <Position>
              <LatitudeDegrees>50.1787863671779632568359375</LatitudeDegrees>
              <LongitudeDegrees>17.0078540034592151641845703125</LongitudeDegrees>
            </Position>
            <AltitudeMeters>789.20001220703125</AltitudeMeters>
            <DistanceMeters>17072.524761274</DistanceMeters>
          </Trackpoint>
          <Trackpoint>
            <Time>2022-08-27T00:33:09.000Z</Time>
            <Position>
              <LatitudeDegrees>50.17883925698697566986083984375</LatitudeDegrees>
              <LongitudeDegrees>17.007817290723323822021484375</LongitudeDegrees>
            </Position>
            <AltitudeMeters>788</AltitudeMeters>
            <DistanceMeters>17078.96698382</DistanceMeters>
          </Trackpoint>
          <Trackpoint>
            <Time>2022-08-27T00:33:16.000Z</Time>
            <Position>
              <LatitudeDegrees>50.1788807474076747894287109375</LatitudeDegrees>
              <LongitudeDegrees>17.007801868021488189697265625</LongitudeDegrees>
            </Position>
            <AltitudeMeters>787</AltitudeMeters>
            <DistanceMeters>17083.712614511</DistanceMeters>
          </Trackpoint>
          <Trackpoint>
            <Time>2022-08-27T00:33:21.000Z</Time>
            <Position>
              <LatitudeDegrees>50.17890463583171367645263671875</LatitudeDegrees>
              <LongitudeDegrees>17.00780094601213932037353515625</LongitudeDegrees>
            </Position>
            <AltitudeMeters>786.20001220703125</AltitudeMeters>
            <DistanceMeters>17086.373362513</DistanceMeters>
          </Trackpoint>
          <Trackpoint>
            <Time>2022-08-27T00:33:24.000Z</Time>
            <Position>
              <LatitudeDegrees>50.17891712486743927001953125</LatitudeDegrees>
              <LongitudeDegrees>17.00780832208693027496337890625</LongitudeDegrees>
            </Position>
            <AltitudeMeters>785.79998779296875</AltitudeMeters>
            <DistanceMeters>17087.860765864</DistanceMeters>
          </Trackpoint>
          <Trackpoint>
            <Time>2022-08-27T00:33:31.000Z</Time>
            <Position>
              <LatitudeDegrees>50.17895224504172801971435546875</LatitudeDegrees>
              <LongitudeDegrees>17.00779608450829982757568359375</LongitudeDegrees>
            </Position>
            <AltitudeMeters>784.4000244140625</AltitudeMeters>
            <DistanceMeters>17091.865440104</DistanceMeters>
          </Trackpoint>
          <Trackpoint>
            <Time>2022-08-27T00:33:35.000Z</Time>
            <Position>
              <LatitudeDegrees>50.1789679192006587982177734375</LatitudeDegrees>
              <LongitudeDegrees>17.00778686441481113433837890625</LongitudeDegrees>
            </Position>
            <AltitudeMeters>784</AltitudeMeters>
            <DistanceMeters>17093.732418815</DistanceMeters>
          </Trackpoint>
          <Trackpoint>
            <Time>2022-08-27T00:33:39.000Z</Time>
            <Position>
              <LatitudeDegrees>50.1789877004921436309814453125</LatitudeDegrees>
              <LongitudeDegrees>17.00776590965688228607177734375</LongitudeDegrees>
            </Position>
            <AltitudeMeters>783.20001220703125</AltitudeMeters>
            <DistanceMeters>17096.393166817</DistanceMeters>
          </Trackpoint>
          <Trackpoint>
            <Time>2022-08-27T00:33:44.000Z</Time>
            <Position>
              <LatitudeDegrees>50.17900940962135791778564453125</LatitudeDegrees>
              <LongitudeDegrees>17.00773120857775211334228515625</LongitudeDegrees>
            </Position>
            <AltitudeMeters>782.20001220703125</AltitudeMeters>
            <DistanceMeters>17099.850885894</DistanceMeters>
          </Trackpoint>
          <Trackpoint>
            <Time>2022-08-27T00:33:49.000Z</Time>
            <Position>
              <LatitudeDegrees>50.17903338186442852020263671875</LatitudeDegrees>
              <LongitudeDegrees>17.007694244384765625</LongitudeDegrees>
            </Position>
            <AltitudeMeters>781.4000244140625</AltitudeMeters>
            <DistanceMeters>17103.601733678</DistanceMeters>
          </Trackpoint>
          <Trackpoint>
            <Time>2022-08-27T00:33:50.000Z</Time>
            <Position>
              <LatitudeDegrees>50.179040841758251190185546875</LatitudeDegrees>
              <LongitudeDegrees>17.007686533033847808837890625</LongitudeDegrees>
            </Position>
            <AltitudeMeters>781.20001220703125</AltitudeMeters>
            <DistanceMeters>17104.602902238</DistanceMeters>
          </Trackpoint>
          <Trackpoint>
            <Time>2022-08-27T00:33:57.000Z</Time>
            <Position>
              <LatitudeDegrees>50.17908878624439239501953125</LatitudeDegrees>
              <LongitudeDegrees>17.00765912421047687530517578125</LongitudeDegrees>
            </Position>
            <AltitudeMeters>780</AltitudeMeters>
            <DistanceMeters>17110.286262462</DistanceMeters>
          </Trackpoint>
          <Trackpoint>
            <Time>2022-08-27T00:34:01.000Z</Time>
            <Position>
              <LatitudeDegrees>50.17912491224706172943115234375</LatitudeDegrees>
              <LongitudeDegrees>17.0076427794992923736572265625</LongitudeDegrees>
            </Position>
            <AltitudeMeters>778.79998779296875</AltitudeMeters>
            <DistanceMeters>17114.472833658</DistanceMeters>
          </Trackpoint>
          <Trackpoint>
            <Time>2022-08-27T00:34:02.000Z</Time>
            <Position>
              <LatitudeDegrees>50.1791285164654254913330078125</LatitudeDegrees>
              <LongitudeDegrees>17.007638923823833465576171875</LongitudeDegrees>
            </Position>
            <AltitudeMeters>778.5999755859375</AltitudeMeters>
            <DistanceMeters>17114.957376729</DistanceMeters>
          </Trackpoint>
          <Trackpoint>
            <Time>2022-08-27T00:34:07.000Z</Time>
            <Position>
              <LatitudeDegrees>50.1791620440781116485595703125</LatitudeDegrees>
              <LongitudeDegrees>17.00762693770229816436767578125</LongitudeDegrees>
            </Position>
            <AltitudeMeters>777.79998779296875</AltitudeMeters>
            <DistanceMeters>17118.786847207</DistanceMeters>
          </Trackpoint>
          <Trackpoint>
            <Time>2022-08-27T00:34:13.000Z</Time>
            <Position>
              <LatitudeDegrees>50.1792056299746036529541015625</LatitudeDegrees>
              <LongitudeDegrees>17.00758083723485469818115234375</LongitudeDegrees>
            </Position>
            <AltitudeMeters>776.5999755859375</AltitudeMeters>
            <DistanceMeters>17124.646228628</DistanceMeters>
          </Trackpoint>
          <Trackpoint>
            <Time>2022-08-27T00:34:15.000Z</Time>
            <Position>
              <LatitudeDegrees>50.17921862192451953887939453125</LatitudeDegrees>
              <LongitudeDegrees>17.0075693540275096893310546875</LongitudeDegrees>
            </Position>
            <AltitudeMeters>776.20001220703125</AltitudeMeters>
            <DistanceMeters>17126.308517229</DistanceMeters>
          </Trackpoint>
          <Trackpoint>
            <Time>2022-08-27T00:34:20.000Z</Time>
            <Position>
              <LatitudeDegrees>50.17927763052284717559814453125</LatitudeDegrees>
              <LongitudeDegrees>17.00751696713268756866455078125</LongitudeDegrees>
            </Position>
            <AltitudeMeters>775.4000244140625</AltitudeMeters>
            <DistanceMeters>17133.862991607</DistanceMeters>
          </Trackpoint>
          <Trackpoint>
            <Time>2022-08-27T00:34:28.000Z</Time>
            <Position>
              <LatitudeDegrees>50.179318450391292572021484375</LatitudeDegrees>
              <LongitudeDegrees>17.00742267072200775146484375</LongitudeDegrees>
            </Position>
            <AltitudeMeters>774.20001220703125</AltitudeMeters>
            <DistanceMeters>17141.975401676</DistanceMeters>
          </Trackpoint>
          <Trackpoint>
            <Time>2022-08-27T00:34:34.000Z</Time>
            <Position>
              <LatitudeDegrees>50.179348289966583251953125</LatitudeDegrees>
              <LongitudeDegrees>17.007363326847553253173828125</LongitudeDegrees>
            </Position>
            <AltitudeMeters>773</AltitudeMeters>
            <DistanceMeters>17147.352603994</DistanceMeters>
          </Trackpoint>
          <Trackpoint>
            <Time>2022-08-27T00:34:40.000Z</Time>
            <Position>
              <LatitudeDegrees>50.17936144955456256866455078125</LatitudeDegrees>
              <LongitudeDegrees>17.00729392468929290771484375</LongitudeDegrees>
            </Position>
            <AltitudeMeters>772</AltitudeMeters>
            <DistanceMeters>17152.511250646</DistanceMeters>
          </Trackpoint>
          <Trackpoint>
            <Time>2022-08-27T00:34:50.000Z</Time>
            <Position>
              <LatitudeDegrees>50.1793595217168331146240234375</LatitudeDegrees>
              <LongitudeDegrees>17.00723533518612384796142578125</LongitudeDegrees>
            </Position>
            <AltitudeMeters>770.79998779296875</AltitudeMeters>
            <DistanceMeters>17156.693505788</DistanceMeters>
          </Trackpoint>
          <Trackpoint>
            <Time>2022-08-27T00:34:54.000Z</Time>
            <Position>
              <LatitudeDegrees>50.17936061136424541473388671875</LatitudeDegrees>
              <LongitudeDegrees>17.0072287134826183319091796875</LongitudeDegrees>
            </Position>
            <AltitudeMeters>770.5999755859375</AltitudeMeters>
            <DistanceMeters>17157.178048859</DistanceMeters>
          </Trackpoint>
          <Trackpoint>
            <Time>2022-08-27T00:35:05.000Z</Time>
            <Position>
              <LatitudeDegrees>50.17935792915523052215576171875</LatitudeDegrees>
              <LongitudeDegrees>17.007225863635540008544921875</LongitudeDegrees>
            </Position>
            <AltitudeMeters>770.5999755859375</AltitudeMeters>
            <DistanceMeters>17157.533606267</DistanceMeters>
          </Trackpoint>
          <Trackpoint>
            <Time>2022-08-27T00:35:16.000Z</Time>
            <Position>
              <LatitudeDegrees>50.1793595217168331146240234375</LatitudeDegrees>
              <LongitudeDegrees>17.007204405963420867919921875</LongitudeDegrees>
            </Position>
            <AltitudeMeters>770.5999755859375</AltitudeMeters>
            <DistanceMeters>17159.071748012</DistanceMeters>
          </Trackpoint>
          <Trackpoint>
            <Time>2022-08-27T00:35:26.000Z</Time>
            <Position>
              <LatitudeDegrees>50.17938676290214061737060546875</LatitudeDegrees>
              <LongitudeDegrees>17.00717196799814701080322265625</LongitudeDegrees>
            </Position>
            <AltitudeMeters>769.79998779296875</AltitudeMeters>
            <DistanceMeters>17162.884676424</DistanceMeters>
          </Trackpoint>
          <Trackpoint>
            <Time>2022-08-27T00:35:30.000Z</Time>
            <Position>
              <LatitudeDegrees>50.17939615063369274139404296875</LatitudeDegrees>
              <LongitudeDegrees>17.00714631937444210052490234375</LongitudeDegrees>
            </Position>
            <AltitudeMeters>769.4000244140625</AltitudeMeters>
            <DistanceMeters>17164.990327756</DistanceMeters>
          </Trackpoint>
          <Trackpoint>
            <Time>2022-08-27T00:35:36.000Z</Time>
            <Position>
              <LatitudeDegrees>50.17940796911716461181640625</LatitudeDegrees>
              <LongitudeDegrees>17.007132656872272491455078125</LongitudeDegrees>
            </Position>
            <AltitudeMeters>768.4000244140625</AltitudeMeters>
            <DistanceMeters>17166.625229168</DistanceMeters>
          </Trackpoint>
          <Trackpoint>
            <Time>2022-08-27T00:35:39.000Z</Time>
            <Position>
              <LatitudeDegrees>50.17941341735422611236572265625</LatitudeDegrees>
              <LongitudeDegrees>17.00713030993938446044921875</LongitudeDegrees>
            </Position>
            <AltitudeMeters>768</AltitudeMeters>
            <DistanceMeters>17167.255565082</DistanceMeters>
          </Trackpoint>
          <Trackpoint>
            <Time>2022-08-27T00:35:45.000Z</Time>
            <Position>
              <LatitudeDegrees>50.17941945232450962066650390625</LatitudeDegrees>
              <LongitudeDegrees>17.0071220956742763519287109375</LongitudeDegrees>
            </Position>
            <AltitudeMeters>767.20001220703125</AltitudeMeters>
            <DistanceMeters>17168.141915267</DistanceMeters>
          </Trackpoint>
          <Trackpoint>
            <Time>2022-08-27T00:35:48.000Z</Time>
            <Position>
              <LatitudeDegrees>50.17942297272384166717529296875</LatitudeDegrees>
              <LongitudeDegrees>17.00711078010499477386474609375</LongitudeDegrees>
            </Position>
            <AltitudeMeters>766.79998779296875</AltitudeMeters>
            <DistanceMeters>17169.033344864</DistanceMeters>
          </Trackpoint>
          <Trackpoint>
            <Time>2022-08-27T00:35:55.000Z</Time>
            <Position>
              <LatitudeDegrees>50.1794359646737575531005859375</LatitudeDegrees>
              <LongitudeDegrees>17.00706652365624904632568359375</LongitudeDegrees>
            </Position>
            <AltitudeMeters>765.5999755859375</AltitudeMeters>
            <DistanceMeters>17172.504097229</DistanceMeters>
          </Trackpoint>
          <Trackpoint>
            <Time>2022-08-27T00:35:58.000Z</Time>
            <Position>
              <LatitudeDegrees>50.1794403232634067535400390625</LatitudeDegrees>
              <LongitudeDegrees>17.00702704489231109619140625</LongitudeDegrees>
            </Position>
            <AltitudeMeters>764.5999755859375</AltitudeMeters>
            <DistanceMeters>17175.358064459</DistanceMeters>
          </Trackpoint>
          <Trackpoint>
            <Time>2022-08-27T00:36:00.000Z</Time>
            <Position>
              <LatitudeDegrees>50.17944292165338993072509765625</LatitudeDegrees>
              <LongitudeDegrees>17.00700064189732074737548828125</LongitudeDegrees>
            </Position>
            <AltitudeMeters>764.20001220703125</AltitudeMeters>
            <DistanceMeters>17177.260972931</DistanceMeters>
          </Trackpoint>
          <Trackpoint>
            <Time>2022-08-27T00:36:07.000Z</Time>
            <Position>
              <LatitudeDegrees>50.17944392748177051544189453125</LatitudeDegrees>
              <LongitudeDegrees>17.00694180093705654144287109375</LongitudeDegrees>
            </Position>
            <AltitudeMeters>763</AltitudeMeters>
            <DistanceMeters>17181.456162914</DistanceMeters>
          </Trackpoint>
          <Trackpoint>
            <Time>2022-08-27T00:36:08.000Z</Time>
            <Position>
              <LatitudeDegrees>50.17944417893886566162109375</LatitudeDegrees>
              <LongitudeDegrees>17.006938196718692779541015625</LongitudeDegrees>
            </Position>
            <AltitudeMeters>762.79998779296875</AltitudeMeters>
            <DistanceMeters>17181.72493905</DistanceMeters>
          </Trackpoint>
          <Trackpoint>
            <Time>2022-08-27T00:36:15.000Z</Time>
            <Position>
              <LatitudeDegrees>50.1794533990323543548583984375</LatitudeDegrees>
              <LongitudeDegrees>17.006854712963104248046875</LongitudeDegrees>
            </Position>
            <AltitudeMeters>761.5999755859375</AltitudeMeters>
            <DistanceMeters>17187.763436271</DistanceMeters>
          </Trackpoint>
          <Trackpoint>
            <Time>2022-08-27T00:36:20.000Z</Time>
            <Position>
              <LatitudeDegrees>50.17947175540030002593994140625</LatitudeDegrees>
              <LongitudeDegrees>17.0068055950105190277099609375</LongitudeDegrees>
            </Position>
            <AltitudeMeters>760.79998779296875</AltitudeMeters>
            <DistanceMeters>17191.817414456</DistanceMeters>
          </Trackpoint>
          <Trackpoint>
            <Time>2022-08-27T00:36:21.000Z</Time>
            <Position>
              <LatitudeDegrees>50.1794703304767608642578125</LatitudeDegrees>
              <LongitudeDegrees>17.00679360888898372650146484375</LongitudeDegrees>
            </Position>
            <AltitudeMeters>760.5999755859375</AltitudeMeters>
            <DistanceMeters>17192.68834868</DistanceMeters>
          </Trackpoint>
          <Trackpoint>
            <Time>2022-08-27T00:36:29.000Z</Time>
            <Position>
              <LatitudeDegrees>50.1794778741896152496337890625</LatitudeDegrees>
              <LongitudeDegrees>17.00673543848097324371337890625</LongitudeDegrees>
            </Position>
            <AltitudeMeters>759.20001220703125</AltitudeMeters>
            <DistanceMeters>17196.918905559</DistanceMeters>
          </Trackpoint>
          <Trackpoint>
            <Time>2022-08-27T00:36:34.000Z</Time>
            <Position>
              <LatitudeDegrees>50.179482400417327880859375</LatitudeDegrees>
              <LongitudeDegrees>17.00667777098715305328369140625</LongitudeDegrees>
            </Position>
            <AltitudeMeters>758.5999755859375</AltitudeMeters>
            <DistanceMeters>17201.058843372</DistanceMeters>
          </Trackpoint>
          <Trackpoint>
            <Time>2022-08-27T00:36:36.000Z</Time>
            <Position>
              <LatitudeDegrees>50.179480053484439849853515625</LatitudeDegrees>
              <LongitudeDegrees>17.00665463693439960479736328125</LongitudeDegrees>
            </Position>
            <AltitudeMeters>758.20001220703125</AltitudeMeters>
            <DistanceMeters>17202.729260571</DistanceMeters>
          </Trackpoint>
          <Trackpoint>
            <Time>2022-08-27T00:36:44.000Z</Time>
            <Position>
              <LatitudeDegrees>50.17949782311916351318359375</LatitudeDegrees>
              <LongitudeDegrees>17.00657350011169910430908203125</LongitudeDegrees>
            </Position>
            <AltitudeMeters>756.79998779296875</AltitudeMeters>
            <DistanceMeters>17208.841332744</DistanceMeters>
          </Trackpoint>
          <Trackpoint>
            <Time>2022-08-27T00:36:51.000Z</Time>
            <Position>
              <LatitudeDegrees>50.17951819114387035369873046875</LatitudeDegrees>
              <LongitudeDegrees>17.006537206470966339111328125</LongitudeDegrees>
            </Position>
            <AltitudeMeters>755.5999755859375</AltitudeMeters>
            <DistanceMeters>17212.280722246</DistanceMeters>
          </Trackpoint>
          <Trackpoint>
            <Time>2022-08-27T00:36:55.000Z</Time>
            <Position>
              <LatitudeDegrees>50.17952741123735904693603515625</LatitudeDegrees>
              <LongitudeDegrees>17.0065152458846569061279296875</LongitudeDegrees>
            </Position>
            <AltitudeMeters>755.20001220703125</AltitudeMeters>
            <DistanceMeters>17214.15253144</DistanceMeters>
          </Trackpoint>
          <Trackpoint>
            <Time>2022-08-27T00:37:05.000Z</Time>
            <Position>
              <LatitudeDegrees>50.17958172596991062164306640625</LatitudeDegrees>
              <LongitudeDegrees>17.0064485259354114532470703125</LongitudeDegrees>
            </Position>
            <AltitudeMeters>754.5999755859375</AltitudeMeters>
            <DistanceMeters>17221.843827221</DistanceMeters>
          </Trackpoint>
          <Trackpoint>
            <Time>2022-08-27T00:37:07.000Z</Time>
            <Position>
              <LatitudeDegrees>50.1795888505876064300537109375</LatitudeDegrees>
              <LongitudeDegrees>17.0064357854425907135009765625</LongitudeDegrees>
            </Position>
            <AltitudeMeters>754.4000244140625</AltitudeMeters>
            <DistanceMeters>17223.045830645</DistanceMeters>
          </Trackpoint>
          <Trackpoint>
            <Time>2022-08-27T00:37:16.000Z</Time>
            <Position>
              <LatitudeDegrees>50.17970292828977108001708984375</LatitudeDegrees>
              <LongitudeDegrees>17.00618608854711055755615234375</LongitudeDegrees>
            </Position>
            <AltitudeMeters>753.20001220703125</AltitudeMeters>
            <DistanceMeters>17244.908171466</DistanceMeters>
          </Trackpoint>
          <Trackpoint>
            <Time>2022-08-27T00:37:18.000Z</Time>
            <Position>
              <LatitudeDegrees>50.17971642315387725830078125</LatitudeDegrees>
              <LongitudeDegrees>17.006175778806209564208984375</LongitudeDegrees>
            </Position>
            <AltitudeMeters>753.20001220703125</AltitudeMeters>
            <DistanceMeters>17246.581289423</DistanceMeters>
          </Trackpoint>
          <Trackpoint>
            <Time>2022-08-27T00:37:27.000Z</Time>
            <Position>
              <LatitudeDegrees>50.17976327799260616302490234375</LatitudeDegrees>
              <LongitudeDegrees>17.006080560386180877685546875</LongitudeDegrees>
            </Position>
            <AltitudeMeters>752</AltitudeMeters>
            <DistanceMeters>17255.140026486</DistanceMeters>
          </Trackpoint>
          <Trackpoint>
            <Time>2022-08-27T00:37:28.000Z</Time>
            <Position>
              <LatitudeDegrees>50.17976797185838222503662109375</LatitudeDegrees>
              <LongitudeDegrees>17.006060443818569183349609375</LongitudeDegrees>
            </Position>
            <AltitudeMeters>751.79998779296875</AltitudeMeters>
            <DistanceMeters>17256.66638153</DistanceMeters>
          </Trackpoint>
          <Trackpoint>
            <Time>2022-08-27T00:37:36.000Z</Time>
            <Position>
              <LatitudeDegrees>50.17980300821363925933837890625</LatitudeDegrees>
              <LongitudeDegrees>17.00594904832541942596435546875</LongitudeDegrees>
            </Position>
            <AltitudeMeters>750.5999755859375</AltitudeMeters>
            <DistanceMeters>17265.51254694</DistanceMeters>
          </Trackpoint>
          <Trackpoint>
            <Time>2022-08-27T00:37:38.000Z</Time>
            <Position>
              <LatitudeDegrees>50.17981432378292083740234375</LatitudeDegrees>
              <LongitudeDegrees>17.00590713880956172943115234375</LongitudeDegrees>
            </Position>
            <AltitudeMeters>750.4000244140625</AltitudeMeters>
            <DistanceMeters>17268.754615567</DistanceMeters>
          </Trackpoint>
          <Trackpoint>
            <Time>2022-08-27T00:37:48.000Z</Time>
            <Position>
              <LatitudeDegrees>50.1799013279378414154052734375</LatitudeDegrees>
              <LongitudeDegrees>17.00566238723695278167724609375</LongitudeDegrees>
            </Position>
            <AltitudeMeters>749.5999755859375</AltitudeMeters>
            <DistanceMeters>17288.706831485</DistanceMeters>
          </Trackpoint>
          <Trackpoint>
            <Time>2022-08-27T00:37:53.000Z</Time>
            <Position>
              <LatitudeDegrees>50.17993812449276447296142578125</LatitudeDegrees>
              <LongitudeDegrees>17.0055895484983921051025390625</LongitudeDegrees>
            </Position>
            <AltitudeMeters>748.4000244140625</AltitudeMeters>
            <DistanceMeters>17295.319216088</DistanceMeters>
          </Trackpoint>
          <Trackpoint>
            <Time>2022-08-27T00:37:58.000Z</Time>
            <Position>
              <LatitudeDegrees>50.17999847419559955596923828125</LatitudeDegrees>
              <LongitudeDegrees>17.00553498230874538421630859375</LongitudeDegrees>
            </Position>
            <AltitudeMeters>747.4000244140625</AltitudeMeters>
            <DistanceMeters>17303.081217765</DistanceMeters>
          </Trackpoint>
          <Trackpoint>
            <Time>2022-08-27T00:38:00.000Z</Time>
            <Position>
              <LatitudeDegrees>50.18001523800194263458251953125</LatitudeDegrees>
              <LongitudeDegrees>17.0055100880563259124755859375</LongitudeDegrees>
            </Position>
            <AltitudeMeters>747.20001220703125</AltitudeMeters>
            <DistanceMeters>17305.657475941</DistanceMeters>
          </Trackpoint>
          <Trackpoint>
            <Time>2022-08-27T00:38:08.000Z</Time>
            <Position>
              <LatitudeDegrees>50.18004708923399448394775390625</LatitudeDegrees>
              <LongitudeDegrees>17.005467675626277923583984375</LongitudeDegrees>
            </Position>
            <AltitudeMeters>746.20001220703125</AltitudeMeters>
            <DistanceMeters>17310.316693018</DistanceMeters>
          </Trackpoint>
          <Trackpoint>
            <Time>2022-08-27T00:38:09.000Z</Time>
            <Position>
              <LatitudeDegrees>50.18006133846938610076904296875</LatitudeDegrees>
              <LongitudeDegrees>17.0054571144282817840576171875</LongitudeDegrees>
            </Position>
            <AltitudeMeters>746.20001220703125</AltitudeMeters>
            <DistanceMeters>17312.068899053</DistanceMeters>
          </Trackpoint>
          <Trackpoint>
            <Time>2022-08-27T00:38:20.000Z</Time>
            <Position>
              <LatitudeDegrees>50.18012369982898235321044921875</LatitudeDegrees>
              <LongitudeDegrees>17.0053645782172679901123046875</LongitudeDegrees>
            </Position>
            <AltitudeMeters>745</AltitudeMeters>
            <DistanceMeters>17321.643518422</DistanceMeters>
          </Trackpoint>
          <Trackpoint>
            <Time>2022-08-27T00:38:22.000Z</Time>
            <Position>
              <LatitudeDegrees>50.180131159722805023193359375</LatitudeDegrees>
              <LongitudeDegrees>17.00535125099122524261474609375</LongitudeDegrees>
            </Position>
            <AltitudeMeters>744.79998779296875</AltitudeMeters>
            <DistanceMeters>17322.904190249</DistanceMeters>
          </Trackpoint>
          <Trackpoint>
            <Time>2022-08-27T00:38:32.000Z</Time>
            <Position>
              <LatitudeDegrees>50.1801615022122859954833984375</LatitudeDegrees>
              <LongitudeDegrees>17.00528738088905811309814453125</LongitudeDegrees>
            </Position>
            <AltitudeMeters>743.79998779296875</AltitudeMeters>
            <DistanceMeters>17328.573232678</DistanceMeters>
          </Trackpoint>
          <Trackpoint>
            <Time>2022-08-27T00:38:33.000Z</Time>
            <Position>
              <LatitudeDegrees>50.1801645196974277496337890625</LatitudeDegrees>
              <LongitudeDegrees>17.00527832843363285064697265625</LongitudeDegrees>
            </Position>
            <AltitudeMeters>743.5999755859375</AltitudeMeters>
            <DistanceMeters>17329.303146721</DistanceMeters>
          </Trackpoint>
          <Trackpoint>
            <Time>2022-08-27T00:38:41.000Z</Time>
            <Position>
              <LatitudeDegrees>50.18019360490143299102783203125</LatitudeDegrees>
              <LongitudeDegrees>17.0051999576389789581298828125</LongitudeDegrees>
            </Position>
            <AltitudeMeters>742.5999755859375</AltitudeMeters>
            <DistanceMeters>17335.759371071</DistanceMeters>
          </Trackpoint>
          <Trackpoint>
            <Time>2022-08-27T00:38:44.000Z</Time>
            <Position>
              <LatitudeDegrees>50.18020726740360260009765625</LatitudeDegrees>
              <LongitudeDegrees>17.0051689445972442626953125</LongitudeDegrees>
            </Position>
            <AltitudeMeters>741.79998779296875</AltitudeMeters>
            <DistanceMeters>17338.44208815</DistanceMeters>
          </Trackpoint>
          <Trackpoint>
            <Time>2022-08-27T00:38:46.000Z</Time>
            <Position>
              <LatitudeDegrees>50.1802138052880764007568359375</LatitudeDegrees>
              <LongitudeDegrees>17.0051563717424869537353515625</LongitudeDegrees>
            </Position>
            <AltitudeMeters>741.4000244140625</AltitudeMeters>
            <DistanceMeters>17339.598138026</DistanceMeters>
          </Trackpoint>
          <Trackpoint>
            <Time>2022-08-27T00:38:51.000Z</Time>
            <Position>
              <LatitudeDegrees>50.1802288927137851715087890625</LatitudeDegrees>
              <LongitudeDegrees>17.00511940754950046539306640625</LongitudeDegrees>
            </Position>
            <AltitudeMeters>740.4000244140625</AltitudeMeters>
            <DistanceMeters>17342.721034527</DistanceMeters>
          </Trackpoint>
          <Trackpoint>
            <Time>2022-08-27T00:38:57.000Z</Time>
            <Position>
              <LatitudeDegrees>50.18024322576820850372314453125</LatitudeDegrees>
              <LongitudeDegrees>17.00506056658923625946044921875</LongitudeDegrees>
            </Position>
            <AltitudeMeters>739</AltitudeMeters>
            <DistanceMeters>17347.207462995</DistanceMeters>
          </Trackpoint>
          <Trackpoint>
            <Time>2022-08-27T00:39:03.000Z</Time>
            <Position>
              <LatitudeDegrees>50.180254541337490081787109375</LatitudeDegrees>
              <LongitudeDegrees>17.00499636121094226837158203125</LongitudeDegrees>
            </Position>
            <AltitudeMeters>737.79998779296875</AltitudeMeters>
            <DistanceMeters>17351.953093685</DistanceMeters>
          </Trackpoint>
          <Trackpoint>
            <Time>2022-08-27T00:39:09.000Z</Time>
            <Position>
              <LatitudeDegrees>50.1802620850503444671630859375</LatitudeDegrees>
              <LongitudeDegrees>17.00494741089642047882080078125</LongitudeDegrees>
            </Position>
            <AltitudeMeters>736.79998779296875</AltitudeMeters>
            <DistanceMeters>17355.541531926</DistanceMeters>
          </Trackpoint>
          <Trackpoint>
            <Time>2022-08-27T00:39:10.000Z</Time>
            <Position>
              <LatitudeDegrees>50.18026225268840789794921875</LatitudeDegrees>
              <LongitudeDegrees>17.0049431361258029937744140625</LongitudeDegrees>
            </Position>
            <AltitudeMeters>736.79998779296875</AltitudeMeters>
            <DistanceMeters>17355.856699883</DistanceMeters>
          </Trackpoint>
          <Trackpoint>
            <Time>2022-08-27T00:39:17.000Z</Time>
            <Position>
              <LatitudeDegrees>50.1802674494683742523193359375</LatitudeDegrees>
              <LongitudeDegrees>17.00488856993615627288818359375</LongitudeDegrees>
            </Position>
            <AltitudeMeters>735.4000244140625</AltitudeMeters>
            <DistanceMeters>17359.787407299</DistanceMeters>
          </Trackpoint>
          <Trackpoint>
            <Time>2022-08-27T00:39:22.000Z</Time>
            <Position>
              <LatitudeDegrees>50.18028195016086101531982421875</LatitudeDegrees>
              <LongitudeDegrees>17.00485018081963062286376953125</LongitudeDegrees>
            </Position>
            <AltitudeMeters>734.20001220703125</AltitudeMeters>
            <DistanceMeters>17362.964768699</DistanceMeters>
          </Trackpoint>
          <Trackpoint>
            <Time>2022-08-27T00:39:28.000Z</Time>
            <Position>
              <LatitudeDegrees>50.180295445024967193603515625</LatitudeDegrees>
              <LongitudeDegrees>17.0048157311975955963134765625</LongitudeDegrees>
            </Position>
            <AltitudeMeters>733.20001220703125</AltitudeMeters>
            <DistanceMeters>17365.843937012</DistanceMeters>
          </Trackpoint>
          <Trackpoint>
            <Time>2022-08-27T00:39:33.000Z</Time>
            <Position>
              <LatitudeDegrees>50.1803103648126125335693359375</LatitudeDegrees>
              <LongitudeDegrees>17.00479418970644474029541015625</LongitudeDegrees>
            </Position>
            <AltitudeMeters>732.20001220703125</AltitudeMeters>
            <DistanceMeters>17368.104694245</DistanceMeters>
          </Trackpoint>
          <Trackpoint>
            <Time>2022-08-27T00:39:35.000Z</Time>
            <Position>
              <LatitudeDegrees>50.18031581304967403411865234375</LatitudeDegrees>
              <LongitudeDegrees>17.0047969557344913482666015625</LongitudeDegrees>
            </Position>
            <AltitudeMeters>732</AltitudeMeters>
            <DistanceMeters>17368.742152824</DistanceMeters>
          </Trackpoint>
          <Trackpoint>
            <Time>2022-08-27T00:39:40.000Z</Time>
            <Position>
              <LatitudeDegrees>50.18032654188573360443115234375</LatitudeDegrees>
              <LongitudeDegrees>17.004776336252689361572265625</LongitudeDegrees>
            </Position>
            <AltitudeMeters>730.79998779296875</AltitudeMeters>
            <DistanceMeters>17370.633160564</DistanceMeters>
          </Trackpoint>
          <Trackpoint>
            <Time>2022-08-27T00:39:45.000Z</Time>
            <Position>
              <LatitudeDegrees>50.1803294755518436431884765625</LatitudeDegrees>
              <LongitudeDegrees>17.004774324595928192138671875</LongitudeDegrees>
            </Position>
            <AltitudeMeters>730</AltitudeMeters>
            <DistanceMeters>17370.988717972</DistanceMeters>
          </Trackpoint>
          <Trackpoint>
            <Time>2022-08-27T00:39:52.000Z</Time>
            <Position>
              <LatitudeDegrees>50.18033760599792003631591796875</LatitudeDegrees>
              <LongitudeDegrees>17.00475915335118770599365234375</LongitudeDegrees>
            </Position>
            <AltitudeMeters>729.5999755859375</AltitudeMeters>
            <DistanceMeters>17372.401391641</DistanceMeters>
          </Trackpoint>
          <Trackpoint>
            <Time>2022-08-27T00:39:58.000Z</Time>
            <Position>
              <LatitudeDegrees>50.18034280277788639068603515625</LatitudeDegrees>
              <LongitudeDegrees>17.00471975840628147125244140625</LongitudeDegrees>
            </Position>
            <AltitudeMeters>729.20001220703125</AltitudeMeters>
            <DistanceMeters>17375.269561726</DistanceMeters>
          </Trackpoint>
          <Trackpoint>
            <Time>2022-08-27T00:40:03.000Z</Time>
            <Position>
              <LatitudeDegrees>50.180349759757518768310546875</LatitudeDegrees>
              <LongitudeDegrees>17.004712633788585662841796875</LongitudeDegrees>
            </Position>
            <AltitudeMeters>728.5999755859375</AltitudeMeters>
            <DistanceMeters>17376.190879905</DistanceMeters>
          </Trackpoint>
          <Trackpoint>
            <Time>2022-08-27T00:40:08.000Z</Time>
            <Position>
              <LatitudeDegrees>50.18034900538623332977294921875</LatitudeDegrees>
              <LongitudeDegrees>17.00468857772648334503173828125</LongitudeDegrees>
            </Position>
            <AltitudeMeters>727.79998779296875</AltitudeMeters>
            <DistanceMeters>17377.903998361</DistanceMeters>
          </Trackpoint>
          <Trackpoint>
            <Time>2022-08-27T00:40:10.000Z</Time>
            <Position>
              <LatitudeDegrees>50.18035654909908771514892578125</LatitudeDegrees>
              <LongitudeDegrees>17.0046802796423435211181640625</LongitudeDegrees>
            </Position>
            <AltitudeMeters>727.5999755859375</AltitudeMeters>
            <DistanceMeters>17378.927467397</DistanceMeters>
          </Trackpoint>
          <Trackpoint>
            <Time>2022-08-27T00:40:15.000Z</Time>
            <Position>
              <LatitudeDegrees>50.18035721965134143829345703125</LatitudeDegrees>
              <LongitudeDegrees>17.00466158799827098846435546875</LongitudeDegrees>
            </Position>
            <AltitudeMeters>726.20001220703125</AltitudeMeters>
            <DistanceMeters>17380.261230891</DistanceMeters>
          </Trackpoint>
          <Trackpoint>
            <Time>2022-08-27T00:40:17.000Z</Time>
            <Position>
              <LatitudeDegrees>50.18036057241261005401611328125</LatitudeDegrees>
              <LongitudeDegrees>17.00465152971446514129638671875</LongitudeDegrees>
            </Position>
            <AltitudeMeters>725.79998779296875</AltitudeMeters>
            <DistanceMeters>17381.067559301</DistanceMeters>
          </Trackpoint>
          <Trackpoint>
            <Time>2022-08-27T00:40:21.000Z</Time>
            <Position>
              <LatitudeDegrees>50.18036610446870326995849609375</LatitudeDegrees>
              <LongitudeDegrees>17.0046098716557025909423828125</LongitudeDegrees>
            </Position>
            <AltitudeMeters>725.20001220703125</AltitudeMeters>
            <DistanceMeters>17384.099492318</DistanceMeters>
          </Trackpoint>
          <Trackpoint>
            <Time>2022-08-27T00:40:25.000Z</Time>
            <Position>
              <LatitudeDegrees>50.18038152717053890228271484375</LatitudeDegrees>
              <LongitudeDegrees>17.00455128215253353118896484375</LongitudeDegrees>
            </Position>
            <AltitudeMeters>724.4000244140625</AltitudeMeters>
            <DistanceMeters>17388.613011173</DistanceMeters>
          </Trackpoint>
          <Trackpoint>
            <Time>2022-08-27T00:40:28.000Z</Time>
            <Position>
              <LatitudeDegrees>50.18041991628706455230712890625</LatitudeDegrees>
              <LongitudeDegrees>17.00447534210979938507080078125</LongitudeDegrees>
            </Position>
            <AltitudeMeters>723.79998779296875</AltitudeMeters>
            <DistanceMeters>17395.508834732</DistanceMeters>
          </Trackpoint>
          <Trackpoint>
            <Time>2022-08-27T00:40:34.000Z</Time>
            <Position>
              <LatitudeDegrees>50.1804297231137752532958984375</LatitudeDegrees>
              <LongitudeDegrees>17.0043711550533771514892578125</LongitudeDegrees>
            </Position>
            <AltitudeMeters>722.79998779296875</AltitudeMeters>
            <DistanceMeters>17403.015343708</DistanceMeters>
          </Trackpoint>
          <Trackpoint>
            <Time>2022-08-27T00:40:37.000Z</Time>
            <Position>
              <LatitudeDegrees>50.18043416552245616912841796875</LatitudeDegrees>
              <LongitudeDegrees>17.00432614423334598541259765625</LongitudeDegrees>
            </Position>
            <AltitudeMeters>722.4000244140625</AltitudeMeters>
            <DistanceMeters>17406.262978122</DistanceMeters>
          </Trackpoint>
          <Trackpoint>
            <Time>2022-08-27T00:40:40.000Z</Time>
            <Position>
              <LatitudeDegrees>50.18044908531010150909423828125</LatitudeDegrees>
              <LongitudeDegrees>17.00427065603435039520263671875</LongitudeDegrees>
            </Position>
            <AltitudeMeters>721.79998779296875</AltitudeMeters>
            <DistanceMeters>17410.551831782</DistanceMeters>
          </Trackpoint>
          <Trackpoint>
            <Time>2022-08-27T00:40:45.000Z</Time>
            <Position>
              <LatitudeDegrees>50.18046115525066852569580078125</LatitudeDegrees>
              <LongitudeDegrees>17.00420930050313472747802734375</LongitudeDegrees>
            </Position>
            <AltitudeMeters>720.4000244140625</AltitudeMeters>
            <DistanceMeters>17415.126951146</DistanceMeters>
          </Trackpoint>
          <Trackpoint>
            <Time>2022-08-27T00:40:49.000Z</Time>
            <Position>
              <LatitudeDegrees>50.1804749853909015655517578125</LatitudeDegrees>
              <LongitudeDegrees>17.00415783561766147613525390625</LongitudeDegrees>
            </Position>
            <AltitudeMeters>719.5999755859375</AltitudeMeters>
            <DistanceMeters>17419.105609715</DistanceMeters>
          </Trackpoint>
          <Trackpoint>
            <Time>2022-08-27T00:40:50.000Z</Time>
            <Position>
              <LatitudeDegrees>50.180475153028964996337890625</LatitudeDegrees>
              <LongitudeDegrees>17.004148028790950775146484375</LongitudeDegrees>
            </Position>
            <AltitudeMeters>719.4000244140625</AltitudeMeters>
            <DistanceMeters>17419.803910601</DistanceMeters>
          </Trackpoint>
          <Trackpoint>
            <Time>2022-08-27T00:40:56.000Z</Time>
            <Position>
              <LatitudeDegrees>50.1804689504206180572509765625</LatitudeDegrees>
              <LongitudeDegrees>17.00408809818327426910400390625</LongitudeDegrees>
            </Position>
            <AltitudeMeters>718.4000244140625</AltitudeMeters>
            <DistanceMeters>17424.130496839</DistanceMeters>
          </Trackpoint>
          <Trackpoint>
            <Time>2022-08-27T00:41:01.000Z</Time>
            <Position>
              <LatitudeDegrees>50.1804853789508342742919921875</LatitudeDegrees>
              <LongitudeDegrees>17.00404820032417774200439453125</LongitudeDegrees>
            </Position>
            <AltitudeMeters>716.79998779296875</AltitudeMeters>
            <DistanceMeters>17427.511632266</DistanceMeters>
          </Trackpoint>
          <Trackpoint>
            <Time>2022-08-27T00:41:03.000Z</Time>
            <Position>
              <LatitudeDegrees>50.180497281253337860107421875</LatitudeDegrees>
              <LongitudeDegrees>17.00402355752885341644287109375</LongitudeDegrees>
            </Position>
            <AltitudeMeters>716.4000244140625</AltitudeMeters>
            <DistanceMeters>17429.709606537</DistanceMeters>
          </Trackpoint>
          <Trackpoint>
            <Time>2022-08-27T00:41:06.000Z</Time>
            <Position>
              <LatitudeDegrees>50.18050943501293659210205078125</LatitudeDegrees>
              <LongitudeDegrees>17.00398332439363002777099609375</LongitudeDegrees>
            </Position>
            <AltitudeMeters>715.79998779296875</AltitudeMeters>
            <DistanceMeters>17432.879854963</DistanceMeters>
          </Trackpoint>
          <Trackpoint>
            <Time>2022-08-27T00:41:13.000Z</Time>
            <Position>
              <LatitudeDegrees>50.180536843836307525634765625</LatitudeDegrees>
              <LongitudeDegrees>17.0039378106594085693359375</LongitudeDegrees>
            </Position>
            <AltitudeMeters>714.4000244140625</AltitudeMeters>
            <DistanceMeters>17437.333962949</DistanceMeters>
          </Trackpoint>
          <Trackpoint>
            <Time>2022-08-27T00:41:16.000Z</Time>
            <Position>
              <LatitudeDegrees>50.18055167980492115020751953125</LatitudeDegrees>
              <LongitudeDegrees>17.00390721671283245086669921875</LongitudeDegrees>
            </Position>
            <AltitudeMeters>713.79998779296875</AltitudeMeters>
            <DistanceMeters>17440.070006328</DistanceMeters>
          </Trackpoint>
          <Trackpoint>
            <Time>2022-08-27T00:41:18.000Z</Time>
            <Position>
              <LatitudeDegrees>50.1805735565721988677978515625</LatitudeDegrees>
              <LongitudeDegrees>17.003869749605655670166015625</LongitudeDegrees>
            </Position>
            <AltitudeMeters>713</AltitudeMeters>
            <DistanceMeters>17443.683521312</DistanceMeters>
          </Trackpoint>
          <Trackpoint>
            <Time>2022-08-27T00:41:24.000Z</Time>
            <Position>
              <LatitudeDegrees>50.180617980659008026123046875</LatitudeDegrees>
              <LongitudeDegrees>17.00382390059530735015869140625</LongitudeDegrees>
            </Position>
            <AltitudeMeters>712</AltitudeMeters>
            <DistanceMeters>17449.610324612</DistanceMeters>
          </Trackpoint>
          <Trackpoint>
            <Time>2022-08-27T00:41:28.000Z</Time>
            <Position>
              <LatitudeDegrees>50.18064471893012523651123046875</LatitudeDegrees>
              <LongitudeDegrees>17.00381577014923095703125</LongitudeDegrees>
            </Position>
            <AltitudeMeters>711.4000244140625</AltitudeMeters>
            <DistanceMeters>17452.64225763</DistanceMeters>
          </Trackpoint>
          <Trackpoint>
            <Time>2022-08-27T00:41:31.000Z</Time>
            <Position>
              <LatitudeDegrees>50.18066248856484889984130859375</LatitudeDegrees>
              <LongitudeDegrees>17.0037807337939739227294921875</LongitudeDegrees>
            </Position>
            <AltitudeMeters>710.5999755859375</AltitudeMeters>
            <DistanceMeters>17455.828133635</DistanceMeters>
          </Trackpoint>
          <Trackpoint>
            <Time>2022-08-27T00:41:40.000Z</Time>
            <Position>
              <LatitudeDegrees>50.1807039789855480194091796875</LatitudeDegrees>
              <LongitudeDegrees>17.0037351362407207489013671875</LongitudeDegrees>
            </Position>
            <AltitudeMeters>709.5999755859375</AltitudeMeters>
            <DistanceMeters>17461.474831779</DistanceMeters>
          </Trackpoint>
          <Trackpoint>
            <Time>2022-08-27T00:41:41.000Z</Time>
            <Position>
              <LatitudeDegrees>50.18070657737553119659423828125</LatitudeDegrees>
              <LongitudeDegrees>17.00373471714556217193603515625</LongitudeDegrees>
            </Position>
            <AltitudeMeters>709.4000244140625</AltitudeMeters>
            <DistanceMeters>17461.775332635</DistanceMeters>
          </Trackpoint>
          <Trackpoint>
            <Time>2022-08-27T00:41:48.000Z</Time>
            <Position>
              <LatitudeDegrees>50.1807415299117565155029296875</LatitudeDegrees>
              <LongitudeDegrees>17.003690712153911590576171875</LongitudeDegrees>
            </Position>
            <AltitudeMeters>708.20001220703125</AltitudeMeters>
            <DistanceMeters>17466.773051258</DistanceMeters>
          </Trackpoint>
          <Trackpoint>
            <Time>2022-08-27T00:41:54.000Z</Time>
            <Position>
              <LatitudeDegrees>50.18077262677252292633056640625</LatitudeDegrees>
              <LongitudeDegrees>17.00366062112152576446533203125</LongitudeDegrees>
            </Position>
            <AltitudeMeters>707.4000244140625</AltitudeMeters>
            <DistanceMeters>17470.844810135</DistanceMeters>
          </Trackpoint>
          <Trackpoint>
            <Time>2022-08-27T00:41:56.000Z</Time>
            <Position>
              <LatitudeDegrees>50.18078754656016826629638671875</LatitudeDegrees>
              <LongitudeDegrees>17.0036563463509082794189453125</LongitudeDegrees>
            </Position>
            <AltitudeMeters>707.20001220703125</AltitudeMeters>
            <DistanceMeters>17472.53404196</DistanceMeters>
          </Trackpoint>
          <Trackpoint>
            <Time>2022-08-27T00:42:05.000Z</Time>
            <Position>
              <LatitudeDegrees>50.18085409887135028839111328125</LatitudeDegrees>
              <LongitudeDegrees>17.0036322064697742462158203125</LongitudeDegrees>
            </Position>
            <AltitudeMeters>706.20001220703125</AltitudeMeters>
            <DistanceMeters>17480.138554406</DistanceMeters>
          </Trackpoint>
          <Trackpoint>
            <Time>2022-08-27T00:42:06.000Z</Time>
            <Position>
              <LatitudeDegrees>50.1808592118322849273681640625</LatitudeDegrees>
              <LongitudeDegrees>17.00363346375524997711181640625</LongitudeDegrees>
            </Position>
            <AltitudeMeters>705.79998779296875</AltitudeMeters>
            <DistanceMeters>17480.708714692</DistanceMeters>
          </Trackpoint>
          <Trackpoint>
            <Time>2022-08-27T00:42:13.000Z</Time>
            <Position>
              <LatitudeDegrees>50.1809158734977245330810546875</LatitudeDegrees>
              <LongitudeDegrees>17.00362441129982471466064453125</LongitudeDegrees>
            </Position>
            <AltitudeMeters>704.79998779296875</AltitudeMeters>
            <DistanceMeters>17487.047787193</DistanceMeters>
          </Trackpoint>
          <Trackpoint>
            <Time>2022-08-27T00:42:18.000Z</Time>
            <Position>
              <LatitudeDegrees>50.1809587888419628143310546875</LatitudeDegrees>
              <LongitudeDegrees>17.0036325417459011077880859375</LongitudeDegrees>
            </Position>
            <AltitudeMeters>704.20001220703125</AltitudeMeters>
            <DistanceMeters>17491.859555684</DistanceMeters>
          </Trackpoint>
          <Trackpoint>
            <Time>2022-08-27T00:42:20.000Z</Time>
            <Position>
              <LatitudeDegrees>50.18097572028636932373046875</LatitudeDegrees>
              <LongitudeDegrees>17.00362256728112697601318359375</LongitudeDegrees>
            </Position>
            <AltitudeMeters>703.79998779296875</AltitudeMeters>
            <DistanceMeters>17493.870892117</DistanceMeters>
          </Trackpoint>
          <Trackpoint>
            <Time>2022-08-27T00:42:25.000Z</Time>
            <Position>
              <LatitudeDegrees>50.18101369030773639678955078125</LatitudeDegrees>
              <LongitudeDegrees>17.00358174741268157958984375</LongitudeDegrees>
            </Position>
            <AltitudeMeters>702.5999755859375</AltitudeMeters>
            <DistanceMeters>17499.002334693</DistanceMeters>
          </Trackpoint>
          <Trackpoint>
            <Time>2022-08-27T00:42:30.000Z</Time>
            <Position>
              <LatitudeDegrees>50.1810627244412899017333984375</LatitudeDegrees>
              <LongitudeDegrees>17.00352466665208339691162109375</LongitudeDegrees>
            </Position>
            <AltitudeMeters>701.5999755859375</AltitudeMeters>
            <DistanceMeters>17505.809856438</DistanceMeters>
          </Trackpoint>
          <Trackpoint>
            <Time>2022-08-27T00:42:31.000Z</Time>
            <Position>
              <LatitudeDegrees>50.18107496201992034912109375</LatitudeDegrees>
              <LongitudeDegrees>17.0035138539969921112060546875</LongitudeDegrees>
            </Position>
            <AltitudeMeters>701.4000244140625</AltitudeMeters>
            <DistanceMeters>17507.374193587</DistanceMeters>
          </Trackpoint>
          <Trackpoint>
            <Time>2022-08-27T00:42:37.000Z</Time>
            <Position>
              <LatitudeDegrees>50.181117542088031768798828125</LatitudeDegrees>
              <LongitudeDegrees>17.00344051234424114227294921875</LongitudeDegrees>
            </Position>
            <AltitudeMeters>700.4000244140625</AltitudeMeters>
            <DistanceMeters>17514.430527019</DistanceMeters>
          </Trackpoint>
          <Trackpoint>
            <Time>2022-08-27T00:42:43.000Z</Time>
            <Position>
              <LatitudeDegrees>50.1811676658689975738525390625</LatitudeDegrees>
              <LongitudeDegrees>17.003405727446079254150390625</LongitudeDegrees>
            </Position>
            <AltitudeMeters>699</AltitudeMeters>
            <DistanceMeters>17520.535947198</DistanceMeters>
          </Trackpoint>
          <Trackpoint>
            <Time>2022-08-27T00:42:50.000Z</Time>
            <Position>
              <LatitudeDegrees>50.18123966641724109649658203125</LatitudeDegrees>
              <LongitudeDegrees>17.0033046416938304901123046875</LongitudeDegrees>
            </Position>
            <AltitudeMeters>697.79998779296875</AltitudeMeters>
            <DistanceMeters>17531.312160962</DistanceMeters>
          </Trackpoint>
          <Trackpoint>
            <Time>2022-08-27T00:42:54.000Z</Time>
            <Position>
              <LatitudeDegrees>50.18132868222892284393310546875</LatitudeDegrees>
              <LongitudeDegrees>17.003264911472797393798828125</LongitudeDegrees>
            </Position>
            <AltitudeMeters>697.20001220703125</AltitudeMeters>
            <DistanceMeters>17541.616317348</DistanceMeters>
          </Trackpoint>
          <Trackpoint>
            <Time>2022-08-27T00:42:58.000Z</Time>
            <Position>
              <LatitudeDegrees>50.1813854277133941650390625</LatitudeDegrees>
              <LongitudeDegrees>17.00324554927647113800048828125</LongitudeDegrees>
            </Position>
            <AltitudeMeters>696.4000244140625</AltitudeMeters>
            <DistanceMeters>17548.080928224</DistanceMeters>
          </Trackpoint>
          <Trackpoint>
            <Time>2022-08-27T00:43:04.000Z</Time>
            <Position>
              <LatitudeDegrees>50.181422643363475799560546875</LatitudeDegrees>
              <LongitudeDegrees>17.0031997002661228179931640625</LongitudeDegrees>
            </Position>
            <AltitudeMeters>696</AltitudeMeters>
            <DistanceMeters>17553.356408828</DistanceMeters>
          </Trackpoint>
          <Trackpoint>
            <Time>2022-08-27T00:43:08.000Z</Time>
            <Position>
              <LatitudeDegrees>50.1814620383083820343017578125</LatitudeDegrees>
              <LongitudeDegrees>17.0031748898327350616455078125</LongitudeDegrees>
            </Position>
            <AltitudeMeters>695.4000244140625</AltitudeMeters>
            <DistanceMeters>17558.084883135</DistanceMeters>
          </Trackpoint>
          <Trackpoint>
            <Time>2022-08-27T00:43:11.000Z</Time>
            <Position>
              <LatitudeDegrees>50.18150009214878082275390625</LatitudeDegrees>
              <LongitudeDegrees>17.00316072441637516021728515625</LongitudeDegrees>
            </Position>
            <AltitudeMeters>695</AltitudeMeters>
            <DistanceMeters>17562.439554251</DistanceMeters>
          </Trackpoint>
          <Trackpoint>
            <Time>2022-08-27T00:43:15.000Z</Time>
            <Position>
              <LatitudeDegrees>50.18153068609535694122314453125</LatitudeDegrees>
              <LongitudeDegrees>17.003129459917545318603515625</LongitudeDegrees>
            </Position>
            <AltitudeMeters>694.20001220703125</AltitudeMeters>
            <DistanceMeters>17566.50909479</DistanceMeters>
          </Trackpoint>
          <Trackpoint>
            <Time>2022-08-27T00:43:21.000Z</Time>
            <Position>
              <LatitudeDegrees>50.1815277524292469024658203125</LatitudeDegrees>
              <LongitudeDegrees>17.00305293314158916473388671875</LongitudeDegrees>
            </Position>
            <AltitudeMeters>693.4000244140625</AltitudeMeters>
            <DistanceMeters>17571.972924283</DistanceMeters>
          </Trackpoint>
          <Trackpoint>
            <Time>2022-08-27T00:43:25.000Z</Time>
            <Position>
              <LatitudeDegrees>50.18152850680053234100341796875</LatitudeDegrees>
              <LongitudeDegrees>17.00305075384676456451416015625</LongitudeDegrees>
            </Position>
            <AltitudeMeters>693</AltitudeMeters>
            <DistanceMeters>17572.162977712</DistanceMeters>
          </Trackpoint>
          <Trackpoint>
            <Time>2022-08-27T00:43:30.000Z</Time>
            <Position>
              <LatitudeDegrees>50.18153638578951358795166015625</LatitudeDegrees>
              <LongitudeDegrees>17.003047652542591094970703125</LongitudeDegrees>
            </Position>
            <AltitudeMeters>693</AltitudeMeters>
            <DistanceMeters>17573.06448028</DistanceMeters>
          </Trackpoint>
          <Trackpoint>
            <Time>2022-08-27T00:43:39.000Z</Time>
            <Position>
              <LatitudeDegrees>50.18158701248466968536376953125</LatitudeDegrees>
              <LongitudeDegrees>17.00301982462406158447265625</LongitudeDegrees>
            </Position>
            <AltitudeMeters>692.79998779296875</AltitudeMeters>
            <DistanceMeters>17579.037572614</DistanceMeters>
          </Trackpoint>
          <Trackpoint>
            <Time>2022-08-27T00:43:50.000Z</Time>
            <Position>
              <LatitudeDegrees>50.18165909685194492340087890625</LatitudeDegrees>
              <LongitudeDegrees>17.00297682546079158782958984375</LongitudeDegrees>
            </Position>
            <AltitudeMeters>692</AltitudeMeters>
            <DistanceMeters>17587.625800859</DistanceMeters>
          </Trackpoint>
          <Trackpoint>
            <Time>2022-08-27T00:43:53.000Z</Time>
            <Position>
              <LatitudeDegrees>50.18167845904827117919921875</LatitudeDegrees>
              <LongitudeDegrees>17.0029633305966854095458984375</LongitudeDegrees>
            </Position>
            <AltitudeMeters>691.79998779296875</AltitudeMeters>
            <DistanceMeters>17589.986215476</DistanceMeters>
          </Trackpoint>
          <Trackpoint>
            <Time>2022-08-27T00:44:02.000Z</Time>
            <Position>
              <LatitudeDegrees>50.18173956312239170074462890625</LatitudeDegrees>
              <LongitudeDegrees>17.0028885640203952789306640625</LongitudeDegrees>
            </Position>
            <AltitudeMeters>691</AltitudeMeters>
            <DistanceMeters>17598.625811062</DistanceMeters>
          </Trackpoint>
          <Trackpoint>
            <Time>2022-08-27T00:44:05.000Z</Time>
            <Position>
              <LatitudeDegrees>50.18176831305027008056640625</LatitudeDegrees>
              <LongitudeDegrees>17.00287557207047939300537109375</LongitudeDegrees>
            </Position>
            <AltitudeMeters>690.5999755859375</AltitudeMeters>
            <DistanceMeters>17601.958526775</DistanceMeters>
          </Trackpoint>
          <Trackpoint>
            <Time>2022-08-27T00:44:12.000Z</Time>
            <Position>
              <LatitudeDegrees>50.18183134496212005615234375</LatitudeDegrees>
              <LongitudeDegrees>17.00282293371856212615966796875</LongitudeDegrees>
            </Position>
            <AltitudeMeters>690</AltitudeMeters>
            <DistanceMeters>17609.914141509</DistanceMeters>
          </Trackpoint>
          <Trackpoint>
            <Time>2022-08-27T00:44:17.000Z</Time>
            <Position>
              <LatitudeDegrees>50.1818818040192127227783203125</LatitudeDegrees>
              <LongitudeDegrees>17.00277213938534259796142578125</LongitudeDegrees>
            </Position>
            <AltitudeMeters>689.4000244140625</AltitudeMeters>
            <DistanceMeters>17616.595810308</DistanceMeters>
          </Trackpoint>
          <Trackpoint>
            <Time>2022-08-27T00:44:23.000Z</Time>
            <Position>
              <LatitudeDegrees>50.1819357834756374359130859375</LatitudeDegrees>
              <LongitudeDegrees>17.00270206667482852935791015625</LongitudeDegrees>
            </Position>
            <AltitudeMeters>688.4000244140625</AltitudeMeters>
            <DistanceMeters>17624.408832564</DistanceMeters>
          </Trackpoint>
          <Trackpoint>
            <Time>2022-08-27T00:44:26.000Z</Time>
            <Position>
              <LatitudeDegrees>50.18195363692939281463623046875</LatitudeDegrees>
              <LongitudeDegrees>17.00267407111823558807373046875</LongitudeDegrees>
            </Position>
            <AltitudeMeters>688.20001220703125</AltitudeMeters>
            <DistanceMeters>17627.224575293</DistanceMeters>
          </Trackpoint>
          <Trackpoint>
            <Time>2022-08-27T00:44:33.000Z</Time>
            <Position>
              <LatitudeDegrees>50.18198448233306407928466796875</LatitudeDegrees>
              <LongitudeDegrees>17.002622187137603759765625</LongitudeDegrees>
            </Position>
            <AltitudeMeters>687.4000244140625</AltitudeMeters>
            <DistanceMeters>17632.269947974</DistanceMeters>
          </Trackpoint>
          <Trackpoint>
            <Time>2022-08-27T00:44:37.000Z</Time>
            <Position>
              <LatitudeDegrees>50.18200560472905635833740234375</LatitudeDegrees>
              <LongitudeDegrees>17.002591677010059356689453125</LongitudeDegrees>
            </Position>
            <AltitudeMeters>686.4000244140625</AltitudeMeters>
            <DistanceMeters>17635.471375276</DistanceMeters>
          </Trackpoint>
          <Trackpoint>
            <Time>2022-08-27T00:44:42.000Z</Time>
            <Position>
              <LatitudeDegrees>50.1820283196866512298583984375</LatitudeDegrees>
              <LongitudeDegrees>17.00256175361573696136474609375</LongitudeDegrees>
            </Position>
            <AltitudeMeters>686</AltitudeMeters>
            <DistanceMeters>17638.776884691</DistanceMeters>
          </Trackpoint>
          <Trackpoint>
            <Time>2022-08-27T00:44:48.000Z</Time>
            <Position>
              <LatitudeDegrees>50.182052962481975555419921875</LatitudeDegrees>
              <LongitudeDegrees>17.00251288712024688720703125</LongitudeDegrees>
            </Position>
            <AltitudeMeters>685.20001220703125</AltitudeMeters>
            <DistanceMeters>17643.209654293</DistanceMeters>
          </Trackpoint>
          <Trackpoint>
            <Time>2022-08-27T00:44:51.000Z</Time>
            <Position>
              <LatitudeDegrees>50.1820665411651134490966796875</LatitudeDegrees>
              <LongitudeDegrees>17.00247877277433872222900390625</LongitudeDegrees>
            </Position>
            <AltitudeMeters>684.79998779296875</AltitudeMeters>
            <DistanceMeters>17646.073097921</DistanceMeters>
          </Trackpoint>
          <Trackpoint>
            <Time>2022-08-27T00:44:59.000Z</Time>
            <Position>
              <LatitudeDegrees>50.18210182897746562957763671875</LatitudeDegrees>
              <LongitudeDegrees>17.002383135259151458740234375</LongitudeDegrees>
            </Position>
            <AltitudeMeters>684</AltitudeMeters>
            <DistanceMeters>17653.940253948</DistanceMeters>
          </Trackpoint>
          <Trackpoint>
            <Time>2022-08-27T00:45:01.000Z</Time>
            <Position>
              <LatitudeDegrees>50.18211004324257373809814453125</LatitudeDegrees>
              <LongitudeDegrees>17.0023662038147449493408203125</LongitudeDegrees>
            </Position>
            <AltitudeMeters>683.79998779296875</AltitudeMeters>
            <DistanceMeters>17655.448756272</DistanceMeters>
          </Trackpoint>
          <Trackpoint>
            <Time>2022-08-27T00:45:08.000Z</Time>
            <Position>
              <LatitudeDegrees>50.18214440904557704925537109375</LatitudeDegrees>
              <LongitudeDegrees>17.0023043453693389892578125</LongitudeDegrees>
            </Position>
            <AltitudeMeters>682.5999755859375</AltitudeMeters>
            <DistanceMeters>17661.284974941</DistanceMeters>
          </Trackpoint>
          <Trackpoint>
            <Time>2022-08-27T00:45:11.000Z</Time>
            <Position>
              <LatitudeDegrees>50.18216259777545928955078125</LatitudeDegrees>
              <LongitudeDegrees>17.0022780261933803558349609375</LongitudeDegrees>
            </Position>
            <AltitudeMeters>682.4000244140625</AltitudeMeters>
            <DistanceMeters>17664.045660457</DistanceMeters>
          </Trackpoint>
          <Trackpoint>
            <Time>2022-08-27T00:45:17.000Z</Time>
            <Position>
              <LatitudeDegrees>50.1821949519217014312744140625</LatitudeDegrees>
              <LongitudeDegrees>17.002184651792049407958984375</LongitudeDegrees>
            </Position>
            <AltitudeMeters>681.5999755859375</AltitudeMeters>
            <DistanceMeters>17671.613272023</DistanceMeters>
          </Trackpoint>
          <Trackpoint>
            <Time>2022-08-27T00:45:22.000Z</Time>
            <Position>
              <LatitudeDegrees>50.18221297301352024078369140625</LatitudeDegrees>
              <LongitudeDegrees>17.00210695154964923858642578125</LongitudeDegrees>
            </Position>
            <AltitudeMeters>681</AltitudeMeters>
            <DistanceMeters>17677.503395425</DistanceMeters>
          </Trackpoint>
          <Trackpoint>
            <Time>2022-08-27T00:45:27.000Z</Time>
            <Position>
              <LatitudeDegrees>50.18222437240183353424072265625</LatitudeDegrees>
              <LongitudeDegrees>17.0020326040685176849365234375</LongitudeDegrees>
            </Position>
            <AltitudeMeters>680.20001220703125</AltitudeMeters>
            <DistanceMeters>17682.952330307</DistanceMeters>
          </Trackpoint>
          <Trackpoint>
            <Time>2022-08-27T00:45:31.000Z</Time>
            <Position>
              <LatitudeDegrees>50.1822392083704471588134765625</LatitudeDegrees>
              <LongitudeDegrees>17.00200201012194156646728515625</LongitudeDegrees>
            </Position>
            <AltitudeMeters>679.79998779296875</AltitudeMeters>
            <DistanceMeters>17685.686722981</DistanceMeters>
          </Trackpoint>
          <Trackpoint>
            <Time>2022-08-27T00:45:36.000Z</Time>
            <Position>
              <LatitudeDegrees>50.18225991167128086090087890625</LatitudeDegrees>
              <LongitudeDegrees>17.00196295045316219329833984375</LongitudeDegrees>
            </Position>
            <AltitudeMeters>679.20001220703125</AltitudeMeters>
            <DistanceMeters>17689.300237965</DistanceMeters>
          </Trackpoint>
          <Trackpoint>
            <Time>2022-08-27T00:45:42.000Z</Time>
            <Position>
              <LatitudeDegrees>50.18226007930934429168701171875</LatitudeDegrees>
              <LongitudeDegrees>17.0019447617232799530029296875</LongitudeDegrees>
            </Position>
            <AltitudeMeters>678.20001220703125</AltitudeMeters>
            <DistanceMeters>17690.596229561</DistanceMeters>
          </Trackpoint>
          <Trackpoint>
            <Time>2022-08-27T00:45:43.000Z</Time>
            <Position>
              <LatitudeDegrees>50.18225915729999542236328125</LatitudeDegrees>
              <LongitudeDegrees>17.001943252980709075927734375</LongitudeDegrees>
            </Position>
            <AltitudeMeters>678</AltitudeMeters>
            <DistanceMeters>17690.73061763</DistanceMeters>
          </Trackpoint>
          <Trackpoint>
            <Time>2022-08-27T00:45:56.000Z</Time>
            <Position>
              <LatitudeDegrees>50.1822566427290439605712890625</LatitudeDegrees>
              <LongitudeDegrees>17.0019430853426456451416015625</LongitudeDegrees>
            </Position>
            <AltitudeMeters>677.5999755859375</AltitudeMeters>
            <DistanceMeters>17691.015697773</DistanceMeters>
          </Trackpoint>
          <Trackpoint>
            <Time>2022-08-27T00:46:07.000Z</Time>
            <Position>
              <LatitudeDegrees>50.18225505016744136810302734375</LatitudeDegrees>
              <LongitudeDegrees>17.00194484554231166839599609375</LongitudeDegrees>
            </Position>
            <AltitudeMeters>677.5999755859375</AltitudeMeters>
            <DistanceMeters>17691.228183966</DistanceMeters>
          </Trackpoint>
          <Trackpoint>
            <Time>2022-08-27T00:46:19.000Z</Time>
            <Position>
              <LatitudeDegrees>50.18225018866360187530517578125</LatitudeDegrees>
              <LongitudeDegrees>17.00194316916167736053466796875</LongitudeDegrees>
            </Position>
            <AltitudeMeters>677.4000244140625</AltitudeMeters>
            <DistanceMeters>17691.79036959</DistanceMeters>
          </Trackpoint>
          <Trackpoint>
            <Time>2022-08-27T00:46:27.000Z</Time>
            <Position>
              <LatitudeDegrees>50.182218253612518310546875</LatitudeDegrees>
              <LongitudeDegrees>17.0018736831843852996826171875</LongitudeDegrees>
            </Position>
            <AltitudeMeters>677.4000244140625</AltitudeMeters>
            <DistanceMeters>17697.886909153</DistanceMeters>
          </Trackpoint>
          <Trackpoint>
            <Time>2022-08-27T00:46:39.000Z</Time>
            <Position>
              <LatitudeDegrees>50.182197131216526031494140625</LatitudeDegrees>
              <LongitudeDegrees>17.0017549954354763031005859375</LongitudeDegrees>
            </Position>
            <AltitudeMeters>677</AltitudeMeters>
            <DistanceMeters>17706.666472497</DistanceMeters>
          </Trackpoint>
          <Trackpoint>
            <Time>2022-08-27T00:46:43.000Z</Time>
            <Position>
              <LatitudeDegrees>50.18219218589365482330322265625</LatitudeDegrees>
              <LongitudeDegrees>17.00171048752963542938232421875</LongitudeDegrees>
            </Position>
            <AltitudeMeters>676.79998779296875</AltitudeMeters>
            <DistanceMeters>17709.886181763</DistanceMeters>
          </Trackpoint>
          <Trackpoint>
            <Time>2022-08-27T00:46:51.000Z</Time>
            <Position>
              <LatitudeDegrees>50.182168297469615936279296875</LatitudeDegrees>
              <LongitudeDegrees>17.0016014389693737030029296875</LongitudeDegrees>
            </Position>
            <AltitudeMeters>676.5999755859375</AltitudeMeters>
            <DistanceMeters>17718.101459686</DistanceMeters>
          </Trackpoint>
          <Trackpoint>
            <Time>2022-08-27T00:47:05.000Z</Time>
            <Position>
              <LatitudeDegrees>50.18213686533272266387939453125</LatitudeDegrees>
              <LongitudeDegrees>17.001426927745342254638671875</LongitudeDegrees>
            </Position>
            <AltitudeMeters>675.79998779296875</AltitudeMeters>
            <DistanceMeters>17731.022297634</DistanceMeters>
          </Trackpoint>
          <Trackpoint>
            <Time>2022-08-27T00:47:17.000Z</Time>
            <Position>
              <LatitudeDegrees>50.18210082314908504486083984375</LatitudeDegrees>
              <LongitudeDegrees>17.00127244926989078521728515625</LongitudeDegrees>
            </Position>
            <AltitudeMeters>675.5999755859375</AltitudeMeters>
            <DistanceMeters>17742.740289886</DistanceMeters>
          </Trackpoint>
          <Trackpoint>
            <Time>2022-08-27T00:47:19.000Z</Time>
            <Position>
              <LatitudeDegrees>50.1820879988372325897216796875</LatitudeDegrees>
              <LongitudeDegrees>17.00126188807189464569091796875</LongitudeDegrees>
            </Position>
            <AltitudeMeters>675.5999755859375</AltitudeMeters>
            <DistanceMeters>17744.352946705</DistanceMeters>
          </Trackpoint>
          <Trackpoint>
            <Time>2022-08-27T00:47:29.000Z</Time>
            <Position>
              <LatitudeDegrees>50.1820249669253826141357421875</LatitudeDegrees>
              <LongitudeDegrees>17.00115191750228404998779296875</LongitudeDegrees>
            </Position>
            <AltitudeMeters>675.4000244140625</AltitudeMeters>
            <DistanceMeters>17754.872193672</DistanceMeters>
          </Trackpoint>
          <Trackpoint>
            <Time>2022-08-27T00:47:43.000Z</Time>
            <Position>
              <LatitudeDegrees>50.181961096823215484619140625</LatitudeDegrees>
              <LongitudeDegrees>17.00098176486790180206298828125</LongitudeDegrees>
            </Position>
            <AltitudeMeters>674.79998779296875</AltitudeMeters>
            <DistanceMeters>17768.929082828</DistanceMeters>
          </Trackpoint>
          <Trackpoint>
            <Time>2022-08-27T00:47:53.000Z</Time>
            <Position>
              <LatitudeDegrees>50.1818737573921680450439453125</LatitudeDegrees>
              <LongitudeDegrees>17.00085586868226528167724609375</LongitudeDegrees>
            </Position>
            <AltitudeMeters>674.4000244140625</AltitudeMeters>
            <DistanceMeters>17782.15828959</DistanceMeters>
          </Trackpoint>
          <Trackpoint>
            <Time>2022-08-27T00:47:56.000Z</Time>
            <Position>
              <LatitudeDegrees>50.1818516291677951812744140625</LatitudeDegrees>
              <LongitudeDegrees>17.000822760164737701416015625</LongitudeDegrees>
            </Position>
            <AltitudeMeters>674.4000244140625</AltitudeMeters>
            <DistanceMeters>17785.568676439</DistanceMeters>
          </Trackpoint>
          <Trackpoint>
            <Time>2022-08-27T00:48:03.000Z</Time>
            <Position>
              <LatitudeDegrees>50.18180879764258861541748046875</LatitudeDegrees>
              <LongitudeDegrees>17.00077858753502368927001953125</LongitudeDegrees>
            </Position>
            <AltitudeMeters>674.20001220703125</AltitudeMeters>
            <DistanceMeters>17791.280564585</DistanceMeters>
          </Trackpoint>
          <Trackpoint>
            <Time>2022-08-27T00:48:16.000Z</Time>
            <Position>
              <LatitudeDegrees>50.18172380514442920684814453125</LatitudeDegrees>
              <LongitudeDegrees>17.000755369663238525390625</LongitudeDegrees>
            </Position>
            <AltitudeMeters>673.4000244140625</AltitudeMeters>
            <DistanceMeters>17800.883906229</DistanceMeters>
          </Trackpoint>
          <Trackpoint>
            <Time>2022-08-27T00:48:21.000Z</Time>
            <Position>
              <LatitudeDegrees>50.18173478543758392333984375</LatitudeDegrees>
              <LongitudeDegrees>17.000763751566410064697265625</LongitudeDegrees>
            </Position>
            <AltitudeMeters>673.20001220703125</AltitudeMeters>
            <DistanceMeters>17802.244481721</DistanceMeters>
          </Trackpoint>
          <Trackpoint>
            <Time>2022-08-27T00:48:27.000Z</Time>
            <Position>
              <LatitudeDegrees>50.181742496788501739501953125</LatitudeDegrees>
              <LongitudeDegrees>17.00076836161315441131591796875</LongitudeDegrees>
            </Position>
            <AltitudeMeters>672.79998779296875</AltitudeMeters>
            <DistanceMeters>17803.165799899</DistanceMeters>
          </Trackpoint>
          <Trackpoint>
            <Time>2022-08-27T00:48:40.000Z</Time>
            <Position>
              <LatitudeDegrees>50.181745849549770355224609375</LatitudeDegrees>
              <LongitudeDegrees>17.0007562078535556793212890625</LongitudeDegrees>
            </Position>
            <AltitudeMeters>672.79998779296875</AltitudeMeters>
            <DistanceMeters>17804.106516377</DistanceMeters>
          </Trackpoint>
          <Trackpoint>
            <Time>2022-08-27T00:48:51.000Z</Time>
            <Position>
              <LatitudeDegrees>50.1817959733307361602783203125</LatitudeDegrees>
              <LongitudeDegrees>17.00071907602250576019287109375</LongitudeDegrees>
            </Position>
            <AltitudeMeters>672.79998779296875</AltitudeMeters>
            <DistanceMeters>17810.281059498</DistanceMeters>
          </Trackpoint>
          <Trackpoint>
            <Time>2022-08-27T00:49:03.000Z</Time>
            <Position>
              <LatitudeDegrees>50.18180527724325656890869140625</LatitudeDegrees>
              <LongitudeDegrees>17.00065252371132373809814453125</LongitudeDegrees>
            </Position>
            <AltitudeMeters>672.5999755859375</AltitudeMeters>
            <DistanceMeters>17815.136729338</DistanceMeters>
          </Trackpoint>
          <Trackpoint>
            <Time>2022-08-27T00:49:14.000Z</Time>
            <Position>
              <LatitudeDegrees>50.18180510960519313812255859375</LatitudeDegrees>
              <LongitudeDegrees>17.00064917095005512237548828125</LongitudeDegrees>
            </Position>
            <AltitudeMeters>672.5999755859375</AltitudeMeters>
            <DistanceMeters>17815.3694963</DistanceMeters>
          </Trackpoint>
          <Trackpoint>
            <Time>2022-08-27T00:49:27.000Z</Time>
            <Position>
              <LatitudeDegrees>50.181840397417545318603515625</LatitudeDegrees>
              <LongitudeDegrees>17.00061924755573272705078125</LongitudeDegrees>
            </Position>
            <AltitudeMeters>672.20001220703125</AltitudeMeters>
            <DistanceMeters>17819.838783614</DistanceMeters>
          </Trackpoint>
          <Trackpoint>
            <Time>2022-08-27T00:49:31.000Z</Time>
            <Position>
              <LatitudeDegrees>50.181843750178813934326171875</LatitudeDegrees>
              <LongitudeDegrees>17.00061799027025699615478515625</LongitudeDegrees>
            </Position>
            <AltitudeMeters>671.79998779296875</AltitudeMeters>
            <DistanceMeters>17820.218890471</DistanceMeters>
          </Trackpoint>
          <Trackpoint>
            <Time>2022-08-27T00:49:34.000Z</Time>
            <Position>
              <LatitudeDegrees>50.18185104243457317352294921875</LatitudeDegrees>
              <LongitudeDegrees>17.0005999691784381866455078125</LongitudeDegrees>
            </Position>
            <AltitudeMeters>671.5999755859375</AltitudeMeters>
            <DistanceMeters>17821.739317901</DistanceMeters>
          </Trackpoint>
          <Trackpoint>
            <Time>2022-08-27T00:49:44.000Z</Time>
            <Position>
              <LatitudeDegrees>50.18187685869634151458740234375</LatitudeDegrees>
              <LongitudeDegrees>17.000580690801143646240234375</LongitudeDegrees>
            </Position>
            <AltitudeMeters>672.4000244140625</AltitudeMeters>
            <DistanceMeters>17824.923776387</DistanceMeters>
          </Trackpoint>
          <Trackpoint>
            <Time>2022-08-27T00:49:49.000Z</Time>
            <Position>
              <LatitudeDegrees>50.18188188783824443817138671875</LatitudeDegrees>
              <LongitudeDegrees>17.00058211572468280792236328125</LongitudeDegrees>
            </Position>
            <AltitudeMeters>672.79998779296875</AltitudeMeters>
            <DistanceMeters>17825.493936673</DistanceMeters>
          </Trackpoint>
          <Trackpoint>
            <Time>2022-08-27T00:49:57.000Z</Time>
            <Position>
              <LatitudeDegrees>50.18191625364124774932861328125</LatitudeDegrees>
              <LongitudeDegrees>17.00057230889797210693359375</LongitudeDegrees>
            </Position>
            <AltitudeMeters>673.79998779296875</AltitudeMeters>
            <DistanceMeters>17829.381911463</DistanceMeters>
          </Trackpoint>
          <Trackpoint>
            <Time>2022-08-27T00:49:58.000Z</Time>
            <Position>
              <LatitudeDegrees>50.181918181478977203369140625</LatitudeDegrees>
              <LongitudeDegrees>17.0005721412599086761474609375</LongitudeDegrees>
            </Position>
            <AltitudeMeters>673.5999755859375</AltitudeMeters>
            <DistanceMeters>17829.614678425</DistanceMeters>
          </Trackpoint>
          <Trackpoint>
            <Time>2022-08-27T00:50:06.000Z</Time>
            <Position>
              <LatitudeDegrees>50.18194240517914295196533203125</LatitudeDegrees>
              <LongitudeDegrees>17.00058446265757083892822265625</LongitudeDegrees>
            </Position>
            <AltitudeMeters>674.5999755859375</AltitudeMeters>
            <DistanceMeters>17832.44959783</DistanceMeters>
          </Trackpoint>
          <Trackpoint>
            <Time>2022-08-27T00:50:08.000Z</Time>
            <Position>
              <LatitudeDegrees>50.18194357864558696746826171875</LatitudeDegrees>
              <LongitudeDegrees>17.00058345682919025421142578125</LongitudeDegrees>
            </Position>
            <AltitudeMeters>674.79998779296875</AltitudeMeters>
            <DistanceMeters>17832.614188928</DistanceMeters>
          </Trackpoint>
          <Trackpoint>
            <Time>2022-08-27T00:50:14.000Z</Time>
            <Position>
              <LatitudeDegrees>50.1819602586328983306884765625</LatitudeDegrees>
              <LongitudeDegrees>17.0005865581333637237548828125</LongitudeDegrees>
            </Position>
            <AltitudeMeters>675.79998779296875</AltitudeMeters>
            <DistanceMeters>17834.483584441</DistanceMeters>
          </Trackpoint>
          <Trackpoint>
            <Time>2022-08-27T00:50:20.000Z</Time>
            <Position>
              <LatitudeDegrees>50.1819589175283908843994140625</LatitudeDegrees>
              <LongitudeDegrees>17.00057557784020900726318359375</LongitudeDegrees>
            </Position>
            <AltitudeMeters>676.79998779296875</AltitudeMeters>
            <DistanceMeters>17835.278634974</DistanceMeters>
          </Trackpoint>
          <Trackpoint>
            <Time>2022-08-27T00:50:31.000Z</Time>
            <Position>
              <LatitudeDegrees>50.181975178420543670654296875</LatitudeDegrees>
              <LongitudeDegrees>17.00055546127259731292724609375</LongitudeDegrees>
            </Position>
            <AltitudeMeters>677.5999755859375</AltitudeMeters>
            <DistanceMeters>17837.586825846</DistanceMeters>
          </Trackpoint>
          <Trackpoint>
            <Time>2022-08-27T00:50:32.000Z</Time>
            <Position>
              <LatitudeDegrees>50.1819741725921630859375</LatitudeDegrees>
              <LongitudeDegrees>17.000553198158740997314453125</LongitudeDegrees>
            </Position>
            <AltitudeMeters>677.79998779296875</AltitudeMeters>
            <DistanceMeters>17837.776879275</DistanceMeters>
          </Trackpoint>
          <Trackpoint>
            <Time>2022-08-27T00:50:38.000Z</Time>
            <Position>
              <LatitudeDegrees>50.18197023309767246246337890625</LatitudeDegrees>
              <LongitudeDegrees>17.00054548680782318115234375</LongitudeDegrees>
            </Position>
            <AltitudeMeters>678.79998779296875</AltitudeMeters>
            <DistanceMeters>17838.475180162</DistanceMeters>
          </Trackpoint>
          <Trackpoint>
            <Time>2022-08-27T00:50:44.000Z</Time>
            <Position>
              <LatitudeDegrees>50.18196939490735530853271484375</LatitudeDegrees>
              <LongitudeDegrees>17.0005409605801105499267578125</LongitudeDegrees>
            </Position>
            <AltitudeMeters>679.79998779296875</AltitudeMeters>
            <DistanceMeters>17838.804362356</DistanceMeters>
          </Trackpoint>
          <Trackpoint>
            <Time>2022-08-27T00:50:45.000Z</Time>
            <Position>
              <LatitudeDegrees>50.18196922726929187774658203125</LatitudeDegrees>
              <LongitudeDegrees>17.00054146349430084228515625</LongitudeDegrees>
            </Position>
            <AltitudeMeters>680</AltitudeMeters>
            <DistanceMeters>17838.804362356</DistanceMeters>
          </Trackpoint>
          <Trackpoint>
            <Time>2022-08-27T00:50:57.000Z</Time>
            <Position>
              <LatitudeDegrees>50.18199873156845569610595703125</LatitudeDegrees>
              <LongitudeDegrees>17.00055009685456752777099609375</LongitudeDegrees>
            </Position>
            <AltitudeMeters>681</AltitudeMeters>
            <DistanceMeters>17842.145196756</DistanceMeters>
          </Trackpoint>
          <Trackpoint>
            <Time>2022-08-27T00:50:58.000Z</Time>
            <Position>
              <LatitudeDegrees>50.18200141377747058868408203125</LatitudeDegrees>
              <LongitudeDegrees>17.00055026449263095855712890625</LongitudeDegrees>
            </Position>
            <AltitudeMeters>681</AltitudeMeters>
            <DistanceMeters>17842.430276899</DistanceMeters>
          </Trackpoint>
          <Trackpoint>
            <Time>2022-08-27T00:51:04.000Z</Time>
            <Position>
              <LatitudeDegrees>50.18201784230768680572509765625</LatitudeDegrees>
              <LongitudeDegrees>17.0005399547517299652099609375</LongitudeDegrees>
            </Position>
            <AltitudeMeters>682.20001220703125</AltitudeMeters>
            <DistanceMeters>17844.400792788</DistanceMeters>
          </Trackpoint>
          <Trackpoint>
            <Time>2022-08-27T00:51:09.000Z</Time>
            <Position>
              <LatitudeDegrees>50.1820184290409088134765625</LatitudeDegrees>
              <LongitudeDegrees>17.00052746571600437164306640625</LongitudeDegrees>
            </Position>
            <AltitudeMeters>683.20001220703125</AltitudeMeters>
            <DistanceMeters>17845.297273019</DistanceMeters>
          </Trackpoint>
          <Trackpoint>
            <Time>2022-08-27T00:51:10.000Z</Time>
            <Position>
              <LatitudeDegrees>50.1820185966789722442626953125</LatitudeDegrees>
              <LongitudeDegrees>17.00052863918244838714599609375</LongitudeDegrees>
            </Position>
            <AltitudeMeters>683.20001220703125</AltitudeMeters>
            <DistanceMeters>17845.297273019</DistanceMeters>
          </Trackpoint>
          <Trackpoint>
            <Time>2022-08-27T00:51:20.000Z</Time>
            <Position>
              <LatitudeDegrees>50.18205665051937103271484375</LatitudeDegrees>
              <LongitudeDegrees>17.00050902552902698516845703125</LongitudeDegrees>
            </Position>
            <AltitudeMeters>684.20001220703125</AltitudeMeters>
            <DistanceMeters>17849.756446522</DistanceMeters>
          </Trackpoint>
          <Trackpoint>
            <Time>2022-08-27T00:51:23.000Z</Time>
            <Position>
              <LatitudeDegrees>50.1820828020572662353515625</LatitudeDegrees>
              <LongitudeDegrees>17.00050114654004573822021484375</LongitudeDegrees>
            </Position>
            <AltitudeMeters>685.5999755859375</AltitudeMeters>
            <DistanceMeters>17852.722132691</DistanceMeters>
          </Trackpoint>
          <Trackpoint>
            <Time>2022-08-27T00:51:28.000Z</Time>
            <Position>
              <LatitudeDegrees>50.18212345428764820098876953125</LatitudeDegrees>
              <LongitudeDegrees>17.0004594884812831878662109375</LongitudeDegrees>
            </Position>
            <AltitudeMeters>686.79998779296875</AltitudeMeters>
            <DistanceMeters>17858.134485967</DistanceMeters>
          </Trackpoint>
          <Trackpoint>
            <Time>2022-08-27T00:51:32.000Z</Time>
            <Position>
              <LatitudeDegrees>50.1821446605026721954345703125</LatitudeDegrees>
              <LongitudeDegrees>17.00045621953904628753662109375</LongitudeDegrees>
            </Position>
            <AltitudeMeters>687.79998779296875</AltitudeMeters>
            <DistanceMeters>17860.508252532</DistanceMeters>
          </Trackpoint>
          <Trackpoint>
            <Time>2022-08-27T00:51:37.000Z</Time>
            <Position>
              <LatitudeDegrees>50.182169638574123382568359375</LatitudeDegrees>
              <LongitudeDegrees>17.00043224729597568511962890625</LongitudeDegrees>
            </Position>
            <AltitudeMeters>688.79998779296875</AltitudeMeters>
            <DistanceMeters>17863.76975986</DistanceMeters>
          </Trackpoint>
          <Trackpoint>
            <Time>2022-08-27T00:51:38.000Z</Time>
            <Position>
              <LatitudeDegrees>50.18217726610600948333740234375</LatitudeDegrees>
              <LongitudeDegrees>17.000424452126026153564453125</LongitudeDegrees>
            </Position>
            <AltitudeMeters>689</AltitudeMeters>
            <DistanceMeters>17864.775428076</DistanceMeters>
          </Trackpoint>
          <Trackpoint>
            <Time>2022-08-27T00:51:48.000Z</Time>
            <Position>
              <LatitudeDegrees>50.18222722224891185760498046875</LatitudeDegrees>
              <LongitudeDegrees>17.00035999529063701629638671875</LongitudeDegrees>
            </Position>
            <AltitudeMeters>690</AltitudeMeters>
            <DistanceMeters>17871.987448619</DistanceMeters>
          </Trackpoint>
          <Trackpoint>
            <Time>2022-08-27T00:51:52.000Z</Time>
            <Position>
              <LatitudeDegrees>50.18223342485725879669189453125</LatitudeDegrees>
              <LongitudeDegrees>17.00034222565591335296630859375</LongitudeDegrees>
            </Position>
            <AltitudeMeters>691</AltitudeMeters>
            <DistanceMeters>17873.428600097</DistanceMeters>
          </Trackpoint>
          <Trackpoint>
            <Time>2022-08-27T00:51:57.000Z</Time>
            <Position>
              <LatitudeDegrees>50.1822439022362232208251953125</LatitudeDegrees>
              <LongitudeDegrees>17.00032780878245830535888671875</LongitudeDegrees>
            </Position>
            <AltitudeMeters>692</AltitudeMeters>
            <DistanceMeters>17874.984254457</DistanceMeters>
          </Trackpoint>
          <Trackpoint>
            <Time>2022-08-27T00:51:59.000Z</Time>
            <Position>
              <LatitudeDegrees>50.18224951811134815216064453125</LatitudeDegrees>
              <LongitudeDegrees>17.00031791813671588897705078125</LongitudeDegrees>
            </Position>
            <AltitudeMeters>692.4000244140625</AltitudeMeters>
            <DistanceMeters>17875.924970935</DistanceMeters>
          </Trackpoint>
          <Trackpoint>
            <Time>2022-08-27T00:52:06.000Z</Time>
            <Position>
              <LatitudeDegrees>50.1822677068412303924560546875</LatitudeDegrees>
              <LongitudeDegrees>17.0003020763397216796875</LongitudeDegrees>
            </Position>
            <AltitudeMeters>693</AltitudeMeters>
            <DistanceMeters>17878.242921643</DistanceMeters>
          </Trackpoint>
          <Trackpoint>
            <Time>2022-08-27T00:52:09.000Z</Time>
            <Position>
              <LatitudeDegrees>50.1822747476398944854736328125</LatitudeDegrees>
              <LongitudeDegrees>17.00029470026493072509765625</LongitudeDegrees>
            </Position>
            <AltitudeMeters>693.20001220703125</AltitudeMeters>
            <DistanceMeters>17879.193188786</DistanceMeters>
          </Trackpoint>
          <Trackpoint>
            <Time>2022-08-27T00:52:14.000Z</Time>
            <Position>
              <LatitudeDegrees>50.18228405155241489410400390625</LatitudeDegrees>
              <LongitudeDegrees>17.00028304941952228546142578125</LongitudeDegrees>
            </Position>
            <AltitudeMeters>694.5999755859375</AltitudeMeters>
            <DistanceMeters>17880.523562788</DistanceMeters>
          </Trackpoint>
          <Trackpoint>
            <Time>2022-08-27T00:52:18.000Z</Time>
            <Position>
              <LatitudeDegrees>50.182278268039226531982421875</LatitudeDegrees>
              <LongitudeDegrees>17.00028665363788604736328125</LongitudeDegrees>
            </Position>
            <AltitudeMeters>695.20001220703125</AltitudeMeters>
            <DistanceMeters>17881.215367711</DistanceMeters>
          </Trackpoint>
          <Trackpoint>
            <Time>2022-08-27T00:52:30.000Z</Time>
            <Position>
              <LatitudeDegrees>50.1822697184979915618896484375</LatitudeDegrees>
              <LongitudeDegrees>17.0002747513353824615478515625</LongitudeDegrees>
            </Position>
            <AltitudeMeters>695.4000244140625</AltitudeMeters>
            <DistanceMeters>17882.490284869</DistanceMeters>
          </Trackpoint>
          <Trackpoint>
            <Time>2022-08-27T00:52:38.000Z</Time>
            <Position>
              <LatitudeDegrees>50.18228824250400066375732421875</LatitudeDegrees>
              <LongitudeDegrees>17.00024063698947429656982421875</LongitudeDegrees>
            </Position>
            <AltitudeMeters>695.5999755859375</AltitudeMeters>
            <DistanceMeters>17885.678994024</DistanceMeters>
          </Trackpoint>
          <Trackpoint>
            <Time>2022-08-27T00:52:40.000Z</Time>
            <Position>
              <LatitudeDegrees>50.18229008652269840240478515625</LatitudeDegrees>
              <LongitudeDegrees>17.00023711659014225006103515625</LongitudeDegrees>
            </Position>
            <AltitudeMeters>695.5999755859375</AltitudeMeters>
            <DistanceMeters>17886.008176218</DistanceMeters>
          </Trackpoint>
          <Trackpoint>
            <Time>2022-08-27T00:52:54.000Z</Time>
            <Position>
              <LatitudeDegrees>50.1823320798575878143310546875</LatitudeDegrees>
              <LongitudeDegrees>17.00019118376076221466064453125</LongitudeDegrees>
            </Position>
            <AltitudeMeters>696</AltitudeMeters>
            <DistanceMeters>17891.714528438</DistanceMeters>
          </Trackpoint>
          <Trackpoint>
            <Time>2022-08-27T00:52:59.000Z</Time>
            <Position>
              <LatitudeDegrees>50.18233836628496646881103515625</LatitudeDegrees>
              <LongitudeDegrees>17.0001765154302120208740234375</LongitudeDegrees>
            </Position>
            <AltitudeMeters>696.5999755859375</AltitudeMeters>
            <DistanceMeters>17892.975200265</DistanceMeters>
          </Trackpoint>
          <Trackpoint>
            <Time>2022-08-27T00:53:05.000Z</Time>
            <Position>
              <LatitudeDegrees>50.18234096467494964599609375</LatitudeDegrees>
              <LongitudeDegrees>17.00017400085926055908203125</LongitudeDegrees>
            </Position>
            <AltitudeMeters>697.20001220703125</AltitudeMeters>
            <DistanceMeters>17893.30438246</DistanceMeters>
          </Trackpoint>
          <Trackpoint>
            <Time>2022-08-27T00:53:09.000Z</Time>
            <Position>
              <LatitudeDegrees>50.18234004266560077667236328125</LatitudeDegrees>
              <LongitudeDegrees>17.00017240829765796661376953125</LongitudeDegrees>
            </Position>
            <AltitudeMeters>697.5999755859375</AltitudeMeters>
            <DistanceMeters>17893.438770528</DistanceMeters>
          </Trackpoint>
          <Trackpoint>
            <Time>2022-08-27T00:53:15.000Z</Time>
            <Position>
              <LatitudeDegrees>50.18234892748296260833740234375</LatitudeDegrees>
              <LongitudeDegrees>17.00018347240984439849853515625</LongitudeDegrees>
            </Position>
            <AltitudeMeters>698.4000244140625</AltitudeMeters>
            <DistanceMeters>17894.706585028</DistanceMeters>
          </Trackpoint>
          <Trackpoint>
            <Time>2022-08-27T00:53:20.000Z</Time>
            <Position>
              <LatitudeDegrees>50.18235898576676845550537109375</LatitudeDegrees>
              <LongitudeDegrees>17.0001869089901447296142578125</LongitudeDegrees>
            </Position>
            <AltitudeMeters>698.5999755859375</AltitudeMeters>
            <DistanceMeters>17895.854797186</DistanceMeters>
          </Trackpoint>
          <Trackpoint>
            <Time>2022-08-27T00:53:26.000Z</Time>
            <Position>
              <LatitudeDegrees>50.18237155862152576446533203125</LatitudeDegrees>
              <LongitudeDegrees>17.00018045492470264434814453125</LongitudeDegrees>
            </Position>
            <AltitudeMeters>699.5999755859375</AltitudeMeters>
            <DistanceMeters>17897.326944715</DistanceMeters>
          </Trackpoint>
          <Trackpoint>
            <Time>2022-08-27T00:53:27.000Z</Time>
            <Position>
              <LatitudeDegrees>50.18237306736409664154052734375</LatitudeDegrees>
              <LongitudeDegrees>17.00017802417278289794921875</LongitudeDegrees>
            </Position>
            <AltitudeMeters>699.79998779296875</AltitudeMeters>
            <DistanceMeters>17897.559711677</DistanceMeters>
          </Trackpoint>
          <Trackpoint>
            <Time>2022-08-27T00:53:34.000Z</Time>
            <Position>
              <LatitudeDegrees>50.1823739893734455108642578125</LatitudeDegrees>
              <LongitudeDegrees>17.0001523755490779876708984375</LongitudeDegrees>
            </Position>
            <AltitudeMeters>700.79998779296875</AltitudeMeters>
            <DistanceMeters>17899.39252057</DistanceMeters>
          </Trackpoint>
          <Trackpoint>
            <Time>2022-08-27T00:53:39.000Z</Time>
            <Position>
              <LatitudeDegrees>50.18237289972603321075439453125</LatitudeDegrees>
              <LongitudeDegrees>17.0001416467130184173583984375</LongitudeDegrees>
            </Position>
            <AltitudeMeters>702</AltitudeMeters>
            <DistanceMeters>17900.176130931</DistanceMeters>
          </Trackpoint>
          <Trackpoint>
            <Time>2022-08-27T00:53:44.000Z</Time>
            <Position>
              <LatitudeDegrees>50.1823820360004901885986328125</LatitudeDegrees>
              <LongitudeDegrees>17.000126726925373077392578125</LongitudeDegrees>
            </Position>
            <AltitudeMeters>703.20001220703125</AltitudeMeters>
            <DistanceMeters>17901.64827846</DistanceMeters>
          </Trackpoint>
          <Trackpoint>
            <Time>2022-08-27T00:53:50.000Z</Time>
            <Position>
              <LatitudeDegrees>50.18239905126392841339111328125</LatitudeDegrees>
              <LongitudeDegrees>17.00009831227362155914306640625</LongitudeDegrees>
            </Position>
            <AltitudeMeters>704.4000244140625</AltitudeMeters>
            <DistanceMeters>17904.422016936</DistanceMeters>
          </Trackpoint>
          <Trackpoint>
            <Time>2022-08-27T00:53:53.000Z</Time>
            <Position>
              <LatitudeDegrees>50.182401649653911590576171875</LatitudeDegrees>
              <LongitudeDegrees>17.00009294785559177398681640625</LongitudeDegrees>
            </Position>
            <AltitudeMeters>704.79998779296875</AltitudeMeters>
            <DistanceMeters>17904.906560006</DistanceMeters>
          </Trackpoint>
          <Trackpoint>
            <Time>2022-08-27T00:53:55.000Z</Time>
            <Position>
              <LatitudeDegrees>50.182402990758419036865234375</LatitudeDegrees>
              <LongitudeDegrees>17.0000913552939891815185546875</LongitudeDegrees>
            </Position>
            <AltitudeMeters>705.4000244140625</AltitudeMeters>
            <DistanceMeters>17905.096613435</DistanceMeters>
          </Trackpoint>
          <Trackpoint>
            <Time>2022-08-27T00:54:00.000Z</Time>
            <Position>
              <LatitudeDegrees>50.18240508623421192169189453125</LatitudeDegrees>
              <LongitudeDegrees>17.000095546245574951171875</LongitudeDegrees>
            </Position>
            <AltitudeMeters>706.5999755859375</AltitudeMeters>
            <DistanceMeters>17905.476720293</DistanceMeters>
          </Trackpoint>
          <Trackpoint>
            <Time>2022-08-27T00:54:06.000Z</Time>
            <Position>
              <LatitudeDegrees>50.18241405487060546875</LatitudeDegrees>
              <LongitudeDegrees>17.00008557178080081939697265625</LongitudeDegrees>
            </Position>
            <AltitudeMeters>708</AltitudeMeters>
            <DistanceMeters>17906.701053862</DistanceMeters>
          </Trackpoint>
          <Trackpoint>
            <Time>2022-08-27T00:54:13.000Z</Time>
            <Position>
              <LatitudeDegrees>50.1824115402996540069580078125</LatitudeDegrees>
              <LongitudeDegrees>17.00007299892604351043701171875</LongitudeDegrees>
            </Position>
            <AltitudeMeters>709</AltitudeMeters>
            <DistanceMeters>17907.64177034</DistanceMeters>
          </Trackpoint>
          <Trackpoint>
            <Time>2022-08-27T00:54:15.000Z</Time>
            <Position>
              <LatitudeDegrees>50.1824115402996540069580078125</LatitudeDegrees>
              <LongitudeDegrees>17.0000668801367282867431640625</LongitudeDegrees>
            </Position>
            <AltitudeMeters>709.20001220703125</AltitudeMeters>
            <DistanceMeters>17908.077237452</DistanceMeters>
          </Trackpoint>
          <Trackpoint>
            <Time>2022-08-27T00:54:19.000Z</Time>
            <Position>
              <LatitudeDegrees>50.18241380341351032257080078125</LatitudeDegrees>
              <LongitudeDegrees>17.00006394647061824798583984375</LongitudeDegrees>
            </Position>
            <AltitudeMeters>710</AltitudeMeters>
            <DistanceMeters>17908.406419646</DistanceMeters>
          </Trackpoint>
          <Trackpoint>
            <Time>2022-08-27T00:54:30.000Z</Time>
            <Position>
              <LatitudeDegrees>50.18241849727928638458251953125</LatitudeDegrees>
              <LongitudeDegrees>17.00005154125392436981201171875</LongitudeDegrees>
            </Position>
            <AltitudeMeters>710.20001220703125</AltitudeMeters>
            <DistanceMeters>17909.429888682</DistanceMeters>
          </Trackpoint>
          <Trackpoint>
            <Time>2022-08-27T00:54:42.000Z</Time>
            <Position>
              <LatitudeDegrees>50.182421766221523284912109375</LatitudeDegrees>
              <LongitudeDegrees>17.0000413991510868072509765625</LongitudeDegrees>
            </Position>
            <AltitudeMeters>710.79998779296875</AltitudeMeters>
            <DistanceMeters>17910.241797286</DistanceMeters>
          </Trackpoint>
          <Trackpoint>
            <Time>2022-08-27T00:54:52.000Z</Time>
            <Position>
              <LatitudeDegrees>50.1824313215911388397216796875</LatitudeDegrees>
              <LongitudeDegrees>17.00004701502621173858642578125</LongitudeDegrees>
            </Position>
            <AltitudeMeters>711</AltitudeMeters>
            <DistanceMeters>17911.382117858</DistanceMeters>
          </Trackpoint>
          <Trackpoint>
            <Time>2022-08-27T00:54:57.000Z</Time>
            <Position>
              <LatitudeDegrees>50.18244397826492786407470703125</LatitudeDegrees>
              <LongitudeDegrees>17.000052630901336669921875</LongitudeDegrees>
            </Position>
            <AltitudeMeters>711.4000244140625</AltitudeMeters>
            <DistanceMeters>17912.848118606</DistanceMeters>
          </Trackpoint>
          <Trackpoint>
            <Time>2022-08-27T00:55:04.000Z</Time>
            <Position>
              <LatitudeDegrees>50.18244900740683078765869140625</LatitudeDegrees>
              <LongitudeDegrees>17.00005556456744670867919921875</LongitudeDegrees>
            </Position>
            <AltitudeMeters>712.20001220703125</AltitudeMeters>
            <DistanceMeters>17913.449120318</DistanceMeters>
          </Trackpoint>
          <Trackpoint>
            <Time>2022-08-27T00:55:06.000Z</Time>
            <Position>
              <LatitudeDegrees>50.18245319835841655731201171875</LatitudeDegrees>
              <LongitudeDegrees>17.0000551454722881317138671875</LongitudeDegrees>
            </Position>
            <AltitudeMeters>712.4000244140625</AltitudeMeters>
            <DistanceMeters>17913.914654243</DistanceMeters>
          </Trackpoint>
          <Trackpoint>
            <Time>2022-08-27T00:55:15.000Z</Time>
            <Position>
              <LatitudeDegrees>50.182469375431537628173828125</LatitudeDegrees>
              <LongitudeDegrees>17.000043578445911407470703125</LongitudeDegrees>
            </Position>
            <AltitudeMeters>713.5999755859375</AltitudeMeters>
            <DistanceMeters>17915.894314107</DistanceMeters>
          </Trackpoint>
          <Trackpoint>
            <Time>2022-08-27T00:55:16.000Z</Time>
            <Position>
              <LatitudeDegrees>50.182470716536045074462890625</LatitudeDegrees>
              <LongitudeDegrees>17.0000432431697845458984375</LongitudeDegrees>
            </Position>
            <AltitudeMeters>713.5999755859375</AltitudeMeters>
            <DistanceMeters>17916.028702175</DistanceMeters>
          </Trackpoint>
          <Trackpoint>
            <Time>2022-08-27T00:55:21.000Z</Time>
            <Position>
              <LatitudeDegrees>50.18248136155307292938232421875</LatitudeDegrees>
              <LongitudeDegrees>17.00002840720117092132568359375</LongitudeDegrees>
            </Position>
            <AltitudeMeters>714.79998779296875</AltitudeMeters>
            <DistanceMeters>17917.618803242</DistanceMeters>
          </Trackpoint>
          <Trackpoint>
            <Time>2022-08-27T00:55:28.000Z</Time>
            <Position>
              <LatitudeDegrees>50.18251799046993255615234375</LatitudeDegrees>
              <LongitudeDegrees>16.99999990873038768768310546875</LongitudeDegrees>
            </Position>
            <AltitudeMeters>715.5999755859375</AltitudeMeters>
            <DistanceMeters>17922.174142491</DistanceMeters>
          </Trackpoint>
          <Trackpoint>
            <Time>2022-08-27T00:55:29.000Z</Time>
            <Position>
              <LatitudeDegrees>50.182522349059581756591796875</LatitudeDegrees>
              <LongitudeDegrees>16.99999454431235790252685546875</LongitudeDegrees>
            </Position>
            <AltitudeMeters>715.79998779296875</AltitudeMeters>
            <DistanceMeters>17922.797274328</DistanceMeters>
          </Trackpoint>
          <Trackpoint>
            <Time>2022-08-27T00:55:37.000Z</Time>
            <Position>
              <LatitudeDegrees>50.18255847506225109100341796875</LatitudeDegrees>
              <LongitudeDegrees>16.99996219016611576080322265625</LongitudeDegrees>
            </Position>
            <AltitudeMeters>717</AltitudeMeters>
            <DistanceMeters>17927.432201713</DistanceMeters>
          </Trackpoint>
          <Trackpoint>
            <Time>2022-08-27T00:55:42.000Z</Time>
            <Position>
              <LatitudeDegrees>50.182582028210163116455078125</LatitudeDegrees>
              <LongitudeDegrees>16.9999401457607746124267578125</LongitudeDegrees>
            </Position>
            <AltitudeMeters>718.20001220703125</AltitudeMeters>
            <DistanceMeters>17930.487868423</DistanceMeters>
          </Trackpoint>
          <Trackpoint>
            <Time>2022-08-27T00:55:48.000Z</Time>
            <Position>
              <LatitudeDegrees>50.182615555822849273681640625</LatitudeDegrees>
              <LongitudeDegrees>16.999916844069957733154296875</LongitudeDegrees>
            </Position>
            <AltitudeMeters>719.20001220703125</AltitudeMeters>
            <DistanceMeters>17934.572912029</DistanceMeters>
          </Trackpoint>
          <Trackpoint>
            <Time>2022-08-27T00:55:54.000Z</Time>
            <Position>
              <LatitudeDegrees>50.18263810314238071441650390625</LatitudeDegrees>
              <LongitudeDegrees>16.999883987009525299072265625</LongitudeDegrees>
            </Position>
            <AltitudeMeters>720</AltitudeMeters>
            <DistanceMeters>17938.005731535</DistanceMeters>
          </Trackpoint>
          <Trackpoint>
            <Time>2022-08-27T00:55:56.000Z</Time>
            <Position>
              <LatitudeDegrees>50.1826475746929645538330078125</LatitudeDegrees>
              <LongitudeDegrees>16.999877281486988067626953125</LongitudeDegrees>
            </Position>
            <AltitudeMeters>720.20001220703125</AltitudeMeters>
            <DistanceMeters>17939.16178141</DistanceMeters>
          </Trackpoint>
          <Trackpoint>
            <Time>2022-08-27T00:56:06.000Z</Time>
            <Position>
              <LatitudeDegrees>50.182676576077938079833984375</LatitudeDegrees>
              <LongitudeDegrees>16.99980108998715877532958984375</LongitudeDegrees>
            </Position>
            <AltitudeMeters>721.20001220703125</AltitudeMeters>
            <DistanceMeters>17945.479450117</DistanceMeters>
          </Trackpoint>
          <Trackpoint>
            <Time>2022-08-27T00:56:07.000Z</Time>
            <Position>
              <LatitudeDegrees>50.18267850391566753387451171875</LatitudeDegrees>
              <LongitudeDegrees>16.9997939653694629669189453125</LongitudeDegrees>
            </Position>
            <AltitudeMeters>721.4000244140625</AltitudeMeters>
            <DistanceMeters>17946.033546317</DistanceMeters>
          </Trackpoint>
          <Trackpoint>
            <Time>2022-08-27T00:56:18.000Z</Time>
            <Position>
              <LatitudeDegrees>50.182674564421176910400390625</LatitudeDegrees>
              <LongitudeDegrees>16.9997795484960079193115234375</LongitudeDegrees>
            </Position>
            <AltitudeMeters>722.20001220703125</AltitudeMeters>
            <DistanceMeters>17947.149857451</DistanceMeters>
          </Trackpoint>
          <Trackpoint>
            <Time>2022-08-27T00:56:28.000Z</Time>
            <Position>
              <LatitudeDegrees>50.18268696963787078857421875</LatitudeDegrees>
              <LongitudeDegrees>16.9997562468051910400390625</LongitudeDegrees>
            </Position>
            <AltitudeMeters>722.20001220703125</AltitudeMeters>
            <DistanceMeters>17949.308449457</DistanceMeters>
          </Trackpoint>
          <Trackpoint>
            <Time>2022-08-27T00:56:32.000Z</Time>
            <Position>
              <LatitudeDegrees>50.18269501626491546630859375</LatitudeDegrees>
              <LongitudeDegrees>16.99975130148231983184814453125</LongitudeDegrees>
            </Position>
            <AltitudeMeters>722.5999755859375</AltitudeMeters>
            <DistanceMeters>17950.277535598</DistanceMeters>
          </Trackpoint>
          <Trackpoint>
            <Time>2022-08-27T00:56:40.000Z</Time>
            <Position>
              <LatitudeDegrees>50.18271136097609996795654296875</LatitudeDegrees>
              <LongitudeDegrees>16.9997316040098667144775390625</LongitudeDegrees>
            </Position>
            <AltitudeMeters>723.20001220703125</AltitudeMeters>
            <DistanceMeters>17952.575925191</DistanceMeters>
          </Trackpoint>
          <Trackpoint>
            <Time>2022-08-27T00:56:48.000Z</Time>
            <Position>
              <LatitudeDegrees>50.1827186532318592071533203125</LatitudeDegrees>
              <LongitudeDegrees>16.99972330592572689056396484375</LongitudeDegrees>
            </Position>
            <AltitudeMeters>723.79998779296875</AltitudeMeters>
            <DistanceMeters>17953.581593408</DistanceMeters>
          </Trackpoint>
          <Trackpoint>
            <Time>2022-08-27T00:56:54.000Z</Time>
            <Position>
              <LatitudeDegrees>50.1827213354408740997314453125</LatitudeDegrees>
              <LongitudeDegrees>16.999720372259616851806640625</LongitudeDegrees>
            </Position>
            <AltitudeMeters>723.79998779296875</AltitudeMeters>
            <DistanceMeters>17953.937150815</DistanceMeters>
          </Trackpoint>
          <Trackpoint>
            <Time>2022-08-27T00:57:05.000Z</Time>
            <Position>
              <LatitudeDegrees>50.18272326327860355377197265625</LatitudeDegrees>
              <LongitudeDegrees>16.999720372259616851806640625</LongitudeDegrees>
            </Position>
            <AltitudeMeters>724.4000244140625</AltitudeMeters>
            <DistanceMeters>17954.169917778</DistanceMeters>
          </Trackpoint>
          <Trackpoint>
            <Time>2022-08-27T00:57:20.000Z</Time>
            <Position>
              <LatitudeDegrees>50.1827350817620754241943359375</LatitudeDegrees>
              <LongitudeDegrees>16.999690532684326171875</LongitudeDegrees>
            </Position>
            <AltitudeMeters>724.5999755859375</AltitudeMeters>
            <DistanceMeters>17956.673290113</DistanceMeters>
          </Trackpoint>
          <Trackpoint>
            <Time>2022-08-27T00:57:24.000Z</Time>
            <Position>
              <LatitudeDegrees>50.18274153582751750946044921875</LatitudeDegrees>
              <LongitudeDegrees>16.9996756128966808319091796875</LongitudeDegrees>
            </Position>
            <AltitudeMeters>725</AltitudeMeters>
            <DistanceMeters>17957.955270579</DistanceMeters>
          </Trackpoint>
          <Trackpoint>
            <Time>2022-08-27T00:57:33.000Z</Time>
            <Position>
              <LatitudeDegrees>50.18277036957442760467529296875</LatitudeDegrees>
              <LongitudeDegrees>16.99966228567063808441162109375</LongitudeDegrees>
            </Position>
            <AltitudeMeters>726.20001220703125</AltitudeMeters>
            <DistanceMeters>17961.304203982</DistanceMeters>
          </Trackpoint>
          <Trackpoint>
            <Time>2022-08-27T00:57:41.000Z</Time>
            <Position>
              <LatitudeDegrees>50.18280808813869953155517578125</LatitudeDegrees>
              <LongitudeDegrees>16.999682821333408355712890625</LongitudeDegrees>
            </Position>
            <AltitudeMeters>727.4000244140625</AltitudeMeters>
            <DistanceMeters>17965.75121055</DistanceMeters>
          </Trackpoint>
          <Trackpoint>
            <Time>2022-08-27T00:57:44.000Z</Time>
            <Position>
              <LatitudeDegrees>50.1828125305473804473876953125</LatitudeDegrees>
              <LongitudeDegrees>16.99969279579818248748779296875</LongitudeDegrees>
            </Position>
            <AltitudeMeters>728</AltitudeMeters>
            <DistanceMeters>17966.622144773</DistanceMeters>
          </Trackpoint>
          <Trackpoint>
            <Time>2022-08-27T00:57:48.000Z</Time>
            <Position>
              <LatitudeDegrees>50.18281864933669567108154296875</LatitudeDegrees>
              <LongitudeDegrees>16.9997014291584491729736328125</LongitudeDegrees>
            </Position>
            <AltitudeMeters>728.79998779296875</AltitudeMeters>
            <DistanceMeters>17967.543462952</DistanceMeters>
          </Trackpoint>
          <Trackpoint>
            <Time>2022-08-27T00:57:56.000Z</Time>
            <Position>
              <LatitudeDegrees>50.182842202484607696533203125</LatitudeDegrees>
              <LongitudeDegrees>16.99970620684325695037841796875</LongitudeDegrees>
            </Position>
            <AltitudeMeters>729.79998779296875</AltitudeMeters>
            <DistanceMeters>17970.185479055</DistanceMeters>
          </Trackpoint>
          <Trackpoint>
            <Time>2022-08-27T00:57:57.000Z</Time>
            <Position>
              <LatitudeDegrees>50.18284630961716175079345703125</LatitudeDegrees>
              <LongitudeDegrees>16.99970603920519351959228515625</LongitudeDegrees>
            </Position>
            <AltitudeMeters>729.79998779296875</AltitudeMeters>
            <DistanceMeters>17970.641211167</DistanceMeters>
          </Trackpoint>
          <Trackpoint>
            <Time>2022-08-27T00:58:09.000Z</Time>
            <Position>
              <LatitudeDegrees>50.182887800037860870361328125</LatitudeDegrees>
              <LongitudeDegrees>16.99973948299884796142578125</LongitudeDegrees>
            </Position>
            <AltitudeMeters>730</AltitudeMeters>
            <DistanceMeters>17975.838225565</DistanceMeters>
          </Trackpoint>
          <Trackpoint>
            <Time>2022-08-27T00:58:15.000Z</Time>
            <Position>
              <LatitudeDegrees>50.18290012143552303314208984375</LatitudeDegrees>
              <LongitudeDegrees>16.99974426068365573883056640625</LongitudeDegrees>
            </Position>
            <AltitudeMeters>731</AltitudeMeters>
            <DistanceMeters>17977.25409172</DistanceMeters>
          </Trackpoint>
          <Trackpoint>
            <Time>2022-08-27T00:58:18.000Z</Time>
            <Position>
              <LatitudeDegrees>50.18291068263351917266845703125</LatitudeDegrees>
              <LongitudeDegrees>16.99974216520786285400390625</LongitudeDegrees>
            </Position>
            <AltitudeMeters>731.4000244140625</AltitudeMeters>
            <DistanceMeters>17978.440975002</DistanceMeters>
          </Trackpoint>
          <Trackpoint>
            <Time>2022-08-27T00:58:26.000Z</Time>
            <Position>
              <LatitudeDegrees>50.1829499937593936920166015625</LatitudeDegrees>
              <LongitudeDegrees>16.99974392540752887725830078125</LongitudeDegrees>
            </Position>
            <AltitudeMeters>732.20001220703125</AltitudeMeters>
            <DistanceMeters>17982.817365311</DistanceMeters>
          </Trackpoint>
          <Trackpoint>
            <Time>2022-08-27T00:58:31.000Z</Time>
            <Position>
              <LatitudeDegrees>50.182972289621829986572265625</LatitudeDegrees>
              <LongitudeDegrees>16.999749206006526947021484375</LongitudeDegrees>
            </Position>
            <AltitudeMeters>732.79998779296875</AltitudeMeters>
            <DistanceMeters>17985.327941611</DistanceMeters>
          </Trackpoint>
          <Trackpoint>
            <Time>2022-08-27T00:58:34.000Z</Time>
            <Position>
              <LatitudeDegrees>50.18299332819879055023193359375</LatitudeDegrees>
              <LongitudeDegrees>16.99975599534809589385986328125</LongitudeDegrees>
            </Position>
            <AltitudeMeters>733.4000244140625</AltitudeMeters>
            <DistanceMeters>17987.716876167</DistanceMeters>
          </Trackpoint>
          <Trackpoint>
            <Time>2022-08-27T00:58:39.000Z</Time>
            <Position>
              <LatitudeDegrees>50.1830153726041316986083984375</LatitudeDegrees>
              <LongitudeDegrees>16.99975498951971530914306640625</LongitudeDegrees>
            </Position>
            <AltitudeMeters>734.5999755859375</AltitudeMeters>
            <DistanceMeters>17990.1710687</DistanceMeters>
          </Trackpoint>
          <Trackpoint>
            <Time>2022-08-27T00:58:40.000Z</Time>
            <Position>
              <LatitudeDegrees>50.1830210722982883453369140625</LatitudeDegrees>
              <LongitudeDegrees>16.99975398369133472442626953125</LongitudeDegrees>
            </Position>
            <AltitudeMeters>734.79998779296875</AltitudeMeters>
            <DistanceMeters>17990.815571234</DistanceMeters>
          </Trackpoint>
          <Trackpoint>
            <Time>2022-08-27T00:58:45.000Z</Time>
            <Position>
              <LatitudeDegrees>50.18304445780813694000244140625</LatitudeDegrees>
              <LongitudeDegrees>16.9997218810021877288818359375</LongitudeDegrees>
            </Position>
            <AltitudeMeters>735.5999755859375</AltitudeMeters>
            <DistanceMeters>17994.281116165</DistanceMeters>
          </Trackpoint>
          <Trackpoint>
            <Time>2022-08-27T00:58:53.000Z</Time>
            <Position>
              <LatitudeDegrees>50.18305568955838680267333984375</LatitudeDegrees>
              <LongitudeDegrees>16.9997222162783145904541015625</LongitudeDegrees>
            </Position>
            <AltitudeMeters>736.4000244140625</AltitudeMeters>
            <DistanceMeters>17995.527379841</DistanceMeters>
          </Trackpoint>
          <Trackpoint>
            <Time>2022-08-27T00:59:05.000Z</Time>
            <Position>
              <LatitudeDegrees>50.18305669538676738739013671875</LatitudeDegrees>
              <LongitudeDegrees>16.99972397647798061370849609375</LongitudeDegrees>
            </Position>
            <AltitudeMeters>736.5999755859375</AltitudeMeters>
            <DistanceMeters>17995.691970938</DistanceMeters>
          </Trackpoint>
          <Trackpoint>
            <Time>2022-08-27T00:59:18.000Z</Time>
            <Position>
              <LatitudeDegrees>50.18307111226022243499755859375</LatitudeDegrees>
              <LongitudeDegrees>16.9997111521661281585693359375</LongitudeDegrees>
            </Position>
            <AltitudeMeters>736.79998779296875</AltitudeMeters>
            <DistanceMeters>17997.539501424</DistanceMeters>
          </Trackpoint>
          <Trackpoint>
            <Time>2022-08-27T00:59:33.000Z</Time>
            <Position>
              <LatitudeDegrees>50.18312408588826656341552734375</LatitudeDegrees>
              <LongitudeDegrees>16.999696902930736541748046875</LongitudeDegrees>
            </Position>
            <AltitudeMeters>736.5999755859375</AltitudeMeters>
            <DistanceMeters>18003.523166948</DistanceMeters>
          </Trackpoint>
          <Trackpoint>
            <Time>2022-08-27T00:59:44.000Z</Time>
            <Position>
              <LatitudeDegrees>50.1831910572946071624755859375</LatitudeDegrees>
              <LongitudeDegrees>16.99964920990169048309326171875</LongitudeDegrees>
            </Position>
            <AltitudeMeters>736.5999755859375</AltitudeMeters>
            <DistanceMeters>18011.715329552</DistanceMeters>
          </Trackpoint>
          <Trackpoint>
            <Time>2022-08-27T00:59:55.000Z</Time>
            <Position>
              <LatitudeDegrees>50.183196254074573516845703125</LatitudeDegrees>
              <LongitudeDegrees>16.99958064593374729156494140625</LongitudeDegrees>
            </Position>
            <AltitudeMeters>736.4000244140625</AltitudeMeters>
            <DistanceMeters>18016.636575839</DistanceMeters>
          </Trackpoint>
          <Trackpoint>
            <Time>2022-08-27T00:59:59.000Z</Time>
            <Position>
              <LatitudeDegrees>50.1831950806081295013427734375</LatitudeDegrees>
              <LongitudeDegrees>16.9995746947824954986572265625</LongitudeDegrees>
            </Position>
            <AltitudeMeters>737.20001220703125</AltitudeMeters>
            <DistanceMeters>18017.082290638</DistanceMeters>
          </Trackpoint>
          <Trackpoint>
            <Time>2022-08-27T01:00:05.000Z</Time>
            <Position>
              <LatitudeDegrees>50.18320254050195217132568359375</LatitudeDegrees>
              <LongitudeDegrees>16.99955382384359836578369140625</LongitudeDegrees>
            </Position>
            <AltitudeMeters>738.20001220703125</AltitudeMeters>
            <DistanceMeters>18018.784834187</DistanceMeters>
          </Trackpoint>
          <Trackpoint>
            <Time>2022-08-27T01:00:16.000Z</Time>
            <Position>
              <LatitudeDegrees>50.18320874311029911041259765625</LatitudeDegrees>
              <LongitudeDegrees>16.99953555129468441009521484375</LongitudeDegrees>
            </Position>
            <AltitudeMeters>738.4000244140625</AltitudeMeters>
            <DistanceMeters>18020.256981716</DistanceMeters>
          </Trackpoint>
          <Trackpoint>
            <Time>2022-08-27T01:00:27.000Z</Time>
            <Position>
              <LatitudeDegrees>50.1832148618996143341064453125</LatitudeDegrees>
              <LongitudeDegrees>16.9995317794382572174072265625</LongitudeDegrees>
            </Position>
            <AltitudeMeters>737.4000244140625</AltitudeMeters>
            <DistanceMeters>18020.980683612</DistanceMeters>
          </Trackpoint>
          <Trackpoint>
            <Time>2022-08-27T01:00:37.000Z</Time>
            <Position>
              <LatitudeDegrees>50.1832309551537036895751953125</LatitudeDegrees>
              <LongitudeDegrees>16.99947587214410305023193359375</LongitudeDegrees>
            </Position>
            <AltitudeMeters>736.5999755859375</AltitudeMeters>
            <DistanceMeters>18025.349846186</DistanceMeters>
          </Trackpoint>
          <Trackpoint>
            <Time>2022-08-27T01:00:40.000Z</Time>
            <Position>
              <LatitudeDegrees>50.183235146105289459228515625</LatitudeDegrees>
              <LongitudeDegrees>16.9994496367871761322021484375</LongitudeDegrees>
            </Position>
            <AltitudeMeters>736.5999755859375</AltitudeMeters>
            <DistanceMeters>18027.273990501</DistanceMeters>
          </Trackpoint>
          <Trackpoint>
            <Time>2022-08-27T01:00:52.000Z</Time>
            <Position>
              <LatitudeDegrees>50.18325819633901119232177734375</LatitudeDegrees>
              <LongitudeDegrees>16.99938233010470867156982421875</LongitudeDegrees>
            </Position>
            <AltitudeMeters>736.4000244140625</AltitudeMeters>
            <DistanceMeters>18032.71463298</DistanceMeters>
          </Trackpoint>
          <Trackpoint>
            <Time>2022-08-27T01:01:04.000Z</Time>
            <Position>
              <LatitudeDegrees>50.1833040453493595123291015625</LatitudeDegrees>
              <LongitudeDegrees>16.999328099191188812255859375</LongitudeDegrees>
            </Position>
            <AltitudeMeters>736.4000244140625</AltitudeMeters>
            <DistanceMeters>18039.116077106</DistanceMeters>
          </Trackpoint>
          <Trackpoint>
            <Time>2022-08-27T01:01:16.000Z</Time>
            <Position>
              <LatitudeDegrees>50.18335760571062564849853515625</LatitudeDegrees>
              <LongitudeDegrees>16.99925710447132587432861328125</LongitudeDegrees>
            </Position>
            <AltitudeMeters>736.79998779296875</AltitudeMeters>
            <DistanceMeters>18046.936030922</DistanceMeters>
          </Trackpoint>
          <Trackpoint>
            <Time>2022-08-27T01:01:28.000Z</Time>
            <Position>
              <LatitudeDegrees>50.1833751238882541656494140625</LatitudeDegrees>
              <LongitudeDegrees>16.99920480139553546905517578125</LongitudeDegrees>
            </Position>
            <AltitudeMeters>736.20001220703125</AltitudeMeters>
            <DistanceMeters>18051.143042905</DistanceMeters>
          </Trackpoint>
          <Trackpoint>
            <Time>2022-08-27T01:01:37.000Z</Time>
            <Position>
              <LatitudeDegrees>50.18338157795369625091552734375</LatitudeDegrees>
              <LongitudeDegrees>16.99921033345162868499755859375</LongitudeDegrees>
            </Position>
            <AltitudeMeters>735.5999755859375</AltitudeMeters>
            <DistanceMeters>18051.960493611</DistanceMeters>
          </Trackpoint>
          <Trackpoint>
            <Time>2022-08-27T01:01:43.000Z</Time>
            <Position>
              <LatitudeDegrees>50.183390714228153228759765625</LatitudeDegrees>
              <LongitudeDegrees>16.9991978444159030914306640625</LongitudeDegrees>
            </Position>
            <AltitudeMeters>735.5999755859375</AltitudeMeters>
            <DistanceMeters>18053.311076982</DistanceMeters>
          </Trackpoint>
          <Trackpoint>
            <Time>2022-08-27T01:01:46.000Z</Time>
            <Position>
              <LatitudeDegrees>50.183394066989421844482421875</LatitudeDegrees>
              <LongitudeDegrees>16.9991768896579742431640625</LongitudeDegrees>
            </Position>
            <AltitudeMeters>735.5999755859375</AltitudeMeters>
            <DistanceMeters>18054.852151317</DistanceMeters>
          </Trackpoint>
          <Trackpoint>
            <Time>2022-08-27T01:01:54.000Z</Time>
            <Position>
              <LatitudeDegrees>50.183397419750690460205078125</LatitudeDegrees>
              <LongitudeDegrees>16.99917026795446872711181640625</LongitudeDegrees>
            </Position>
            <AltitudeMeters>735.5999755859375</AltitudeMeters>
            <DistanceMeters>18055.453153029</DistanceMeters>
          </Trackpoint>
          <Trackpoint>
            <Time>2022-08-27T01:02:06.000Z</Time>
            <Position>
              <LatitudeDegrees>50.18341091461479663848876953125</LatitudeDegrees>
              <LongitudeDegrees>16.99912986718118190765380859375</LongitudeDegrees>
            </Position>
            <AltitudeMeters>735.5999755859375</AltitudeMeters>
            <DistanceMeters>18058.69939689</DistanceMeters>
          </Trackpoint>
          <Trackpoint>
            <Time>2022-08-27T01:02:17.000Z</Time>
            <Position>
              <LatitudeDegrees>50.183412842452526092529296875</LatitudeDegrees>
              <LongitudeDegrees>16.99907823465764522552490234375</LongitudeDegrees>
            </Position>
            <AltitudeMeters>735.20001220703125</AltitudeMeters>
            <DistanceMeters>18062.384669604</DistanceMeters>
          </Trackpoint>
          <Trackpoint>
            <Time>2022-08-27T01:02:21.000Z</Time>
            <Position>
              <LatitudeDegrees>50.18341795541346073150634765625</LatitudeDegrees>
              <LongitudeDegrees>16.9990640692412853240966796875</LongitudeDegrees>
            </Position>
            <AltitudeMeters>734.79998779296875</AltitudeMeters>
            <DistanceMeters>18063.544618478</DistanceMeters>
          </Trackpoint>
          <Trackpoint>
            <Time>2022-08-27T01:02:27.000Z</Time>
            <Position>
              <LatitudeDegrees>50.1834193803369998931884765625</LatitudeDegrees>
              <LongitudeDegrees>16.99904856272041797637939453125</LongitudeDegrees>
            </Position>
            <AltitudeMeters>734.20001220703125</AltitudeMeters>
            <DistanceMeters>18064.660929612</DistanceMeters>
          </Trackpoint>
          <Trackpoint>
            <Time>2022-08-27T01:02:37.000Z</Time>
            <Position>
              <LatitudeDegrees>50.18344008363783359527587890625</LatitudeDegrees>
              <LongitudeDegrees>16.9989504106342792510986328125</LongitudeDegrees>
            </Position>
            <AltitudeMeters>733.79998779296875</AltitudeMeters>
            <DistanceMeters>18072.025346705</DistanceMeters>
          </Trackpoint>
          <Trackpoint>
            <Time>2022-08-27T01:02:40.000Z</Time>
            <Position>
              <LatitudeDegrees>50.18344695679843425750732421875</LatitudeDegrees>
              <LongitudeDegrees>16.998907662928104400634765625</LongitudeDegrees>
            </Position>
            <AltitudeMeters>733.4000244140625</AltitudeMeters>
            <DistanceMeters>18075.166982196</DistanceMeters>
          </Trackpoint>
          <Trackpoint>
            <Time>2022-08-27T01:02:49.000Z</Time>
            <Position>
              <LatitudeDegrees>50.18347998149693012237548828125</LatitudeDegrees>
              <LongitudeDegrees>16.9987686909735202789306640625</LongitudeDegrees>
            </Position>
            <AltitudeMeters>732.79998779296875</AltitudeMeters>
            <DistanceMeters>18085.731628183</DistanceMeters>
          </Trackpoint>
          <Trackpoint>
            <Time>2022-08-27T01:03:02.000Z</Time>
            <Position>
              <LatitudeDegrees>50.183538235723972320556640625</LatitudeDegrees>
              <LongitudeDegrees>16.99864472262561321258544921875</LongitudeDegrees>
            </Position>
            <AltitudeMeters>732.5999755859375</AltitudeMeters>
            <DistanceMeters>18096.6906435</DistanceMeters>
          </Trackpoint>
          <Trackpoint>
            <Time>2022-08-27T01:03:13.000Z</Time>
            <Position>
              <LatitudeDegrees>50.1835669018328189849853515625</LatitudeDegrees>
              <LongitudeDegrees>16.99854296632111072540283203125</LongitudeDegrees>
            </Position>
            <AltitudeMeters>733</AltitudeMeters>
            <DistanceMeters>18104.613843071</DistanceMeters>
          </Trackpoint>
          <Trackpoint>
            <Time>2022-08-27T01:03:25.000Z</Time>
            <Position>
              <LatitudeDegrees>50.183586180210113525390625</LatitudeDegrees>
              <LongitudeDegrees>16.99840114451944828033447265625</LongitudeDegrees>
            </Position>
            <AltitudeMeters>732.79998779296875</AltitudeMeters>
            <DistanceMeters>18114.94687863</DistanceMeters>
          </Trackpoint>
          <Trackpoint>
            <Time>2022-08-27T01:03:37.000Z</Time>
            <Position>
              <LatitudeDegrees>50.18361912108957767486572265625</LatitudeDegrees>
              <LongitudeDegrees>16.99832151643931865692138671875</LongitudeDegrees>
            </Position>
            <AltitudeMeters>733</AltitudeMeters>
            <DistanceMeters>18121.703137686</DistanceMeters>
          </Trackpoint>
          <Trackpoint>
            <Time>2022-08-27T01:03:49.000Z</Time>
            <Position>
              <LatitudeDegrees>50.18365281634032726287841796875</LatitudeDegrees>
              <LongitudeDegrees>16.99824012815952301025390625</LongitudeDegrees>
            </Position>
            <AltitudeMeters>733.5999755859375</AltitudeMeters>
            <DistanceMeters>18128.61008302</DistanceMeters>
          </Trackpoint>
          <Trackpoint>
            <Time>2022-08-27T01:04:03.000Z</Time>
            <Position>
              <LatitudeDegrees>50.18367460928857326507568359375</LatitudeDegrees>
              <LongitudeDegrees>16.9981759227812290191650390625</LongitudeDegrees>
            </Position>
            <AltitudeMeters>733.79998779296875</AltitudeMeters>
            <DistanceMeters>18133.788820997</DistanceMeters>
          </Trackpoint>
          <Trackpoint>
            <Time>2022-08-27T01:04:14.000Z</Time>
            <Position>
              <LatitudeDegrees>50.18367427401244640350341796875</LatitudeDegrees>
              <LongitudeDegrees>16.9981611706316471099853515625</LongitudeDegrees>
            </Position>
            <AltitudeMeters>734</AltitudeMeters>
            <DistanceMeters>18134.838425364</DistanceMeters>
          </Trackpoint>
          <Trackpoint>
            <Time>2022-08-27T01:04:26.000Z</Time>
            <Position>
              <LatitudeDegrees>50.1836637966334819793701171875</LatitudeDegrees>
              <LongitudeDegrees>16.9980434887111186981201171875</LongitudeDegrees>
            </Position>
            <AltitudeMeters>734.20001220703125</AltitudeMeters>
            <DistanceMeters>18143.305940168</DistanceMeters>
          </Trackpoint>
          <Trackpoint>
            <Time>2022-08-27T01:04:32.000Z</Time>
            <Position>
              <LatitudeDegrees>50.18365499563515186309814453125</LatitudeDegrees>
              <LongitudeDegrees>16.99794642627239227294921875</LongitudeDegrees>
            </Position>
            <AltitudeMeters>734.4000244140625</AltitudeMeters>
            <DistanceMeters>18150.292827405</DistanceMeters>
          </Trackpoint>
          <Trackpoint>
            <Time>2022-08-27T01:04:36.000Z</Time>
            <Position>
              <LatitudeDegrees>50.18366069532930850982666015625</LatitudeDegrees>
              <LongitudeDegrees>16.9979372061789035797119140625</LongitudeDegrees>
            </Position>
            <AltitudeMeters>735.20001220703125</AltitudeMeters>
            <DistanceMeters>18151.20429163</DistanceMeters>
          </Trackpoint>
          <Trackpoint>
            <Time>2022-08-27T01:04:38.000Z</Time>
            <Position>
              <LatitudeDegrees>50.18366538919508457183837890625</LatitudeDegrees>
              <LongitudeDegrees>16.9979345239698886871337890625</LongitudeDegrees>
            </Position>
            <AltitudeMeters>735.79998779296875</AltitudeMeters>
            <DistanceMeters>18151.75838783</DistanceMeters>
          </Trackpoint>
          <Trackpoint>
            <Time>2022-08-27T01:04:41.000Z</Time>
            <Position>
              <LatitudeDegrees>50.18367326818406581878662109375</LatitudeDegrees>
              <LongitudeDegrees>16.9979385472834110260009765625</LongitudeDegrees>
            </Position>
            <AltitudeMeters>736.20001220703125</AltitudeMeters>
            <DistanceMeters>18152.684593672</DistanceMeters>
          </Trackpoint>
          <Trackpoint>
            <Time>2022-08-27T01:04:47.000Z</Time>
            <Position>
              <LatitudeDegrees>50.1837244816124439239501953125</LatitudeDegrees>
              <LongitudeDegrees>16.99788096360862255096435546875</LongitudeDegrees>
            </Position>
            <AltitudeMeters>737.4000244140625</AltitudeMeters>
            <DistanceMeters>18159.708861441</DistanceMeters>
          </Trackpoint>
          <Trackpoint>
            <Time>2022-08-27T01:04:48.000Z</Time>
            <Position>
              <LatitudeDegrees>50.183731354773044586181640625</LatitudeDegrees>
              <LongitudeDegrees>16.99787090532481670379638671875</LongitudeDegrees>
            </Position>
            <AltitudeMeters>737.79998779296875</AltitudeMeters>
            <DistanceMeters>18160.762758686</DistanceMeters>
          </Trackpoint>
          <Trackpoint>
            <Time>2022-08-27T01:04:52.000Z</Time>
            <Position>
              <LatitudeDegrees>50.1837529800832271575927734375</LatitudeDegrees>
              <LongitudeDegrees>16.99784995056688785552978515625</LongitudeDegrees>
            </Position>
            <AltitudeMeters>738.5999755859375</AltitudeMeters>
            <DistanceMeters>18163.594490997</DistanceMeters>
          </Trackpoint>
          <Trackpoint>
            <Time>2022-08-27T01:04:58.000Z</Time>
            <Position>
              <LatitudeDegrees>50.18378089182078838348388671875</LatitudeDegrees>
              <LongitudeDegrees>16.99783905409276485443115234375</LongitudeDegrees>
            </Position>
            <AltitudeMeters>739.79998779296875</AltitudeMeters>
            <DistanceMeters>18166.794507667</DistanceMeters>
          </Trackpoint>
          <Trackpoint>
            <Time>2022-08-27T01:05:00.000Z</Time>
            <Position>
              <LatitudeDegrees>50.18378759734332561492919921875</LatitudeDegrees>
              <LongitudeDegrees>16.997830756008625030517578125</LongitudeDegrees>
            </Position>
            <AltitudeMeters>740</AltitudeMeters>
            <DistanceMeters>18167.740011537</DistanceMeters>
          </Trackpoint>
          <Trackpoint>
            <Time>2022-08-27T01:05:07.000Z</Time>
            <Position>
              <LatitudeDegrees>50.18381006084382534027099609375</LatitudeDegrees>
              <LongitudeDegrees>16.99780820868909358978271484375</LongitudeDegrees>
            </Position>
            <AltitudeMeters>740.79998779296875</AltitudeMeters>
            <DistanceMeters>18170.711781172</DistanceMeters>
          </Trackpoint>
          <Trackpoint>
            <Time>2022-08-27T01:05:11.000Z</Time>
            <Position>
              <LatitudeDegrees>50.18382598645985126495361328125</LatitudeDegrees>
              <LongitudeDegrees>16.99778658337891101837158203125</LongitudeDegrees>
            </Position>
            <AltitudeMeters>741.4000244140625</AltitudeMeters>
            <DistanceMeters>18173.062612255</DistanceMeters>
          </Trackpoint>
          <Trackpoint>
            <Time>2022-08-27T01:05:23.000Z</Time>
            <Position>
              <LatitudeDegrees>50.18385901115834712982177734375</LatitudeDegrees>
              <LongitudeDegrees>16.99774970300495624542236328125</LongitudeDegrees>
            </Position>
            <AltitudeMeters>741.79998779296875</AltitudeMeters>
            <DistanceMeters>18177.581130025</DistanceMeters>
          </Trackpoint>
          <Trackpoint>
            <Time>2022-08-27T01:05:25.000Z</Time>
            <Position>
              <LatitudeDegrees>50.18386739306151866912841796875</LatitudeDegrees>
              <LongitudeDegrees>16.99773930944502353668212890625</LongitudeDegrees>
            </Position>
            <AltitudeMeters>742</AltitudeMeters>
            <DistanceMeters>18178.771811344</DistanceMeters>
          </Trackpoint>
          <Trackpoint>
            <Time>2022-08-27T01:05:32.000Z</Time>
            <Position>
              <LatitudeDegrees>50.18388868309557437896728515625</LatitudeDegrees>
              <LongitudeDegrees>16.9976857490837574005126953125</LongitudeDegrees>
            </Position>
            <AltitudeMeters>743</AltitudeMeters>
            <DistanceMeters>18183.265278928</DistanceMeters>
          </Trackpoint>
          <Trackpoint>
            <Time>2022-08-27T01:05:37.000Z</Time>
            <Position>
              <LatitudeDegrees>50.1839038543403148651123046875</LatitudeDegrees>
              <LongitudeDegrees>16.9976538978517055511474609375</LongitudeDegrees>
            </Position>
            <AltitudeMeters>743.5999755859375</AltitudeMeters>
            <DistanceMeters>18186.093820554</DistanceMeters>
          </Trackpoint>
          <Trackpoint>
            <Time>2022-08-27T01:05:41.000Z</Time>
            <Position>
              <LatitudeDegrees>50.18392346799373626708984375</LatitudeDegrees>
              <LongitudeDegrees>16.99762481264770030975341796875</LongitudeDegrees>
            </Position>
            <AltitudeMeters>744</AltitudeMeters>
            <DistanceMeters>18189.104833132</DistanceMeters>
          </Trackpoint>
          <Trackpoint>
            <Time>2022-08-27T01:05:47.000Z</Time>
            <Position>
              <LatitudeDegrees>50.183951295912265777587890625</LatitudeDegrees>
              <LongitudeDegrees>16.99757133610546588897705078125</LongitudeDegrees>
            </Position>
            <AltitudeMeters>745</AltitudeMeters>
            <DistanceMeters>18194.015977009</DistanceMeters>
          </Trackpoint>
          <Trackpoint>
            <Time>2022-08-27T01:05:48.000Z</Time>
            <Position>
              <LatitudeDegrees>50.18395137973129749298095703125</LatitudeDegrees>
              <LongitudeDegrees>16.99756781570613384246826171875</LongitudeDegrees>
            </Position>
            <AltitudeMeters>745.20001220703125</AltitudeMeters>
            <DistanceMeters>18194.248743972</DistanceMeters>
          </Trackpoint>
          <Trackpoint>
            <Time>2022-08-27T01:05:52.000Z</Time>
            <Position>
              <LatitudeDegrees>50.18396445550024509429931640625</LatitudeDegrees>
              <LongitudeDegrees>16.99753202497959136962890625</LongitudeDegrees>
            </Position>
            <AltitudeMeters>746</AltitudeMeters>
            <DistanceMeters>18197.183823686</DistanceMeters>
          </Trackpoint>
          <Trackpoint>
            <Time>2022-08-27T01:06:00.000Z</Time>
            <Position>
              <LatitudeDegrees>50.183999575674533843994140625</LatitudeDegrees>
              <LongitudeDegrees>16.9974450208246707916259765625</LongitudeDegrees>
            </Position>
            <AltitudeMeters>746.20001220703125</AltitudeMeters>
            <DistanceMeters>18204.513827427</DistanceMeters>
          </Trackpoint>
          <Trackpoint>
            <Time>2022-08-27T01:06:10.000Z</Time>
            <Position>
              <LatitudeDegrees>50.18402162007987499237060546875</LatitudeDegrees>
              <LongitudeDegrees>16.997360028326511383056640625</LongitudeDegrees>
            </Position>
            <AltitudeMeters>745.4000244140625</AltitudeMeters>
            <DistanceMeters>18211.048598387</DistanceMeters>
          </Trackpoint>
          <Trackpoint>
            <Time>2022-08-27T01:06:16.000Z</Time>
            <Position>
              <LatitudeDegrees>50.184022374451160430908203125</LatitudeDegrees>
              <LongitudeDegrees>16.99731434695422649383544921875</LongitudeDegrees>
            </Position>
            <AltitudeMeters>745</AltitudeMeters>
            <DistanceMeters>18214.304563642</DistanceMeters>
          </Trackpoint>
          <Trackpoint>
            <Time>2022-08-27T01:06:23.000Z</Time>
            <Position>
              <LatitudeDegrees>50.1840165071189403533935546875</LatitudeDegrees>
              <LongitudeDegrees>16.9972921349108219146728515625</LongitudeDegrees>
            </Position>
            <AltitudeMeters>744.20001220703125</AltitudeMeters>
            <DistanceMeters>18216.017682098</DistanceMeters>
          </Trackpoint>
          <Trackpoint>
            <Time>2022-08-27T01:06:26.000Z</Time>
            <Position>
              <LatitudeDegrees>50.184016339480876922607421875</LatitudeDegrees>
              <LongitudeDegrees>16.99728853069245815277099609375</LongitudeDegrees>
            </Position>
            <AltitudeMeters>744</AltitudeMeters>
            <DistanceMeters>18216.286458235</DistanceMeters>
          </Trackpoint>
          <Trackpoint>
            <Time>2022-08-27T01:06:27.000Z</Time>
            <Position>
              <LatitudeDegrees>50.18401600420475006103515625</LatitudeDegrees>
              <LongitudeDegrees>16.99728735722601413726806640625</LongitudeDegrees>
            </Position>
            <AltitudeMeters>744</AltitudeMeters>
            <DistanceMeters>18216.420846303</DistanceMeters>
          </Trackpoint>
          <Trackpoint>
            <Time>2022-08-27T01:06:34.000Z</Time>
            <Position>
              <LatitudeDegrees>50.18401893787086009979248046875</LatitudeDegrees>
              <LongitudeDegrees>16.99724100530147552490234375</LongitudeDegrees>
            </Position>
            <AltitudeMeters>744.20001220703125</AltitudeMeters>
            <DistanceMeters>18219.739986743</DistanceMeters>
          </Trackpoint>
          <Trackpoint>
            <Time>2022-08-27T01:06:46.000Z</Time>
            <Position>
              <LatitudeDegrees>50.1840141601860523223876953125</LatitudeDegrees>
              <LongitudeDegrees>16.997214518487453460693359375</LongitudeDegrees>
            </Position>
            <AltitudeMeters>744.4000244140625</AltitudeMeters>
            <DistanceMeters>18221.701316029</DistanceMeters>
          </Trackpoint>
          <Trackpoint>
            <Time>2022-08-27T01:06:58.000Z</Time>
            <Position>
              <LatitudeDegrees>50.18401541747152805328369140625</LatitudeDegrees>
              <LongitudeDegrees>16.99720135889947414398193359375</LongitudeDegrees>
            </Position>
            <AltitudeMeters>744.4000244140625</AltitudeMeters>
            <DistanceMeters>18222.651583172</DistanceMeters>
          </Trackpoint>
          <Trackpoint>
            <Time>2022-08-27T01:07:11.000Z</Time>
            <Position>
              <LatitudeDegrees>50.184033773839473724365234375</LatitudeDegrees>
              <LongitudeDegrees>16.997176297008991241455078125</LongitudeDegrees>
            </Position>
            <AltitudeMeters>743.79998779296875</AltitudeMeters>
            <DistanceMeters>18225.36608909</DistanceMeters>
          </Trackpoint>
          <Trackpoint>
            <Time>2022-08-27T01:07:20.000Z</Time>
            <Position>
              <LatitudeDegrees>50.184040479362010955810546875</LatitudeDegrees>
              <LongitudeDegrees>16.997160203754901885986328125</LongitudeDegrees>
            </Position>
            <AltitudeMeters>743.79998779296875</AltitudeMeters>
            <DistanceMeters>18226.729979022</DistanceMeters>
          </Trackpoint>
          <Trackpoint>
            <Time>2022-08-27T01:07:29.000Z</Time>
            <Position>
              <LatitudeDegrees>50.1840434968471527099609375</LatitudeDegrees>
              <LongitudeDegrees>16.99715274386107921600341796875</LongitudeDegrees>
            </Position>
            <AltitudeMeters>743.79998779296875</AltitudeMeters>
            <DistanceMeters>18227.360314936</DistanceMeters>
          </Trackpoint>
          <Trackpoint>
            <Time>2022-08-27T01:07:39.000Z</Time>
            <Position>
              <LatitudeDegrees>50.1840383000671863555908203125</LatitudeDegrees>
              <LongitudeDegrees>16.9971218146383762359619140625</LongitudeDegrees>
            </Position>
            <AltitudeMeters>743.79998779296875</AltitudeMeters>
            <DistanceMeters>18229.636993191</DistanceMeters>
          </Trackpoint>
          <Trackpoint>
            <Time>2022-08-27T01:07:52.000Z</Time>
            <Position>
              <LatitudeDegrees>50.18401407636702060699462890625</LatitudeDegrees>
              <LongitudeDegrees>16.99706573970615863800048828125</LongitudeDegrees>
            </Position>
            <AltitudeMeters>742.79998779296875</AltitudeMeters>
            <DistanceMeters>18234.458135874</DistanceMeters>
          </Trackpoint>
          <Trackpoint>
            <Time>2022-08-27T01:07:54.000Z</Time>
            <Position>
              <LatitudeDegrees>50.1840044371783733367919921875</LatitudeDegrees>
              <LongitudeDegrees>16.9970638118684291839599609375</LongitudeDegrees>
            </Position>
            <AltitudeMeters>742.4000244140625</AltitudeMeters>
            <DistanceMeters>18235.541607118</DistanceMeters>
          </Trackpoint>
          <Trackpoint>
            <Time>2022-08-27T01:08:04.000Z</Time>
            <Position>
              <LatitudeDegrees>50.18397510051727294921875</LatitudeDegrees>
              <LongitudeDegrees>16.997011341154575347900390625</LongitudeDegrees>
            </Position>
            <AltitudeMeters>741.20001220703125</AltitudeMeters>
            <DistanceMeters>18240.50669611</DistanceMeters>
          </Trackpoint>
          <Trackpoint>
            <Time>2022-08-27T01:08:05.000Z</Time>
            <Position>
              <LatitudeDegrees>50.183972753584384918212890625</LatitudeDegrees>
              <LongitudeDegrees>16.99700790457427501678466796875</LongitudeDegrees>
            </Position>
            <AltitudeMeters>741</AltitudeMeters>
            <DistanceMeters>18240.862253517</DistanceMeters>
          </Trackpoint>
          <Trackpoint>
            <Time>2022-08-27T01:08:10.000Z</Time>
            <Position>
              <LatitudeDegrees>50.18395699560642242431640625</LatitudeDegrees>
              <LongitudeDegrees>16.9969694316387176513671875</LongitudeDegrees>
            </Position>
            <AltitudeMeters>740</AltitudeMeters>
            <DistanceMeters>18244.11683178</DistanceMeters>
          </Trackpoint>
          <Trackpoint>
            <Time>2022-08-27T01:08:17.000Z</Time>
            <Position>
              <LatitudeDegrees>50.183926485478878021240234375</LatitudeDegrees>
              <LongitudeDegrees>16.99692525900900363922119140625</LongitudeDegrees>
            </Position>
            <AltitudeMeters>738.79998779296875</AltitudeMeters>
            <DistanceMeters>18248.746885935</DistanceMeters>
          </Trackpoint>
          <Trackpoint>
            <Time>2022-08-27T01:08:19.000Z</Time>
            <Position>
              <LatitudeDegrees>50.183926485478878021240234375</LatitudeDegrees>
              <LongitudeDegrees>16.9969035498797893524169921875</LongitudeDegrees>
            </Position>
            <AltitudeMeters>738.5999755859375</AltitudeMeters>
            <DistanceMeters>18250.296724744</DistanceMeters>
          </Trackpoint>
          <Trackpoint>
            <Time>2022-08-27T01:08:25.000Z</Time>
            <Position>
              <LatitudeDegrees>50.1839015074074268341064453125</LatitudeDegrees>
              <LongitudeDegrees>16.99685418047010898590087890625</LongitudeDegrees>
            </Position>
            <AltitudeMeters>737.79998779296875</AltitudeMeters>
            <DistanceMeters>18254.782146722</DistanceMeters>
          </Trackpoint>
          <Trackpoint>
            <Time>2022-08-27T01:08:31.000Z</Time>
            <Position>
              <LatitudeDegrees>50.18386839888989925384521484375</LatitudeDegrees>
              <LongitudeDegrees>16.99679575860500335693359375</LongitudeDegrees>
            </Position>
            <AltitudeMeters>736.79998779296875</AltitudeMeters>
            <DistanceMeters>18260.342630671</DistanceMeters>
          </Trackpoint>
          <Trackpoint>
            <Time>2022-08-27T01:08:32.000Z</Time>
            <Position>
              <LatitudeDegrees>50.18386445939540863037109375</LatitudeDegrees>
              <LongitudeDegrees>16.99678637087345123291015625</LongitudeDegrees>
            </Position>
            <AltitudeMeters>736.79998779296875</AltitudeMeters>
            <DistanceMeters>18261.143339998</DistanceMeters>
          </Trackpoint>
          <Trackpoint>
            <Time>2022-08-27T01:08:39.000Z</Time>
            <Position>
              <LatitudeDegrees>50.18385347910225391387939453125</LatitudeDegrees>
              <LongitudeDegrees>16.99672509916126728057861328125</LongitudeDegrees>
            </Position>
            <AltitudeMeters>735.5999755859375</AltitudeMeters>
            <DistanceMeters>18265.678812867</DistanceMeters>
          </Trackpoint>
          <Trackpoint>
            <Time>2022-08-27T01:08:45.000Z</Time>
            <Position>
              <LatitudeDegrees>50.18385783769190311431884765625</LatitudeDegrees>
              <LongitudeDegrees>16.99663943611085414886474609375</LongitudeDegrees>
            </Position>
            <AltitudeMeters>735</AltitudeMeters>
            <DistanceMeters>18271.803430206</DistanceMeters>
          </Trackpoint>
          <Trackpoint>
            <Time>2022-08-27T01:08:49.000Z</Time>
            <Position>
              <LatitudeDegrees>50.183853395283222198486328125</LatitudeDegrees>
              <LongitudeDegrees>16.99661429040133953094482421875</LongitudeDegrees>
            </Position>
            <AltitudeMeters>734.4000244140625</AltitudeMeters>
            <DistanceMeters>18273.66071026</DistanceMeters>
          </Trackpoint>
          <Trackpoint>
            <Time>2022-08-27T01:08:56.000Z</Time>
            <Position>
              <LatitudeDegrees>50.18384241499006748199462890625</LatitudeDegrees>
              <LongitudeDegrees>16.99655595235526561737060546875</LongitudeDegrees>
            </Position>
            <AltitudeMeters>733.4000244140625</AltitudeMeters>
            <DistanceMeters>18277.994595238</DistanceMeters>
          </Trackpoint>
          <Trackpoint>
            <Time>2022-08-27T01:09:00.000Z</Time>
            <Position>
              <LatitudeDegrees>50.1838277466595172882080078125</LatitudeDegrees>
              <LongitudeDegrees>16.99651923961937427520751953125</LongitudeDegrees>
            </Position>
            <AltitudeMeters>732.79998779296875</AltitudeMeters>
            <DistanceMeters>18281.078208459</DistanceMeters>
          </Trackpoint>
          <Trackpoint>
            <Time>2022-08-27T01:09:05.000Z</Time>
            <Position>
              <LatitudeDegrees>50.18380972556769847869873046875</LatitudeDegrees>
              <LongitudeDegrees>16.996464841067790985107421875</LongitudeDegrees>
            </Position>
            <AltitudeMeters>732.20001220703125</AltitudeMeters>
            <DistanceMeters>18285.443235526</DistanceMeters>
          </Trackpoint>
          <Trackpoint>
            <Time>2022-08-27T01:09:12.000Z</Time>
            <Position>
              <LatitudeDegrees>50.18377670086920261383056640625</LatitudeDegrees>
              <LongitudeDegrees>16.99639476835727691650390625</LongitudeDegrees>
            </Position>
            <AltitudeMeters>731.20001220703125</AltitudeMeters>
            <DistanceMeters>18291.644047207</DistanceMeters>
          </Trackpoint>
          <Trackpoint>
            <Time>2022-08-27T01:09:15.000Z</Time>
            <Position>
              <LatitudeDegrees>50.18376345746219158172607421875</LatitudeDegrees>
              <LongitudeDegrees>16.996356882154941558837890625</LongitudeDegrees>
            </Position>
            <AltitudeMeters>730.5999755859375</AltitudeMeters>
            <DistanceMeters>18294.720330697</DistanceMeters>
          </Trackpoint>
          <Trackpoint>
            <Time>2022-08-27T01:09:19.000Z</Time>
            <Position>
              <LatitudeDegrees>50.1837444305419921875</LatitudeDegrees>
              <LongitudeDegrees>16.99629929848015308380126953125</LongitudeDegrees>
            </Position>
            <AltitudeMeters>730</AltitudeMeters>
            <DistanceMeters>18299.338668121</DistanceMeters>
          </Trackpoint>
          <Trackpoint>
            <Time>2022-08-27T01:09:25.000Z</Time>
            <Position>
              <LatitudeDegrees>50.1837135851383209228515625</LatitudeDegrees>
              <LongitudeDegrees>16.9962316565215587615966796875</LongitudeDegrees>
            </Position>
            <AltitudeMeters>728.79998779296875</AltitudeMeters>
            <DistanceMeters>18305.256322762</DistanceMeters>
          </Trackpoint>
          <Trackpoint>
            <Time>2022-08-27T01:09:28.000Z</Time>
            <Position>
              <LatitudeDegrees>50.18369137309491634368896484375</LatitudeDegrees>
              <LongitudeDegrees>16.99618932791054248809814453125</LongitudeDegrees>
            </Position>
            <AltitudeMeters>728.4000244140625</AltitudeMeters>
            <DistanceMeters>18309.157050747</DistanceMeters>
          </Trackpoint>
          <Trackpoint>
            <Time>2022-08-27T01:09:32.000Z</Time>
            <Position>
              <LatitudeDegrees>50.1836701668798923492431640625</LatitudeDegrees>
              <LongitudeDegrees>16.99614138342440128326416015625</LongitudeDegrees>
            </Position>
            <AltitudeMeters>727.79998779296875</AltitudeMeters>
            <DistanceMeters>18313.310055202</DistanceMeters>
          </Trackpoint>
          <Trackpoint>
            <Time>2022-08-27T01:09:39.000Z</Time>
            <Position>
              <LatitudeDegrees>50.1836493797600269317626953125</LatitudeDegrees>
              <LongitudeDegrees>16.99606410227715969085693359375</LongitudeDegrees>
            </Position>
            <AltitudeMeters>726.79998779296875</AltitudeMeters>
            <DistanceMeters>18319.283903384</DistanceMeters>
          </Trackpoint>
          <Trackpoint>
            <Time>2022-08-27T01:09:42.000Z</Time>
            <Position>
              <LatitudeDegrees>50.183640830218791961669921875</LatitudeDegrees>
              <LongitudeDegrees>16.9960321672260761260986328125</LongitudeDegrees>
            </Position>
            <AltitudeMeters>726.4000244140625</AltitudeMeters>
            <DistanceMeters>18321.750940377</DistanceMeters>
          </Trackpoint>
          <Trackpoint>
            <Time>2022-08-27T01:09:46.000Z</Time>
            <Position>
              <LatitudeDegrees>50.1836352981626987457275390625</LatitudeDegrees>
              <LongitudeDegrees>16.99600727297365665435791015625</LongitudeDegrees>
            </Position>
            <AltitudeMeters>725.79998779296875</AltitudeMeters>
            <DistanceMeters>18323.627567621</DistanceMeters>
          </Trackpoint>
          <Trackpoint>
            <Time>2022-08-27T01:09:53.000Z</Time>
            <Position>
              <LatitudeDegrees>50.1836195401847362518310546875</LatitudeDegrees>
              <LongitudeDegrees>16.99597324244678020477294921875</LongitudeDegrees>
            </Position>
            <AltitudeMeters>724.5999755859375</AltitudeMeters>
            <DistanceMeters>18326.62053201</DistanceMeters>
          </Trackpoint>
          <Trackpoint>
            <Time>2022-08-27T01:10:00.000Z</Time>
            <Position>
              <LatitudeDegrees>50.18361912108957767486572265625</LatitudeDegrees>
              <LongitudeDegrees>16.995954550802707672119140625</LongitudeDegrees>
            </Position>
            <AltitudeMeters>723.4000244140625</AltitudeMeters>
            <DistanceMeters>18327.950906011</DistanceMeters>
          </Trackpoint>
          <Trackpoint>
            <Time>2022-08-27T01:10:05.000Z</Time>
            <Position>
              <LatitudeDegrees>50.1836047880351543426513671875</LatitudeDegrees>
              <LongitudeDegrees>16.99592898599803447723388671875</LongitudeDegrees>
            </Position>
            <AltitudeMeters>722.20001220703125</AltitudeMeters>
            <DistanceMeters>18330.371757021</DistanceMeters>
          </Trackpoint>
          <Trackpoint>
            <Time>2022-08-27T01:10:14.000Z</Time>
            <Position>
              <LatitudeDegrees>50.1835561729967594146728515625</LatitudeDegrees>
              <LongitudeDegrees>16.99585103429853916168212890625</LongitudeDegrees>
            </Position>
            <AltitudeMeters>721.20001220703125</AltitudeMeters>
            <DistanceMeters>18338.127357526</DistanceMeters>
          </Trackpoint>
          <Trackpoint>
            <Time>2022-08-27T01:10:17.000Z</Time>
            <Position>
              <LatitudeDegrees>50.18350160680711269378662109375</LatitudeDegrees>
              <LongitudeDegrees>16.99577576480805873870849609375</LongitudeDegrees>
            </Position>
            <AltitudeMeters>720.5999755859375</AltitudeMeters>
            <DistanceMeters>18346.230857751</DistanceMeters>
          </Trackpoint>
          <Trackpoint>
            <Time>2022-08-27T01:10:20.000Z</Time>
            <Position>
              <LatitudeDegrees>50.18347076140344142913818359375</LatitudeDegrees>
              <LongitudeDegrees>16.9957314245402812957763671875</LongitudeDegrees>
            </Position>
            <AltitudeMeters>720</AltitudeMeters>
            <DistanceMeters>18350.896853283</DistanceMeters>
          </Trackpoint>
          <Trackpoint>
            <Time>2022-08-27T01:10:25.000Z</Time>
            <Position>
              <LatitudeDegrees>50.18344796262681484222412109375</LatitudeDegrees>
              <LongitudeDegrees>16.9956978969275951385498046875</LongitudeDegrees>
            </Position>
            <AltitudeMeters>718.79998779296875</AltitudeMeters>
            <DistanceMeters>18354.383181279</DistanceMeters>
          </Trackpoint>
          <Trackpoint>
            <Time>2022-08-27T01:10:30.000Z</Time>
            <Position>
              <LatitudeDegrees>50.18342130817472934722900390625</LatitudeDegrees>
              <LongitudeDegrees>16.995656155049800872802734375</LongitudeDegrees>
            </Position>
            <AltitudeMeters>718</AltitudeMeters>
            <DistanceMeters>18358.584823749</DistanceMeters>
          </Trackpoint>
          <Trackpoint>
            <Time>2022-08-27T01:10:32.000Z</Time>
            <Position>
              <LatitudeDegrees>50.18341024406254291534423828125</LatitudeDegrees>
              <LongitudeDegrees>16.99564752168953418731689453125</LongitudeDegrees>
            </Position>
            <AltitudeMeters>717.79998779296875</AltitudeMeters>
            <DistanceMeters>18359.961891668</DistanceMeters>
          </Trackpoint>
          <Trackpoint>
            <Time>2022-08-27T01:10:40.000Z</Time>
            <Position>
              <LatitudeDegrees>50.18333296291530132293701171875</LatitudeDegrees>
              <LongitudeDegrees>16.995548866689205169677734375</LongitudeDegrees>
            </Position>
            <AltitudeMeters>716.79998779296875</AltitudeMeters>
            <DistanceMeters>18371.071485938</DistanceMeters>
          </Trackpoint>
          <Trackpoint>
            <Time>2022-08-27T01:10:46.000Z</Time>
            <Position>
              <LatitudeDegrees>50.1833013631403446197509765625</LatitudeDegrees>
              <LongitudeDegrees>16.9955047778785228729248046875</LongitudeDegrees>
            </Position>
            <AltitudeMeters>715.79998779296875</AltitudeMeters>
            <DistanceMeters>18375.78848799</DistanceMeters>
          </Trackpoint>
          <Trackpoint>
            <Time>2022-08-27T01:10:48.000Z</Time>
            <Position>
              <LatitudeDegrees>50.18328954465687274932861328125</LatitudeDegrees>
              <LongitudeDegrees>16.99548575095832347869873046875</LongitudeDegrees>
            </Position>
            <AltitudeMeters>715.4000244140625</AltitudeMeters>
            <DistanceMeters>18377.67949573</DistanceMeters>
          </Trackpoint>
          <Trackpoint>
            <Time>2022-08-27T01:10:55.000Z</Time>
            <Position>
              <LatitudeDegrees>50.18323690630495548248291015625</LatitudeDegrees>
              <LongitudeDegrees>16.99541819281876087188720703125</LongitudeDegrees>
            </Position>
            <AltitudeMeters>714.4000244140625</AltitudeMeters>
            <DistanceMeters>18385.26260372</DistanceMeters>
          </Trackpoint>
          <Trackpoint>
            <Time>2022-08-27T01:10:59.000Z</Time>
            <Position>
              <LatitudeDegrees>50.183208324015140533447265625</LatitudeDegrees>
              <LongitudeDegrees>16.995380222797393798828125</LongitudeDegrees>
            </Position>
            <AltitudeMeters>714</AltitudeMeters>
            <DistanceMeters>18389.440538349</DistanceMeters>
          </Trackpoint>
          <Trackpoint>
            <Time>2022-08-27T01:11:03.000Z</Time>
            <Position>
              <LatitudeDegrees>50.1831702701747417449951171875</LatitudeDegrees>
              <LongitudeDegrees>16.995330937206745147705078125</LongitudeDegrees>
            </Position>
            <AltitudeMeters>713.4000244140625</AltitudeMeters>
            <DistanceMeters>18394.942248651</DistanceMeters>
          </Trackpoint>
          <Trackpoint>
            <Time>2022-08-27T01:11:12.000Z</Time>
            <Position>
              <LatitudeDegrees>50.18312777392566204071044921875</LatitudeDegrees>
              <LongitudeDegrees>16.99525156058371067047119140625</LongitudeDegrees>
            </Position>
            <AltitudeMeters>712.4000244140625</AltitudeMeters>
            <DistanceMeters>18402.316468633</DistanceMeters>
          </Trackpoint>
          <Trackpoint>
            <Time>2022-08-27T01:11:18.000Z</Time>
            <Position>
              <LatitudeDegrees>50.1830971799790859222412109375</LatitudeDegrees>
              <LongitudeDegrees>16.995163299143314361572265625</LongitudeDegrees>
            </Position>
            <AltitudeMeters>711.4000244140625</AltitudeMeters>
            <DistanceMeters>18409.470030208</DistanceMeters>
          </Trackpoint>
          <Trackpoint>
            <Time>2022-08-27T01:11:25.000Z</Time>
            <Position>
              <LatitudeDegrees>50.18303439952433109283447265625</LatitudeDegrees>
              <LongitudeDegrees>16.99506095610558986663818359375</LongitudeDegrees>
            </Position>
            <AltitudeMeters>710</AltitudeMeters>
            <DistanceMeters>18419.570614531</DistanceMeters>
          </Trackpoint>
          <Trackpoint>
            <Time>2022-08-27T01:11:28.000Z</Time>
            <Position>
              <LatitudeDegrees>50.18301445059478282928466796875</LatitudeDegrees>
              <LongitudeDegrees>16.9950310327112674713134765625</LongitudeDegrees>
            </Position>
            <AltitudeMeters>709.5999755859375</AltitudeMeters>
            <DistanceMeters>18422.649832007</DistanceMeters>
          </Trackpoint>
          <Trackpoint>
            <Time>2022-08-27T01:11:32.000Z</Time>
            <Position>
              <LatitudeDegrees>50.1829786598682403564453125</LatitudeDegrees>
              <LongitudeDegrees>16.99497613124549388885498046875</LongitudeDegrees>
            </Position>
            <AltitudeMeters>709</AltitudeMeters>
            <DistanceMeters>18428.234622427</DistanceMeters>
          </Trackpoint>
          <Trackpoint>
            <Time>2022-08-27T01:11:39.000Z</Time>
            <Position>
              <LatitudeDegrees>50.18293599598109722137451171875</LatitudeDegrees>
              <LongitudeDegrees>16.99491418898105621337890625</LongitudeDegrees>
            </Position>
            <AltitudeMeters>708</AltitudeMeters>
            <DistanceMeters>18434.718759681</DistanceMeters>
          </Trackpoint>
          <Trackpoint>
            <Time>2022-08-27T01:11:40.000Z</Time>
            <Position>
              <LatitudeDegrees>50.182930715382099151611328125</LatitudeDegrees>
              <LongitudeDegrees>16.99490153230726718902587890625</LongitudeDegrees>
            </Position>
            <AltitudeMeters>707.79998779296875</AltitudeMeters>
            <DistanceMeters>18435.793864227</DistanceMeters>
          </Trackpoint>
          <Trackpoint>
            <Time>2022-08-27T01:11:48.000Z</Time>
            <Position>
              <LatitudeDegrees>50.18288168124854564666748046875</LatitudeDegrees>
              <LongitudeDegrees>16.9948692619800567626953125</LongitudeDegrees>
            </Position>
            <AltitudeMeters>706.79998779296875</AltitudeMeters>
            <DistanceMeters>18441.716857303</DistanceMeters>
          </Trackpoint>
          <Trackpoint>
            <Time>2022-08-27T01:11:51.000Z</Time>
            <Position>
              <LatitudeDegrees>50.18287078477442264556884765625</LatitudeDegrees>
              <LongitudeDegrees>16.9948466308414936065673828125</LongitudeDegrees>
            </Position>
            <AltitudeMeters>706.4000244140625</AltitudeMeters>
            <DistanceMeters>18443.737152963</DistanceMeters>
          </Trackpoint>
          <Trackpoint>
            <Time>2022-08-27T01:12:03.000Z</Time>
            <Position>
              <LatitudeDegrees>50.1828359998762607574462890625</LatitudeDegrees>
              <LongitudeDegrees>16.99468863196671009063720703125</LongitudeDegrees>
            </Position>
            <AltitudeMeters>706</AltitudeMeters>
            <DistanceMeters>18455.644724518</DistanceMeters>
          </Trackpoint>
          <Trackpoint>
            <Time>2022-08-27T01:12:05.000Z</Time>
            <Position>
              <LatitudeDegrees>50.18283155746757984161376953125</LatitudeDegrees>
              <LongitudeDegrees>16.9946561940014362335205078125</LongitudeDegrees>
            </Position>
            <AltitudeMeters>705.5999755859375</AltitudeMeters>
            <DistanceMeters>18458.008961671</DistanceMeters>
          </Trackpoint>
          <Trackpoint>
            <Time>2022-08-27T01:12:14.000Z</Time>
            <Position>
              <LatitudeDegrees>50.18278227187693119049072265625</LatitudeDegrees>
              <LongitudeDegrees>16.9945462234318256378173828125</LongitudeDegrees>
            </Position>
            <AltitudeMeters>704.5999755859375</AltitudeMeters>
            <DistanceMeters>18467.575561107</DistanceMeters>
          </Trackpoint>
          <Trackpoint>
            <Time>2022-08-27T01:12:16.000Z</Time>
            <Position>
              <LatitudeDegrees>50.182770453393459320068359375</LatitudeDegrees>
              <LongitudeDegrees>16.9945251010358333587646484375</LongitudeDegrees>
            </Position>
            <AltitudeMeters>704</AltitudeMeters>
            <DistanceMeters>18469.573383368</DistanceMeters>
          </Trackpoint>
          <Trackpoint>
            <Time>2022-08-27T01:12:20.000Z</Time>
            <Position>
              <LatitudeDegrees>50.1827602274715900421142578125</LatitudeDegrees>
              <LongitudeDegrees>16.99450221844017505645751953125</LongitudeDegrees>
            </Position>
            <AltitudeMeters>703.5999755859375</AltitudeMeters>
            <DistanceMeters>18471.559873591</DistanceMeters>
          </Trackpoint>
          <Trackpoint>
            <Time>2022-08-27T01:12:27.000Z</Time>
            <Position>
              <LatitudeDegrees>50.18272510729730129241943359375</LatitudeDegrees>
              <LongitudeDegrees>16.9944079220294952392578125</LongitudeDegrees>
            </Position>
            <AltitudeMeters>702.79998779296875</AltitudeMeters>
            <DistanceMeters>18479.334081052</DistanceMeters>
          </Trackpoint>
          <Trackpoint>
            <Time>2022-08-27T01:12:31.000Z</Time>
            <Position>
              <LatitudeDegrees>50.18268872983753681182861328125</LatitudeDegrees>
              <LongitudeDegrees>16.99434078298509120941162109375</LongitudeDegrees>
            </Position>
            <AltitudeMeters>702.4000244140625</AltitudeMeters>
            <DistanceMeters>18485.601523316</DistanceMeters>
          </Trackpoint>
          <Trackpoint>
            <Time>2022-08-27T01:12:39.000Z</Time>
            <Position>
              <LatitudeDegrees>50.18266291357576847076416015625</LatitudeDegrees>
              <LongitudeDegrees>16.9942324049770832061767578125</LongitudeDegrees>
            </Position>
            <AltitudeMeters>701.4000244140625</AltitudeMeters>
            <DistanceMeters>18493.843139359</DistanceMeters>
          </Trackpoint>
          <Trackpoint>
            <Time>2022-08-27T01:12:41.000Z</Time>
            <Position>
              <LatitudeDegrees>50.18265453167259693145751953125</LatitudeDegrees>
              <LongitudeDegrees>16.99420742690563201904296875</LongitudeDegrees>
            </Position>
            <AltitudeMeters>701.20001220703125</AltitudeMeters>
            <DistanceMeters>18495.84998118</DistanceMeters>
          </Trackpoint>
          <Trackpoint>
            <Time>2022-08-27T01:12:48.000Z</Time>
            <Position>
              <LatitudeDegrees>50.18263609148561954498291015625</LatitudeDegrees>
              <LongitudeDegrees>16.9941557943820953369140625</LongitudeDegrees>
            </Position>
            <AltitudeMeters>700.4000244140625</AltitudeMeters>
            <DistanceMeters>18500.063427547</DistanceMeters>
          </Trackpoint>
          <Trackpoint>
            <Time>2022-08-27T01:12:54.000Z</Time>
            <Position>
              <LatitudeDegrees>50.18260658718645572662353515625</LatitudeDegrees>
              <LongitudeDegrees>16.994103491306304931640625</LongitudeDegrees>
            </Position>
            <AltitudeMeters>699.4000244140625</AltitudeMeters>
            <DistanceMeters>18505.032152635</DistanceMeters>
          </Trackpoint>
          <Trackpoint>
            <Time>2022-08-27T01:12:55.000Z</Time>
            <Position>
              <LatitudeDegrees>50.18260273151099681854248046875</LatitudeDegrees>
              <LongitudeDegrees>16.99409150518476963043212890625</LongitudeDegrees>
            </Position>
            <AltitudeMeters>699.20001220703125</AltitudeMeters>
            <DistanceMeters>18505.991875406</DistanceMeters>
          </Trackpoint>
          <Trackpoint>
            <Time>2022-08-27T01:12:59.000Z</Time>
            <Position>
              <LatitudeDegrees>50.1825798489153385162353515625</LatitudeDegrees>
              <LongitudeDegrees>16.9940446503460407257080078125</LongitudeDegrees>
            </Position>
            <AltitudeMeters>698.20001220703125</AltitudeMeters>
            <DistanceMeters>18510.19244315</DistanceMeters>
          </Trackpoint>
          <Trackpoint>
            <Time>2022-08-27T01:13:07.000Z</Time>
            <Position>
              <LatitudeDegrees>50.18253701739013195037841796875</LatitudeDegrees>
              <LongitudeDegrees>16.99396342970430850982666015625</LongitudeDegrees>
            </Position>
            <AltitudeMeters>697.20001220703125</AltitudeMeters>
            <DistanceMeters>18517.691730856</DistanceMeters>
          </Trackpoint>
          <Trackpoint>
            <Time>2022-08-27T01:13:14.000Z</Time>
            <Position>
              <LatitudeDegrees>50.18251128494739532470703125</LatitudeDegrees>
              <LongitudeDegrees>16.993893943727016448974609375</LongitudeDegrees>
            </Position>
            <AltitudeMeters>696</AltitudeMeters>
            <DistanceMeters>18523.41230749</DistanceMeters>
          </Trackpoint>
          <Trackpoint>
            <Time>2022-08-27T01:13:19.000Z</Time>
            <Position>
              <LatitudeDegrees>50.1824950240552425384521484375</LatitudeDegrees>
              <LongitudeDegrees>16.99386619962751865386962890625</LongitudeDegrees>
            </Position>
            <AltitudeMeters>695.20001220703125</AltitudeMeters>
            <DistanceMeters>18526.093341032</DistanceMeters>
          </Trackpoint>
          <Trackpoint>
            <Time>2022-08-27T01:13:22.000Z</Time>
            <Position>
              <LatitudeDegrees>50.1824859715998172760009765625</LatitudeDegrees>
              <LongitudeDegrees>16.99383459985256195068359375</LongitudeDegrees>
            </Position>
            <AltitudeMeters>695</AltitudeMeters>
            <DistanceMeters>18528.560378024</DistanceMeters>
          </Trackpoint>
          <Trackpoint>
            <Time>2022-08-27T01:13:31.000Z</Time>
            <Position>
              <LatitudeDegrees>50.18245202489197254180908203125</LatitudeDegrees>
              <LongitudeDegrees>16.99377282522618770599365234375</LongitudeDegrees>
            </Position>
            <AltitudeMeters>693.79998779296875</AltitudeMeters>
            <DistanceMeters>18534.362457391</DistanceMeters>
          </Trackpoint>
          <Trackpoint>
            <Time>2022-08-27T01:13:40.000Z</Time>
            <Position>
              <LatitudeDegrees>50.18241028301417827606201171875</LatitudeDegrees>
              <LongitudeDegrees>16.99370325542986392974853515625</LongitudeDegrees>
            </Position>
            <AltitudeMeters>692.79998779296875</AltitudeMeters>
            <DistanceMeters>18541.158030284</DistanceMeters>
          </Trackpoint>
          <Trackpoint>
            <Time>2022-08-27T01:13:46.000Z</Time>
            <Position>
              <LatitudeDegrees>50.1823733188211917877197265625</LatitudeDegrees>
              <LongitudeDegrees>16.99365648441016674041748046875</LongitudeDegrees>
            </Position>
            <AltitudeMeters>691.79998779296875</AltitudeMeters>
            <DistanceMeters>18546.454011537</DistanceMeters>
          </Trackpoint>
          <Trackpoint>
            <Time>2022-08-27T01:13:56.000Z</Time>
            <Position>
              <LatitudeDegrees>50.1823590695858001708984375</LatitudeDegrees>
              <LongitudeDegrees>16.9935937039554119110107421875</LongitudeDegrees>
            </Position>
            <AltitudeMeters>690.79998779296875</AltitudeMeters>
            <DistanceMeters>18551.201544665</DistanceMeters>
          </Trackpoint>
          <Trackpoint>
            <Time>2022-08-27T01:13:58.000Z</Time>
            <Position>
              <LatitudeDegrees>50.1823739893734455108642578125</LatitudeDegrees>
              <LongitudeDegrees>16.99356579221785068511962890625</LongitudeDegrees>
            </Position>
            <AltitudeMeters>690.5999755859375</AltitudeMeters>
            <DistanceMeters>18553.793527859</DistanceMeters>
          </Trackpoint>
          <Trackpoint>
            <Time>2022-08-27T01:14:05.000Z</Time>
            <Position>
              <LatitudeDegrees>50.18240265548229217529296875</LatitudeDegrees>
              <LongitudeDegrees>16.9934924505650997161865234375</LongitudeDegrees>
            </Position>
            <AltitudeMeters>689.79998779296875</AltitudeMeters>
            <DistanceMeters>18559.917407958</DistanceMeters>
          </Trackpoint>
          <Trackpoint>
            <Time>2022-08-27T01:14:10.000Z</Time>
            <Position>
              <LatitudeDegrees>50.1824071817100048065185546875</LatitudeDegrees>
              <LongitudeDegrees>16.993459425866603851318359375</LongitudeDegrees>
            </Position>
            <AltitudeMeters>689</AltitudeMeters>
            <DistanceMeters>18562.325168136</DistanceMeters>
          </Trackpoint>
          <Trackpoint>
            <Time>2022-08-27T01:14:12.000Z</Time>
            <Position>
              <LatitudeDegrees>50.18237977288663387298583984375</LatitudeDegrees>
              <LongitudeDegrees>16.9934559054672718048095703125</LongitudeDegrees>
            </Position>
            <AltitudeMeters>688.5999755859375</AltitudeMeters>
            <DistanceMeters>18565.386739522</DistanceMeters>
          </Trackpoint>
          <Trackpoint>
            <Time>2022-08-27T01:14:19.000Z</Time>
            <Position>
              <LatitudeDegrees>50.18237474374473094940185546875</LatitudeDegrees>
              <LongitudeDegrees>16.9934119842946529388427734375</LongitudeDegrees>
            </Position>
            <AltitudeMeters>687.5999755859375</AltitudeMeters>
            <DistanceMeters>18568.566941657</DistanceMeters>
          </Trackpoint>
          <Trackpoint>
            <Time>2022-08-27T01:14:21.000Z</Time>
            <Position>
              <LatitudeDegrees>50.182372145354747772216796875</LatitudeDegrees>
              <LongitudeDegrees>16.99339865706861019134521484375</LongitudeDegrees>
            </Position>
            <AltitudeMeters>687.4000244140625</AltitudeMeters>
            <DistanceMeters>18569.559049681</DistanceMeters>
          </Trackpoint>
          <Trackpoint>
            <Time>2022-08-27T01:14:29.000Z</Time>
            <Position>
              <LatitudeDegrees>50.18240089528262615203857421875</LatitudeDegrees>
              <LongitudeDegrees>16.99333277530968189239501953125</LongitudeDegrees>
            </Position>
            <AltitudeMeters>686.5999755859375</AltitudeMeters>
            <DistanceMeters>18575.241615419</DistanceMeters>
          </Trackpoint>
          <Trackpoint>
            <Time>2022-08-27T01:14:34.000Z</Time>
            <Position>
              <LatitudeDegrees>50.1824363507330417633056640625</LatitudeDegrees>
              <LongitudeDegrees>16.99329522438347339630126953125</LongitudeDegrees>
            </Position>
            <AltitudeMeters>685.79998779296875</AltitudeMeters>
            <DistanceMeters>18580.010025268</DistanceMeters>
          </Trackpoint>
          <Trackpoint>
            <Time>2022-08-27T01:14:35.000Z</Time>
            <Position>
              <LatitudeDegrees>50.18244096077978610992431640625</LatitudeDegrees>
              <LongitudeDegrees>16.993287093937397003173828125</LongitudeDegrees>
            </Position>
            <AltitudeMeters>685.5999755859375</AltitudeMeters>
            <DistanceMeters>18580.787852448</DistanceMeters>
          </Trackpoint>
          <Trackpoint>
            <Time>2022-08-27T01:14:42.000Z</Time>
            <Position>
              <LatitudeDegrees>50.18248940818011760711669921875</LatitudeDegrees>
              <LongitudeDegrees>16.99321442283689975738525390625</LongitudeDegrees>
            </Position>
            <AltitudeMeters>684.5999755859375</AltitudeMeters>
            <DistanceMeters>18588.264830665</DistanceMeters>
          </Trackpoint>
          <Trackpoint>
            <Time>2022-08-27T01:14:47.000Z</Time>
            <Position>
              <LatitudeDegrees>50.18250449560582637786865234375</LatitudeDegrees>
              <LongitudeDegrees>16.99317720718681812286376953125</LongitudeDegrees>
            </Position>
            <AltitudeMeters>683.79998779296875</AltitudeMeters>
            <DistanceMeters>18591.403590516</DistanceMeters>
          </Trackpoint>
          <Trackpoint>
            <Time>2022-08-27T01:14:49.000Z</Time>
            <Position>
              <LatitudeDegrees>50.1825268752872943878173828125</LatitudeDegrees>
              <LongitudeDegrees>16.99316346086561679840087890625</LongitudeDegrees>
            </Position>
            <AltitudeMeters>683.4000244140625</AltitudeMeters>
            <DistanceMeters>18594.077879308</DistanceMeters>
          </Trackpoint>
          <Trackpoint>
            <Time>2022-08-27T01:14:57.000Z</Time>
            <Position>
              <LatitudeDegrees>50.18254724331200122833251953125</LatitudeDegrees>
              <LongitudeDegrees>16.99311769567430019378662109375</LongitudeDegrees>
            </Position>
            <AltitudeMeters>682.4000244140625</AltitudeMeters>
            <DistanceMeters>18598.050859754</DistanceMeters>
          </Trackpoint>
          <Trackpoint>
            <Time>2022-08-27T01:15:00.000Z</Time>
            <Position>
              <LatitudeDegrees>50.18256417475640773773193359375</LatitudeDegrees>
              <LongitudeDegrees>16.9930922985076904296875</LongitudeDegrees>
            </Position>
            <AltitudeMeters>682</AltitudeMeters>
            <DistanceMeters>18600.663662424</DistanceMeters>
          </Trackpoint>
          <Trackpoint>
            <Time>2022-08-27T01:15:03.000Z</Time>
            <Position>
              <LatitudeDegrees>50.18257968127727508544921875</LatitudeDegrees>
              <LongitudeDegrees>16.99306522496044635772705078125</LongitudeDegrees>
            </Position>
            <AltitudeMeters>681.4000244140625</AltitudeMeters>
            <DistanceMeters>18603.252159424</DistanceMeters>
          </Trackpoint>
          <Trackpoint>
            <Time>2022-08-27T01:15:08.000Z</Time>
            <Position>
              <LatitudeDegrees>50.1825951039791107177734375</LatitudeDegrees>
              <LongitudeDegrees>16.9930239021778106689453125</LongitudeDegrees>
            </Position>
            <AltitudeMeters>680.4000244140625</AltitudeMeters>
            <DistanceMeters>18606.659897429</DistanceMeters>
          </Trackpoint>
          <Trackpoint>
            <Time>2022-08-27T01:15:13.000Z</Time>
            <Position>
              <LatitudeDegrees>50.1825915835797786712646484375</LatitudeDegrees>
              <LongitudeDegrees>16.9929838366806507110595703125</LongitudeDegrees>
            </Position>
            <AltitudeMeters>679.5999755859375</AltitudeMeters>
            <DistanceMeters>18609.542200384</DistanceMeters>
          </Trackpoint>
          <Trackpoint>
            <Time>2022-08-27T01:15:16.000Z</Time>
            <Position>
              <LatitudeDegrees>50.18259468488395214080810546875</LatitudeDegrees>
              <LongitudeDegrees>16.99295978061854839324951171875</LongitudeDegrees>
            </Position>
            <AltitudeMeters>679.20001220703125</AltitudeMeters>
            <DistanceMeters>18611.289245272</DistanceMeters>
          </Trackpoint>
          <Trackpoint>
            <Time>2022-08-27T01:15:25.000Z</Time>
            <Position>
              <LatitudeDegrees>50.1826341636478900909423828125</LatitudeDegrees>
              <LongitudeDegrees>16.99292642064392566680908203125</LongitudeDegrees>
            </Position>
            <AltitudeMeters>678.20001220703125</AltitudeMeters>
            <DistanceMeters>18616.285156729</DistanceMeters>
          </Trackpoint>
          <Trackpoint>
            <Time>2022-08-27T01:15:28.000Z</Time>
            <Position>
              <LatitudeDegrees>50.18265184946358203887939453125</LatitudeDegrees>
              <LongitudeDegrees>16.9929047115147113800048828125</LongitudeDegrees>
            </Position>
            <AltitudeMeters>678</AltitudeMeters>
            <DistanceMeters>18618.788529065</DistanceMeters>
          </Trackpoint>
          <Trackpoint>
            <Time>2022-08-27T01:15:34.000Z</Time>
            <Position>
              <LatitudeDegrees>50.18266190774738788604736328125</LatitudeDegrees>
              <LongitudeDegrees>16.99286288581788539886474609375</LongitudeDegrees>
            </Position>
            <AltitudeMeters>677.20001220703125</AltitudeMeters>
            <DistanceMeters>18621.971569399</DistanceMeters>
          </Trackpoint>
          <Trackpoint>
            <Time>2022-08-27T01:15:40.000Z</Time>
            <Position>
              <LatitudeDegrees>50.18269526772201061248779296875</LatitudeDegrees>
              <LongitudeDegrees>16.9928239099681377410888671875</LongitudeDegrees>
            </Position>
            <AltitudeMeters>676.20001220703125</AltitudeMeters>
            <DistanceMeters>18626.607470815</DistanceMeters>
          </Trackpoint>
          <Trackpoint>
            <Time>2022-08-27T01:15:41.000Z</Time>
            <Position>
              <LatitudeDegrees>50.18269426189363002777099609375</LatitudeDegrees>
              <LongitudeDegrees>16.99281536042690277099609375</LongitudeDegrees>
            </Position>
            <AltitudeMeters>676</AltitudeMeters>
            <DistanceMeters>18627.22331431</DistanceMeters>
          </Trackpoint>
          <Trackpoint>
            <Time>2022-08-27T01:15:47.000Z</Time>
            <Position>
              <LatitudeDegrees>50.18272326327860355377197265625</LatitudeDegrees>
              <LongitudeDegrees>16.9927736185491085052490234375</LongitudeDegrees>
            </Position>
            <AltitudeMeters>674.79998779296875</AltitudeMeters>
            <DistanceMeters>18631.613095983</DistanceMeters>
          </Trackpoint>
          <Trackpoint>
            <Time>2022-08-27T01:15:52.000Z</Time>
            <Position>
              <LatitudeDegrees>50.18273248337209224700927734375</LatitudeDegrees>
              <LongitudeDegrees>16.9927498139441013336181640625</LongitudeDegrees>
            </Position>
            <AltitudeMeters>674.20001220703125</AltitudeMeters>
            <DistanceMeters>18633.597312032</DistanceMeters>
          </Trackpoint>
          <Trackpoint>
            <Time>2022-08-27T01:15:55.000Z</Time>
            <Position>
              <LatitudeDegrees>50.1827453076839447021484375</LatitudeDegrees>
              <LongitudeDegrees>16.992742605507373809814453125</LongitudeDegrees>
            </Position>
            <AltitudeMeters>673.5999755859375</AltitudeMeters>
            <DistanceMeters>18635.111788647</DistanceMeters>
          </Trackpoint>
          <Trackpoint>
            <Time>2022-08-27T01:16:03.000Z</Time>
            <Position>
              <LatitudeDegrees>50.18275536596775054931640625</LatitudeDegrees>
              <LongitudeDegrees>16.9927256740629673004150390625</LongitudeDegrees>
            </Position>
            <AltitudeMeters>672.5999755859375</AltitudeMeters>
            <DistanceMeters>18636.75769962</DistanceMeters>
          </Trackpoint>
          <Trackpoint>
            <Time>2022-08-27T01:16:07.000Z</Time>
            <Position>
              <LatitudeDegrees>50.18275536596775054931640625</LatitudeDegrees>
              <LongitudeDegrees>16.9927172921597957611083984375</LongitudeDegrees>
            </Position>
            <AltitudeMeters>672</AltitudeMeters>
            <DistanceMeters>18637.358701332</DistanceMeters>
          </Trackpoint>
          <Trackpoint>
            <Time>2022-08-27T01:16:10.000Z</Time>
            <Position>
              <LatitudeDegrees>50.18276986666023731231689453125</LatitudeDegrees>
              <LongitudeDegrees>16.9927065633237361907958984375</LongitudeDegrees>
            </Position>
            <AltitudeMeters>671.5999755859375</AltitudeMeters>
            <DistanceMeters>18639.146618294</DistanceMeters>
          </Trackpoint>
          <Trackpoint>
            <Time>2022-08-27T01:16:19.000Z</Time>
            <Position>
              <LatitudeDegrees>50.1828225888311862945556640625</LatitudeDegrees>
              <LongitudeDegrees>16.9926760531961917877197265625</LongitudeDegrees>
            </Position>
            <AltitudeMeters>670.5999755859375</AltitudeMeters>
            <DistanceMeters>18645.405409839</DistanceMeters>
          </Trackpoint>
          <Trackpoint>
            <Time>2022-08-27T01:16:21.000Z</Time>
            <Position>
              <LatitudeDegrees>50.182831473648548126220703125</LatitudeDegrees>
              <LongitudeDegrees>16.99267110787332057952880859375</LongitudeDegrees>
            </Position>
            <AltitudeMeters>670.20001220703125</AltitudeMeters>
            <DistanceMeters>18646.455014206</DistanceMeters>
          </Trackpoint>
          <Trackpoint>
            <Time>2022-08-27T01:16:29.000Z</Time>
            <Position>
              <LatitudeDegrees>50.18284924328327178955078125</LatitudeDegrees>
              <LongitudeDegrees>16.99264210648834705352783203125</LongitudeDegrees>
            </Position>
            <AltitudeMeters>669.20001220703125</AltitudeMeters>
            <DistanceMeters>18649.315302523</DistanceMeters>
          </Trackpoint>
          <Trackpoint>
            <Time>2022-08-27T01:16:33.000Z</Time>
            <Position>
              <LatitudeDegrees>50.18286474980413913726806640625</LatitudeDegrees>
              <LongitudeDegrees>16.99263590388000011444091796875</LongitudeDegrees>
            </Position>
            <AltitudeMeters>668.5999755859375</AltitudeMeters>
            <DistanceMeters>18651.093089562</DistanceMeters>
          </Trackpoint>
          <Trackpoint>
            <Time>2022-08-27T01:16:37.000Z</Time>
            <Position>
              <LatitudeDegrees>50.182895176112651824951171875</LatitudeDegrees>
              <LongitudeDegrees>16.99261696077883243560791015625</LongitudeDegrees>
            </Position>
            <AltitudeMeters>667.79998779296875</AltitudeMeters>
            <DistanceMeters>18654.738946461</DistanceMeters>
          </Trackpoint>
          <Trackpoint>
            <Time>2022-08-27T01:16:46.000Z</Time>
            <Position>
              <LatitudeDegrees>50.18296835012733936309814453125</LatitudeDegrees>
              <LongitudeDegrees>16.99261209927499294281005859375</LongitudeDegrees>
            </Position>
            <AltitudeMeters>666.79998779296875</AltitudeMeters>
            <DistanceMeters>18662.890222586</DistanceMeters>
          </Trackpoint>
          <Trackpoint>
            <Time>2022-08-27T01:16:47.000Z</Time>
            <Position>
              <LatitudeDegrees>50.182980000972747802734375</LatitudeDegrees>
              <LongitudeDegrees>16.99260991998016834259033203125</LongitudeDegrees>
            </Position>
            <AltitudeMeters>666.5999755859375</AltitudeMeters>
            <DistanceMeters>18664.193163249</DistanceMeters>
          </Trackpoint>
          <Trackpoint>
            <Time>2022-08-27T01:16:58.000Z</Time>
            <Position>
              <LatitudeDegrees>50.18313867039978504180908203125</LatitudeDegrees>
              <LongitudeDegrees>16.992553509771823883056640625</LongitudeDegrees>
            </Position>
            <AltitudeMeters>665.5999755859375</AltitudeMeters>
            <DistanceMeters>18682.305165266</DistanceMeters>
          </Trackpoint>
          <Trackpoint>
            <Time>2022-08-27T01:17:01.000Z</Time>
            <Position>
              <LatitudeDegrees>50.183186195790767669677734375</LatitudeDegrees>
              <LongitudeDegrees>16.99256717227399349212646484375</LongitudeDegrees>
            </Position>
            <AltitudeMeters>665</AltitudeMeters>
            <DistanceMeters>18687.684046649</DistanceMeters>
          </Trackpoint>
          <Trackpoint>
            <Time>2022-08-27T01:17:09.000Z</Time>
            <Position>
              <LatitudeDegrees>50.18321746028959751129150390625</LatitudeDegrees>
              <LongitudeDegrees>16.9925379194319248199462890625</LongitudeDegrees>
            </Position>
            <AltitudeMeters>664.4000244140625</AltitudeMeters>
            <DistanceMeters>18691.740251683</DistanceMeters>
          </Trackpoint>
          <Trackpoint>
            <Time>2022-08-27T01:17:15.000Z</Time>
            <Position>
              <LatitudeDegrees>50.18327965401113033294677734375</LatitudeDegrees>
              <LongitudeDegrees>16.9924614764750003814697265625</LongitudeDegrees>
            </Position>
            <AltitudeMeters>663.79998779296875</AltitudeMeters>
            <DistanceMeters>18700.549079464</DistanceMeters>
          </Trackpoint>
          <Trackpoint>
            <Time>2022-08-27T01:17:20.000Z</Time>
            <Position>
              <LatitudeDegrees>50.1833090744912624359130859375</LatitudeDegrees>
              <LongitudeDegrees>16.99239266104996204376220703125</LongitudeDegrees>
            </Position>
            <AltitudeMeters>663.20001220703125</AltitudeMeters>
            <DistanceMeters>18706.446097727</DistanceMeters>
          </Trackpoint>
          <Trackpoint>
            <Time>2022-08-27T01:17:27.000Z</Time>
            <Position>
              <LatitudeDegrees>50.18331133760511875152587890625</LatitudeDegrees>
              <LongitudeDegrees>16.99230649508535861968994140625</LongitudeDegrees>
            </Position>
            <AltitudeMeters>662</AltitudeMeters>
            <DistanceMeters>18712.592791134</DistanceMeters>
          </Trackpoint>
          <Trackpoint>
            <Time>2022-08-27T01:17:38.000Z</Time>
            <Position>
              <LatitudeDegrees>50.18332525156438350677490234375</LatitudeDegrees>
              <LongitudeDegrees>16.99218244291841983795166015625</LongitudeDegrees>
            </Position>
            <AltitudeMeters>661</AltitudeMeters>
            <DistanceMeters>18721.568666692</DistanceMeters>
          </Trackpoint>
          <Trackpoint>
            <Time>2022-08-27T01:17:48.000Z</Time>
            <Position>
              <LatitudeDegrees>50.183335728943347930908203125</LatitudeDegrees>
              <LongitudeDegrees>16.99214237742125988006591796875</LongitudeDegrees>
            </Position>
            <AltitudeMeters>660.79998779296875</AltitudeMeters>
            <DistanceMeters>18724.652279913</DistanceMeters>
          </Trackpoint>
          <Trackpoint>
            <Time>2022-08-27T01:17:58.000Z</Time>
            <Position>
              <LatitudeDegrees>50.18336154520511627197265625</LatitudeDegrees>
              <LongitudeDegrees>16.99213206768035888671875</LongitudeDegrees>
            </Position>
            <AltitudeMeters>661.4000244140625</AltitudeMeters>
            <DistanceMeters>18727.617966082</DistanceMeters>
          </Trackpoint>
          <Trackpoint>
            <Time>2022-08-27T01:18:10.000Z</Time>
            <Position>
              <LatitudeDegrees>50.1833509840071201324462890625</LatitudeDegrees>
              <LongitudeDegrees>16.99213600717484951019287109375</LongitudeDegrees>
            </Position>
            <AltitudeMeters>662.5999755859375</AltitudeMeters>
            <DistanceMeters>18728.827458696</DistanceMeters>
          </Trackpoint>
          <Trackpoint>
            <Time>2022-08-27T01:18:13.000Z</Time>
            <Position>
              <LatitudeDegrees>50.18337168730795383453369140625</LatitudeDegrees>
              <LongitudeDegrees>16.9921362586319446563720703125</LongitudeDegrees>
            </Position>
            <AltitudeMeters>662.79998779296875</AltitudeMeters>
            <DistanceMeters>18731.13173406</DistanceMeters>
          </Trackpoint>
          <Trackpoint>
            <Time>2022-08-27T01:18:23.000Z</Time>
            <Position>
              <LatitudeDegrees>50.1834314502775669097900390625</LatitudeDegrees>
              <LongitudeDegrees>16.992126367986202239990234375</LongitudeDegrees>
            </Position>
            <AltitudeMeters>663.4000244140625</AltitudeMeters>
            <DistanceMeters>18737.821506765</DistanceMeters>
          </Trackpoint>
          <Trackpoint>
            <Time>2022-08-27T01:18:26.000Z</Time>
            <Position>
              <LatitudeDegrees>50.18345450051128864288330078125</LatitudeDegrees>
              <LongitudeDegrees>16.992147825658321380615234375</LongitudeDegrees>
            </Position>
            <AltitudeMeters>663.5999755859375</AltitudeMeters>
            <DistanceMeters>18740.809942076</DistanceMeters>
          </Trackpoint>
          <Trackpoint>
            <Time>2022-08-27T01:18:35.000Z</Time>
            <Position>
              <LatitudeDegrees>50.18350445665419101715087890625</LatitudeDegrees>
              <LongitudeDegrees>16.9921821914613246917724609375</LongitudeDegrees>
            </Position>
            <AltitudeMeters>664.4000244140625</AltitudeMeters>
            <DistanceMeters>18746.885709723</DistanceMeters>
          </Trackpoint>
          <Trackpoint>
            <Time>2022-08-27T01:18:38.000Z</Time>
            <Position>
              <LatitudeDegrees>50.1835303567349910736083984375</LatitudeDegrees>
              <LongitudeDegrees>16.99219501577317714691162109375</LongitudeDegrees>
            </Position>
            <AltitudeMeters>664.5999755859375</AltitudeMeters>
            <DistanceMeters>18749.908694566</DistanceMeters>
          </Trackpoint>
          <Trackpoint>
            <Time>2022-08-27T01:18:51.000Z</Time>
            <Position>
              <LatitudeDegrees>50.18365063704550266265869140625</LatitudeDegrees>
              <LongitudeDegrees>16.992243714630603790283203125</LongitudeDegrees>
            </Position>
            <AltitudeMeters>665.20001220703125</AltitudeMeters>
            <DistanceMeters>18763.738917964</DistanceMeters>
          </Trackpoint>
          <Trackpoint>
            <Time>2022-08-27T01:18:53.000Z</Time>
            <Position>
              <LatitudeDegrees>50.1836658082902431488037109375</LatitudeDegrees>
              <LongitudeDegrees>16.9922487437725067138671875</LongitudeDegrees>
            </Position>
            <AltitudeMeters>665.4000244140625</AltitudeMeters>
            <DistanceMeters>18765.467777502</DistanceMeters>
          </Trackpoint>
          <Trackpoint>
            <Time>2022-08-27T01:19:06.000Z</Time>
            <Position>
              <LatitudeDegrees>50.1838210411369800567626953125</LatitudeDegrees>
              <LongitudeDegrees>16.9922916591167449951171875</LongitudeDegrees>
            </Position>
            <AltitudeMeters>666</AltitudeMeters>
            <DistanceMeters>18783.014042811</DistanceMeters>
          </Trackpoint>
          <Trackpoint>
            <Time>2022-08-27T01:19:07.000Z</Time>
            <Position>
              <LatitudeDegrees>50.18383897840976715087890625</LatitudeDegrees>
              <LongitudeDegrees>16.9922941736876964569091796875</LongitudeDegrees>
            </Position>
            <AltitudeMeters>666.20001220703125</AltitudeMeters>
            <DistanceMeters>18785.018633546</DistanceMeters>
          </Trackpoint>
          <Trackpoint>
            <Time>2022-08-27T01:19:20.000Z</Time>
            <Position>
              <LatitudeDegrees>50.1839987374842166900634765625</LatitudeDegrees>
              <LongitudeDegrees>16.99237556196749210357666015625</LongitudeDegrees>
            </Position>
            <AltitudeMeters>667</AltitudeMeters>
            <DistanceMeters>18803.722247139</DistanceMeters>
          </Trackpoint>
          <Trackpoint>
            <Time>2022-08-27T01:19:22.000Z</Time>
            <Position>
              <LatitudeDegrees>50.18401239998638629913330078125</LatitudeDegrees>
              <LongitudeDegrees>16.99239232577383518218994140625</LongitudeDegrees>
            </Position>
            <AltitudeMeters>667.20001220703125</AltitudeMeters>
            <DistanceMeters>18805.655754742</DistanceMeters>
          </Trackpoint>
          <Trackpoint>
            <Time>2022-08-27T01:19:33.000Z</Time>
            <Position>
              <LatitudeDegrees>50.18420216627418994903564453125</LatitudeDegrees>
              <LongitudeDegrees>16.9924266077578067779541015625</LongitudeDegrees>
            </Position>
            <AltitudeMeters>667.79998779296875</AltitudeMeters>
            <DistanceMeters>18826.91796881</DistanceMeters>
          </Trackpoint>
          <Trackpoint>
            <Time>2022-08-27T01:19:35.000Z</Time>
            <Position>
              <LatitudeDegrees>50.184216164052486419677734375</LatitudeDegrees>
              <LongitudeDegrees>16.99244915507733821868896484375</LongitudeDegrees>
            </Position>
            <AltitudeMeters>668</AltitudeMeters>
            <DistanceMeters>18829.154632028</DistanceMeters>
          </Trackpoint>
          <Trackpoint>
            <Time>2022-08-27T01:19:47.000Z</Time>
            <Position>
              <LatitudeDegrees>50.18431842327117919921875</LatitudeDegrees>
              <LongitudeDegrees>16.99256264604628086090087890625</LongitudeDegrees>
            </Position>
            <AltitudeMeters>668.5999755859375</AltitudeMeters>
            <DistanceMeters>18843.118063217</DistanceMeters>
          </Trackpoint>
          <Trackpoint>
            <Time>2022-08-27T01:19:50.000Z</Time>
            <Position>
              <LatitudeDegrees>50.184375084936618804931640625</LatitudeDegrees>
              <LongitudeDegrees>16.99256599880754947662353515625</LongitudeDegrees>
            </Position>
            <AltitudeMeters>668.79998779296875</AltitudeMeters>
            <DistanceMeters>18849.428581192</DistanceMeters>
          </Trackpoint>
          <Trackpoint>
            <Time>2022-08-27T01:19:58.000Z</Time>
            <Position>
              <LatitudeDegrees>50.1844828762114048004150390625</LatitudeDegrees>
              <LongitudeDegrees>16.9925935752689838409423828125</LongitudeDegrees>
            </Position>
            <AltitudeMeters>669.4000244140625</AltitudeMeters>
            <DistanceMeters>18861.58531723</DistanceMeters>
          </Trackpoint>
          <Trackpoint>
            <Time>2022-08-27T01:20:02.000Z</Time>
            <Position>
              <LatitudeDegrees>50.18456527031958103179931640625</LatitudeDegrees>
              <LongitudeDegrees>16.9925754703581333160400390625</LongitudeDegrees>
            </Position>
            <AltitudeMeters>669.5999755859375</AltitudeMeters>
            <DistanceMeters>18870.845913106</DistanceMeters>
          </Trackpoint>
          <Trackpoint>
            <Time>2022-08-27T01:20:11.000Z</Time>
            <Position>
              <LatitudeDegrees>50.18465881235897541046142578125</LatitudeDegrees>
              <LongitudeDegrees>16.9926844350993633270263671875</LongitudeDegrees>
            </Position>
            <AltitudeMeters>670.4000244140625</AltitudeMeters>
            <DistanceMeters>18883.834712828</DistanceMeters>
          </Trackpoint>
          <Trackpoint>
            <Time>2022-08-27T01:20:13.000Z</Time>
            <Position>
              <LatitudeDegrees>50.18467641435563564300537109375</LatitudeDegrees>
              <LongitudeDegrees>16.99270647950470447540283203125</LongitudeDegrees>
            </Position>
            <AltitudeMeters>670.5999755859375</AltitudeMeters>
            <DistanceMeters>18886.345289128</DistanceMeters>
          </Trackpoint>
          <Trackpoint>
            <Time>2022-08-27T01:20:26.000Z</Time>
            <Position>
              <LatitudeDegrees>50.18485947512090206146240234375</LatitudeDegrees>
              <LongitudeDegrees>16.99288845062255859375</LongitudeDegrees>
            </Position>
            <AltitudeMeters>671.5999755859375</AltitudeMeters>
            <DistanceMeters>18910.497408665</DistanceMeters>
          </Trackpoint>
          <Trackpoint>
            <Time>2022-08-27T01:20:27.000Z</Time>
            <Position>
              <LatitudeDegrees>50.1848754845559597015380859375</LatitudeDegrees>
              <LongitudeDegrees>16.9929005205631256103515625</LongitudeDegrees>
            </Position>
            <AltitudeMeters>671.5999755859375</AltitudeMeters>
            <DistanceMeters>18912.477068529</DistanceMeters>
          </Trackpoint>
          <Trackpoint>
            <Time>2022-08-27T01:20:39.000Z</Time>
            <Position>
              <LatitudeDegrees>50.18499107100069522857666015625</LatitudeDegrees>
              <LongitudeDegrees>16.9930022768676280975341796875</LongitudeDegrees>
            </Position>
            <AltitudeMeters>672.20001220703125</AltitudeMeters>
            <DistanceMeters>18927.24539397</DistanceMeters>
          </Trackpoint>
          <Trackpoint>
            <Time>2022-08-27T01:20:42.000Z</Time>
            <Position>
              <LatitudeDegrees>50.1850283704698085784912109375</LatitudeDegrees>
              <LongitudeDegrees>16.99304410256445407867431640625</LongitudeDegrees>
            </Position>
            <AltitudeMeters>672.5999755859375</AltitudeMeters>
            <DistanceMeters>18932.355675868</DistanceMeters>
          </Trackpoint>
          <Trackpoint>
            <Time>2022-08-27T01:20:52.000Z</Time>
            <Position>
              <LatitudeDegrees>50.18513054586946964263916015625</LatitudeDegrees>
              <LongitudeDegrees>16.993095315992832183837890625</LongitudeDegrees>
            </Position>
            <AltitudeMeters>673</AltitudeMeters>
            <DistanceMeters>18944.299592632</DistanceMeters>
          </Trackpoint>
          <Trackpoint>
            <Time>2022-08-27T01:20:58.000Z</Time>
            <Position>
              <LatitudeDegrees>50.18518016673624515533447265625</LatitudeDegrees>
              <LongitudeDegrees>16.99316362850368022918701171875</LongitudeDegrees>
            </Position>
            <AltitudeMeters>673.4000244140625</AltitudeMeters>
            <DistanceMeters>18951.66217023</DistanceMeters>
          </Trackpoint>
          <Trackpoint>
            <Time>2022-08-27T01:21:03.000Z</Time>
            <Position>
              <LatitudeDegrees>50.18522241152822971343994140625</LatitudeDegrees>
              <LongitudeDegrees>16.9932198710739612579345703125</LongitudeDegrees>
            </Position>
            <AltitudeMeters>673.5999755859375</AltitudeMeters>
            <DistanceMeters>18957.841099199</DistanceMeters>
          </Trackpoint>
          <Trackpoint>
            <Time>2022-08-27T01:21:14.000Z</Time>
            <Position>
              <LatitudeDegrees>50.1853468827903270721435546875</LatitudeDegrees>
              <LongitudeDegrees>16.9933606870472431182861328125</LongitudeDegrees>
            </Position>
            <AltitudeMeters>674.4000244140625</AltitudeMeters>
            <DistanceMeters>18974.948019361</DistanceMeters>
          </Trackpoint>
          <Trackpoint>
            <Time>2022-08-27T01:21:15.000Z</Time>
            <Position>
              <LatitudeDegrees>50.18536792136728763580322265625</LatitudeDegrees>
              <LongitudeDegrees>16.99337334372103214263916015625</LongitudeDegrees>
            </Position>
            <AltitudeMeters>674.4000244140625</AltitudeMeters>
            <DistanceMeters>18977.45859566</DistanceMeters>
          </Trackpoint>
          <Trackpoint>
            <Time>2022-08-27T01:21:26.000Z</Time>
            <Position>
              <LatitudeDegrees>50.18544386141002178192138671875</LatitudeDegrees>
              <LongitudeDegrees>16.9935186021029949188232421875</LongitudeDegrees>
            </Position>
            <AltitudeMeters>674.5999755859375</AltitudeMeters>
            <DistanceMeters>18990.82328466</DistanceMeters>
          </Trackpoint>
          <Trackpoint>
            <Time>2022-08-27T01:21:34.000Z</Time>
            <Position>
              <LatitudeDegrees>50.18548795022070407867431640625</LatitudeDegrees>
              <LongitudeDegrees>16.993566714227199554443359375</LongitudeDegrees>
            </Position>
            <AltitudeMeters>675.20001220703125</AltitudeMeters>
            <DistanceMeters>18996.810721798</DistanceMeters>
          </Trackpoint>
          <Trackpoint>
            <Time>2022-08-27T01:21:35.000Z</Time>
            <Position>
              <LatitudeDegrees>50.185491554439067840576171875</LatitudeDegrees>
              <LongitudeDegrees>16.99357635341584682464599609375</LongitudeDegrees>
            </Position>
            <AltitudeMeters>675.4000244140625</AltitudeMeters>
            <DistanceMeters>18997.605772332</DistanceMeters>
          </Trackpoint>
          <Trackpoint>
            <Time>2022-08-27T01:21:45.000Z</Time>
            <Position>
              <LatitudeDegrees>50.18553723581135272979736328125</LatitudeDegrees>
              <LongitudeDegrees>16.99371549300849437713623046875</LongitudeDegrees>
            </Position>
            <AltitudeMeters>675.79998779296875</AltitudeMeters>
            <DistanceMeters>19008.74945266</DistanceMeters>
          </Trackpoint>
          <Trackpoint>
            <Time>2022-08-27T01:21:54.000Z</Time>
            <Position>
              <LatitudeDegrees>50.185553915798664093017578125</LatitudeDegrees>
              <LongitudeDegrees>16.99379696510732173919677734375</LongitudeDegrees>
            </Position>
            <AltitudeMeters>676.20001220703125</AltitudeMeters>
            <DistanceMeters>19014.845992223</DistanceMeters>
          </Trackpoint>
          <Trackpoint>
            <Time>2022-08-27T01:21:55.000Z</Time>
            <Position>
              <LatitudeDegrees>50.1855562627315521240234375</LatitudeDegrees>
              <LongitudeDegrees>16.9937975518405437469482421875</LongitudeDegrees>
            </Position>
            <AltitudeMeters>676.20001220703125</AltitudeMeters>
            <DistanceMeters>19015.11476836</DistanceMeters>
          </Trackpoint>
          <Trackpoint>
            <Time>2022-08-27T01:22:07.000Z</Time>
            <Position>
              <LatitudeDegrees>50.18560462631285190582275390625</LatitudeDegrees>
              <LongitudeDegrees>16.99388732202351093292236328125</LongitudeDegrees>
            </Position>
            <AltitudeMeters>677.20001220703125</AltitudeMeters>
            <DistanceMeters>19023.476039306</DistanceMeters>
          </Trackpoint>
          <Trackpoint>
            <Time>2022-08-27T01:22:09.000Z</Time>
            <Position>
              <LatitudeDegrees>50.185610912740230560302734375</LatitudeDegrees>
              <LongitudeDegrees>16.99391012080013751983642578125</LongitudeDegrees>
            </Position>
            <AltitudeMeters>677.4000244140625</AltitudeMeters>
            <DistanceMeters>19025.24619086</DistanceMeters>
          </Trackpoint>
          <Trackpoint>
            <Time>2022-08-27T01:22:18.000Z</Time>
            <Position>
              <LatitudeDegrees>50.18566145561635494232177734375</LatitudeDegrees>
              <LongitudeDegrees>16.9939868152141571044921875</LongitudeDegrees>
            </Position>
            <AltitudeMeters>678</AltitudeMeters>
            <DistanceMeters>19033.089781289</DistanceMeters>
          </Trackpoint>
          <Trackpoint>
            <Time>2022-08-27T01:22:21.000Z</Time>
            <Position>
              <LatitudeDegrees>50.185679979622364044189453125</LatitudeDegrees>
              <LongitudeDegrees>16.99401757679879665374755859375</LongitudeDegrees>
            </Position>
            <AltitudeMeters>678.20001220703125</AltitudeMeters>
            <DistanceMeters>19036.097793356</DistanceMeters>
          </Trackpoint>
          <Trackpoint>
            <Time>2022-08-27T01:22:29.000Z</Time>
            <Position>
              <LatitudeDegrees>50.185734294354915618896484375</LatitudeDegrees>
              <LongitudeDegrees>16.99406987987458705902099609375</LongitudeDegrees>
            </Position>
            <AltitudeMeters>679</AltitudeMeters>
            <DistanceMeters>19043.200047014</DistanceMeters>
          </Trackpoint>
          <Trackpoint>
            <Time>2022-08-27T01:22:35.000Z</Time>
            <Position>
              <LatitudeDegrees>50.1857949793338775634765625</LatitudeDegrees>
              <LongitudeDegrees>16.9940828718245029449462890625</LongitudeDegrees>
            </Position>
            <AltitudeMeters>679.20001220703125</AltitudeMeters>
            <DistanceMeters>19050.018172382</DistanceMeters>
          </Trackpoint>
          <Trackpoint>
            <Time>2022-08-27T01:22:43.000Z</Time>
            <Position>
              <LatitudeDegrees>50.18591509200632572174072265625</LatitudeDegrees>
              <LongitudeDegrees>16.99415420182049274444580078125</LongitudeDegrees>
            </Position>
            <AltitudeMeters>679.79998779296875</AltitudeMeters>
            <DistanceMeters>19064.320876733</DistanceMeters>
          </Trackpoint>
          <Trackpoint>
            <Time>2022-08-27T01:22:49.000Z</Time>
            <Position>
              <LatitudeDegrees>50.1859748549759387969970703125</LatitudeDegrees>
              <LongitudeDegrees>16.99419812299311161041259765625</LongitudeDegrees>
            </Position>
            <AltitudeMeters>680.4000244140625</AltitudeMeters>
            <DistanceMeters>19071.671793508</DistanceMeters>
          </Trackpoint>
          <Trackpoint>
            <Time>2022-08-27T01:23:03.000Z</Time>
            <Position>
              <LatitudeDegrees>50.1860613562166690826416015625</LatitudeDegrees>
              <LongitudeDegrees>16.99420432560145854949951171875</LongitudeDegrees>
            </Position>
            <AltitudeMeters>680.4000244140625</AltitudeMeters>
            <DistanceMeters>19081.309395197</DistanceMeters>
          </Trackpoint>
          <Trackpoint>
            <Time>2022-08-27T01:23:13.000Z</Time>
            <Position>
              <LatitudeDegrees>50.18611474893987178802490234375</LatitudeDegrees>
              <LongitudeDegrees>16.9942362606525421142578125</LongitudeDegrees>
            </Position>
            <AltitudeMeters>680.4000244140625</AltitudeMeters>
            <DistanceMeters>19087.672638299</DistanceMeters>
          </Trackpoint>
          <Trackpoint>
            <Time>2022-08-27T01:23:17.000Z</Time>
            <Position>
              <LatitudeDegrees>50.1861317642033100128173828125</LatitudeDegrees>
              <LongitudeDegrees>16.99424204416573047637939453125</LongitudeDegrees>
            </Position>
            <AltitudeMeters>680.4000244140625</AltitudeMeters>
            <DistanceMeters>19089.610810582</DistanceMeters>
          </Trackpoint>
          <Trackpoint>
            <Time>2022-08-27T01:23:31.000Z</Time>
            <Position>
              <LatitudeDegrees>50.18627031706273555755615234375</LatitudeDegrees>
              <LongitudeDegrees>16.99427020736038684844970703125</LongitudeDegrees>
            </Position>
            <AltitudeMeters>681.20001220703125</AltitudeMeters>
            <DistanceMeters>19105.16212909</DistanceMeters>
          </Trackpoint>
          <Trackpoint>
            <Time>2022-08-27T01:23:33.000Z</Time>
            <Position>
              <LatitudeDegrees>50.1863010786473751068115234375</LatitudeDegrees>
              <LongitudeDegrees>16.99428613297641277313232421875</LongitudeDegrees>
            </Position>
            <AltitudeMeters>681.4000244140625</AltitudeMeters>
            <DistanceMeters>19108.768139361</DistanceMeters>
          </Trackpoint>
          <Trackpoint>
            <Time>2022-08-27T01:23:44.000Z</Time>
            <Position>
              <LatitudeDegrees>50.18647751770913600921630859375</LatitudeDegrees>
              <LongitudeDegrees>16.9942984543740749359130859375</LongitudeDegrees>
            </Position>
            <AltitudeMeters>682</AltitudeMeters>
            <DistanceMeters>19128.425811178</DistanceMeters>
          </Trackpoint>
          <Trackpoint>
            <Time>2022-08-27T01:23:48.000Z</Time>
            <Position>
              <LatitudeDegrees>50.18652931787073612213134765625</LatitudeDegrees>
              <LongitudeDegrees>16.994299627840518951416015625</LongitudeDegrees>
            </Position>
            <AltitudeMeters>682.4000244140625</AltitudeMeters>
            <DistanceMeters>19134.191983346</DistanceMeters>
          </Trackpoint>
          <Trackpoint>
            <Time>2022-08-27T01:23:58.000Z</Time>
            <Position>
              <LatitudeDegrees>50.18663920462131500244140625</LatitudeDegrees>
              <LongitudeDegrees>16.99428127147257328033447265625</LongitudeDegrees>
            </Position>
            <AltitudeMeters>682.79998779296875</AltitudeMeters>
            <DistanceMeters>19146.492713442</DistanceMeters>
          </Trackpoint>
          <Trackpoint>
            <Time>2022-08-27T01:24:02.000Z</Time>
            <Position>
              <LatitudeDegrees>50.18669343553483486175537109375</LatitudeDegrees>
              <LongitudeDegrees>16.99426920153200626373291015625</LongitudeDegrees>
            </Position>
            <AltitudeMeters>683</AltitudeMeters>
            <DistanceMeters>19152.589253005</DistanceMeters>
          </Trackpoint>
          <Trackpoint>
            <Time>2022-08-27T01:24:14.000Z</Time>
            <Position>
              <LatitudeDegrees>50.1868143863976001739501953125</LatitudeDegrees>
              <LongitudeDegrees>16.9942577183246612548828125</LongitudeDegrees>
            </Position>
            <AltitudeMeters>683.5999755859375</AltitudeMeters>
            <DistanceMeters>19166.075683212</DistanceMeters>
          </Trackpoint>
          <Trackpoint>
            <Time>2022-08-27T01:24:15.000Z</Time>
            <Position>
              <LatitudeDegrees>50.1868244446814060211181640625</LatitudeDegrees>
              <LongitudeDegrees>16.99426283128559589385986328125</LongitudeDegrees>
            </Position>
            <AltitudeMeters>683.79998779296875</AltitudeMeters>
            <DistanceMeters>19167.254933725</DistanceMeters>
          </Trackpoint>
          <Trackpoint>
            <Time>2022-08-27T01:24:25.000Z</Time>
            <Position>
              <LatitudeDegrees>50.1869106106460094451904296875</LatitudeDegrees>
              <LongitudeDegrees>16.99434958398342132568359375</LongitudeDegrees>
            </Position>
            <AltitudeMeters>684.79998779296875</AltitudeMeters>
            <DistanceMeters>19178.665264227</DistanceMeters>
          </Trackpoint>
          <Trackpoint>
            <Time>2022-08-27T01:24:29.000Z</Time>
            <Position>
              <LatitudeDegrees>50.1869387738406658172607421875</LatitudeDegrees>
              <LongitudeDegrees>16.9943864643573760986328125</LongitudeDegrees>
            </Position>
            <AltitudeMeters>684.79998779296875</AltitudeMeters>
            <DistanceMeters>19182.756934024</DistanceMeters>
          </Trackpoint>
          <Trackpoint>
            <Time>2022-08-27T01:24:36.000Z</Time>
            <Position>
              <LatitudeDegrees>50.186980180442333221435546875</LatitudeDegrees>
              <LongitudeDegrees>16.994443126022815704345703125</LongitudeDegrees>
            </Position>
            <AltitudeMeters>685.5999755859375</AltitudeMeters>
            <DistanceMeters>19188.884499434</DistanceMeters>
          </Trackpoint>
          <Trackpoint>
            <Time>2022-08-27T01:24:46.000Z</Time>
            <Position>
              <LatitudeDegrees>50.1870832778513431549072265625</LatitudeDegrees>
              <LongitudeDegrees>16.994489394128322601318359375</LongitudeDegrees>
            </Position>
            <AltitudeMeters>686.4000244140625</AltitudeMeters>
            <DistanceMeters>19200.823879098</DistanceMeters>
          </Trackpoint>
          <Trackpoint>
            <Time>2022-08-27T01:24:49.000Z</Time>
            <Position>
              <LatitudeDegrees>50.1871119439601898193359375</LatitudeDegrees>
              <LongitudeDegrees>16.99451948516070842742919921875</LongitudeDegrees>
            </Position>
            <AltitudeMeters>686.5999755859375</AltitudeMeters>
            <DistanceMeters>19204.668646339</DistanceMeters>
          </Trackpoint>
          <Trackpoint>
            <Time>2022-08-27T01:25:00.000Z</Time>
            <Position>
              <LatitudeDegrees>50.18728385679423809051513671875</LatitudeDegrees>
              <LongitudeDegrees>16.99458268471062183380126953125</LongitudeDegrees>
            </Position>
            <AltitudeMeters>687.4000244140625</AltitudeMeters>
            <DistanceMeters>19224.326088471</DistanceMeters>
          </Trackpoint>
          <Trackpoint>
            <Time>2022-08-27T01:25:13.000Z</Time>
            <Position>
              <LatitudeDegrees>50.18743506632745265960693359375</LatitudeDegrees>
              <LongitudeDegrees>16.994636915624141693115234375</LongitudeDegrees>
            </Position>
            <AltitudeMeters>688.20001220703125</AltitudeMeters>
            <DistanceMeters>19241.593778652</DistanceMeters>
          </Trackpoint>
          <Trackpoint>
            <Time>2022-08-27T01:25:15.000Z</Time>
            <Position>
              <LatitudeDegrees>50.187456607818603515625</LatitudeDegrees>
              <LongitudeDegrees>16.99463314376771450042724609375</LongitudeDegrees>
            </Position>
            <AltitudeMeters>688.4000244140625</AltitudeMeters>
            <DistanceMeters>19244.005286319</DistanceMeters>
          </Trackpoint>
          <Trackpoint>
            <Time>2022-08-27T01:25:24.000Z</Time>
            <Position>
              <LatitudeDegrees>50.187552161514759063720703125</LatitudeDegrees>
              <LongitudeDegrees>16.99464596807956695556640625</LongitudeDegrees>
            </Position>
            <AltitudeMeters>689.4000244140625</AltitudeMeters>
            <DistanceMeters>19254.680470848</DistanceMeters>
          </Trackpoint>
          <Trackpoint>
            <Time>2022-08-27T01:25:29.000Z</Time>
            <Position>
              <LatitudeDegrees>50.18762734718620777130126953125</LatitudeDegrees>
              <LongitudeDegrees>16.994634568691253662109375</LongitudeDegrees>
            </Position>
            <AltitudeMeters>689.5999755859375</AltitudeMeters>
            <DistanceMeters>19263.088053045</DistanceMeters>
          </Trackpoint>
          <Trackpoint>
            <Time>2022-08-27T01:25:37.000Z</Time>
            <Position>
              <LatitudeDegrees>50.1877368986606597900390625</LatitudeDegrees>
              <LongitudeDegrees>16.99465208686888217926025390625</LongitudeDegrees>
            </Position>
            <AltitudeMeters>690.20001220703125</AltitudeMeters>
            <DistanceMeters>19275.344657458</DistanceMeters>
          </Trackpoint>
          <Trackpoint>
            <Time>2022-08-27T01:25:44.000Z</Time>
            <Position>
              <LatitudeDegrees>50.1878440193831920623779296875</LatitudeDegrees>
              <LongitudeDegrees>16.9946561940014362335205078125</LongitudeDegrees>
            </Position>
            <AltitudeMeters>690.5999755859375</AltitudeMeters>
            <DistanceMeters>19287.27117263</DistanceMeters>
          </Trackpoint>
          <Trackpoint>
            <Time>2022-08-27T01:25:51.000Z</Time>
            <Position>
              <LatitudeDegrees>50.18791032023727893829345703125</LatitudeDegrees>
              <LongitudeDegrees>16.99467807076871395111083984375</LongitudeDegrees>
            </Position>
            <AltitudeMeters>691.20001220703125</AltitudeMeters>
            <DistanceMeters>19294.813684254</DistanceMeters>
          </Trackpoint>
          <Trackpoint>
            <Time>2022-08-27T01:25:58.000Z</Time>
            <Position>
              <LatitudeDegrees>50.18797771073877811431884765625</LatitudeDegrees>
              <LongitudeDegrees>16.99463515542447566986083984375</LongitudeDegrees>
            </Position>
            <AltitudeMeters>691.4000244140625</AltitudeMeters>
            <DistanceMeters>19302.913840761</DistanceMeters>
          </Trackpoint>
          <Trackpoint>
            <Time>2022-08-27T01:26:06.000Z</Time>
            <Position>
              <LatitudeDegrees>50.1880896091461181640625</LatitudeDegrees>
              <LongitudeDegrees>16.9946444593369960784912109375</LongitudeDegrees>
            </Position>
            <AltitudeMeters>692.20001220703125</AltitudeMeters>
            <DistanceMeters>19315.385893392</DistanceMeters>
          </Trackpoint>
          <Trackpoint>
            <Time>2022-08-27T01:26:12.000Z</Time>
            <Position>
              <LatitudeDegrees>50.1881514675915241241455078125</LatitudeDegrees>
              <LongitudeDegrees>16.9946622289717197418212890625</LongitudeDegrees>
            </Position>
            <AltitudeMeters>692.5999755859375</AltitudeMeters>
            <DistanceMeters>19322.386982945</DistanceMeters>
          </Trackpoint>
          <Trackpoint>
            <Time>2022-08-27T01:26:17.000Z</Time>
            <Position>
              <LatitudeDegrees>50.18818776123225688934326171875</LatitudeDegrees>
              <LongitudeDegrees>16.99467522092163562774658203125</LongitudeDegrees>
            </Position>
            <AltitudeMeters>693</AltitudeMeters>
            <DistanceMeters>19326.532370198</DistanceMeters>
          </Trackpoint>
          <Trackpoint>
            <Time>2022-08-27T01:26:26.000Z</Time>
            <Position>
              <LatitudeDegrees>50.18827577121555805206298828125</LatitudeDegrees>
              <LongitudeDegrees>16.99467387981712818145751953125</LongitudeDegrees>
            </Position>
            <AltitudeMeters>694</AltitudeMeters>
            <DistanceMeters>19336.328882457</DistanceMeters>
          </Trackpoint>
          <Trackpoint>
            <Time>2022-08-27T01:26:27.000Z</Time>
            <Position>
              <LatitudeDegrees>50.18828683532774448394775390625</LatitudeDegrees>
              <LongitudeDegrees>16.994674466550350189208984375</LongitudeDegrees>
            </Position>
            <AltitudeMeters>694</AltitudeMeters>
            <DistanceMeters>19337.560569447</DistanceMeters>
          </Trackpoint>
          <Trackpoint>
            <Time>2022-08-27T01:26:36.000Z</Time>
            <Position>
              <LatitudeDegrees>50.18844273872673511505126953125</LatitudeDegrees>
              <LongitudeDegrees>16.9946568645536899566650390625</LongitudeDegrees>
            </Position>
            <AltitudeMeters>695</AltitudeMeters>
            <DistanceMeters>19354.958505026</DistanceMeters>
          </Trackpoint>
          <Trackpoint>
            <Time>2022-08-27T01:26:38.000Z</Time>
            <Position>
              <LatitudeDegrees>50.18848766572773456573486328125</LatitudeDegrees>
              <LongitudeDegrees>16.99463884346187114715576171875</LongitudeDegrees>
            </Position>
            <AltitudeMeters>695.20001220703125</AltitudeMeters>
            <DistanceMeters>19360.121526008</DistanceMeters>
          </Trackpoint>
          <Trackpoint>
            <Time>2022-08-27T01:26:46.000Z</Time>
            <Position>
              <LatitudeDegrees>50.1885906793177127838134765625</LatitudeDegrees>
              <LongitudeDegrees>16.99461956508457660675048828125</LongitudeDegrees>
            </Position>
            <AltitudeMeters>696</AltitudeMeters>
            <DistanceMeters>19371.66952016</DistanceMeters>
          </Trackpoint>
          <Trackpoint>
            <Time>2022-08-27T01:26:50.000Z</Time>
            <Position>
              <LatitudeDegrees>50.188616327941417694091796875</LatitudeDegrees>
              <LongitudeDegrees>16.9946520030498504638671875</LongitudeDegrees>
            </Position>
            <AltitudeMeters>696.4000244140625</AltitudeMeters>
            <DistanceMeters>19375.343749914</DistanceMeters>
          </Trackpoint>
          <Trackpoint>
            <Time>2022-08-27T01:26:55.000Z</Time>
            <Position>
              <LatitudeDegrees>50.18867944367229938507080078125</LatitudeDegrees>
              <LongitudeDegrees>16.9947034679353237152099609375</LongitudeDegrees>
            </Position>
            <AltitudeMeters>697</AltitudeMeters>
            <DistanceMeters>19383.269228558</DistanceMeters>
          </Trackpoint>
          <Trackpoint>
            <Time>2022-08-27T01:27:03.000Z</Time>
            <Position>
              <LatitudeDegrees>50.18874348141252994537353515625</LatitudeDegrees>
              <LongitudeDegrees>16.994799859821796417236328125</LongitudeDegrees>
            </Position>
            <AltitudeMeters>697.5999755859375</AltitudeMeters>
            <DistanceMeters>19393.168440121</DistanceMeters>
          </Trackpoint>
          <Trackpoint>
            <Time>2022-08-27T01:27:05.000Z</Time>
            <Position>
              <LatitudeDegrees>50.18875990994274616241455078125</LatitudeDegrees>
              <LongitudeDegrees>16.99482274241745471954345703125</LongitudeDegrees>
            </Position>
            <AltitudeMeters>697.79998779296875</AltitudeMeters>
            <DistanceMeters>19395.61710726</DistanceMeters>
          </Trackpoint>
          <Trackpoint>
            <Time>2022-08-27T01:27:15.000Z</Time>
            <Position>
              <LatitudeDegrees>50.18880818970501422882080078125</LatitudeDegrees>
              <LongitudeDegrees>16.99496188201010227203369140625</LongitudeDegrees>
            </Position>
            <AltitudeMeters>698.79998779296875</AltitudeMeters>
            <DistanceMeters>19406.894900782</DistanceMeters>
          </Trackpoint>
          <Trackpoint>
            <Time>2022-08-27T01:27:23.000Z</Time>
            <Position>
              <LatitudeDegrees>50.18887616693973541259765625</LatitudeDegrees>
              <LongitudeDegrees>16.9950541667640209197998046875</LongitudeDegrees>
            </Position>
            <AltitudeMeters>699.79998779296875</AltitudeMeters>
            <DistanceMeters>19416.920106556</DistanceMeters>
          </Trackpoint>
          <Trackpoint>
            <Time>2022-08-27T01:27:28.000Z</Time>
            <Position>
              <LatitudeDegrees>50.18891564570367336273193359375</LatitudeDegrees>
              <LongitudeDegrees>16.99510437436401844024658203125</LongitudeDegrees>
            </Position>
            <AltitudeMeters>700.4000244140625</AltitudeMeters>
            <DistanceMeters>19422.586759169</DistanceMeters>
          </Trackpoint>
          <Trackpoint>
            <Time>2022-08-27T01:27:32.000Z</Time>
            <Position>
              <LatitudeDegrees>50.1889618299901485443115234375</LatitudeDegrees>
              <LongitudeDegrees>16.995151229202747344970703125</LongitudeDegrees>
            </Position>
            <AltitudeMeters>701</AltitudeMeters>
            <DistanceMeters>19428.715798083</DistanceMeters>
          </Trackpoint>
          <Trackpoint>
            <Time>2022-08-27T01:27:42.000Z</Time>
            <Position>
              <LatitudeDegrees>50.18905319273471832275390625</LatitudeDegrees>
              <LongitudeDegrees>16.99525105766952037811279296875</LongitudeDegrees>
            </Position>
            <AltitudeMeters>701.79998779296875</AltitudeMeters>
            <DistanceMeters>19441.126156008</DistanceMeters>
          </Trackpoint>
          <Trackpoint>
            <Time>2022-08-27T01:27:44.000Z</Time>
            <Position>
              <LatitudeDegrees>50.189076326787471771240234375</LatitudeDegrees>
              <LongitudeDegrees>16.99526564218103885650634765625</LongitudeDegrees>
            </Position>
            <AltitudeMeters>702</AltitudeMeters>
            <DistanceMeters>19443.903148137</DistanceMeters>
          </Trackpoint>
          <Trackpoint>
            <Time>2022-08-27T01:27:53.000Z</Time>
            <Position>
              <LatitudeDegrees>50.1891341619193553924560546875</LatitudeDegrees>
              <LongitudeDegrees>16.9953824020922183990478515625</LongitudeDegrees>
            </Position>
            <AltitudeMeters>703</AltitudeMeters>
            <DistanceMeters>19454.423253502</DistanceMeters>
          </Trackpoint>
          <Trackpoint>
            <Time>2022-08-27T01:27:57.000Z</Time>
            <Position>
              <LatitudeDegrees>50.18918168731033802032470703125</LatitudeDegrees>
              <LongitudeDegrees>16.9954276643693447113037109375</LongitudeDegrees>
            </Position>
            <AltitudeMeters>703.20001220703125</AltitudeMeters>
            <DistanceMeters>19460.618237351</DistanceMeters>
          </Trackpoint>
          <Trackpoint>
            <Time>2022-08-27T01:28:07.000Z</Time>
            <Position>
              <LatitudeDegrees>50.18926936201751232147216796875</LatitudeDegrees>
              <LongitudeDegrees>16.99553621001541614532470703125</LongitudeDegrees>
            </Position>
            <AltitudeMeters>704</AltitudeMeters>
            <DistanceMeters>19473.070363379</DistanceMeters>
          </Trackpoint>
          <Trackpoint>
            <Time>2022-08-27T01:28:11.000Z</Time>
            <Position>
              <LatitudeDegrees>50.18932216800749301910400390625</LatitudeDegrees>
              <LongitudeDegrees>16.99556034989655017852783203125</LongitudeDegrees>
            </Position>
            <AltitudeMeters>704.20001220703125</AltitudeMeters>
            <DistanceMeters>19479.19350615</DistanceMeters>
          </Trackpoint>
          <Trackpoint>
            <Time>2022-08-27T01:28:24.000Z</Time>
            <Position>
              <LatitudeDegrees>50.18945024348795413970947265625</LatitudeDegrees>
              <LongitudeDegrees>16.995719186961650848388671875</LongitudeDegrees>
            </Position>
            <AltitudeMeters>704.79998779296875</AltitudeMeters>
            <DistanceMeters>19497.396021495</DistanceMeters>
          </Trackpoint>
          <Trackpoint>
            <Time>2022-08-27T01:28:37.000Z</Time>
            <Position>
              <LatitudeDegrees>50.18956256099045276641845703125</LatitudeDegrees>
              <LongitudeDegrees>16.99591607786715030670166015625</LongitudeDegrees>
            </Position>
            <AltitudeMeters>704.79998779296875</AltitudeMeters>
            <DistanceMeters>19516.188260041</DistanceMeters>
          </Trackpoint>
          <Trackpoint>
            <Time>2022-08-27T01:28:38.000Z</Time>
            <Position>
              <LatitudeDegrees>50.1895634829998016357421875</LatitudeDegrees>
              <LongitudeDegrees>16.995931752026081085205078125</LongitudeDegrees>
            </Position>
            <AltitudeMeters>704.79998779296875</AltitudeMeters>
            <DistanceMeters>19517.308608481</DistanceMeters>
          </Trackpoint>
          <Trackpoint>
            <Time>2022-08-27T01:28:52.000Z</Time>
            <Position>
              <LatitudeDegrees>50.18970270641148090362548828125</LatitudeDegrees>
              <LongitudeDegrees>16.99612998403608798980712890625</LongitudeDegrees>
            </Position>
            <AltitudeMeters>705</AltitudeMeters>
            <DistanceMeters>19538.276808021</DistanceMeters>
          </Trackpoint>
          <Trackpoint>
            <Time>2022-08-27T01:29:08.000Z</Time>
            <Position>
              <LatitudeDegrees>50.18980152904987335205078125</LatitudeDegrees>
              <LongitudeDegrees>16.9963718019425868988037109375</LongitudeDegrees>
            </Position>
            <AltitudeMeters>705.4000244140625</AltitudeMeters>
            <DistanceMeters>19558.719923437</DistanceMeters>
          </Trackpoint>
          <Trackpoint>
            <Time>2022-08-27T01:29:22.000Z</Time>
            <Position>
              <LatitudeDegrees>50.18994008190929889678955078125</LatitudeDegrees>
              <LongitudeDegrees>16.99656617827713489532470703125</LongitudeDegrees>
            </Position>
            <AltitudeMeters>705.4000244140625</AltitudeMeters>
            <DistanceMeters>19579.448384484</DistanceMeters>
          </Trackpoint>
          <Trackpoint>
            <Time>2022-08-27T01:29:23.000Z</Time>
            <Position>
              <LatitudeDegrees>50.18996648490428924560546875</LatitudeDegrees>
              <LongitudeDegrees>16.9965702854096889495849609375</LongitudeDegrees>
            </Position>
            <AltitudeMeters>705.4000244140625</AltitudeMeters>
            <DistanceMeters>19582.401866132</DistanceMeters>
          </Trackpoint>
          <Trackpoint>
            <Time>2022-08-27T01:29:34.000Z</Time>
            <Position>
              <LatitudeDegrees>50.19013504497706890106201171875</LatitudeDegrees>
              <LongitudeDegrees>16.996668018400669097900390625</LongitudeDegrees>
            </Position>
            <AltitudeMeters>705.79998779296875</AltitudeMeters>
            <DistanceMeters>19602.413959732</DistanceMeters>
          </Trackpoint>
          <Trackpoint>
            <Time>2022-08-27T01:29:44.000Z</Time>
            <Position>
              <LatitudeDegrees>50.19027200527489185333251953125</LatitudeDegrees>
              <LongitudeDegrees>16.99675359763205051422119140625</LongitudeDegrees>
            </Position>
            <AltitudeMeters>706.20001220703125</AltitudeMeters>
            <DistanceMeters>19618.832420135</DistanceMeters>
          </Trackpoint>
          <Trackpoint>
            <Time>2022-08-27T01:29:46.000Z</Time>
            <Position>
              <LatitudeDegrees>50.19029731862246990203857421875</LatitudeDegrees>
              <LongitudeDegrees>16.9967620633542537689208984375</LongitudeDegrees>
            </Position>
            <AltitudeMeters>706.20001220703125</AltitudeMeters>
            <DistanceMeters>19621.714723091</DistanceMeters>
          </Trackpoint>
          <Trackpoint>
            <Time>2022-08-27T01:29:47.000Z</Time>
            <Position>
              <LatitudeDegrees>50.19031642936170101165771484375</LatitudeDegrees>
              <LongitudeDegrees>16.99676985852420330047607421875</LongitudeDegrees>
            </Position>
            <AltitudeMeters>706.20001220703125</AltitudeMeters>
            <DistanceMeters>19623.91064222</DistanceMeters>
          </Trackpoint>
          <Trackpoint>
            <Time>2022-08-27T01:29:58.000Z</Time>
            <Position>
              <LatitudeDegrees>50.19046545960009098052978515625</LatitudeDegrees>
              <LongitudeDegrees>16.99684898369014263153076171875</LongitudeDegrees>
            </Position>
            <AltitudeMeters>707</AltitudeMeters>
            <DistanceMeters>19641.430125612</DistanceMeters>
          </Trackpoint>
          <Trackpoint>
            <Time>2022-08-27T01:30:05.000Z</Time>
            <Position>
              <LatitudeDegrees>50.19055481068789958953857421875</LatitudeDegrees>
              <LongitudeDegrees>16.99686306528747081756591796875</LongitudeDegrees>
            </Position>
            <AltitudeMeters>707.20001220703125</AltitudeMeters>
            <DistanceMeters>19651.42556286</DistanceMeters>
          </Trackpoint>
          <Trackpoint>
            <Time>2022-08-27T01:30:10.000Z</Time>
            <Position>
              <LatitudeDegrees>50.1906251348555088043212890625</LatitudeDegrees>
              <LongitudeDegrees>16.99688670225441455841064453125</LongitudeDegrees>
            </Position>
            <AltitudeMeters>707.79998779296875</AltitudeMeters>
            <DistanceMeters>19659.431528298</DistanceMeters>
          </Trackpoint>
          <Trackpoint>
            <Time>2022-08-27T01:30:20.000Z</Time>
            <Position>
              <LatitudeDegrees>50.19073468632996082305908203125</LatitudeDegrees>
              <LongitudeDegrees>16.9969850219786167144775390625</LongitudeDegrees>
            </Position>
            <AltitudeMeters>708</AltitudeMeters>
            <DistanceMeters>19673.494197822</DistanceMeters>
          </Trackpoint>
          <Trackpoint>
            <Time>2022-08-27T01:30:21.000Z</Time>
            <Position>
              <LatitudeDegrees>50.1907424814999103546142578125</LatitudeDegrees>
              <LongitudeDegrees>16.9969913922250270843505859375</LongitudeDegrees>
            </Position>
            <AltitudeMeters>708.20001220703125</AltitudeMeters>
            <DistanceMeters>19674.472557726</DistanceMeters>
          </Trackpoint>
          <Trackpoint>
            <Time>2022-08-27T01:30:32.000Z</Time>
            <Position>
              <LatitudeDegrees>50.190866701304912567138671875</LatitudeDegrees>
              <LongitudeDegrees>16.99702064506709575653076171875</LongitudeDegrees>
            </Position>
            <AltitudeMeters>709</AltitudeMeters>
            <DistanceMeters>19688.454730484</DistanceMeters>
          </Trackpoint>
          <Trackpoint>
            <Time>2022-08-27T01:30:35.000Z</Time>
            <Position>
              <LatitudeDegrees>50.19090098328888416290283203125</LatitudeDegrees>
              <LongitudeDegrees>16.9970349781215190887451171875</LongitudeDegrees>
            </Position>
            <AltitudeMeters>709</AltitudeMeters>
            <DistanceMeters>19692.40491682</DistanceMeters>
          </Trackpoint>
          <Trackpoint>
            <Time>2022-08-27T01:30:45.000Z</Time>
            <Position>
              <LatitudeDegrees>50.19101581536233425140380859375</LatitudeDegrees>
              <LongitudeDegrees>16.99703036807477474212646484375</LongitudeDegrees>
            </Position>
            <AltitudeMeters>709.5999755859375</AltitudeMeters>
            <DistanceMeters>19705.190160025</DistanceMeters>
          </Trackpoint>
          <Trackpoint>
            <Time>2022-08-27T01:30:48.000Z</Time>
            <Position>
              <LatitudeDegrees>50.19107683561742305755615234375</LatitudeDegrees>
              <LongitudeDegrees>16.997022069990634918212890625</LongitudeDegrees>
            </Position>
            <AltitudeMeters>710</AltitudeMeters>
            <DistanceMeters>19712.007623149</DistanceMeters>
          </Trackpoint>
          <Trackpoint>
            <Time>2022-08-27T01:30:58.000Z</Time>
            <Position>
              <LatitudeDegrees>50.191179849207401275634765625</LatitudeDegrees>
              <LongitudeDegrees>16.99708719737827777862548828125</LongitudeDegrees>
            </Position>
            <AltitudeMeters>710.5999755859375</AltitudeMeters>
            <DistanceMeters>19724.377167008</DistanceMeters>
          </Trackpoint>
          <Trackpoint>
            <Time>2022-08-27T01:31:03.000Z</Time>
            <Position>
              <LatitudeDegrees>50.19123894162476062774658203125</LatitudeDegrees>
              <LongitudeDegrees>16.99709289707243442535400390625</LongitudeDegrees>
            </Position>
            <AltitudeMeters>710.79998779296875</AltitudeMeters>
            <DistanceMeters>19730.967665297</DistanceMeters>
          </Trackpoint>
          <Trackpoint>
            <Time>2022-08-27T01:31:13.000Z</Time>
            <Position>
              <LatitudeDegrees>50.1913774944841861724853515625</LatitudeDegrees>
              <LongitudeDegrees>16.9971271790564060211181640625</LongitudeDegrees>
            </Position>
            <AltitudeMeters>711.5999755859375</AltitudeMeters>
            <DistanceMeters>19746.581280309</DistanceMeters>
          </Trackpoint>
          <Trackpoint>
            <Time>2022-08-27T01:31:16.000Z</Time>
            <Position>
              <LatitudeDegrees>50.19141010008752346038818359375</LatitudeDegrees>
              <LongitudeDegrees>16.99715626426041126251220703125</LongitudeDegrees>
            </Position>
            <AltitudeMeters>711.79998779296875</AltitudeMeters>
            <DistanceMeters>19750.760295485</DistanceMeters>
          </Trackpoint>
          <Trackpoint>
            <Time>2022-08-27T01:31:24.000Z</Time>
            <Position>
              <LatitudeDegrees>50.19148536957800388336181640625</LatitudeDegrees>
              <LongitudeDegrees>16.9972579367458820343017578125</LongitudeDegrees>
            </Position>
            <AltitudeMeters>712.4000244140625</AltitudeMeters>
            <DistanceMeters>19761.835698792</DistanceMeters>
          </Trackpoint>
          <Trackpoint>
            <Time>2022-08-27T01:31:32.000Z</Time>
            <Position>
              <LatitudeDegrees>50.19157723523676395416259765625</LatitudeDegrees>
              <LongitudeDegrees>16.9973615370690822601318359375</LongitudeDegrees>
            </Position>
            <AltitudeMeters>712.79998779296875</AltitudeMeters>
            <DistanceMeters>19774.44671407</DistanceMeters>
          </Trackpoint>
          <Trackpoint>
            <Time>2022-08-27T01:31:37.000Z</Time>
            <Position>
              <LatitudeDegrees>50.19165568985044956207275390625</LatitudeDegrees>
              <LongitudeDegrees>16.99735793285071849822998046875</LongitudeDegrees>
            </Position>
            <AltitudeMeters>713</AltitudeMeters>
            <DistanceMeters>19783.182972199</DistanceMeters>
          </Trackpoint>
          <Trackpoint>
            <Time>2022-08-27T01:31:45.000Z</Time>
            <Position>
              <LatitudeDegrees>50.1917281933128833770751953125</LatitudeDegrees>
              <LongitudeDegrees>16.99739665724337100982666015625</LongitudeDegrees>
            </Position>
            <AltitudeMeters>713.5999755859375</AltitudeMeters>
            <DistanceMeters>19791.711057311</DistanceMeters>
          </Trackpoint>
          <Trackpoint>
            <Time>2022-08-27T01:31:48.000Z</Time>
            <Position>
              <LatitudeDegrees>50.19176180474460124969482421875</LatitudeDegrees>
              <LongitudeDegrees>16.9974262453615665435791015625</LongitudeDegrees>
            </Position>
            <AltitudeMeters>713.79998779296875</AltitudeMeters>
            <DistanceMeters>19796.005171434</DistanceMeters>
          </Trackpoint>
          <Trackpoint>
            <Time>2022-08-27T01:31:59.000Z</Time>
            <Position>
              <LatitudeDegrees>50.19190295599400997161865234375</LatitudeDegrees>
              <LongitudeDegrees>16.99751215986907482147216796875</LongitudeDegrees>
            </Position>
            <AltitudeMeters>714.20001220703125</AltitudeMeters>
            <DistanceMeters>19812.866188506</DistanceMeters>
          </Trackpoint>
          <Trackpoint>
            <Time>2022-08-27T01:32:01.000Z</Time>
            <Position>
              <LatitudeDegrees>50.19192525185644626617431640625</LatitudeDegrees>
              <LongitudeDegrees>16.9975456036627292633056640625</LongitudeDegrees>
            </Position>
            <AltitudeMeters>714.4000244140625</AltitudeMeters>
            <DistanceMeters>19816.306890501</DistanceMeters>
          </Trackpoint>
          <Trackpoint>
            <Time>2022-08-27T01:32:11.000Z</Time>
            <Position>
              <LatitudeDegrees>50.19203857518732547760009765625</LatitudeDegrees>
              <LongitudeDegrees>16.99761726893484592437744140625</LongitudeDegrees>
            </Position>
            <AltitudeMeters>715.20001220703125</AltitudeMeters>
            <DistanceMeters>19829.914636367</DistanceMeters>
          </Trackpoint>
          <Trackpoint>
            <Time>2022-08-27T01:32:17.000Z</Time>
            <Position>
              <LatitudeDegrees>50.192117281258106231689453125</LatitudeDegrees>
              <LongitudeDegrees>16.997657082974910736083984375</LongitudeDegrees>
            </Position>
            <AltitudeMeters>715.4000244140625</AltitudeMeters>
            <DistanceMeters>19839.122916217</DistanceMeters>
          </Trackpoint>
          <Trackpoint>
            <Time>2022-08-27T01:32:19.000Z</Time>
            <Position>
              <LatitudeDegrees>50.19215038977563381195068359375</LatitudeDegrees>
              <LongitudeDegrees>16.9976790435612201690673828125</LongitudeDegrees>
            </Position>
            <AltitudeMeters>715.4000244140625</AltitudeMeters>
            <DistanceMeters>19843.125334938</DistanceMeters>
          </Trackpoint>
          <Trackpoint>
            <Time>2022-08-27T01:32:21.000Z</Time>
            <Position>
              <LatitudeDegrees>50.19216991961002349853515625</LatitudeDegrees>
              <LongitudeDegrees>16.9976978190243244171142578125</LongitudeDegrees>
            </Position>
            <AltitudeMeters>715.5999755859375</AltitudeMeters>
            <DistanceMeters>19845.678708234</DistanceMeters>
          </Trackpoint>
          <Trackpoint>
            <Time>2022-08-27T01:32:30.000Z</Time>
            <Position>
              <LatitudeDegrees>50.19224477000534534454345703125</LatitudeDegrees>
              <LongitudeDegrees>16.99775976128876209259033203125</LongitudeDegrees>
            </Position>
            <AltitudeMeters>716.20001220703125</AltitudeMeters>
            <DistanceMeters>19855.106967486</DistanceMeters>
          </Trackpoint>
          <Trackpoint>
            <Time>2022-08-27T01:32:33.000Z</Time>
            <Position>
              <LatitudeDegrees>50.19227796234190464019775390625</LatitudeDegrees>
              <LongitudeDegrees>16.9977766089141368865966796875</LongitudeDegrees>
            </Position>
            <AltitudeMeters>716.4000244140625</AltitudeMeters>
            <DistanceMeters>19858.992619016</DistanceMeters>
          </Trackpoint>
          <Trackpoint>
            <Time>2022-08-27T01:32:40.000Z</Time>
            <Position>
              <LatitudeDegrees>50.19239396788179874420166015625</LatitudeDegrees>
              <LongitudeDegrees>16.99778138659894466400146484375</LongitudeDegrees>
            </Position>
            <AltitudeMeters>717</AltitudeMeters>
            <DistanceMeters>19871.908913466</DistanceMeters>
          </Trackpoint>
          <Trackpoint>
            <Time>2022-08-27T01:32:43.000Z</Time>
            <Position>
              <LatitudeDegrees>50.19242179580032825469970703125</LatitudeDegrees>
              <LongitudeDegrees>16.9978007487952709197998046875</LongitudeDegrees>
            </Position>
            <AltitudeMeters>717.20001220703125</AltitudeMeters>
            <DistanceMeters>19875.300714962</DistanceMeters>
          </Trackpoint>
          <Trackpoint>
            <Time>2022-08-27T01:32:44.000Z</Time>
            <Position>
              <LatitudeDegrees>50.19242917187511920928955078125</LatitudeDegrees>
              <LongitudeDegrees>16.99780435301363468170166015625</LongitudeDegrees>
            </Position>
            <AltitudeMeters>717.4000244140625</AltitudeMeters>
            <DistanceMeters>19876.161218459</DistanceMeters>
          </Trackpoint>
          <Trackpoint>
            <Time>2022-08-27T01:32:57.000Z</Time>
            <Position>
              <LatitudeDegrees>50.1927139051258563995361328125</LatitudeDegrees>
              <LongitudeDegrees>16.99778172187507152557373046875</LongitudeDegrees>
            </Position>
            <AltitudeMeters>718</AltitudeMeters>
            <DistanceMeters>19907.893596628</DistanceMeters>
          </Trackpoint>
          <Trackpoint>
            <Time>2022-08-27T01:32:59.000Z</Time>
            <Position>
              <LatitudeDegrees>50.19276193343102931976318359375</LatitudeDegrees>
              <LongitudeDegrees>16.99777736328542232513427734375</LongitudeDegrees>
            </Position>
            <AltitudeMeters>718.20001220703125</AltitudeMeters>
            <DistanceMeters>19913.247236757</DistanceMeters>
          </Trackpoint>
          <Trackpoint>
            <Time>2022-08-27T01:33:10.000Z</Time>
            <Position>
              <LatitudeDegrees>50.192941725254058837890625</LatitudeDegrees>
              <LongitudeDegrees>16.9978071190416812896728515625</LongitudeDegrees>
            </Position>
            <AltitudeMeters>718.4000244140625</AltitudeMeters>
            <DistanceMeters>19933.370251391</DistanceMeters>
          </Trackpoint>
          <Trackpoint>
            <Time>2022-08-27T01:33:22.000Z</Time>
            <Position>
              <LatitudeDegrees>50.1931229420006275177001953125</LatitudeDegrees>
              <LongitudeDegrees>16.997767388820648193359375</LongitudeDegrees>
            </Position>
            <AltitudeMeters>718.79998779296875</AltitudeMeters>
            <DistanceMeters>19953.7376931</DistanceMeters>
          </Trackpoint>
          <Trackpoint>
            <Time>2022-08-27T01:33:23.000Z</Time>
            <Position>
              <LatitudeDegrees>50.19314196892082691192626953125</LatitudeDegrees>
              <LongitudeDegrees>16.99774685315787792205810546875</LongitudeDegrees>
            </Position>
            <AltitudeMeters>719</AltitudeMeters>
            <DistanceMeters>19956.312198123</DistanceMeters>
          </Trackpoint>
          <Trackpoint>
            <Time>2022-08-27T01:33:33.000Z</Time>
            <Position>
              <LatitudeDegrees>50.19328798167407512664794921875</LatitudeDegrees>
              <LongitudeDegrees>16.997697651386260986328125</LongitudeDegrees>
            </Position>
            <AltitudeMeters>719.4000244140625</AltitudeMeters>
            <DistanceMeters>19972.937256913</DistanceMeters>
          </Trackpoint>
          <Trackpoint>
            <Time>2022-08-27T01:33:45.000Z</Time>
            <Position>
              <LatitudeDegrees>50.1934082619845867156982421875</LatitudeDegrees>
              <LongitudeDegrees>16.9976730085909366607666015625</LongitudeDegrees>
            </Position>
            <AltitudeMeters>720</AltitudeMeters>
            <DistanceMeters>19986.43974718</DistanceMeters>
          </Trackpoint>
          <Trackpoint>
            <Time>2022-08-27T01:33:47.000Z</Time>
            <Position>
              <LatitudeDegrees>50.19341907463967800140380859375</LatitudeDegrees>
              <LongitudeDegrees>16.997667141258716583251953125</LongitudeDegrees>
            </Position>
            <AltitudeMeters>720</AltitudeMeters>
            <DistanceMeters>19987.714664338</DistanceMeters>
          </Trackpoint>
          <Trackpoint>
            <Time>2022-08-27T01:33:58.000Z</Time>
            <Position>
              <LatitudeDegrees>50.19354455173015594482421875</LatitudeDegrees>
              <LongitudeDegrees>16.9975905306637287139892578125</LongitudeDegrees>
            </Position>
            <AltitudeMeters>720.5999755859375</AltitudeMeters>
            <DistanceMeters>20002.709626941</DistanceMeters>
          </Trackpoint>
          <Trackpoint>
            <Time>2022-08-27T01:34:02.000Z</Time>
            <Position>
              <LatitudeDegrees>50.19358813762664794921875</LatitudeDegrees>
              <LongitudeDegrees>16.99756513349711894989013671875</LongitudeDegrees>
            </Position>
            <AltitudeMeters>720.79998779296875</AltitudeMeters>
            <DistanceMeters>20007.886620942</DistanceMeters>
          </Trackpoint>
          <Trackpoint>
            <Time>2022-08-27T01:34:11.000Z</Time>
            <Position>
              <LatitudeDegrees>50.193697772920131683349609375</LatitudeDegrees>
              <LongitudeDegrees>16.99749388732016086578369140625</LongitudeDegrees>
            </Position>
            <AltitudeMeters>721.4000244140625</AltitudeMeters>
            <DistanceMeters>20021.102852199</DistanceMeters>
          </Trackpoint>
          <Trackpoint>
            <Time>2022-08-27T01:34:16.000Z</Time>
            <Position>
              <LatitudeDegrees>50.1937824301421642303466796875</LatitudeDegrees>
              <LongitudeDegrees>16.99746362864971160888671875</LongitudeDegrees>
            </Position>
            <AltitudeMeters>721.79998779296875</AltitudeMeters>
            <DistanceMeters>20030.769456104</DistanceMeters>
          </Trackpoint>
          <Trackpoint>
            <Time>2022-08-27T01:34:23.000Z</Time>
            <Position>
              <LatitudeDegrees>50.19392081536352634429931640625</LatitudeDegrees>
              <LongitudeDegrees>16.99738911353051662445068359375</LongitudeDegrees>
            </Position>
            <AltitudeMeters>722.20001220703125</AltitudeMeters>
            <DistanceMeters>20047.061757877</DistanceMeters>
          </Trackpoint>
          <Trackpoint>
            <Time>2022-08-27T01:34:31.000Z</Time>
            <Position>
              <LatitudeDegrees>50.1940731145441532135009765625</LatitudeDegrees>
              <LongitudeDegrees>16.99731518514454364776611328125</LongitudeDegrees>
            </Position>
            <AltitudeMeters>722.79998779296875</AltitudeMeters>
            <DistanceMeters>20064.812687076</DistanceMeters>
          </Trackpoint>
          <Trackpoint>
            <Time>2022-08-27T01:34:34.000Z</Time>
            <Position>
              <LatitudeDegrees>50.19412801600992679595947265625</LatitudeDegrees>
              <LongitudeDegrees>16.997290290892124176025390625</LongitudeDegrees>
            </Position>
            <AltitudeMeters>723</AltitudeMeters>
            <DistanceMeters>20071.175220589</DistanceMeters>
          </Trackpoint>
          <Trackpoint>
            <Time>2022-08-27T01:34:45.000Z</Time>
            <Position>
              <LatitudeDegrees>50.19422625191509723663330078125</LatitudeDegrees>
              <LongitudeDegrees>16.99720454402267932891845703125</LongitudeDegrees>
            </Position>
            <AltitudeMeters>723.4000244140625</AltitudeMeters>
            <DistanceMeters>20083.700015516</DistanceMeters>
          </Trackpoint>
          <Trackpoint>
            <Time>2022-08-27T01:34:46.000Z</Time>
            <Position>
              <LatitudeDegrees>50.19423228688538074493408203125</LatitudeDegrees>
              <LongitudeDegrees>16.99719716794788837432861328125</LongitudeDegrees>
            </Position>
            <AltitudeMeters>723.5999755859375</AltitudeMeters>
            <DistanceMeters>20084.549960288</DistanceMeters>
          </Trackpoint>
          <Trackpoint>
            <Time>2022-08-27T01:34:58.000Z</Time>
            <Position>
              <LatitudeDegrees>50.1943342946469783782958984375</LatitudeDegrees>
              <LongitudeDegrees>16.99707445688545703887939453125</LongitudeDegrees>
            </Position>
            <AltitudeMeters>724.4000244140625</AltitudeMeters>
            <DistanceMeters>20098.880417311</DistanceMeters>
          </Trackpoint>
          <Trackpoint>
            <Time>2022-08-27T01:35:00.000Z</Time>
            <Position>
              <LatitudeDegrees>50.1943537406623363494873046875</LatitudeDegrees>
              <LongitudeDegrees>16.99706255458295345306396484375</LongitudeDegrees>
            </Position>
            <AltitudeMeters>724.5999755859375</AltitudeMeters>
            <DistanceMeters>20101.204204245</DistanceMeters>
          </Trackpoint>
          <Trackpoint>
            <Time>2022-08-27T01:35:10.000Z</Time>
            <Position>
              <LatitudeDegrees>50.19444921053946018218994140625</LatitudeDegrees>
              <LongitudeDegrees>16.99703137390315532684326171875</LongitudeDegrees>
            </Position>
            <AltitudeMeters>725.20001220703125</AltitudeMeters>
            <DistanceMeters>20112.05973268</DistanceMeters>
          </Trackpoint>
          <Trackpoint>
            <Time>2022-08-27T01:35:15.000Z</Time>
            <Position>
              <LatitudeDegrees>50.1944982446730136871337890625</LatitudeDegrees>
              <LongitudeDegrees>16.9970017857849597930908203125</LongitudeDegrees>
            </Position>
            <AltitudeMeters>725.5999755859375</AltitudeMeters>
            <DistanceMeters>20117.910631739</DistanceMeters>
          </Trackpoint>
          <Trackpoint>
            <Time>2022-08-27T01:35:23.000Z</Time>
            <Position>
              <LatitudeDegrees>50.19461718387901782989501953125</LatitudeDegrees>
              <LongitudeDegrees>16.99696029536426067352294921875</LongitudeDegrees>
            </Position>
            <AltitudeMeters>726</AltitudeMeters>
            <DistanceMeters>20131.474842278</DistanceMeters>
          </Trackpoint>
          <Trackpoint>
            <Time>2022-08-27T01:35:27.000Z</Time>
            <Position>
              <LatitudeDegrees>50.1946524716913700103759765625</LatitudeDegrees>
              <LongitudeDegrees>16.9969343952834606170654296875</LongitudeDegrees>
            </Position>
            <AltitudeMeters>726.4000244140625</AltitudeMeters>
            <DistanceMeters>20135.81497355</DistanceMeters>
          </Trackpoint>
          <Trackpoint>
            <Time>2022-08-27T01:35:28.000Z</Time>
            <Position>
              <LatitudeDegrees>50.19465959630906581878662109375</LatitudeDegrees>
              <LongitudeDegrees>16.99692743830382823944091796875</LongitudeDegrees>
            </Position>
            <AltitudeMeters>726.4000244140625</AltitudeMeters>
            <DistanceMeters>20136.755690028</DistanceMeters>
          </Trackpoint>
          <Trackpoint>
            <Time>2022-08-27T01:35:36.000Z</Time>
            <Position>
              <LatitudeDegrees>50.1947428286075592041015625</LatitudeDegrees>
              <LongitudeDegrees>16.99688871391117572784423828125</LongitudeDegrees>
            </Position>
            <AltitudeMeters>727.20001220703125</AltitudeMeters>
            <DistanceMeters>20146.421359735</DistanceMeters>
          </Trackpoint>
          <Trackpoint>
            <Time>2022-08-27T01:35:43.000Z</Time>
            <Position>
              <LatitudeDegrees>50.1947989873588085174560546875</LatitudeDegrees>
              <LongitudeDegrees>16.996841691434383392333984375</LongitudeDegrees>
            </Position>
            <AltitudeMeters>727.5999755859375</AltitudeMeters>
            <DistanceMeters>20153.513434593</DistanceMeters>
          </Trackpoint>
          <Trackpoint>
            <Time>2022-08-27T01:35:49.000Z</Time>
            <Position>
              <LatitudeDegrees>50.1948593370616436004638671875</LatitudeDegrees>
              <LongitudeDegrees>16.99675275944173336029052734375</LongitudeDegrees>
            </Position>
            <AltitudeMeters>728</AltitudeMeters>
            <DistanceMeters>20162.747176077</DistanceMeters>
          </Trackpoint>
          <Trackpoint>
            <Time>2022-08-27T01:35:58.000Z</Time>
            <Position>
              <LatitudeDegrees>50.19493385218083858489990234375</LatitudeDegrees>
              <LongitudeDegrees>16.9966889731585979461669921875</LongitudeDegrees>
            </Position>
            <AltitudeMeters>728.5999755859375</AltitudeMeters>
            <DistanceMeters>20172.204124691</DistanceMeters>
          </Trackpoint>
          <Trackpoint>
            <Time>2022-08-27T01:36:02.000Z</Time>
            <Position>
              <LatitudeDegrees>50.19497307948768138885498046875</LatitudeDegrees>
              <LongitudeDegrees>16.99665033258497714996337890625</LongitudeDegrees>
            </Position>
            <AltitudeMeters>729</AltitudeMeters>
            <DistanceMeters>20177.366271104</DistanceMeters>
          </Trackpoint>
          <Trackpoint>
            <Time>2022-08-27T01:36:09.000Z</Time>
            <Position>
              <LatitudeDegrees>50.1950869895517826080322265625</LatitudeDegrees>
              <LongitudeDegrees>16.9966098479926586151123046875</LongitudeDegrees>
            </Position>
            <AltitudeMeters>729.5999755859375</AltitudeMeters>
            <DistanceMeters>20190.368620553</DistanceMeters>
          </Trackpoint>
          <Trackpoint>
            <Time>2022-08-27T01:36:15.000Z</Time>
            <Position>
              <LatitudeDegrees>50.19517491571605205535888671875</LatitudeDegrees>
              <LongitudeDegrees>16.99662317521870136260986328125</LongitudeDegrees>
            </Position>
            <AltitudeMeters>730</AltitudeMeters>
            <DistanceMeters>20200.201015907</DistanceMeters>
          </Trackpoint>
          <Trackpoint>
            <Time>2022-08-27T01:36:24.000Z</Time>
            <Position>
              <LatitudeDegrees>50.1952546276152133941650390625</LatitudeDegrees>
              <LongitudeDegrees>16.99659383855760097503662109375</LongitudeDegrees>
            </Position>
            <AltitudeMeters>730.79998779296875</AltitudeMeters>
            <DistanceMeters>20209.316153502</DistanceMeters>
          </Trackpoint>
          <Trackpoint>
            <Time>2022-08-27T01:36:27.000Z</Time>
            <Position>
              <LatitudeDegrees>50.19528706558048725128173828125</LatitudeDegrees>
              <LongitudeDegrees>16.99659249745309352874755859375</LongitudeDegrees>
            </Position>
            <AltitudeMeters>730.79998779296875</AltitudeMeters>
            <DistanceMeters>20212.927168648</DistanceMeters>
          </Trackpoint>
          <Trackpoint>
            <Time>2022-08-27T01:36:41.000Z</Time>
            <Position>
              <LatitudeDegrees>50.19536216743290424346923828125</LatitudeDegrees>
              <LongitudeDegrees>16.99659056961536407470703125</LongitudeDegrees>
            </Position>
            <AltitudeMeters>730.79998779296875</AltitudeMeters>
            <DistanceMeters>20221.287359535</DistanceMeters>
          </Trackpoint>
          <Trackpoint>
            <Time>2022-08-27T01:36:54.000Z</Time>
            <Position>
              <LatitudeDegrees>50.1954858005046844482421875</LatitudeDegrees>
              <LongitudeDegrees>16.99663172475993633270263671875</LongitudeDegrees>
            </Position>
            <AltitudeMeters>731.79998779296875</AltitudeMeters>
            <DistanceMeters>20235.357090727</DistanceMeters>
          </Trackpoint>
          <Trackpoint>
            <Time>2022-08-27T01:37:04.000Z</Time>
            <Position>
              <LatitudeDegrees>50.1956344954669475555419921875</LatitudeDegrees>
              <LongitudeDegrees>16.99662066064774990081787109375</LongitudeDegrees>
            </Position>
            <AltitudeMeters>732.79998779296875</AltitudeMeters>
            <DistanceMeters>20251.926109528</DistanceMeters>
          </Trackpoint>
          <Trackpoint>
            <Time>2022-08-27T01:37:05.000Z</Time>
            <Position>
              <LatitudeDegrees>50.1956485770642757415771484375</LatitudeDegrees>
              <LongitudeDegrees>16.99661160819232463836669921875</LongitudeDegrees>
            </Position>
            <AltitudeMeters>733</AltitudeMeters>
            <DistanceMeters>20253.620678591</DistanceMeters>
          </Trackpoint>
          <Trackpoint>
            <Time>2022-08-27T01:37:14.000Z</Time>
            <Position>
              <LatitudeDegrees>50.195733569562435150146484375</LatitudeDegrees>
              <LongitudeDegrees>16.996511109173297882080078125</LongitudeDegrees>
            </Position>
            <AltitudeMeters>733.79998779296875</AltitudeMeters>
            <DistanceMeters>20265.484945598</DistanceMeters>
          </Trackpoint>
          <Trackpoint>
            <Time>2022-08-27T01:37:17.000Z</Time>
            <Position>
              <LatitudeDegrees>50.1957645826041698455810546875</LatitudeDegrees>
              <LongitudeDegrees>16.99647615663707256317138671875</LongitudeDegrees>
            </Position>
            <AltitudeMeters>734.20001220703125</AltitudeMeters>
            <DistanceMeters>20269.74103927</DistanceMeters>
          </Trackpoint>
          <Trackpoint>
            <Time>2022-08-27T01:37:26.000Z</Time>
            <Position>
              <LatitudeDegrees>50.1958302967250347137451171875</LatitudeDegrees>
              <LongitudeDegrees>16.99632360599935054779052734375</LongitudeDegrees>
            </Position>
            <AltitudeMeters>735.20001220703125</AltitudeMeters>
            <DistanceMeters>20282.841980571</DistanceMeters>
          </Trackpoint>
          <Trackpoint>
            <Time>2022-08-27T01:37:28.000Z</Time>
            <Position>
              <LatitudeDegrees>50.19584546796977519989013671875</LatitudeDegrees>
              <LongitudeDegrees>16.99629711918532848358154296875</LongitudeDegrees>
            </Position>
            <AltitudeMeters>735.20001220703125</AltitudeMeters>
            <DistanceMeters>20285.374045791</DistanceMeters>
          </Trackpoint>
          <Trackpoint>
            <Time>2022-08-27T01:37:40.000Z</Time>
            <Position>
              <LatitudeDegrees>50.19590313546359539031982421875</LatitudeDegrees>
              <LongitudeDegrees>16.99611607007682323455810546875</LongitudeDegrees>
            </Position>
            <AltitudeMeters>736.20001220703125</AltitudeMeters>
            <DistanceMeters>20299.782740649</DistanceMeters>
          </Trackpoint>
          <Trackpoint>
            <Time>2022-08-27T01:37:42.000Z</Time>
            <Position>
              <LatitudeDegrees>50.195915289223194122314453125</LatitudeDegrees>
              <LongitudeDegrees>16.99606510810554027557373046875</LongitudeDegrees>
            </Position>
            <AltitudeMeters>736.20001220703125</AltitudeMeters>
            <DistanceMeters>20303.657920274</DistanceMeters>
          </Trackpoint>
          <Trackpoint>
            <Time>2022-08-27T01:37:53.000Z</Time>
            <Position>
              <LatitudeDegrees>50.19596834667026996612548828125</LatitudeDegrees>
              <LongitudeDegrees>16.99574701488018035888671875</LongitudeDegrees>
            </Position>
            <AltitudeMeters>737.4000244140625</AltitudeMeters>
            <DistanceMeters>20327.07925849</DistanceMeters>
          </Trackpoint>
          <Trackpoint>
            <Time>2022-08-27T01:37:54.000Z</Time>
            <Position>
              <LatitudeDegrees>50.19597069360315799713134765625</LatitudeDegrees>
              <LongitudeDegrees>16.9957277365028858184814453125</LongitudeDegrees>
            </Position>
            <AltitudeMeters>737.4000244140625</AltitudeMeters>
            <DistanceMeters>20328.475860263</DistanceMeters>
          </Trackpoint>
          <Trackpoint>
            <Time>2022-08-27T01:38:03.000Z</Time>
            <Position>
              <LatitudeDegrees>50.1960079930722713470458984375</LatitudeDegrees>
              <LongitudeDegrees>16.9955540634691715240478515625</LongitudeDegrees>
            </Position>
            <AltitudeMeters>738.20001220703125</AltitudeMeters>
            <DistanceMeters>20341.528117623</DistanceMeters>
          </Trackpoint>
          <Trackpoint>
            <Time>2022-08-27T01:38:07.000Z</Time>
            <Position>
              <LatitudeDegrees>50.19603087566792964935302734375</LatitudeDegrees>
              <LongitudeDegrees>16.99550134129822254180908203125</LongitudeDegrees>
            </Position>
            <AltitudeMeters>738.4000244140625</AltitudeMeters>
            <DistanceMeters>20346.067570723</DistanceMeters>
          </Trackpoint>
          <Trackpoint>
            <Time>2022-08-27T01:38:15.000Z</Time>
            <Position>
              <LatitudeDegrees>50.19608200527727603912353515625</LatitudeDegrees>
              <LongitudeDegrees>16.99538298882544040679931640625</LongitudeDegrees>
            </Position>
            <AltitudeMeters>739.20001220703125</AltitudeMeters>
            <DistanceMeters>20356.241200173</DistanceMeters>
          </Trackpoint>
          <Trackpoint>
            <Time>2022-08-27T01:38:16.000Z</Time>
            <Position>
              <LatitudeDegrees>50.19608703441917896270751953125</LatitudeDegrees>
              <LongitudeDegrees>16.99536806903779506683349609375</LongitudeDegrees>
            </Position>
            <AltitudeMeters>739.4000244140625</AltitudeMeters>
            <DistanceMeters>20357.439441449</DistanceMeters>
          </Trackpoint>
          <Trackpoint>
            <Time>2022-08-27T01:38:24.000Z</Time>
            <Position>
              <LatitudeDegrees>50.19613397307693958282470703125</LatitudeDegrees>
              <LongitudeDegrees>16.99520227499306201934814453125</LongitudeDegrees>
            </Position>
            <AltitudeMeters>740.4000244140625</AltitudeMeters>
            <DistanceMeters>20370.356435002</DistanceMeters>
          </Trackpoint>
          <Trackpoint>
            <Time>2022-08-27T01:38:26.000Z</Time>
            <Position>
              <LatitudeDegrees>50.19614838995039463043212890625</LatitudeDegrees>
              <LongitudeDegrees>16.99516757391393184661865234375</LongitudeDegrees>
            </Position>
            <AltitudeMeters>740.79998779296875</AltitudeMeters>
            <DistanceMeters>20373.303795438</DistanceMeters>
          </Trackpoint>
          <Trackpoint>
            <Time>2022-08-27T01:38:36.000Z</Time>
            <Position>
              <LatitudeDegrees>50.1962239108979701995849609375</LatitudeDegrees>
              <LongitudeDegrees>16.995015442371368408203125</LongitudeDegrees>
            </Position>
            <AltitudeMeters>741.4000244140625</AltitudeMeters>
            <DistanceMeters>20387.020927167</DistanceMeters>
          </Trackpoint>
          <Trackpoint>
            <Time>2022-08-27T01:38:37.000Z</Time>
            <Position>
              <LatitudeDegrees>50.196231789886951446533203125</LatitudeDegrees>
              <LongitudeDegrees>16.99500446207821369171142578125</LongitudeDegrees>
            </Position>
            <AltitudeMeters>741.5999755859375</AltitudeMeters>
            <DistanceMeters>20388.192495184</DistanceMeters>
          </Trackpoint>
          <Trackpoint>
            <Time>2022-08-27T01:38:45.000Z</Time>
            <Position>
              <LatitudeDegrees>50.19628585316240787506103515625</LatitudeDegrees>
              <LongitudeDegrees>16.99488602578639984130859375</LongitudeDegrees>
            </Position>
            <AltitudeMeters>742.5999755859375</AltitudeMeters>
            <DistanceMeters>20398.556943523</DistanceMeters>
          </Trackpoint>
          <Trackpoint>
            <Time>2022-08-27T01:38:48.000Z</Time>
            <Position>
              <LatitudeDegrees>50.19630546681582927703857421875</LatitudeDegrees>
              <LongitudeDegrees>16.9948422722518444061279296875</LongitudeDegrees>
            </Position>
            <AltitudeMeters>742.79998779296875</AltitudeMeters>
            <DistanceMeters>20402.361573931</DistanceMeters>
          </Trackpoint>
          <Trackpoint>
            <Time>2022-08-27T01:38:56.000Z</Time>
            <Position>
              <LatitudeDegrees>50.19637352786958217620849609375</LatitudeDegrees>
              <LongitudeDegrees>16.9947044737637042999267578125</LongitudeDegrees>
            </Position>
            <AltitudeMeters>743.5999755859375</AltitudeMeters>
            <DistanceMeters>20414.762469134</DistanceMeters>
          </Trackpoint>
          <Trackpoint>
            <Time>2022-08-27T01:39:02.000Z</Time>
            <Position>
              <LatitudeDegrees>50.19644108600914478302001953125</LatitudeDegrees>
              <LongitudeDegrees>16.99457329697906970977783203125</LongitudeDegrees>
            </Position>
            <AltitudeMeters>743.79998779296875</AltitudeMeters>
            <DistanceMeters>20426.757686434</DistanceMeters>
          </Trackpoint>
          <Trackpoint>
            <Time>2022-08-27T01:39:09.000Z</Time>
            <Position>
              <LatitudeDegrees>50.1964160241186618804931640625</LatitudeDegrees>
              <LongitudeDegrees>16.9944293797016143798828125</LongitudeDegrees>
            </Position>
            <AltitudeMeters>744.20001220703125</AltitudeMeters>
            <DistanceMeters>20437.384545613</DistanceMeters>
          </Trackpoint>
          <Trackpoint>
            <Time>2022-08-27T01:39:13.000Z</Time>
            <Position>
              <LatitudeDegrees>50.19642784260213375091552734375</LatitudeDegrees>
              <LongitudeDegrees>16.994334496557712554931640625</LongitudeDegrees>
            </Position>
            <AltitudeMeters>744.5999755859375</AltitudeMeters>
            <DistanceMeters>20444.272507694</DistanceMeters>
          </Trackpoint>
          <Trackpoint>
            <Time>2022-08-27T01:39:18.000Z</Time>
            <Position>
              <LatitudeDegrees>50.196457765996456146240234375</LatitudeDegrees>
              <LongitudeDegrees>16.9942381046712398529052734375</LongitudeDegrees>
            </Position>
            <AltitudeMeters>744.79998779296875</AltitudeMeters>
            <DistanceMeters>20451.905466047</DistanceMeters>
          </Trackpoint>
          <Trackpoint>
            <Time>2022-08-27T01:39:25.000Z</Time>
            <Position>
              <LatitudeDegrees>50.196509063243865966796875</LatitudeDegrees>
              <LongitudeDegrees>16.99412302114069461822509765625</LongitudeDegrees>
            </Position>
            <AltitudeMeters>745.4000244140625</AltitudeMeters>
            <DistanceMeters>20461.897288962</DistanceMeters>
          </Trackpoint>
          <Trackpoint>
            <Time>2022-08-27T01:39:27.000Z</Time>
            <Position>
              <LatitudeDegrees>50.1965189538896083831787109375</LatitudeDegrees>
              <LongitudeDegrees>16.9940905831754207611083984375</LongitudeDegrees>
            </Position>
            <AltitudeMeters>745.5999755859375</AltitudeMeters>
            <DistanceMeters>20464.457725546</DistanceMeters>
          </Trackpoint>
          <Trackpoint>
            <Time>2022-08-27T01:39:32.000Z</Time>
            <Position>
              <LatitudeDegrees>50.19656798802316188812255859375</LatitudeDegrees>
              <LongitudeDegrees>16.9940377771854400634765625</LongitudeDegrees>
            </Position>
            <AltitudeMeters>745.79998779296875</AltitudeMeters>
            <DistanceMeters>20471.086477463</DistanceMeters>
          </Trackpoint>
          <Trackpoint>
            <Time>2022-08-27T01:39:38.000Z</Time>
            <Position>
              <LatitudeDegrees>50.19660872407257556915283203125</LatitudeDegrees>
              <LongitudeDegrees>16.9939531199634075164794921875</LongitudeDegrees>
            </Position>
            <AltitudeMeters>746.4000244140625</AltitudeMeters>
            <DistanceMeters>20478.631383155</DistanceMeters>
          </Trackpoint>
          <Trackpoint>
            <Time>2022-08-27T01:39:41.000Z</Time>
            <Position>
              <LatitudeDegrees>50.19663319922983646392822265625</LatitudeDegrees>
              <LongitudeDegrees>16.99391230009496212005615234375</LongitudeDegrees>
            </Position>
            <AltitudeMeters>746.5999755859375</AltitudeMeters>
            <DistanceMeters>20482.615711754</DistanceMeters>
          </Trackpoint>
          <Trackpoint>
            <Time>2022-08-27T01:39:44.000Z</Time>
            <Position>
              <LatitudeDegrees>50.196640826761722564697265625</LatitudeDegrees>
              <LongitudeDegrees>16.993879191577434539794921875</LongitudeDegrees>
            </Position>
            <AltitudeMeters>746.79998779296875</AltitudeMeters>
            <DistanceMeters>20485.12268866</DistanceMeters>
          </Trackpoint>
          <Trackpoint>
            <Time>2022-08-27T01:39:52.000Z</Time>
            <Position>
              <LatitudeDegrees>50.19669086672365665435791015625</LatitudeDegrees>
              <LongitudeDegrees>16.99378900229930877685546875</LongitudeDegrees>
            </Position>
            <AltitudeMeters>747.4000244140625</AltitudeMeters>
            <DistanceMeters>20493.625854075</DistanceMeters>
          </Trackpoint>
          <Trackpoint>
            <Time>2022-08-27T01:39:53.000Z</Time>
            <Position>
              <LatitudeDegrees>50.19669891335070133209228515625</LatitudeDegrees>
              <LongitudeDegrees>16.99377902783453464508056640625</LongitudeDegrees>
            </Position>
            <AltitudeMeters>747.5999755859375</AltitudeMeters>
            <DistanceMeters>20494.766174648</DistanceMeters>
          </Trackpoint>
          <Trackpoint>
            <Time>2022-08-27T01:40:03.000Z</Time>
            <Position>
              <LatitudeDegrees>50.1967707462608814239501953125</LatitudeDegrees>
              <LongitudeDegrees>16.99367106892168521881103515625</LongitudeDegrees>
            </Position>
            <AltitudeMeters>748.4000244140625</AltitudeMeters>
            <DistanceMeters>20505.86112855</DistanceMeters>
          </Trackpoint>
          <Trackpoint>
            <Time>2022-08-27T01:40:06.000Z</Time>
            <Position>
              <LatitudeDegrees>50.1967979036271572113037109375</LatitudeDegrees>
              <LongitudeDegrees>16.9936409778892993927001953125</LongitudeDegrees>
            </Position>
            <AltitudeMeters>748.5999755859375</AltitudeMeters>
            <DistanceMeters>20509.56717041</DistanceMeters>
          </Trackpoint>
          <Trackpoint>
            <Time>2022-08-27T01:40:14.000Z</Time>
            <Position>
              <LatitudeDegrees>50.19687308929860591888427734375</LatitudeDegrees>
              <LongitudeDegrees>16.993547268211841583251953125</LongitudeDegrees>
            </Position>
            <AltitudeMeters>749.4000244140625</AltitudeMeters>
            <DistanceMeters>20520.272763818</DistanceMeters>
          </Trackpoint>
          <Trackpoint>
            <Time>2022-08-27T01:40:19.000Z</Time>
            <Position>
              <LatitudeDegrees>50.1969400607049465179443359375</LatitudeDegrees>
              <LongitudeDegrees>16.993519105017185211181640625</LongitudeDegrees>
            </Position>
            <AltitudeMeters>749.79998779296875</AltitudeMeters>
            <DistanceMeters>20527.992770589</DistanceMeters>
          </Trackpoint>
          <Trackpoint>
            <Time>2022-08-27T01:40:22.000Z</Time>
            <Position>
              <LatitudeDegrees>50.19697451032698154449462890625</LatitudeDegrees>
              <LongitudeDegrees>16.9934994913637638092041015625</LongitudeDegrees>
            </Position>
            <AltitudeMeters>750.20001220703125</AltitudeMeters>
            <DistanceMeters>20532.075603075</DistanceMeters>
          </Trackpoint>
          <Trackpoint>
            <Time>2022-08-27T01:40:29.000Z</Time>
            <Position>
              <LatitudeDegrees>50.19703938625752925872802734375</LatitudeDegrees>
              <LongitudeDegrees>16.99346269480884075164794921875</LongitudeDegrees>
            </Position>
            <AltitudeMeters>750.79998779296875</AltitudeMeters>
            <DistanceMeters>20539.758088327</DistanceMeters>
          </Trackpoint>
          <Trackpoint>
            <Time>2022-08-27T01:40:31.000Z</Time>
            <Position>
              <LatitudeDegrees>50.1970589160919189453125</LatitudeDegrees>
              <LongitudeDegrees>16.993453390896320343017578125</LongitudeDegrees>
            </Position>
            <AltitudeMeters>750.79998779296875</AltitudeMeters>
            <DistanceMeters>20542.030796783</DistanceMeters>
          </Trackpoint>
          <Trackpoint>
            <Time>2022-08-27T01:40:38.000Z</Time>
            <Position>
              <LatitudeDegrees>50.19714273512363433837890625</LatitudeDegrees>
              <LongitudeDegrees>16.99343067593872547149658203125</LongitudeDegrees>
            </Position>
            <AltitudeMeters>751.20001220703125</AltitudeMeters>
            <DistanceMeters>20551.499196803</DistanceMeters>
          </Trackpoint>
          <Trackpoint>
            <Time>2022-08-27T01:40:46.000Z</Time>
            <Position>
              <LatitudeDegrees>50.1972334273159503936767578125</LatitudeDegrees>
              <LongitudeDegrees>16.99340200982987880706787109375</LongitudeDegrees>
            </Position>
            <AltitudeMeters>751.79998779296875</AltitudeMeters>
            <DistanceMeters>20561.798093729</DistanceMeters>
          </Trackpoint>
          <Trackpoint>
            <Time>2022-08-27T01:40:47.000Z</Time>
            <Position>
              <LatitudeDegrees>50.19724667072296142578125</LatitudeDegrees>
              <LongitudeDegrees>16.99339605867862701416015625</LongitudeDegrees>
            </Position>
            <AltitudeMeters>752</AltitudeMeters>
            <DistanceMeters>20563.330353458</DistanceMeters>
          </Trackpoint>
          <Trackpoint>
            <Time>2022-08-27T01:40:54.000Z</Time>
            <Position>
              <LatitudeDegrees>50.19732319749891757965087890625</LatitudeDegrees>
              <LongitudeDegrees>16.9933251477777957916259765625</LongitudeDegrees>
            </Position>
            <AltitudeMeters>752.4000244140625</AltitudeMeters>
            <DistanceMeters>20573.234124979</DistanceMeters>
          </Trackpoint>
          <Trackpoint>
            <Time>2022-08-27T01:40:59.000Z</Time>
            <Position>
              <LatitudeDegrees>50.1973591558635234832763671875</LatitudeDegrees>
              <LongitudeDegrees>16.99327829293906688690185546875</LongitudeDegrees>
            </Position>
            <AltitudeMeters>753</AltitudeMeters>
            <DistanceMeters>20578.445887631</DistanceMeters>
          </Trackpoint>
          <Trackpoint>
            <Time>2022-08-27T01:41:01.000Z</Time>
            <Position>
              <LatitudeDegrees>50.1973687112331390380859375</LatitudeDegrees>
              <LongitudeDegrees>16.99323336593806743621826171875</LongitudeDegrees>
            </Position>
            <AltitudeMeters>753</AltitudeMeters>
            <DistanceMeters>20581.819001373</DistanceMeters>
          </Trackpoint>
          <Trackpoint>
            <Time>2022-08-27T01:41:08.000Z</Time>
            <Position>
              <LatitudeDegrees>50.19742830656468868255615234375</LatitudeDegrees>
              <LongitudeDegrees>16.99306212365627288818359375</LongitudeDegrees>
            </Position>
            <AltitudeMeters>753.4000244140625</AltitudeMeters>
            <DistanceMeters>20595.706563171</DistanceMeters>
          </Trackpoint>
          <Trackpoint>
            <Time>2022-08-27T01:41:15.000Z</Time>
            <Position>
              <LatitudeDegrees>50.1974744908511638641357421875</LatitudeDegrees>
              <LongitudeDegrees>16.99297687970101833343505859375</LongitudeDegrees>
            </Position>
            <AltitudeMeters>754</AltitudeMeters>
            <DistanceMeters>20603.662745413</DistanceMeters>
          </Trackpoint>
          <Trackpoint>
            <Time>2022-08-27T01:41:16.000Z</Time>
            <Position>
              <LatitudeDegrees>50.197477675974369049072265625</LatitudeDegrees>
              <LongitudeDegrees>16.9929590262472629547119140625</LongitudeDegrees>
            </Position>
            <AltitudeMeters>754</AltitudeMeters>
            <DistanceMeters>20604.98289872</DistanceMeters>
          </Trackpoint>
          <Trackpoint>
            <Time>2022-08-27T01:41:22.000Z</Time>
            <Position>
              <LatitudeDegrees>50.19752402789890766143798828125</LatitudeDegrees>
              <LongitudeDegrees>16.99290613643825054168701171875</LongitudeDegrees>
            </Position>
            <AltitudeMeters>754.5999755859375</AltitudeMeters>
            <DistanceMeters>20611.371634552</DistanceMeters>
          </Trackpoint>
          <Trackpoint>
            <Time>2022-08-27T01:41:26.000Z</Time>
            <Position>
              <LatitudeDegrees>50.197549425065517425537109375</LatitudeDegrees>
              <LongitudeDegrees>16.9928825832903385162353515625</LongitudeDegrees>
            </Position>
            <AltitudeMeters>755</AltitudeMeters>
            <DistanceMeters>20614.659339147</DistanceMeters>
          </Trackpoint>
          <Trackpoint>
            <Time>2022-08-27T01:41:29.000Z</Time>
            <Position>
              <LatitudeDegrees>50.19755688495934009552001953125</LatitudeDegrees>
              <LongitudeDegrees>16.992865316569805145263671875</LongitudeDegrees>
            </Position>
            <AltitudeMeters>755.20001220703125</AltitudeMeters>
            <DistanceMeters>20616.146742498</DistanceMeters>
          </Trackpoint>
          <Trackpoint>
            <Time>2022-08-27T01:41:38.000Z</Time>
            <Position>
              <LatitudeDegrees>50.197613798081874847412109375</LatitudeDegrees>
              <LongitudeDegrees>16.9928299449384212493896484375</LongitudeDegrees>
            </Position>
            <AltitudeMeters>755.79998779296875</AltitudeMeters>
            <DistanceMeters>20622.964867866</DistanceMeters>
          </Trackpoint>
          <Trackpoint>
            <Time>2022-08-27T01:41:41.000Z</Time>
            <Position>
              <LatitudeDegrees>50.19762142561376094818115234375</LatitudeDegrees>
              <LongitudeDegrees>16.99282550252974033355712890625</LongitudeDegrees>
            </Position>
            <AltitudeMeters>756</AltitudeMeters>
            <DistanceMeters>20623.866370434</DistanceMeters>
          </Trackpoint>
          <Trackpoint>
            <Time>2022-08-27T01:41:50.000Z</Time>
            <Position>
              <LatitudeDegrees>50.1976811885833740234375</LatitudeDegrees>
              <LongitudeDegrees>16.9927937351167201995849609375</LongitudeDegrees>
            </Position>
            <AltitudeMeters>756.79998779296875</AltitudeMeters>
            <DistanceMeters>20630.891923639</DistanceMeters>
          </Trackpoint>
          <Trackpoint>
            <Time>2022-08-27T01:41:53.000Z</Time>
            <Position>
              <LatitudeDegrees>50.19769267179071903228759765625</LatitudeDegrees>
              <LongitudeDegrees>16.9928047992289066314697265625</LongitudeDegrees>
            </Position>
            <AltitudeMeters>757</AltitudeMeters>
            <DistanceMeters>20632.394427919</DistanceMeters>
          </Trackpoint>
          <Trackpoint>
            <Time>2022-08-27T01:42:01.000Z</Time>
            <Position>
              <LatitudeDegrees>50.19782108254730701446533203125</LatitudeDegrees>
              <LongitudeDegrees>16.99280924163758754730224609375</LongitudeDegrees>
            </Position>
            <AltitudeMeters>757.79998779296875</AltitudeMeters>
            <DistanceMeters>20646.690185684</DistanceMeters>
          </Trackpoint>
          <Trackpoint>
            <Time>2022-08-27T01:42:04.000Z</Time>
            <Position>
              <LatitudeDegrees>50.1978711225092411041259765625</LatitudeDegrees>
              <LongitudeDegrees>16.992812342941761016845703125</LongitudeDegrees>
            </Position>
            <AltitudeMeters>758.20001220703125</AltitudeMeters>
            <DistanceMeters>20652.263646276</DistanceMeters>
          </Trackpoint>
          <Trackpoint>
            <Time>2022-08-27T01:42:11.000Z</Time>
            <Position>
              <LatitudeDegrees>50.19799509085714817047119140625</LatitudeDegrees>
              <LongitudeDegrees>16.9927933998405933380126953125</LongitudeDegrees>
            </Position>
            <AltitudeMeters>758.5999755859375</AltitudeMeters>
            <DistanceMeters>20666.127128776</DistanceMeters>
          </Trackpoint>
          <Trackpoint>
            <Time>2022-08-27T01:42:22.000Z</Time>
            <Position>
              <LatitudeDegrees>50.1981366612017154693603515625</LatitudeDegrees>
              <LongitudeDegrees>16.99269843287765979766845703125</LongitudeDegrees>
            </Position>
            <AltitudeMeters>759</AltitudeMeters>
            <DistanceMeters>20683.275699255</DistanceMeters>
          </Trackpoint>
          <Trackpoint>
            <Time>2022-08-27T01:42:27.000Z</Time>
            <Position>
              <LatitudeDegrees>50.19822207279503345489501953125</LatitudeDegrees>
              <LongitudeDegrees>16.99264696799218654632568359375</LongitudeDegrees>
            </Position>
            <AltitudeMeters>759.20001220703125</AltitudeMeters>
            <DistanceMeters>20693.465292915</DistanceMeters>
          </Trackpoint>
          <Trackpoint>
            <Time>2022-08-27T01:42:31.000Z</Time>
            <Position>
              <LatitudeDegrees>50.198275633156299591064453125</LatitudeDegrees>
              <LongitudeDegrees>16.9925815053284168243408203125</LongitudeDegrees>
            </Position>
            <AltitudeMeters>759.4000244140625</AltitudeMeters>
            <DistanceMeters>20701.035290611</DistanceMeters>
          </Trackpoint>
          <Trackpoint>
            <Time>2022-08-27T01:42:40.000Z</Time>
            <Position>
              <LatitudeDegrees>50.19832734949886798858642578125</LatitudeDegrees>
              <LongitudeDegrees>16.99248150922358036041259765625</LongitudeDegrees>
            </Position>
            <AltitudeMeters>760</AltitudeMeters>
            <DistanceMeters>20710.194406844</DistanceMeters>
          </Trackpoint>
          <Trackpoint>
            <Time>2022-08-27T01:42:51.000Z</Time>
            <Position>
              <LatitudeDegrees>50.19833690486848354339599609375</LatitudeDegrees>
              <LongitudeDegrees>16.99240590445697307586669921875</LongitudeDegrees>
            </Position>
            <AltitudeMeters>760.20001220703125</AltitudeMeters>
            <DistanceMeters>20715.68543819</DistanceMeters>
          </Trackpoint>
          <Trackpoint>
            <Time>2022-08-27T01:43:01.000Z</Time>
            <Position>
              <LatitudeDegrees>50.19836716353893280029296875</LatitudeDegrees>
              <LongitudeDegrees>16.99242107570171356201171875</LongitudeDegrees>
            </Position>
            <AltitudeMeters>760.20001220703125</AltitudeMeters>
            <DistanceMeters>20719.223189729</DistanceMeters>
          </Trackpoint>
          <Trackpoint>
            <Time>2022-08-27T01:43:08.000Z</Time>
            <Position>
              <LatitudeDegrees>50.19843631424009799957275390625</LatitudeDegrees>
              <LongitudeDegrees>16.99239048175513744354248046875</LongitudeDegrees>
            </Position>
            <AltitudeMeters>760.4000244140625</AltitudeMeters>
            <DistanceMeters>20727.222384793</DistanceMeters>
          </Trackpoint>
          <Trackpoint>
            <Time>2022-08-27T01:43:10.000Z</Time>
            <Position>
              <LatitudeDegrees>50.1984588615596294403076171875</LatitudeDegrees>
              <LongitudeDegrees>16.99238578788936138153076171875</LongitudeDegrees>
            </Position>
            <AltitudeMeters>760.5999755859375</AltitudeMeters>
            <DistanceMeters>20729.754450013</DistanceMeters>
          </Trackpoint>
          <Trackpoint>
            <Time>2022-08-27T01:43:17.000Z</Time>
            <Position>
              <LatitudeDegrees>50.19853069446980953216552734375</LatitudeDegrees>
              <LongitudeDegrees>16.9923823513090610504150390625</LongitudeDegrees>
            </Position>
            <AltitudeMeters>761.5999755859375</AltitudeMeters>
            <DistanceMeters>20737.753645077</DistanceMeters>
          </Trackpoint>
          <Trackpoint>
            <Time>2022-08-27T01:43:23.000Z</Time>
            <Position>
              <LatitudeDegrees>50.1985969953238964080810546875</LatitudeDegrees>
              <LongitudeDegrees>16.9923494942486286163330078125</LongitudeDegrees>
            </Position>
            <AltitudeMeters>762.20001220703125</AltitudeMeters>
            <DistanceMeters>20745.495844212</DistanceMeters>
          </Trackpoint>
          <Trackpoint>
            <Time>2022-08-27T01:43:29.000Z</Time>
            <Position>
              <LatitudeDegrees>50.1986566744744777679443359375</LatitudeDegrees>
              <LongitudeDegrees>16.99227196164429187774658203125</LongitudeDegrees>
            </Position>
            <AltitudeMeters>762.79998779296875</AltitudeMeters>
            <DistanceMeters>20754.134917183</DistanceMeters>
          </Trackpoint>
          <Trackpoint>
            <Time>2022-08-27T01:43:36.000Z</Time>
            <Position>
              <LatitudeDegrees>50.19870637916028499603271484375</LatitudeDegrees>
              <LongitudeDegrees>16.99215956032276153564453125</LongitudeDegrees>
            </Position>
            <AltitudeMeters>763.20001220703125</AltitudeMeters>
            <DistanceMeters>20763.868083779</DistanceMeters>
          </Trackpoint>
          <Trackpoint>
            <Time>2022-08-27T01:43:42.000Z</Time>
            <Position>
              <LatitudeDegrees>50.1987393200397491455078125</LatitudeDegrees>
              <LongitudeDegrees>16.99203425087034702301025390625</LongitudeDegrees>
            </Position>
            <AltitudeMeters>763.79998779296875</AltitudeMeters>
            <DistanceMeters>20773.51972968</DistanceMeters>
          </Trackpoint>
          <Trackpoint>
            <Time>2022-08-27T01:43:48.000Z</Time>
            <Position>
              <LatitudeDegrees>50.198767818510532379150390625</LatitudeDegrees>
              <LongitudeDegrees>16.9919582270085811614990234375</LongitudeDegrees>
            </Position>
            <AltitudeMeters>764.4000244140625</AltitudeMeters>
            <DistanceMeters>20779.797249381</DistanceMeters>
          </Trackpoint>
          <Trackpoint>
            <Time>2022-08-27T01:43:52.000Z</Time>
            <Position>
              <LatitudeDegrees>50.19878684543073177337646484375</LatitudeDegrees>
              <LongitudeDegrees>16.991901397705078125</LongitudeDegrees>
            </Position>
            <AltitudeMeters>764.79998779296875</AltitudeMeters>
            <DistanceMeters>20784.366443701</DistanceMeters>
          </Trackpoint>
          <Trackpoint>
            <Time>2022-08-27T01:43:59.000Z</Time>
            <Position>
              <LatitudeDegrees>50.19883613102138042449951171875</LatitudeDegrees>
              <LongitudeDegrees>16.99178732000291347503662109375</LongitudeDegrees>
            </Position>
            <AltitudeMeters>765.5999755859375</AltitudeMeters>
            <DistanceMeters>20794.172169273</DistanceMeters>
          </Trackpoint>
          <Trackpoint>
            <Time>2022-08-27T01:44:03.000Z</Time>
            <Position>
              <LatitudeDegrees>50.1988642103970050811767578125</LatitudeDegrees>
              <LongitudeDegrees>16.99171456508338451385498046875</LongitudeDegrees>
            </Position>
            <AltitudeMeters>766</AltitudeMeters>
            <DistanceMeters>20800.2256022</DistanceMeters>
          </Trackpoint>
          <Trackpoint>
            <Time>2022-08-27T01:44:09.000Z</Time>
            <Position>
              <LatitudeDegrees>50.19890704192221164703369140625</LatitudeDegrees>
              <LongitudeDegrees>16.99160970747470855712890625</LongitudeDegrees>
            </Position>
            <AltitudeMeters>766.4000244140625</AltitudeMeters>
            <DistanceMeters>20809.087575729</DistanceMeters>
          </Trackpoint>
          <Trackpoint>
            <Time>2022-08-27T01:44:15.000Z</Time>
            <Position>
              <LatitudeDegrees>50.19893302582204341888427734375</LatitudeDegrees>
              <LongitudeDegrees>16.99148842133581638336181640625</LongitudeDegrees>
            </Position>
            <AltitudeMeters>767.20001220703125</AltitudeMeters>
            <DistanceMeters>20818.200236317</DistanceMeters>
          </Trackpoint>
          <Trackpoint>
            <Time>2022-08-27T01:44:19.000Z</Time>
            <Position>
              <LatitudeDegrees>50.19895062781870365142822265625</LatitudeDegrees>
              <LongitudeDegrees>16.99141868390142917633056640625</LongitudeDegrees>
            </Position>
            <AltitudeMeters>767.5999755859375</AltitudeMeters>
            <DistanceMeters>20823.540365661</DistanceMeters>
          </Trackpoint>
          <Trackpoint>
            <Time>2022-08-27T01:44:25.000Z</Time>
            <Position>
              <LatitudeDegrees>50.19899873994290828704833984375</LatitudeDegrees>
              <LongitudeDegrees>16.991340816020965576171875</LongitudeDegrees>
            </Position>
            <AltitudeMeters>768.20001220703125</AltitudeMeters>
            <DistanceMeters>20831.251009169</DistanceMeters>
          </Trackpoint>
          <Trackpoint>
            <Time>2022-08-27T01:44:29.000Z</Time>
            <Position>
              <LatitudeDegrees>50.1990291662514209747314453125</LatitudeDegrees>
              <LongitudeDegrees>16.9913024269044399261474609375</LongitudeDegrees>
            </Position>
            <AltitudeMeters>768.5999755859375</AltitudeMeters>
            <DistanceMeters>20835.603606138</DistanceMeters>
          </Trackpoint>
          <Trackpoint>
            <Time>2022-08-27T01:44:38.000Z</Time>
            <Position>
              <LatitudeDegrees>50.1990992389619350433349609375</LatitudeDegrees>
              <LongitudeDegrees>16.9911919534206390380859375</LongitudeDegrees>
            </Position>
            <AltitudeMeters>769.20001220703125</AltitudeMeters>
            <DistanceMeters>20846.684307804</DistanceMeters>
          </Trackpoint>
          <Trackpoint>
            <Time>2022-08-27T01:44:39.000Z</Time>
            <Position>
              <LatitudeDegrees>50.19910133443772792816162109375</LatitudeDegrees>
              <LongitudeDegrees>16.99117762036621570587158203125</LongitudeDegrees>
            </Position>
            <AltitudeMeters>769.20001220703125</AltitudeMeters>
            <DistanceMeters>20847.733912171</DistanceMeters>
          </Trackpoint>
          <Trackpoint>
            <Time>2022-08-27T01:44:48.000Z</Time>
            <Position>
              <LatitudeDegrees>50.19918196834623813629150390625</LatitudeDegrees>
              <LongitudeDegrees>16.99106915853917598724365234375</LongitudeDegrees>
            </Position>
            <AltitudeMeters>770.4000244140625</AltitudeMeters>
            <DistanceMeters>20859.577230008</DistanceMeters>
          </Trackpoint>
          <Trackpoint>
            <Time>2022-08-27T01:44:49.000Z</Time>
            <Position>
              <LatitudeDegrees>50.1991931162774562835693359375</LatitudeDegrees>
              <LongitudeDegrees>16.99106010608375072479248046875</LongitudeDegrees>
            </Position>
            <AltitudeMeters>770.5999755859375</AltitudeMeters>
            <DistanceMeters>20860.973831781</DistanceMeters>
          </Trackpoint>
          <Trackpoint>
            <Time>2022-08-27T01:44:57.000Z</Time>
            <Position>
              <LatitudeDegrees>50.19927215762436389923095703125</LatitudeDegrees>
              <LongitudeDegrees>16.990986429154872894287109375</LongitudeDegrees>
            </Position>
            <AltitudeMeters>771.4000244140625</AltitudeMeters>
            <DistanceMeters>20871.218663576</DistanceMeters>
          </Trackpoint>
          <Trackpoint>
            <Time>2022-08-27T01:45:01.000Z</Time>
            <Position>
              <LatitudeDegrees>50.19930669106543064117431640625</LatitudeDegrees>
              <LongitudeDegrees>16.9909584335982799530029296875</LongitudeDegrees>
            </Position>
            <AltitudeMeters>771.79998779296875</AltitudeMeters>
            <DistanceMeters>20875.548379352</DistanceMeters>
          </Trackpoint>
          <Trackpoint>
            <Time>2022-08-27T01:45:05.000Z</Time>
            <Position>
              <LatitudeDegrees>50.19934759475290775299072265625</LatitudeDegrees>
              <LongitudeDegrees>16.990924738347530364990234375</LongitudeDegrees>
            </Position>
            <AltitudeMeters>772</AltitudeMeters>
            <DistanceMeters>20880.695635348</DistanceMeters>
          </Trackpoint>
          <Trackpoint>
            <Time>2022-08-27T01:45:10.000Z</Time>
            <Position>
              <LatitudeDegrees>50.19939721561968326568603515625</LatitudeDegrees>
              <LongitudeDegrees>16.99086145497858524322509765625</LongitudeDegrees>
            </Position>
            <AltitudeMeters>772.79998779296875</AltitudeMeters>
            <DistanceMeters>20887.824539206</DistanceMeters>
          </Trackpoint>
          <Trackpoint>
            <Time>2022-08-27T01:45:11.000Z</Time>
            <Position>
              <LatitudeDegrees>50.1994100399315357208251953125</LatitudeDegrees>
              <LongitudeDegrees>16.990847624838352203369140625</LongitudeDegrees>
            </Position>
            <AltitudeMeters>773</AltitudeMeters>
            <DistanceMeters>20889.561215783</DistanceMeters>
          </Trackpoint>
          <Trackpoint>
            <Time>2022-08-27T01:45:17.000Z</Time>
            <Position>
              <LatitudeDegrees>50.1994620077311992645263671875</LatitudeDegrees>
              <LongitudeDegrees>16.99075433425605297088623046875</LongitudeDegrees>
            </Position>
            <AltitudeMeters>774</AltitudeMeters>
            <DistanceMeters>20898.372093559</DistanceMeters>
          </Trackpoint>
          <Trackpoint>
            <Time>2022-08-27T01:45:18.000Z</Time>
            <Position>
              <LatitudeDegrees>50.19946929998695850372314453125</LatitudeDegrees>
              <LongitudeDegrees>16.9907425157725811004638671875</LongitudeDegrees>
            </Position>
            <AltitudeMeters>774</AltitudeMeters>
            <DistanceMeters>20899.53592837</DistanceMeters>
          </Trackpoint>
          <Trackpoint>
            <Time>2022-08-27T01:45:25.000Z</Time>
            <Position>
              <LatitudeDegrees>50.199518166482448577880859375</LatitudeDegrees>
              <LongitudeDegrees>16.99067638255655765533447265625</LongitudeDegrees>
            </Position>
            <AltitudeMeters>774.79998779296875</AltitudeMeters>
            <DistanceMeters>20906.731653374</DistanceMeters>
          </Trackpoint>
          <Trackpoint>
            <Time>2022-08-27T01:45:27.000Z</Time>
            <Position>
              <LatitudeDegrees>50.19952093251049518585205078125</LatitudeDegrees>
              <LongitudeDegrees>16.990645788609981536865234375</LongitudeDegrees>
            </Position>
            <AltitudeMeters>775</AltitudeMeters>
            <DistanceMeters>20908.933732176</DistanceMeters>
          </Trackpoint>
          <Trackpoint>
            <Time>2022-08-27T01:45:32.000Z</Time>
            <Position>
              <LatitudeDegrees>50.19955982454121112823486328125</LatitudeDegrees>
              <LongitudeDegrees>16.9906006939709186553955078125</LongitudeDegrees>
            </Position>
            <AltitudeMeters>775.5999755859375</AltitudeMeters>
            <DistanceMeters>20914.324352362</DistanceMeters>
          </Trackpoint>
          <Trackpoint>
            <Time>2022-08-27T01:45:38.000Z</Time>
            <Position>
              <LatitudeDegrees>50.19961061887443065643310546875</LatitudeDegrees>
              <LongitudeDegrees>16.99053539894521236419677734375</LongitudeDegrees>
            </Position>
            <AltitudeMeters>776.20001220703125</AltitudeMeters>
            <DistanceMeters>20921.645727491</DistanceMeters>
          </Trackpoint>
          <Trackpoint>
            <Time>2022-08-27T01:45:41.000Z</Time>
            <Position>
              <LatitudeDegrees>50.199644565582275390625</LatitudeDegrees>
              <LongitudeDegrees>16.99049659073352813720703125</LongitudeDegrees>
            </Position>
            <AltitudeMeters>776.5999755859375</AltitudeMeters>
            <DistanceMeters>20926.328144133</DistanceMeters>
          </Trackpoint>
          <Trackpoint>
            <Time>2022-08-27T01:45:48.000Z</Time>
            <Position>
              <LatitudeDegrees>50.19969217479228973388671875</LatitudeDegrees>
              <LongitudeDegrees>16.990408413112163543701171875</LongitudeDegrees>
            </Position>
            <AltitudeMeters>777.20001220703125</AltitudeMeters>
            <DistanceMeters>20934.546718936</DistanceMeters>
          </Trackpoint>
          <Trackpoint>
            <Time>2022-08-27T01:45:53.000Z</Time>
            <Position>
              <LatitudeDegrees>50.199756883084774017333984375</LatitudeDegrees>
              <LongitudeDegrees>16.99031445197761058807373046875</LongitudeDegrees>
            </Position>
            <AltitudeMeters>777.79998779296875</AltitudeMeters>
            <DistanceMeters>20944.379114291</DistanceMeters>
          </Trackpoint>
          <Trackpoint>
            <Time>2022-08-27T01:45:58.000Z</Time>
            <Position>
              <LatitudeDegrees>50.1998148858547210693359375</LatitudeDegrees>
              <LongitudeDegrees>16.99021437205374240875244140625</LongitudeDegrees>
            </Position>
            <AltitudeMeters>778.20001220703125</AltitudeMeters>
            <DistanceMeters>20953.997958465</DistanceMeters>
          </Trackpoint>
          <Trackpoint>
            <Time>2022-08-27T01:46:05.000Z</Time>
            <Position>
              <LatitudeDegrees>50.19987230189144611358642578125</LatitudeDegrees>
              <LongitudeDegrees>16.99008562602102756500244140625</LongitudeDegrees>
            </Position>
            <AltitudeMeters>779</AltitudeMeters>
            <DistanceMeters>20965.177236527</DistanceMeters>
          </Trackpoint>
          <Trackpoint>
            <Time>2022-08-27T01:46:10.000Z</Time>
            <Position>
              <LatitudeDegrees>50.19989602267742156982421875</LatitudeDegrees>
              <LongitudeDegrees>16.98996542952954769134521484375</LongitudeDegrees>
            </Position>
            <AltitudeMeters>779.20001220703125</AltitudeMeters>
            <DistanceMeters>20974.1380088</DistanceMeters>
          </Trackpoint>
          <Trackpoint>
            <Time>2022-08-27T01:46:15.000Z</Time>
            <Position>
              <LatitudeDegrees>50.19990499131381511688232421875</LatitudeDegrees>
              <LongitudeDegrees>16.98986752890050411224365234375</LongitudeDegrees>
            </Position>
            <AltitudeMeters>779.79998779296875</AltitudeMeters>
            <DistanceMeters>20981.184097097</DistanceMeters>
          </Trackpoint>
          <Trackpoint>
            <Time>2022-08-27T01:46:20.000Z</Time>
            <Position>
              <LatitudeDegrees>50.19993248395621776580810546875</LatitudeDegrees>
              <LongitudeDegrees>16.98979862965643405914306640625</LongitudeDegrees>
            </Position>
            <AltitudeMeters>780.5999755859375</AltitudeMeters>
            <DistanceMeters>20986.968250728</DistanceMeters>
          </Trackpoint>
          <Trackpoint>
            <Time>2022-08-27T01:46:27.000Z</Time>
            <Position>
              <LatitudeDegrees>50.19997439347207546234130859375</LatitudeDegrees>
              <LongitudeDegrees>16.98969972319900989532470703125</LongitudeDegrees>
            </Position>
            <AltitudeMeters>781.5999755859375</AltitudeMeters>
            <DistanceMeters>20995.418685304</DistanceMeters>
          </Trackpoint>
          <Trackpoint>
            <Time>2022-08-27T01:46:28.000Z</Time>
            <Position>
              <LatitudeDegrees>50.19997942261397838592529296875</LatitudeDegrees>
              <LongitudeDegrees>16.98968597687780857086181640625</LongitudeDegrees>
            </Position>
            <AltitudeMeters>781.5999755859375</AltitudeMeters>
            <DistanceMeters>20996.543056551</DistanceMeters>
          </Trackpoint>
          <Trackpoint>
            <Time>2022-08-27T01:46:37.000Z</Time>
            <Position>
              <LatitudeDegrees>50.20002854056656360626220703125</LatitudeDegrees>
              <LongitudeDegrees>16.9895734079182147979736328125</LongitudeDegrees>
            </Position>
            <AltitudeMeters>782.79998779296875</AltitudeMeters>
            <DistanceMeters>21006.248815536</DistanceMeters>
          </Trackpoint>
          <Trackpoint>
            <Time>2022-08-27T01:46:39.000Z</Time>
            <Position>
              <LatitudeDegrees>50.2000415325164794921875</LatitudeDegrees>
              <LongitudeDegrees>16.98955035768449306488037109375</LongitudeDegrees>
            </Position>
            <AltitudeMeters>783</AltitudeMeters>
            <DistanceMeters>21008.436494789</DistanceMeters>
          </Trackpoint>
          <Trackpoint>
            <Time>2022-08-27T01:46:46.000Z</Time>
            <Position>
              <LatitudeDegrees>50.2000950090587139129638671875</LatitudeDegrees>
              <LongitudeDegrees>16.989479698240756988525390625</LongitudeDegrees>
            </Position>
            <AltitudeMeters>783.79998779296875</AltitudeMeters>
            <DistanceMeters>21016.232161179</DistanceMeters>
          </Trackpoint>
          <Trackpoint>
            <Time>2022-08-27T01:46:49.000Z</Time>
            <Position>
              <LatitudeDegrees>50.200116634368896484375</LatitudeDegrees>
              <LongitudeDegrees>16.98943980038166046142578125</LongitudeDegrees>
            </Position>
            <AltitudeMeters>784.20001220703125</AltitudeMeters>
            <DistanceMeters>21019.957644704</DistanceMeters>
          </Trackpoint>
          <Trackpoint>
            <Time>2022-08-27T01:46:55.000Z</Time>
            <Position>
              <LatitudeDegrees>50.2001496590673923492431640625</LatitudeDegrees>
              <LongitudeDegrees>16.98937500827014446258544921875</LongitudeDegrees>
            </Position>
            <AltitudeMeters>784.79998779296875</AltitudeMeters>
            <DistanceMeters>21025.858489963</DistanceMeters>
          </Trackpoint>
          <Trackpoint>
            <Time>2022-08-27T01:47:00.000Z</Time>
            <Position>
              <LatitudeDegrees>50.20017539151012897491455078125</LatitudeDegrees>
              <LongitudeDegrees>16.98929705657064914703369140625</LongitudeDegrees>
            </Position>
            <AltitudeMeters>785.5999755859375</AltitudeMeters>
            <DistanceMeters>21032.107173868</DistanceMeters>
          </Trackpoint>
          <Trackpoint>
            <Time>2022-08-27T01:47:03.000Z</Time>
            <Position>
              <LatitudeDegrees>50.20019500516355037689208984375</LatitudeDegrees>
              <LongitudeDegrees>16.98923528194427490234375</LongitudeDegrees>
            </Position>
            <AltitudeMeters>786.20001220703125</AltitudeMeters>
            <DistanceMeters>21037.019237004</DistanceMeters>
          </Trackpoint>
          <Trackpoint>
            <Time>2022-08-27T01:47:10.000Z</Time>
            <Position>
              <LatitudeDegrees>50.20024613477289676666259765625</LatitudeDegrees>
              <LongitudeDegrees>16.989124976098537445068359375</LongitudeDegrees>
            </Position>
            <AltitudeMeters>787.20001220703125</AltitudeMeters>
            <DistanceMeters>21046.722204437</DistanceMeters>
          </Trackpoint>
          <Trackpoint>
            <Time>2022-08-27T01:47:12.000Z</Time>
            <Position>
              <LatitudeDegrees>50.2002633176743984222412109375</LatitudeDegrees>
              <LongitudeDegrees>16.98909907601773738861083984375</LongitudeDegrees>
            </Position>
            <AltitudeMeters>787.4000244140625</AltitudeMeters>
            <DistanceMeters>21049.379556461</DistanceMeters>
          </Trackpoint>
          <Trackpoint>
            <Time>2022-08-27T01:47:19.000Z</Time>
            <Position>
              <LatitudeDegrees>50.200296677649021148681640625</LatitudeDegrees>
              <LongitudeDegrees>16.9890057854354381561279296875</LongitudeDegrees>
            </Position>
            <AltitudeMeters>788.20001220703125</AltitudeMeters>
            <DistanceMeters>21056.99237661</DistanceMeters>
          </Trackpoint>
          <Trackpoint>
            <Time>2022-08-27T01:47:24.000Z</Time>
            <Position>
              <LatitudeDegrees>50.2003350667655467987060546875</LatitudeDegrees>
              <LongitudeDegrees>16.98892842046916484832763671875</LongitudeDegrees>
            </Position>
            <AltitudeMeters>788.5999755859375</AltitudeMeters>
            <DistanceMeters>21063.966327551</DistanceMeters>
          </Trackpoint>
          <Trackpoint>
            <Time>2022-08-27T01:47:29.000Z</Time>
            <Position>
              <LatitudeDegrees>50.20037136040627956390380859375</LatitudeDegrees>
              <LongitudeDegrees>16.988868154585361480712890625</LongitudeDegrees>
            </Position>
            <AltitudeMeters>789.4000244140625</AltitudeMeters>
            <DistanceMeters>21069.861048423</DistanceMeters>
          </Trackpoint>
          <Trackpoint>
            <Time>2022-08-27T01:47:34.000Z</Time>
            <Position>
              <LatitudeDegrees>50.20041377283632755279541015625</LatitudeDegrees>
              <LongitudeDegrees>16.988799087703227996826171875</LongitudeDegrees>
            </Position>
            <AltitudeMeters>790.20001220703125</AltitudeMeters>
            <DistanceMeters>21076.67983597</DistanceMeters>
          </Trackpoint>
          <Trackpoint>
            <Time>2022-08-27T01:47:36.000Z</Time>
            <Position>
              <LatitudeDegrees>50.20043204538524150848388671875</LatitudeDegrees>
              <LongitudeDegrees>16.98877687565982341766357421875</LongitudeDegrees>
            </Position>
            <AltitudeMeters>790.4000244140625</AltitudeMeters>
            <DistanceMeters>21079.256094145</DistanceMeters>
          </Trackpoint>
          <Trackpoint>
            <Time>2022-08-27T01:47:41.000Z</Time>
            <Position>
              <LatitudeDegrees>50.20045903511345386505126953125</LatitudeDegrees>
              <LongitudeDegrees>16.98871702887117862701416015625</LongitudeDegrees>
            </Position>
            <AltitudeMeters>791</AltitudeMeters>
            <DistanceMeters>21084.473052109</DistanceMeters>
          </Trackpoint>
          <Trackpoint>
            <Time>2022-08-27T01:47:44.000Z</Time>
            <Position>
              <LatitudeDegrees>50.2004742063581943511962890625</LatitudeDegrees>
              <LongitudeDegrees>16.988659612834453582763671875</LongitudeDegrees>
            </Position>
            <AltitudeMeters>791.4000244140625</AltitudeMeters>
            <DistanceMeters>21088.899706137</DistanceMeters>
          </Trackpoint>
          <Trackpoint>
            <Time>2022-08-27T01:47:48.000Z</Time>
            <Position>
              <LatitudeDegrees>50.20049457438290119171142578125</LatitudeDegrees>
              <LongitudeDegrees>16.98859155178070068359375</LongitudeDegrees>
            </Position>
            <AltitudeMeters>792</AltitudeMeters>
            <DistanceMeters>21094.253346267</DistanceMeters>
          </Trackpoint>
          <Trackpoint>
            <Time>2022-08-27T01:47:53.000Z</Time>
            <Position>
              <LatitudeDegrees>50.2005198039114475250244140625</LatitudeDegrees>
              <LongitudeDegrees>16.9885231554508209228515625</LongitudeDegrees>
            </Position>
            <AltitudeMeters>792.5999755859375</AltitudeMeters>
            <DistanceMeters>21099.877611355</DistanceMeters>
          </Trackpoint>
          <Trackpoint>
            <Time>2022-08-27T01:47:59.000Z</Time>
            <Position>
              <LatitudeDegrees>50.2005536668002605438232421875</LatitudeDegrees>
              <LongitudeDegrees>16.9884525798261165618896484375</LongitudeDegrees>
            </Position>
            <AltitudeMeters>793.4000244140625</AltitudeMeters>
            <DistanceMeters>21106.160882335</DistanceMeters>
          </Trackpoint>
          <Trackpoint>
            <Time>2022-08-27T01:48:00.000Z</Time>
            <Position>
              <LatitudeDegrees>50.20055609755218029022216796875</LatitudeDegrees>
              <LongitudeDegrees>16.9884388335049152374267578125</LongitudeDegrees>
            </Position>
            <AltitudeMeters>793.5999755859375</AltitudeMeters>
            <DistanceMeters>21107.175490001</DistanceMeters>
          </Trackpoint>
          <Trackpoint>
            <Time>2022-08-27T01:48:07.000Z</Time>
            <Position>
              <LatitudeDegrees>50.20061016082763671875</LatitudeDegrees>
              <LongitudeDegrees>16.98829583823680877685546875</LongitudeDegrees>
            </Position>
            <AltitudeMeters>794.79998779296875</AltitudeMeters>
            <DistanceMeters>21119.007746978</DistanceMeters>
          </Trackpoint>
          <Trackpoint>
            <Time>2022-08-27T01:48:09.000Z</Time>
            <Position>
              <LatitudeDegrees>50.20061477087438106536865234375</LatitudeDegrees>
              <LongitudeDegrees>16.9882581196725368499755859375</LongitudeDegrees>
            </Position>
            <AltitudeMeters>795.20001220703125</AltitudeMeters>
            <DistanceMeters>21121.745440067</DistanceMeters>
          </Trackpoint>
          <Trackpoint>
            <Time>2022-08-27T01:48:15.000Z</Time>
            <Position>
              <LatitudeDegrees>50.200634635984897613525390625</LatitudeDegrees>
              <LongitudeDegrees>16.98815510608255863189697265625</LongitudeDegrees>
            </Position>
            <AltitudeMeters>796</AltitudeMeters>
            <DistanceMeters>21129.410273878</DistanceMeters>
          </Trackpoint>
          <Trackpoint>
            <Time>2022-08-27T01:48:24.000Z</Time>
            <Position>
              <LatitudeDegrees>50.2006485499441623687744140625</LatitudeDegrees>
              <LongitudeDegrees>16.98804178275167942047119140625</LongitudeDegrees>
            </Position>
            <AltitudeMeters>797</AltitudeMeters>
            <DistanceMeters>21137.631045867</DistanceMeters>
          </Trackpoint>
          <Trackpoint>
            <Time>2022-08-27T01:48:25.000Z</Time>
            <Position>
              <LatitudeDegrees>50.2006519027054309844970703125</LatitudeDegrees>
              <LongitudeDegrees>16.98803122155368328094482421875</LongitudeDegrees>
            </Position>
            <AltitudeMeters>797</AltitudeMeters>
            <DistanceMeters>21138.470299085</DistanceMeters>
          </Trackpoint>
          <Trackpoint>
            <Time>2022-08-27T01:48:33.000Z</Time>
            <Position>
              <LatitudeDegrees>50.20067922770977020263671875</LatitudeDegrees>
              <LongitudeDegrees>16.9878601469099521636962890625</LongitudeDegrees>
            </Position>
            <AltitudeMeters>798.20001220703125</AltitudeMeters>
            <DistanceMeters>21151.032169402</DistanceMeters>
          </Trackpoint>
          <Trackpoint>
            <Time>2022-08-27T01:48:36.000Z</Time>
            <Position>
              <LatitudeDegrees>50.20068350248038768768310546875</LatitudeDegrees>
              <LongitudeDegrees>16.9877870567142963409423828125</LongitudeDegrees>
            </Position>
            <AltitudeMeters>798.79998779296875</AltitudeMeters>
            <DistanceMeters>21156.261229687</DistanceMeters>
          </Trackpoint>
          <Trackpoint>
            <Time>2022-08-27T01:48:41.000Z</Time>
            <Position>
              <LatitudeDegrees>50.20070328377187252044677734375</LatitudeDegrees>
              <LongitudeDegrees>16.9876827858388423919677734375</LongitudeDegrees>
            </Position>
            <AltitudeMeters>799.4000244140625</AltitudeMeters>
            <DistanceMeters>21164.009258353</DistanceMeters>
          </Trackpoint>
          <Trackpoint>
            <Time>2022-08-27T01:48:48.000Z</Time>
            <Position>
              <LatitudeDegrees>50.200749970972537994384765625</LatitudeDegrees>
              <LongitudeDegrees>16.987574994564056396484375</LongitudeDegrees>
            </Position>
            <AltitudeMeters>800.4000244140625</AltitudeMeters>
            <DistanceMeters>21173.282035062</DistanceMeters>
          </Trackpoint>
          <Trackpoint>
            <Time>2022-08-27T01:48:56.000Z</Time>
            <Position>
              <LatitudeDegrees>50.2008071355521678924560546875</LatitudeDegrees>
              <LongitudeDegrees>16.98742822743952274322509765625</LongitudeDegrees>
            </Position>
            <AltitudeMeters>801.5999755859375</AltitudeMeters>
            <DistanceMeters>21185.521682451</DistanceMeters>
          </Trackpoint>
          <Trackpoint>
            <Time>2022-08-27T01:48:57.000Z</Time>
            <Position>
              <LatitudeDegrees>50.2008121646940708160400390625</LatitudeDegrees>
              <LongitudeDegrees>16.9874115474522113800048828125</LongitudeDegrees>
            </Position>
            <AltitudeMeters>801.79998779296875</AltitudeMeters>
            <DistanceMeters>21186.831535315</DistanceMeters>
          </Trackpoint>
          <Trackpoint>
            <Time>2022-08-27T01:48:58.000Z</Time>
            <Position>
              <LatitudeDegrees>50.20081895403563976287841796875</LatitudeDegrees>
              <LongitudeDegrees>16.98739788495004177093505859375</LongitudeDegrees>
            </Position>
            <AltitudeMeters>802</AltitudeMeters>
            <DistanceMeters>21188.063222305</DistanceMeters>
          </Trackpoint>
          <Trackpoint>
            <Time>2022-08-27T01:49:03.000Z</Time>
            <Position>
              <LatitudeDegrees>50.2008487097918987274169921875</LatitudeDegrees>
              <LongitudeDegrees>16.9873042590916156768798828125</LongitudeDegrees>
            </Position>
            <AltitudeMeters>802.5999755859375</AltitudeMeters>
            <DistanceMeters>21195.510552667</DistanceMeters>
          </Trackpoint>
          <Trackpoint>
            <Time>2022-08-27T01:49:10.000Z</Time>
            <Position>
              <LatitudeDegrees>50.2009087242186069488525390625</LatitudeDegrees>
              <LongitudeDegrees>16.98721365071833133697509765625</LongitudeDegrees>
            </Position>
            <AltitudeMeters>804</AltitudeMeters>
            <DistanceMeters>21204.799869676</DistanceMeters>
          </Trackpoint>
          <Trackpoint>
            <Time>2022-08-27T01:49:15.000Z</Time>
            <Position>
              <LatitudeDegrees>50.2009548246860504150390625</LatitudeDegrees>
              <LongitudeDegrees>16.98718029074370861053466796875</LongitudeDegrees>
            </Position>
            <AltitudeMeters>805</AltitudeMeters>
            <DistanceMeters>21210.454558057</DistanceMeters>
          </Trackpoint>
          <Trackpoint>
            <Time>2022-08-27T01:49:17.000Z</Time>
            <Position>
              <LatitudeDegrees>50.2009727619588375091552734375</LatitudeDegrees>
              <LongitudeDegrees>16.98716587387025356292724609375</LongitudeDegrees>
            </Position>
            <AltitudeMeters>805.4000244140625</AltitudeMeters>
            <DistanceMeters>21212.699281349</DistanceMeters>
          </Trackpoint>
          <Trackpoint>
            <Time>2022-08-27T01:49:19.000Z</Time>
            <Position>
              <LatitudeDegrees>50.20098608918488025665283203125</LatitudeDegrees>
              <LongitudeDegrees>16.98715849779546260833740234375</LongitudeDegrees>
            </Position>
            <AltitudeMeters>805.5999755859375</AltitudeMeters>
            <DistanceMeters>21214.275121132</DistanceMeters>
          </Trackpoint>
          <Trackpoint>
            <Time>2022-08-27T01:49:21.000Z</Time>
            <Position>
              <LatitudeDegrees>50.20100167952477931976318359375</LatitudeDegrees>
              <LongitudeDegrees>16.98712614364922046661376953125</LongitudeDegrees>
            </Position>
            <AltitudeMeters>806</AltitudeMeters>
            <DistanceMeters>21217.160555325</DistanceMeters>
          </Trackpoint>
          <Trackpoint>
            <Time>2022-08-27T01:49:22.000Z</Time>
            <Position>
              <LatitudeDegrees>50.20100913941860198974609375</LatitudeDegrees>
              <LongitudeDegrees>16.98712144978344440460205078125</LongitudeDegrees>
            </Position>
            <AltitudeMeters>806</AltitudeMeters>
            <DistanceMeters>21218.051984922</DistanceMeters>
          </Trackpoint>
          <Trackpoint>
            <Time>2022-08-27T01:49:25.000Z</Time>
            <Position>
              <LatitudeDegrees>50.201031267642974853515625</LatitudeDegrees>
              <LongitudeDegrees>16.98710250668227672576904296875</LongitudeDegrees>
            </Position>
            <AltitudeMeters>806.4000244140625</AltitudeMeters>
            <DistanceMeters>21220.859698714</DistanceMeters>
          </Trackpoint>
          <Trackpoint>
            <Time>2022-08-27T01:49:26.000Z</Time>
            <Position>
              <LatitudeDegrees>50.20103822462260723114013671875</LatitudeDegrees>
              <LongitudeDegrees>16.987099237740039825439453125</LongitudeDegrees>
            </Position>
            <AltitudeMeters>806.4000244140625</AltitudeMeters>
            <DistanceMeters>21221.666027123</DistanceMeters>
          </Trackpoint>
          <Trackpoint>
            <Time>2022-08-27T01:49:31.000Z</Time>
            <Position>
              <LatitudeDegrees>50.2010715007781982421875</LatitudeDegrees>
              <LongitudeDegrees>16.9870735891163349151611328125</LongitudeDegrees>
            </Position>
            <AltitudeMeters>806.79998779296875</AltitudeMeters>
            <DistanceMeters>21225.795044479</DistanceMeters>
          </Trackpoint>
          <Trackpoint>
            <Time>2022-08-27T01:49:32.000Z</Time>
            <Position>
              <LatitudeDegrees>50.20107644610106945037841796875</LatitudeDegrees>
              <LongitudeDegrees>16.9870682246983051300048828125</LongitudeDegrees>
            </Position>
            <AltitudeMeters>807</AltitudeMeters>
            <DistanceMeters>21226.46023148</DistanceMeters>
          </Trackpoint>
          <Trackpoint>
            <Time>2022-08-27T01:49:41.000Z</Time>
            <Position>
              <LatitudeDegrees>50.20116864703595638275146484375</LatitudeDegrees>
              <LongitudeDegrees>16.98703343980014324188232421875</LongitudeDegrees>
            </Position>
            <AltitudeMeters>808</AltitudeMeters>
            <DistanceMeters>21237.017181962</DistanceMeters>
          </Trackpoint>
          <Trackpoint>
            <Time>2022-08-27T01:49:47.000Z</Time>
            <Position>
              <LatitudeDegrees>50.20122832618653774261474609375</LatitudeDegrees>
              <LongitudeDegrees>16.98698633350431919097900390625</LongitudeDegrees>
            </Position>
            <AltitudeMeters>808.79998779296875</AltitudeMeters>
            <DistanceMeters>21244.459053959</DistanceMeters>
          </Trackpoint>
          <Trackpoint>
            <Time>2022-08-27T01:49:49.000Z</Time>
            <Position>
              <LatitudeDegrees>50.201241485774517059326171875</LatitudeDegrees>
              <LongitudeDegrees>16.98696613311767578125</LongitudeDegrees>
            </Position>
            <AltitudeMeters>809</AltitudeMeters>
            <DistanceMeters>21246.510398792</DistanceMeters>
          </Trackpoint>
          <Trackpoint>
            <Time>2022-08-27T01:49:53.000Z</Time>
            <Position>
              <LatitudeDegrees>50.20127425901591777801513671875</LatitudeDegrees>
              <LongitudeDegrees>16.9869485311210155487060546875</LongitudeDegrees>
            </Position>
            <AltitudeMeters>809.4000244140625</AltitudeMeters>
            <DistanceMeters>21250.368062072</DistanceMeters>
          </Trackpoint>
          <Trackpoint>
            <Time>2022-08-27T01:49:58.000Z</Time>
            <Position>
              <LatitudeDegrees>50.201329328119754791259765625</LatitudeDegrees>
              <LongitudeDegrees>16.986893713474273681640625</LongitudeDegrees>
            </Position>
            <AltitudeMeters>810</AltitudeMeters>
            <DistanceMeters>21257.634965611</DistanceMeters>
          </Trackpoint>
          <Trackpoint>
            <Time>2022-08-27T01:50:00.000Z</Time>
            <Position>
              <LatitudeDegrees>50.201347433030605316162109375</LatitudeDegrees>
              <LongitudeDegrees>16.9868818111717700958251953125</LongitudeDegrees>
            </Position>
            <AltitudeMeters>810.20001220703125</AltitudeMeters>
            <DistanceMeters>21259.820580041</DistanceMeters>
          </Trackpoint>
          <Trackpoint>
            <Time>2022-08-27T01:50:05.000Z</Time>
            <Position>
              <LatitudeDegrees>50.20139512605965137481689453125</LatitudeDegrees>
              <LongitudeDegrees>16.98686898685991764068603515625</LongitudeDegrees>
            </Position>
            <AltitudeMeters>811.20001220703125</AltitudeMeters>
            <DistanceMeters>21265.207848894</DistanceMeters>
          </Trackpoint>
          <Trackpoint>
            <Time>2022-08-27T01:50:06.000Z</Time>
            <Position>
              <LatitudeDegrees>50.2014022506773471832275390625</LatitudeDegrees>
              <LongitudeDegrees>16.98687837459146976470947265625</LongitudeDegrees>
            </Position>
            <AltitudeMeters>811.4000244140625</AltitudeMeters>
            <DistanceMeters>21266.248814394</DistanceMeters>
          </Trackpoint>
          <Trackpoint>
            <Time>2022-08-27T01:50:11.000Z</Time>
            <Position>
              <LatitudeDegrees>50.20146000199019908905029296875</LatitudeDegrees>
              <LongitudeDegrees>16.9868432544171810150146484375</LongitudeDegrees>
            </Position>
            <AltitudeMeters>812.20001220703125</AltitudeMeters>
            <DistanceMeters>21273.145947328</DistanceMeters>
          </Trackpoint>
          <Trackpoint>
            <Time>2022-08-27T01:50:12.000Z</Time>
            <Position>
              <LatitudeDegrees>50.20147441886365413665771484375</LatitudeDegrees>
              <LongitudeDegrees>16.9868338666856288909912109375</LongitudeDegrees>
            </Position>
            <AltitudeMeters>812.4000244140625</AltitudeMeters>
            <DistanceMeters>21274.882623905</DistanceMeters>
          </Trackpoint>
          <Trackpoint>
            <Time>2022-08-27T01:50:19.000Z</Time>
            <Position>
              <LatitudeDegrees>50.20154281519353389739990234375</LatitudeDegrees>
              <LongitudeDegrees>16.986818276345729827880859375</LongitudeDegrees>
            </Position>
            <AltitudeMeters>813.20001220703125</AltitudeMeters>
            <DistanceMeters>21282.575680581</DistanceMeters>
          </Trackpoint>
          <Trackpoint>
            <Time>2022-08-27T01:50:20.000Z</Time>
            <Position>
              <LatitudeDegrees>50.2015529572963714599609375</LatitudeDegrees>
              <LongitudeDegrees>16.98681131936609745025634765625</LongitudeDegrees>
            </Position>
            <AltitudeMeters>813.4000244140625</AltitudeMeters>
            <DistanceMeters>21283.807367571</DistanceMeters>
          </Trackpoint>
          <Trackpoint>
            <Time>2022-08-27T01:50:25.000Z</Time>
            <Position>
              <LatitudeDegrees>50.2015990577638149261474609375</LatitudeDegrees>
              <LongitudeDegrees>16.98679019697010517120361328125</LongitudeDegrees>
            </Position>
            <AltitudeMeters>814.20001220703125</AltitudeMeters>
            <DistanceMeters>21289.154256575</DistanceMeters>
          </Trackpoint>
          <Trackpoint>
            <Time>2022-08-27T01:50:27.000Z</Time>
            <Position>
              <LatitudeDegrees>50.20161665976047515869140625</LatitudeDegrees>
              <LongitudeDegrees>16.9867825694382190704345703125</LongitudeDegrees>
            </Position>
            <AltitudeMeters>814.5999755859375</AltitudeMeters>
            <DistanceMeters>21291.187917071</DistanceMeters>
          </Trackpoint>
          <Trackpoint>
            <Time>2022-08-27T01:50:32.000Z</Time>
            <Position>
              <LatitudeDegrees>50.20165546797215938568115234375</LatitudeDegrees>
              <LongitudeDegrees>16.98679053224623203277587890625</LongitudeDegrees>
            </Position>
            <AltitudeMeters>815.79998779296875</AltitudeMeters>
            <DistanceMeters>21295.544661347</DistanceMeters>
          </Trackpoint>
          <Trackpoint>
            <Time>2022-08-27T01:50:36.000Z</Time>
            <Position>
              <LatitudeDegrees>50.20169368945062160491943359375</LatitudeDegrees>
              <LongitudeDegrees>16.9868052005767822265625</LongitudeDegrees>
            </Position>
            <AltitudeMeters>816.4000244140625</AltitudeMeters>
            <DistanceMeters>21299.924145605</DistanceMeters>
          </Trackpoint>
          <Trackpoint>
            <Time>2022-08-27T01:50:39.000Z</Time>
            <Position>
              <LatitudeDegrees>50.2017073519527912139892578125</LatitudeDegrees>
              <LongitudeDegrees>16.98681433685123920440673828125</LongitudeDegrees>
            </Position>
            <AltitudeMeters>816.79998779296875</AltitudeMeters>
            <DistanceMeters>21301.575533835</DistanceMeters>
          </Trackpoint>
          <Trackpoint>
            <Time>2022-08-27T01:50:46.000Z</Time>
            <Position>
              <LatitudeDegrees>50.20174917764961719512939453125</LatitudeDegrees>
              <LongitudeDegrees>16.986815594136714935302734375</LongitudeDegrees>
            </Position>
            <AltitudeMeters>818</AltitudeMeters>
            <DistanceMeters>21306.230873077</DistanceMeters>
          </Trackpoint>
          <Trackpoint>
            <Time>2022-08-27T01:50:52.000Z</Time>
            <Position>
              <LatitudeDegrees>50.20178069360554218292236328125</LatitudeDegrees>
              <LongitudeDegrees>16.9868266582489013671875</LongitudeDegrees>
            </Position>
            <AltitudeMeters>819</AltitudeMeters>
            <DistanceMeters>21309.826852703</DistanceMeters>
          </Trackpoint>
          <Trackpoint>
            <Time>2022-08-27T01:50:54.000Z</Time>
            <Position>
              <LatitudeDegrees>50.20179712213575839996337890625</LatitudeDegrees>
              <LongitudeDegrees>16.9868261553347110748291015625</LongitudeDegrees>
            </Position>
            <AltitudeMeters>819.4000244140625</AltitudeMeters>
            <DistanceMeters>21311.65472805</DistanceMeters>
          </Trackpoint>
          <Trackpoint>
            <Time>2022-08-27T01:50:57.000Z</Time>
            <Position>
              <LatitudeDegrees>50.20181640051305294036865234375</LatitudeDegrees>
              <LongitudeDegrees>16.9868295080959796905517578125</LongitudeDegrees>
            </Position>
            <AltitudeMeters>820</AltitudeMeters>
            <DistanceMeters>21313.815410702</DistanceMeters>
          </Trackpoint>
          <Trackpoint>
            <Time>2022-08-27T01:51:03.000Z</Time>
            <Position>
              <LatitudeDegrees>50.201881192624568939208984375</LatitudeDegrees>
              <LongitudeDegrees>16.98682070709764957427978515625</LongitudeDegrees>
            </Position>
            <AltitudeMeters>821.20001220703125</AltitudeMeters>
            <DistanceMeters>21321.054301059</DistanceMeters>
          </Trackpoint>
          <Trackpoint>
            <Time>2022-08-27T01:51:05.000Z</Time>
            <Position>
              <LatitudeDegrees>50.20189334638416767120361328125</LatitudeDegrees>
              <LongitudeDegrees>16.986820288002490997314453125</LongitudeDegrees>
            </Position>
            <AltitudeMeters>821.4000244140625</AltitudeMeters>
            <DistanceMeters>21322.40488443</DistanceMeters>
          </Trackpoint>
          <Trackpoint>
            <Time>2022-08-27T01:51:10.000Z</Time>
            <Position>
              <LatitudeDegrees>50.20190089009702205657958984375</LatitudeDegrees>
              <LongitudeDegrees>16.98682020418345928192138671875</LongitudeDegrees>
            </Position>
            <AltitudeMeters>822.20001220703125</AltitudeMeters>
            <DistanceMeters>21323.249500342</DistanceMeters>
          </Trackpoint>
          <Trackpoint>
            <Time>2022-08-27T01:51:14.000Z</Time>
            <Position>
              <LatitudeDegrees>50.2019464038312435150146484375</LatitudeDegrees>
              <LongitudeDegrees>16.986835710704326629638671875</LongitudeDegrees>
            </Position>
            <AltitudeMeters>823.20001220703125</AltitudeMeters>
            <DistanceMeters>21328.434337618</DistanceMeters>
          </Trackpoint>
          <Trackpoint>
            <Time>2022-08-27T01:51:16.000Z</Time>
            <Position>
              <LatitudeDegrees>50.20197062753140926361083984375</LatitudeDegrees>
              <LongitudeDegrees>16.9868372194468975067138671875</LongitudeDegrees>
            </Position>
            <AltitudeMeters>823.4000244140625</AltitudeMeters>
            <DistanceMeters>21331.13215926</DistanceMeters>
          </Trackpoint>
          <Trackpoint>
            <Time>2022-08-27T01:51:23.000Z</Time>
            <Position>
              <LatitudeDegrees>50.20205562002956867218017578125</LatitudeDegrees>
              <LongitudeDegrees>16.9868392311036586761474609375</LongitudeDegrees>
            </Position>
            <AltitudeMeters>824.79998779296875</AltitudeMeters>
            <DistanceMeters>21340.593403776</DistanceMeters>
          </Trackpoint>
          <Trackpoint>
            <Time>2022-08-27T01:51:25.000Z</Time>
            <Position>
              <LatitudeDegrees>50.202071629464626312255859375</LatitudeDegrees>
              <LongitudeDegrees>16.9868204556405544281005859375</LongitudeDegrees>
            </Position>
            <AltitudeMeters>825</AltitudeMeters>
            <DistanceMeters>21342.819950871</DistanceMeters>
          </Trackpoint>
          <Trackpoint>
            <Time>2022-08-27T01:51:30.000Z</Time>
            <Position>
              <LatitudeDegrees>50.20208177156746387481689453125</LatitudeDegrees>
              <LongitudeDegrees>16.98676991276443004608154296875</LongitudeDegrees>
            </Position>
            <AltitudeMeters>826</AltitudeMeters>
            <DistanceMeters>21346.593600372</DistanceMeters>
          </Trackpoint>
          <Trackpoint>
            <Time>2022-08-27T01:51:32.000Z</Time>
            <Position>
              <LatitudeDegrees>50.20209367386996746063232421875</LatitudeDegrees>
              <LongitudeDegrees>16.98676966130733489990234375</LongitudeDegrees>
            </Position>
            <AltitudeMeters>826.20001220703125</AltitudeMeters>
            <DistanceMeters>21347.917169346</DistanceMeters>
          </Trackpoint>
          <Trackpoint>
            <Time>2022-08-27T01:51:38.000Z</Time>
            <Position>
              <LatitudeDegrees>50.2021779119968414306640625</LatitudeDegrees>
              <LongitudeDegrees>16.986782737076282501220703125</LongitudeDegrees>
            </Position>
            <AltitudeMeters>827</AltitudeMeters>
            <DistanceMeters>21357.339201055</DistanceMeters>
          </Trackpoint>
          <Trackpoint>
            <Time>2022-08-27T01:51:41.000Z</Time>
            <Position>
              <LatitudeDegrees>50.2022273652255535125732421875</LatitudeDegrees>
              <LongitudeDegrees>16.98677745647728443145751953125</LongitudeDegrees>
            </Position>
            <AltitudeMeters>827.5999755859375</AltitudeMeters>
            <DistanceMeters>21362.856481879</DistanceMeters>
          </Trackpoint>
          <Trackpoint>
            <Time>2022-08-27T01:51:45.000Z</Time>
            <Position>
              <LatitudeDegrees>50.20228779874742031097412109375</LatitudeDegrees>
              <LongitudeDegrees>16.98678248561918735504150390625</LongitudeDegrees>
            </Position>
            <AltitudeMeters>828</AltitudeMeters>
            <DistanceMeters>21369.593333088</DistanceMeters>
          </Trackpoint>
          <Trackpoint>
            <Time>2022-08-27T01:51:52.000Z</Time>
            <Position>
              <LatitudeDegrees>50.20237949676811695098876953125</LatitudeDegrees>
              <LongitudeDegrees>16.98681383393704891204833984375</LongitudeDegrees>
            </Position>
            <AltitudeMeters>829</AltitudeMeters>
            <DistanceMeters>21380.041087107</DistanceMeters>
          </Trackpoint>
          <Trackpoint>
            <Time>2022-08-27T01:52:00.000Z</Time>
            <Position>
              <LatitudeDegrees>50.20247639156877994537353515625</LatitudeDegrees>
              <LongitudeDegrees>16.9868442602455615997314453125</LongitudeDegrees>
            </Position>
            <AltitudeMeters>830.20001220703125</AltitudeMeters>
            <DistanceMeters>21391.041224577</DistanceMeters>
          </Trackpoint>
          <Trackpoint>
            <Time>2022-08-27T01:52:04.000Z</Time>
            <Position>
              <LatitudeDegrees>50.202512852847576141357421875</LatitudeDegrees>
              <LongitudeDegrees>16.98683713562786579132080078125</LongitudeDegrees>
            </Position>
            <AltitudeMeters>830.79998779296875</AltitudeMeters>
            <DistanceMeters>21395.130686836</DistanceMeters>
          </Trackpoint>
          <Trackpoint>
            <Time>2022-08-27T01:52:07.000Z</Time>
            <Position>
              <LatitudeDegrees>50.2025455422699451446533203125</LatitudeDegrees>
              <LongitudeDegrees>16.9868244789540767669677734375</LongitudeDegrees>
            </Position>
            <AltitudeMeters>831.20001220703125</AltitudeMeters>
            <DistanceMeters>21398.879126371</DistanceMeters>
          </Trackpoint>
          <Trackpoint>
            <Time>2022-08-27T01:52:15.000Z</Time>
            <Position>
              <LatitudeDegrees>50.2026347257196903228759765625</LatitudeDegrees>
              <LongitudeDegrees>16.98680327273905277252197265625</LongitudeDegrees>
            </Position>
            <AltitudeMeters>832.4000244140625</AltitudeMeters>
            <DistanceMeters>21408.919633003</DistanceMeters>
          </Trackpoint>
          <Trackpoint>
            <Time>2022-08-27T01:52:16.000Z</Time>
            <Position>
              <LatitudeDegrees>50.2026491425931453704833984375</LatitudeDegrees>
              <LongitudeDegrees>16.9867986626923084259033203125</LongitudeDegrees>
            </Position>
            <AltitudeMeters>832.4000244140625</AltitudeMeters>
            <DistanceMeters>21410.560048432</DistanceMeters>
          </Trackpoint>
          <Trackpoint>
            <Time>2022-08-27T01:52:22.000Z</Time>
            <Position>
              <LatitudeDegrees>50.20272013731300830841064453125</LatitudeDegrees>
              <LongitudeDegrees>16.98674820363521575927734375</LongitudeDegrees>
            </Position>
            <AltitudeMeters>833.5999755859375</AltitudeMeters>
            <DistanceMeters>21419.241351215</DistanceMeters>
          </Trackpoint>
          <Trackpoint>
            <Time>2022-08-27T01:52:27.000Z</Time>
            <Position>
              <LatitudeDegrees>50.202768333256244659423828125</LatitudeDegrees>
              <LongitudeDegrees>16.98672096244990825653076171875</LongitudeDegrees>
            </Position>
            <AltitudeMeters>834.4000244140625</AltitudeMeters>
            <DistanceMeters>21424.946120755</DistanceMeters>
          </Trackpoint>
          <Trackpoint>
            <Time>2022-08-27T01:52:28.000Z</Time>
            <Position>
              <LatitudeDegrees>50.20278115756809711456298828125</LatitudeDegrees>
              <LongitudeDegrees>16.98671677149832248687744140625</LongitudeDegrees>
            </Position>
            <AltitudeMeters>834.79998779296875</AltitudeMeters>
            <DistanceMeters>21426.399749967</DistanceMeters>
          </Trackpoint>
          <Trackpoint>
            <Time>2022-08-27T01:52:34.000Z</Time>
            <Position>
              <LatitudeDegrees>50.202829353511333465576171875</LatitudeDegrees>
              <LongitudeDegrees>16.986662037670612335205078125</LongitudeDegrees>
            </Position>
            <AltitudeMeters>835.79998779296875</AltitudeMeters>
            <DistanceMeters>21433.031225842</DistanceMeters>
          </Trackpoint>
          <Trackpoint>
            <Time>2022-08-27T01:52:38.000Z</Time>
            <Position>
              <LatitudeDegrees>50.2028667367994785308837890625</LatitudeDegrees>
              <LongitudeDegrees>16.98661887086927890777587890625</LongitudeDegrees>
            </Position>
            <AltitudeMeters>836.20001220703125</AltitudeMeters>
            <DistanceMeters>21438.204730127</DistanceMeters>
          </Trackpoint>
          <Trackpoint>
            <Time>2022-08-27T01:52:41.000Z</Time>
            <Position>
              <LatitudeDegrees>50.2028962410986423492431640625</LatitudeDegrees>
              <LongitudeDegrees>16.9866068847477436065673828125</LongitudeDegrees>
            </Position>
            <AltitudeMeters>836.79998779296875</AltitudeMeters>
            <DistanceMeters>21441.596531623</DistanceMeters>
          </Trackpoint>
          <Trackpoint>
            <Time>2022-08-27T01:52:49.000Z</Time>
            <Position>
              <LatitudeDegrees>50.2029579319059848785400390625</LatitudeDegrees>
              <LongitudeDegrees>16.98654863052070140838623046875</LongitudeDegrees>
            </Position>
            <AltitudeMeters>837.79998779296875</AltitudeMeters>
            <DistanceMeters>21449.619397999</DistanceMeters>
          </Trackpoint>
          <Trackpoint>
            <Time>2022-08-27T01:52:52.000Z</Time>
            <Position>
              <LatitudeDegrees>50.20298450253903865814208984375</LatitudeDegrees>
              <LongitudeDegrees>16.98654946871101856231689453125</LongitudeDegrees>
            </Position>
            <AltitudeMeters>838.20001220703125</AltitudeMeters>
            <DistanceMeters>21452.578988199</DistanceMeters>
          </Trackpoint>
          <Trackpoint>
            <Time>2022-08-27T01:52:57.000Z</Time>
            <Position>
              <LatitudeDegrees>50.2030303515493869781494140625</LatitudeDegrees>
              <LongitudeDegrees>16.98654863052070140838623046875</LongitudeDegrees>
            </Position>
            <AltitudeMeters>839.20001220703125</AltitudeMeters>
            <DistanceMeters>21457.682197039</DistanceMeters>
          </Trackpoint>
          <Trackpoint>
            <Time>2022-08-27T01:53:04.000Z</Time>
            <Position>
              <LatitudeDegrees>50.2031064592301845550537109375</LatitudeDegrees>
              <LongitudeDegrees>16.9865958206355571746826171875</LongitudeDegrees>
            </Position>
            <AltitudeMeters>840</AltitudeMeters>
            <DistanceMeters>21466.79584851</DistanceMeters>
          </Trackpoint>
          <Trackpoint>
            <Time>2022-08-27T01:53:05.000Z</Time>
            <Position>
              <LatitudeDegrees>50.2031141705811023712158203125</LatitudeDegrees>
              <LongitudeDegrees>16.986603029072284698486328125</LongitudeDegrees>
            </Position>
            <AltitudeMeters>840.20001220703125</AltitudeMeters>
            <DistanceMeters>21467.801516726</DistanceMeters>
          </Trackpoint>
          <Trackpoint>
            <Time>2022-08-27T01:53:10.000Z</Time>
            <Position>
              <LatitudeDegrees>50.203156583011150360107421875</LatitudeDegrees>
              <LongitudeDegrees>16.98662222363054752349853515625</LongitudeDegrees>
            </Position>
            <AltitudeMeters>841.4000244140625</AltitudeMeters>
            <DistanceMeters>21472.715417866</DistanceMeters>
          </Trackpoint>
          <Trackpoint>
            <Time>2022-08-27T01:53:16.000Z</Time>
            <Position>
              <LatitudeDegrees>50.20321751944720745086669921875</LatitudeDegrees>
              <LongitudeDegrees>16.98664368130266666412353515625</LongitudeDegrees>
            </Position>
            <AltitudeMeters>842.4000244140625</AltitudeMeters>
            <DistanceMeters>21479.667971297</DistanceMeters>
          </Trackpoint>
          <Trackpoint>
            <Time>2022-08-27T01:53:23.000Z</Time>
            <Position>
              <LatitudeDegrees>50.20329144783318042755126953125</LatitudeDegrees>
              <LongitudeDegrees>16.9866410829126834869384765625</LongitudeDegrees>
            </Position>
            <AltitudeMeters>843.5999755859375</AltitudeMeters>
            <DistanceMeters>21487.898623366</DistanceMeters>
          </Trackpoint>
          <Trackpoint>
            <Time>2022-08-27T01:53:25.000Z</Time>
            <Position>
              <LatitudeDegrees>50.20330888219177722930908203125</LatitudeDegrees>
              <LongitudeDegrees>16.98662792332470417022705078125</LongitudeDegrees>
            </Position>
            <AltitudeMeters>843.79998779296875</AltitudeMeters>
            <DistanceMeters>21490.055122698</DistanceMeters>
          </Trackpoint>
          <Trackpoint>
            <Time>2022-08-27T01:53:30.000Z</Time>
            <Position>
              <LatitudeDegrees>50.20334375090897083282470703125</LatitudeDegrees>
              <LongitudeDegrees>16.986622475087642669677734375</LongitudeDegrees>
            </Position>
            <AltitudeMeters>844.5999755859375</AltitudeMeters>
            <DistanceMeters>21493.957007996</DistanceMeters>
          </Trackpoint>
          <Trackpoint>
            <Time>2022-08-27T01:53:35.000Z</Time>
            <Position>
              <LatitudeDegrees>50.20337677560746669769287109375</LatitudeDegrees>
              <LongitudeDegrees>16.9866214692592620849609375</LongitudeDegrees>
            </Position>
            <AltitudeMeters>845.20001220703125</AltitudeMeters>
            <DistanceMeters>21497.633694608</DistanceMeters>
          </Trackpoint>
          <Trackpoint>
            <Time>2022-08-27T01:53:38.000Z</Time>
            <Position>
              <LatitudeDegrees>50.20339521579444408416748046875</LatitudeDegrees>
              <LongitudeDegrees>16.9866286776959896087646484375</LongitudeDegrees>
            </Position>
            <AltitudeMeters>845.79998779296875</AltitudeMeters>
            <DistanceMeters>21499.747905534</DistanceMeters>
          </Trackpoint>
          <Trackpoint>
            <Time>2022-08-27T01:53:45.000Z</Time>
            <Position>
              <LatitudeDegrees>50.20345740951597690582275390625</LatitudeDegrees>
              <LongitudeDegrees>16.98664535768330097198486328125</LongitudeDegrees>
            </Position>
            <AltitudeMeters>846.79998779296875</AltitudeMeters>
            <DistanceMeters>21506.770887631</DistanceMeters>
          </Trackpoint>
          <Trackpoint>
            <Time>2022-08-27T01:53:52.000Z</Time>
            <Position>
              <LatitudeDegrees>50.203507281839847564697265625</LatitudeDegrees>
              <LongitudeDegrees>16.98666036128997802734375</LongitudeDegrees>
            </Position>
            <AltitudeMeters>848</AltitudeMeters>
            <DistanceMeters>21512.423180127</DistanceMeters>
          </Trackpoint>
          <Trackpoint>
            <Time>2022-08-27T01:53:55.000Z</Time>
            <Position>
              <LatitudeDegrees>50.20352303981781005859375</LatitudeDegrees>
              <LongitudeDegrees>16.98666664771735668182373046875</LongitudeDegrees>
            </Position>
            <AltitudeMeters>848.4000244140625</AltitudeMeters>
            <DistanceMeters>21514.231186673</DistanceMeters>
          </Trackpoint>
          <Trackpoint>
            <Time>2022-08-27T01:53:58.000Z</Time>
            <Position>
              <LatitudeDegrees>50.2035500295460224151611328125</LatitudeDegrees>
              <LongitudeDegrees>16.98668139986693859100341796875</LongitudeDegrees>
            </Position>
            <AltitudeMeters>849</AltitudeMeters>
            <DistanceMeters>21517.414227008</DistanceMeters>
          </Trackpoint>
          <Trackpoint>
            <Time>2022-08-27T01:54:05.000Z</Time>
            <Position>
              <LatitudeDegrees>50.20359872840344905853271484375</LatitudeDegrees>
              <LongitudeDegrees>16.98669648729264736175537109375</LongitudeDegrees>
            </Position>
            <AltitudeMeters>849.79998779296875</AltitudeMeters>
            <DistanceMeters>21522.940502293</DistanceMeters>
          </Trackpoint>
          <Trackpoint>
            <Time>2022-08-27T01:54:07.000Z</Time>
            <Position>
              <LatitudeDegrees>50.20361968316137790679931640625</LatitudeDegrees>
              <LongitudeDegrees>16.98669833131134510040283203125</LongitudeDegrees>
            </Position>
            <AltitudeMeters>850.20001220703125</AltitudeMeters>
            <DistanceMeters>21525.275917925</DistanceMeters>
          </Trackpoint>
          <Trackpoint>
            <Time>2022-08-27T01:54:13.000Z</Time>
            <Position>
              <LatitudeDegrees>50.2036710642278194427490234375</LatitudeDegrees>
              <LongitudeDegrees>16.98671123944222927093505859375</LongitudeDegrees>
            </Position>
            <AltitudeMeters>851.20001220703125</AltitudeMeters>
            <DistanceMeters>21531.067872171</DistanceMeters>
          </Trackpoint>
          <Trackpoint>
            <Time>2022-08-27T01:54:16.000Z</Time>
            <Position>
              <LatitudeDegrees>50.2036905102431774139404296875</LatitudeDegrees>
              <LongitudeDegrees>16.986719705164432525634765625</LongitudeDegrees>
            </Position>
            <AltitudeMeters>851.5999755859375</AltitudeMeters>
            <DistanceMeters>21533.314605963</DistanceMeters>
          </Trackpoint>
          <Trackpoint>
            <Time>2022-08-27T01:54:19.000Z</Time>
            <Position>
              <LatitudeDegrees>50.20370886661112308502197265625</LatitudeDegrees>
              <LongitudeDegrees>16.98673185892403125762939453125</LongitudeDegrees>
            </Position>
            <AltitudeMeters>852.4000244140625</AltitudeMeters>
            <DistanceMeters>21535.535061263</DistanceMeters>
          </Trackpoint>
          <Trackpoint>
            <Time>2022-08-27T01:54:25.000Z</Time>
            <Position>
              <LatitudeDegrees>50.2037793584167957305908203125</LatitudeDegrees>
              <LongitudeDegrees>16.98676203377544879913330078125</LongitudeDegrees>
            </Position>
            <AltitudeMeters>853.4000244140625</AltitudeMeters>
            <DistanceMeters>21543.669703245</DistanceMeters>
          </Trackpoint>
          <Trackpoint>
            <Time>2022-08-27T01:54:28.000Z</Time>
            <Position>
              <LatitudeDegrees>50.2038216032087802886962890625</LatitudeDegrees>
              <LongitudeDegrees>16.986767314374446868896484375</LongitudeDegrees>
            </Position>
            <AltitudeMeters>853.5999755859375</AltitudeMeters>
            <DistanceMeters>21548.386705297</DistanceMeters>
          </Trackpoint>
          <Trackpoint>
            <Time>2022-08-27T01:54:34.000Z</Time>
            <Position>
              <LatitudeDegrees>50.2038708887994289398193359375</LatitudeDegrees>
              <LongitudeDegrees>16.986806876957416534423828125</LongitudeDegrees>
            </Position>
            <AltitudeMeters>854.5999755859375</AltitudeMeters>
            <DistanceMeters>21554.553931739</DistanceMeters>
          </Trackpoint>
          <Trackpoint>
            <Time>2022-08-27T01:54:38.000Z</Time>
            <Position>
              <LatitudeDegrees>50.20389963872730731964111328125</LatitudeDegrees>
              <LongitudeDegrees>16.986824981868267059326171875</LongitudeDegrees>
            </Position>
            <AltitudeMeters>855</AltitudeMeters>
            <DistanceMeters>21558.003807208</DistanceMeters>
          </Trackpoint>
          <Trackpoint>
            <Time>2022-08-27T01:54:42.000Z</Time>
            <Position>
              <LatitudeDegrees>50.2039235271513462066650390625</LatitudeDegrees>
              <LongitudeDegrees>16.9868529774248600006103515625</LongitudeDegrees>
            </Position>
            <AltitudeMeters>855.5999755859375</AltitudeMeters>
            <DistanceMeters>21561.328384409</DistanceMeters>
          </Trackpoint>
          <Trackpoint>
            <Time>2022-08-27T01:54:49.000Z</Time>
            <Position>
              <LatitudeDegrees>50.2039654366672039031982421875</LatitudeDegrees>
              <LongitudeDegrees>16.98685951530933380126953125</LongitudeDegrees>
            </Position>
            <AltitudeMeters>856.79998779296875</AltitudeMeters>
            <DistanceMeters>21566.016583004</DistanceMeters>
          </Trackpoint>
          <Trackpoint>
            <Time>2022-08-27T01:54:50.000Z</Time>
            <Position>
              <LatitudeDegrees>50.2039708010852336883544921875</LatitudeDegrees>
              <LongitudeDegrees>16.98686043731868267059326171875</LongitudeDegrees>
            </Position>
            <AltitudeMeters>856.79998779296875</AltitudeMeters>
            <DistanceMeters>21566.617584716</DistanceMeters>
          </Trackpoint>
          <Trackpoint>
            <Time>2022-08-27T01:54:56.000Z</Time>
            <Position>
              <LatitudeDegrees>50.20399569533765316009521484375</LatitudeDegrees>
              <LongitudeDegrees>16.986877284944057464599609375</LongitudeDegrees>
            </Position>
            <AltitudeMeters>858</AltitudeMeters>
            <DistanceMeters>21569.637580943</DistanceMeters>
          </Trackpoint>
          <Trackpoint>
            <Time>2022-08-27T01:55:02.000Z</Time>
            <Position>
              <LatitudeDegrees>50.20404883660376071929931640625</LatitudeDegrees>
              <LongitudeDegrees>16.9869084656238555908203125</LongitudeDegrees>
            </Position>
            <AltitudeMeters>858.5999755859375</AltitudeMeters>
            <DistanceMeters>21575.955249649</DistanceMeters>
          </Trackpoint>
          <Trackpoint>
            <Time>2022-08-27T01:55:05.000Z</Time>
            <Position>
              <LatitudeDegrees>50.20408689044415950775146484375</LatitudeDegrees>
              <LongitudeDegrees>16.98692196048796176910400390625</LongitudeDegrees>
            </Position>
            <AltitudeMeters>859.20001220703125</AltitudeMeters>
            <DistanceMeters>21580.299540128</DistanceMeters>
          </Trackpoint>
          <Trackpoint>
            <Time>2022-08-27T01:55:12.000Z</Time>
            <Position>
              <LatitudeDegrees>50.20415746606886386871337890625</LatitudeDegrees>
              <LongitudeDegrees>16.98694668710231781005859375</LongitudeDegrees>
            </Position>
            <AltitudeMeters>860.20001220703125</AltitudeMeters>
            <DistanceMeters>21588.349935065</DistanceMeters>
          </Trackpoint>
          <Trackpoint>
            <Time>2022-08-27T01:55:13.000Z</Time>
            <Position>
              <LatitudeDegrees>50.20417070947587490081787109375</LatitudeDegrees>
              <LongitudeDegrees>16.98694626800715923309326171875</LongitudeDegrees>
            </Position>
            <AltitudeMeters>860.4000244140625</AltitudeMeters>
            <DistanceMeters>21589.822082594</DistanceMeters>
          </Trackpoint>
          <Trackpoint>
            <Time>2022-08-27T01:55:19.000Z</Time>
            <Position>
              <LatitudeDegrees>50.2042217552661895751953125</LatitudeDegrees>
              <LongitudeDegrees>16.98696948587894439697265625</LongitudeDegrees>
            </Position>
            <AltitudeMeters>861.4000244140625</AltitudeMeters>
            <DistanceMeters>21595.739737235</DistanceMeters>
          </Trackpoint>
          <Trackpoint>
            <Time>2022-08-27T01:55:23.000Z</Time>
            <Position>
              <LatitudeDegrees>50.204249918460845947265625</LatitudeDegrees>
              <LongitudeDegrees>16.9869874231517314910888671875</LongitudeDegrees>
            </Position>
            <AltitudeMeters>862</AltitudeMeters>
            <DistanceMeters>21599.123542331</DistanceMeters>
          </Trackpoint>
          <Trackpoint>
            <Time>2022-08-27T01:55:24.000Z</Time>
            <Position>
              <LatitudeDegrees>50.20425385795533657073974609375</LatitudeDegrees>
              <LongitudeDegrees>16.98698314838111400604248046875</LongitudeDegrees>
            </Position>
            <AltitudeMeters>862.5999755859375</AltitudeMeters>
            <DistanceMeters>21599.661094604</DistanceMeters>
          </Trackpoint>
          <Trackpoint>
            <Time>2022-08-27T01:55:32.000Z</Time>
            <Position>
              <LatitudeDegrees>50.20430825650691986083984375</LatitudeDegrees>
              <LongitudeDegrees>16.98701835237443447113037109375</LongitudeDegrees>
            </Position>
            <AltitudeMeters>863.5999755859375</AltitudeMeters>
            <DistanceMeters>21606.214493994</DistanceMeters>
          </Trackpoint>
          <Trackpoint>
            <Time>2022-08-27T01:55:33.000Z</Time>
            <Position>
              <LatitudeDegrees>50.20432032644748687744140625</LatitudeDegrees>
              <LongitudeDegrees>16.987020783126354217529296875</LongitudeDegrees>
            </Position>
            <AltitudeMeters>863.5999755859375</AltitudeMeters>
            <DistanceMeters>21607.568416266</DistanceMeters>
          </Trackpoint>
          <Trackpoint>
            <Time>2022-08-27T01:55:41.000Z</Time>
            <Position>
              <LatitudeDegrees>50.204368270933628082275390625</LatitudeDegrees>
              <LongitudeDegrees>16.987037546932697296142578125</LongitudeDegrees>
            </Position>
            <AltitudeMeters>864.79998779296875</AltitudeMeters>
            <DistanceMeters>21613.037201614</DistanceMeters>
          </Trackpoint>
          <Trackpoint>
            <Time>2022-08-27T01:55:42.000Z</Time>
            <Position>
              <LatitudeDegrees>50.20436433143913745880126953125</LatitudeDegrees>
              <LongitudeDegrees>16.98703360743820667266845703125</LongitudeDegrees>
            </Position>
            <AltitudeMeters>865</AltitudeMeters>
            <DistanceMeters>21613.557684364</DistanceMeters>
          </Trackpoint>
          <Trackpoint>
            <Time>2022-08-27T01:55:49.000Z</Time>
            <Position>
              <LatitudeDegrees>50.20433046855032444000244140625</LatitudeDegrees>
              <LongitudeDegrees>16.98700510896742343902587890625</LongitudeDegrees>
            </Position>
            <AltitudeMeters>866.20001220703125</AltitudeMeters>
            <DistanceMeters>21617.839162518</DistanceMeters>
          </Trackpoint>
          <Trackpoint>
            <Time>2022-08-27T01:55:51.000Z</Time>
            <Position>
              <LatitudeDegrees>50.20431873388588428497314453125</LatitudeDegrees>
              <LongitudeDegrees>16.98700376786291599273681640625</LongitudeDegrees>
            </Position>
            <AltitudeMeters>866.4000244140625</AltitudeMeters>
            <DistanceMeters>21619.149015382</DistanceMeters>
          </Trackpoint>
          <Trackpoint>
            <Time>2022-08-27T01:55:58.000Z</Time>
            <Position>
              <LatitudeDegrees>50.2042769081890583038330078125</LatitudeDegrees>
              <LongitudeDegrees>16.98701231740415096282958984375</LongitudeDegrees>
            </Position>
            <AltitudeMeters>867.20001220703125</AltitudeMeters>
            <DistanceMeters>21623.844912173</DistanceMeters>
          </Trackpoint>
          <Trackpoint>
            <Time>2022-08-27T01:56:05.000Z</Time>
            <Position>
              <LatitudeDegrees>50.20423122681677341461181640625</LatitudeDegrees>
              <LongitudeDegrees>16.9870511256158351898193359375</LongitudeDegrees>
            </Position>
            <AltitudeMeters>867.5999755859375</AltitudeMeters>
            <DistanceMeters>21629.632967426</DistanceMeters>
          </Trackpoint>
          <Trackpoint>
            <Time>2022-08-27T01:56:12.000Z</Time>
            <Position>
              <LatitudeDegrees>50.20419702865183353424072265625</LatitudeDegrees>
              <LongitudeDegrees>16.98707954026758670806884765625</LongitudeDegrees>
            </Position>
            <AltitudeMeters>868.20001220703125</AltitudeMeters>
            <DistanceMeters>21633.944919118</DistanceMeters>
          </Trackpoint>
          <Trackpoint>
            <Time>2022-08-27T01:56:18.000Z</Time>
            <Position>
              <LatitudeDegrees>50.2041573822498321533203125</LatitudeDegrees>
              <LongitudeDegrees>16.987122707068920135498046875</LongitudeDegrees>
            </Position>
            <AltitudeMeters>868.79998779296875</AltitudeMeters>
            <DistanceMeters>21639.323800501</DistanceMeters>
          </Trackpoint>
          <Trackpoint>
            <Time>2022-08-27T01:56:22.000Z</Time>
            <Position>
              <LatitudeDegrees>50.2041293866932392120361328125</LatitudeDegrees>
              <LongitudeDegrees>16.98715455830097198486328125</LongitudeDegrees>
            </Position>
            <AltitudeMeters>869.20001220703125</AltitudeMeters>
            <DistanceMeters>21643.179122255</DistanceMeters>
          </Trackpoint>
          <Trackpoint>
            <Time>2022-08-27T01:56:23.000Z</Time>
            <Position>
              <LatitudeDegrees>50.2041317336261272430419921875</LatitudeDegrees>
              <LongitudeDegrees>16.9871822185814380645751953125</LongitudeDegrees>
            </Position>
            <AltitudeMeters>869.5999755859375</AltitudeMeters>
            <DistanceMeters>21645.165612478</DistanceMeters>
          </Trackpoint>
          <Trackpoint>
            <Time>2022-08-27T01:56:28.000Z</Time>
            <Position>
              <LatitudeDegrees>50.2041213400661945343017578125</LatitudeDegrees>
              <LongitudeDegrees>16.987263858318328857421875</LongitudeDegrees>
            </Position>
            <AltitudeMeters>870.4000244140625</AltitudeMeters>
            <DistanceMeters>21651.095462195</DistanceMeters>
          </Trackpoint>
          <Trackpoint>
            <Time>2022-08-27T01:56:30.000Z</Time>
            <Position>
              <LatitudeDegrees>50.20411069504916667938232421875</LatitudeDegrees>
              <LongitudeDegrees>16.9872828014194965362548828125</LongitudeDegrees>
            </Position>
            <AltitudeMeters>870.79998779296875</AltitudeMeters>
            <DistanceMeters>21652.888422656</DistanceMeters>
          </Trackpoint>
          <Trackpoint>
            <Time>2022-08-27T01:56:35.000Z</Time>
            <Position>
              <LatitudeDegrees>50.20409493707120418548583984375</LatitudeDegrees>
              <LongitudeDegrees>16.98733317665755748748779296875</LongitudeDegrees>
            </Position>
            <AltitudeMeters>871.5999755859375</AltitudeMeters>
            <DistanceMeters>21656.882937029</DistanceMeters>
          </Trackpoint>
          <Trackpoint>
            <Time>2022-08-27T01:56:41.000Z</Time>
            <Position>
              <LatitudeDegrees>50.20407213829457759857177734375</LatitudeDegrees>
              <LongitudeDegrees>16.98740660212934017181396484375</LongitudeDegrees>
            </Position>
            <AltitudeMeters>872.5999755859375</AltitudeMeters>
            <DistanceMeters>21662.69745388</DistanceMeters>
          </Trackpoint>
          <Trackpoint>
            <Time>2022-08-27T01:56:42.000Z</Time>
            <Position>
              <LatitudeDegrees>50.20406794734299182891845703125</LatitudeDegrees>
              <LongitudeDegrees>16.98741875588893890380859375</LongitudeDegrees>
            </Position>
            <AltitudeMeters>872.79998779296875</AltitudeMeters>
            <DistanceMeters>21663.675813784</DistanceMeters>
          </Trackpoint>
          <Trackpoint>
            <Time>2022-08-27T01:56:47.000Z</Time>
            <Position>
              <LatitudeDegrees>50.2040546201169490814208984375</LatitudeDegrees>
              <LongitudeDegrees>16.9874910078942775726318359375</LongitudeDegrees>
            </Position>
            <AltitudeMeters>873.5999755859375</AltitudeMeters>
            <DistanceMeters>21669.032826286</DistanceMeters>
          </Trackpoint>
          <Trackpoint>
            <Time>2022-08-27T01:56:53.000Z</Time>
            <Position>
              <LatitudeDegrees>50.2040438912808895111083984375</LatitudeDegrees>
              <LongitudeDegrees>16.9876076839864253997802734375</LongitudeDegrees>
            </Position>
            <AltitudeMeters>874.79998779296875</AltitudeMeters>
            <DistanceMeters>21677.429661218</DistanceMeters>
          </Trackpoint>
          <Trackpoint>
            <Time>2022-08-27T01:56:54.000Z</Time>
            <Position>
              <LatitudeDegrees>50.204044394195079803466796875</LatitudeDegrees>
              <LongitudeDegrees>16.98762251995503902435302734375</LongitudeDegrees>
            </Position>
            <AltitudeMeters>875</AltitudeMeters>
            <DistanceMeters>21678.487833925</DistanceMeters>
          </Trackpoint>
          <Trackpoint>
            <Time>2022-08-27T01:57:00.000Z</Time>
            <Position>
              <LatitudeDegrees>50.20405344665050506591796875</LatitudeDegrees>
              <LongitudeDegrees>16.98776551522314548492431640625</LongitudeDegrees>
            </Position>
            <AltitudeMeters>876</AltitudeMeters>
            <DistanceMeters>21688.724729799</DistanceMeters>
          </Trackpoint>
          <Trackpoint>
            <Time>2022-08-27T01:57:06.000Z</Time>
            <Position>
              <LatitudeDegrees>50.204080604016780853271484375</LatitudeDegrees>
              <LongitudeDegrees>16.9878936745226383209228515625</LongitudeDegrees>
            </Position>
            <AltitudeMeters>876.79998779296875</AltitudeMeters>
            <DistanceMeters>21698.341696209</DistanceMeters>
          </Trackpoint>
          <Trackpoint>
            <Time>2022-08-27T01:57:07.000Z</Time>
            <Position>
              <LatitudeDegrees>50.20408563315868377685546875</LatitudeDegrees>
              <LongitudeDegrees>16.98790767230093479156494140625</LongitudeDegrees>
            </Position>
            <AltitudeMeters>877</AltitudeMeters>
            <DistanceMeters>21699.482016782</DistanceMeters>
          </Trackpoint>
          <Trackpoint>
            <Time>2022-08-27T01:57:09.000Z</Time>
            <Position>
              <LatitudeDegrees>50.20409527234733104705810546875</LatitudeDegrees>
              <LongitudeDegrees>16.98794321157038211822509765625</LongitudeDegrees>
            </Position>
            <AltitudeMeters>877.4000244140625</AltitudeMeters>
            <DistanceMeters>21702.231230121</DistanceMeters>
          </Trackpoint>
          <Trackpoint>
            <Time>2022-08-27T01:57:14.000Z</Time>
            <Position>
              <LatitudeDegrees>50.204122848808765411376953125</LatitudeDegrees>
              <LongitudeDegrees>16.98803725652396678924560546875</LongitudeDegrees>
            </Position>
            <AltitudeMeters>878.20001220703125</AltitudeMeters>
            <DistanceMeters>21709.600550289</DistanceMeters>
          </Trackpoint>
          <Trackpoint>
            <Time>2022-08-27T01:57:17.000Z</Time>
            <Position>
              <LatitudeDegrees>50.20413768477737903594970703125</LatitudeDegrees>
              <LongitudeDegrees>16.98807966895401477813720703125</LongitudeDegrees>
            </Position>
            <AltitudeMeters>878.79998779296875</AltitudeMeters>
            <DistanceMeters>21713.045186764</DistanceMeters>
          </Trackpoint>
          <Trackpoint>
            <Time>2022-08-27T01:57:21.000Z</Time>
            <Position>
              <LatitudeDegrees>50.20415193401277065277099609375</LatitudeDegrees>
              <LongitudeDegrees>16.98813700117170810699462890625</LongitudeDegrees>
            </Position>
            <AltitudeMeters>879.4000244140625</AltitudeMeters>
            <DistanceMeters>21717.425701853</DistanceMeters>
          </Trackpoint>
          <Trackpoint>
            <Time>2022-08-27T01:57:28.000Z</Time>
            <Position>
              <LatitudeDegrees>50.20415008999407291412353515625</LatitudeDegrees>
              <LongitudeDegrees>16.988235153257846832275390625</LongitudeDegrees>
            </Position>
            <AltitudeMeters>880.5999755859375</AltitudeMeters>
            <DistanceMeters>21724.420339383</DistanceMeters>
          </Trackpoint>
          <Trackpoint>
            <Time>2022-08-27T01:57:29.000Z</Time>
            <Position>
              <LatitudeDegrees>50.204150341451168060302734375</LatitudeDegrees>
              <LongitudeDegrees>16.98824864812195301055908203125</LongitudeDegrees>
            </Position>
            <AltitudeMeters>880.79998779296875</AltitudeMeters>
            <DistanceMeters>21725.384755203</DistanceMeters>
          </Trackpoint>
          <Trackpoint>
            <Time>2022-08-27T01:57:34.000Z</Time>
            <Position>
              <LatitudeDegrees>50.20415830425918102264404296875</LatitudeDegrees>
              <LongitudeDegrees>16.988317631185054779052734375</LongitudeDegrees>
            </Position>
            <AltitudeMeters>881.5999755859375</AltitudeMeters>
            <DistanceMeters>21730.377954684</DistanceMeters>
          </Trackpoint>
          <Trackpoint>
            <Time>2022-08-27T01:57:40.000Z</Time>
            <Position>
              <LatitudeDegrees>50.2041753195226192474365234375</LatitudeDegrees>
              <LongitudeDegrees>16.98839801363646984100341796875</LongitudeDegrees>
            </Position>
            <AltitudeMeters>882.5999755859375</AltitudeMeters>
            <DistanceMeters>21736.40971877</DistanceMeters>
          </Trackpoint>
          <Trackpoint>
            <Time>2022-08-27T01:57:41.000Z</Time>
            <Position>
              <LatitudeDegrees>50.2041788399219512939453125</LatitudeDegrees>
              <LongitudeDegrees>16.988411508500576019287109375</LongitudeDegrees>
            </Position>
            <AltitudeMeters>882.79998779296875</AltitudeMeters>
            <DistanceMeters>21737.450684271</DistanceMeters>
          </Trackpoint>
          <Trackpoint>
            <Time>2022-08-27T01:57:47.000Z</Time>
            <Position>
              <LatitudeDegrees>50.20419702865183353424072265625</LatitudeDegrees>
              <LongitudeDegrees>16.9884871132671833038330078125</LongitudeDegrees>
            </Position>
            <AltitudeMeters>883.79998779296875</AltitudeMeters>
            <DistanceMeters>21743.20431445</DistanceMeters>
          </Trackpoint>
          <Trackpoint>
            <Time>2022-08-27T01:57:50.000Z</Time>
            <Position>
              <LatitudeDegrees>50.20420926623046398162841796875</LatitudeDegrees>
              <LongitudeDegrees>16.9885189644992351531982421875</LongitudeDegrees>
            </Position>
            <AltitudeMeters>884.5999755859375</AltitudeMeters>
            <DistanceMeters>21745.851452399</DistanceMeters>
          </Trackpoint>
          <Trackpoint>
            <Time>2022-08-27T01:57:52.000Z</Time>
            <Position>
              <LatitudeDegrees>50.20421496592462062835693359375</LatitudeDegrees>
              <LongitudeDegrees>16.98854117654263973236083984375</LongitudeDegrees>
            </Position>
            <AltitudeMeters>885</AltitudeMeters>
            <DistanceMeters>21747.556645824</DistanceMeters>
          </Trackpoint>
          <Trackpoint>
            <Time>2022-08-27T01:57:58.000Z</Time>
            <Position>
              <LatitudeDegrees>50.20423893816769123077392578125</LatitudeDegrees>
              <LongitudeDegrees>16.988614685833454132080078125</LongitudeDegrees>
            </Position>
            <AltitudeMeters>886</AltitudeMeters>
            <DistanceMeters>21753.434491728</DistanceMeters>
          </Trackpoint>
          <Trackpoint>
            <Time>2022-08-27T01:57:59.000Z</Time>
            <Position>
              <LatitudeDegrees>50.20424388349056243896484375</LatitudeDegrees>
              <LongitudeDegrees>16.9886279292404651641845703125</LongitudeDegrees>
            </Position>
            <AltitudeMeters>886.20001220703125</AltitudeMeters>
            <DistanceMeters>21754.526265556</DistanceMeters>
          </Trackpoint>
          <Trackpoint>
            <Time>2022-08-27T01:58:05.000Z</Time>
            <Position>
              <LatitudeDegrees>50.204264335334300994873046875</LatitudeDegrees>
              <LongitudeDegrees>16.9887010194361209869384765625</LongitudeDegrees>
            </Position>
            <AltitudeMeters>887.4000244140625</AltitudeMeters>
            <DistanceMeters>21760.20962578</DistanceMeters>
          </Trackpoint>
          <Trackpoint>
            <Time>2022-08-27T01:58:08.000Z</Time>
            <Position>
              <LatitudeDegrees>50.20427900366485118865966796875</LatitudeDegrees>
              <LongitudeDegrees>16.98874100111424922943115234375</LongitudeDegrees>
            </Position>
            <AltitudeMeters>887.79998779296875</AltitudeMeters>
            <DistanceMeters>21763.49320786</DistanceMeters>
          </Trackpoint>
          <Trackpoint>
            <Time>2022-08-27T01:58:13.000Z</Time>
            <Position>
              <LatitudeDegrees>50.2043027244508266448974609375</LatitudeDegrees>
              <LongitudeDegrees>16.98880612850189208984375</LongitudeDegrees>
            </Position>
            <AltitudeMeters>888.4000244140625</AltitudeMeters>
            <DistanceMeters>21768.831645951</DistanceMeters>
          </Trackpoint>
          <Trackpoint>
            <Time>2022-08-27T01:58:16.000Z</Time>
            <Position>
              <LatitudeDegrees>50.20431655459105968475341796875</LatitudeDegrees>
              <LongitudeDegrees>16.98884166777133941650390625</LongitudeDegrees>
            </Position>
            <AltitudeMeters>889</AltitudeMeters>
            <DistanceMeters>21771.794285704</DistanceMeters>
          </Trackpoint>
          <Trackpoint>
            <Time>2022-08-27T01:58:20.000Z</Time>
            <Position>
              <LatitudeDegrees>50.2043317258358001708984375</LatitudeDegrees>
              <LongitudeDegrees>16.9888825714588165283203125</LongitudeDegrees>
            </Position>
            <AltitudeMeters>889.79998779296875</AltitudeMeters>
            <DistanceMeters>21775.162041041</DistanceMeters>
          </Trackpoint>
          <Trackpoint>
            <Time>2022-08-27T01:58:25.000Z</Time>
            <Position>
              <LatitudeDegrees>50.20434916019439697265625</LatitudeDegrees>
              <LongitudeDegrees>16.98892691172659397125244140625</LongitudeDegrees>
            </Position>
            <AltitudeMeters>890.79998779296875</AltitudeMeters>
            <DistanceMeters>21778.869300993</DistanceMeters>
          </Trackpoint>
          <Trackpoint>
            <Time>2022-08-27T01:58:26.000Z</Time>
            <Position>
              <LatitudeDegrees>50.20435276441276073455810546875</LatitudeDegrees>
              <LongitudeDegrees>16.98893747292459011077880859375</LongitudeDegrees>
            </Position>
            <AltitudeMeters>891</AltitudeMeters>
            <DistanceMeters>21779.719245765</DistanceMeters>
          </Trackpoint>
          <Trackpoint>
            <Time>2022-08-27T01:58:32.000Z</Time>
            <Position>
              <LatitudeDegrees>50.2043721266090869903564453125</LatitudeDegrees>
              <LongitudeDegrees>16.98899899609386920928955078125</LongitudeDegrees>
            </Position>
            <AltitudeMeters>892</AltitudeMeters>
            <DistanceMeters>21784.602731394</DistanceMeters>
          </Trackpoint>
          <Trackpoint>
            <Time>2022-08-27T01:58:34.000Z</Time>
            <Position>
              <LatitudeDegrees>50.204380340874195098876953125</LatitudeDegrees>
              <LongitudeDegrees>16.98902263306081295013427734375</LongitudeDegrees>
            </Position>
            <AltitudeMeters>892.20001220703125</AltitudeMeters>
            <DistanceMeters>21786.519823231</DistanceMeters>
          </Trackpoint>
          <Trackpoint>
            <Time>2022-08-27T01:58:40.000Z</Time>
            <Position>
              <LatitudeDegrees>50.2044086717069149017333984375</LatitudeDegrees>
              <LongitudeDegrees>16.989087760448455810546875</LongitudeDegrees>
            </Position>
            <AltitudeMeters>893</AltitudeMeters>
            <DistanceMeters>21792.129619699</DistanceMeters>
          </Trackpoint>
          <Trackpoint>
            <Time>2022-08-27T01:58:44.000Z</Time>
            <Position>
              <LatitudeDegrees>50.204426608979701995849609375</LatitudeDegrees>
              <LongitudeDegrees>16.9891365431249141693115234375</LongitudeDegrees>
            </Position>
            <AltitudeMeters>893.5999755859375</AltitudeMeters>
            <DistanceMeters>21796.136548188</DistanceMeters>
          </Trackpoint>
          <Trackpoint>
            <Time>2022-08-27T01:58:48.000Z</Time>
            <Position>
              <LatitudeDegrees>50.20444261841475963592529296875</LatitudeDegrees>
              <LongitudeDegrees>16.98917828500270843505859375</LongitudeDegrees>
            </Position>
            <AltitudeMeters>894.20001220703125</AltitudeMeters>
            <DistanceMeters>21799.602093119</DistanceMeters>
          </Trackpoint>
          <Trackpoint>
            <Time>2022-08-27T01:58:52.000Z</Time>
            <Position>
              <LatitudeDegrees>50.204464159905910491943359375</LatitudeDegrees>
              <LongitudeDegrees>16.98922195471823215484619140625</LongitudeDegrees>
            </Position>
            <AltitudeMeters>895</AltitudeMeters>
            <DistanceMeters>21803.52935305</DistanceMeters>
          </Trackpoint>
          <Trackpoint>
            <Time>2022-08-27T01:58:57.000Z</Time>
            <Position>
              <LatitudeDegrees>50.2044894732534885406494140625</LatitudeDegrees>
              <LongitudeDegrees>16.98927744291722774505615234375</LongitudeDegrees>
            </Position>
            <AltitudeMeters>895.4000244140625</AltitudeMeters>
            <DistanceMeters>21808.384092953</DistanceMeters>
          </Trackpoint>
          <Trackpoint>
            <Time>2022-08-27T01:59:00.000Z</Time>
            <Position>
              <LatitudeDegrees>50.20450363866984844207763671875</LatitudeDegrees>
              <LongitudeDegrees>16.9893048517405986785888671875</LongitudeDegrees>
            </Position>
            <AltitudeMeters>895.79998779296875</AltitudeMeters>
            <DistanceMeters>21810.892870201</DistanceMeters>
          </Trackpoint>
          <Trackpoint>
            <Time>2022-08-27T01:59:06.000Z</Time>
            <Position>
              <LatitudeDegrees>50.20453481934964656829833984375</LatitudeDegrees>
              <LongitudeDegrees>16.9893573224544525146484375</LongitudeDegrees>
            </Position>
            <AltitudeMeters>896.4000244140625</AltitudeMeters>
            <DistanceMeters>21815.992538833</DistanceMeters>
          </Trackpoint>
          <Trackpoint>
            <Time>2022-08-27T01:59:09.000Z</Time>
            <Position>
              <LatitudeDegrees>50.20454739220440387725830078125</LatitudeDegrees>
              <LongitudeDegrees>16.989388167858123779296875</LongitudeDegrees>
            </Position>
            <AltitudeMeters>897</AltitudeMeters>
            <DistanceMeters>21818.598420159</DistanceMeters>
          </Trackpoint>
          <Trackpoint>
            <Time>2022-08-27T01:59:15.000Z</Time>
            <Position>
              <LatitudeDegrees>50.20457471720874309539794921875</LatitudeDegrees>
              <LongitudeDegrees>16.98945187032222747802734375</LongitudeDegrees>
            </Position>
            <AltitudeMeters>897.79998779296875</AltitudeMeters>
            <DistanceMeters>21824.061423239</DistanceMeters>
          </Trackpoint>
          <Trackpoint>
            <Time>2022-08-27T01:59:17.000Z</Time>
            <Position>
              <LatitudeDegrees>50.2045830152928829193115234375</LatitudeDegrees>
              <LongitudeDegrees>16.98947324417531490325927734375</LongitudeDegrees>
            </Position>
            <AltitudeMeters>898</AltitudeMeters>
            <DistanceMeters>21825.844282433</DistanceMeters>
          </Trackpoint>
          <Trackpoint>
            <Time>2022-08-27T01:59:20.000Z</Time>
            <Position>
              <LatitudeDegrees>50.20459516905248165130615234375</LatitudeDegrees>
              <LongitudeDegrees>16.9894966296851634979248046875</LongitudeDegrees>
            </Position>
            <AltitudeMeters>898.79998779296875</AltitudeMeters>
            <DistanceMeters>21827.990287789</DistanceMeters>
          </Trackpoint>
          <Trackpoint>
            <Time>2022-08-27T01:59:24.000Z</Time>
            <Position>
              <LatitudeDegrees>50.204618386924266815185546875</LatitudeDegrees>
              <LongitudeDegrees>16.9895197637379169464111328125</LongitudeDegrees>
            </Position>
            <AltitudeMeters>899.5999755859375</AltitudeMeters>
            <DistanceMeters>21831.054807246</DistanceMeters>
          </Trackpoint>
          <Trackpoint>
            <Time>2022-08-27T01:59:26.000Z</Time>
            <Position>
              <LatitudeDegrees>50.2046333067119121551513671875</LatitudeDegrees>
              <LongitudeDegrees>16.989532001316547393798828125</LongitudeDegrees>
            </Position>
            <AltitudeMeters>899.79998779296875</AltitudeMeters>
            <DistanceMeters>21832.929027013</DistanceMeters>
          </Trackpoint>
          <Trackpoint>
            <Time>2022-08-27T01:59:28.000Z</Time>
            <Position>
              <LatitudeDegrees>50.20464797504246234893798828125</LatitudeDegrees>
              <LongitudeDegrees>16.9895445741713047027587890625</LongitudeDegrees>
            </Position>
            <AltitudeMeters>900</AltitudeMeters>
            <DistanceMeters>21834.791162711</DistanceMeters>
          </Trackpoint>
          <Trackpoint>
            <Time>2022-08-27T01:59:33.000Z</Time>
            <Position>
              <LatitudeDegrees>50.2046829275786876678466796875</LatitudeDegrees>
              <LongitudeDegrees>16.98957852087914943695068359375</LongitudeDegrees>
            </Position>
            <AltitudeMeters>900.79998779296875</AltitudeMeters>
            <DistanceMeters>21839.372199455</DistanceMeters>
          </Trackpoint>
          <Trackpoint>
            <Time>2022-08-27T01:59:35.000Z</Time>
            <Position>
              <LatitudeDegrees>50.20469927228987216949462890625</LatitudeDegrees>
              <LongitudeDegrees>16.98958841152489185333251953125</LongitudeDegrees>
            </Position>
            <AltitudeMeters>901</AltitudeMeters>
            <DistanceMeters>21841.324298904</DistanceMeters>
          </Trackpoint>
          <Trackpoint>
            <Time>2022-08-27T01:59:41.000Z</Time>
            <Position>
              <LatitudeDegrees>50.2047476358711719512939453125</LatitudeDegrees>
              <LongitudeDegrees>16.98962797410786151885986328125</LongitudeDegrees>
            </Position>
            <AltitudeMeters>901.5999755859375</AltitudeMeters>
            <DistanceMeters>21847.400066552</DistanceMeters>
          </Trackpoint>
          <Trackpoint>
            <Time>2022-08-27T01:59:45.000Z</Time>
            <Position>
              <LatitudeDegrees>50.20478258840739727020263671875</LatitudeDegrees>
              <LongitudeDegrees>16.98965630494058132171630859375</LongitudeDegrees>
            </Position>
            <AltitudeMeters>902.20001220703125</AltitudeMeters>
            <DistanceMeters>21851.781612229</DistanceMeters>
          </Trackpoint>
          <Trackpoint>
            <Time>2022-08-27T01:59:50.000Z</Time>
            <Position>
              <LatitudeDegrees>50.2048244141042232513427734375</LatitudeDegrees>
              <LongitudeDegrees>16.9896818697452545166015625</LongitudeDegrees>
            </Position>
            <AltitudeMeters>903.20001220703125</AltitudeMeters>
            <DistanceMeters>21856.780234191</DistanceMeters>
          </Trackpoint>
          <Trackpoint>
            <Time>2022-08-27T01:59:51.000Z</Time>
            <Position>
              <LatitudeDegrees>50.20483505912125110626220703125</LatitudeDegrees>
              <LongitudeDegrees>16.9896843843162059783935546875</LongitudeDegrees>
            </Position>
            <AltitudeMeters>903.20001220703125</AltitudeMeters>
            <DistanceMeters>21857.982237615</DistanceMeters>
          </Trackpoint>
          <Trackpoint>
            <Time>2022-08-27T01:59:57.000Z</Time>
            <Position>
              <LatitudeDegrees>50.20489700138568878173828125</LatitudeDegrees>
              <LongitudeDegrees>16.989697627723217010498046875</LongitudeDegrees>
            </Position>
            <AltitudeMeters>904.4000244140625</AltitudeMeters>
            <DistanceMeters>21864.940633255</DistanceMeters>
          </Trackpoint>
          <Trackpoint>
            <Time>2022-08-27T02:00:02.000Z</Time>
            <Position>
              <LatitudeDegrees>50.2049377374351024627685546875</LatitudeDegrees>
              <LongitudeDegrees>16.98971648700535297393798828125</LongitudeDegrees>
            </Position>
            <AltitudeMeters>905.20001220703125</AltitudeMeters>
            <DistanceMeters>21869.669107563</DistanceMeters>
          </Trackpoint>
          <Trackpoint>
            <Time>2022-08-27T02:00:06.000Z</Time>
            <Position>
              <LatitudeDegrees>50.2049736119806766510009765625</LatitudeDegrees>
              <LongitudeDegrees>16.9897293113172054290771484375</LongitudeDegrees>
            </Position>
            <AltitudeMeters>905.5999755859375</AltitudeMeters>
            <DistanceMeters>21873.765188865</DistanceMeters>
          </Trackpoint>
          <Trackpoint>
            <Time>2022-08-27T02:00:11.000Z</Time>
            <Position>
              <LatitudeDegrees>50.2050296030938625335693359375</LatitudeDegrees>
              <LongitudeDegrees>16.98975068517029285430908203125</LongitudeDegrees>
            </Position>
            <AltitudeMeters>906.20001220703125</AltitudeMeters>
            <DistanceMeters>21880.180723794</DistanceMeters>
          </Trackpoint>
          <Trackpoint>
            <Time>2022-08-27T02:00:14.000Z</Time>
            <Position>
              <LatitudeDegrees>50.20505717955529689788818359375</LatitudeDegrees>
              <LongitudeDegrees>16.98976644314825534820556640625</LongitudeDegrees>
            </Position>
            <AltitudeMeters>906.5999755859375</AltitudeMeters>
            <DistanceMeters>21883.447763793</DistanceMeters>
          </Trackpoint>
          <Trackpoint>
            <Time>2022-08-27T02:00:20.000Z</Time>
            <Position>
              <LatitudeDegrees>50.20510663278400897979736328125</LatitudeDegrees>
              <LongitudeDegrees>16.98979913257062435150146484375</LongitudeDegrees>
            </Position>
            <AltitudeMeters>907.5999755859375</AltitudeMeters>
            <DistanceMeters>21889.424634414</DistanceMeters>
          </Trackpoint>
          <Trackpoint>
            <Time>2022-08-27T02:00:21.000Z</Time>
            <Position>
              <LatitudeDegrees>50.2051144279539585113525390625</LatitudeDegrees>
              <LongitudeDegrees>16.98980650864541530609130859375</LongitudeDegrees>
            </Position>
            <AltitudeMeters>907.79998779296875</AltitudeMeters>
            <DistanceMeters>21890.439242079</DistanceMeters>
          </Trackpoint>
          <Trackpoint>
            <Time>2022-08-27T02:00:29.000Z</Time>
            <Position>
              <LatitudeDegrees>50.20517502911388874053955078125</LatitudeDegrees>
              <LongitudeDegrees>16.98986518196761608123779296875</LongitudeDegrees>
            </Position>
            <AltitudeMeters>908.79998779296875</AltitudeMeters>
            <DistanceMeters>21898.373830472</DistanceMeters>
          </Trackpoint>
          <Trackpoint>
            <Time>2022-08-27T02:00:36.000Z</Time>
            <Position>
              <LatitudeDegrees>50.2052327804267406463623046875</LatitudeDegrees>
              <LongitudeDegrees>16.989906169474124908447265625</LongitudeDegrees>
            </Position>
            <AltitudeMeters>909.79998779296875</AltitudeMeters>
            <DistanceMeters>21905.432722865</DistanceMeters>
          </Trackpoint>
          <Trackpoint>
            <Time>2022-08-27T02:00:37.000Z</Time>
            <Position>
              <LatitudeDegrees>50.205241329967975616455078125</LatitudeDegrees>
              <LongitudeDegrees>16.98991178534924983978271484375</LongitudeDegrees>
            </Position>
            <AltitudeMeters>909.79998779296875</AltitudeMeters>
            <DistanceMeters>21906.460593939</DistanceMeters>
          </Trackpoint>
          <Trackpoint>
            <Time>2022-08-27T02:00:45.000Z</Time>
            <Position>
              <LatitudeDegrees>50.2053098939359188079833984375</LatitudeDegrees>
              <LongitudeDegrees>16.9899527728557586669921875</LongitudeDegrees>
            </Position>
            <AltitudeMeters>910.79998779296875</AltitudeMeters>
            <DistanceMeters>21914.630681152</DistanceMeters>
          </Trackpoint>
          <Trackpoint>
            <Time>2022-08-27T02:00:46.000Z</Time>
            <Position>
              <LatitudeDegrees>50.20531835965812206268310546875</LatitudeDegrees>
              <LongitudeDegrees>16.98995755054056644439697265625</LongitudeDegrees>
            </Position>
            <AltitudeMeters>911</AltitudeMeters>
            <DistanceMeters>21915.631849712</DistanceMeters>
          </Trackpoint>
          <Trackpoint>
            <Time>2022-08-27T02:00:53.000Z</Time>
            <Position>
              <LatitudeDegrees>50.20538021810352802276611328125</LatitudeDegrees>
              <LongitudeDegrees>16.989981941878795623779296875</LongitudeDegrees>
            </Position>
            <AltitudeMeters>912.20001220703125</AltitudeMeters>
            <DistanceMeters>21922.732831818</DistanceMeters>
          </Trackpoint>
          <Trackpoint>
            <Time>2022-08-27T02:00:54.000Z</Time>
            <Position>
              <LatitudeDegrees>50.2053885161876678466796875</LatitudeDegrees>
              <LongitudeDegrees>16.98998454026877880096435546875</LongitudeDegrees>
            </Position>
            <AltitudeMeters>912.20001220703125</AltitudeMeters>
            <DistanceMeters>21923.673548295</DistanceMeters>
          </Trackpoint>
          <Trackpoint>
            <Time>2022-08-27T02:01:01.000Z</Time>
            <Position>
              <LatitudeDegrees>50.20544928498566150665283203125</LatitudeDegrees>
              <LongitudeDegrees>16.9899908266961574554443359375</LongitudeDegrees>
            </Position>
            <AltitudeMeters>913.4000244140625</AltitudeMeters>
            <DistanceMeters>21930.452490619</DistanceMeters>
          </Trackpoint>
          <Trackpoint>
            <Time>2022-08-27T02:01:04.000Z</Time>
            <Position>
              <LatitudeDegrees>50.20547694526612758636474609375</LatitudeDegrees>
              <LongitudeDegrees>16.9899945147335529327392578125</LongitudeDegrees>
            </Position>
            <AltitudeMeters>914</AltitudeMeters>
            <DistanceMeters>21933.543416189</DistanceMeters>
          </Trackpoint>
          <Trackpoint>
            <Time>2022-08-27T02:01:08.000Z</Time>
            <Position>
              <LatitudeDegrees>50.2055140770971775054931640625</LatitudeDegrees>
              <LongitudeDegrees>16.9900045730173587799072265625</LongitudeDegrees>
            </Position>
            <AltitudeMeters>914.5999755859375</AltitudeMeters>
            <DistanceMeters>21937.738606171</DistanceMeters>
          </Trackpoint>
          <Trackpoint>
            <Time>2022-08-27T02:01:13.000Z</Time>
            <Position>
              <LatitudeDegrees>50.2055636979639530181884765625</LatitudeDegrees>
              <LongitudeDegrees>16.990012787282466888427734375</LongitudeDegrees>
            </Position>
            <AltitudeMeters>915.20001220703125</AltitudeMeters>
            <DistanceMeters>21943.292590429</DistanceMeters>
          </Trackpoint>
          <Trackpoint>
            <Time>2022-08-27T02:01:15.000Z</Time>
            <Position>
              <LatitudeDegrees>50.20558272488415241241455078125</LatitudeDegrees>
              <LongitudeDegrees>16.99001454748213291168212890625</LongitudeDegrees>
            </Position>
            <AltitudeMeters>915.5999755859375</AltitudeMeters>
            <DistanceMeters>21945.413198377</DistanceMeters>
          </Trackpoint>
          <Trackpoint>
            <Time>2022-08-27T02:01:22.000Z</Time>
            <Position>
              <LatitudeDegrees>50.2056461758911609649658203125</LatitudeDegrees>
              <LongitudeDegrees>16.9900246895849704742431640625</LongitudeDegrees>
            </Position>
            <AltitudeMeters>916.5999755859375</AltitudeMeters>
            <DistanceMeters>21952.512908702</DistanceMeters>
          </Trackpoint>
          <Trackpoint>
            <Time>2022-08-27T02:01:23.000Z</Time>
            <Position>
              <LatitudeDegrees>50.20565682090818881988525390625</LatitudeDegrees>
              <LongitudeDegrees>16.990026198327541351318359375</LongitudeDegrees>
            </Position>
            <AltitudeMeters>916.5999755859375</AltitudeMeters>
            <DistanceMeters>21953.70737598</DistanceMeters>
          </Trackpoint>
          <Trackpoint>
            <Time>2022-08-27T02:01:29.000Z</Time>
            <Position>
              <LatitudeDegrees>50.205716751515865325927734375</LatitudeDegrees>
              <LongitudeDegrees>16.990036256611347198486328125</LongitudeDegrees>
            </Position>
            <AltitudeMeters>917.5999755859375</AltitudeMeters>
            <DistanceMeters>21960.416692717</DistanceMeters>
          </Trackpoint>
          <Trackpoint>
            <Time>2022-08-27T02:01:32.000Z</Time>
            <Position>
              <LatitudeDegrees>50.205745585262775421142578125</LatitudeDegrees>
              <LongitudeDegrees>16.990041621029376983642578125</LongitudeDegrees>
            </Position>
            <AltitudeMeters>918</AltitudeMeters>
            <DistanceMeters>21963.648998155</DistanceMeters>
          </Trackpoint>
          <Trackpoint>
            <Time>2022-08-27T02:01:37.000Z</Time>
            <Position>
              <LatitudeDegrees>50.2057910151779651641845703125</LatitudeDegrees>
              <LongitudeDegrees>16.99004740454256534576416015625</LongitudeDegrees>
            </Position>
            <AltitudeMeters>918.5999755859375</AltitudeMeters>
            <DistanceMeters>21968.722926411</DistanceMeters>
          </Trackpoint>
          <Trackpoint>
            <Time>2022-08-27T02:01:41.000Z</Time>
            <Position>
              <LatitudeDegrees>50.2058252133429050445556640625</LatitudeDegrees>
              <LongitudeDegrees>16.99005427770316600799560546875</LongitudeDegrees>
            </Position>
            <AltitudeMeters>919</AltitudeMeters>
            <DistanceMeters>21972.560641184</DistanceMeters>
          </Trackpoint>
          <Trackpoint>
            <Time>2022-08-27T02:01:47.000Z</Time>
            <Position>
              <LatitudeDegrees>50.20587726496160030364990234375</LatitudeDegrees>
              <LongitudeDegrees>16.99005964212119579315185546875</LongitudeDegrees>
            </Position>
            <AltitudeMeters>919.79998779296875</AltitudeMeters>
            <DistanceMeters>21978.36583242</DistanceMeters>
          </Trackpoint>
          <Trackpoint>
            <Time>2022-08-27T02:01:50.000Z</Time>
            <Position>
              <LatitudeDegrees>50.20590157248079776763916015625</LatitudeDegrees>
              <LongitudeDegrees>16.99006014503538608551025390625</LongitudeDegrees>
            </Position>
            <AltitudeMeters>920.20001220703125</AltitudeMeters>
            <DistanceMeters>21981.070340124</DistanceMeters>
          </Trackpoint>
          <Trackpoint>
            <Time>2022-08-27T02:01:57.000Z</Time>
            <Position>
              <LatitudeDegrees>50.2059626765549182891845703125</LatitudeDegrees>
              <LongitudeDegrees>16.99005645699799060821533203125</LongitudeDegrees>
            </Position>
            <AltitudeMeters>921.20001220703125</AltitudeMeters>
            <DistanceMeters>21987.876535254</DistanceMeters>
          </Trackpoint>
          <Trackpoint>
            <Time>2022-08-27T02:01:58.000Z</Time>
            <Position>
              <LatitudeDegrees>50.20597147755324840545654296875</LatitudeDegrees>
              <LongitudeDegrees>16.990055032074451446533203125</LongitudeDegrees>
            </Position>
            <AltitudeMeters>921.20001220703125</AltitudeMeters>
            <DistanceMeters>21988.864081839</DistanceMeters>
          </Trackpoint>
          <Trackpoint>
            <Time>2022-08-27T02:02:06.000Z</Time>
            <Position>
              <LatitudeDegrees>50.2060387842357158660888671875</LatitudeDegrees>
              <LongitudeDegrees>16.99003667570650577545166015625</LongitudeDegrees>
            </Position>
            <AltitudeMeters>922.4000244140625</AltitudeMeters>
            <DistanceMeters>21996.468594285</DistanceMeters>
          </Trackpoint>
          <Trackpoint>
            <Time>2022-08-27T02:02:13.000Z</Time>
            <Position>
              <LatitudeDegrees>50.206102319061756134033203125</LatitudeDegrees>
              <LongitudeDegrees>16.990014798939228057861328125</LongitudeDegrees>
            </Position>
            <AltitudeMeters>923.4000244140625</AltitudeMeters>
            <DistanceMeters>22003.709355559</DistanceMeters>
          </Trackpoint>
          <Trackpoint>
            <Time>2022-08-27T02:02:15.000Z</Time>
            <Position>
              <LatitudeDegrees>50.20612017251551151275634765625</LatitudeDegrees>
              <LongitudeDegrees>16.99000784195959568023681640625</LongitudeDegrees>
            </Position>
            <AltitudeMeters>923.79998779296875</AltitudeMeters>
            <DistanceMeters>22005.756293631</DistanceMeters>
          </Trackpoint>
          <Trackpoint>
            <Time>2022-08-27T02:02:19.000Z</Time>
            <Position>
              <LatitudeDegrees>50.20615504123270511627197265625</LatitudeDegrees>
              <LongitudeDegrees>16.9899971969425678253173828125</LongitudeDegrees>
            </Position>
            <AltitudeMeters>924.79998779296875</AltitudeMeters>
            <DistanceMeters>22009.7110493</DistanceMeters>
          </Trackpoint>
          <Trackpoint>
            <Time>2022-08-27T02:02:24.000Z</Time>
            <Position>
              <LatitudeDegrees>50.20620189607143402099609375</LatitudeDegrees>
              <LongitudeDegrees>16.98999367654323577880859375</LongitudeDegrees>
            </Position>
            <AltitudeMeters>925.20001220703125</AltitudeMeters>
            <DistanceMeters>22014.931467934</DistanceMeters>
          </Trackpoint>
          <Trackpoint>
            <Time>2022-08-27T02:02:28.000Z</Time>
            <Position>
              <LatitudeDegrees>50.20623936317861080169677734375</LatitudeDegrees>
              <LongitudeDegrees>16.9900022260844707489013671875</LongitudeDegrees>
            </Position>
            <AltitudeMeters>925.79998779296875</AltitudeMeters>
            <DistanceMeters>22019.147056913</DistanceMeters>
          </Trackpoint>
          <Trackpoint>
            <Time>2022-08-27T02:02:33.000Z</Time>
            <Position>
              <LatitudeDegrees>50.2062878943979740142822265625</LatitudeDegrees>
              <LongitudeDegrees>16.9900163076817989349365234375</LongitudeDegrees>
            </Position>
            <AltitudeMeters>926.4000244140625</AltitudeMeters>
            <DistanceMeters>22024.642198006</DistanceMeters>
          </Trackpoint>
          <Trackpoint>
            <Time>2022-08-27T02:02:36.000Z</Time>
            <Position>
              <LatitudeDegrees>50.2063184045255184173583984375</LatitudeDegrees>
              <LongitudeDegrees>16.990027539432048797607421875</LongitudeDegrees>
            </Position>
            <AltitudeMeters>926.79998779296875</AltitudeMeters>
            <DistanceMeters>22028.131115179</DistanceMeters>
          </Trackpoint>
          <Trackpoint>
            <Time>2022-08-27T02:02:43.000Z</Time>
            <Position>
              <LatitudeDegrees>50.20638470537960529327392578125</LatitudeDegrees>
              <LongitudeDegrees>16.9900719635188579559326171875</LongitudeDegrees>
            </Position>
            <AltitudeMeters>927.79998779296875</AltitudeMeters>
            <DistanceMeters>22036.16073197</DistanceMeters>
          </Trackpoint>
          <Trackpoint>
            <Time>2022-08-27T02:02:44.000Z</Time>
            <Position>
              <LatitudeDegrees>50.206393338739871978759765625</LatitudeDegrees>
              <LongitudeDegrees>16.9900793395936489105224609375</LongitudeDegrees>
            </Position>
            <AltitudeMeters>927.79998779296875</AltitudeMeters>
            <DistanceMeters>22037.252505798</DistanceMeters>
          </Trackpoint>
          <Trackpoint>
            <Time>2022-08-27T02:02:53.000Z</Time>
            <Position>
              <LatitudeDegrees>50.206471793353557586669921875</LatitudeDegrees>
              <LongitudeDegrees>16.99014094658195972442626953125</LongitudeDegrees>
            </Position>
            <AltitudeMeters>929</AltitudeMeters>
            <DistanceMeters>22047.025022796</DistanceMeters>
          </Trackpoint>
          <Trackpoint>
            <Time>2022-08-27T02:03:00.000Z</Time>
            <Position>
              <LatitudeDegrees>50.20653658546507358551025390625</LatitudeDegrees>
              <LongitudeDegrees>16.99018637649714946746826171875</LongitudeDegrees>
            </Position>
            <AltitudeMeters>930.20001220703125</AltitudeMeters>
            <DistanceMeters>22054.928823707</DistanceMeters>
          </Trackpoint>
          <Trackpoint>
            <Time>2022-08-27T02:03:03.000Z</Time>
            <Position>
              <LatitudeDegrees>50.2065638266503810882568359375</LatitudeDegrees>
              <LongitudeDegrees>16.99020314030349254608154296875</LongitudeDegrees>
            </Position>
            <AltitudeMeters>930.79998779296875</AltitudeMeters>
            <DistanceMeters>22058.187561177</DistanceMeters>
          </Trackpoint>
          <Trackpoint>
            <Time>2022-08-27T02:03:08.000Z</Time>
            <Position>
              <LatitudeDegrees>50.20660900510847568511962890625</LatitudeDegrees>
              <LongitudeDegrees>16.99022929184138774871826171875</LongitudeDegrees>
            </Position>
            <AltitudeMeters>931.4000244140625</AltitudeMeters>
            <DistanceMeters>22063.549628259</DistanceMeters>
          </Trackpoint>
          <Trackpoint>
            <Time>2022-08-27T02:03:13.000Z</Time>
            <Position>
              <LatitudeDegrees>50.206652171909809112548828125</LatitudeDegrees>
              <LongitudeDegrees>16.99026055634021759033203125</LongitudeDegrees>
            </Position>
            <AltitudeMeters>932.5999755859375</AltitudeMeters>
            <DistanceMeters>22068.845609512</DistanceMeters>
          </Trackpoint>
          <Trackpoint>
            <Time>2022-08-27T02:03:14.000Z</Time>
            <Position>
              <LatitudeDegrees>50.20666080527007579803466796875</LatitudeDegrees>
              <LongitudeDegrees>16.990268267691135406494140625</LongitudeDegrees>
            </Position>
            <AltitudeMeters>932.79998779296875</AltitudeMeters>
            <DistanceMeters>22069.945623259</DistanceMeters>
          </Trackpoint>
          <Trackpoint>
            <Time>2022-08-27T02:03:19.000Z</Time>
            <Position>
              <LatitudeDegrees>50.20670615136623382568359375</LatitudeDegrees>
              <LongitudeDegrees>16.99029366485774517059326171875</LongitudeDegrees>
            </Position>
            <AltitudeMeters>933.5999755859375</AltitudeMeters>
            <DistanceMeters>22075.306006011</DistanceMeters>
          </Trackpoint>
          <Trackpoint>
            <Time>2022-08-27T02:03:24.000Z</Time>
            <Position>
              <LatitudeDegrees>50.2067512460052967071533203125</LatitudeDegrees>
              <LongitudeDegrees>16.9903229176998138427734375</LongitudeDegrees>
            </Position>
            <AltitudeMeters>934.4000244140625</AltitudeMeters>
            <DistanceMeters>22080.740005456</DistanceMeters>
          </Trackpoint>
          <Trackpoint>
            <Time>2022-08-27T02:03:26.000Z</Time>
            <Position>
              <LatitudeDegrees>50.20677010528743267059326171875</LatitudeDegrees>
              <LongitudeDegrees>16.99032953940331935882568359375</LongitudeDegrees>
            </Position>
            <AltitudeMeters>934.79998779296875</AltitudeMeters>
            <DistanceMeters>22082.890214548</DistanceMeters>
          </Trackpoint>
          <Trackpoint>
            <Time>2022-08-27T02:03:33.000Z</Time>
            <Position>
              <LatitudeDegrees>50.20684017799794673919677734375</LatitudeDegrees>
              <LongitudeDegrees>16.9903435371816158294677734375</LongitudeDegrees>
            </Position>
            <AltitudeMeters>935.79998779296875</AltitudeMeters>
            <DistanceMeters>22090.75335218</DistanceMeters>
          </Trackpoint>
          <Trackpoint>
            <Time>2022-08-27T02:03:34.000Z</Time>
            <Position>
              <LatitudeDegrees>50.2068488113582134246826171875</LatitudeDegrees>
              <LongitudeDegrees>16.99034596793353557586669921875</LongitudeDegrees>
            </Position>
            <AltitudeMeters>936</AltitudeMeters>
            <DistanceMeters>22091.731712085</DistanceMeters>
          </Trackpoint>
          <Trackpoint>
            <Time>2022-08-27T02:03:41.000Z</Time>
            <Position>
              <LatitudeDegrees>50.20692114718258380889892578125</LatitudeDegrees>
              <LongitudeDegrees>16.990332640707492828369140625</LongitudeDegrees>
            </Position>
            <AltitudeMeters>937</AltitudeMeters>
            <DistanceMeters>22099.838554649</DistanceMeters>
          </Trackpoint>
          <Trackpoint>
            <Time>2022-08-27T02:03:42.000Z</Time>
            <Position>
              <LatitudeDegrees>50.2069319598376750946044921875</LatitudeDegrees>
              <LongitudeDegrees>16.99032920412719249725341796875</LongitudeDegrees>
            </Position>
            <AltitudeMeters>937.20001220703125</AltitudeMeters>
            <DistanceMeters>22101.062888218</DistanceMeters>
          </Trackpoint>
          <Trackpoint>
            <Time>2022-08-27T02:03:49.000Z</Time>
            <Position>
              <LatitudeDegrees>50.2069923095405101776123046875</LatitudeDegrees>
              <LongitudeDegrees>16.99031277559697628021240234375</LongitudeDegrees>
            </Position>
            <AltitudeMeters>938.20001220703125</AltitudeMeters>
            <DistanceMeters>22107.880351343</DistanceMeters>
          </Trackpoint>
          <Trackpoint>
            <Time>2022-08-27T02:03:50.000Z</Time>
            <Position>
              <LatitudeDegrees>50.20700312219560146331787109375</LatitudeDegrees>
              <LongitudeDegrees>16.9903126917779445648193359375</LongitudeDegrees>
            </Position>
            <AltitudeMeters>938.4000244140625</AltitudeMeters>
            <DistanceMeters>22109.082354767</DistanceMeters>
          </Trackpoint>
          <Trackpoint>
            <Time>2022-08-27T02:03:57.000Z</Time>
            <Position>
              <LatitudeDegrees>50.20705240778625011444091796875</LatitudeDegrees>
              <LongitudeDegrees>16.99028511531651020050048828125</LongitudeDegrees>
            </Position>
            <AltitudeMeters>939.4000244140625</AltitudeMeters>
            <DistanceMeters>22114.907732632</DistanceMeters>
          </Trackpoint>
          <Trackpoint>
            <Time>2022-08-27T02:03:58.000Z</Time>
            <Position>
              <LatitudeDegrees>50.20705944858491420745849609375</LatitudeDegrees>
              <LongitudeDegrees>16.9902754761278629302978515625</LongitudeDegrees>
            </Position>
            <AltitudeMeters>939.5999755859375</AltitudeMeters>
            <DistanceMeters>22115.948698133</DistanceMeters>
          </Trackpoint>
          <Trackpoint>
            <Time>2022-08-27T02:04:04.000Z</Time>
            <Position>
              <LatitudeDegrees>50.20709331147372722625732421875</LatitudeDegrees>
              <LongitudeDegrees>16.99024270288646221160888671875</LongitudeDegrees>
            </Position>
            <AltitudeMeters>940.5999755859375</AltitudeMeters>
            <DistanceMeters>22120.381467735</DistanceMeters>
          </Trackpoint>
          <Trackpoint>
            <Time>2022-08-27T02:04:05.000Z</Time>
            <Position>
              <LatitudeDegrees>50.2070938982069492340087890625</LatitudeDegrees>
              <LongitudeDegrees>16.9902479834854602813720703125</LongitudeDegrees>
            </Position>
            <AltitudeMeters>940.5999755859375</AltitudeMeters>
            <DistanceMeters>22120.761574592</DistanceMeters>
          </Trackpoint>
          <Trackpoint>
            <Time>2022-08-27T02:04:11.000Z</Time>
            <Position>
              <LatitudeDegrees>50.207122229039669036865234375</LatitudeDegrees>
              <LongitudeDegrees>16.9902344048023223876953125</LongitudeDegrees>
            </Position>
            <AltitudeMeters>941.5999755859375</AltitudeMeters>
            <DistanceMeters>22124.060247373</DistanceMeters>
          </Trackpoint>
          <Trackpoint>
            <Time>2022-08-27T02:04:14.000Z</Time>
            <Position>
              <LatitudeDegrees>50.20714142359793186187744140625</LatitudeDegrees>
              <LongitudeDegrees>16.99022057466208934783935546875</LongitudeDegrees>
            </Position>
            <AltitudeMeters>942.20001220703125</AltitudeMeters>
            <DistanceMeters>22126.412998286</DistanceMeters>
          </Trackpoint>
          <Trackpoint>
            <Time>2022-08-27T02:04:18.000Z</Time>
            <Position>
              <LatitudeDegrees>50.20716640166938304901123046875</LatitudeDegrees>
              <LongitudeDegrees>16.9902043975889682769775390625</LongitudeDegrees>
            </Position>
            <AltitudeMeters>943</AltitudeMeters>
            <DistanceMeters>22129.424010865</DistanceMeters>
          </Trackpoint>
          <Trackpoint>
            <Time>2022-08-27T02:04:25.000Z</Time>
            <Position>
              <LatitudeDegrees>50.20719858817756175994873046875</LatitudeDegrees>
              <LongitudeDegrees>16.99018813669681549072265625</LongitudeDegrees>
            </Position>
            <AltitudeMeters>943.5999755859375</AltitudeMeters>
            <DistanceMeters>22133.189275798</DistanceMeters>
          </Trackpoint>
          <Trackpoint>
            <Time>2022-08-27T02:04:30.000Z</Time>
            <Position>
              <LatitudeDegrees>50.20723228342831134796142578125</LatitudeDegrees>
              <LongitudeDegrees>16.99015804566442966461181640625</LongitudeDegrees>
            </Position>
            <AltitudeMeters>944</AltitudeMeters>
            <DistanceMeters>22137.508550961</DistanceMeters>
          </Trackpoint>
          <Trackpoint>
            <Time>2022-08-27T02:04:37.000Z</Time>
            <Position>
              <LatitudeDegrees>50.207279808819293975830078125</LatitudeDegrees>
              <LongitudeDegrees>16.990120746195316314697265625</LongitudeDegrees>
            </Position>
            <AltitudeMeters>944.79998779296875</AltitudeMeters>
            <DistanceMeters>22143.427731361</DistanceMeters>
          </Trackpoint>
          <Trackpoint>
            <Time>2022-08-27T02:04:38.000Z</Time>
            <Position>
              <LatitudeDegrees>50.20728416740894317626953125</LatitudeDegrees>
              <LongitudeDegrees>16.9901178963482379913330078125</LongitudeDegrees>
            </Position>
            <AltitudeMeters>945</AltitudeMeters>
            <DistanceMeters>22143.948214111</DistanceMeters>
          </Trackpoint>
          <Trackpoint>
            <Time>2022-08-27T02:04:46.000Z</Time>
            <Position>
              <LatitudeDegrees>50.20734393037855625152587890625</LatitudeDegrees>
              <LongitudeDegrees>16.99011948890984058380126953125</LongitudeDegrees>
            </Position>
            <AltitudeMeters>946</AltitudeMeters>
            <DistanceMeters>22150.600762845</DistanceMeters>
          </Trackpoint>
          <Trackpoint>
            <Time>2022-08-27T02:04:52.000Z</Time>
            <Position>
              <LatitudeDegrees>50.20740092732012271881103515625</LatitudeDegrees>
              <LongitudeDegrees>16.99010976590216159820556640625</LongitudeDegrees>
            </Position>
            <AltitudeMeters>946.79998779296875</AltitudeMeters>
            <DistanceMeters>22156.982427577</DistanceMeters>
          </Trackpoint>
          <Trackpoint>
            <Time>2022-08-27T02:04:54.000Z</Time>
            <Position>
              <LatitudeDegrees>50.2074197866022586822509765625</LatitudeDegrees>
              <LongitudeDegrees>16.99011764489114284515380859375</LongitudeDegrees>
            </Position>
            <AltitudeMeters>947</AltitudeMeters>
            <DistanceMeters>22159.157688494</DistanceMeters>
          </Trackpoint>
          <Trackpoint>
            <Time>2022-08-27T02:04:59.000Z</Time>
            <Position>
              <LatitudeDegrees>50.20747049711644649505615234375</LatitudeDegrees>
              <LongitudeDegrees>16.9901292957365512847900390625</LongitudeDegrees>
            </Position>
            <AltitudeMeters>947.5999755859375</AltitudeMeters>
            <DistanceMeters>22164.862458034</DistanceMeters>
          </Trackpoint>
          <Trackpoint>
            <Time>2022-08-27T02:05:03.000Z</Time>
            <Position>
              <LatitudeDegrees>50.20751290954649448394775390625</LatitudeDegrees>
              <LongitudeDegrees>16.99014480225741863250732421875</LongitudeDegrees>
            </Position>
            <AltitudeMeters>948.20001220703125</AltitudeMeters>
            <DistanceMeters>22169.709752012</DistanceMeters>
          </Trackpoint>
          <Trackpoint>
            <Time>2022-08-27T02:05:09.000Z</Time>
            <Position>
              <LatitudeDegrees>50.2075649611651897430419921875</LatitudeDegrees>
              <LongitudeDegrees>16.99018453247845172882080078125</LongitudeDegrees>
            </Position>
            <AltitudeMeters>949.4000244140625</AltitudeMeters>
            <DistanceMeters>22176.157578929</DistanceMeters>
          </Trackpoint>
          <Trackpoint>
            <Time>2022-08-27T02:05:10.000Z</Time>
            <Position>
              <LatitudeDegrees>50.20756973884999752044677734375</LatitudeDegrees>
              <LongitudeDegrees>16.9901926629245281219482421875</LongitudeDegrees>
            </Position>
            <AltitudeMeters>949.5999755859375</AltitudeMeters>
            <DistanceMeters>22176.94118929</DistanceMeters>
          </Trackpoint>
          <Trackpoint>
            <Time>2022-08-27T02:05:18.000Z</Time>
            <Position>
              <LatitudeDegrees>50.2076206170022487640380859375</LatitudeDegrees>
              <LongitudeDegrees>16.99024421162903308868408203125</LongitudeDegrees>
            </Position>
            <AltitudeMeters>950.4000244140625</AltitudeMeters>
            <DistanceMeters>22183.690093318</DistanceMeters>
          </Trackpoint>
          <Trackpoint>
            <Time>2022-08-27T02:05:22.000Z</Time>
            <Position>
              <LatitudeDegrees>50.2076437510550022125244140625</LatitudeDegrees>
              <LongitudeDegrees>16.99026784859597682952880859375</LongitudeDegrees>
            </Position>
            <AltitudeMeters>950.79998779296875</AltitudeMeters>
            <DistanceMeters>22186.764908766</DistanceMeters>
          </Trackpoint>
          <Trackpoint>
            <Time>2022-08-27T02:05:27.000Z</Time>
            <Position>
              <LatitudeDegrees>50.20767065696418285369873046875</LatitudeDegrees>
              <LongitudeDegrees>16.99027991853654384613037109375</LongitudeDegrees>
            </Position>
            <AltitudeMeters>951.5999755859375</AltitudeMeters>
            <DistanceMeters>22189.880567954</DistanceMeters>
          </Trackpoint>
          <Trackpoint>
            <Time>2022-08-27T02:05:35.000Z</Time>
            <Position>
              <LatitudeDegrees>50.20774374715983867645263671875</LatitudeDegrees>
              <LongitudeDegrees>16.99031244032084941864013671875</LongitudeDegrees>
            </Position>
            <AltitudeMeters>952.5999755859375</AltitudeMeters>
            <DistanceMeters>22198.339546955</DistanceMeters>
          </Trackpoint>
          <Trackpoint>
            <Time>2022-08-27T02:05:36.000Z</Time>
            <Position>
              <LatitudeDegrees>50.2077480219304561614990234375</LatitudeDegrees>
              <LongitudeDegrees>16.9903240911662578582763671875</LongitudeDegrees>
            </Position>
            <AltitudeMeters>952.79998779296875</AltitudeMeters>
            <DistanceMeters>22199.294553615</DistanceMeters>
          </Trackpoint>
          <Trackpoint>
            <Time>2022-08-27T02:05:43.000Z</Time>
            <Position>
              <LatitudeDegrees>50.20779487676918506622314453125</LatitudeDegrees>
              <LongitudeDegrees>16.9903738796710968017578125</LongitudeDegrees>
            </Position>
            <AltitudeMeters>953.79998779296875</AltitudeMeters>
            <DistanceMeters>22205.601493185</DistanceMeters>
          </Trackpoint>
          <Trackpoint>
            <Time>2022-08-27T02:05:45.000Z</Time>
            <Position>
              <LatitudeDegrees>50.2078103832900524139404296875</LatitudeDegrees>
              <LongitudeDegrees>16.99039022438228130340576171875</LongitudeDegrees>
            </Position>
            <AltitudeMeters>954</AltitudeMeters>
            <DistanceMeters>22207.683424186</DistanceMeters>
          </Trackpoint>
          <Trackpoint>
            <Time>2022-08-27T02:05:52.000Z</Time>
            <Position>
              <LatitudeDegrees>50.20787651650607585906982421875</LatitudeDegrees>
              <LongitudeDegrees>16.99042282998561859130859375</LongitudeDegrees>
            </Position>
            <AltitudeMeters>955</AltitudeMeters>
            <DistanceMeters>22215.40226117</DistanceMeters>
          </Trackpoint>
          <Trackpoint>
            <Time>2022-08-27T02:05:57.000Z</Time>
            <Position>
              <LatitudeDegrees>50.20793485455214977264404296875</LatitudeDegrees>
              <LongitudeDegrees>16.990449316799640655517578125</LongitudeDegrees>
            </Position>
            <AltitudeMeters>955.4000244140625</AltitudeMeters>
            <DistanceMeters>22222.163864311</DistanceMeters>
          </Trackpoint>
          <Trackpoint>
            <Time>2022-08-27T02:06:01.000Z</Time>
            <Position>
              <LatitudeDegrees>50.2079790271818637847900390625</LatitudeDegrees>
              <LongitudeDegrees>16.99046147055923938751220703125</LongitudeDegrees>
            </Position>
            <AltitudeMeters>956</AltitudeMeters>
            <DistanceMeters>22227.156159473</DistanceMeters>
          </Trackpoint>
          <Trackpoint>
            <Time>2022-08-27T02:06:08.000Z</Time>
            <Position>
              <LatitudeDegrees>50.20805153064429759979248046875</LatitudeDegrees>
              <LongitudeDegrees>16.9904836826026439666748046875</LongitudeDegrees>
            </Position>
            <AltitudeMeters>957.20001220703125</AltitudeMeters>
            <DistanceMeters>22235.379128061</DistanceMeters>
          </Trackpoint>
          <Trackpoint>
            <Time>2022-08-27T02:06:09.000Z</Time>
            <Position>
              <LatitudeDegrees>50.20806192420423030853271484375</LatitudeDegrees>
              <LongitudeDegrees>16.9904846884310245513916015625</LongitudeDegrees>
            </Position>
            <AltitudeMeters>957.4000244140625</AltitudeMeters>
            <DistanceMeters>22236.535177937</DistanceMeters>
          </Trackpoint>
          <Trackpoint>
            <Time>2022-08-27T02:06:15.000Z</Time>
            <Position>
              <LatitudeDegrees>50.208122022449970245361328125</LatitudeDegrees>
              <LongitudeDegrees>16.9904972612857818603515625</LongitudeDegrees>
            </Position>
            <AltitudeMeters>958.4000244140625</AltitudeMeters>
            <DistanceMeters>22243.284081965</DistanceMeters>
          </Trackpoint>
          <Trackpoint>
            <Time>2022-08-27T02:06:21.000Z</Time>
            <Position>
              <LatitudeDegrees>50.20816887728869915008544921875</LatitudeDegrees>
              <LongitudeDegrees>16.9905027933418750762939453125</LongitudeDegrees>
            </Position>
            <AltitudeMeters>959.4000244140625</AltitudeMeters>
            <DistanceMeters>22248.513142251</DistanceMeters>
          </Trackpoint>
          <Trackpoint>
            <Time>2022-08-27T02:06:22.000Z</Time>
            <Position>
              <LatitudeDegrees>50.20817692391574382781982421875</LatitudeDegrees>
              <LongitudeDegrees>16.9905048049986362457275390625</LongitudeDegrees>
            </Position>
            <AltitudeMeters>959.5999755859375</AltitudeMeters>
            <DistanceMeters>22249.424606475</DistanceMeters>
          </Trackpoint>
          <Trackpoint>
            <Time>2022-08-27T02:06:30.000Z</Time>
            <Position>
              <LatitudeDegrees>50.20824682898819446563720703125</LatitudeDegrees>
              <LongitudeDegrees>16.99054495431482791900634765625</LongitudeDegrees>
            </Position>
            <AltitudeMeters>960.5999755859375</AltitudeMeters>
            <DistanceMeters>22257.714291737</DistanceMeters>
          </Trackpoint>
          <Trackpoint>
            <Time>2022-08-27T02:06:34.000Z</Time>
            <Position>
              <LatitudeDegrees>50.208283960819244384765625</LatitudeDegrees>
              <LongitudeDegrees>16.99055559933185577392578125</LongitudeDegrees>
            </Position>
            <AltitudeMeters>961.20001220703125</AltitudeMeters>
            <DistanceMeters>22261.914859481</DistanceMeters>
          </Trackpoint>
          <Trackpoint>
            <Time>2022-08-27T02:06:36.000Z</Time>
            <Position>
              <LatitudeDegrees>50.2083005569875240325927734375</LatitudeDegrees>
              <LongitudeDegrees>16.9905597902834415435791015625</LongitudeDegrees>
            </Position>
            <AltitudeMeters>961.5999755859375</AltitudeMeters>
            <DistanceMeters>22263.784254994</DistanceMeters>
          </Trackpoint>
          <Trackpoint>
            <Time>2022-08-27T02:06:44.000Z</Time>
            <Position>
              <LatitudeDegrees>50.2083629183471202850341796875</LatitudeDegrees>
              <LongitudeDegrees>16.9905805774033069610595703125</LongitudeDegrees>
            </Position>
            <AltitudeMeters>962.5999755859375</AltitudeMeters>
            <DistanceMeters>22270.881421077</DistanceMeters>
          </Trackpoint>
          <Trackpoint>
            <Time>2022-08-27T02:06:45.000Z</Time>
            <Position>
              <LatitudeDegrees>50.208368115127086639404296875</LatitudeDegrees>
              <LongitudeDegrees>16.99058870784938335418701171875</LongitudeDegrees>
            </Position>
            <AltitudeMeters>962.79998779296875</AltitudeMeters>
            <DistanceMeters>22271.698871783</DistanceMeters>
          </Trackpoint>
          <Trackpoint>
            <Time>2022-08-27T02:06:54.000Z</Time>
            <Position>
              <LatitudeDegrees>50.2084386907517910003662109375</LatitudeDegrees>
              <LongitudeDegrees>16.99061620049178600311279296875</LongitudeDegrees>
            </Position>
            <AltitudeMeters>963.79998779296875</AltitudeMeters>
            <DistanceMeters>22279.794567851</DistanceMeters>
          </Trackpoint>
          <Trackpoint>
            <Time>2022-08-27T02:07:02.000Z</Time>
            <Position>
              <LatitudeDegrees>50.208496861159801483154296875</LatitudeDegrees>
              <LongitudeDegrees>16.9906717725098133087158203125</LongitudeDegrees>
            </Position>
            <AltitudeMeters>964.79998779296875</AltitudeMeters>
            <DistanceMeters>22287.383627579</DistanceMeters>
          </Trackpoint>
          <Trackpoint>
            <Time>2022-08-27T02:07:05.000Z</Time>
            <Position>
              <LatitudeDegrees>50.208522342145442962646484375</LatitudeDegrees>
              <LongitudeDegrees>16.99068610556423664093017578125</LongitudeDegrees>
            </Position>
            <AltitudeMeters>965.4000244140625</AltitudeMeters>
            <DistanceMeters>22290.399135327</DistanceMeters>
          </Trackpoint>
          <Trackpoint>
            <Time>2022-08-27T02:07:09.000Z</Time>
            <Position>
              <LatitudeDegrees>50.20854623056948184967041015625</LatitudeDegrees>
              <LongitudeDegrees>16.9907042942941188812255859375</LongitudeDegrees>
            </Position>
            <AltitudeMeters>966</AltitudeMeters>
            <DistanceMeters>22293.358725527</DistanceMeters>
          </Trackpoint>
          <Trackpoint>
            <Time>2022-08-27T02:07:17.000Z</Time>
            <Position>
              <LatitudeDegrees>50.208598114550113677978515625</LatitudeDegrees>
              <LongitudeDegrees>16.99073689989745616912841796875</LongitudeDegrees>
            </Position>
            <AltitudeMeters>967</AltitudeMeters>
            <DistanceMeters>22299.582793967</DistanceMeters>
          </Trackpoint>
          <Trackpoint>
            <Time>2022-08-27T02:07:23.000Z</Time>
            <Position>
              <LatitudeDegrees>50.208632983267307281494140625</LatitudeDegrees>
              <LongitudeDegrees>16.99077294208109378814697265625</LongitudeDegrees>
            </Position>
            <AltitudeMeters>968.20001220703125</AltitudeMeters>
            <DistanceMeters>22304.236193081</DistanceMeters>
          </Trackpoint>
          <Trackpoint>
            <Time>2022-08-27T02:07:32.000Z</Time>
            <Position>
              <LatitudeDegrees>50.20868939347565174102783203125</LatitudeDegrees>
              <LongitudeDegrees>16.9908218085765838623046875</LongitudeDegrees>
            </Position>
            <AltitudeMeters>969.20001220703125</AltitudeMeters>
            <DistanceMeters>22311.414327671</DistanceMeters>
          </Trackpoint>
          <Trackpoint>
            <Time>2022-08-27T02:07:40.000Z</Time>
            <Position>
              <LatitudeDegrees>50.2087545208632946014404296875</LatitudeDegrees>
              <LongitudeDegrees>16.9908555038273334503173828125</LongitudeDegrees>
            </Position>
            <AltitudeMeters>970.20001220703125</AltitudeMeters>
            <DistanceMeters>22319.049651732</DistanceMeters>
          </Trackpoint>
          <Trackpoint>
            <Time>2022-08-27T02:07:44.000Z</Time>
            <Position>
              <LatitudeDegrees>50.20879215560853481292724609375</LatitudeDegrees>
              <LongitudeDegrees>16.99087872169911861419677734375</LongitudeDegrees>
            </Position>
            <AltitudeMeters>970.79998779296875</AltitudeMeters>
            <DistanceMeters>22323.553156111</DistanceMeters>
          </Trackpoint>
          <Trackpoint>
            <Time>2022-08-27T02:07:48.000Z</Time>
            <Position>
              <LatitudeDegrees>50.20881730131804943084716796875</LatitudeDegrees>
              <LongitudeDegrees>16.9909034483134746551513671875</LongitudeDegrees>
            </Position>
            <AltitudeMeters>971.20001220703125</AltitudeMeters>
            <DistanceMeters>22326.858665527</DistanceMeters>
          </Trackpoint>
          <Trackpoint>
            <Time>2022-08-27T02:07:55.000Z</Time>
            <Position>
              <LatitudeDegrees>50.2088775672018527984619140625</LatitudeDegrees>
              <LongitudeDegrees>16.99095415882766246795654296875</LongitudeDegrees>
            </Position>
            <AltitudeMeters>972.20001220703125</AltitudeMeters>
            <DistanceMeters>22334.477414202</DistanceMeters>
          </Trackpoint>
          <Trackpoint>
            <Time>2022-08-27T02:07:56.000Z</Time>
            <Position>
              <LatitudeDegrees>50.20888184197247028350830078125</LatitudeDegrees>
              <LongitudeDegrees>16.99096195399761199951171875</LongitudeDegrees>
            </Position>
            <AltitudeMeters>972.4000244140625</AltitudeMeters>
            <DistanceMeters>22335.207328245</DistanceMeters>
          </Trackpoint>
          <Trackpoint>
            <Time>2022-08-27T02:08:03.000Z</Time>
            <Position>
              <LatitudeDegrees>50.20892341621220111846923828125</LatitudeDegrees>
              <LongitudeDegrees>16.9910164363682270050048828125</LongitudeDegrees>
            </Position>
            <AltitudeMeters>973.5999755859375</AltitudeMeters>
            <DistanceMeters>22341.245825466</DistanceMeters>
          </Trackpoint>
          <Trackpoint>
            <Time>2022-08-27T02:08:05.000Z</Time>
            <Position>
              <LatitudeDegrees>50.20893640816211700439453125</LatitudeDegrees>
              <LongitudeDegrees>16.991026662290096282958984375</LongitudeDegrees>
            </Position>
            <AltitudeMeters>974</AltitudeMeters>
            <DistanceMeters>22342.86127961</DistanceMeters>
          </Trackpoint>
          <Trackpoint>
            <Time>2022-08-27T02:08:10.000Z</Time>
            <Position>
              <LatitudeDegrees>50.20897571928799152374267578125</LatitudeDegrees>
              <LongitudeDegrees>16.9910551607608795166015625</LongitudeDegrees>
            </Position>
            <AltitudeMeters>974.79998779296875</AltitudeMeters>
            <DistanceMeters>22347.684294945</DistanceMeters>
          </Trackpoint>
          <Trackpoint>
            <Time>2022-08-27T02:08:18.000Z</Time>
            <Position>
              <LatitudeDegrees>50.2090328000485897064208984375</LatitudeDegrees>
              <LongitudeDegrees>16.99108189903199672698974609375</LongitudeDegrees>
            </Position>
            <AltitudeMeters>975.4000244140625</AltitudeMeters>
            <DistanceMeters>22354.31713238</DistanceMeters>
          </Trackpoint>
          <Trackpoint>
            <Time>2022-08-27T02:08:21.000Z</Time>
            <Position>
              <LatitudeDegrees>50.209052078425884246826171875</LatitudeDegrees>
              <LongitudeDegrees>16.99110134504735469818115234375</LongitudeDegrees>
            </Position>
            <AltitudeMeters>975.79998779296875</AltitudeMeters>
            <DistanceMeters>22356.870505676</DistanceMeters>
          </Trackpoint>
          <Trackpoint>
            <Time>2022-08-27T02:08:29.000Z</Time>
            <Position>
              <LatitudeDegrees>50.20911335013806819915771484375</LatitudeDegrees>
              <LongitudeDegrees>16.991163790225982666015625</LongitudeDegrees>
            </Position>
            <AltitudeMeters>976.5999755859375</AltitudeMeters>
            <DistanceMeters>22365.012914488</DistanceMeters>
          </Trackpoint>
          <Trackpoint>
            <Time>2022-08-27T02:08:33.000Z</Time>
            <Position>
              <LatitudeDegrees>50.20914696156978607177734375</LatitudeDegrees>
              <LongitudeDegrees>16.99119337834417819976806640625</LongitudeDegrees>
            </Position>
            <AltitudeMeters>976.79998779296875</AltitudeMeters>
            <DistanceMeters>22369.305977033</DistanceMeters>
          </Trackpoint>
          <Trackpoint>
            <Time>2022-08-27T02:08:40.000Z</Time>
            <Position>
              <LatitudeDegrees>50.20920890383422374725341796875</LatitudeDegrees>
              <LongitudeDegrees>16.9912440888583660125732421875</LongitudeDegrees>
            </Position>
            <AltitudeMeters>977.4000244140625</AltitudeMeters>
            <DistanceMeters>22377.088891191</DistanceMeters>
          </Trackpoint>
          <Trackpoint>
            <Time>2022-08-27T02:08:51.000Z</Time>
            <Position>
              <LatitudeDegrees>50.20928517915308475494384765625</LatitudeDegrees>
              <LongitudeDegrees>16.991347856819629669189453125</LongitudeDegrees>
            </Position>
            <AltitudeMeters>977.79998779296875</AltitudeMeters>
            <DistanceMeters>22388.345446289</DistanceMeters>
          </Trackpoint>
          <Trackpoint>
            <Time>2022-08-27T02:08:55.000Z</Time>
            <Position>
              <LatitudeDegrees>50.209318958222866058349609375</LatitudeDegrees>
              <LongitudeDegrees>16.99139320291578769683837890625</LongitudeDegrees>
            </Position>
            <AltitudeMeters>978</AltitudeMeters>
            <DistanceMeters>22393.302344311</DistanceMeters>
          </Trackpoint>
          <Trackpoint>
            <Time>2022-08-27T02:09:02.000Z</Time>
            <Position>
              <LatitudeDegrees>50.2093754522502422332763671875</LatitudeDegrees>
              <LongitudeDegrees>16.99145589955151081085205078125</LongitudeDegrees>
            </Position>
            <AltitudeMeters>978.20001220703125</AltitudeMeters>
            <DistanceMeters>22401.0153297</DistanceMeters>
          </Trackpoint>
          <Trackpoint>
            <Time>2022-08-27T02:09:13.000Z</Time>
            <Position>
              <LatitudeDegrees>50.20944066345691680908203125</LatitudeDegrees>
              <LongitudeDegrees>16.99156318791210651397705078125</LongitudeDegrees>
            </Position>
            <AltitudeMeters>978.79998779296875</AltitudeMeters>
            <DistanceMeters>22411.554730553</DistanceMeters>
          </Trackpoint>
          <Trackpoint>
            <Time>2022-08-27T02:09:18.000Z</Time>
            <Position>
              <LatitudeDegrees>50.2094797231256961822509765625</LatitudeDegrees>
              <LongitudeDegrees>16.99159755371510982513427734375</LongitudeDegrees>
            </Position>
            <AltitudeMeters>979</AltitudeMeters>
            <DistanceMeters>22416.543406798</DistanceMeters>
          </Trackpoint>
          <Trackpoint>
            <Time>2022-08-27T02:09:25.000Z</Time>
            <Position>
              <LatitudeDegrees>50.20952272228896617889404296875</LatitudeDegrees>
              <LongitudeDegrees>16.99166259728372097015380859375</LongitudeDegrees>
            </Position>
            <AltitudeMeters>979.20001220703125</AltitudeMeters>
            <DistanceMeters>22423.204772698</DistanceMeters>
          </Trackpoint>
          <Trackpoint>
            <Time>2022-08-27T02:09:34.000Z</Time>
            <Position>
              <LatitudeDegrees>50.20959329791367053985595703125</LatitudeDegrees>
              <LongitudeDegrees>16.99172378517687320709228515625</LongitudeDegrees>
            </Position>
            <AltitudeMeters>980</AltitudeMeters>
            <DistanceMeters>22432.188190376</DistanceMeters>
          </Trackpoint>
          <Trackpoint>
            <Time>2022-08-27T02:09:37.000Z</Time>
            <Position>
              <LatitudeDegrees>50.20961794070899486541748046875</LatitudeDegrees>
              <LongitudeDegrees>16.99173350818455219268798828125</LongitudeDegrees>
            </Position>
            <AltitudeMeters>980.4000244140625</AltitudeMeters>
            <DistanceMeters>22435.016732002</DistanceMeters>
          </Trackpoint>
          <Trackpoint>
            <Time>2022-08-27T02:09:41.000Z</Time>
            <Position>
              <LatitudeDegrees>50.20965783856809139251708984375</LatitudeDegrees>
              <LongitudeDegrees>16.99175999499857425689697265625</LongitudeDegrees>
            </Position>
            <AltitudeMeters>981</AltitudeMeters>
            <DistanceMeters>22439.841619262</DistanceMeters>
          </Trackpoint>
          <Trackpoint>
            <Time>2022-08-27T02:09:49.000Z</Time>
            <Position>
              <LatitudeDegrees>50.20972372032701969146728515625</LatitudeDegrees>
              <LongitudeDegrees>16.99179285205900669097900390625</LongitudeDegrees>
            </Position>
            <AltitudeMeters>981.79998779296875</AltitudeMeters>
            <DistanceMeters>22447.538783126</DistanceMeters>
          </Trackpoint>
          <Trackpoint>
            <Time>2022-08-27T02:09:51.000Z</Time>
            <Position>
              <LatitudeDegrees>50.20973972976207733154296875</LatitudeDegrees>
              <LongitudeDegrees>16.99179184623062610626220703125</LongitudeDegrees>
            </Position>
            <AltitudeMeters>982</AltitudeMeters>
            <DistanceMeters>22449.32164232</DistanceMeters>
          </Trackpoint>
          <Trackpoint>
            <Time>2022-08-27T02:09:58.000Z</Time>
            <Position>
              <LatitudeDegrees>50.20981659181416034698486328125</LatitudeDegrees>
              <LongitudeDegrees>16.991817913949489593505859375</LongitudeDegrees>
            </Position>
            <AltitudeMeters>983</AltitudeMeters>
            <DistanceMeters>22458.075970323</DistanceMeters>
          </Trackpoint>
          <Trackpoint>
            <Time>2022-08-27T02:10:02.000Z</Time>
            <Position>
              <LatitudeDegrees>50.20986218936741352081298828125</LatitudeDegrees>
              <LongitudeDegrees>16.9918147288262844085693359375</LongitudeDegrees>
            </Position>
            <AltitudeMeters>983.79998779296875</AltitudeMeters>
            <DistanceMeters>22463.156123714</DistanceMeters>
          </Trackpoint>
          <Trackpoint>
            <Time>2022-08-27T02:10:04.000Z</Time>
            <Position>
              <LatitudeDegrees>50.2098946273326873779296875</LatitudeDegrees>
              <LongitudeDegrees>16.99181330390274524688720703125</LongitudeDegrees>
            </Position>
            <AltitudeMeters>984</AltitudeMeters>
            <DistanceMeters>22466.76713886</DistanceMeters>
          </Trackpoint>
          <Trackpoint>
            <Time>2022-08-27T02:10:11.000Z</Time>
            <Position>
              <LatitudeDegrees>50.209972076117992401123046875</LatitudeDegrees>
              <LongitudeDegrees>16.99177198112010955810546875</LongitudeDegrees>
            </Position>
            <AltitudeMeters>985.20001220703125</AltitudeMeters>
            <DistanceMeters>22475.876330506</DistanceMeters>
          </Trackpoint>
          <Trackpoint>
            <Time>2022-08-27T02:10:12.000Z</Time>
            <Position>
              <LatitudeDegrees>50.209976099431514739990234375</LatitudeDegrees>
              <LongitudeDegrees>16.9917687959969043731689453125</LongitudeDegrees>
            </Position>
            <AltitudeMeters>985.4000244140625</AltitudeMeters>
            <DistanceMeters>22476.379164614</DistanceMeters>
          </Trackpoint>
          <Trackpoint>
            <Time>2022-08-27T02:10:17.000Z</Time>
            <Position>
              <LatitudeDegrees>50.21000769920647144317626953125</LatitudeDegrees>
              <LongitudeDegrees>16.99169813655316829681396484375</LongitudeDegrees>
            </Position>
            <AltitudeMeters>986</AltitudeMeters>
            <DistanceMeters>22482.518508152</DistanceMeters>
          </Trackpoint>
          <Trackpoint>
            <Time>2022-08-27T02:10:24.000Z</Time>
            <Position>
              <LatitudeDegrees>50.21004692651331424713134765625</LatitudeDegrees>
              <LongitudeDegrees>16.99160694144666194915771484375</LongitudeDegrees>
            </Position>
            <AltitudeMeters>987</AltitudeMeters>
            <DistanceMeters>22490.34538739</DistanceMeters>
          </Trackpoint>
          <Trackpoint>
            <Time>2022-08-27T02:10:25.000Z</Time>
            <Position>
              <LatitudeDegrees>50.2100510336458683013916015625</LatitudeDegrees>
              <LongitudeDegrees>16.99159453622996807098388671875</LongitudeDegrees>
            </Position>
            <AltitudeMeters>987.20001220703125</AltitudeMeters>
            <DistanceMeters>22491.342035978</DistanceMeters>
          </Trackpoint>
          <Trackpoint>
            <Time>2022-08-27T02:10:30.000Z</Time>
            <Position>
              <LatitudeDegrees>50.21006721071898937225341796875</LatitudeDegrees>
              <LongitudeDegrees>16.991518177092075347900390625</LongitudeDegrees>
            </Position>
            <AltitudeMeters>988.20001220703125</AltitudeMeters>
            <DistanceMeters>22497.072075939</DistanceMeters>
          </Trackpoint>
          <Trackpoint>
            <Time>2022-08-27T02:10:38.000Z</Time>
            <Position>
              <LatitudeDegrees>50.21008280105888843536376953125</LatitudeDegrees>
              <LongitudeDegrees>16.99143058620393276214599609375</LongitudeDegrees>
            </Position>
            <AltitudeMeters>989.20001220703125</AltitudeMeters>
            <DistanceMeters>22503.547851955</DistanceMeters>
          </Trackpoint>
          <Trackpoint>
            <Time>2022-08-27T02:10:44.000Z</Time>
            <Position>
              <LatitudeDegrees>50.2100882492959499359130859375</LatitudeDegrees>
              <LongitudeDegrees>16.9913751818239688873291015625</LongitudeDegrees>
            </Position>
            <AltitudeMeters>990.4000244140625</AltitudeMeters>
            <DistanceMeters>22507.541235858</DistanceMeters>
          </Trackpoint>
          <Trackpoint>
            <Time>2022-08-27T02:10:52.000Z</Time>
            <Position>
              <LatitudeDegrees>50.21008305251598358154296875</LatitudeDegrees>
              <LongitudeDegrees>16.99129815213382244110107421875</LongitudeDegrees>
            </Position>
            <AltitudeMeters>991.4000244140625</AltitudeMeters>
            <DistanceMeters>22513.059334966</DistanceMeters>
          </Trackpoint>
          <Trackpoint>
            <Time>2022-08-27T02:10:53.000Z</Time>
            <Position>
              <LatitudeDegrees>50.210080035030841827392578125</LatitudeDegrees>
              <LongitudeDegrees>16.99128381907939910888671875</LongitudeDegrees>
            </Position>
            <AltitudeMeters>991.5999755859375</AltitudeMeters>
            <DistanceMeters>22514.134439512</DistanceMeters>
          </Trackpoint>
          <Trackpoint>
            <Time>2022-08-27T02:11:00.000Z</Time>
            <Position>
              <LatitudeDegrees>50.21008246578276157379150390625</LatitudeDegrees>
              <LongitudeDegrees>16.9911780394613742828369140625</LongitudeDegrees>
            </Position>
            <AltitudeMeters>992.20001220703125</AltitudeMeters>
            <DistanceMeters>22521.674556308</DistanceMeters>
          </Trackpoint>
          <Trackpoint>
            <Time>2022-08-27T02:11:06.000Z</Time>
            <Position>
              <LatitudeDegrees>50.2100796997547149658203125</LatitudeDegrees>
              <LongitudeDegrees>16.99111509136855602264404296875</LongitudeDegrees>
            </Position>
            <AltitudeMeters>993.5999755859375</AltitudeMeters>
            <DistanceMeters>22526.170033044</DistanceMeters>
          </Trackpoint>
          <Trackpoint>
            <Time>2022-08-27T02:11:08.000Z</Time>
            <Position>
              <LatitudeDegrees>50.21008196286857128143310546875</LatitudeDegrees>
              <LongitudeDegrees>16.99108340777456760406494140625</LongitudeDegrees>
            </Position>
            <AltitudeMeters>994.20001220703125</AltitudeMeters>
            <DistanceMeters>22528.4427415</DistanceMeters>
          </Trackpoint>
          <Trackpoint>
            <Time>2022-08-27T02:11:17.000Z</Time>
            <Position>
              <LatitudeDegrees>50.21007609553635120391845703125</LatitudeDegrees>
              <LongitudeDegrees>16.99096924625337123870849609375</LongitudeDegrees>
            </Position>
            <AltitudeMeters>994.79998779296875</AltitudeMeters>
            <DistanceMeters>22536.600661786</DistanceMeters>
          </Trackpoint>
          <Trackpoint>
            <Time>2022-08-27T02:11:20.000Z</Time>
            <Position>
              <LatitudeDegrees>50.21007710136473178863525390625</LatitudeDegrees>
              <LongitudeDegrees>16.9909242354333400726318359375</LongitudeDegrees>
            </Position>
            <AltitudeMeters>995.20001220703125</AltitudeMeters>
            <DistanceMeters>22539.80913294</DistanceMeters>
          </Trackpoint>
          <Trackpoint>
            <Time>2022-08-27T02:11:26.000Z</Time>
            <Position>
              <LatitudeDegrees>50.2100718207657337188720703125</LatitudeDegrees>
              <LongitudeDegrees>16.9908571802079677581787109375</LongitudeDegrees>
            </Position>
            <AltitudeMeters>995.79998779296875</AltitudeMeters>
            <DistanceMeters>22544.621839671</DistanceMeters>
          </Trackpoint>
          <Trackpoint>
            <Time>2022-08-27T02:11:32.000Z</Time>
            <Position>
              <LatitudeDegrees>50.21007098257541656494140625</LatitudeDegrees>
              <LongitudeDegrees>16.990816779434680938720703125</LongitudeDegrees>
            </Position>
            <AltitudeMeters>996.20001220703125</AltitudeMeters>
            <DistanceMeters>22547.501007984</DistanceMeters>
          </Trackpoint>
          <Trackpoint>
            <Time>2022-08-27T02:11:38.000Z</Time>
            <Position>
              <LatitudeDegrees>50.210063941776752471923828125</LatitudeDegrees>
              <LongitudeDegrees>16.99078300036489963531494140625</LongitudeDegrees>
            </Position>
            <AltitudeMeters>996.79998779296875</AltitudeMeters>
            <DistanceMeters>22550.03128943</DistanceMeters>
          </Trackpoint>
          <Trackpoint>
            <Time>2022-08-27T02:11:43.000Z</Time>
            <Position>
              <LatitudeDegrees>50.2100600861012935638427734375</LatitudeDegrees>
              <LongitudeDegrees>16.990769170224666595458984375</LongitudeDegrees>
            </Position>
            <AltitudeMeters>997.79998779296875</AltitudeMeters>
            <DistanceMeters>22551.102186115</DistanceMeters>
          </Trackpoint>
          <Trackpoint>
            <Time>2022-08-27T02:11:44.000Z</Time>
            <Position>
              <LatitudeDegrees>50.21006184630095958709716796875</LatitudeDegrees>
              <LongitudeDegrees>16.9907696731388568878173828125</LongitudeDegrees>
            </Position>
            <AltitudeMeters>998</AltitudeMeters>
            <DistanceMeters>22551.292239543</DistanceMeters>
          </Trackpoint>
          <Trackpoint>
            <Time>2022-08-27T02:11:57.000Z</Time>
            <Position>
              <LatitudeDegrees>50.210048854351043701171875</LatitudeDegrees>
              <LongitudeDegrees>16.9907663203775882720947265625</LongitudeDegrees>
            </Position>
            <AltitudeMeters>998.5999755859375</AltitudeMeters>
            <DistanceMeters>22552.752067629</DistanceMeters>
          </Trackpoint>
          <Trackpoint>
            <Time>2022-08-27T02:12:13.000Z</Time>
            <Position>
              <LatitudeDegrees>50.2100741676986217498779296875</LatitudeDegrees>
              <LongitudeDegrees>16.99076942168176174163818359375</LongitudeDegrees>
            </Position>
            <AltitudeMeters>999.4000244140625</AltitudeMeters>
            <DistanceMeters>22555.579012562</DistanceMeters>
          </Trackpoint>
          <Trackpoint>
            <Time>2022-08-27T02:12:15.000Z</Time>
            <Position>
              <LatitudeDegrees>50.21005933173000812530517578125</LatitudeDegrees>
              <LongitudeDegrees>16.99078300036489963531494140625</LongitudeDegrees>
            </Position>
            <AltitudeMeters>999.5999755859375</AltitudeMeters>
            <DistanceMeters>22557.493747801</DistanceMeters>
          </Trackpoint>
          <Trackpoint>
            <Time>2022-08-27T02:12:17.000Z</Time>
            <Position>
              <LatitudeDegrees>50.21002546884119510650634765625</LatitudeDegrees>
              <LongitudeDegrees>16.990786604583263397216796875</LongitudeDegrees>
            </Position>
            <AltitudeMeters>1000</AltitudeMeters>
            <DistanceMeters>22561.27098499</DistanceMeters>
          </Trackpoint>
          <Trackpoint>
            <Time>2022-08-27T02:12:21.000Z</Time>
            <Position>
              <LatitudeDegrees>50.21000652574002742767333984375</LatitudeDegrees>
              <LongitudeDegrees>16.9907609559595584869384765625</LongitudeDegrees>
            </Position>
            <AltitudeMeters>1001.20001220703125</AltitudeMeters>
            <DistanceMeters>22564.060953788</DistanceMeters>
          </Trackpoint>
          <Trackpoint>
            <Time>2022-08-27T02:12:22.000Z</Time>
            <Position>
              <LatitudeDegrees>50.21000468172132968902587890625</LatitudeDegrees>
              <LongitudeDegrees>16.9907606206834316253662109375</LongitudeDegrees>
            </Position>
            <AltitudeMeters>1001.4000244140625</AltitudeMeters>
            <DistanceMeters>22564.251007217</DistanceMeters>
          </Trackpoint>
          <Trackpoint>
            <Time>2022-08-27T02:12:27.000Z</Time>
            <Position>
              <LatitudeDegrees>50.2100024186074733734130859375</LatitudeDegrees>
              <LongitudeDegrees>16.99073438532650470733642578125</LongitudeDegrees>
            </Position>
            <AltitudeMeters>1002.20001220703125</AltitudeMeters>
            <DistanceMeters>22566.134838431</DistanceMeters>
          </Trackpoint>
          <Trackpoint>
            <Time>2022-08-27T02:12:35.000Z</Time>
            <Position>
              <LatitudeDegrees>50.20999898202717304229736328125</LatitudeDegrees>
              <LongitudeDegrees>16.9906439445912837982177734375</LongitudeDegrees>
            </Position>
            <AltitudeMeters>1003.20001220703125</AltitudeMeters>
            <DistanceMeters>22572.588264851</DistanceMeters>
          </Trackpoint>
          <Trackpoint>
            <Time>2022-08-27T02:12:39.000Z</Time>
            <Position>
              <LatitudeDegrees>50.20999588072299957275390625</LatitudeDegrees>
              <LongitudeDegrees>16.9906389154493808746337890625</LongitudeDegrees>
            </Position>
            <AltitudeMeters>1004</AltitudeMeters>
            <DistanceMeters>22573.091098959</DistanceMeters>
          </Trackpoint>
          <Trackpoint>
            <Time>2022-08-27T02:12:43.000Z</Time>
            <Position>
              <LatitudeDegrees>50.209998898208141326904296875</LatitudeDegrees>
              <LongitudeDegrees>16.99069398455321788787841796875</LongitudeDegrees>
            </Position>
            <AltitudeMeters>1004.20001220703125</AltitudeMeters>
            <DistanceMeters>22577.028692292</DistanceMeters>
          </Trackpoint>
          <Trackpoint>
            <Time>2022-08-27T02:12:50.000Z</Time>
            <Position>
              <LatitudeDegrees>50.2099987305700778961181640625</LatitudeDegrees>
              <LongitudeDegrees>16.99068258516490459442138671875</LongitudeDegrees>
            </Position>
            <AltitudeMeters>1005.4000244140625</AltitudeMeters>
            <DistanceMeters>22577.835020702</DistanceMeters>
          </Trackpoint>
          <Trackpoint>
            <Time>2022-08-27T02:13:04.000Z</Time>
            <Position>
              <LatitudeDegrees>50.20999227650463581085205078125</LatitudeDegrees>
              <LongitudeDegrees>16.990689374506473541259765625</LongitudeDegrees>
            </Position>
            <AltitudeMeters>1005.5999755859375</AltitudeMeters>
            <DistanceMeters>22578.700755271</DistanceMeters>
          </Trackpoint>
          <Trackpoint>
            <Time>2022-08-27T02:13:05.000Z</Time>
            <Position>
              <LatitudeDegrees>50.20999252796173095703125</LatitudeDegrees>
              <LongitudeDegrees>16.99068862013518810272216796875</LongitudeDegrees>
            </Position>
            <AltitudeMeters>1005.5999755859375</AltitudeMeters>
            <DistanceMeters>22578.795781986</DistanceMeters>
          </Trackpoint>
          <Trackpoint>
            <Time>2022-08-27T02:13:08.000Z</Time>
            <Position>
              <LatitudeDegrees>50.2099930308759212493896484375</LatitudeDegrees>
              <LongitudeDegrees>16.9906845130026340484619140625</LongitudeDegrees>
            </Position>
            <AltitudeMeters>1005.5999755859375</AltitudeMeters>
            <DistanceMeters>22579.096282841</DistanceMeters>
          </Trackpoint>
          <Trackpoint>
            <Time>2022-08-27T02:13:24.000Z</Time>
            <Position>
              <LatitudeDegrees>50.20999194122850894927978515625</LatitudeDegrees>
              <LongitudeDegrees>16.9906483031809329986572265625</LongitudeDegrees>
            </Position>
            <AltitudeMeters>1005.5999755859375</AltitudeMeters>
            <DistanceMeters>22581.679541731</DistanceMeters>
          </Trackpoint>
          <Trackpoint>
            <Time>2022-08-27T02:13:29.000Z</Time>
            <Position>
              <LatitudeDegrees>50.20999462343752384185791015625</LatitudeDegrees>
              <LongitudeDegrees>16.99062894098460674285888671875</LongitudeDegrees>
            </Position>
            <AltitudeMeters>1005.5999755859375</AltitudeMeters>
            <DistanceMeters>22583.0922154</DistanceMeters>
          </Trackpoint>
          <Trackpoint>
            <Time>2022-08-27T02:14:16.000Z</Time>
            <Position>
              <LatitudeDegrees>50.2103728987276554107666015625</LatitudeDegrees>
              <LongitudeDegrees>16.99005880393087863922119140625</LongitudeDegrees>
            </Position>
            <AltitudeMeters>1005.20001220703125</AltitudeMeters>
            <DistanceMeters>22641.5891665</DistanceMeters>
          </Trackpoint>
          <Trackpoint>
            <Time>2022-08-27T02:14:30.000Z</Time>
            <Position>
              <LatitudeDegrees>50.210283212363719940185546875</LatitudeDegrees>
              <LongitudeDegrees>16.99009819887578487396240234375</LongitudeDegrees>
            </Position>
            <AltitudeMeters>1005.20001220703125</AltitudeMeters>
            <DistanceMeters>22651.958841051</DistanceMeters>
          </Trackpoint>
          <Trackpoint>
            <Time>2022-08-27T02:14:47.000Z</Time>
            <Position>
              <LatitudeDegrees>50.21018941886723041534423828125</LatitudeDegrees>
              <LongitudeDegrees>16.9902677647769451141357421875</LongitudeDegrees>
            </Position>
            <AltitudeMeters>1005.4000244140625</AltitudeMeters>
            <DistanceMeters>22667.923329065</DistanceMeters>
          </Trackpoint>
          <Trackpoint>
            <Time>2022-08-27T02:15:06.000Z</Time>
            <Position>
              <LatitudeDegrees>50.2100791968405246734619140625</LatitudeDegrees>
              <LongitudeDegrees>16.9903502427041530609130859375</LongitudeDegrees>
            </Position>
            <AltitudeMeters>1005.20001220703125</AltitudeMeters>
            <DistanceMeters>22681.525433177</DistanceMeters>
          </Trackpoint>
          <Trackpoint>
            <Time>2022-08-27T02:15:28.000Z</Time>
            <Position>
              <LatitudeDegrees>50.20999546162784099578857421875</LatitudeDegrees>
              <LongitudeDegrees>16.9904669187963008880615234375</LongitudeDegrees>
            </Position>
            <AltitudeMeters>1005.20001220703125</AltitudeMeters>
            <DistanceMeters>22694.012681074</DistanceMeters>
          </Trackpoint>
          <Trackpoint>
            <Time>2022-08-27T02:15:47.000Z</Time>
            <Position>
              <LatitudeDegrees>50.21001842804253101348876953125</LatitudeDegrees>
              <LongitudeDegrees>16.99043163098394870758056640625</LongitudeDegrees>
            </Position>
            <AltitudeMeters>1005.20001220703125</AltitudeMeters>
            <DistanceMeters>22697.598601995</DistanceMeters>
          </Trackpoint>
          <Trackpoint>
            <Time>2022-08-27T02:16:10.000Z</Time>
            <Position>
              <LatitudeDegrees>50.2100309170782566070556640625</LatitudeDegrees>
              <LongitudeDegrees>16.990407072007656097412109375</LongitudeDegrees>
            </Position>
            <AltitudeMeters>1005.79998779296875</AltitudeMeters>
            <DistanceMeters>22699.835265213</DistanceMeters>
          </Trackpoint>
          <Trackpoint>
            <Time>2022-08-27T02:16:18.000Z</Time>
            <Position>
              <LatitudeDegrees>50.2100372873246669769287109375</LatitudeDegrees>
              <LongitudeDegrees>16.9903841055929660797119140625</LongitudeDegrees>
            </Position>
            <AltitudeMeters>1004.4000244140625</AltitudeMeters>
            <DistanceMeters>22701.618124408</DistanceMeters>
          </Trackpoint>
          <Trackpoint>
            <Time>2022-08-27T02:16:23.000Z</Time>
            <Position>
              <LatitudeDegrees>50.21003074944019317626953125</LatitudeDegrees>
              <LongitudeDegrees>16.99039709754288196563720703125</LongitudeDegrees>
            </Position>
            <AltitudeMeters>1003.20001220703125</AltitudeMeters>
            <DistanceMeters>22702.797374921</DistanceMeters>
          </Trackpoint>
          <Trackpoint>
            <Time>2022-08-27T02:16:29.000Z</Time>
            <Position>
              <LatitudeDegrees>50.21005530841648578643798828125</LatitudeDegrees>
              <LongitudeDegrees>16.990376226603984832763671875</LongitudeDegrees>
            </Position>
            <AltitudeMeters>1002.4000244140625</AltitudeMeters>
            <DistanceMeters>22705.90868364</DistanceMeters>
          </Trackpoint>
          <Trackpoint>
            <Time>2022-08-27T02:16:30.000Z</Time>
            <Position>
              <LatitudeDegrees>50.2100553922355175018310546875</LatitudeDegrees>
              <LongitudeDegrees>16.99037748388946056365966796875</LongitudeDegrees>
            </Position>
            <AltitudeMeters>1002.20001220703125</AltitudeMeters>
            <DistanceMeters>22706.043071708</DistanceMeters>
          </Trackpoint>
          <Trackpoint>
            <Time>2022-08-27T02:16:50.000Z</Time>
            <Position>
              <LatitudeDegrees>50.20992907695472240447998046875</LatitudeDegrees>
              <LongitudeDegrees>16.99043464846909046173095703125</LongitudeDegrees>
            </Position>
            <AltitudeMeters>999.20001220703125</AltitudeMeters>
            <DistanceMeters>22720.680270679</DistanceMeters>
          </Trackpoint>
          <Trackpoint>
            <Time>2022-08-27T02:16:52.000Z</Time>
            <Position>
              <LatitudeDegrees>50.20998422987759113311767578125</LatitudeDegrees>
              <LongitudeDegrees>16.99074075557291507720947265625</LongitudeDegrees>
            </Position>
            <AltitudeMeters>999</AltitudeMeters>
            <DistanceMeters>22743.332136026</DistanceMeters>
          </Trackpoint>
          <Trackpoint>
            <Time>2022-08-27T02:16:55.000Z</Time>
            <Position>
              <LatitudeDegrees>50.210029073059558868408203125</LatitudeDegrees>
              <LongitudeDegrees>16.990713179111480712890625</LongitudeDegrees>
            </Position>
            <AltitudeMeters>999</AltitudeMeters>
            <DistanceMeters>22748.695886911</DistanceMeters>
          </Trackpoint>
          <Trackpoint>
            <Time>2022-08-27T02:17:01.000Z</Time>
            <Position>
              <LatitudeDegrees>50.210093446075916290283203125</LatitudeDegrees>
              <LongitudeDegrees>16.99068074114620685577392578125</LongitudeDegrees>
            </Position>
            <AltitudeMeters>998.79998779296875</AltitudeMeters>
            <DistanceMeters>22756.224617869</DistanceMeters>
          </Trackpoint>
          <Trackpoint>
            <Time>2022-08-27T02:17:07.000Z</Time>
            <Position>
              <LatitudeDegrees>50.21013937890529632568359375</LatitudeDegrees>
              <LongitudeDegrees>16.99058937840163707733154296875</LongitudeDegrees>
            </Position>
            <AltitudeMeters>998.79998779296875</AltitudeMeters>
            <DistanceMeters>22764.500129922</DistanceMeters>
          </Trackpoint>
          <Trackpoint>
            <Time>2022-08-27T02:17:10.000Z</Time>
            <Position>
              <LatitudeDegrees>50.210165195167064666748046875</LatitudeDegrees>
              <LongitudeDegrees>16.99053338728845119476318359375</LongitudeDegrees>
            </Position>
            <AltitudeMeters>999</AltitudeMeters>
            <DistanceMeters>22769.415868378</DistanceMeters>
          </Trackpoint>
          <Trackpoint>
            <Time>2022-08-27T02:17:19.000Z</Time>
            <Position>
              <LatitudeDegrees>50.2102294005453586578369140625</LatitudeDegrees>
              <LongitudeDegrees>16.990419812500476837158203125</LongitudeDegrees>
            </Position>
            <AltitudeMeters>999.79998779296875</AltitudeMeters>
            <DistanceMeters>22780.209665035</DistanceMeters>
          </Trackpoint>
          <Trackpoint>
            <Time>2022-08-27T02:17:22.000Z</Time>
            <Position>
              <LatitudeDegrees>50.2102508582174777984619140625</LatitudeDegrees>
              <LongitudeDegrees>16.990384273231029510498046875</LongitudeDegrees>
            </Position>
            <AltitudeMeters>1000</AltitudeMeters>
            <DistanceMeters>22783.690808897</DistanceMeters>
          </Trackpoint>
          <Trackpoint>
            <Time>2022-08-27T02:17:29.000Z</Time>
            <Position>
              <LatitudeDegrees>50.21028882823884487152099609375</LatitudeDegrees>
              <LongitudeDegrees>16.99030556716024875640869140625</LongitudeDegrees>
            </Position>
            <AltitudeMeters>1000.4000244140625</AltitudeMeters>
            <DistanceMeters>22790.711218945</DistanceMeters>
          </Trackpoint>
          <Trackpoint>
            <Time>2022-08-27T02:17:37.000Z</Time>
            <Position>
              <LatitudeDegrees>50.2103345096111297607421875</LatitudeDegrees>
              <LongitudeDegrees>16.99020716361701488494873046875</LongitudeDegrees>
            </Position>
            <AltitudeMeters>1001</AltitudeMeters>
            <DistanceMeters>22799.370129079</DistanceMeters>
          </Trackpoint>
          <Trackpoint>
            <Time>2022-08-27T02:17:38.000Z</Time>
            <Position>
              <LatitudeDegrees>50.21033920347690582275390625</LatitudeDegrees>
              <LongitudeDegrees>16.99019626714289188385009765625</LongitudeDegrees>
            </Position>
            <AltitudeMeters>1001</AltitudeMeters>
            <DistanceMeters>22800.310845557</DistanceMeters>
          </Trackpoint>
          <Trackpoint>
            <Time>2022-08-27T02:17:44.000Z</Time>
            <Position>
              <LatitudeDegrees>50.21034657955169677734375</LatitudeDegrees>
              <LongitudeDegrees>16.99012803845107555389404296875</LongitudeDegrees>
            </Position>
            <AltitudeMeters>1001.4000244140625</AltitudeMeters>
            <DistanceMeters>22805.239426045</DistanceMeters>
          </Trackpoint>
          <Trackpoint>
            <Time>2022-08-27T02:17:48.000Z</Time>
            <Position>
              <LatitudeDegrees>50.21034733392298221588134765625</LatitudeDegrees>
              <LongitudeDegrees>16.99008093215525150299072265625</LongitudeDegrees>
            </Position>
            <AltitudeMeters>1002</AltitudeMeters>
            <DistanceMeters>22808.595093688</DistanceMeters>
          </Trackpoint>
          <Trackpoint>
            <Time>2022-08-27T02:17:52.000Z</Time>
            <Position>
              <LatitudeDegrees>50.21034649573266506195068359375</LatitudeDegrees>
              <LongitudeDegrees>16.99003080837428569793701171875</LongitudeDegrees>
            </Position>
            <AltitudeMeters>1002.5999755859375</AltitudeMeters>
            <DistanceMeters>22812.167137643</DistanceMeters>
          </Trackpoint>
          <Trackpoint>
            <Time>2022-08-27T02:17:59.000Z</Time>
            <Position>
              <LatitudeDegrees>50.21033425815403461456298828125</LatitudeDegrees>
              <LongitudeDegrees>16.98996827937662601470947265625</LongitudeDegrees>
            </Position>
            <AltitudeMeters>1002.79998779296875</AltitudeMeters>
            <DistanceMeters>22816.82635472</DistanceMeters>
          </Trackpoint>
          <Trackpoint>
            <Time>2022-08-27T02:18:09.000Z</Time>
            <Position>
              <LatitudeDegrees>50.21031950600445270538330078125</LatitudeDegrees>
              <LongitudeDegrees>16.98995838873088359832763671875</LongitudeDegrees>
            </Position>
            <AltitudeMeters>1002.5999755859375</AltitudeMeters>
            <DistanceMeters>22818.614271681</DistanceMeters>
          </Trackpoint>
          <Trackpoint>
            <Time>2022-08-27T02:18:17.000Z</Time>
            <Position>
              <LatitudeDegrees>50.21032218821346759796142578125</LatitudeDegrees>
              <LongitudeDegrees>16.9899489171802997589111328125</LongitudeDegrees>
            </Position>
            <AltitudeMeters>1002.5999755859375</AltitudeMeters>
            <DistanceMeters>22819.356454046</DistanceMeters>
          </Trackpoint>
          <Trackpoint>
            <Time>2022-08-27T02:18:26.000Z</Time>
            <Position>
              <LatitudeDegrees>50.21033090539276599884033203125</LatitudeDegrees>
              <LongitudeDegrees>16.98993542231619358062744140625</LongitudeDegrees>
            </Position>
            <AltitudeMeters>1002.79998779296875</AltitudeMeters>
            <DistanceMeters>22820.726948811</DistanceMeters>
          </Trackpoint>
          <Trackpoint>
            <Time>2022-08-27T02:18:32.000Z</Time>
            <Position>
              <LatitudeDegrees>50.210355632007122039794921875</LatitudeDegrees>
              <LongitudeDegrees>16.98994698934257030487060546875</LongitudeDegrees>
            </Position>
            <AltitudeMeters>1002.79998779296875</AltitudeMeters>
            <DistanceMeters>22823.599837578</DistanceMeters>
          </Trackpoint>
          <Trackpoint>
            <Time>2022-08-27T02:18:34.000Z</Time>
            <Position>
              <LatitudeDegrees>50.2103655226528644561767578125</LatitudeDegrees>
              <LongitudeDegrees>16.989965848624706268310546875</LongitudeDegrees>
            </Position>
            <AltitudeMeters>1002.79998779296875</AltitudeMeters>
            <DistanceMeters>22825.339112027</DistanceMeters>
          </Trackpoint>
          <Trackpoint>
            <Time>2022-08-27T02:18:41.000Z</Time>
            <Position>
              <LatitudeDegrees>50.21037600003182888031005859375</LatitudeDegrees>
              <LongitudeDegrees>16.989982612431049346923828125</LongitudeDegrees>
            </Position>
            <AltitudeMeters>1003</AltitudeMeters>
            <DistanceMeters>22827.012229984</DistanceMeters>
          </Trackpoint>
          <Trackpoint>
            <Time>2022-08-27T02:18:49.000Z</Time>
            <Position>
              <LatitudeDegrees>50.2103832922875881195068359375</LatitudeDegrees>
              <LongitudeDegrees>16.989976577460765838623046875</LongitudeDegrees>
            </Position>
            <AltitudeMeters>1003</AltitudeMeters>
            <DistanceMeters>22827.933548162</DistanceMeters>
          </Trackpoint>
          <Trackpoint>
            <Time>2022-08-27T02:19:21.000Z</Time>
            <Position>
              <LatitudeDegrees>50.21038505248725414276123046875</LatitudeDegrees>
              <LongitudeDegrees>16.98997557163238525390625</LongitudeDegrees>
            </Position>
            <AltitudeMeters>1002.5999755859375</AltitudeMeters>
            <DistanceMeters>22828.146034356</DistanceMeters>
          </Trackpoint>
          <Trackpoint>
            <Time>2022-08-27T02:20:12.000Z</Time>
            <Position>
              <LatitudeDegrees>50.210384465754032135009765625</LatitudeDegrees>
              <LongitudeDegrees>16.98997230269014835357666015625</LongitudeDegrees>
            </Position>
            <AltitudeMeters>1002.79998779296875</AltitudeMeters>
            <DistanceMeters>22828.39745141</DistanceMeters>
          </Trackpoint>
          <Trackpoint>
            <Time>2022-08-27T02:20:52.000Z</Time>
            <Position>
              <LatitudeDegrees>50.21038480103015899658203125</LatitudeDegrees>
              <LongitudeDegrees>16.9899715483188629150390625</LongitudeDegrees>
            </Position>
            <AltitudeMeters>1002.79998779296875</AltitudeMeters>
            <DistanceMeters>22828.492478124</DistanceMeters>
          </Trackpoint>
          <Trackpoint>
            <Time>2022-08-27T02:21:51.000Z</Time>
            <Position>
              <LatitudeDegrees>50.21038756705820560455322265625</LatitudeDegrees>
              <LongitudeDegrees>16.9899710454046726226806640625</LongitudeDegrees>
            </Position>
            <AltitudeMeters>1003.20001220703125</AltitudeMeters>
            <DistanceMeters>22828.79297898</DistanceMeters>
          </Trackpoint>
          <Trackpoint>
            <Time>2022-08-27T02:22:07.000Z</Time>
            <Position>
              <LatitudeDegrees>50.210388489067554473876953125</LatitudeDegrees>
              <LongitudeDegrees>16.9899710454046726226806640625</LongitudeDegrees>
            </Position>
            <AltitudeMeters>1003.20001220703125</AltitudeMeters>
            <DistanceMeters>22828.888005694</DistanceMeters>
          </Trackpoint>
          <Trackpoint>
            <Time>2022-08-27T02:22:53.000Z</Time>
            <Position>
              <LatitudeDegrees>50.21038941107690334320068359375</LatitudeDegrees>
              <LongitudeDegrees>16.989971213042736053466796875</LongitudeDegrees>
            </Position>
            <AltitudeMeters>1003.79998779296875</AltitudeMeters>
            <DistanceMeters>22828.888005694</DistanceMeters>
          </Trackpoint>
          <Trackpoint>
            <Time>2022-08-27T02:23:43.000Z</Time>
            <Position>
              <LatitudeDegrees>50.210388489067554473876953125</LatitudeDegrees>
              <LongitudeDegrees>16.9899740628898143768310546875</LongitudeDegrees>
            </Position>
            <AltitudeMeters>1004</AltitudeMeters>
            <DistanceMeters>22829.100491887</DistanceMeters>
          </Trackpoint>
          <Trackpoint>
            <Time>2022-08-27T02:23:53.000Z</Time>
            <Position>
              <LatitudeDegrees>50.2103916741907596588134765625</LatitudeDegrees>
              <LongitudeDegrees>16.98996928520500659942626953125</LongitudeDegrees>
            </Position>
            <AltitudeMeters>1003.79998779296875</AltitudeMeters>
            <DistanceMeters>22829.585034958</DistanceMeters>
          </Trackpoint>
          <Trackpoint>
            <Time>2022-08-27T02:24:10.000Z</Time>
            <Position>
              <LatitudeDegrees>50.2104007266461849212646484375</LatitudeDegrees>
              <LongitudeDegrees>16.98997129686176776885986328125</LongitudeDegrees>
            </Position>
            <AltitudeMeters>1003.79998779296875</AltitudeMeters>
            <DistanceMeters>22830.599642624</DistanceMeters>
          </Trackpoint>
          <Trackpoint>
            <Time>2022-08-27T02:24:26.000Z</Time>
            <Position>
              <LatitudeDegrees>50.21041430532932281494140625</LatitudeDegrees>
              <LongitudeDegrees>16.98997112922370433807373046875</LongitudeDegrees>
            </Position>
            <AltitudeMeters>1004</AltitudeMeters>
            <DistanceMeters>22832.111135045</DistanceMeters>
          </Trackpoint>
          <Trackpoint>
            <Time>2022-08-27T02:24:42.000Z</Time>
            <Position>
              <LatitudeDegrees>50.210427381098270416259765625</LatitudeDegrees>
              <LongitudeDegrees>16.989972554147243499755859375</LongitudeDegrees>
            </Position>
            <AltitudeMeters>1004</AltitudeMeters>
            <DistanceMeters>22833.570963131</DistanceMeters>
          </Trackpoint>
          <Trackpoint>
            <Time>2022-08-27T02:24:50.000Z</Time>
            <Position>
              <LatitudeDegrees>50.21043014712631702423095703125</LatitudeDegrees>
              <LongitudeDegrees>16.98997112922370433807373046875</LongitudeDegrees>
            </Position>
            <AltitudeMeters>1004</AltitudeMeters>
            <DistanceMeters>22833.900145326</DistanceMeters>
          </Trackpoint>
          <Trackpoint>
            <Time>2022-08-27T02:24:55.000Z</Time>
            <Position>
              <LatitudeDegrees>50.2104302309453487396240234375</LatitudeDegrees>
              <LongitudeDegrees>16.9899703748524188995361328125</LongitudeDegrees>
            </Position>
            <AltitudeMeters>1004.20001220703125</AltitudeMeters>
            <DistanceMeters>22833.99517204</DistanceMeters>
          </Trackpoint>
          <Trackpoint>
            <Time>2022-08-27T02:25:15.000Z</Time>
            <Position>
              <LatitudeDegrees>50.21043132059276103973388671875</LatitudeDegrees>
              <LongitudeDegrees>16.98997012339532375335693359375</LongitudeDegrees>
            </Position>
            <AltitudeMeters>1004.20001220703125</AltitudeMeters>
            <DistanceMeters>22834.129560109</DistanceMeters>
          </Trackpoint>
          <Trackpoint>
            <Time>2022-08-27T02:25:26.000Z</Time>
            <Position>
              <LatitudeDegrees>50.2104416303336620330810546875</LatitudeDegrees>
              <LongitudeDegrees>16.98996727354824542999267578125</LongitudeDegrees>
            </Position>
            <AltitudeMeters>1004.20001220703125</AltitudeMeters>
            <DistanceMeters>22835.293394919</DistanceMeters>
          </Trackpoint>
          <Trackpoint>
            <Time>2022-08-27T02:25:41.000Z</Time>
            <Position>
              <LatitudeDegrees>50.2104593999683856964111328125</LatitudeDegrees>
              <LongitudeDegrees>16.98996928520500659942626953125</LongitudeDegrees>
            </Position>
            <AltitudeMeters>1004.20001220703125</AltitudeMeters>
            <DistanceMeters>22837.277610968</DistanceMeters>
          </Trackpoint>
          <Trackpoint>
            <Time>2022-08-27T02:25:58.000Z</Time>
            <Position>
              <LatitudeDegrees>50.2104704640805721282958984375</LatitudeDegrees>
              <LongitudeDegrees>16.98997247032821178436279296875</LongitudeDegrees>
            </Position>
            <AltitudeMeters>1004.20001220703125</AltitudeMeters>
            <DistanceMeters>22838.531099421</DistanceMeters>
          </Trackpoint>
          <Trackpoint>
            <Time>2022-08-27T02:26:15.000Z</Time>
            <Position>
              <LatitudeDegrees>50.21047675050795078277587890625</LatitudeDegrees>
              <LongitudeDegrees>16.98996945284307003021240234375</LongitudeDegrees>
            </Position>
            <AltitudeMeters>1004.20001220703125</AltitudeMeters>
            <DistanceMeters>22839.267173186</DistanceMeters>
          </Trackpoint>
          <Trackpoint>
            <Time>2022-08-27T02:26:27.000Z</Time>
            <Position>
              <LatitudeDegrees>50.21047825925052165985107421875</LatitudeDegrees>
              <LongitudeDegrees>16.98996794410049915313720703125</LongitudeDegrees>
            </Position>
            <AltitudeMeters>1004.20001220703125</AltitudeMeters>
            <DistanceMeters>22839.457226614</DistanceMeters>
          </Trackpoint>
          <Trackpoint>
            <Time>2022-08-27T02:26:40.000Z</Time>
            <Position>
              <LatitudeDegrees>50.21047624759376049041748046875</LatitudeDegrees>
              <LongitudeDegrees>16.9899697043001651763916015625</LongitudeDegrees>
            </Position>
            <AltitudeMeters>1004.4000244140625</AltitudeMeters>
            <DistanceMeters>22839.689993576</DistanceMeters>
          </Trackpoint>
          <Trackpoint>
            <Time>2022-08-27T02:27:20.000Z</Time>
            <Position>
              <LatitudeDegrees>50.210478007793426513671875</LatitudeDegrees>
              <LongitudeDegrees>16.98996878229081630706787109375</LongitudeDegrees>
            </Position>
            <AltitudeMeters>1004.4000244140625</AltitudeMeters>
            <DistanceMeters>22839.880047005</DistanceMeters>
          </Trackpoint>
          <Trackpoint>
            <Time>2022-08-27T02:27:41.000Z</Time>
            <Position>
              <LatitudeDegrees>50.2104862220585346221923828125</LatitudeDegrees>
              <LongitudeDegrees>16.9899737276136875152587890625</LongitudeDegrees>
            </Position>
            <AltitudeMeters>1004.4000244140625</AltitudeMeters>
            <DistanceMeters>22840.85840691</DistanceMeters>
          </Trackpoint>
          <Trackpoint>
            <Time>2022-08-27T02:27:54.000Z</Time>
            <Position>
              <LatitudeDegrees>50.21048798225820064544677734375</LatitudeDegrees>
              <LongitudeDegrees>16.9899794273078441619873046875</LongitudeDegrees>
            </Position>
            <AltitudeMeters>1004.4000244140625</AltitudeMeters>
            <DistanceMeters>22841.314139022</DistanceMeters>
          </Trackpoint>
          <Trackpoint>
            <Time>2022-08-27T02:28:08.000Z</Time>
            <Position>
              <LatitudeDegrees>50.2104895748198032379150390625</LatitudeDegrees>
              <LongitudeDegrees>16.989986635744571685791015625</LongitudeDegrees>
            </Position>
            <AltitudeMeters>1004.4000244140625</AltitudeMeters>
            <DistanceMeters>22841.843225376</DistanceMeters>
          </Trackpoint>
          <Trackpoint>
            <Time>2022-08-27T02:28:26.000Z</Time>
            <Position>
              <LatitudeDegrees>50.2104889042675495147705078125</LatitudeDegrees>
              <LongitudeDegrees>16.98998822830617427825927734375</LongitudeDegrees>
            </Position>
            <AltitudeMeters>1004.4000244140625</AltitudeMeters>
            <DistanceMeters>22841.93825209</DistanceMeters>
          </Trackpoint>
          <Trackpoint>
            <Time>2022-08-27T02:28:31.000Z</Time>
            <Position>
              <LatitudeDegrees>50.21048865281045436859130859375</LatitudeDegrees>
              <LongitudeDegrees>16.989988647401332855224609375</LongitudeDegrees>
            </Position>
            <AltitudeMeters>1004.5999755859375</AltitudeMeters>
            <DistanceMeters>22841.93825209</DistanceMeters>
          </Trackpoint>
          <Trackpoint>
            <Time>2022-08-27T02:28:52.000Z</Time>
            <Position>
              <LatitudeDegrees>50.2104878984391689300537109375</LatitudeDegrees>
              <LongitudeDegrees>16.9899894855916500091552734375</LongitudeDegrees>
            </Position>
            <AltitudeMeters>1004.5999755859375</AltitudeMeters>
            <DistanceMeters>22841.93825209</DistanceMeters>
          </Trackpoint>
          <Trackpoint>
            <Time>2022-08-27T02:29:20.000Z</Time>
            <Position>
              <LatitudeDegrees>50.21048697642982006072998046875</LatitudeDegrees>
              <LongitudeDegrees>16.9899911619722843170166015625</LongitudeDegrees>
            </Position>
            <AltitudeMeters>1004.4000244140625</AltitudeMeters>
            <DistanceMeters>22842.072640159</DistanceMeters>
          </Trackpoint>
          <Trackpoint>
            <Time>2022-08-27T02:29:40.000Z</Time>
            <Position>
              <LatitudeDegrees>50.21048580296337604522705078125</LatitudeDegrees>
              <LongitudeDegrees>16.98999241925776004791259765625</LongitudeDegrees>
            </Position>
            <AltitudeMeters>1004.4000244140625</AltitudeMeters>
            <DistanceMeters>22842.207028227</DistanceMeters>
          </Trackpoint>
          <Trackpoint>
            <Time>2022-08-27T02:30:03.000Z</Time>
            <Position>
              <LatitudeDegrees>50.21048530004918575286865234375</LatitudeDegrees>
              <LongitudeDegrees>16.989994682371616363525390625</LongitudeDegrees>
            </Position>
            <AltitudeMeters>1004.5999755859375</AltitudeMeters>
            <DistanceMeters>22842.397081656</DistanceMeters>
          </Trackpoint>
          <Trackpoint>
            <Time>2022-08-27T02:30:13.000Z</Time>
            <Position>
              <LatitudeDegrees>50.21048898808658123016357421875</LatitudeDegrees>
              <LongitudeDegrees>16.9899992085993289947509765625</LongitudeDegrees>
            </Position>
            <AltitudeMeters>1004.5999755859375</AltitudeMeters>
            <DistanceMeters>22842.917564406</DistanceMeters>
          </Trackpoint>
          <Trackpoint>
            <Time>2022-08-27T02:30:26.000Z</Time>
            <Position>
              <LatitudeDegrees>50.21049284376204013824462890625</LatitudeDegrees>
              <LongitudeDegrees>16.9899983704090118408203125</LongitudeDegrees>
            </Position>
            <AltitudeMeters>1004.79998779296875</AltitudeMeters>
            <DistanceMeters>22843.353031517</DistanceMeters>
          </Trackpoint>
          <Trackpoint>
            <Time>2022-08-27T02:30:43.000Z</Time>
            <Position>
              <LatitudeDegrees>50.21049343049526214599609375</LatitudeDegrees>
              <LongitudeDegrees>16.98999694548547267913818359375</LongitudeDegrees>
            </Position>
            <AltitudeMeters>1004.79998779296875</AltitudeMeters>
            <DistanceMeters>22843.353031517</DistanceMeters>
          </Trackpoint>
          <Trackpoint>
            <Time>2022-08-27T02:30:51.000Z</Time>
            <Position>
              <LatitudeDegrees>50.21049686707556247711181640625</LatitudeDegrees>
              <LongitudeDegrees>16.98999761603772640228271484375</LongitudeDegrees>
            </Position>
            <AltitudeMeters>1004.79998779296875</AltitudeMeters>
            <DistanceMeters>22843.733138375</DistanceMeters>
          </Trackpoint>
          <Trackpoint>
            <Time>2022-08-27T02:31:15.000Z</Time>
            <Position>
              <LatitudeDegrees>50.21049669943749904632568359375</LatitudeDegrees>
              <LongitudeDegrees>16.9899978674948215484619140625</LongitudeDegrees>
            </Position>
            <AltitudeMeters>1004.79998779296875</AltitudeMeters>
            <DistanceMeters>22843.733138375</DistanceMeters>
          </Trackpoint>
          <Trackpoint>
            <Time>2022-08-27T02:31:43.000Z</Time>
            <Position>
              <LatitudeDegrees>50.21049502305686473846435546875</LatitudeDegrees>
              <LongitudeDegrees>16.98999635875225067138671875</LongitudeDegrees>
            </Position>
            <AltitudeMeters>1004.5999755859375</AltitudeMeters>
            <DistanceMeters>22843.923191804</DistanceMeters>
          </Trackpoint>
          <Trackpoint>
            <Time>2022-08-27T02:32:06.000Z</Time>
            <Position>
              <LatitudeDegrees>50.21049368195235729217529296875</LatitudeDegrees>
              <LongitudeDegrees>16.98999560438096523284912109375</LongitudeDegrees>
            </Position>
            <AltitudeMeters>1004.4000244140625</AltitudeMeters>
            <DistanceMeters>22844.057579872</DistanceMeters>
          </Trackpoint>
          <Trackpoint>
            <Time>2022-08-27T02:32:38.000Z</Time>
            <Position>
              <LatitudeDegrees>50.2104919217526912689208984375</LatitudeDegrees>
              <LongitudeDegrees>16.98999367654323577880859375</LongitudeDegrees>
            </Position>
            <AltitudeMeters>1004.4000244140625</AltitudeMeters>
            <DistanceMeters>22844.270066065</DistanceMeters>
          </Trackpoint>
          <Trackpoint>
            <Time>2022-08-27T02:32:58.000Z</Time>
            <Position>
              <LatitudeDegrees>50.21049217320978641510009765625</LatitudeDegrees>
              <LongitudeDegrees>16.989994011819362640380859375</LongitudeDegrees>
            </Position>
            <AltitudeMeters>1004.4000244140625</AltitudeMeters>
            <DistanceMeters>22844.270066065</DistanceMeters>
          </Trackpoint>
          <Trackpoint>
            <Time>2022-08-27T02:33:34.000Z</Time>
            <Position>
              <LatitudeDegrees>50.210488401353359222412109375</LatitudeDegrees>
              <LongitudeDegrees>16.98999241925776004791259765625</LongitudeDegrees>
            </Position>
            <AltitudeMeters>1004.4000244140625</AltitudeMeters>
            <DistanceMeters>22844.705533177</DistanceMeters>
          </Trackpoint>
          <Trackpoint>
            <Time>2022-08-27T02:33:56.000Z</Time>
            <Position>
              <LatitudeDegrees>50.2104875631630420684814453125</LatitudeDegrees>
              <LongitudeDegrees>16.989991664886474609375</LongitudeDegrees>
            </Position>
            <AltitudeMeters>1004.4000244140625</AltitudeMeters>
            <DistanceMeters>22844.839921245</DistanceMeters>
          </Trackpoint>
          <Trackpoint>
            <Time>2022-08-27T02:34:15.000Z</Time>
            <Position>
              <LatitudeDegrees>50.21048630587756633758544921875</LatitudeDegrees>
              <LongitudeDegrees>16.9899911619722843170166015625</LongitudeDegrees>
            </Position>
            <AltitudeMeters>1004.20001220703125</AltitudeMeters>
            <DistanceMeters>22844.974309313</DistanceMeters>
          </Trackpoint>
          <Trackpoint>
            <Time>2022-08-27T02:34:49.000Z</Time>
            <Position>
              <LatitudeDegrees>50.21048404276371002197265625</LatitudeDegrees>
              <LongitudeDegrees>16.9899908266961574554443359375</LongitudeDegrees>
            </Position>
            <AltitudeMeters>1004.4000244140625</AltitudeMeters>
            <DistanceMeters>22845.24308545</DistanceMeters>
          </Trackpoint>
          <Trackpoint>
            <Time>2022-08-27T02:35:17.000Z</Time>
            <Position>
              <LatitudeDegrees>50.21048270165920257568359375</LatitudeDegrees>
              <LongitudeDegrees>16.98998889885842800140380859375</LongitudeDegrees>
            </Position>
            <AltitudeMeters>1004.5999755859375</AltitudeMeters>
            <DistanceMeters>22845.455571643</DistanceMeters>
          </Trackpoint>
          <Trackpoint>
            <Time>2022-08-27T02:35:32.000Z</Time>
            <Position>
              <LatitudeDegrees>50.21048144437372684478759765625</LatitudeDegrees>
              <LongitudeDegrees>16.9899901561439037322998046875</LongitudeDegrees>
            </Position>
            <AltitudeMeters>1004.20001220703125</AltitudeMeters>
            <DistanceMeters>22845.645625071</DistanceMeters>
          </Trackpoint>
          <Trackpoint>
            <Time>2022-08-27T02:35:59.000Z</Time>
            <Position>
              <LatitudeDegrees>50.2104805223643779754638671875</LatitudeDegrees>
              <LongitudeDegrees>16.9899911619722843170166015625</LongitudeDegrees>
            </Position>
            <AltitudeMeters>1004.4000244140625</AltitudeMeters>
            <DistanceMeters>22845.78001314</DistanceMeters>
          </Trackpoint>
          <Trackpoint>
            <Time>2022-08-27T02:36:20.000Z</Time>
            <Position>
              <LatitudeDegrees>50.2104791812598705291748046875</LatitudeDegrees>
              <LongitudeDegrees>16.9899898208677768707275390625</LongitudeDegrees>
            </Position>
            <AltitudeMeters>1004.4000244140625</AltitudeMeters>
            <DistanceMeters>22845.944604237</DistanceMeters>
          </Trackpoint>
          <Trackpoint>
            <Time>2022-08-27T02:36:31.000Z</Time>
            <Position>
              <LatitudeDegrees>50.2104805223643779754638671875</LatitudeDegrees>
              <LongitudeDegrees>16.98999158106744289398193359375</LongitudeDegrees>
            </Position>
            <AltitudeMeters>1004.5999755859375</AltitudeMeters>
            <DistanceMeters>22846.134657666</DistanceMeters>
          </Trackpoint>
          <Trackpoint>
            <Time>2022-08-27T02:36:43.000Z</Time>
            <Position>
              <LatitudeDegrees>50.21048136055469512939453125</LatitudeDegrees>
              <LongitudeDegrees>16.98999778367578983306884765625</LongitudeDegrees>
            </Position>
            <AltitudeMeters>1004.5999755859375</AltitudeMeters>
            <DistanceMeters>22846.580372464</DistanceMeters>
          </Trackpoint>
          <Trackpoint>
            <Time>2022-08-27T02:36:56.000Z</Time>
            <Position>
              <LatitudeDegrees>50.21048010326921939849853515625</LatitudeDegrees>
              <LongitudeDegrees>16.99000264517962932586669921875</LongitudeDegrees>
            </Position>
            <AltitudeMeters>1004.5999755859375</AltitudeMeters>
            <DistanceMeters>22846.948409347</DistanceMeters>
          </Trackpoint>
          <Trackpoint>
            <Time>2022-08-27T02:37:01.000Z</Time>
            <Position>
              <LatitudeDegrees>50.210481695830821990966796875</LatitudeDegrees>
              <LongitudeDegrees>16.9900028966367244720458984375</LongitudeDegrees>
            </Position>
            <AltitudeMeters>1004.5999755859375</AltitudeMeters>
            <DistanceMeters>22847.113000444</DistanceMeters>
          </Trackpoint>
          <Trackpoint>
            <Time>2022-08-27T02:37:12.000Z</Time>
            <Position>
              <LatitudeDegrees>50.21048127673566341400146484375</LatitudeDegrees>
              <LongitudeDegrees>16.99000298045575618743896484375</LongitudeDegrees>
            </Position>
            <AltitudeMeters>1004.4000244140625</AltitudeMeters>
            <DistanceMeters>22847.113000444</DistanceMeters>
          </Trackpoint>
          <Trackpoint>
            <Time>2022-08-27T02:37:43.000Z</Time>
            <Position>
              <LatitudeDegrees>50.21047976799309253692626953125</LatitudeDegrees>
              <LongitudeDegrees>16.99000264517962932586669921875</LongitudeDegrees>
            </Position>
            <AltitudeMeters>1004.5999755859375</AltitudeMeters>
            <DistanceMeters>22847.247388512</DistanceMeters>
          </Trackpoint>
          <Trackpoint>
            <Time>2022-08-27T02:38:07.000Z</Time>
            <Position>
              <LatitudeDegrees>50.21048001945018768310546875</LatitudeDegrees>
              <LongitudeDegrees>16.99000365100800991058349609375</LongitudeDegrees>
            </Position>
            <AltitudeMeters>1004.4000244140625</AltitudeMeters>
            <DistanceMeters>22847.38177658</DistanceMeters>
          </Trackpoint>
          <Trackpoint>
            <Time>2022-08-27T02:38:29.000Z</Time>
            <Position>
              <LatitudeDegrees>50.2104788459837436676025390625</LatitudeDegrees>
              <LongitudeDegrees>16.99000398628413677215576171875</LongitudeDegrees>
            </Position>
            <AltitudeMeters>1004.4000244140625</AltitudeMeters>
            <DistanceMeters>22847.516164649</DistanceMeters>
          </Trackpoint>
          <Trackpoint>
            <Time>2022-08-27T02:38:46.000Z</Time>
            <Position>
              <LatitudeDegrees>50.21048027090728282928466796875</LatitudeDegrees>
              <LongitudeDegrees>16.99000549502670764923095703125</LongitudeDegrees>
            </Position>
            <AltitudeMeters>1004.4000244140625</AltitudeMeters>
            <DistanceMeters>22847.706218077</DistanceMeters>
          </Trackpoint>
          <Trackpoint>
            <Time>2022-08-27T02:38:59.000Z</Time>
            <Position>
              <LatitudeDegrees>50.210477672517299652099609375</LatitudeDegrees>
              <LongitudeDegrees>16.9900062493979930877685546875</LongitudeDegrees>
            </Position>
            <AltitudeMeters>1004.4000244140625</AltitudeMeters>
            <DistanceMeters>22848.006718933</DistanceMeters>
          </Trackpoint>
          <Trackpoint>
            <Time>2022-08-27T02:39:08.000Z</Time>
            <Position>
              <LatitudeDegrees>50.210473649203777313232421875</LatitudeDegrees>
              <LongitudeDegrees>16.99000398628413677215576171875</LongitudeDegrees>
            </Position>
            <AltitudeMeters>1004.4000244140625</AltitudeMeters>
            <DistanceMeters>22848.472252858</DistanceMeters>
          </Trackpoint>
          <Trackpoint>
            <Time>2022-08-27T02:39:23.000Z</Time>
            <Position>
              <LatitudeDegrees>50.21047842688858509063720703125</LatitudeDegrees>
              <LongitudeDegrees>16.9900069199502468109130859375</LongitudeDegrees>
            </Position>
            <AltitudeMeters>1004.4000244140625</AltitudeMeters>
            <DistanceMeters>22849.042413144</DistanceMeters>
          </Trackpoint>
          <Trackpoint>
            <Time>2022-08-27T02:39:35.000Z</Time>
            <Position>
              <LatitudeDegrees>50.2104718051850795745849609375</LatitudeDegrees>
              <LongitudeDegrees>16.99000817723572254180908203125</LongitudeDegrees>
            </Position>
            <AltitudeMeters>1004.20001220703125</AltitudeMeters>
            <DistanceMeters>22849.790654241</DistanceMeters>
          </Trackpoint>
          <Trackpoint>
            <Time>2022-08-27T02:39:54.000Z</Time>
            <Position>
              <LatitudeDegrees>50.210467278957366943359375</LatitudeDegrees>
              <LongitudeDegrees>16.9900049082934856414794921875</LongitudeDegrees>
            </Position>
            <AltitudeMeters>1004</AltitudeMeters>
            <DistanceMeters>22850.360814527</DistanceMeters>
          </Trackpoint>
          <Trackpoint>
            <Time>2022-08-27T02:40:05.000Z</Time>
            <Position>
              <LatitudeDegrees>50.210471637547016143798828125</LatitudeDegrees>
              <LongitudeDegrees>16.9900082610547542572021484375</LongitudeDegrees>
            </Position>
            <AltitudeMeters>1004</AltitudeMeters>
            <DistanceMeters>22850.8983668</DistanceMeters>
          </Trackpoint>
          <Trackpoint>
            <Time>2022-08-27T02:40:13.000Z</Time>
            <Position>
              <LatitudeDegrees>50.2104694582521915435791015625</LatitudeDegrees>
              <LongitudeDegrees>16.990001387894153594970703125</LongitudeDegrees>
            </Position>
            <AltitudeMeters>1004</AltitudeMeters>
            <DistanceMeters>22851.435919073</DistanceMeters>
          </Trackpoint>
          <Trackpoint>
            <Time>2022-08-27T02:40:33.000Z</Time>
            <Position>
              <LatitudeDegrees>50.210463590919971466064453125</LatitudeDegrees>
              <LongitudeDegrees>16.99000348336994647979736328125</LongitudeDegrees>
            </Position>
            <AltitudeMeters>1004.4000244140625</AltitudeMeters>
            <DistanceMeters>22852.107859415</DistanceMeters>
          </Trackpoint>
          <Trackpoint>
            <Time>2022-08-27T02:40:55.000Z</Time>
            <Position>
              <LatitudeDegrees>50.21046166308224201202392578125</LatitudeDegrees>
              <LongitudeDegrees>16.9900023937225341796875</LongitudeDegrees>
            </Position>
            <AltitudeMeters>1004.20001220703125</AltitudeMeters>
            <DistanceMeters>22852.340626377</DistanceMeters>
          </Trackpoint>
          <Trackpoint>
            <Time>2022-08-27T02:41:15.000Z</Time>
            <Position>
              <LatitudeDegrees>50.2104604057967662811279296875</LatitudeDegrees>
              <LongitudeDegrees>16.9900109432637691497802734375</LongitudeDegrees>
            </Position>
            <AltitudeMeters>1004</AltitudeMeters>
            <DistanceMeters>22852.97096229</DistanceMeters>
          </Trackpoint>
          <Trackpoint>
            <Time>2022-08-27T02:41:25.000Z</Time>
            <Position>
              <LatitudeDegrees>50.2104607410728931427001953125</LatitudeDegrees>
              <LongitudeDegrees>16.98999099433422088623046875</LongitudeDegrees>
            </Position>
            <AltitudeMeters>1004.20001220703125</AltitudeMeters>
            <DistanceMeters>22854.393191921</DistanceMeters>
          </Trackpoint>
          <Trackpoint>
            <Time>2022-08-27T02:41:31.000Z</Time>
            <Position>
              <LatitudeDegrees>50.2104364335536956787109375</LatitudeDegrees>
              <LongitudeDegrees>16.98997079394757747650146484375</LongitudeDegrees>
            </Position>
            <AltitudeMeters>1004.20001220703125</AltitudeMeters>
            <DistanceMeters>22857.457711378</DistanceMeters>
          </Trackpoint>
          <Trackpoint>
            <Time>2022-08-27T02:41:37.000Z</Time>
            <Position>
              <LatitudeDegrees>50.21040718071162700653076171875</LatitudeDegrees>
              <LongitudeDegrees>16.989961154758930206298828125</LongitudeDegrees>
            </Position>
            <AltitudeMeters>1004.20001220703125</AltitudeMeters>
            <DistanceMeters>22860.785003628</DistanceMeters>
          </Trackpoint>
          <Trackpoint>
            <Time>2022-08-27T02:41:44.000Z</Time>
            <Position>
              <LatitudeDegrees>50.21037784405052661895751953125</LatitudeDegrees>
              <LongitudeDegrees>16.98995084501802921295166015625</LongitudeDegrees>
            </Position>
            <AltitudeMeters>1004</AltitudeMeters>
            <DistanceMeters>22864.131239542</DistanceMeters>
          </Trackpoint>
          <Trackpoint>
            <Time>2022-08-27T02:41:51.000Z</Time>
            <Position>
              <LatitudeDegrees>50.21035269834101200103759765625</LatitudeDegrees>
              <LongitudeDegrees>16.989964507520198822021484375</LongitudeDegrees>
            </Position>
            <AltitudeMeters>1003.79998779296875</AltitudeMeters>
            <DistanceMeters>22867.095402895</DistanceMeters>
          </Trackpoint>
          <Trackpoint>
            <Time>2022-08-27T02:42:00.000Z</Time>
            <Position>
              <LatitudeDegrees>50.210316739976406097412109375</LatitudeDegrees>
              <LongitudeDegrees>16.9900171458721160888671875</LongitudeDegrees>
            </Position>
            <AltitudeMeters>1003.4000244140625</AltitudeMeters>
            <DistanceMeters>22872.579028936</DistanceMeters>
          </Trackpoint>
          <Trackpoint>
            <Time>2022-08-27T02:42:07.000Z</Time>
            <Position>
              <LatitudeDegrees>50.21030433475971221923828125</LatitudeDegrees>
              <LongitudeDegrees>16.990070454776287078857421875</LongitudeDegrees>
            </Position>
            <AltitudeMeters>1003.20001220703125</AltitudeMeters>
            <DistanceMeters>22876.619620255</DistanceMeters>
          </Trackpoint>
          <Trackpoint>
            <Time>2022-08-27T02:42:10.000Z</Time>
            <Position>
              <LatitudeDegrees>50.2102977968752384185791015625</LatitudeDegrees>
              <LongitudeDegrees>16.9900981150567531585693359375</LongitudeDegrees>
            </Position>
            <AltitudeMeters>1003</AltitudeMeters>
            <DistanceMeters>22878.720978716</DistanceMeters>
          </Trackpoint>
          <Trackpoint>
            <Time>2022-08-27T02:42:16.000Z</Time>
            <Position>
              <LatitudeDegrees>50.210300646722316741943359375</LatitudeDegrees>
              <LongitudeDegrees>16.99012435041368007659912109375</LongitudeDegrees>
            </Position>
            <AltitudeMeters>1003</AltitudeMeters>
            <DistanceMeters>22880.616755714</DistanceMeters>
          </Trackpoint>
          <Trackpoint>
            <Time>2022-08-27T02:42:22.000Z</Time>
            <Position>
              <LatitudeDegrees>50.21029721014201641082763671875</LatitudeDegrees>
              <LongitudeDegrees>16.9901701994240283966064453125</LongitudeDegrees>
            </Position>
            <AltitudeMeters>1002.79998779296875</AltitudeMeters>
            <DistanceMeters>22883.904460308</DistanceMeters>
          </Trackpoint>
          <Trackpoint>
            <Time>2022-08-27T02:42:29.000Z</Time>
            <Position>
              <LatitudeDegrees>50.21029067225754261016845703125</LatitudeDegrees>
              <LongitudeDegrees>16.99020766653120517730712890625</LongitudeDegrees>
            </Position>
            <AltitudeMeters>1002.5999755859375</AltitudeMeters>
            <DistanceMeters>22886.671680001</DistanceMeters>
          </Trackpoint>
          <Trackpoint>
            <Time>2022-08-27T02:42:34.000Z</Time>
            <Position>
              <LatitudeDegrees>50.2102867327630519866943359375</LatitudeDegrees>
              <LongitudeDegrees>16.990209929645061492919921875</LongitudeDegrees>
            </Position>
            <AltitudeMeters>1002</AltitudeMeters>
            <DistanceMeters>22887.137213925</DistanceMeters>
          </Trackpoint>
          <Trackpoint>
            <Time>2022-08-27T02:42:38.000Z</Time>
            <Position>
              <LatitudeDegrees>50.210285224020481109619140625</LatitudeDegrees>
              <LongitudeDegrees>16.990233398973941802978515625</LongitudeDegrees>
            </Position>
            <AltitudeMeters>1001.79998779296875</AltitudeMeters>
            <DistanceMeters>22888.815720359</DistanceMeters>
          </Trackpoint>
          <Trackpoint>
            <Time>2022-08-27T02:42:50.000Z</Time>
            <Position>
              <LatitudeDegrees>50.2102947793900966644287109375</LatitudeDegrees>
              <LongitudeDegrees>16.99024706147611141204833984375</LongitudeDegrees>
            </Position>
            <AltitudeMeters>1001.79998779296875</AltitudeMeters>
            <DistanceMeters>22890.256871837</DistanceMeters>
          </Trackpoint>
          <Trackpoint>
            <Time>2022-08-27T02:43:01.000Z</Time>
            <Position>
              <LatitudeDegrees>50.21029922179877758026123046875</LatitudeDegrees>
              <LongitudeDegrees>16.99024924077093601226806640625</LongitudeDegrees>
            </Position>
            <AltitudeMeters>1001.79998779296875</AltitudeMeters>
            <DistanceMeters>22890.777354587</DistanceMeters>
          </Trackpoint>
          <Trackpoint>
            <Time>2022-08-27T02:43:15.000Z</Time>
            <Position>
              <LatitudeDegrees>50.2102994732558727264404296875</LatitudeDegrees>
              <LongitudeDegrees>16.9902510009706020355224609375</LongitudeDegrees>
            </Position>
            <AltitudeMeters>1001.79998779296875</AltitudeMeters>
            <DistanceMeters>22890.872381302</DistanceMeters>
          </Trackpoint>
          <Trackpoint>
            <Time>2022-08-27T02:43:27.000Z</Time>
            <Position>
              <LatitudeDegrees>50.210279189050197601318359375</LatitudeDegrees>
              <LongitudeDegrees>16.9903028011322021484375</LongitudeDegrees>
            </Position>
            <AltitudeMeters>1001.79998779296875</AltitudeMeters>
            <DistanceMeters>22895.197923856</DistanceMeters>
          </Trackpoint>
          <Trackpoint>
            <Time>2022-08-27T02:43:34.000Z</Time>
            <Position>
              <LatitudeDegrees>50.2102314122021198272705078125</LatitudeDegrees>
              <LongitudeDegrees>16.990359127521514892578125</LongitudeDegrees>
            </Position>
            <AltitudeMeters>1001.5999755859375</AltitudeMeters>
            <DistanceMeters>22901.859289756</DistanceMeters>
          </Trackpoint>
          <Trackpoint>
            <Time>2022-08-27T02:43:35.000Z</Time>
            <Position>
              <LatitudeDegrees>50.2102223597466945648193359375</LatitudeDegrees>
              <LongitudeDegrees>16.990358792245388031005859375</LongitudeDegrees>
            </Position>
            <AltitudeMeters>1001.4000244140625</AltitudeMeters>
            <DistanceMeters>22902.864957972</DistanceMeters>
          </Trackpoint>
          <Trackpoint>
            <Time>2022-08-27T02:43:37.000Z</Time>
            <Position>
              <LatitudeDegrees>50.21020433865487575531005859375</LatitudeDegrees>
              <LongitudeDegrees>16.99034772813320159912109375</LongitudeDegrees>
            </Position>
            <AltitudeMeters>1001.4000244140625</AltitudeMeters>
            <DistanceMeters>22905.019362598</DistanceMeters>
          </Trackpoint>
          <Trackpoint>
            <Time>2022-08-27T02:43:40.000Z</Time>
            <Position>
              <LatitudeDegrees>50.2101794444024562835693359375</LatitudeDegrees>
              <LongitudeDegrees>16.99031780473887920379638671875</LongitudeDegrees>
            </Position>
            <AltitudeMeters>1001.4000244140625</AltitudeMeters>
            <DistanceMeters>22908.513452373</DistanceMeters>
          </Trackpoint>
          <Trackpoint>
            <Time>2022-08-27T02:43:42.000Z</Time>
            <Position>
              <LatitudeDegrees>50.2101636864244937896728515625</LatitudeDegrees>
              <LongitudeDegrees>16.99030690826475620269775390625</LongitudeDegrees>
            </Position>
            <AltitudeMeters>1001.20001220703125</AltitudeMeters>
            <DistanceMeters>22910.43054421</DistanceMeters>
          </Trackpoint>
          <Trackpoint>
            <Time>2022-08-27T02:43:44.000Z</Time>
            <Position>
              <LatitudeDegrees>50.2101509459316730499267578125</LatitudeDegrees>
              <LongitudeDegrees>16.99030539952218532562255859375</LongitudeDegrees>
            </Position>
            <AltitudeMeters>1001</AltitudeMeters>
            <DistanceMeters>22911.852773841</DistanceMeters>
          </Trackpoint>
          <Trackpoint>
            <Time>2022-08-27T02:43:48.000Z</Time>
            <Position>
              <LatitudeDegrees>50.2101306617259979248046875</LatitudeDegrees>
              <LongitudeDegrees>16.990305483341217041015625</LongitudeDegrees>
            </Position>
            <AltitudeMeters>1000.5999755859375</AltitudeMeters>
            <DistanceMeters>22914.113531074</DistanceMeters>
          </Trackpoint>
          <Trackpoint>
            <Time>2022-08-27T02:44:04.000Z</Time>
            <Position>
              <LatitudeDegrees>50.21007928065955638885498046875</LatitudeDegrees>
              <LongitudeDegrees>16.990358792245388031005859375</LongitudeDegrees>
            </Position>
            <AltitudeMeters>1000.4000244140625</AltitudeMeters>
            <DistanceMeters>22920.978512426</DistanceMeters>
          </Trackpoint>
          <Trackpoint>
            <Time>2022-08-27T02:44:17.000Z</Time>
            <Position>
              <LatitudeDegrees>50.21003485657274723052978515625</LatitudeDegrees>
              <LongitudeDegrees>16.99046172201633453369140625</LongitudeDegrees>
            </Position>
            <AltitudeMeters>1000.4000244140625</AltitudeMeters>
            <DistanceMeters>22929.821614936</DistanceMeters>
          </Trackpoint>
          <Trackpoint>
            <Time>2022-08-27T02:44:19.000Z</Time>
            <Position>
              <LatitudeDegrees>50.21022923290729522705078125</LatitudeDegrees>
              <LongitudeDegrees>16.9902945868670940399169921875</LongitudeDegrees>
            </Position>
            <AltitudeMeters>1000.4000244140625</AltitudeMeters>
            <DistanceMeters>22954.515399622</DistanceMeters>
          </Trackpoint>
          <Trackpoint>
            <Time>2022-08-27T02:44:20.000Z</Time>
            <Position>
              <LatitudeDegrees>50.21021221764385700225830078125</LatitudeDegrees>
              <LongitudeDegrees>16.9903026334941387176513671875</LongitudeDegrees>
            </Position>
            <AltitudeMeters>1000.4000244140625</AltitudeMeters>
            <DistanceMeters>22956.495059486</DistanceMeters>
          </Trackpoint>
          <Trackpoint>
            <Time>2022-08-27T02:44:27.000Z</Time>
            <Position>
              <LatitudeDegrees>50.2101154066622257232666015625</LatitudeDegrees>
              <LongitudeDegrees>16.99035200290381908416748046875</LongitudeDegrees>
            </Position>
            <AltitudeMeters>1002</AltitudeMeters>
            <DistanceMeters>22967.829559809</DistanceMeters>
          </Trackpoint>
          <Trackpoint>
            <Time>2022-08-27T02:44:33.000Z</Time>
            <Position>
              <LatitudeDegrees>50.21010392345488071441650390625</LatitudeDegrees>
              <LongitudeDegrees>16.99036692269146442413330078125</LongitudeDegrees>
            </Position>
            <AltitudeMeters>1003</AltitudeMeters>
            <DistanceMeters>22969.489130029</DistanceMeters>
          </Trackpoint>
          <Trackpoint>
            <Time>2022-08-27T02:44:43.000Z</Time>
            <Position>
              <LatitudeDegrees>50.2101051807403564453125</LatitudeDegrees>
              <LongitudeDegrees>16.99035351164638996124267578125</LongitudeDegrees>
            </Position>
            <AltitudeMeters>1003.4000244140625</AltitudeMeters>
            <DistanceMeters>22970.453545849</DistanceMeters>
          </Trackpoint>
          <Trackpoint>
            <Time>2022-08-27T02:45:01.000Z</Time>
            <Position>
              <LatitudeDegrees>50.21004877053201198577880859375</LatitudeDegrees>
              <LongitudeDegrees>16.990384943783283233642578125</LongitudeDegrees>
            </Position>
            <AltitudeMeters>1003.20001220703125</AltitudeMeters>
            <DistanceMeters>22977.118977276</DistanceMeters>
          </Trackpoint>
          <Trackpoint>
            <Time>2022-08-27T02:45:19.000Z</Time>
            <Position>
              <LatitudeDegrees>50.210022367537021636962890625</LatitudeDegrees>
              <LongitudeDegrees>16.9904535077512264251708984375</LongitudeDegrees>
            </Position>
            <AltitudeMeters>1003.20001220703125</AltitudeMeters>
            <DistanceMeters>22982.818996139</DistanceMeters>
          </Trackpoint>
          <Trackpoint>
            <Time>2022-08-27T02:45:35.000Z</Time>
            <Position>
              <LatitudeDegrees>50.21003234200179576873779296875</LatitudeDegrees>
              <LongitudeDegrees>16.99050606228411197662353515625</LongitudeDegrees>
            </Position>
            <AltitudeMeters>1003.4000244140625</AltitudeMeters>
            <DistanceMeters>22986.723195037</DistanceMeters>
          </Trackpoint>
          <Trackpoint>
            <Time>2022-08-27T02:45:44.000Z</Time>
            <Position>
              <LatitudeDegrees>50.210004933178424835205078125</LatitudeDegrees>
              <LongitudeDegrees>16.99059708975255489349365234375</LongitudeDegrees>
            </Position>
            <AltitudeMeters>1004.5999755859375</AltitudeMeters>
            <DistanceMeters>22993.889368684</DistanceMeters>
          </Trackpoint>
          <Trackpoint>
            <Time>2022-08-27T02:45:46.000Z</Time>
            <Position>
              <LatitudeDegrees>50.210004933178424835205078125</LatitudeDegrees>
              <LongitudeDegrees>16.990616954863071441650390625</LongitudeDegrees>
            </Position>
            <AltitudeMeters>1005</AltitudeMeters>
            <DistanceMeters>22995.30523484</DistanceMeters>
          </Trackpoint>
          <Trackpoint>
            <Time>2022-08-27T02:45:50.000Z</Time>
            <Position>
              <LatitudeDegrees>50.2100044302642345428466796875</LatitudeDegrees>
              <LongitudeDegrees>16.99063313193619251251220703125</LongitudeDegrees>
            </Position>
            <AltitudeMeters>1005.5999755859375</AltitudeMeters>
            <DistanceMeters>22996.461284715</DistanceMeters>
          </Trackpoint>
          <Trackpoint>
            <Time>2022-08-27T02:46:04.000Z</Time>
            <Position>
              <LatitudeDegrees>50.20997769199311733245849609375</LatitudeDegrees>
              <LongitudeDegrees>16.99062106199562549591064453125</LongitudeDegrees>
            </Position>
            <AltitudeMeters>1006.4000244140625</AltitudeMeters>
            <DistanceMeters>22999.558047732</DistanceMeters>
          </Trackpoint>
          <Trackpoint>
            <Time>2022-08-27T02:46:17.000Z</Time>
            <Position>
              <LatitudeDegrees>50.20996101200580596923828125</LatitudeDegrees>
              <LongitudeDegrees>16.99048049747943878173828125</LongitudeDegrees>
            </Position>
            <AltitudeMeters>1006.5999755859375</AltitudeMeters>
            <DistanceMeters>23009.741436062</DistanceMeters>
          </Trackpoint>
          <Trackpoint>
            <Time>2022-08-27T02:46:35.000Z</Time>
            <Position>
              <LatitudeDegrees>50.20991298370063304901123046875</LatitudeDegrees>
              <LongitudeDegrees>16.99033322744071483612060546875</LongitudeDegrees>
            </Position>
            <AltitudeMeters>1006</AltitudeMeters>
            <DistanceMeters>23021.515165441</DistanceMeters>
          </Trackpoint>
          <Trackpoint>
            <Time>2022-08-27T02:46:54.000Z</Time>
            <Position>
              <LatitudeDegrees>50.20991683937609195709228515625</LatitudeDegrees>
              <LongitudeDegrees>16.99029676616191864013671875</LongitudeDegrees>
            </Position>
            <AltitudeMeters>1005.79998779296875</AltitudeMeters>
            <DistanceMeters>23024.148622999</DistanceMeters>
          </Trackpoint>
          <Trackpoint>
            <Time>2022-08-27T02:47:12.000Z</Time>
            <Position>
              <LatitudeDegrees>50.20989974029362201690673828125</LatitudeDegrees>
              <LongitudeDegrees>16.990314535796642303466796875</LongitudeDegrees>
            </Position>
            <AltitudeMeters>1006</AltitudeMeters>
            <DistanceMeters>23026.433220159</DistanceMeters>
          </Trackpoint>
          <Trackpoint>
            <Time>2022-08-27T02:47:29.000Z</Time>
            <Position>
              <LatitudeDegrees>50.20990560762584209442138671875</LatitudeDegrees>
              <LongitudeDegrees>16.99034127406775951385498046875</LongitudeDegrees>
            </Position>
            <AltitudeMeters>1006.20001220703125</AltitudeMeters>
            <DistanceMeters>23028.449041183</DistanceMeters>
          </Trackpoint>
          <Trackpoint>
            <Time>2022-08-27T02:47:44.000Z</Time>
            <Position>
              <LatitudeDegrees>50.2098096348345279693603515625</LatitudeDegrees>
              <LongitudeDegrees>16.99029408395290374755859375</LongitudeDegrees>
            </Position>
            <AltitudeMeters>1006</AltitudeMeters>
            <DistanceMeters>23039.646882113</DistanceMeters>
          </Trackpoint>
          <Trackpoint>
            <Time>2022-08-27T02:47:58.000Z</Time>
            <Position>
              <LatitudeDegrees>50.20985347218811511993408203125</LatitudeDegrees>
              <LongitudeDegrees>16.99027271009981632232666015625</LongitudeDegrees>
            </Position>
            <AltitudeMeters>1006</AltitudeMeters>
            <DistanceMeters>23044.757164011</DistanceMeters>
          </Trackpoint>
          <Trackpoint>
            <Time>2022-08-27T02:48:12.000Z</Time>
            <Position>
              <LatitudeDegrees>50.20991667173802852630615234375</LatitudeDegrees>
              <LongitudeDegrees>16.99024722911417484283447265625</LongitudeDegrees>
            </Position>
            <AltitudeMeters>1006</AltitudeMeters>
            <DistanceMeters>23052.021581864</DistanceMeters>
          </Trackpoint>
          <Trackpoint>
            <Time>2022-08-27T02:48:27.000Z</Time>
            <Position>
              <LatitudeDegrees>50.20986990071833133697509765625</LatitudeDegrees>
              <LongitudeDegrees>16.9902922399342060089111328125</LongitudeDegrees>
            </Position>
            <AltitudeMeters>1006.20001220703125</AltitudeMeters>
            <DistanceMeters>23058.135131275</DistanceMeters>
          </Trackpoint>
          <Trackpoint>
            <Time>2022-08-27T02:48:42.000Z</Time>
            <Position>
              <LatitudeDegrees>50.20987518131732940673828125</LatitudeDegrees>
              <LongitudeDegrees>16.99028394185006618499755859375</LongitudeDegrees>
            </Position>
            <AltitudeMeters>1006</AltitudeMeters>
            <DistanceMeters>23058.963554965</DistanceMeters>
          </Trackpoint>
          <Trackpoint>
            <Time>2022-08-27T02:48:45.000Z</Time>
            <Position>
              <LatitudeDegrees>50.20987627096474170684814453125</LatitudeDegrees>
              <LongitudeDegrees>16.990284360945224761962890625</LongitudeDegrees>
            </Position>
            <AltitudeMeters>1006</AltitudeMeters>
            <DistanceMeters>23059.097943033</DistanceMeters>
          </Trackpoint>
          <Trackpoint>
            <Time>2022-08-27T05:03:02.000Z</Time>
            <Position>
              <LatitudeDegrees>50.2099782787263393402099609375</LatitudeDegrees>
              <LongitudeDegrees>16.9906308688223361968994140625</LongitudeDegrees>
            </Position>
            <AltitudeMeters>1004.20001220703125</AltitudeMeters>
            <DistanceMeters>23086.266112247</DistanceMeters>
          </Trackpoint>
          <Trackpoint>
            <Time>2022-08-27T05:03:10.000Z</Time>
            <Position>
              <LatitudeDegrees>50.20995053462684154510498046875</LatitudeDegrees>
              <LongitudeDegrees>16.9906422682106494903564453125</LongitudeDegrees>
            </Position>
            <AltitudeMeters>1003</AltitudeMeters>
            <DistanceMeters>23089.457652037</DistanceMeters>
          </Trackpoint>
          <Trackpoint>
            <Time>2022-08-27T05:03:24.000Z</Time>
            <Position>
              <LatitudeDegrees>50.2100108005106449127197265625</LatitudeDegrees>
              <LongitudeDegrees>16.99055585078895092010498046875</LongitudeDegrees>
            </Position>
            <AltitudeMeters>1002.5999755859375</AltitudeMeters>
            <DistanceMeters>23098.561389819</DistanceMeters>
          </Trackpoint>
          <Trackpoint>
            <Time>2022-08-27T05:03:46.000Z</Time>
            <Position>
              <LatitudeDegrees>50.20988456904888153076171875</LatitudeDegrees>
              <LongitudeDegrees>16.9908749498426914215087890625</LongitudeDegrees>
            </Position>
            <AltitudeMeters>999.79998779296875</AltitudeMeters>
            <DistanceMeters>23125.282658587</DistanceMeters>
          </Trackpoint>
          <Trackpoint>
            <Time>2022-08-27T05:03:50.000Z</Time>
            <Position>
              <LatitudeDegrees>50.21001339890062808990478515625</LatitudeDegrees>
              <LongitudeDegrees>16.99074025265872478485107421875</LongitudeDegrees>
            </Position>
            <AltitudeMeters>999.79998779296875</AltitudeMeters>
            <DistanceMeters>23142.535438358</DistanceMeters>
          </Trackpoint>
          <Trackpoint>
            <Time>2022-08-27T05:03:53.000Z</Time>
            <Position>
              <LatitudeDegrees>50.20999060012400150299072265625</LatitudeDegrees>
              <LongitudeDegrees>16.99071108363568782806396484375</LongitudeDegrees>
            </Position>
            <AltitudeMeters>999.79998779296875</AltitudeMeters>
            <DistanceMeters>23145.816269216</DistanceMeters>
          </Trackpoint>
          <Trackpoint>
            <Time>2022-08-27T05:03:58.000Z</Time>
            <Position>
              <LatitudeDegrees>50.21003502421081066131591796875</LatitudeDegrees>
              <LongitudeDegrees>16.9906814955174922943115234375</LongitudeDegrees>
            </Position>
            <AltitudeMeters>999.79998779296875</AltitudeMeters>
            <DistanceMeters>23151.191791946</DistanceMeters>
          </Trackpoint>
          <Trackpoint>
            <Time>2022-08-27T05:04:11.000Z</Time>
            <Position>
              <LatitudeDegrees>50.21012756042182445526123046875</LatitudeDegrees>
              <LongitudeDegrees>16.9906717725098133087158203125</LongitudeDegrees>
            </Position>
            <AltitudeMeters>1000.20001220703125</AltitudeMeters>
            <DistanceMeters>23161.514335336</DistanceMeters>
          </Trackpoint>
          <Trackpoint>
            <Time>2022-08-27T05:04:22.000Z</Time>
            <Position>
              <LatitudeDegrees>50.2101827971637248992919921875</LatitudeDegrees>
              <LongitudeDegrees>16.99062290601432323455810546875</LongitudeDegrees>
            </Position>
            <AltitudeMeters>1000.5999755859375</AltitudeMeters>
            <DistanceMeters>23168.579621076</DistanceMeters>
          </Trackpoint>
          <Trackpoint>
            <Time>2022-08-27T05:04:23.000Z</Time>
            <Position>
              <LatitudeDegrees>50.2101871557533740997314453125</LatitudeDegrees>
              <LongitudeDegrees>16.99061938561499118804931640625</LongitudeDegrees>
            </Position>
            <AltitudeMeters>1000.5999755859375</AltitudeMeters>
            <DistanceMeters>23169.125507989</DistanceMeters>
          </Trackpoint>
          <Trackpoint>
            <Time>2022-08-27T05:04:30.000Z</Time>
            <Position>
              <LatitudeDegrees>50.210204087197780609130859375</LatitudeDegrees>
              <LongitudeDegrees>16.99060848914086818695068359375</LongitudeDegrees>
            </Position>
            <AltitudeMeters>1001.20001220703125</AltitudeMeters>
            <DistanceMeters>23171.163603955</DistanceMeters>
          </Trackpoint>
          <Trackpoint>
            <Time>2022-08-27T05:04:38.000Z</Time>
            <Position>
              <LatitudeDegrees>50.2102290652692317962646484375</LatitudeDegrees>
              <LongitudeDegrees>16.990592814981937408447265625</LongitudeDegrees>
            </Position>
            <AltitudeMeters>1001.4000244140625</AltitudeMeters>
            <DistanceMeters>23174.159583926</DistanceMeters>
          </Trackpoint>
          <Trackpoint>
            <Time>2022-08-27T05:04:44.000Z</Time>
            <Position>
              <LatitudeDegrees>50.21026100032031536102294921875</LatitudeDegrees>
              <LongitudeDegrees>16.99058116413652896881103515625</LongitudeDegrees>
            </Position>
            <AltitudeMeters>1001.5999755859375</AltitudeMeters>
            <DistanceMeters>23177.807916789</DistanceMeters>
          </Trackpoint>
          <Trackpoint>
            <Time>2022-08-27T05:04:49.000Z</Time>
            <Position>
              <LatitudeDegrees>50.21028631366789340972900390625</LatitudeDegrees>
              <LongitudeDegrees>16.99057496152818202972412109375</LongitudeDegrees>
            </Position>
            <AltitudeMeters>1002</AltitudeMeters>
            <DistanceMeters>23180.65871822</DistanceMeters>
          </Trackpoint>
          <Trackpoint>
            <Time>2022-08-27T05:04:57.000Z</Time>
            <Position>
              <LatitudeDegrees>50.2103266306221485137939453125</LatitudeDegrees>
              <LongitudeDegrees>16.99055685661733150482177734375</LongitudeDegrees>
            </Position>
            <AltitudeMeters>1002.4000244140625</AltitudeMeters>
            <DistanceMeters>23185.327615791</DistanceMeters>
          </Trackpoint>
          <Trackpoint>
            <Time>2022-08-27T05:04:59.000Z</Time>
            <Position>
              <LatitudeDegrees>50.2103366889059543609619140625</LatitudeDegrees>
              <LongitudeDegrees>16.99055467732250690460205078125</LongitudeDegrees>
            </Position>
            <AltitudeMeters>1002.5999755859375</AltitudeMeters>
            <DistanceMeters>23186.459989782</DistanceMeters>
          </Trackpoint>
          <Trackpoint>
            <Time>2022-08-27T05:05:07.000Z</Time>
            <Position>
              <LatitudeDegrees>50.21038287319242954254150390625</LatitudeDegrees>
              <LongitudeDegrees>16.99057077057659626007080078125</LongitudeDegrees>
            </Position>
            <AltitudeMeters>1003</AltitudeMeters>
            <DistanceMeters>23191.726904898</DistanceMeters>
          </Trackpoint>
          <Trackpoint>
            <Time>2022-08-27T05:05:17.000Z</Time>
            <Position>
              <LatitudeDegrees>50.21043182350695133209228515625</LatitudeDegrees>
              <LongitudeDegrees>16.99059055186808109283447265625</LongitudeDegrees>
            </Position>
            <AltitudeMeters>1003</AltitudeMeters>
            <DistanceMeters>23197.354380183</DistanceMeters>
          </Trackpoint>
          <Trackpoint>
            <Time>2022-08-27T05:05:28.000Z</Time>
            <Position>
              <LatitudeDegrees>50.210485048592090606689453125</LatitudeDegrees>
              <LongitudeDegrees>16.9906073994934558868408203125</LongitudeDegrees>
            </Position>
            <AltitudeMeters>1003</AltitudeMeters>
            <DistanceMeters>23203.398856115</DistanceMeters>
          </Trackpoint>
          <Trackpoint>
            <Time>2022-08-27T05:05:34.000Z</Time>
            <Position>
              <LatitudeDegrees>50.21052234806120395660400390625</LatitudeDegrees>
              <LongitudeDegrees>16.990618295967578887939453125</LongitudeDegrees>
            </Position>
            <AltitudeMeters>1003.5999755859375</AltitudeMeters>
            <DistanceMeters>23207.623004675</DistanceMeters>
          </Trackpoint>
          <Trackpoint>
            <Time>2022-08-27T05:05:38.000Z</Time>
            <Position>
              <LatitudeDegrees>50.210547409951686859130859375</LatitudeDegrees>
              <LongitudeDegrees>16.99062458239495754241943359375</LongitudeDegrees>
            </Position>
            <AltitudeMeters>1003.79998779296875</AltitudeMeters>
            <DistanceMeters>23210.448352012</DistanceMeters>
          </Trackpoint>
          <Trackpoint>
            <Time>2022-08-27T05:05:45.000Z</Time>
            <Position>
              <LatitudeDegrees>50.21056459285318851470947265625</LatitudeDegrees>
              <LongitudeDegrees>16.9906286895275115966796875</LongitudeDegrees>
            </Position>
            <AltitudeMeters>1004.20001220703125</AltitudeMeters>
            <DistanceMeters>23212.381859614</DistanceMeters>
          </Trackpoint>
          <Trackpoint>
            <Time>2022-08-27T05:05:50.000Z</Time>
            <Position>
              <LatitudeDegrees>50.21058387123048305511474609375</LatitudeDegrees>
              <LongitudeDegrees>16.99063078500330448150634765625</LongitudeDegrees>
            </Position>
            <AltitudeMeters>1004.4000244140625</AltitudeMeters>
            <DistanceMeters>23214.532068706</DistanceMeters>
          </Trackpoint>
          <Trackpoint>
            <Time>2022-08-27T05:05:53.000Z</Time>
            <Position>
              <LatitudeDegrees>50.21059694699943065643310546875</LatitudeDegrees>
              <LongitudeDegrees>16.9906372390687465667724609375</LongitudeDegrees>
            </Position>
            <AltitudeMeters>1004.4000244140625</AltitudeMeters>
            <DistanceMeters>23216.058423751</DistanceMeters>
          </Trackpoint>
          <Trackpoint>
            <Time>2022-08-27T05:05:54.000Z</Time>
            <Position>
              <LatitudeDegrees>50.21060063503682613372802734375</LatitudeDegrees>
              <LongitudeDegrees>16.99064067564904689788818359375</LongitudeDegrees>
            </Position>
            <AltitudeMeters>1004.5999755859375</AltitudeMeters>
            <DistanceMeters>23216.542966822</DistanceMeters>
          </Trackpoint>
          <Trackpoint>
            <Time>2022-08-27T05:06:02.000Z</Time>
            <Position>
              <LatitudeDegrees>50.21063835360109806060791015625</LatitudeDegrees>
              <LongitudeDegrees>16.9906533323228359222412109375</LongitudeDegrees>
            </Position>
            <AltitudeMeters>1004.5999755859375</AltitudeMeters>
            <DistanceMeters>23220.837080945</DistanceMeters>
          </Trackpoint>
          <Trackpoint>
            <Time>2022-08-27T05:06:13.000Z</Time>
            <Position>
              <LatitudeDegrees>50.21070138551294803619384765625</LatitudeDegrees>
              <LongitudeDegrees>16.99066598899662494659423828125</LongitudeDegrees>
            </Position>
            <AltitudeMeters>1005</AltitudeMeters>
            <DistanceMeters>23227.910031072</DistanceMeters>
          </Trackpoint>
          <Trackpoint>
            <Time>2022-08-27T05:06:17.000Z</Time>
            <Position>
              <LatitudeDegrees>50.21072569303214550018310546875</LatitudeDegrees>
              <LongitudeDegrees>16.99067319743335247039794921875</LongitudeDegrees>
            </Position>
            <AltitudeMeters>1005.4000244140625</AltitudeMeters>
            <DistanceMeters>23230.662527055</DistanceMeters>
          </Trackpoint>
          <Trackpoint>
            <Time>2022-08-27T05:06:21.000Z</Time>
            <Position>
              <LatitudeDegrees>50.21074782125651836395263671875</LatitudeDegrees>
              <LongitudeDegrees>16.99069448746740818023681640625</LongitudeDegrees>
            </Position>
            <AltitudeMeters>1005.5999755859375</AltitudeMeters>
            <DistanceMeters>23233.55421355</DistanceMeters>
          </Trackpoint>
          <Trackpoint>
            <Time>2022-08-27T05:06:29.000Z</Time>
            <Position>
              <LatitudeDegrees>50.2107748948037624359130859375</LatitudeDegrees>
              <LongitudeDegrees>16.99072147719562053680419921875</LongitudeDegrees>
            </Position>
            <AltitudeMeters>1006</AltitudeMeters>
            <DistanceMeters>23237.127521274</DistanceMeters>
          </Trackpoint>
          <Trackpoint>
            <Time>2022-08-27T05:06:32.000Z</Time>
            <Position>
              <LatitudeDegrees>50.21077581681311130523681640625</LatitudeDegrees>
              <LongitudeDegrees>16.99071913026273250579833984375</LongitudeDegrees>
            </Position>
            <AltitudeMeters>1006.4000244140625</AltitudeMeters>
            <DistanceMeters>23237.340007467</DistanceMeters>
          </Trackpoint>
          <Trackpoint>
            <Time>2022-08-27T05:06:39.000Z</Time>
            <Position>
              <LatitudeDegrees>50.21079224534332752227783203125</LatitudeDegrees>
              <LongitudeDegrees>16.9907418452203273773193359375</LongitudeDegrees>
            </Position>
            <AltitudeMeters>1006.5999755859375</AltitudeMeters>
            <DistanceMeters>23239.783136717</DistanceMeters>
          </Trackpoint>
          <Trackpoint>
            <Time>2022-08-27T05:06:52.000Z</Time>
            <Position>
              <LatitudeDegrees>50.210863910615444183349609375</LatitudeDegrees>
              <LongitudeDegrees>16.9908588565886020660400390625</LongitudeDegrees>
            </Position>
            <AltitudeMeters>1007</AltitudeMeters>
            <DistanceMeters>23251.319395496</DistanceMeters>
          </Trackpoint>
          <Trackpoint>
            <Time>2022-08-27T05:06:56.000Z</Time>
            <Position>
              <LatitudeDegrees>50.2108888886868953704833984375</LatitudeDegrees>
              <LongitudeDegrees>16.99088961817324161529541015625</LongitudeDegrees>
            </Position>
            <AltitudeMeters>1007.20001220703125</AltitudeMeters>
            <DistanceMeters>23254.859698605</DistanceMeters>
          </Trackpoint>
          <Trackpoint>
            <Time>2022-08-27T05:06:57.000Z</Time>
            <Position>
              <LatitudeDegrees>50.2108976058661937713623046875</LatitudeDegrees>
              <LongitudeDegrees>16.9908967427909374237060546875</LongitudeDegrees>
            </Position>
            <AltitudeMeters>1007.20001220703125</AltitudeMeters>
            <DistanceMeters>23255.955600137</DistanceMeters>
          </Trackpoint>
          <Trackpoint>
            <Time>2022-08-27T05:07:04.000Z</Time>
            <Position>
              <LatitudeDegrees>50.210943706333637237548828125</LatitudeDegrees>
              <LongitudeDegrees>16.9909477047622203826904296875</LongitudeDegrees>
            </Position>
            <AltitudeMeters>1007.79998779296875</AltitudeMeters>
            <DistanceMeters>23262.24102649</DistanceMeters>
          </Trackpoint>
          <Trackpoint>
            <Time>2022-08-27T05:07:11.000Z</Time>
            <Position>
              <LatitudeDegrees>50.2109800837934017181396484375</LatitudeDegrees>
              <LongitudeDegrees>16.9910015165805816650390625</LongitudeDegrees>
            </Position>
            <AltitudeMeters>1008.20001220703125</AltitudeMeters>
            <DistanceMeters>23267.816107039</DistanceMeters>
          </Trackpoint>
          <Trackpoint>
            <Time>2022-08-27T05:07:15.000Z</Time>
            <Position>
              <LatitudeDegrees>50.211001373827457427978515625</LatitudeDegrees>
              <LongitudeDegrees>16.99102892540395259857177734375</LongitudeDegrees>
            </Position>
            <AltitudeMeters>1008.4000244140625</AltitudeMeters>
            <DistanceMeters>23270.886514146</DistanceMeters>
          </Trackpoint>
          <Trackpoint>
            <Time>2022-08-27T05:07:26.000Z</Time>
            <Position>
              <LatitudeDegrees>50.21106264553964138031005859375</LatitudeDegrees>
              <LongitudeDegrees>16.99109363369643688201904296875</LongitudeDegrees>
            </Position>
            <AltitudeMeters>1008.79998779296875</AltitudeMeters>
            <DistanceMeters>23279.11826327</DistanceMeters>
          </Trackpoint>
          <Trackpoint>
            <Time>2022-08-27T05:07:37.000Z</Time>
            <Position>
              <LatitudeDegrees>50.21111243404448032379150390625</LatitudeDegrees>
              <LongitudeDegrees>16.9911726750433444976806640625</LongitudeDegrees>
            </Position>
            <AltitudeMeters>1009</AltitudeMeters>
            <DistanceMeters>23287.018635944</DistanceMeters>
          </Trackpoint>
          <Trackpoint>
            <Time>2022-08-27T05:07:42.000Z</Time>
            <Position>
              <LatitudeDegrees>50.2111443690955638885498046875</LatitudeDegrees>
              <LongitudeDegrees>16.9911971502006053924560546875</LongitudeDegrees>
            </Position>
            <AltitudeMeters>1009</AltitudeMeters>
            <DistanceMeters>23290.977955671</DistanceMeters>
          </Trackpoint>
          <Trackpoint>
            <Time>2022-08-27T05:07:47.000Z</Time>
            <Position>
              <LatitudeDegrees>50.2111768908798694610595703125</LatitudeDegrees>
              <LongitudeDegrees>16.9912219606339931488037109375</LongitudeDegrees>
            </Position>
            <AltitudeMeters>1009.20001220703125</AltitudeMeters>
            <DistanceMeters>23295.005115625</DistanceMeters>
          </Trackpoint>
          <Trackpoint>
            <Time>2022-08-27T05:08:00.000Z</Time>
            <Position>
              <LatitudeDegrees>50.2112358994781970977783203125</LatitudeDegrees>
              <LongitudeDegrees>16.99131675995886325836181640625</LongitudeDegrees>
            </Position>
            <AltitudeMeters>1009.5999755859375</AltitudeMeters>
            <DistanceMeters>23304.425230339</DistanceMeters>
          </Trackpoint>
          <Trackpoint>
            <Time>2022-08-27T05:08:10.000Z</Time>
            <Position>
              <LatitudeDegrees>50.21125459112226963043212890625</LatitudeDegrees>
              <LongitudeDegrees>16.99139839969575405120849609375</LongitudeDegrees>
            </Position>
            <AltitudeMeters>1009.79998779296875</AltitudeMeters>
            <DistanceMeters>23310.601235755</DistanceMeters>
          </Trackpoint>
          <Trackpoint>
            <Time>2022-08-27T05:08:18.000Z</Time>
            <Position>
              <LatitudeDegrees>50.21126917563378810882568359375</LatitudeDegrees>
              <LongitudeDegrees>16.9914372079074382781982421875</LongitudeDegrees>
            </Position>
            <AltitudeMeters>1010</AltitudeMeters>
            <DistanceMeters>23313.806891225</DistanceMeters>
          </Trackpoint>
          <Trackpoint>
            <Time>2022-08-27T05:08:19.000Z</Time>
            <Position>
              <LatitudeDegrees>50.2112754620611667633056640625</LatitudeDegrees>
              <LongitudeDegrees>16.99144114740192890167236328125</LongitudeDegrees>
            </Position>
            <AltitudeMeters>1010.20001220703125</AltitudeMeters>
            <DistanceMeters>23314.555132322</DistanceMeters>
          </Trackpoint>
          <Trackpoint>
            <Time>2022-08-27T05:08:20.000Z</Time>
            <Position>
              <LatitudeDegrees>50.21127772517502307891845703125</LatitudeDegrees>
              <LongitudeDegrees>16.99144483543932437896728515625</LongitudeDegrees>
            </Position>
            <AltitudeMeters>1010.20001220703125</AltitudeMeters>
            <DistanceMeters>23314.93523918</DistanceMeters>
          </Trackpoint>
          <Trackpoint>
            <Time>2022-08-27T05:08:31.000Z</Time>
            <Position>
              <LatitudeDegrees>50.2113629691302776336669921875</LatitudeDegrees>
              <LongitudeDegrees>16.99153888039290904998779296875</LongitudeDegrees>
            </Position>
            <AltitudeMeters>1010.20001220703125</AltitudeMeters>
            <DistanceMeters>23326.549898537</DistanceMeters>
          </Trackpoint>
          <Trackpoint>
            <Time>2022-08-27T05:08:43.000Z</Time>
            <Position>
              <LatitudeDegrees>50.211445949971675872802734375</LatitudeDegrees>
              <LongitudeDegrees>16.99165035970509052276611328125</LongitudeDegrees>
            </Position>
            <AltitudeMeters>1010.4000244140625</AltitudeMeters>
            <DistanceMeters>23338.730381121</DistanceMeters>
          </Trackpoint>
          <Trackpoint>
            <Time>2022-08-27T05:08:55.000Z</Time>
            <Position>
              <LatitudeDegrees>50.2115068025887012481689453125</LatitudeDegrees>
              <LongitudeDegrees>16.991791091859340667724609375</LongitudeDegrees>
            </Position>
            <AltitudeMeters>1010.5999755859375</AltitudeMeters>
            <DistanceMeters>23350.828293296</DistanceMeters>
          </Trackpoint>
          <Trackpoint>
            <Time>2022-08-27T05:09:04.000Z</Time>
            <Position>
              <LatitudeDegrees>50.21158232353627681732177734375</LatitudeDegrees>
              <LongitudeDegrees>16.9918180815875530242919921875</LongitudeDegrees>
            </Position>
            <AltitudeMeters>1010.79998779296875</AltitudeMeters>
            <DistanceMeters>23359.450625891</DistanceMeters>
          </Trackpoint>
          <Trackpoint>
            <Time>2022-08-27T05:09:09.000Z</Time>
            <Position>
              <LatitudeDegrees>50.21162976510822772979736328125</LatitudeDegrees>
              <LongitudeDegrees>16.99179737828671932220458984375</LongitudeDegrees>
            </Position>
            <AltitudeMeters>1011</AltitudeMeters>
            <DistanceMeters>23364.93260495</DistanceMeters>
          </Trackpoint>
          <Trackpoint>
            <Time>2022-08-27T05:09:13.000Z</Time>
            <Position>
              <LatitudeDegrees>50.211663208901882171630859375</LatitudeDegrees>
              <LongitudeDegrees>16.991798467934131622314453125</LongitudeDegrees>
            </Position>
            <AltitudeMeters>1011</AltitudeMeters>
            <DistanceMeters>23368.655663819</DistanceMeters>
          </Trackpoint>
          <Trackpoint>
            <Time>2022-08-27T05:09:24.000Z</Time>
            <Position>
              <LatitudeDegrees>50.21174426190555095672607421875</LatitudeDegrees>
              <LongitudeDegrees>16.991813220083713531494140625</LongitudeDegrees>
            </Position>
            <AltitudeMeters>1011.4000244140625</AltitudeMeters>
            <DistanceMeters>23377.738547633</DistanceMeters>
          </Trackpoint>
          <Trackpoint>
            <Time>2022-08-27T05:09:35.000Z</Time>
            <Position>
              <LatitudeDegrees>50.211816094815731048583984375</LatitudeDegrees>
              <LongitudeDegrees>16.99187700636684894561767578125</LongitudeDegrees>
            </Position>
            <AltitudeMeters>1011.5999755859375</AltitudeMeters>
            <DistanceMeters>23386.934561221</DistanceMeters>
          </Trackpoint>
          <Trackpoint>
            <Time>2022-08-27T05:09:44.000Z</Time>
            <Position>
              <LatitudeDegrees>50.21187954582273960113525390625</LatitudeDegrees>
              <LongitudeDegrees>16.99190734885632991790771484375</LongitudeDegrees>
            </Position>
            <AltitudeMeters>1011.79998779296875</AltitudeMeters>
            <DistanceMeters>23394.3197939</DistanceMeters>
          </Trackpoint>
          <Trackpoint>
            <Time>2022-08-27T05:09:45.000Z</Time>
            <Position>
              <LatitudeDegrees>50.21188792772591114044189453125</LatitudeDegrees>
              <LongitudeDegrees>16.99191321618854999542236328125</LongitudeDegrees>
            </Position>
            <AltitudeMeters>1011.79998779296875</AltitudeMeters>
            <DistanceMeters>23395.343262936</DistanceMeters>
          </Trackpoint>
          <Trackpoint>
            <Time>2022-08-27T05:09:55.000Z</Time>
            <Position>
              <LatitudeDegrees>50.2119651250541210174560546875</LatitudeDegrees>
              <LongitudeDegrees>16.99198463000357151031494140625</LongitudeDegrees>
            </Position>
            <AltitudeMeters>1012</AltitudeMeters>
            <DistanceMeters>23405.32785326</DistanceMeters>
          </Trackpoint>
          <Trackpoint>
            <Time>2022-08-27T05:10:07.000Z</Time>
            <Position>
              <LatitudeDegrees>50.2120482735335826873779296875</LatitudeDegrees>
              <LongitudeDegrees>16.9920866377651691436767578125</LongitudeDegrees>
            </Position>
            <AltitudeMeters>1012</AltitudeMeters>
            <DistanceMeters>23417.093526716</DistanceMeters>
          </Trackpoint>
          <Trackpoint>
            <Time>2022-08-27T05:10:20.000Z</Time>
            <Position>
              <LatitudeDegrees>50.21215816028416156768798828125</LatitudeDegrees>
              <LongitudeDegrees>16.99217758141458034515380859375</LongitudeDegrees>
            </Position>
            <AltitudeMeters>1012</AltitudeMeters>
            <DistanceMeters>23430.9335405</DistanceMeters>
          </Trackpoint>
          <Trackpoint>
            <Time>2022-08-27T05:10:31.000Z</Time>
            <Position>
              <LatitudeDegrees>50.21225430071353912353515625</LatitudeDegrees>
              <LongitudeDegrees>16.99226425029337406158447265625</LongitudeDegrees>
            </Position>
            <AltitudeMeters>1012.4000244140625</AltitudeMeters>
            <DistanceMeters>23443.287013368</DistanceMeters>
          </Trackpoint>
          <Trackpoint>
            <Time>2022-08-27T05:10:40.000Z</Time>
            <Position>
              <LatitudeDegrees>50.2123372815549373626708984375</LatitudeDegrees>
              <LongitudeDegrees>16.9923394359648227691650390625</LongitudeDegrees>
            </Position>
            <AltitudeMeters>1012.4000244140625</AltitudeMeters>
            <DistanceMeters>23453.963043757</DistanceMeters>
          </Trackpoint>
          <Trackpoint>
            <Time>2022-08-27T05:10:51.000Z</Time>
            <Position>
              <LatitudeDegrees>50.21241883747279644012451171875</LatitudeDegrees>
              <LongitudeDegrees>16.992401294410228729248046875</LongitudeDegrees>
            </Position>
            <AltitudeMeters>1012.5999755859375</AltitudeMeters>
            <DistanceMeters>23464.052894194</DistanceMeters>
          </Trackpoint>
          <Trackpoint>
            <Time>2022-08-27T05:10:59.000Z</Time>
            <Position>
              <LatitudeDegrees>50.21248304285109043121337890625</LatitudeDegrees>
              <LongitudeDegrees>16.99245954863727092742919921875</LongitudeDegrees>
            </Position>
            <AltitudeMeters>1012.79998779296875</AltitudeMeters>
            <DistanceMeters>23472.316394546</DistanceMeters>
          </Trackpoint>
          <Trackpoint>
            <Time>2022-08-27T05:11:01.000Z</Time>
            <Position>
              <LatitudeDegrees>50.21249880082905292510986328125</LatitudeDegrees>
              <LongitudeDegrees>16.9924708642065525054931640625</LongitudeDegrees>
            </Position>
            <AltitudeMeters>1012.79998779296875</AltitudeMeters>
            <DistanceMeters>23474.245226186</DistanceMeters>
          </Trackpoint>
          <Trackpoint>
            <Time>2022-08-27T05:11:02.000Z</Time>
            <Position>
              <LatitudeDegrees>50.2125045843422412872314453125</LatitudeDegrees>
              <LongitudeDegrees>16.992479078471660614013671875</LongitudeDegrees>
            </Position>
            <AltitudeMeters>1012.79998779296875</AltitudeMeters>
            <DistanceMeters>23475.116160409</DistanceMeters>
          </Trackpoint>
          <Trackpoint>
            <Time>2022-08-27T05:11:12.000Z</Time>
            <Position>
              <LatitudeDegrees>50.21256552077829837799072265625</LatitudeDegrees>
              <LongitudeDegrees>16.9925758056342601776123046875</LongitudeDegrees>
            </Position>
            <AltitudeMeters>1013.20001220703125</AltitudeMeters>
            <DistanceMeters>23484.78416544</DistanceMeters>
          </Trackpoint>
          <Trackpoint>
            <Time>2022-08-27T05:11:22.000Z</Time>
            <Position>
              <LatitudeDegrees>50.21266275085508823394775390625</LatitudeDegrees>
              <LongitudeDegrees>16.99263221584260463714599609375</LongitudeDegrees>
            </Position>
            <AltitudeMeters>1013.20001220703125</AltitudeMeters>
            <DistanceMeters>23496.327466874</DistanceMeters>
          </Trackpoint>
          <Trackpoint>
            <Time>2022-08-27T05:11:34.000Z</Time>
            <Position>
              <LatitudeDegrees>50.2127761580049991607666015625</LatitudeDegrees>
              <LongitudeDegrees>16.99276079423725605010986328125</LongitudeDegrees>
            </Position>
            <AltitudeMeters>1013.20001220703125</AltitudeMeters>
            <DistanceMeters>23511.922274304</DistanceMeters>
          </Trackpoint>
          <Trackpoint>
            <Time>2022-08-27T05:11:44.000Z</Time>
            <Position>
              <LatitudeDegrees>50.2128341607749462127685546875</LatitudeDegrees>
              <LongitudeDegrees>16.99283706955611705780029296875</LongitudeDegrees>
            </Position>
            <AltitudeMeters>1013</AltitudeMeters>
            <DistanceMeters>23520.359876018</DistanceMeters>
          </Trackpoint>
          <Trackpoint>
            <Time>2022-08-27T05:11:54.000Z</Time>
            <Position>
              <LatitudeDegrees>50.2129166387021541595458984375</LatitudeDegrees>
              <LongitudeDegrees>16.99291904456913471221923828125</LongitudeDegrees>
            </Position>
            <AltitudeMeters>1013</AltitudeMeters>
            <DistanceMeters>23531.239501105</DistanceMeters>
          </Trackpoint>
          <Trackpoint>
            <Time>2022-08-27T05:12:04.000Z</Time>
            <Position>
              <LatitudeDegrees>50.2130755595862865447998046875</LatitudeDegrees>
              <LongitudeDegrees>16.9929432682693004608154296875</LongitudeDegrees>
            </Position>
            <AltitudeMeters>1013.20001220703125</AltitudeMeters>
            <DistanceMeters>23549.011783284</DistanceMeters>
          </Trackpoint>
          <Trackpoint>
            <Time>2022-08-27T05:12:14.000Z</Time>
            <Position>
              <LatitudeDegrees>50.213185362517833709716796875</LatitudeDegrees>
              <LongitudeDegrees>16.99301543645560741424560546875</LongitudeDegrees>
            </Position>
            <AltitudeMeters>1013.4000244140625</AltitudeMeters>
            <DistanceMeters>23562.26996823</DistanceMeters>
          </Trackpoint>
          <Trackpoint>
            <Time>2022-08-27T05:12:23.000Z</Time>
            <Position>
              <LatitudeDegrees>50.21321528591215610504150390625</LatitudeDegrees>
              <LongitudeDegrees>16.99310294352471828460693359375</LongitudeDegrees>
            </Position>
            <AltitudeMeters>1013.4000244140625</AltitudeMeters>
            <DistanceMeters>23569.337170846</DistanceMeters>
          </Trackpoint>
          <Trackpoint>
            <Time>2022-08-27T05:12:33.000Z</Time>
            <Position>
              <LatitudeDegrees>50.213230960071086883544921875</LatitudeDegrees>
              <LongitudeDegrees>16.993120796978473663330078125</LongitudeDegrees>
            </Position>
            <AltitudeMeters>1013.4000244140625</AltitudeMeters>
            <DistanceMeters>23571.495762851</DistanceMeters>
          </Trackpoint>
          <Trackpoint>
            <Time>2022-08-27T05:12:42.000Z</Time>
            <Position>
              <LatitudeDegrees>50.2132519148290157318115234375</LatitudeDegrees>
              <LongitudeDegrees>16.9931699149310588836669921875</LongitudeDegrees>
            </Position>
            <AltitudeMeters>1013.4000244140625</AltitudeMeters>
            <DistanceMeters>23575.69955395</DistanceMeters>
          </Trackpoint>
          <Trackpoint>
            <Time>2022-08-27T05:12:47.000Z</Time>
            <Position>
              <LatitudeDegrees>50.21326490677893161773681640625</LatitudeDegrees>
              <LongitudeDegrees>16.99322682805359363555908203125</LongitudeDegrees>
            </Position>
            <AltitudeMeters>1013.5999755859375</AltitudeMeters>
            <DistanceMeters>23580.002071435</DistanceMeters>
          </Trackpoint>
          <Trackpoint>
            <Time>2022-08-27T05:12:50.000Z</Time>
            <Position>
              <LatitudeDegrees>50.213267840445041656494140625</LatitudeDegrees>
              <LongitudeDegrees>16.99324878863990306854248046875</LongitudeDegrees>
            </Position>
            <AltitudeMeters>1013.79998779296875</AltitudeMeters>
            <DistanceMeters>23581.59784133</DistanceMeters>
          </Trackpoint>
          <Trackpoint>
            <Time>2022-08-27T05:12:59.000Z</Time>
            <Position>
              <LatitudeDegrees>50.213297344744205474853515625</LatitudeDegrees>
              <LongitudeDegrees>16.99331601150333881378173828125</LongitudeDegrees>
            </Position>
            <AltitudeMeters>1013.79998779296875</AltitudeMeters>
            <DistanceMeters>23587.403032566</DistanceMeters>
          </Trackpoint>
          <Trackpoint>
            <Time>2022-08-27T05:13:10.000Z</Time>
            <Position>
              <LatitudeDegrees>50.2133320458233356475830078125</LatitudeDegrees>
              <LongitudeDegrees>16.99340536259114742279052734375</LongitudeDegrees>
            </Position>
            <AltitudeMeters>1014.20001220703125</AltitudeMeters>
            <DistanceMeters>23594.847937482</DistanceMeters>
          </Trackpoint>
          <Trackpoint>
            <Time>2022-08-27T05:13:20.000Z</Time>
            <Position>
              <LatitudeDegrees>50.2133531682193279266357421875</LatitudeDegrees>
              <LongitudeDegrees>16.9934854097664356231689453125</LongitudeDegrees>
            </Position>
            <AltitudeMeters>1014.5999755859375</AltitudeMeters>
            <DistanceMeters>23601.015163924</DistanceMeters>
          </Trackpoint>
          <Trackpoint>
            <Time>2022-08-27T05:13:21.000Z</Time>
            <Position>
              <LatitudeDegrees>50.2133546769618988037109375</LatitudeDegrees>
              <LongitudeDegrees>16.99349437840282917022705078125</LongitudeDegrees>
            </Position>
            <AltitudeMeters>1014.5999755859375</AltitudeMeters>
            <DistanceMeters>23601.673528313</DistanceMeters>
          </Trackpoint>
          <Trackpoint>
            <Time>2022-08-27T05:13:32.000Z</Time>
            <Position>
              <LatitudeDegrees>50.2133913896977901458740234375</LatitudeDegrees>
              <LongitudeDegrees>16.99359814636409282684326171875</LongitudeDegrees>
            </Position>
            <AltitudeMeters>1014.79998779296875</AltitudeMeters>
            <DistanceMeters>23610.119152851</DistanceMeters>
          </Trackpoint>
          <Trackpoint>
            <Time>2022-08-27T05:13:45.000Z</Time>
            <Position>
              <LatitudeDegrees>50.2134192176163196563720703125</LatitudeDegrees>
              <LongitudeDegrees>16.9937641918659210205078125</LongitudeDegrees>
            </Position>
            <AltitudeMeters>1015.20001220703125</AltitudeMeters>
            <DistanceMeters>23622.344774524</DistanceMeters>
          </Trackpoint>
          <Trackpoint>
            <Time>2022-08-27T05:13:50.000Z</Time>
            <Position>
              <LatitudeDegrees>50.21342148073017597198486328125</LatitudeDegrees>
              <LongitudeDegrees>16.99381909333169460296630859375</LongitudeDegrees>
            </Position>
            <AltitudeMeters>1015.4000244140625</AltitudeMeters>
            <DistanceMeters>23626.263978529</DistanceMeters>
          </Trackpoint>
          <Trackpoint>
            <Time>2022-08-27T05:13:53.000Z</Time>
            <Position>
              <LatitudeDegrees>50.2134121768176555633544921875</LatitudeDegrees>
              <LongitudeDegrees>16.99386955238878726959228515625</LongitudeDegrees>
            </Position>
            <AltitudeMeters>1015.5999755859375</AltitudeMeters>
            <DistanceMeters>23630.00397698</DistanceMeters>
          </Trackpoint>
          <Trackpoint>
            <Time>2022-08-27T05:13:56.000Z</Time>
            <Position>
              <LatitudeDegrees>50.21340857259929180145263671875</LatitudeDegrees>
              <LongitudeDegrees>16.99390576221048831939697265625</LongitudeDegrees>
            </Position>
            <AltitudeMeters>1015.79998779296875</AltitudeMeters>
            <DistanceMeters>23632.613321273</DistanceMeters>
          </Trackpoint>
          <Trackpoint>
            <Time>2022-08-27T05:14:07.000Z</Time>
            <Position>
              <LatitudeDegrees>50.21343422122299671173095703125</LatitudeDegrees>
              <LongitudeDegrees>16.99403266422450542449951171875</LongitudeDegrees>
            </Position>
            <AltitudeMeters>1015.79998779296875</AltitudeMeters>
            <DistanceMeters>23642.092206261</DistanceMeters>
          </Trackpoint>
          <Trackpoint>
            <Time>2022-08-27T05:14:19.000Z</Time>
            <Position>
              <LatitudeDegrees>50.213466994464397430419921875</LatitudeDegrees>
              <LongitudeDegrees>16.994183622300624847412109375</LongitudeDegrees>
            </Position>
            <AltitudeMeters>1016</AltitudeMeters>
            <DistanceMeters>23653.446208697</DistanceMeters>
          </Trackpoint>
          <Trackpoint>
            <Time>2022-08-27T05:14:31.000Z</Time>
            <Position>
              <LatitudeDegrees>50.21349390037357807159423828125</LatitudeDegrees>
              <LongitudeDegrees>16.99432946741580963134765625</LongitudeDegrees>
            </Position>
            <AltitudeMeters>1016.4000244140625</AltitudeMeters>
            <DistanceMeters>23664.257142024</DistanceMeters>
          </Trackpoint>
          <Trackpoint>
            <Time>2022-08-27T05:14:38.000Z</Time>
            <Position>
              <LatitudeDegrees>50.21351351402699947357177734375</LatitudeDegrees>
              <LongitudeDegrees>16.994416303932666778564453125</LongitudeDegrees>
            </Position>
            <AltitudeMeters>1016.5999755859375</AltitudeMeters>
            <DistanceMeters>23670.816050789</DistanceMeters>
          </Trackpoint>
          <Trackpoint>
            <Time>2022-08-27T05:14:41.000Z</Time>
            <Position>
              <LatitudeDegrees>50.213519632816314697265625</LatitudeDegrees>
              <LongitudeDegrees>16.9944696128368377685546875</LongitudeDegrees>
            </Position>
            <AltitudeMeters>1016.79998779296875</AltitudeMeters>
            <DistanceMeters>23674.672543483</DistanceMeters>
          </Trackpoint>
          <Trackpoint>
            <Time>2022-08-27T05:14:52.000Z</Time>
            <Position>
              <LatitudeDegrees>50.21352231502532958984375</LatitudeDegrees>
              <LongitudeDegrees>16.99463582597672939300537109375</LongitudeDegrees>
            </Position>
            <AltitudeMeters>1017.5999755859375</AltitudeMeters>
            <DistanceMeters>23686.515098835</DistanceMeters>
          </Trackpoint>
          <Trackpoint>
            <Time>2022-08-27T05:14:55.000Z</Time>
            <Position>
              <LatitudeDegrees>50.21353371441364288330078125</LatitudeDegrees>
              <LongitudeDegrees>16.99466331861913204193115234375</LongitudeDegrees>
            </Position>
            <AltitudeMeters>1017.5999755859375</AltitudeMeters>
            <DistanceMeters>23688.850514466</DistanceMeters>
          </Trackpoint>
          <Trackpoint>
            <Time>2022-08-27T05:15:03.000Z</Time>
            <Position>
              <LatitudeDegrees>50.21356363780796527862548828125</LatitudeDegrees>
              <LongitudeDegrees>16.9947567768394947052001953125</LongitudeDegrees>
            </Position>
            <AltitudeMeters>1018.20001220703125</AltitudeMeters>
            <DistanceMeters>23696.294206363</DistanceMeters>
          </Trackpoint>
          <Trackpoint>
            <Time>2022-08-27T05:15:13.000Z</Time>
            <Position>
              <LatitudeDegrees>50.21357520483434200286865234375</LatitudeDegrees>
              <LongitudeDegrees>16.99490287341177463531494140625</LongitudeDegrees>
            </Position>
            <AltitudeMeters>1018.79998779296875</AltitudeMeters>
            <DistanceMeters>23706.779920968</DistanceMeters>
          </Trackpoint>
          <Trackpoint>
            <Time>2022-08-27T05:15:15.000Z</Time>
            <Position>
              <LatitudeDegrees>50.2135821618139743804931640625</LatitudeDegrees>
              <LongitudeDegrees>16.99492667801678180694580078125</LongitudeDegrees>
            </Position>
            <AltitudeMeters>1018.79998779296875</AltitudeMeters>
            <DistanceMeters>23708.642056666</DistanceMeters>
          </Trackpoint>
          <Trackpoint>
            <Time>2022-08-27T05:15:24.000Z</Time>
            <Position>
              <LatitudeDegrees>50.2136166952550411224365234375</LatitudeDegrees>
              <LongitudeDegrees>16.995031870901584625244140625</LongitudeDegrees>
            </Position>
            <AltitudeMeters>1019.4000244140625</AltitudeMeters>
            <DistanceMeters>23717.063053656</DistanceMeters>
          </Trackpoint>
          <Trackpoint>
            <Time>2022-08-27T05:15:29.000Z</Time>
            <Position>
              <LatitudeDegrees>50.2136280946433544158935546875</LatitudeDegrees>
              <LongitudeDegrees>16.99508719146251678466796875</LongitudeDegrees>
            </Position>
            <AltitudeMeters>1019.79998779296875</AltitudeMeters>
            <DistanceMeters>23721.20190072</DistanceMeters>
          </Trackpoint>
          <Trackpoint>
            <Time>2022-08-27T05:15:35.000Z</Time>
            <Position>
              <LatitudeDegrees>50.21363488398492336273193359375</LatitudeDegrees>
              <LongitudeDegrees>16.99516204185783863067626953125</LongitudeDegrees>
            </Position>
            <AltitudeMeters>1020.20001220703125</AltitudeMeters>
            <DistanceMeters>23726.585816152</DistanceMeters>
          </Trackpoint>
          <Trackpoint>
            <Time>2022-08-27T05:15:43.000Z</Time>
            <Position>
              <LatitudeDegrees>50.2136602811515331268310546875</LatitudeDegrees>
              <LongitudeDegrees>16.99524016119539737701416015625</LongitudeDegrees>
            </Position>
            <AltitudeMeters>1020.79998779296875</AltitudeMeters>
            <DistanceMeters>23732.827270292</DistanceMeters>
          </Trackpoint>
          <Trackpoint>
            <Time>2022-08-27T05:15:46.000Z</Time>
            <Position>
              <LatitudeDegrees>50.213677883148193359375</LatitudeDegrees>
              <LongitudeDegrees>16.9952742755413055419921875</LongitudeDegrees>
            </Position>
            <AltitudeMeters>1021</AltitudeMeters>
            <DistanceMeters>23735.948720673</DistanceMeters>
          </Trackpoint>
          <Trackpoint>
            <Time>2022-08-27T05:15:58.000Z</Time>
            <Position>
              <LatitudeDegrees>50.2137259952723979949951171875</LatitudeDegrees>
              <LongitudeDegrees>16.99542573653161525726318359375</LongitudeDegrees>
            </Position>
            <AltitudeMeters>1021.79998779296875</AltitudeMeters>
            <DistanceMeters>23747.992396106</DistanceMeters>
          </Trackpoint>
          <Trackpoint>
            <Time>2022-08-27T05:16:09.000Z</Time>
            <Position>
              <LatitudeDegrees>50.213751308619976043701171875</LatitudeDegrees>
              <LongitudeDegrees>16.99554224498569965362548828125</LongitudeDegrees>
            </Position>
            <AltitudeMeters>1022.5999755859375</AltitudeMeters>
            <DistanceMeters>23756.75548746</DistanceMeters>
          </Trackpoint>
          <Trackpoint>
            <Time>2022-08-27T05:16:12.000Z</Time>
            <Position>
              <LatitudeDegrees>50.2137548290193080902099609375</LatitudeDegrees>
              <LongitudeDegrees>16.995573341846466064453125</LongitudeDegrees>
            </Position>
            <AltitudeMeters>1022.79998779296875</AltitudeMeters>
            <DistanceMeters>23759.004229955</DistanceMeters>
          </Trackpoint>
          <Trackpoint>
            <Time>2022-08-27T05:16:22.000Z</Time>
            <Position>
              <LatitudeDegrees>50.21377779543399810791015625</LatitudeDegrees>
              <LongitudeDegrees>16.995663531124591827392578125</LongitudeDegrees>
            </Position>
            <AltitudeMeters>1023.4000244140625</AltitudeMeters>
            <DistanceMeters>23765.918362199</DistanceMeters>
          </Trackpoint>
          <Trackpoint>
            <Time>2022-08-27T05:16:30.000Z</Time>
            <Position>
              <LatitudeDegrees>50.2138111554086208343505859375</LatitudeDegrees>
              <LongitudeDegrees>16.995743326842784881591796875</LongitudeDegrees>
            </Position>
            <AltitudeMeters>1024</AltitudeMeters>
            <DistanceMeters>23772.707287752</DistanceMeters>
          </Trackpoint>
          <Trackpoint>
            <Time>2022-08-27T05:16:33.000Z</Time>
            <Position>
              <LatitudeDegrees>50.2138160169124603271484375</LatitudeDegrees>
              <LongitudeDegrees>16.9957812130451202392578125</LongitudeDegrees>
            </Position>
            <AltitudeMeters>1024</AltitudeMeters>
            <DistanceMeters>23775.459783735</DistanceMeters>
          </Trackpoint>
          <Trackpoint>
            <Time>2022-08-27T05:16:43.000Z</Time>
            <Position>
              <LatitudeDegrees>50.21382917650043964385986328125</LatitudeDegrees>
              <LongitudeDegrees>16.9958943687379360198974609375</LongitudeDegrees>
            </Position>
            <AltitudeMeters>1025</AltitudeMeters>
            <DistanceMeters>23783.65139518</DistanceMeters>
          </Trackpoint>
          <Trackpoint>
            <Time>2022-08-27T05:16:46.000Z</Time>
            <Position>
              <LatitudeDegrees>50.21383856423199176788330078125</LatitudeDegrees>
              <LongitudeDegrees>16.99592932127416133880615234375</LongitudeDegrees>
            </Position>
            <AltitudeMeters>1025.199951171875</AltitudeMeters>
            <DistanceMeters>23786.35088989</DistanceMeters>
          </Trackpoint>
          <Trackpoint>
            <Time>2022-08-27T05:16:56.000Z</Time>
            <Position>
              <LatitudeDegrees>50.21385549567639827728271484375</LatitudeDegrees>
              <LongitudeDegrees>16.995992101728916168212890625</LongitudeDegrees>
            </Position>
            <AltitudeMeters>1025.4000244140625</AltitudeMeters>
            <DistanceMeters>23791.20283891</DistanceMeters>
          </Trackpoint>
          <Trackpoint>
            <Time>2022-08-27T05:16:58.000Z</Time>
            <Position>
              <LatitudeDegrees>50.21385968662798404693603515625</LatitudeDegrees>
              <LongitudeDegrees>16.995994113385677337646484375</LongitudeDegrees>
            </Position>
            <AltitudeMeters>1025.4000244140625</AltitudeMeters>
            <DistanceMeters>23791.687381981</DistanceMeters>
          </Trackpoint>
          <Trackpoint>
            <Time>2022-08-27T05:17:10.000Z</Time>
            <Position>
              <LatitudeDegrees>50.2138604409992694854736328125</LatitudeDegrees>
              <LongitudeDegrees>16.99599285610020160675048828125</LongitudeDegrees>
            </Position>
            <AltitudeMeters>1025.5999755859375</AltitudeMeters>
            <DistanceMeters>23791.821770049</DistanceMeters>
          </Trackpoint>
          <Trackpoint>
            <Time>2022-08-27T05:17:20.000Z</Time>
            <Position>
              <LatitudeDegrees>50.213869325816631317138671875</LatitudeDegrees>
              <LongitudeDegrees>16.9960539601743221282958984375</LongitudeDegrees>
            </Position>
            <AltitudeMeters>1025.800048828125</AltitudeMeters>
            <DistanceMeters>23796.284991826</DistanceMeters>
          </Trackpoint>
          <Trackpoint>
            <Time>2022-08-27T05:17:27.000Z</Time>
            <Position>
              <LatitudeDegrees>50.21387946791946887969970703125</LatitudeDegrees>
              <LongitudeDegrees>16.99611757881939411163330078125</LongitudeDegrees>
            </Position>
            <AltitudeMeters>1026</AltitudeMeters>
            <DistanceMeters>23800.954856344</DistanceMeters>
          </Trackpoint>
          <Trackpoint>
            <Time>2022-08-27T05:17:31.000Z</Time>
            <Position>
              <LatitudeDegrees>50.21387745626270771026611328125</LatitudeDegrees>
              <LongitudeDegrees>16.99616468511521816253662109375</LongitudeDegrees>
            </Position>
            <AltitudeMeters>1026.4000244140625</AltitudeMeters>
            <DistanceMeters>23804.317244737</DistanceMeters>
          </Trackpoint>
          <Trackpoint>
            <Time>2022-08-27T05:17:41.000Z</Time>
            <Position>
              <LatitudeDegrees>50.2138817310333251953125</LatitudeDegrees>
              <LongitudeDegrees>16.9962854683399200439453125</LongitudeDegrees>
            </Position>
            <AltitudeMeters>1027</AltitudeMeters>
            <DistanceMeters>23812.933815315</DistanceMeters>
          </Trackpoint>
          <Trackpoint>
            <Time>2022-08-27T05:17:43.000Z</Time>
            <Position>
              <LatitudeDegrees>50.21388902328908443450927734375</LatitudeDegrees>
              <LongitudeDegrees>16.99631555937230587005615234375</LongitudeDegrees>
            </Position>
            <AltitudeMeters>1027.199951171875</AltitudeMeters>
            <DistanceMeters>23815.226304026</DistanceMeters>
          </Trackpoint>
          <Trackpoint>
            <Time>2022-08-27T05:17:54.000Z</Time>
            <Position>
              <LatitudeDegrees>50.2138996683061122894287109375</LatitudeDegrees>
              <LongitudeDegrees>16.9964187406003475189208984375</LongitudeDegrees>
            </Position>
            <AltitudeMeters>1027.800048828125</AltitudeMeters>
            <DistanceMeters>23822.671208942</DistanceMeters>
          </Trackpoint>
          <Trackpoint>
            <Time>2022-08-27T05:18:00.000Z</Time>
            <Position>
              <LatitudeDegrees>50.21390662528574466705322265625</LatitudeDegrees>
              <LongitudeDegrees>16.9964935071766376495361328125</LongitudeDegrees>
            </Position>
            <AltitudeMeters>1028.199951171875</AltitudeMeters>
            <DistanceMeters>23828.052607939</DistanceMeters>
          </Trackpoint>
          <Trackpoint>
            <Time>2022-08-27T05:18:01.000Z</Time>
            <Position>
              <LatitudeDegrees>50.21390763111412525177001953125</LatitudeDegrees>
              <LongitudeDegrees>16.99650616385042667388916015625</LongitudeDegrees>
            </Position>
            <AltitudeMeters>1028.199951171875</AltitudeMeters>
            <DistanceMeters>23828.959105019</DistanceMeters>
          </Trackpoint>
          <Trackpoint>
            <Time>2022-08-27T05:18:14.000Z</Time>
            <Position>
              <LatitudeDegrees>50.21391131915152072906494140625</LatitudeDegrees>
              <LongitudeDegrees>16.996666006743907928466796875</LongitudeDegrees>
            </Position>
            <AltitudeMeters>1029.199951171875</AltitudeMeters>
            <DistanceMeters>23840.351218899</DistanceMeters>
          </Trackpoint>
          <Trackpoint>
            <Time>2022-08-27T05:18:23.000Z</Time>
            <Position>
              <LatitudeDegrees>50.2138822339475154876708984375</LatitudeDegrees>
              <LongitudeDegrees>16.99677790515124797821044921875</LongitudeDegrees>
            </Position>
            <AltitudeMeters>1030</AltitudeMeters>
            <DistanceMeters>23848.953629983</DistanceMeters>
          </Trackpoint>
          <Trackpoint>
            <Time>2022-08-27T05:18:26.000Z</Time>
            <Position>
              <LatitudeDegrees>50.213881395757198333740234375</LatitudeDegrees>
              <LongitudeDegrees>16.99681780301034450531005859375</LongitudeDegrees>
            </Position>
            <AltitudeMeters>1030.199951171875</AltitudeMeters>
            <DistanceMeters>23851.798089245</DistanceMeters>
          </Trackpoint>
          <Trackpoint>
            <Time>2022-08-27T05:18:34.000Z</Time>
            <Position>
              <LatitudeDegrees>50.213873684406280517578125</LatitudeDegrees>
              <LongitudeDegrees>16.9969146139919757843017578125</LongitudeDegrees>
            </Position>
            <AltitudeMeters>1031</AltitudeMeters>
            <DistanceMeters>23858.747394881</DistanceMeters>
          </Trackpoint>
          <Trackpoint>
            <Time>2022-08-27T05:18:38.000Z</Time>
            <Position>
              <LatitudeDegrees>50.2138602733612060546875</LatitudeDegrees>
              <LongitudeDegrees>16.9969531707465648651123046875</LongitudeDegrees>
            </Position>
            <AltitudeMeters>1031.199951171875</AltitudeMeters>
            <DistanceMeters>23861.873181616</DistanceMeters>
          </Trackpoint>
          <Trackpoint>
            <Time>2022-08-27T05:18:48.000Z</Time>
            <Position>
              <LatitudeDegrees>50.21383051760494709014892578125</LatitudeDegrees>
              <LongitudeDegrees>16.99704981409013271331787109375</LongitudeDegrees>
            </Position>
            <AltitudeMeters>1031.800048828125</AltitudeMeters>
            <DistanceMeters>23869.512052866</DistanceMeters>
          </Trackpoint>
          <Trackpoint>
            <Time>2022-08-27T05:18:56.000Z</Time>
            <Position>
              <LatitudeDegrees>50.213809311389923095703125</LatitudeDegrees>
              <LongitudeDegrees>16.99714922346174716949462890625</LongitudeDegrees>
            </Position>
            <AltitudeMeters>1032.199951171875</AltitudeMeters>
            <DistanceMeters>23876.97512941</DistanceMeters>
          </Trackpoint>
          <Trackpoint>
            <Time>2022-08-27T05:19:00.000Z</Time>
            <Position>
              <LatitudeDegrees>50.2138101495802402496337890625</LatitudeDegrees>
              <LongitudeDegrees>16.99720521457493305206298828125</LongitudeDegrees>
            </Position>
            <AltitudeMeters>1032.4000244140625</AltitudeMeters>
            <DistanceMeters>23880.963988231</DistanceMeters>
          </Trackpoint>
          <Trackpoint>
            <Time>2022-08-27T05:19:11.000Z</Time>
            <Position>
              <LatitudeDegrees>50.21380721591413021087646484375</LatitudeDegrees>
              <LongitudeDegrees>16.99737754650413990020751953125</LongitudeDegrees>
            </Position>
            <AltitudeMeters>1033.4000244140625</AltitudeMeters>
            <DistanceMeters>23893.242675307</DistanceMeters>
          </Trackpoint>
          <Trackpoint>
            <Time>2022-08-27T05:19:19.000Z</Time>
            <Position>
              <LatitudeDegrees>50.2138074673712253570556640625</LatitudeDegrees>
              <LongitudeDegrees>16.9974892772734165191650390625</LongitudeDegrees>
            </Position>
            <AltitudeMeters>1033.800048828125</AltitudeMeters>
            <DistanceMeters>23901.200559832</DistanceMeters>
          </Trackpoint>
          <Trackpoint>
            <Time>2022-08-27T05:19:24.000Z</Time>
            <Position>
              <LatitudeDegrees>50.21381006576120853424072265625</LatitudeDegrees>
              <LongitudeDegrees>16.99754619039595127105712890625</LongitudeDegrees>
            </Position>
            <AltitudeMeters>1034.4000244140625</AltitudeMeters>
            <DistanceMeters>23905.264549228</DistanceMeters>
          </Trackpoint>
          <Trackpoint>
            <Time>2022-08-27T05:19:31.000Z</Time>
            <Position>
              <LatitudeDegrees>50.213806629180908203125</LatitudeDegrees>
              <LongitudeDegrees>16.99762783013284206390380859375</LongitudeDegrees>
            </Position>
            <AltitudeMeters>1034.800048828125</AltitudeMeters>
            <DistanceMeters>23911.091477015</DistanceMeters>
          </Trackpoint>
          <Trackpoint>
            <Time>2022-08-27T05:19:39.000Z</Time>
            <Position>
              <LatitudeDegrees>50.213819034397602081298828125</LatitudeDegrees>
              <LongitudeDegrees>16.9977521337568759918212890625</LongitudeDegrees>
            </Position>
            <AltitudeMeters>1035.4000244140625</AltitudeMeters>
            <DistanceMeters>23920.052249288</DistanceMeters>
          </Trackpoint>
          <Trackpoint>
            <Time>2022-08-27T05:19:41.000Z</Time>
            <Position>
              <LatitudeDegrees>50.21381962113082408905029296875</LatitudeDegrees>
              <LongitudeDegrees>16.99777501635253429412841796875</LongitudeDegrees>
            </Position>
            <AltitudeMeters>1035.5999755859375</AltitudeMeters>
            <DistanceMeters>23921.684386706</DistanceMeters>
          </Trackpoint>
          <Trackpoint>
            <Time>2022-08-27T05:19:51.000Z</Time>
            <Position>
              <LatitudeDegrees>50.2138161845505237579345703125</LatitudeDegrees>
              <LongitudeDegrees>16.99789454229176044464111328125</LongitudeDegrees>
            </Position>
            <AltitudeMeters>1036</AltitudeMeters>
            <DistanceMeters>23930.20611627</DistanceMeters>
          </Trackpoint>
          <Trackpoint>
            <Time>2022-08-27T05:20:00.000Z</Time>
            <Position>
              <LatitudeDegrees>50.21381936967372894287109375</LatitudeDegrees>
              <LongitudeDegrees>16.998027898371219635009765625</LongitudeDegrees>
            </Position>
            <AltitudeMeters>1036.4000244140625</AltitudeMeters>
            <DistanceMeters>23939.710688052</DistanceMeters>
          </Trackpoint>
          <Trackpoint>
            <Time>2022-08-27T05:20:05.000Z</Time>
            <Position>
              <LatitudeDegrees>50.213828422129154205322265625</LatitudeDegrees>
              <LongitudeDegrees>16.9981149025261402130126953125</LongitudeDegrees>
            </Position>
            <AltitudeMeters>1036.5999755859375</AltitudeMeters>
            <DistanceMeters>23945.989646067</DistanceMeters>
          </Trackpoint>
          <Trackpoint>
            <Time>2022-08-27T05:20:11.000Z</Time>
            <Position>
              <LatitudeDegrees>50.21386764943599700927734375</LatitudeDegrees>
              <LongitudeDegrees>16.9982434809207916259765625</LongitudeDegrees>
            </Position>
            <AltitudeMeters>1036.5999755859375</AltitudeMeters>
            <DistanceMeters>23956.134832674</DistanceMeters>
          </Trackpoint>
          <Trackpoint>
            <Time>2022-08-27T05:20:22.000Z</Time>
            <Position>
              <LatitudeDegrees>50.2139244787395000457763671875</LatitudeDegrees>
              <LongitudeDegrees>16.99836744926869869232177734375</LongitudeDegrees>
            </Position>
            <AltitudeMeters>1037</AltitudeMeters>
            <DistanceMeters>23966.996182437</DistanceMeters>
          </Trackpoint>
          <Trackpoint>
            <Time>2022-08-27T05:20:33.000Z</Time>
            <Position>
              <LatitudeDegrees>50.21399773657321929931640625</LatitudeDegrees>
              <LongitudeDegrees>16.9984391145408153533935546875</LongitudeDegrees>
            </Position>
            <AltitudeMeters>1037.5999755859375</AltitudeMeters>
            <DistanceMeters>23976.615965355</DistanceMeters>
          </Trackpoint>
          <Trackpoint>
            <Time>2022-08-27T05:20:34.000Z</Time>
            <Position>
              <LatitudeDegrees>50.21400553174316883087158203125</LatitudeDegrees>
              <LongitudeDegrees>16.9984458200633525848388671875</LongitudeDegrees>
            </Position>
            <AltitudeMeters>1037.5999755859375</AltitudeMeters>
            <DistanceMeters>23977.60351194</DistanceMeters>
          </Trackpoint>
          <Trackpoint>
            <Time>2022-08-27T05:20:46.000Z</Time>
            <Position>
              <LatitudeDegrees>50.21409555338323116302490234375</LatitudeDegrees>
              <LongitudeDegrees>16.99848194606602191925048828125</LongitudeDegrees>
            </Position>
            <AltitudeMeters>1038.4000244140625</AltitudeMeters>
            <DistanceMeters>23987.947902007</DistanceMeters>
          </Trackpoint>
          <Trackpoint>
            <Time>2022-08-27T05:20:50.000Z</Time>
            <Position>
              <LatitudeDegrees>50.21412304602563381195068359375</LatitudeDegrees>
              <LongitudeDegrees>16.998492591083049774169921875</LongitudeDegrees>
            </Position>
            <AltitudeMeters>1038.800048828125</AltitudeMeters>
            <DistanceMeters>23991.099581573</DistanceMeters>
          </Trackpoint>
          <Trackpoint>
            <Time>2022-08-27T05:20:56.000Z</Time>
            <Position>
              <LatitudeDegrees>50.2141776122152805328369140625</LatitudeDegrees>
              <LongitudeDegrees>16.99851446785032749176025390625</LongitudeDegrees>
            </Position>
            <AltitudeMeters>1039</AltitudeMeters>
            <DistanceMeters>23997.369904757</DistanceMeters>
          </Trackpoint>
          <Trackpoint>
            <Time>2022-08-27T05:21:06.000Z</Time>
            <Position>
              <LatitudeDegrees>50.214235447347164154052734375</LatitudeDegrees>
              <LongitudeDegrees>16.99851103127002716064453125</LongitudeDegrees>
            </Position>
            <AltitudeMeters>1039.800048828125</AltitudeMeters>
            <DistanceMeters>24003.811426415</DistanceMeters>
          </Trackpoint>
          <Trackpoint>
            <Time>2022-08-27T05:21:08.000Z</Time>
            <Position>
              <LatitudeDegrees>50.214258916676044464111328125</LatitudeDegrees>
              <LongitudeDegrees>16.99851161800324916839599609375</LongitudeDegrees>
            </Position>
            <AltitudeMeters>1039.800048828125</AltitudeMeters>
            <DistanceMeters>24006.424229084</DistanceMeters>
          </Trackpoint>
          <Trackpoint>
            <Time>2022-08-27T05:21:15.000Z</Time>
            <Position>
              <LatitudeDegrees>50.21431130357086658477783203125</LatitudeDegrees>
              <LongitudeDegrees>16.99851932935416698455810546875</LongitudeDegrees>
            </Position>
            <AltitudeMeters>1040.5999755859375</AltitudeMeters>
            <DistanceMeters>24012.281298352</DistanceMeters>
          </Trackpoint>
          <Trackpoint>
            <Time>2022-08-27T05:21:21.000Z</Time>
            <Position>
              <LatitudeDegrees>50.2143646962940692901611328125</LatitudeDegrees>
              <LongitudeDegrees>16.9985323213040828704833984375</LongitudeDegrees>
            </Position>
            <AltitudeMeters>1041</AltitudeMeters>
            <DistanceMeters>24018.295821296</DistanceMeters>
          </Trackpoint>
          <Trackpoint>
            <Time>2022-08-27T05:21:27.000Z</Time>
            <Position>
              <LatitudeDegrees>50.21442295052111148834228515625</LatitudeDegrees>
              <LongitudeDegrees>16.99855168350040912628173828125</LongitudeDegrees>
            </Position>
            <AltitudeMeters>1041.4000244140625</AltitudeMeters>
            <DistanceMeters>24024.924573213</DistanceMeters>
          </Trackpoint>
          <Trackpoint>
            <Time>2022-08-27T05:21:35.000Z</Time>
            <Position>
              <LatitudeDegrees>50.21449285559356212615966796875</LatitudeDegrees>
              <LongitudeDegrees>16.99855218641459941864013671875</LongitudeDegrees>
            </Position>
            <AltitudeMeters>1042</AltitudeMeters>
            <DistanceMeters>24032.705166537</DistanceMeters>
          </Trackpoint>
          <Trackpoint>
            <Time>2022-08-27T05:21:37.000Z</Time>
            <Position>
              <LatitudeDegrees>50.214512050151824951171875</LatitudeDegrees>
              <LongitudeDegrees>16.99855386279523372650146484375</LongitudeDegrees>
            </Position>
            <AltitudeMeters>1042</AltitudeMeters>
            <DistanceMeters>24034.842739619</DistanceMeters>
          </Trackpoint>
          <Trackpoint>
            <Time>2022-08-27T05:21:48.000Z</Time>
            <Position>
              <LatitudeDegrees>50.21461539901793003082275390625</LatitudeDegrees>
              <LongitudeDegrees>16.99856827966868877410888671875</LongitudeDegrees>
            </Position>
            <AltitudeMeters>1042.800048828125</AltitudeMeters>
            <DistanceMeters>24046.391515705</DistanceMeters>
          </Trackpoint>
          <Trackpoint>
            <Time>2022-08-27T05:21:50.000Z</Time>
            <Position>
              <LatitudeDegrees>50.21463920362293720245361328125</LatitudeDegrees>
              <LongitudeDegrees>16.998574398458003997802734375</LongitudeDegrees>
            </Position>
            <AltitudeMeters>1043</AltitudeMeters>
            <DistanceMeters>24049.075915266</DistanceMeters>
          </Trackpoint>
          <Trackpoint>
            <Time>2022-08-27T05:21:53.000Z</Time>
            <Position>
              <LatitudeDegrees>50.21467021666467189788818359375</LatitudeDegrees>
              <LongitudeDegrees>16.9985812716186046600341796875</LongitudeDegrees>
            </Position>
            <AltitudeMeters>1043.199951171875</AltitudeMeters>
            <DistanceMeters>24052.562243261</DistanceMeters>
          </Trackpoint>
          <Trackpoint>
            <Time>2022-08-27T05:21:58.000Z</Time>
            <Position>
              <LatitudeDegrees>50.21470961160957813262939453125</LatitudeDegrees>
              <LongitudeDegrees>16.99859577231109142303466796875</LongitudeDegrees>
            </Position>
            <AltitudeMeters>1043.5999755859375</AltitudeMeters>
            <DistanceMeters>24057.06675009</DistanceMeters>
          </Trackpoint>
          <Trackpoint>
            <Time>2022-08-27T05:22:05.000Z</Time>
            <Position>
              <LatitudeDegrees>50.21475856192409992218017578125</LatitudeDegrees>
              <LongitudeDegrees>16.9985973648726940155029296875</LongitudeDegrees>
            </Position>
            <AltitudeMeters>1044</AltitudeMeters>
            <DistanceMeters>24062.515684972</DistanceMeters>
          </Trackpoint>
          <Trackpoint>
            <Time>2022-08-27T05:22:10.000Z</Time>
            <Position>
              <LatitudeDegrees>50.2147941850125789642333984375</LatitudeDegrees>
              <LongitudeDegrees>16.99858822859823703765869140625</LongitudeDegrees>
            </Position>
            <AltitudeMeters>1044.4000244140625</AltitudeMeters>
            <DistanceMeters>24066.53386574</DistanceMeters>
          </Trackpoint>
          <Trackpoint>
            <Time>2022-08-27T05:22:21.000Z</Time>
            <Position>
              <LatitudeDegrees>50.21487188525497913360595703125</LatitudeDegrees>
              <LongitudeDegrees>16.99858319945633411407470703125</LongitudeDegrees>
            </Position>
            <AltitudeMeters>1045</AltitudeMeters>
            <DistanceMeters>24075.189646713</DistanceMeters>
          </Trackpoint>
          <Trackpoint>
            <Time>2022-08-27T05:22:22.000Z</Time>
            <Position>
              <LatitudeDegrees>50.2148790098726749420166015625</LatitudeDegrees>
              <LongitudeDegrees>16.99858856387436389923095703125</LongitudeDegrees>
            </Position>
            <AltitudeMeters>1045</AltitudeMeters>
            <DistanceMeters>24076.060580936</DistanceMeters>
          </Trackpoint>
          <Trackpoint>
            <Time>2022-08-27T05:22:33.000Z</Time>
            <Position>
              <LatitudeDegrees>50.2149577997624874114990234375</LatitudeDegrees>
              <LongitudeDegrees>16.9985769130289554595947265625</LongitudeDegrees>
            </Position>
            <AltitudeMeters>1045.5999755859375</AltitudeMeters>
            <DistanceMeters>24084.868896144</DistanceMeters>
          </Trackpoint>
          <Trackpoint>
            <Time>2022-08-27T05:22:42.000Z</Time>
            <Position>
              <LatitudeDegrees>50.21501571871340274810791015625</LatitudeDegrees>
              <LongitudeDegrees>16.99858034960925579071044921875</LongitudeDegrees>
            </Position>
            <AltitudeMeters>1046</AltitudeMeters>
            <DistanceMeters>24091.31952342</DistanceMeters>
          </Trackpoint>
          <Trackpoint>
            <Time>2022-08-27T05:22:44.000Z</Time>
            <Position>
              <LatitudeDegrees>50.215028040111064910888671875</LatitudeDegrees>
              <LongitudeDegrees>16.9985787570476531982421875</LongitudeDegrees>
            </Position>
            <AltitudeMeters>1046</AltitudeMeters>
            <DistanceMeters>24092.693308693</DistanceMeters>
          </Trackpoint>
          <Trackpoint>
            <Time>2022-08-27T05:22:53.000Z</Time>
            <Position>
              <LatitudeDegrees>50.21510523743927478790283203125</LatitudeDegrees>
              <LongitudeDegrees>16.99858747422695159912109375</LongitudeDegrees>
            </Position>
            <AltitudeMeters>1046.800048828125</AltitudeMeters>
            <DistanceMeters>24101.307783037</DistanceMeters>
          </Trackpoint>
          <Trackpoint>
            <Time>2022-08-27T05:22:59.000Z</Time>
            <Position>
              <LatitudeDegrees>50.21514580585062503814697265625</LatitudeDegrees>
              <LongitudeDegrees>16.998598873615264892578125</LongitudeDegrees>
            </Position>
            <AltitudeMeters>1047</AltitudeMeters>
            <DistanceMeters>24105.896697753</DistanceMeters>
          </Trackpoint>
          <Trackpoint>
            <Time>2022-08-27T05:23:06.000Z</Time>
            <Position>
              <LatitudeDegrees>50.2152065746486186981201171875</LatitudeDegrees>
              <LongitudeDegrees>16.99859342537820339202880859375</LongitudeDegrees>
            </Position>
            <AltitudeMeters>1047.4000244140625</AltitudeMeters>
            <DistanceMeters>24112.671642665</DistanceMeters>
          </Trackpoint>
          <Trackpoint>
            <Time>2022-08-27T05:23:16.000Z</Time>
            <Position>
              <LatitudeDegrees>50.2152860350906848907470703125</LatitudeDegrees>
              <LongitudeDegrees>16.99864857830107212066650390625</LongitudeDegrees>
            </Position>
            <AltitudeMeters>1048</AltitudeMeters>
            <DistanceMeters>24122.348516784</DistanceMeters>
          </Trackpoint>
          <Trackpoint>
            <Time>2022-08-27T05:23:18.000Z</Time>
            <Position>
              <LatitudeDegrees>50.21529869176447391510009765625</LatitudeDegrees>
              <LongitudeDegrees>16.9986614026129245758056640625</LongitudeDegrees>
            </Position>
            <AltitudeMeters>1048</AltitudeMeters>
            <DistanceMeters>24124.027023219</DistanceMeters>
          </Trackpoint>
          <Trackpoint>
            <Time>2022-08-27T05:23:26.000Z</Time>
            <Position>
              <LatitudeDegrees>50.21538351662456989288330078125</LatitudeDegrees>
              <LongitudeDegrees>16.99866232462227344512939453125</LongitudeDegrees>
            </Position>
            <AltitudeMeters>1048.4000244140625</AltitudeMeters>
            <DistanceMeters>24133.468203472</DistanceMeters>
          </Trackpoint>
          <Trackpoint>
            <Time>2022-08-27T05:23:35.000Z</Time>
            <Position>
              <LatitudeDegrees>50.2154816687107086181640625</LatitudeDegrees>
              <LongitudeDegrees>16.9986436329782009124755859375</LongitudeDegrees>
            </Position>
            <AltitudeMeters>1048.800048828125</AltitudeMeters>
            <DistanceMeters>24144.473265274</DistanceMeters>
          </Trackpoint>
          <Trackpoint>
            <Time>2022-08-27T05:23:39.000Z</Time>
            <Position>
              <LatitudeDegrees>50.2155083231627941131591796875</LatitudeDegrees>
              <LongitudeDegrees>16.99866316281259059906005859375</LongitudeDegrees>
            </Position>
            <AltitudeMeters>1049</AltitudeMeters>
            <DistanceMeters>24147.749964969</DistanceMeters>
          </Trackpoint>
          <Trackpoint>
            <Time>2022-08-27T05:23:45.000Z</Time>
            <Position>
              <LatitudeDegrees>50.21555266343057155609130859375</LatitudeDegrees>
              <LongitudeDegrees>16.99867732822895050048828125</LongitudeDegrees>
            </Position>
            <AltitudeMeters>1049.4000244140625</AltitudeMeters>
            <DistanceMeters>24152.78727723</DistanceMeters>
          </Trackpoint>
          <Trackpoint>
            <Time>2022-08-27T05:23:54.000Z</Time>
            <Position>
              <LatitudeDegrees>50.21564955823123455047607421875</LatitudeDegrees>
              <LongitudeDegrees>16.99871412478387355804443359375</LongitudeDegrees>
            </Position>
            <AltitudeMeters>1049.800048828125</AltitudeMeters>
            <DistanceMeters>24163.885486216</DistanceMeters>
          </Trackpoint>
          <Trackpoint>
            <Time>2022-08-27T05:24:03.000Z</Time>
            <Position>
              <LatitudeDegrees>50.215707309544086456298828125</LatitudeDegrees>
              <LongitudeDegrees>16.99874312616884708404541015625</LongitudeDegrees>
            </Position>
            <AltitudeMeters>1050</AltitudeMeters>
            <DistanceMeters>24170.637065726</DistanceMeters>
          </Trackpoint>
          <Trackpoint>
            <Time>2022-08-27T05:24:11.000Z</Time>
            <Position>
              <LatitudeDegrees>50.2157228998839855194091796875</LatitudeDegrees>
              <LongitudeDegrees>16.99879542924463748931884765625</LongitudeDegrees>
            </Position>
            <AltitudeMeters>1050</AltitudeMeters>
            <DistanceMeters>24174.746353128</DistanceMeters>
          </Trackpoint>
          <Trackpoint>
            <Time>2022-08-27T05:24:14.000Z</Time>
            <Position>
              <LatitudeDegrees>50.21573270671069622039794921875</LatitudeDegrees>
              <LongitudeDegrees>16.9988303817808628082275390625</LongitudeDegrees>
            </Position>
            <AltitudeMeters>1050.199951171875</AltitudeMeters>
            <DistanceMeters>24177.465844369</DistanceMeters>
          </Trackpoint>
          <Trackpoint>
            <Time>2022-08-27T05:24:24.000Z</Time>
            <Position>
              <LatitudeDegrees>50.2157614566385746002197265625</LatitudeDegrees>
              <LongitudeDegrees>16.99894194491207599639892578125</LongitudeDegrees>
            </Position>
            <AltitudeMeters>1050.800048828125</AltitudeMeters>
            <DistanceMeters>24186.031963746</DistanceMeters>
          </Trackpoint>
          <Trackpoint>
            <Time>2022-08-27T05:24:32.000Z</Time>
            <Position>
              <LatitudeDegrees>50.2157785557210445404052734375</LatitudeDegrees>
              <LongitudeDegrees>16.99901352636516094207763671875</LongitudeDegrees>
            </Position>
            <AltitudeMeters>1051.199951171875</AltitudeMeters>
            <DistanceMeters>24191.474265716</DistanceMeters>
          </Trackpoint>
          <Trackpoint>
            <Time>2022-08-27T05:24:35.000Z</Time>
            <Position>
              <LatitudeDegrees>50.21578383632004261016845703125</LatitudeDegrees>
              <LongitudeDegrees>16.9990320503711700439453125</LongitudeDegrees>
            </Position>
            <AltitudeMeters>1051.199951171875</AltitudeMeters>
            <DistanceMeters>24192.921669507</DistanceMeters>
          </Trackpoint>
          <Trackpoint>
            <Time>2022-08-27T05:24:46.000Z</Time>
            <Position>
              <LatitudeDegrees>50.21580562926828861236572265625</LatitudeDegrees>
              <LongitudeDegrees>16.99914939701557159423828125</LongitudeDegrees>
            </Position>
            <AltitudeMeters>1051.800048828125</AltitudeMeters>
            <DistanceMeters>24201.624788558</DistanceMeters>
          </Trackpoint>
          <Trackpoint>
            <Time>2022-08-27T05:24:53.000Z</Time>
            <Position>
              <LatitudeDegrees>50.2158311940729618072509765625</LatitudeDegrees>
              <LongitudeDegrees>16.99927101843059062957763671875</LongitudeDegrees>
            </Position>
            <AltitudeMeters>1052.199951171875</AltitudeMeters>
            <DistanceMeters>24210.741907273</DistanceMeters>
          </Trackpoint>
          <Trackpoint>
            <Time>2022-08-27T05:24:57.000Z</Time>
            <Position>
              <LatitudeDegrees>50.21583597175776958465576171875</LatitudeDegrees>
              <LongitudeDegrees>16.9993212260305881500244140625</LongitudeDegrees>
            </Position>
            <AltitudeMeters>1052.4000244140625</AltitudeMeters>
            <DistanceMeters>24214.357920367</DistanceMeters>
          </Trackpoint>
          <Trackpoint>
            <Time>2022-08-27T05:25:07.000Z</Time>
            <Position>
              <LatitudeDegrees>50.2158674038946628570556640625</LatitudeDegrees>
              <LongitudeDegrees>16.999457515776157379150390625</LongitudeDegrees>
            </Position>
            <AltitudeMeters>1052.5999755859375</AltitudeMeters>
            <DistanceMeters>24224.67608887</DistanceMeters>
          </Trackpoint>
          <Trackpoint>
            <Time>2022-08-27T05:25:17.000Z</Time>
            <Position>
              <LatitudeDegrees>50.21589347161352634429931640625</LatitudeDegrees>
              <LongitudeDegrees>16.99957276694476604461669921875</LongitudeDegrees>
            </Position>
            <AltitudeMeters>1053</AltitudeMeters>
            <DistanceMeters>24233.382320068</DistanceMeters>
          </Trackpoint>
          <Trackpoint>
            <Time>2022-08-27T05:25:23.000Z</Time>
            <Position>
              <LatitudeDegrees>50.21590872667729854583740234375</LatitudeDegrees>
              <LongitudeDegrees>16.99963596649467945098876953125</LongitudeDegrees>
            </Position>
            <AltitudeMeters>1053.4000244140625</AltitudeMeters>
            <DistanceMeters>24238.193150134</DistanceMeters>
          </Trackpoint>
          <Trackpoint>
            <Time>2022-08-27T05:25:27.000Z</Time>
            <Position>
              <LatitudeDegrees>50.21592247299849987030029296875</LatitudeDegrees>
              <LongitudeDegrees>16.99970327317714691162109375</LongitudeDegrees>
            </Position>
            <AltitudeMeters>1053.5999755859375</AltitudeMeters>
            <DistanceMeters>24243.225081607</DistanceMeters>
          </Trackpoint>
          <Trackpoint>
            <Time>2022-08-27T05:25:36.000Z</Time>
            <Position>
              <LatitudeDegrees>50.21593420766294002532958984375</LatitudeDegrees>
              <LongitudeDegrees>16.99981902725994586944580078125</LongitudeDegrees>
            </Position>
            <AltitudeMeters>1054.199951171875</AltitudeMeters>
            <DistanceMeters>24251.571759975</DistanceMeters>
          </Trackpoint>
          <Trackpoint>
            <Time>2022-08-27T05:25:37.000Z</Time>
            <Position>
              <LatitudeDegrees>50.2159322798252105712890625</LatitudeDegrees>
              <LongitudeDegrees>16.9998393952846527099609375</LongitudeDegrees>
            </Position>
            <AltitudeMeters>1054.199951171875</AltitudeMeters>
            <DistanceMeters>24253.037760723</DistanceMeters>
          </Trackpoint>
          <Trackpoint>
            <Time>2022-08-27T05:25:39.000Z</Time>
            <Position>
              <LatitudeDegrees>50.2159349620342254638671875</LatitudeDegrees>
              <LongitudeDegrees>16.99986780993640422821044921875</LongitudeDegrees>
            </Position>
            <AltitudeMeters>1054.4000244140625</AltitudeMeters>
            <DistanceMeters>24255.082491853</DistanceMeters>
          </Trackpoint>
          <Trackpoint>
            <Time>2022-08-27T05:25:42.000Z</Time>
            <Position>
              <LatitudeDegrees>50.215938985347747802734375</LatitudeDegrees>
              <LongitudeDegrees>16.99989681132137775421142578125</LongitudeDegrees>
            </Position>
            <AltitudeMeters>1054.5999755859375</AltitudeMeters>
            <DistanceMeters>24257.194566133</DistanceMeters>
          </Trackpoint>
          <Trackpoint>
            <Time>2022-08-27T05:25:53.000Z</Time>
            <Position>
              <LatitudeDegrees>50.2159599401056766510009765625</LatitudeDegrees>
              <LongitudeDegrees>17.0000440813601016998291015625</LongitudeDegrees>
            </Position>
            <AltitudeMeters>1055.199951171875</AltitudeMeters>
            <DistanceMeters>24267.939730506</DistanceMeters>
          </Trackpoint>
          <Trackpoint>
            <Time>2022-08-27T05:25:56.000Z</Time>
            <Position>
              <LatitudeDegrees>50.21596840582787990570068359375</LatitudeDegrees>
              <LongitudeDegrees>17.00007702223956584930419921875</LongitudeDegrees>
            </Position>
            <AltitudeMeters>1055.4000244140625</AltitudeMeters>
            <DistanceMeters>24270.468226921</DistanceMeters>
          </Trackpoint>
          <Trackpoint>
            <Time>2022-08-27T05:26:04.000Z</Time>
            <Position>
              <LatitudeDegrees>50.2159845829010009765625</LatitudeDegrees>
              <LongitudeDegrees>17.0001805387437343597412109375</LongitudeDegrees>
            </Position>
            <AltitudeMeters>1055.800048828125</AltitudeMeters>
            <DistanceMeters>24278.05728665</DistanceMeters>
          </Trackpoint>
          <Trackpoint>
            <Time>2022-08-27T05:26:15.000Z</Time>
            <Position>
              <LatitudeDegrees>50.21601920016109943389892578125</LatitudeDegrees>
              <LongitudeDegrees>17.00034021399915218353271484375</LongitudeDegrees>
            </Position>
            <AltitudeMeters>1056.4000244140625</AltitudeMeters>
            <DistanceMeters>24290.06454281</DistanceMeters>
          </Trackpoint>
          <Trackpoint>
            <Time>2022-08-27T05:26:17.000Z</Time>
            <Position>
              <LatitudeDegrees>50.21602372638881206512451171875</LatitudeDegrees>
              <LongitudeDegrees>17.0003689639270305633544921875</LongitudeDegrees>
            </Position>
            <AltitudeMeters>1056.4000244140625</AltitudeMeters>
            <DistanceMeters>24292.1723373</DistanceMeters>
          </Trackpoint>
          <Trackpoint>
            <Time>2022-08-27T05:26:26.000Z</Time>
            <Position>
              <LatitudeDegrees>50.21605038084089756011962890625</LatitudeDegrees>
              <LongitudeDegrees>17.000502236187458038330078125</LongitudeDegrees>
            </Position>
            <AltitudeMeters>1056.800048828125</AltitudeMeters>
            <DistanceMeters>24302.11705435</DistanceMeters>
          </Trackpoint>
          <Trackpoint>
            <Time>2022-08-27T05:26:37.000Z</Time>
            <Position>
              <LatitudeDegrees>50.21609413437545299530029296875</LatitudeDegrees>
              <LongitudeDegrees>17.00066543184220790863037109375</LongitudeDegrees>
            </Position>
            <AltitudeMeters>1057.199951171875</AltitudeMeters>
            <DistanceMeters>24314.718757582</DistanceMeters>
          </Trackpoint>
          <Trackpoint>
            <Time>2022-08-27T05:26:44.000Z</Time>
            <Position>
              <LatitudeDegrees>50.216104276478290557861328125</LatitudeDegrees>
              <LongitudeDegrees>17.000726871192455291748046875</LongitudeDegrees>
            </Position>
            <AltitudeMeters>1057.5999755859375</AltitudeMeters>
            <DistanceMeters>24319.237275352</DistanceMeters>
          </Trackpoint>
          <Trackpoint>
            <Time>2022-08-27T05:26:49.000Z</Time>
            <Position>
              <LatitudeDegrees>50.21610788069665431976318359375</LatitudeDegrees>
              <LongitudeDegrees>17.00078210793435573577880859375</LongitudeDegrees>
            </Position>
            <AltitudeMeters>1058</AltitudeMeters>
            <DistanceMeters>24323.192031021</DistanceMeters>
          </Trackpoint>
          <Trackpoint>
            <Time>2022-08-27T05:26:59.000Z</Time>
            <Position>
              <LatitudeDegrees>50.2161148376762866973876953125</LatitudeDegrees>
              <LongitudeDegrees>17.00090649537742137908935546875</LongitudeDegrees>
            </Position>
            <AltitudeMeters>1058.5999755859375</AltitudeMeters>
            <DistanceMeters>24332.0850288</DistanceMeters>
          </Trackpoint>
          <Trackpoint>
            <Time>2022-08-27T05:27:05.000Z</Time>
            <Position>
              <LatitudeDegrees>50.21611693315207958221435546875</LatitudeDegrees>
              <LongitudeDegrees>17.000980675220489501953125</LongitudeDegrees>
            </Position>
            <AltitudeMeters>1058.800048828125</AltitudeMeters>
            <DistanceMeters>24337.374185332</DistanceMeters>
          </Trackpoint>
          <Trackpoint>
            <Time>2022-08-27T05:27:11.000Z</Time>
            <Position>
              <LatitudeDegrees>50.21612145937979221343994140625</LatitudeDegrees>
              <LongitudeDegrees>17.0010515861213207244873046875</LongitudeDegrees>
            </Position>
            <AltitudeMeters>1059</AltitudeMeters>
            <DistanceMeters>24342.449003361</DistanceMeters>
          </Trackpoint>
          <Trackpoint>
            <Time>2022-08-27T05:27:19.000Z</Time>
            <Position>
              <LatitudeDegrees>50.216145180165767669677734375</LatitudeDegrees>
              <LongitudeDegrees>17.00113096274435520172119140625</LongitudeDegrees>
            </Position>
            <AltitudeMeters>1059.199951171875</AltitudeMeters>
            <DistanceMeters>24348.689010542</DistanceMeters>
          </Trackpoint>
          <Trackpoint>
            <Time>2022-08-27T05:27:29.000Z</Time>
            <Position>
              <LatitudeDegrees>50.2161547355353832244873046875</LatitudeDegrees>
              <LongitudeDegrees>17.00124478898942470550537109375</LongitudeDegrees>
            </Position>
            <AltitudeMeters>1059.5999755859375</AltitudeMeters>
            <DistanceMeters>24356.865726631</DistanceMeters>
          </Trackpoint>
          <Trackpoint>
            <Time>2022-08-27T05:27:35.000Z</Time>
            <Position>
              <LatitudeDegrees>50.21617845632135868072509765625</LatitudeDegrees>
              <LongitudeDegrees>17.00131385587155818939208984375</LongitudeDegrees>
            </Position>
            <AltitudeMeters>1059.800048828125</AltitudeMeters>
            <DistanceMeters>24362.447282304</DistanceMeters>
          </Trackpoint>
          <Trackpoint>
            <Time>2022-08-27T05:27:38.000Z</Time>
            <Position>
              <LatitudeDegrees>50.21619421429932117462158203125</LatitudeDegrees>
              <LongitudeDegrees>17.0013580285012722015380859375</LongitudeDegrees>
            </Position>
            <AltitudeMeters>1059.800048828125</AltitudeMeters>
            <DistanceMeters>24366.048280745</DistanceMeters>
          </Trackpoint>
          <Trackpoint>
            <Time>2022-08-27T05:27:46.000Z</Time>
            <Position>
              <LatitudeDegrees>50.21621734835207462310791015625</LatitudeDegrees>
              <LongitudeDegrees>17.0014683343470096588134765625</LongitudeDegrees>
            </Position>
            <AltitudeMeters>1060</AltitudeMeters>
            <DistanceMeters>24374.315058746</DistanceMeters>
          </Trackpoint>
          <Trackpoint>
            <Time>2022-08-27T05:27:56.000Z</Time>
            <Position>
              <LatitudeDegrees>50.21622941829264163970947265625</LatitudeDegrees>
              <LongitudeDegrees>17.00157813727855682373046875</LongitudeDegrees>
            </Position>
            <AltitudeMeters>1060.199951171875</AltitudeMeters>
            <DistanceMeters>24382.249647139</DistanceMeters>
          </Trackpoint>
          <Trackpoint>
            <Time>2022-08-27T05:28:06.000Z</Time>
            <Position>
              <LatitudeDegrees>50.21623914130032062530517578125</LatitudeDegrees>
              <LongitudeDegrees>17.00168701820075511932373046875</LongitudeDegrees>
            </Position>
            <AltitudeMeters>1060.4000244140625</AltitudeMeters>
            <DistanceMeters>24390.079986791</DistanceMeters>
          </Trackpoint>
          <Trackpoint>
            <Time>2022-08-27T05:28:13.000Z</Time>
            <Position>
              <LatitudeDegrees>50.2162439189851284027099609375</LatitudeDegrees>
              <LongitudeDegrees>17.0017710886895656585693359375</LongitudeDegrees>
            </Position>
            <AltitudeMeters>1060.800048828125</AltitudeMeters>
            <DistanceMeters>24396.091506227</DistanceMeters>
          </Trackpoint>
          <Trackpoint>
            <Time>2022-08-27T05:28:17.000Z</Time>
            <Position>
              <LatitudeDegrees>50.21625020541250705718994140625</LatitudeDegrees>
              <LongitudeDegrees>17.00180805288255214691162109375</LongitudeDegrees>
            </Position>
            <AltitudeMeters>1060.800048828125</AltitudeMeters>
            <DistanceMeters>24398.815973668</DistanceMeters>
          </Trackpoint>
          <Trackpoint>
            <Time>2022-08-27T05:28:27.000Z</Time>
            <Position>
              <LatitudeDegrees>50.2162667177617549896240234375</LatitudeDegrees>
              <LongitudeDegrees>17.0019400678575038909912109375</LongitudeDegrees>
            </Position>
            <AltitudeMeters>1061.199951171875</AltitudeMeters>
            <DistanceMeters>24408.396250124</DistanceMeters>
          </Trackpoint>
          <Trackpoint>
            <Time>2022-08-27T05:28:37.000Z</Time>
            <Position>
              <LatitudeDegrees>50.21628188900649547576904296875</LatitudeDegrees>
              <LongitudeDegrees>17.00207308866083621978759765625</LongitudeDegrees>
            </Position>
            <AltitudeMeters>1061.4000244140625</AltitudeMeters>
            <DistanceMeters>24418.019787104</DistanceMeters>
          </Trackpoint>
          <Trackpoint>
            <Time>2022-08-27T05:28:48.000Z</Time>
            <Position>
              <LatitudeDegrees>50.21630770526826381683349609375</LatitudeDegrees>
              <LongitudeDegrees>17.0022357814013957977294921875</LongitudeDegrees>
            </Position>
            <AltitudeMeters>1061.800048828125</AltitudeMeters>
            <DistanceMeters>24429.958410416</DistanceMeters>
          </Trackpoint>
          <Trackpoint>
            <Time>2022-08-27T05:28:55.000Z</Time>
            <Position>
              <LatitudeDegrees>50.21632262505590915679931640625</LatitudeDegrees>
              <LongitudeDegrees>17.00234600342810153961181640625</LongitudeDegrees>
            </Position>
            <AltitudeMeters>1061.800048828125</AltitudeMeters>
            <DistanceMeters>24437.982402256</DistanceMeters>
          </Trackpoint>
          <Trackpoint>
            <Time>2022-08-27T05:29:00.000Z</Time>
            <Position>
              <LatitudeDegrees>50.21633930504322052001953125</LatitudeDegrees>
              <LongitudeDegrees>17.00241498649120330810546875</LongitudeDegrees>
            </Position>
            <AltitudeMeters>1062</AltitudeMeters>
            <DistanceMeters>24443.233864287</DistanceMeters>
          </Trackpoint>
          <Trackpoint>
            <Time>2022-08-27T05:29:03.000Z</Time>
            <Position>
              <LatitudeDegrees>50.21634927950799465179443359375</LatitudeDegrees>
              <LongitudeDegrees>17.00245597399771213531494140625</LongitudeDegrees>
            </Position>
            <AltitudeMeters>1062</AltitudeMeters>
            <DistanceMeters>24446.356760788</DistanceMeters>
          </Trackpoint>
          <Trackpoint>
            <Time>2022-08-27T05:29:10.000Z</Time>
            <Position>
              <LatitudeDegrees>50.2163813821971416473388671875</LatitudeDegrees>
              <LongitudeDegrees>17.00255203060805797576904296875</LongitudeDegrees>
            </Position>
            <AltitudeMeters>1062.199951171875</AltitudeMeters>
            <DistanceMeters>24454.075012812</DistanceMeters>
          </Trackpoint>
          <Trackpoint>
            <Time>2022-08-27T05:29:19.000Z</Time>
            <Position>
              <LatitudeDegrees>50.21641599945724010467529296875</LatitudeDegrees>
              <LongitudeDegrees>17.0026796869933605194091796875</LongitudeDegrees>
            </Position>
            <AltitudeMeters>1062.4000244140625</AltitudeMeters>
            <DistanceMeters>24463.949564217</DistanceMeters>
          </Trackpoint>
          <Trackpoint>
            <Time>2022-08-27T05:29:28.000Z</Time>
            <Position>
              <LatitudeDegrees>50.216461680829524993896484375</LatitudeDegrees>
              <LongitudeDegrees>17.00278379023075103759765625</LongitudeDegrees>
            </Position>
            <AltitudeMeters>1062.5999755859375</AltitudeMeters>
            <DistanceMeters>24472.939513281</DistanceMeters>
          </Trackpoint>
          <Trackpoint>
            <Time>2022-08-27T05:29:40.000Z</Time>
            <Position>
              <LatitudeDegrees>50.21648204885423183441162109375</LatitudeDegrees>
              <LongitudeDegrees>17.0028956048190593719482421875</LongitudeDegrees>
            </Position>
            <AltitudeMeters>1062.800048828125</AltitudeMeters>
            <DistanceMeters>24481.219388905</DistanceMeters>
          </Trackpoint>
          <Trackpoint>
            <Time>2022-08-27T05:29:49.000Z</Time>
            <Position>
              <LatitudeDegrees>50.21650585345923900604248046875</LatitudeDegrees>
              <LongitudeDegrees>17.0029951818287372589111328125</LongitudeDegrees>
            </Position>
            <AltitudeMeters>1063</AltitudeMeters>
            <DistanceMeters>24488.789386601</DistanceMeters>
          </Trackpoint>
          <Trackpoint>
            <Time>2022-08-27T05:29:52.000Z</Time>
            <Position>
              <LatitudeDegrees>50.2165151573717594146728515625</LatitudeDegrees>
              <LongitudeDegrees>17.00302627868950366973876953125</LongitudeDegrees>
            </Position>
            <AltitudeMeters>1063</AltitudeMeters>
            <DistanceMeters>24491.234363208</DistanceMeters>
          </Trackpoint>
          <Trackpoint>
            <Time>2022-08-27T05:30:02.000Z</Time>
            <Position>
              <LatitudeDegrees>50.216545164585113525390625</LatitudeDegrees>
              <LongitudeDegrees>17.0031396858394145965576171875</LongitudeDegrees>
            </Position>
            <AltitudeMeters>1063.5999755859375</AltitudeMeters>
            <DistanceMeters>24499.974754887</DistanceMeters>
          </Trackpoint>
          <Trackpoint>
            <Time>2022-08-27T05:30:10.000Z</Time>
            <Position>
              <LatitudeDegrees>50.21657676436007022857666015625</LatitudeDegrees>
              <LongitudeDegrees>17.0032486505806446075439453125</LongitudeDegrees>
            </Position>
            <AltitudeMeters>1064</AltitudeMeters>
            <DistanceMeters>24508.495424732</DistanceMeters>
          </Trackpoint>
          <Trackpoint>
            <Time>2022-08-27T05:30:12.000Z</Time>
            <Position>
              <LatitudeDegrees>50.21658179350197315216064453125</LatitudeDegrees>
              <LongitudeDegrees>17.0032711140811443328857421875</LongitudeDegrees>
            </Position>
            <AltitudeMeters>1064.199951171875</AltitudeMeters>
            <DistanceMeters>24510.189993795</DistanceMeters>
          </Trackpoint>
          <Trackpoint>
            <Time>2022-08-27T05:30:23.000Z</Time>
            <Position>
              <LatitudeDegrees>50.216602496802806854248046875</LatitudeDegrees>
              <LongitudeDegrees>17.0033941604197025299072265625</LongitudeDegrees>
            </Position>
            <AltitudeMeters>1064.800048828125</AltitudeMeters>
            <DistanceMeters>24519.250979119</DistanceMeters>
          </Trackpoint>
          <Trackpoint>
            <Time>2022-08-27T05:30:26.000Z</Time>
            <Position>
              <LatitudeDegrees>50.2166097052395343780517578125</LatitudeDegrees>
              <LongitudeDegrees>17.0034266822040081024169921875</LongitudeDegrees>
            </Position>
            <AltitudeMeters>1064.800048828125</AltitudeMeters>
            <DistanceMeters>24521.703331237</DistanceMeters>
          </Trackpoint>
          <Trackpoint>
            <Time>2022-08-27T05:30:35.000Z</Time>
            <Position>
              <LatitudeDegrees>50.21662487648427486419677734375</LatitudeDegrees>
              <LongitudeDegrees>17.00351578183472156524658203125</LongitudeDegrees>
            </Position>
            <AltitudeMeters>1065.4000244140625</AltitudeMeters>
            <DistanceMeters>24528.270495396</DistanceMeters>
          </Trackpoint>
          <Trackpoint>
            <Time>2022-08-27T05:30:43.000Z</Time>
            <Position>
              <LatitudeDegrees>50.21663728170096874237060546875</LatitudeDegrees>
              <LongitudeDegrees>17.0036127604544162750244140625</LongitudeDegrees>
            </Position>
            <AltitudeMeters>1065.800048828125</AltitudeMeters>
            <DistanceMeters>24535.314020081</DistanceMeters>
          </Trackpoint>
          <Trackpoint>
            <Time>2022-08-27T05:30:50.000Z</Time>
            <Position>
              <LatitudeDegrees>50.21664775907993316650390625</LatitudeDegrees>
              <LongitudeDegrees>17.00369129888713359832763671875</LongitudeDegrees>
            </Position>
            <AltitudeMeters>1066.199951171875</AltitudeMeters>
            <DistanceMeters>24541.028279125</DistanceMeters>
          </Trackpoint>
          <Trackpoint>
            <Time>2022-08-27T05:31:01.000Z</Time>
            <Position>
              <LatitudeDegrees>50.21666997112333774566650390625</LatitudeDegrees>
              <LongitudeDegrees>17.00387972407042980194091796875</LongitudeDegrees>
            </Position>
            <AltitudeMeters>1066.800048828125</AltitudeMeters>
            <DistanceMeters>24554.673797667</DistanceMeters>
          </Trackpoint>
          <Trackpoint>
            <Time>2022-08-27T05:31:02.000Z</Time>
            <Position>
              <LatitudeDegrees>50.216670893132686614990234375</LatitudeDegrees>
              <LongitudeDegrees>17.00389564968645572662353515625</LongitudeDegrees>
            </Position>
            <AltitudeMeters>1067</AltitudeMeters>
            <DistanceMeters>24555.814118239</DistanceMeters>
          </Trackpoint>
          <Trackpoint>
            <Time>2022-08-27T05:31:13.000Z</Time>
            <Position>
              <LatitudeDegrees>50.2167096175253391265869140625</LatitudeDegrees>
              <LongitudeDegrees>17.00405121780931949615478515625</LongitudeDegrees>
            </Position>
            <AltitudeMeters>1067.4000244140625</AltitudeMeters>
            <DistanceMeters>24567.702715991</DistanceMeters>
          </Trackpoint>
          <Trackpoint>
            <Time>2022-08-27T05:31:22.000Z</Time>
            <Position>
              <LatitudeDegrees>50.2167538739740848541259765625</LatitudeDegrees>
              <LongitudeDegrees>17.00416982173919677734375</LongitudeDegrees>
            </Position>
            <AltitudeMeters>1068</AltitudeMeters>
            <DistanceMeters>24577.481237324</DistanceMeters>
          </Trackpoint>
          <Trackpoint>
            <Time>2022-08-27T05:31:29.000Z</Time>
            <Position>
              <LatitudeDegrees>50.21678346209228038787841796875</LatitudeDegrees>
              <LongitudeDegrees>17.0042004995048046112060546875</LongitudeDegrees>
            </Position>
            <AltitudeMeters>1068.4000244140625</AltitudeMeters>
            <DistanceMeters>24581.433708987</DistanceMeters>
          </Trackpoint>
          <Trackpoint>
            <Time>2022-08-27T05:31:38.000Z</Time>
            <Position>
              <LatitudeDegrees>50.216815732419490814208984375</LatitudeDegrees>
              <LongitudeDegrees>17.00420008040964603424072265625</LongitudeDegrees>
            </Position>
            <AltitudeMeters>1068.5999755859375</AltitudeMeters>
            <DistanceMeters>24585.025919899</DistanceMeters>
          </Trackpoint>
          <Trackpoint>
            <Time>2022-08-27T05:31:47.000Z</Time>
            <Position>
              <LatitudeDegrees>50.21686124615371227264404296875</LatitudeDegrees>
              <LongitudeDegrees>17.00417610816657543182373046875</LongitudeDegrees>
            </Position>
            <AltitudeMeters>1068.5999755859375</AltitudeMeters>
            <DistanceMeters>24590.37111979</DistanceMeters>
          </Trackpoint>
          <Trackpoint>
            <Time>2022-08-27T05:31:54.000Z</Time>
            <Position>
              <LatitudeDegrees>50.21686761640012264251708984375</LatitudeDegrees>
              <LongitudeDegrees>17.00417258776724338531494140625</LongitudeDegrees>
            </Position>
            <AltitudeMeters>1068.5999755859375</AltitudeMeters>
            <DistanceMeters>24591.119360887</DistanceMeters>
          </Trackpoint>
          <Trackpoint>
            <Time>2022-08-27T05:32:02.000Z</Time>
            <Position>
              <LatitudeDegrees>50.2169117890298366546630859375</LatitudeDegrees>
              <LongitudeDegrees>17.004182226955890655517578125</LongitudeDegrees>
            </Position>
            <AltitudeMeters>1068.4000244140625</AltitudeMeters>
            <DistanceMeters>24596.082630831</DistanceMeters>
          </Trackpoint>
          <Trackpoint>
            <Time>2022-08-27T05:32:10.000Z</Time>
            <Position>
              <LatitudeDegrees>50.21693517453968524932861328125</LatitudeDegrees>
              <LongitudeDegrees>17.00418851338326930999755859375</LongitudeDegrees>
            </Position>
            <AltitudeMeters>1068.4000244140625</AltitudeMeters>
            <DistanceMeters>24598.722937445</DistanceMeters>
          </Trackpoint>
          <Trackpoint>
            <Time>2022-08-27T05:32:20.000Z</Time>
            <Position>
              <LatitudeDegrees>50.2169443108141422271728515625</LatitudeDegrees>
              <LongitudeDegrees>17.00423461385071277618408203125</LongitudeDegrees>
            </Position>
            <AltitudeMeters>1068.800048828125</AltitudeMeters>
            <DistanceMeters>24602.161013952</DistanceMeters>
          </Trackpoint>
          <Trackpoint>
            <Time>2022-08-27T05:32:28.000Z</Time>
            <Position>
              <LatitudeDegrees>50.216982029378414154052734375</LatitudeDegrees>
              <LongitudeDegrees>17.00424014590680599212646484375</LongitudeDegrees>
            </Position>
            <AltitudeMeters>1068.800048828125</AltitudeMeters>
            <DistanceMeters>24606.376602931</DistanceMeters>
          </Trackpoint>
          <Trackpoint>
            <Time>2022-08-27T05:32:36.000Z</Time>
            <Position>
              <LatitudeDegrees>50.21700943820178508758544921875</LatitudeDegrees>
              <LongitudeDegrees>17.004260011017322540283203125</LongitudeDegrees>
            </Position>
            <AltitudeMeters>1069</AltitudeMeters>
            <DistanceMeters>24609.740333863</DistanceMeters>
          </Trackpoint>
          <Trackpoint>
            <Time>2022-08-27T05:32:37.000Z</Time>
            <Position>
              <LatitudeDegrees>50.2170137129724025726318359375</LatitudeDegrees>
              <LongitudeDegrees>17.0042598433792591094970703125</LongitudeDegrees>
            </Position>
            <AltitudeMeters>1069</AltitudeMeters>
            <DistanceMeters>24610.224876934</DistanceMeters>
          </Trackpoint>
          <Trackpoint>
            <Time>2022-08-27T05:32:44.000Z</Time>
            <Position>
              <LatitudeDegrees>50.2170452289283275604248046875</LatitudeDegrees>
              <LongitudeDegrees>17.00425405986607074737548828125</LongitudeDegrees>
            </Position>
            <AltitudeMeters>1069.199951171875</AltitudeMeters>
            <DistanceMeters>24613.757519804</DistanceMeters>
          </Trackpoint>
          <Trackpoint>
            <Time>2022-08-27T05:32:50.000Z</Time>
            <Position>
              <LatitudeDegrees>50.21707833744585514068603515625</LatitudeDegrees>
              <LongitudeDegrees>17.004232518374919891357421875</LongitudeDegrees>
            </Position>
            <AltitudeMeters>1069</AltitudeMeters>
            <DistanceMeters>24617.748641807</DistanceMeters>
          </Trackpoint>
          <Trackpoint>
            <Time>2022-08-27T05:32:58.000Z</Time>
            <Position>
              <LatitudeDegrees>50.2171122841536998748779296875</LatitudeDegrees>
              <LongitudeDegrees>17.00423863716423511505126953125</LongitudeDegrees>
            </Position>
            <AltitudeMeters>1069</AltitudeMeters>
            <DistanceMeters>24621.552085308</DistanceMeters>
          </Trackpoint>
          <Trackpoint>
            <Time>2022-08-27T05:33:08.000Z</Time>
            <Position>
              <LatitudeDegrees>50.21714975126087665557861328125</LatitudeDegrees>
              <LongitudeDegrees>17.0042239688336849212646484375</LongitudeDegrees>
            </Position>
            <AltitudeMeters>1069</AltitudeMeters>
            <DistanceMeters>24625.852503492</DistanceMeters>
          </Trackpoint>
          <Trackpoint>
            <Time>2022-08-27T05:33:17.000Z</Time>
            <Position>
              <LatitudeDegrees>50.21718445234000682830810546875</LatitudeDegrees>
              <LongitudeDegrees>17.00421466492116451263427734375</LongitudeDegrees>
            </Position>
            <AltitudeMeters>1069</AltitudeMeters>
            <DistanceMeters>24629.771707497</DistanceMeters>
          </Trackpoint>
          <Trackpoint>
            <Time>2022-08-27T05:33:27.000Z</Time>
            <Position>
              <LatitudeDegrees>50.2172195725142955780029296875</LatitudeDegrees>
              <LongitudeDegrees>17.00421164743602275848388671875</LongitudeDegrees>
            </Position>
            <AltitudeMeters>1068.800048828125</AltitudeMeters>
            <DistanceMeters>24633.685147115</DistanceMeters>
          </Trackpoint>
          <Trackpoint>
            <Time>2022-08-27T05:33:33.000Z</Time>
            <Position>
              <LatitudeDegrees>50.2172413654625415802001953125</LatitudeDegrees>
              <LongitudeDegrees>17.0042253099381923675537109375</LongitudeDegrees>
            </Position>
            <AltitudeMeters>1068.800048828125</AltitudeMeters>
            <DistanceMeters>24636.299677258</DistanceMeters>
          </Trackpoint>
          <Trackpoint>
            <Time>2022-08-27T05:33:39.000Z</Time>
            <Position>
              <LatitudeDegrees>50.2172621525824069976806640625</LatitudeDegrees>
              <LongitudeDegrees>17.004218436777591705322265625</LongitudeDegrees>
            </Position>
            <AltitudeMeters>1068.800048828125</AltitudeMeters>
            <DistanceMeters>24638.663914412</DistanceMeters>
          </Trackpoint>
          <Trackpoint>
            <Time>2022-08-27T05:33:47.000Z</Time>
            <Position>
              <LatitudeDegrees>50.2173023857176303863525390625</LatitudeDegrees>
              <LongitudeDegrees>17.00423997826874256134033203125</LongitudeDegrees>
            </Position>
            <AltitudeMeters>1069</AltitudeMeters>
            <DistanceMeters>24643.398114422</DistanceMeters>
          </Trackpoint>
          <Trackpoint>
            <Time>2022-08-27T05:33:57.000Z</Time>
            <Position>
              <LatitudeDegrees>50.2173553593456745147705078125</LatitudeDegrees>
              <LongitudeDegrees>17.00428825803101062774658203125</LongitudeDegrees>
            </Position>
            <AltitudeMeters>1068.800048828125</AltitudeMeters>
            <DistanceMeters>24650.224181698</DistanceMeters>
          </Trackpoint>
          <Trackpoint>
            <Time>2022-08-27T05:34:08.000Z</Time>
            <Position>
              <LatitudeDegrees>50.217403806746006011962890625</LatitudeDegrees>
              <LongitudeDegrees>17.00431792996823787689208984375</LongitudeDegrees>
            </Position>
            <AltitudeMeters>1068.800048828125</AltitudeMeters>
            <DistanceMeters>24656.016135944</DistanceMeters>
          </Trackpoint>
          <Trackpoint>
            <Time>2022-08-27T05:34:15.000Z</Time>
            <Position>
              <LatitudeDegrees>50.2174452133476734161376953125</LatitudeDegrees>
              <LongitudeDegrees>17.00431977398693561553955078125</LongitudeDegrees>
            </Position>
            <AltitudeMeters>1068.5999755859375</AltitudeMeters>
            <DistanceMeters>24660.626645671</DistanceMeters>
          </Trackpoint>
          <Trackpoint>
            <Time>2022-08-27T05:34:24.000Z</Time>
            <Position>
              <LatitudeDegrees>50.2174904756247997283935546875</LatitudeDegrees>
              <LongitudeDegrees>17.00435564853250980377197265625</LongitudeDegrees>
            </Position>
            <AltitudeMeters>1068.4000244140625</AltitudeMeters>
            <DistanceMeters>24666.274942767</DistanceMeters>
          </Trackpoint>
          <Trackpoint>
            <Time>2022-08-27T05:34:36.000Z</Time>
            <Position>
              <LatitudeDegrees>50.21756968460977077484130859375</LatitudeDegrees>
              <LongitudeDegrees>17.0044083707034587860107421875</LongitudeDegrees>
            </Position>
            <AltitudeMeters>1068.4000244140625</AltitudeMeters>
            <DistanceMeters>24675.857104176</DistanceMeters>
          </Trackpoint>
          <Trackpoint>
            <Time>2022-08-27T05:34:48.000Z</Time>
            <Position>
              <LatitudeDegrees>50.21764763630926609039306640625</LatitudeDegrees>
              <LongitudeDegrees>17.0044613443315029144287109375</LongitudeDegrees>
            </Position>
            <AltitudeMeters>1068.199951171875</AltitudeMeters>
            <DistanceMeters>24685.318348692</DistanceMeters>
          </Trackpoint>
          <Trackpoint>
            <Time>2022-08-27T05:35:00.000Z</Time>
            <Position>
              <LatitudeDegrees>50.21769574843347072601318359375</LatitudeDegrees>
              <LongitudeDegrees>17.0044885016977787017822265625</LongitudeDegrees>
            </Position>
            <AltitudeMeters>1067.800048828125</AltitudeMeters>
            <DistanceMeters>24691.012027155</DistanceMeters>
          </Trackpoint>
          <Trackpoint>
            <Time>2022-08-27T05:35:09.000Z</Time>
            <Position>
              <LatitudeDegrees>50.21772340871393680572509765625</LatitudeDegrees>
              <LongitudeDegrees>17.0045113004744052886962890625</LongitudeDegrees>
            </Position>
            <AltitudeMeters>1067.5999755859375</AltitudeMeters>
            <DistanceMeters>24694.493171017</DistanceMeters>
          </Trackpoint>
          <Trackpoint>
            <Time>2022-08-27T05:35:13.000Z</Time>
            <Position>
              <LatitudeDegrees>50.217728354036808013916015625</LatitudeDegrees>
              <LongitudeDegrees>17.00452244840562343597412109375</LongitudeDegrees>
            </Position>
            <AltitudeMeters>1067.5999755859375</AltitudeMeters>
            <DistanceMeters>24695.452893788</DistanceMeters>
          </Trackpoint>
          <Trackpoint>
            <Time>2022-08-27T05:35:19.000Z</Time>
            <Position>
              <LatitudeDegrees>50.217750482261180877685546875</LatitudeDegrees>
              <LongitudeDegrees>17.004538960754871368408203125</LongitudeDegrees>
            </Position>
            <AltitudeMeters>1067.4000244140625</AltitudeMeters>
            <DistanceMeters>24698.182328357</DistanceMeters>
          </Trackpoint>
          <Trackpoint>
            <Time>2022-08-27T05:35:31.000Z</Time>
            <Position>
              <LatitudeDegrees>50.2178120054304599761962890625</LatitudeDegrees>
              <LongitudeDegrees>17.0045689679682254791259765625</LongitudeDegrees>
            </Position>
            <AltitudeMeters>1066.5999755859375</AltitudeMeters>
            <DistanceMeters>24705.355429191</DistanceMeters>
          </Trackpoint>
          <Trackpoint>
            <Time>2022-08-27T05:35:33.000Z</Time>
            <Position>
              <LatitudeDegrees>50.2178250811994075775146484375</LatitudeDegrees>
              <LongitudeDegrees>17.0045793615281581878662109375</LongitudeDegrees>
            </Position>
            <AltitudeMeters>1066.5999755859375</AltitudeMeters>
            <DistanceMeters>24706.987566609</DistanceMeters>
          </Trackpoint>
          <Trackpoint>
            <Time>2022-08-27T05:35:41.000Z</Time>
            <Position>
              <LatitudeDegrees>50.21787864156067371368408203125</LatitudeDegrees>
              <LongitudeDegrees>17.00459252111613750457763671875</LongitudeDegrees>
            </Position>
            <AltitudeMeters>1065.800048828125</AltitudeMeters>
            <DistanceMeters>24713.022324127</DistanceMeters>
          </Trackpoint>
          <Trackpoint>
            <Time>2022-08-27T05:35:43.000Z</Time>
            <Position>
              <LatitudeDegrees>50.2178887836635112762451171875</LatitudeDegrees>
              <LongitudeDegrees>17.0045981369912624359130859375</LongitudeDegrees>
            </Position>
            <AltitudeMeters>1065.5999755859375</AltitudeMeters>
            <DistanceMeters>24714.216791405</DistanceMeters>
          </Trackpoint>
          <Trackpoint>
            <Time>2022-08-27T05:35:52.000Z</Time>
            <Position>
              <LatitudeDegrees>50.2179439365863800048828125</LatitudeDegrees>
              <LongitudeDegrees>17.00461179949343204498291015625</LongitudeDegrees>
            </Position>
            <AltitudeMeters>1064.800048828125</AltitudeMeters>
            <DistanceMeters>24720.432148758</DistanceMeters>
          </Trackpoint>
          <Trackpoint>
            <Time>2022-08-27T05:35:55.000Z</Time>
            <Position>
              <LatitudeDegrees>50.2179598622024059295654296875</LatitudeDegrees>
              <LongitudeDegrees>17.0046175830066204071044921875</LongitudeDegrees>
            </Position>
            <AltitudeMeters>1064.4000244140625</AltitudeMeters>
            <DistanceMeters>24722.255077207</DistanceMeters>
          </Trackpoint>
          <Trackpoint>
            <Time>2022-08-27T05:36:01.000Z</Time>
            <Position>
              <LatitudeDegrees>50.2179836668074131011962890625</LatitudeDegrees>
              <LongitudeDegrees>17.00463593937456607818603515625</LongitudeDegrees>
            </Position>
            <AltitudeMeters>1064</AltitudeMeters>
            <DistanceMeters>24725.210087177</DistanceMeters>
          </Trackpoint>
          <Trackpoint>
            <Time>2022-08-27T05:36:10.000Z</Time>
            <Position>
              <LatitudeDegrees>50.21803186275064945220947265625</LatitudeDegrees>
              <LongitudeDegrees>17.0046376995742321014404296875</LongitudeDegrees>
            </Position>
            <AltitudeMeters>1063.4000244140625</AltitudeMeters>
            <DistanceMeters>24730.575521335</DistanceMeters>
          </Trackpoint>
          <Trackpoint>
            <Time>2022-08-27T05:36:11.000Z</Time>
            <Position>
              <LatitudeDegrees>50.218037478625774383544921875</LatitudeDegrees>
              <LongitudeDegrees>17.004638202488422393798828125</LongitudeDegrees>
            </Position>
            <AltitudeMeters>1063.199951171875</AltitudeMeters>
            <DistanceMeters>24731.19136483</DistanceMeters>
          </Trackpoint>
          <Trackpoint>
            <Time>2022-08-27T05:36:17.000Z</Time>
            <Position>
              <LatitudeDegrees>50.21806874312460422515869140625</LatitudeDegrees>
              <LongitudeDegrees>17.00463828630745410919189453125</LongitudeDegrees>
            </Position>
            <AltitudeMeters>1062.199951171875</AltitudeMeters>
            <DistanceMeters>24734.669913728</DistanceMeters>
          </Trackpoint>
          <Trackpoint>
            <Time>2022-08-27T05:36:21.000Z</Time>
            <Position>
              <LatitudeDegrees>50.218087099492549896240234375</LatitudeDegrees>
              <LongitudeDegrees>17.00463828630745410919189453125</LongitudeDegrees>
            </Position>
            <AltitudeMeters>1061.5999755859375</AltitudeMeters>
            <DistanceMeters>24736.712435531</DistanceMeters>
          </Trackpoint>
          <Trackpoint>
            <Time>2022-08-27T05:36:25.000Z</Time>
            <Position>
              <LatitudeDegrees>50.2181060425937175750732421875</LatitudeDegrees>
              <LongitudeDegrees>17.00463040731847286224365234375</LongitudeDegrees>
            </Position>
            <AltitudeMeters>1061.199951171875</AltitudeMeters>
            <DistanceMeters>24738.891843756</DistanceMeters>
          </Trackpoint>
          <Trackpoint>
            <Time>2022-08-27T05:36:31.000Z</Time>
            <Position>
              <LatitudeDegrees>50.21813529543578624725341796875</LatitudeDegrees>
              <LongitudeDegrees>17.004628479480743408203125</LongitudeDegrees>
            </Position>
            <AltitudeMeters>1060.4000244140625</AltitudeMeters>
            <DistanceMeters>24742.150581226</DistanceMeters>
          </Trackpoint>
          <Trackpoint>
            <Time>2022-08-27T05:36:34.000Z</Time>
            <Position>
              <LatitudeDegrees>50.21814485080540180206298828125</LatitudeDegrees>
              <LongitudeDegrees>17.00461884029209613800048828125</LongitudeDegrees>
            </Position>
            <AltitudeMeters>1060</AltitudeMeters>
            <DistanceMeters>24743.414829433</DistanceMeters>
          </Trackpoint>
          <Trackpoint>
            <Time>2022-08-27T05:36:40.000Z</Time>
            <Position>
              <LatitudeDegrees>50.2181719243526458740234375</LatitudeDegrees>
              <LongitudeDegrees>17.004595287144184112548828125</LongitudeDegrees>
            </Position>
            <AltitudeMeters>1059.4000244140625</AltitudeMeters>
            <DistanceMeters>24746.862086401</DistanceMeters>
          </Trackpoint>
          <Trackpoint>
            <Time>2022-08-27T05:36:46.000Z</Time>
            <Position>
              <LatitudeDegrees>50.2181958965957164764404296875</LatitudeDegrees>
              <LongitudeDegrees>17.00456921942532062530517578125</LongitudeDegrees>
            </Position>
            <AltitudeMeters>1059</AltitudeMeters>
            <DistanceMeters>24750.112500135</DistanceMeters>
          </Trackpoint>
          <Trackpoint>
            <Time>2022-08-27T05:36:50.000Z</Time>
            <Position>
              <LatitudeDegrees>50.21819715388119220733642578125</LatitudeDegrees>
              <LongitudeDegrees>17.004547007381916046142578125</LongitudeDegrees>
            </Position>
            <AltitudeMeters>1058.5999755859375</AltitudeMeters>
            <DistanceMeters>24751.699759196</DistanceMeters>
          </Trackpoint>
          <Trackpoint>
            <Time>2022-08-27T05:36:55.000Z</Time>
            <Position>
              <LatitudeDegrees>50.21821341477334499359130859375</LatitudeDegrees>
              <LongitudeDegrees>17.0045307464897632598876953125</LongitudeDegrees>
            </Position>
            <AltitudeMeters>1058</AltitudeMeters>
            <DistanceMeters>24753.849968288</DistanceMeters>
          </Trackpoint>
          <Trackpoint>
            <Time>2022-08-27T05:37:02.000Z</Time>
            <Position>
              <LatitudeDegrees>50.21823705174028873443603515625</LatitudeDegrees>
              <LongitudeDegrees>17.004488669335842132568359375</LongitudeDegrees>
            </Position>
            <AltitudeMeters>1057.199951171875</AltitudeMeters>
            <DistanceMeters>24757.837695036</DistanceMeters>
          </Trackpoint>
          <Trackpoint>
            <Time>2022-08-27T05:37:06.000Z</Time>
            <Position>
              <LatitudeDegrees>50.21825666539371013641357421875</LatitudeDegrees>
              <LongitudeDegrees>17.0044608414173126220703125</LongitudeDegrees>
            </Position>
            <AltitudeMeters>1056.5999755859375</AltitudeMeters>
            <DistanceMeters>24760.785055472</DistanceMeters>
          </Trackpoint>
          <Trackpoint>
            <Time>2022-08-27T05:37:12.000Z</Time>
            <Position>
              <LatitudeDegrees>50.21826856769621372222900390625</LatitudeDegrees>
              <LongitudeDegrees>17.0044284872710704803466796875</LongitudeDegrees>
            </Position>
            <AltitudeMeters>1055.800048828125</AltitudeMeters>
            <DistanceMeters>24763.442407496</DistanceMeters>
          </Trackpoint>
          <Trackpoint>
            <Time>2022-08-27T05:37:14.000Z</Time>
            <Position>
              <LatitudeDegrees>50.218275524675846099853515625</LatitudeDegrees>
              <LongitudeDegrees>17.00441683642566204071044921875</LongitudeDegrees>
            </Position>
            <AltitudeMeters>1055.5999755859375</AltitudeMeters>
            <DistanceMeters>24764.574781487</DistanceMeters>
          </Trackpoint>
          <Trackpoint>
            <Time>2022-08-27T05:37:21.000Z</Time>
            <Position>
              <LatitudeDegrees>50.2182874269783496856689453125</LatitudeDegrees>
              <LongitudeDegrees>17.00434424914419651031494140625</LongitudeDegrees>
            </Position>
            <AltitudeMeters>1054.5999755859375</AltitudeMeters>
            <DistanceMeters>24769.91152779</DistanceMeters>
          </Trackpoint>
          <Trackpoint>
            <Time>2022-08-27T05:37:22.000Z</Time>
            <Position>
              <LatitudeDegrees>50.21829086355865001678466796875</LatitudeDegrees>
              <LongitudeDegrees>17.0043336041271686553955078125</LongitudeDegrees>
            </Position>
            <AltitudeMeters>1054.4000244140625</AltitudeMeters>
            <DistanceMeters>24770.761472562</DistanceMeters>
          </Trackpoint>
          <Trackpoint>
            <Time>2022-08-27T05:37:32.000Z</Time>
            <Position>
              <LatitudeDegrees>50.21831902675330638885498046875</LatitudeDegrees>
              <LongitudeDegrees>17.0042591728270053863525390625</LongitudeDegrees>
            </Position>
            <AltitudeMeters>1053.5999755859375</AltitudeMeters>
            <DistanceMeters>24776.919907514</DistanceMeters>
          </Trackpoint>
          <Trackpoint>
            <Time>2022-08-27T05:37:33.000Z</Time>
            <Position>
              <LatitudeDegrees>50.218321792781352996826171875</LatitudeDegrees>
              <LongitudeDegrees>17.00425087474286556243896484375</LongitudeDegrees>
            </Position>
            <AltitudeMeters>1053.4000244140625</AltitudeMeters>
            <DistanceMeters>24777.591847856</DistanceMeters>
          </Trackpoint>
          <Trackpoint>
            <Time>2022-08-27T05:37:41.000Z</Time>
            <Position>
              <LatitudeDegrees>50.21833528764545917510986328125</LatitudeDegrees>
              <LongitudeDegrees>17.00419169850647449493408203125</LongitudeDegrees>
            </Position>
            <AltitudeMeters>1052.4000244140625</AltitudeMeters>
            <DistanceMeters>24782.066183502</DistanceMeters>
          </Trackpoint>
          <Trackpoint>
            <Time>2022-08-27T05:37:45.000Z</Time>
            <Position>
              <LatitudeDegrees>50.2183417417109012603759765625</LatitudeDegrees>
              <LongitudeDegrees>17.0041797123849391937255859375</LongitudeDegrees>
            </Position>
            <AltitudeMeters>1051.4000244140625</AltitudeMeters>
            <DistanceMeters>24783.178442677</DistanceMeters>
          </Trackpoint>
          <Trackpoint>
            <Time>2022-08-27T05:37:47.000Z</Time>
            <Position>
              <LatitudeDegrees>50.21833880804479122161865234375</LatitudeDegrees>
              <LongitudeDegrees>17.00416772626340389251708984375</LongitudeDegrees>
            </Position>
            <AltitudeMeters>1051.199951171875</AltitudeMeters>
            <DistanceMeters>24784.089906902</DistanceMeters>
          </Trackpoint>
          <Trackpoint>
            <Time>2022-08-27T05:37:54.000Z</Time>
            <Position>
              <LatitudeDegrees>50.2183382213115692138671875</LatitudeDegrees>
              <LongitudeDegrees>17.0041629485785961151123046875</LongitudeDegrees>
            </Position>
            <AltitudeMeters>1050.5999755859375</AltitudeMeters>
            <DistanceMeters>24784.44546431</DistanceMeters>
          </Trackpoint>
          <Trackpoint>
            <Time>2022-08-27T05:38:03.000Z</Time>
            <Position>
              <LatitudeDegrees>50.2183511294424533843994140625</LatitudeDegrees>
              <LongitudeDegrees>17.00414777733385562896728515625</LongitudeDegrees>
            </Position>
            <AltitudeMeters>1050.4000244140625</AltitudeMeters>
            <DistanceMeters>24786.243454122</DistanceMeters>
          </Trackpoint>
          <Trackpoint>
            <Time>2022-08-27T05:38:12.000Z</Time>
            <Position>
              <LatitudeDegrees>50.21835364401340484619140625</LatitudeDegrees>
              <LongitudeDegrees>17.00408876873552799224853515625</LongitudeDegrees>
            </Position>
            <AltitudeMeters>1050.4000244140625</AltitudeMeters>
            <DistanceMeters>24790.455828775</DistanceMeters>
          </Trackpoint>
          <Trackpoint>
            <Time>2022-08-27T05:38:18.000Z</Time>
            <Position>
              <LatitudeDegrees>50.218366049230098724365234375</LatitudeDegrees>
              <LongitudeDegrees>17.00403512455523014068603515625</LongitudeDegrees>
            </Position>
            <AltitudeMeters>1050</AltitudeMeters>
            <DistanceMeters>24794.518707033</DistanceMeters>
          </Trackpoint>
          <Trackpoint>
            <Time>2022-08-27T05:38:21.000Z</Time>
            <Position>
              <LatitudeDegrees>50.2183712460100650787353515625</LatitudeDegrees>
              <LongitudeDegrees>17.00402003712952136993408203125</LongitudeDegrees>
            </Position>
            <AltitudeMeters>1050</AltitudeMeters>
            <DistanceMeters>24795.735642749</DistanceMeters>
          </Trackpoint>
          <Trackpoint>
            <Time>2022-08-27T05:38:32.000Z</Time>
            <Position>
              <LatitudeDegrees>50.21838809363543987274169921875</LatitudeDegrees>
              <LongitudeDegrees>17.00393420644104480743408203125</LongitudeDegrees>
            </Position>
            <AltitudeMeters>1049.199951171875</AltitudeMeters>
            <DistanceMeters>24802.128617486</DistanceMeters>
          </Trackpoint>
          <Trackpoint>
            <Time>2022-08-27T05:38:35.000Z</Time>
            <Position>
              <LatitudeDegrees>50.2183937095105648040771484375</LatitudeDegrees>
              <LongitudeDegrees>17.00389782898128032684326171875</LongitudeDegrees>
            </Position>
            <AltitudeMeters>1049</AltitudeMeters>
            <DistanceMeters>24804.792757138</DistanceMeters>
          </Trackpoint>
          <Trackpoint>
            <Time>2022-08-27T05:38:44.000Z</Time>
            <Position>
              <LatitudeDegrees>50.2183870039880275726318359375</LatitudeDegrees>
              <LongitudeDegrees>17.003802023828029632568359375</LongitudeDegrees>
            </Position>
            <AltitudeMeters>1048.4000244140625</AltitudeMeters>
            <DistanceMeters>24811.655765132</DistanceMeters>
          </Trackpoint>
          <Trackpoint>
            <Time>2022-08-27T05:38:52.000Z</Time>
            <Position>
              <LatitudeDegrees>50.218378119170665740966796875</LatitudeDegrees>
              <LongitudeDegrees>17.00377243570983409881591796875</LongitudeDegrees>
            </Position>
            <AltitudeMeters>1047.800048828125</AltitudeMeters>
            <DistanceMeters>24813.983434753</DistanceMeters>
          </Trackpoint>
          <Trackpoint>
            <Time>2022-08-27T05:38:57.000Z</Time>
            <Position>
              <LatitudeDegrees>50.21837367676198482513427734375</LatitudeDegrees>
              <LongitudeDegrees>17.003770507872104644775390625</LongitudeDegrees>
            </Position>
            <AltitudeMeters>1047.800048828125</AltitudeMeters>
            <DistanceMeters>24814.503917504</DistanceMeters>
          </Trackpoint>
          <Trackpoint>
            <Time>2022-08-27T05:39:03.000Z</Time>
            <Position>
              <LatitudeDegrees>50.21838105283677577972412109375</LatitudeDegrees>
              <LongitudeDegrees>17.00376589782536029815673828125</LongitudeDegrees>
            </Position>
            <AltitudeMeters>1047.800048828125</AltitudeMeters>
            <DistanceMeters>24815.385159</DistanceMeters>
          </Trackpoint>
          <Trackpoint>
            <Time>2022-08-27T05:39:16.000Z</Time>
            <Position>
              <LatitudeDegrees>50.21837887354195117950439453125</LatitudeDegrees>
              <LongitudeDegrees>17.0037607848644256591796875</LongitudeDegrees>
            </Position>
            <AltitudeMeters>1047.800048828125</AltitudeMeters>
            <DistanceMeters>24815.810131386</DistanceMeters>
          </Trackpoint>
          <Trackpoint>
            <Time>2022-08-27T05:39:26.000Z</Time>
            <Position>
              <LatitudeDegrees>50.21838759072124958038330078125</LatitudeDegrees>
              <LongitudeDegrees>17.003753744065761566162109375</LongitudeDegrees>
            </Position>
            <AltitudeMeters>1047.800048828125</AltitudeMeters>
            <DistanceMeters>24816.901905213</DistanceMeters>
          </Trackpoint>
          <Trackpoint>
            <Time>2022-08-27T05:39:34.000Z</Time>
            <Position>
              <LatitudeDegrees>50.2184091322124004364013671875</LatitudeDegrees>
              <LongitudeDegrees>17.00374276377260684967041015625</LongitudeDegrees>
            </Position>
            <AltitudeMeters>1047.5999755859375</AltitudeMeters>
            <DistanceMeters>24819.423248866</DistanceMeters>
          </Trackpoint>
          <Trackpoint>
            <Time>2022-08-27T05:39:43.000Z</Time>
            <Position>
              <LatitudeDegrees>50.21842338144779205322265625</LatitudeDegrees>
              <LongitudeDegrees>17.003755755722522735595703125</LongitudeDegrees>
            </Position>
            <AltitudeMeters>1047.199951171875</AltitudeMeters>
            <DistanceMeters>24821.26097806</DistanceMeters>
          </Trackpoint>
          <Trackpoint>
            <Time>2022-08-27T05:39:52.000Z</Time>
            <Position>
              <LatitudeDegrees>50.21842648275196552276611328125</LatitudeDegrees>
              <LongitudeDegrees>17.00374846346676349639892578125</LongitudeDegrees>
            </Position>
            <AltitudeMeters>1047</AltitudeMeters>
            <DistanceMeters>24821.891313973</DistanceMeters>
          </Trackpoint>
          <Trackpoint>
            <Time>2022-08-27T05:40:00.000Z</Time>
            <Position>
              <LatitudeDegrees>50.21842799149453639984130859375</LatitudeDegrees>
              <LongitudeDegrees>17.003753073513507843017578125</LongitudeDegrees>
            </Position>
            <AltitudeMeters>1046.800048828125</AltitudeMeters>
            <DistanceMeters>24822.259350856</DistanceMeters>
          </Trackpoint>
          <Trackpoint>
            <Time>2022-08-27T05:40:09.000Z</Time>
            <Position>
              <LatitudeDegrees>50.218423716723918914794921875</LatitudeDegrees>
              <LongitudeDegrees>17.00379171408712863922119140625</LongitudeDegrees>
            </Position>
            <AltitudeMeters>1046.800048828125</AltitudeMeters>
            <DistanceMeters>24825.052554401</DistanceMeters>
          </Trackpoint>
          <Trackpoint>
            <Time>2022-08-27T05:40:20.000Z</Time>
            <Position>
              <LatitudeDegrees>50.21845196373760700225830078125</LatitudeDegrees>
              <LongitudeDegrees>17.00380311347544193267822265625</LongitudeDegrees>
            </Position>
            <AltitudeMeters>1047</AltitudeMeters>
            <DistanceMeters>24828.300188815</DistanceMeters>
          </Trackpoint>
          <Trackpoint>
            <Time>2022-08-27T05:40:31.000Z</Time>
            <Position>
              <LatitudeDegrees>50.21847694180905818939208984375</LatitudeDegrees>
              <LongitudeDegrees>17.00382607989013195037841796875</LongitudeDegrees>
            </Position>
            <AltitudeMeters>1046.800048828125</AltitudeMeters>
            <DistanceMeters>24831.525502453</DistanceMeters>
          </Trackpoint>
          <Trackpoint>
            <Time>2022-08-27T05:40:39.000Z</Time>
            <Position>
              <LatitudeDegrees>50.2185023389756679534912109375</LatitudeDegrees>
              <LongitudeDegrees>17.00381778180599212646484375</LongitudeDegrees>
            </Position>
            <AltitudeMeters>1046.4000244140625</AltitudeMeters>
            <DistanceMeters>24834.412500991</DistanceMeters>
          </Trackpoint>
          <Trackpoint>
            <Time>2022-08-27T05:40:41.000Z</Time>
            <Position>
              <LatitudeDegrees>50.21851323544979095458984375</LatitudeDegrees>
              <LongitudeDegrees>17.00381535105407238006591796875</LongitudeDegrees>
            </Position>
            <AltitudeMeters>1046.199951171875</AltitudeMeters>
            <DistanceMeters>24835.636834561</DistanceMeters>
          </Trackpoint>
          <Trackpoint>
            <Time>2022-08-27T05:40:48.000Z</Time>
            <Position>
              <LatitudeDegrees>50.21852874197065830230712890625</LatitudeDegrees>
              <LongitudeDegrees>17.00381451286375522613525390625</LongitudeDegrees>
            </Position>
            <AltitudeMeters>1045.4000244140625</AltitudeMeters>
            <DistanceMeters>24837.363080553</DistanceMeters>
          </Trackpoint>
          <Trackpoint>
            <Time>2022-08-27T05:40:52.000Z</Time>
            <Position>
              <LatitudeDegrees>50.2185318432748317718505859375</LatitudeDegrees>
              <LongitudeDegrees>17.0038159377872943878173828125</LongitudeDegrees>
            </Position>
            <AltitudeMeters>1044.800048828125</AltitudeMeters>
            <DistanceMeters>24837.718637961</DistanceMeters>
          </Trackpoint>
          <Trackpoint>
            <Time>2022-08-27T05:41:03.000Z</Time>
            <Position>
              <LatitudeDegrees>50.21853410638868808746337890625</LatitudeDegrees>
              <LongitudeDegrees>17.0038172788918018341064453125</LongitudeDegrees>
            </Position>
            <AltitudeMeters>1044.5999755859375</AltitudeMeters>
            <DistanceMeters>24837.987414097</DistanceMeters>
          </Trackpoint>
          <Trackpoint>
            <Time>2022-08-27T05:41:12.000Z</Time>
            <Position>
              <LatitudeDegrees>50.21853444166481494903564453125</LatitudeDegrees>
              <LongitudeDegrees>17.003823481500148773193359375</LongitudeDegrees>
            </Position>
            <AltitudeMeters>1044.5999755859375</AltitudeMeters>
            <DistanceMeters>24838.433128896</DistanceMeters>
          </Trackpoint>
          <Trackpoint>
            <Time>2022-08-27T05:41:22.000Z</Time>
            <Position>
              <LatitudeDegrees>50.21854248829185962677001953125</LatitudeDegrees>
              <LongitudeDegrees>17.00383161194622516632080078125</LongitudeDegrees>
            </Position>
            <AltitudeMeters>1044.5999755859375</AltitudeMeters>
            <DistanceMeters>24839.50402558</DistanceMeters>
          </Trackpoint>
          <Trackpoint>
            <Time>2022-08-27T05:41:32.000Z</Time>
            <Position>
              <LatitudeDegrees>50.21856746636331081390380859375</LatitudeDegrees>
              <LongitudeDegrees>17.003844939172267913818359375</LongitudeDegrees>
            </Position>
            <AltitudeMeters>1044.800048828125</AltitudeMeters>
            <DistanceMeters>24842.442180287</DistanceMeters>
          </Trackpoint>
          <Trackpoint>
            <Time>2022-08-27T05:41:43.000Z</Time>
            <Position>
              <LatitudeDegrees>50.21857601590454578399658203125</LatitudeDegrees>
              <LongitudeDegrees>17.0038095675408840179443359375</LongitudeDegrees>
            </Position>
            <AltitudeMeters>1045.199951171875</AltitudeMeters>
            <DistanceMeters>24845.134976489</DistanceMeters>
          </Trackpoint>
          <Trackpoint>
            <Time>2022-08-27T05:41:57.000Z</Time>
            <Position>
              <LatitudeDegrees>50.2186250500380992889404296875</LatitudeDegrees>
              <LongitudeDegrees>17.0037366449832916259765625</LongitudeDegrees>
            </Position>
            <AltitudeMeters>1045.4000244140625</AltitudeMeters>
            <DistanceMeters>24852.669102883</DistanceMeters>
          </Trackpoint>
          <Trackpoint>
            <Time>2022-08-27T05:42:10.000Z</Time>
            <Position>
              <LatitudeDegrees>50.21862991154193878173828125</LatitudeDegrees>
              <LongitudeDegrees>17.00372583232820034027099609375</LongitudeDegrees>
            </Position>
            <AltitudeMeters>1045.4000244140625</AltitudeMeters>
            <DistanceMeters>24853.609819361</DistanceMeters>
          </Trackpoint>
          <Trackpoint>
            <Time>2022-08-27T05:42:19.000Z</Time>
            <Position>
              <LatitudeDegrees>50.21863016299903392791748046875</LatitudeDegrees>
              <LongitudeDegrees>17.00372532941401004791259765625</LongitudeDegrees>
            </Position>
            <AltitudeMeters>1045.4000244140625</AltitudeMeters>
            <DistanceMeters>24853.609819361</DistanceMeters>
          </Trackpoint>
          <Trackpoint>
            <Time>2022-08-27T05:42:30.000Z</Time>
            <Position>
              <LatitudeDegrees>50.21863787434995174407958984375</LatitudeDegrees>
              <LongitudeDegrees>17.0037232339382171630859375</LongitudeDegrees>
            </Position>
            <AltitudeMeters>1045.4000244140625</AltitudeMeters>
            <DistanceMeters>24854.480753584</DistanceMeters>
          </Trackpoint>
          <Trackpoint>
            <Time>2022-08-27T05:42:38.000Z</Time>
            <Position>
              <LatitudeDegrees>50.218636281788349151611328125</LatitudeDegrees>
              <LongitudeDegrees>17.00374125503003597259521484375</LongitudeDegrees>
            </Position>
            <AltitudeMeters>1045.5999755859375</AltitudeMeters>
            <DistanceMeters>24855.776745181</DistanceMeters>
          </Trackpoint>
          <Trackpoint>
            <Time>2022-08-27T05:42:41.000Z</Time>
            <Position>
              <LatitudeDegrees>50.2186330966651439666748046875</LatitudeDegrees>
              <LongitudeDegrees>17.00374402105808258056640625</LongitudeDegrees>
            </Position>
            <AltitudeMeters>1045.800048828125</AltitudeMeters>
            <DistanceMeters>24856.179909386</DistanceMeters>
          </Trackpoint>
          <Trackpoint>
            <Time>2022-08-27T05:42:47.000Z</Time>
            <Position>
              <LatitudeDegrees>50.2186270616948604583740234375</LatitudeDegrees>
              <LongitudeDegrees>17.00374209322035312652587890625</LongitudeDegrees>
            </Position>
            <AltitudeMeters>1046.4000244140625</AltitudeMeters>
            <DistanceMeters>24856.871714309</DistanceMeters>
          </Trackpoint>
          <Trackpoint>
            <Time>2022-08-27T05:42:50.000Z</Time>
            <Position>
              <LatitudeDegrees>50.21862194873392581939697265625</LatitudeDegrees>
              <LongitudeDegrees>17.00374091975390911102294921875</LongitudeDegrees>
            </Position>
            <AltitudeMeters>1046.800048828125</AltitudeMeters>
            <DistanceMeters>24857.449739246</DistanceMeters>
          </Trackpoint>
          <Trackpoint>
            <Time>2022-08-27T05:42:58.000Z</Time>
            <Position>
              <LatitudeDegrees>50.21861976943910121917724609375</LatitudeDegrees>
              <LongitudeDegrees>17.00372968800365924835205078125</LongitudeDegrees>
            </Position>
            <AltitudeMeters>1048</AltitudeMeters>
            <DistanceMeters>24858.288992464</DistanceMeters>
          </Trackpoint>
          <Trackpoint>
            <Time>2022-08-27T05:43:07.000Z</Time>
            <Position>
              <LatitudeDegrees>50.21861088462173938751220703125</LatitudeDegrees>
              <LongitudeDegrees>17.00374611653387546539306640625</LongitudeDegrees>
            </Position>
            <AltitudeMeters>1048.4000244140625</AltitudeMeters>
            <DistanceMeters>24859.821252192</DistanceMeters>
          </Trackpoint>
          <Trackpoint>
            <Time>2022-08-27T05:43:17.000Z</Time>
            <Position>
              <LatitudeDegrees>50.21856947802007198333740234375</LatitudeDegrees>
              <LongitudeDegrees>17.00377344153821468353271484375</LongitudeDegrees>
            </Position>
            <AltitudeMeters>1048.5999755859375</AltitudeMeters>
            <DistanceMeters>24864.824388399</DistanceMeters>
          </Trackpoint>
          <Trackpoint>
            <Time>2022-08-27T05:43:19.000Z</Time>
            <Position>
              <LatitudeDegrees>50.218558497726917266845703125</LatitudeDegrees>
              <LongitudeDegrees>17.00377528555691242218017578125</LongitudeDegrees>
            </Position>
            <AltitudeMeters>1048.800048828125</AltitudeMeters>
            <DistanceMeters>24866.056075389</DistanceMeters>
          </Trackpoint>
          <Trackpoint>
            <Time>2022-08-27T05:43:27.000Z</Time>
            <Position>
              <LatitudeDegrees>50.218524299561977386474609375</LatitudeDegrees>
              <LongitudeDegrees>17.00380034744739532470703125</LongitudeDegrees>
            </Position>
            <AltitudeMeters>1050</AltitudeMeters>
            <DistanceMeters>24870.26094039</DistanceMeters>
          </Trackpoint>
          <Trackpoint>
            <Time>2022-08-27T05:43:29.000Z</Time>
            <Position>
              <LatitudeDegrees>50.21852086298167705535888671875</LatitudeDegrees>
              <LongitudeDegrees>17.00380613096058368682861328125</LongitudeDegrees>
            </Position>
            <AltitudeMeters>1050.199951171875</AltitudeMeters>
            <DistanceMeters>24870.831100676</DistanceMeters>
          </Trackpoint>
          <Trackpoint>
            <Time>2022-08-27T05:43:38.000Z</Time>
            <Position>
              <LatitudeDegrees>50.21848364733159542083740234375</LatitudeDegrees>
              <LongitudeDegrees>17.0038337074220180511474609375</LongitudeDegrees>
            </Position>
            <AltitudeMeters>1050.5999755859375</AltitudeMeters>
            <DistanceMeters>24875.415093247</DistanceMeters>
          </Trackpoint>
          <Trackpoint>
            <Time>2022-08-27T05:43:40.000Z</Time>
            <Position>
              <LatitudeDegrees>50.2184694819152355194091796875</LatitudeDegrees>
              <LongitudeDegrees>17.00385256670415401458740234375</LongitudeDegrees>
            </Position>
            <AltitudeMeters>1051</AltitudeMeters>
            <DistanceMeters>24877.488331387</DistanceMeters>
          </Trackpoint>
          <Trackpoint>
            <Time>2022-08-27T05:43:46.000Z</Time>
            <Position>
              <LatitudeDegrees>50.21844056434929370880126953125</LatitudeDegrees>
              <LongitudeDegrees>17.00390419922769069671630859375</LongitudeDegrees>
            </Position>
            <AltitudeMeters>1051.199951171875</AltitudeMeters>
            <DistanceMeters>24882.376437592</DistanceMeters>
          </Trackpoint>
          <Trackpoint>
            <Time>2022-08-27T05:43:55.000Z</Time>
            <Position>
              <LatitudeDegrees>50.21841390989720821380615234375</LatitudeDegrees>
              <LongitudeDegrees>17.00398768298327922821044921875</LongitudeDegrees>
            </Position>
            <AltitudeMeters>1052</AltitudeMeters>
            <DistanceMeters>24889.021516509</DistanceMeters>
          </Trackpoint>
          <Trackpoint>
            <Time>2022-08-27T05:43:57.000Z</Time>
            <Position>
              <LatitudeDegrees>50.21840854547917842864990234375</LatitudeDegrees>
              <LongitudeDegrees>17.00400243513286113739013671875</LongitudeDegrees>
            </Position>
            <AltitudeMeters>1052.199951171875</AltitudeMeters>
            <DistanceMeters>24890.231009123</DistanceMeters>
          </Trackpoint>
          <Trackpoint>
            <Time>2022-08-27T05:44:07.000Z</Time>
            <Position>
              <LatitudeDegrees>50.2183873392641544342041015625</LatitudeDegrees>
              <LongitudeDegrees>17.0040667243301868438720703125</LongitudeDegrees>
            </Position>
            <AltitudeMeters>1053</AltitudeMeters>
            <DistanceMeters>24895.381772619</DistanceMeters>
          </Trackpoint>
          <Trackpoint>
            <Time>2022-08-27T05:44:17.000Z</Time>
            <Position>
              <LatitudeDegrees>50.2183865010738372802734375</LatitudeDegrees>
              <LongitudeDegrees>17.0041418261826038360595703125</LongitudeDegrees>
            </Position>
            <AltitudeMeters>1054.199951171875</AltitudeMeters>
            <DistanceMeters>24900.730350204</DistanceMeters>
          </Trackpoint>
          <Trackpoint>
            <Time>2022-08-27T05:44:18.000Z</Time>
            <Position>
              <LatitudeDegrees>50.21838977001607418060302734375</LatitudeDegrees>
              <LongitudeDegrees>17.00415632687509059906005859375</LongitudeDegrees>
            </Position>
            <AltitudeMeters>1054.199951171875</AltitudeMeters>
            <DistanceMeters>24901.822124031</DistanceMeters>
          </Trackpoint>
          <Trackpoint>
            <Time>2022-08-27T05:44:27.000Z</Time>
            <Position>
              <LatitudeDegrees>50.21839932538568973541259765625</LatitudeDegrees>
              <LongitudeDegrees>17.0042554847896099090576171875</LongitudeDegrees>
            </Position>
            <AltitudeMeters>1055.199951171875</AltitudeMeters>
            <DistanceMeters>24908.963683508</DistanceMeters>
          </Trackpoint>
          <Trackpoint>
            <Time>2022-08-27T05:44:31.000Z</Time>
            <Position>
              <LatitudeDegrees>50.21840167231857776641845703125</LatitudeDegrees>
              <LongitudeDegrees>17.00429496355354785919189453125</LongitudeDegrees>
            </Position>
            <AltitudeMeters>1055.4000244140625</AltitudeMeters>
            <DistanceMeters>24911.789030845</DistanceMeters>
          </Trackpoint>
          <Trackpoint>
            <Time>2022-08-27T05:44:38.000Z</Time>
            <Position>
              <LatitudeDegrees>50.21839815191924571990966796875</LatitudeDegrees>
              <LongitudeDegrees>17.0043584145605564117431640625</LongitudeDegrees>
            </Position>
            <AltitudeMeters>1056</AltitudeMeters>
            <DistanceMeters>24916.324503713</DistanceMeters>
          </Trackpoint>
          <Trackpoint>
            <Time>2022-08-27T05:44:44.000Z</Time>
            <Position>
              <LatitudeDegrees>50.2183953858911991119384765625</LatitudeDegrees>
              <LongitudeDegrees>17.00442127883434295654296875</LongitudeDegrees>
            </Position>
            <AltitudeMeters>1057</AltitudeMeters>
            <DistanceMeters>24920.811938445</DistanceMeters>
          </Trackpoint>
          <Trackpoint>
            <Time>2022-08-27T05:44:46.000Z</Time>
            <Position>
              <LatitudeDegrees>50.21839211694896221160888671875</LatitudeDegrees>
              <LongitudeDegrees>17.00443611480295658111572265625</LongitudeDegrees>
            </Position>
            <AltitudeMeters>1057.199951171875</AltitudeMeters>
            <DistanceMeters>24921.932286884</DistanceMeters>
          </Trackpoint>
          <Trackpoint>
            <Time>2022-08-27T05:44:52.000Z</Time>
            <Position>
              <LatitudeDegrees>50.21838859654963016510009765625</LatitudeDegrees>
              <LongitudeDegrees>17.00448975898325443267822265625</LongitudeDegrees>
            </Position>
            <AltitudeMeters>1057.5999755859375</AltitudeMeters>
            <DistanceMeters>24925.77352951</DistanceMeters>
          </Trackpoint>
          <Trackpoint>
            <Time>2022-08-27T05:44:59.000Z</Time>
            <Position>
              <LatitudeDegrees>50.21840200759470462799072265625</LatitudeDegrees>
              <LongitudeDegrees>17.0045506954193115234375</LongitudeDegrees>
            </Position>
            <AltitudeMeters>1058.199951171875</AltitudeMeters>
            <DistanceMeters>24930.362444226</DistanceMeters>
          </Trackpoint>
          <Trackpoint>
            <Time>2022-08-27T05:45:06.000Z</Time>
            <Position>
              <LatitudeDegrees>50.21840519271790981292724609375</LatitudeDegrees>
              <LongitudeDegrees>17.00462386943399906158447265625</LongitudeDegrees>
            </Position>
            <AltitudeMeters>1058.5999755859375</AltitudeMeters>
            <DistanceMeters>24935.586321235</DistanceMeters>
          </Trackpoint>
          <Trackpoint>
            <Time>2022-08-27T05:45:11.000Z</Time>
            <Position>
              <LatitudeDegrees>50.2184079587459564208984375</LatitudeDegrees>
              <LongitudeDegrees>17.00467047281563282012939453125</LongitudeDegrees>
            </Position>
            <AltitudeMeters>1059.199951171875</AltitudeMeters>
            <DistanceMeters>24938.919036949</DistanceMeters>
          </Trackpoint>
          <Trackpoint>
            <Time>2022-08-27T05:45:13.000Z</Time>
            <Position>
              <LatitudeDegrees>50.218404270708560943603515625</LatitudeDegrees>
              <LongitudeDegrees>17.00468706898391246795654296875</LongitudeDegrees>
            </Position>
            <AltitudeMeters>1059.4000244140625</AltitudeMeters>
            <DistanceMeters>24940.172525402</DistanceMeters>
          </Trackpoint>
          <Trackpoint>
            <Time>2022-08-27T05:45:16.000Z</Time>
            <Position>
              <LatitudeDegrees>50.21840670146048069000244140625</LatitudeDegrees>
              <LongitudeDegrees>17.0047195069491863250732421875</LongitudeDegrees>
            </Position>
            <AltitudeMeters>1059.5999755859375</AltitudeMeters>
            <DistanceMeters>24942.498254489</DistanceMeters>
          </Trackpoint>
          <Trackpoint>
            <Time>2022-08-27T05:45:22.000Z</Time>
            <Position>
              <LatitudeDegrees>50.21841256879270076751708984375</LatitudeDegrees>
              <LongitudeDegrees>17.00478631071746349334716796875</LongitudeDegrees>
            </Position>
            <AltitudeMeters>1060.199951171875</AltitudeMeters>
            <DistanceMeters>24947.300630489</DistanceMeters>
          </Trackpoint>
          <Trackpoint>
            <Time>2022-08-27T05:45:23.000Z</Time>
            <Position>
              <LatitudeDegrees>50.21841089241206645965576171875</LatitudeDegrees>
              <LongitudeDegrees>17.004798464477062225341796875</LongitudeDegrees>
            </Position>
            <AltitudeMeters>1060.4000244140625</AltitudeMeters>
            <DistanceMeters>24948.186980674</DistanceMeters>
          </Trackpoint>
          <Trackpoint>
            <Time>2022-08-27T05:45:30.000Z</Time>
            <Position>
              <LatitudeDegrees>50.21839094348251819610595703125</LatitudeDegrees>
              <LongitudeDegrees>17.00484716333448886871337890625</LongitudeDegrees>
            </Position>
            <AltitudeMeters>1061.199951171875</AltitudeMeters>
            <DistanceMeters>24952.306144865</DistanceMeters>
          </Trackpoint>
          <Trackpoint>
            <Time>2022-08-27T05:45:34.000Z</Time>
            <Position>
              <LatitudeDegrees>50.21838122047483921051025390625</LatitudeDegrees>
              <LongitudeDegrees>17.0048847980797290802001953125</LongitudeDegrees>
            </Position>
            <AltitudeMeters>1061.5999755859375</AltitudeMeters>
            <DistanceMeters>24955.197831361</DistanceMeters>
          </Trackpoint>
          <Trackpoint>
            <Time>2022-08-27T05:45:41.000Z</Time>
            <Position>
              <LatitudeDegrees>50.21835791878402233123779296875</LatitudeDegrees>
              <LongitudeDegrees>17.0049354247748851776123046875</LongitudeDegrees>
            </Position>
            <AltitudeMeters>1062.4000244140625</AltitudeMeters>
            <DistanceMeters>24959.63874196</DistanceMeters>
          </Trackpoint>
          <Trackpoint>
            <Time>2022-08-27T05:45:43.000Z</Time>
            <Position>
              <LatitudeDegrees>50.21835054270923137664794921875</LatitudeDegrees>
              <LongitudeDegrees>17.004947997629642486572265625</LongitudeDegrees>
            </Position>
            <AltitudeMeters>1062.5999755859375</AltitudeMeters>
            <DistanceMeters>24960.851961833</DistanceMeters>
          </Trackpoint>
          <Trackpoint>
            <Time>2022-08-27T05:45:49.000Z</Time>
            <Position>
              <LatitudeDegrees>50.21833076141774654388427734375</LatitudeDegrees>
              <LongitudeDegrees>17.00498680584132671356201171875</LongitudeDegrees>
            </Position>
            <AltitudeMeters>1063.4000244140625</AltitudeMeters>
            <DistanceMeters>24964.384604703</DistanceMeters>
          </Trackpoint>
          <Trackpoint>
            <Time>2022-08-27T05:45:52.000Z</Time>
            <Position>
              <LatitudeDegrees>50.21832271479070186614990234375</LatitudeDegrees>
              <LongitudeDegrees>17.00500457547605037689208984375</LongitudeDegrees>
            </Position>
            <AltitudeMeters>1063.5999755859375</AltitudeMeters>
            <DistanceMeters>24965.934443512</DistanceMeters>
          </Trackpoint>
          <Trackpoint>
            <Time>2022-08-27T05:45:58.000Z</Time>
            <Position>
              <LatitudeDegrees>50.21830846555531024932861328125</LatitudeDegrees>
              <LongitudeDegrees>17.0050531066954135894775390625</LongitudeDegrees>
            </Position>
            <AltitudeMeters>1064.4000244140625</AltitudeMeters>
            <DistanceMeters>24969.737887013</DistanceMeters>
          </Trackpoint>
          <Trackpoint>
            <Time>2022-08-27T05:46:01.000Z</Time>
            <Position>
              <LatitudeDegrees>50.21829706616699695587158203125</LatitudeDegrees>
              <LongitudeDegrees>17.00507364235818386077880859375</LongitudeDegrees>
            </Position>
            <AltitudeMeters>1064.800048828125</AltitudeMeters>
            <DistanceMeters>24971.673728361</DistanceMeters>
          </Trackpoint>
          <Trackpoint>
            <Time>2022-08-27T05:46:08.000Z</Time>
            <Position>
              <LatitudeDegrees>50.2182683162391185760498046875</LatitudeDegrees>
              <LongitudeDegrees>17.00512267649173736572265625</LongitudeDegrees>
            </Position>
            <AltitudeMeters>1065.4000244140625</AltitudeMeters>
            <DistanceMeters>24976.4098354</DistanceMeters>
          </Trackpoint>
          <Trackpoint>
            <Time>2022-08-27T05:46:10.000Z</Time>
            <Position>
              <LatitudeDegrees>50.21826018579304218292236328125</LatitudeDegrees>
              <LongitudeDegrees>17.00513516552746295928955078125</LongitudeDegrees>
            </Position>
            <AltitudeMeters>1065.5999755859375</AltitudeMeters>
            <DistanceMeters>24977.6776499</DistanceMeters>
          </Trackpoint>
          <Trackpoint>
            <Time>2022-08-27T05:46:18.000Z</Time>
            <Position>
              <LatitudeDegrees>50.21822548471391201019287109375</LatitudeDegrees>
              <LongitudeDegrees>17.00516450218856334686279296875</LongitudeDegrees>
            </Position>
            <AltitudeMeters>1066.4000244140625</AltitudeMeters>
            <DistanceMeters>24982.069488158</DistanceMeters>
          </Trackpoint>
          <Trackpoint>
            <Time>2022-08-27T05:46:19.000Z</Time>
            <Position>
              <LatitudeDegrees>50.218225233256816864013671875</LatitudeDegrees>
              <LongitudeDegrees>17.0051681064069271087646484375</LongitudeDegrees>
            </Position>
            <AltitudeMeters>1066.5999755859375</AltitudeMeters>
            <DistanceMeters>24982.338264295</DistanceMeters>
          </Trackpoint>
          <Trackpoint>
            <Time>2022-08-27T05:46:29.000Z</Time>
            <Position>
              <LatitudeDegrees>50.21818868815898895263671875</LatitudeDegrees>
              <LongitudeDegrees>17.0052043162286281585693359375</LongitudeDegrees>
            </Position>
            <AltitudeMeters>1067.4000244140625</AltitudeMeters>
            <DistanceMeters>24987.153784652</DistanceMeters>
          </Trackpoint>
          <Trackpoint>
            <Time>2022-08-27T05:46:30.000Z</Time>
            <Position>
              <LatitudeDegrees>50.21818458102643489837646484375</LatitudeDegrees>
              <LongitudeDegrees>17.0052086748182773590087890625</LongitudeDegrees>
            </Position>
            <AltitudeMeters>1067.5999755859375</AltitudeMeters>
            <DistanceMeters>24987.707880852</DistanceMeters>
          </Trackpoint>
          <Trackpoint>
            <Time>2022-08-27T05:46:36.000Z</Time>
            <Position>
              <LatitudeDegrees>50.218170247972011566162109375</LatitudeDegrees>
              <LongitudeDegrees>17.00524203479290008544921875</LongitudeDegrees>
            </Position>
            <AltitudeMeters>1068.5999755859375</AltitudeMeters>
            <DistanceMeters>24990.569747259</DistanceMeters>
          </Trackpoint>
          <Trackpoint>
            <Time>2022-08-27T05:46:41.000Z</Time>
            <Position>
              <LatitudeDegrees>50.21816060878336429595947265625</LatitudeDegrees>
              <LongitudeDegrees>17.00527111999690532684326171875</LongitudeDegrees>
            </Position>
            <AltitudeMeters>1069.5999755859375</AltitudeMeters>
            <DistanceMeters>24992.901293103</DistanceMeters>
          </Trackpoint>
          <Trackpoint>
            <Time>2022-08-27T05:46:45.000Z</Time>
            <Position>
              <LatitudeDegrees>50.218153484165668487548828125</LatitudeDegrees>
              <LongitudeDegrees>17.0052958466112613677978515625</LongitudeDegrees>
            </Position>
            <AltitudeMeters>1070</AltitudeMeters>
            <DistanceMeters>24994.832464139</DistanceMeters>
          </Trackpoint>
          <Trackpoint>
            <Time>2022-08-27T05:46:49.000Z</Time>
            <Position>
              <LatitudeDegrees>50.21814015693962574005126953125</LatitudeDegrees>
              <LongitudeDegrees>17.005322836339473724365234375</LongitudeDegrees>
            </Position>
            <AltitudeMeters>1070.5999755859375</AltitudeMeters>
            <DistanceMeters>24997.258903885</DistanceMeters>
          </Trackpoint>
          <Trackpoint>
            <Time>2022-08-27T05:46:58.000Z</Time>
            <Position>
              <LatitudeDegrees>50.2181303501129150390625</LatitudeDegrees>
              <LongitudeDegrees>17.0053702779114246368408203125</LongitudeDegrees>
            </Position>
            <AltitudeMeters>1071.800048828125</AltitudeMeters>
            <DistanceMeters>25000.810666376</DistanceMeters>
          </Trackpoint>
          <Trackpoint>
            <Time>2022-08-27T05:47:04.000Z</Time>
            <Position>
              <LatitudeDegrees>50.21812741644680500030517578125</LatitudeDegrees>
              <LongitudeDegrees>17.00537723489105701446533203125</LongitudeDegrees>
            </Position>
            <AltitudeMeters>1072.4000244140625</AltitudeMeters>
            <DistanceMeters>25001.396450385</DistanceMeters>
          </Trackpoint>
          <Trackpoint>
            <Time>2022-08-27T05:47:12.000Z</Time>
            <Position>
              <LatitudeDegrees>50.21812624298036098480224609375</LatitudeDegrees>
              <LongitudeDegrees>17.00538109056651592254638671875</LongitudeDegrees>
            </Position>
            <AltitudeMeters>1072.5999755859375</AltitudeMeters>
            <DistanceMeters>25001.696951241</DistanceMeters>
          </Trackpoint>
          <Trackpoint>
            <Time>2022-08-27T05:47:23.000Z</Time>
            <Position>
              <LatitudeDegrees>50.218125320971012115478515625</LatitudeDegrees>
              <LongitudeDegrees>17.00539517216384410858154296875</LongitudeDegrees>
            </Position>
            <AltitudeMeters>1071.5999755859375</AltitudeMeters>
            <DistanceMeters>25002.702619457</DistanceMeters>
          </Trackpoint>
          <Trackpoint>
            <Time>2022-08-27T05:47:31.000Z</Time>
            <Position>
              <LatitudeDegrees>50.21812473423779010772705078125</LatitudeDegrees>
              <LongitudeDegrees>17.005395255982875823974609375</LongitudeDegrees>
            </Position>
            <AltitudeMeters>1071.5999755859375</AltitudeMeters>
            <DistanceMeters>25002.702619457</DistanceMeters>
          </Trackpoint>
          <Trackpoint>
            <Time>2022-08-27T05:47:50.000Z</Time>
            <Position>
              <LatitudeDegrees>50.2181331999599933624267578125</LatitudeDegrees>
              <LongitudeDegrees>17.00540053658187389373779296875</LongitudeDegrees>
            </Position>
            <AltitudeMeters>1071.5999755859375</AltitudeMeters>
            <DistanceMeters>25003.717227123</DistanceMeters>
          </Trackpoint>
          <Trackpoint>
            <Time>2022-08-27T05:47:58.000Z</Time>
            <Position>
              <LatitudeDegrees>50.2181370556354522705078125</LatitudeDegrees>
              <LongitudeDegrees>17.0053967647254467010498046875</LongitudeDegrees>
            </Position>
            <AltitudeMeters>1072.199951171875</AltitudeMeters>
            <DistanceMeters>25004.228961641</DistanceMeters>
          </Trackpoint>
          <Trackpoint>
            <Time>2022-08-27T05:48:08.000Z</Time>
            <Position>
              <LatitudeDegrees>50.21813630126416683197021484375</LatitudeDegrees>
              <LongitudeDegrees>17.0053954236209392547607421875</LongitudeDegrees>
            </Position>
            <AltitudeMeters>1072.5999755859375</AltitudeMeters>
            <DistanceMeters>25004.363349709</DistanceMeters>
          </Trackpoint>
          <Trackpoint>
            <Time>2022-08-27T05:48:19.000Z</Time>
            <Position>
              <LatitudeDegrees>50.21813730709254741668701171875</LatitudeDegrees>
              <LongitudeDegrees>17.00540288351476192474365234375</LongitudeDegrees>
            </Position>
            <AltitudeMeters>1072.800048828125</AltitudeMeters>
            <DistanceMeters>25004.900901982</DistanceMeters>
          </Trackpoint>
          <Trackpoint>
            <Time>2022-08-27T05:48:27.000Z</Time>
            <Position>
              <LatitudeDegrees>50.21813294850289821624755859375</LatitudeDegrees>
              <LongitudeDegrees>17.0054098404943943023681640625</LongitudeDegrees>
            </Position>
            <AltitudeMeters>1072.800048828125</AltitudeMeters>
            <DistanceMeters>25005.592706905</DistanceMeters>
          </Trackpoint>
          <Trackpoint>
            <Time>2022-08-27T05:48:38.000Z</Time>
            <Position>
              <LatitudeDegrees>50.21811501123011112213134765625</LatitudeDegrees>
              <LongitudeDegrees>17.005420066416263580322265625</LongitudeDegrees>
            </Position>
            <AltitudeMeters>1072.5999755859375</AltitudeMeters>
            <DistanceMeters>25007.717568835</DistanceMeters>
          </Trackpoint>
          <Trackpoint>
            <Time>2022-08-27T05:48:47.000Z</Time>
            <Position>
              <LatitudeDegrees>50.2181047014892101287841796875</LatitudeDegrees>
              <LongitudeDegrees>17.00544663704931735992431640625</LongitudeDegrees>
            </Position>
            <AltitudeMeters>1072.5999755859375</AltitudeMeters>
            <DistanceMeters>25009.929875647</DistanceMeters>
          </Trackpoint>
          <Trackpoint>
            <Time>2022-08-27T05:48:53.000Z</Time>
            <Position>
              <LatitudeDegrees>50.21809204481542110443115234375</LatitudeDegrees>
              <LongitudeDegrees>17.00548100285232067108154296875</LongitudeDegrees>
            </Position>
            <AltitudeMeters>1073</AltitudeMeters>
            <DistanceMeters>25012.753624485</DistanceMeters>
          </Trackpoint>
          <Trackpoint>
            <Time>2022-08-27T05:48:57.000Z</Time>
            <Position>
              <LatitudeDegrees>50.21808299235999584197998046875</LatitudeDegrees>
              <LongitudeDegrees>17.00550111941993236541748046875</LongitudeDegrees>
            </Position>
            <AltitudeMeters>1073.199951171875</AltitudeMeters>
            <DistanceMeters>25014.505830521</DistanceMeters>
          </Trackpoint>
          <Trackpoint>
            <Time>2022-08-27T05:49:05.000Z</Time>
            <Position>
              <LatitudeDegrees>50.21807393990457057952880859375</LatitudeDegrees>
              <LongitudeDegrees>17.0055808313190937042236328125</LongitudeDegrees>
            </Position>
            <AltitudeMeters>1074</AltitudeMeters>
            <DistanceMeters>25020.272002689</DistanceMeters>
          </Trackpoint>
          <Trackpoint>
            <Time>2022-08-27T05:49:06.000Z</Time>
            <Position>
              <LatitudeDegrees>50.2180745266377925872802734375</LatitudeDegrees>
              <LongitudeDegrees>17.00558829121291637420654296875</LongitudeDegrees>
            </Position>
            <AltitudeMeters>1074.199951171875</AltitudeMeters>
            <DistanceMeters>25020.809554962</DistanceMeters>
          </Trackpoint>
          <Trackpoint>
            <Time>2022-08-27T05:49:13.000Z</Time>
            <Position>
              <LatitudeDegrees>50.21808131597936153411865234375</LatitudeDegrees>
              <LongitudeDegrees>17.00563975609838962554931640625</LongitudeDegrees>
            </Position>
            <AltitudeMeters>1075</AltitudeMeters>
            <DistanceMeters>25024.550760448</DistanceMeters>
          </Trackpoint>
          <Trackpoint>
            <Time>2022-08-27T05:49:14.000Z</Time>
            <Position>
              <LatitudeDegrees>50.2180832438170909881591796875</LatitudeDegrees>
              <LongitudeDegrees>17.0056478865444660186767578125</LongitudeDegrees>
            </Position>
            <AltitudeMeters>1075.199951171875</AltitudeMeters>
            <DistanceMeters>25025.166603943</DistanceMeters>
          </Trackpoint>
          <Trackpoint>
            <Time>2022-08-27T05:49:25.000Z</Time>
            <Position>
              <LatitudeDegrees>50.21808986552059650421142578125</LatitudeDegrees>
              <LongitudeDegrees>17.00573623180389404296875</LongitudeDegrees>
            </Position>
            <AltitudeMeters>1076</AltitudeMeters>
            <DistanceMeters>25031.50140147</DistanceMeters>
          </Trackpoint>
          <Trackpoint>
            <Time>2022-08-27T05:49:27.000Z</Time>
            <Position>
              <LatitudeDegrees>50.21809036843478679656982421875</LatitudeDegrees>
              <LongitudeDegrees>17.00575299561023712158203125</LongitudeDegrees>
            </Position>
            <AltitudeMeters>1076.199951171875</AltitudeMeters>
            <DistanceMeters>25032.699642746</DistanceMeters>
          </Trackpoint>
          <Trackpoint>
            <Time>2022-08-27T05:49:34.000Z</Time>
            <Position>
              <LatitudeDegrees>50.218090116977691650390625</LatitudeDegrees>
              <LongitudeDegrees>17.00579616241157054901123046875</LongitudeDegrees>
            </Position>
            <AltitudeMeters>1076.5999755859375</AltitudeMeters>
            <DistanceMeters>25035.774458194</DistanceMeters>
          </Trackpoint>
          <Trackpoint>
            <Time>2022-08-27T05:49:44.000Z</Time>
            <Position>
              <LatitudeDegrees>50.21808869205415248870849609375</LatitudeDegrees>
              <LongitudeDegrees>17.00587637722492218017578125</LongitudeDegrees>
            </Position>
            <AltitudeMeters>1077.199951171875</AltitudeMeters>
            <DistanceMeters>25041.489507318</DistanceMeters>
          </Trackpoint>
          <Trackpoint>
            <Time>2022-08-27T05:49:53.000Z</Time>
            <Position>
              <LatitudeDegrees>50.2180959843099117279052734375</LatitudeDegrees>
              <LongitudeDegrees>17.0059469528496265411376953125</LongitudeDegrees>
            </Position>
            <AltitudeMeters>1077.5999755859375</AltitudeMeters>
            <DistanceMeters>25046.581201483</DistanceMeters>
          </Trackpoint>
          <Trackpoint>
            <Time>2022-08-27T05:50:02.000Z</Time>
            <Position>
              <LatitudeDegrees>50.21810009144246578216552734375</LatitudeDegrees>
              <LongitudeDegrees>17.00602783821523189544677734375</LongitudeDegrees>
            </Position>
            <AltitudeMeters>1078.199951171875</AltitudeMeters>
            <DistanceMeters>25052.359888418</DistanceMeters>
          </Trackpoint>
          <Trackpoint>
            <Time>2022-08-27T05:50:04.000Z</Time>
            <Position>
              <LatitudeDegrees>50.21809925325214862823486328125</LatitudeDegrees>
              <LongitudeDegrees>17.00604208745062351226806640625</LongitudeDegrees>
            </Position>
            <AltitudeMeters>1078.4000244140625</AltitudeMeters>
            <DistanceMeters>25053.378936401</DistanceMeters>
          </Trackpoint>
          <Trackpoint>
            <Time>2022-08-27T05:50:14.000Z</Time>
            <Position>
              <LatitudeDegrees>50.21809355355799198150634765625</LatitudeDegrees>
              <LongitudeDegrees>17.00613361783325672149658203125</LongitudeDegrees>
            </Position>
            <AltitudeMeters>1079.199951171875</AltitudeMeters>
            <DistanceMeters>25059.928200719</DistanceMeters>
          </Trackpoint>
          <Trackpoint>
            <Time>2022-08-27T05:50:20.000Z</Time>
            <Position>
              <LatitudeDegrees>50.2180949784815311431884765625</LatitudeDegrees>
              <LongitudeDegrees>17.0061829872429370880126953125</LongitudeDegrees>
            </Position>
            <AltitudeMeters>1079.5999755859375</AltitudeMeters>
            <DistanceMeters>25063.448039477</DistanceMeters>
          </Trackpoint>
          <Trackpoint>
            <Time>2022-08-27T05:50:24.000Z</Time>
            <Position>
              <LatitudeDegrees>50.21810227073729038238525390625</LatitudeDegrees>
              <LongitudeDegrees>17.00621743686497211456298828125</LongitudeDegrees>
            </Position>
            <AltitudeMeters>1079.800048828125</AltitudeMeters>
            <DistanceMeters>25066.033045583</DistanceMeters>
          </Trackpoint>
          <Trackpoint>
            <Time>2022-08-27T05:50:35.000Z</Time>
            <Position>
              <LatitudeDegrees>50.21810998208820819854736328125</LatitudeDegrees>
              <LongitudeDegrees>17.0063184387981891632080078125</LongitudeDegrees>
            </Position>
            <AltitudeMeters>1080.4000244140625</AltitudeMeters>
            <DistanceMeters>25073.277547242</DistanceMeters>
          </Trackpoint>
          <Trackpoint>
            <Time>2022-08-27T05:50:37.000Z</Time>
            <Position>
              <LatitudeDegrees>50.21811425685882568359375</LatitudeDegrees>
              <LongitudeDegrees>17.00634174048900604248046875</LongitudeDegrees>
            </Position>
            <AltitudeMeters>1080.5999755859375</AltitudeMeters>
            <DistanceMeters>25075.001175726</DistanceMeters>
          </Trackpoint>
          <Trackpoint>
            <Time>2022-08-27T05:50:43.000Z</Time>
            <Position>
              <LatitudeDegrees>50.21810931153595447540283203125</LatitudeDegrees>
              <LongitudeDegrees>17.006397731602191925048828125</LongitudeDegrees>
            </Position>
            <AltitudeMeters>1081.199951171875</AltitudeMeters>
            <DistanceMeters>25079.026092761</DistanceMeters>
          </Trackpoint>
          <Trackpoint>
            <Time>2022-08-27T05:50:49.000Z</Time>
            <Position>
              <LatitudeDegrees>50.21810059435665607452392578125</LatitudeDegrees>
              <LongitudeDegrees>17.00646520592272281646728515625</LongitudeDegrees>
            </Position>
            <AltitudeMeters>1081.5999755859375</AltitudeMeters>
            <DistanceMeters>25083.928955547</DistanceMeters>
          </Trackpoint>
          <Trackpoint>
            <Time>2022-08-27T05:50:54.000Z</Time>
            <Position>
              <LatitudeDegrees>50.2181006781756877899169921875</LatitudeDegrees>
              <LongitudeDegrees>17.0065248012542724609375</LongitudeDegrees>
            </Position>
            <AltitudeMeters>1082.199951171875</AltitudeMeters>
            <DistanceMeters>25088.172300033</DistanceMeters>
          </Trackpoint>
          <Trackpoint>
            <Time>2022-08-27T05:51:02.000Z</Time>
            <Position>
              <LatitudeDegrees>50.2180986665189266204833984375</LatitudeDegrees>
              <LongitudeDegrees>17.00660669244825839996337890625</LongitudeDegrees>
            </Position>
            <AltitudeMeters>1082.5999755859375</AltitudeMeters>
            <DistanceMeters>25094.010065744</DistanceMeters>
          </Trackpoint>
          <Trackpoint>
            <Time>2022-08-27T05:51:04.000Z</Time>
            <Position>
              <LatitudeDegrees>50.21809657104313373565673828125</LatitudeDegrees>
              <LongitudeDegrees>17.00662647373974323272705078125</LongitudeDegrees>
            </Position>
            <AltitudeMeters>1082.800048828125</AltitudeMeters>
            <DistanceMeters>25095.438630505</DistanceMeters>
          </Trackpoint>
          <Trackpoint>
            <Time>2022-08-27T05:51:13.000Z</Time>
            <Position>
              <LatitudeDegrees>50.21809204481542110443115234375</LatitudeDegrees>
              <LongitudeDegrees>17.0067113824188709259033203125</LongitudeDegrees>
            </Position>
            <AltitudeMeters>1083.5999755859375</AltitudeMeters>
            <DistanceMeters>25101.50696238</DistanceMeters>
          </Trackpoint>
          <Trackpoint>
            <Time>2022-08-27T05:51:17.000Z</Time>
            <Position>
              <LatitudeDegrees>50.21809078752994537353515625</LatitudeDegrees>
              <LongitudeDegrees>17.0067496038973331451416015625</LongitudeDegrees>
            </Position>
            <AltitudeMeters>1083.5999755859375</AltitudeMeters>
            <DistanceMeters>25104.234742244</DistanceMeters>
          </Trackpoint>
          <Trackpoint>
            <Time>2022-08-27T05:51:21.000Z</Time>
            <Position>
              <LatitudeDegrees>50.21810151636600494384765625</LatitudeDegrees>
              <LongitudeDegrees>17.00677583925426006317138671875</LongitudeDegrees>
            </Position>
            <AltitudeMeters>1084</AltitudeMeters>
            <DistanceMeters>25106.451127045</DistanceMeters>
          </Trackpoint>
          <Trackpoint>
            <Time>2022-08-27T05:51:30.000Z</Time>
            <Position>
              <LatitudeDegrees>50.2181201241910457611083984375</LatitudeDegrees>
              <LongitudeDegrees>17.00686368159949779510498046875</LongitudeDegrees>
            </Position>
            <AltitudeMeters>1084.5999755859375</AltitudeMeters>
            <DistanceMeters>25113.040255026</DistanceMeters>
          </Trackpoint>
          <Trackpoint>
            <Time>2022-08-27T05:51:31.000Z</Time>
            <Position>
              <LatitudeDegrees>50.218122638761997222900390625</LatitudeDegrees>
              <LongitudeDegrees>17.00686887837946414947509765625</LongitudeDegrees>
            </Position>
            <AltitudeMeters>1084.800048828125</AltitudeMeters>
            <DistanceMeters>25113.50578895</DistanceMeters>
          </Trackpoint>
          <Trackpoint>
            <Time>2022-08-27T05:51:40.000Z</Time>
            <Position>
              <LatitudeDegrees>50.21814904175698757171630859375</LatitudeDegrees>
              <LongitudeDegrees>17.00694498606026172637939453125</LongitudeDegrees>
            </Position>
            <AltitudeMeters>1085.4000244140625</AltitudeMeters>
            <DistanceMeters>25119.671551014</DistanceMeters>
          </Trackpoint>
          <Trackpoint>
            <Time>2022-08-27T05:51:44.000Z</Time>
            <Position>
              <LatitudeDegrees>50.21815675310790538787841796875</LatitudeDegrees>
              <LongitudeDegrees>17.00698069296777248382568359375</LongitudeDegrees>
            </Position>
            <AltitudeMeters>1085.800048828125</AltitudeMeters>
            <DistanceMeters>25122.354268093</DistanceMeters>
          </Trackpoint>
          <Trackpoint>
            <Time>2022-08-27T05:51:50.000Z</Time>
            <Position>
              <LatitudeDegrees>50.2181653864681720733642578125</LatitudeDegrees>
              <LongitudeDegrees>17.00703634880483150482177734375</LongitudeDegrees>
            </Position>
            <AltitudeMeters>1086</AltitudeMeters>
            <DistanceMeters>25126.432674744</DistanceMeters>
          </Trackpoint>
          <Trackpoint>
            <Time>2022-08-27T05:51:57.000Z</Time>
            <Position>
              <LatitudeDegrees>50.21816178224980831146240234375</LatitudeDegrees>
              <LongitudeDegrees>17.0070929266512393951416015625</LongitudeDegrees>
            </Position>
            <AltitudeMeters>1086.800048828125</AltitudeMeters>
            <DistanceMeters>25130.482195558</DistanceMeters>
          </Trackpoint>
          <Trackpoint>
            <Time>2022-08-27T05:52:05.000Z</Time>
            <Position>
              <LatitudeDegrees>50.218166224658489227294921875</LatitudeDegrees>
              <LongitudeDegrees>17.00717414729297161102294921875</LongitudeDegrees>
            </Position>
            <AltitudeMeters>1087.4000244140625</AltitudeMeters>
            <DistanceMeters>25136.287386794</DistanceMeters>
          </Trackpoint>
          <Trackpoint>
            <Time>2022-08-27T05:52:11.000Z</Time>
            <Position>
              <LatitudeDegrees>50.218170247972011566162109375</LatitudeDegrees>
              <LongitudeDegrees>17.0072342455387115478515625</LongitudeDegrees>
            </Position>
            <AltitudeMeters>1087.800048828125</AltitudeMeters>
            <DistanceMeters>25140.589904279</DistanceMeters>
          </Trackpoint>
          <Trackpoint>
            <Time>2022-08-27T05:52:15.000Z</Time>
            <Position>
              <LatitudeDegrees>50.21817703731358051300048828125</LatitudeDegrees>
              <LongitudeDegrees>17.00728856027126312255859375</LongitudeDegrees>
            </Position>
            <AltitudeMeters>1088.199951171875</AltitudeMeters>
            <DistanceMeters>25144.530936058</DistanceMeters>
          </Trackpoint>
          <Trackpoint>
            <Time>2022-08-27T05:52:21.000Z</Time>
            <Position>
              <LatitudeDegrees>50.21817033179104328155517578125</LatitudeDegrees>
              <LongitudeDegrees>17.0073634944856166839599609375</LongitudeDegrees>
            </Position>
            <AltitudeMeters>1089</AltitudeMeters>
            <DistanceMeters>25149.920718607</DistanceMeters>
          </Trackpoint>
          <Trackpoint>
            <Time>2022-08-27T05:52:22.000Z</Time>
            <Position>
              <LatitudeDegrees>50.21816781722009181976318359375</LatitudeDegrees>
              <LongitudeDegrees>17.0073718763887882232666015625</LongitudeDegrees>
            </Position>
            <AltitudeMeters>1089</AltitudeMeters>
            <DistanceMeters>25150.585905607</DistanceMeters>
          </Trackpoint>
          <Trackpoint>
            <Time>2022-08-27T05:52:31.000Z</Time>
            <Position>
              <LatitudeDegrees>50.21815105341374874114990234375</LatitudeDegrees>
              <LongitudeDegrees>17.00746265240013599395751953125</LongitudeDegrees>
            </Position>
            <AltitudeMeters>1089.800048828125</AltitudeMeters>
            <DistanceMeters>25157.314709609</DistanceMeters>
          </Trackpoint>
          <Trackpoint>
            <Time>2022-08-27T05:52:35.000Z</Time>
            <Position>
              <LatitudeDegrees>50.21814552135765552520751953125</LatitudeDegrees>
              <LongitudeDegrees>17.0075051486492156982421875</LongitudeDegrees>
            </Position>
            <AltitudeMeters>1090</AltitudeMeters>
            <DistanceMeters>25160.404174093</DistanceMeters>
          </Trackpoint>
          <Trackpoint>
            <Time>2022-08-27T05:52:43.000Z</Time>
            <Position>
              <LatitudeDegrees>50.2181362174451351165771484375</LatitudeDegrees>
              <LongitudeDegrees>17.0075944997370243072509765625</LongitudeDegrees>
            </Position>
            <AltitudeMeters>1090.5999755859375</AltitudeMeters>
            <DistanceMeters>25166.85130073</DistanceMeters>
          </Trackpoint>
          <Trackpoint>
            <Time>2022-08-27T05:52:47.000Z</Time>
            <Position>
              <LatitudeDegrees>50.21812926046550273895263671875</LatitudeDegrees>
              <LongitudeDegrees>17.00763280503451824188232421875</LongitudeDegrees>
            </Position>
            <AltitudeMeters>1091.199951171875</AltitudeMeters>
            <DistanceMeters>25169.686220135</DistanceMeters>
          </Trackpoint>
          <Trackpoint>
            <Time>2022-08-27T05:52:53.000Z</Time>
            <Position>
              <LatitudeDegrees>50.21812431514263153076171875</LatitudeDegrees>
              <LongitudeDegrees>17.00769131071865558624267578125</LongitudeDegrees>
            </Position>
            <AltitudeMeters>1091.5999755859375</AltitudeMeters>
            <DistanceMeters>25173.888937057</DistanceMeters>
          </Trackpoint>
          <Trackpoint>
            <Time>2022-08-27T05:52:58.000Z</Time>
            <Position>
              <LatitudeDegrees>50.2181171067059040069580078125</LatitudeDegrees>
              <LongitudeDegrees>17.00773506425321102142333984375</LongitudeDegrees>
            </Position>
            <AltitudeMeters>1092.199951171875</AltitudeMeters>
            <DistanceMeters>25177.105840476</DistanceMeters>
          </Trackpoint>
          <Trackpoint>
            <Time>2022-08-27T05:53:06.000Z</Time>
            <Position>
              <LatitudeDegrees>50.21811819635331630706787109375</LatitudeDegrees>
              <LongitudeDegrees>17.00774453580379486083984375</LongitudeDegrees>
            </Position>
            <AltitudeMeters>1092.5999755859375</AltitudeMeters>
            <DistanceMeters>25177.791087858</DistanceMeters>
          </Trackpoint>
          <Trackpoint>
            <Time>2022-08-27T05:53:17.000Z</Time>
            <Position>
              <LatitudeDegrees>50.2181102335453033447265625</LatitudeDegrees>
              <LongitudeDegrees>17.00783573091030120849609375</LongitudeDegrees>
            </Position>
            <AltitudeMeters>1093.4000244140625</AltitudeMeters>
            <DistanceMeters>25184.345865026</DistanceMeters>
          </Trackpoint>
          <Trackpoint>
            <Time>2022-08-27T05:53:18.000Z</Time>
            <Position>
              <LatitudeDegrees>50.21810998208820819854736328125</LatitudeDegrees>
              <LongitudeDegrees>17.0078429393470287322998046875</LongitudeDegrees>
            </Position>
            <AltitudeMeters>1093.4000244140625</AltitudeMeters>
            <DistanceMeters>25184.866347776</DistanceMeters>
          </Trackpoint>
          <Trackpoint>
            <Time>2022-08-27T05:53:27.000Z</Time>
            <Position>
              <LatitudeDegrees>50.2181218005716800689697265625</LatitudeDegrees>
              <LongitudeDegrees>17.00791929848492145538330078125</LongitudeDegrees>
            </Position>
            <AltitudeMeters>1094.199951171875</AltitudeMeters>
            <DistanceMeters>25190.46163821</DistanceMeters>
          </Trackpoint>
          <Trackpoint>
            <Time>2022-08-27T05:53:30.000Z</Time>
            <Position>
              <LatitudeDegrees>50.218122638761997222900390625</LatitudeDegrees>
              <LongitudeDegrees>17.00795047916471958160400390625</LongitudeDegrees>
            </Position>
            <AltitudeMeters>1094.4000244140625</AltitudeMeters>
            <DistanceMeters>25192.684125963</DistanceMeters>
          </Trackpoint>
          <Trackpoint>
            <Time>2022-08-27T05:53:36.000Z</Time>
            <Position>
              <LatitudeDegrees>50.21812976337969303131103515625</LatitudeDegrees>
              <LongitudeDegrees>17.0080042071640491485595703125</LongitudeDegrees>
            </Position>
            <AltitudeMeters>1094.800048828125</AltitudeMeters>
            <DistanceMeters>25196.590637091</DistanceMeters>
          </Trackpoint>
          <Trackpoint>
            <Time>2022-08-27T05:53:45.000Z</Time>
            <Position>
              <LatitudeDegrees>50.2181328646838665008544921875</LatitudeDegrees>
              <LongitudeDegrees>17.0080954022705554962158203125</LongitudeDegrees>
            </Position>
            <AltitudeMeters>1095.4000244140625</AltitudeMeters>
            <DistanceMeters>25203.094242096</DistanceMeters>
          </Trackpoint>
          <Trackpoint>
            <Time>2022-08-27T05:53:47.000Z</Time>
            <Position>
              <LatitudeDegrees>50.218133367598056793212890625</LatitudeDegrees>
              <LongitudeDegrees>17.00811509974300861358642578125</LongitudeDegrees>
            </Position>
            <AltitudeMeters>1095.4000244140625</AltitudeMeters>
            <DistanceMeters>25204.49729472</DistanceMeters>
          </Trackpoint>
          <Trackpoint>
            <Time>2022-08-27T05:54:01.000Z</Time>
            <Position>
              <LatitudeDegrees>50.218122303485870361328125</LatitudeDegrees>
              <LongitudeDegrees>17.00826731510460376739501953125</LongitudeDegrees>
            </Position>
            <AltitudeMeters>1096.199951171875</AltitudeMeters>
            <DistanceMeters>25215.407586544</DistanceMeters>
          </Trackpoint>
          <Trackpoint>
            <Time>2022-08-27T05:54:09.000Z</Time>
            <Position>
              <LatitudeDegrees>50.218131355941295623779296875</LatitudeDegrees>
              <LongitudeDegrees>17.00834794901311397552490234375</LongitudeDegrees>
            </Position>
            <AltitudeMeters>1096.4000244140625</AltitudeMeters>
            <DistanceMeters>25221.237612936</DistanceMeters>
          </Trackpoint>
          <Trackpoint>
            <Time>2022-08-27T05:54:11.000Z</Time>
            <Position>
              <LatitudeDegrees>50.21813211031258106231689453125</LatitudeDegrees>
              <LongitudeDegrees>17.008369825780391693115234375</LongitudeDegrees>
            </Position>
            <AltitudeMeters>1096.800048828125</AltitudeMeters>
            <DistanceMeters>25222.796166933</DistanceMeters>
          </Trackpoint>
          <Trackpoint>
            <Time>2022-08-27T05:54:19.000Z</Time>
            <Position>
              <LatitudeDegrees>50.218144766986370086669921875</LatitudeDegrees>
              <LongitudeDegrees>17.0084558241069316864013671875</LongitudeDegrees>
            </Position>
            <AltitudeMeters>1097</AltitudeMeters>
            <DistanceMeters>25229.080156454</DistanceMeters>
          </Trackpoint>
          <Trackpoint>
            <Time>2022-08-27T05:54:30.000Z</Time>
            <Position>
              <LatitudeDegrees>50.21816060878336429595947265625</LatitudeDegrees>
              <LongitudeDegrees>17.00856403447687625885009765625</LongitudeDegrees>
            </Position>
            <AltitudeMeters>1097.5999755859375</AltitudeMeters>
            <DistanceMeters>25236.985670926</DistanceMeters>
          </Trackpoint>
          <Trackpoint>
            <Time>2022-08-27T05:54:32.000Z</Time>
            <Position>
              <LatitudeDegrees>50.21816295571625232696533203125</LatitudeDegrees>
              <LongitudeDegrees>17.00857467949390411376953125</LongitudeDegrees>
            </Position>
            <AltitudeMeters>1097.5999755859375</AltitudeMeters>
            <DistanceMeters>25237.786380253</DistanceMeters>
          </Trackpoint>
          <Trackpoint>
            <Time>2022-08-27T05:54:41.000Z</Time>
            <Position>
              <LatitudeDegrees>50.2181777916848659515380859375</LatitudeDegrees>
              <LongitudeDegrees>17.00865305028855800628662109375</LongitudeDegrees>
            </Position>
            <AltitudeMeters>1098</AltitudeMeters>
            <DistanceMeters>25243.60710588</DistanceMeters>
          </Trackpoint>
          <Trackpoint>
            <Time>2022-08-27T05:54:52.000Z</Time>
            <Position>
              <LatitudeDegrees>50.2182067930698394775390625</LatitudeDegrees>
              <LongitudeDegrees>17.008741982281208038330078125</LongitudeDegrees>
            </Position>
            <AltitudeMeters>1098.5999755859375</AltitudeMeters>
            <DistanceMeters>25250.715713886</DistanceMeters>
          </Trackpoint>
          <Trackpoint>
            <Time>2022-08-27T05:54:55.000Z</Time>
            <Position>
              <LatitudeDegrees>50.21820905618369579315185546875</LatitudeDegrees>
              <LongitudeDegrees>17.008760087192058563232421875</LongitudeDegrees>
            </Position>
            <AltitudeMeters>1098.800048828125</AltitudeMeters>
            <DistanceMeters>25252.029009207</DistanceMeters>
          </Trackpoint>
          <Trackpoint>
            <Time>2022-08-27T05:55:03.000Z</Time>
            <Position>
              <LatitudeDegrees>50.21821081638336181640625</LatitudeDegrees>
              <LongitudeDegrees>17.00878347270190715789794921875</LongitudeDegrees>
            </Position>
            <AltitudeMeters>1099.199951171875</AltitudeMeters>
            <DistanceMeters>25253.704823568</DistanceMeters>
          </Trackpoint>
          <Trackpoint>
            <Time>2022-08-27T05:55:13.000Z</Time>
            <Position>
              <LatitudeDegrees>50.21821877919137477874755859375</LatitudeDegrees>
              <LongitudeDegrees>17.00879730284214019775390625</LongitudeDegrees>
            </Position>
            <AltitudeMeters>1099</AltitudeMeters>
            <DistanceMeters>25255.028392543</DistanceMeters>
          </Trackpoint>
          <Trackpoint>
            <Time>2022-08-27T05:55:20.000Z</Time>
            <Position>
              <LatitudeDegrees>50.2182119898498058319091796875</LatitudeDegrees>
              <LongitudeDegrees>17.0087845623493194580078125</LongitudeDegrees>
            </Position>
            <AltitudeMeters>1099</AltitudeMeters>
            <DistanceMeters>25256.207643056</DistanceMeters>
          </Trackpoint>
          <Trackpoint>
            <Time>2022-08-27T05:55:30.000Z</Time>
            <Position>
              <LatitudeDegrees>50.21821140311658382415771484375</LatitudeDegrees>
              <LongitudeDegrees>17.00877240858972072601318359375</LongitudeDegrees>
            </Position>
            <AltitudeMeters>1098.800048828125</AltitudeMeters>
            <DistanceMeters>25257.068146553</DistanceMeters>
          </Trackpoint>
          <Trackpoint>
            <Time>2022-08-27T05:55:36.000Z</Time>
            <Position>
              <LatitudeDegrees>50.21821643225848674774169921875</LatitudeDegrees>
              <LongitudeDegrees>17.00878699310123920440673828125</LongitudeDegrees>
            </Position>
            <AltitudeMeters>1098.5999755859375</AltitudeMeters>
            <DistanceMeters>25258.243562095</DistanceMeters>
          </Trackpoint>
          <Trackpoint>
            <Time>2022-08-27T05:55:43.000Z</Time>
            <Position>
              <LatitudeDegrees>50.21820503287017345428466796875</LatitudeDegrees>
              <LongitudeDegrees>17.00879856012761592864990234375</LongitudeDegrees>
            </Position>
            <AltitudeMeters>1098.5999755859375</AltitudeMeters>
            <DistanceMeters>25259.752064419</DistanceMeters>
          </Trackpoint>
          <Trackpoint>
            <Time>2022-08-27T05:55:56.000Z</Time>
            <Position>
              <LatitudeDegrees>50.2181717567145824432373046875</LatitudeDegrees>
              <LongitudeDegrees>17.0088393799960613250732421875</LongitudeDegrees>
            </Position>
            <AltitudeMeters>1098.5999755859375</AltitudeMeters>
            <DistanceMeters>25264.459484901</DistanceMeters>
          </Trackpoint>
          <Trackpoint>
            <Time>2022-08-27T05:56:05.000Z</Time>
            <Position>
              <LatitudeDegrees>50.218141414225101470947265625</LatitudeDegrees>
              <LongitudeDegrees>17.00886243022978305816650390625</LongitudeDegrees>
            </Position>
            <AltitudeMeters>1099</AltitudeMeters>
            <DistanceMeters>25268.215144551</DistanceMeters>
          </Trackpoint>
          <Trackpoint>
            <Time>2022-08-27T05:56:17.000Z</Time>
            <Position>
              <LatitudeDegrees>50.2180825732648372650146484375</LatitudeDegrees>
              <LongitudeDegrees>17.0089168287813663482666015625</LongitudeDegrees>
            </Position>
            <AltitudeMeters>1099</AltitudeMeters>
            <DistanceMeters>25275.824998705</DistanceMeters>
          </Trackpoint>
          <Trackpoint>
            <Time>2022-08-27T05:56:28.000Z</Time>
            <Position>
              <LatitudeDegrees>50.2180409990251064300537109375</LatitudeDegrees>
              <LongitudeDegrees>17.008957564830780029296875</LongitudeDegrees>
            </Position>
            <AltitudeMeters>1099.199951171875</AltitudeMeters>
            <DistanceMeters>25281.287175246</DistanceMeters>
          </Trackpoint>
          <Trackpoint>
            <Time>2022-08-27T05:56:39.000Z</Time>
            <Position>
              <LatitudeDegrees>50.21799112670123577117919921875</LatitudeDegrees>
              <LongitudeDegrees>17.0090147294104099273681640625</LongitudeDegrees>
            </Position>
            <AltitudeMeters>1099.199951171875</AltitudeMeters>
            <DistanceMeters>25288.171203222</DistanceMeters>
          </Trackpoint>
          <Trackpoint>
            <Time>2022-08-27T05:56:48.000Z</Time>
            <Position>
              <LatitudeDegrees>50.21797570399940013885498046875</LatitudeDegrees>
              <LongitudeDegrees>17.00906845740973949432373046875</LongitudeDegrees>
            </Position>
            <AltitudeMeters>1099.4000244140625</AltitudeMeters>
            <DistanceMeters>25292.365316825</DistanceMeters>
          </Trackpoint>
          <Trackpoint>
            <Time>2022-08-27T05:56:58.000Z</Time>
            <Position>
              <LatitudeDegrees>50.21796279586851596832275390625</LatitudeDegrees>
              <LongitudeDegrees>17.00916551984846591949462890625</LongitudeDegrees>
            </Position>
            <AltitudeMeters>1099.5999755859375</AltitudeMeters>
            <DistanceMeters>25299.42612783</DistanceMeters>
          </Trackpoint>
          <Trackpoint>
            <Time>2022-08-27T05:57:08.000Z</Time>
            <Position>
              <LatitudeDegrees>50.21796195767819881439208984375</LatitudeDegrees>
              <LongitudeDegrees>17.00926803052425384521484375</LongitudeDegrees>
            </Position>
            <AltitudeMeters>1100.199951171875</AltitudeMeters>
            <DistanceMeters>25306.727742126</DistanceMeters>
          </Trackpoint>
          <Trackpoint>
            <Time>2022-08-27T05:57:12.000Z</Time>
            <Position>
              <LatitudeDegrees>50.2179627120494842529296875</LatitudeDegrees>
              <LongitudeDegrees>17.009306587278842926025390625</LongitudeDegrees>
            </Position>
            <AltitudeMeters>1100.4000244140625</AltitudeMeters>
            <DistanceMeters>25309.475312672</DistanceMeters>
          </Trackpoint>
          <Trackpoint>
            <Time>2022-08-27T05:57:19.000Z</Time>
            <Position>
              <LatitudeDegrees>50.2179662324488162994384765625</LatitudeDegrees>
              <LongitudeDegrees>17.00936400331556797027587890625</LongitudeDegrees>
            </Position>
            <AltitudeMeters>1100.800048828125</AltitudeMeters>
            <DistanceMeters>25313.584600074</DistanceMeters>
          </Trackpoint>
          <Trackpoint>
            <Time>2022-08-27T05:57:29.000Z</Time>
            <Position>
              <LatitudeDegrees>50.21796564571559429168701171875</LatitudeDegrees>
              <LongitudeDegrees>17.0094415359199047088623046875</LongitudeDegrees>
            </Position>
            <AltitudeMeters>1101.4000244140625</AltitudeMeters>
            <DistanceMeters>25319.106788784</DistanceMeters>
          </Trackpoint>
          <Trackpoint>
            <Time>2022-08-27T05:57:30.000Z</Time>
            <Position>
              <LatitudeDegrees>50.21796648390591144561767578125</LatitudeDegrees>
              <LongitudeDegrees>17.00945310294628143310546875</LongitudeDegrees>
            </Position>
            <AltitudeMeters>1101.4000244140625</AltitudeMeters>
            <DistanceMeters>25319.940644819</DistanceMeters>
          </Trackpoint>
          <Trackpoint>
            <Time>2022-08-27T05:57:39.000Z</Time>
            <Position>
              <LatitudeDegrees>50.21796480752527713775634765625</LatitudeDegrees>
              <LongitudeDegrees>17.0095508359372615814208984375</LongitudeDegrees>
            </Position>
            <AltitudeMeters>1102</AltitudeMeters>
            <DistanceMeters>25326.903581012</DistanceMeters>
          </Trackpoint>
          <Trackpoint>
            <Time>2022-08-27T05:57:47.000Z</Time>
            <Position>
              <LatitudeDegrees>50.21797888912260532379150390625</LatitudeDegrees>
              <LongitudeDegrees>17.00963071547448635101318359375</LongitudeDegrees>
            </Position>
            <AltitudeMeters>1102.4000244140625</AltitudeMeters>
            <DistanceMeters>25332.805191372</DistanceMeters>
          </Trackpoint>
          <Trackpoint>
            <Time>2022-08-27T05:57:49.000Z</Time>
            <Position>
              <LatitudeDegrees>50.21798425354063510894775390625</LatitudeDegrees>
              <LongitudeDegrees>17.0096567831933498382568359375</LongitudeDegrees>
            </Position>
            <AltitudeMeters>1102.4000244140625</AltitudeMeters>
            <DistanceMeters>25334.757290821</DistanceMeters>
          </Trackpoint>
          <Trackpoint>
            <Time>2022-08-27T05:57:58.000Z</Time>
            <Position>
              <LatitudeDegrees>50.21800738759338855743408203125</LatitudeDegrees>
              <LongitudeDegrees>17.0097520016133785247802734375</LongitudeDegrees>
            </Position>
            <AltitudeMeters>1103.199951171875</AltitudeMeters>
            <DistanceMeters>25342.011757412</DistanceMeters>
          </Trackpoint>
          <Trackpoint>
            <Time>2022-08-27T05:58:06.000Z</Time>
            <Position>
              <LatitudeDegrees>50.2180342935025691986083984375</LatitudeDegrees>
              <LongitudeDegrees>17.00982685200870037078857421875</LongitudeDegrees>
            </Position>
            <AltitudeMeters>1103.5999755859375</AltitudeMeters>
            <DistanceMeters>25348.126045308</DistanceMeters>
          </Trackpoint>
          <Trackpoint>
            <Time>2022-08-27T05:58:10.000Z</Time>
            <Position>
              <LatitudeDegrees>50.21804762072861194610595703125</LatitudeDegrees>
              <LongitudeDegrees>17.00986457057297229766845703125</LongitudeDegrees>
            </Position>
            <AltitudeMeters>1103.5999755859375</AltitudeMeters>
            <DistanceMeters>25351.194981562</DistanceMeters>
          </Trackpoint>
          <Trackpoint>
            <Time>2022-08-27T05:58:15.000Z</Time>
            <Position>
              <LatitudeDegrees>50.21806128323078155517578125</LatitudeDegrees>
              <LongitudeDegrees>17.0099045522511005401611328125</LongitudeDegrees>
            </Position>
            <AltitudeMeters>1104</AltitudeMeters>
            <DistanceMeters>25354.423093737</DistanceMeters>
          </Trackpoint>
          <Trackpoint>
            <Time>2022-08-27T05:58:26.000Z</Time>
            <Position>
              <LatitudeDegrees>50.21808584220707416534423828125</LatitudeDegrees>
              <LongitudeDegrees>17.01002986170351505279541015625</LongitudeDegrees>
            </Position>
            <AltitudeMeters>1104.199951171875</AltitudeMeters>
            <DistanceMeters>25363.75653616</DistanceMeters>
          </Trackpoint>
          <Trackpoint>
            <Time>2022-08-27T05:58:34.000Z</Time>
            <Position>
              <LatitudeDegrees>50.21810545586049556732177734375</LatitudeDegrees>
              <LongitudeDegrees>17.01013840734958648681640625</LongitudeDegrees>
            </Position>
            <AltitudeMeters>1104.4000244140625</AltitudeMeters>
            <DistanceMeters>25371.789526031</DistanceMeters>
          </Trackpoint>
          <Trackpoint>
            <Time>2022-08-27T05:58:41.000Z</Time>
            <Position>
              <LatitudeDegrees>50.218123979866504669189453125</LatitudeDegrees>
              <LongitudeDegrees>17.01021208427846431732177734375</LongitudeDegrees>
            </Position>
            <AltitudeMeters>1105</AltitudeMeters>
            <DistanceMeters>25377.426620939</DistanceMeters>
          </Trackpoint>
          <Trackpoint>
            <Time>2022-08-27T05:58:43.000Z</Time>
            <Position>
              <LatitudeDegrees>50.2181303501129150390625</LatitudeDegrees>
              <LongitudeDegrees>17.01023354195058345794677734375</LongitudeDegrees>
            </Position>
            <AltitudeMeters>1105</AltitudeMeters>
            <DistanceMeters>25379.11317781</DistanceMeters>
          </Trackpoint>
          <Trackpoint>
            <Time>2022-08-27T05:58:54.000Z</Time>
            <Position>
              <LatitudeDegrees>50.21817267872393131256103515625</LatitudeDegrees>
              <LongitudeDegrees>17.01034669764339923858642578125</LongitudeDegrees>
            </Position>
            <AltitudeMeters>1105.4000244140625</AltitudeMeters>
            <DistanceMeters>25388.448071365</DistanceMeters>
          </Trackpoint>
          <Trackpoint>
            <Time>2022-08-27T05:59:04.000Z</Time>
            <Position>
              <LatitudeDegrees>50.2182002551853656768798828125</LatitudeDegrees>
              <LongitudeDegrees>17.01045499183237552642822265625</LongitudeDegrees>
            </Position>
            <AltitudeMeters>1105.5999755859375</AltitudeMeters>
            <DistanceMeters>25396.748642627</DistanceMeters>
          </Trackpoint>
          <Trackpoint>
            <Time>2022-08-27T05:59:14.000Z</Time>
            <Position>
              <LatitudeDegrees>50.21822280250489711761474609375</LatitudeDegrees>
              <LongitudeDegrees>17.0105506293475627899169921875</LongitudeDegrees>
            </Position>
            <AltitudeMeters>1106</AltitudeMeters>
            <DistanceMeters>25404.008086554</DistanceMeters>
          </Trackpoint>
          <Trackpoint>
            <Time>2022-08-27T05:59:15.000Z</Time>
            <Position>
              <LatitudeDegrees>50.2182247303426265716552734375</LatitudeDegrees>
              <LongitudeDegrees>17.01056010089814662933349609375</LongitudeDegrees>
            </Position>
            <AltitudeMeters>1106</AltitudeMeters>
            <DistanceMeters>25404.719201369</DistanceMeters>
          </Trackpoint>
          <Trackpoint>
            <Time>2022-08-27T05:59:32.000Z</Time>
            <Position>
              <LatitudeDegrees>50.21830134093761444091796875</LatitudeDegrees>
              <LongitudeDegrees>17.010740227997303009033203125</LongitudeDegrees>
            </Position>
            <AltitudeMeters>1106.4000244140625</AltitudeMeters>
            <DistanceMeters>25420.123204703</DistanceMeters>
          </Trackpoint>
          <Trackpoint>
            <Time>2022-08-27T05:59:48.000Z</Time>
            <Position>
              <LatitudeDegrees>50.21836780942976474761962890625</LatitudeDegrees>
              <LongitudeDegrees>17.0108912698924541473388671875</LongitudeDegrees>
            </Position>
            <AltitudeMeters>1106.199951171875</AltitudeMeters>
            <DistanceMeters>25433.178920806</DistanceMeters>
          </Trackpoint>
          <Trackpoint>
            <Time>2022-08-27T06:00:02.000Z</Time>
            <Position>
              <LatitudeDegrees>50.218424387276172637939453125</LatitudeDegrees>
              <LongitudeDegrees>17.011032588779926300048828125</LongitudeDegrees>
            </Position>
            <AltitudeMeters>1106.5999755859375</AltitudeMeters>
            <DistanceMeters>25445.050796527</DistanceMeters>
          </Trackpoint>
          <Trackpoint>
            <Time>2022-08-27T06:00:11.000Z</Time>
            <Position>
              <LatitudeDegrees>50.21845615468919277191162109375</LatitudeDegrees>
              <LongitudeDegrees>17.01112403534352779388427734375</LongitudeDegrees>
            </Position>
            <AltitudeMeters>1106.800048828125</AltitudeMeters>
            <DistanceMeters>25452.460443265</DistanceMeters>
          </Trackpoint>
          <Trackpoint>
            <Time>2022-08-27T06:00:21.000Z</Time>
            <Position>
              <LatitudeDegrees>50.21851197816431522369384765625</LatitudeDegrees>
              <LongitudeDegrees>17.01122025959193706512451171875</LongitudeDegrees>
            </Position>
            <AltitudeMeters>1107</AltitudeMeters>
            <DistanceMeters>25461.710794847</DistanceMeters>
          </Trackpoint>
          <Trackpoint>
            <Time>2022-08-27T06:00:25.000Z</Time>
            <Position>
              <LatitudeDegrees>50.2185442484915256500244140625</LatitudeDegrees>
              <LongitudeDegrees>17.011275999248027801513671875</LongitudeDegrees>
            </Position>
            <AltitudeMeters>1107.199951171875</AltitudeMeters>
            <DistanceMeters>25467.064434976</DistanceMeters>
          </Trackpoint>
          <Trackpoint>
            <Time>2022-08-27T06:00:31.000Z</Time>
            <Position>
              <LatitudeDegrees>50.2185838110744953155517578125</LatitudeDegrees>
              <LongitudeDegrees>17.01133660040795803070068359375</LongitudeDegrees>
            </Position>
            <AltitudeMeters>1107.4000244140625</AltitudeMeters>
            <DistanceMeters>25473.229464721</DistanceMeters>
          </Trackpoint>
          <Trackpoint>
            <Time>2022-08-27T06:00:39.000Z</Time>
            <Position>
              <LatitudeDegrees>50.21861859597265720367431640625</LatitudeDegrees>
              <LongitudeDegrees>17.01143500395119190216064453125</LongitudeDegrees>
            </Position>
            <AltitudeMeters>1107.5999755859375</AltitudeMeters>
            <DistanceMeters>25481.235430159</DistanceMeters>
          </Trackpoint>
          <Trackpoint>
            <Time>2022-08-27T06:00:41.000Z</Time>
            <Position>
              <LatitudeDegrees>50.218623541295528411865234375</LatitudeDegrees>
              <LongitudeDegrees>17.01146132312715053558349609375</LongitudeDegrees>
            </Position>
            <AltitudeMeters>1107.5999755859375</AltitudeMeters>
            <DistanceMeters>25483.187529608</DistanceMeters>
          </Trackpoint>
          <Trackpoint>
            <Time>2022-08-27T06:00:49.000Z</Time>
            <Position>
              <LatitudeDegrees>50.21865212358534336090087890625</LatitudeDegrees>
              <LongitudeDegrees>17.01155872084200382232666015625</LongitudeDegrees>
            </Position>
            <AltitudeMeters>1107.800048828125</AltitudeMeters>
            <DistanceMeters>25490.818713198</DistanceMeters>
          </Trackpoint>
          <Trackpoint>
            <Time>2022-08-27T06:00:58.000Z</Time>
            <Position>
              <LatitudeDegrees>50.2186820469796657562255859375</LatitudeDegrees>
              <LongitudeDegrees>17.01167204417288303375244140625</LongitudeDegrees>
            </Position>
            <AltitudeMeters>1108.199951171875</AltitudeMeters>
            <DistanceMeters>25499.5492845</DistanceMeters>
          </Trackpoint>
          <Trackpoint>
            <Time>2022-08-27T06:01:06.000Z</Time>
            <Position>
              <LatitudeDegrees>50.21871834062039852142333984375</LatitudeDegrees>
              <LongitudeDegrees>17.01175846159458160400390625</LongitudeDegrees>
            </Position>
            <AltitudeMeters>1108.4000244140625</AltitudeMeters>
            <DistanceMeters>25506.911248832</DistanceMeters>
          </Trackpoint>
          <Trackpoint>
            <Time>2022-08-27T06:01:15.000Z</Time>
            <Position>
              <LatitudeDegrees>50.2187651954591274261474609375</LatitudeDegrees>
              <LongitudeDegrees>17.0118463039398193359375</LongitudeDegrees>
            </Position>
            <AltitudeMeters>1108.5999755859375</AltitudeMeters>
            <DistanceMeters>25515.055875377</DistanceMeters>
          </Trackpoint>
          <Trackpoint>
            <Time>2022-08-27T06:01:23.000Z</Time>
            <Position>
              <LatitudeDegrees>50.21879260428249835968017578125</LatitudeDegrees>
              <LongitudeDegrees>17.011927105486392974853515625</LongitudeDegrees>
            </Position>
            <AltitudeMeters>1109.199951171875</AltitudeMeters>
            <DistanceMeters>25521.569192438</DistanceMeters>
          </Trackpoint>
          <Trackpoint>
            <Time>2022-08-27T06:01:33.000Z</Time>
            <Position>
              <LatitudeDegrees>50.21881925873458385467529296875</LatitudeDegrees>
              <LongitudeDegrees>17.01204168610274791717529296875</LongitudeDegrees>
            </Position>
            <AltitudeMeters>1109.4000244140625</AltitudeMeters>
            <DistanceMeters>25530.252575321</DistanceMeters>
          </Trackpoint>
          <Trackpoint>
            <Time>2022-08-27T06:01:35.000Z</Time>
            <Position>
              <LatitudeDegrees>50.21882680244743824005126953125</LatitudeDegrees>
              <LongitudeDegrees>17.012070603668689727783203125</LongitudeDegrees>
            </Position>
            <AltitudeMeters>1109.4000244140625</AltitudeMeters>
            <DistanceMeters>25532.477093672</DistanceMeters>
          </Trackpoint>
          <Trackpoint>
            <Time>2022-08-27T06:01:42.000Z</Time>
            <Position>
              <LatitudeDegrees>50.21885110996663570404052734375</LatitudeDegrees>
              <LongitudeDegrees>17.01216020621359348297119140625</LongitudeDegrees>
            </Position>
            <AltitudeMeters>1109.5999755859375</AltitudeMeters>
            <DistanceMeters>25539.408183534</DistanceMeters>
          </Trackpoint>
          <Trackpoint>
            <Time>2022-08-27T06:01:50.000Z</Time>
            <Position>
              <LatitudeDegrees>50.2188798598945140838623046875</LatitudeDegrees>
              <LongitudeDegrees>17.0122551731765270233154296875</LongitudeDegrees>
            </Position>
            <AltitudeMeters>1109.800048828125</AltitudeMeters>
            <DistanceMeters>25546.889991062</DistanceMeters>
          </Trackpoint>
          <Trackpoint>
            <Time>2022-08-27T06:01:59.000Z</Time>
            <Position>
              <LatitudeDegrees>50.2189090289175510406494140625</LatitudeDegrees>
              <LongitudeDegrees>17.0123530738055706024169921875</LongitudeDegrees>
            </Position>
            <AltitudeMeters>1110</AltitudeMeters>
            <DistanceMeters>25554.580699788</DistanceMeters>
          </Trackpoint>
          <Trackpoint>
            <Time>2022-08-27T06:02:07.000Z</Time>
            <Position>
              <LatitudeDegrees>50.2189311571419239044189453125</LatitudeDegrees>
              <LongitudeDegrees>17.012465894222259521484375</LongitudeDegrees>
            </Position>
            <AltitudeMeters>1110.199951171875</AltitudeMeters>
            <DistanceMeters>25562.983984728</DistanceMeters>
          </Trackpoint>
          <Trackpoint>
            <Time>2022-08-27T06:02:12.000Z</Time>
            <Position>
              <LatitudeDegrees>50.2189445681869983673095703125</LatitudeDegrees>
              <LongitudeDegrees>17.01253688894212245941162109375</LongitudeDegrees>
            </Position>
            <AltitudeMeters>1110.4000244140625</AltitudeMeters>
            <DistanceMeters>25568.254327709</DistanceMeters>
          </Trackpoint>
          <Trackpoint>
            <Time>2022-08-27T06:02:16.000Z</Time>
            <Position>
              <LatitudeDegrees>50.21895504556596279144287109375</LatitudeDegrees>
              <LongitudeDegrees>17.01257661916315555572509765625</LongitudeDegrees>
            </Position>
            <AltitudeMeters>1110.4000244140625</AltitudeMeters>
            <DistanceMeters>25571.314423994</DistanceMeters>
          </Trackpoint>
          <Trackpoint>
            <Time>2022-08-27T06:02:26.000Z</Time>
            <Position>
              <LatitudeDegrees>50.2189703844487667083740234375</LatitudeDegrees>
              <LongitudeDegrees>17.01262372545897960662841796875</LongitudeDegrees>
            </Position>
            <AltitudeMeters>1110.5999755859375</AltitudeMeters>
            <DistanceMeters>25575.077289905</DistanceMeters>
          </Trackpoint>
          <Trackpoint>
            <Time>2022-08-27T06:02:37.000Z</Time>
            <Position>
              <LatitudeDegrees>50.21899712271988391876220703125</LatitudeDegrees>
              <LongitudeDegrees>17.0127517171204090118408203125</LongitudeDegrees>
            </Position>
            <AltitudeMeters>1110.800048828125</AltitudeMeters>
            <DistanceMeters>25584.666045735</DistanceMeters>
          </Trackpoint>
          <Trackpoint>
            <Time>2022-08-27T06:02:45.000Z</Time>
            <Position>
              <LatitudeDegrees>50.21900785155594348907470703125</LatitudeDegrees>
              <LongitudeDegrees>17.01285724528133869171142578125</LongitudeDegrees>
            </Position>
            <AltitudeMeters>1110.800048828125</AltitudeMeters>
            <DistanceMeters>25592.275899888</DistanceMeters>
          </Trackpoint>
          <Trackpoint>
            <Time>2022-08-27T06:02:54.000Z</Time>
            <Position>
              <LatitudeDegrees>50.2190364338457584381103515625</LatitudeDegrees>
              <LongitudeDegrees>17.01297190971672534942626953125</LongitudeDegrees>
            </Position>
            <AltitudeMeters>1111.199951171875</AltitudeMeters>
            <DistanceMeters>25601.040021648</DistanceMeters>
          </Trackpoint>
          <Trackpoint>
            <Time>2022-08-27T06:03:03.000Z</Time>
            <Position>
              <LatitudeDegrees>50.21905864588916301727294921875</LatitudeDegrees>
              <LongitudeDegrees>17.01308774761855602264404296875</LongitudeDegrees>
            </Position>
            <AltitudeMeters>1111.199951171875</AltitudeMeters>
            <DistanceMeters>25609.651874982</DistanceMeters>
          </Trackpoint>
          <Trackpoint>
            <Time>2022-08-27T06:03:10.000Z</Time>
            <Position>
              <LatitudeDegrees>50.21907993592321872711181640625</LatitudeDegrees>
              <LongitudeDegrees>17.013187408447265625</LongitudeDegrees>
            </Position>
            <AltitudeMeters>1111.4000244140625</AltitudeMeters>
            <DistanceMeters>25617.134889349</DistanceMeters>
          </Trackpoint>
          <Trackpoint>
            <Time>2022-08-27T06:03:19.000Z</Time>
            <Position>
              <LatitudeDegrees>50.21911312825977802276611328125</LatitudeDegrees>
              <LongitudeDegrees>17.01330299489200115203857421875</LongitudeDegrees>
            </Position>
            <AltitudeMeters>1111.4000244140625</AltitudeMeters>
            <DistanceMeters>25626.157424422</DistanceMeters>
          </Trackpoint>
          <Trackpoint>
            <Time>2022-08-27T06:03:22.000Z</Time>
            <Position>
              <LatitudeDegrees>50.21911832503974437713623046875</LatitudeDegrees>
              <LongitudeDegrees>17.0133454911410808563232421875</LongitudeDegrees>
            </Position>
            <AltitudeMeters>1111.4000244140625</AltitudeMeters>
            <DistanceMeters>25629.239573092</DistanceMeters>
          </Trackpoint>
          <Trackpoint>
            <Time>2022-08-27T06:03:27.000Z</Time>
            <Position>
              <LatitudeDegrees>50.2191202528774738311767578125</LatitudeDegrees>
              <LongitudeDegrees>17.01341246254742145538330078125</LongitudeDegrees>
            </Position>
            <AltitudeMeters>1111.4000244140625</AltitudeMeters>
            <DistanceMeters>25634.014606392</DistanceMeters>
          </Trackpoint>
          <Trackpoint>
            <Time>2022-08-27T06:03:32.000Z</Time>
            <Position>
              <LatitudeDegrees>50.21911698393523693084716796875</LatitudeDegrees>
              <LongitudeDegrees>17.01349041424691677093505859375</LongitudeDegrees>
            </Position>
            <AltitudeMeters>1111.5999755859375</AltitudeMeters>
            <DistanceMeters>25639.578337339</DistanceMeters>
          </Trackpoint>
          <Trackpoint>
            <Time>2022-08-27T06:03:35.000Z</Time>
            <Position>
              <LatitudeDegrees>50.2191115356981754302978515625</LatitudeDegrees>
              <LongitudeDegrees>17.013531066477298736572265625</LongitudeDegrees>
            </Position>
            <AltitudeMeters>1111.800048828125</AltitudeMeters>
            <DistanceMeters>25642.537927539</DistanceMeters>
          </Trackpoint>
          <Trackpoint>
            <Time>2022-08-27T06:03:43.000Z</Time>
            <Position>
              <LatitudeDegrees>50.219130478799343109130859375</LatitudeDegrees>
              <LongitudeDegrees>17.0136432163417339324951171875</LongitudeDegrees>
            </Position>
            <AltitudeMeters>1112.199951171875</AltitudeMeters>
            <DistanceMeters>25650.798148941</DistanceMeters>
          </Trackpoint>
          <Trackpoint>
            <Time>2022-08-27T06:03:47.000Z</Time>
            <Position>
              <LatitudeDegrees>50.2191343344748020172119140625</LatitudeDegrees>
              <LongitudeDegrees>17.01368688605725765228271484375</LongitudeDegrees>
            </Position>
            <AltitudeMeters>1112.4000244140625</AltitudeMeters>
            <DistanceMeters>25653.936908792</DistanceMeters>
          </Trackpoint>
          <Trackpoint>
            <Time>2022-08-27T06:03:51.000Z</Time>
            <Position>
              <LatitudeDegrees>50.219137854874134063720703125</LatitudeDegrees>
              <LongitudeDegrees>17.0137253589928150177001953125</LongitudeDegrees>
            </Position>
            <AltitudeMeters>1112.5999755859375</AltitudeMeters>
            <DistanceMeters>25656.704128484</DistanceMeters>
          </Trackpoint>
          <Trackpoint>
            <Time>2022-08-27T06:03:58.000Z</Time>
            <Position>
              <LatitudeDegrees>50.21914380602538585662841796875</LatitudeDegrees>
              <LongitudeDegrees>17.0137431286275386810302734375</LongitudeDegrees>
            </Position>
            <AltitudeMeters>1112.5999755859375</AltitudeMeters>
            <DistanceMeters>25658.132693245</DistanceMeters>
          </Trackpoint>
          <Trackpoint>
            <Time>2022-08-27T06:04:06.000Z</Time>
            <Position>
              <LatitudeDegrees>50.21914967335760593414306640625</LatitudeDegrees>
              <LongitudeDegrees>17.01384463347494602203369140625</LongitudeDegrees>
            </Position>
            <AltitudeMeters>1112.5999755859375</AltitudeMeters>
            <DistanceMeters>25665.391515191</DistanceMeters>
          </Trackpoint>
          <Trackpoint>
            <Time>2022-08-27T06:04:15.000Z</Time>
            <Position>
              <LatitudeDegrees>50.2191718854010105133056640625</LatitudeDegrees>
              <LongitudeDegrees>17.0139623992145061492919921875</LongitudeDegrees>
            </Position>
            <AltitudeMeters>1112.800048828125</AltitudeMeters>
            <DistanceMeters>25674.135005751</DistanceMeters>
          </Trackpoint>
          <Trackpoint>
            <Time>2022-08-27T06:04:22.000Z</Time>
            <Position>
              <LatitudeDegrees>50.21918638609349727630615234375</LatitudeDegrees>
              <LongitudeDegrees>17.014047391712665557861328125</LongitudeDegrees>
            </Position>
            <AltitudeMeters>1113</AltitudeMeters>
            <DistanceMeters>25680.39956577</DistanceMeters>
          </Trackpoint>
          <Trackpoint>
            <Time>2022-08-27T06:04:30.000Z</Time>
            <Position>
              <LatitudeDegrees>50.21920566447079181671142578125</LatitudeDegrees>
              <LongitudeDegrees>17.014154009521007537841796875</LongitudeDegrees>
            </Position>
            <AltitudeMeters>1113</AltitudeMeters>
            <DistanceMeters>25688.290789196</DistanceMeters>
          </Trackpoint>
          <Trackpoint>
            <Time>2022-08-27T06:04:38.000Z</Time>
            <Position>
              <LatitudeDegrees>50.21923215128481388092041015625</LatitudeDegrees>
              <LongitudeDegrees>17.0142597891390323638916015625</LongitudeDegrees>
            </Position>
            <AltitudeMeters>1113.199951171875</AltitudeMeters>
            <DistanceMeters>25696.380906257</DistanceMeters>
          </Trackpoint>
          <Trackpoint>
            <Time>2022-08-27T06:04:45.000Z</Time>
            <Position>
              <LatitudeDegrees>50.219248495995998382568359375</LatitudeDegrees>
              <LongitudeDegrees>17.01434553600847721099853515625</LongitudeDegrees>
            </Position>
            <AltitudeMeters>1113.4000244140625</AltitudeMeters>
            <DistanceMeters>25702.752658268</DistanceMeters>
          </Trackpoint>
          <Trackpoint>
            <Time>2022-08-27T06:04:50.000Z</Time>
            <Position>
              <LatitudeDegrees>50.21925796754658222198486328125</LatitudeDegrees>
              <LongitudeDegrees>17.01439641416072845458984375</LongitudeDegrees>
            </Position>
            <AltitudeMeters>1113.4000244140625</AltitudeMeters>
            <DistanceMeters>25706.526307769</DistanceMeters>
          </Trackpoint>
          <Trackpoint>
            <Time>2022-08-27T06:04:54.000Z</Time>
            <Position>
              <LatitudeDegrees>50.21925126202404499053955078125</LatitudeDegrees>
              <LongitudeDegrees>17.01442616991698741912841796875</LongitudeDegrees>
            </Position>
            <AltitudeMeters>1113.5999755859375</AltitudeMeters>
            <DistanceMeters>25708.77103106</DistanceMeters>
          </Trackpoint>
          <Trackpoint>
            <Time>2022-08-27T06:05:01.000Z</Time>
            <Position>
              <LatitudeDegrees>50.21922980435192584991455078125</LatitudeDegrees>
              <LongitudeDegrees>17.01449297368526458740234375</LongitudeDegrees>
            </Position>
            <AltitudeMeters>1113.5999755859375</AltitudeMeters>
            <DistanceMeters>25714.0942237</DistanceMeters>
          </Trackpoint>
          <Trackpoint>
            <Time>2022-08-27T06:05:08.000Z</Time>
            <Position>
              <LatitudeDegrees>50.21920214407145977020263671875</LatitudeDegrees>
              <LongitudeDegrees>17.01456245966255664825439453125</LongitudeDegrees>
            </Position>
            <AltitudeMeters>1113.800048828125</AltitudeMeters>
            <DistanceMeters>25719.921926292</DistanceMeters>
          </Trackpoint>
          <Trackpoint>
            <Time>2022-08-27T06:05:15.000Z</Time>
            <Position>
              <LatitudeDegrees>50.21919979713857173919677734375</LatitudeDegrees>
              <LongitudeDegrees>17.014645524322986602783203125</LongitudeDegrees>
            </Position>
            <AltitudeMeters>1114</AltitudeMeters>
            <DistanceMeters>25725.842632057</DistanceMeters>
          </Trackpoint>
          <Trackpoint>
            <Time>2022-08-27T06:05:22.000Z</Time>
            <Position>
              <LatitudeDegrees>50.21917481906712055206298828125</LatitudeDegrees>
              <LongitudeDegrees>17.01472096145153045654296875</LongitudeDegrees>
            </Position>
            <AltitudeMeters>1114.199951171875</AltitudeMeters>
            <DistanceMeters>25731.891588145</DistanceMeters>
          </Trackpoint>
          <Trackpoint>
            <Time>2022-08-27T06:05:30.000Z</Time>
            <Position>
              <LatitudeDegrees>50.21915352903306484222412109375</LatitudeDegrees>
              <LongitudeDegrees>17.0147858373820781707763671875</LongitudeDegrees>
            </Position>
            <AltitudeMeters>1114.4000244140625</AltitudeMeters>
            <DistanceMeters>25737.084256848</DistanceMeters>
          </Trackpoint>
          <Trackpoint>
            <Time>2022-08-27T06:05:33.000Z</Time>
            <Position>
              <LatitudeDegrees>50.2191460691392421722412109375</LatitudeDegrees>
              <LongitudeDegrees>17.0148173533380031585693359375</LongitudeDegrees>
            </Position>
            <AltitudeMeters>1114.5999755859375</AltitudeMeters>
            <DistanceMeters>25739.476968378</DistanceMeters>
          </Trackpoint>
          <Trackpoint>
            <Time>2022-08-27T06:05:39.000Z</Time>
            <Position>
              <LatitudeDegrees>50.21912285126745700836181640625</LatitudeDegrees>
              <LongitudeDegrees>17.01487694866955280303955078125</LongitudeDegrees>
            </Position>
            <AltitudeMeters>1114.5999755859375</AltitudeMeters>
            <DistanceMeters>25744.445693466</DistanceMeters>
          </Trackpoint>
          <Trackpoint>
            <Time>2022-08-27T06:05:49.000Z</Time>
            <Position>
              <LatitudeDegrees>50.2190783433616161346435546875</LatitudeDegrees>
              <LongitudeDegrees>17.01498524285852909088134765625</LongitudeDegrees>
            </Position>
            <AltitudeMeters>1115.199951171875</AltitudeMeters>
            <DistanceMeters>25753.61170848</DistanceMeters>
          </Trackpoint>
          <Trackpoint>
            <Time>2022-08-27T06:05:56.000Z</Time>
            <Position>
              <LatitudeDegrees>50.21903333254158496856689453125</LatitudeDegrees>
              <LongitudeDegrees>17.015025056898593902587890625</LongitudeDegrees>
            </Position>
            <AltitudeMeters>1115.4000244140625</AltitudeMeters>
            <DistanceMeters>25759.368476718</DistanceMeters>
          </Trackpoint>
          <Trackpoint>
            <Time>2022-08-27T06:06:04.000Z</Time>
            <Position>
              <LatitudeDegrees>50.21900516934692859649658203125</LatitudeDegrees>
              <LongitudeDegrees>17.0151113905012607574462890625</LongitudeDegrees>
            </Position>
            <AltitudeMeters>1115.800048828125</AltitudeMeters>
            <DistanceMeters>25766.269536286</DistanceMeters>
          </Trackpoint>
          <Trackpoint>
            <Time>2022-08-27T06:06:09.000Z</Time>
            <Position>
              <LatitudeDegrees>50.21898488514125347137451171875</LatitudeDegrees>
              <LongitudeDegrees>17.0151724107563495635986328125</LongitudeDegrees>
            </Position>
            <AltitudeMeters>1115.800048828125</AltitudeMeters>
            <DistanceMeters>25771.166870565</DistanceMeters>
          </Trackpoint>
          <Trackpoint>
            <Time>2022-08-27T06:06:12.000Z</Time>
            <Position>
              <LatitudeDegrees>50.21896845661103725433349609375</LatitudeDegrees>
              <LongitudeDegrees>17.0152012445032596588134765625</LongitudeDegrees>
            </Position>
            <AltitudeMeters>1115.800048828125</AltitudeMeters>
            <DistanceMeters>25773.917725716</DistanceMeters>
          </Trackpoint>
          <Trackpoint>
            <Time>2022-08-27T06:06:19.000Z</Time>
            <Position>
              <LatitudeDegrees>50.21895169280469417572021484375</LatitudeDegrees>
              <LongitudeDegrees>17.0152703113853931427001953125</LongitudeDegrees>
            </Position>
            <AltitudeMeters>1116</AltitudeMeters>
            <DistanceMeters>25779.179494846</DistanceMeters>
          </Trackpoint>
          <Trackpoint>
            <Time>2022-08-27T06:06:27.000Z</Time>
            <Position>
              <LatitudeDegrees>50.21892034448683261871337890625</LatitudeDegrees>
              <LongitudeDegrees>17.01534063555300235748291015625</LongitudeDegrees>
            </Position>
            <AltitudeMeters>1116.199951171875</AltitudeMeters>
            <DistanceMeters>25785.283435819</DistanceMeters>
          </Trackpoint>
          <Trackpoint>
            <Time>2022-08-27T06:06:37.000Z</Time>
            <Position>
              <LatitudeDegrees>50.21889385767281055450439453125</LatitudeDegrees>
              <LongitudeDegrees>17.0154034160077571868896484375</LongitudeDegrees>
            </Position>
            <AltitudeMeters>1116.4000244140625</AltitudeMeters>
            <DistanceMeters>25790.6387624</DistanceMeters>
          </Trackpoint>
          <Trackpoint>
            <Time>2022-08-27T06:06:42.000Z</Time>
            <Position>
              <LatitudeDegrees>50.21888606250286102294921875</LatitudeDegrees>
              <LongitudeDegrees>17.01543987728655338287353515625</LongitudeDegrees>
            </Position>
            <AltitudeMeters>1116.800048828125</AltitudeMeters>
            <DistanceMeters>25793.376455489</DistanceMeters>
          </Trackpoint>
          <Trackpoint>
            <Time>2022-08-27T06:06:44.000Z</Time>
            <Position>
              <LatitudeDegrees>50.21888011135160923004150390625</LatitudeDegrees>
              <LongitudeDegrees>17.0154557190835475921630859375</LongitudeDegrees>
            </Position>
            <AltitudeMeters>1117</AltitudeMeters>
            <DistanceMeters>25794.682856824</DistanceMeters>
          </Trackpoint>
          <Trackpoint>
            <Time>2022-08-27T06:06:52.000Z</Time>
            <Position>
              <LatitudeDegrees>50.21884775720536708831787109375</LatitudeDegrees>
              <LongitudeDegrees>17.015480697154998779296875</LongitudeDegrees>
            </Position>
            <AltitudeMeters>1117.199951171875</AltitudeMeters>
            <DistanceMeters>25798.698789658</DistanceMeters>
          </Trackpoint>
          <Trackpoint>
            <Time>2022-08-27T06:07:01.000Z</Time>
            <Position>
              <LatitudeDegrees>50.21883015520870685577392578125</LatitudeDegrees>
              <LongitudeDegrees>17.01549402438104152679443359375</LongitudeDegrees>
            </Position>
            <AltitudeMeters>1117.199951171875</AltitudeMeters>
            <DistanceMeters>25800.876125216</DistanceMeters>
          </Trackpoint>
          <Trackpoint>
            <Time>2022-08-27T06:07:11.000Z</Time>
            <Position>
              <LatitudeDegrees>50.21883987821638584136962890625</LatitudeDegrees>
              <LongitudeDegrees>17.01548949815332889556884765625</LongitudeDegrees>
            </Position>
            <AltitudeMeters>1117</AltitudeMeters>
            <DistanceMeters>25802.000496463</DistanceMeters>
          </Trackpoint>
          <Trackpoint>
            <Time>2022-08-27T06:07:18.000Z</Time>
            <Position>
              <LatitudeDegrees>50.21883233450353145599365234375</LatitudeDegrees>
              <LongitudeDegrees>17.01550961472094058990478515625</LongitudeDegrees>
            </Position>
            <AltitudeMeters>1117</AltitudeMeters>
            <DistanceMeters>25803.657343843</DistanceMeters>
          </Trackpoint>
          <Trackpoint>
            <Time>2022-08-27T06:07:27.000Z</Time>
            <Position>
              <LatitudeDegrees>50.21883434616029262542724609375</LatitudeDegrees>
              <LongitudeDegrees>17.0155234448611736297607421875</LongitudeDegrees>
            </Position>
            <AltitudeMeters>1117</AltitudeMeters>
            <DistanceMeters>25804.667491673</DistanceMeters>
          </Trackpoint>
          <Trackpoint>
            <Time>2022-08-27T06:07:36.000Z</Time>
            <Position>
              <LatitudeDegrees>50.21881540305912494659423828125</LatitudeDegrees>
              <LongitudeDegrees>17.01557013206183910369873046875</LongitudeDegrees>
            </Position>
            <AltitudeMeters>1117</AltitudeMeters>
            <DistanceMeters>25808.603938189</DistanceMeters>
          </Trackpoint>
          <Trackpoint>
            <Time>2022-08-27T06:07:46.000Z</Time>
            <Position>
              <LatitudeDegrees>50.21878003142774105072021484375</LatitudeDegrees>
              <LongitudeDegrees>17.01564070768654346466064453125</LongitudeDegrees>
            </Position>
            <AltitudeMeters>1117.199951171875</AltitudeMeters>
            <DistanceMeters>25814.988432302</DistanceMeters>
          </Trackpoint>
          <Trackpoint>
            <Time>2022-08-27T06:07:56.000Z</Time>
            <Position>
              <LatitudeDegrees>50.21873778663575649261474609375</LatitudeDegrees>
              <LongitudeDegrees>17.015711031854152679443359375</LongitudeDegrees>
            </Position>
            <AltitudeMeters>1117.199951171875</AltitudeMeters>
            <DistanceMeters>25821.858015949</DistanceMeters>
          </Trackpoint>
          <Trackpoint>
            <Time>2022-08-27T06:08:06.000Z</Time>
            <Position>
              <LatitudeDegrees>50.21869235672056674957275390625</LatitudeDegrees>
              <LongitudeDegrees>17.0157977007329463958740234375</LongitudeDegrees>
            </Position>
            <AltitudeMeters>1117</AltitudeMeters>
            <DistanceMeters>25829.836865424</DistanceMeters>
          </Trackpoint>
          <Trackpoint>
            <Time>2022-08-27T06:08:14.000Z</Time>
            <Position>
              <LatitudeDegrees>50.21868598647415637969970703125</LatitudeDegrees>
              <LongitudeDegrees>17.01588260941207408905029296875</LongitudeDegrees>
            </Position>
            <AltitudeMeters>1116.800048828125</AltitudeMeters>
            <DistanceMeters>25835.924511416</DistanceMeters>
          </Trackpoint>
          <Trackpoint>
            <Time>2022-08-27T06:08:19.000Z</Time>
            <Position>
              <LatitudeDegrees>50.2186649478971958160400390625</LatitudeDegrees>
              <LongitudeDegrees>17.01592284254729747772216796875</LongitudeDegrees>
            </Position>
            <AltitudeMeters>1116.5999755859375</AltitudeMeters>
            <DistanceMeters>25839.624456806</DistanceMeters>
          </Trackpoint>
          <Trackpoint>
            <Time>2022-08-27T06:08:28.000Z</Time>
            <Position>
              <LatitudeDegrees>50.2186176739633083343505859375</LatitudeDegrees>
              <LongitudeDegrees>17.01599710620939731597900390625</LongitudeDegrees>
            </Position>
            <AltitudeMeters>1116.5999755859375</AltitudeMeters>
            <DistanceMeters>25847.085113024</DistanceMeters>
          </Trackpoint>
          <Trackpoint>
            <Time>2022-08-27T06:08:36.000Z</Time>
            <Position>
              <LatitudeDegrees>50.21857584826648235321044921875</LatitudeDegrees>
              <LongitudeDegrees>17.01601705513894557952880859375</LongitudeDegrees>
            </Position>
            <AltitudeMeters>1116.5999755859375</AltitudeMeters>
            <DistanceMeters>25851.952855887</DistanceMeters>
          </Trackpoint>
          <Trackpoint>
            <Time>2022-08-27T06:08:45.000Z</Time>
            <Position>
              <LatitudeDegrees>50.21851935423910617828369140625</LatitudeDegrees>
              <LongitudeDegrees>17.0160176418721675872802734375</LongitudeDegrees>
            </Position>
            <AltitudeMeters>1116.5999755859375</AltitudeMeters>
            <DistanceMeters>25858.241154922</DistanceMeters>
          </Trackpoint>
          <Trackpoint>
            <Time>2022-08-27T06:08:53.000Z</Time>
            <Position>
              <LatitudeDegrees>50.21846990101039409637451171875</LatitudeDegrees>
              <LongitudeDegrees>17.0160501636564731597900390625</LongitudeDegrees>
            </Position>
            <AltitudeMeters>1116.4000244140625</AltitudeMeters>
            <DistanceMeters>25864.212735272</DistanceMeters>
          </Trackpoint>
          <Trackpoint>
            <Time>2022-08-27T06:09:03.000Z</Time>
            <Position>
              <LatitudeDegrees>50.2184133231639862060546875</LatitudeDegrees>
              <LongitudeDegrees>17.01610364019870758056640625</LongitudeDegrees>
            </Position>
            <AltitudeMeters>1116.4000244140625</AltitudeMeters>
            <DistanceMeters>25871.572246024</DistanceMeters>
          </Trackpoint>
          <Trackpoint>
            <Time>2022-08-27T06:09:12.000Z</Time>
            <Position>
              <LatitudeDegrees>50.21835607476532459259033203125</LatitudeDegrees>
              <LongitudeDegrees>17.0161445438861846923828125</LongitudeDegrees>
            </Position>
            <AltitudeMeters>1116.4000244140625</AltitudeMeters>
            <DistanceMeters>25878.578492919</DistanceMeters>
          </Trackpoint>
          <Trackpoint>
            <Time>2022-08-27T06:09:22.000Z</Time>
            <Position>
              <LatitudeDegrees>50.2182951383292675018310546875</LatitudeDegrees>
              <LongitudeDegrees>17.01618888415396213531494140625</LongitudeDegrees>
            </Position>
            <AltitudeMeters>1116.199951171875</AltitudeMeters>
            <DistanceMeters>25886.059696953</DistanceMeters>
          </Trackpoint>
          <Trackpoint>
            <Time>2022-08-27T06:09:30.000Z</Time>
            <Position>
              <LatitudeDegrees>50.218248702585697174072265625</LatitudeDegrees>
              <LongitudeDegrees>17.01621620915830135345458984375</LongitudeDegrees>
            </Position>
            <AltitudeMeters>1116.199951171875</AltitudeMeters>
            <DistanceMeters>25891.58270322</DistanceMeters>
          </Trackpoint>
          <Trackpoint>
            <Time>2022-08-27T06:09:38.000Z</Time>
            <Position>
              <LatitudeDegrees>50.21820737980306148529052734375</LatitudeDegrees>
              <LongitudeDegrees>17.016257531940937042236328125</LongitudeDegrees>
            </Position>
            <AltitudeMeters>1116.4000244140625</AltitudeMeters>
            <DistanceMeters>25897.04322631</DistanceMeters>
          </Trackpoint>
          <Trackpoint>
            <Time>2022-08-27T06:09:44.000Z</Time>
            <Position>
              <LatitudeDegrees>50.21819195710122585296630859375</LatitudeDegrees>
              <LongitudeDegrees>17.01631209813058376312255859375</LongitudeDegrees>
            </Position>
            <AltitudeMeters>1116.199951171875</AltitudeMeters>
            <DistanceMeters>25901.290824777</DistanceMeters>
          </Trackpoint>
          <Trackpoint>
            <Time>2022-08-27T06:09:46.000Z</Time>
            <Position>
              <LatitudeDegrees>50.2181905321776866912841796875</LatitudeDegrees>
              <LongitudeDegrees>17.01633028686046600341796875</LongitudeDegrees>
            </Position>
            <AltitudeMeters>1116</AltitudeMeters>
            <DistanceMeters>25902.597226112</DistanceMeters>
          </Trackpoint>
          <Trackpoint>
            <Time>2022-08-27T06:09:53.000Z</Time>
            <Position>
              <LatitudeDegrees>50.218183994293212890625</LatitudeDegrees>
              <LongitudeDegrees>17.0163953304290771484375</LongitudeDegrees>
            </Position>
            <AltitudeMeters>1116</AltitudeMeters>
            <DistanceMeters>25907.287350441</DistanceMeters>
          </Trackpoint>
          <Trackpoint>
            <Time>2022-08-27T06:10:03.000Z</Time>
            <Position>
              <LatitudeDegrees>50.21817452274262905120849609375</LatitudeDegrees>
              <LongitudeDegrees>17.01639373786747455596923828125</LongitudeDegrees>
            </Position>
            <AltitudeMeters>1115.800048828125</AltitudeMeters>
            <DistanceMeters>25908.345523148</DistanceMeters>
          </Trackpoint>
          <Trackpoint>
            <Time>2022-08-27T06:10:10.000Z</Time>
            <Position>
              <LatitudeDegrees>50.218156166374683380126953125</LatitudeDegrees>
              <LongitudeDegrees>17.0164122618734836578369140625</LongitudeDegrees>
            </Position>
            <AltitudeMeters>1115.5999755859375</AltitudeMeters>
            <DistanceMeters>25910.77939458</DistanceMeters>
          </Trackpoint>
          <Trackpoint>
            <Time>2022-08-27T06:10:19.000Z</Time>
            <Position>
              <LatitudeDegrees>50.218132026493549346923828125</LatitudeDegrees>
              <LongitudeDegrees>17.0164219848811626434326171875</LongitudeDegrees>
            </Position>
            <AltitudeMeters>1115.5999755859375</AltitudeMeters>
            <DistanceMeters>25913.553133056</DistanceMeters>
          </Trackpoint>
          <Trackpoint>
            <Time>2022-08-27T06:10:29.000Z</Time>
            <Position>
              <LatitudeDegrees>50.21809573285281658172607421875</LatitudeDegrees>
              <LongitudeDegrees>17.01643765904009342193603515625</LongitudeDegrees>
            </Position>
            <AltitudeMeters>1115.5999755859375</AltitudeMeters>
            <DistanceMeters>25917.74509307</DistanceMeters>
          </Trackpoint>
          <Trackpoint>
            <Time>2022-08-27T06:10:38.000Z</Time>
            <Position>
              <LatitudeDegrees>50.2180537395179271697998046875</LatitudeDegrees>
              <LongitudeDegrees>17.01648107729852199554443359375</LongitudeDegrees>
            </Position>
            <AltitudeMeters>1115.5999755859375</AltitudeMeters>
            <DistanceMeters>25923.349252763</DistanceMeters>
          </Trackpoint>
          <Trackpoint>
            <Time>2022-08-27T06:10:45.000Z</Time>
            <Position>
              <LatitudeDegrees>50.21802842617034912109375</LatitudeDegrees>
              <LongitudeDegrees>17.01651871204376220703125</LongitudeDegrees>
            </Position>
            <AltitudeMeters>1115.4000244140625</AltitudeMeters>
            <DistanceMeters>25927.238388663</DistanceMeters>
          </Trackpoint>
          <Trackpoint>
            <Time>2022-08-27T06:10:54.000Z</Time>
            <Position>
              <LatitudeDegrees>50.21799246780574321746826171875</LatitudeDegrees>
              <LongitudeDegrees>17.01654620468616485595703125</LongitudeDegrees>
            </Position>
            <AltitudeMeters>1115.199951171875</AltitudeMeters>
            <DistanceMeters>25931.693510213</DistanceMeters>
          </Trackpoint>
          <Trackpoint>
            <Time>2022-08-27T06:10:57.000Z</Time>
            <Position>
              <LatitudeDegrees>50.21797570399940013885498046875</LatitudeDegrees>
              <LongitudeDegrees>17.01656095683574676513671875</LongitudeDegrees>
            </Position>
            <AltitudeMeters>1115.199951171875</AltitudeMeters>
            <DistanceMeters>25933.835303581</DistanceMeters>
          </Trackpoint>
          <Trackpoint>
            <Time>2022-08-27T06:11:05.000Z</Time>
            <Position>
              <LatitudeDegrees>50.21793345920741558074951171875</LatitudeDegrees>
              <LongitudeDegrees>17.01660077087581157684326171875</LongitudeDegrees>
            </Position>
            <AltitudeMeters>1115</AltitudeMeters>
            <DistanceMeters>25939.325512609</DistanceMeters>
          </Trackpoint>
          <Trackpoint>
            <Time>2022-08-27T06:11:16.000Z</Time>
            <Position>
              <LatitudeDegrees>50.2179290167987346649169921875</LatitudeDegrees>
              <LongitudeDegrees>17.01662222854793071746826171875</LongitudeDegrees>
            </Position>
            <AltitudeMeters>1114.800048828125</AltitudeMeters>
            <DistanceMeters>25940.935367242</DistanceMeters>
          </Trackpoint>
          <Trackpoint>
            <Time>2022-08-27T06:11:24.000Z</Time>
            <Position>
              <LatitudeDegrees>50.2179353870451450347900390625</LatitudeDegrees>
              <LongitudeDegrees>17.0166234858334064483642578125</LongitudeDegrees>
            </Position>
            <AltitudeMeters>1114.800048828125</AltitudeMeters>
            <DistanceMeters>25941.652803202</DistanceMeters>
          </Trackpoint>
          <Trackpoint>
            <Time>2022-08-27T06:11:34.000Z</Time>
            <Position>
              <LatitudeDegrees>50.21793630905449390411376953125</LatitudeDegrees>
              <LongitudeDegrees>17.01662474311888217926025390625</LongitudeDegrees>
            </Position>
            <AltitudeMeters>1114.800048828125</AltitudeMeters>
            <DistanceMeters>25941.787191271</DistanceMeters>
          </Trackpoint>
          <Trackpoint>
            <Time>2022-08-27T06:11:43.000Z</Time>
            <Position>
              <LatitudeDegrees>50.21793714724481105804443359375</LatitudeDegrees>
              <LongitudeDegrees>17.01663714833557605743408203125</LongitudeDegrees>
            </Position>
            <AltitudeMeters>1115</AltitudeMeters>
            <DistanceMeters>25942.673541456</DistanceMeters>
          </Trackpoint>
          <Trackpoint>
            <Time>2022-08-27T06:11:52.000Z</Time>
            <Position>
              <LatitudeDegrees>50.21792239509522914886474609375</LatitudeDegrees>
              <LongitudeDegrees>17.0166912116110324859619140625</LongitudeDegrees>
            </Position>
            <AltitudeMeters>1115</AltitudeMeters>
            <DistanceMeters>25946.859034055</DistanceMeters>
          </Trackpoint>
          <Trackpoint>
            <Time>2022-08-27T06:12:01.000Z</Time>
            <Position>
              <LatitudeDegrees>50.21790831349790096282958984375</LatitudeDegrees>
              <LongitudeDegrees>17.01676220633089542388916015625</LongitudeDegrees>
            </Position>
            <AltitudeMeters>1114.800048828125</AltitudeMeters>
            <DistanceMeters>25952.151604048</DistanceMeters>
          </Trackpoint>
          <Trackpoint>
            <Time>2022-08-27T06:12:11.000Z</Time>
            <Position>
              <LatitudeDegrees>50.217886604368686676025390625</LatitudeDegrees>
              <LongitudeDegrees>17.01680579222738742828369140625</LongitudeDegrees>
            </Position>
            <AltitudeMeters>1114.5999755859375</AltitudeMeters>
            <DistanceMeters>25956.083459955</DistanceMeters>
          </Trackpoint>
          <Trackpoint>
            <Time>2022-08-27T06:12:21.000Z</Time>
            <Position>
              <LatitudeDegrees>50.21787880919873714447021484375</LatitudeDegrees>
              <LongitudeDegrees>17.0168850012123584747314453125</LongitudeDegrees>
            </Position>
            <AltitudeMeters>1114.5999755859375</AltitudeMeters>
            <DistanceMeters>25961.79060335</DistanceMeters>
          </Trackpoint>
          <Trackpoint>
            <Time>2022-08-27T06:12:31.000Z</Time>
            <Position>
              <LatitudeDegrees>50.21785165183246135711669921875</LatitudeDegrees>
              <LongitudeDegrees>17.01700226403772830963134765625</LongitudeDegrees>
            </Position>
            <AltitudeMeters>1114.199951171875</AltitudeMeters>
            <DistanceMeters>25970.672424549</DistanceMeters>
          </Trackpoint>
          <Trackpoint>
            <Time>2022-08-27T06:12:34.000Z</Time>
            <Position>
              <LatitudeDegrees>50.2178441919386386871337890625</LatitudeDegrees>
              <LongitudeDegrees>17.01703763566911220550537109375</LongitudeDegrees>
            </Position>
            <AltitudeMeters>1114</AltitudeMeters>
            <DistanceMeters>25973.324674453</DistanceMeters>
          </Trackpoint>
          <Trackpoint>
            <Time>2022-08-27T06:12:42.000Z</Time>
            <Position>
              <LatitudeDegrees>50.2178267575800418853759765625</LatitudeDegrees>
              <LongitudeDegrees>17.01713268645107746124267578125</LongitudeDegrees>
            </Position>
            <AltitudeMeters>1113.800048828125</AltitudeMeters>
            <DistanceMeters>25980.366916981</DistanceMeters>
          </Trackpoint>
          <Trackpoint>
            <Time>2022-08-27T06:12:51.000Z</Time>
            <Position>
              <LatitudeDegrees>50.2178240753710269927978515625</LatitudeDegrees>
              <LongitudeDegrees>17.017248608171939849853515625</LongitudeDegrees>
            </Position>
            <AltitudeMeters>1113.5999755859375</AltitudeMeters>
            <DistanceMeters>25988.628231511</DistanceMeters>
          </Trackpoint>
          <Trackpoint>
            <Time>2022-08-27T06:13:02.000Z</Time>
            <Position>
              <LatitudeDegrees>50.21782231517136096954345703125</LatitudeDegrees>
              <LongitudeDegrees>17.01739537529647350311279296875</LongitudeDegrees>
            </Position>
            <AltitudeMeters>1113.199951171875</AltitudeMeters>
            <DistanceMeters>25999.082897708</DistanceMeters>
          </Trackpoint>
          <Trackpoint>
            <Time>2022-08-27T06:13:06.000Z</Time>
            <Position>
              <LatitudeDegrees>50.2178259193897247314453125</LatitudeDegrees>
              <LongitudeDegrees>17.01744415797293186187744140625</LongitudeDegrees>
            </Position>
            <AltitudeMeters>1113</AltitudeMeters>
            <DistanceMeters>26002.579570913</DistanceMeters>
          </Trackpoint>
          <Trackpoint>
            <Time>2022-08-27T06:13:12.000Z</Time>
            <Position>
              <LatitudeDegrees>50.21783195436000823974609375</LatitudeDegrees>
              <LongitudeDegrees>17.01749361120164394378662109375</LongitudeDegrees>
            </Position>
            <AltitudeMeters>1112.800048828125</AltitudeMeters>
            <DistanceMeters>26006.165491835</DistanceMeters>
          </Trackpoint>
          <Trackpoint>
            <Time>2022-08-27T06:13:21.000Z</Time>
            <Position>
              <LatitudeDegrees>50.21784670650959014892578125</LatitudeDegrees>
              <LongitudeDegrees>17.01756888069212436676025390625</LongitudeDegrees>
            </Position>
            <AltitudeMeters>1112.5999755859375</AltitudeMeters>
            <DistanceMeters>26011.771262613</DistanceMeters>
          </Trackpoint>
          <Trackpoint>
            <Time>2022-08-27T06:13:32.000Z</Time>
            <Position>
              <LatitudeDegrees>50.217861123383045196533203125</LatitudeDegrees>
              <LongitudeDegrees>17.0176876522600650787353515625</LongitudeDegrees>
            </Position>
            <AltitudeMeters>1112.4000244140625</AltitudeMeters>
            <DistanceMeters>26020.381018564</DistanceMeters>
          </Trackpoint>
          <Trackpoint>
            <Time>2022-08-27T06:13:42.000Z</Time>
            <Position>
              <LatitudeDegrees>50.21786556579172611236572265625</LatitudeDegrees>
              <LongitudeDegrees>17.01779452152550220489501953125</LongitudeDegrees>
            </Position>
            <AltitudeMeters>1112.199951171875</AltitudeMeters>
            <DistanceMeters>26028.008059435</DistanceMeters>
          </Trackpoint>
          <Trackpoint>
            <Time>2022-08-27T06:13:49.000Z</Time>
            <Position>
              <LatitudeDegrees>50.217868499457836151123046875</LatitudeDegrees>
              <LongitudeDegrees>17.0178583078086376190185546875</LongitudeDegrees>
            </Position>
            <AltitudeMeters>1112</AltitudeMeters>
            <DistanceMeters>26032.563398684</DistanceMeters>
          </Trackpoint>
          <Trackpoint>
            <Time>2022-08-27T06:13:51.000Z</Time>
            <Position>
              <LatitudeDegrees>50.217868499457836151123046875</LatitudeDegrees>
              <LongitudeDegrees>17.017884291708469390869140625</LongitudeDegrees>
            </Position>
            <AltitudeMeters>1112</AltitudeMeters>
            <DistanceMeters>26034.415810368</DistanceMeters>
          </Trackpoint>
          <Trackpoint>
            <Time>2022-08-27T06:14:01.000Z</Time>
            <Position>
              <LatitudeDegrees>50.2178741991519927978515625</LatitudeDegrees>
              <LongitudeDegrees>17.01800423674285411834716796875</LongitudeDegrees>
            </Position>
            <AltitudeMeters>1111.800048828125</AltitudeMeters>
            <DistanceMeters>26042.981929745</DistanceMeters>
          </Trackpoint>
          <Trackpoint>
            <Time>2022-08-27T06:14:10.000Z</Time>
            <Position>
              <LatitudeDegrees>50.2178822457790374755859375</LatitudeDegrees>
              <LongitudeDegrees>17.01806475408375263214111328125</LongitudeDegrees>
            </Position>
            <AltitudeMeters>1111.5999755859375</AltitudeMeters>
            <DistanceMeters>26047.384036519</DistanceMeters>
          </Trackpoint>
          <Trackpoint>
            <Time>2022-08-27T06:14:20.000Z</Time>
            <Position>
              <LatitudeDegrees>50.21786623634397983551025390625</LatitudeDegrees>
              <LongitudeDegrees>17.01817221008241176605224609375</LongitudeDegrees>
            </Position>
            <AltitudeMeters>1111.4000244140625</AltitudeMeters>
            <DistanceMeters>26055.242004623</DistanceMeters>
          </Trackpoint>
          <Trackpoint>
            <Time>2022-08-27T06:14:24.000Z</Time>
            <Position>
              <LatitudeDegrees>50.217848382890224456787109375</LatitudeDegrees>
              <LongitudeDegrees>17.01822166331112384796142578125</LongitudeDegrees>
            </Position>
            <AltitudeMeters>1111</AltitudeMeters>
            <DistanceMeters>26059.284830165</DistanceMeters>
          </Trackpoint>
          <Trackpoint>
            <Time>2022-08-27T06:14:30.000Z</Time>
            <Position>
              <LatitudeDegrees>50.21784192882478237152099609375</LatitudeDegrees>
              <LongitudeDegrees>17.01830782927572727203369140625</LongitudeDegrees>
            </Position>
            <AltitudeMeters>1110.800048828125</AltitudeMeters>
            <DistanceMeters>26065.463759134</DistanceMeters>
          </Trackpoint>
          <Trackpoint>
            <Time>2022-08-27T06:14:41.000Z</Time>
            <Position>
              <LatitudeDegrees>50.2178063057363033294677734375</LatitudeDegrees>
              <LongitudeDegrees>17.018472366034984588623046875</LongitudeDegrees>
            </Position>
            <AltitudeMeters>1110.199951171875</AltitudeMeters>
            <DistanceMeters>26077.834762957</DistanceMeters>
          </Trackpoint>
          <Trackpoint>
            <Time>2022-08-27T06:14:49.000Z</Time>
            <Position>
              <LatitudeDegrees>50.2177888713777065277099609375</LatitudeDegrees>
              <LongitudeDegrees>17.018528021872043609619140625</LongitudeDegrees>
            </Position>
            <AltitudeMeters>1109.800048828125</AltitudeMeters>
            <DistanceMeters>26082.247114349</DistanceMeters>
          </Trackpoint>
          <Trackpoint>
            <Time>2022-08-27T06:14:50.000Z</Time>
            <Position>
              <LatitudeDegrees>50.2177865244448184967041015625</LatitudeDegrees>
              <LongitudeDegrees>17.01853665523231029510498046875</LongitudeDegrees>
            </Position>
            <AltitudeMeters>1109.800048828125</AltitudeMeters>
            <DistanceMeters>26082.919054691</DistanceMeters>
          </Trackpoint>
          <Trackpoint>
            <Time>2022-08-27T06:14:58.000Z</Time>
            <Position>
              <LatitudeDegrees>50.217733047902584075927734375</LatitudeDegrees>
              <LongitudeDegrees>17.01860689558088779449462890625</LongitudeDegrees>
            </Position>
            <AltitudeMeters>1108.800048828125</AltitudeMeters>
            <DistanceMeters>26090.693842901</DistanceMeters>
          </Trackpoint>
          <Trackpoint>
            <Time>2022-08-27T06:15:00.000Z</Time>
            <Position>
              <LatitudeDegrees>50.21771871484816074371337890625</LatitudeDegrees>
              <LongitudeDegrees>17.018622569739818572998046875</LongitudeDegrees>
            </Position>
            <AltitudeMeters>1108.5999755859375</AltitudeMeters>
            <DistanceMeters>26092.641311028</DistanceMeters>
          </Trackpoint>
          <Trackpoint>
            <Time>2022-08-27T06:15:12.000Z</Time>
            <Position>
              <LatitudeDegrees>50.2176480554044246673583984375</LatitudeDegrees>
              <LongitudeDegrees>17.018713094294071197509765625</LongitudeDegrees>
            </Position>
            <AltitudeMeters>1108</AltitudeMeters>
            <DistanceMeters>26102.810501529</DistanceMeters>
          </Trackpoint>
          <Trackpoint>
            <Time>2022-08-27T06:15:20.000Z</Time>
            <Position>
              <LatitudeDegrees>50.2176037989556789398193359375</LatitudeDegrees>
              <LongitudeDegrees>17.01876430772244930267333984375</LongitudeDegrees>
            </Position>
            <AltitudeMeters>1107.5999755859375</AltitudeMeters>
            <DistanceMeters>26108.939540443</DistanceMeters>
          </Trackpoint>
          <Trackpoint>
            <Time>2022-08-27T06:15:24.000Z</Time>
            <Position>
              <LatitudeDegrees>50.21758611313998699188232421875</LatitudeDegrees>
              <LongitudeDegrees>17.0187933929264545440673828125</LongitudeDegrees>
            </Position>
            <AltitudeMeters>1107.199951171875</AltitudeMeters>
            <DistanceMeters>26111.796669965</DistanceMeters>
          </Trackpoint>
          <Trackpoint>
            <Time>2022-08-27T06:15:33.000Z</Time>
            <Position>
              <LatitudeDegrees>50.217525847256183624267578125</LatitudeDegrees>
              <LongitudeDegrees>17.01885164715349674224853515625</LongitudeDegrees>
            </Position>
            <AltitudeMeters>1106.5999755859375</AltitudeMeters>
            <DistanceMeters>26119.683887257</DistanceMeters>
          </Trackpoint>
          <Trackpoint>
            <Time>2022-08-27T06:15:36.000Z</Time>
            <Position>
              <LatitudeDegrees>50.21750262938439846038818359375</LatitudeDegrees>
              <LongitudeDegrees>17.01886497437953948974609375</LongitudeDegrees>
            </Position>
            <AltitudeMeters>1106.199951171875</AltitudeMeters>
            <DistanceMeters>26122.438023095</DistanceMeters>
          </Trackpoint>
          <Trackpoint>
            <Time>2022-08-27T06:15:41.000Z</Time>
            <Position>
              <LatitudeDegrees>50.21746206097304821014404296875</LatitudeDegrees>
              <LongitudeDegrees>17.0188959874212741851806640625</LongitudeDegrees>
            </Position>
            <AltitudeMeters>1105.5999755859375</AltitudeMeters>
            <DistanceMeters>26127.464568021</DistanceMeters>
          </Trackpoint>
          <Trackpoint>
            <Time>2022-08-27T06:15:46.000Z</Time>
            <Position>
              <LatitudeDegrees>50.217426605522632598876953125</LatitudeDegrees>
              <LongitudeDegrees>17.018917612731456756591796875</LongitudeDegrees>
            </Position>
            <AltitudeMeters>1105</AltitudeMeters>
            <DistanceMeters>26131.701523528</DistanceMeters>
          </Trackpoint>
          <Trackpoint>
            <Time>2022-08-27T06:15:51.000Z</Time>
            <Position>
              <LatitudeDegrees>50.21739835850894451141357421875</LatitudeDegrees>
              <LongitudeDegrees>17.01895055361092090606689453125</LongitudeDegrees>
            </Position>
            <AltitudeMeters>1104.5999755859375</AltitudeMeters>
            <DistanceMeters>26135.624182099</DistanceMeters>
          </Trackpoint>
          <Trackpoint>
            <Time>2022-08-27T06:15:56.000Z</Time>
            <Position>
              <LatitudeDegrees>50.2173543535172939300537109375</LatitudeDegrees>
              <LongitudeDegrees>17.0189945586025714874267578125</LongitudeDegrees>
            </Position>
            <AltitudeMeters>1103.800048828125</AltitudeMeters>
            <DistanceMeters>26141.439475409</DistanceMeters>
          </Trackpoint>
          <Trackpoint>
            <Time>2022-08-27T06:15:58.000Z</Time>
            <Position>
              <LatitudeDegrees>50.2173453010618686676025390625</LatitudeDegrees>
              <LongitudeDegrees>17.01901626773178577423095703125</LongitudeDegrees>
            </Position>
            <AltitudeMeters>1103.4000244140625</AltitudeMeters>
            <DistanceMeters>26143.287005894</DistanceMeters>
          </Trackpoint>
          <Trackpoint>
            <Time>2022-08-27T06:16:09.000Z</Time>
            <Position>
              <LatitudeDegrees>50.21725930273532867431640625</LatitudeDegrees>
              <LongitudeDegrees>17.01909388415515422821044921875</LongitudeDegrees>
            </Position>
            <AltitudeMeters>1102.4000244140625</AltitudeMeters>
            <DistanceMeters>26154.340373449</DistanceMeters>
          </Trackpoint>
          <Trackpoint>
            <Time>2022-08-27T06:16:20.000Z</Time>
            <Position>
              <LatitudeDegrees>50.21718277595937252044677734375</LatitudeDegrees>
              <LongitudeDegrees>17.01915641315281391143798828125</LongitudeDegrees>
            </Position>
            <AltitudeMeters>1101.5999755859375</AltitudeMeters>
            <DistanceMeters>26163.951704367</DistanceMeters>
          </Trackpoint>
          <Trackpoint>
            <Time>2022-08-27T06:16:21.000Z</Time>
            <Position>
              <LatitudeDegrees>50.217178501188755035400390625</LatitudeDegrees>
              <LongitudeDegrees>17.01916228048503398895263671875</LongitudeDegrees>
            </Position>
            <AltitudeMeters>1101.4000244140625</AltitudeMeters>
            <DistanceMeters>26164.58204028</DistanceMeters>
          </Trackpoint>
          <Trackpoint>
            <Time>2022-08-27T06:16:31.000Z</Time>
            <Position>
              <LatitudeDegrees>50.2171231806278228759765625</LatitudeDegrees>
              <LongitudeDegrees>17.019257247447967529296875</LongitudeDegrees>
            </Position>
            <AltitudeMeters>1100.199951171875</AltitudeMeters>
            <DistanceMeters>26173.728330685</DistanceMeters>
          </Trackpoint>
          <Trackpoint>
            <Time>2022-08-27T06:16:32.000Z</Time>
            <Position>
              <LatitudeDegrees>50.21710834465920925140380859375</LatitudeDegrees>
              <LongitudeDegrees>17.01926453970372676849365234375</LongitudeDegrees>
            </Position>
            <AltitudeMeters>1100.199951171875</AltitudeMeters>
            <DistanceMeters>26175.457190224</DistanceMeters>
          </Trackpoint>
          <Trackpoint>
            <Time>2022-08-27T06:16:45.000Z</Time>
            <Position>
              <LatitudeDegrees>50.216996110975742340087890625</LatitudeDegrees>
              <LongitudeDegrees>17.01937668956816196441650390625</LongitudeDegrees>
            </Position>
            <AltitudeMeters>1100</AltitudeMeters>
            <DistanceMeters>26190.284403081</DistanceMeters>
          </Trackpoint>
          <Trackpoint>
            <Time>2022-08-27T06:16:54.000Z</Time>
            <Position>
              <LatitudeDegrees>50.216959901154041290283203125</LatitudeDegrees>
              <LongitudeDegrees>17.0194662921130657196044921875</LongitudeDegrees>
            </Position>
            <AltitudeMeters>1100</AltitudeMeters>
            <DistanceMeters>26197.83230029</DistanceMeters>
          </Trackpoint>
          <Trackpoint>
            <Time>2022-08-27T06:17:05.000Z</Time>
            <Position>
              <LatitudeDegrees>50.21690181456506252288818359375</LatitudeDegrees>
              <LongitudeDegrees>17.01958137564361095428466796875</LongitudeDegrees>
            </Position>
            <AltitudeMeters>1100</AltitudeMeters>
            <DistanceMeters>26208.271407652</DistanceMeters>
          </Trackpoint>
          <Trackpoint>
            <Time>2022-08-27T06:17:18.000Z</Time>
            <Position>
              <LatitudeDegrees>50.21683241240680217742919921875</LatitudeDegrees>
              <LongitudeDegrees>17.01973174698650836944580078125</LongitudeDegrees>
            </Position>
            <AltitudeMeters>1100</AltitudeMeters>
            <DistanceMeters>26221.475676507</DistanceMeters>
          </Trackpoint>
          <Trackpoint>
            <Time>2022-08-27T06:17:29.000Z</Time>
            <Position>
              <LatitudeDegrees>50.21676250733435153961181640625</LatitudeDegrees>
              <LongitudeDegrees>17.0198384486138820648193359375</LongitudeDegrees>
            </Position>
            <AltitudeMeters>1100</AltitudeMeters>
            <DistanceMeters>26232.351981091</DistanceMeters>
          </Trackpoint>
          <Trackpoint>
            <Time>2022-08-27T06:17:39.000Z</Time>
            <Position>
              <LatitudeDegrees>50.2167196758091449737548828125</LatitudeDegrees>
              <LongitudeDegrees>17.0199789293110370635986328125</LongitudeDegrees>
            </Position>
            <AltitudeMeters>1100</AltitudeMeters>
            <DistanceMeters>26243.434719913</DistanceMeters>
          </Trackpoint>
          <Trackpoint>
            <Time>2022-08-27T06:17:52.000Z</Time>
            <Position>
              <LatitudeDegrees>50.21669260226190090179443359375</LatitudeDegrees>
              <LongitudeDegrees>17.020142711699008941650390625</LongitudeDegrees>
            </Position>
            <AltitudeMeters>1099.5999755859375</AltitudeMeters>
            <DistanceMeters>26255.481768872</DistanceMeters>
          </Trackpoint>
          <Trackpoint>
            <Time>2022-08-27T06:18:02.000Z</Time>
            <Position>
              <LatitudeDegrees>50.21666225977241992950439453125</LatitudeDegrees>
              <LongitudeDegrees>17.02025947161018848419189453125</LongitudeDegrees>
            </Position>
            <AltitudeMeters>1099.4000244140625</AltitudeMeters>
            <DistanceMeters>26264.457141396</DistanceMeters>
          </Trackpoint>
          <Trackpoint>
            <Time>2022-08-27T06:18:11.000Z</Time>
            <Position>
              <LatitudeDegrees>50.21664331667125225067138671875</LatitudeDegrees>
              <LongitudeDegrees>17.02036541886627674102783203125</LongitudeDegrees>
            </Position>
            <AltitudeMeters>1099</AltitudeMeters>
            <DistanceMeters>26272.291516265</DistanceMeters>
          </Trackpoint>
          <Trackpoint>
            <Time>2022-08-27T06:18:14.000Z</Time>
            <Position>
              <LatitudeDegrees>50.2166457474231719970703125</LatitudeDegrees>
              <LongitudeDegrees>17.0204007066786289215087890625</LongitudeDegrees>
            </Position>
            <AltitudeMeters>1099</AltitudeMeters>
            <DistanceMeters>26274.818226388</DistanceMeters>
          </Trackpoint>
          <Trackpoint>
            <Time>2022-08-27T06:18:24.000Z</Time>
            <Position>
              <LatitudeDegrees>50.21661900915205478668212890625</LatitudeDegrees>
              <LongitudeDegrees>17.02052769251167774200439453125</LongitudeDegrees>
            </Position>
            <AltitudeMeters>1099</AltitudeMeters>
            <DistanceMeters>26284.339410003</DistanceMeters>
          </Trackpoint>
          <Trackpoint>
            <Time>2022-08-27T06:18:34.000Z</Time>
            <Position>
              <LatitudeDegrees>50.216580368578433990478515625</LatitudeDegrees>
              <LongitudeDegrees>17.02063548378646373748779296875</LongitudeDegrees>
            </Position>
            <AltitudeMeters>1099.199951171875</AltitudeMeters>
            <DistanceMeters>26293.138493787</DistanceMeters>
          </Trackpoint>
          <Trackpoint>
            <Time>2022-08-27T06:18:44.000Z</Time>
            <Position>
              <LatitudeDegrees>50.21655765362083911895751953125</LatitudeDegrees>
              <LongitudeDegrees>17.020771689713001251220703125</LongitudeDegrees>
            </Position>
            <AltitudeMeters>1099.199951171875</AltitudeMeters>
            <DistanceMeters>26303.162798783</DistanceMeters>
          </Trackpoint>
          <Trackpoint>
            <Time>2022-08-27T06:18:56.000Z</Time>
            <Position>
              <LatitudeDegrees>50.21653401665389537811279296875</LatitudeDegrees>
              <LongitudeDegrees>17.02095969580113887786865234375</LongitudeDegrees>
            </Position>
            <AltitudeMeters>1099.4000244140625</AltitudeMeters>
            <DistanceMeters>26316.80897907</DistanceMeters>
          </Trackpoint>
          <Trackpoint>
            <Time>2022-08-27T06:19:06.000Z</Time>
            <Position>
              <LatitudeDegrees>50.21651876159012317657470703125</LatitudeDegrees>
              <LongitudeDegrees>17.0210565067827701568603515625</LongitudeDegrees>
            </Position>
            <AltitudeMeters>1099.4000244140625</AltitudeMeters>
            <DistanceMeters>26323.91059698</DistanceMeters>
          </Trackpoint>
          <Trackpoint>
            <Time>2022-08-27T06:19:18.000Z</Time>
            <Position>
              <LatitudeDegrees>50.2164893411099910736083984375</LatitudeDegrees>
              <LongitudeDegrees>17.0212046988308429718017578125</LongitudeDegrees>
            </Position>
            <AltitudeMeters>1099.199951171875</AltitudeMeters>
            <DistanceMeters>26334.961513405</DistanceMeters>
          </Trackpoint>
          <Trackpoint>
            <Time>2022-08-27T06:19:29.000Z</Time>
            <Position>
              <LatitudeDegrees>50.21646863780915737152099609375</LatitudeDegrees>
              <LongitudeDegrees>17.02140108682215213775634765625</LongitudeDegrees>
            </Position>
            <AltitudeMeters>1099.199951171875</AltitudeMeters>
            <DistanceMeters>26349.137384496</DistanceMeters>
          </Trackpoint>
          <Trackpoint>
            <Time>2022-08-27T06:19:39.000Z</Time>
            <Position>
              <LatitudeDegrees>50.21649730391800403594970703125</LatitudeDegrees>
              <LongitudeDegrees>17.02156503684818744659423828125</LongitudeDegrees>
            </Position>
            <AltitudeMeters>1099.199951171875</AltitudeMeters>
            <DistanceMeters>26361.242012552</DistanceMeters>
          </Trackpoint>
          <Trackpoint>
            <Time>2022-08-27T06:19:48.000Z</Time>
            <Position>
              <LatitudeDegrees>50.21652848459780216217041015625</LatitudeDegrees>
              <LongitudeDegrees>17.021715827286243438720703125</LongitudeDegrees>
            </Position>
            <AltitudeMeters>1099</AltitudeMeters>
            <DistanceMeters>26372.528210243</DistanceMeters>
          </Trackpoint>
          <Trackpoint>
            <Time>2022-08-27T06:19:59.000Z</Time>
            <Position>
              <LatitudeDegrees>50.21654692478477954864501953125</LatitudeDegrees>
              <LongitudeDegrees>17.021842896938323974609375</LongitudeDegrees>
            </Position>
            <AltitudeMeters>1099</AltitudeMeters>
            <DistanceMeters>26381.807801235</DistanceMeters>
          </Trackpoint>
          <Trackpoint>
            <Time>2022-08-27T06:20:10.000Z</Time>
            <Position>
              <LatitudeDegrees>50.21656570024788379669189453125</LatitudeDegrees>
              <LongitudeDegrees>17.02196468599140644073486328125</LongitudeDegrees>
            </Position>
            <AltitudeMeters>1098.800048828125</AltitudeMeters>
            <DistanceMeters>26390.729691385</DistanceMeters>
          </Trackpoint>
          <Trackpoint>
            <Time>2022-08-27T06:20:19.000Z</Time>
            <Position>
              <LatitudeDegrees>50.21659537218511104583740234375</LatitudeDegrees>
              <LongitudeDegrees>17.022037021815776824951171875</LongitudeDegrees>
            </Position>
            <AltitudeMeters>1098.800048828125</AltitudeMeters>
            <DistanceMeters>26396.849883955</DistanceMeters>
          </Trackpoint>
          <Trackpoint>
            <Time>2022-08-27T06:20:32.000Z</Time>
            <Position>
              <LatitudeDegrees>50.2165996469557285308837890625</LatitudeDegrees>
              <LongitudeDegrees>17.0220365189015865325927734375</LongitudeDegrees>
            </Position>
            <AltitudeMeters>1098.5999755859375</AltitudeMeters>
            <DistanceMeters>26397.334427025</DistanceMeters>
          </Trackpoint>
          <Trackpoint>
            <Time>2022-08-27T06:20:41.000Z</Time>
            <Position>
              <LatitudeDegrees>50.2165999822318553924560546875</LatitudeDegrees>
              <LongitudeDegrees>17.02207851223647594451904296875</LongitudeDegrees>
            </Position>
            <AltitudeMeters>1098.5999755859375</AltitudeMeters>
            <DistanceMeters>26400.324372791</DistanceMeters>
          </Trackpoint>
          <Trackpoint>
            <Time>2022-08-27T06:20:51.000Z</Time>
            <Position>
              <LatitudeDegrees>50.2165885828435420989990234375</LatitudeDegrees>
              <LongitudeDegrees>17.0221205055713653564453125</LongitudeDegrees>
            </Position>
            <AltitudeMeters>1098.199951171875</AltitudeMeters>
            <DistanceMeters>26403.572007205</DistanceMeters>
          </Trackpoint>
          <Trackpoint>
            <Time>2022-08-27T06:20:52.000Z</Time>
            <Position>
              <LatitudeDegrees>50.21658564917743206024169921875</LatitudeDegrees>
              <LongitudeDegrees>17.02212662436068058013916015625</LongitudeDegrees>
            </Position>
            <AltitudeMeters>1098.199951171875</AltitudeMeters>
            <DistanceMeters>26404.117894118</DistanceMeters>
          </Trackpoint>
          <Trackpoint>
            <Time>2022-08-27T06:21:02.000Z</Time>
            <Position>
              <LatitudeDegrees>50.216562263667583465576171875</LatitudeDegrees>
              <LongitudeDegrees>17.02217121608555316925048828125</LongitudeDegrees>
            </Position>
            <AltitudeMeters>1098</AltitudeMeters>
            <DistanceMeters>26408.224983452</DistanceMeters>
          </Trackpoint>
          <Trackpoint>
            <Time>2022-08-27T06:21:11.000Z</Time>
            <Position>
              <LatitudeDegrees>50.216548182070255279541015625</LatitudeDegrees>
              <LongitudeDegrees>17.02221195213496685028076171875</LongitudeDegrees>
            </Position>
            <AltitudeMeters>1097.199951171875</AltitudeMeters>
            <DistanceMeters>26411.522287205</DistanceMeters>
          </Trackpoint>
          <Trackpoint>
            <Time>2022-08-27T06:21:22.000Z</Time>
            <Position>
              <LatitudeDegrees>50.21652261726558208465576171875</LatitudeDegrees>
              <LongitudeDegrees>17.022289149463176727294921875</LongitudeDegrees>
            </Position>
            <AltitudeMeters>1096.199951171875</AltitudeMeters>
            <DistanceMeters>26417.71289658</DistanceMeters>
          </Trackpoint>
          <Trackpoint>
            <Time>2022-08-27T06:21:23.000Z</Time>
            <Position>
              <LatitudeDegrees>50.2165218628942966461181640625</LatitudeDegrees>
              <LongitudeDegrees>17.02229795046150684356689453125</LongitudeDegrees>
            </Position>
            <AltitudeMeters>1096</AltitudeMeters>
            <DistanceMeters>26418.343232493</DistanceMeters>
          </Trackpoint>
          <Trackpoint>
            <Time>2022-08-27T06:21:30.000Z</Time>
            <Position>
              <LatitudeDegrees>50.21649428643286228179931640625</LatitudeDegrees>
              <LongitudeDegrees>17.02233768068253993988037109375</LongitudeDegrees>
            </Position>
            <AltitudeMeters>1094.800048828125</AltitudeMeters>
            <DistanceMeters>26422.517923803</DistanceMeters>
          </Trackpoint>
          <Trackpoint>
            <Time>2022-08-27T06:21:34.000Z</Time>
            <Position>
              <LatitudeDegrees>50.2164781093597412109375</LatitudeDegrees>
              <LongitudeDegrees>17.0223842002451419830322265625</LongitudeDegrees>
            </Position>
            <AltitudeMeters>1094.4000244140625</AltitudeMeters>
            <DistanceMeters>26426.287982201</DistanceMeters>
          </Trackpoint>
          <Trackpoint>
            <Time>2022-08-27T06:21:38.000Z</Time>
            <Position>
              <LatitudeDegrees>50.21646712906658649444580078125</LatitudeDegrees>
              <LongitudeDegrees>17.022433988749980926513671875</LongitudeDegrees>
            </Position>
            <AltitudeMeters>1093.800048828125</AltitudeMeters>
            <DistanceMeters>26430.038829985</DistanceMeters>
          </Trackpoint>
          <Trackpoint>
            <Time>2022-08-27T06:21:45.000Z</Time>
            <Position>
              <LatitudeDegrees>50.21642941050231456756591796875</LatitudeDegrees>
              <LongitudeDegrees>17.02250473201274871826171875</LongitudeDegrees>
            </Position>
            <AltitudeMeters>1092.800048828125</AltitudeMeters>
            <DistanceMeters>26436.59773875</DistanceMeters>
          </Trackpoint>
          <Trackpoint>
            <Time>2022-08-27T06:21:52.000Z</Time>
            <Position>
              <LatitudeDegrees>50.21639085374772548675537109375</LatitudeDegrees>
              <LongitudeDegrees>17.02255896292626857757568359375</LongitudeDegrees>
            </Position>
            <AltitudeMeters>1091.5999755859375</AltitudeMeters>
            <DistanceMeters>26442.371735825</DistanceMeters>
          </Trackpoint>
          <Trackpoint>
            <Time>2022-08-27T06:21:56.000Z</Time>
            <Position>
              <LatitudeDegrees>50.21638766862452030181884765625</LatitudeDegrees>
              <LongitudeDegrees>17.022580839693546295166015625</LongitudeDegrees>
            </Position>
            <AltitudeMeters>1091</AltitudeMeters>
            <DistanceMeters>26443.973154481</DistanceMeters>
          </Trackpoint>
          <Trackpoint>
            <Time>2022-08-27T06:22:00.000Z</Time>
            <Position>
              <LatitudeDegrees>50.216377861797809600830078125</LatitudeDegrees>
              <LongitudeDegrees>17.02261327765882015228271484375</LongitudeDegrees>
            </Position>
            <AltitudeMeters>1090.5999755859375</AltitudeMeters>
            <DistanceMeters>26446.52829543</DistanceMeters>
          </Trackpoint>
          <Trackpoint>
            <Time>2022-08-27T06:22:07.000Z</Time>
            <Position>
              <LatitudeDegrees>50.216332264244556427001953125</LatitudeDegrees>
              <LongitudeDegrees>17.02268050052225589752197265625</LongitudeDegrees>
            </Position>
            <AltitudeMeters>1089.5999755859375</AltitudeMeters>
            <DistanceMeters>26453.504835549</DistanceMeters>
          </Trackpoint>
          <Trackpoint>
            <Time>2022-08-27T06:22:08.000Z</Time>
            <Position>
              <LatitudeDegrees>50.21632195450365543365478515625</LatitudeDegrees>
              <LongitudeDegrees>17.02268368564546108245849609375</LongitudeDegrees>
            </Position>
            <AltitudeMeters>1089.4000244140625</AltitudeMeters>
            <DistanceMeters>26454.676403566</DistanceMeters>
          </Trackpoint>
          <Trackpoint>
            <Time>2022-08-27T06:22:18.000Z</Time>
            <Position>
              <LatitudeDegrees>50.21626294590532779693603515625</LatitudeDegrees>
              <LongitudeDegrees>17.02275459654629230499267578125</LongitudeDegrees>
            </Position>
            <AltitudeMeters>1088.4000244140625</AltitudeMeters>
            <DistanceMeters>26462.961730423</DistanceMeters>
          </Trackpoint>
          <Trackpoint>
            <Time>2022-08-27T06:22:19.000Z</Time>
            <Position>
              <LatitudeDegrees>50.21625640802085399627685546875</LatitudeDegrees>
              <LongitudeDegrees>17.0227627269923686981201171875</LongitudeDegrees>
            </Position>
            <AltitudeMeters>1088.199951171875</AltitudeMeters>
            <DistanceMeters>26463.892798272</DistanceMeters>
          </Trackpoint>
          <Trackpoint>
            <Time>2022-08-27T06:22:25.000Z</Time>
            <Position>
              <LatitudeDegrees>50.21621919237077236175537109375</LatitudeDegrees>
              <LongitudeDegrees>17.02281712554395198822021484375</LongitudeDegrees>
            </Position>
            <AltitudeMeters>1087</AltitudeMeters>
            <DistanceMeters>26469.56422951</DistanceMeters>
          </Trackpoint>
          <Trackpoint>
            <Time>2022-08-27T06:22:31.000Z</Time>
            <Position>
              <LatitudeDegrees>50.21618147380650043487548828125</LatitudeDegrees>
              <LongitudeDegrees>17.02286875806748867034912109375</LongitudeDegrees>
            </Position>
            <AltitudeMeters>1086.4000244140625</AltitudeMeters>
            <DistanceMeters>26475.145785184</DistanceMeters>
          </Trackpoint>
          <Trackpoint>
            <Time>2022-08-27T06:22:35.000Z</Time>
            <Position>
              <LatitudeDegrees>50.2161560766398906707763671875</LatitudeDegrees>
              <LongitudeDegrees>17.02291653491556644439697265625</LongitudeDegrees>
            </Position>
            <AltitudeMeters>1086</AltitudeMeters>
            <DistanceMeters>26479.570398809</DistanceMeters>
          </Trackpoint>
          <Trackpoint>
            <Time>2022-08-27T06:22:44.000Z</Time>
            <Position>
              <LatitudeDegrees>50.21611089818179607391357421875</LatitudeDegrees>
              <LongitudeDegrees>17.02299934811890125274658203125</LongitudeDegrees>
            </Position>
            <AltitudeMeters>1085</AltitudeMeters>
            <DistanceMeters>26487.320758059</DistanceMeters>
          </Trackpoint>
          <Trackpoint>
            <Time>2022-08-27T06:22:45.000Z</Time>
            <Position>
              <LatitudeDegrees>50.2161057852208614349365234375</LatitudeDegrees>
              <LongitudeDegrees>17.02300303615629673004150390625</LongitudeDegrees>
            </Position>
            <AltitudeMeters>1085</AltitudeMeters>
            <DistanceMeters>26487.943889896</DistanceMeters>
          </Trackpoint>
          <Trackpoint>
            <Time>2022-08-27T06:22:54.000Z</Time>
            <Position>
              <LatitudeDegrees>50.21606395952403545379638671875</LatitudeDegrees>
              <LongitudeDegrees>17.02308140695095062255859375</LongitudeDegrees>
            </Position>
            <AltitudeMeters>1084</AltitudeMeters>
            <DistanceMeters>26495.21203596</DistanceMeters>
          </Trackpoint>
          <Trackpoint>
            <Time>2022-08-27T06:22:55.000Z</Time>
            <Position>
              <LatitudeDegrees>50.2160605229437351226806640625</LatitudeDegrees>
              <LongitudeDegrees>17.02309205196797847747802734375</LongitudeDegrees>
            </Position>
            <AltitudeMeters>1084</AltitudeMeters>
            <DistanceMeters>26496.056651872</DistanceMeters>
          </Trackpoint>
          <Trackpoint>
            <Time>2022-08-27T06:23:05.000Z</Time>
            <Position>
              <LatitudeDegrees>50.2160274982452392578125</LatitudeDegrees>
              <LongitudeDegrees>17.023186348378658294677734375</LongitudeDegrees>
            </Position>
            <AltitudeMeters>1083</AltitudeMeters>
            <DistanceMeters>26503.712054939</DistanceMeters>
          </Trackpoint>
          <Trackpoint>
            <Time>2022-08-27T06:23:07.000Z</Time>
            <Position>
              <LatitudeDegrees>50.2160246483981609344482421875</LatitudeDegrees>
              <LongitudeDegrees>17.023207806050777435302734375</LongitudeDegrees>
            </Position>
            <AltitudeMeters>1082.5999755859375</AltitudeMeters>
            <DistanceMeters>26505.27350319</DistanceMeters>
          </Trackpoint>
          <Trackpoint>
            <Time>2022-08-27T06:23:13.000Z</Time>
            <Position>
              <LatitudeDegrees>50.21600444801151752471923828125</LatitudeDegrees>
              <LongitudeDegrees>17.02326706610620021820068359375</LongitudeDegrees>
            </Position>
            <AltitudeMeters>1082</AltitudeMeters>
            <DistanceMeters>26510.057038881</DistanceMeters>
          </Trackpoint>
          <Trackpoint>
            <Time>2022-08-27T06:23:19.000Z</Time>
            <Position>
              <LatitudeDegrees>50.2159763686358928680419921875</LatitudeDegrees>
              <LongitudeDegrees>17.02332138083875179290771484375</LongitudeDegrees>
            </Position>
            <AltitudeMeters>1081.199951171875</AltitudeMeters>
            <DistanceMeters>26515.03121313</DistanceMeters>
          </Trackpoint>
          <Trackpoint>
            <Time>2022-08-27T06:23:23.000Z</Time>
            <Position>
              <LatitudeDegrees>50.215958766639232635498046875</LatitudeDegrees>
              <LongitudeDegrees>17.02337284572422504425048828125</LongitudeDegrees>
            </Position>
            <AltitudeMeters>1080.800048828125</AltitudeMeters>
            <DistanceMeters>26519.187477827</DistanceMeters>
          </Trackpoint>
          <Trackpoint>
            <Time>2022-08-27T06:23:27.000Z</Time>
            <Position>
              <LatitudeDegrees>50.21592414937913417816162109375</LatitudeDegrees>
              <LongitudeDegrees>17.023425064980983734130859375</LongitudeDegrees>
            </Position>
            <AltitudeMeters>1080.199951171875</AltitudeMeters>
            <DistanceMeters>26524.542804408</DistanceMeters>
          </Trackpoint>
          <Trackpoint>
            <Time>2022-08-27T06:23:30.000Z</Time>
            <Position>
              <LatitudeDegrees>50.2159019373357295989990234375</LatitudeDegrees>
              <LongitudeDegrees>17.02347032725811004638671875</LongitudeDegrees>
            </Position>
            <AltitudeMeters>1079.5999755859375</AltitudeMeters>
            <DistanceMeters>26528.605682666</DistanceMeters>
          </Trackpoint>
          <Trackpoint>
            <Time>2022-08-27T06:23:35.000Z</Time>
            <Position>
              <LatitudeDegrees>50.2158583514392375946044921875</LatitudeDegrees>
              <LongitudeDegrees>17.02352170832455158233642578125</LongitudeDegrees>
            </Position>
            <AltitudeMeters>1078.4000244140625</AltitudeMeters>
            <DistanceMeters>26534.682936376</DistanceMeters>
          </Trackpoint>
          <Trackpoint>
            <Time>2022-08-27T06:23:39.000Z</Time>
            <Position>
              <LatitudeDegrees>50.2158395759761333465576171875</LatitudeDegrees>
              <LongitudeDegrees>17.02356328256428241729736328125</LongitudeDegrees>
            </Position>
            <AltitudeMeters>1078</AltitudeMeters>
            <DistanceMeters>26538.307679295</DistanceMeters>
          </Trackpoint>
          <Trackpoint>
            <Time>2022-08-27T06:23:47.000Z</Time>
            <Position>
              <LatitudeDegrees>50.2157956548035144805908203125</LatitudeDegrees>
              <LongitudeDegrees>17.023636959493160247802734375</LongitudeDegrees>
            </Position>
            <AltitudeMeters>1077.199951171875</AltitudeMeters>
            <DistanceMeters>26545.480150661</DistanceMeters>
          </Trackpoint>
          <Trackpoint>
            <Time>2022-08-27T06:23:51.000Z</Time>
            <Position>
              <LatitudeDegrees>50.2157701738178730010986328125</LatitudeDegrees>
              <LongitudeDegrees>17.02366956509649753570556640625</LongitudeDegrees>
            </Position>
            <AltitudeMeters>1076.5999755859375</AltitudeMeters>
            <DistanceMeters>26549.145768446</DistanceMeters>
          </Trackpoint>
          <Trackpoint>
            <Time>2022-08-27T06:23:54.000Z</Time>
            <Position>
              <LatitudeDegrees>50.2157493866980075836181640625</LatitudeDegrees>
              <LongitudeDegrees>17.02369588427245616912841796875</LongitudeDegrees>
            </Position>
            <AltitudeMeters>1076.199951171875</AltitudeMeters>
            <DistanceMeters>26552.123609118</DistanceMeters>
          </Trackpoint>
          <Trackpoint>
            <Time>2022-08-27T06:24:01.000Z</Time>
            <Position>
              <LatitudeDegrees>50.21569431759417057037353515625</LatitudeDegrees>
              <LongitudeDegrees>17.02374852262437343597412109375</LongitudeDegrees>
            </Position>
            <AltitudeMeters>1075.199951171875</AltitudeMeters>
            <DistanceMeters>26559.30928773</DistanceMeters>
          </Trackpoint>
          <Trackpoint>
            <Time>2022-08-27T06:24:02.000Z</Time>
            <Position>
              <LatitudeDegrees>50.2156890369951725006103515625</LatitudeDegrees>
              <LongitudeDegrees>17.02375573106110095977783203125</LongitudeDegrees>
            </Position>
            <AltitudeMeters>1075</AltitudeMeters>
            <DistanceMeters>26560.092898091</DistanceMeters>
          </Trackpoint>
          <Trackpoint>
            <Time>2022-08-27T06:24:10.000Z</Time>
            <Position>
              <LatitudeDegrees>50.215655006468296051025390625</LatitudeDegrees>
              <LongitudeDegrees>17.0238235406577587127685546875</LongitudeDegrees>
            </Position>
            <AltitudeMeters>1074</AltitudeMeters>
            <DistanceMeters>26566.230770599</DistanceMeters>
          </Trackpoint>
          <Trackpoint>
            <Time>2022-08-27T06:24:13.000Z</Time>
            <Position>
              <LatitudeDegrees>50.21563933230936527252197265625</LatitudeDegrees>
              <LongitudeDegrees>17.0238560624420642852783203125</LongitudeDegrees>
            </Position>
            <AltitudeMeters>1073.5999755859375</AltitudeMeters>
            <DistanceMeters>26569.131810283</DistanceMeters>
          </Trackpoint>
          <Trackpoint>
            <Time>2022-08-27T06:24:20.000Z</Time>
            <Position>
              <LatitudeDegrees>50.21560362540185451507568359375</LatitudeDegrees>
              <LongitudeDegrees>17.023935019969940185546875</LongitudeDegrees>
            </Position>
            <AltitudeMeters>1073</AltitudeMeters>
            <DistanceMeters>26576.017805592</DistanceMeters>
          </Trackpoint>
          <Trackpoint>
            <Time>2022-08-27T06:24:22.000Z</Time>
            <Position>
              <LatitudeDegrees>50.21559222601354122161865234375</LatitudeDegrees>
              <LongitudeDegrees>17.02395672909915447235107421875</LongitudeDegrees>
            </Position>
            <AltitudeMeters>1072.800048828125</AltitudeMeters>
            <DistanceMeters>26578.017886557</DistanceMeters>
          </Trackpoint>
          <Trackpoint>
            <Time>2022-08-27T06:24:31.000Z</Time>
            <Position>
              <LatitudeDegrees>50.2155626378953456878662109375</LatitudeDegrees>
              <LongitudeDegrees>17.0240438170731067657470703125</LongitudeDegrees>
            </Position>
            <AltitudeMeters>1071.800048828125</AltitudeMeters>
            <DistanceMeters>26585.040868654</DistanceMeters>
          </Trackpoint>
          <Trackpoint>
            <Time>2022-08-27T06:24:33.000Z</Time>
            <Position>
              <LatitudeDegrees>50.2155495621263980865478515625</LatitudeDegrees>
              <LongitudeDegrees>17.02405630610883235931396484375</LongitudeDegrees>
            </Position>
            <AltitudeMeters>1071.5999755859375</AltitudeMeters>
            <DistanceMeters>26586.746062079</DistanceMeters>
          </Trackpoint>
          <Trackpoint>
            <Time>2022-08-27T06:24:46.000Z</Time>
            <Position>
              <LatitudeDegrees>50.21549700759351253509521484375</LatitudeDegrees>
              <LongitudeDegrees>17.024227045476436614990234375</LongitudeDegrees>
            </Position>
            <AltitudeMeters>1070.5999755859375</AltitudeMeters>
            <DistanceMeters>26600.239855519</DistanceMeters>
          </Trackpoint>
          <Trackpoint>
            <Time>2022-08-27T06:24:56.000Z</Time>
            <Position>
              <LatitudeDegrees>50.215407572686672210693359375</LatitudeDegrees>
              <LongitudeDegrees>17.02435277402400970458984375</LongitudeDegrees>
            </Position>
            <AltitudeMeters>1070.199951171875</AltitudeMeters>
            <DistanceMeters>26613.629183644</DistanceMeters>
          </Trackpoint>
          <Trackpoint>
            <Time>2022-08-27T06:25:06.000Z</Time>
            <Position>
              <LatitudeDegrees>50.21535049192607402801513671875</LatitudeDegrees>
              <LongitudeDegrees>17.02443969435989856719970703125</LongitudeDegrees>
            </Position>
            <AltitudeMeters>1069.5999755859375</AltitudeMeters>
            <DistanceMeters>26622.499814182</DistanceMeters>
          </Trackpoint>
          <Trackpoint>
            <Time>2022-08-27T06:25:07.000Z</Time>
            <Position>
              <LatitudeDegrees>50.2153460495173931121826171875</LatitudeDegrees>
              <LongitudeDegrees>17.02444874681532382965087890625</LongitudeDegrees>
            </Position>
            <AltitudeMeters>1069.5999755859375</AltitudeMeters>
            <DistanceMeters>26623.306142591</DistanceMeters>
          </Trackpoint>
          <Trackpoint>
            <Time>2022-08-27T06:25:17.000Z</Time>
            <Position>
              <LatitudeDegrees>50.21529567427933216094970703125</LatitudeDegrees>
              <LongitudeDegrees>17.0245115272700786590576171875</LongitudeDegrees>
            </Position>
            <AltitudeMeters>1068.800048828125</AltitudeMeters>
            <DistanceMeters>26630.477354856</DistanceMeters>
          </Trackpoint>
          <Trackpoint>
            <Time>2022-08-27T06:25:21.000Z</Time>
            <Position>
              <LatitudeDegrees>50.21528611890971660614013671875</LatitudeDegrees>
              <LongitudeDegrees>17.02453675679862499237060546875</LongitudeDegrees>
            </Position>
            <AltitudeMeters>1068.5999755859375</AltitudeMeters>
            <DistanceMeters>26632.563618705</DistanceMeters>
          </Trackpoint>
          <Trackpoint>
            <Time>2022-08-27T06:25:28.000Z</Time>
            <Position>
              <LatitudeDegrees>50.21524739451706409454345703125</LatitudeDegrees>
              <LongitudeDegrees>17.02459107153117656707763671875</LongitudeDegrees>
            </Position>
            <AltitudeMeters>1067.800048828125</AltitudeMeters>
            <DistanceMeters>26638.354793362</DistanceMeters>
          </Trackpoint>
          <Trackpoint>
            <Time>2022-08-27T06:25:38.000Z</Time>
            <Position>
              <LatitudeDegrees>50.21521721966564655303955078125</LatitudeDegrees>
              <LongitudeDegrees>17.0247240923345088958740234375</LongitudeDegrees>
            </Position>
            <AltitudeMeters>1067.4000244140625</AltitudeMeters>
            <DistanceMeters>26648.406984935</DistanceMeters>
          </Trackpoint>
          <Trackpoint>
            <Time>2022-08-27T06:25:39.000Z</Time>
            <Position>
              <LatitudeDegrees>50.2152161300182342529296875</LatitudeDegrees>
              <LongitudeDegrees>17.024740688502788543701171875</LongitudeDegrees>
            </Position>
            <AltitudeMeters>1067.4000244140625</AltitudeMeters>
            <DistanceMeters>26649.597666253</DistanceMeters>
          </Trackpoint>
          <Trackpoint>
            <Time>2022-08-27T06:25:48.000Z</Time>
            <Position>
              <LatitudeDegrees>50.21519894711673259735107421875</LatitudeDegrees>
              <LongitudeDegrees>17.02483355998992919921875</LongitudeDegrees>
            </Position>
            <AltitudeMeters>1066.800048828125</AltitudeMeters>
            <DistanceMeters>26656.483005847</DistanceMeters>
          </Trackpoint>
          <Trackpoint>
            <Time>2022-08-27T06:25:55.000Z</Time>
            <Position>
              <LatitudeDegrees>50.21516692824661731719970703125</LatitudeDegrees>
              <LongitudeDegrees>17.02493808232247829437255859375</LongitudeDegrees>
            </Position>
            <AltitudeMeters>1066.199951171875</AltitudeMeters>
            <DistanceMeters>26664.736665441</DistanceMeters>
          </Trackpoint>
          <Trackpoint>
            <Time>2022-08-27T06:25:56.000Z</Time>
            <Position>
              <LatitudeDegrees>50.2151623181998729705810546875</LatitudeDegrees>
              <LongitudeDegrees>17.02495367266237735748291015625</LongitudeDegrees>
            </Position>
            <AltitudeMeters>1066.199951171875</AltitudeMeters>
            <DistanceMeters>26665.960999011</DistanceMeters>
          </Trackpoint>
          <Trackpoint>
            <Time>2022-08-27T06:26:04.000Z</Time>
            <Position>
              <LatitudeDegrees>50.21513893269002437591552734375</LatitudeDegrees>
              <LongitudeDegrees>17.02505693770945072174072265625</LongitudeDegrees>
            </Position>
            <AltitudeMeters>1065.5999755859375</AltitudeMeters>
            <DistanceMeters>26673.763033701</DistanceMeters>
          </Trackpoint>
          <Trackpoint>
            <Time>2022-08-27T06:26:07.000Z</Time>
            <Position>
              <LatitudeDegrees>50.2151249349117279052734375</LatitudeDegrees>
              <LongitudeDegrees>17.02508904039859771728515625</LongitudeDegrees>
            </Position>
            <AltitudeMeters>1065.199951171875</AltitudeMeters>
            <DistanceMeters>26676.530253393</DistanceMeters>
          </Trackpoint>
          <Trackpoint>
            <Time>2022-08-27T06:26:14.000Z</Time>
            <Position>
              <LatitudeDegrees>50.21509434096515178680419921875</LatitudeDegrees>
              <LongitudeDegrees>17.0251569338142871856689453125</LongitudeDegrees>
            </Position>
            <AltitudeMeters>1064.800048828125</AltitudeMeters>
            <DistanceMeters>26682.444855336</DistanceMeters>
          </Trackpoint>
          <Trackpoint>
            <Time>2022-08-27T06:26:23.000Z</Time>
            <Position>
              <LatitudeDegrees>50.21504237316548824310302734375</LatitudeDegrees>
              <LongitudeDegrees>17.02523522078990936279296875</LongitudeDegrees>
            </Position>
            <AltitudeMeters>1064</AltitudeMeters>
            <DistanceMeters>26690.478969253</DistanceMeters>
          </Trackpoint>
          <Trackpoint>
            <Time>2022-08-27T06:26:24.000Z</Time>
            <Position>
              <LatitudeDegrees>50.2150409482419490814208984375</LatitudeDegrees>
              <LongitudeDegrees>17.025243602693080902099609375</LongitudeDegrees>
            </Position>
            <AltitudeMeters>1064</AltitudeMeters>
            <DistanceMeters>26691.094812748</DistanceMeters>
          </Trackpoint>
          <Trackpoint>
            <Time>2022-08-27T06:26:34.000Z</Time>
            <Position>
              <LatitudeDegrees>50.21500918082892894744873046875</LatitudeDegrees>
              <LongitudeDegrees>17.02535801567137241363525390625</LongitudeDegrees>
            </Position>
            <AltitudeMeters>1063.4000244140625</AltitudeMeters>
            <DistanceMeters>26699.978158854</DistanceMeters>
          </Trackpoint>
          <Trackpoint>
            <Time>2022-08-27T06:26:37.000Z</Time>
            <Position>
              <LatitudeDegrees>50.21499811671674251556396484375</LatitudeDegrees>
              <LongitudeDegrees>17.0253839157521724700927734375</LongitudeDegrees>
            </Position>
            <AltitudeMeters>1063</AltitudeMeters>
            <DistanceMeters>26702.198614154</DistanceMeters>
          </Trackpoint>
          <Trackpoint>
            <Time>2022-08-27T06:26:45.000Z</Time>
            <Position>
              <LatitudeDegrees>50.21496660076081752777099609375</LatitudeDegrees>
              <LongitudeDegrees>17.0254590176045894622802734375</LongitudeDegrees>
            </Position>
            <AltitudeMeters>1062</AltitudeMeters>
            <DistanceMeters>26708.594413267</DistanceMeters>
          </Trackpoint>
          <Trackpoint>
            <Time>2022-08-27T06:26:48.000Z</Time>
            <Position>
              <LatitudeDegrees>50.214957296848297119140625</LatitudeDegrees>
              <LongitudeDegrees>17.02548407949507236480712890625</LongitudeDegrees>
            </Position>
            <AltitudeMeters>1061.800048828125</AltitudeMeters>
            <DistanceMeters>26710.658921945</DistanceMeters>
          </Trackpoint>
          <Trackpoint>
            <Time>2022-08-27T06:26:56.000Z</Time>
            <Position>
              <LatitudeDegrees>50.21494547836482524871826171875</LatitudeDegrees>
              <LongitudeDegrees>17.02558415941894054412841796875</LongitudeDegrees>
            </Position>
            <AltitudeMeters>1061.4000244140625</AltitudeMeters>
            <DistanceMeters>26717.907162059</DistanceMeters>
          </Trackpoint>
          <Trackpoint>
            <Time>2022-08-27T06:27:03.000Z</Time>
            <Position>
              <LatitudeDegrees>50.21493290551006793975830078125</LatitudeDegrees>
              <LongitudeDegrees>17.0257000811398029327392578125</LongitudeDegrees>
            </Position>
            <AltitudeMeters>1060.800048828125</AltitudeMeters>
            <DistanceMeters>26726.281382838</DistanceMeters>
          </Trackpoint>
          <Trackpoint>
            <Time>2022-08-27T06:27:07.000Z</Time>
            <Position>
              <LatitudeDegrees>50.21492821164429187774658203125</LatitudeDegrees>
              <LongitudeDegrees>17.0257723331451416015625</LongitudeDegrees>
            </Position>
            <AltitudeMeters>1060.4000244140625</AltitudeMeters>
            <DistanceMeters>26731.454014326</DistanceMeters>
          </Trackpoint>
          <Trackpoint>
            <Time>2022-08-27T06:27:17.000Z</Time>
            <Position>
              <LatitudeDegrees>50.21497079171240329742431640625</LatitudeDegrees>
              <LongitudeDegrees>17.02596369199454784393310546875</LongitudeDegrees>
            </Position>
            <AltitudeMeters>1059.800048828125</AltitudeMeters>
            <DistanceMeters>26745.883688703</DistanceMeters>
          </Trackpoint>
          <Trackpoint>
            <Time>2022-08-27T06:27:19.000Z</Time>
            <Position>
              <LatitudeDegrees>50.2149899862706661224365234375</LatitudeDegrees>
              <LongitudeDegrees>17.02599135227501392364501953125</LongitudeDegrees>
            </Position>
            <AltitudeMeters>1059.5999755859375</AltitudeMeters>
            <DistanceMeters>26748.789393691</DistanceMeters>
          </Trackpoint>
          <Trackpoint>
            <Time>2022-08-27T06:27:27.000Z</Time>
            <Position>
              <LatitudeDegrees>50.21505318582057952880859375</LatitudeDegrees>
              <LongitudeDegrees>17.02605287544429302215576171875</LongitudeDegrees>
            </Position>
            <AltitudeMeters>1059.5999755859375</AltitudeMeters>
            <DistanceMeters>26757.076900037</DistanceMeters>
          </Trackpoint>
          <Trackpoint>
            <Time>2022-08-27T06:27:36.000Z</Time>
            <Position>
              <LatitudeDegrees>50.21510221995413303375244140625</LatitudeDegrees>
              <LongitudeDegrees>17.02608237974345684051513671875</LongitudeDegrees>
            </Position>
            <AltitudeMeters>1060.199951171875</AltitudeMeters>
            <DistanceMeters>26762.925483589</DistanceMeters>
          </Trackpoint>
          <Trackpoint>
            <Time>2022-08-27T06:27:44.000Z</Time>
            <Position>
              <LatitudeDegrees>50.21513767540454864501953125</LatitudeDegrees>
              <LongitudeDegrees>17.026077769696712493896484375</LongitudeDegrees>
            </Position>
            <AltitudeMeters>1060.5999755859375</AltitudeMeters>
            <DistanceMeters>26766.88594351</DistanceMeters>
          </Trackpoint>
          <Trackpoint>
            <Time>2022-08-27T06:27:45.000Z</Time>
            <Position>
              <LatitudeDegrees>50.21514303982257843017578125</LatitudeDegrees>
              <LongitudeDegrees>17.0260732434689998626708984375</LongitudeDegrees>
            </Position>
            <AltitudeMeters>1060.800048828125</AltitudeMeters>
            <DistanceMeters>26767.557883851</DistanceMeters>
          </Trackpoint>
          <Trackpoint>
            <Time>2022-08-27T06:27:53.000Z</Time>
            <Position>
              <LatitudeDegrees>50.21518369205296039581298828125</LatitudeDegrees>
              <LongitudeDegrees>17.026036866009235382080078125</LongitudeDegrees>
            </Position>
            <AltitudeMeters>1061.199951171875</AltitudeMeters>
            <DistanceMeters>26772.771378849</DistanceMeters>
          </Trackpoint>
          <Trackpoint>
            <Time>2022-08-27T06:28:00.000Z</Time>
            <Position>
              <LatitudeDegrees>50.21520582027733325958251953125</LatitudeDegrees>
              <LongitudeDegrees>17.02600794844329357147216796875</LongitudeDegrees>
            </Position>
            <AltitudeMeters>1061.5999755859375</AltitudeMeters>
            <DistanceMeters>26775.982663218</DistanceMeters>
          </Trackpoint>
          <Trackpoint>
            <Time>2022-08-27T06:28:04.000Z</Time>
            <Position>
              <LatitudeDegrees>50.215225517749786376953125</LatitudeDegrees>
              <LongitudeDegrees>17.02600023709237575531005859375</LongitudeDegrees>
            </Position>
            <AltitudeMeters>1061.800048828125</AltitudeMeters>
            <DistanceMeters>26778.243420452</DistanceMeters>
          </Trackpoint>
          <Trackpoint>
            <Time>2022-08-27T06:28:14.000Z</Time>
            <Position>
              <LatitudeDegrees>50.215294249355792999267578125</LatitudeDegrees>
              <LongitudeDegrees>17.0259453356266021728515625</LongitudeDegrees>
            </Position>
            <AltitudeMeters>1062.199951171875</AltitudeMeters>
            <DistanceMeters>26786.834802462</DistanceMeters>
          </Trackpoint>
          <Trackpoint>
            <Time>2022-08-27T06:28:22.000Z</Time>
            <Position>
              <LatitudeDegrees>50.21535635925829410552978515625</LatitudeDegrees>
              <LongitudeDegrees>17.02589797787368297576904296875</LongitudeDegrees>
            </Position>
            <AltitudeMeters>1062.5999755859375</AltitudeMeters>
            <DistanceMeters>26794.526685253</DistanceMeters>
          </Trackpoint>
          <Trackpoint>
            <Time>2022-08-27T06:28:25.000Z</Time>
            <Position>
              <LatitudeDegrees>50.21537370979785919189453125</LatitudeDegrees>
              <LongitudeDegrees>17.0258774422109127044677734375</LongitudeDegrees>
            </Position>
            <AltitudeMeters>1063</AltitudeMeters>
            <DistanceMeters>26796.949400607</DistanceMeters>
          </Trackpoint>
          <Trackpoint>
            <Time>2022-08-27T06:28:31.000Z</Time>
            <Position>
              <LatitudeDegrees>50.21541318856179714202880859375</LatitudeDegrees>
              <LongitudeDegrees>17.0258335210382938385009765625</LongitudeDegrees>
            </Position>
            <AltitudeMeters>1063.4000244140625</AltitudeMeters>
            <DistanceMeters>26802.344207033</DistanceMeters>
          </Trackpoint>
          <Trackpoint>
            <Time>2022-08-27T06:28:36.000Z</Time>
            <Position>
              <LatitudeDegrees>50.2154379151761531829833984375</LatitudeDegrees>
              <LongitudeDegrees>17.02580644749104976654052734375</LongitudeDegrees>
            </Position>
            <AltitudeMeters>1063.800048828125</AltitudeMeters>
            <DistanceMeters>26805.706595427</DistanceMeters>
          </Trackpoint>
          <Trackpoint>
            <Time>2022-08-27T06:28:45.000Z</Time>
            <Position>
              <LatitudeDegrees>50.2154754661023616790771484375</LatitudeDegrees>
              <LongitudeDegrees>17.025796808302402496337890625</LongitudeDegrees>
            </Position>
            <AltitudeMeters>1064.199951171875</AltitudeMeters>
            <DistanceMeters>26809.942485167</DistanceMeters>
          </Trackpoint>
          <Trackpoint>
            <Time>2022-08-27T06:28:56.000Z</Time>
            <Position>
              <LatitudeDegrees>50.21552131511270999908447265625</LatitudeDegrees>
              <LongitudeDegrees>17.02577962540090084075927734375</LongitudeDegrees>
            </Position>
            <AltitudeMeters>1064.800048828125</AltitudeMeters>
            <DistanceMeters>26815.190507</DistanceMeters>
          </Trackpoint>
          <Trackpoint>
            <Time>2022-08-27T06:29:07.000Z</Time>
            <Position>
              <LatitudeDegrees>50.2155948244035243988037109375</LatitudeDegrees>
              <LongitudeDegrees>17.02579420991241931915283203125</LongitudeDegrees>
            </Position>
            <AltitudeMeters>1064.4000244140625</AltitudeMeters>
            <DistanceMeters>26823.437599565</DistanceMeters>
          </Trackpoint>
          <Trackpoint>
            <Time>2022-08-27T06:29:18.000Z</Time>
            <Position>
              <LatitudeDegrees>50.21563312970101833343505859375</LatitudeDegrees>
              <LongitudeDegrees>17.0257899351418018341064453125</LongitudeDegrees>
            </Position>
            <AltitudeMeters>1064</AltitudeMeters>
            <DistanceMeters>26827.71063298</DistanceMeters>
          </Trackpoint>
          <Trackpoint>
            <Time>2022-08-27T06:29:29.000Z</Time>
            <Position>
              <LatitudeDegrees>50.21565710194408893585205078125</LatitudeDegrees>
              <LongitudeDegrees>17.025802843272686004638671875</LongitudeDegrees>
            </Position>
            <AltitudeMeters>1063.4000244140625</AltitudeMeters>
            <DistanceMeters>26830.532782414</DistanceMeters>
          </Trackpoint>
          <Trackpoint>
            <Time>2022-08-27T06:29:39.000Z</Time>
            <Position>
              <LatitudeDegrees>50.21570102311670780181884765625</LatitudeDegrees>
              <LongitudeDegrees>17.02581097371876239776611328125</LongitudeDegrees>
            </Position>
            <AltitudeMeters>1062.5999755859375</AltitudeMeters>
            <DistanceMeters>26835.455863276</DistanceMeters>
          </Trackpoint>
          <Trackpoint>
            <Time>2022-08-27T06:29:40.000Z</Time>
            <Position>
              <LatitudeDegrees>50.215704627335071563720703125</LatitudeDegrees>
              <LongitudeDegrees>17.0258103869855403900146484375</LongitudeDegrees>
            </Position>
            <AltitudeMeters>1062.4000244140625</AltitudeMeters>
            <DistanceMeters>26835.85902748</DistanceMeters>
          </Trackpoint>
          <Trackpoint>
            <Time>2022-08-27T06:29:50.000Z</Time>
            <Position>
              <LatitudeDegrees>50.2157467044889926910400390625</LatitudeDegrees>
              <LongitudeDegrees>17.02584835700690746307373046875</LongitudeDegrees>
            </Position>
            <AltitudeMeters>1061.800048828125</AltitudeMeters>
            <DistanceMeters>26841.267208099</DistanceMeters>
          </Trackpoint>
          <Trackpoint>
            <Time>2022-08-27T06:29:53.000Z</Time>
            <Position>
              <LatitudeDegrees>50.21575382910668849945068359375</LatitudeDegrees>
              <LongitudeDegrees>17.02585673891007900238037109375</LongitudeDegrees>
            </Position>
            <AltitudeMeters>1061.4000244140625</AltitudeMeters>
            <DistanceMeters>26842.263856687</DistanceMeters>
          </Trackpoint>
          <Trackpoint>
            <Time>2022-08-27T06:29:59.000Z</Time>
            <Position>
              <LatitudeDegrees>50.215774364769458770751953125</LatitudeDegrees>
              <LongitudeDegrees>17.02588297426700592041015625</LongitudeDegrees>
            </Position>
            <AltitudeMeters>1060.5999755859375</AltitudeMeters>
            <DistanceMeters>26845.215809222</DistanceMeters>
          </Trackpoint>
          <Trackpoint>
            <Time>2022-08-27T06:30:04.000Z</Time>
            <Position>
              <LatitudeDegrees>50.2157876081764698028564453125</LatitudeDegrees>
              <LongitudeDegrees>17.025908790528774261474609375</LongitudeDegrees>
            </Position>
            <AltitudeMeters>1060.199951171875</AltitudeMeters>
            <DistanceMeters>26847.574310248</DistanceMeters>
          </Trackpoint>
          <Trackpoint>
            <Time>2022-08-27T06:30:10.000Z</Time>
            <Position>
              <LatitudeDegrees>50.21580629982054233551025390625</LatitudeDegrees>
              <LongitudeDegrees>17.02598146162927150726318359375</LongitudeDegrees>
            </Position>
            <AltitudeMeters>1059.5999755859375</AltitudeMeters>
            <DistanceMeters>26853.152629298</DistanceMeters>
          </Trackpoint>
          <Trackpoint>
            <Time>2022-08-27T06:30:14.000Z</Time>
            <Position>
              <LatitudeDegrees>50.21582222543656826019287109375</LatitudeDegrees>
              <LongitudeDegrees>17.026024125516414642333984375</LongitudeDegrees>
            </Position>
            <AltitudeMeters>1059</AltitudeMeters>
            <DistanceMeters>26856.672468056</DistanceMeters>
          </Trackpoint>
          <Trackpoint>
            <Time>2022-08-27T06:30:21.000Z</Time>
            <Position>
              <LatitudeDegrees>50.21584653295576572418212890625</LatitudeDegrees>
              <LongitudeDegrees>17.026105932891368865966796875</LongitudeDegrees>
            </Position>
            <AltitudeMeters>1058</AltitudeMeters>
            <DistanceMeters>26863.096442632</DistanceMeters>
          </Trackpoint>
          <Trackpoint>
            <Time>2022-08-27T06:30:32.000Z</Time>
            <Position>
              <LatitudeDegrees>50.21587905474007129669189453125</LatitudeDegrees>
              <LongitudeDegrees>17.02622629702091217041015625</LongitudeDegrees>
            </Position>
            <AltitudeMeters>1056.800048828125</AltitudeMeters>
            <DistanceMeters>26872.401785346</DistanceMeters>
          </Trackpoint>
          <Trackpoint>
            <Time>2022-08-27T06:30:33.000Z</Time>
            <Position>
              <LatitudeDegrees>50.215880312025547027587890625</LatitudeDegrees>
              <LongitudeDegrees>17.026234678924083709716796875</LongitudeDegrees>
            </Position>
            <AltitudeMeters>1056.800048828125</AltitudeMeters>
            <DistanceMeters>26873.017628841</DistanceMeters>
          </Trackpoint>
          <Trackpoint>
            <Time>2022-08-27T06:30:42.000Z</Time>
            <Position>
              <LatitudeDegrees>50.21592448465526103973388671875</LatitudeDegrees>
              <LongitudeDegrees>17.0263216830790042877197265625</LongitudeDegrees>
            </Position>
            <AltitudeMeters>1055.800048828125</AltitudeMeters>
            <DistanceMeters>26880.92828177</DistanceMeters>
          </Trackpoint>
          <Trackpoint>
            <Time>2022-08-27T06:30:51.000Z</Time>
            <Position>
              <LatitudeDegrees>50.215960443019866943359375</LatitudeDegrees>
              <LongitudeDegrees>17.02639183960855007171630859375</LongitudeDegrees>
            </Position>
            <AltitudeMeters>1054.5999755859375</AltitudeMeters>
            <DistanceMeters>26887.329725896</DistanceMeters>
          </Trackpoint>
          <Trackpoint>
            <Time>2022-08-27T06:30:54.000Z</Time>
            <Position>
              <LatitudeDegrees>50.21597393788397312164306640625</LatitudeDegrees>
              <LongitudeDegrees>17.0264222659170627593994140625</LongitudeDegrees>
            </Position>
            <AltitudeMeters>1053.800048828125</AltitudeMeters>
            <DistanceMeters>26889.966610205</DistanceMeters>
          </Trackpoint>
          <Trackpoint>
            <Time>2022-08-27T06:30:56.000Z</Time>
            <Position>
              <LatitudeDegrees>50.215983577072620391845703125</LatitudeDegrees>
              <LongitudeDegrees>17.026445232331752777099609375</LongitudeDegrees>
            </Position>
            <AltitudeMeters>1053.4000244140625</AltitudeMeters>
            <DistanceMeters>26891.923330015</DistanceMeters>
          </Trackpoint>
          <Trackpoint>
            <Time>2022-08-27T06:31:02.000Z</Time>
            <Position>
              <LatitudeDegrees>50.2160073816776275634765625</LatitudeDegrees>
              <LongitudeDegrees>17.0265161432325839996337890625</LongitudeDegrees>
            </Position>
            <AltitudeMeters>1052.4000244140625</AltitudeMeters>
            <DistanceMeters>26897.626516436</DistanceMeters>
          </Trackpoint>
          <Trackpoint>
            <Time>2022-08-27T06:31:04.000Z</Time>
            <Position>
              <LatitudeDegrees>50.21601601503789424896240234375</LatitudeDegrees>
              <LongitudeDegrees>17.02652938663959503173828125</LongitudeDegrees>
            </Position>
            <AltitudeMeters>1052.199951171875</AltitudeMeters>
            <DistanceMeters>26898.970397118</DistanceMeters>
          </Trackpoint>
          <Trackpoint>
            <Time>2022-08-27T06:31:11.000Z</Time>
            <Position>
              <LatitudeDegrees>50.216051302850246429443359375</LatitudeDegrees>
              <LongitudeDegrees>17.02655914239585399627685546875</LongitudeDegrees>
            </Position>
            <AltitudeMeters>1051.199951171875</AltitudeMeters>
            <DistanceMeters>26903.433618896</DistanceMeters>
          </Trackpoint>
          <Trackpoint>
            <Time>2022-08-27T06:31:15.000Z</Time>
            <Position>
              <LatitudeDegrees>50.2160588465631008148193359375</LatitudeDegrees>
              <LongitudeDegrees>17.02658110298216342926025390625</LongitudeDegrees>
            </Position>
            <AltitudeMeters>1050.4000244140625</AltitudeMeters>
            <DistanceMeters>26905.211405934</DistanceMeters>
          </Trackpoint>
          <Trackpoint>
            <Time>2022-08-27T06:31:18.000Z</Time>
            <Position>
              <LatitudeDegrees>50.21606731228530406951904296875</LatitudeDegrees>
              <LongitudeDegrees>17.02660314738750457763671875</LongitudeDegrees>
            </Position>
            <AltitudeMeters>1050</AltitudeMeters>
            <DistanceMeters>26907.044214827</DistanceMeters>
          </Trackpoint>
          <Trackpoint>
            <Time>2022-08-27T06:31:27.000Z</Time>
            <Position>
              <LatitudeDegrees>50.216100253164768218994140625</LatitudeDegrees>
              <LongitudeDegrees>17.0266810990869998931884765625</LongitudeDegrees>
            </Position>
            <AltitudeMeters>1049.199951171875</AltitudeMeters>
            <DistanceMeters>26913.697442219</DistanceMeters>
          </Trackpoint>
          <Trackpoint>
            <Time>2022-08-27T06:31:29.000Z</Time>
            <Position>
              <LatitudeDegrees>50.216100253164768218994140625</LatitudeDegrees>
              <LongitudeDegrees>17.0267044007778167724609375</LongitudeDegrees>
            </Position>
            <AltitudeMeters>1049</AltitudeMeters>
            <DistanceMeters>26915.357012439</DistanceMeters>
          </Trackpoint>
          <Trackpoint>
            <Time>2022-08-27T06:31:37.000Z</Time>
            <Position>
              <LatitudeDegrees>50.21613906137645244598388671875</LatitudeDegrees>
              <LongitudeDegrees>17.02675561420619487762451171875</LongitudeDegrees>
            </Position>
            <AltitudeMeters>1048</AltitudeMeters>
            <DistanceMeters>26921.010902305</DistanceMeters>
          </Trackpoint>
          <Trackpoint>
            <Time>2022-08-27T06:31:38.000Z</Time>
            <Position>
              <LatitudeDegrees>50.21614308468997478485107421875</LatitudeDegrees>
              <LongitudeDegrees>17.02676475048065185546875</LongitudeDegrees>
            </Position>
            <AltitudeMeters>1047.800048828125</AltitudeMeters>
            <DistanceMeters>26921.800253478</DistanceMeters>
          </Trackpoint>
          <Trackpoint>
            <Time>2022-08-27T06:31:45.000Z</Time>
            <Position>
              <LatitudeDegrees>50.21616705693304538726806640625</LatitudeDegrees>
              <LongitudeDegrees>17.0268138684332370758056640625</LongitudeDegrees>
            </Position>
            <AltitudeMeters>1046.800048828125</AltitudeMeters>
            <DistanceMeters>26926.200308466</DistanceMeters>
          </Trackpoint>
          <Trackpoint>
            <Time>2022-08-27T06:31:48.000Z</Time>
            <Position>
              <LatitudeDegrees>50.216183401644229888916015625</LatitudeDegrees>
              <LongitudeDegrees>17.02682920731604099273681640625</LongitudeDegrees>
            </Position>
            <AltitudeMeters>1046.199951171875</AltitudeMeters>
            <DistanceMeters>26928.325170396</DistanceMeters>
          </Trackpoint>
          <Trackpoint>
            <Time>2022-08-27T06:31:55.000Z</Time>
            <Position>
              <LatitudeDegrees>50.21623662672936916351318359375</LatitudeDegrees>
              <LongitudeDegrees>17.0268641598522663116455078125</LongitudeDegrees>
            </Position>
            <AltitudeMeters>1045.4000244140625</AltitudeMeters>
            <DistanceMeters>26934.751955724</DistanceMeters>
          </Trackpoint>
          <Trackpoint>
            <Time>2022-08-27T06:31:59.000Z</Time>
            <Position>
              <LatitudeDegrees>50.2162553183734416961669921875</LatitudeDegrees>
              <LongitudeDegrees>17.02689777128398418426513671875</LongitudeDegrees>
            </Position>
            <AltitudeMeters>1044.800048828125</AltitudeMeters>
            <DistanceMeters>26937.923628021</DistanceMeters>
          </Trackpoint>
          <Trackpoint>
            <Time>2022-08-27T06:32:02.000Z</Time>
            <Position>
              <LatitudeDegrees>50.2162821404635906219482421875</LatitudeDegrees>
              <LongitudeDegrees>17.026928700506687164306640625</LongitudeDegrees>
            </Position>
            <AltitudeMeters>1044.4000244140625</AltitudeMeters>
            <DistanceMeters>26941.633322954</DistanceMeters>
          </Trackpoint>
          <Trackpoint>
            <Time>2022-08-27T06:32:11.000Z</Time>
            <Position>
              <LatitudeDegrees>50.21634156815707683563232421875</LatitudeDegrees>
              <LongitudeDegrees>17.02697890810668468475341796875</LongitudeDegrees>
            </Position>
            <AltitudeMeters>1043.199951171875</AltitudeMeters>
            <DistanceMeters>26949.152452466</DistanceMeters>
          </Trackpoint>
          <Trackpoint>
            <Time>2022-08-27T06:32:19.000Z</Time>
            <Position>
              <LatitudeDegrees>50.21635414101183414459228515625</LatitudeDegrees>
              <LongitudeDegrees>17.02705015428364276885986328125</LongitudeDegrees>
            </Position>
            <AltitudeMeters>1042</AltitudeMeters>
            <DistanceMeters>26954.416795218</DistanceMeters>
          </Trackpoint>
          <Trackpoint>
            <Time>2022-08-27T06:32:20.000Z</Time>
            <Position>
              <LatitudeDegrees>50.21635673940181732177734375</LatitudeDegrees>
              <LongitudeDegrees>17.0270599611103534698486328125</LongitudeDegrees>
            </Position>
            <AltitudeMeters>1041.800048828125</AltitudeMeters>
            <DistanceMeters>26955.17104638</DistanceMeters>
          </Trackpoint>
          <Trackpoint>
            <Time>2022-08-27T06:32:25.000Z</Time>
            <Position>
              <LatitudeDegrees>50.2163683064281940460205078125</LatitudeDegrees>
              <LongitudeDegrees>17.02710815705358982086181640625</LongitudeDegrees>
            </Position>
            <AltitudeMeters>1041</AltitudeMeters>
            <DistanceMeters>26958.836664166</DistanceMeters>
          </Trackpoint>
          <Trackpoint>
            <Time>2022-08-27T06:32:30.000Z</Time>
            <Position>
              <LatitudeDegrees>50.21636880934238433837890625</LatitudeDegrees>
              <LongitudeDegrees>17.02715031802654266357421875</LongitudeDegrees>
            </Position>
            <AltitudeMeters>1040</AltitudeMeters>
            <DistanceMeters>26961.838666213</DistanceMeters>
          </Trackpoint>
          <Trackpoint>
            <Time>2022-08-27T06:32:31.000Z</Time>
            <Position>
              <LatitudeDegrees>50.216367132961750030517578125</LatitudeDegrees>
              <LongitudeDegrees>17.0271595381200313568115234375</LongitudeDegrees>
            </Position>
            <AltitudeMeters>1039.800048828125</AltitudeMeters>
            <DistanceMeters>26962.517292692</DistanceMeters>
          </Trackpoint>
          <Trackpoint>
            <Time>2022-08-27T06:32:38.000Z</Time>
            <Position>
              <LatitudeDegrees>50.2163780294358730316162109375</LatitudeDegrees>
              <LongitudeDegrees>17.0272071473300457000732421875</LongitudeDegrees>
            </Position>
            <AltitudeMeters>1038.800048828125</AltitudeMeters>
            <DistanceMeters>26966.118291134</DistanceMeters>
          </Trackpoint>
          <Trackpoint>
            <Time>2022-08-27T06:32:41.000Z</Time>
            <Position>
              <LatitudeDegrees>50.21637953817844390869140625</LatitudeDegrees>
              <LongitudeDegrees>17.02721795998513698577880859375</LongitudeDegrees>
            </Position>
            <AltitudeMeters>1037.800048828125</AltitudeMeters>
            <DistanceMeters>26966.901901495</DistanceMeters>
          </Trackpoint>
          <Trackpoint>
            <Time>2022-08-27T06:32:44.000Z</Time>
            <Position>
              <LatitudeDegrees>50.2163843996822834014892578125</LatitudeDegrees>
              <LongitudeDegrees>17.027238495647907257080078125</LongitudeDegrees>
            </Position>
            <AltitudeMeters>1037.4000244140625</AltitudeMeters>
            <DistanceMeters>26968.457555854</DistanceMeters>
          </Trackpoint>
          <Trackpoint>
            <Time>2022-08-27T06:32:51.000Z</Time>
            <Position>
              <LatitudeDegrees>50.2163944579660892486572265625</LatitudeDegrees>
              <LongitudeDegrees>17.027295492589473724365234375</LongitudeDegrees>
            </Position>
            <AltitudeMeters>1036.4000244140625</AltitudeMeters>
            <DistanceMeters>26972.668858519</DistanceMeters>
          </Trackpoint>
          <Trackpoint>
            <Time>2022-08-27T06:32:53.000Z</Time>
            <Position>
              <LatitudeDegrees>50.21639269776642322540283203125</LatitudeDegrees>
              <LongitudeDegrees>17.02731451950967311859130859375</LongitudeDegrees>
            </Position>
            <AltitudeMeters>1036.199951171875</AltitudeMeters>
            <DistanceMeters>26974.039353284</DistanceMeters>
          </Trackpoint>
          <Trackpoint>
            <Time>2022-08-27T06:32:59.000Z</Time>
            <Position>
              <LatitudeDegrees>50.21641231141984462738037109375</LatitudeDegrees>
              <LongitudeDegrees>17.0273653976619243621826171875</LongitudeDegrees>
            </Position>
            <AltitudeMeters>1035.4000244140625</AltitudeMeters>
            <DistanceMeters>26978.269910164</DistanceMeters>
          </Trackpoint>
          <Trackpoint>
            <Time>2022-08-27T06:33:02.000Z</Time>
            <Position>
              <LatitudeDegrees>50.21642589010298252105712890625</LatitudeDegrees>
              <LongitudeDegrees>17.027399428188800811767578125</LongitudeDegrees>
            </Position>
            <AltitudeMeters>1034.800048828125</AltitudeMeters>
            <DistanceMeters>26981.125458978</DistanceMeters>
          </Trackpoint>
          <Trackpoint>
            <Time>2022-08-27T06:33:11.000Z</Time>
            <Position>
              <LatitudeDegrees>50.21645908243954181671142578125</LatitudeDegrees>
              <LongitudeDegrees>17.02746606431901454925537109375</LongitudeDegrees>
            </Position>
            <AltitudeMeters>1034.199951171875</AltitudeMeters>
            <DistanceMeters>26987.139981921</DistanceMeters>
          </Trackpoint>
          <Trackpoint>
            <Time>2022-08-27T06:33:12.000Z</Time>
            <Position>
              <LatitudeDegrees>50.21646344102919101715087890625</LatitudeDegrees>
              <LongitudeDegrees>17.0274710096418857574462890625</LongitudeDegrees>
            </Position>
            <AltitudeMeters>1034.199951171875</AltitudeMeters>
            <DistanceMeters>26987.740983633</DistanceMeters>
          </Trackpoint>
          <Trackpoint>
            <Time>2022-08-27T06:33:23.000Z</Time>
            <Position>
              <LatitudeDegrees>50.2165111340582370758056640625</LatitudeDegrees>
              <LongitudeDegrees>17.02756145037710666656494140625</LongitudeDegrees>
            </Position>
            <AltitudeMeters>1033.5999755859375</AltitudeMeters>
            <DistanceMeters>26996.087121044</DistanceMeters>
          </Trackpoint>
          <Trackpoint>
            <Time>2022-08-27T06:33:32.000Z</Time>
            <Position>
              <LatitudeDegrees>50.21658363752067089080810546875</LatitudeDegrees>
              <LongitudeDegrees>17.02766798436641693115234375</LongitudeDegrees>
            </Position>
            <AltitudeMeters>1033.800048828125</AltitudeMeters>
            <DistanceMeters>27007.163339649</DistanceMeters>
          </Trackpoint>
          <Trackpoint>
            <Time>2022-08-27T06:33:44.000Z</Time>
            <Position>
              <LatitudeDegrees>50.21662889979779720306396484375</LatitudeDegrees>
              <LongitudeDegrees>17.02771534211933612823486328125</LongitudeDegrees>
            </Position>
            <AltitudeMeters>1033.800048828125</AltitudeMeters>
            <DistanceMeters>27013.226461056</DistanceMeters>
          </Trackpoint>
          <Trackpoint>
            <Time>2022-08-27T06:33:53.000Z</Time>
            <Position>
              <LatitudeDegrees>50.21666653454303741455078125</LatitudeDegrees>
              <LongitudeDegrees>17.02772070653736591339111328125</LongitudeDegrees>
            </Position>
            <AltitudeMeters>1033.800048828125</AltitudeMeters>
            <DistanceMeters>27017.43347304</DistanceMeters>
          </Trackpoint>
          <Trackpoint>
            <Time>2022-08-27T06:34:04.000Z</Time>
            <Position>
              <LatitudeDegrees>50.21670517511665821075439453125</LatitudeDegrees>
              <LongitudeDegrees>17.0277439244091510772705078125</LongitudeDegrees>
            </Position>
            <AltitudeMeters>1033.800048828125</AltitudeMeters>
            <DistanceMeters>27022.042023766</DistanceMeters>
          </Trackpoint>
          <Trackpoint>
            <Time>2022-08-27T06:34:13.000Z</Time>
            <Position>
              <LatitudeDegrees>50.21675177849829196929931640625</LatitudeDegrees>
              <LongitudeDegrees>17.027735374867916107177734375</LongitudeDegrees>
            </Position>
            <AltitudeMeters>1034</AltitudeMeters>
            <DistanceMeters>27027.265900776</DistanceMeters>
          </Trackpoint>
          <Trackpoint>
            <Time>2022-08-27T06:34:21.000Z</Time>
            <Position>
              <LatitudeDegrees>50.21676468662917613983154296875</LatitudeDegrees>
              <LongitudeDegrees>17.02770511619746685028076171875</LongitudeDegrees>
            </Position>
            <AltitudeMeters>1034</AltitudeMeters>
            <DistanceMeters>27029.856141459</DistanceMeters>
          </Trackpoint>
          <Trackpoint>
            <Time>2022-08-27T06:34:30.000Z</Time>
            <Position>
              <LatitudeDegrees>50.21677709184587001800537109375</LatitudeDegrees>
              <LongitudeDegrees>17.0276976563036441802978515625</LongitudeDegrees>
            </Position>
            <AltitudeMeters>1033.5999755859375</AltitudeMeters>
            <DistanceMeters>27031.33441021</DistanceMeters>
          </Trackpoint>
          <Trackpoint>
            <Time>2022-08-27T06:34:40.000Z</Time>
            <Position>
              <LatitudeDegrees>50.2168286405503749847412109375</LatitudeDegrees>
              <LongitudeDegrees>17.0276875980198383331298828125</LongitudeDegrees>
            </Position>
            <AltitudeMeters>1033.5999755859375</AltitudeMeters>
            <DistanceMeters>27037.117002455</DistanceMeters>
          </Trackpoint>
          <Trackpoint>
            <Time>2022-08-27T06:34:49.000Z</Time>
            <Position>
              <LatitudeDegrees>50.21689242683351039886474609375</LatitudeDegrees>
              <LongitudeDegrees>17.027679048478603363037109375</LongitudeDegrees>
            </Position>
            <AltitudeMeters>1033.5999755859375</AltitudeMeters>
            <DistanceMeters>27044.243372493</DistanceMeters>
          </Trackpoint>
          <Trackpoint>
            <Time>2022-08-27T06:35:01.000Z</Time>
            <Position>
              <LatitudeDegrees>50.21696400828659534454345703125</LatitudeDegrees>
              <LongitudeDegrees>17.02765784226357936859130859375</LongitudeDegrees>
            </Position>
            <AltitudeMeters>1033.5999755859375</AltitudeMeters>
            <DistanceMeters>27052.352442518</DistanceMeters>
          </Trackpoint>
          <Trackpoint>
            <Time>2022-08-27T06:35:10.000Z</Time>
            <Position>
              <LatitudeDegrees>50.21699242293834686279296875</LatitudeDegrees>
              <LongitudeDegrees>17.02764191664755344390869140625</LongitudeDegrees>
            </Position>
            <AltitudeMeters>1033</AltitudeMeters>
            <DistanceMeters>27055.712144224</DistanceMeters>
          </Trackpoint>
          <Trackpoint>
            <Time>2022-08-27T06:35:18.000Z</Time>
            <Position>
              <LatitudeDegrees>50.21702167578041553497314453125</LatitudeDegrees>
              <LongitudeDegrees>17.027641832828521728515625</LongitudeDegrees>
            </Position>
            <AltitudeMeters>1032.5999755859375</AltitudeMeters>
            <DistanceMeters>27058.968109479</DistanceMeters>
          </Trackpoint>
          <Trackpoint>
            <Time>2022-08-27T06:35:21.000Z</Time>
            <Position>
              <LatitudeDegrees>50.21703693084418773651123046875</LatitudeDegrees>
              <LongitudeDegrees>17.02764694578945636749267578125</LongitudeDegrees>
            </Position>
            <AltitudeMeters>1032.199951171875</AltitudeMeters>
            <DistanceMeters>27060.704786056</DistanceMeters>
          </Trackpoint>
          <Trackpoint>
            <Time>2022-08-27T06:35:32.000Z</Time>
            <Position>
              <LatitudeDegrees>50.21710029803216457366943359375</LatitudeDegrees>
              <LongitudeDegrees>17.02768147923052310943603515625</LongitudeDegrees>
            </Position>
            <AltitudeMeters>1032.199951171875</AltitudeMeters>
            <DistanceMeters>27068.173909986</DistanceMeters>
          </Trackpoint>
          <Trackpoint>
            <Time>2022-08-27T06:35:43.000Z</Time>
            <Position>
              <LatitudeDegrees>50.217140614986419677734375</LatitudeDegrees>
              <LongitudeDegrees>17.02766203321516513824462890625</LongitudeDegrees>
            </Position>
            <AltitudeMeters>1032.4000244140625</AltitudeMeters>
            <DistanceMeters>27072.869806777</DistanceMeters>
          </Trackpoint>
          <Trackpoint>
            <Time>2022-08-27T06:35:51.000Z</Time>
            <Position>
              <LatitudeDegrees>50.21718244068324565887451171875</LatitudeDegrees>
              <LongitudeDegrees>17.0276404917240142822265625</LongitudeDegrees>
            </Position>
            <AltitudeMeters>1032.4000244140625</AltitudeMeters>
            <DistanceMeters>27077.77082742</DistanceMeters>
          </Trackpoint>
          <Trackpoint>
            <Time>2022-08-27T06:36:03.000Z</Time>
            <Position>
              <LatitudeDegrees>50.2172090113162994384765625</LatitudeDegrees>
              <LongitudeDegrees>17.02760688029229640960693359375</LongitudeDegrees>
            </Position>
            <AltitudeMeters>1031.4000244140625</AltitudeMeters>
            <DistanceMeters>27081.576644364</DistanceMeters>
          </Trackpoint>
          <Trackpoint>
            <Time>2022-08-27T06:36:13.000Z</Time>
            <Position>
              <LatitudeDegrees>50.21724178455770015716552734375</LatitudeDegrees>
              <LongitudeDegrees>17.0275948941707611083984375</LongitudeDegrees>
            </Position>
            <AltitudeMeters>1031.199951171875</AltitudeMeters>
            <DistanceMeters>27085.322674102</DistanceMeters>
          </Trackpoint>
          <Trackpoint>
            <Time>2022-08-27T06:36:15.000Z</Time>
            <Position>
              <LatitudeDegrees>50.217242203652858734130859375</LatitudeDegrees>
              <LongitudeDegrees>17.0275962352752685546875</LongitudeDegrees>
            </Position>
            <AltitudeMeters>1031</AltitudeMeters>
            <DistanceMeters>27085.322674102</DistanceMeters>
          </Trackpoint>
          <Trackpoint>
            <Time>2022-08-27T06:36:21.000Z</Time>
            <Position>
              <LatitudeDegrees>50.2172450534999370574951171875</LatitudeDegrees>
              <LongitudeDegrees>17.027604281902313232421875</LongitudeDegrees>
            </Position>
            <AltitudeMeters>1030.4000244140625</AltitudeMeters>
            <DistanceMeters>27085.981038491</DistanceMeters>
          </Trackpoint>
          <Trackpoint>
            <Time>2022-08-27T06:36:23.000Z</Time>
            <Position>
              <LatitudeDegrees>50.21725016646087169647216796875</LatitudeDegrees>
              <LongitudeDegrees>17.027606628835201263427734375</LongitudeDegrees>
            </Position>
            <AltitudeMeters>1029.800048828125</AltitudeMeters>
            <DistanceMeters>27086.582040203</DistanceMeters>
          </Trackpoint>
          <Trackpoint>
            <Time>2022-08-27T06:36:33.000Z</Time>
            <Position>
              <LatitudeDegrees>50.21726223640143871307373046875</LatitudeDegrees>
              <LongitudeDegrees>17.02760051004588603973388671875</LongitudeDegrees>
            </Position>
            <AltitudeMeters>1028.800048828125</AltitudeMeters>
            <DistanceMeters>27087.991514154</DistanceMeters>
          </Trackpoint>
          <Trackpoint>
            <Time>2022-08-27T06:36:34.000Z</Time>
            <Position>
              <LatitudeDegrees>50.2172634936869144439697265625</LatitudeDegrees>
              <LongitudeDegrees>17.02760252170264720916748046875</LongitudeDegrees>
            </Position>
            <AltitudeMeters>1028.800048828125</AltitudeMeters>
            <DistanceMeters>27088.181567583</DistanceMeters>
          </Trackpoint>
          <Trackpoint>
            <Time>2022-08-27T06:36:47.000Z</Time>
            <Position>
              <LatitudeDegrees>50.21727531217038631439208984375</LatitudeDegrees>
              <LongitudeDegrees>17.02760034240782260894775390625</LongitudeDegrees>
            </Position>
            <AltitudeMeters>1028.199951171875</AltitudeMeters>
            <DistanceMeters>27089.505136557</DistanceMeters>
          </Trackpoint>
          <Trackpoint>
            <Time>2022-08-27T06:36:56.000Z</Time>
            <Position>
              <LatitudeDegrees>50.21728738211095333099365234375</LatitudeDegrees>
              <LongitudeDegrees>17.02759179286658763885498046875</LongitudeDegrees>
            </Position>
            <AltitudeMeters>1028.199951171875</AltitudeMeters>
            <DistanceMeters>27090.977284086</DistanceMeters>
          </Trackpoint>
          <Trackpoint>
            <Time>2022-08-27T06:37:07.000Z</Time>
            <Position>
              <LatitudeDegrees>50.21728956140577793121337890625</LatitudeDegrees>
              <LongitudeDegrees>17.0275947265326976776123046875</LongitudeDegrees>
            </Position>
            <AltitudeMeters>1028</AltitudeMeters>
            <DistanceMeters>27091.306466281</DistanceMeters>
          </Trackpoint>
          <Trackpoint>
            <Time>2022-08-27T06:37:15.000Z</Time>
            <Position>
              <LatitudeDegrees>50.21728671155869960784912109375</LatitudeDegrees>
              <LongitudeDegrees>17.02759447507560253143310546875</LongitudeDegrees>
            </Position>
            <AltitudeMeters>1027.800048828125</AltitudeMeters>
            <DistanceMeters>27091.635648475</DistanceMeters>
          </Trackpoint>
          <Trackpoint>
            <Time>2022-08-27T06:37:24.000Z</Time>
            <Position>
              <LatitudeDegrees>50.217287801206111907958984375</LatitudeDegrees>
              <LongitudeDegrees>17.02758743427693843841552734375</LongitudeDegrees>
            </Position>
            <AltitudeMeters>1027.800048828125</AltitudeMeters>
            <DistanceMeters>27092.156131226</DistanceMeters>
          </Trackpoint>
          <Trackpoint>
            <Time>2022-08-27T06:37:33.000Z</Time>
            <Position>
              <LatitudeDegrees>50.21729660220444202423095703125</LatitudeDegrees>
              <LongitudeDegrees>17.027581147849559783935546875</LongitudeDegrees>
            </Position>
            <AltitudeMeters>1028.199951171875</AltitudeMeters>
            <DistanceMeters>27093.235427228</DistanceMeters>
          </Trackpoint>
          <Trackpoint>
            <Time>2022-08-27T06:37:43.000Z</Time>
            <Position>
              <LatitudeDegrees>50.21730330772697925567626953125</LatitudeDegrees>
              <LongitudeDegrees>17.0275870151817798614501953125</LongitudeDegrees>
            </Position>
            <AltitudeMeters>1027.800048828125</AltitudeMeters>
            <DistanceMeters>27094.090667658</DistanceMeters>
          </Trackpoint>
          <Trackpoint>
            <Time>2022-08-27T06:37:53.000Z</Time>
            <Position>
              <LatitudeDegrees>50.21729777567088603973388671875</LatitudeDegrees>
              <LongitudeDegrees>17.02759154140949249267578125</LongitudeDegrees>
            </Position>
            <AltitudeMeters>1027.5999755859375</AltitudeMeters>
            <DistanceMeters>27094.788968544</DistanceMeters>
          </Trackpoint>
          <Trackpoint>
            <Time>2022-08-27T06:37:58.000Z</Time>
            <Position>
              <LatitudeDegrees>50.21730079315602779388427734375</LatitudeDegrees>
              <LongitudeDegrees>17.02759128995239734649658203125</LongitudeDegrees>
            </Position>
            <AltitudeMeters>1027.199951171875</AltitudeMeters>
            <DistanceMeters>27095.131592235</DistanceMeters>
          </Trackpoint>
          <Trackpoint>
            <Time>2022-08-27T06:38:02.000Z</Time>
            <Position>
              <LatitudeDegrees>50.217301882803440093994140625</LatitudeDegrees>
              <LongitudeDegrees>17.0276014320552349090576171875</LongitudeDegrees>
            </Position>
            <AltitudeMeters>1026.800048828125</AltitudeMeters>
            <DistanceMeters>27095.861506278</DistanceMeters>
          </Trackpoint>
          <Trackpoint>
            <Time>2022-08-27T06:38:08.000Z</Time>
            <Position>
              <LatitudeDegrees>50.2173087559640407562255859375</LatitudeDegrees>
              <LongitudeDegrees>17.027614004909992218017578125</LongitudeDegrees>
            </Position>
            <AltitudeMeters>1026.199951171875</AltitudeMeters>
            <DistanceMeters>27097.040756791</DistanceMeters>
          </Trackpoint>
          <Trackpoint>
            <Time>2022-08-27T06:38:15.000Z</Time>
            <Position>
              <LatitudeDegrees>50.217307917773723602294921875</LatitudeDegrees>
              <LongitudeDegrees>17.0276297628879547119140625</LongitudeDegrees>
            </Position>
            <AltitudeMeters>1025.199951171875</AltitudeMeters>
            <DistanceMeters>27098.165128039</DistanceMeters>
          </Trackpoint>
          <Trackpoint>
            <Time>2022-08-27T06:38:18.000Z</Time>
            <Position>
              <LatitudeDegrees>50.21731018088757991790771484375</LatitudeDegrees>
              <LongitudeDegrees>17.0276485383510589599609375</LongitudeDegrees>
            </Position>
            <AltitudeMeters>1024.800048828125</AltitudeMeters>
            <DistanceMeters>27099.522380998</DistanceMeters>
          </Trackpoint>
          <Trackpoint>
            <Time>2022-08-27T06:38:26.000Z</Time>
            <Position>
              <LatitudeDegrees>50.2173070795834064483642578125</LatitudeDegrees>
              <LongitudeDegrees>17.0276607759296894073486328125</LongitudeDegrees>
            </Position>
            <AltitudeMeters>1024.199951171875</AltitudeMeters>
            <DistanceMeters>27100.458285595</DistanceMeters>
          </Trackpoint>
          <Trackpoint>
            <Time>2022-08-27T06:38:33.000Z</Time>
            <Position>
              <LatitudeDegrees>50.217293165624141693115234375</LatitudeDegrees>
              <LongitudeDegrees>17.0276839099824428558349609375</LongitudeDegrees>
            </Position>
            <AltitudeMeters>1023.5999755859375</AltitudeMeters>
            <DistanceMeters>27102.719042828</DistanceMeters>
          </Trackpoint>
          <Trackpoint>
            <Time>2022-08-27T06:38:38.000Z</Time>
            <Position>
              <LatitudeDegrees>50.21729324944317340850830078125</LatitudeDegrees>
              <LongitudeDegrees>17.02768952585756778717041015625</LongitudeDegrees>
            </Position>
            <AltitudeMeters>1023</AltitudeMeters>
            <DistanceMeters>27103.122207033</DistanceMeters>
          </Trackpoint>
          <Trackpoint>
            <Time>2022-08-27T06:38:43.000Z</Time>
            <Position>
              <LatitudeDegrees>50.2172913216054439544677734375</LatitudeDegrees>
              <LongitudeDegrees>17.02770830132067203521728515625</LongitudeDegrees>
            </Position>
            <AltitudeMeters>1022.5999755859375</AltitudeMeters>
            <DistanceMeters>27104.476129305</DistanceMeters>
          </Trackpoint>
          <Trackpoint>
            <Time>2022-08-27T06:38:49.000Z</Time>
            <Position>
              <LatitudeDegrees>50.21728604100644588470458984375</LatitudeDegrees>
              <LongitudeDegrees>17.0277325250208377838134765625</LongitudeDegrees>
            </Position>
            <AltitudeMeters>1021.79998779296875</AltitudeMeters>
            <DistanceMeters>27106.299057754</DistanceMeters>
          </Trackpoint>
          <Trackpoint>
            <Time>2022-08-27T06:38:53.000Z</Time>
            <Position>
              <LatitudeDegrees>50.21728956140577793121337890625</LatitudeDegrees>
              <LongitudeDegrees>17.027734033763408660888671875</LongitudeDegrees>
            </Position>
            <AltitudeMeters>1021.4000244140625</AltitudeMeters>
            <DistanceMeters>27106.702221959</DistanceMeters>
          </Trackpoint>
          <Trackpoint>
            <Time>2022-08-27T06:38:57.000Z</Time>
            <Position>
              <LatitudeDegrees>50.21727916784584522247314453125</LatitudeDegrees>
              <LongitudeDegrees>17.0277425833046436309814453125</LongitudeDegrees>
            </Position>
            <AltitudeMeters>1021</AltitudeMeters>
            <DistanceMeters>27108.008623294</DistanceMeters>
          </Trackpoint>
          <Trackpoint>
            <Time>2022-08-27T06:39:04.000Z</Time>
            <Position>
              <LatitudeDegrees>50.217266343533992767333984375</LatitudeDegrees>
              <LongitudeDegrees>17.0277553237974643707275390625</LongitudeDegrees>
            </Position>
            <AltitudeMeters>1020</AltitudeMeters>
            <DistanceMeters>27109.703192357</DistanceMeters>
          </Trackpoint>
          <Trackpoint>
            <Time>2022-08-27T06:39:12.000Z</Time>
            <Position>
              <LatitudeDegrees>50.2172567881643772125244140625</LatitudeDegrees>
              <LongitudeDegrees>17.02777669765055179595947265625</LongitudeDegrees>
            </Position>
            <AltitudeMeters>1019.4000244140625</AltitudeMeters>
            <DistanceMeters>27111.560472411</DistanceMeters>
          </Trackpoint>
          <Trackpoint>
            <Time>2022-08-27T06:39:15.000Z</Time>
            <Position>
              <LatitudeDegrees>50.2172519266605377197265625</LatitudeDegrees>
              <LongitudeDegrees>17.02777929604053497314453125</LongitudeDegrees>
            </Position>
            <AltitudeMeters>1019</AltitudeMeters>
            <DistanceMeters>27112.130632697</DistanceMeters>
          </Trackpoint>
          <Trackpoint>
            <Time>2022-08-27T06:39:23.000Z</Time>
            <Position>
              <LatitudeDegrees>50.2172480709850788116455078125</LatitudeDegrees>
              <LongitudeDegrees>17.02780720777809619903564453125</LongitudeDegrees>
            </Position>
            <AltitudeMeters>1018.4000244140625</AltitudeMeters>
            <DistanceMeters>27114.164293193</DistanceMeters>
          </Trackpoint>
          <Trackpoint>
            <Time>2022-08-27T06:39:29.000Z</Time>
            <Position>
              <LatitudeDegrees>50.2172477357089519500732421875</LatitudeDegrees>
              <LongitudeDegrees>17.0278542302548885345458984375</LongitudeDegrees>
            </Position>
            <AltitudeMeters>1017.5999755859375</AltitudeMeters>
            <DistanceMeters>27117.513226597</DistanceMeters>
          </Trackpoint>
          <Trackpoint>
            <Time>2022-08-27T06:39:34.000Z</Time>
            <Position>
              <LatitudeDegrees>50.2172383479773998260498046875</LatitudeDegrees>
              <LongitudeDegrees>17.0278887636959552764892578125</LongitudeDegrees>
            </Position>
            <AltitudeMeters>1017.20001220703125</AltitudeMeters>
            <DistanceMeters>27120.187515389</DistanceMeters>
          </Trackpoint>
          <Trackpoint>
            <Time>2022-08-27T06:39:41.000Z</Time>
            <Position>
              <LatitudeDegrees>50.217191241681575775146484375</LatitudeDegrees>
              <LongitudeDegrees>17.0279491133987903594970703125</LongitudeDegrees>
            </Position>
            <AltitudeMeters>1016.5999755859375</AltitudeMeters>
            <DistanceMeters>27126.967123718</DistanceMeters>
          </Trackpoint>
          <Trackpoint>
            <Time>2022-08-27T06:39:46.000Z</Time>
            <Position>
              <LatitudeDegrees>50.2171766571700572967529296875</LatitudeDegrees>
              <LongitudeDegrees>17.0279823057353496551513671875</LongitudeDegrees>
            </Position>
            <AltitudeMeters>1016.4000244140625</AltitudeMeters>
            <DistanceMeters>27129.833719184</DistanceMeters>
          </Trackpoint>
          <Trackpoint>
            <Time>2022-08-27T06:40:00.000Z</Time>
            <Position>
              <LatitudeDegrees>50.2171595580875873565673828125</LatitudeDegrees>
              <LongitudeDegrees>17.02799781225621700286865234375</LongitudeDegrees>
            </Position>
            <AltitudeMeters>1015.5999755859375</AltitudeMeters>
            <DistanceMeters>27132.029638313</DistanceMeters>
          </Trackpoint>
          <Trackpoint>
            <Time>2022-08-27T06:40:03.000Z</Time>
            <Position>
              <LatitudeDegrees>50.21715997718274593353271484375</LatitudeDegrees>
              <LongitudeDegrees>17.02799479477107524871826171875</LongitudeDegrees>
            </Position>
            <AltitudeMeters>1015.4000244140625</AltitudeMeters>
            <DistanceMeters>27132.219691742</DistanceMeters>
          </Trackpoint>
          <Trackpoint>
            <Time>2022-08-27T06:40:17.000Z</Time>
            <Position>
              <LatitudeDegrees>50.2171575464308261871337890625</LatitudeDegrees>
              <LongitudeDegrees>17.02799747698009014129638671875</LongitudeDegrees>
            </Position>
            <AltitudeMeters>1014.20001220703125</AltitudeMeters>
            <DistanceMeters>27132.548873937</DistanceMeters>
          </Trackpoint>
          <Trackpoint>
            <Time>2022-08-27T06:40:19.000Z</Time>
            <Position>
              <LatitudeDegrees>50.21715578623116016387939453125</LatitudeDegrees>
              <LongitudeDegrees>17.027995549142360687255859375</LongitudeDegrees>
            </Position>
            <AltitudeMeters>1014</AltitudeMeters>
            <DistanceMeters>27132.781640899</DistanceMeters>
          </Trackpoint>
          <Trackpoint>
            <Time>2022-08-27T06:40:32.000Z</Time>
            <Position>
              <LatitudeDegrees>50.21714254282414913177490234375</LatitudeDegrees>
              <LongitudeDegrees>17.02805019915103912353515625</LongitudeDegrees>
            </Position>
            <AltitudeMeters>1013.5999755859375</AltitudeMeters>
            <DistanceMeters>27136.94441842</DistanceMeters>
          </Trackpoint>
          <Trackpoint>
            <Time>2022-08-27T06:40:46.000Z</Time>
            <Position>
              <LatitudeDegrees>50.217136256396770477294921875</LatitudeDegrees>
              <LongitudeDegrees>17.02808682806789875030517578125</LongitudeDegrees>
            </Position>
            <AltitudeMeters>1013.20001220703125</AltitudeMeters>
            <DistanceMeters>27139.647256159</DistanceMeters>
          </Trackpoint>
          <Trackpoint>
            <Time>2022-08-27T06:40:52.000Z</Time>
            <Position>
              <LatitudeDegrees>50.2171270363032817840576171875</LatitudeDegrees>
              <LongitudeDegrees>17.028104849159717559814453125</LongitudeDegrees>
            </Position>
            <AltitudeMeters>1012.79998779296875</AltitudeMeters>
            <DistanceMeters>27141.293167133</DistanceMeters>
          </Trackpoint>
          <Trackpoint>
            <Time>2022-08-27T06:40:56.000Z</Time>
            <Position>
              <LatitudeDegrees>50.2171179838478565216064453125</LatitudeDegrees>
              <LongitudeDegrees>17.02810250222682952880859375</LongitudeDegrees>
            </Position>
            <AltitudeMeters>1012</AltitudeMeters>
            <DistanceMeters>27142.316636169</DistanceMeters>
          </Trackpoint>
          <Trackpoint>
            <Time>2022-08-27T06:41:04.000Z</Time>
            <Position>
              <LatitudeDegrees>50.2171210013329982757568359375</LatitudeDegrees>
              <LongitudeDegrees>17.02812823466956615447998046875</LongitudeDegrees>
            </Position>
            <AltitudeMeters>1011.4000244140625</AltitudeMeters>
            <DistanceMeters>27144.181194945</DistanceMeters>
          </Trackpoint>
          <Trackpoint>
            <Time>2022-08-27T06:41:07.000Z</Time>
            <Position>
              <LatitudeDegrees>50.217128209769725799560546875</LatitudeDegrees>
              <LongitudeDegrees>17.0281315036118030548095703125</LongitudeDegrees>
            </Position>
            <AltitudeMeters>1011.20001220703125</AltitudeMeters>
            <DistanceMeters>27145.020448163</DistanceMeters>
          </Trackpoint>
          <Trackpoint>
            <Time>2022-08-27T06:41:14.000Z</Time>
            <Position>
              <LatitudeDegrees>50.21713550202548503875732421875</LatitudeDegrees>
              <LongitudeDegrees>17.02813661657273769378662109375</LongitudeDegrees>
            </Position>
            <AltitudeMeters>1010.20001220703125</AltitudeMeters>
            <DistanceMeters>27145.91187776</DistanceMeters>
          </Trackpoint>
          <Trackpoint>
            <Time>2022-08-27T06:41:21.000Z</Time>
            <Position>
              <LatitudeDegrees>50.21713064052164554595947265625</LatitudeDegrees>
              <LongitudeDegrees>17.02814181335270404815673828125</LongitudeDegrees>
            </Position>
            <AltitudeMeters>1009.79998779296875</AltitudeMeters>
            <DistanceMeters>27146.57024215</DistanceMeters>
          </Trackpoint>
          <Trackpoint>
            <Time>2022-08-27T06:41:27.000Z</Time>
            <Position>
              <LatitudeDegrees>50.2171401120722293853759765625</LatitudeDegrees>
              <LongitudeDegrees>17.028159834444522857666015625</LongitudeDegrees>
            </Position>
            <AltitudeMeters>1009.20001220703125</AltitudeMeters>
            <DistanceMeters>27148.22981237</DistanceMeters>
          </Trackpoint>
          <Trackpoint>
            <Time>2022-08-27T06:41:32.000Z</Time>
            <Position>
              <LatitudeDegrees>50.21716148592531681060791015625</LatitudeDegrees>
              <LongitudeDegrees>17.028179280459880828857421875</LongitudeDegrees>
            </Position>
            <AltitudeMeters>1008.5999755859375</AltitudeMeters>
            <DistanceMeters>27150.983948207</DistanceMeters>
          </Trackpoint>
          <Trackpoint>
            <Time>2022-08-27T06:41:43.000Z</Time>
            <Position>
              <LatitudeDegrees>50.21716131828725337982177734375</LatitudeDegrees>
              <LongitudeDegrees>17.02819545753300189971923828125</LongitudeDegrees>
            </Position>
            <AltitudeMeters>1008.20001220703125</AltitudeMeters>
            <DistanceMeters>27152.132160366</DistanceMeters>
          </Trackpoint>
          <Trackpoint>
            <Time>2022-08-27T06:41:54.000Z</Time>
            <Position>
              <LatitudeDegrees>50.2171535231173038482666015625</LatitudeDegrees>
              <LongitudeDegrees>17.02819964848458766937255859375</LongitudeDegrees>
            </Position>
            <AltitudeMeters>1008</AltitudeMeters>
            <DistanceMeters>27153.048564812</DistanceMeters>
          </Trackpoint>
          <Trackpoint>
            <Time>2022-08-27T06:42:08.000Z</Time>
            <Position>
              <LatitudeDegrees>50.2171454764902591705322265625</LatitudeDegrees>
              <LongitudeDegrees>17.02820115722715854644775390625</LongitudeDegrees>
            </Position>
            <AltitudeMeters>1008</AltitudeMeters>
            <DistanceMeters>27153.95006738</DistanceMeters>
          </Trackpoint>
          <Trackpoint>
            <Time>2022-08-27T06:42:20.000Z</Time>
            <Position>
              <LatitudeDegrees>50.21712929941713809967041015625</LatitudeDegrees>
              <LongitudeDegrees>17.02821238897740840911865234375</LongitudeDegrees>
            </Position>
            <AltitudeMeters>1008</AltitudeMeters>
            <DistanceMeters>27155.92058327</DistanceMeters>
          </Trackpoint>
          <Trackpoint>
            <Time>2022-08-27T06:42:30.000Z</Time>
            <Position>
              <LatitudeDegrees>50.21711370907723903656005859375</LatitudeDegrees>
              <LongitudeDegrees>17.0282196812331676483154296875</LongitudeDegrees>
            </Position>
            <AltitudeMeters>1008.20001220703125</AltitudeMeters>
            <DistanceMeters>27157.73357743</DistanceMeters>
          </Trackpoint>
          <Trackpoint>
            <Time>2022-08-27T06:42:45.000Z</Time>
            <Position>
              <LatitudeDegrees>50.217117480933666229248046875</LatitudeDegrees>
              <LongitudeDegrees>17.02821649610996246337890625</LongitudeDegrees>
            </Position>
            <AltitudeMeters>1007.79998779296875</AltitudeMeters>
            <DistanceMeters>27158.208711002</DistanceMeters>
          </Trackpoint>
          <Trackpoint>
            <Time>2022-08-27T06:42:55.000Z</Time>
            <Position>
              <LatitudeDegrees>50.2171236835420131683349609375</LatitudeDegrees>
              <LongitudeDegrees>17.02822429127991199493408203125</LongitudeDegrees>
            </Position>
            <AltitudeMeters>1008</AltitudeMeters>
            <DistanceMeters>27159.100140599</DistanceMeters>
          </Trackpoint>
          <Trackpoint>
            <Time>2022-08-27T06:43:06.000Z</Time>
            <Position>
              <LatitudeDegrees>50.2171977795660495758056640625</LatitudeDegrees>
              <LongitudeDegrees>17.0282485149800777435302734375</LongitudeDegrees>
            </Position>
            <AltitudeMeters>1008.79998779296875</AltitudeMeters>
            <DistanceMeters>27167.525425813</DistanceMeters>
          </Trackpoint>
          <Trackpoint>
            <Time>2022-08-27T06:43:10.000Z</Time>
            <Position>
              <LatitudeDegrees>50.217215716838836669921875</LatitudeDegrees>
              <LongitudeDegrees>17.02826452441513538360595703125</LongitudeDegrees>
            </Position>
            <AltitudeMeters>1009</AltitudeMeters>
            <DistanceMeters>27169.825779002</DistanceMeters>
          </Trackpoint>
          <Trackpoint>
            <Time>2022-08-27T06:43:16.000Z</Time>
            <Position>
              <LatitudeDegrees>50.21722636185586452484130859375</LatitudeDegrees>
              <LongitudeDegrees>17.02826972119510173797607421875</LongitudeDegrees>
            </Position>
            <AltitudeMeters>1009.5999755859375</AltitudeMeters>
            <DistanceMeters>27171.064775772</DistanceMeters>
          </Trackpoint>
          <Trackpoint>
            <Time>2022-08-27T06:43:20.000Z</Time>
            <Position>
              <LatitudeDegrees>50.21722502075135707855224609375</LatitudeDegrees>
              <LongitudeDegrees>17.02826955355703830718994140625</LongitudeDegrees>
            </Position>
            <AltitudeMeters>1010</AltitudeMeters>
            <DistanceMeters>27171.19916384</DistanceMeters>
          </Trackpoint>
          <Trackpoint>
            <Time>2022-08-27T06:43:27.000Z</Time>
            <Position>
              <LatitudeDegrees>50.2171917445957660675048828125</LatitudeDegrees>
              <LongitudeDegrees>17.02825480140745639801025390625</LongitudeDegrees>
            </Position>
            <AltitudeMeters>1011</AltitudeMeters>
            <DistanceMeters>27175.048625548</DistanceMeters>
          </Trackpoint>
          <Trackpoint>
            <Time>2022-08-27T06:43:35.000Z</Time>
            <Position>
              <LatitudeDegrees>50.21713717840611934661865234375</LatitudeDegrees>
              <LongitudeDegrees>17.02820903621613979339599609375</LongitudeDegrees>
            </Position>
            <AltitudeMeters>1012</AltitudeMeters>
            <DistanceMeters>27181.94051949</DistanceMeters>
          </Trackpoint>
          <Trackpoint>
            <Time>2022-08-27T06:43:38.000Z</Time>
            <Position>
              <LatitudeDegrees>50.21713516674935817718505859375</LatitudeDegrees>
              <LongitudeDegrees>17.0282042585313320159912109375</LongitudeDegrees>
            </Position>
            <AltitudeMeters>1012.5999755859375</AltitudeMeters>
            <DistanceMeters>27182.343683694</DistanceMeters>
          </Trackpoint>
          <Trackpoint>
            <Time>2022-08-27T06:43:41.000Z</Time>
            <Position>
              <LatitudeDegrees>50.217138268053531646728515625</LatitudeDegrees>
              <LongitudeDegrees>17.02820501290261745452880859375</LongitudeDegrees>
            </Position>
            <AltitudeMeters>1013.20001220703125</AltitudeMeters>
            <DistanceMeters>27182.699241102</DistanceMeters>
          </Trackpoint>
          <Trackpoint>
            <Time>2022-08-27T06:43:47.000Z</Time>
            <Position>
              <LatitudeDegrees>50.21712678484618663787841796875</LatitudeDegrees>
              <LongitudeDegrees>17.0281975530087947845458984375</LongitudeDegrees>
            </Position>
            <AltitudeMeters>1014.4000244140625</AltitudeMeters>
            <DistanceMeters>27184.082850948</DistanceMeters>
          </Trackpoint>
          <Trackpoint>
            <Time>2022-08-27T06:43:51.000Z</Time>
            <Position>
              <LatitudeDegrees>50.2171179838478565216064453125</LatitudeDegrees>
              <LongitudeDegrees>17.02820400707423686981201171875</LongitudeDegrees>
            </Position>
            <AltitudeMeters>1014.79998779296875</AltitudeMeters>
            <DistanceMeters>27185.166322193</DistanceMeters>
          </Trackpoint>
          <Trackpoint>
            <Time>2022-08-27T06:43:58.000Z</Time>
            <Position>
              <LatitudeDegrees>50.21711287088692188262939453125</LatitudeDegrees>
              <LongitudeDegrees>17.0282062701880931854248046875</LongitudeDegrees>
            </Position>
            <AltitudeMeters>1015.4000244140625</AltitudeMeters>
            <DistanceMeters>27185.767323905</DistanceMeters>
          </Trackpoint>
          <Trackpoint>
            <Time>2022-08-27T06:44:02.000Z</Time>
            <Position>
              <LatitudeDegrees>50.21711790002882480621337890625</LatitudeDegrees>
              <LongitudeDegrees>17.02819210477173328399658203125</LongitudeDegrees>
            </Position>
            <AltitudeMeters>1015.79998779296875</AltitudeMeters>
            <DistanceMeters>27186.92337378</DistanceMeters>
          </Trackpoint>
          <Trackpoint>
            <Time>2022-08-27T06:44:05.000Z</Time>
            <Position>
              <LatitudeDegrees>50.21712024696171283721923828125</LatitudeDegrees>
              <LongitudeDegrees>17.02818338759243488311767578125</LongitudeDegrees>
            </Position>
            <AltitudeMeters>1016.4000244140625</AltitudeMeters>
            <DistanceMeters>27187.595314121</DistanceMeters>
          </Trackpoint>
          <Trackpoint>
            <Time>2022-08-27T06:44:11.000Z</Time>
            <Position>
              <LatitudeDegrees>50.21711689420044422149658203125</LatitudeDegrees>
              <LongitudeDegrees>17.02815949916839599609375</LongitudeDegrees>
            </Position>
            <AltitudeMeters>1017.5999755859375</AltitudeMeters>
            <DistanceMeters>27189.337182568</DistanceMeters>
          </Trackpoint>
          <Trackpoint>
            <Time>2022-08-27T06:44:17.000Z</Time>
            <Position>
              <LatitudeDegrees>50.21711052395403385162353515625</LatitudeDegrees>
              <LongitudeDegrees>17.02815346419811248779296875</LongitudeDegrees>
            </Position>
            <AltitudeMeters>1018.4000244140625</AltitudeMeters>
            <DistanceMeters>27190.165606257</DistanceMeters>
          </Trackpoint>
          <Trackpoint>
            <Time>2022-08-27T06:44:19.000Z</Time>
            <Position>
              <LatitudeDegrees>50.21711002103984355926513671875</LatitudeDegrees>
              <LongitudeDegrees>17.0281539671123027801513671875</LongitudeDegrees>
            </Position>
            <AltitudeMeters>1018.5999755859375</AltitudeMeters>
            <DistanceMeters>27190.299994326</DistanceMeters>
          </Trackpoint>
          <Trackpoint>
            <Time>2022-08-27T06:44:29.000Z</Time>
            <Position>
              <LatitudeDegrees>50.217110775411128997802734375</LatitudeDegrees>
              <LongitudeDegrees>17.0281420648097991943359375</LongitudeDegrees>
            </Position>
            <AltitudeMeters>1019.4000244140625</AltitudeMeters>
            <DistanceMeters>27191.160497823</DistanceMeters>
          </Trackpoint>
          <Trackpoint>
            <Time>2022-08-27T06:44:34.000Z</Time>
            <Position>
              <LatitudeDegrees>50.21710566245019435882568359375</LatitudeDegrees>
              <LongitudeDegrees>17.02813946641981601715087890625</LongitudeDegrees>
            </Position>
            <AltitudeMeters>1019.79998779296875</AltitudeMeters>
            <DistanceMeters>27191.761499534</DistanceMeters>
          </Trackpoint>
          <Trackpoint>
            <Time>2022-08-27T06:44:39.000Z</Time>
            <Position>
              <LatitudeDegrees>50.21711186505854129791259765625</LatitudeDegrees>
              <LongitudeDegrees>17.0281340181827545166015625</LongitudeDegrees>
            </Position>
            <AltitudeMeters>1019.5999755859375</AltitudeMeters>
            <DistanceMeters>27192.550850708</DistanceMeters>
          </Trackpoint>
          <Trackpoint>
            <Time>2022-08-27T06:44:52.000Z</Time>
            <Position>
              <LatitudeDegrees>50.21712309680879116058349609375</LatitudeDegrees>
              <LongitudeDegrees>17.02811029739677906036376953125</LongitudeDegrees>
            </Position>
            <AltitudeMeters>1020</AltitudeMeters>
            <DistanceMeters>27194.650059441</DistanceMeters>
          </Trackpoint>
          <Trackpoint>
            <Time>2022-08-27T06:45:00.000Z</Time>
            <Position>
              <LatitudeDegrees>50.21712276153266429901123046875</LatitudeDegrees>
              <LongitudeDegrees>17.02810996212065219879150390625</LongitudeDegrees>
            </Position>
            <AltitudeMeters>1020.5999755859375</AltitudeMeters>
            <DistanceMeters>27194.650059441</DistanceMeters>
          </Trackpoint>
          <Trackpoint>
            <Time>2022-08-27T06:45:03.000Z</Time>
            <Position>
              <LatitudeDegrees>50.217132903635501861572265625</LatitudeDegrees>
              <LongitudeDegrees>17.02809453941881656646728515625</LongitudeDegrees>
            </Position>
            <AltitudeMeters>1020.79998779296875</AltitudeMeters>
            <DistanceMeters>27196.223031451</DistanceMeters>
          </Trackpoint>
          <Trackpoint>
            <Time>2022-08-27T06:45:13.000Z</Time>
            <Position>
              <LatitudeDegrees>50.21712628193199634552001953125</LatitudeDegrees>
              <LongitudeDegrees>17.028070986270904541015625</LongitudeDegrees>
            </Position>
            <AltitudeMeters>1021.5999755859375</AltitudeMeters>
            <DistanceMeters>27198.055840344</DistanceMeters>
          </Trackpoint>
          <Trackpoint>
            <Time>2022-08-27T06:45:16.000Z</Time>
            <Position>
              <LatitudeDegrees>50.217136926949024200439453125</LatitudeDegrees>
              <LongitudeDegrees>17.0280493609607219696044921875</LongitudeDegrees>
            </Position>
            <AltitudeMeters>1022</AltitudeMeters>
            <DistanceMeters>27199.998666109</DistanceMeters>
          </Trackpoint>
          <Trackpoint>
            <Time>2022-08-27T06:45:23.000Z</Time>
            <Position>
              <LatitudeDegrees>50.2171153016388416290283203125</LatitudeDegrees>
              <LongitudeDegrees>17.02799697406589984893798828125</LongitudeDegrees>
            </Position>
            <AltitudeMeters>1022.79998779296875</AltitudeMeters>
            <DistanceMeters>27204.439576709</DistanceMeters>
          </Trackpoint>
          <Trackpoint>
            <Time>2022-08-27T06:45:29.000Z</Time>
            <Position>
              <LatitudeDegrees>50.21708068437874317169189453125</LatitudeDegrees>
              <LongitudeDegrees>17.02797283418476581573486328125</LongitudeDegrees>
            </Position>
            <AltitudeMeters>1023.4000244140625</AltitudeMeters>
            <DistanceMeters>27208.658377566</DistanceMeters>
          </Trackpoint>
          <Trackpoint>
            <Time>2022-08-27T06:45:39.000Z</Time>
            <Position>
              <LatitudeDegrees>50.21706308238208293914794921875</LatitudeDegrees>
              <LongitudeDegrees>17.027935869991779327392578125</LongitudeDegrees>
            </Position>
            <AltitudeMeters>1023.79998779296875</AltitudeMeters>
            <DistanceMeters>27211.939208424</DistanceMeters>
          </Trackpoint>
          <Trackpoint>
            <Time>2022-08-27T06:45:41.000Z</Time>
            <Position>
              <LatitudeDegrees>50.21706073544919490814208984375</LatitudeDegrees>
              <LongitudeDegrees>17.02793813310563564300537109375</LongitudeDegrees>
            </Position>
            <AltitudeMeters>1023.79998779296875</AltitudeMeters>
            <DistanceMeters>27212.254376381</DistanceMeters>
          </Trackpoint>
          <Trackpoint>
            <Time>2022-08-27T06:45:49.000Z</Time>
            <Position>
              <LatitudeDegrees>50.2170512638986110687255859375</LatitudeDegrees>
              <LongitudeDegrees>17.0279186032712459564208984375</LongitudeDegrees>
            </Position>
            <AltitudeMeters>1024.5999755859375</AltitudeMeters>
            <DistanceMeters>27214.001421268</DistanceMeters>
          </Trackpoint>
          <Trackpoint>
            <Time>2022-08-27T06:45:53.000Z</Time>
            <Position>
              <LatitudeDegrees>50.21704715676605701446533203125</LatitudeDegrees>
              <LongitudeDegrees>17.02790133655071258544921875</LongitudeDegrees>
            </Position>
            <AltitudeMeters>1025</AltitudeMeters>
            <DistanceMeters>27215.314716589</DistanceMeters>
          </Trackpoint>
          <Trackpoint>
            <Time>2022-08-27T06:45:58.000Z</Time>
            <Position>
              <LatitudeDegrees>50.2170227654278278350830078125</LatitudeDegrees>
              <LongitudeDegrees>17.02787644229829311370849609375</LongitudeDegrees>
            </Position>
            <AltitudeMeters>1025.5999755859375</AltitudeMeters>
            <DistanceMeters>27218.556785216</DistanceMeters>
          </Trackpoint>
          <Trackpoint>
            <Time>2022-08-27T06:46:06.000Z</Time>
            <Position>
              <LatitudeDegrees>50.21700876764953136444091796875</LatitudeDegrees>
              <LongitudeDegrees>17.0278867520391941070556640625</LongitudeDegrees>
            </Position>
            <AltitudeMeters>1026.4000244140625</AltitudeMeters>
            <DistanceMeters>27220.27779221</DistanceMeters>
          </Trackpoint>
          <Trackpoint>
            <Time>2022-08-27T06:46:08.000Z</Time>
            <Position>
              <LatitudeDegrees>50.2170053310692310333251953125</LatitudeDegrees>
              <LongitudeDegrees>17.0278818905353546142578125</LongitudeDegrees>
            </Position>
            <AltitudeMeters>1026.5999755859375</AltitudeMeters>
            <DistanceMeters>27220.79827496</DistanceMeters>
          </Trackpoint>
          <Trackpoint>
            <Time>2022-08-27T06:46:17.000Z</Time>
            <Position>
              <LatitudeDegrees>50.21698865108191967010498046875</LatitudeDegrees>
              <LongitudeDegrees>17.02784366905689239501953125</LongitudeDegrees>
            </Position>
            <AltitudeMeters>1027.5999755859375</AltitudeMeters>
            <DistanceMeters>27224.09283895</DistanceMeters>
          </Trackpoint>
          <Trackpoint>
            <Time>2022-08-27T06:46:18.000Z</Time>
            <Position>
              <LatitudeDegrees>50.2169885672628879547119140625</LatitudeDegrees>
              <LongitudeDegrees>17.02784224413335323333740234375</LongitudeDegrees>
            </Position>
            <AltitudeMeters>1027.800048828125</AltitudeMeters>
            <DistanceMeters>27224.09283895</DistanceMeters>
          </Trackpoint>
          <Trackpoint>
            <Time>2022-08-27T06:46:31.000Z</Time>
            <Position>
              <LatitudeDegrees>50.21696853451430797576904296875</LatitudeDegrees>
              <LongitudeDegrees>17.02780871652066707611083984375</LongitudeDegrees>
            </Position>
            <AltitudeMeters>1028.199951171875</AltitudeMeters>
            <DistanceMeters>27227.35987895</DistanceMeters>
          </Trackpoint>
          <Trackpoint>
            <Time>2022-08-27T06:46:35.000Z</Time>
            <Position>
              <LatitudeDegrees>50.2169701270759105682373046875</LatitudeDegrees>
              <LongitudeDegrees>17.02779480256140232086181640625</LongitudeDegrees>
            </Position>
            <AltitudeMeters>1028.5999755859375</AltitudeMeters>
            <DistanceMeters>27228.370026779</DistanceMeters>
          </Trackpoint>
          <Trackpoint>
            <Time>2022-08-27T06:46:46.000Z</Time>
            <Position>
              <LatitudeDegrees>50.2169832028448581695556640625</LatitudeDegrees>
              <LongitudeDegrees>17.027774937450885772705078125</LongitudeDegrees>
            </Position>
            <AltitudeMeters>1029.4000244140625</AltitudeMeters>
            <DistanceMeters>27230.39924211</DistanceMeters>
          </Trackpoint>
          <Trackpoint>
            <Time>2022-08-27T06:46:52.000Z</Time>
            <Position>
              <LatitudeDegrees>50.21699954755604267120361328125</LatitudeDegrees>
              <LongitudeDegrees>17.027738057076930999755859375</LongitudeDegrees>
            </Position>
            <AltitudeMeters>1029.5999755859375</AltitudeMeters>
            <DistanceMeters>27233.593610026</DistanceMeters>
          </Trackpoint>
          <Trackpoint>
            <Time>2022-08-27T06:46:56.000Z</Time>
            <Position>
              <LatitudeDegrees>50.21699870936572551727294921875</LatitudeDegrees>
              <LongitudeDegrees>17.02772489748895168304443359375</LongitudeDegrees>
            </Position>
            <AltitudeMeters>1030</AltitudeMeters>
            <DistanceMeters>27234.534326504</DistanceMeters>
          </Trackpoint>
          <Trackpoint>
            <Time>2022-08-27T06:47:00.000Z</Time>
            <Position>
              <LatitudeDegrees>50.21699803881347179412841796875</LatitudeDegrees>
              <LongitudeDegrees>17.02770017087459564208984375</LongitudeDegrees>
            </Position>
            <AltitudeMeters>1030.5999755859375</AltitudeMeters>
            <DistanceMeters>27236.296809496</DistanceMeters>
          </Trackpoint>
          <Trackpoint>
            <Time>2022-08-27T06:47:07.000Z</Time>
            <Position>
              <LatitudeDegrees>50.21698127500712871551513671875</LatitudeDegrees>
              <LongitudeDegrees>17.02764862217009067535400390625</LongitudeDegrees>
            </Position>
            <AltitudeMeters>1031.4000244140625</AltitudeMeters>
            <DistanceMeters>27240.414877436</DistanceMeters>
          </Trackpoint>
          <Trackpoint>
            <Time>2022-08-27T06:47:09.000Z</Time>
            <Position>
              <LatitudeDegrees>50.216976664960384368896484375</LatitudeDegrees>
              <LongitudeDegrees>17.0276363007724285125732421875</LongitudeDegrees>
            </Position>
            <AltitudeMeters>1031.5999755859375</AltitudeMeters>
            <DistanceMeters>27241.429485101</DistanceMeters>
          </Trackpoint>
          <Trackpoint>
            <Time>2022-08-27T06:47:17.000Z</Time>
            <Position>
              <LatitudeDegrees>50.21695026196539402008056640625</LatitudeDegrees>
              <LongitudeDegrees>17.0276024378836154937744140625</LongitudeDegrees>
            </Position>
            <AltitudeMeters>1032.5999755859375</AltitudeMeters>
            <DistanceMeters>27245.230553676</DistanceMeters>
          </Trackpoint>
          <Trackpoint>
            <Time>2022-08-27T06:47:18.000Z</Time>
            <Position>
              <LatitudeDegrees>50.21694087423384189605712890625</LatitudeDegrees>
              <LongitudeDegrees>17.027590535581111907958984375</LongitudeDegrees>
            </Position>
            <AltitudeMeters>1032.800048828125</AltitudeMeters>
            <DistanceMeters>27246.574434359</DistanceMeters>
          </Trackpoint>
          <Trackpoint>
            <Time>2022-08-27T06:47:25.000Z</Time>
            <Position>
              <LatitudeDegrees>50.2169282175600528717041015625</LatitudeDegrees>
              <LongitudeDegrees>17.02756228856742382049560546875</LongitudeDegrees>
            </Position>
            <AltitudeMeters>1032.800048828125</AltitudeMeters>
            <DistanceMeters>27249.030465927</DistanceMeters>
          </Trackpoint>
          <Trackpoint>
            <Time>2022-08-27T06:47:34.000Z</Time>
            <Position>
              <LatitudeDegrees>50.21691237576305866241455078125</LatitudeDegrees>
              <LongitudeDegrees>17.027563713490962982177734375</LongitudeDegrees>
            </Position>
            <AltitudeMeters>1033.800048828125</AltitudeMeters>
            <DistanceMeters>27250.795508808</DistanceMeters>
          </Trackpoint>
          <Trackpoint>
            <Time>2022-08-27T06:47:35.000Z</Time>
            <Position>
              <LatitudeDegrees>50.216910280287265777587890625</LatitudeDegrees>
              <LongitudeDegrees>17.02756077982485294342041015625</LongitudeDegrees>
            </Position>
            <AltitudeMeters>1033.800048828125</AltitudeMeters>
            <DistanceMeters>27251.096009664</DistanceMeters>
          </Trackpoint>
          <Trackpoint>
            <Time>2022-08-27T06:47:45.000Z</Time>
            <Position>
              <LatitudeDegrees>50.21691807545721530914306640625</LatitudeDegrees>
              <LongitudeDegrees>17.02752842567861080169677734375</LongitudeDegrees>
            </Position>
            <AltitudeMeters>1034.199951171875</AltitudeMeters>
            <DistanceMeters>27253.559383645</DistanceMeters>
          </Trackpoint>
          <Trackpoint>
            <Time>2022-08-27T06:47:55.000Z</Time>
            <Position>
              <LatitudeDegrees>50.21690835244953632354736328125</LatitudeDegrees>
              <LongitudeDegrees>17.02748819254338741302490234375</LongitudeDegrees>
            </Position>
            <AltitudeMeters>1034.5999755859375</AltitudeMeters>
            <DistanceMeters>27256.623903102</DistanceMeters>
          </Trackpoint>
          <Trackpoint>
            <Time>2022-08-27T06:47:56.000Z</Time>
            <Position>
              <LatitudeDegrees>50.21690784953534603118896484375</LatitudeDegrees>
              <LongitudeDegrees>17.02748366631567478179931640625</LongitudeDegrees>
            </Position>
            <AltitudeMeters>1034.800048828125</AltitudeMeters>
            <DistanceMeters>27256.953085297</DistanceMeters>
          </Trackpoint>
          <Trackpoint>
            <Time>2022-08-27T06:48:06.000Z</Time>
            <Position>
              <LatitudeDegrees>50.2168990485370159149169921875</LatitudeDegrees>
              <LongitudeDegrees>17.0274622924625873565673828125</LongitudeDegrees>
            </Position>
            <AltitudeMeters>1035.4000244140625</AltitudeMeters>
            <DistanceMeters>27258.763587368</DistanceMeters>
          </Trackpoint>
          <Trackpoint>
            <Time>2022-08-27T06:48:11.000Z</Time>
            <Position>
              <LatitudeDegrees>50.216886140406131744384765625</LatitudeDegrees>
              <LongitudeDegrees>17.02747084200382232666015625</LongitudeDegrees>
            </Position>
            <AltitudeMeters>1035.800048828125</AltitudeMeters>
            <DistanceMeters>27260.325035619</DistanceMeters>
          </Trackpoint>
          <Trackpoint>
            <Time>2022-08-27T06:48:15.000Z</Time>
            <Position>
              <LatitudeDegrees>50.21688069216907024383544921875</LatitudeDegrees>
              <LongitudeDegrees>17.0274741947650909423828125</LongitudeDegrees>
            </Position>
            <AltitudeMeters>1035.800048828125</AltitudeMeters>
            <DistanceMeters>27260.969538153</DistanceMeters>
          </Trackpoint>
          <Trackpoint>
            <Time>2022-08-27T06:48:27.000Z</Time>
            <Position>
              <LatitudeDegrees>50.21684347651898860931396484375</LatitudeDegrees>
              <LongitudeDegrees>17.02743605710566043853759765625</LongitudeDegrees>
            </Position>
            <AltitudeMeters>1036</AltitudeMeters>
            <DistanceMeters>27265.923702843</DistanceMeters>
          </Trackpoint>
          <Trackpoint>
            <Time>2022-08-27T06:48:37.000Z</Time>
            <Position>
              <LatitudeDegrees>50.21682076156139373779296875</LatitudeDegrees>
              <LongitudeDegrees>17.02739817090332508087158203125</LongitudeDegrees>
            </Position>
            <AltitudeMeters>1036.5999755859375</AltitudeMeters>
            <DistanceMeters>27269.62120683</DistanceMeters>
          </Trackpoint>
          <Trackpoint>
            <Time>2022-08-27T06:48:38.000Z</Time>
            <Position>
              <LatitudeDegrees>50.216813050210475921630859375</LatitudeDegrees>
              <LongitudeDegrees>17.0273982547223567962646484375</LongitudeDegrees>
            </Position>
            <AltitudeMeters>1036.5999755859375</AltitudeMeters>
            <DistanceMeters>27270.481710327</DistanceMeters>
          </Trackpoint>
          <Trackpoint>
            <Time>2022-08-27T06:48:47.000Z</Time>
            <Position>
              <LatitudeDegrees>50.21677960641682147979736328125</LatitudeDegrees>
              <LongitudeDegrees>17.0273724384605884552001953125</LongitudeDegrees>
            </Position>
            <AltitudeMeters>1037.800048828125</AltitudeMeters>
            <DistanceMeters>27274.632539865</DistanceMeters>
          </Trackpoint>
          <Trackpoint>
            <Time>2022-08-27T06:48:50.000Z</Time>
            <Position>
              <LatitudeDegrees>50.2167800255119800567626953125</LatitudeDegrees>
              <LongitudeDegrees>17.02735760249197483062744140625</LongitudeDegrees>
            </Position>
            <AltitudeMeters>1038</AltitudeMeters>
            <DistanceMeters>27275.690712573</DistanceMeters>
          </Trackpoint>
          <Trackpoint>
            <Time>2022-08-27T06:49:00.000Z</Time>
            <Position>
              <LatitudeDegrees>50.216774158179759979248046875</LatitudeDegrees>
              <LongitudeDegrees>17.0272864401340484619140625</LongitudeDegrees>
            </Position>
            <AltitudeMeters>1038.800048828125</AltitudeMeters>
            <DistanceMeters>27280.800994471</DistanceMeters>
          </Trackpoint>
          <Trackpoint>
            <Time>2022-08-27T06:49:01.000Z</Time>
            <Position>
              <LatitudeDegrees>50.21677373908460140228271484375</LatitudeDegrees>
              <LongitudeDegrees>17.027275376021862030029296875</LongitudeDegrees>
            </Position>
            <AltitudeMeters>1039</AltitudeMeters>
            <DistanceMeters>27281.596045004</DistanceMeters>
          </Trackpoint>
          <Trackpoint>
            <Time>2022-08-27T06:49:11.000Z</Time>
            <Position>
              <LatitudeDegrees>50.216730572283267974853515625</LatitudeDegrees>
              <LongitudeDegrees>17.02720236964523792266845703125</LongitudeDegrees>
            </Position>
            <AltitudeMeters>1040</AltitudeMeters>
            <DistanceMeters>27288.675375782</DistanceMeters>
          </Trackpoint>
          <Trackpoint>
            <Time>2022-08-27T06:49:20.000Z</Time>
            <Position>
              <LatitudeDegrees>50.21669109351933002471923828125</LatitudeDegrees>
              <LongitudeDegrees>17.0271561853587627410888671875</LongitudeDegrees>
            </Position>
            <AltitudeMeters>1041</AltitudeMeters>
            <DistanceMeters>27294.164762369</DistanceMeters>
          </Trackpoint>
          <Trackpoint>
            <Time>2022-08-27T06:49:22.000Z</Time>
            <Position>
              <LatitudeDegrees>50.216688998043537139892578125</LatitudeDegrees>
              <LongitudeDegrees>17.02714973129332065582275390625</LongitudeDegrees>
            </Position>
            <AltitudeMeters>1041.199951171875</AltitudeMeters>
            <DistanceMeters>27294.685245119</DistanceMeters>
          </Trackpoint>
          <Trackpoint>
            <Time>2022-08-27T06:49:33.000Z</Time>
            <Position>
              <LatitudeDegrees>50.216604508459568023681640625</LatitudeDegrees>
              <LongitudeDegrees>17.02712995000183582305908203125</LongitudeDegrees>
            </Position>
            <AltitudeMeters>1042</AltitudeMeters>
            <DistanceMeters>27304.194566099</DistanceMeters>
          </Trackpoint>
          <Trackpoint>
            <Time>2022-08-27T06:49:42.000Z</Time>
            <Position>
              <LatitudeDegrees>50.21656301803886890411376953125</LatitudeDegrees>
              <LongitudeDegrees>17.02709734439849853515625</LongitudeDegrees>
            </Position>
            <AltitudeMeters>1042</AltitudeMeters>
            <DistanceMeters>27309.364578312</DistanceMeters>
          </Trackpoint>
          <Trackpoint>
            <Time>2022-08-27T06:49:47.000Z</Time>
            <Position>
              <LatitudeDegrees>50.21654675714671611785888671875</LatitudeDegrees>
              <LongitudeDegrees>17.02707253396511077880859375</LongitudeDegrees>
            </Position>
            <AltitudeMeters>1042.199951171875</AltitudeMeters>
            <DistanceMeters>27311.893074727</DistanceMeters>
          </Trackpoint>
          <Trackpoint>
            <Time>2022-08-27T06:49:52.000Z</Time>
            <Position>
              <LatitudeDegrees>50.21653066389262676239013671875</LatitudeDegrees>
              <LongitudeDegrees>17.02703339047729969024658203125</LongitudeDegrees>
            </Position>
            <AltitudeMeters>1042.800048828125</AltitudeMeters>
            <DistanceMeters>27315.206769486</DistanceMeters>
          </Trackpoint>
          <Trackpoint>
            <Time>2022-08-27T06:49:55.000Z</Time>
            <Position>
              <LatitudeDegrees>50.21651188842952251434326171875</LatitudeDegrees>
              <LongitudeDegrees>17.027015201747417449951171875</LongitudeDegrees>
            </Position>
            <AltitudeMeters>1043</AltitudeMeters>
            <DistanceMeters>27317.664638714</DistanceMeters>
          </Trackpoint>
          <Trackpoint>
            <Time>2022-08-27T06:50:00.000Z</Time>
            <Position>
              <LatitudeDegrees>50.21649487316608428955078125</LatitudeDegrees>
              <LongitudeDegrees>17.02697371132671833038330078125</LongitudeDegrees>
            </Position>
            <AltitudeMeters>1044</AltitudeMeters>
            <DistanceMeters>27321.174200548</DistanceMeters>
          </Trackpoint>
          <Trackpoint>
            <Time>2022-08-27T06:50:03.000Z</Time>
            <Position>
              <LatitudeDegrees>50.2164789475500583648681640625</LatitudeDegrees>
              <LongitudeDegrees>17.02696080319583415985107421875</LongitudeDegrees>
            </Position>
            <AltitudeMeters>1044.4000244140625</AltitudeMeters>
            <DistanceMeters>27323.17202281</DistanceMeters>
          </Trackpoint>
          <Trackpoint>
            <Time>2022-08-27T06:50:10.000Z</Time>
            <Position>
              <LatitudeDegrees>50.21645220927894115447998046875</LatitudeDegrees>
              <LongitudeDegrees>17.02691939659416675567626953125</LongitudeDegrees>
            </Position>
            <AltitudeMeters>1045.199951171875</AltitudeMeters>
            <DistanceMeters>27327.361828128</DistanceMeters>
          </Trackpoint>
          <Trackpoint>
            <Time>2022-08-27T06:50:13.000Z</Time>
            <Position>
              <LatitudeDegrees>50.2164367027580738067626953125</LatitudeDegrees>
              <LongitudeDegrees>17.02689819037914276123046875</LongitudeDegrees>
            </Position>
            <AltitudeMeters>1045.5999755859375</AltitudeMeters>
            <DistanceMeters>27329.654316839</DistanceMeters>
          </Trackpoint>
          <Trackpoint>
            <Time>2022-08-27T06:50:19.000Z</Time>
            <Position>
              <LatitudeDegrees>50.216410048305988311767578125</LatitudeDegrees>
              <LongitudeDegrees>17.026858627796173095703125</LongitudeDegrees>
            </Position>
            <AltitudeMeters>1046.4000244140625</AltitudeMeters>
            <DistanceMeters>27333.745986636</DistanceMeters>
          </Trackpoint>
          <Trackpoint>
            <Time>2022-08-27T06:50:24.000Z</Time>
            <Position>
              <LatitudeDegrees>50.21639085374772548675537109375</LatitudeDegrees>
              <LongitudeDegrees>17.02681546099483966827392578125</LongitudeDegrees>
            </Position>
            <AltitudeMeters>1047.199951171875</AltitudeMeters>
            <DistanceMeters>27337.489605025</DistanceMeters>
          </Trackpoint>
          <Trackpoint>
            <Time>2022-08-27T06:50:25.000Z</Time>
            <Position>
              <LatitudeDegrees>50.216386578977108001708984375</LatitudeDegrees>
              <LongitudeDegrees>17.02680624090135097503662109375</LongitudeDegrees>
            </Position>
            <AltitudeMeters>1047.4000244140625</AltitudeMeters>
            <DistanceMeters>27338.307055731</DistanceMeters>
          </Trackpoint>
          <Trackpoint>
            <Time>2022-08-27T06:50:33.000Z</Time>
            <Position>
              <LatitudeDegrees>50.2163555659353733062744140625</LatitudeDegrees>
              <LongitudeDegrees>17.02673801220953464508056640625</LongitudeDegrees>
            </Position>
            <AltitudeMeters>1048.4000244140625</AltitudeMeters>
            <DistanceMeters>27344.267283976</DistanceMeters>
          </Trackpoint>
          <Trackpoint>
            <Time>2022-08-27T06:50:35.000Z</Time>
            <Position>
              <LatitudeDegrees>50.2163488604128360748291015625</LatitudeDegrees>
              <LongitudeDegrees>17.0267203263938426971435546875</LongitudeDegrees>
            </Position>
            <AltitudeMeters>1048.800048828125</AltitudeMeters>
            <DistanceMeters>27345.733284724</DistanceMeters>
          </Trackpoint>
          <Trackpoint>
            <Time>2022-08-27T06:50:40.000Z</Time>
            <Position>
              <LatitudeDegrees>50.21632631309330463409423828125</LatitudeDegrees>
              <LongitudeDegrees>17.0266901515424251556396484375</LongitudeDegrees>
            </Position>
            <AltitudeMeters>1049.5999755859375</AltitudeMeters>
            <DistanceMeters>27349.037427944</DistanceMeters>
          </Trackpoint>
          <Trackpoint>
            <Time>2022-08-27T06:50:45.000Z</Time>
            <Position>
              <LatitudeDegrees>50.21630980074405670166015625</LatitudeDegrees>
              <LongitudeDegrees>17.02666106633841991424560546875</LongitudeDegrees>
            </Position>
            <AltitudeMeters>1050.199951171875</AltitudeMeters>
            <DistanceMeters>27351.807908945</DistanceMeters>
          </Trackpoint>
          <Trackpoint>
            <Time>2022-08-27T06:50:49.000Z</Time>
            <Position>
              <LatitudeDegrees>50.216291360557079315185546875</LatitudeDegrees>
              <LongitudeDegrees>17.026628963649272918701171875</LongitudeDegrees>
            </Position>
            <AltitudeMeters>1050.5999755859375</AltitudeMeters>
            <DistanceMeters>27354.881255649</DistanceMeters>
          </Trackpoint>
          <Trackpoint>
            <Time>2022-08-27T06:50:54.000Z</Time>
            <Position>
              <LatitudeDegrees>50.21627903915941715240478515625</LatitudeDegrees>
              <LongitudeDegrees>17.02660557813942432403564453125</LongitudeDegrees>
            </Position>
            <AltitudeMeters>1051.199951171875</AltitudeMeters>
            <DistanceMeters>27357.039847654</DistanceMeters>
          </Trackpoint>
          <Trackpoint>
            <Time>2022-08-27T06:50:58.000Z</Time>
            <Position>
              <LatitudeDegrees>50.2162717469036579132080078125</LatitudeDegrees>
              <LongitudeDegrees>17.02658043242990970611572265625</LongitudeDegrees>
            </Position>
            <AltitudeMeters>1051.5999755859375</AltitudeMeters>
            <DistanceMeters>27359.005775608</DistanceMeters>
          </Trackpoint>
          <Trackpoint>
            <Time>2022-08-27T06:51:04.000Z</Time>
            <Position>
              <LatitudeDegrees>50.21625825203955173492431640625</LatitudeDegrees>
              <LongitudeDegrees>17.02653952874243259429931640625</LongitudeDegrees>
            </Position>
            <AltitudeMeters>1052.4000244140625</AltitudeMeters>
            <DistanceMeters>27362.283852936</DistanceMeters>
          </Trackpoint>
          <Trackpoint>
            <Time>2022-08-27T06:51:06.000Z</Time>
            <Position>
              <LatitudeDegrees>50.216252468526363372802734375</LatitudeDegrees>
              <LongitudeDegrees>17.0265245251357555389404296875</LongitudeDegrees>
            </Position>
            <AltitudeMeters>1052.5999755859375</AltitudeMeters>
            <DistanceMeters>27363.53373422</DistanceMeters>
          </Trackpoint>
          <Trackpoint>
            <Time>2022-08-27T06:51:15.000Z</Time>
            <Position>
              <LatitudeDegrees>50.21623277105391025543212890625</LatitudeDegrees>
              <LongitudeDegrees>17.02645436860620975494384765625</LongitudeDegrees>
            </Position>
            <AltitudeMeters>1053.5999755859375</AltitudeMeters>
            <DistanceMeters>27368.990948904</DistanceMeters>
          </Trackpoint>
          <Trackpoint>
            <Time>2022-08-27T06:51:18.000Z</Time>
            <Position>
              <LatitudeDegrees>50.21622371859848499298095703125</LatitudeDegrees>
              <LongitudeDegrees>17.02641539275646209716796875</LongitudeDegrees>
            </Position>
            <AltitudeMeters>1053.800048828125</AltitudeMeters>
            <DistanceMeters>27371.944430552</DistanceMeters>
          </Trackpoint>
          <Trackpoint>
            <Time>2022-08-27T06:51:26.000Z</Time>
            <Position>
              <LatitudeDegrees>50.21620376966893672943115234375</LatitudeDegrees>
              <LongitudeDegrees>17.02631883323192596435546875</LongitudeDegrees>
            </Position>
            <AltitudeMeters>1054.800048828125</AltitudeMeters>
            <DistanceMeters>27379.17146052</DistanceMeters>
          </Trackpoint>
          <Trackpoint>
            <Time>2022-08-27T06:51:27.000Z</Time>
            <Position>
              <LatitudeDegrees>50.21620008163154125213623046875</LatitudeDegrees>
              <LongitudeDegrees>17.026309780776500701904296875</LongitudeDegrees>
            </Position>
            <AltitudeMeters>1054.800048828125</AltitudeMeters>
            <DistanceMeters>27379.937590384</DistanceMeters>
          </Trackpoint>
          <Trackpoint>
            <Time>2022-08-27T06:51:34.000Z</Time>
            <Position>
              <LatitudeDegrees>50.2161691524088382720947265625</LatitudeDegrees>
              <LongitudeDegrees>17.02625018544495105743408203125</LongitudeDegrees>
            </Position>
            <AltitudeMeters>1056</AltitudeMeters>
            <DistanceMeters>27385.402246165</DistanceMeters>
          </Trackpoint>
          <Trackpoint>
            <Time>2022-08-27T06:51:37.000Z</Time>
            <Position>
              <LatitudeDegrees>50.21615901030600070953369140625</LatitudeDegrees>
              <LongitudeDegrees>17.02621766366064548492431640625</LongitudeDegrees>
            </Position>
            <AltitudeMeters>1056.4000244140625</AltitudeMeters>
            <DistanceMeters>27387.97850434</DistanceMeters>
          </Trackpoint>
          <Trackpoint>
            <Time>2022-08-27T06:51:40.000Z</Time>
            <Position>
              <LatitudeDegrees>50.21614576689898967742919921875</LatitudeDegrees>
              <LongitudeDegrees>17.0261728204786777496337890625</LongitudeDegrees>
            </Position>
            <AltitudeMeters>1057</AltitudeMeters>
            <DistanceMeters>27391.495776682</DistanceMeters>
          </Trackpoint>
          <Trackpoint>
            <Time>2022-08-27T06:51:48.000Z</Time>
            <Position>
              <LatitudeDegrees>50.21610285155475139617919921875</LatitudeDegrees>
              <LongitudeDegrees>17.0260869897902011871337890625</LongitudeDegrees>
            </Position>
            <AltitudeMeters>1058</AltitudeMeters>
            <DistanceMeters>27399.253705497</DistanceMeters>
          </Trackpoint>
          <Trackpoint>
            <Time>2022-08-27T06:51:58.000Z</Time>
            <Position>
              <LatitudeDegrees>50.21605440415441989898681640625</LatitudeDegrees>
              <LongitudeDegrees>17.0260071940720081329345703125</LongitudeDegrees>
            </Position>
            <AltitudeMeters>1058.800048828125</AltitudeMeters>
            <DistanceMeters>27407.087504034</DistanceMeters>
          </Trackpoint>
          <Trackpoint>
            <Time>2022-08-27T06:51:59.000Z</Time>
            <Position>
              <LatitudeDegrees>50.2160507999360561370849609375</LatitudeDegrees>
              <LongitudeDegrees>17.0260011591017246246337890625</LongitudeDegrees>
            </Position>
            <AltitudeMeters>1059</AltitudeMeters>
            <DistanceMeters>27407.673288043</DistanceMeters>
          </Trackpoint>
          <Trackpoint>
            <Time>2022-08-27T06:52:09.000Z</Time>
            <Position>
              <LatitudeDegrees>50.21601316519081592559814453125</LatitudeDegrees>
              <LongitudeDegrees>17.02591759152710437774658203125</LongitudeDegrees>
            </Position>
            <AltitudeMeters>1059.800048828125</AltitudeMeters>
            <DistanceMeters>27414.951366664</DistanceMeters>
          </Trackpoint>
          <Trackpoint>
            <Time>2022-08-27T06:52:11.000Z</Time>
            <Position>
              <LatitudeDegrees>50.2160031907260417938232421875</LatitudeDegrees>
              <LongitudeDegrees>17.02590166591107845306396484375</LongitudeDegrees>
            </Position>
            <AltitudeMeters>1060</AltitudeMeters>
            <DistanceMeters>27416.535778622</DistanceMeters>
          </Trackpoint>
          <Trackpoint>
            <Time>2022-08-27T06:52:21.000Z</Time>
            <Position>
              <LatitudeDegrees>50.21597184240818023681640625</LatitudeDegrees>
              <LongitudeDegrees>17.025850452482700347900390625</LongitudeDegrees>
            </Position>
            <AltitudeMeters>1061</AltitudeMeters>
            <DistanceMeters>27421.58383525</DistanceMeters>
          </Trackpoint>
          <Trackpoint>
            <Time>2022-08-27T06:52:22.000Z</Time>
            <Position>
              <LatitudeDegrees>50.21597041748464107513427734375</LatitudeDegrees>
              <LongitudeDegrees>17.02584584243595600128173828125</LongitudeDegrees>
            </Position>
            <AltitudeMeters>1061.199951171875</AltitudeMeters>
            <DistanceMeters>27421.939392658</DistanceMeters>
          </Trackpoint>
          <Trackpoint>
            <Time>2022-08-27T06:52:33.000Z</Time>
            <Position>
              <LatitudeDegrees>50.215925239026546478271484375</LatitudeDegrees>
              <LongitudeDegrees>17.02576755546033382415771484375</LongitudeDegrees>
            </Position>
            <AltitudeMeters>1061.800048828125</AltitudeMeters>
            <DistanceMeters>27429.448307181</DistanceMeters>
          </Trackpoint>
          <Trackpoint>
            <Time>2022-08-27T06:52:36.000Z</Time>
            <Position>
              <LatitudeDegrees>50.21590881049633026123046875</LatitudeDegrees>
              <LongitudeDegrees>17.02575154602527618408203125</LongitudeDegrees>
            </Position>
            <AltitudeMeters>1062.199951171875</AltitudeMeters>
            <DistanceMeters>27431.604806513</DistanceMeters>
          </Trackpoint>
          <Trackpoint>
            <Time>2022-08-27T06:52:45.000Z</Time>
            <Position>
              <LatitudeDegrees>50.2158808149397373199462890625</LatitudeDegrees>
              <LongitudeDegrees>17.025704272091388702392578125</LongitudeDegrees>
            </Position>
            <AltitudeMeters>1062.800048828125</AltitudeMeters>
            <DistanceMeters>27436.193721229</DistanceMeters>
          </Trackpoint>
          <Trackpoint>
            <Time>2022-08-27T06:52:55.000Z</Time>
            <Position>
              <LatitudeDegrees>50.21583647467195987701416015625</LatitudeDegrees>
              <LongitudeDegrees>17.02566378749907016754150390625</LongitudeDegrees>
            </Position>
            <AltitudeMeters>1062.800048828125</AltitudeMeters>
            <DistanceMeters>27441.909560325</DistanceMeters>
          </Trackpoint>
          <Trackpoint>
            <Time>2022-08-27T06:53:07.000Z</Time>
            <Position>
              <LatitudeDegrees>50.21560379303991794586181640625</LatitudeDegrees>
              <LongitudeDegrees>17.025626488029956817626953125</LongitudeDegrees>
            </Position>
            <AltitudeMeters>1062.4000244140625</AltitudeMeters>
            <DistanceMeters>27467.943238273</DistanceMeters>
          </Trackpoint>
          <Trackpoint>
            <Time>2022-08-27T06:53:19.000Z</Time>
            <Position>
              <LatitudeDegrees>50.21549013443291187286376953125</LatitudeDegrees>
              <LongitudeDegrees>17.0256058685481548309326171875</LongitudeDegrees>
            </Position>
            <AltitudeMeters>1061.5999755859375</AltitudeMeters>
            <DistanceMeters>27480.678236229</DistanceMeters>
          </Trackpoint>
          <Trackpoint>
            <Time>2022-08-27T06:53:30.000Z</Time>
            <Position>
              <LatitudeDegrees>50.21543028764426708221435546875</LatitudeDegrees>
              <LongitudeDegrees>17.0256316848099231719970703125</LongitudeDegrees>
            </Position>
            <AltitudeMeters>1061.199951171875</AltitudeMeters>
            <DistanceMeters>27487.58779585</DistanceMeters>
          </Trackpoint>
          <Trackpoint>
            <Time>2022-08-27T06:53:31.000Z</Time>
            <Position>
              <LatitudeDegrees>50.21542542614042758941650390625</LatitudeDegrees>
              <LongitudeDegrees>17.02564266510307788848876953125</LongitudeDegrees>
            </Position>
            <AltitudeMeters>1061.199951171875</AltitudeMeters>
            <DistanceMeters>27488.538062994</DistanceMeters>
          </Trackpoint>
          <Trackpoint>
            <Time>2022-08-27T06:53:42.000Z</Time>
            <Position>
              <LatitudeDegrees>50.21538033150136470794677734375</LatitudeDegrees>
              <LongitudeDegrees>17.0257205329835414886474609375</LongitudeDegrees>
            </Position>
            <AltitudeMeters>1060.4000244140625</AltitudeMeters>
            <DistanceMeters>27496.018059895</DistanceMeters>
          </Trackpoint>
          <Trackpoint>
            <Time>2022-08-27T06:53:46.000Z</Time>
            <Position>
              <LatitudeDegrees>50.2153611369431018829345703125</LatitudeDegrees>
              <LongitudeDegrees>17.025738470256328582763671875</LongitudeDegrees>
            </Position>
            <AltitudeMeters>1060</AltitudeMeters>
            <DistanceMeters>27498.506961749</DistanceMeters>
          </Trackpoint>
          <Trackpoint>
            <Time>2022-08-27T06:53:53.000Z</Time>
            <Position>
              <LatitudeDegrees>50.21531738340854644775390625</LatitudeDegrees>
              <LongitudeDegrees>17.025771997869014739990234375</LongitudeDegrees>
            </Position>
            <AltitudeMeters>1060</AltitudeMeters>
            <DistanceMeters>27503.930981389</DistanceMeters>
          </Trackpoint>
          <Trackpoint>
            <Time>2022-08-27T06:54:04.000Z</Time>
            <Position>
              <LatitudeDegrees>50.215215794742107391357421875</LatitudeDegrees>
              <LongitudeDegrees>17.02580728568136692047119140625</LongitudeDegrees>
            </Position>
            <AltitudeMeters>1059.4000244140625</AltitudeMeters>
            <DistanceMeters>27515.514110319</DistanceMeters>
          </Trackpoint>
          <Trackpoint>
            <Time>2022-08-27T06:54:10.000Z</Time>
            <Position>
              <LatitudeDegrees>50.21518754772841930389404296875</LatitudeDegrees>
              <LongitudeDegrees>17.0258355326950550079345703125</LongitudeDegrees>
            </Position>
            <AltitudeMeters>1059</AltitudeMeters>
            <DistanceMeters>27519.246858362</DistanceMeters>
          </Trackpoint>
          <Trackpoint>
            <Time>2022-08-27T06:54:16.000Z</Time>
            <Position>
              <LatitudeDegrees>50.2151297964155673980712890625</LatitudeDegrees>
              <LongitudeDegrees>17.02587316744029521942138671875</LongitudeDegrees>
            </Position>
            <AltitudeMeters>1058.4000244140625</AltitudeMeters>
            <DistanceMeters>27526.210442964</DistanceMeters>
          </Trackpoint>
          <Trackpoint>
            <Time>2022-08-27T06:54:22.000Z</Time>
            <Position>
              <LatitudeDegrees>50.2150841988623142242431640625</LatitudeDegrees>
              <LongitudeDegrees>17.025900743901729583740234375</LongitudeDegrees>
            </Position>
            <AltitudeMeters>1058</AltitudeMeters>
            <DistanceMeters>27531.651085443</DistanceMeters>
          </Trackpoint>
          <Trackpoint>
            <Time>2022-08-27T06:54:28.000Z</Time>
            <Position>
              <LatitudeDegrees>50.2150496654212474822998046875</LatitudeDegrees>
              <LongitudeDegrees>17.02595430426299571990966796875</LongitudeDegrees>
            </Position>
            <AltitudeMeters>1057.5999755859375</AltitudeMeters>
            <DistanceMeters>27537.06594077</DistanceMeters>
          </Trackpoint>
          <Trackpoint>
            <Time>2022-08-27T06:54:37.000Z</Time>
            <Position>
              <LatitudeDegrees>50.21499241702258586883544921875</LatitudeDegrees>
              <LongitudeDegrees>17.0260058529675006866455078125</LongitudeDegrees>
            </Position>
            <AltitudeMeters>1057</AltitudeMeters>
            <DistanceMeters>27544.419313992</DistanceMeters>
          </Trackpoint>
          <Trackpoint>
            <Time>2022-08-27T06:54:38.000Z</Time>
            <Position>
              <LatitudeDegrees>50.21497950889170169830322265625</LatitudeDegrees>
              <LongitudeDegrees>17.02601297758519649505615234375</LongitudeDegrees>
            </Position>
            <AltitudeMeters>1057</AltitudeMeters>
            <DistanceMeters>27545.945669037</DistanceMeters>
          </Trackpoint>
          <Trackpoint>
            <Time>2022-08-27T06:54:49.000Z</Time>
            <Position>
              <LatitudeDegrees>50.21493542008101940155029296875</LatitudeDegrees>
              <LongitudeDegrees>17.02613786794245243072509765625</LongitudeDegrees>
            </Position>
            <AltitudeMeters>1056.4000244140625</AltitudeMeters>
            <DistanceMeters>27556.104198143</DistanceMeters>
          </Trackpoint>
          <Trackpoint>
            <Time>2022-08-27T06:55:01.000Z</Time>
            <Position>
              <LatitudeDegrees>50.2148498408496379852294921875</LatitudeDegrees>
              <LongitudeDegrees>17.02620844356715679168701171875</LongitudeDegrees>
            </Position>
            <AltitudeMeters>1056.199951171875</AltitudeMeters>
            <DistanceMeters>27566.874544563</DistanceMeters>
          </Trackpoint>
          <Trackpoint>
            <Time>2022-08-27T06:55:04.000Z</Time>
            <Position>
              <LatitudeDegrees>50.21482008509337902069091796875</LatitudeDegrees>
              <LongitudeDegrees>17.026213891804218292236328125</LongitudeDegrees>
            </Position>
            <AltitudeMeters>1056</AltitudeMeters>
            <DistanceMeters>27570.209968701</DistanceMeters>
          </Trackpoint>
          <Trackpoint>
            <Time>2022-08-27T06:55:13.000Z</Time>
            <Position>
              <LatitudeDegrees>50.214773900806903839111328125</LatitudeDegrees>
              <LongitudeDegrees>17.0262626744806766510009765625</LongitudeDegrees>
            </Position>
            <AltitudeMeters>1055.4000244140625</AltitudeMeters>
            <DistanceMeters>27576.414419996</DistanceMeters>
          </Trackpoint>
          <Trackpoint>
            <Time>2022-08-27T06:55:24.000Z</Time>
            <Position>
              <LatitudeDegrees>50.214733667671680450439453125</LatitudeDegrees>
              <LongitudeDegrees>17.02628689818084239959716796875</LongitudeDegrees>
            </Position>
            <AltitudeMeters>1055</AltitudeMeters>
            <DistanceMeters>27581.213033852</DistanceMeters>
          </Trackpoint>
          <Trackpoint>
            <Time>2022-08-27T06:55:25.000Z</Time>
            <Position>
              <LatitudeDegrees>50.21472972817718982696533203125</LatitudeDegrees>
              <LongitudeDegrees>17.0262841321527957916259765625</LongitudeDegrees>
            </Position>
            <AltitudeMeters>1054.800048828125</AltitudeMeters>
            <DistanceMeters>27581.678567776</DistanceMeters>
          </Trackpoint>
          <Trackpoint>
            <Time>2022-08-27T06:55:36.000Z</Time>
            <Position>
              <LatitudeDegrees>50.21467901766300201416015625</LatitudeDegrees>
              <LongitudeDegrees>17.02627323567867279052734375</LongitudeDegrees>
            </Position>
            <AltitudeMeters>1054.199951171875</AltitudeMeters>
            <DistanceMeters>27587.375417321</DistanceMeters>
          </Trackpoint>
          <Trackpoint>
            <Time>2022-08-27T06:55:41.000Z</Time>
            <Position>
              <LatitudeDegrees>50.21464792080223560333251953125</LatitudeDegrees>
              <LongitudeDegrees>17.02624364756047725677490234375</LongitudeDegrees>
            </Position>
            <AltitudeMeters>1053.800048828125</AltitudeMeters>
            <DistanceMeters>27591.428281623</DistanceMeters>
          </Trackpoint>
          <Trackpoint>
            <Time>2022-08-27T06:55:46.000Z</Time>
            <Position>
              <LatitudeDegrees>50.2146064303815364837646484375</LatitudeDegrees>
              <LongitudeDegrees>17.02621062286198139190673828125</LongitudeDegrees>
            </Position>
            <AltitudeMeters>1053.5999755859375</AltitudeMeters>
            <DistanceMeters>27596.610505793</DistanceMeters>
          </Trackpoint>
          <Trackpoint>
            <Time>2022-08-27T06:55:56.000Z</Time>
            <Position>
              <LatitudeDegrees>50.2145524509251117706298828125</LatitudeDegrees>
              <LongitudeDegrees>17.026123702526092529296875</LongitudeDegrees>
            </Position>
            <AltitudeMeters>1052.800048828125</AltitudeMeters>
            <DistanceMeters>27605.237549901</DistanceMeters>
          </Trackpoint>
          <Trackpoint>
            <Time>2022-08-27T06:55:58.000Z</Time>
            <Position>
              <LatitudeDegrees>50.21453811787068843841552734375</LatitudeDegrees>
              <LongitudeDegrees>17.02610182575881481170654296875</LongitudeDegrees>
            </Position>
            <AltitudeMeters>1052.5999755859375</AltitudeMeters>
            <DistanceMeters>27607.466123895</DistanceMeters>
          </Trackpoint>
          <Trackpoint>
            <Time>2022-08-27T06:56:09.000Z</Time>
            <Position>
              <LatitudeDegrees>50.21449134685099124908447265625</LatitudeDegrees>
              <LongitudeDegrees>17.02596469782292842864990234375</LongitudeDegrees>
            </Position>
            <AltitudeMeters>1051.800048828125</AltitudeMeters>
            <DistanceMeters>27618.533370928</DistanceMeters>
          </Trackpoint>
          <Trackpoint>
            <Time>2022-08-27T06:56:11.000Z</Time>
            <Position>
              <LatitudeDegrees>50.21448380313813686370849609375</LatitudeDegrees>
              <LongitudeDegrees>17.02593351714313030242919921875</LongitudeDegrees>
            </Position>
            <AltitudeMeters>1051.800048828125</AltitudeMeters>
            <DistanceMeters>27620.907137492</DistanceMeters>
          </Trackpoint>
          <Trackpoint>
            <Time>2022-08-27T06:56:21.000Z</Time>
            <Position>
              <LatitudeDegrees>50.21441523917019367218017578125</LatitudeDegrees>
              <LongitudeDegrees>17.0258219540119171142578125</LongitudeDegrees>
            </Position>
            <AltitudeMeters>1051.199951171875</AltitudeMeters>
            <DistanceMeters>27631.924500496</DistanceMeters>
          </Trackpoint>
          <Trackpoint>
            <Time>2022-08-27T06:56:32.000Z</Time>
            <Position>
              <LatitudeDegrees>50.2143301628530025482177734375</LatitudeDegrees>
              <LongitudeDegrees>17.025689519941806793212890625</LongitudeDegrees>
            </Position>
            <AltitudeMeters>1050.5999755859375</AltitudeMeters>
            <DistanceMeters>27645.289865145</DistanceMeters>
          </Trackpoint>
          <Trackpoint>
            <Time>2022-08-27T06:56:33.000Z</Time>
            <Position>
              <LatitudeDegrees>50.21432622335851192474365234375</LatitudeDegrees>
              <LongitudeDegrees>17.0256782881915569305419921875</LongitudeDegrees>
            </Position>
            <AltitudeMeters>1050.5999755859375</AltitudeMeters>
            <DistanceMeters>27646.20132937</DistanceMeters>
          </Trackpoint>
          <Trackpoint>
            <Time>2022-08-27T06:56:44.000Z</Time>
            <Position>
              <LatitudeDegrees>50.2142460085451602935791015625</LatitudeDegrees>
              <LongitudeDegrees>17.0255173556506633758544921875</LongitudeDegrees>
            </Position>
            <AltitudeMeters>1049.5999755859375</AltitudeMeters>
            <DistanceMeters>27660.73078659</DistanceMeters>
          </Trackpoint>
          <Trackpoint>
            <Time>2022-08-27T06:56:45.000Z</Time>
            <Position>
              <LatitudeDegrees>50.21424307487905025482177734375</LatitudeDegrees>
              <LongitudeDegrees>17.0255036093294620513916015625</LongitudeDegrees>
            </Position>
            <AltitudeMeters>1049.5999755859375</AltitudeMeters>
            <DistanceMeters>27661.763040929</DistanceMeters>
          </Trackpoint>
          <Trackpoint>
            <Time>2022-08-27T06:56:55.000Z</Time>
            <Position>
              <LatitudeDegrees>50.21418280899524688720703125</LatitudeDegrees>
              <LongitudeDegrees>17.0253909565508365631103515625</LongitudeDegrees>
            </Position>
            <AltitudeMeters>1049</AltitudeMeters>
            <DistanceMeters>27672.2211615</DistanceMeters>
          </Trackpoint>
          <Trackpoint>
            <Time>2022-08-27T06:57:01.000Z</Time>
            <Position>
              <LatitudeDegrees>50.21416805684566497802734375</LatitudeDegrees>
              <LongitudeDegrees>17.02530487440526485443115234375</LongitudeDegrees>
            </Position>
            <AltitudeMeters>1048.5999755859375</AltitudeMeters>
            <DistanceMeters>27678.568063974</DistanceMeters>
          </Trackpoint>
          <Trackpoint>
            <Time>2022-08-27T06:57:06.000Z</Time>
            <Position>
              <LatitudeDegrees>50.21414458751678466796875</LatitudeDegrees>
              <LongitudeDegrees>17.02523882500827312469482421875</LongitudeDegrees>
            </Position>
            <AltitudeMeters>1048.4000244140625</AltitudeMeters>
            <DistanceMeters>27683.949462971</DistanceMeters>
          </Trackpoint>
          <Trackpoint>
            <Time>2022-08-27T06:57:17.000Z</Time>
            <Position>
              <LatitudeDegrees>50.21410041488707065582275390625</LatitudeDegrees>
              <LongitudeDegrees>17.02511879615485668182373046875</LongitudeDegrees>
            </Position>
            <AltitudeMeters>1047.800048828125</AltitudeMeters>
            <DistanceMeters>27693.81120335</DistanceMeters>
          </Trackpoint>
          <Trackpoint>
            <Time>2022-08-27T06:57:20.000Z</Time>
            <Position>
              <LatitudeDegrees>50.214083902537822723388671875</LatitudeDegrees>
              <LongitudeDegrees>17.0250825025141239166259765625</LongitudeDegrees>
            </Position>
            <AltitudeMeters>1047.5999755859375</AltitudeMeters>
            <DistanceMeters>27696.982875646</DistanceMeters>
          </Trackpoint>
          <Trackpoint>
            <Time>2022-08-27T06:57:27.000Z</Time>
            <Position>
              <LatitudeDegrees>50.2140736766159534454345703125</LatitudeDegrees>
              <LongitudeDegrees>17.02499776147305965423583984375</LongitudeDegrees>
            </Position>
            <AltitudeMeters>1047</AltitudeMeters>
            <DistanceMeters>27703.123689862</DistanceMeters>
          </Trackpoint>
          <Trackpoint>
            <Time>2022-08-27T06:57:33.000Z</Time>
            <Position>
              <LatitudeDegrees>50.21408130414783954620361328125</LatitudeDegrees>
              <LongitudeDegrees>17.0249054767191410064697265625</LongitudeDegrees>
            </Position>
            <AltitudeMeters>1046.5999755859375</AltitudeMeters>
            <DistanceMeters>27709.75107938</DistanceMeters>
          </Trackpoint>
          <Trackpoint>
            <Time>2022-08-27T06:57:39.000Z</Time>
            <Position>
              <LatitudeDegrees>50.214081890881061553955078125</LatitudeDegrees>
              <LongitudeDegrees>17.02483112923800945281982421875</LongitudeDegrees>
            </Position>
            <AltitudeMeters>1046</AltitudeMeters>
            <DistanceMeters>27715.047060633</DistanceMeters>
          </Trackpoint>
          <Trackpoint>
            <Time>2022-08-27T06:57:44.000Z</Time>
            <Position>
              <LatitudeDegrees>50.2140896022319793701171875</LatitudeDegrees>
              <LongitudeDegrees>17.02475569210946559906005859375</LongitudeDegrees>
            </Position>
            <AltitudeMeters>1045.4000244140625</AltitudeMeters>
            <DistanceMeters>27720.489362604</DistanceMeters>
          </Trackpoint>
          <Trackpoint>
            <Time>2022-08-27T06:57:52.000Z</Time>
            <Position>
              <LatitudeDegrees>50.21406085230410099029541015625</LatitudeDegrees>
              <LongitudeDegrees>17.0246416144073009490966796875</LongitudeDegrees>
            </Position>
            <AltitudeMeters>1045</AltitudeMeters>
            <DistanceMeters>27729.222519286</DistanceMeters>
          </Trackpoint>
          <Trackpoint>
            <Time>2022-08-27T06:57:59.000Z</Time>
            <Position>
              <LatitudeDegrees>50.21404023282229900360107421875</LatitudeDegrees>
              <LongitudeDegrees>17.02453072182834148406982421875</LongitudeDegrees>
            </Position>
            <AltitudeMeters>1044.4000244140625</AltitudeMeters>
            <DistanceMeters>27737.447683888</DistanceMeters>
          </Trackpoint>
          <Trackpoint>
            <Time>2022-08-27T06:58:05.000Z</Time>
            <Position>
              <LatitudeDegrees>50.21401743404567241668701171875</LatitudeDegrees>
              <LongitudeDegrees>17.024422846734523773193359375</LongitudeDegrees>
            </Position>
            <AltitudeMeters>1044</AltitudeMeters>
            <DistanceMeters>27745.538917058</DistanceMeters>
          </Trackpoint>
          <Trackpoint>
            <Time>2022-08-27T06:58:12.000Z</Time>
            <Position>
              <LatitudeDegrees>50.2139878459274768829345703125</LatitudeDegrees>
              <LongitudeDegrees>17.0243207551538944244384765625</LongitudeDegrees>
            </Position>
            <AltitudeMeters>1043.4000244140625</AltitudeMeters>
            <DistanceMeters>27753.521161065</DistanceMeters>
          </Trackpoint>
          <Trackpoint>
            <Time>2022-08-27T06:58:15.000Z</Time>
            <Position>
              <LatitudeDegrees>50.21397016011178493499755859375</LatitudeDegrees>
              <LongitudeDegrees>17.02426937408745288848876953125</LongitudeDegrees>
            </Position>
            <AltitudeMeters>1043</AltitudeMeters>
            <DistanceMeters>27757.6763393</DistanceMeters>
          </Trackpoint>
          <Trackpoint>
            <Time>2022-08-27T06:58:23.000Z</Time>
            <Position>
              <LatitudeDegrees>50.2139633707702159881591796875</LatitudeDegrees>
              <LongitudeDegrees>17.02412336133420467376708984375</LongitudeDegrees>
            </Position>
            <AltitudeMeters>1042.4000244140625</AltitudeMeters>
            <DistanceMeters>27768.103329296</DistanceMeters>
          </Trackpoint>
          <Trackpoint>
            <Time>2022-08-27T06:58:26.000Z</Time>
            <Position>
              <LatitudeDegrees>50.2139461040496826171875</LatitudeDegrees>
              <LongitudeDegrees>17.02408027835190296173095703125</LongitudeDegrees>
            </Position>
            <AltitudeMeters>1042</AltitudeMeters>
            <DistanceMeters>27771.724333438</DistanceMeters>
          </Trackpoint>
          <Trackpoint>
            <Time>2022-08-27T06:58:32.000Z</Time>
            <Position>
              <LatitudeDegrees>50.21394216455519199371337890625</LatitudeDegrees>
              <LongitudeDegrees>17.0239760912954807281494140625</LongitudeDegrees>
            </Position>
            <AltitudeMeters>1041.199951171875</AltitudeMeters>
            <DistanceMeters>27779.158314057</DistanceMeters>
          </Trackpoint>
          <Trackpoint>
            <Time>2022-08-27T06:58:35.000Z</Time>
            <Position>
              <LatitudeDegrees>50.21393897943198680877685546875</LatitudeDegrees>
              <LongitudeDegrees>17.02394281513988971710205078125</LongitudeDegrees>
            </Position>
            <AltitudeMeters>1041</AltitudeMeters>
            <DistanceMeters>27781.554796608</DistanceMeters>
          </Trackpoint>
          <Trackpoint>
            <Time>2022-08-27T06:58:46.000Z</Time>
            <Position>
              <LatitudeDegrees>50.21389103494584560394287109375</LatitudeDegrees>
              <LongitudeDegrees>17.02380300499498844146728515625</LongitudeDegrees>
            </Position>
            <AltitudeMeters>1040.199951171875</AltitudeMeters>
            <DistanceMeters>27792.852190133</DistanceMeters>
          </Trackpoint>
          <Trackpoint>
            <Time>2022-08-27T06:58:48.000Z</Time>
            <Position>
              <LatitudeDegrees>50.2138839103281497955322265625</LatitudeDegrees>
              <LongitudeDegrees>17.02378355897963047027587890625</LongitudeDegrees>
            </Position>
            <AltitudeMeters>1040</AltitudeMeters>
            <DistanceMeters>27794.447960028</DistanceMeters>
          </Trackpoint>
          <Trackpoint>
            <Time>2022-08-27T06:58:57.000Z</Time>
            <Position>
              <LatitudeDegrees>50.21388265304267406463623046875</LatitudeDegrees>
              <LongitudeDegrees>17.0236233808100223541259765625</LongitudeDegrees>
            </Position>
            <AltitudeMeters>1039.199951171875</AltitudeMeters>
            <DistanceMeters>27805.857499108</DistanceMeters>
          </Trackpoint>
          <Trackpoint>
            <Time>2022-08-27T06:59:07.000Z</Time>
            <Position>
              <LatitudeDegrees>50.21386630833148956298828125</LatitudeDegrees>
              <LongitudeDegrees>17.0234822295606136322021484375</LongitudeDegrees>
            </Position>
            <AltitudeMeters>1038.199951171875</AltitudeMeters>
            <DistanceMeters>27816.074086288</DistanceMeters>
          </Trackpoint>
          <Trackpoint>
            <Time>2022-08-27T06:59:09.000Z</Time>
            <Position>
              <LatitudeDegrees>50.2138490416109561920166015625</LatitudeDegrees>
              <LongitudeDegrees>17.0234651304781436920166015625</LongitudeDegrees>
            </Position>
            <AltitudeMeters>1038.199951171875</AltitudeMeters>
            <DistanceMeters>27818.350764543</DistanceMeters>
          </Trackpoint>
          <Trackpoint>
            <Time>2022-08-27T06:59:17.000Z</Time>
            <Position>
              <LatitudeDegrees>50.21380637772381305694580078125</LatitudeDegrees>
              <LongitudeDegrees>17.023357339203357696533203125</LongitudeDegrees>
            </Position>
            <AltitudeMeters>1037.4000244140625</AltitudeMeters>
            <DistanceMeters>27827.378302409</DistanceMeters>
          </Trackpoint>
          <Trackpoint>
            <Time>2022-08-27T06:59:21.000Z</Time>
            <Position>
              <LatitudeDegrees>50.2137913741171360015869140625</LatitudeDegrees>
              <LongitudeDegrees>17.02330671250820159912109375</LongitudeDegrees>
            </Position>
            <AltitudeMeters>1037</AltitudeMeters>
            <DistanceMeters>27831.352419128</DistanceMeters>
          </Trackpoint>
          <Trackpoint>
            <Time>2022-08-27T06:59:28.000Z</Time>
            <Position>
              <LatitudeDegrees>50.213777460157871246337890625</LatitudeDegrees>
              <LongitudeDegrees>17.02319196425378322601318359375</LongitudeDegrees>
            </Position>
            <AltitudeMeters>1036.5999755859375</AltitudeMeters>
            <DistanceMeters>27839.670921144</DistanceMeters>
          </Trackpoint>
          <Trackpoint>
            <Time>2022-08-27T06:59:37.000Z</Time>
            <Position>
              <LatitudeDegrees>50.213723145425319671630859375</LatitudeDegrees>
              <LongitudeDegrees>17.02308836393058300018310546875</LongitudeDegrees>
            </Position>
            <AltitudeMeters>1036</AltitudeMeters>
            <DistanceMeters>27849.210107709</DistanceMeters>
          </Trackpoint>
          <Trackpoint>
            <Time>2022-08-27T06:59:47.000Z</Time>
            <Position>
              <LatitudeDegrees>50.21372121758759021759033203125</LatitudeDegrees>
              <LongitudeDegrees>17.02295425347983837127685546875</LongitudeDegrees>
            </Position>
            <AltitudeMeters>1035.199951171875</AltitudeMeters>
            <DistanceMeters>27858.764428343</DistanceMeters>
          </Trackpoint>
          <Trackpoint>
            <Time>2022-08-27T06:59:49.000Z</Time>
            <Position>
              <LatitudeDegrees>50.2137259952723979949951171875</LatitudeDegrees>
              <LongitudeDegrees>17.022937573492527008056640625</LongitudeDegrees>
            </Position>
            <AltitudeMeters>1035</AltitudeMeters>
            <DistanceMeters>27860.067369006</DistanceMeters>
          </Trackpoint>
          <Trackpoint>
            <Time>2022-08-27T06:59:57.000Z</Time>
            <Position>
              <LatitudeDegrees>50.21374317817389965057373046875</LatitudeDegrees>
              <LongitudeDegrees>17.02286548912525177001953125</LongitudeDegrees>
            </Position>
            <AltitudeMeters>1034.199951171875</AltitudeMeters>
            <DistanceMeters>27865.546052616</DistanceMeters>
          </Trackpoint>
          <Trackpoint>
            <Time>2022-08-27T07:00:01.000Z</Time>
            <Position>
              <LatitudeDegrees>50.21376597695052623748779296875</LatitudeDegrees>
              <LongitudeDegrees>17.02283003367483615875244140625</LongitudeDegrees>
            </Position>
            <AltitudeMeters>1034</AltitudeMeters>
            <DistanceMeters>27869.12693359</DistanceMeters>
          </Trackpoint>
          <Trackpoint>
            <Time>2022-08-27T07:00:08.000Z</Time>
            <Position>
              <LatitudeDegrees>50.21380864083766937255859375</LatitudeDegrees>
              <LongitudeDegrees>17.022763900458812713623046875</LongitudeDegrees>
            </Position>
            <AltitudeMeters>1033.4000244140625</AltitudeMeters>
            <DistanceMeters>27875.81468124</DistanceMeters>
          </Trackpoint>
          <Trackpoint>
            <Time>2022-08-27T07:00:15.000Z</Time>
            <Position>
              <LatitudeDegrees>50.21386069245636463165283203125</LatitudeDegrees>
              <LongitudeDegrees>17.02268938533961772918701171875</LongitudeDegrees>
            </Position>
            <AltitudeMeters>1033</AltitudeMeters>
            <DistanceMeters>27883.671500098</DistanceMeters>
          </Trackpoint>
          <Trackpoint>
            <Time>2022-08-27T07:00:21.000Z</Time>
            <Position>
              <LatitudeDegrees>50.2139040268957614898681640625</LatitudeDegrees>
              <LongitudeDegrees>17.02261612750589847564697265625</LongitudeDegrees>
            </Position>
            <AltitudeMeters>1032.800048828125</AltitudeMeters>
            <DistanceMeters>27890.77693164</DistanceMeters>
          </Trackpoint>
          <Trackpoint>
            <Time>2022-08-27T07:00:30.000Z</Time>
            <Position>
              <LatitudeDegrees>50.2139881812036037445068359375</LatitudeDegrees>
              <LongitudeDegrees>17.0225282013416290283203125</LongitudeDegrees>
            </Position>
            <AltitudeMeters>1031.800048828125</AltitudeMeters>
            <DistanceMeters>27902.04391059</DistanceMeters>
          </Trackpoint>
          <Trackpoint>
            <Time>2022-08-27T07:00:33.000Z</Time>
            <Position>
              <LatitudeDegrees>50.21400310099124908447265625</LatitudeDegrees>
              <LongitudeDegrees>17.022505737841129302978515625</LongitudeDegrees>
            </Position>
            <AltitudeMeters>1031.5999755859375</AltitudeMeters>
            <DistanceMeters>27904.352101462</DistanceMeters>
          </Trackpoint>
          <Trackpoint>
            <Time>2022-08-27T07:00:41.000Z</Time>
            <Position>
              <LatitudeDegrees>50.21404090337455272674560546875</LatitudeDegrees>
              <LongitudeDegrees>17.0224133692681789398193359375</LongitudeDegrees>
            </Position>
            <AltitudeMeters>1030.800048828125</AltitudeMeters>
            <DistanceMeters>27912.16165563</DistanceMeters>
          </Trackpoint>
          <Trackpoint>
            <Time>2022-08-27T07:00:42.000Z</Time>
            <Position>
              <LatitudeDegrees>50.21404794417321681976318359375</LatitudeDegrees>
              <LongitudeDegrees>17.02239249832928180694580078125</LongitudeDegrees>
            </Position>
            <AltitudeMeters>1030.800048828125</AltitudeMeters>
            <DistanceMeters>27913.845533299</DistanceMeters>
          </Trackpoint>
          <Trackpoint>
            <Time>2022-08-27T07:00:45.000Z</Time>
            <Position>
              <LatitudeDegrees>50.2140572480857372283935546875</LatitudeDegrees>
              <LongitudeDegrees>17.02233835123479366302490234375</LongitudeDegrees>
            </Position>
            <AltitudeMeters>1030.5999755859375</AltitudeMeters>
            <DistanceMeters>27917.838917202</DistanceMeters>
          </Trackpoint>
          <Trackpoint>
            <Time>2022-08-27T07:00:50.000Z</Time>
            <Position>
              <LatitudeDegrees>50.2140699885785579681396484375</LatitudeDegrees>
              <LongitudeDegrees>17.0222470723092555999755859375</LongitudeDegrees>
            </Position>
            <AltitudeMeters>1030</AltitudeMeters>
            <DistanceMeters>27924.492823183</DistanceMeters>
          </Trackpoint>
          <Trackpoint>
            <Time>2022-08-27T07:00:53.000Z</Time>
            <Position>
              <LatitudeDegrees>50.214072167873382568359375</LatitudeDegrees>
              <LongitudeDegrees>17.022190578281879425048828125</LongitudeDegrees>
            </Position>
            <AltitudeMeters>1029.800048828125</AltitudeMeters>
            <DistanceMeters>27928.524465231</DistanceMeters>
          </Trackpoint>
          <Trackpoint>
            <Time>2022-08-27T07:00:59.000Z</Time>
            <Position>
              <LatitudeDegrees>50.21409035660326480865478515625</LatitudeDegrees>
              <LongitudeDegrees>17.022083289921283721923828125</LongitudeDegrees>
            </Position>
            <AltitudeMeters>1029.4000244140625</AltitudeMeters>
            <DistanceMeters>27936.429979703</DistanceMeters>
          </Trackpoint>
          <Trackpoint>
            <Time>2022-08-27T07:01:08.000Z</Time>
            <Position>
              <LatitudeDegrees>50.21410427056252956390380859375</LatitudeDegrees>
              <LongitudeDegrees>17.02193719334900379180908203125</LongitudeDegrees>
            </Position>
            <AltitudeMeters>1028.800048828125</AltitudeMeters>
            <DistanceMeters>27946.950085068</DistanceMeters>
          </Trackpoint>
          <Trackpoint>
            <Time>2022-08-27T07:01:09.000Z</Time>
            <Position>
              <LatitudeDegrees>50.21410376764833927154541015625</LatitudeDegrees>
              <LongitudeDegrees>17.0219262130558490753173828125</LongitudeDegrees>
            </Position>
            <AltitudeMeters>1028.5999755859375</AltitudeMeters>
            <DistanceMeters>27947.733695429</DistanceMeters>
          </Trackpoint>
          <Trackpoint>
            <Time>2022-08-27T07:01:18.000Z</Time>
            <Position>
              <LatitudeDegrees>50.2141192741692066192626953125</LatitudeDegrees>
              <LongitudeDegrees>17.02180291526019573211669921875</LongitudeDegrees>
            </Position>
            <AltitudeMeters>1027.800048828125</AltitudeMeters>
            <DistanceMeters>27956.683375762</DistanceMeters>
          </Trackpoint>
          <Trackpoint>
            <Time>2022-08-27T07:01:20.000Z</Time>
            <Position>
              <LatitudeDegrees>50.2141229622066020965576171875</LatitudeDegrees>
              <LongitudeDegrees>17.02177324332296848297119140625</LongitudeDegrees>
            </Position>
            <AltitudeMeters>1027.800048828125</AltitudeMeters>
            <DistanceMeters>27958.835683643</DistanceMeters>
          </Trackpoint>
          <Trackpoint>
            <Time>2022-08-27T07:01:30.000Z</Time>
            <Position>
              <LatitudeDegrees>50.21415037102997303009033203125</LatitudeDegrees>
              <LongitudeDegrees>17.021624632179737091064453125</LongitudeDegrees>
            </Position>
            <AltitudeMeters>1026.800048828125</AltitudeMeters>
            <DistanceMeters>27969.851407281</DistanceMeters>
          </Trackpoint>
          <Trackpoint>
            <Time>2022-08-27T07:01:31.000Z</Time>
            <Position>
              <LatitudeDegrees>50.21415439434349536895751953125</LatitudeDegrees>
              <LongitudeDegrees>17.0216137357056140899658203125</LongitudeDegrees>
            </Position>
            <AltitudeMeters>1026.5999755859375</AltitudeMeters>
            <DistanceMeters>27970.742836878</DistanceMeters>
          </Trackpoint>
          <Trackpoint>
            <Time>2022-08-27T07:01:42.000Z</Time>
            <Position>
              <LatitudeDegrees>50.214183144271373748779296875</LatitudeDegrees>
              <LongitudeDegrees>17.02147099189460277557373046875</LongitudeDegrees>
            </Position>
            <AltitudeMeters>1025.800048828125</AltitudeMeters>
            <DistanceMeters>27981.401090096</DistanceMeters>
          </Trackpoint>
          <Trackpoint>
            <Time>2022-08-27T07:01:44.000Z</Time>
            <Position>
              <LatitudeDegrees>50.214188508689403533935546875</LatitudeDegrees>
              <LongitudeDegrees>17.021444253623485565185546875</LongitudeDegrees>
            </Position>
            <AltitudeMeters>1025.5999755859375</AltitudeMeters>
            <DistanceMeters>27983.394387273</DistanceMeters>
          </Trackpoint>
          <Trackpoint>
            <Time>2022-08-27T07:01:52.000Z</Time>
            <Position>
              <LatitudeDegrees>50.214211307466030120849609375</LatitudeDegrees>
              <LongitudeDegrees>17.0212915353477001190185546875</LongitudeDegrees>
            </Position>
            <AltitudeMeters>1025.199951171875</AltitudeMeters>
            <DistanceMeters>27994.563968113</DistanceMeters>
          </Trackpoint>
          <Trackpoint>
            <Time>2022-08-27T07:02:02.000Z</Time>
            <Position>
              <LatitudeDegrees>50.21421943791210651397705078125</LatitudeDegrees>
              <LongitudeDegrees>17.02116102911531925201416015625</LongitudeDegrees>
            </Position>
            <AltitudeMeters>1024.800048828125</AltitudeMeters>
            <DistanceMeters>28003.903213713</DistanceMeters>
          </Trackpoint>
          <Trackpoint>
            <Time>2022-08-27T07:02:05.000Z</Time>
            <Position>
              <LatitudeDegrees>50.2142181806266307830810546875</LatitudeDegrees>
              <LongitudeDegrees>17.021131105720996856689453125</LongitudeDegrees>
            </Position>
            <AltitudeMeters>1024.5999755859375</AltitudeMeters>
            <DistanceMeters>28006.038673524</DistanceMeters>
          </Trackpoint>
          <Trackpoint>
            <Time>2022-08-27T07:02:14.000Z</Time>
            <Position>
              <LatitudeDegrees>50.214207954704761505126953125</LatitudeDegrees>
              <LongitudeDegrees>17.02100747264921665191650390625</LongitudeDegrees>
            </Position>
            <AltitudeMeters>1024.199951171875</AltitudeMeters>
            <DistanceMeters>28014.917444123</DistanceMeters>
          </Trackpoint>
          <Trackpoint>
            <Time>2022-08-27T07:02:24.000Z</Time>
            <Position>
              <LatitudeDegrees>50.21420166827738285064697265625</LatitudeDegrees>
              <LongitudeDegrees>17.0209052972495555877685546875</LongitudeDegrees>
            </Position>
            <AltitudeMeters>1023.4000244140625</AltitudeMeters>
            <DistanceMeters>28022.22832796</DistanceMeters>
          </Trackpoint>
          <Trackpoint>
            <Time>2022-08-27T07:02:25.000Z</Time>
            <Position>
              <LatitudeDegrees>50.21420158445835113525390625</LatitudeDegrees>
              <LongitudeDegrees>17.02089498750865459442138671875</LongitudeDegrees>
            </Position>
            <AltitudeMeters>1023.4000244140625</AltitudeMeters>
            <DistanceMeters>28022.964401724</DistanceMeters>
          </Trackpoint>
          <Trackpoint>
            <Time>2022-08-27T07:02:33.000Z</Time>
            <Position>
              <LatitudeDegrees>50.214206278324127197265625</LatitudeDegrees>
              <LongitudeDegrees>17.0207711867988109588623046875</LongitudeDegrees>
            </Position>
            <AltitudeMeters>1022.4000244140625</AltitudeMeters>
            <DistanceMeters>28031.797286897</DistanceMeters>
          </Trackpoint>
          <Trackpoint>
            <Time>2022-08-27T07:02:36.000Z</Time>
            <Position>
              <LatitudeDegrees>50.21421222947537899017333984375</LatitudeDegrees>
              <LongitudeDegrees>17.0207195542752742767333984375</LongitudeDegrees>
            </Position>
            <AltitudeMeters>1022</AltitudeMeters>
            <DistanceMeters>28035.533661903</DistanceMeters>
          </Trackpoint>
          <Trackpoint>
            <Time>2022-08-27T07:02:45.000Z</Time>
            <Position>
              <LatitudeDegrees>50.21421306766569614410400390625</LatitudeDegrees>
              <LongitudeDegrees>17.02059173025190830230712890625</LongitudeDegrees>
            </Position>
            <AltitudeMeters>1021</AltitudeMeters>
            <DistanceMeters>28044.638391539</DistanceMeters>
          </Trackpoint>
          <Trackpoint>
            <Time>2022-08-27T07:02:48.000Z</Time>
            <Position>
              <LatitudeDegrees>50.21420770324766635894775390625</LatitudeDegrees>
              <LongitudeDegrees>17.0205670036375522613525390625</LongitudeDegrees>
            </Position>
            <AltitudeMeters>1021</AltitudeMeters>
            <DistanceMeters>28046.498101</DistanceMeters>
          </Trackpoint>
          <Trackpoint>
            <Time>2022-08-27T07:03:00.000Z</Time>
            <Position>
              <LatitudeDegrees>50.21415590308606624603271484375</LatitudeDegrees>
              <LongitudeDegrees>17.02045418322086334228515625</LongitudeDegrees>
            </Position>
            <AltitudeMeters>1020.4000244140625</AltitudeMeters>
            <DistanceMeters>28056.387729808</DistanceMeters>
          </Trackpoint>
          <Trackpoint>
            <Time>2022-08-27T07:03:13.000Z</Time>
            <Position>
              <LatitudeDegrees>50.2141051925718784332275390625</LatitudeDegrees>
              <LongitudeDegrees>17.02039022929966449737548828125</LongitudeDegrees>
            </Position>
            <AltitudeMeters>1020</AltitudeMeters>
            <DistanceMeters>28063.63970645</DistanceMeters>
          </Trackpoint>
          <Trackpoint>
            <Time>2022-08-27T07:03:14.000Z</Time>
            <Position>
              <LatitudeDegrees>50.21410502493381500244140625</LatitudeDegrees>
              <LongitudeDegrees>17.02038310468196868896484375</LongitudeDegrees>
            </Position>
            <AltitudeMeters>1019.79998779296875</AltitudeMeters>
            <DistanceMeters>28064.142540558</DistanceMeters>
          </Trackpoint>
          <Trackpoint>
            <Time>2022-08-27T07:03:15.000Z</Time>
            <Position>
              <LatitudeDegrees>50.2140994928777217864990234375</LatitudeDegrees>
              <LongitudeDegrees>17.0203732140362262725830078125</LongitudeDegrees>
            </Position>
            <AltitudeMeters>1019.79998779296875</AltitudeMeters>
            <DistanceMeters>28065.078445155</DistanceMeters>
          </Trackpoint>
          <Trackpoint>
            <Time>2022-08-27T07:03:27.000Z</Time>
            <Position>
              <LatitudeDegrees>50.21406135521829128265380859375</LatitudeDegrees>
              <LongitudeDegrees>17.02033792622387409210205078125</LongitudeDegrees>
            </Position>
            <AltitudeMeters>1019</AltitudeMeters>
            <DistanceMeters>28070.010688655</DistanceMeters>
          </Trackpoint>
          <Trackpoint>
            <Time>2022-08-27T07:03:39.000Z</Time>
            <Position>
              <LatitudeDegrees>50.2139737643301486968994140625</LatitudeDegrees>
              <LongitudeDegrees>17.0203004591166973114013671875</LongitudeDegrees>
            </Position>
            <AltitudeMeters>1018.79998779296875</AltitudeMeters>
            <DistanceMeters>28080.118422569</DistanceMeters>
          </Trackpoint>
          <Trackpoint>
            <Time>2022-08-27T07:03:49.000Z</Time>
            <Position>
              <LatitudeDegrees>50.21385298110544681549072265625</LatitudeDegrees>
              <LongitudeDegrees>17.0202330686151981353759765625</LongitudeDegrees>
            </Position>
            <AltitudeMeters>1018.5999755859375</AltitudeMeters>
            <DistanceMeters>28094.392687695</DistanceMeters>
          </Trackpoint>
          <Trackpoint>
            <Time>2022-08-27T07:03:50.000Z</Time>
            <Position>
              <LatitudeDegrees>50.213841833174228668212890625</LatitudeDegrees>
              <LongitudeDegrees>17.020224519073963165283203125</LongitudeDegrees>
            </Position>
            <AltitudeMeters>1018.5999755859375</AltitudeMeters>
            <DistanceMeters>28095.773030453</DistanceMeters>
          </Trackpoint>
          <Trackpoint>
            <Time>2022-08-27T07:04:01.000Z</Time>
            <Position>
              <LatitudeDegrees>50.213703699409961700439453125</LatitudeDegrees>
              <LongitudeDegrees>17.0201401971280574798583984375</LongitudeDegrees>
            </Position>
            <AltitudeMeters>1018</AltitudeMeters>
            <DistanceMeters>28112.278981998</DistanceMeters>
          </Trackpoint>
          <Trackpoint>
            <Time>2022-08-27T07:04:12.000Z</Time>
            <Position>
              <LatitudeDegrees>50.2135657332837581634521484375</LatitudeDegrees>
              <LongitudeDegrees>17.0200942642986774444580078125</LongitudeDegrees>
            </Position>
            <AltitudeMeters>1017.5999755859375</AltitudeMeters>
            <DistanceMeters>28127.979396858</DistanceMeters>
          </Trackpoint>
          <Trackpoint>
            <Time>2022-08-27T07:04:15.000Z</Time>
            <Position>
              <LatitudeDegrees>50.2135345526039600372314453125</LatitudeDegrees>
              <LongitudeDegrees>17.02008345164358615875244140625</LongitudeDegrees>
            </Position>
            <AltitudeMeters>1017.4000244140625</AltitudeMeters>
            <DistanceMeters>28131.532430332</DistanceMeters>
          </Trackpoint>
          <Trackpoint>
            <Time>2022-08-27T07:04:23.000Z</Time>
            <Position>
              <LatitudeDegrees>50.2134083211421966552734375</LatitudeDegrees>
              <LongitudeDegrees>17.0200329087674617767333984375</LongitudeDegrees>
            </Position>
            <AltitudeMeters>1017.20001220703125</AltitudeMeters>
            <DistanceMeters>28146.035761007</DistanceMeters>
          </Trackpoint>
          <Trackpoint>
            <Time>2022-08-27T07:04:32.000Z</Time>
            <Position>
              <LatitudeDegrees>50.21328426897525787353515625</LatitudeDegrees>
              <LongitudeDegrees>17.01998722739517688751220703125</LongitudeDegrees>
            </Position>
            <AltitudeMeters>1016.4000244140625</AltitudeMeters>
            <DistanceMeters>28160.221183929</DistanceMeters>
          </Trackpoint>
          <Trackpoint>
            <Time>2022-08-27T07:04:34.000Z</Time>
            <Position>
              <LatitudeDegrees>50.213266499340534210205078125</LatitudeDegrees>
              <LongitudeDegrees>17.01998077332973480224609375</LongitudeDegrees>
            </Position>
            <AltitudeMeters>1016.4000244140625</AltitudeMeters>
            <DistanceMeters>28162.25039926</DistanceMeters>
          </Trackpoint>
          <Trackpoint>
            <Time>2022-08-27T07:04:44.000Z</Time>
            <Position>
              <LatitudeDegrees>50.2131543494760990142822265625</LatitudeDegrees>
              <LongitudeDegrees>17.01995135284960269927978515625</LongitudeDegrees>
            </Position>
            <AltitudeMeters>1015.79998779296875</AltitudeMeters>
            <DistanceMeters>28174.907158566</DistanceMeters>
          </Trackpoint>
          <Trackpoint>
            <Time>2022-08-27T07:04:51.000Z</Time>
            <Position>
              <LatitudeDegrees>50.2130782417953014373779296875</LatitudeDegrees>
              <LongitudeDegrees>17.01991866342723369598388671875</LongitudeDegrees>
            </Position>
            <AltitudeMeters>1015.4000244140625</AltitudeMeters>
            <DistanceMeters>28183.691863073</DistanceMeters>
          </Trackpoint>
          <Trackpoint>
            <Time>2022-08-27T07:04:56.000Z</Time>
            <Position>
              <LatitudeDegrees>50.2130286209285259246826171875</LatitudeDegrees>
              <LongitudeDegrees>17.01989519409835338592529296875</LongitudeDegrees>
            </Position>
            <AltitudeMeters>1015</AltitudeMeters>
            <DistanceMeters>28189.461949022</DistanceMeters>
          </Trackpoint>
          <Trackpoint>
            <Time>2022-08-27T07:05:06.000Z</Time>
            <Position>
              <LatitudeDegrees>50.21294086240231990814208984375</LatitudeDegrees>
              <LongitudeDegrees>17.01982931233942508697509765625</LongitudeDegrees>
            </Position>
            <AltitudeMeters>1014.4000244140625</AltitudeMeters>
            <DistanceMeters>28200.298744865</DistanceMeters>
          </Trackpoint>
          <Trackpoint>
            <Time>2022-08-27T07:05:09.000Z</Time>
            <Position>
              <LatitudeDegrees>50.212918817996978759765625</LatitudeDegrees>
              <LongitudeDegrees>17.019809782505035400390625</LongitudeDegrees>
            </Position>
            <AltitudeMeters>1014</AltitudeMeters>
            <DistanceMeters>28203.120894298</DistanceMeters>
          </Trackpoint>
          <Trackpoint>
            <Time>2022-08-27T07:05:21.000Z</Time>
            <Position>
              <LatitudeDegrees>50.21280415356159210205078125</LatitudeDegrees>
              <LongitudeDegrees>17.01976829208433628082275390625</LongitudeDegrees>
            </Position>
            <AltitudeMeters>1013.5999755859375</AltitudeMeters>
            <DistanceMeters>28216.221146312</DistanceMeters>
          </Trackpoint>
          <Trackpoint>
            <Time>2022-08-27T07:05:34.000Z</Time>
            <Position>
              <LatitudeDegrees>50.212665013968944549560546875</LatitudeDegrees>
              <LongitudeDegrees>17.01971347443759441375732421875</LongitudeDegrees>
            </Position>
            <AltitudeMeters>1013.20001220703125</AltitudeMeters>
            <DistanceMeters>28232.192420506</DistanceMeters>
          </Trackpoint>
          <Trackpoint>
            <Time>2022-08-27T07:05:40.000Z</Time>
            <Position>
              <LatitudeDegrees>50.2125998027622699737548828125</LatitudeDegrees>
              <LongitudeDegrees>17.01968112029135227203369140625</LongitudeDegrees>
            </Position>
            <AltitudeMeters>1013.20001220703125</AltitudeMeters>
            <DistanceMeters>28239.807612619</DistanceMeters>
          </Trackpoint>
          <Trackpoint>
            <Time>2022-08-27T07:05:47.000Z</Time>
            <Position>
              <LatitudeDegrees>50.21252931095659732818603515625</LatitudeDegrees>
              <LongitudeDegrees>17.0196238718926906585693359375</LongitudeDegrees>
            </Position>
            <AltitudeMeters>1012.79998779296875</AltitudeMeters>
            <DistanceMeters>28248.649693927</DistanceMeters>
          </Trackpoint>
          <Trackpoint>
            <Time>2022-08-27T07:05:58.000Z</Time>
            <Position>
              <LatitudeDegrees>50.2124311588704586029052734375</LatitudeDegrees>
              <LongitudeDegrees>17.01951281167566776275634765625</LongitudeDegrees>
            </Position>
            <AltitudeMeters>1012.4000244140625</AltitudeMeters>
            <DistanceMeters>28262.137463203</DistanceMeters>
          </Trackpoint>
          <Trackpoint>
            <Time>2022-08-27T07:06:04.000Z</Time>
            <Position>
              <LatitudeDegrees>50.21238380111753940582275390625</LatitudeDegrees>
              <LongitudeDegrees>17.01945682056248188018798828125</LongitudeDegrees>
            </Position>
            <AltitudeMeters>1012.20001220703125</AltitudeMeters>
            <DistanceMeters>28268.74711598</DistanceMeters>
          </Trackpoint>
          <Trackpoint>
            <Time>2022-08-27T07:06:08.000Z</Time>
            <Position>
              <LatitudeDegrees>50.21235060878098011016845703125</LatitudeDegrees>
              <LongitudeDegrees>17.01941206119954586029052734375</LongitudeDegrees>
            </Position>
            <AltitudeMeters>1012</AltitudeMeters>
            <DistanceMeters>28273.625976657</DistanceMeters>
          </Trackpoint>
          <Trackpoint>
            <Time>2022-08-27T07:06:17.000Z</Time>
            <Position>
              <LatitudeDegrees>50.2122883312404155731201171875</LatitudeDegrees>
              <LongitudeDegrees>17.01933796517550945281982421875</LongitudeDegrees>
            </Position>
            <AltitudeMeters>1011.5999755859375</AltitudeMeters>
            <DistanceMeters>28282.337910571</DistanceMeters>
          </Trackpoint>
          <Trackpoint>
            <Time>2022-08-27T07:06:27.000Z</Time>
            <Position>
              <LatitudeDegrees>50.21221633069217205047607421875</LatitudeDegrees>
              <LongitudeDegrees>17.0192399807274341583251953125</LongitudeDegrees>
            </Position>
            <AltitudeMeters>1011.20001220703125</AltitudeMeters>
            <DistanceMeters>28292.96476975</DistanceMeters>
          </Trackpoint>
          <Trackpoint>
            <Time>2022-08-27T07:06:29.000Z</Time>
            <Position>
              <LatitudeDegrees>50.2122025005519390106201171875</LatitudeDegrees>
              <LongitudeDegrees>17.0192210376262664794921875</LongitudeDegrees>
            </Position>
            <AltitudeMeters>1011</AltitudeMeters>
            <DistanceMeters>28295.011707821</DistanceMeters>
          </Trackpoint>
          <Trackpoint>
            <Time>2022-08-27T07:06:38.000Z</Time>
            <Position>
              <LatitudeDegrees>50.212146677076816558837890625</LatitudeDegrees>
              <LongitudeDegrees>17.0191390626132488250732421875</LongitudeDegrees>
            </Position>
            <AltitudeMeters>1010.4000244140625</AltitudeMeters>
            <DistanceMeters>28303.537674944</DistanceMeters>
          </Trackpoint>
          <Trackpoint>
            <Time>2022-08-27T07:06:45.000Z</Time>
            <Position>
              <LatitudeDegrees>50.212108790874481201171875</LatitudeDegrees>
              <LongitudeDegrees>17.01906479895114898681640625</LongitudeDegrees>
            </Position>
            <AltitudeMeters>1010.20001220703125</AltitudeMeters>
            <DistanceMeters>28310.301948544</DistanceMeters>
          </Trackpoint>
          <Trackpoint>
            <Time>2022-08-27T07:06:50.000Z</Time>
            <Position>
              <LatitudeDegrees>50.21208054386079311370849609375</LatitudeDegrees>
              <LongitudeDegrees>17.01901090331375598907470703125</LongitudeDegrees>
            </Position>
            <AltitudeMeters>1010</AltitudeMeters>
            <DistanceMeters>28315.264308715</DistanceMeters>
          </Trackpoint>
          <Trackpoint>
            <Time>2022-08-27T07:07:02.000Z</Time>
            <Position>
              <LatitudeDegrees>50.21204416640102863311767578125</LatitudeDegrees>
              <LongitudeDegrees>17.0188473723828792572021484375</LongitudeDegrees>
            </Position>
            <AltitudeMeters>1009.5999755859375</AltitudeMeters>
            <DistanceMeters>28327.595832843</DistanceMeters>
          </Trackpoint>
          <Trackpoint>
            <Time>2022-08-27T07:07:13.000Z</Time>
            <Position>
              <LatitudeDegrees>50.2120001614093780517578125</LatitudeDegrees>
              <LongitudeDegrees>17.0186472125351428985595703125</LongitudeDegrees>
            </Position>
            <AltitudeMeters>1009.20001220703125</AltitudeMeters>
            <DistanceMeters>28342.670676251</DistanceMeters>
          </Trackpoint>
          <Trackpoint>
            <Time>2022-08-27T07:07:21.000Z</Time>
            <Position>
              <LatitudeDegrees>50.2119590900838375091552734375</LatitudeDegrees>
              <LongitudeDegrees>17.0185000263154506683349609375</LongitudeDegrees>
            </Position>
            <AltitudeMeters>1009.20001220703125</AltitudeMeters>
            <DistanceMeters>28354.107882526</DistanceMeters>
          </Trackpoint>
          <Trackpoint>
            <Time>2022-08-27T07:07:24.000Z</Time>
            <Position>
              <LatitudeDegrees>50.211958922445774078369140625</LatitudeDegrees>
              <LongitudeDegrees>17.0184544287621974945068359375</LongitudeDegrees>
            </Position>
            <AltitudeMeters>1009.20001220703125</AltitudeMeters>
            <DistanceMeters>28357.35551694</DistanceMeters>
          </Trackpoint>
          <Trackpoint>
            <Time>2022-08-27T07:07:34.000Z</Time>
            <Position>
              <LatitudeDegrees>50.21198884584009647369384765625</LatitudeDegrees>
              <LongitudeDegrees>17.01831889338791370391845703125</LongitudeDegrees>
            </Position>
            <AltitudeMeters>1008.79998779296875</AltitudeMeters>
            <DistanceMeters>28367.56724171</DistanceMeters>
          </Trackpoint>
          <Trackpoint>
            <Time>2022-08-27T07:07:45.000Z</Time>
            <Position>
              <LatitudeDegrees>50.212017931044101715087890625</LatitudeDegrees>
              <LongitudeDegrees>17.01815678738057613372802734375</LongitudeDegrees>
            </Position>
            <AltitudeMeters>1008.5999755859375</AltitudeMeters>
            <DistanceMeters>28379.558694386</DistanceMeters>
          </Trackpoint>
          <Trackpoint>
            <Time>2022-08-27T07:07:53.000Z</Time>
            <Position>
              <LatitudeDegrees>50.212049447000026702880859375</LatitudeDegrees>
              <LongitudeDegrees>17.0180676877498626708984375</LongitudeDegrees>
            </Position>
            <AltitudeMeters>1008.5999755859375</AltitudeMeters>
            <DistanceMeters>28386.809425733</DistanceMeters>
          </Trackpoint>
          <Trackpoint>
            <Time>2022-08-27T07:08:04.000Z</Time>
            <Position>
              <LatitudeDegrees>50.21206788718700408935546875</LatitudeDegrees>
              <LongitudeDegrees>17.0178814418613910675048828125</LongitudeDegrees>
            </Position>
            <AltitudeMeters>1008.5999755859375</AltitudeMeters>
            <DistanceMeters>28400.233105386</DistanceMeters>
          </Trackpoint>
          <Trackpoint>
            <Time>2022-08-27T07:08:15.000Z</Time>
            <Position>
              <LatitudeDegrees>50.2121020853519439697265625</LatitudeDegrees>
              <LongitudeDegrees>17.0177630893886089324951171875</LongitudeDegrees>
            </Position>
            <AltitudeMeters>1008.5999755859375</AltitudeMeters>
            <DistanceMeters>28409.482480729</DistanceMeters>
          </Trackpoint>
          <Trackpoint>
            <Time>2022-08-27T07:08:25.000Z</Time>
            <Position>
              <LatitudeDegrees>50.21214407868683338165283203125</LatitudeDegrees>
              <LongitudeDegrees>17.01765320263803005218505859375</LongitudeDegrees>
            </Position>
            <AltitudeMeters>1008.5999755859375</AltitudeMeters>
            <DistanceMeters>28418.599104204</DistanceMeters>
          </Trackpoint>
          <Trackpoint>
            <Time>2022-08-27T07:08:36.000Z</Time>
            <Position>
              <LatitudeDegrees>50.21216855384409427642822265625</LatitudeDegrees>
              <LongitudeDegrees>17.01750132255256175994873046875</LongitudeDegrees>
            </Position>
            <AltitudeMeters>1008.5999755859375</AltitudeMeters>
            <DistanceMeters>28429.754932885</DistanceMeters>
          </Trackpoint>
          <Trackpoint>
            <Time>2022-08-27T07:08:46.000Z</Time>
            <Position>
              <LatitudeDegrees>50.21219437010586261749267578125</LatitudeDegrees>
              <LongitudeDegrees>17.0173805393278598785400390625</LongitudeDegrees>
            </Position>
            <AltitudeMeters>1008.5999755859375</AltitudeMeters>
            <DistanceMeters>28438.82538086</DistanceMeters>
          </Trackpoint>
          <Trackpoint>
            <Time>2022-08-27T07:08:57.000Z</Time>
            <Position>
              <LatitudeDegrees>50.2122361958026885986328125</LatitudeDegrees>
              <LongitudeDegrees>17.01722069643437862396240234375</LongitudeDegrees>
            </Position>
            <AltitudeMeters>1008.5999755859375</AltitudeMeters>
            <DistanceMeters>28451.125743896</DistanceMeters>
          </Trackpoint>
          <Trackpoint>
            <Time>2022-08-27T07:09:07.000Z</Time>
            <Position>
              <LatitudeDegrees>50.21225455217063426971435546875</LatitudeDegrees>
              <LongitudeDegrees>17.01708759181201457977294921875</LongitudeDegrees>
            </Position>
            <AltitudeMeters>1008.79998779296875</AltitudeMeters>
            <DistanceMeters>28460.824056958</DistanceMeters>
          </Trackpoint>
          <Trackpoint>
            <Time>2022-08-27T07:09:19.000Z</Time>
            <Position>
              <LatitudeDegrees>50.21229051053524017333984375</LatitudeDegrees>
              <LongitudeDegrees>17.01693571172654628753662109375</LongitudeDegrees>
            </Position>
            <AltitudeMeters>1008.5999755859375</AltitudeMeters>
            <DistanceMeters>28472.358750119</DistanceMeters>
          </Trackpoint>
          <Trackpoint>
            <Time>2022-08-27T07:09:31.000Z</Time>
            <Position>
              <LatitudeDegrees>50.2123339287936687469482421875</LatitudeDegrees>
              <LongitudeDegrees>17.01676019467413425445556640625</LongitudeDegrees>
            </Position>
            <AltitudeMeters>1008.5999755859375</AltitudeMeters>
            <DistanceMeters>28485.761896794</DistanceMeters>
          </Trackpoint>
          <Trackpoint>
            <Time>2022-08-27T07:09:41.000Z</Time>
            <Position>
              <LatitudeDegrees>50.21238572895526885986328125</LatitudeDegrees>
              <LongitudeDegrees>17.016596496105194091796875</LongitudeDegrees>
            </Position>
            <AltitudeMeters>1008.5999755859375</AltitudeMeters>
            <DistanceMeters>28498.769106804</DistanceMeters>
          </Trackpoint>
          <Trackpoint>
            <Time>2022-08-27T07:09:51.000Z</Time>
            <Position>
              <LatitudeDegrees>50.212433673441410064697265625</LatitudeDegrees>
              <LongitudeDegrees>17.0164380781352519989013671875</LongitudeDegrees>
            </Position>
            <AltitudeMeters>1009</AltitudeMeters>
            <DistanceMeters>28511.250568209</DistanceMeters>
          </Trackpoint>
          <Trackpoint>
            <Time>2022-08-27T07:10:01.000Z</Time>
            <Position>
              <LatitudeDegrees>50.212485976517200469970703125</LatitudeDegrees>
              <LongitudeDegrees>17.01628577895462512969970703125</LongitudeDegrees>
            </Position>
            <AltitudeMeters>1009</AltitudeMeters>
            <DistanceMeters>28523.561571541</DistanceMeters>
          </Trackpoint>
          <Trackpoint>
            <Time>2022-08-27T07:10:09.000Z</Time>
            <Position>
              <LatitudeDegrees>50.21251707337796688079833984375</LatitudeDegrees>
              <LongitudeDegrees>17.0161624811589717864990234375</LongitudeDegrees>
            </Position>
            <AltitudeMeters>1009</AltitudeMeters>
            <DistanceMeters>28533.001317001</DistanceMeters>
          </Trackpoint>
          <Trackpoint>
            <Time>2022-08-27T07:10:18.000Z</Time>
            <Position>
              <LatitudeDegrees>50.2125481702387332916259765625</LatitudeDegrees>
              <LongitudeDegrees>17.01601772569119930267333984375</LongitudeDegrees>
            </Position>
            <AltitudeMeters>1009.20001220703125</AltitudeMeters>
            <DistanceMeters>28543.877206452</DistanceMeters>
          </Trackpoint>
          <Trackpoint>
            <Time>2022-08-27T07:10:27.000Z</Time>
            <Position>
              <LatitudeDegrees>50.2125810272991657257080078125</LatitudeDegrees>
              <LongitudeDegrees>17.01592032797634601593017578125</LongitudeDegrees>
            </Position>
            <AltitudeMeters>1009.20001220703125</AltitudeMeters>
            <DistanceMeters>28551.719645527</DistanceMeters>
          </Trackpoint>
          <Trackpoint>
            <Time>2022-08-27T07:10:36.000Z</Time>
            <Position>
              <LatitudeDegrees>50.2126333303749561309814453125</LatitudeDegrees>
              <LongitudeDegrees>17.01578269712626934051513671875</LongitudeDegrees>
            </Position>
            <AltitudeMeters>1009.20001220703125</AltitudeMeters>
            <DistanceMeters>28563.121267363</DistanceMeters>
          </Trackpoint>
          <Trackpoint>
            <Time>2022-08-27T07:10:44.000Z</Time>
            <Position>
              <LatitudeDegrees>50.21267674863338470458984375</LatitudeDegrees>
              <LongitudeDegrees>17.015643976628780364990234375</LongitudeDegrees>
            </Position>
            <AltitudeMeters>1009.20001220703125</AltitudeMeters>
            <DistanceMeters>28574.120173405</DistanceMeters>
          </Trackpoint>
          <Trackpoint>
            <Time>2022-08-27T07:10:57.000Z</Time>
            <Position>
              <LatitudeDegrees>50.212742798030376434326171875</LatitudeDegrees>
              <LongitudeDegrees>17.0154537074267864227294921875</LongitudeDegrees>
            </Position>
            <AltitudeMeters>1009</AltitudeMeters>
            <DistanceMeters>28589.537946666</DistanceMeters>
          </Trackpoint>
          <Trackpoint>
            <Time>2022-08-27T07:11:09.000Z</Time>
            <Position>
              <LatitudeDegrees>50.2128009684383869171142578125</LatitudeDegrees>
              <LongitudeDegrees>17.01528414152562618255615234375</LongitudeDegrees>
            </Position>
            <AltitudeMeters>1008.79998779296875</AltitudeMeters>
            <DistanceMeters>28603.241576467</DistanceMeters>
          </Trackpoint>
          <Trackpoint>
            <Time>2022-08-27T07:11:22.000Z</Time>
            <Position>
              <LatitudeDegrees>50.21285511553287506103515625</LatitudeDegrees>
              <LongitudeDegrees>17.01509856618940830230712890625</LongitudeDegrees>
            </Position>
            <AltitudeMeters>1008.5999755859375</AltitudeMeters>
            <DistanceMeters>28617.768547469</DistanceMeters>
          </Trackpoint>
          <Trackpoint>
            <Time>2022-08-27T07:11:32.000Z</Time>
            <Position>
              <LatitudeDegrees>50.21291412413120269775390625</LatitudeDegrees>
              <LongitudeDegrees>17.01496948488056659698486328125</LongitudeDegrees>
            </Position>
            <AltitudeMeters>1008.5999755859375</AltitudeMeters>
            <DistanceMeters>28629.067539493</DistanceMeters>
          </Trackpoint>
          <Trackpoint>
            <Time>2022-08-27T07:11:34.000Z</Time>
            <Position>
              <LatitudeDegrees>50.21292812190949916839599609375</LatitudeDegrees>
              <LongitudeDegrees>17.01494048349559307098388671875</LongitudeDegrees>
            </Position>
            <AltitudeMeters>1008.5999755859375</AltitudeMeters>
            <DistanceMeters>28631.654291635</DistanceMeters>
          </Trackpoint>
          <Trackpoint>
            <Time>2022-08-27T07:11:42.000Z</Time>
            <Position>
              <LatitudeDegrees>50.21293549798429012298583984375</LatitudeDegrees>
              <LongitudeDegrees>17.014913074672222137451171875</LongitudeDegrees>
            </Position>
            <AltitudeMeters>1008.5999755859375</AltitudeMeters>
            <DistanceMeters>28633.770637051</DistanceMeters>
          </Trackpoint>
          <Trackpoint>
            <Time>2022-08-27T07:11:55.000Z</Time>
            <Position>
              <LatitudeDegrees>50.21297170780599117279052734375</LatitudeDegrees>
              <LongitudeDegrees>17.01486169360578060150146484375</LongitudeDegrees>
            </Position>
            <AltitudeMeters>1008.4000244140625</AltitudeMeters>
            <DistanceMeters>28639.214598006</DistanceMeters>
          </Trackpoint>
          <Trackpoint>
            <Time>2022-08-27T07:12:07.000Z</Time>
            <Position>
              <LatitudeDegrees>50.213019736111164093017578125</LatitudeDegrees>
              <LongitudeDegrees>17.01475155539810657501220703125</LongitudeDegrees>
            </Position>
            <AltitudeMeters>1008.4000244140625</AltitudeMeters>
            <DistanceMeters>28648.707762016</DistanceMeters>
          </Trackpoint>
          <Trackpoint>
            <Time>2022-08-27T07:12:18.000Z</Time>
            <Position>
              <LatitudeDegrees>50.213073380291461944580078125</LatitudeDegrees>
              <LongitudeDegrees>17.01463756151497364044189453125</LongitudeDegrees>
            </Position>
            <AltitudeMeters>1008.4000244140625</AltitudeMeters>
            <DistanceMeters>28658.785971174</DistanceMeters>
          </Trackpoint>
          <Trackpoint>
            <Time>2022-08-27T07:12:29.000Z</Time>
            <Position>
              <LatitudeDegrees>50.21314621903002262115478515625</LatitudeDegrees>
              <LongitudeDegrees>17.01450412161648273468017578125</LongitudeDegrees>
            </Position>
            <AltitudeMeters>1008.4000244140625</AltitudeMeters>
            <DistanceMeters>28671.278280052</DistanceMeters>
          </Trackpoint>
          <Trackpoint>
            <Time>2022-08-27T07:12:42.000Z</Time>
            <Position>
              <LatitudeDegrees>50.21321780048310756683349609375</LatitudeDegrees>
              <LongitudeDegrees>17.01434419490396976470947265625</LongitudeDegrees>
            </Position>
            <AltitudeMeters>1008.4000244140625</AltitudeMeters>
            <DistanceMeters>28685.17884032</DistanceMeters>
          </Trackpoint>
          <Trackpoint>
            <Time>2022-08-27T07:12:54.000Z</Time>
            <Position>
              <LatitudeDegrees>50.21331268362700939178466796875</LatitudeDegrees>
              <LongitudeDegrees>17.01424084603786468505859375</LongitudeDegrees>
            </Position>
            <AltitudeMeters>1008.20001220703125</AltitudeMeters>
            <DistanceMeters>28698.051716177</DistanceMeters>
          </Trackpoint>
          <Trackpoint>
            <Time>2022-08-27T07:13:05.000Z</Time>
            <Position>
              <LatitudeDegrees>50.21338996477425098419189453125</LatitudeDegrees>
              <LongitudeDegrees>17.01412660069763660430908203125</LongitudeDegrees>
            </Position>
            <AltitudeMeters>1008.20001220703125</AltitudeMeters>
            <DistanceMeters>28709.892365097</DistanceMeters>
          </Trackpoint>
          <Trackpoint>
            <Time>2022-08-27T07:13:15.000Z</Time>
            <Position>
              <LatitudeDegrees>50.21347143687307834625244140625</LatitudeDegrees>
              <LongitudeDegrees>17.01399810612201690673828125</LongitudeDegrees>
            </Position>
            <AltitudeMeters>1008.20001220703125</AltitudeMeters>
            <DistanceMeters>28722.77645976</DistanceMeters>
          </Trackpoint>
          <Trackpoint>
            <Time>2022-08-27T07:13:27.000Z</Time>
            <Position>
              <LatitudeDegrees>50.21355005912482738494873046875</LatitudeDegrees>
              <LongitudeDegrees>17.013865672051906585693359375</LongitudeDegrees>
            </Position>
            <AltitudeMeters>1008.20001220703125</AltitudeMeters>
            <DistanceMeters>28735.64302074</DistanceMeters>
          </Trackpoint>
          <Trackpoint>
            <Time>2022-08-27T07:13:39.000Z</Time>
            <Position>
              <LatitudeDegrees>50.2136577665805816650390625</LatitudeDegrees>
              <LongitudeDegrees>17.01374002732336521148681640625</LongitudeDegrees>
            </Position>
            <AltitudeMeters>1008</AltitudeMeters>
            <DistanceMeters>28750.603014543</DistanceMeters>
          </Trackpoint>
          <Trackpoint>
            <Time>2022-08-27T07:13:53.000Z</Time>
            <Position>
              <LatitudeDegrees>50.21376530639827251434326171875</LatitudeDegrees>
              <LongitudeDegrees>17.01359518803656101226806640625</LongitudeDegrees>
            </Position>
            <AltitudeMeters>1008.20001220703125</AltitudeMeters>
            <DistanceMeters>28766.404902842</DistanceMeters>
          </Trackpoint>
          <Trackpoint>
            <Time>2022-08-27T07:14:07.000Z</Time>
            <Position>
              <LatitudeDegrees>50.2138879336416721343994140625</LatitudeDegrees>
              <LongitudeDegrees>17.01346375979483127593994140625</LongitudeDegrees>
            </Position>
            <AltitudeMeters>1008.20001220703125</AltitudeMeters>
            <DistanceMeters>28782.955108544</DistanceMeters>
          </Trackpoint>
          <Trackpoint>
            <Time>2022-08-27T07:14:18.000Z</Time>
            <Position>
              <LatitudeDegrees>50.21393964998424053192138671875</LatitudeDegrees>
              <LongitudeDegrees>17.0133736543357372283935546875</LongitudeDegrees>
            </Position>
            <AltitudeMeters>1008.4000244140625</AltitudeMeters>
            <DistanceMeters>28791.575870061</DistanceMeters>
          </Trackpoint>
          <Trackpoint>
            <Time>2022-08-27T07:14:29.000Z</Time>
            <Position>
              <LatitudeDegrees>50.2140327729284763336181640625</LatitudeDegrees>
              <LongitudeDegrees>17.01317659579217433929443359375</LongitudeDegrees>
            </Position>
            <AltitudeMeters>1008.4000244140625</AltitudeMeters>
            <DistanceMeters>28809.023561515</DistanceMeters>
          </Trackpoint>
          <Trackpoint>
            <Time>2022-08-27T07:14:41.000Z</Time>
            <Position>
              <LatitudeDegrees>50.2140384726226329803466796875</LatitudeDegrees>
              <LongitudeDegrees>17.01299571432173252105712890625</LongitudeDegrees>
            </Position>
            <AltitudeMeters>1008.5999755859375</AltitudeMeters>
            <DistanceMeters>28821.922366052</DistanceMeters>
          </Trackpoint>
          <Trackpoint>
            <Time>2022-08-27T07:14:53.000Z</Time>
            <Position>
              <LatitudeDegrees>50.21405515260994434356689453125</LatitudeDegrees>
              <LongitudeDegrees>17.01276806183159351348876953125</LongitudeDegrees>
            </Position>
            <AltitudeMeters>1008.5999755859375</AltitudeMeters>
            <DistanceMeters>28838.24291031</DistanceMeters>
          </Trackpoint>
          <Trackpoint>
            <Time>2022-08-27T07:15:06.000Z</Time>
            <Position>
              <LatitudeDegrees>50.21402263082563877105712890625</LatitudeDegrees>
              <LongitudeDegrees>17.01254543848335742950439453125</LongitudeDegrees>
            </Position>
            <AltitudeMeters>1008.79998779296875</AltitudeMeters>
            <DistanceMeters>28854.507198162</DistanceMeters>
          </Trackpoint>
          <Trackpoint>
            <Time>2022-08-27T07:15:13.000Z</Time>
            <Position>
              <LatitudeDegrees>50.21402053534984588623046875</LatitudeDegrees>
              <LongitudeDegrees>17.01244099996984004974365234375</LongitudeDegrees>
            </Position>
            <AltitudeMeters>1009</AltitudeMeters>
            <DistanceMeters>28861.949676843</DistanceMeters>
          </Trackpoint>
          <Trackpoint>
            <Time>2022-08-27T07:15:18.000Z</Time>
            <Position>
              <LatitudeDegrees>50.21400444209575653076171875</LatitudeDegrees>
              <LongitudeDegrees>17.0123711787164211273193359375</LongitudeDegrees>
            </Position>
            <AltitudeMeters>1009</AltitudeMeters>
            <DistanceMeters>28867.23541771</DistanceMeters>
          </Trackpoint>
          <Trackpoint>
            <Time>2022-08-27T07:15:27.000Z</Time>
            <Position>
              <LatitudeDegrees>50.21399916149675846099853515625</LatitudeDegrees>
              <LongitudeDegrees>17.01220362447202205657958984375</LongitudeDegrees>
            </Position>
            <AltitudeMeters>1009</AltitudeMeters>
            <DistanceMeters>28879.183869852</DistanceMeters>
          </Trackpoint>
          <Trackpoint>
            <Time>2022-08-27T07:15:39.000Z</Time>
            <Position>
              <LatitudeDegrees>50.21395624615252017974853515625</LatitudeDegrees>
              <LongitudeDegrees>17.01204621233046054840087890625</LongitudeDegrees>
            </Position>
            <AltitudeMeters>1009.20001220703125</AltitudeMeters>
            <DistanceMeters>28891.370652334</DistanceMeters>
          </Trackpoint>
          <Trackpoint>
            <Time>2022-08-27T07:15:52.000Z</Time>
            <Position>
              <LatitudeDegrees>50.21388667635619640350341796875</LatitudeDegrees>
              <LongitudeDegrees>17.01191495172679424285888671875</LongitudeDegrees>
            </Position>
            <AltitudeMeters>1009.5999755859375</AltitudeMeters>
            <DistanceMeters>28903.509919919</DistanceMeters>
          </Trackpoint>
          <Trackpoint>
            <Time>2022-08-27T07:15:58.000Z</Time>
            <Position>
              <LatitudeDegrees>50.21386488340795040130615234375</LatitudeDegrees>
              <LongitudeDegrees>17.011832557618618011474609375</LongitudeDegrees>
            </Position>
            <AltitudeMeters>1009.79998779296875</AltitudeMeters>
            <DistanceMeters>28909.858956164</DistanceMeters>
          </Trackpoint>
          <Trackpoint>
            <Time>2022-08-27T07:16:05.000Z</Time>
            <Position>
              <LatitudeDegrees>50.21383856423199176788330078125</LatitudeDegrees>
              <LongitudeDegrees>17.01174563728272914886474609375</LongitudeDegrees>
            </Position>
            <AltitudeMeters>1010</AltitudeMeters>
            <DistanceMeters>28916.707475497</DistanceMeters>
          </Trackpoint>
          <Trackpoint>
            <Time>2022-08-27T07:16:15.000Z</Time>
            <Position>
              <LatitudeDegrees>50.21382297389209270477294921875</LatitudeDegrees>
              <LongitudeDegrees>17.01158680021762847900390625</LongitudeDegrees>
            </Position>
            <AltitudeMeters>1010</AltitudeMeters>
            <DistanceMeters>28928.152968888</DistanceMeters>
          </Trackpoint>
          <Trackpoint>
            <Time>2022-08-27T07:16:26.000Z</Time>
            <Position>
              <LatitudeDegrees>50.21382481791079044342041015625</LatitudeDegrees>
              <LongitudeDegrees>17.01136409305036067962646484375</LongitudeDegrees>
            </Position>
            <AltitudeMeters>1010.4000244140625</AltitudeMeters>
            <DistanceMeters>28944.016454329</DistanceMeters>
          </Trackpoint>
          <Trackpoint>
            <Time>2022-08-27T07:16:38.000Z</Time>
            <Position>
              <LatitudeDegrees>50.213808305561542510986328125</LatitudeDegrees>
              <LongitudeDegrees>17.0111772604286670684814453125</LongitudeDegrees>
            </Position>
            <AltitudeMeters>1010.5999755859375</AltitudeMeters>
            <DistanceMeters>28957.449884556</DistanceMeters>
          </Trackpoint>
          <Trackpoint>
            <Time>2022-08-27T07:16:40.000Z</Time>
            <Position>
              <LatitudeDegrees>50.21380126476287841796875</LatitudeDegrees>
              <LongitudeDegrees>17.01114901341497898101806640625</LongitudeDegrees>
            </Position>
            <AltitudeMeters>1010.5999755859375</AltitudeMeters>
            <DistanceMeters>28959.610567208</DistanceMeters>
          </Trackpoint>
          <Trackpoint>
            <Time>2022-08-27T07:16:50.000Z</Time>
            <Position>
              <LatitudeDegrees>50.2137521468102931976318359375</LatitudeDegrees>
              <LongitudeDegrees>17.01104038394987583160400390625</LongitudeDegrees>
            </Position>
            <AltitudeMeters>1011</AltitudeMeters>
            <DistanceMeters>28969.084211162</DistanceMeters>
          </Trackpoint>
          <Trackpoint>
            <Time>2022-08-27T07:17:02.000Z</Time>
            <Position>
              <LatitudeDegrees>50.21369875408709049224853515625</LatitudeDegrees>
              <LongitudeDegrees>17.01090225018560886383056640625</LongitudeDegrees>
            </Position>
            <AltitudeMeters>1011.20001220703125</AltitudeMeters>
            <DistanceMeters>28980.578123393</DistanceMeters>
          </Trackpoint>
          <Trackpoint>
            <Time>2022-08-27T07:17:07.000Z</Time>
            <Position>
              <LatitudeDegrees>50.21372272633016109466552734375</LatitudeDegrees>
              <LongitudeDegrees>17.0107926987111568450927734375</LongitudeDegrees>
            </Position>
            <AltitudeMeters>1011.5999755859375</AltitudeMeters>
            <DistanceMeters>28988.824120945</DistanceMeters>
          </Trackpoint>
          <Trackpoint>
            <Time>2022-08-27T07:17:13.000Z</Time>
            <Position>
              <LatitudeDegrees>50.21371199749410152435302734375</LatitudeDegrees>
              <LongitudeDegrees>17.01070527546107769012451171875</LongitudeDegrees>
            </Position>
            <AltitudeMeters>1012</AltitudeMeters>
            <DistanceMeters>28995.163905661</DistanceMeters>
          </Trackpoint>
          <Trackpoint>
            <Time>2022-08-27T07:17:25.000Z</Time>
            <Position>
              <LatitudeDegrees>50.2136736921966075897216796875</LatitudeDegrees>
              <LongitudeDegrees>17.0105452649295330047607421875</LongitudeDegrees>
            </Position>
            <AltitudeMeters>1012.5999755859375</AltitudeMeters>
            <DistanceMeters>29007.332520765</DistanceMeters>
          </Trackpoint>
          <Trackpoint>
            <Time>2022-08-27T07:17:29.000Z</Time>
            <Position>
              <LatitudeDegrees>50.213648714125156402587890625</LatitudeDegrees>
              <LongitudeDegrees>17.0104879327118396759033203125</LongitudeDegrees>
            </Position>
            <AltitudeMeters>1012.79998779296875</AltitudeMeters>
            <DistanceMeters>29012.272082137</DistanceMeters>
          </Trackpoint>
          <Trackpoint>
            <Time>2022-08-27T07:17:37.000Z</Time>
            <Position>
              <LatitudeDegrees>50.21362449042499065399169921875</LatitudeDegrees>
              <LongitudeDegrees>17.01038517057895660400390625</LongitudeDegrees>
            </Position>
            <AltitudeMeters>1013.20001220703125</AltitudeMeters>
            <DistanceMeters>29020.072380534</DistanceMeters>
          </Trackpoint>
          <Trackpoint>
            <Time>2022-08-27T07:17:46.000Z</Time>
            <Position>
              <LatitudeDegrees>50.213627256453037261962890625</LatitudeDegrees>
              <LongitudeDegrees>17.01024435460567474365234375</LongitudeDegrees>
            </Position>
            <AltitudeMeters>1013.79998779296875</AltitudeMeters>
            <DistanceMeters>29030.106589638</DistanceMeters>
          </Trackpoint>
          <Trackpoint>
            <Time>2022-08-27T07:17:50.000Z</Time>
            <Position>
              <LatitudeDegrees>50.21362901665270328521728515625</LatitudeDegrees>
              <LongitudeDegrees>17.010186016559600830078125</LongitudeDegrees>
            </Position>
            <AltitudeMeters>1014</AltitudeMeters>
            <DistanceMeters>29034.266112023</DistanceMeters>
          </Trackpoint>
          <Trackpoint>
            <Time>2022-08-27T07:18:00.000Z</Time>
            <Position>
              <LatitudeDegrees>50.21363236941397190093994140625</LatitudeDegrees>
              <LongitudeDegrees>17.0100398361682891845703125</LongitudeDegrees>
            </Position>
            <AltitudeMeters>1014.79998779296875</AltitudeMeters>
            <DistanceMeters>29044.684438129</DistanceMeters>
          </Trackpoint>
          <Trackpoint>
            <Time>2022-08-27T07:18:03.000Z</Time>
            <Position>
              <LatitudeDegrees>50.2136257477104663848876953125</LatitudeDegrees>
              <LongitudeDegrees>17.01000454835593700408935546875</LongitudeDegrees>
            </Position>
            <AltitudeMeters>1014.79998779296875</AltitudeMeters>
            <DistanceMeters>29047.304143856</DistanceMeters>
          </Trackpoint>
          <Trackpoint>
            <Time>2022-08-27T07:18:15.000Z</Time>
            <Position>
              <LatitudeDegrees>50.21361191757023334503173828125</LatitudeDegrees>
              <LongitudeDegrees>17.009856440126895904541015625</LongitudeDegrees>
            </Position>
            <AltitudeMeters>1015.5999755859375</AltitudeMeters>
            <DistanceMeters>29057.964938485</DistanceMeters>
          </Trackpoint>
          <Trackpoint>
            <Time>2022-08-27T07:18:20.000Z</Time>
            <Position>
              <LatitudeDegrees>50.21360772661864757537841796875</LatitudeDegrees>
              <LongitudeDegrees>17.00980070047080516815185546875</LongitudeDegrees>
            </Position>
            <AltitudeMeters>1015.79998779296875</AltitudeMeters>
            <DistanceMeters>29061.962842349</DistanceMeters>
          </Trackpoint>
          <Trackpoint>
            <Time>2022-08-27T07:18:26.000Z</Time>
            <Position>
              <LatitudeDegrees>50.21358668804168701171875</LatitudeDegrees>
              <LongitudeDegrees>17.00971864163875579833984375</LongitudeDegrees>
            </Position>
            <AltitudeMeters>1016</AltitudeMeters>
            <DistanceMeters>29068.258317352</DistanceMeters>
          </Trackpoint>
          <Trackpoint>
            <Time>2022-08-27T07:18:36.000Z</Time>
            <Position>
              <LatitudeDegrees>50.21358191035687923431396484375</LatitudeDegrees>
              <LongitudeDegrees>17.00955578126013278961181640625</LongitudeDegrees>
            </Position>
            <AltitudeMeters>1016.79998779296875</AltitudeMeters>
            <DistanceMeters>29079.870255238</DistanceMeters>
          </Trackpoint>
          <Trackpoint>
            <Time>2022-08-27T07:18:37.000Z</Time>
            <Position>
              <LatitudeDegrees>50.21358408965170383453369140625</LatitudeDegrees>
              <LongitudeDegrees>17.0095355808734893798828125</LongitudeDegrees>
            </Position>
            <AltitudeMeters>1016.79998779296875</AltitudeMeters>
            <DistanceMeters>29081.330083324</DistanceMeters>
          </Trackpoint>
          <Trackpoint>
            <Time>2022-08-27T07:18:48.000Z</Time>
            <Position>
              <LatitudeDegrees>50.21360437385737895965576171875</LatitudeDegrees>
              <LongitudeDegrees>17.00937909074127674102783203125</LongitudeDegrees>
            </Position>
            <AltitudeMeters>1017.20001220703125</AltitudeMeters>
            <DistanceMeters>29092.702363431</DistanceMeters>
          </Trackpoint>
          <Trackpoint>
            <Time>2022-08-27T07:18:59.000Z</Time>
            <Position>
              <LatitudeDegrees>50.213615186512470245361328125</LatitudeDegrees>
              <LongitudeDegrees>17.0092299766838550567626953125</LongitudeDegrees>
            </Position>
            <AltitudeMeters>1018</AltitudeMeters>
            <DistanceMeters>29103.390651277</DistanceMeters>
          </Trackpoint>
          <Trackpoint>
            <Time>2022-08-27T07:19:01.000Z</Time>
            <Position>
              <LatitudeDegrees>50.21362298168241977691650390625</LatitudeDegrees>
              <LongitudeDegrees>17.00921170413494110107421875</LongitudeDegrees>
            </Position>
            <AltitudeMeters>1018.20001220703125</AltitudeMeters>
            <DistanceMeters>29104.952099528</DistanceMeters>
          </Trackpoint>
          <Trackpoint>
            <Time>2022-08-27T07:19:11.000Z</Time>
            <Position>
              <LatitudeDegrees>50.2136626280844211578369140625</LatitudeDegrees>
              <LongitudeDegrees>17.009119503200054168701171875</LongitudeDegrees>
            </Position>
            <AltitudeMeters>1018.4000244140625</AltitudeMeters>
            <DistanceMeters>29112.863893883</DistanceMeters>
          </Trackpoint>
          <Trackpoint>
            <Time>2022-08-27T07:19:23.000Z</Time>
            <Position>
              <LatitudeDegrees>50.213747285306453704833984375</LatitudeDegrees>
              <LongitudeDegrees>17.0089858956634998321533203125</LongitudeDegrees>
            </Position>
            <AltitudeMeters>1019</AltitudeMeters>
            <DistanceMeters>29126.255582282</DistanceMeters>
          </Trackpoint>
          <Trackpoint>
            <Time>2022-08-27T07:19:27.000Z</Time>
            <Position>
              <LatitudeDegrees>50.21376765333116054534912109375</LatitudeDegrees>
              <LongitudeDegrees>17.00894323177635669708251953125</LongitudeDegrees>
            </Position>
            <AltitudeMeters>1019</AltitudeMeters>
            <DistanceMeters>29130.045945275</DistanceMeters>
          </Trackpoint>
          <Trackpoint>
            <Time>2022-08-27T07:19:39.000Z</Time>
            <Position>
              <LatitudeDegrees>50.21385096944868564605712890625</LatitudeDegrees>
              <LongitudeDegrees>17.00882672332227230072021484375</LongitudeDegrees>
            </Position>
            <AltitudeMeters>1019.20001220703125</AltitudeMeters>
            <DistanceMeters>29142.490091728</DistanceMeters>
          </Trackpoint>
          <Trackpoint>
            <Time>2022-08-27T07:19:50.000Z</Time>
            <Position>
              <LatitudeDegrees>50.21392808295786380767822265625</LatitudeDegrees>
              <LongitudeDegrees>17.00879956595599651336669921875</LongitudeDegrees>
            </Position>
            <AltitudeMeters>1020</AltitudeMeters>
            <DistanceMeters>29151.2881492</DistanceMeters>
          </Trackpoint>
          <Trackpoint>
            <Time>2022-08-27T07:19:52.000Z</Time>
            <Position>
              <LatitudeDegrees>50.21394199691712856292724609375</LatitudeDegrees>
              <LongitudeDegrees>17.00879998505115509033203125</LongitudeDegrees>
            </Position>
            <AltitudeMeters>1020.4000244140625</AltitudeMeters>
            <DistanceMeters>29152.837988009</DistanceMeters>
          </Trackpoint>
          <Trackpoint>
            <Time>2022-08-27T07:20:03.000Z</Time>
            <Position>
              <LatitudeDegrees>50.21402246318757534027099609375</LatitudeDegrees>
              <LongitudeDegrees>17.008790262043476104736328125</LongitudeDegrees>
            </Position>
            <AltitudeMeters>1020.5999755859375</AltitudeMeters>
            <DistanceMeters>29161.820400437</DistanceMeters>
          </Trackpoint>
          <Trackpoint>
            <Time>2022-08-27T07:20:15.000Z</Time>
            <Position>
              <LatitudeDegrees>50.214137546718120574951171875</LatitudeDegrees>
              <LongitudeDegrees>17.00878213159739971160888671875</LongitudeDegrees>
            </Position>
            <AltitudeMeters>1021</AltitudeMeters>
            <DistanceMeters>29174.642670198</DistanceMeters>
          </Trackpoint>
          <Trackpoint>
            <Time>2022-08-27T07:20:23.000Z</Time>
            <Position>
              <LatitudeDegrees>50.21419529803097248077392578125</LatitudeDegrees>
              <LongitudeDegrees>17.0087756775319576263427734375</LongitudeDegrees>
            </Position>
            <AltitudeMeters>1021.4000244140625</AltitudeMeters>
            <DistanceMeters>29181.086294293</DistanceMeters>
          </Trackpoint>
          <Trackpoint>
            <Time>2022-08-27T07:20:28.000Z</Time>
            <Position>
              <LatitudeDegrees>50.214241482317447662353515625</LatitudeDegrees>
              <LongitudeDegrees>17.00876922346651554107666015625</LongitudeDegrees>
            </Position>
            <AltitudeMeters>1021.4000244140625</AltitudeMeters>
            <DistanceMeters>29186.247565988</DistanceMeters>
          </Trackpoint>
          <Trackpoint>
            <Time>2022-08-27T07:20:41.000Z</Time>
            <Position>
              <LatitudeDegrees>50.21434701047837734222412109375</LatitudeDegrees>
              <LongitudeDegrees>17.0087324269115924835205078125</LongitudeDegrees>
            </Position>
            <AltitudeMeters>1021.5999755859375</AltitudeMeters>
            <DistanceMeters>29198.281865553</DistanceMeters>
          </Trackpoint>
          <Trackpoint>
            <Time>2022-08-27T07:20:54.000Z</Time>
            <Position>
              <LatitudeDegrees>50.2144790254533290863037109375</LatitudeDegrees>
              <LongitudeDegrees>17.008683644235134124755859375</LongitudeDegrees>
            </Position>
            <AltitudeMeters>1022</AltitudeMeters>
            <DistanceMeters>29213.3806506</DistanceMeters>
          </Trackpoint>
          <Trackpoint>
            <Time>2022-08-27T07:21:00.000Z</Time>
            <Position>
              <LatitudeDegrees>50.2145252935588359832763671875</LatitudeDegrees>
              <LongitudeDegrees>17.00871541164815425872802734375</LongitudeDegrees>
            </Position>
            <AltitudeMeters>1022.4000244140625</AltitudeMeters>
            <DistanceMeters>29219.004915689</DistanceMeters>
          </Trackpoint>
          <Trackpoint>
            <Time>2022-08-27T07:21:07.000Z</Time>
            <Position>
              <LatitudeDegrees>50.21455203182995319366455078125</LatitudeDegrees>
              <LongitudeDegrees>17.0087025873363018035888671875</LongitudeDegrees>
            </Position>
            <AltitudeMeters>1022.79998779296875</AltitudeMeters>
            <DistanceMeters>29222.119125396</DistanceMeters>
          </Trackpoint>
          <Trackpoint>
            <Time>2022-08-27T07:21:17.000Z</Time>
            <Position>
              <LatitudeDegrees>50.2145819552242755889892578125</LatitudeDegrees>
              <LongitudeDegrees>17.00866679660975933074951171875</LongitudeDegrees>
            </Position>
            <AltitudeMeters>1023</AltitudeMeters>
            <DistanceMeters>29226.313238999</DistanceMeters>
          </Trackpoint>
          <Trackpoint>
            <Time>2022-08-27T07:21:28.000Z</Time>
            <Position>
              <LatitudeDegrees>50.214600227773189544677734375</LatitudeDegrees>
              <LongitudeDegrees>17.0086214505136013031005859375</LongitudeDegrees>
            </Position>
            <AltitudeMeters>1023</AltitudeMeters>
            <DistanceMeters>29230.129718175</DistanceMeters>
          </Trackpoint>
          <Trackpoint>
            <Time>2022-08-27T07:21:38.000Z</Time>
            <Position>
              <LatitudeDegrees>50.21462269127368927001953125</LatitudeDegrees>
              <LongitudeDegrees>17.0085433311760425567626953125</LongitudeDegrees>
            </Position>
            <AltitudeMeters>1022.79998779296875</AltitudeMeters>
            <DistanceMeters>29236.22921938</DistanceMeters>
          </Trackpoint>
          <Trackpoint>
            <Time>2022-08-27T07:21:44.000Z</Time>
            <Position>
              <LatitudeDegrees>50.2146449871361255645751953125</LatitudeDegrees>
              <LongitudeDegrees>17.00849899090826511383056640625</LongitudeDegrees>
            </Position>
            <AltitudeMeters>1023.4000244140625</AltitudeMeters>
            <DistanceMeters>29240.245152214</DistanceMeters>
          </Trackpoint>
          <Trackpoint>
            <Time>2022-08-27T07:21:48.000Z</Time>
            <Position>
              <LatitudeDegrees>50.21465948782861232757568359375</LatitudeDegrees>
              <LongitudeDegrees>17.0085094682872295379638671875</LongitudeDegrees>
            </Position>
            <AltitudeMeters>1024.5999755859375</AltitudeMeters>
            <DistanceMeters>29242.022939253</DistanceMeters>
          </Trackpoint>
          <Trackpoint>
            <Time>2022-08-27T07:21:50.000Z</Time>
            <Position>
              <LatitudeDegrees>50.21466854028403759002685546875</LatitudeDegrees>
              <LongitudeDegrees>17.00851055793464183807373046875</LongitudeDegrees>
            </Position>
            <AltitudeMeters>1025.199951171875</AltitudeMeters>
            <DistanceMeters>29243.037546918</DistanceMeters>
          </Trackpoint>
          <Trackpoint>
            <Time>2022-08-27T07:21:53.000Z</Time>
            <Position>
              <LatitudeDegrees>50.2146775089204311370849609375</LatitudeDegrees>
              <LongitudeDegrees>17.008519358932971954345703125</LongitudeDegrees>
            </Position>
            <AltitudeMeters>1025.800048828125</AltitudeMeters>
            <DistanceMeters>29244.216797431</DistanceMeters>
          </Trackpoint>
          <Trackpoint>
            <Time>2022-08-27T07:21:59.000Z</Time>
            <Position>
              <LatitudeDegrees>50.21469184197485446929931640625</LatitudeDegrees>
              <LongitudeDegrees>17.00853184796869754791259765625</LongitudeDegrees>
            </Position>
            <AltitudeMeters>1026.800048828125</AltitudeMeters>
            <DistanceMeters>29246.044672778</DistanceMeters>
          </Trackpoint>
          <Trackpoint>
            <Time>2022-08-27T07:22:03.000Z</Time>
            <Position>
              <LatitudeDegrees>50.21470122970640659332275390625</LatitudeDegrees>
              <LongitudeDegrees>17.00852782465517520904541015625</LongitudeDegrees>
            </Position>
            <AltitudeMeters>1027.4000244140625</AltitudeMeters>
            <DistanceMeters>29247.128144023</DistanceMeters>
          </Trackpoint>
          <Trackpoint>
            <Time>2022-08-27T07:22:07.000Z</Time>
            <Position>
              <LatitudeDegrees>50.21471866406500339508056640625</LatitudeDegrees>
              <LongitudeDegrees>17.00854358263313770294189453125</LongitudeDegrees>
            </Position>
            <AltitudeMeters>1027.800048828125</AltitudeMeters>
            <DistanceMeters>29249.368840902</DistanceMeters>
          </Trackpoint>
          <Trackpoint>
            <Time>2022-08-27T07:22:14.000Z</Time>
            <Position>
              <LatitudeDegrees>50.21474045701324939727783203125</LatitudeDegrees>
              <LongitudeDegrees>17.0085698179900646209716796875</LongitudeDegrees>
            </Position>
            <AltitudeMeters>1028.5999755859375</AltitudeMeters>
            <DistanceMeters>29252.430412287</DistanceMeters>
          </Trackpoint>
          <Trackpoint>
            <Time>2022-08-27T07:22:16.000Z</Time>
            <Position>
              <LatitudeDegrees>50.21474867127835750579833984375</LatitudeDegrees>
              <LongitudeDegrees>17.00857426039874553680419921875</LongitudeDegrees>
            </Position>
            <AltitudeMeters>1028.800048828125</AltitudeMeters>
            <DistanceMeters>29253.399498429</DistanceMeters>
          </Trackpoint>
          <Trackpoint>
            <Time>2022-08-27T07:22:21.000Z</Time>
            <Position>
              <LatitudeDegrees>50.21477046422660350799560546875</LatitudeDegrees>
              <LongitudeDegrees>17.00862337835133075714111328125</LongitudeDegrees>
            </Position>
            <AltitudeMeters>1030</AltitudeMeters>
            <DistanceMeters>29257.657713254</DistanceMeters>
          </Trackpoint>
          <Trackpoint>
            <Time>2022-08-27T07:22:25.000Z</Time>
            <Position>
              <LatitudeDegrees>50.214800052344799041748046875</LatitudeDegrees>
              <LongitudeDegrees>17.00866176746785640716552734375</LongitudeDegrees>
            </Position>
            <AltitudeMeters>1030.5999755859375</AltitudeMeters>
            <DistanceMeters>29261.939191408</DistanceMeters>
          </Trackpoint>
          <Trackpoint>
            <Time>2022-08-27T07:22:29.000Z</Time>
            <Position>
              <LatitudeDegrees>50.21482243202626705169677734375</LatitudeDegrees>
              <LongitudeDegrees>17.00869110412895679473876953125</LongitudeDegrees>
            </Position>
            <AltitudeMeters>1031</AltitudeMeters>
            <DistanceMeters>29265.190993911</DistanceMeters>
          </Trackpoint>
          <Trackpoint>
            <Time>2022-08-27T07:22:36.000Z</Time>
            <Position>
              <LatitudeDegrees>50.21485243923962116241455078125</LatitudeDegrees>
              <LongitudeDegrees>17.008735276758670806884765625</LongitudeDegrees>
            </Position>
            <AltitudeMeters>1032.199951171875</AltitudeMeters>
            <DistanceMeters>29269.779908626</DistanceMeters>
          </Trackpoint>
          <Trackpoint>
            <Time>2022-08-27T07:22:38.000Z</Time>
            <Position>
              <LatitudeDegrees>50.21485964767634868621826171875</LatitudeDegrees>
              <LongitudeDegrees>17.0087421499192714691162109375</LongitudeDegrees>
            </Position>
            <AltitudeMeters>1032.5999755859375</AltitudeMeters>
            <DistanceMeters>29270.720625104</DistanceMeters>
          </Trackpoint>
          <Trackpoint>
            <Time>2022-08-27T07:22:42.000Z</Time>
            <Position>
              <LatitudeDegrees>50.2148773334920406341552734375</LatitudeDegrees>
              <LongitudeDegrees>17.0087656192481517791748046875</LongitudeDegrees>
            </Position>
            <AltitudeMeters>1033.199951171875</AltitudeMeters>
            <DistanceMeters>29273.302135595</DistanceMeters>
          </Trackpoint>
          <Trackpoint>
            <Time>2022-08-27T07:22:48.000Z</Time>
            <Position>
              <LatitudeDegrees>50.21488445810973644256591796875</LatitudeDegrees>
              <LongitudeDegrees>17.00877240858972072601318359375</LongitudeDegrees>
            </Position>
            <AltitudeMeters>1034.199951171875</AltitudeMeters>
            <DistanceMeters>29274.233203444</DistanceMeters>
          </Trackpoint>
          <Trackpoint>
            <Time>2022-08-27T07:22:49.000Z</Time>
            <Position>
              <LatitudeDegrees>50.21488546393811702728271484375</LatitudeDegrees>
              <LongitudeDegrees>17.00877157039940357208251953125</LongitudeDegrees>
            </Position>
            <AltitudeMeters>1034.4000244140625</AltitudeMeters>
            <DistanceMeters>29274.367591512</DistanceMeters>
          </Trackpoint>
          <Trackpoint>
            <Time>2022-08-27T07:22:57.000Z</Time>
            <Position>
              <LatitudeDegrees>50.21490373648703098297119140625</LatitudeDegrees>
              <LongitudeDegrees>17.0087931118905544281005859375</LongitudeDegrees>
            </Position>
            <AltitudeMeters>1035.4000244140625</AltitudeMeters>
            <DistanceMeters>29276.915654495</DistanceMeters>
          </Trackpoint>
          <Trackpoint>
            <Time>2022-08-27T07:23:06.000Z</Time>
            <Position>
              <LatitudeDegrees>50.2149521000683307647705078125</LatitudeDegrees>
              <LongitudeDegrees>17.0088024996221065521240234375</LongitudeDegrees>
            </Position>
            <AltitudeMeters>1036.4000244140625</AltitudeMeters>
            <DistanceMeters>29282.339674135</DistanceMeters>
          </Trackpoint>
          <Trackpoint>
            <Time>2022-08-27T07:23:10.000Z</Time>
            <Position>
              <LatitudeDegrees>50.214973725378513336181640625</LatitudeDegrees>
              <LongitudeDegrees>17.00880945660173892974853515625</LongitudeDegrees>
            </Position>
            <AltitudeMeters>1036.5999755859375</AltitudeMeters>
            <DistanceMeters>29284.797543362</DistanceMeters>
          </Trackpoint>
          <Trackpoint>
            <Time>2022-08-27T07:23:13.000Z</Time>
            <Position>
              <LatitudeDegrees>50.214977078139781951904296875</LatitudeDegrees>
              <LongitudeDegrees>17.00880325399339199066162109375</LongitudeDegrees>
            </Position>
            <AltitudeMeters>1037</AltitudeMeters>
            <DistanceMeters>29285.383327371</DistanceMeters>
          </Trackpoint>
          <Trackpoint>
            <Time>2022-08-27T07:23:19.000Z</Time>
            <Position>
              <LatitudeDegrees>50.214991159737110137939453125</LatitudeDegrees>
              <LongitudeDegrees>17.00879336334764957427978515625</LongitudeDegrees>
            </Position>
            <AltitudeMeters>1037.800048828125</AltitudeMeters>
            <DistanceMeters>29287.101708876</DistanceMeters>
          </Trackpoint>
          <Trackpoint>
            <Time>2022-08-27T07:23:25.000Z</Time>
            <Position>
              <LatitudeDegrees>50.2149935066699981689453125</LatitudeDegrees>
              <LongitudeDegrees>17.0087926089763641357421875</LongitudeDegrees>
            </Position>
            <AltitudeMeters>1038.5999755859375</AltitudeMeters>
            <DistanceMeters>29287.370485013</DistanceMeters>
          </Trackpoint>
          <Trackpoint>
            <Time>2022-08-27T07:23:26.000Z</Time>
            <Position>
              <LatitudeDegrees>50.2149930037558078765869140625</LatitudeDegrees>
              <LongitudeDegrees>17.00879353098571300506591796875</LongitudeDegrees>
            </Position>
            <AltitudeMeters>1038.800048828125</AltitudeMeters>
            <DistanceMeters>29287.504873081</DistanceMeters>
          </Trackpoint>
          <Trackpoint>
            <Time>2022-08-27T07:23:35.000Z</Time>
            <Position>
              <LatitudeDegrees>50.21500968374311923980712890625</LatitudeDegrees>
              <LongitudeDegrees>17.00877592898905277252197265625</LongitudeDegrees>
            </Position>
            <AltitudeMeters>1039</AltitudeMeters>
            <DistanceMeters>29289.74556996</DistanceMeters>
          </Trackpoint>
          <Trackpoint>
            <Time>2022-08-27T07:23:48.000Z</Time>
            <Position>
              <LatitudeDegrees>50.215027034282684326171875</LatitudeDegrees>
              <LongitudeDegrees>17.00874743051826953887939453125</LongitudeDegrees>
            </Position>
            <AltitudeMeters>1038.5999755859375</AltitudeMeters>
            <DistanceMeters>29292.546844032</DistanceMeters>
          </Trackpoint>
          <Trackpoint>
            <Time>2022-08-27T07:23:54.000Z</Time>
            <Position>
              <LatitudeDegrees>50.21502435207366943359375</LatitudeDegrees>
              <LongitudeDegrees>17.0087362825870513916015625</LongitudeDegrees>
            </Position>
            <AltitudeMeters>1037.800048828125</AltitudeMeters>
            <DistanceMeters>29293.396788804</DistanceMeters>
          </Trackpoint>
          <Trackpoint>
            <Time>2022-08-27T07:23:59.000Z</Time>
            <Position>
              <LatitudeDegrees>50.2150283753871917724609375</LatitudeDegrees>
              <LongitudeDegrees>17.0087361149489879608154296875</LongitudeDegrees>
            </Position>
            <AltitudeMeters>1037.199951171875</AltitudeMeters>
            <DistanceMeters>29293.852520917</DistanceMeters>
          </Trackpoint>
          <Trackpoint>
            <Time>2022-08-27T07:24:03.000Z</Time>
            <Position>
              <LatitudeDegrees>50.21502426825463771820068359375</LatitudeDegrees>
              <LongitudeDegrees>17.008719183504581451416015625</LongitudeDegrees>
            </Position>
            <AltitudeMeters>1036.800048828125</AltitudeMeters>
            <DistanceMeters>29295.141525985</DistanceMeters>
          </Trackpoint>
          <Trackpoint>
            <Time>2022-08-27T07:24:09.000Z</Time>
            <Position>
              <LatitudeDegrees>50.2149856276810169219970703125</LatitudeDegrees>
              <LongitudeDegrees>17.0087143220007419586181640625</LongitudeDegrees>
            </Position>
            <AltitudeMeters>1036.199951171875</AltitudeMeters>
            <DistanceMeters>29299.454524649</DistanceMeters>
          </Trackpoint>
          <Trackpoint>
            <Time>2022-08-27T07:24:18.000Z</Time>
            <Position>
              <LatitudeDegrees>50.2149762399494647979736328125</LatitudeDegrees>
              <LongitudeDegrees>17.00870166532695293426513671875</LongitudeDegrees>
            </Position>
            <AltitudeMeters>1036.199951171875</AltitudeMeters>
            <DistanceMeters>29300.831592568</DistanceMeters>
          </Trackpoint>
          <Trackpoint>
            <Time>2022-08-27T07:24:26.000Z</Time>
            <Position>
              <LatitudeDegrees>50.2149698697030544281005859375</LatitudeDegrees>
              <LongitudeDegrees>17.00869931839406490325927734375</LongitudeDegrees>
            </Position>
            <AltitudeMeters>1035.800048828125</AltitudeMeters>
            <DistanceMeters>29301.567666332</DistanceMeters>
          </Trackpoint>
          <Trackpoint>
            <Time>2022-08-27T07:24:29.000Z</Time>
            <Position>
              <LatitudeDegrees>50.21497531794011592864990234375</LatitudeDegrees>
              <LongitudeDegrees>17.008690349757671356201171875</LongitudeDegrees>
            </Position>
            <AltitudeMeters>1035.199951171875</AltitudeMeters>
            <DistanceMeters>29302.448907828</DistanceMeters>
          </Trackpoint>
          <Trackpoint>
            <Time>2022-08-27T07:24:32.000Z</Time>
            <Position>
              <LatitudeDegrees>50.2149738930165767669677734375</LatitudeDegrees>
              <LongitudeDegrees>17.0086948759853839874267578125</LongitudeDegrees>
            </Position>
            <AltitudeMeters>1034.4000244140625</AltitudeMeters>
            <DistanceMeters>29302.804465236</DistanceMeters>
          </Trackpoint>
          <Trackpoint>
            <Time>2022-08-27T07:24:37.000Z</Time>
            <Position>
              <LatitudeDegrees>50.2149745635688304901123046875</LatitudeDegrees>
              <LongitudeDegrees>17.00869831256568431854248046875</LongitudeDegrees>
            </Position>
            <AltitudeMeters>1033.4000244140625</AltitudeMeters>
            <DistanceMeters>29303.073241372</DistanceMeters>
          </Trackpoint>
          <Trackpoint>
            <Time>2022-08-27T07:24:39.000Z</Time>
            <Position>
              <LatitudeDegrees>50.21497808396816253662109375</LatitudeDegrees>
              <LongitudeDegrees>17.00870250351727008819580078125</LongitudeDegrees>
            </Position>
            <AltitudeMeters>1033</AltitudeMeters>
            <DistanceMeters>29303.567014664</DistanceMeters>
          </Trackpoint>
          <Trackpoint>
            <Time>2022-08-27T07:24:44.000Z</Time>
            <Position>
              <LatitudeDegrees>50.21497942507266998291015625</LatitudeDegrees>
              <LongitudeDegrees>17.00870049186050891876220703125</LongitudeDegrees>
            </Position>
            <AltitudeMeters>1032.199951171875</AltitudeMeters>
            <DistanceMeters>29303.779500857</DistanceMeters>
          </Trackpoint>
          <Trackpoint>
            <Time>2022-08-27T07:24:51.000Z</Time>
            <Position>
              <LatitudeDegrees>50.21498437039554119110107421875</LatitudeDegrees>
              <LongitudeDegrees>17.00870015658438205718994140625</LongitudeDegrees>
            </Position>
            <AltitudeMeters>1031.199951171875</AltitudeMeters>
            <DistanceMeters>29304.333597058</DistanceMeters>
          </Trackpoint>
          <Trackpoint>
            <Time>2022-08-27T07:24:59.000Z</Time>
            <Position>
              <LatitudeDegrees>50.2149531058967113494873046875</LatitudeDegrees>
              <LongitudeDegrees>17.00868129730224609375</LongitudeDegrees>
            </Position>
            <AltitudeMeters>1030.199951171875</AltitudeMeters>
            <DistanceMeters>29308.062714611</DistanceMeters>
          </Trackpoint>
          <Trackpoint>
            <Time>2022-08-27T07:25:04.000Z</Time>
            <Position>
              <LatitudeDegrees>50.21494455635547637939453125</LatitudeDegrees>
              <LongitudeDegrees>17.0086583308875560760498046875</LongitudeDegrees>
            </Position>
            <AltitudeMeters>1029.199951171875</AltitudeMeters>
            <DistanceMeters>29309.95372235</DistanceMeters>
          </Trackpoint>
          <Trackpoint>
            <Time>2022-08-27T07:25:05.000Z</Time>
            <Position>
              <LatitudeDegrees>50.21494564600288867950439453125</LatitudeDegrees>
              <LongitudeDegrees>17.0086569897830486297607421875</LongitudeDegrees>
            </Position>
            <AltitudeMeters>1029.199951171875</AltitudeMeters>
            <DistanceMeters>29310.088110419</DistanceMeters>
          </Trackpoint>
          <Trackpoint>
            <Time>2022-08-27T07:25:16.000Z</Time>
            <Position>
              <LatitudeDegrees>50.21492921747267246246337890625</LatitudeDegrees>
              <LongitudeDegrees>17.00865070335566997528076171875</LongitudeDegrees>
            </Position>
            <AltitudeMeters>1028</AltitudeMeters>
            <DistanceMeters>29311.969543374</DistanceMeters>
          </Trackpoint>
          <Trackpoint>
            <Time>2022-08-27T07:25:17.000Z</Time>
            <Position>
              <LatitudeDegrees>50.214929468929767608642578125</LatitudeDegrees>
              <LongitudeDegrees>17.00865305028855800628662109375</LongitudeDegrees>
            </Position>
            <AltitudeMeters>1027.800048828125</AltitudeMeters>
            <DistanceMeters>29312.134134471</DistanceMeters>
          </Trackpoint>
          <Trackpoint>
            <Time>2022-08-27T07:25:24.000Z</Time>
            <Position>
              <LatitudeDegrees>50.2149264514446258544921875</LatitudeDegrees>
              <LongitudeDegrees>17.0086452551186084747314453125</LongitudeDegrees>
            </Position>
            <AltitudeMeters>1027.4000244140625</AltitudeMeters>
            <DistanceMeters>29312.778637006</DistanceMeters>
          </Trackpoint>
          <Trackpoint>
            <Time>2022-08-27T07:25:30.000Z</Time>
            <Position>
              <LatitudeDegrees>50.2149162255227565765380859375</LatitudeDegrees>
              <LongitudeDegrees>17.00864751823246479034423828125</LongitudeDegrees>
            </Position>
            <AltitudeMeters>1026.800048828125</AltitudeMeters>
            <DistanceMeters>29313.926849164</DistanceMeters>
          </Trackpoint>
          <Trackpoint>
            <Time>2022-08-27T07:25:36.000Z</Time>
            <Position>
              <LatitudeDegrees>50.21491396240890026092529296875</LatitudeDegrees>
              <LongitudeDegrees>17.008646428585052490234375</LongitudeDegrees>
            </Position>
            <AltitudeMeters>1025.800048828125</AltitudeMeters>
            <DistanceMeters>29314.1956253</DistanceMeters>
          </Trackpoint>
          <Trackpoint>
            <Time>2022-08-27T07:25:38.000Z</Time>
            <Position>
              <LatitudeDegrees>50.2149054966866970062255859375</LatitudeDegrees>
              <LongitudeDegrees>17.00864885933697223663330078125</LongitudeDegrees>
            </Position>
            <AltitudeMeters>1025.5999755859375</AltitudeMeters>
            <DistanceMeters>29315.155348072</DistanceMeters>
          </Trackpoint>
          <Trackpoint>
            <Time>2022-08-27T07:25:47.000Z</Time>
            <Position>
              <LatitudeDegrees>50.21486417390406131744384765625</LatitudeDegrees>
              <LongitudeDegrees>17.0086187683045864105224609375</LongitudeDegrees>
            </Position>
            <AltitudeMeters>1024.4000244140625</AltitudeMeters>
            <DistanceMeters>29320.2301661</DistanceMeters>
          </Trackpoint>
          <Trackpoint>
            <Time>2022-08-27T07:25:54.000Z</Time>
            <Position>
              <LatitudeDegrees>50.214841626584529876708984375</LatitudeDegrees>
              <LongitudeDegrees>17.00857224874198436737060546875</LongitudeDegrees>
            </Position>
            <AltitudeMeters>1023.4000244140625</AltitudeMeters>
            <DistanceMeters>29324.387516977</DistanceMeters>
          </Trackpoint>
          <Trackpoint>
            <Time>2022-08-27T07:25:55.000Z</Time>
            <Position>
              <LatitudeDegrees>50.21483936347067356109619140625</LatitudeDegrees>
              <LongitudeDegrees>17.00856805779039859771728515625</LongitudeDegrees>
            </Position>
            <AltitudeMeters>1023.20001220703125</AltitudeMeters>
            <DistanceMeters>29324.767623834</DistanceMeters>
          </Trackpoint>
          <Trackpoint>
            <Time>2022-08-27T07:26:04.000Z</Time>
            <Position>
              <LatitudeDegrees>50.2148179896175861358642578125</LatitudeDegrees>
              <LongitudeDegrees>17.00856621377170085906982421875</LongitudeDegrees>
            </Position>
            <AltitudeMeters>1022.79998779296875</AltitudeMeters>
            <DistanceMeters>29327.148986471</DistanceMeters>
          </Trackpoint>
          <Trackpoint>
            <Time>2022-08-27T07:26:16.000Z</Time>
            <Position>
              <LatitudeDegrees>50.21480415947735309600830078125</LatitudeDegrees>
              <LongitudeDegrees>17.00850871391594409942626953125</LongitudeDegrees>
            </Position>
            <AltitudeMeters>1023</AltitudeMeters>
            <DistanceMeters>29331.524344977</DistanceMeters>
          </Trackpoint>
          <Trackpoint>
            <Time>2022-08-27T07:26:26.000Z</Time>
            <Position>
              <LatitudeDegrees>50.21479376591742038726806640625</LatitudeDegrees>
              <LongitudeDegrees>17.008437551558017730712890625</LongitudeDegrees>
            </Position>
            <AltitudeMeters>1023</AltitudeMeters>
            <DistanceMeters>29336.723965047</DistanceMeters>
          </Trackpoint>
          <Trackpoint>
            <Time>2022-08-27T07:26:37.000Z</Time>
            <Position>
              <LatitudeDegrees>50.2148218452930450439453125</LatitudeDegrees>
              <LongitudeDegrees>17.00835482217371463775634765625</LongitudeDegrees>
            </Position>
            <AltitudeMeters>1023.4000244140625</AltitudeMeters>
            <DistanceMeters>29343.393459523</DistanceMeters>
          </Trackpoint>
          <Trackpoint>
            <Time>2022-08-27T07:26:48.000Z</Time>
            <Position>
              <LatitudeDegrees>50.214840285480022430419921875</LatitudeDegrees>
              <LongitudeDegrees>17.0082751102745532989501953125</LongitudeDegrees>
            </Position>
            <AltitudeMeters>1023.79998779296875</AltitudeMeters>
            <DistanceMeters>29349.43046114</DistanceMeters>
          </Trackpoint>
          <Trackpoint>
            <Time>2022-08-27T07:26:58.000Z</Time>
            <Position>
              <LatitudeDegrees>50.21488018333911895751953125</LatitudeDegrees>
              <LongitudeDegrees>17.008200176060199737548828125</LongitudeDegrees>
            </Position>
            <AltitudeMeters>1024</AltitudeMeters>
            <DistanceMeters>29356.373266629</DistanceMeters>
          </Trackpoint>
          <Trackpoint>
            <Time>2022-08-27T07:27:00.000Z</Time>
            <Position>
              <LatitudeDegrees>50.2148889005184173583984375</LatitudeDegrees>
              <LongitudeDegrees>17.008183412253856658935546875</LongitudeDegrees>
            </Position>
            <AltitudeMeters>1024</AltitudeMeters>
            <DistanceMeters>29357.914340964</DistanceMeters>
          </Trackpoint>
          <Trackpoint>
            <Time>2022-08-27T07:27:12.000Z</Time>
            <Position>
              <LatitudeDegrees>50.2149219252169132232666015625</LatitudeDegrees>
              <LongitudeDegrees>17.0080484636127948760986328125</LongitudeDegrees>
            </Position>
            <AltitudeMeters>1024.199951171875</AltitudeMeters>
            <DistanceMeters>29368.204904916</DistanceMeters>
          </Trackpoint>
          <Trackpoint>
            <Time>2022-08-27T07:27:23.000Z</Time>
            <Position>
              <LatitudeDegrees>50.21497129462659358978271484375</LatitudeDegrees>
              <LongitudeDegrees>17.00795643031597137451171875</LongitudeDegrees>
            </Position>
            <AltitudeMeters>1024.5999755859375</AltitudeMeters>
            <DistanceMeters>29376.758364997</DistanceMeters>
          </Trackpoint>
          <Trackpoint>
            <Time>2022-08-27T07:27:28.000Z</Time>
            <Position>
              <LatitudeDegrees>50.21497414447367191314697265625</LatitudeDegrees>
              <LongitudeDegrees>17.0079254172742366790771484375</LongitudeDegrees>
            </Position>
            <AltitudeMeters>1024.800048828125</AltitudeMeters>
            <DistanceMeters>29378.990987266</DistanceMeters>
          </Trackpoint>
          <Trackpoint>
            <Time>2022-08-27T07:27:35.000Z</Time>
            <Position>
              <LatitudeDegrees>50.214995853602886199951171875</LatitudeDegrees>
              <LongitudeDegrees>17.0078496448695659637451171875</LongitudeDegrees>
            </Position>
            <AltitudeMeters>1025</AltitudeMeters>
            <DistanceMeters>29384.904062269</DistanceMeters>
          </Trackpoint>
          <Trackpoint>
            <Time>2022-08-27T07:27:46.000Z</Time>
            <Position>
              <LatitudeDegrees>50.2150389365851879119873046875</LatitudeDegrees>
              <LongitudeDegrees>17.007734142243862152099609375</LongitudeDegrees>
            </Position>
            <AltitudeMeters>1025.199951171875</AltitudeMeters>
            <DistanceMeters>29394.426194256</DistanceMeters>
          </Trackpoint>
          <Trackpoint>
            <Time>2022-08-27T07:27:59.000Z</Time>
            <Position>
              <LatitudeDegrees>50.21507925353944301605224609375</LatitudeDegrees>
              <LongitudeDegrees>17.00762257911264896392822265625</LongitudeDegrees>
            </Position>
            <AltitudeMeters>1025.5999755859375</AltitudeMeters>
            <DistanceMeters>29403.551727937</DistanceMeters>
          </Trackpoint>
          <Trackpoint>
            <Time>2022-08-27T07:28:04.000Z</Time>
            <Position>
              <LatitudeDegrees>50.21508411504328250885009765625</LatitudeDegrees>
              <LongitudeDegrees>17.0075656659901142120361328125</LongitudeDegrees>
            </Position>
            <AltitudeMeters>1025.800048828125</AltitudeMeters>
            <DistanceMeters>29407.641190197</DistanceMeters>
          </Trackpoint>
          <Trackpoint>
            <Time>2022-08-27T07:28:11.000Z</Time>
            <Position>
              <LatitudeDegrees>50.21509434096515178680419921875</LatitudeDegrees>
              <LongitudeDegrees>17.00748176313936710357666015625</LongitudeDegrees>
            </Position>
            <AltitudeMeters>1026.199951171875</AltitudeMeters>
            <DistanceMeters>29413.724384528</DistanceMeters>
          </Trackpoint>
          <Trackpoint>
            <Time>2022-08-27T07:28:24.000Z</Time>
            <Position>
              <LatitudeDegrees>50.21512091159820556640625</LatitudeDegrees>
              <LongitudeDegrees>17.0073598064482212066650390625</LongitudeDegrees>
            </Position>
            <AltitudeMeters>1026.800048828125</AltitudeMeters>
            <DistanceMeters>29422.899261781</DistanceMeters>
          </Trackpoint>
          <Trackpoint>
            <Time>2022-08-27T07:28:26.000Z</Time>
            <Position>
              <LatitudeDegrees>50.21512015722692012786865234375</LatitudeDegrees>
              <LongitudeDegrees>17.0073423720896244049072265625</LongitudeDegrees>
            </Position>
            <AltitudeMeters>1026.800048828125</AltitudeMeters>
            <DistanceMeters>29424.145525456</DistanceMeters>
          </Trackpoint>
          <Trackpoint>
            <Time>2022-08-27T07:28:34.000Z</Time>
            <Position>
              <LatitudeDegrees>50.2151448838412761688232421875</LatitudeDegrees>
              <LongitudeDegrees>17.0072575472295284271240234375</LongitudeDegrees>
            </Position>
            <AltitudeMeters>1027.199951171875</AltitudeMeters>
            <DistanceMeters>29430.784486453</DistanceMeters>
          </Trackpoint>
          <Trackpoint>
            <Time>2022-08-27T07:28:46.000Z</Time>
            <Position>
              <LatitudeDegrees>50.21514681167900562286376953125</LatitudeDegrees>
              <LongitudeDegrees>17.00715956278145313262939453125</LongitudeDegrees>
            </Position>
            <AltitudeMeters>1027.5999755859375</AltitudeMeters>
            <DistanceMeters>29437.766848713</DistanceMeters>
          </Trackpoint>
          <Trackpoint>
            <Time>2022-08-27T07:28:51.000Z</Time>
            <Position>
              <LatitudeDegrees>50.2151385135948657989501953125</LatitudeDegrees>
              <LongitudeDegrees>17.0071056671440601348876953125</LongitudeDegrees>
            </Position>
            <AltitudeMeters>1027.800048828125</AltitudeMeters>
            <DistanceMeters>29441.7147484</DistanceMeters>
          </Trackpoint>
          <Trackpoint>
            <Time>2022-08-27T07:28:56.000Z</Time>
            <Position>
              <LatitudeDegrees>50.21515184082090854644775390625</LatitudeDegrees>
              <LongitudeDegrees>17.00703199021518230438232421875</LongitudeDegrees>
            </Position>
            <AltitudeMeters>1028</AltitudeMeters>
            <DistanceMeters>29447.167824755</DistanceMeters>
          </Trackpoint>
          <Trackpoint>
            <Time>2022-08-27T07:29:10.000Z</Time>
            <Position>
              <LatitudeDegrees>50.21516089327633380889892578125</LatitudeDegrees>
              <LongitudeDegrees>17.00687608681619167327880859375</LongitudeDegrees>
            </Position>
            <AltitudeMeters>1028.800048828125</AltitudeMeters>
            <DistanceMeters>29458.317175962</DistanceMeters>
          </Trackpoint>
          <Trackpoint>
            <Time>2022-08-27T07:29:11.000Z</Time>
            <Position>
              <LatitudeDegrees>50.21516047418117523193359375</LatitudeDegrees>
              <LongitudeDegrees>17.0068706385791301727294921875</LongitudeDegrees>
            </Position>
            <AltitudeMeters>1028.800048828125</AltitudeMeters>
            <DistanceMeters>29458.708981142</DistanceMeters>
          </Trackpoint>
          <Trackpoint>
            <Time>2022-08-27T07:29:22.000Z</Time>
            <Position>
              <LatitudeDegrees>50.21514647640287876129150390625</LatitudeDegrees>
              <LongitudeDegrees>17.00675119645893573760986328125</LongitudeDegrees>
            </Position>
            <AltitudeMeters>1029.4000244140625</AltitudeMeters>
            <DistanceMeters>29467.357456336</DistanceMeters>
          </Trackpoint>
          <Trackpoint>
            <Time>2022-08-27T07:29:30.000Z</Time>
            <Position>
              <LatitudeDegrees>50.2151482366025447845458984375</LatitudeDegrees>
              <LongitudeDegrees>17.00665421783924102783203125</LongitudeDegrees>
            </Position>
            <AltitudeMeters>1029.800048828125</AltitudeMeters>
            <DistanceMeters>29474.267669375</DistanceMeters>
          </Trackpoint>
          <Trackpoint>
            <Time>2022-08-27T07:29:33.000Z</Time>
            <Position>
              <LatitudeDegrees>50.21515452302992343902587890625</LatitudeDegrees>
              <LongitudeDegrees>17.00662630610167980194091796875</LongitudeDegrees>
            </Position>
            <AltitudeMeters>1029.800048828125</AltitudeMeters>
            <DistanceMeters>29476.375463864</DistanceMeters>
          </Trackpoint>
          <Trackpoint>
            <Time>2022-08-27T07:29:45.000Z</Time>
            <Position>
              <LatitudeDegrees>50.21517195738852024078369140625</LatitudeDegrees>
              <LongitudeDegrees>17.00649596750736236572265625</LongitudeDegrees>
            </Position>
            <AltitudeMeters>1030.4000244140625</AltitudeMeters>
            <DistanceMeters>29485.85958699</DistanceMeters>
          </Trackpoint>
          <Trackpoint>
            <Time>2022-08-27T07:29:52.000Z</Time>
            <Position>
              <LatitudeDegrees>50.2151562832295894622802734375</LatitudeDegrees>
              <LongitudeDegrees>17.0064183510839939117431640625</LongitudeDegrees>
            </Position>
            <AltitudeMeters>1030.800048828125</AltitudeMeters>
            <DistanceMeters>29491.656995421</DistanceMeters>
          </Trackpoint>
          <Trackpoint>
            <Time>2022-08-27T07:29:56.000Z</Time>
            <Position>
              <LatitudeDegrees>50.21514312364161014556884765625</LatitudeDegrees>
              <LongitudeDegrees>17.00636143796145915985107421875</LongitudeDegrees>
            </Position>
            <AltitudeMeters>1030.800048828125</AltitudeMeters>
            <DistanceMeters>29495.966852408</DistanceMeters>
          </Trackpoint>
          <Trackpoint>
            <Time>2022-08-27T07:30:08.000Z</Time>
            <Position>
              <LatitudeDegrees>50.21513122133910655975341796875</LatitudeDegrees>
              <LongitudeDegrees>17.00622045435011386871337890625</LongitudeDegrees>
            </Position>
            <AltitudeMeters>1031.199951171875</AltitudeMeters>
            <DistanceMeters>29506.095113286</DistanceMeters>
          </Trackpoint>
          <Trackpoint>
            <Time>2022-08-27T07:30:19.000Z</Time>
            <Position>
              <LatitudeDegrees>50.2151234261691570281982421875</LatitudeDegrees>
              <LongitudeDegrees>17.006087936460971832275390625</LongitudeDegrees>
            </Position>
            <AltitudeMeters>1031.5999755859375</AltitudeMeters>
            <DistanceMeters>29515.573045574</DistanceMeters>
          </Trackpoint>
          <Trackpoint>
            <Time>2022-08-27T07:30:32.000Z</Time>
            <Position>
              <LatitudeDegrees>50.21512283943593502044677734375</LatitudeDegrees>
              <LongitudeDegrees>17.00593245215713977813720703125</LongitudeDegrees>
            </Position>
            <AltitudeMeters>1031.800048828125</AltitudeMeters>
            <DistanceMeters>29526.647225823</DistanceMeters>
          </Trackpoint>
          <Trackpoint>
            <Time>2022-08-27T07:30:36.000Z</Time>
            <Position>
              <LatitudeDegrees>50.215119235217571258544921875</LatitudeDegrees>
              <LongitudeDegrees>17.005896158516407012939453125</LongitudeDegrees>
            </Position>
            <AltitudeMeters>1031.800048828125</AltitudeMeters>
            <DistanceMeters>29529.263482298</DistanceMeters>
          </Trackpoint>
          <Trackpoint>
            <Time>2022-08-27T07:30:45.000Z</Time>
            <Position>
              <LatitudeDegrees>50.2151106856763362884521484375</LatitudeDegrees>
              <LongitudeDegrees>17.005787193775177001953125</LongitudeDegrees>
            </Position>
            <AltitudeMeters>1032</AltitudeMeters>
            <DistanceMeters>29537.082281281</DistanceMeters>
          </Trackpoint>
          <Trackpoint>
            <Time>2022-08-27T07:30:58.000Z</Time>
            <Position>
              <LatitudeDegrees>50.21511646918952465057373046875</LatitudeDegrees>
              <LongitudeDegrees>17.0055932365357875823974609375</LongitudeDegrees>
            </Position>
            <AltitudeMeters>1032.199951171875</AltitudeMeters>
            <DistanceMeters>29550.91119877</DistanceMeters>
          </Trackpoint>
          <Trackpoint>
            <Time>2022-08-27T07:31:11.000Z</Time>
            <Position>
              <LatitudeDegrees>50.215130634605884552001953125</LatitudeDegrees>
              <LongitudeDegrees>17.00537589378654956817626953125</LongitudeDegrees>
            </Position>
            <AltitudeMeters>1032.4000244140625</AltitudeMeters>
            <DistanceMeters>29566.471224786</DistanceMeters>
          </Trackpoint>
          <Trackpoint>
            <Time>2022-08-27T07:31:23.000Z</Time>
            <Position>
              <LatitudeDegrees>50.215127281844615936279296875</LatitudeDegrees>
              <LongitudeDegrees>17.00518294237554073333740234375</LongitudeDegrees>
            </Position>
            <AltitudeMeters>1032.4000244140625</AltitudeMeters>
            <DistanceMeters>29580.218933685</DistanceMeters>
          </Trackpoint>
          <Trackpoint>
            <Time>2022-08-27T07:31:37.000Z</Time>
            <Position>
              <LatitudeDegrees>50.2150976099073886871337890625</LatitudeDegrees>
              <LongitudeDegrees>17.00496819801628589630126953125</LongitudeDegrees>
            </Position>
            <AltitudeMeters>1032.5999755859375</AltitudeMeters>
            <DistanceMeters>29595.866345378</DistanceMeters>
          </Trackpoint>
          <Trackpoint>
            <Time>2022-08-27T07:31:48.000Z</Time>
            <Position>
              <LatitudeDegrees>50.21507464349269866943359375</LatitudeDegrees>
              <LongitudeDegrees>17.00481154024600982666015625</LongitudeDegrees>
            </Position>
            <AltitudeMeters>1032.5999755859375</AltitudeMeters>
            <DistanceMeters>29607.313416588</DistanceMeters>
          </Trackpoint>
          <Trackpoint>
            <Time>2022-08-27T07:31:58.000Z</Time>
            <Position>
              <LatitudeDegrees>50.2150726318359375</LatitudeDegrees>
              <LongitudeDegrees>17.0046145655214786529541015625</LongitudeDegrees>
            </Position>
            <AltitudeMeters>1032.800048828125</AltitudeMeters>
            <DistanceMeters>29621.344586412</DistanceMeters>
          </Trackpoint>
          <Trackpoint>
            <Time>2022-08-27T07:32:00.000Z</Time>
            <Position>
              <LatitudeDegrees>50.2150691114366054534912109375</LatitudeDegrees>
              <LongitudeDegrees>17.00459084473550319671630859375</LongitudeDegrees>
            </Position>
            <AltitudeMeters>1032.800048828125</AltitudeMeters>
            <DistanceMeters>29623.081262989</DistanceMeters>
          </Trackpoint>
          <Trackpoint>
            <Time>2022-08-27T07:32:09.000Z</Time>
            <Position>
              <LatitudeDegrees>50.21505310200154781341552734375</LatitudeDegrees>
              <LongitudeDegrees>17.0044891722500324249267578125</LongitudeDegrees>
            </Position>
            <AltitudeMeters>1033</AltitudeMeters>
            <DistanceMeters>29630.538892694</DistanceMeters>
          </Trackpoint>
          <Trackpoint>
            <Time>2022-08-27T07:32:24.000Z</Time>
            <Position>
              <LatitudeDegrees>50.215022675693035125732421875</LatitudeDegrees>
              <LongitudeDegrees>17.0042776130139827728271484375</LongitudeDegrees>
            </Position>
            <AltitudeMeters>1033.5999755859375</AltitudeMeters>
            <DistanceMeters>29645.982414929</DistanceMeters>
          </Trackpoint>
          <Trackpoint>
            <Time>2022-08-27T07:32:38.000Z</Time>
            <Position>
              <LatitudeDegrees>50.2150095999240875244140625</LatitudeDegrees>
              <LongitudeDegrees>17.0040519721806049346923828125</LongitudeDegrees>
            </Position>
            <AltitudeMeters>1033.800048828125</AltitudeMeters>
            <DistanceMeters>29662.119059077</DistanceMeters>
          </Trackpoint>
          <Trackpoint>
            <Time>2022-08-27T07:32:44.000Z</Time>
            <Position>
              <LatitudeDegrees>50.21500381641089916229248046875</LatitudeDegrees>
              <LongitudeDegrees>17.00395591557025909423828125</LongitudeDegrees>
            </Position>
            <AltitudeMeters>1033.800048828125</AltitudeMeters>
            <DistanceMeters>29668.991271224</DistanceMeters>
          </Trackpoint>
          <Trackpoint>
            <Time>2022-08-27T07:32:51.000Z</Time>
            <Position>
              <LatitudeDegrees>50.21497531794011592864990234375</LatitudeDegrees>
              <LongitudeDegrees>17.00387218035757541656494140625</LongitudeDegrees>
            </Position>
            <AltitudeMeters>1034.199951171875</AltitudeMeters>
            <DistanceMeters>29675.746193598</DistanceMeters>
          </Trackpoint>
          <Trackpoint>
            <Time>2022-08-27T07:32:57.000Z</Time>
            <Position>
              <LatitudeDegrees>50.21494832821190357208251953125</LatitudeDegrees>
              <LongitudeDegrees>17.003771848976612091064453125</LongitudeDegrees>
            </Position>
            <AltitudeMeters>1034.199951171875</AltitudeMeters>
            <DistanceMeters>29683.497717877</DistanceMeters>
          </Trackpoint>
          <Trackpoint>
            <Time>2022-08-27T07:33:03.000Z</Time>
            <Position>
              <LatitudeDegrees>50.21492443978786468505859375</LatitudeDegrees>
              <LongitudeDegrees>17.003704123198986053466796875</LongitudeDegrees>
            </Position>
            <AltitudeMeters>1034.199951171875</AltitudeMeters>
            <DistanceMeters>29689.005989553</DistanceMeters>
          </Trackpoint>
          <Trackpoint>
            <Time>2022-08-27T07:33:17.000Z</Time>
            <Position>
              <LatitudeDegrees>50.2148733101785182952880859375</LatitudeDegrees>
              <LongitudeDegrees>17.0034836791455745697021484375</LongitudeDegrees>
            </Position>
            <AltitudeMeters>1034.5999755859375</AltitudeMeters>
            <DistanceMeters>29705.706377005</DistanceMeters>
          </Trackpoint>
          <Trackpoint>
            <Time>2022-08-27T07:33:30.000Z</Time>
            <Position>
              <LatitudeDegrees>50.21485202014446258544921875</LatitudeDegrees>
              <LongitudeDegrees>17.00329885818064212799072265625</LongitudeDegrees>
            </Position>
            <AltitudeMeters>1034.800048828125</AltitudeMeters>
            <DistanceMeters>29719.081872305</DistanceMeters>
          </Trackpoint>
          <Trackpoint>
            <Time>2022-08-27T07:33:32.000Z</Time>
            <Position>
              <LatitudeDegrees>50.21485093049705028533935546875</LatitudeDegrees>
              <LongitudeDegrees>17.0032701082527637481689453125</LongitudeDegrees>
            </Position>
            <AltitudeMeters>1034.800048828125</AltitudeMeters>
            <DistanceMeters>29721.135416972</DistanceMeters>
          </Trackpoint>
          <Trackpoint>
            <Time>2022-08-27T07:33:40.000Z</Time>
            <Position>
              <LatitudeDegrees>50.214844644069671630859375</LatitudeDegrees>
              <LongitudeDegrees>17.00313172303140163421630859375</LongitudeDegrees>
            </Position>
            <AltitudeMeters>1035.4000244140625</AltitudeMeters>
            <DistanceMeters>29731.016824593</DistanceMeters>
          </Trackpoint>
          <Trackpoint>
            <Time>2022-08-27T07:33:50.000Z</Time>
            <Position>
              <LatitudeDegrees>50.2148364298045635223388671875</LatitudeDegrees>
              <LongitudeDegrees>17.00297531671822071075439453125</LongitudeDegrees>
            </Position>
            <AltitudeMeters>1035.5999755859375</AltitudeMeters>
            <DistanceMeters>29742.193679139</DistanceMeters>
          </Trackpoint>
          <Trackpoint>
            <Time>2022-08-27T07:33:57.000Z</Time>
            <Position>
              <LatitudeDegrees>50.2148206718266010284423828125</LatitudeDegrees>
              <LongitudeDegrees>17.00287121348083019256591796875</LongitudeDegrees>
            </Position>
            <AltitudeMeters>1036</AltitudeMeters>
            <DistanceMeters>29749.812427814</DistanceMeters>
          </Trackpoint>
          <Trackpoint>
            <Time>2022-08-27T07:34:01.000Z</Time>
            <Position>
              <LatitudeDegrees>50.21481405012309551239013671875</LatitudeDegrees>
              <LongitudeDegrees>17.00280918739736080169677734375</LongitudeDegrees>
            </Position>
            <AltitudeMeters>1036.5999755859375</AltitudeMeters>
            <DistanceMeters>29754.291806103</DistanceMeters>
          </Trackpoint>
          <Trackpoint>
            <Time>2022-08-27T07:34:14.000Z</Time>
            <Position>
              <LatitudeDegrees>50.21479829214513301849365234375</LatitudeDegrees>
              <LongitudeDegrees>17.00266753323376178741455078125</LongitudeDegrees>
            </Position>
            <AltitudeMeters>1037</AltitudeMeters>
            <DistanceMeters>29764.532670707</DistanceMeters>
          </Trackpoint>
          <Trackpoint>
            <Time>2022-08-27T07:34:20.000Z</Time>
            <Position>
              <LatitudeDegrees>50.21479879505932331085205078125</LatitudeDegrees>
              <LongitudeDegrees>17.0026008971035480499267578125</LongitudeDegrees>
            </Position>
            <AltitudeMeters>1037.199951171875</AltitudeMeters>
            <DistanceMeters>29769.279252711</DistanceMeters>
          </Trackpoint>
          <Trackpoint>
            <Time>2022-08-27T07:34:26.000Z</Time>
            <Position>
              <LatitudeDegrees>50.21480374038219451904296875</LatitudeDegrees>
              <LongitudeDegrees>17.00251758098602294921875</LongitudeDegrees>
            </Position>
            <AltitudeMeters>1037.199951171875</AltitudeMeters>
            <DistanceMeters>29775.23872338</DistanceMeters>
          </Trackpoint>
          <Trackpoint>
            <Time>2022-08-27T07:34:36.000Z</Time>
            <Position>
              <LatitudeDegrees>50.2148173190653324127197265625</LatitudeDegrees>
              <LongitudeDegrees>17.00239352881908416748046875</LongitudeDegrees>
            </Position>
            <AltitudeMeters>1037.4000244140625</AltitudeMeters>
            <DistanceMeters>29784.202518347</DistanceMeters>
          </Trackpoint>
          <Trackpoint>
            <Time>2022-08-27T07:34:49.000Z</Time>
            <Position>
              <LatitudeDegrees>50.2147878147661685943603515625</LatitudeDegrees>
              <LongitudeDegrees>17.002199403941631317138671875</LongitudeDegrees>
            </Position>
            <AltitudeMeters>1037.800048828125</AltitudeMeters>
            <DistanceMeters>29798.41306371</DistanceMeters>
          </Trackpoint>
          <Trackpoint>
            <Time>2022-08-27T07:34:59.000Z</Time>
            <Position>
              <LatitudeDegrees>50.21473266184329986572265625</LatitudeDegrees>
              <LongitudeDegrees>17.00204609893262386322021484375</LongitudeDegrees>
            </Position>
            <AltitudeMeters>1038.199951171875</AltitudeMeters>
            <DistanceMeters>29810.938579593</DistanceMeters>
          </Trackpoint>
          <Trackpoint>
            <Time>2022-08-27T07:35:11.000Z</Time>
            <Position>
              <LatitudeDegrees>50.21467423997819423675537109375</LatitudeDegrees>
              <LongitudeDegrees>17.00191668234765529632568359375</LongitudeDegrees>
            </Position>
            <AltitudeMeters>1038.4000244140625</AltitudeMeters>
            <DistanceMeters>29822.218774944</DistanceMeters>
          </Trackpoint>
          <Trackpoint>
            <Time>2022-08-27T07:35:23.000Z</Time>
            <Position>
              <LatitudeDegrees>50.21463249810039997100830078125</LatitudeDegrees>
              <LongitudeDegrees>17.001774273812770843505859375</LongitudeDegrees>
            </Position>
            <AltitudeMeters>1038.4000244140625</AltitudeMeters>
            <DistanceMeters>29833.375008342</DistanceMeters>
          </Trackpoint>
          <Trackpoint>
            <Time>2022-08-27T07:35:35.000Z</Time>
            <Position>
              <LatitudeDegrees>50.21460232324898242950439453125</LatitudeDegrees>
              <LongitudeDegrees>17.00164477340877056121826171875</LongitudeDegrees>
            </Position>
            <AltitudeMeters>1038.800048828125</AltitudeMeters>
            <DistanceMeters>29843.190858568</DistanceMeters>
          </Trackpoint>
          <Trackpoint>
            <Time>2022-08-27T07:35:47.000Z</Time>
            <Position>
              <LatitudeDegrees>50.2145920135080814361572265625</LatitudeDegrees>
              <LongitudeDegrees>17.0014690048992633819580078125</LongitudeDegrees>
            </Position>
            <AltitudeMeters>1039</AltitudeMeters>
            <DistanceMeters>29855.762070437</DistanceMeters>
          </Trackpoint>
          <Trackpoint>
            <Time>2022-08-27T07:35:56.000Z</Time>
            <Position>
              <LatitudeDegrees>50.2145658619701862335205078125</LatitudeDegrees>
              <LongitudeDegrees>17.00136766768991947174072265625</LongitudeDegrees>
            </Position>
            <AltitudeMeters>1039.4000244140625</AltitudeMeters>
            <DistanceMeters>29863.544404451</DistanceMeters>
          </Trackpoint>
          <Trackpoint>
            <Time>2022-08-27T07:36:00.000Z</Time>
            <Position>
              <LatitudeDegrees>50.21455622278153896331787109375</LatitudeDegrees>
              <LongitudeDegrees>17.00133061967790126800537109375</LongitudeDegrees>
            </Position>
            <AltitudeMeters>1039.4000244140625</AltitudeMeters>
            <DistanceMeters>29866.392036563</DistanceMeters>
          </Trackpoint>
          <Trackpoint>
            <Time>2022-08-27T07:36:15.000Z</Time>
            <Position>
              <LatitudeDegrees>50.2145148999989032745361328125</LatitudeDegrees>
              <LongitudeDegrees>17.001118473708629608154296875</LongitudeDegrees>
            </Position>
            <AltitudeMeters>1039.5999755859375</AltitudeMeters>
            <DistanceMeters>29882.186494194</DistanceMeters>
          </Trackpoint>
          <Trackpoint>
            <Time>2022-08-27T07:36:24.000Z</Time>
            <Position>
              <LatitudeDegrees>50.2145048417150974273681640625</LatitudeDegrees>
              <LongitudeDegrees>17.0009449683129787445068359375</LongitudeDegrees>
            </Position>
            <AltitudeMeters>1039.800048828125</AltitudeMeters>
            <DistanceMeters>29894.594669054</DistanceMeters>
          </Trackpoint>
          <Trackpoint>
            <Time>2022-08-27T07:36:36.000Z</Time>
            <Position>
              <LatitudeDegrees>50.21445346064865589141845703125</LatitudeDegrees>
              <LongitudeDegrees>17.00079870410263538360595703125</LongitudeDegrees>
            </Position>
            <AltitudeMeters>1039.5999755859375</AltitudeMeters>
            <DistanceMeters>29906.478708586</DistanceMeters>
          </Trackpoint>
          <Trackpoint>
            <Time>2022-08-27T07:36:48.000Z</Time>
            <Position>
              <LatitudeDegrees>50.214436613023281097412109375</LatitudeDegrees>
              <LongitudeDegrees>17.0005828700959682464599609375</LongitudeDegrees>
            </Position>
            <AltitudeMeters>1039.5999755859375</AltitudeMeters>
            <DistanceMeters>29921.965439369</DistanceMeters>
          </Trackpoint>
          <Trackpoint>
            <Time>2022-08-27T07:37:01.000Z</Time>
            <Position>
              <LatitudeDegrees>50.21440098993480205535888671875</LatitudeDegrees>
              <LongitudeDegrees>17.0003827102482318878173828125</LongitudeDegrees>
            </Position>
            <AltitudeMeters>1039.4000244140625</AltitudeMeters>
            <DistanceMeters>29936.76278013</DistanceMeters>
          </Trackpoint>
          <Trackpoint>
            <Time>2022-08-27T07:37:13.000Z</Time>
            <Position>
              <LatitudeDegrees>50.214397050440311431884765625</LatitudeDegrees>
              <LongitudeDegrees>17.0001872442662715911865234375</LongitudeDegrees>
            </Position>
            <AltitudeMeters>1039</AltitudeMeters>
            <DistanceMeters>29950.69124603</DistanceMeters>
          </Trackpoint>
          <Trackpoint>
            <Time>2022-08-27T07:37:19.000Z</Time>
            <Position>
              <LatitudeDegrees>50.21437802352011203765869140625</LatitudeDegrees>
              <LongitudeDegrees>17.00012027285993099212646484375</LongitudeDegrees>
            </Position>
            <AltitudeMeters>1038.800048828125</AltitudeMeters>
            <DistanceMeters>29955.909934616</DistanceMeters>
          </Trackpoint>
          <Trackpoint>
            <Time>2022-08-27T07:37:24.000Z</Time>
            <Position>
              <LatitudeDegrees>50.21436226554214954376220703125</LatitudeDegrees>
              <LongitudeDegrees>17.000031173229217529296875</LongitudeDegrees>
            </Position>
            <AltitudeMeters>1038.5999755859375</AltitudeMeters>
            <DistanceMeters>29962.493578511</DistanceMeters>
          </Trackpoint>
          <Trackpoint>
            <Time>2022-08-27T07:37:36.000Z</Time>
            <Position>
              <LatitudeDegrees>50.2143261395394802093505859375</LatitudeDegrees>
              <LongitudeDegrees>16.9998694024980068206787109375</LongitudeDegrees>
            </Position>
            <AltitudeMeters>1038.5999755859375</AltitudeMeters>
            <DistanceMeters>29974.697021497</DistanceMeters>
          </Trackpoint>
          <Trackpoint>
            <Time>2022-08-27T07:37:49.000Z</Time>
            <Position>
              <LatitudeDegrees>50.21427400410175323486328125</LatitudeDegrees>
              <LongitudeDegrees>16.99973235838115215301513671875</LongitudeDegrees>
            </Position>
            <AltitudeMeters>1038.800048828125</AltitudeMeters>
            <DistanceMeters>29986.052216851</DistanceMeters>
          </Trackpoint>
          <Trackpoint>
            <Time>2022-08-27T07:38:01.000Z</Time>
            <Position>
              <LatitudeDegrees>50.2142263948917388916015625</LatitudeDegrees>
              <LongitudeDegrees>16.9995891116559505462646484375</LongitudeDegrees>
            </Position>
            <AltitudeMeters>1038.4000244140625</AltitudeMeters>
            <DistanceMeters>29997.548485761</DistanceMeters>
          </Trackpoint>
          <Trackpoint>
            <Time>2022-08-27T07:38:11.000Z</Time>
            <Position>
              <LatitudeDegrees>50.21420150063931941986083984375</LatitudeDegrees>
              <LongitudeDegrees>16.99944041669368743896484375</LongitudeDegrees>
            </Position>
            <AltitudeMeters>1038.4000244140625</AltitudeMeters>
            <DistanceMeters>30008.495546758</DistanceMeters>
          </Trackpoint>
          <Trackpoint>
            <Time>2022-08-27T07:38:21.000Z</Time>
            <Position>
              <LatitudeDegrees>50.2141769416630268096923828125</LatitudeDegrees>
              <LongitudeDegrees>16.9993136823177337646484375</LongitudeDegrees>
            </Position>
            <AltitudeMeters>1038.199951171875</AltitudeMeters>
            <DistanceMeters>30017.927157599</DistanceMeters>
          </Trackpoint>
          <Trackpoint>
            <Time>2022-08-27T07:38:32.000Z</Time>
            <Position>
              <LatitudeDegrees>50.2141410671174526214599609375</LatitudeDegrees>
              <LongitudeDegrees>16.9991187192499637603759765625</LongitudeDegrees>
            </Position>
            <AltitudeMeters>1038.4000244140625</AltitudeMeters>
            <DistanceMeters>30032.375593751</DistanceMeters>
          </Trackpoint>
          <Trackpoint>
            <Time>2022-08-27T07:38:42.000Z</Time>
            <Position>
              <LatitudeDegrees>50.214102007448673248291015625</LatitudeDegrees>
              <LongitudeDegrees>16.998974047601222991943359375</LongitudeDegrees>
            </Position>
            <AltitudeMeters>1038.4000244140625</AltitudeMeters>
            <DistanceMeters>30043.55890984</DistanceMeters>
          </Trackpoint>
          <Trackpoint>
            <Time>2022-08-27T07:38:52.000Z</Time>
            <Position>
              <LatitudeDegrees>50.214077867567539215087890625</LatitudeDegrees>
              <LongitudeDegrees>16.998854018747806549072265625</LongitudeDegrees>
            </Position>
            <AltitudeMeters>1038.199951171875</AltitudeMeters>
            <DistanceMeters>30052.520689791</DistanceMeters>
          </Trackpoint>
          <Trackpoint>
            <Time>2022-08-27T07:39:02.000Z</Time>
            <Position>
              <LatitudeDegrees>50.21404777653515338897705078125</LatitudeDegrees>
              <LongitudeDegrees>16.99873767793178558349609375</LongitudeDegrees>
            </Position>
            <AltitudeMeters>1038.4000244140625</AltitudeMeters>
            <DistanceMeters>30061.458759286</DistanceMeters>
          </Trackpoint>
          <Trackpoint>
            <Time>2022-08-27T07:39:05.000Z</Time>
            <Position>
              <LatitudeDegrees>50.2140391431748867034912109375</LatitudeDegrees>
              <LongitudeDegrees>16.99870012700557708740234375</LongitudeDegrees>
            </Position>
            <AltitudeMeters>1038.4000244140625</AltitudeMeters>
            <DistanceMeters>30064.300042155</DistanceMeters>
          </Trackpoint>
          <Trackpoint>
            <Time>2022-08-27T07:39:13.000Z</Time>
            <Position>
              <LatitudeDegrees>50.214021541178226470947265625</LatitudeDegrees>
              <LongitudeDegrees>16.99860398657619953155517578125</LongitudeDegrees>
            </Position>
            <AltitudeMeters>1038.199951171875</AltitudeMeters>
            <DistanceMeters>30071.422609772</DistanceMeters>
          </Trackpoint>
          <Trackpoint>
            <Time>2022-08-27T07:39:26.000Z</Time>
            <Position>
              <LatitudeDegrees>50.21402548067271709442138671875</LatitudeDegrees>
              <LongitudeDegrees>16.99844690971076488494873046875</LongitudeDegrees>
            </Position>
            <AltitudeMeters>1038</AltitudeMeters>
            <DistanceMeters>30082.618837762</DistanceMeters>
          </Trackpoint>
          <Trackpoint>
            <Time>2022-08-27T07:39:37.000Z</Time>
            <Position>
              <LatitudeDegrees>50.2140220440924167633056640625</LatitudeDegrees>
              <LongitudeDegrees>16.99827767908573150634765625</LongitudeDegrees>
            </Position>
            <AltitudeMeters>1038</AltitudeMeters>
            <DistanceMeters>30094.677873837</DistanceMeters>
          </Trackpoint>
          <Trackpoint>
            <Time>2022-08-27T07:39:46.000Z</Time>
            <Position>
              <LatitudeDegrees>50.21400687284767627716064453125</LatitudeDegrees>
              <LongitudeDegrees>16.99814884923398494720458984375</LongitudeDegrees>
            </Position>
            <AltitudeMeters>1037.4000244140625</AltitudeMeters>
            <DistanceMeters>30104.007929406</DistanceMeters>
          </Trackpoint>
          <Trackpoint>
            <Time>2022-08-27T07:39:49.000Z</Time>
            <Position>
              <LatitudeDegrees>50.21400519646704196929931640625</LatitudeDegrees>
              <LongitudeDegrees>16.99811917729675769805908203125</LongitudeDegrees>
            </Position>
            <AltitudeMeters>1037.199951171875</AltitudeMeters>
            <DistanceMeters>30106.128537354</DistanceMeters>
          </Trackpoint>
          <Trackpoint>
            <Time>2022-08-27T07:40:01.000Z</Time>
            <Position>
              <LatitudeDegrees>50.213990695774555206298828125</LatitudeDegrees>
              <LongitudeDegrees>16.9979331828653812408447265625</LongitudeDegrees>
            </Position>
            <AltitudeMeters>1036.5999755859375</AltitudeMeters>
            <DistanceMeters>30119.474294274</DistanceMeters>
          </Trackpoint>
          <Trackpoint>
            <Time>2022-08-27T07:40:02.000Z</Time>
            <Position>
              <LatitudeDegrees>50.21398994140326976776123046875</LatitudeDegrees>
              <LongitudeDegrees>16.99791834689676761627197265625</LongitudeDegrees>
            </Position>
            <AltitudeMeters>1036.4000244140625</AltitudeMeters>
            <DistanceMeters>30120.536725239</DistanceMeters>
          </Trackpoint>
          <Trackpoint>
            <Time>2022-08-27T07:40:15.000Z</Time>
            <Position>
              <LatitudeDegrees>50.213975943624973297119140625</LatitudeDegrees>
              <LongitudeDegrees>16.99771282263100147247314453125</LongitudeDegrees>
            </Position>
            <AltitudeMeters>1035.4000244140625</AltitudeMeters>
            <DistanceMeters>30135.257893826</DistanceMeters>
          </Trackpoint>
          <Trackpoint>
            <Time>2022-08-27T07:40:16.000Z</Time>
            <Position>
              <LatitudeDegrees>50.21397502161562442779541015625</LatitudeDegrees>
              <LongitudeDegrees>16.9976984895765781402587890625</LongitudeDegrees>
            </Position>
            <AltitudeMeters>1035.4000244140625</AltitudeMeters>
            <DistanceMeters>30136.281362862</DistanceMeters>
          </Trackpoint>
          <Trackpoint>
            <Time>2022-08-27T07:40:27.000Z</Time>
            <Position>
              <LatitudeDegrees>50.21397317759692668914794921875</LatitudeDegrees>
              <LongitudeDegrees>16.99751903302967548370361328125</LongitudeDegrees>
            </Position>
            <AltitudeMeters>1034.800048828125</AltitudeMeters>
            <DistanceMeters>30149.064487024</DistanceMeters>
          </Trackpoint>
          <Trackpoint>
            <Time>2022-08-27T07:40:28.000Z</Time>
            <Position>
              <LatitudeDegrees>50.213972590863704681396484375</LatitudeDegrees>
              <LongitudeDegrees>16.99750595726072788238525390625</LongitudeDegrees>
            </Position>
            <AltitudeMeters>1034.5999755859375</AltitudeMeters>
            <DistanceMeters>30149.995554872</DistanceMeters>
          </Trackpoint>
          <Trackpoint>
            <Time>2022-08-27T07:40:36.000Z</Time>
            <Position>
              <LatitudeDegrees>50.2139673940837383270263671875</LatitudeDegrees>
              <LongitudeDegrees>16.99741266667842864990234375</LongitudeDegrees>
            </Position>
            <AltitudeMeters>1033.4000244140625</AltitudeMeters>
            <DistanceMeters>30156.665726283</DistanceMeters>
          </Trackpoint>
          <Trackpoint>
            <Time>2022-08-27T07:40:39.000Z</Time>
            <Position>
              <LatitudeDegrees>50.2139683999121189117431640625</LatitudeDegrees>
              <LongitudeDegrees>16.9973843358457088470458984375</LongitudeDegrees>
            </Position>
            <AltitudeMeters>1033</AltitudeMeters>
            <DistanceMeters>30158.686021942</DistanceMeters>
          </Trackpoint>
          <Trackpoint>
            <Time>2022-08-27T07:40:47.000Z</Time>
            <Position>
              <LatitudeDegrees>50.21397988311946392059326171875</LatitudeDegrees>
              <LongitudeDegrees>16.9972980022430419921875</LongitudeDegrees>
            </Position>
            <AltitudeMeters>1032.4000244140625</AltitudeMeters>
            <DistanceMeters>30164.966417941</DistanceMeters>
          </Trackpoint>
          <Trackpoint>
            <Time>2022-08-27T07:40:51.000Z</Time>
            <Position>
              <LatitudeDegrees>50.21398457698523998260498046875</LatitudeDegrees>
              <LongitudeDegrees>16.99725433252751827239990234375</LongitudeDegrees>
            </Position>
            <AltitudeMeters>1031.800048828125</AltitudeMeters>
            <DistanceMeters>30168.12096137</DistanceMeters>
          </Trackpoint>
          <Trackpoint>
            <Time>2022-08-27T07:40:57.000Z</Time>
            <Position>
              <LatitudeDegrees>50.21399161778390407562255859375</LatitudeDegrees>
              <LongitudeDegrees>16.9971801526844501495361328125</LongitudeDegrees>
            </Position>
            <AltitudeMeters>1031.4000244140625</AltitudeMeters>
            <DistanceMeters>30173.462781431</DistanceMeters>
          </Trackpoint>
          <Trackpoint>
            <Time>2022-08-27T07:41:02.000Z</Time>
            <Position>
              <LatitudeDegrees>50.214011482894420623779296875</LatitudeDegrees>
              <LongitudeDegrees>16.9971008598804473876953125</LongitudeDegrees>
            </Position>
            <AltitudeMeters>1031</AltitudeMeters>
            <DistanceMeters>30179.527392</DistanceMeters>
          </Trackpoint>
          <Trackpoint>
            <Time>2022-08-27T07:41:07.000Z</Time>
            <Position>
              <LatitudeDegrees>50.21402187645435333251953125</LatitudeDegrees>
              <LongitudeDegrees>16.99702986516058444976806640625</LongitudeDegrees>
            </Position>
            <AltitudeMeters>1030.199951171875</AltitudeMeters>
            <DistanceMeters>30184.713970615</DistanceMeters>
          </Trackpoint>
          <Trackpoint>
            <Time>2022-08-27T07:41:15.000Z</Time>
            <Position>
              <LatitudeDegrees>50.21402229554951190948486328125</LatitudeDegrees>
              <LongitudeDegrees>16.9969333894550800323486328125</LongitudeDegrees>
            </Position>
            <AltitudeMeters>1029.5999755859375</AltitudeMeters>
            <DistanceMeters>30191.585525732</DistanceMeters>
          </Trackpoint>
          <Trackpoint>
            <Time>2022-08-27T07:41:20.000Z</Time>
            <Position>
              <LatitudeDegrees>50.2140304259955883026123046875</LatitudeDegrees>
              <LongitudeDegrees>16.9968675076961517333984375</LongitudeDegrees>
            </Position>
            <AltitudeMeters>1029.199951171875</AltitudeMeters>
            <DistanceMeters>30196.36528445</DistanceMeters>
          </Trackpoint>
          <Trackpoint>
            <Time>2022-08-27T07:41:26.000Z</Time>
            <Position>
              <LatitudeDegrees>50.21404056809842586517333984375</LatitudeDegrees>
              <LongitudeDegrees>16.99678502976894378662109375</LongitudeDegrees>
            </Position>
            <AltitudeMeters>1028.800048828125</AltitudeMeters>
            <DistanceMeters>30202.346685863</DistanceMeters>
          </Trackpoint>
          <Trackpoint>
            <Time>2022-08-27T07:41:35.000Z</Time>
            <Position>
              <LatitudeDegrees>50.214062444865703582763671875</LatitudeDegrees>
              <LongitudeDegrees>16.9966527633368968963623046875</LongitudeDegrees>
            </Position>
            <AltitudeMeters>1028.4000244140625</AltitudeMeters>
            <DistanceMeters>30212.076604745</DistanceMeters>
          </Trackpoint>
          <Trackpoint>
            <Time>2022-08-27T07:41:38.000Z</Time>
            <Position>
              <LatitudeDegrees>50.2140696533024311065673828125</LatitudeDegrees>
              <LongitudeDegrees>16.99661814607679843902587890625</LongitudeDegrees>
            </Position>
            <AltitudeMeters>1028.4000244140625</AltitudeMeters>
            <DistanceMeters>30214.670329277</DistanceMeters>
          </Trackpoint>
          <Trackpoint>
            <Time>2022-08-27T07:41:51.000Z</Time>
            <Position>
              <LatitudeDegrees>50.2140639536082744598388671875</LatitudeDegrees>
              <LongitudeDegrees>16.99645687825977802276611328125</LongitudeDegrees>
            </Position>
            <AltitudeMeters>1027.4000244140625</AltitudeMeters>
            <DistanceMeters>30226.174450294</DistanceMeters>
          </Trackpoint>
          <Trackpoint>
            <Time>2022-08-27T07:41:52.000Z</Time>
            <Position>
              <LatitudeDegrees>50.21406219340860843658447265625</LatitudeDegrees>
              <LongitudeDegrees>16.99644304811954498291015625</LongitudeDegrees>
            </Position>
            <AltitudeMeters>1027.199951171875</AltitudeMeters>
            <DistanceMeters>30227.18011851</DistanceMeters>
          </Trackpoint>
          <Trackpoint>
            <Time>2022-08-27T07:42:02.000Z</Time>
            <Position>
              <LatitudeDegrees>50.21405230276286602020263671875</LatitudeDegrees>
              <LongitudeDegrees>16.9963198341429233551025390625</LongitudeDegrees>
            </Position>
            <AltitudeMeters>1026.4000244140625</AltitudeMeters>
            <DistanceMeters>30236.024242105</DistanceMeters>
          </Trackpoint>
          <Trackpoint>
            <Time>2022-08-27T07:42:04.000Z</Time>
            <Position>
              <LatitudeDegrees>50.21405330859124660491943359375</LatitudeDegrees>
              <LongitudeDegrees>16.99628002010285854339599609375</LongitudeDegrees>
            </Position>
            <AltitudeMeters>1026.199951171875</AltitudeMeters>
            <DistanceMeters>30238.862345026</DistanceMeters>
          </Trackpoint>
          <Trackpoint>
            <Time>2022-08-27T07:42:10.000Z</Time>
            <Position>
              <LatitudeDegrees>50.214040316641330718994140625</LatitudeDegrees>
              <LongitudeDegrees>16.9961790181696414947509765625</LongitudeDegrees>
            </Position>
            <AltitudeMeters>1025.199951171875</AltitudeMeters>
            <DistanceMeters>30246.199736644</DistanceMeters>
          </Trackpoint>
          <Trackpoint>
            <Time>2022-08-27T07:42:16.000Z</Time>
            <Position>
              <LatitudeDegrees>50.21403118036687374114990234375</LatitudeDegrees>
              <LongitudeDegrees>16.996083967387676239013671875</LongitudeDegrees>
            </Position>
            <AltitudeMeters>1024.800048828125</AltitudeMeters>
            <DistanceMeters>30253.04561838</DistanceMeters>
          </Trackpoint>
          <Trackpoint>
            <Time>2022-08-27T07:42:27.000Z</Time>
            <Position>
              <LatitudeDegrees>50.21400419063866138458251953125</LatitudeDegrees>
              <LongitudeDegrees>16.99597424827516078948974609375</LongitudeDegrees>
            </Position>
            <AltitudeMeters>1024</AltitudeMeters>
            <DistanceMeters>30261.417682245</DistanceMeters>
          </Trackpoint>
          <Trackpoint>
            <Time>2022-08-27T07:42:29.000Z</Time>
            <Position>
              <LatitudeDegrees>50.2139972336590290069580078125</LatitudeDegrees>
              <LongitudeDegrees>16.99595698155462741851806640625</LongitudeDegrees>
            </Position>
            <AltitudeMeters>1023.79998779296875</AltitudeMeters>
            <DistanceMeters>30262.874414191</DistanceMeters>
          </Trackpoint>
          <Trackpoint>
            <Time>2022-08-27T07:42:37.000Z</Time>
            <Position>
              <LatitudeDegrees>50.21399505436420440673828125</LatitudeDegrees>
              <LongitudeDegrees>16.995868049561977386474609375</LongitudeDegrees>
            </Position>
            <AltitudeMeters>1023.20001220703125</AltitudeMeters>
            <DistanceMeters>30269.213486693</DistanceMeters>
          </Trackpoint>
          <Trackpoint>
            <Time>2022-08-27T07:42:40.000Z</Time>
            <Position>
              <LatitudeDegrees>50.2139905281364917755126953125</LatitudeDegrees>
              <LongitudeDegrees>16.99583393521606922149658203125</LongitudeDegrees>
            </Position>
            <AltitudeMeters>1022.79998779296875</AltitudeMeters>
            <DistanceMeters>30271.695121665</DistanceMeters>
          </Trackpoint>
          <Trackpoint>
            <Time>2022-08-27T07:42:53.000Z</Time>
            <Position>
              <LatitudeDegrees>50.21396010182797908782958984375</LatitudeDegrees>
              <LongitudeDegrees>16.995676942169666290283203125</LongitudeDegrees>
            </Position>
            <AltitudeMeters>1022</AltitudeMeters>
            <DistanceMeters>30283.378384716</DistanceMeters>
          </Trackpoint>
          <Trackpoint>
            <Time>2022-08-27T07:43:04.000Z</Time>
            <Position>
              <LatitudeDegrees>50.213934369385242462158203125</LatitudeDegrees>
              <LongitudeDegrees>16.99562958441674709320068359375</LongitudeDegrees>
            </Position>
            <AltitudeMeters>1021</AltitudeMeters>
            <DistanceMeters>30287.80401866</DistanceMeters>
          </Trackpoint>
          <Trackpoint>
            <Time>2022-08-27T07:43:06.000Z</Time>
            <Position>
              <LatitudeDegrees>50.21393948234617710113525390625</LatitudeDegrees>
              <LongitudeDegrees>16.99561013840138912200927734375</LongitudeDegrees>
            </Position>
            <AltitudeMeters>1021</AltitudeMeters>
            <DistanceMeters>30289.300500854</DistanceMeters>
          </Trackpoint>
          <Trackpoint>
            <Time>2022-08-27T07:43:16.000Z</Time>
            <Position>
              <LatitudeDegrees>50.2139281667768955230712890625</LatitudeDegrees>
              <LongitudeDegrees>16.99548692442476749420166015625</LongitudeDegrees>
            </Position>
            <AltitudeMeters>1020.79998779296875</AltitudeMeters>
            <DistanceMeters>30298.166549323</DistanceMeters>
          </Trackpoint>
          <Trackpoint>
            <Time>2022-08-27T07:43:28.000Z</Time>
            <Position>
              <LatitudeDegrees>50.21389489062130451202392578125</LatitudeDegrees>
              <LongitudeDegrees>16.99535532854497432708740234375</LongitudeDegrees>
            </Position>
            <AltitudeMeters>1020</AltitudeMeters>
            <DistanceMeters>30308.244758481</DistanceMeters>
          </Trackpoint>
          <Trackpoint>
            <Time>2022-08-27T07:43:29.000Z</Time>
            <Position>
              <LatitudeDegrees>50.2138932980597019195556640625</LatitudeDegrees>
              <LongitudeDegrees>16.99535080231726169586181640625</LongitudeDegrees>
            </Position>
            <AltitudeMeters>1020</AltitudeMeters>
            <DistanceMeters>30308.624865339</DistanceMeters>
          </Trackpoint>
          <Trackpoint>
            <Time>2022-08-27T07:43:40.000Z</Time>
            <Position>
              <LatitudeDegrees>50.21385264582931995391845703125</LatitudeDegrees>
              <LongitudeDegrees>16.99525172822177410125732421875</LongitudeDegrees>
            </Position>
            <AltitudeMeters>1019</AltitudeMeters>
            <DistanceMeters>30317.007708227</DistanceMeters>
          </Trackpoint>
          <Trackpoint>
            <Time>2022-08-27T07:43:41.000Z</Time>
            <Position>
              <LatitudeDegrees>50.21385063417255878448486328125</LatitudeDegrees>
              <LongitudeDegrees>16.99524016119539737701416015625</LongitudeDegrees>
            </Position>
            <AltitudeMeters>1018.79998779296875</AltitudeMeters>
            <DistanceMeters>30317.862948656</DistanceMeters>
          </Trackpoint>
          <Trackpoint>
            <Time>2022-08-27T07:43:52.000Z</Time>
            <Position>
              <LatitudeDegrees>50.2137984149158000946044921875</LatitudeDegrees>
              <LongitudeDegrees>16.9951011054217815399169921875</LongitudeDegrees>
            </Position>
            <AltitudeMeters>1018.20001220703125</AltitudeMeters>
            <DistanceMeters>30329.34624985</DistanceMeters>
          </Trackpoint>
          <Trackpoint>
            <Time>2022-08-27T07:43:54.000Z</Time>
            <Position>
              <LatitudeDegrees>50.21379346959292888641357421875</LatitudeDegrees>
              <LongitudeDegrees>16.99507017619907855987548828125</LongitudeDegrees>
            </Position>
            <AltitudeMeters>1017.79998779296875</AltitudeMeters>
            <DistanceMeters>30331.616970804</DistanceMeters>
          </Trackpoint>
          <Trackpoint>
            <Time>2022-08-27T07:44:06.000Z</Time>
            <Position>
              <LatitudeDegrees>50.21376346237957477569580078125</LatitudeDegrees>
              <LongitudeDegrees>16.994905807077884674072265625</LongitudeDegrees>
            </Position>
            <AltitudeMeters>1017</AltitudeMeters>
            <DistanceMeters>30343.790779353</DistanceMeters>
          </Trackpoint>
          <Trackpoint>
            <Time>2022-08-27T07:44:09.000Z</Time>
            <Position>
              <LatitudeDegrees>50.213755667209625244140625</LatitudeDegrees>
              <LongitudeDegrees>16.9948657415807247161865234375</LongitudeDegrees>
            </Position>
            <AltitudeMeters>1016.79998779296875</AltitudeMeters>
            <DistanceMeters>30346.771650907</DistanceMeters>
          </Trackpoint>
          <Trackpoint>
            <Time>2022-08-27T07:44:18.000Z</Time>
            <Position>
              <LatitudeDegrees>50.21371669135987758636474609375</LatitudeDegrees>
              <LongitudeDegrees>16.99475065805017948150634765625</LongitudeDegrees>
            </Position>
            <AltitudeMeters>1016.20001220703125</AltitudeMeters>
            <DistanceMeters>30356.045401392</DistanceMeters>
          </Trackpoint>
          <Trackpoint>
            <Time>2022-08-27T07:44:22.000Z</Time>
            <Position>
              <LatitudeDegrees>50.21370043046772480010986328125</LatitudeDegrees>
              <LongitudeDegrees>16.99469600804150104522705078125</LongitudeDegrees>
            </Position>
            <AltitudeMeters>1015.79998779296875</AltitudeMeters>
            <DistanceMeters>30360.338463938</DistanceMeters>
          </Trackpoint>
          <Trackpoint>
            <Time>2022-08-27T07:44:30.000Z</Time>
            <Position>
              <LatitudeDegrees>50.2136881090700626373291015625</LatitudeDegrees>
              <LongitudeDegrees>16.99456810019910335540771484375</LongitudeDegrees>
            </Position>
            <AltitudeMeters>1015.79998779296875</AltitudeMeters>
            <DistanceMeters>30369.551155645</DistanceMeters>
          </Trackpoint>
          <Trackpoint>
            <Time>2022-08-27T07:44:43.000Z</Time>
            <Position>
              <LatitudeDegrees>50.21365709602832794189453125</LatitudeDegrees>
              <LongitudeDegrees>16.994340531527996063232421875</LongitudeDegrees>
            </Position>
            <AltitudeMeters>1015.20001220703125</AltitudeMeters>
            <DistanceMeters>30386.122899211</DistanceMeters>
          </Trackpoint>
          <Trackpoint>
            <Time>2022-08-27T07:44:46.000Z</Time>
            <Position>
              <LatitudeDegrees>50.2136478759348392486572265625</LatitudeDegrees>
              <LongitudeDegrees>16.9943044893443584442138671875</LongitudeDegrees>
            </Position>
            <AltitudeMeters>1014.79998779296875</AltitudeMeters>
            <DistanceMeters>30388.886853746</DistanceMeters>
          </Trackpoint>
          <Trackpoint>
            <Time>2022-08-27T07:44:52.000Z</Time>
            <Position>
              <LatitudeDegrees>50.21364158950746059417724609375</LatitudeDegrees>
              <LongitudeDegrees>16.99417658150196075439453125</LongitudeDegrees>
            </Position>
            <AltitudeMeters>1014.5999755859375</AltitudeMeters>
            <DistanceMeters>30398.023265878</DistanceMeters>
          </Trackpoint>
          <Trackpoint>
            <Time>2022-08-27T07:45:07.000Z</Time>
            <Position>
              <LatitudeDegrees>50.21362432278692722320556640625</LatitudeDegrees>
              <LongitudeDegrees>16.993942223489284515380859375</LongitudeDegrees>
            </Position>
            <AltitudeMeters>1014.20001220703125</AltitudeMeters>
            <DistanceMeters>30414.825536854</DistanceMeters>
          </Trackpoint>
          <Trackpoint>
            <Time>2022-08-27T07:45:14.000Z</Time>
            <Position>
              <LatitudeDegrees>50.21361577324569225311279296875</LatitudeDegrees>
              <LongitudeDegrees>16.99383795261383056640625</LongitudeDegrees>
            </Position>
            <AltitudeMeters>1013.79998779296875</AltitudeMeters>
            <DistanceMeters>30422.312773632</DistanceMeters>
          </Trackpoint>
          <Trackpoint>
            <Time>2022-08-27T07:45:19.000Z</Time>
            <Position>
              <LatitudeDegrees>50.21360437385737895965576171875</LatitudeDegrees>
              <LongitudeDegrees>16.99377290904521942138671875</LongitudeDegrees>
            </Position>
            <AltitudeMeters>1013.5999755859375</AltitudeMeters>
            <DistanceMeters>30427.117029598</DistanceMeters>
          </Trackpoint>
          <Trackpoint>
            <Time>2022-08-27T07:45:32.000Z</Time>
            <Position>
              <LatitudeDegrees>50.21355475299060344696044921875</LatitudeDegrees>
              <LongitudeDegrees>16.9936268962919712066650390625</LongitudeDegrees>
            </Position>
            <AltitudeMeters>1013.20001220703125</AltitudeMeters>
            <DistanceMeters>30438.892292814</DistanceMeters>
          </Trackpoint>
          <Trackpoint>
            <Time>2022-08-27T07:45:42.000Z</Time>
            <Position>
              <LatitudeDegrees>50.21353899501264095306396484375</LatitudeDegrees>
              <LongitudeDegrees>16.99343763291835784912109375</LongitudeDegrees>
            </Position>
            <AltitudeMeters>1013.20001220703125</AltitudeMeters>
            <DistanceMeters>30452.486095973</DistanceMeters>
          </Trackpoint>
          <Trackpoint>
            <Time>2022-08-27T07:45:43.000Z</Time>
            <Position>
              <LatitudeDegrees>50.2135157771408557891845703125</LatitudeDegrees>
              <LongitudeDegrees>16.9933989085257053375244140625</LongitudeDegrees>
            </Position>
            <AltitudeMeters>1013</AltitudeMeters>
            <DistanceMeters>30456.265723063</DistanceMeters>
          </Trackpoint>
          <Trackpoint>
            <Time>2022-08-27T07:45:53.000Z</Time>
            <Position>
              <LatitudeDegrees>50.21347831003367900848388671875</LatitudeDegrees>
              <LongitudeDegrees>16.99325197376310825347900390625</LongitudeDegrees>
            </Position>
            <AltitudeMeters>1012.79998779296875</AltitudeMeters>
            <DistanceMeters>30467.531499752</DistanceMeters>
          </Trackpoint>
          <Trackpoint>
            <Time>2022-08-27T07:46:05.000Z</Time>
            <Position>
              <LatitudeDegrees>50.21347126923501491546630859375</LatitudeDegrees>
              <LongitudeDegrees>16.9930874370038509368896484375</LongitudeDegrees>
            </Position>
            <AltitudeMeters>1012.4000244140625</AltitudeMeters>
            <DistanceMeters>30479.276817025</DistanceMeters>
          </Trackpoint>
          <Trackpoint>
            <Time>2022-08-27T07:46:18.000Z</Time>
            <Position>
              <LatitudeDegrees>50.21345593035221099853515625</LatitudeDegrees>
              <LongitudeDegrees>16.99295374564826488494873046875</LongitudeDegrees>
            </Position>
            <AltitudeMeters>1012.4000244140625</AltitudeMeters>
            <DistanceMeters>30488.950424531</DistanceMeters>
          </Trackpoint>
          <Trackpoint>
            <Time>2022-08-27T07:46:31.000Z</Time>
            <Position>
              <LatitudeDegrees>50.21335132420063018798828125</LatitudeDegrees>
              <LongitudeDegrees>16.99290387332439422607421875</LongitudeDegrees>
            </Position>
            <AltitudeMeters>1012</AltitudeMeters>
            <DistanceMeters>30501.122749465</DistanceMeters>
          </Trackpoint>
          <Trackpoint>
            <Time>2022-08-27T07:46:32.000Z</Time>
            <Position>
              <LatitudeDegrees>50.2133182995021343231201171875</LatitudeDegrees>
              <LongitudeDegrees>16.99291753582656383514404296875</LongitudeDegrees>
            </Position>
            <AltitudeMeters>1012</AltitudeMeters>
            <DistanceMeters>30504.926192966</DistanceMeters>
          </Trackpoint>
          <Trackpoint>
            <Time>2022-08-27T07:46:42.000Z</Time>
            <Position>
              <LatitudeDegrees>50.213212855160236358642578125</LatitudeDegrees>
              <LongitudeDegrees>16.99289591051638126373291015625</LongitudeDegrees>
            </Position>
            <AltitudeMeters>1012</AltitudeMeters>
            <DistanceMeters>30516.763028105</DistanceMeters>
          </Trackpoint>
          <Trackpoint>
            <Time>2022-08-27T07:46:52.000Z</Time>
            <Position>
              <LatitudeDegrees>50.21314940415322780609130859375</LatitudeDegrees>
              <LongitudeDegrees>16.99277906678617000579833984375</LongitudeDegrees>
            </Position>
            <AltitudeMeters>1012</AltitudeMeters>
            <DistanceMeters>30527.677871142</DistanceMeters>
          </Trackpoint>
          <Trackpoint>
            <Time>2022-08-27T07:47:04.000Z</Time>
            <Position>
              <LatitudeDegrees>50.21303591318428516387939453125</LatitudeDegrees>
              <LongitudeDegrees>16.9927115924656391143798828125</LongitudeDegrees>
            </Position>
            <AltitudeMeters>1012</AltitudeMeters>
            <DistanceMeters>30541.193062088</DistanceMeters>
          </Trackpoint>
          <Trackpoint>
            <Time>2022-08-27T07:47:20.000Z</Time>
            <Position>
              <LatitudeDegrees>50.21289107389748096466064453125</LatitudeDegrees>
              <LongitudeDegrees>16.99258393608033657073974609375</LongitudeDegrees>
            </Position>
            <AltitudeMeters>1012.20001220703125</AltitudeMeters>
            <DistanceMeters>30559.701085208</DistanceMeters>
          </Trackpoint>
          <Trackpoint>
            <Time>2022-08-27T07:47:33.000Z</Time>
            <Position>
              <LatitudeDegrees>50.21280524320900440216064453125</LatitudeDegrees>
              <LongitudeDegrees>16.9924380071461200714111328125</LongitudeDegrees>
            </Position>
            <AltitudeMeters>1012</AltitudeMeters>
            <DistanceMeters>30573.818230356</DistanceMeters>
          </Trackpoint>
          <Trackpoint>
            <Time>2022-08-27T07:47:45.000Z</Time>
            <Position>
              <LatitudeDegrees>50.2127216756343841552734375</LatitudeDegrees>
              <LongitudeDegrees>16.992349661886692047119140625</LongitudeDegrees>
            </Position>
            <AltitudeMeters>1011.79998779296875</AltitudeMeters>
            <DistanceMeters>30585.048281452</DistanceMeters>
          </Trackpoint>
          <Trackpoint>
            <Time>2022-08-27T07:47:57.000Z</Time>
            <Position>
              <LatitudeDegrees>50.2126125432550907135009765625</LatitudeDegrees>
              <LongitudeDegrees>16.9923028908669948577880859375</LongitudeDegrees>
            </Position>
            <AltitudeMeters>1011.79998779296875</AltitudeMeters>
            <DistanceMeters>30597.64353385</DistanceMeters>
          </Trackpoint>
          <Trackpoint>
            <Time>2022-08-27T07:48:08.000Z</Time>
            <Position>
              <LatitudeDegrees>50.2125250361859798431396484375</LatitudeDegrees>
              <LongitudeDegrees>16.99222259223461151123046875</LongitudeDegrees>
            </Position>
            <AltitudeMeters>1011.5999755859375</AltitudeMeters>
            <DistanceMeters>30608.938529202</DistanceMeters>
          </Trackpoint>
          <Trackpoint>
            <Time>2022-08-27T07:48:22.000Z</Time>
            <Position>
              <LatitudeDegrees>50.2124284766614437103271484375</LatitudeDegrees>
              <LongitudeDegrees>16.992102898657321929931640625</LongitudeDegrees>
            </Position>
            <AltitudeMeters>1011.4000244140625</AltitudeMeters>
            <DistanceMeters>30622.656648355</DistanceMeters>
          </Trackpoint>
          <Trackpoint>
            <Time>2022-08-27T07:48:34.000Z</Time>
            <Position>
              <LatitudeDegrees>50.21225161850452423095703125</LatitudeDegrees>
              <LongitudeDegrees>16.99196786619722843170166015625</LongitudeDegrees>
            </Position>
            <AltitudeMeters>1011.20001220703125</AltitudeMeters>
            <DistanceMeters>30644.565201098</DistanceMeters>
          </Trackpoint>
          <Trackpoint>
            <Time>2022-08-27T07:48:38.000Z</Time>
            <Position>
              <LatitudeDegrees>50.21220074035227298736572265625</LatitudeDegrees>
              <LongitudeDegrees>16.9919307343661785125732421875</LongitudeDegrees>
            </Position>
            <AltitudeMeters>1011.20001220703125</AltitudeMeters>
            <DistanceMeters>30650.815329952</DistanceMeters>
          </Trackpoint>
          <Trackpoint>
            <Time>2022-08-27T07:48:48.000Z</Time>
            <Position>
              <LatitudeDegrees>50.2121342718601226806640625</LatitudeDegrees>
              <LongitudeDegrees>16.99186761863529682159423828125</LongitudeDegrees>
            </Position>
            <AltitudeMeters>1011</AltitudeMeters>
            <DistanceMeters>30659.471632531</DistanceMeters>
          </Trackpoint>
          <Trackpoint>
            <Time>2022-08-27T07:49:00.000Z</Time>
            <Position>
              <LatitudeDegrees>50.212081633508205413818359375</LatitudeDegrees>
              <LongitudeDegrees>16.9917889125645160675048828125</LongitudeDegrees>
            </Position>
            <AltitudeMeters>1010.79998779296875</AltitudeMeters>
            <DistanceMeters>30667.579588902</DistanceMeters>
          </Trackpoint>
          <Trackpoint>
            <Time>2022-08-27T07:49:14.000Z</Time>
            <Position>
              <LatitudeDegrees>50.21196336485445499420166015625</LatitudeDegrees>
              <LongitudeDegrees>16.9916454143822193145751953125</LongitudeDegrees>
            </Position>
            <AltitudeMeters>1010.5999755859375</AltitudeMeters>
            <DistanceMeters>30684.245334947</DistanceMeters>
          </Trackpoint>
          <Trackpoint>
            <Time>2022-08-27T07:49:27.000Z</Time>
            <Position>
              <LatitudeDegrees>50.211843587458133697509765625</LatitudeDegrees>
              <LongitudeDegrees>16.9915639422833919525146484375</LongitudeDegrees>
            </Position>
            <AltitudeMeters>1010.5999755859375</AltitudeMeters>
            <DistanceMeters>30698.785043322</DistanceMeters>
          </Trackpoint>
          <Trackpoint>
            <Time>2022-08-27T07:49:37.000Z</Time>
            <Position>
              <LatitudeDegrees>50.21177225746214389801025390625</LatitudeDegrees>
              <LongitudeDegrees>16.99151222594082355499267578125</LongitudeDegrees>
            </Position>
            <AltitudeMeters>1010.20001220703125</AltitudeMeters>
            <DistanceMeters>30707.537823941</DistanceMeters>
          </Trackpoint>
          <Trackpoint>
            <Time>2022-08-27T07:49:40.000Z</Time>
            <Position>
              <LatitudeDegrees>50.2117508836090564727783203125</LatitudeDegrees>
              <LongitudeDegrees>16.991475932300090789794921875</LongitudeDegrees>
            </Position>
            <AltitudeMeters>1010.20001220703125</AltitudeMeters>
            <DistanceMeters>30711.052527993</DistanceMeters>
          </Trackpoint>
          <Trackpoint>
            <Time>2022-08-27T07:49:54.000Z</Time>
            <Position>
              <LatitudeDegrees>50.21162792108952999114990234375</LatitudeDegrees>
              <LongitudeDegrees>16.991374678909778594970703125</LongitudeDegrees>
            </Position>
            <AltitudeMeters>1009.79998779296875</AltitudeMeters>
            <DistanceMeters>30726.522631936</DistanceMeters>
          </Trackpoint>
          <Trackpoint>
            <Time>2022-08-27T07:50:07.000Z</Time>
            <Position>
              <LatitudeDegrees>50.21151711232960224151611328125</LatitudeDegrees>
              <LongitudeDegrees>16.9913121499121189117431640625</LongitudeDegrees>
            </Position>
            <AltitudeMeters>1009.79998779296875</AltitudeMeters>
            <DistanceMeters>30739.635629901</DistanceMeters>
          </Trackpoint>
          <Trackpoint>
            <Time>2022-08-27T07:50:18.000Z</Time>
            <Position>
              <LatitudeDegrees>50.21141074597835540771484375</LatitudeDegrees>
              <LongitudeDegrees>16.991215758025646209716796875</LongitudeDegrees>
            </Position>
            <AltitudeMeters>1009.5999755859375</AltitudeMeters>
            <DistanceMeters>30753.32145635</DistanceMeters>
          </Trackpoint>
          <Trackpoint>
            <Time>2022-08-27T07:50:28.000Z</Time>
            <Position>
              <LatitudeDegrees>50.21131678484380245208740234375</LatitudeDegrees>
              <LongitudeDegrees>16.9910942204296588897705078125</LongitudeDegrees>
            </Position>
            <AltitudeMeters>1009.20001220703125</AltitudeMeters>
            <DistanceMeters>30766.897977273</DistanceMeters>
          </Trackpoint>
          <Trackpoint>
            <Time>2022-08-27T07:50:35.000Z</Time>
            <Position>
              <LatitudeDegrees>50.211257524788379669189453125</LatitudeDegrees>
              <LongitudeDegrees>16.99106253683567047119140625</LongitudeDegrees>
            </Position>
            <AltitudeMeters>1009.20001220703125</AltitudeMeters>
            <DistanceMeters>30773.869338075</DistanceMeters>
          </Trackpoint>
          <Trackpoint>
            <Time>2022-08-27T07:50:39.000Z</Time>
            <Position>
              <LatitudeDegrees>50.21122843958437442779541015625</LatitudeDegrees>
              <LongitudeDegrees>16.9910281710326671600341796875</LongitudeDegrees>
            </Position>
            <AltitudeMeters>1008.79998779296875</AltitudeMeters>
            <DistanceMeters>30777.927768736</DistanceMeters>
          </Trackpoint>
          <Trackpoint>
            <Time>2022-08-27T07:50:51.000Z</Time>
            <Position>
              <LatitudeDegrees>50.21112182177603244781494140625</LatitudeDegrees>
              <LongitudeDegrees>16.99086145497858524322509765625</LongitudeDegrees>
            </Position>
            <AltitudeMeters>1008.5999755859375</AltitudeMeters>
            <DistanceMeters>30794.715522779</DistanceMeters>
          </Trackpoint>
          <Trackpoint>
            <Time>2022-08-27T07:51:02.000Z</Time>
            <Position>
              <LatitudeDegrees>50.21103951148688793182373046875</LatitudeDegrees>
              <LongitudeDegrees>16.99074025265872478485107421875</LongitudeDegrees>
            </Position>
            <AltitudeMeters>1008</AltitudeMeters>
            <DistanceMeters>30807.303245026</DistanceMeters>
          </Trackpoint>
          <Trackpoint>
            <Time>2022-08-27T07:51:05.000Z</Time>
            <Position>
              <LatitudeDegrees>50.21101486869156360626220703125</LatitudeDegrees>
              <LongitudeDegrees>16.99072189629077911376953125</LongitudeDegrees>
            </Position>
            <AltitudeMeters>1008</AltitudeMeters>
            <DistanceMeters>30810.34112885</DistanceMeters>
          </Trackpoint>
          <Trackpoint>
            <Time>2022-08-27T07:51:16.000Z</Time>
            <Position>
              <LatitudeDegrees>50.2109381742775440216064453125</LatitudeDegrees>
              <LongitudeDegrees>16.9906355626881122589111328125</LongitudeDegrees>
            </Position>
            <AltitudeMeters>1007</AltitudeMeters>
            <DistanceMeters>30820.861234215</DistanceMeters>
          </Trackpoint>
          <Trackpoint>
            <Time>2022-08-27T07:51:20.000Z</Time>
            <Position>
              <LatitudeDegrees>50.2109150402247905731201171875</LatitudeDegrees>
              <LongitudeDegrees>16.99060815386474132537841796875</LongitudeDegrees>
            </Position>
            <AltitudeMeters>1006.79998779296875</AltitudeMeters>
            <DistanceMeters>30824.092142504</DistanceMeters>
          </Trackpoint>
          <Trackpoint>
            <Time>2022-08-27T07:51:31.000Z</Time>
            <Position>
              <LatitudeDegrees>50.21086198277771472930908203125</LatitudeDegrees>
              <LongitudeDegrees>16.9905386678874492645263671875</LongitudeDegrees>
            </Position>
            <AltitudeMeters>1006</AltitudeMeters>
            <DistanceMeters>30831.796928195</DistanceMeters>
          </Trackpoint>
          <Trackpoint>
            <Time>2022-08-27T07:51:32.000Z</Time>
            <Position>
              <LatitudeDegrees>50.2108550257980823516845703125</LatitudeDegrees>
              <LongitudeDegrees>16.99053824879229068756103515625</LongitudeDegrees>
            </Position>
            <AltitudeMeters>1006</AltitudeMeters>
            <DistanceMeters>30832.568928872</DistanceMeters>
          </Trackpoint>
          <Trackpoint>
            <Time>2022-08-27T07:51:42.000Z</Time>
            <Position>
              <LatitudeDegrees>50.21079123951494693756103515625</LatitudeDegrees>
              <LongitudeDegrees>16.99051410891115665435791015625</LongitudeDegrees>
            </Position>
            <AltitudeMeters>1005</AltitudeMeters>
            <DistanceMeters>30839.873634321</DistanceMeters>
          </Trackpoint>
          <Trackpoint>
            <Time>2022-08-27T07:51:43.000Z</Time>
            <Position>
              <LatitudeDegrees>50.2107851207256317138671875</LatitudeDegrees>
              <LongitudeDegrees>16.9905172102153301239013671875</LongitudeDegrees>
            </Position>
            <AltitudeMeters>1005</AltitudeMeters>
            <DistanceMeters>30840.584749137</DistanceMeters>
          </Trackpoint>
          <Trackpoint>
            <Time>2022-08-27T07:51:54.000Z</Time>
            <Position>
              <LatitudeDegrees>50.2107222564518451690673828125</LatitudeDegrees>
              <LongitudeDegrees>16.990501619875431060791015625</LongitudeDegrees>
            </Position>
            <AltitudeMeters>1004.4000244140625</AltitudeMeters>
            <DistanceMeters>30847.669180298</DistanceMeters>
          </Trackpoint>
          <Trackpoint>
            <Time>2022-08-27T07:52:02.000Z</Time>
            <Position>
              <LatitudeDegrees>50.21067104302346706390380859375</LatitudeDegrees>
              <LongitudeDegrees>16.99046666733920574188232421875</LongitudeDegrees>
            </Position>
            <AltitudeMeters>1003.79998779296875</AltitudeMeters>
            <DistanceMeters>30853.888894719</DistanceMeters>
          </Trackpoint>
          <Trackpoint>
            <Time>2022-08-27T07:52:06.000Z</Time>
            <Position>
              <LatitudeDegrees>50.2106375992298126220703125</LatitudeDegrees>
              <LongitudeDegrees>16.9904347322881221771240234375</LongitudeDegrees>
            </Position>
            <AltitudeMeters>1003.20001220703125</AltitudeMeters>
            <DistanceMeters>30858.250817583</DistanceMeters>
          </Trackpoint>
          <Trackpoint>
            <Time>2022-08-27T07:52:18.000Z</Time>
            <Position>
              <LatitudeDegrees>50.21053827367722988128662109375</LatitudeDegrees>
              <LongitudeDegrees>16.99037111364305019378662109375</LongitudeDegrees>
            </Position>
            <AltitudeMeters>1002.79998779296875</AltitudeMeters>
            <DistanceMeters>30870.198513948</DistanceMeters>
          </Trackpoint>
          <Trackpoint>
            <Time>2022-08-27T07:52:20.000Z</Time>
            <Position>
              <LatitudeDegrees>50.21052050404250621795654296875</LatitudeDegrees>
              <LongitudeDegrees>16.990370862185955047607421875</LongitudeDegrees>
            </Position>
            <AltitudeMeters>1002.5999755859375</AltitudeMeters>
            <DistanceMeters>30872.175891782</DistanceMeters>
          </Trackpoint>
          <Trackpoint>
            <Time>2022-08-27T07:52:30.000Z</Time>
            <Position>
              <LatitudeDegrees>50.21043349988758563995361328125</LatitudeDegrees>
              <LongitudeDegrees>16.99037857353687286376953125</LongitudeDegrees>
            </Position>
            <AltitudeMeters>1002.4000244140625</AltitudeMeters>
            <DistanceMeters>30881.875135897</DistanceMeters>
          </Trackpoint>
          <Trackpoint>
            <Time>2022-08-27T07:52:32.000Z</Time>
            <Position>
              <LatitudeDegrees>50.21041807718575000762939453125</LatitudeDegrees>
              <LongitudeDegrees>16.99038150720298290252685546875</LongitudeDegrees>
            </Position>
            <AltitudeMeters>1002.20001220703125</AltitudeMeters>
            <DistanceMeters>30883.606605036</DistanceMeters>
          </Trackpoint>
          <Trackpoint>
            <Time>2022-08-27T07:52:43.000Z</Time>
            <Position>
              <LatitudeDegrees>50.21034381352365016937255859375</LatitudeDegrees>
              <LongitudeDegrees>16.9903435371816158294677734375</LongitudeDegrees>
            </Position>
            <AltitudeMeters>1001.79998779296875</AltitudeMeters>
            <DistanceMeters>30892.303496451</DistanceMeters>
          </Trackpoint>
          <Trackpoint>
            <Time>2022-08-27T07:52:53.000Z</Time>
            <Position>
              <LatitudeDegrees>50.21029285155236721038818359375</LatitudeDegrees>
              <LongitudeDegrees>16.9901990331709384918212890625</LongitudeDegrees>
            </Position>
            <AltitudeMeters>1001.79998779296875</AltitudeMeters>
            <DistanceMeters>30904.056115278</DistanceMeters>
          </Trackpoint>
          <Trackpoint>
            <Time>2022-08-27T07:53:04.000Z</Time>
            <Position>
              <LatitudeDegrees>50.210273824632167816162109375</LatitudeDegrees>
              <LongitudeDegrees>16.99014656245708465576171875</LongitudeDegrees>
            </Position>
            <AltitudeMeters>1001.79998779296875</AltitudeMeters>
            <DistanceMeters>30908.352331782</DistanceMeters>
          </Trackpoint>
          <Trackpoint>
            <Time>2022-08-27T07:53:16.000Z</Time>
            <Position>
              <LatitudeDegrees>50.21028949879109859466552734375</LatitudeDegrees>
              <LongitudeDegrees>16.9899754039943218231201171875</LongitudeDegrees>
            </Position>
            <AltitudeMeters>1002</AltitudeMeters>
            <DistanceMeters>30920.668101918</DistanceMeters>
          </Trackpoint>
          <Trackpoint>
            <Time>2022-08-27T07:53:31.000Z</Time>
            <Position>
              <LatitudeDegrees>50.21025999449193477630615234375</LatitudeDegrees>
              <LongitudeDegrees>16.98987188749015331268310546875</LongitudeDegrees>
            </Position>
            <AltitudeMeters>1002.20001220703125</AltitudeMeters>
            <DistanceMeters>30928.73922151</DistanceMeters>
          </Trackpoint>
          <Trackpoint>
            <Time>2022-08-27T07:53:43.000Z</Time>
            <Position>
              <LatitudeDegrees>50.2102488465607166290283203125</LatitudeDegrees>
              <LongitudeDegrees>16.9897876493632793426513671875</LongitudeDegrees>
            </Position>
            <AltitudeMeters>1002.4000244140625</AltitudeMeters>
            <DistanceMeters>30934.866050035</DistanceMeters>
          </Trackpoint>
          <Trackpoint>
            <Time>2022-08-27T07:53:54.000Z</Time>
            <Position>
              <LatitudeDegrees>50.21023065783083438873291015625</LatitudeDegrees>
              <LongitudeDegrees>16.989668793976306915283203125</LongitudeDegrees>
            </Position>
            <AltitudeMeters>1002.79998779296875</AltitudeMeters>
            <DistanceMeters>30943.571243974</DistanceMeters>
          </Trackpoint>
          <Trackpoint>
            <Time>2022-08-27T07:54:07.000Z</Time>
            <Position>
              <LatitudeDegrees>50.21020165644586086273193359375</LatitudeDegrees>
              <LongitudeDegrees>16.989621184766292572021484375</LongitudeDegrees>
            </Position>
            <AltitudeMeters>1002.79998779296875</AltitudeMeters>
            <DistanceMeters>30948.252696263</DistanceMeters>
          </Trackpoint>
          <Trackpoint>
            <Time>2022-08-27T07:54:16.000Z</Time>
            <Position>
              <LatitudeDegrees>50.21016460843384265899658203125</LatitudeDegrees>
              <LongitudeDegrees>16.9896310754120349884033203125</LongitudeDegrees>
            </Position>
            <AltitudeMeters>1002.79998779296875</AltitudeMeters>
            <DistanceMeters>30952.434951404</DistanceMeters>
          </Trackpoint>
          <Trackpoint>
            <Time>2022-08-27T07:54:29.000Z</Time>
            <Position>
              <LatitudeDegrees>50.21016695536673069000244140625</LatitudeDegrees>
              <LongitudeDegrees>16.98964037932455539703369140625</LongitudeDegrees>
            </Position>
            <AltitudeMeters>1002.4000244140625</AltitudeMeters>
            <DistanceMeters>30953.14606622</DistanceMeters>
          </Trackpoint>
          <Trackpoint>
            <Time>2022-08-27T07:54:45.000Z</Time>
            <Position>
              <LatitudeDegrees>50.2101693861186504364013671875</LatitudeDegrees>
              <LongitudeDegrees>16.98964901268482208251953125</LongitudeDegrees>
            </Position>
            <AltitudeMeters>1002.20001220703125</AltitudeMeters>
            <DistanceMeters>30953.818006561</DistanceMeters>
          </Trackpoint>
          <Trackpoint>
            <Time>2022-08-27T07:55:03.000Z</Time>
            <Position>
              <LatitudeDegrees>50.21017399616539478302001953125</LatitudeDegrees>
              <LongitudeDegrees>16.98965647257864475250244140625</LongitudeDegrees>
            </Position>
            <AltitudeMeters>1002.4000244140625</AltitudeMeters>
            <DistanceMeters>30954.554080326</DistanceMeters>
          </Trackpoint>
          <Trackpoint>
            <Time>2022-08-27T07:55:20.000Z</Time>
            <Position>
              <LatitudeDegrees>50.2101794444024562835693359375</LatitudeDegrees>
              <LongitudeDegrees>16.98964926414191722869873046875</LongitudeDegrees>
            </Position>
            <AltitudeMeters>1002.20001220703125</AltitudeMeters>
            <DistanceMeters>30955.349130859</DistanceMeters>
          </Trackpoint>
          <Trackpoint>
            <Time>2022-08-27T07:55:30.000Z</Time>
            <Position>
              <LatitudeDegrees>50.21018455736339092254638671875</LatitudeDegrees>
              <LongitudeDegrees>16.9896951131522655487060546875</LongitudeDegrees>
            </Position>
            <AltitudeMeters>1002.5999755859375</AltitudeMeters>
            <DistanceMeters>30958.662825618</DistanceMeters>
          </Trackpoint>
          <Trackpoint>
            <Time>2022-08-27T07:55:37.000Z</Time>
            <Position>
              <LatitudeDegrees>50.21017433144152164459228515625</LatitudeDegrees>
              <LongitudeDegrees>16.98971564881503582000732421875</LongitudeDegrees>
            </Position>
            <AltitudeMeters>1002.4000244140625</AltitudeMeters>
            <DistanceMeters>30960.515237303</DistanceMeters>
          </Trackpoint>
          <Trackpoint>
            <Time>2022-08-27T07:55:48.000Z</Time>
            <Position>
              <LatitudeDegrees>50.21016712300479412078857421875</LatitudeDegrees>
              <LongitudeDegrees>16.9897232763469219207763671875</LongitudeDegrees>
            </Position>
            <AltitudeMeters>1002.4000244140625</AltitudeMeters>
            <DistanceMeters>30961.484323445</DistanceMeters>
          </Trackpoint>
          <Trackpoint>
            <Time>2022-08-27T07:55:59.000Z</Time>
            <Position>
              <LatitudeDegrees>50.2101620100438594818115234375</LatitudeDegrees>
              <LongitudeDegrees>16.98972755111753940582275390625</LongitudeDegrees>
            </Position>
            <AltitudeMeters>1002.20001220703125</AltitudeMeters>
            <DistanceMeters>30962.128825979</DistanceMeters>
          </Trackpoint>
          <Trackpoint>
            <Time>2022-08-27T07:56:09.000Z</Time>
            <Position>
              <LatitudeDegrees>50.21016561426222324371337890625</LatitudeDegrees>
              <LongitudeDegrees>16.9897246174514293670654296875</LongitudeDegrees>
            </Position>
            <AltitudeMeters>1002.20001220703125</AltitudeMeters>
            <DistanceMeters>30962.594359903</DistanceMeters>
          </Trackpoint>
          <Trackpoint>
            <Time>2022-08-27T07:56:21.000Z</Time>
            <Position>
              <LatitudeDegrees>50.2101640217006206512451171875</LatitudeDegrees>
              <LongitudeDegrees>16.98972503654658794403076171875</LongitudeDegrees>
            </Position>
            <AltitudeMeters>1002.20001220703125</AltitudeMeters>
            <DistanceMeters>30962.784413332</DistanceMeters>
          </Trackpoint>
          <Trackpoint>
            <Time>2022-08-27T07:56:31.000Z</Time>
            <Position>
              <LatitudeDegrees>50.21014868281781673431396484375</LatitudeDegrees>
              <LongitudeDegrees>16.9897140562534332275390625</LongitudeDegrees>
            </Position>
            <AltitudeMeters>1002.20001220703125</AltitudeMeters>
            <DistanceMeters>30964.661040576</DistanceMeters>
          </Trackpoint>
          <Trackpoint>
            <Time>2022-08-27T07:56:39.000Z</Time>
            <Position>
              <LatitudeDegrees>50.2101266384124755859375</LatitudeDegrees>
              <LongitudeDegrees>16.98968497104942798614501953125</LongitudeDegrees>
            </Position>
            <AltitudeMeters>1002.20001220703125</AltitudeMeters>
            <DistanceMeters>30967.873730629</DistanceMeters>
          </Trackpoint>
          <Trackpoint>
            <Time>2022-08-27T07:56:48.000Z</Time>
            <Position>
              <LatitudeDegrees>50.21010476164519786834716796875</LatitudeDegrees>
              <LongitudeDegrees>16.98965094052255153656005859375</LongitudeDegrees>
            </Position>
            <AltitudeMeters>1002.20001220703125</AltitudeMeters>
            <DistanceMeters>30971.310493639</DistanceMeters>
          </Trackpoint>
          <Trackpoint>
            <Time>2022-08-27T07:56:56.000Z</Time>
            <Position>
              <LatitudeDegrees>50.21010191179811954498291015625</LatitudeDegrees>
              <LongitudeDegrees>16.98972051031887531280517578125</LongitudeDegrees>
            </Position>
            <AltitudeMeters>1002</AltitudeMeters>
            <DistanceMeters>30976.27558263</DistanceMeters>
          </Trackpoint>
          <Trackpoint>
            <Time>2022-08-27T07:56:59.000Z</Time>
            <Position>
              <LatitudeDegrees>50.21009755320847034454345703125</LatitudeDegrees>
              <LongitudeDegrees>16.9897521100938320159912109375</LongitudeDegrees>
            </Position>
            <AltitudeMeters>1001.79998779296875</AltitudeMeters>
            <DistanceMeters>30978.577897742</DistanceMeters>
          </Trackpoint>
          <Trackpoint>
            <Time>2022-08-27T07:57:00.000Z</Time>
            <Position>
              <LatitudeDegrees>50.21009554155170917510986328125</LatitudeDegrees>
              <LongitudeDegrees>16.98976610787212848663330078125</LongitudeDegrees>
            </Position>
            <AltitudeMeters>1001.5999755859375</AltitudeMeters>
            <DistanceMeters>30979.601366778</DistanceMeters>
          </Trackpoint>
          <Trackpoint>
            <Time>2022-08-27T07:57:03.000Z</Time>
            <Position>
              <LatitudeDegrees>50.21008682437241077423095703125</LatitudeDegrees>
              <LongitudeDegrees>16.9897950254380702972412109375</LongitudeDegrees>
            </Position>
            <AltitudeMeters>1001.4000244140625</AltitudeMeters>
            <DistanceMeters>30981.878045033</DistanceMeters>
          </Trackpoint>
          <Trackpoint>
            <Time>2022-08-27T07:57:12.000Z</Time>
            <Position>
              <LatitudeDegrees>50.21005086600780487060546875</LatitudeDegrees>
              <LongitudeDegrees>16.9898530282080173492431640625</LongitudeDegrees>
            </Position>
            <AltitudeMeters>1001.20001220703125</AltitudeMeters>
            <DistanceMeters>30987.630105541</DistanceMeters>
          </Trackpoint>
          <Trackpoint>
            <Time>2022-08-27T07:57:22.000Z</Time>
            <Position>
              <LatitudeDegrees>50.210034437477588653564453125</LatitudeDegrees>
              <LongitudeDegrees>16.98997464962303638458251953125</LongitudeDegrees>
            </Position>
            <AltitudeMeters>1001.20001220703125</AltitudeMeters>
            <DistanceMeters>30996.484433505</DistanceMeters>
          </Trackpoint>
          <Trackpoint>
            <Time>2022-08-27T07:57:30.000Z</Time>
            <Position>
              <LatitudeDegrees>50.21001725457608699798583984375</LatitudeDegrees>
              <LongitudeDegrees>16.9900667667388916015625</LongitudeDegrees>
            </Position>
            <AltitudeMeters>1001.4000244140625</AltitudeMeters>
            <DistanceMeters>31003.3190941</DistanceMeters>
          </Trackpoint>
          <Trackpoint>
            <Time>2022-08-27T07:57:40.000Z</Time>
            <Position>
              <LatitudeDegrees>50.21000434644520282745361328125</LatitudeDegrees>
              <LongitudeDegrees>16.9901520945131778717041015625</LongitudeDegrees>
            </Position>
            <AltitudeMeters>1001.4000244140625</AltitudeMeters>
            <DistanceMeters>31009.564887103</DistanceMeters>
          </Trackpoint>
          <Trackpoint>
            <Time>2022-08-27T07:57:56.000Z</Time>
            <Position>
              <LatitudeDegrees>50.21001474000513553619384765625</LatitudeDegrees>
              <LongitudeDegrees>16.99022728018462657928466796875</LongitudeDegrees>
            </Position>
            <AltitudeMeters>1001.5999755859375</AltitudeMeters>
            <DistanceMeters>31015.043570713</DistanceMeters>
          </Trackpoint>
          <Trackpoint>
            <Time>2022-08-27T07:58:13.000Z</Time>
            <Position>
              <LatitudeDegrees>50.21017148159444332122802734375</LatitudeDegrees>
              <LongitudeDegrees>16.99028478004038333892822265625</LongitudeDegrees>
            </Position>
            <AltitudeMeters>1001.79998779296875</AltitudeMeters>
            <DistanceMeters>31032.963603595</DistanceMeters>
          </Trackpoint>
          <Trackpoint>
            <Time>2022-08-27T07:58:14.000Z</Time>
            <Position>
              <LatitudeDegrees>50.2102106250822544097900390625</LatitudeDegrees>
              <LongitudeDegrees>16.9903445430099964141845703125</LongitudeDegrees>
            </Position>
            <AltitudeMeters>1001.79998779296875</AltitudeMeters>
            <DistanceMeters>31039.05495682</DistanceMeters>
          </Trackpoint>
          <Trackpoint>
            <Time>2022-08-27T07:58:18.000Z</Time>
            <Position>
              <LatitudeDegrees>50.2101559750735759735107421875</LatitudeDegrees>
              <LongitudeDegrees>16.990627348423004150390625</LongitudeDegrees>
            </Position>
            <AltitudeMeters>1002.4000244140625</AltitudeMeters>
            <DistanceMeters>31060.09731335</DistanceMeters>
          </Trackpoint>
          <Trackpoint>
            <Time>2022-08-27T07:58:22.000Z</Time>
            <Position>
              <LatitudeDegrees>50.21015907637774944305419921875</LatitudeDegrees>
              <LongitudeDegrees>16.9906154461205005645751953125</LongitudeDegrees>
            </Position>
            <AltitudeMeters>1003</AltitudeMeters>
            <DistanceMeters>31061.013717796</DistanceMeters>
          </Trackpoint>
          <Trackpoint>
            <Time>2022-08-27T07:58:30.000Z</Time>
            <Position>
              <LatitudeDegrees>50.21014767698943614959716796875</LatitudeDegrees>
              <LongitudeDegrees>16.99058619327843189239501953125</LongitudeDegrees>
            </Position>
            <AltitudeMeters>1004</AltitudeMeters>
            <DistanceMeters>31063.454998291</DistanceMeters>
          </Trackpoint>
          <Trackpoint>
            <Time>2022-08-27T07:58:31.000Z</Time>
            <Position>
              <LatitudeDegrees>50.210145749151706695556640625</LatitudeDegrees>
              <LongitudeDegrees>16.99058334343135356903076171875</LongitudeDegrees>
            </Position>
            <AltitudeMeters>1004.20001220703125</AltitudeMeters>
            <DistanceMeters>31063.755499147</DistanceMeters>
          </Trackpoint>
          <Trackpoint>
            <Time>2022-08-27T07:58:41.000Z</Time>
            <Position>
              <LatitudeDegrees>50.21003988571465015411376953125</LatitudeDegrees>
              <LongitudeDegrees>16.9905768893659114837646484375</LongitudeDegrees>
            </Position>
            <AltitudeMeters>1005.20001220703125</AltitudeMeters>
            <DistanceMeters>31075.547621397</DistanceMeters>
          </Trackpoint>
          <Trackpoint>
            <Time>2022-08-27T07:58:42.000Z</Time>
            <Position>
              <LatitudeDegrees>50.21003703586757183074951171875</LatitudeDegrees>
              <LongitudeDegrees>16.99058108031749725341796875</LongitudeDegrees>
            </Position>
            <AltitudeMeters>1005.4000244140625</AltitudeMeters>
            <DistanceMeters>31075.993336196</DistanceMeters>
          </Trackpoint>
          <Trackpoint>
            <Time>2022-08-27T07:58:51.000Z</Time>
            <Position>
              <LatitudeDegrees>50.21001909859478473663330078125</LatitudeDegrees>
              <LongitudeDegrees>16.9905973412096500396728515625</LongitudeDegrees>
            </Position>
            <AltitudeMeters>1006.4000244140625</AltitudeMeters>
            <DistanceMeters>31078.301527068</DistanceMeters>
          </Trackpoint>
          <Trackpoint>
            <Time>2022-08-27T07:59:00.000Z</Time>
            <Position>
              <LatitudeDegrees>50.21000367589294910430908203125</LatitudeDegrees>
              <LongitudeDegrees>16.9905929826200008392333984375</LongitudeDegrees>
            </Position>
            <AltitudeMeters>1007</AltitudeMeters>
            <DistanceMeters>31080.043395514</DistanceMeters>
          </Trackpoint>
          <Trackpoint>
            <Time>2022-08-27T07:59:11.000Z</Time>
            <Position>
              <LatitudeDegrees>50.2099923603236675262451171875</LatitudeDegrees>
              <LongitudeDegrees>16.99037865735590457916259765625</LongitudeDegrees>
            </Position>
            <AltitudeMeters>1007</AltitudeMeters>
            <DistanceMeters>31095.361866929</DistanceMeters>
          </Trackpoint>
          <Trackpoint>
            <Time>2022-08-27T07:59:17.000Z</Time>
            <Position>
              <LatitudeDegrees>50.2100014127790927886962890625</LatitudeDegrees>
              <LongitudeDegrees>16.9902412779629230499267578125</LongitudeDegrees>
            </Position>
            <AltitudeMeters>1007.4000244140625</AltitudeMeters>
            <DistanceMeters>31105.199771143</DistanceMeters>
          </Trackpoint>
          <Trackpoint>
            <Time>2022-08-27T07:59:24.000Z</Time>
            <Position>
              <LatitudeDegrees>50.2099360339343547821044921875</LatitudeDegrees>
              <LongitudeDegrees>16.9899780862033367156982421875</LongitudeDegrees>
            </Position>
            <AltitudeMeters>1007.4000244140625</AltitudeMeters>
            <DistanceMeters>31125.309992515</DistanceMeters>
          </Trackpoint>
          <Trackpoint>
            <Time>2022-08-27T07:59:37.000Z</Time>
            <Position>
              <LatitudeDegrees>50.20993343554437160491943359375</LatitudeDegrees>
              <LongitudeDegrees>16.98982494883239269256591796875</LongitudeDegrees>
            </Position>
            <AltitudeMeters>1007.20001220703125</AltitudeMeters>
            <DistanceMeters>31136.221939545</DistanceMeters>
          </Trackpoint>
          <Trackpoint>
            <Time>2022-08-27T07:59:51.000Z</Time>
            <Position>
              <LatitudeDegrees>50.20996570587158203125</LatitudeDegrees>
              <LongitudeDegrees>16.9896994717419147491455078125</LongitudeDegrees>
            </Position>
            <AltitudeMeters>1006.5999755859375</AltitudeMeters>
            <DistanceMeters>31145.853917814</DistanceMeters>
          </Trackpoint>
          <Trackpoint>
            <Time>2022-08-27T08:00:08.000Z</Time>
            <Position>
              <LatitudeDegrees>50.21001599729061126708984375</LatitudeDegrees>
              <LongitudeDegrees>16.9896669499576091766357421875</LongitudeDegrees>
            </Position>
            <AltitudeMeters>1006.5999755859375</AltitudeMeters>
            <DistanceMeters>31151.911824274</DistanceMeters>
          </Trackpoint>
          <Trackpoint>
            <Time>2022-08-27T08:00:29.000Z</Time>
            <Position>
              <LatitudeDegrees>50.21004013717174530029296875</LatitudeDegrees>
              <LongitudeDegrees>16.98956946842372417449951171875</LongitudeDegrees>
            </Position>
            <AltitudeMeters>1006.20001220703125</AltitudeMeters>
            <DistanceMeters>31159.35672919</DistanceMeters>
          </Trackpoint>
          <Trackpoint>
            <Time>2022-08-27T08:00:45.000Z</Time>
            <Position>
              <LatitudeDegrees>50.209905020892620086669921875</LatitudeDegrees>
              <LongitudeDegrees>16.9896521978080272674560546875</LongitudeDegrees>
            </Position>
            <AltitudeMeters>1006.4000244140625</AltitudeMeters>
            <DistanceMeters>31175.508475488</DistanceMeters>
          </Trackpoint>
          <Trackpoint>
            <Time>2022-08-27T08:00:58.000Z</Time>
            <Position>
              <LatitudeDegrees>50.20969606004655361175537109375</LatitudeDegrees>
              <LongitudeDegrees>16.989681534469127655029296875</LongitudeDegrees>
            </Position>
            <AltitudeMeters>1006.4000244140625</AltitudeMeters>
            <DistanceMeters>31198.859925039</DistanceMeters>
          </Trackpoint>
          <Trackpoint>
            <Position>
              <LatitudeDegrees>50.213448</LatitudeDegrees>
              <LongitudeDegrees>16.993377</LongitudeDegrees>
            </Position>
            <AltitudeMeters>1027.0</AltitudeMeters>
            <DistanceMeters>31692.493304146</DistanceMeters>
          </Trackpoint>
          <Trackpoint>
            <Position>
              <LatitudeDegrees>50.213432</LatitudeDegrees>
              <LongitudeDegrees>16.993367</LongitudeDegrees>
            </Position>
            <AltitudeMeters>1027.0</AltitudeMeters>
            <DistanceMeters>31694.412749688</DistanceMeters>
          </Trackpoint>
          <Trackpoint>
            <Position>
              <LatitudeDegrees>50.213365</LatitudeDegrees>
              <LongitudeDegrees>16.993262</LongitudeDegrees>
            </Position>
            <AltitudeMeters>1027.0</AltitudeMeters>
            <DistanceMeters>31704.973976143</DistanceMeters>
          </Trackpoint>
          <Trackpoint>
            <Position>
              <LatitudeDegrees>50.213347</LatitudeDegrees>
              <LongitudeDegrees>16.993222</LongitudeDegrees>
            </Position>
            <AltitudeMeters>1027.0</AltitudeMeters>
            <DistanceMeters>31708.456416762</DistanceMeters>
          </Trackpoint>
          <Trackpoint>
            <Position>
              <LatitudeDegrees>50.213332</LatitudeDegrees>
              <LongitudeDegrees>16.993185</LongitudeDegrees>
            </Position>
            <AltitudeMeters>1028.0</AltitudeMeters>
            <DistanceMeters>31711.576420353</DistanceMeters>
          </Trackpoint>
          <Trackpoint>
            <Position>
              <LatitudeDegrees>50.21332</LatitudeDegrees>
              <LongitudeDegrees>16.993142</LongitudeDegrees>
            </Position>
            <AltitudeMeters>1028.0</AltitudeMeters>
            <DistanceMeters>31714.91860595</DistanceMeters>
          </Trackpoint>
          <Trackpoint>
            <Position>
              <LatitudeDegrees>50.21331</LatitudeDegrees>
              <LongitudeDegrees>16.9931</LongitudeDegrees>
            </Position>
            <AltitudeMeters>1028.0</AltitudeMeters>
            <DistanceMeters>31718.110145739</DistanceMeters>
          </Trackpoint>
          <Trackpoint>
            <Position>
              <LatitudeDegrees>50.2133</LatitudeDegrees>
              <LongitudeDegrees>16.99306</LongitudeDegrees>
            </Position>
            <AltitudeMeters>1028.0</AltitudeMeters>
            <DistanceMeters>31721.168766212</DistanceMeters>
          </Trackpoint>
          <Trackpoint>
            <Position>
              <LatitudeDegrees>50.213287</LatitudeDegrees>
              <LongitudeDegrees>16.993032</LongitudeDegrees>
            </Position>
            <AltitudeMeters>1028.0</AltitudeMeters>
            <DistanceMeters>31723.632140193</DistanceMeters>
          </Trackpoint>
          <Trackpoint>
            <Position>
              <LatitudeDegrees>50.21326</LatitudeDegrees>
              <LongitudeDegrees>16.993013</LongitudeDegrees>
            </Position>
            <AltitudeMeters>1028.0</AltitudeMeters>
            <DistanceMeters>31726.926704183</DistanceMeters>
          </Trackpoint>
          <Trackpoint>
            <Position>
              <LatitudeDegrees>50.213233</LatitudeDegrees>
              <LongitudeDegrees>16.99299</LongitudeDegrees>
            </Position>
            <AltitudeMeters>1028.0</AltitudeMeters>
            <DistanceMeters>31730.348985461</DistanceMeters>
          </Trackpoint>
          <Trackpoint>
            <Position>
              <LatitudeDegrees>50.21321</LatitudeDegrees>
              <LongitudeDegrees>16.992967</LongitudeDegrees>
            </Position>
            <AltitudeMeters>1028.0</AltitudeMeters>
            <DistanceMeters>31733.389840321</DistanceMeters>
          </Trackpoint>
          <Trackpoint>
            <Position>
              <LatitudeDegrees>50.21311</LatitudeDegrees>
              <LongitudeDegrees>16.992912</LongitudeDegrees>
            </Position>
            <AltitudeMeters>1029.0</AltitudeMeters>
            <DistanceMeters>31745.189235162</DistanceMeters>
          </Trackpoint>
          <Trackpoint>
            <Position>
              <LatitudeDegrees>50.213022</LatitudeDegrees>
              <LongitudeDegrees>16.992837</LongitudeDegrees>
            </Position>
            <AltitudeMeters>1028.0</AltitudeMeters>
            <DistanceMeters>31756.34627795</DistanceMeters>
          </Trackpoint>
          <Trackpoint>
            <Position>
              <LatitudeDegrees>50.212868</LatitudeDegrees>
              <LongitudeDegrees>16.992772</LongitudeDegrees>
            </Position>
            <AltitudeMeters>1028.0</AltitudeMeters>
            <DistanceMeters>31774.101022065</DistanceMeters>
          </Trackpoint>
          <Trackpoint>
            <Position>
              <LatitudeDegrees>50.212778</LatitudeDegrees>
              <LongitudeDegrees>16.992698</LongitudeDegrees>
            </Position>
            <AltitudeMeters>1028.0</AltitudeMeters>
            <DistanceMeters>31785.419976283</DistanceMeters>
          </Trackpoint>
          <Trackpoint>
            <Position>
              <LatitudeDegrees>50.212673</LatitudeDegrees>
              <LongitudeDegrees>16.992667</LongitudeDegrees>
            </Position>
            <AltitudeMeters>1028.0</AltitudeMeters>
            <DistanceMeters>31797.313889751</DistanceMeters>
          </Trackpoint>
          <Trackpoint>
            <Position>
              <LatitudeDegrees>50.212593</LatitudeDegrees>
              <LongitudeDegrees>16.992563</LongitudeDegrees>
            </Position>
            <AltitudeMeters>1028.0</AltitudeMeters>
            <DistanceMeters>31808.896628879</DistanceMeters>
          </Trackpoint>
          <Trackpoint>
            <Position>
              <LatitudeDegrees>50.212488</LatitudeDegrees>
              <LongitudeDegrees>16.992512</LongitudeDegrees>
            </Position>
            <AltitudeMeters>1028.0</AltitudeMeters>
            <DistanceMeters>31821.134800634</DistanceMeters>
          </Trackpoint>
          <Trackpoint>
            <Position>
              <LatitudeDegrees>50.212377</LatitudeDegrees>
              <LongitudeDegrees>16.992397</LongitudeDegrees>
            </Position>
            <AltitudeMeters>1028.0</AltitudeMeters>
            <DistanceMeters>31835.958054329</DistanceMeters>
          </Trackpoint>
          <Trackpoint>
            <Position>
              <LatitudeDegrees>50.21228</LatitudeDegrees>
              <LongitudeDegrees>16.992255</LongitudeDegrees>
            </Position>
            <AltitudeMeters>1028.0</AltitudeMeters>
            <DistanceMeters>31850.751733138</DistanceMeters>
          </Trackpoint>
          <Trackpoint>
            <Position>
              <LatitudeDegrees>50.211942</LatitudeDegrees>
              <LongitudeDegrees>16.991908</LongitudeDegrees>
            </Position>
            <AltitudeMeters>1028.0</AltitudeMeters>
            <DistanceMeters>31895.764414266</DistanceMeters>
          </Trackpoint>
          <Trackpoint>
            <Position>
              <LatitudeDegrees>50.211927</LatitudeDegrees>
              <LongitudeDegrees>16.991762</LongitudeDegrees>
            </Position>
            <AltitudeMeters>1030.0</AltitudeMeters>
            <DistanceMeters>31906.29695855</DistanceMeters>
          </Trackpoint>
          <Trackpoint>
            <Position>
              <LatitudeDegrees>50.211792</LatitudeDegrees>
              <LongitudeDegrees>16.991735</LongitudeDegrees>
            </Position>
            <AltitudeMeters>1030.0</AltitudeMeters>
            <DistanceMeters>31921.44530178</DistanceMeters>
          </Trackpoint>
          <Trackpoint>
            <Position>
              <LatitudeDegrees>50.211673</LatitudeDegrees>
              <LongitudeDegrees>16.991712</LongitudeDegrees>
            </Position>
            <AltitudeMeters>1029.0</AltitudeMeters>
            <DistanceMeters>31934.7910587</DistanceMeters>
          </Trackpoint>
          <Trackpoint>
            <Position>
              <LatitudeDegrees>50.211563</LatitudeDegrees>
              <LongitudeDegrees>16.99169</LongitudeDegrees>
            </Position>
            <AltitudeMeters>1028.0</AltitudeMeters>
            <DistanceMeters>31947.133927884</DistanceMeters>
          </Trackpoint>
          <Trackpoint>
            <Position>
              <LatitudeDegrees>50.211463</LatitudeDegrees>
              <LongitudeDegrees>16.991682</LongitudeDegrees>
            </Position>
            <AltitudeMeters>1028.0</AltitudeMeters>
            <DistanceMeters>31958.279228758</DistanceMeters>
          </Trackpoint>
          <Trackpoint>
            <Position>
              <LatitudeDegrees>50.211362</LatitudeDegrees>
              <LongitudeDegrees>16.991703</LongitudeDegrees>
            </Position>
            <AltitudeMeters>1030.0</AltitudeMeters>
            <DistanceMeters>31969.619702677</DistanceMeters>
          </Trackpoint>
          <Trackpoint>
            <Position>
              <LatitudeDegrees>50.21131</LatitudeDegrees>
              <LongitudeDegrees>16.991583</LongitudeDegrees>
            </Position>
            <AltitudeMeters>1029.0</AltitudeMeters>
            <DistanceMeters>31979.942246067</DistanceMeters>
          </Trackpoint>
          <Trackpoint>
            <Position>
              <LatitudeDegrees>50.211277</LatitudeDegrees>
              <LongitudeDegrees>16.991418</LongitudeDegrees>
            </Position>
            <AltitudeMeters>1029.0</AltitudeMeters>
            <DistanceMeters>31992.255449691</DistanceMeters>
          </Trackpoint>
          <Trackpoint>
            <Position>
              <LatitudeDegrees>50.21118</LatitudeDegrees>
              <LongitudeDegrees>16.991428</LongitudeDegrees>
            </Position>
            <AltitudeMeters>1027.0</AltitudeMeters>
            <DistanceMeters>32003.075149827</DistanceMeters>
          </Trackpoint>
          <Trackpoint>
            <Position>
              <LatitudeDegrees>50.211123</LatitudeDegrees>
              <LongitudeDegrees>16.991312</LongitudeDegrees>
            </Position>
            <AltitudeMeters>1026.0</AltitudeMeters>
            <DistanceMeters>32013.492609148</DistanceMeters>
          </Trackpoint>
          <Trackpoint>
            <Position>
              <LatitudeDegrees>50.211037</LatitudeDegrees>
              <LongitudeDegrees>16.991197</LongitudeDegrees>
            </Position>
            <AltitudeMeters>1026.0</AltitudeMeters>
            <DistanceMeters>32026.090728991</DistanceMeters>
          </Trackpoint>
          <Trackpoint>
            <Position>
              <LatitudeDegrees>50.211003</LatitudeDegrees>
              <LongitudeDegrees>16.991035</LongitudeDegrees>
            </Position>
            <AltitudeMeters>1026.0</AltitudeMeters>
            <DistanceMeters>32038.234830789</DistanceMeters>
          </Trackpoint>
          <Trackpoint>
            <Position>
              <LatitudeDegrees>50.21093</LatitudeDegrees>
              <LongitudeDegrees>16.990948</LongitudeDegrees>
            </Position>
            <AltitudeMeters>1025.0</AltitudeMeters>
            <DistanceMeters>32048.453627391</DistanceMeters>
          </Trackpoint>
          <Trackpoint>
            <Position>
              <LatitudeDegrees>50.210872</LatitudeDegrees>
              <LongitudeDegrees>16.99084</LongitudeDegrees>
            </Position>
            <AltitudeMeters>1025.0</AltitudeMeters>
            <DistanceMeters>32058.495932591</DistanceMeters>
          </Trackpoint>
          <Trackpoint>
            <Position>
              <LatitudeDegrees>50.210895</LatitudeDegrees>
              <LongitudeDegrees>16.990662</LongitudeDegrees>
            </Position>
            <AltitudeMeters>1026.0</AltitudeMeters>
            <DistanceMeters>32071.430740527</DistanceMeters>
          </Trackpoint>
          <Trackpoint>
            <Position>
              <LatitudeDegrees>50.210798</LatitudeDegrees>
              <LongitudeDegrees>16.990637</LongitudeDegrees>
            </Position>
            <AltitudeMeters>1024.0</AltitudeMeters>
            <DistanceMeters>32082.373263712</DistanceMeters>
          </Trackpoint>
          <Trackpoint>
            <Position>
              <LatitudeDegrees>50.21072</LatitudeDegrees>
              <LongitudeDegrees>16.990555</LongitudeDegrees>
            </Position>
            <AltitudeMeters>1022.0</AltitudeMeters>
            <DistanceMeters>32092.836563708</DistanceMeters>
          </Trackpoint>
          <Trackpoint>
            <Position>
              <LatitudeDegrees>50.21063</LatitudeDegrees>
              <LongitudeDegrees>16.990458</LongitudeDegrees>
            </Position>
            <AltitudeMeters>1022.0</AltitudeMeters>
            <DistanceMeters>32105.005178811</DistanceMeters>
          </Trackpoint>
          <Trackpoint>
            <Position>
              <LatitudeDegrees>50.210575</LatitudeDegrees>
              <LongitudeDegrees>16.990333</LongitudeDegrees>
            </Position>
            <AltitudeMeters>1022.0</AltitudeMeters>
            <DistanceMeters>32115.810263648</DistanceMeters>
          </Trackpoint>
          <Trackpoint>
            <Position>
              <LatitudeDegrees>50.210593</LatitudeDegrees>
              <LongitudeDegrees>16.990178</LongitudeDegrees>
            </Position>
            <AltitudeMeters>1022.0</AltitudeMeters>
            <DistanceMeters>32127.030661403</DistanceMeters>
          </Trackpoint>
          <Trackpoint>
            <Position>
              <LatitudeDegrees>50.210547</LatitudeDegrees>
              <LongitudeDegrees>16.990037</LongitudeDegrees>
            </Position>
            <AltitudeMeters>1022.0</AltitudeMeters>
            <DistanceMeters>32138.303649729</DistanceMeters>
          </Trackpoint>
          <Trackpoint>
            <Position>
              <LatitudeDegrees>50.210503</LatitudeDegrees>
              <LongitudeDegrees>16.9899</LongitudeDegrees>
            </Position>
            <AltitudeMeters>1018.0</AltitudeMeters>
            <DistanceMeters>32149.222215075</DistanceMeters>
          </Trackpoint>
          <Trackpoint>
            <Position>
              <LatitudeDegrees>50.210453</LatitudeDegrees>
              <LongitudeDegrees>16.989767</LongitudeDegrees>
            </Position>
            <AltitudeMeters>1018.0</AltitudeMeters>
            <DistanceMeters>32160.209621138</DistanceMeters>
          </Trackpoint>
          <Trackpoint>
            <Position>
              <LatitudeDegrees>50.21037</LatitudeDegrees>
              <LongitudeDegrees>16.989647</LongitudeDegrees>
            </Position>
            <AltitudeMeters>1017.0</AltitudeMeters>
            <DistanceMeters>32172.795549827</DistanceMeters>
          </Trackpoint>
          <Trackpoint>
            <Position>
              <LatitudeDegrees>50.210288</LatitudeDegrees>
              <LongitudeDegrees>16.98957</LongitudeDegrees>
            </Position>
            <AltitudeMeters>1016.0</AltitudeMeters>
            <DistanceMeters>32183.443631337</DistanceMeters>
          </Trackpoint>
          <Trackpoint>
            <Position>
              <LatitudeDegrees>50.210228</LatitudeDegrees>
              <LongitudeDegrees>16.98944</LongitudeDegrees>
            </Position>
            <AltitudeMeters>1014.0</AltitudeMeters>
            <DistanceMeters>32194.860291242</DistanceMeters>
          </Trackpoint>
          <Trackpoint>
            <Position>
              <LatitudeDegrees>50.210232</LatitudeDegrees>
              <LongitudeDegrees>16.989295</LongitudeDegrees>
            </Position>
            <AltitudeMeters>1014.0</AltitudeMeters>
            <DistanceMeters>32205.198132153</DistanceMeters>
          </Trackpoint>
          <Trackpoint>
            <Position>
              <LatitudeDegrees>50.210213</LatitudeDegrees>
              <LongitudeDegrees>16.98915</LongitudeDegrees>
            </Position>
            <AltitudeMeters>1013.0</AltitudeMeters>
            <DistanceMeters>32215.740531353</DistanceMeters>
          </Trackpoint>
          <Trackpoint>
            <Position>
              <LatitudeDegrees>50.210185</LatitudeDegrees>
              <LongitudeDegrees>16.989307</LongitudeDegrees>
            </Position>
            <AltitudeMeters>1012.0</AltitudeMeters>
            <DistanceMeters>32227.349358203</DistanceMeters>
          </Trackpoint>
          <Trackpoint>
            <Position>
              <LatitudeDegrees>50.210205</LatitudeDegrees>
              <LongitudeDegrees>16.989148</LongitudeDegrees>
            </Position>
            <AltitudeMeters>1011.0</AltitudeMeters>
            <DistanceMeters>32238.891877333</DistanceMeters>
          </Trackpoint>
          <Trackpoint>
            <Position>
              <LatitudeDegrees>50.210165</LatitudeDegrees>
              <LongitudeDegrees>16.989002</LongitudeDegrees>
            </Position>
            <AltitudeMeters>1011.0</AltitudeMeters>
            <DistanceMeters>32250.204447481</DistanceMeters>
          </Trackpoint>
          <Trackpoint>
            <Position>
              <LatitudeDegrees>50.21014</LatitudeDegrees>
              <LongitudeDegrees>16.988827</LongitudeDegrees>
            </Position>
            <AltitudeMeters>1013.0</AltitudeMeters>
            <DistanceMeters>32262.976264145</DistanceMeters>
          </Trackpoint>
          <Trackpoint>
            <Position>
              <LatitudeDegrees>50.210123</LatitudeDegrees>
              <LongitudeDegrees>16.98868</LongitudeDegrees>
            </Position>
            <AltitudeMeters>1016.0</AltitudeMeters>
            <DistanceMeters>32273.616710491</DistanceMeters>
          </Trackpoint>
          <Trackpoint>
            <Position>
              <LatitudeDegrees>50.210137</LatitudeDegrees>
              <LongitudeDegrees>16.988533</LongitudeDegrees>
            </Position>
            <AltitudeMeters>1015.0</AltitudeMeters>
            <DistanceMeters>32284.202703532</DistanceMeters>
          </Trackpoint>
          <Trackpoint>
            <Position>
              <LatitudeDegrees>50.210063</LatitudeDegrees>
              <LongitudeDegrees>16.988095</LongitudeDegrees>
            </Position>
            <AltitudeMeters>1015.0</AltitudeMeters>
            <DistanceMeters>32316.470395335</DistanceMeters>
          </Trackpoint>
          <Trackpoint>
            <Position>
              <LatitudeDegrees>50.210298</LatitudeDegrees>
              <LongitudeDegrees>16.987667</LongitudeDegrees>
            </Position>
            <AltitudeMeters>1014.0</AltitudeMeters>
            <DistanceMeters>32356.639616135</DistanceMeters>
          </Trackpoint>
          <Trackpoint>
            <Position>
              <LatitudeDegrees>50.210243</LatitudeDegrees>
              <LongitudeDegrees>16.987535</LongitudeDegrees>
            </Position>
            <AltitudeMeters>1013.0</AltitudeMeters>
            <DistanceMeters>32367.85920907</DistanceMeters>
          </Trackpoint>
          <Trackpoint>
            <Position>
              <LatitudeDegrees>50.210243</LatitudeDegrees>
              <LongitudeDegrees>16.987375</LongitudeDegrees>
            </Position>
            <AltitudeMeters>1012.0</AltitudeMeters>
            <DistanceMeters>32379.256077919</DistanceMeters>
          </Trackpoint>
          <Trackpoint>
            <Position>
              <LatitudeDegrees>50.210203</LatitudeDegrees>
              <LongitudeDegrees>16.987203</LongitudeDegrees>
            </Position>
            <AltitudeMeters>1010.0</AltitudeMeters>
            <DistanceMeters>32392.291720539</DistanceMeters>
          </Trackpoint>
          <Trackpoint>
            <Position>
              <LatitudeDegrees>50.210145</LatitudeDegrees>
              <LongitudeDegrees>16.987017</LongitudeDegrees>
            </Position>
            <AltitudeMeters>1011.0</AltitudeMeters>
            <DistanceMeters>32407.029441826</DistanceMeters>
          </Trackpoint>
          <Trackpoint>
            <Position>
              <LatitudeDegrees>50.210192</LatitudeDegrees>
              <LongitudeDegrees>16.986895</LongitudeDegrees>
            </Position>
            <AltitudeMeters>1010.0</AltitudeMeters>
            <DistanceMeters>32417.172848108</DistanceMeters>
          </Trackpoint>
          <Trackpoint>
            <Position>
              <LatitudeDegrees>50.210228</LatitudeDegrees>
              <LongitudeDegrees>16.986745</LongitudeDegrees>
            </Position>
            <AltitudeMeters>1010.0</AltitudeMeters>
            <DistanceMeters>32428.583969977</DistanceMeters>
          </Trackpoint>
          <Trackpoint>
            <Position>
              <LatitudeDegrees>50.210263</LatitudeDegrees>
              <LongitudeDegrees>16.986605</LongitudeDegrees>
            </Position>
            <AltitudeMeters>1011.0</AltitudeMeters>
            <DistanceMeters>32439.290406844</DistanceMeters>
          </Trackpoint>
          <Trackpoint>
            <Position>
              <LatitudeDegrees>50.210522</LatitudeDegrees>
              <LongitudeDegrees>16.985972</LongitudeDegrees>
            </Position>
            <AltitudeMeters>1010.0</AltitudeMeters>
            <DistanceMeters>32492.806732438</DistanceMeters>
          </Trackpoint>
          <Trackpoint>
            <Position>
              <LatitudeDegrees>50.210623</LatitudeDegrees>
              <LongitudeDegrees>16.985842</LongitudeDegrees>
            </Position>
            <AltitudeMeters>1010.0</AltitudeMeters>
            <DistanceMeters>32507.370952145</DistanceMeters>
          </Trackpoint>
          <Trackpoint>
            <Position>
              <LatitudeDegrees>50.210375</LatitudeDegrees>
              <LongitudeDegrees>16.985542</LongitudeDegrees>
            </Position>
            <AltitudeMeters>1010.0</AltitudeMeters>
            <DistanceMeters>32542.278754076</DistanceMeters>
          </Trackpoint>
          <Trackpoint>
            <Position>
              <LatitudeDegrees>50.210267</LatitudeDegrees>
              <LongitudeDegrees>16.985485</LongitudeDegrees>
            </Position>
            <AltitudeMeters>1010.0</AltitudeMeters>
            <DistanceMeters>32554.966155019</DistanceMeters>
          </Trackpoint>
          <Trackpoint>
            <Position>
              <LatitudeDegrees>50.210238</LatitudeDegrees>
              <LongitudeDegrees>16.98535</LongitudeDegrees>
            </Position>
            <AltitudeMeters>1009.0</AltitudeMeters>
            <DistanceMeters>32565.109561301</DistanceMeters>
          </Trackpoint>
          <Trackpoint>
            <Position>
              <LatitudeDegrees>50.210255</LatitudeDegrees>
              <LongitudeDegrees>16.985203</LongitudeDegrees>
            </Position>
            <AltitudeMeters>1008.0</AltitudeMeters>
            <DistanceMeters>32575.750007648</DistanceMeters>
          </Trackpoint>
          <Trackpoint>
            <Position>
              <LatitudeDegrees>50.210205</LatitudeDegrees>
              <LongitudeDegrees>16.985083</LongitudeDegrees>
            </Position>
            <AltitudeMeters>1009.0</AltitudeMeters>
            <DistanceMeters>32585.949344912</DistanceMeters>
          </Trackpoint>
          <Trackpoint>
            <Position>
              <LatitudeDegrees>50.210188</LatitudeDegrees>
              <LongitudeDegrees>16.98493</LongitudeDegrees>
            </Position>
            <AltitudeMeters>1009.0</AltitudeMeters>
            <DistanceMeters>32597.010878975</DistanceMeters>
          </Trackpoint>
          <Trackpoint>
            <Position>
              <LatitudeDegrees>50.210187</LatitudeDegrees>
              <LongitudeDegrees>16.984787</LongitudeDegrees>
            </Position>
            <AltitudeMeters>1010.0</AltitudeMeters>
            <DistanceMeters>32607.19781367</DistanceMeters>
          </Trackpoint>
          <Trackpoint>
            <Position>
              <LatitudeDegrees>50.21016</LatitudeDegrees>
              <LongitudeDegrees>16.984637</LongitudeDegrees>
            </Position>
            <AltitudeMeters>1010.0</AltitudeMeters>
            <DistanceMeters>32618.296836278</DistanceMeters>
          </Trackpoint>
          <Trackpoint>
            <Position>
              <LatitudeDegrees>50.210157</LatitudeDegrees>
              <LongitudeDegrees>16.984493</LongitudeDegrees>
            </Position>
            <AltitudeMeters>1009.0</AltitudeMeters>
            <DistanceMeters>32628.55972143</DistanceMeters>
          </Trackpoint>
          <Trackpoint>
            <Position>
              <LatitudeDegrees>50.210182</LatitudeDegrees>
              <LongitudeDegrees>16.984323</LongitudeDegrees>
            </Position>
            <AltitudeMeters>1008.0</AltitudeMeters>
            <DistanceMeters>32640.984259925</DistanceMeters>
          </Trackpoint>
          <Trackpoint>
            <Position>
              <LatitudeDegrees>50.210123</LatitudeDegrees>
              <LongitudeDegrees>16.984212</LongitudeDegrees>
            </Position>
            <AltitudeMeters>1008.0</AltitudeMeters>
            <DistanceMeters>32651.262092101</DistanceMeters>
          </Trackpoint>
          <Trackpoint>
            <Position>
              <LatitudeDegrees>50.210095</LatitudeDegrees>
              <LongitudeDegrees>16.984055</LongitudeDegrees>
            </Position>
            <AltitudeMeters>1008.0</AltitudeMeters>
            <DistanceMeters>32662.871307877</DistanceMeters>
          </Trackpoint>
          <Trackpoint>
            <Position>
              <LatitudeDegrees>50.210045</LatitudeDegrees>
              <LongitudeDegrees>16.983892</LongitudeDegrees>
            </Position>
            <AltitudeMeters>1008.0</AltitudeMeters>
            <DistanceMeters>32675.746638683</DistanceMeters>
          </Trackpoint>
          <Trackpoint>
            <Position>
              <LatitudeDegrees>50.210037</LatitudeDegrees>
              <LongitudeDegrees>16.983658</LongitudeDegrees>
            </Position>
            <AltitudeMeters>1008.0</AltitudeMeters>
            <DistanceMeters>32692.438372523</DistanceMeters>
          </Trackpoint>
          <Trackpoint>
            <Position>
              <LatitudeDegrees>50.21007</LatitudeDegrees>
              <LongitudeDegrees>16.983497</LongitudeDegrees>
            </Position>
            <AltitudeMeters>1006.0</AltitudeMeters>
            <DistanceMeters>32704.480173366</DistanceMeters>
          </Trackpoint>
          <Trackpoint>
            <Position>
              <LatitudeDegrees>50.210077</LatitudeDegrees>
              <LongitudeDegrees>16.98335</LongitudeDegrees>
            </Position>
            <AltitudeMeters>1002.0</AltitudeMeters>
            <DistanceMeters>32714.979657793</DistanceMeters>
          </Trackpoint>
          <Trackpoint>
            <Position>
              <LatitudeDegrees>50.210077</LatitudeDegrees>
              <LongitudeDegrees>16.983197</LongitudeDegrees>
            </Position>
            <AltitudeMeters>996.0</AltitudeMeters>
            <DistanceMeters>32725.877941853</DistanceMeters>
          </Trackpoint>
          <Trackpoint>
            <Position>
              <LatitudeDegrees>50.210095</LatitudeDegrees>
              <LongitudeDegrees>16.983048</LongitudeDegrees>
            </Position>
            <AltitudeMeters>988.0</AltitudeMeters>
            <DistanceMeters>32736.678429227</DistanceMeters>
          </Trackpoint>
          <Trackpoint>
            <Position>
              <LatitudeDegrees>50.210095</LatitudeDegrees>
              <LongitudeDegrees>16.982907</LongitudeDegrees>
            </Position>
            <AltitudeMeters>988.0</AltitudeMeters>
            <DistanceMeters>32746.72163359</DistanceMeters>
          </Trackpoint>
          <Trackpoint>
            <Position>
              <LatitudeDegrees>50.210012</LatitudeDegrees>
              <LongitudeDegrees>16.982825</LongitudeDegrees>
            </Position>
            <AltitudeMeters>984.0</AltitudeMeters>
            <DistanceMeters>32757.650945151</DistanceMeters>
          </Trackpoint>
          <Trackpoint>
            <Position>
              <LatitudeDegrees>50.210035</LatitudeDegrees>
              <LongitudeDegrees>16.982658</LongitudeDegrees>
            </Position>
            <AltitudeMeters>984.0</AltitudeMeters>
            <DistanceMeters>32769.818818152</DistanceMeters>
          </Trackpoint>
          <Trackpoint>
            <Position>
              <LatitudeDegrees>50.210038</LatitudeDegrees>
              <LongitudeDegrees>16.982512</LongitudeDegrees>
            </Position>
            <AltitudeMeters>983.0</AltitudeMeters>
            <DistanceMeters>32780.224134897</DistanceMeters>
          </Trackpoint>
          <Trackpoint>
            <Position>
              <LatitudeDegrees>50.20999</LatitudeDegrees>
              <LongitudeDegrees>16.982392</LongitudeDegrees>
            </Position>
            <AltitudeMeters>982.0</AltitudeMeters>
            <DistanceMeters>32790.303687966</DistanceMeters>
          </Trackpoint>
          <Trackpoint>
            <Position>
              <LatitudeDegrees>50.209908</LatitudeDegrees>
              <LongitudeDegrees>16.982337</LongitudeDegrees>
            </Position>
            <AltitudeMeters>982.0</AltitudeMeters>
            <DistanceMeters>32800.235684496</DistanceMeters>
          </Trackpoint>
          <Trackpoint>
            <Position>
              <LatitudeDegrees>50.20986</LatitudeDegrees>
              <LongitudeDegrees>16.98212</LongitudeDegrees>
            </Position>
            <AltitudeMeters>983.0</AltitudeMeters>
            <DistanceMeters>32816.589668846</DistanceMeters>
          </Trackpoint>
          <Trackpoint>
            <Position>
              <LatitudeDegrees>50.20996</LatitudeDegrees>
              <LongitudeDegrees>16.982142</LongitudeDegrees>
            </Position>
            <AltitudeMeters>982.0</AltitudeMeters>
            <DistanceMeters>32827.829364992</DistanceMeters>
          </Trackpoint>
          <Trackpoint>
            <Position>
              <LatitudeDegrees>50.210053</LatitudeDegrees>
              <LongitudeDegrees>16.982152</LongitudeDegrees>
            </Position>
            <AltitudeMeters>972.0</AltitudeMeters>
            <DistanceMeters>32838.204698302</DistanceMeters>
          </Trackpoint>
          <Trackpoint>
            <Position>
              <LatitudeDegrees>50.209992</LatitudeDegrees>
              <LongitudeDegrees>16.98204</LongitudeDegrees>
            </Position>
            <AltitudeMeters>970.0</AltitudeMeters>
            <DistanceMeters>32848.680073662</DistanceMeters>
          </Trackpoint>
          <Trackpoint>
            <Position>
              <LatitudeDegrees>50.210018</LatitudeDegrees>
              <LongitudeDegrees>16.981897</LongitudeDegrees>
            </Position>
            <AltitudeMeters>969.0</AltitudeMeters>
            <DistanceMeters>32859.269051857</DistanceMeters>
          </Trackpoint>
          <Trackpoint>
            <Position>
              <LatitudeDegrees>50.209988</LatitudeDegrees>
              <LongitudeDegrees>16.981763</LongitudeDegrees>
            </Position>
            <AltitudeMeters>958.0</AltitudeMeters>
            <DistanceMeters>32869.380358672</DistanceMeters>
          </Trackpoint>
          <Trackpoint>
            <Position>
              <LatitudeDegrees>50.209873</LatitudeDegrees>
              <LongitudeDegrees>16.981717</LongitudeDegrees>
            </Position>
            <AltitudeMeters>957.0</AltitudeMeters>
            <DistanceMeters>32882.592831484</DistanceMeters>
          </Trackpoint>
          <Trackpoint>
            <Position>
              <LatitudeDegrees>50.209782</LatitudeDegrees>
              <LongitudeDegrees>16.981727</LongitudeDegrees>
            </Position>
            <AltitudeMeters>957.0</AltitudeMeters>
            <DistanceMeters>32892.746025695</DistanceMeters>
          </Trackpoint>
          <Trackpoint>
            <Position>
              <LatitudeDegrees>50.20977</LatitudeDegrees>
              <LongitudeDegrees>16.981698</LongitudeDegrees>
            </Position>
            <AltitudeMeters>956.0</AltitudeMeters>
            <DistanceMeters>32895.205731209</DistanceMeters>
          </Trackpoint>
          <Trackpoint>
            <Position>
              <LatitudeDegrees>50.209677</LatitudeDegrees>
              <LongitudeDegrees>16.981675</LongitudeDegrees>
            </Position>
            <AltitudeMeters>956.0</AltitudeMeters>
            <DistanceMeters>32905.685415828</DistanceMeters>
          </Trackpoint>
          <Trackpoint>
            <Position>
              <LatitudeDegrees>50.209602</LatitudeDegrees>
              <LongitudeDegrees>16.981575</LongitudeDegrees>
            </Position>
            <AltitudeMeters>956.0</AltitudeMeters>
            <DistanceMeters>32916.659252871</DistanceMeters>
          </Trackpoint>
          <Trackpoint>
            <Position>
              <LatitudeDegrees>50.209558</LatitudeDegrees>
              <LongitudeDegrees>16.981423</LongitudeDegrees>
            </Position>
            <AltitudeMeters>955.0</AltitudeMeters>
            <DistanceMeters>32928.542532529</DistanceMeters>
          </Trackpoint>
          <Trackpoint>
            <Position>
              <LatitudeDegrees>50.209555</LatitudeDegrees>
              <LongitudeDegrees>16.981273</LongitudeDegrees>
            </Position>
            <AltitudeMeters>955.0</AltitudeMeters>
            <DistanceMeters>32939.232087587</DistanceMeters>
          </Trackpoint>
          <Trackpoint>
            <Position>
              <LatitudeDegrees>50.209508</LatitudeDegrees>
              <LongitudeDegrees>16.981127</LongitudeDegrees>
            </Position>
            <AltitudeMeters>955.0</AltitudeMeters>
            <DistanceMeters>32950.87353884</DistanceMeters>
          </Trackpoint>
          <Trackpoint>
            <Position>
              <LatitudeDegrees>50.209525</LatitudeDegrees>
              <LongitudeDegrees>16.980978</LongitudeDegrees>
            </Position>
            <AltitudeMeters>953.0</AltitudeMeters>
            <DistanceMeters>32961.653941607</DistanceMeters>
          </Trackpoint>
          <Trackpoint>
            <Position>
              <LatitudeDegrees>50.209523</LatitudeDegrees>
              <LongitudeDegrees>16.980822</LongitudeDegrees>
            </Position>
            <AltitudeMeters>952.0</AltitudeMeters>
            <DistanceMeters>32972.768005476</DistanceMeters>
          </Trackpoint>
          <Trackpoint>
            <Position>
              <LatitudeDegrees>50.209427</LatitudeDegrees>
              <LongitudeDegrees>16.980848</LongitudeDegrees>
            </Position>
            <AltitudeMeters>953.0</AltitudeMeters>
            <DistanceMeters>32983.611881879</DistanceMeters>
          </Trackpoint>
          <Trackpoint>
            <Position>
              <LatitudeDegrees>50.20943</LatitudeDegrees>
              <LongitudeDegrees>16.980698</LongitudeDegrees>
            </Position>
            <AltitudeMeters>951.0</AltitudeMeters>
            <DistanceMeters>32994.301436937</DistanceMeters>
          </Trackpoint>
          <Trackpoint>
            <Position>
              <LatitudeDegrees>50.209383</LatitudeDegrees>
              <LongitudeDegrees>16.980572</LongitudeDegrees>
            </Position>
            <AltitudeMeters>951.0</AltitudeMeters>
            <DistanceMeters>33004.690251771</DistanceMeters>
          </Trackpoint>
          <Trackpoint>
            <Position>
              <LatitudeDegrees>50.209317</LatitudeDegrees>
              <LongitudeDegrees>16.980443</LongitudeDegrees>
            </Position>
            <AltitudeMeters>949.0</AltitudeMeters>
            <DistanceMeters>33016.45439014</DistanceMeters>
          </Trackpoint>
          <Trackpoint>
            <Position>
              <LatitudeDegrees>50.209268</LatitudeDegrees>
              <LongitudeDegrees>16.980305</LongitudeDegrees>
            </Position>
            <AltitudeMeters>949.0</AltitudeMeters>
            <DistanceMeters>33027.69569299</DistanceMeters>
          </Trackpoint>
          <Trackpoint>
            <Position>
              <LatitudeDegrees>50.209162</LatitudeDegrees>
              <LongitudeDegrees>16.97982</LongitudeDegrees>
            </Position>
            <AltitudeMeters>949.0</AltitudeMeters>
            <DistanceMeters>33064.202033016</DistanceMeters>
          </Trackpoint>
          <Trackpoint>
            <Position>
              <LatitudeDegrees>50.20908</LatitudeDegrees>
              <LongitudeDegrees>16.979727</LongitudeDegrees>
            </Position>
            <AltitudeMeters>950.0</AltitudeMeters>
            <DistanceMeters>33075.479025813</DistanceMeters>
          </Trackpoint>
          <Trackpoint>
            <Position>
              <LatitudeDegrees>50.209115</LatitudeDegrees>
              <LongitudeDegrees>16.979595</LongitudeDegrees>
            </Position>
            <AltitudeMeters>951.0</AltitudeMeters>
            <DistanceMeters>33085.65620503</DistanceMeters>
          </Trackpoint>
          <Trackpoint>
            <Position>
              <LatitudeDegrees>50.209162</LatitudeDegrees>
              <LongitudeDegrees>16.979473</LongitudeDegrees>
            </Position>
            <AltitudeMeters>946.0</AltitudeMeters>
            <DistanceMeters>33095.799166182</DistanceMeters>
          </Trackpoint>
          <Trackpoint>
            <Position>
              <LatitudeDegrees>50.209128</LatitudeDegrees>
              <LongitudeDegrees>16.9793</LongitudeDegrees>
            </Position>
            <AltitudeMeters>943.0</AltitudeMeters>
            <DistanceMeters>33108.69026764</DistanceMeters>
          </Trackpoint>
          <Trackpoint>
            <Position>
              <LatitudeDegrees>50.208997</LatitudeDegrees>
              <LongitudeDegrees>16.979032</LongitudeDegrees>
            </Position>
            <AltitudeMeters>943.0</AltitudeMeters>
            <DistanceMeters>33132.711735431</DistanceMeters>
          </Trackpoint>
          <Trackpoint>
            <Position>
              <LatitudeDegrees>50.209002</LatitudeDegrees>
              <LongitudeDegrees>16.978827</LongitudeDegrees>
            </Position>
            <AltitudeMeters>943.0</AltitudeMeters>
            <DistanceMeters>33147.325163428</DistanceMeters>
          </Trackpoint>
          <Trackpoint>
            <Position>
              <LatitudeDegrees>50.208912</LatitudeDegrees>
              <LongitudeDegrees>16.978642</LongitudeDegrees>
            </Position>
            <AltitudeMeters>944.0</AltitudeMeters>
            <DistanceMeters>33163.878369752</DistanceMeters>
          </Trackpoint>
          <Trackpoint>
            <Position>
              <LatitudeDegrees>50.208803</LatitudeDegrees>
              <LongitudeDegrees>16.978688</LongitudeDegrees>
            </Position>
            <AltitudeMeters>942.0</AltitudeMeters>
            <DistanceMeters>33176.444911713</DistanceMeters>
          </Trackpoint>
          <Trackpoint>
            <Position>
              <LatitudeDegrees>50.208718</LatitudeDegrees>
              <LongitudeDegrees>16.978612</LongitudeDegrees>
            </Position>
            <AltitudeMeters>939.0</AltitudeMeters>
            <DistanceMeters>33187.345267022</DistanceMeters>
          </Trackpoint>
          <Trackpoint>
            <Position>
              <LatitudeDegrees>50.208655</LatitudeDegrees>
              <LongitudeDegrees>16.978505</LongitudeDegrees>
            </Position>
            <AltitudeMeters>933.0</AltitudeMeters>
            <DistanceMeters>33197.701871098</DistanceMeters>
          </Trackpoint>
          <Trackpoint>
            <Position>
              <LatitudeDegrees>50.208592</LatitudeDegrees>
              <LongitudeDegrees>16.978398</LongitudeDegrees>
            </Position>
            <AltitudeMeters>929.0</AltitudeMeters>
            <DistanceMeters>33208.058911123</DistanceMeters>
          </Trackpoint>
          <Trackpoint>
            <Position>
              <LatitudeDegrees>50.208505</LatitudeDegrees>
              <LongitudeDegrees>16.978318</LongitudeDegrees>
            </Position>
            <AltitudeMeters>926.0</AltitudeMeters>
            <DistanceMeters>33219.294589504</DistanceMeters>
          </Trackpoint>
          <Trackpoint>
            <Position>
              <LatitudeDegrees>50.208433</LatitudeDegrees>
              <LongitudeDegrees>16.978215</LongitudeDegrees>
            </Position>
            <AltitudeMeters>927.0</AltitudeMeters>
            <DistanceMeters>33230.15926434</DistanceMeters>
          </Trackpoint>
          <Trackpoint>
            <Position>
              <LatitudeDegrees>50.208383</LatitudeDegrees>
              <LongitudeDegrees>16.97807</LongitudeDegrees>
            </Position>
            <AltitudeMeters>927.0</AltitudeMeters>
            <DistanceMeters>33241.891889166</DistanceMeters>
          </Trackpoint>
          <Trackpoint>
            <Position>
              <LatitudeDegrees>50.208318</LatitudeDegrees>
              <LongitudeDegrees>16.977953</LongitudeDegrees>
            </Position>
            <AltitudeMeters>927.0</AltitudeMeters>
            <DistanceMeters>33252.928087382</DistanceMeters>
          </Trackpoint>
          <Trackpoint>
            <Position>
              <LatitudeDegrees>50.208255</LatitudeDegrees>
              <LongitudeDegrees>16.977852</LongitudeDegrees>
            </Position>
            <AltitudeMeters>927.0</AltitudeMeters>
            <DistanceMeters>33262.974887594</DistanceMeters>
          </Trackpoint>
          <Trackpoint>
            <Position>
              <LatitudeDegrees>50.20824</LatitudeDegrees>
              <LongitudeDegrees>16.977712</LongitudeDegrees>
            </Position>
            <AltitudeMeters>926.0</AltitudeMeters>
            <DistanceMeters>33273.086194408</DistanceMeters>
          </Trackpoint>
          <Trackpoint>
            <Position>
              <LatitudeDegrees>50.208168</LatitudeDegrees>
              <LongitudeDegrees>16.977617</LongitudeDegrees>
            </Position>
            <AltitudeMeters>928.0</AltitudeMeters>
            <DistanceMeters>33283.574922707</DistanceMeters>
          </Trackpoint>
          <Trackpoint>
            <Position>
              <LatitudeDegrees>50.2081</LatitudeDegrees>
              <LongitudeDegrees>16.97751</LongitudeDegrees>
            </Position>
            <AltitudeMeters>926.0</AltitudeMeters>
            <DistanceMeters>33294.315884333</DistanceMeters>
          </Trackpoint>
          <Trackpoint>
            <Position>
              <LatitudeDegrees>50.208053</LatitudeDegrees>
              <LongitudeDegrees>16.977382</LongitudeDegrees>
            </Position>
            <AltitudeMeters>923.0</AltitudeMeters>
            <DistanceMeters>33304.828261586</DistanceMeters>
          </Trackpoint>
          <Trackpoint>
            <Position>
              <LatitudeDegrees>50.207993</LatitudeDegrees>
              <LongitudeDegrees>16.977257</LongitudeDegrees>
            </Position>
            <AltitudeMeters>924.0</AltitudeMeters>
            <DistanceMeters>33315.958563412</DistanceMeters>
          </Trackpoint>
          <Trackpoint>
            <Position>
              <LatitudeDegrees>50.207943</LatitudeDegrees>
              <LongitudeDegrees>16.977135</LongitudeDegrees>
            </Position>
            <AltitudeMeters>926.0</AltitudeMeters>
            <DistanceMeters>33326.278482093</DistanceMeters>
          </Trackpoint>
          <Trackpoint>
            <Position>
              <LatitudeDegrees>50.207895</LatitudeDegrees>
              <LongitudeDegrees>16.976995</LongitudeDegrees>
            </Position>
            <AltitudeMeters>924.0</AltitudeMeters>
            <DistanceMeters>33337.592249529</DistanceMeters>
          </Trackpoint>
          <Trackpoint>
            <Position>
              <LatitudeDegrees>50.207843</LatitudeDegrees>
              <LongitudeDegrees>16.976867</LongitudeDegrees>
            </Position>
            <AltitudeMeters>925.0</AltitudeMeters>
            <DistanceMeters>33348.391900789</DistanceMeters>
          </Trackpoint>
          <Trackpoint>
            <Position>
              <LatitudeDegrees>50.207825</LatitudeDegrees>
              <LongitudeDegrees>16.976692</LongitudeDegrees>
            </Position>
            <AltitudeMeters>925.0</AltitudeMeters>
            <DistanceMeters>33361.017944095</DistanceMeters>
          </Trackpoint>
          <Trackpoint>
            <Position>
              <LatitudeDegrees>50.207802</LatitudeDegrees>
              <LongitudeDegrees>16.976555</LongitudeDegrees>
            </Position>
            <AltitudeMeters>923.0</AltitudeMeters>
            <DistanceMeters>33371.107347038</DistanceMeters>
          </Trackpoint>
          <Trackpoint>
            <Position>
              <LatitudeDegrees>50.20771</LatitudeDegrees>
              <LongitudeDegrees>16.976507</LongitudeDegrees>
            </Position>
            <AltitudeMeters>926.0</AltitudeMeters>
            <DistanceMeters>33381.902816763</DistanceMeters>
          </Trackpoint>
          <Trackpoint>
            <Position>
              <LatitudeDegrees>50.20762</LatitudeDegrees>
              <LongitudeDegrees>16.976458</LongitudeDegrees>
            </Position>
            <AltitudeMeters>926.0</AltitudeMeters>
            <DistanceMeters>33392.510539543</DistanceMeters>
          </Trackpoint>
          <Trackpoint>
            <Position>
              <LatitudeDegrees>50.20675</LatitudeDegrees>
              <LongitudeDegrees>16.975245</LongitudeDegrees>
            </Position>
            <AltitudeMeters>926.0</AltitudeMeters>
            <DistanceMeters>33522.290663305</DistanceMeters>
          </Trackpoint>
          <Trackpoint>
            <Position>
              <LatitudeDegrees>50.206367</LatitudeDegrees>
              <LongitudeDegrees>16.97497</LongitudeDegrees>
            </Position>
            <AltitudeMeters>920.0</AltitudeMeters>
            <DistanceMeters>33569.205093305</DistanceMeters>
          </Trackpoint>
          <Trackpoint>
            <Position>
              <LatitudeDegrees>50.20631</LatitudeDegrees>
              <LongitudeDegrees>16.974813</LongitudeDegrees>
            </Position>
            <AltitudeMeters>927.0</AltitudeMeters>
            <DistanceMeters>33582.062878477</DistanceMeters>
          </Trackpoint>
          <Trackpoint>
            <Position>
              <LatitudeDegrees>50.206313</LatitudeDegrees>
              <LongitudeDegrees>16.974667</LongitudeDegrees>
            </Position>
            <AltitudeMeters>927.0</AltitudeMeters>
            <DistanceMeters>33592.468195222</DistanceMeters>
          </Trackpoint>
          <Trackpoint>
            <Position>
              <LatitudeDegrees>50.206262</LatitudeDegrees>
              <LongitudeDegrees>16.974537</LongitudeDegrees>
            </Position>
            <AltitudeMeters>924.0</AltitudeMeters>
            <DistanceMeters>33603.330376348</DistanceMeters>
          </Trackpoint>
          <Trackpoint>
            <Position>
              <LatitudeDegrees>50.206165</LatitudeDegrees>
              <LongitudeDegrees>16.974518</LongitudeDegrees>
            </Position>
            <AltitudeMeters>923.0</AltitudeMeters>
            <DistanceMeters>33614.211246362</DistanceMeters>
          </Trackpoint>
          <Trackpoint>
            <Position>
              <LatitudeDegrees>50.206145</LatitudeDegrees>
              <LongitudeDegrees>16.974372</LongitudeDegrees>
            </Position>
            <AltitudeMeters>922.0</AltitudeMeters>
            <DistanceMeters>33624.847448583</DistanceMeters>
          </Trackpoint>
          <Trackpoint>
            <Position>
              <LatitudeDegrees>50.206108</LatitudeDegrees>
              <LongitudeDegrees>16.974227</LongitudeDegrees>
            </Position>
            <AltitudeMeters>921.0</AltitudeMeters>
            <DistanceMeters>33635.967604464</DistanceMeters>
          </Trackpoint>
          <Trackpoint>
            <Position>
              <LatitudeDegrees>50.20608</LatitudeDegrees>
              <LongitudeDegrees>16.974063</LongitudeDegrees>
            </Position>
            <AltitudeMeters>920.0</AltitudeMeters>
            <DistanceMeters>33648.058797029</DistanceMeters>
          </Trackpoint>
          <Trackpoint>
            <Position>
              <LatitudeDegrees>50.206073</LatitudeDegrees>
              <LongitudeDegrees>16.973885</LongitudeDegrees>
            </Position>
            <AltitudeMeters>921.0</AltitudeMeters>
            <DistanceMeters>33660.762557346</DistanceMeters>
          </Trackpoint>
          <Trackpoint>
            <Position>
              <LatitudeDegrees>50.205972</LatitudeDegrees>
              <LongitudeDegrees>16.973753</LongitudeDegrees>
            </Position>
            <AltitudeMeters>921.0</AltitudeMeters>
            <DistanceMeters>33675.418560497</DistanceMeters>
          </Trackpoint>
          <Trackpoint>
            <Position>
              <LatitudeDegrees>50.205905</LatitudeDegrees>
              <LongitudeDegrees>16.973593</LongitudeDegrees>
            </Position>
            <AltitudeMeters>921.0</AltitudeMeters>
            <DistanceMeters>33689.039240383</DistanceMeters>
          </Trackpoint>
          <Trackpoint>
            <Position>
              <LatitudeDegrees>50.20583</LatitudeDegrees>
              <LongitudeDegrees>16.9735</LongitudeDegrees>
            </Position>
            <AltitudeMeters>922.0</AltitudeMeters>
            <DistanceMeters>33699.696222668</DistanceMeters>
          </Trackpoint>
          <Trackpoint>
            <Position>
              <LatitudeDegrees>50.205818</LatitudeDegrees>
              <LongitudeDegrees>16.973282</LongitudeDegrees>
            </Position>
            <AltitudeMeters>924.0</AltitudeMeters>
            <DistanceMeters>33715.283500712</DistanceMeters>
          </Trackpoint>
          <Trackpoint>
            <Position>
              <LatitudeDegrees>50.205765</LatitudeDegrees>
              <LongitudeDegrees>16.973052</LongitudeDegrees>
            </Position>
            <AltitudeMeters>922.0</AltitudeMeters>
            <DistanceMeters>33732.697518833</DistanceMeters>
          </Trackpoint>
          <Trackpoint>
            <Position>
              <LatitudeDegrees>50.205803</LatitudeDegrees>
              <LongitudeDegrees>16.972878</LongitudeDegrees>
            </Position>
            <AltitudeMeters>920.0</AltitudeMeters>
            <DistanceMeters>33745.794668605</DistanceMeters>
          </Trackpoint>
          <Trackpoint>
            <Position>
              <LatitudeDegrees>50.205875</LatitudeDegrees>
              <LongitudeDegrees>16.972752</LongitudeDegrees>
            </Position>
            <AltitudeMeters>917.0</AltitudeMeters>
            <DistanceMeters>33757.827467352</DistanceMeters>
          </Trackpoint>
          <Trackpoint>
            <Position>
              <LatitudeDegrees>50.205865</LatitudeDegrees>
              <LongitudeDegrees>16.972538</LongitudeDegrees>
            </Position>
            <AltitudeMeters>916.0</AltitudeMeters>
            <DistanceMeters>33773.112596329</DistanceMeters>
          </Trackpoint>
          <Trackpoint>
            <Position>
              <LatitudeDegrees>50.205743</LatitudeDegrees>
              <LongitudeDegrees>16.972368</LongitudeDegrees>
            </Position>
            <AltitudeMeters>920.0</AltitudeMeters>
            <DistanceMeters>33791.307172511</DistanceMeters>
          </Trackpoint>
          <Trackpoint>
            <Position>
              <LatitudeDegrees>50.205697</LatitudeDegrees>
              <LongitudeDegrees>16.972233</LongitudeDegrees>
            </Position>
            <AltitudeMeters>920.0</AltitudeMeters>
            <DistanceMeters>33802.202141756</DistanceMeters>
          </Trackpoint>
          <Trackpoint>
            <Position>
              <LatitudeDegrees>50.205688</LatitudeDegrees>
              <LongitudeDegrees>16.972083</LongitudeDegrees>
            </Position>
            <AltitudeMeters>919.0</AltitudeMeters>
            <DistanceMeters>33812.934272255</DistanceMeters>
          </Trackpoint>
          <Trackpoint>
            <Position>
              <LatitudeDegrees>50.205635</LatitudeDegrees>
              <LongitudeDegrees>16.97191</LongitudeDegrees>
            </Position>
            <AltitudeMeters>925.0</AltitudeMeters>
            <DistanceMeters>33826.596985757</DistanceMeters>
          </Trackpoint>
          <Trackpoint>
            <Position>
              <LatitudeDegrees>50.205602</LatitudeDegrees>
              <LongitudeDegrees>16.971765</LongitudeDegrees>
            </Position>
            <AltitudeMeters>936.0</AltitudeMeters>
            <DistanceMeters>33837.56012023</DistanceMeters>
          </Trackpoint>
          <Trackpoint>
            <Position>
              <LatitudeDegrees>50.20561</LatitudeDegrees>
              <LongitudeDegrees>16.971608</LongitudeDegrees>
            </Position>
            <AltitudeMeters>939.0</AltitudeMeters>
            <DistanceMeters>33848.779713165</DistanceMeters>
          </Trackpoint>
          <Trackpoint>
            <Position>
              <LatitudeDegrees>50.2056</LatitudeDegrees>
              <LongitudeDegrees>16.971463</LongitudeDegrees>
            </Position>
            <AltitudeMeters>947.0</AltitudeMeters>
            <DistanceMeters>33859.169397174</DistanceMeters>
          </Trackpoint>
          <Trackpoint>
            <Position>
              <LatitudeDegrees>50.205593</LatitudeDegrees>
              <LongitudeDegrees>16.971305</LongitudeDegrees>
            </Position>
            <AltitudeMeters>952.0</AltitudeMeters>
            <DistanceMeters>33870.451593661</DistanceMeters>
          </Trackpoint>
          <Trackpoint>
            <Position>
              <LatitudeDegrees>50.205647</LatitudeDegrees>
              <LongitudeDegrees>16.971187</LongitudeDegrees>
            </Position>
            <AltitudeMeters>951.0</AltitudeMeters>
            <DistanceMeters>33880.785503087</DistanceMeters>
          </Trackpoint>
          <Trackpoint>
            <Position>
              <LatitudeDegrees>50.205705</LatitudeDegrees>
              <LongitudeDegrees>16.971057</LongitudeDegrees>
            </Position>
            <AltitudeMeters>950.0</AltitudeMeters>
            <DistanceMeters>33892.07410082</DistanceMeters>
          </Trackpoint>
          <Trackpoint>
            <Position>
              <LatitudeDegrees>50.20574</LatitudeDegrees>
              <LongitudeDegrees>16.970907</LongitudeDegrees>
            </Position>
            <AltitudeMeters>949.0</AltitudeMeters>
            <DistanceMeters>33903.447968901</DistanceMeters>
          </Trackpoint>
          <Trackpoint>
            <Position>
              <LatitudeDegrees>50.205758</LatitudeDegrees>
              <LongitudeDegrees>16.970757</LongitudeDegrees>
            </Position>
            <AltitudeMeters>950.0</AltitudeMeters>
            <DistanceMeters>33914.320121432</DistanceMeters>
          </Trackpoint>
          <Trackpoint>
            <Position>
              <LatitudeDegrees>50.20583</LatitudeDegrees>
              <LongitudeDegrees>16.9706</LongitudeDegrees>
            </Position>
            <AltitudeMeters>950.0</AltitudeMeters>
            <DistanceMeters>33928.078992119</DistanceMeters>
          </Trackpoint>
          <Trackpoint>
            <Position>
              <LatitudeDegrees>50.205813</LatitudeDegrees>
              <LongitudeDegrees>16.970458</LongitudeDegrees>
            </Position>
            <AltitudeMeters>950.0</AltitudeMeters>
            <DistanceMeters>33938.369994817</DistanceMeters>
          </Trackpoint>
          <Trackpoint>
            <Position>
              <LatitudeDegrees>50.205805</LatitudeDegrees>
              <LongitudeDegrees>16.97029</LongitudeDegrees>
            </Position>
            <AltitudeMeters>950.0</AltitudeMeters>
            <DistanceMeters>33950.370480604</DistanceMeters>
          </Trackpoint>
          <Trackpoint>
            <Position>
              <LatitudeDegrees>50.205815</LatitudeDegrees>
              <LongitudeDegrees>16.970145</LongitudeDegrees>
            </Position>
            <AltitudeMeters>951.0</AltitudeMeters>
            <DistanceMeters>33960.759295438</DistanceMeters>
          </Trackpoint>
          <Trackpoint>
            <Position>
              <LatitudeDegrees>50.205868</LatitudeDegrees>
              <LongitudeDegrees>16.97</LongitudeDegrees>
            </Position>
            <AltitudeMeters>952.0</AltitudeMeters>
            <DistanceMeters>33972.6539681</DistanceMeters>
          </Trackpoint>
          <Trackpoint>
            <Position>
              <LatitudeDegrees>50.20595</LatitudeDegrees>
              <LongitudeDegrees>16.96989</LongitudeDegrees>
            </Position>
            <AltitudeMeters>952.0</AltitudeMeters>
            <DistanceMeters>33984.683013986</DistanceMeters>
          </Trackpoint>
          <Trackpoint>
            <Position>
              <LatitudeDegrees>50.205997</LatitudeDegrees>
              <LongitudeDegrees>16.969767</LongitudeDegrees>
            </Position>
            <AltitudeMeters>952.0</AltitudeMeters>
            <DistanceMeters>33994.887662023</DistanceMeters>
          </Trackpoint>
          <Trackpoint>
            <Position>
              <LatitudeDegrees>50.205978</LatitudeDegrees>
              <LongitudeDegrees>16.96961</LongitudeDegrees>
            </Position>
            <AltitudeMeters>952.0</AltitudeMeters>
            <DistanceMeters>34006.269466654</DistanceMeters>
          </Trackpoint>
          <Trackpoint>
            <Position>
              <LatitudeDegrees>50.205917</LatitudeDegrees>
              <LongitudeDegrees>16.969465</LongitudeDegrees>
            </Position>
            <AltitudeMeters>952.0</AltitudeMeters>
            <DistanceMeters>34018.630247108</DistanceMeters>
          </Trackpoint>
          <Trackpoint>
            <Position>
              <LatitudeDegrees>50.205893</LatitudeDegrees>
              <LongitudeDegrees>16.969315</LongitudeDegrees>
            </Position>
            <AltitudeMeters>952.0</AltitudeMeters>
            <DistanceMeters>34029.64474106</DistanceMeters>
          </Trackpoint>
          <Trackpoint>
            <Position>
              <LatitudeDegrees>50.205873</LatitudeDegrees>
              <LongitudeDegrees>16.969158</LongitudeDegrees>
            </Position>
            <AltitudeMeters>952.0</AltitudeMeters>
            <DistanceMeters>34041.048342722</DistanceMeters>
          </Trackpoint>
          <Trackpoint>
            <Position>
              <LatitudeDegrees>50.20583</LatitudeDegrees>
              <LongitudeDegrees>16.968978</LongitudeDegrees>
            </Position>
            <AltitudeMeters>951.0</AltitudeMeters>
            <DistanceMeters>34054.734828968</DistanceMeters>
          </Trackpoint>
          <Trackpoint>
            <Position>
              <LatitudeDegrees>50.205798</LatitudeDegrees>
              <LongitudeDegrees>16.968825</LongitudeDegrees>
            </Position>
            <AltitudeMeters>951.0</AltitudeMeters>
            <DistanceMeters>34066.201210831</DistanceMeters>
          </Trackpoint>
          <Trackpoint>
            <Position>
              <LatitudeDegrees>50.205773</LatitudeDegrees>
              <LongitudeDegrees>16.96869</LongitudeDegrees>
            </Position>
            <AltitudeMeters>949.0</AltitudeMeters>
            <DistanceMeters>34076.21289643</DistanceMeters>
          </Trackpoint>
          <Trackpoint>
            <Position>
              <LatitudeDegrees>50.205743</LatitudeDegrees>
              <LongitudeDegrees>16.968542</LongitudeDegrees>
            </Position>
            <AltitudeMeters>948.0</AltitudeMeters>
            <DistanceMeters>34087.271981173</DistanceMeters>
          </Trackpoint>
          <Trackpoint>
            <Position>
              <LatitudeDegrees>50.20572</LatitudeDegrees>
              <LongitudeDegrees>16.968387</LongitudeDegrees>
            </Position>
            <AltitudeMeters>947.0</AltitudeMeters>
            <DistanceMeters>34098.606879833</DistanceMeters>
          </Trackpoint>
          <Trackpoint>
            <Position>
              <LatitudeDegrees>50.205688</LatitudeDegrees>
              <LongitudeDegrees>16.968238</LongitudeDegrees>
            </Position>
            <AltitudeMeters>946.0</AltitudeMeters>
            <DistanceMeters>34109.803107823</DistanceMeters>
          </Trackpoint>
          <Trackpoint>
            <Position>
              <LatitudeDegrees>50.205675</LatitudeDegrees>
              <LongitudeDegrees>16.968078</LongitudeDegrees>
            </Position>
            <AltitudeMeters>946.0</AltitudeMeters>
            <DistanceMeters>34121.292305247</DistanceMeters>
          </Trackpoint>
          <Trackpoint>
            <Position>
              <LatitudeDegrees>50.205642</LatitudeDegrees>
              <LongitudeDegrees>16.967947</LongitudeDegrees>
            </Position>
            <AltitudeMeters>945.0</AltitudeMeters>
            <DistanceMeters>34131.321113324</DistanceMeters>
          </Trackpoint>
          <Trackpoint>
            <Position>
              <LatitudeDegrees>50.20558</LatitudeDegrees>
              <LongitudeDegrees>16.967722</LongitudeDegrees>
            </Position>
            <AltitudeMeters>945.0</AltitudeMeters>
            <DistanceMeters>34148.771392343</DistanceMeters>
          </Trackpoint>
          <Trackpoint>
            <Position>
              <LatitudeDegrees>50.205542</LatitudeDegrees>
              <LongitudeDegrees>16.967592</LongitudeDegrees>
            </Position>
            <AltitudeMeters>944.0</AltitudeMeters>
            <DistanceMeters>34158.952120088</DistanceMeters>
          </Trackpoint>
          <Trackpoint>
            <Position>
              <LatitudeDegrees>50.205452</LatitudeDegrees>
              <LongitudeDegrees>16.967512</LongitudeDegrees>
            </Position>
            <AltitudeMeters>944.0</AltitudeMeters>
            <DistanceMeters>34170.476631546</DistanceMeters>
          </Trackpoint>
          <Trackpoint>
            <Position>
              <LatitudeDegrees>50.205352</LatitudeDegrees>
              <LongitudeDegrees>16.967437</LongitudeDegrees>
            </Position>
            <AltitudeMeters>946.0</AltitudeMeters>
            <DistanceMeters>34182.822792503</DistanceMeters>
          </Trackpoint>
          <Trackpoint>
            <Position>
              <LatitudeDegrees>50.20526</LatitudeDegrees>
              <LongitudeDegrees>16.96742</LongitudeDegrees>
            </Position>
            <AltitudeMeters>946.0</AltitudeMeters>
            <DistanceMeters>34193.133081534</DistanceMeters>
          </Trackpoint>
          <Trackpoint>
            <Position>
              <LatitudeDegrees>50.20523</LatitudeDegrees>
              <LongitudeDegrees>16.967222</LongitudeDegrees>
            </Position>
            <AltitudeMeters>945.0</AltitudeMeters>
            <DistanceMeters>34207.62800439</DistanceMeters>
          </Trackpoint>
          <Trackpoint>
            <Position>
              <LatitudeDegrees>50.205223</LatitudeDegrees>
              <LongitudeDegrees>16.967063</LongitudeDegrees>
            </Position>
            <AltitudeMeters>945.0</AltitudeMeters>
            <DistanceMeters>34218.981609159</DistanceMeters>
          </Trackpoint>
          <Trackpoint>
            <Position>
              <LatitudeDegrees>50.205167</LatitudeDegrees>
              <LongitudeDegrees>16.966947</LongitudeDegrees>
            </Position>
            <AltitudeMeters>946.0</AltitudeMeters>
            <DistanceMeters>34229.332108032</DistanceMeters>
          </Trackpoint>
          <Trackpoint>
            <Position>
              <LatitudeDegrees>50.205157</LatitudeDegrees>
              <LongitudeDegrees>16.966805</LongitudeDegrees>
            </Position>
            <AltitudeMeters>946.0</AltitudeMeters>
            <DistanceMeters>34239.508843596</DistanceMeters>
          </Trackpoint>
          <Trackpoint>
            <Position>
              <LatitudeDegrees>50.20505</LatitudeDegrees>
              <LongitudeDegrees>16.96668</LongitudeDegrees>
            </Position>
            <AltitudeMeters>946.0</AltitudeMeters>
            <DistanceMeters>34254.37923404</DistanceMeters>
          </Trackpoint>
          <Trackpoint>
            <Position>
              <LatitudeDegrees>50.204955</LatitudeDegrees>
              <LongitudeDegrees>16.966653</LongitudeDegrees>
            </Position>
            <AltitudeMeters>945.0</AltitudeMeters>
            <DistanceMeters>34265.126079052</DistanceMeters>
          </Trackpoint>
          <Trackpoint>
            <Position>
              <LatitudeDegrees>50.20488</LatitudeDegrees>
              <LongitudeDegrees>16.966542</LongitudeDegrees>
            </Position>
            <AltitudeMeters>943.0</AltitudeMeters>
            <DistanceMeters>34276.624704157</DistanceMeters>
          </Trackpoint>
          <Trackpoint>
            <Position>
              <LatitudeDegrees>50.204817</LatitudeDegrees>
              <LongitudeDegrees>16.966418</LongitudeDegrees>
            </Position>
            <AltitudeMeters>941.0</AltitudeMeters>
            <DistanceMeters>34287.902898019</DistanceMeters>
          </Trackpoint>
          <Trackpoint>
            <Position>
              <LatitudeDegrees>50.204715</LatitudeDegrees>
              <LongitudeDegrees>16.966392</LongitudeDegrees>
            </Position>
            <AltitudeMeters>938.0</AltitudeMeters>
            <DistanceMeters>34299.406234066</DistanceMeters>
          </Trackpoint>
          <Trackpoint>
            <Position>
              <LatitudeDegrees>50.204655</LatitudeDegrees>
              <LongitudeDegrees>16.966245</LongitudeDegrees>
            </Position>
            <AltitudeMeters>943.0</AltitudeMeters>
            <DistanceMeters>34311.826411033</DistanceMeters>
          </Trackpoint>
          <Trackpoint>
            <Position>
              <LatitudeDegrees>50.204627</LatitudeDegrees>
              <LongitudeDegrees>16.966083</LongitudeDegrees>
            </Position>
            <AltitudeMeters>945.0</AltitudeMeters>
            <DistanceMeters>34323.780152274</DistanceMeters>
          </Trackpoint>
          <Trackpoint>
            <Position>
              <LatitudeDegrees>50.204637</LatitudeDegrees>
              <LongitudeDegrees>16.965892</LongitudeDegrees>
            </Position>
            <AltitudeMeters>944.0</AltitudeMeters>
            <DistanceMeters>34337.432286825</DistanceMeters>
          </Trackpoint>
          <Trackpoint>
            <Position>
              <LatitudeDegrees>50.204545</LatitudeDegrees>
              <LongitudeDegrees>16.96581</LongitudeDegrees>
            </Position>
            <AltitudeMeters>946.0</AltitudeMeters>
            <DistanceMeters>34349.220962597</DistanceMeters>
          </Trackpoint>
          <Trackpoint>
            <Position>
              <LatitudeDegrees>50.20446</LatitudeDegrees>
              <LongitudeDegrees>16.965735</LongitudeDegrees>
            </Position>
            <AltitudeMeters>943.0</AltitudeMeters>
            <DistanceMeters>34360.086468542</DistanceMeters>
          </Trackpoint>
          <Trackpoint>
            <Position>
              <LatitudeDegrees>50.20442</LatitudeDegrees>
              <LongitudeDegrees>16.965605</LongitudeDegrees>
            </Position>
            <AltitudeMeters>945.0</AltitudeMeters>
            <DistanceMeters>34370.362543373</DistanceMeters>
          </Trackpoint>
          <Trackpoint>
            <Position>
              <LatitudeDegrees>50.203545</LatitudeDegrees>
              <LongitudeDegrees>16.964993</LongitudeDegrees>
            </Position>
            <AltitudeMeters>943.0</AltitudeMeters>
            <DistanceMeters>34477.065400148</DistanceMeters>
          </Trackpoint>
          <Trackpoint>
            <Position>
              <LatitudeDegrees>50.203543</LatitudeDegrees>
              <LongitudeDegrees>16.964703</LongitudeDegrees>
            </Position>
            <AltitudeMeters>945.0</AltitudeMeters>
            <DistanceMeters>34497.726445711</DistanceMeters>
          </Trackpoint>
          <Trackpoint>
            <Position>
              <LatitudeDegrees>50.203362</LatitudeDegrees>
              <LongitudeDegrees>16.964525</LongitudeDegrees>
            </Position>
            <AltitudeMeters>945.0</AltitudeMeters>
            <DistanceMeters>34521.530969588</DistanceMeters>
          </Trackpoint>
          <Trackpoint>
            <Position>
              <LatitudeDegrees>50.203228</LatitudeDegrees>
              <LongitudeDegrees>16.964695</LongitudeDegrees>
            </Position>
            <AltitudeMeters>945.0</AltitudeMeters>
            <DistanceMeters>34540.74329388</DistanceMeters>
          </Trackpoint>
          <Trackpoint>
            <Position>
              <LatitudeDegrees>50.20315</LatitudeDegrees>
              <LongitudeDegrees>16.964832</LongitudeDegrees>
            </Position>
            <AltitudeMeters>944.0</AltitudeMeters>
            <DistanceMeters>34553.805579071</DistanceMeters>
          </Trackpoint>
          <Trackpoint>
            <Position>
              <LatitudeDegrees>50.203043</LatitudeDegrees>
              <LongitudeDegrees>16.964907</LongitudeDegrees>
            </Position>
            <AltitudeMeters>944.0</AltitudeMeters>
            <DistanceMeters>34566.858528253</DistanceMeters>
          </Trackpoint>
          <Trackpoint>
            <Position>
              <LatitudeDegrees>50.20295</LatitudeDegrees>
              <LongitudeDegrees>16.964865</LongitudeDegrees>
            </Position>
            <AltitudeMeters>940.0</AltitudeMeters>
            <DistanceMeters>34577.633065958</DistanceMeters>
          </Trackpoint>
          <Trackpoint>
            <Position>
              <LatitudeDegrees>50.202858</LatitudeDegrees>
              <LongitudeDegrees>16.96486</LongitudeDegrees>
            </Position>
            <AltitudeMeters>941.0</AltitudeMeters>
            <DistanceMeters>34587.878779143</DistanceMeters>
          </Trackpoint>
          <Trackpoint>
            <Position>
              <LatitudeDegrees>50.202775</LatitudeDegrees>
              <LongitudeDegrees>16.964793</LongitudeDegrees>
            </Position>
            <AltitudeMeters>940.0</AltitudeMeters>
            <DistanceMeters>34598.277150907</DistanceMeters>
          </Trackpoint>
          <Trackpoint>
            <Position>
              <LatitudeDegrees>50.20267</LatitudeDegrees>
              <LongitudeDegrees>16.964728</LongitudeDegrees>
            </Position>
            <AltitudeMeters>941.0</AltitudeMeters>
            <DistanceMeters>34610.848003613</DistanceMeters>
          </Trackpoint>
          <Trackpoint>
            <Position>
              <LatitudeDegrees>50.20255</LatitudeDegrees>
              <LongitudeDegrees>16.964665</LongitudeDegrees>
            </Position>
            <AltitudeMeters>941.0</AltitudeMeters>
            <DistanceMeters>34624.938257717</DistanceMeters>
          </Trackpoint>
          <Trackpoint>
            <Position>
              <LatitudeDegrees>50.202453</LatitudeDegrees>
              <LongitudeDegrees>16.96468</LongitudeDegrees>
            </Position>
            <AltitudeMeters>941.0</AltitudeMeters>
            <DistanceMeters>34635.78712938</DistanceMeters>
          </Trackpoint>
          <Trackpoint>
            <Position>
              <LatitudeDegrees>50.202385</LatitudeDegrees>
              <LongitudeDegrees>16.964813</LongitudeDegrees>
            </Position>
            <AltitudeMeters>940.0</AltitudeMeters>
            <DistanceMeters>34647.913372195</DistanceMeters>
          </Trackpoint>
          <Trackpoint>
            <Position>
              <LatitudeDegrees>50.202297</LatitudeDegrees>
              <LongitudeDegrees>16.964723</LongitudeDegrees>
            </Position>
            <AltitudeMeters>936.0</AltitudeMeters>
            <DistanceMeters>34659.619799495</DistanceMeters>
          </Trackpoint>
          <Trackpoint>
            <Position>
              <LatitudeDegrees>50.20224</LatitudeDegrees>
              <LongitudeDegrees>16.964562</LongitudeDegrees>
            </Position>
            <AltitudeMeters>934.0</AltitudeMeters>
            <DistanceMeters>34672.727287218</DistanceMeters>
          </Trackpoint>
          <Trackpoint>
            <Position>
              <LatitudeDegrees>50.20216</LatitudeDegrees>
              <LongitudeDegrees>16.964465</LongitudeDegrees>
            </Position>
            <AltitudeMeters>931.0</AltitudeMeters>
            <DistanceMeters>34683.998673357</DistanceMeters>
          </Trackpoint>
          <Trackpoint>
            <Position>
              <LatitudeDegrees>50.20207</LatitudeDegrees>
              <LongitudeDegrees>16.964365</LongitudeDegrees>
            </Position>
            <AltitudeMeters>934.0</AltitudeMeters>
            <DistanceMeters>34696.290958301</DistanceMeters>
          </Trackpoint>
          <Trackpoint>
            <Position>
              <LatitudeDegrees>50.201973</LatitudeDegrees>
              <LongitudeDegrees>16.964335</LongitudeDegrees>
            </Position>
            <AltitudeMeters>934.0</AltitudeMeters>
            <DistanceMeters>34707.296840611</DistanceMeters>
          </Trackpoint>
          <Trackpoint>
            <Position>
              <LatitudeDegrees>50.201883</LatitudeDegrees>
              <LongitudeDegrees>16.964338</LongitudeDegrees>
            </Position>
            <AltitudeMeters>938.0</AltitudeMeters>
            <DistanceMeters>34717.316189882</DistanceMeters>
          </Trackpoint>
          <Trackpoint>
            <Position>
              <LatitudeDegrees>50.201795</LatitudeDegrees>
              <LongitudeDegrees>16.964285</LongitudeDegrees>
            </Position>
            <AltitudeMeters>937.0</AltitudeMeters>
            <DistanceMeters>34727.813093843</DistanceMeters>
          </Trackpoint>
          <Trackpoint>
            <Position>
              <LatitudeDegrees>50.201703</LatitudeDegrees>
              <LongitudeDegrees>16.964212</LongitudeDegrees>
            </Position>
            <AltitudeMeters>940.0</AltitudeMeters>
            <DistanceMeters>34739.297574526</DistanceMeters>
          </Trackpoint>
          <Trackpoint>
            <Position>
              <LatitudeDegrees>50.201625</LatitudeDegrees>
              <LongitudeDegrees>16.964127</LongitudeDegrees>
            </Position>
            <AltitudeMeters>940.0</AltitudeMeters>
            <DistanceMeters>34749.882714511</DistanceMeters>
          </Trackpoint>
          <Trackpoint>
            <Position>
              <LatitudeDegrees>50.201538</LatitudeDegrees>
              <LongitudeDegrees>16.964078</LongitudeDegrees>
            </Position>
            <AltitudeMeters>941.0</AltitudeMeters>
            <DistanceMeters>34760.176349292</DistanceMeters>
          </Trackpoint>
          <Trackpoint>
            <Position>
              <LatitudeDegrees>50.201473</LatitudeDegrees>
              <LongitudeDegrees>16.963977</LongitudeDegrees>
            </Position>
            <AltitudeMeters>941.0</AltitudeMeters>
            <DistanceMeters>34770.380112392</DistanceMeters>
          </Trackpoint>
          <Trackpoint>
            <Position>
              <LatitudeDegrees>50.20138</LatitudeDegrees>
              <LongitudeDegrees>16.963907</LongitudeDegrees>
            </Position>
            <AltitudeMeters>941.0</AltitudeMeters>
            <DistanceMeters>34781.869702791</DistanceMeters>
          </Trackpoint>
          <Trackpoint>
            <Position>
              <LatitudeDegrees>50.201313</LatitudeDegrees>
              <LongitudeDegrees>16.9638</LongitudeDegrees>
            </Position>
            <AltitudeMeters>941.0</AltitudeMeters>
            <DistanceMeters>34792.533885025</DistanceMeters>
          </Trackpoint>
          <Trackpoint>
            <Position>
              <LatitudeDegrees>50.201233</LatitudeDegrees>
              <LongitudeDegrees>16.963698</LongitudeDegrees>
            </Position>
            <AltitudeMeters>941.0</AltitudeMeters>
            <DistanceMeters>34804.02701159</DistanceMeters>
          </Trackpoint>
          <Trackpoint>
            <Position>
              <LatitudeDegrees>50.20117</LatitudeDegrees>
              <LongitudeDegrees>16.963592</LongitudeDegrees>
            </Position>
            <AltitudeMeters>941.0</AltitudeMeters>
            <DistanceMeters>34814.332044291</DistanceMeters>
          </Trackpoint>
          <Trackpoint>
            <Position>
              <LatitudeDegrees>50.201102</LatitudeDegrees>
              <LongitudeDegrees>16.963467</LongitudeDegrees>
            </Position>
            <AltitudeMeters>940.0</AltitudeMeters>
            <DistanceMeters>34826.019557558</DistanceMeters>
          </Trackpoint>
          <Trackpoint>
            <Position>
              <LatitudeDegrees>50.201033</LatitudeDegrees>
              <LongitudeDegrees>16.963367</LongitudeDegrees>
            </Position>
            <AltitudeMeters>940.0</AltitudeMeters>
            <DistanceMeters>34836.494932919</DistanceMeters>
          </Trackpoint>
          <Trackpoint>
            <Position>
              <LatitudeDegrees>50.200968</LatitudeDegrees>
              <LongitudeDegrees>16.963263</LongitudeDegrees>
            </Position>
            <AltitudeMeters>940.0</AltitudeMeters>
            <DistanceMeters>34846.850229041</DistanceMeters>
          </Trackpoint>
          <Trackpoint>
            <Position>
              <LatitudeDegrees>50.2009</LatitudeDegrees>
              <LongitudeDegrees>16.963153</LongitudeDegrees>
            </Position>
            <AltitudeMeters>940.0</AltitudeMeters>
            <DistanceMeters>34857.745198286</DistanceMeters>
          </Trackpoint>
          <Trackpoint>
            <Position>
              <LatitudeDegrees>50.200832</LatitudeDegrees>
              <LongitudeDegrees>16.96305</LongitudeDegrees>
            </Position>
            <AltitudeMeters>938.0</AltitudeMeters>
            <DistanceMeters>34868.287597485</DistanceMeters>
          </Trackpoint>
          <Trackpoint>
            <Position>
              <LatitudeDegrees>50.200788</LatitudeDegrees>
              <LongitudeDegrees>16.962913</LongitudeDegrees>
            </Position>
            <AltitudeMeters>938.0</AltitudeMeters>
            <DistanceMeters>34879.207816783</DistanceMeters>
          </Trackpoint>
          <Trackpoint>
            <Position>
              <LatitudeDegrees>50.200712</LatitudeDegrees>
              <LongitudeDegrees>16.962797</LongitudeDegrees>
            </Position>
            <AltitudeMeters>939.0</AltitudeMeters>
            <DistanceMeters>34891.033966789</DistanceMeters>
          </Trackpoint>
          <Trackpoint>
            <Position>
              <LatitudeDegrees>50.200677</LatitudeDegrees>
              <LongitudeDegrees>16.962637</LongitudeDegrees>
            </Position>
            <AltitudeMeters>939.0</AltitudeMeters>
            <DistanceMeters>34903.079891344</DistanceMeters>
          </Trackpoint>
          <Trackpoint>
            <Position>
              <LatitudeDegrees>50.200635</LatitudeDegrees>
              <LongitudeDegrees>16.962497</LongitudeDegrees>
            </Position>
            <AltitudeMeters>937.0</AltitudeMeters>
            <DistanceMeters>34914.094795207</DistanceMeters>
          </Trackpoint>
          <Trackpoint>
            <Position>
              <LatitudeDegrees>50.200587</LatitudeDegrees>
              <LongitudeDegrees>16.962358</LongitudeDegrees>
            </Position>
            <AltitudeMeters>937.0</AltitudeMeters>
            <DistanceMeters>34925.346937306</DistanceMeters>
          </Trackpoint>
          <Trackpoint>
            <Position>
              <LatitudeDegrees>50.200563</LatitudeDegrees>
              <LongitudeDegrees>16.962215</LongitudeDegrees>
            </Position>
            <AltitudeMeters>937.0</AltitudeMeters>
            <DistanceMeters>34935.879052907</DistanceMeters>
          </Trackpoint>
          <Trackpoint>
            <Position>
              <LatitudeDegrees>50.200535</LatitudeDegrees>
              <LongitudeDegrees>16.962078</LongitudeDegrees>
            </Position>
            <AltitudeMeters>937.0</AltitudeMeters>
            <DistanceMeters>34946.125206758</DistanceMeters>
          </Trackpoint>
          <Trackpoint>
            <Position>
              <LatitudeDegrees>50.200468</LatitudeDegrees>
              <LongitudeDegrees>16.961968</LongitudeDegrees>
            </Position>
            <AltitudeMeters>936.0</AltitudeMeters>
            <DistanceMeters>34956.942820203</DistanceMeters>
          </Trackpoint>
          <Trackpoint>
            <Position>
              <LatitudeDegrees>50.20038</LatitudeDegrees>
              <LongitudeDegrees>16.961912</LongitudeDegrees>
            </Position>
            <AltitudeMeters>935.0</AltitudeMeters>
            <DistanceMeters>34967.518572036</DistanceMeters>
          </Trackpoint>
          <Trackpoint>
            <Position>
              <LatitudeDegrees>50.200287</LatitudeDegrees>
              <LongitudeDegrees>16.96185</LongitudeDegrees>
            </Position>
            <AltitudeMeters>934.0</AltitudeMeters>
            <DistanceMeters>34978.772720258</DistanceMeters>
          </Trackpoint>
          <Trackpoint>
            <Position>
              <LatitudeDegrees>50.200195</LatitudeDegrees>
              <LongitudeDegrees>16.961855</LongitudeDegrees>
            </Position>
            <AltitudeMeters>934.0</AltitudeMeters>
            <DistanceMeters>34989.018874109</DistanceMeters>
          </Trackpoint>
          <Trackpoint>
            <Position>
              <LatitudeDegrees>50.200155</LatitudeDegrees>
              <LongitudeDegrees>16.961727</LongitudeDegrees>
            </Position>
            <AltitudeMeters>931.0</AltitudeMeters>
            <DistanceMeters>34999.16673062</DistanceMeters>
          </Trackpoint>
          <Trackpoint>
            <Position>
              <LatitudeDegrees>50.200085</LatitudeDegrees>
              <LongitudeDegrees>16.961608</LongitudeDegrees>
            </Position>
            <AltitudeMeters>928.0</AltitudeMeters>
            <DistanceMeters>35010.68105137</DistanceMeters>
          </Trackpoint>
          <Trackpoint>
            <Position>
              <LatitudeDegrees>50.200025</LatitudeDegrees>
              <LongitudeDegrees>16.961478</LongitudeDegrees>
            </Position>
            <AltitudeMeters>929.0</AltitudeMeters>
            <DistanceMeters>35022.100083897</DistanceMeters>
          </Trackpoint>
          <Trackpoint>
            <Position>
              <LatitudeDegrees>50.199962</LatitudeDegrees>
              <LongitudeDegrees>16.961368</LongitudeDegrees>
            </Position>
            <AltitudeMeters>927.0</AltitudeMeters>
            <DistanceMeters>35032.615896568</DistanceMeters>
          </Trackpoint>
          <Trackpoint>
            <Position>
              <LatitudeDegrees>50.199883</LatitudeDegrees>
              <LongitudeDegrees>16.961235</LongitudeDegrees>
            </Position>
            <AltitudeMeters>930.0</AltitudeMeters>
            <DistanceMeters>35045.542324324</DistanceMeters>
          </Trackpoint>
          <Trackpoint>
            <Position>
              <LatitudeDegrees>50.199813</LatitudeDegrees>
              <LongitudeDegrees>16.961142</LongitudeDegrees>
            </Position>
            <AltitudeMeters>928.0</AltitudeMeters>
            <DistanceMeters>35055.76995384</DistanceMeters>
          </Trackpoint>
          <Trackpoint>
            <Position>
              <LatitudeDegrees>50.199738</LatitudeDegrees>
              <LongitudeDegrees>16.961063</LongitudeDegrees>
            </Position>
            <AltitudeMeters>927.0</AltitudeMeters>
            <DistanceMeters>35065.837405256</DistanceMeters>
          </Trackpoint>
          <Trackpoint>
            <Position>
              <LatitudeDegrees>50.199655</LatitudeDegrees>
              <LongitudeDegrees>16.960968</LongitudeDegrees>
            </Position>
            <AltitudeMeters>929.0</AltitudeMeters>
            <DistanceMeters>35077.289602873</DistanceMeters>
          </Trackpoint>
          <Trackpoint>
            <Position>
              <LatitudeDegrees>50.199565</LatitudeDegrees>
              <LongitudeDegrees>16.960948</LongitudeDegrees>
            </Position>
            <AltitudeMeters>929.0</AltitudeMeters>
            <DistanceMeters>35087.407605475</DistanceMeters>
          </Trackpoint>
          <Trackpoint>
            <Position>
              <LatitudeDegrees>50.199498</LatitudeDegrees>
              <LongitudeDegrees>16.960853</LongitudeDegrees>
            </Position>
            <AltitudeMeters>929.0</AltitudeMeters>
            <DistanceMeters>35097.478195753</DistanceMeters>
          </Trackpoint>
          <Trackpoint>
            <Position>
              <LatitudeDegrees>50.199512</LatitudeDegrees>
              <LongitudeDegrees>16.96082</LongitudeDegrees>
            </Position>
            <AltitudeMeters>929.0</AltitudeMeters>
            <DistanceMeters>35100.298744874</DistanceMeters>
          </Trackpoint>
          <Trackpoint>
            <Position>
              <LatitudeDegrees>50.19953</LatitudeDegrees>
              <LongitudeDegrees>16.960782</LongitudeDegrees>
            </Position>
            <AltitudeMeters>929.0</AltitudeMeters>
            <DistanceMeters>35103.666500212</DistanceMeters>
          </Trackpoint>
          <Trackpoint>
            <Position>
              <LatitudeDegrees>50.199613</LatitudeDegrees>
              <LongitudeDegrees>16.960695</LongitudeDegrees>
            </Position>
            <AltitudeMeters>929.0</AltitudeMeters>
            <DistanceMeters>35114.791527301</DistanceMeters>
          </Trackpoint>
          <Trackpoint>
            <Position>
              <LatitudeDegrees>50.199698</LatitudeDegrees>
              <LongitudeDegrees>16.960747</LongitudeDegrees>
            </Position>
            <AltitudeMeters>930.0</AltitudeMeters>
            <DistanceMeters>35124.951834083</DistanceMeters>
          </Trackpoint>
          <Trackpoint>
            <Position>
              <LatitudeDegrees>50.19978</LatitudeDegrees>
              <LongitudeDegrees>16.960802</LongitudeDegrees>
            </Position>
            <AltitudeMeters>930.0</AltitudeMeters>
            <DistanceMeters>35134.884285198</DistanceMeters>
          </Trackpoint>
          <Trackpoint>
            <Position>
              <LatitudeDegrees>50.199885</LatitudeDegrees>
              <LongitudeDegrees>16.960822</LongitudeDegrees>
            </Position>
            <AltitudeMeters>930.0</AltitudeMeters>
            <DistanceMeters>35146.657631087</DistanceMeters>
          </Trackpoint>
          <Trackpoint>
            <Position>
              <LatitudeDegrees>50.199975</LatitudeDegrees>
              <LongitudeDegrees>16.960802</LongitudeDegrees>
            </Position>
            <AltitudeMeters>930.0</AltitudeMeters>
            <DistanceMeters>35156.775187441</DistanceMeters>
          </Trackpoint>
          <Trackpoint>
            <Position>
              <LatitudeDegrees>50.200057</LatitudeDegrees>
              <LongitudeDegrees>16.960873</LongitudeDegrees>
            </Position>
            <AltitudeMeters>931.0</AltitudeMeters>
            <DistanceMeters>35167.21040147</DistanceMeters>
          </Trackpoint>
          <Trackpoint>
            <Position>
              <LatitudeDegrees>50.200148</LatitudeDegrees>
              <LongitudeDegrees>16.960883</LongitudeDegrees>
            </Position>
            <AltitudeMeters>930.0</AltitudeMeters>
            <DistanceMeters>35177.363595681</DistanceMeters>
          </Trackpoint>
          <Trackpoint>
            <Position>
              <LatitudeDegrees>50.20024</LatitudeDegrees>
              <LongitudeDegrees>16.960942</LongitudeDegrees>
            </Position>
            <AltitudeMeters>931.0</AltitudeMeters>
            <DistanceMeters>35188.432474449</DistanceMeters>
          </Trackpoint>
          <Trackpoint>
            <Position>
              <LatitudeDegrees>50.200348</LatitudeDegrees>
              <LongitudeDegrees>16.960967</LongitudeDegrees>
            </Position>
            <AltitudeMeters>930.0</AltitudeMeters>
            <DistanceMeters>35200.584009744</DistanceMeters>
          </Trackpoint>
          <Trackpoint>
            <Position>
              <LatitudeDegrees>50.20044</LatitudeDegrees>
              <LongitudeDegrees>16.960903</LongitudeDegrees>
            </Position>
            <AltitudeMeters>929.0</AltitudeMeters>
            <DistanceMeters>35211.793134761</DistanceMeters>
          </Trackpoint>
          <Trackpoint>
            <Position>
              <LatitudeDegrees>50.200532</LatitudeDegrees>
              <LongitudeDegrees>16.960937</LongitudeDegrees>
            </Position>
            <AltitudeMeters>930.0</AltitudeMeters>
            <DistanceMeters>35222.315814902</DistanceMeters>
          </Trackpoint>
          <Trackpoint>
            <Position>
              <LatitudeDegrees>50.200633</LatitudeDegrees>
              <LongitudeDegrees>16.960943</LongitudeDegrees>
            </Position>
            <AltitudeMeters>930.0</AltitudeMeters>
            <DistanceMeters>35233.565147828</DistanceMeters>
          </Trackpoint>
          <Trackpoint>
            <Position>
              <LatitudeDegrees>50.200717</LatitudeDegrees>
              <LongitudeDegrees>16.96086</LongitudeDegrees>
            </Position>
            <AltitudeMeters>931.0</AltitudeMeters>
            <DistanceMeters>35244.62749821</DistanceMeters>
          </Trackpoint>
          <Trackpoint>
            <Position>
              <LatitudeDegrees>50.200718</LatitudeDegrees>
              <LongitudeDegrees>16.960702</LongitudeDegrees>
            </Position>
            <AltitudeMeters>932.0</AltitudeMeters>
            <DistanceMeters>35255.884855485</DistanceMeters>
          </Trackpoint>
          <Trackpoint>
            <Position>
              <LatitudeDegrees>50.20074</LatitudeDegrees>
              <LongitudeDegrees>16.960563</LongitudeDegrees>
            </Position>
            <AltitudeMeters>931.0</AltitudeMeters>
            <DistanceMeters>35266.085963314</DistanceMeters>
          </Trackpoint>
          <Trackpoint>
            <Position>
              <LatitudeDegrees>50.200793</LatitudeDegrees>
              <LongitudeDegrees>16.960447</LongitudeDegrees>
            </Position>
            <AltitudeMeters>931.0</AltitudeMeters>
            <DistanceMeters>35276.240046869</DistanceMeters>
          </Trackpoint>
          <Trackpoint>
            <Position>
              <LatitudeDegrees>50.200875</LatitudeDegrees>
              <LongitudeDegrees>16.960373</LongitudeDegrees>
            </Position>
            <AltitudeMeters>931.0</AltitudeMeters>
            <DistanceMeters>35286.779876109</DistanceMeters>
          </Trackpoint>
          <Trackpoint>
            <Position>
              <LatitudeDegrees>50.200958</LatitudeDegrees>
              <LongitudeDegrees>16.960297</LongitudeDegrees>
            </Position>
            <AltitudeMeters>931.0</AltitudeMeters>
            <DistanceMeters>35297.487156367</DistanceMeters>
          </Trackpoint>
          <Trackpoint>
            <Position>
              <LatitudeDegrees>50.201063</LatitudeDegrees>
              <LongitudeDegrees>16.960112</LongitudeDegrees>
            </Position>
            <AltitudeMeters>931.0</AltitudeMeters>
            <DistanceMeters>35315.102248952</DistanceMeters>
          </Trackpoint>
          <Trackpoint>
            <Position>
              <LatitudeDegrees>50.201168</LatitudeDegrees>
              <LongitudeDegrees>16.960082</LongitudeDegrees>
            </Position>
            <AltitudeMeters>930.0</AltitudeMeters>
            <DistanceMeters>35326.98248863</DistanceMeters>
          </Trackpoint>
          <Trackpoint>
            <Position>
              <LatitudeDegrees>50.201252</LatitudeDegrees>
              <LongitudeDegrees>16.960028</LongitudeDegrees>
            </Position>
            <AltitudeMeters>928.0</AltitudeMeters>
            <DistanceMeters>35337.092902338</DistanceMeters>
          </Trackpoint>
          <Trackpoint>
            <Position>
              <LatitudeDegrees>50.201317</LatitudeDegrees>
              <LongitudeDegrees>16.959915</LongitudeDegrees>
            </Position>
            <AltitudeMeters>928.0</AltitudeMeters>
            <DistanceMeters>35347.916774648</DistanceMeters>
          </Trackpoint>
          <Trackpoint>
            <Position>
              <LatitudeDegrees>50.201385</LatitudeDegrees>
              <LongitudeDegrees>16.959813</LongitudeDegrees>
            </Position>
            <AltitudeMeters>927.0</AltitudeMeters>
            <DistanceMeters>35358.409376423</DistanceMeters>
          </Trackpoint>
          <Trackpoint>
            <Position>
              <LatitudeDegrees>50.201488</LatitudeDegrees>
              <LongitudeDegrees>16.959765</LongitudeDegrees>
            </Position>
            <AltitudeMeters>926.0</AltitudeMeters>
            <DistanceMeters>35370.372934073</DistanceMeters>
          </Trackpoint>
          <Trackpoint>
            <Position>
              <LatitudeDegrees>50.201588</LatitudeDegrees>
              <LongitudeDegrees>16.959715</LongitudeDegrees>
            </Position>
            <AltitudeMeters>926.0</AltitudeMeters>
            <DistanceMeters>35382.059288344</DistanceMeters>
          </Trackpoint>
          <Trackpoint>
            <Position>
              <LatitudeDegrees>50.201652</LatitudeDegrees>
              <LongitudeDegrees>16.959592</LongitudeDegrees>
            </Position>
            <AltitudeMeters>927.0</AltitudeMeters>
            <DistanceMeters>35393.351885013</DistanceMeters>
          </Trackpoint>
          <Trackpoint>
            <Position>
              <LatitudeDegrees>50.201747</LatitudeDegrees>
              <LongitudeDegrees>16.95952</LongitudeDegrees>
            </Position>
            <AltitudeMeters>927.0</AltitudeMeters>
            <DistanceMeters>35405.10450384</DistanceMeters>
          </Trackpoint>
          <Trackpoint>
            <Position>
              <LatitudeDegrees>50.201777</LatitudeDegrees>
              <LongitudeDegrees>16.95938</LongitudeDegrees>
            </Position>
            <AltitudeMeters>927.0</AltitudeMeters>
            <DistanceMeters>35415.622463077</DistanceMeters>
          </Trackpoint>
          <Trackpoint>
            <Position>
              <LatitudeDegrees>50.201782</LatitudeDegrees>
              <LongitudeDegrees>16.958993</LongitudeDegrees>
            </Position>
            <AltitudeMeters>927.0</AltitudeMeters>
            <DistanceMeters>35443.199045311</DistanceMeters>
          </Trackpoint>
          <Trackpoint>
            <Position>
              <LatitudeDegrees>50.201873</LatitudeDegrees>
              <LongitudeDegrees>16.95898</LongitudeDegrees>
            </Position>
            <AltitudeMeters>926.0</AltitudeMeters>
            <DistanceMeters>35453.370011624</DistanceMeters>
          </Trackpoint>
          <Trackpoint>
            <Position>
              <LatitudeDegrees>50.201968</LatitudeDegrees>
              <LongitudeDegrees>16.958927</LongitudeDegrees>
            </Position>
            <AltitudeMeters>919.0</AltitudeMeters>
            <DistanceMeters>35464.597650163</DistanceMeters>
          </Trackpoint>
          <Trackpoint>
            <Position>
              <LatitudeDegrees>50.20207</LatitudeDegrees>
              <LongitudeDegrees>16.958877</LongitudeDegrees>
            </Position>
            <AltitudeMeters>917.0</AltitudeMeters>
            <DistanceMeters>35476.496118068</DistanceMeters>
          </Trackpoint>
          <Trackpoint>
            <Position>
              <LatitudeDegrees>50.202143</LatitudeDegrees>
              <LongitudeDegrees>16.958787</LongitudeDegrees>
            </Position>
            <AltitudeMeters>911.0</AltitudeMeters>
            <DistanceMeters>35486.845744476</DistanceMeters>
          </Trackpoint>
          <Trackpoint>
            <Position>
              <LatitudeDegrees>50.202223</LatitudeDegrees>
              <LongitudeDegrees>16.958682</LongitudeDegrees>
            </Position>
            <AltitudeMeters>914.0</AltitudeMeters>
            <DistanceMeters>35498.475166426</DistanceMeters>
          </Trackpoint>
          <Trackpoint>
            <Position>
              <LatitudeDegrees>50.202312</LatitudeDegrees>
              <LongitudeDegrees>16.958572</LongitudeDegrees>
            </Position>
            <AltitudeMeters>914.0</AltitudeMeters>
            <DistanceMeters>35511.106215101</DistanceMeters>
          </Trackpoint>
          <Trackpoint>
            <Position>
              <LatitudeDegrees>50.202408</LatitudeDegrees>
              <LongitudeDegrees>16.9585</LongitudeDegrees>
            </Position>
            <AltitudeMeters>914.0</AltitudeMeters>
            <DistanceMeters>35522.959059878</DistanceMeters>
          </Trackpoint>
          <Trackpoint>
            <Position>
              <LatitudeDegrees>50.202577</LatitudeDegrees>
              <LongitudeDegrees>16.958322</LongitudeDegrees>
            </Position>
            <AltitudeMeters>913.0</AltitudeMeters>
            <DistanceMeters>35545.644585806</DistanceMeters>
          </Trackpoint>
          <Trackpoint>
            <Position>
              <LatitudeDegrees>50.202633</LatitudeDegrees>
              <LongitudeDegrees>16.958207</LongitudeDegrees>
            </Position>
            <AltitudeMeters>913.0</AltitudeMeters>
            <DistanceMeters>35555.939097797</DistanceMeters>
          </Trackpoint>
          <Trackpoint>
            <Position>
              <LatitudeDegrees>50.202725</LatitudeDegrees>
              <LongitudeDegrees>16.958245</LongitudeDegrees>
            </Position>
            <AltitudeMeters>913.0</AltitudeMeters>
            <DistanceMeters>35566.530634025</DistanceMeters>
          </Trackpoint>
          <Trackpoint>
            <Position>
              <LatitudeDegrees>50.202822</LatitudeDegrees>
              <LongitudeDegrees>16.958298</LongitudeDegrees>
            </Position>
            <AltitudeMeters>909.0</AltitudeMeters>
            <DistanceMeters>35577.9678403</DistanceMeters>
          </Trackpoint>
          <Trackpoint>
            <Position>
              <LatitudeDegrees>50.202915</LatitudeDegrees>
              <LongitudeDegrees>16.958322</LongitudeDegrees>
            </Position>
            <AltitudeMeters>909.0</AltitudeMeters>
            <DistanceMeters>35588.459151075</DistanceMeters>
          </Trackpoint>
          <Trackpoint>
            <Position>
              <LatitudeDegrees>50.203002</LatitudeDegrees>
              <LongitudeDegrees>16.95837</LongitudeDegrees>
            </Position>
            <AltitudeMeters>907.0</AltitudeMeters>
            <DistanceMeters>35598.728193518</DistanceMeters>
          </Trackpoint>
          <Trackpoint>
            <Position>
              <LatitudeDegrees>50.203108</LatitudeDegrees>
              <LongitudeDegrees>16.958375</LongitudeDegrees>
            </Position>
            <AltitudeMeters>907.0</AltitudeMeters>
            <DistanceMeters>35610.531414239</DistanceMeters>
          </Trackpoint>
          <Trackpoint>
            <Position>
              <LatitudeDegrees>50.203113</LatitudeDegrees>
              <LongitudeDegrees>16.958162</LongitudeDegrees>
            </Position>
            <AltitudeMeters>905.0</AltitudeMeters>
            <DistanceMeters>35625.71607663</DistanceMeters>
          </Trackpoint>
          <Trackpoint>
            <Position>
              <LatitudeDegrees>50.203028</LatitudeDegrees>
              <LongitudeDegrees>16.958225</LongitudeDegrees>
            </Position>
            <AltitudeMeters>901.0</AltitudeMeters>
            <DistanceMeters>35636.187140959</DistanceMeters>
          </Trackpoint>
          <Trackpoint>
            <Position>
              <LatitudeDegrees>50.20306</LatitudeDegrees>
              <LongitudeDegrees>16.958093</LongitudeDegrees>
            </Position>
            <AltitudeMeters>900.0</AltitudeMeters>
            <DistanceMeters>35646.242925166</DistanceMeters>
          </Trackpoint>
          <Trackpoint>
            <Position>
              <LatitudeDegrees>50.203053</LatitudeDegrees>
              <LongitudeDegrees>16.95795</LongitudeDegrees>
            </Position>
            <AltitudeMeters>898.0</AltitudeMeters>
            <DistanceMeters>35656.460396172</DistanceMeters>
          </Trackpoint>
          <Trackpoint>
            <Position>
              <LatitudeDegrees>50.202952</LatitudeDegrees>
              <LongitudeDegrees>16.957907</LongitudeDegrees>
            </Position>
            <AltitudeMeters>891.0</AltitudeMeters>
            <DistanceMeters>35668.111926941</DistanceMeters>
          </Trackpoint>
          <Trackpoint>
            <Position>
              <LatitudeDegrees>50.202865</LatitudeDegrees>
              <LongitudeDegrees>16.957852</LongitudeDegrees>
            </Position>
            <AltitudeMeters>888.0</AltitudeMeters>
            <DistanceMeters>35678.557952202</DistanceMeters>
          </Trackpoint>
          <Trackpoint>
            <Position>
              <LatitudeDegrees>50.202893</LatitudeDegrees>
              <LongitudeDegrees>16.9577</LongitudeDegrees>
            </Position>
            <AltitudeMeters>886.0</AltitudeMeters>
            <DistanceMeters>35689.826133283</DistanceMeters>
          </Trackpoint>
          <Trackpoint>
            <Position>
              <LatitudeDegrees>50.202962</LatitudeDegrees>
              <LongitudeDegrees>16.957597</LongitudeDegrees>
            </Position>
            <AltitudeMeters>882.0</AltitudeMeters>
            <DistanceMeters>35700.447892793</DistanceMeters>
          </Trackpoint>
          <Trackpoint>
            <Position>
              <LatitudeDegrees>50.203028</LatitudeDegrees>
              <LongitudeDegrees>16.957497</LongitudeDegrees>
            </Position>
            <AltitudeMeters>878.0</AltitudeMeters>
            <DistanceMeters>35710.680818399</DistanceMeters>
          </Trackpoint>
          <Trackpoint>
            <Position>
              <LatitudeDegrees>50.203033</LatitudeDegrees>
              <LongitudeDegrees>16.957345</LongitudeDegrees>
            </Position>
            <AltitudeMeters>875.0</AltitudeMeters>
            <DistanceMeters>35721.523862035</DistanceMeters>
          </Trackpoint>
          <Trackpoint>
            <Position>
              <LatitudeDegrees>50.20293</LatitudeDegrees>
              <LongitudeDegrees>16.9573</LongitudeDegrees>
            </Position>
            <AltitudeMeters>874.0</AltitudeMeters>
            <DistanceMeters>35733.427641248</DistanceMeters>
          </Trackpoint>
          <Trackpoint>
            <Position>
              <LatitudeDegrees>50.20286</LatitudeDegrees>
              <LongitudeDegrees>16.957175</LongitudeDegrees>
            </Position>
            <AltitudeMeters>873.0</AltitudeMeters>
            <DistanceMeters>35745.259516633</DistanceMeters>
          </Trackpoint>
          <Trackpoint>
            <Position>
              <LatitudeDegrees>50.202757</LatitudeDegrees>
              <LongitudeDegrees>16.957175</LongitudeDegrees>
            </Position>
            <AltitudeMeters>870.0</AltitudeMeters>
            <DistanceMeters>35756.723535673</DistanceMeters>
          </Trackpoint>
          <Trackpoint>
            <Position>
              <LatitudeDegrees>50.202668</LatitudeDegrees>
              <LongitudeDegrees>16.957122</LongitudeDegrees>
            </Position>
            <AltitudeMeters>867.0</AltitudeMeters>
            <DistanceMeters>35767.324446075</DistanceMeters>
          </Trackpoint>
          <Trackpoint>
            <Position>
              <LatitudeDegrees>50.202657</LatitudeDegrees>
              <LongitudeDegrees>16.956973</LongitudeDegrees>
            </Position>
            <AltitudeMeters>866.0</AltitudeMeters>
            <DistanceMeters>35778.009776512</DistanceMeters>
          </Trackpoint>
          <Trackpoint>
            <Position>
              <LatitudeDegrees>50.202598</LatitudeDegrees>
              <LongitudeDegrees>16.956852</LongitudeDegrees>
            </Position>
            <AltitudeMeters>864.0</AltitudeMeters>
            <DistanceMeters>35788.846155708</DistanceMeters>
          </Trackpoint>
          <Trackpoint>
            <Position>
              <LatitudeDegrees>50.202533</LatitudeDegrees>
              <LongitudeDegrees>16.956737</LongitudeDegrees>
            </Position>
            <AltitudeMeters>863.0</AltitudeMeters>
            <DistanceMeters>35799.776293464</DistanceMeters>
          </Trackpoint>
          <Trackpoint>
            <Position>
              <LatitudeDegrees>50.202463</LatitudeDegrees>
              <LongitudeDegrees>16.956615</LongitudeDegrees>
            </Position>
            <AltitudeMeters>862.0</AltitudeMeters>
            <DistanceMeters>35811.448730801</DistanceMeters>
          </Trackpoint>
          <Trackpoint>
            <Position>
              <LatitudeDegrees>50.202407</LatitudeDegrees>
              <LongitudeDegrees>16.956497</LongitudeDegrees>
            </Position>
            <AltitudeMeters>862.0</AltitudeMeters>
            <DistanceMeters>35821.913756702</DistanceMeters>
          </Trackpoint>
          <Trackpoint>
            <Position>
              <LatitudeDegrees>50.202302</LatitudeDegrees>
              <LongitudeDegrees>16.956452</LongitudeDegrees>
            </Position>
            <AltitudeMeters>856.0</AltitudeMeters>
            <DistanceMeters>35834.032550507</DistanceMeters>
          </Trackpoint>
          <Trackpoint>
            <Position>
              <LatitudeDegrees>50.202203</LatitudeDegrees>
              <LongitudeDegrees>16.956475</LongitudeDegrees>
            </Position>
            <AltitudeMeters>856.0</AltitudeMeters>
            <DistanceMeters>35845.172989037</DistanceMeters>
          </Trackpoint>
          <Trackpoint>
            <Position>
              <LatitudeDegrees>50.202135</LatitudeDegrees>
              <LongitudeDegrees>16.956347</LongitudeDegrees>
            </Position>
            <AltitudeMeters>854.0</AltitudeMeters>
            <DistanceMeters>35857.023548047</DistanceMeters>
          </Trackpoint>
          <Trackpoint>
            <Position>
              <LatitudeDegrees>50.202075</LatitudeDegrees>
              <LongitudeDegrees>16.956218</LongitudeDegrees>
            </Position>
            <AltitudeMeters>852.0</AltitudeMeters>
            <DistanceMeters>35868.383911269</DistanceMeters>
          </Trackpoint>
          <Trackpoint>
            <Position>
              <LatitudeDegrees>50.201998</LatitudeDegrees>
              <LongitudeDegrees>16.95614</LongitudeDegrees>
            </Position>
            <AltitudeMeters>851.0</AltitudeMeters>
            <DistanceMeters>35878.59828855</DistanceMeters>
          </Trackpoint>
          <Trackpoint>
            <Position>
              <LatitudeDegrees>50.20199</LatitudeDegrees>
              <LongitudeDegrees>16.955997</LongitudeDegrees>
            </Position>
            <AltitudeMeters>849.0</AltitudeMeters>
            <DistanceMeters>35888.825035118</DistanceMeters>
          </Trackpoint>
          <Trackpoint>
            <Position>
              <LatitudeDegrees>50.2019</LatitudeDegrees>
              <LongitudeDegrees>16.955958</LongitudeDegrees>
            </Position>
            <AltitudeMeters>845.0</AltitudeMeters>
            <DistanceMeters>35899.220801318</DistanceMeters>
          </Trackpoint>
          <Trackpoint>
            <Position>
              <LatitudeDegrees>50.20193</LatitudeDegrees>
              <LongitudeDegrees>16.955817</LongitudeDegrees>
            </Position>
            <AltitudeMeters>841.0</AltitudeMeters>
            <DistanceMeters>35909.80636784</DistanceMeters>
          </Trackpoint>
          <Trackpoint>
            <Position>
              <LatitudeDegrees>50.201845</LatitudeDegrees>
              <LongitudeDegrees>16.955728</LongitudeDegrees>
            </Position>
            <AltitudeMeters>840.0</AltitudeMeters>
            <DistanceMeters>35921.195310638</DistanceMeters>
          </Trackpoint>
          <Trackpoint>
            <Position>
              <LatitudeDegrees>50.201827</LatitudeDegrees>
              <LongitudeDegrees>16.955582</LongitudeDegrees>
            </Position>
            <AltitudeMeters>838.0</AltitudeMeters>
            <DistanceMeters>35931.78812565</DistanceMeters>
          </Trackpoint>
          <Trackpoint>
            <Position>
              <LatitudeDegrees>50.201815</LatitudeDegrees>
              <LongitudeDegrees>16.955407</LongitudeDegrees>
            </Position>
            <AltitudeMeters>838.0</AltitudeMeters>
            <DistanceMeters>35944.326971728</DistanceMeters>
          </Trackpoint>
          <Trackpoint>
            <Position>
              <LatitudeDegrees>50.201855</LatitudeDegrees>
              <LongitudeDegrees>16.955267</LongitudeDegrees>
            </Position>
            <AltitudeMeters>836.0</AltitudeMeters>
            <DistanceMeters>35955.249671485</DistanceMeters>
          </Trackpoint>
          <Trackpoint>
            <Position>
              <LatitudeDegrees>50.20194</LatitudeDegrees>
              <LongitudeDegrees>16.955213</LongitudeDegrees>
            </Position>
            <AltitudeMeters>833.0</AltitudeMeters>
            <DistanceMeters>35965.463164672</DistanceMeters>
          </Trackpoint>
          <Trackpoint>
            <Position>
              <LatitudeDegrees>50.20202</LatitudeDegrees>
              <LongitudeDegrees>16.955292</LongitudeDegrees>
            </Position>
            <AltitudeMeters>832.0</AltitudeMeters>
            <DistanceMeters>35975.996994903</DistanceMeters>
          </Trackpoint>
          <Trackpoint>
            <Position>
              <LatitudeDegrees>50.201957</LatitudeDegrees>
              <LongitudeDegrees>16.95518</LongitudeDegrees>
            </Position>
            <AltitudeMeters>827.0</AltitudeMeters>
            <DistanceMeters>35986.619604528</DistanceMeters>
          </Trackpoint>
          <Trackpoint>
            <Position>
              <LatitudeDegrees>50.201905</LatitudeDegrees>
              <LongitudeDegrees>16.955047</LongitudeDegrees>
            </Position>
            <AltitudeMeters>823.0</AltitudeMeters>
            <DistanceMeters>35997.722694351</DistanceMeters>
          </Trackpoint>
          <Trackpoint>
            <Position>
              <LatitudeDegrees>50.201992</LatitudeDegrees>
              <LongitudeDegrees>16.95497</LongitudeDegrees>
            </Position>
            <AltitudeMeters>821.0</AltitudeMeters>
            <DistanceMeters>36008.851779152</DistanceMeters>
          </Trackpoint>
          <Trackpoint>
            <Position>
              <LatitudeDegrees>50.2021</LatitudeDegrees>
              <LongitudeDegrees>16.95487</LongitudeDegrees>
            </Position>
            <AltitudeMeters>820.0</AltitudeMeters>
            <DistanceMeters>36022.824907394</DistanceMeters>
          </Trackpoint>
          <Trackpoint>
            <Position>
              <LatitudeDegrees>50.202245</LatitudeDegrees>
              <LongitudeDegrees>16.954712</LongitudeDegrees>
            </Position>
            <AltitudeMeters>820.0</AltitudeMeters>
            <DistanceMeters>36042.50117476</DistanceMeters>
          </Trackpoint>
          <Trackpoint>
            <Position>
              <LatitudeDegrees>50.202327</LatitudeDegrees>
              <LongitudeDegrees>16.95487</LongitudeDegrees>
            </Position>
            <AltitudeMeters>816.0</AltitudeMeters>
            <DistanceMeters>36056.992359243</DistanceMeters>
          </Trackpoint>
          <Trackpoint>
            <Position>
              <LatitudeDegrees>50.202435</LatitudeDegrees>
              <LongitudeDegrees>16.954962</LongitudeDegrees>
            </Position>
            <AltitudeMeters>817.0</AltitudeMeters>
            <DistanceMeters>36070.684122715</DistanceMeters>
          </Trackpoint>
          <Trackpoint>
            <Position>
              <LatitudeDegrees>50.20253</LatitudeDegrees>
              <LongitudeDegrees>16.955008</LongitudeDegrees>
            </Position>
            <AltitudeMeters>819.0</AltitudeMeters>
            <DistanceMeters>36081.754225127</DistanceMeters>
          </Trackpoint>
          <Trackpoint>
            <Position>
              <LatitudeDegrees>50.202622</LatitudeDegrees>
              <LongitudeDegrees>16.955032</LongitudeDegrees>
            </Position>
            <AltitudeMeters>822.0</AltitudeMeters>
            <DistanceMeters>36092.136083941</DistanceMeters>
          </Trackpoint>
          <Trackpoint>
            <Position>
              <LatitudeDegrees>50.202502</LatitudeDegrees>
              <LongitudeDegrees>16.95491</LongitudeDegrees>
            </Position>
            <AltitudeMeters>822.0</AltitudeMeters>
            <DistanceMeters>36108.07169845</DistanceMeters>
          </Trackpoint>
          <Trackpoint>
            <Position>
              <LatitudeDegrees>50.202402</LatitudeDegrees>
              <LongitudeDegrees>16.95486</LongitudeDegrees>
            </Position>
            <AltitudeMeters>819.0</AltitudeMeters>
            <DistanceMeters>36119.758439065</DistanceMeters>
          </Trackpoint>
          <Trackpoint>
            <Position>
              <LatitudeDegrees>50.20229</LatitudeDegrees>
              <LongitudeDegrees>16.954792</LongitudeDegrees>
            </Position>
            <AltitudeMeters>816.0</AltitudeMeters>
            <DistanceMeters>36133.132584055</DistanceMeters>
          </Trackpoint>
          <Trackpoint>
            <Position>
              <LatitudeDegrees>50.202222</LatitudeDegrees>
              <LongitudeDegrees>16.95465</LongitudeDegrees>
            </Position>
            <AltitudeMeters>809.0</AltitudeMeters>
            <DistanceMeters>36145.766849419</DistanceMeters>
          </Trackpoint>
          <Trackpoint>
            <Position>
              <LatitudeDegrees>50.202107</LatitudeDegrees>
              <LongitudeDegrees>16.95434</LongitudeDegrees>
            </Position>
            <AltitudeMeters>805.0</AltitudeMeters>
            <DistanceMeters>36171.292977719</DistanceMeters>
          </Trackpoint>
          <Trackpoint>
            <Position>
              <LatitudeDegrees>50.202067</LatitudeDegrees>
              <LongitudeDegrees>16.954178</LongitudeDegrees>
            </Position>
            <AltitudeMeters>813.0</AltitudeMeters>
            <DistanceMeters>36183.663251581</DistanceMeters>
          </Trackpoint>
          <Trackpoint>
            <Position>
              <LatitudeDegrees>50.202018</LatitudeDegrees>
              <LongitudeDegrees>16.954043</LongitudeDegrees>
            </Position>
            <AltitudeMeters>817.0</AltitudeMeters>
            <DistanceMeters>36194.719478099</DistanceMeters>
          </Trackpoint>
          <Trackpoint>
            <Position>
              <LatitudeDegrees>50.202115</LatitudeDegrees>
              <LongitudeDegrees>16.954095</LongitudeDegrees>
            </Position>
            <AltitudeMeters>815.0</AltitudeMeters>
            <DistanceMeters>36206.133764889</DistanceMeters>
          </Trackpoint>
          <Trackpoint>
            <Position>
              <LatitudeDegrees>50.202212</LatitudeDegrees>
              <LongitudeDegrees>16.954153</LongitudeDegrees>
            </Position>
            <AltitudeMeters>810.0</AltitudeMeters>
            <DistanceMeters>36217.69426364</DistanceMeters>
          </Trackpoint>
          <Trackpoint>
            <Position>
              <LatitudeDegrees>50.202312</LatitudeDegrees>
              <LongitudeDegrees>16.954163</LongitudeDegrees>
            </Position>
            <AltitudeMeters>800.0</AltitudeMeters>
            <DistanceMeters>36228.847663709</DistanceMeters>
          </Trackpoint>
          <Trackpoint>
            <Position>
              <LatitudeDegrees>50.20245</LatitudeDegrees>
              <LongitudeDegrees>16.953843</LongitudeDegrees>
            </Position>
            <AltitudeMeters>796.0</AltitudeMeters>
            <DistanceMeters>36256.336512299</DistanceMeters>
          </Trackpoint>
          <Trackpoint>
            <Position>
              <LatitudeDegrees>50.20235</LatitudeDegrees>
              <LongitudeDegrees>16.953798</LongitudeDegrees>
            </Position>
            <AltitudeMeters>803.0</AltitudeMeters>
            <DistanceMeters>36267.918861614</DistanceMeters>
          </Trackpoint>
          <Trackpoint>
            <Position>
              <LatitudeDegrees>50.20229</LatitudeDegrees>
              <LongitudeDegrees>16.953925</LongitudeDegrees>
            </Position>
            <AltitudeMeters>801.0</AltitudeMeters>
            <DistanceMeters>36279.164180219</DistanceMeters>
          </Trackpoint>
          <Trackpoint>
            <Position>
              <LatitudeDegrees>50.202337</LatitudeDegrees>
              <LongitudeDegrees>16.95405</LongitudeDegrees>
            </Position>
            <AltitudeMeters>789.0</AltitudeMeters>
            <DistanceMeters>36289.491971026</DistanceMeters>
          </Trackpoint>
          <Trackpoint>
            <Position>
              <LatitudeDegrees>50.202427</LatitudeDegrees>
              <LongitudeDegrees>16.954</LongitudeDegrees>
            </Position>
            <AltitudeMeters>779.0</AltitudeMeters>
            <DistanceMeters>36300.123927428</DistanceMeters>
          </Trackpoint>
          <Trackpoint>
            <Position>
              <LatitudeDegrees>50.20248</LatitudeDegrees>
              <LongitudeDegrees>16.953877</LongitudeDegrees>
            </Position>
            <AltitudeMeters>740.0</AltitudeMeters>
            <DistanceMeters>36310.68729122</DistanceMeters>
          </Trackpoint>
          <Trackpoint>
            <Position>
              <LatitudeDegrees>50.202518</LatitudeDegrees>
              <LongitudeDegrees>16.953722</LongitudeDegrees>
            </Position>
            <AltitudeMeters>732.0</AltitudeMeters>
            <DistanceMeters>36322.511913991</DistanceMeters>
          </Trackpoint>
          <Trackpoint>
            <Position>
              <LatitudeDegrees>50.202583</LatitudeDegrees>
              <LongitudeDegrees>16.9536</LongitudeDegrees>
            </Position>
            <AltitudeMeters>735.0</AltitudeMeters>
            <DistanceMeters>36333.820492266</DistanceMeters>
          </Trackpoint>
          <Trackpoint>
            <Position>
              <LatitudeDegrees>50.202675</LatitudeDegrees>
              <LongitudeDegrees>16.953548</LongitudeDegrees>
            </Position>
            <AltitudeMeters>736.0</AltitudeMeters>
            <DistanceMeters>36344.710072784</DistanceMeters>
          </Trackpoint>
          <Trackpoint>
            <Position>
              <LatitudeDegrees>50.202728</LatitudeDegrees>
              <LongitudeDegrees>16.95343</LongitudeDegrees>
            </Position>
            <AltitudeMeters>732.0</AltitudeMeters>
            <DistanceMeters>36354.979115227</DistanceMeters>
          </Trackpoint>
          <Trackpoint>
            <Position>
              <LatitudeDegrees>50.202845</LatitudeDegrees>
              <LongitudeDegrees>16.953488</LongitudeDegrees>
            </Position>
            <AltitudeMeters>733.0</AltitudeMeters>
            <DistanceMeters>36368.641167785</DistanceMeters>
          </Trackpoint>
          <Trackpoint>
            <Position>
              <LatitudeDegrees>50.202938</LatitudeDegrees>
              <LongitudeDegrees>16.953543</LongitudeDegrees>
            </Position>
            <AltitudeMeters>734.0</AltitudeMeters>
            <DistanceMeters>36379.708822775</DistanceMeters>
          </Trackpoint>
          <Trackpoint>
            <Position>
              <LatitudeDegrees>50.203033</LatitudeDegrees>
              <LongitudeDegrees>16.953617</LongitudeDegrees>
            </Position>
            <AltitudeMeters>736.0</AltitudeMeters>
            <DistanceMeters>36391.523513701</DistanceMeters>
          </Trackpoint>
          <Trackpoint>
            <Position>
              <LatitudeDegrees>50.203133</LatitudeDegrees>
              <LongitudeDegrees>16.953602</LongitudeDegrees>
            </Position>
            <AltitudeMeters>736.0</AltitudeMeters>
            <DistanceMeters>36402.704810958</DistanceMeters>
          </Trackpoint>
          <Trackpoint>
            <Position>
              <LatitudeDegrees>50.203242</LatitudeDegrees>
              <LongitudeDegrees>16.953637</LongitudeDegrees>
            </Position>
            <AltitudeMeters>738.0</AltitudeMeters>
            <DistanceMeters>36415.090404954</DistanceMeters>
          </Trackpoint>
          <Trackpoint>
            <Position>
              <LatitudeDegrees>50.20334</LatitudeDegrees>
              <LongitudeDegrees>16.953602</LongitudeDegrees>
            </Position>
            <AltitudeMeters>739.0</AltitudeMeters>
            <DistanceMeters>36426.279371833</DistanceMeters>
          </Trackpoint>
          <Trackpoint>
            <Position>
              <LatitudeDegrees>50.203748</LatitudeDegrees>
              <LongitudeDegrees>16.953253</LongitudeDegrees>
            </Position>
            <AltitudeMeters>740.0</AltitudeMeters>
            <DistanceMeters>36478.051317714</DistanceMeters>
          </Trackpoint>
          <Trackpoint>
            <Position>
              <LatitudeDegrees>50.20383</LatitudeDegrees>
              <LongitudeDegrees>16.953332</LongitudeDegrees>
            </Position>
            <AltitudeMeters>740.0</AltitudeMeters>
            <DistanceMeters>36488.773767681</DistanceMeters>
          </Trackpoint>
          <Trackpoint>
            <Position>
              <LatitudeDegrees>50.203897</LatitudeDegrees>
              <LongitudeDegrees>16.95323</LongitudeDegrees>
            </Position>
            <AltitudeMeters>738.0</AltitudeMeters>
            <DistanceMeters>36499.186024775</DistanceMeters>
          </Trackpoint>
          <Trackpoint>
            <Position>
              <LatitudeDegrees>50.204</LatitudeDegrees>
              <LongitudeDegrees>16.953202</LongitudeDegrees>
            </Position>
            <AltitudeMeters>740.0</AltitudeMeters>
            <DistanceMeters>36510.822820998</DistanceMeters>
          </Trackpoint>
          <Trackpoint>
            <Position>
              <LatitudeDegrees>50.204107</LatitudeDegrees>
              <LongitudeDegrees>16.95321</LongitudeDegrees>
            </Position>
            <AltitudeMeters>739.0</AltitudeMeters>
            <DistanceMeters>36522.746307214</DistanceMeters>
          </Trackpoint>
          <Trackpoint>
            <Position>
              <LatitudeDegrees>50.204208</LatitudeDegrees>
              <LongitudeDegrees>16.953267</LongitudeDegrees>
            </Position>
            <AltitudeMeters>738.0</AltitudeMeters>
            <DistanceMeters>36534.698537522</DistanceMeters>
          </Trackpoint>
          <Trackpoint>
            <Position>
              <LatitudeDegrees>50.204313</LatitudeDegrees>
              <LongitudeDegrees>16.953287</LongitudeDegrees>
            </Position>
            <AltitudeMeters>738.0</AltitudeMeters>
            <DistanceMeters>36546.471883411</DistanceMeters>
          </Trackpoint>
          <Trackpoint>
            <Position>
              <LatitudeDegrees>50.204368</LatitudeDegrees>
              <LongitudeDegrees>16.953167</LongitudeDegrees>
            </Position>
            <AltitudeMeters>737.0</AltitudeMeters>
            <DistanceMeters>36556.985978514</DistanceMeters>
          </Trackpoint>
          <Trackpoint>
            <Position>
              <LatitudeDegrees>50.204453</LatitudeDegrees>
              <LongitudeDegrees>16.953097</LongitudeDegrees>
            </Position>
            <AltitudeMeters>739.0</AltitudeMeters>
            <DistanceMeters>36567.680600912</DistanceMeters>
          </Trackpoint>
          <Trackpoint>
            <Position>
              <LatitudeDegrees>50.204545</LatitudeDegrees>
              <LongitudeDegrees>16.953055</LongitudeDegrees>
            </Position>
            <AltitudeMeters>740.0</AltitudeMeters>
            <DistanceMeters>36578.348169676</DistanceMeters>
          </Trackpoint>
          <Trackpoint>
            <Position>
              <LatitudeDegrees>50.204647</LatitudeDegrees>
              <LongitudeDegrees>16.953022</LongitudeDegrees>
            </Position>
            <AltitudeMeters>740.0</AltitudeMeters>
            <DistanceMeters>36589.94142883</DistanceMeters>
          </Trackpoint>
          <Trackpoint>
            <Position>
              <LatitudeDegrees>50.20473</LatitudeDegrees>
              <LongitudeDegrees>16.953088</LongitudeDegrees>
            </Position>
            <AltitudeMeters>742.0</AltitudeMeters>
            <DistanceMeters>36600.306748387</DistanceMeters>
          </Trackpoint>
          <Trackpoint>
            <Position>
              <LatitudeDegrees>50.204832</LatitudeDegrees>
              <LongitudeDegrees>16.953082</LongitudeDegrees>
            </Position>
            <AltitudeMeters>742.0</AltitudeMeters>
            <DistanceMeters>36611.667906457</DistanceMeters>
          </Trackpoint>
          <Trackpoint>
            <Position>
              <LatitudeDegrees>50.204902</LatitudeDegrees>
              <LongitudeDegrees>16.952993</LongitudeDegrees>
            </Position>
            <AltitudeMeters>743.0</AltitudeMeters>
            <DistanceMeters>36621.712908905</DistanceMeters>
          </Trackpoint>
          <Trackpoint>
            <Position>
              <LatitudeDegrees>50.204995</LatitudeDegrees>
              <LongitudeDegrees>16.95296</LongitudeDegrees>
            </Position>
            <AltitudeMeters>741.0</AltitudeMeters>
            <DistanceMeters>36632.327014318</DistanceMeters>
          </Trackpoint>
          <Trackpoint>
            <Position>
              <LatitudeDegrees>50.205088</LatitudeDegrees>
              <LongitudeDegrees>16.95299</LongitudeDegrees>
            </Position>
            <AltitudeMeters>740.0</AltitudeMeters>
            <DistanceMeters>36642.896787531</DistanceMeters>
          </Trackpoint>
          <Trackpoint>
            <Position>
              <LatitudeDegrees>50.205175</LatitudeDegrees>
              <LongitudeDegrees>16.9531</LongitudeDegrees>
            </Position>
            <AltitudeMeters>739.0</AltitudeMeters>
            <DistanceMeters>36655.35362636</DistanceMeters>
          </Trackpoint>
          <Trackpoint>
            <Position>
              <LatitudeDegrees>50.205265</LatitudeDegrees>
              <LongitudeDegrees>16.953073</LongitudeDegrees>
            </Position>
            <AltitudeMeters>736.0</AltitudeMeters>
            <DistanceMeters>36665.553848945</DistanceMeters>
          </Trackpoint>
          <Trackpoint>
            <Position>
              <LatitudeDegrees>50.205278</LatitudeDegrees>
              <LongitudeDegrees>16.952928</LongitudeDegrees>
            </Position>
            <AltitudeMeters>735.0</AltitudeMeters>
            <DistanceMeters>36675.984302482</DistanceMeters>
          </Trackpoint>
          <Trackpoint>
            <Position>
              <LatitudeDegrees>50.205298</LatitudeDegrees>
              <LongitudeDegrees>16.952778</LongitudeDegrees>
            </Position>
            <AltitudeMeters>734.0</AltitudeMeters>
            <DistanceMeters>36686.899145519</DistanceMeters>
          </Trackpoint>
          <Trackpoint>
            <Position>
              <LatitudeDegrees>50.205255</LatitudeDegrees>
              <LongitudeDegrees>16.952623</LongitudeDegrees>
            </Position>
            <AltitudeMeters>736.0</AltitudeMeters>
            <DistanceMeters>36698.933445084</DistanceMeters>
          </Trackpoint>
          <Trackpoint>
            <Position>
              <LatitudeDegrees>50.205173</LatitudeDegrees>
              <LongitudeDegrees>16.952563</LongitudeDegrees>
            </Position>
            <AltitudeMeters>743.0</AltitudeMeters>
            <DistanceMeters>36709.012102233</DistanceMeters>
          </Trackpoint>
          <Trackpoint>
            <Position>
              <LatitudeDegrees>50.205185</LatitudeDegrees>
              <LongitudeDegrees>16.952408</LongitudeDegrees>
            </Position>
            <AltitudeMeters>750.0</AltitudeMeters>
            <DistanceMeters>36720.134693985</DistanceMeters>
          </Trackpoint>
          <Trackpoint>
            <Position>
              <LatitudeDegrees>50.205198</LatitudeDegrees>
              <LongitudeDegrees>16.95227</LongitudeDegrees>
            </Position>
            <AltitudeMeters>756.0</AltitudeMeters>
            <DistanceMeters>36730.071689804</DistanceMeters>
          </Trackpoint>
          <Trackpoint>
            <Position>
              <LatitudeDegrees>50.205267</LatitudeDegrees>
              <LongitudeDegrees>16.952157</LongitudeDegrees>
            </Position>
            <AltitudeMeters>757.0</AltitudeMeters>
            <DistanceMeters>36741.197528554</DistanceMeters>
          </Trackpoint>
          <Trackpoint>
            <Position>
              <LatitudeDegrees>50.205255</LatitudeDegrees>
              <LongitudeDegrees>16.952007</LongitudeDegrees>
            </Position>
            <AltitudeMeters>757.0</AltitudeMeters>
            <DistanceMeters>36751.966198003</DistanceMeters>
          </Trackpoint>
          <Trackpoint>
            <Position>
              <LatitudeDegrees>50.205343</LatitudeDegrees>
              <LongitudeDegrees>16.951907</LongitudeDegrees>
            </Position>
            <AltitudeMeters>759.0</AltitudeMeters>
            <DistanceMeters>36764.077538216</DistanceMeters>
          </Trackpoint>
          <Trackpoint>
            <Position>
              <LatitudeDegrees>50.205428</LatitudeDegrees>
              <LongitudeDegrees>16.951817</LongitudeDegrees>
            </Position>
            <AltitudeMeters>761.0</AltitudeMeters>
            <DistanceMeters>36775.506056304</DistanceMeters>
          </Trackpoint>
          <Trackpoint>
            <Position>
              <LatitudeDegrees>50.20551</LatitudeDegrees>
              <LongitudeDegrees>16.95172</LongitudeDegrees>
            </Position>
            <AltitudeMeters>762.0</AltitudeMeters>
            <DistanceMeters>36786.953521934</DistanceMeters>
          </Trackpoint>
          <Trackpoint>
            <Position>
              <LatitudeDegrees>50.205623</LatitudeDegrees>
              <LongitudeDegrees>16.951697</LongitudeDegrees>
            </Position>
            <AltitudeMeters>763.0</AltitudeMeters>
            <DistanceMeters>36799.637007726</DistanceMeters>
          </Trackpoint>
          <Trackpoint>
            <Position>
              <LatitudeDegrees>50.205695</LatitudeDegrees>
              <LongitudeDegrees>16.951605</LongitudeDegrees>
            </Position>
            <AltitudeMeters>763.0</AltitudeMeters>
            <DistanceMeters>36809.990123556</DistanceMeters>
          </Trackpoint>
          <Trackpoint>
            <Position>
              <LatitudeDegrees>50.205792</LatitudeDegrees>
              <LongitudeDegrees>16.951558</LongitudeDegrees>
            </Position>
            <AltitudeMeters>760.0</AltitudeMeters>
            <DistanceMeters>36821.293510288</DistanceMeters>
          </Trackpoint>
          <Trackpoint>
            <Position>
              <LatitudeDegrees>50.205888</LatitudeDegrees>
              <LongitudeDegrees>16.951512</LongitudeDegrees>
            </Position>
            <AltitudeMeters>760.0</AltitudeMeters>
            <DistanceMeters>36832.469556878</DistanceMeters>
          </Trackpoint>
          <Trackpoint>
            <Position>
              <LatitudeDegrees>50.205978</LatitudeDegrees>
              <LongitudeDegrees>16.951467</LongitudeDegrees>
            </Position>
            <AltitudeMeters>761.0</AltitudeMeters>
            <DistanceMeters>36842.987086837</DistanceMeters>
          </Trackpoint>
          <Trackpoint>
            <Position>
              <LatitudeDegrees>50.206033</LatitudeDegrees>
              <LongitudeDegrees>16.951342</LongitudeDegrees>
            </Position>
            <AltitudeMeters>762.0</AltitudeMeters>
            <DistanceMeters>36853.793425188</DistanceMeters>
          </Trackpoint>
          <Trackpoint>
            <Position>
              <LatitudeDegrees>50.206037</LatitudeDegrees>
              <LongitudeDegrees>16.951197</LongitudeDegrees>
            </Position>
            <AltitudeMeters>762.0</AltitudeMeters>
            <DistanceMeters>36864.13213956</DistanceMeters>
          </Trackpoint>
          <Trackpoint>
            <Position>
              <LatitudeDegrees>50.206122</LatitudeDegrees>
              <LongitudeDegrees>16.95131</LongitudeDegrees>
            </Position>
            <AltitudeMeters>763.0</AltitudeMeters>
            <DistanceMeters>36876.55377054</DistanceMeters>
          </Trackpoint>
          <Trackpoint>
            <Position>
              <LatitudeDegrees>50.206207</LatitudeDegrees>
              <LongitudeDegrees>16.95124</LongitudeDegrees>
            </Position>
            <AltitudeMeters>763.0</AltitudeMeters>
            <DistanceMeters>36887.248392938</DistanceMeters>
          </Trackpoint>
          <Trackpoint>
            <Position>
              <LatitudeDegrees>50.20627</LatitudeDegrees>
              <LongitudeDegrees>16.951137</LongitudeDegrees>
            </Position>
            <AltitudeMeters>760.0</AltitudeMeters>
            <DistanceMeters>36897.397139261</DistanceMeters>
          </Trackpoint>
          <Trackpoint>
            <Position>
              <LatitudeDegrees>50.206332</LatitudeDegrees>
              <LongitudeDegrees>16.951033</LongitudeDegrees>
            </Position>
            <AltitudeMeters>762.0</AltitudeMeters>
            <DistanceMeters>36907.520941296</DistanceMeters>
          </Trackpoint>
          <Trackpoint>
            <Position>
              <LatitudeDegrees>50.206343</LatitudeDegrees>
              <LongitudeDegrees>16.950885</LongitudeDegrees>
            </Position>
            <AltitudeMeters>761.0</AltitudeMeters>
            <DistanceMeters>36918.135046709</DistanceMeters>
          </Trackpoint>
          <Trackpoint>
            <Position>
              <LatitudeDegrees>50.206428</LatitudeDegrees>
              <LongitudeDegrees>16.95078</LongitudeDegrees>
            </Position>
            <AltitudeMeters>767.0</AltitudeMeters>
            <DistanceMeters>36930.195580335</DistanceMeters>
          </Trackpoint>
          <Trackpoint>
            <Position>
              <LatitudeDegrees>50.206515</LatitudeDegrees>
              <LongitudeDegrees>16.950717</LongitudeDegrees>
            </Position>
            <AltitudeMeters>770.0</AltitudeMeters>
            <DistanceMeters>36940.86822688</DistanceMeters>
          </Trackpoint>
          <Trackpoint>
            <Position>
              <LatitudeDegrees>50.20661</LatitudeDegrees>
              <LongitudeDegrees>16.950695</LongitudeDegrees>
            </Position>
            <AltitudeMeters>771.0</AltitudeMeters>
            <DistanceMeters>36951.55735955</DistanceMeters>
          </Trackpoint>
          <Trackpoint>
            <Position>
              <LatitudeDegrees>50.20669</LatitudeDegrees>
              <LongitudeDegrees>16.950613</LongitudeDegrees>
            </Position>
            <AltitudeMeters>771.0</AltitudeMeters>
            <DistanceMeters>36962.206713054</DistanceMeters>
          </Trackpoint>
          <Trackpoint>
            <Position>
              <LatitudeDegrees>50.206748</LatitudeDegrees>
              <LongitudeDegrees>16.950503</LongitudeDegrees>
            </Position>
            <AltitudeMeters>772.0</AltitudeMeters>
            <DistanceMeters>36972.359462564</DistanceMeters>
          </Trackpoint>
          <Trackpoint>
            <Position>
              <LatitudeDegrees>50.206812</LatitudeDegrees>
              <LongitudeDegrees>16.950397</LongitudeDegrees>
            </Position>
            <AltitudeMeters>772.0</AltitudeMeters>
            <DistanceMeters>36982.740016605</DistanceMeters>
          </Trackpoint>
          <Trackpoint>
            <Position>
              <LatitudeDegrees>50.206887</LatitudeDegrees>
              <LongitudeDegrees>16.950305</LongitudeDegrees>
            </Position>
            <AltitudeMeters>774.0</AltitudeMeters>
            <DistanceMeters>36993.352845799</DistanceMeters>
          </Trackpoint>
          <Trackpoint>
            <Position>
              <LatitudeDegrees>50.206977</LatitudeDegrees>
              <LongitudeDegrees>16.950238</LongitudeDegrees>
            </Position>
            <AltitudeMeters>775.0</AltitudeMeters>
            <DistanceMeters>37004.449020469</DistanceMeters>
          </Trackpoint>
          <Trackpoint>
            <Position>
              <LatitudeDegrees>50.207062</LatitudeDegrees>
              <LongitudeDegrees>16.950177</LongitudeDegrees>
            </Position>
            <AltitudeMeters>776.0</AltitudeMeters>
            <DistanceMeters>37014.8599766</DistanceMeters>
          </Trackpoint>
          <Trackpoint>
            <Position>
              <LatitudeDegrees>50.207153</LatitudeDegrees>
              <LongitudeDegrees>16.950118</LongitudeDegrees>
            </Position>
            <AltitudeMeters>779.0</AltitudeMeters>
            <DistanceMeters>37025.825581824</DistanceMeters>
          </Trackpoint>
          <Trackpoint>
            <Position>
              <LatitudeDegrees>50.207243</LatitudeDegrees>
              <LongitudeDegrees>16.950057</LongitudeDegrees>
            </Position>
            <AltitudeMeters>782.0</AltitudeMeters>
            <DistanceMeters>37036.74414717</DistanceMeters>
          </Trackpoint>
          <Trackpoint>
            <Position>
              <LatitudeDegrees>50.207335</LatitudeDegrees>
              <LongitudeDegrees>16.949993</LongitudeDegrees>
            </Position>
            <AltitudeMeters>783.0</AltitudeMeters>
            <DistanceMeters>37047.952466557</DistanceMeters>
          </Trackpoint>
          <Trackpoint>
            <Position>
              <LatitudeDegrees>50.207405</LatitudeDegrees>
              <LongitudeDegrees>16.949895</LongitudeDegrees>
            </Position>
            <AltitudeMeters>785.0</AltitudeMeters>
            <DistanceMeters>37058.413177161</DistanceMeters>
          </Trackpoint>
          <Trackpoint>
            <Position>
              <LatitudeDegrees>50.207425</LatitudeDegrees>
              <LongitudeDegrees>16.949757</LongitudeDegrees>
            </Position>
            <AltitudeMeters>785.0</AltitudeMeters>
            <DistanceMeters>37068.49228228</DistanceMeters>
          </Trackpoint>
          <Trackpoint>
            <Position>
              <LatitudeDegrees>50.207497</LatitudeDegrees>
              <LongitudeDegrees>16.949663</LongitudeDegrees>
            </Position>
            <AltitudeMeters>785.0</AltitudeMeters>
            <DistanceMeters>37078.935713866</DistanceMeters>
          </Trackpoint>
          <Trackpoint>
            <Position>
              <LatitudeDegrees>50.207547</LatitudeDegrees>
              <LongitudeDegrees>16.949543</LongitudeDegrees>
            </Position>
            <AltitudeMeters>787.0</AltitudeMeters>
            <DistanceMeters>37089.135936451</DistanceMeters>
          </Trackpoint>
          <Trackpoint>
            <Position>
              <LatitudeDegrees>50.207607</LatitudeDegrees>
              <LongitudeDegrees>16.949418</LongitudeDegrees>
            </Position>
            <AltitudeMeters>787.0</AltitudeMeters>
            <DistanceMeters>37100.266643922</DistanceMeters>
          </Trackpoint>
          <Trackpoint>
            <Position>
              <LatitudeDegrees>50.207695</LatitudeDegrees>
              <LongitudeDegrees>16.949337</LongitudeDegrees>
            </Position>
            <AltitudeMeters>788.0</AltitudeMeters>
            <DistanceMeters>37111.634158775</DistanceMeters>
          </Trackpoint>
          <Trackpoint>
            <Position>
              <LatitudeDegrees>50.207785</LatitudeDegrees>
              <LongitudeDegrees>16.94928</LongitudeDegrees>
            </Position>
            <AltitudeMeters>790.0</AltitudeMeters>
            <DistanceMeters>37122.443003719</DistanceMeters>
          </Trackpoint>
          <Trackpoint>
            <Position>
              <LatitudeDegrees>50.207835</LatitudeDegrees>
              <LongitudeDegrees>16.949162</LongitudeDegrees>
            </Position>
            <AltitudeMeters>791.0</AltitudeMeters>
            <DistanceMeters>37132.523900519</DistanceMeters>
          </Trackpoint>
          <Trackpoint>
            <Position>
              <LatitudeDegrees>50.207885</LatitudeDegrees>
              <LongitudeDegrees>16.949023</LongitudeDegrees>
            </Position>
            <AltitudeMeters>793.0</AltitudeMeters>
            <DistanceMeters>37143.881878864</DistanceMeters>
          </Trackpoint>
          <Trackpoint>
            <Position>
              <LatitudeDegrees>50.207945</LatitudeDegrees>
              <LongitudeDegrees>16.948912</LongitudeDegrees>
            </Position>
            <AltitudeMeters>795.0</AltitudeMeters>
            <DistanceMeters>37154.231941514</DistanceMeters>
          </Trackpoint>
          <Trackpoint>
            <Position>
              <LatitudeDegrees>50.208</LatitudeDegrees>
              <LongitudeDegrees>16.94879</LongitudeDegrees>
            </Position>
            <AltitudeMeters>796.0</AltitudeMeters>
            <DistanceMeters>37164.86177437</DistanceMeters>
          </Trackpoint>
          <Trackpoint>
            <Position>
              <LatitudeDegrees>50.20807</LatitudeDegrees>
              <LongitudeDegrees>16.9487</LongitudeDegrees>
            </Position>
            <AltitudeMeters>797.0</AltitudeMeters>
            <DistanceMeters>37174.951177313</DistanceMeters>
          </Trackpoint>
          <Trackpoint>
            <Position>
              <LatitudeDegrees>50.208145</LatitudeDegrees>
              <LongitudeDegrees>16.948595</LongitudeDegrees>
            </Position>
            <AltitudeMeters>798.0</AltitudeMeters>
            <DistanceMeters>37186.1594967</DistanceMeters>
          </Trackpoint>
          <Trackpoint>
            <Position>
              <LatitudeDegrees>50.20819</LatitudeDegrees>
              <LongitudeDegrees>16.94845</LongitudeDegrees>
            </Position>
            <AltitudeMeters>798.0</AltitudeMeters>
            <DistanceMeters>37197.638472067</DistanceMeters>
          </Trackpoint>
          <Trackpoint>
            <Position>
              <LatitudeDegrees>50.208225</LatitudeDegrees>
              <LongitudeDegrees>16.948305</LongitudeDegrees>
            </Position>
            <AltitudeMeters>799.0</AltitudeMeters>
            <DistanceMeters>37208.677124681</DistanceMeters>
          </Trackpoint>
          <Trackpoint>
            <Position>
              <LatitudeDegrees>50.208265</LatitudeDegrees>
              <LongitudeDegrees>16.948165</LongitudeDegrees>
            </Position>
            <AltitudeMeters>801.0</AltitudeMeters>
            <DistanceMeters>37219.598170861</DistanceMeters>
          </Trackpoint>
          <Trackpoint>
            <Position>
              <LatitudeDegrees>50.20829</LatitudeDegrees>
              <LongitudeDegrees>16.948008</LongitudeDegrees>
            </Position>
            <AltitudeMeters>802.0</AltitudeMeters>
            <DistanceMeters>37231.122682319</DistanceMeters>
          </Trackpoint>
          <Trackpoint>
            <Position>
              <LatitudeDegrees>50.208328</LatitudeDegrees>
              <LongitudeDegrees>16.947858</LongitudeDegrees>
            </Position>
            <AltitudeMeters>804.0</AltitudeMeters>
            <DistanceMeters>37242.614237389</DistanceMeters>
          </Trackpoint>
          <Trackpoint>
            <Position>
              <LatitudeDegrees>50.208318</LatitudeDegrees>
              <LongitudeDegrees>16.94771</LongitudeDegrees>
            </Position>
            <AltitudeMeters>805.0</AltitudeMeters>
            <DistanceMeters>37253.215573692</DistanceMeters>
          </Trackpoint>
          <Trackpoint>
            <Position>
              <LatitudeDegrees>50.208348</LatitudeDegrees>
              <LongitudeDegrees>16.947562</LongitudeDegrees>
            </Position>
            <AltitudeMeters>806.0</AltitudeMeters>
            <DistanceMeters>37264.274658435</DistanceMeters>
          </Trackpoint>
          <Trackpoint>
            <Position>
              <LatitudeDegrees>50.208327</LatitudeDegrees>
              <LongitudeDegrees>16.947412</LongitudeDegrees>
            </Position>
            <AltitudeMeters>807.0</AltitudeMeters>
            <DistanceMeters>37275.212229131</DistanceMeters>
          </Trackpoint>
          <Trackpoint>
            <Position>
              <LatitudeDegrees>50.20828</LatitudeDegrees>
              <LongitudeDegrees>16.947277</LongitudeDegrees>
            </Position>
            <AltitudeMeters>807.0</AltitudeMeters>
            <DistanceMeters>37286.158877678</DistanceMeters>
          </Trackpoint>
          <Trackpoint>
            <Position>
              <LatitudeDegrees>50.208283</LatitudeDegrees>
              <LongitudeDegrees>16.947123</LongitudeDegrees>
            </Position>
            <AltitudeMeters>807.0</AltitudeMeters>
            <DistanceMeters>37297.133537564</DistanceMeters>
          </Trackpoint>
          <Trackpoint>
            <Position>
              <LatitudeDegrees>50.208228</LatitudeDegrees>
              <LongitudeDegrees>16.947002</LongitudeDegrees>
            </Position>
            <AltitudeMeters>807.0</AltitudeMeters>
            <DistanceMeters>37307.705019299</DistanceMeters>
          </Trackpoint>
          <Trackpoint>
            <Position>
              <LatitudeDegrees>50.208218</LatitudeDegrees>
              <LongitudeDegrees>16.946853</LongitudeDegrees>
            </Position>
            <AltitudeMeters>809.0</AltitudeMeters>
            <DistanceMeters>37318.376819715</DistanceMeters>
          </Trackpoint>
          <Trackpoint>
            <Position>
              <LatitudeDegrees>50.208198</LatitudeDegrees>
              <LongitudeDegrees>16.946708</LongitudeDegrees>
            </Position>
            <AltitudeMeters>810.0</AltitudeMeters>
            <DistanceMeters>37328.942747742</DistanceMeters>
          </Trackpoint>
          <Trackpoint>
            <Position>
              <LatitudeDegrees>50.20818</LatitudeDegrees>
              <LongitudeDegrees>16.946567</LongitudeDegrees>
            </Position>
            <AltitudeMeters>811.0</AltitudeMeters>
            <DistanceMeters>37339.184494076</DistanceMeters>
          </Trackpoint>
          <Trackpoint>
            <Position>
              <LatitudeDegrees>50.208147</LatitudeDegrees>
              <LongitudeDegrees>16.946423</LongitudeDegrees>
            </Position>
            <AltitudeMeters>811.0</AltitudeMeters>
            <DistanceMeters>37350.08029212</DistanceMeters>
          </Trackpoint>
          <Trackpoint>
            <Position>
              <LatitudeDegrees>50.208055</LatitudeDegrees>
              <LongitudeDegrees>16.946438</LongitudeDegrees>
            </Position>
            <AltitudeMeters>815.0</AltitudeMeters>
            <DistanceMeters>37360.375681248</DistanceMeters>
          </Trackpoint>
          <Trackpoint>
            <Position>
              <LatitudeDegrees>50.20797</LatitudeDegrees>
              <LongitudeDegrees>16.946347</LongitudeDegrees>
            </Position>
            <AltitudeMeters>817.0</AltitudeMeters>
            <DistanceMeters>37371.843638055</DistanceMeters>
          </Trackpoint>
          <Trackpoint>
            <Position>
              <LatitudeDegrees>50.207903</LatitudeDegrees>
              <LongitudeDegrees>16.946253</LongitudeDegrees>
            </Position>
            <AltitudeMeters>818.0</AltitudeMeters>
            <DistanceMeters>37381.865240233</DistanceMeters>
          </Trackpoint>
          <Trackpoint>
            <Position>
              <LatitudeDegrees>50.207825</LatitudeDegrees>
              <LongitudeDegrees>16.946183</LongitudeDegrees>
            </Position>
            <AltitudeMeters>821.0</AltitudeMeters>
            <DistanceMeters>37391.876925832</DistanceMeters>
          </Trackpoint>
          <Trackpoint>
            <Position>
              <LatitudeDegrees>50.207725</LatitudeDegrees>
              <LongitudeDegrees>16.946175</LongitudeDegrees>
            </Position>
            <AltitudeMeters>822.0</AltitudeMeters>
            <DistanceMeters>37403.021821591</DistanceMeters>
          </Trackpoint>
          <Trackpoint>
            <Position>
              <LatitudeDegrees>50.207642</LatitudeDegrees>
              <LongitudeDegrees>16.946105</LongitudeDegrees>
            </Position>
            <AltitudeMeters>824.0</AltitudeMeters>
            <DistanceMeters>37413.519585778</DistanceMeters>
          </Trackpoint>
          <Trackpoint>
            <Position>
              <LatitudeDegrees>50.207557</LatitudeDegrees>
              <LongitudeDegrees>16.946045</LongitudeDegrees>
            </Position>
            <AltitudeMeters>827.0</AltitudeMeters>
            <DistanceMeters>37423.901009686</DistanceMeters>
          </Trackpoint>
          <Trackpoint>
            <Position>
              <LatitudeDegrees>50.2075</LatitudeDegrees>
              <LongitudeDegrees>16.945925</LongitudeDegrees>
            </Position>
            <AltitudeMeters>827.0</AltitudeMeters>
            <DistanceMeters>37434.546122616</DistanceMeters>
          </Trackpoint>
          <Trackpoint>
            <Position>
              <LatitudeDegrees>50.207435</LatitudeDegrees>
              <LongitudeDegrees>16.945823</LongitudeDegrees>
            </Position>
            <AltitudeMeters>828.0</AltitudeMeters>
            <DistanceMeters>37444.799324553</DistanceMeters>
          </Trackpoint>
          <Trackpoint>
            <Position>
              <LatitudeDegrees>50.20737</LatitudeDegrees>
              <LongitudeDegrees>16.945713</LongitudeDegrees>
            </Position>
            <AltitudeMeters>831.0</AltitudeMeters>
            <DistanceMeters>37455.464353521</DistanceMeters>
          </Trackpoint>
          <Trackpoint>
            <Position>
              <LatitudeDegrees>50.207277</LatitudeDegrees>
              <LongitudeDegrees>16.945732</LongitudeDegrees>
            </Position>
            <AltitudeMeters>835.0</AltitudeMeters>
            <DistanceMeters>37465.903893386</DistanceMeters>
          </Trackpoint>
          <Trackpoint>
            <Position>
              <LatitudeDegrees>50.207213</LatitudeDegrees>
              <LongitudeDegrees>16.945833</LongitudeDegrees>
            </Position>
            <AltitudeMeters>836.0</AltitudeMeters>
            <DistanceMeters>37476.028587347</DistanceMeters>
          </Trackpoint>
          <Trackpoint>
            <Position>
              <LatitudeDegrees>50.207165</LatitudeDegrees>
              <LongitudeDegrees>16.94595</LongitudeDegrees>
            </Position>
            <AltitudeMeters>839.0</AltitudeMeters>
            <DistanceMeters>37485.928711069</DistanceMeters>
          </Trackpoint>
          <Trackpoint>
            <Position>
              <LatitudeDegrees>50.207067</LatitudeDegrees>
              <LongitudeDegrees>16.945958</LongitudeDegrees>
            </Position>
            <AltitudeMeters>846.0</AltitudeMeters>
            <DistanceMeters>37496.851410826</DistanceMeters>
          </Trackpoint>
          <Trackpoint>
            <Position>
              <LatitudeDegrees>50.206977</LatitudeDegrees>
              <LongitudeDegrees>16.946025</LongitudeDegrees>
            </Position>
            <AltitudeMeters>848.0</AltitudeMeters>
            <DistanceMeters>37507.947585496</DistanceMeters>
          </Trackpoint>
          <Trackpoint>
            <Position>
              <LatitudeDegrees>50.206897</LatitudeDegrees>
              <LongitudeDegrees>16.94609</LongitudeDegrees>
            </Position>
            <AltitudeMeters>849.0</AltitudeMeters>
            <DistanceMeters>37517.983594297</DistanceMeters>
          </Trackpoint>
          <Trackpoint>
            <Position>
              <LatitudeDegrees>50.206817</LatitudeDegrees>
              <LongitudeDegrees>16.946163</LongitudeDegrees>
            </Position>
            <AltitudeMeters>851.0</AltitudeMeters>
            <DistanceMeters>37528.295196992</DistanceMeters>
          </Trackpoint>
          <Trackpoint>
            <Position>
              <LatitudeDegrees>50.206738</LatitudeDegrees>
              <LongitudeDegrees>16.946253</LongitudeDegrees>
            </Position>
            <AltitudeMeters>855.0</AltitudeMeters>
            <DistanceMeters>37539.176896878</DistanceMeters>
          </Trackpoint>
          <Trackpoint>
            <Position>
              <LatitudeDegrees>50.206663</LatitudeDegrees>
              <LongitudeDegrees>16.94634</LongitudeDegrees>
            </Position>
            <AltitudeMeters>858.0</AltitudeMeters>
            <DistanceMeters>37549.573531672</DistanceMeters>
          </Trackpoint>
          <Trackpoint>
            <Position>
              <LatitudeDegrees>50.206577</LatitudeDegrees>
              <LongitudeDegrees>16.946418</LongitudeDegrees>
            </Position>
            <AltitudeMeters>858.0</AltitudeMeters>
            <DistanceMeters>37560.641594602</DistanceMeters>
          </Trackpoint>
          <Trackpoint>
            <Position>
              <LatitudeDegrees>50.206485</LatitudeDegrees>
              <LongitudeDegrees>16.946462</LongitudeDegrees>
            </Position>
            <AltitudeMeters>860.0</AltitudeMeters>
            <DistanceMeters>37571.350139824</DistanceMeters>
          </Trackpoint>
          <Trackpoint>
            <Position>
              <LatitudeDegrees>50.206422</LatitudeDegrees>
              <LongitudeDegrees>16.946565</LongitudeDegrees>
            </Position>
            <AltitudeMeters>862.0</AltitudeMeters>
            <DistanceMeters>37581.498886146</DistanceMeters>
          </Trackpoint>
          <Trackpoint>
            <Position>
              <LatitudeDegrees>50.20634</LatitudeDegrees>
              <LongitudeDegrees>16.946632</LongitudeDegrees>
            </Position>
            <AltitudeMeters>863.0</AltitudeMeters>
            <DistanceMeters>37591.798221464</DistanceMeters>
          </Trackpoint>
          <Trackpoint>
            <Position>
              <LatitudeDegrees>50.206292</LatitudeDegrees>
              <LongitudeDegrees>16.94676</LongitudeDegrees>
            </Position>
            <AltitudeMeters>865.0</AltitudeMeters>
            <DistanceMeters>37602.366713104</DistanceMeters>
          </Trackpoint>
          <Trackpoint>
            <Position>
              <LatitudeDegrees>50.206223</LatitudeDegrees>
              <LongitudeDegrees>16.946853</LongitudeDegrees>
            </Position>
            <AltitudeMeters>867.0</AltitudeMeters>
            <DistanceMeters>37612.509229106</DistanceMeters>
          </Trackpoint>
          <Trackpoint>
            <Position>
              <LatitudeDegrees>50.206172</LatitudeDegrees>
              <LongitudeDegrees>16.946975</LongitudeDegrees>
            </Position>
            <AltitudeMeters>868.0</AltitudeMeters>
            <DistanceMeters>37622.889783147</DistanceMeters>
          </Trackpoint>
          <Trackpoint>
            <Position>
              <LatitudeDegrees>50.206122</LatitudeDegrees>
              <LongitudeDegrees>16.94712</LongitudeDegrees>
            </Position>
            <AltitudeMeters>868.0</AltitudeMeters>
            <DistanceMeters>37634.622407973</DistanceMeters>
          </Trackpoint>
          <Trackpoint>
            <Position>
              <LatitudeDegrees>50.2061</LatitudeDegrees>
              <LongitudeDegrees>16.947258</LongitudeDegrees>
            </Position>
            <AltitudeMeters>870.0</AltitudeMeters>
            <DistanceMeters>37644.753343214</DistanceMeters>
          </Trackpoint>
          <Trackpoint>
            <Position>
              <LatitudeDegrees>50.206013</LatitudeDegrees>
              <LongitudeDegrees>16.947305</LongitudeDegrees>
            </Position>
            <AltitudeMeters>872.0</AltitudeMeters>
            <DistanceMeters>37654.998615714</DistanceMeters>
          </Trackpoint>
          <Trackpoint>
            <Position>
              <LatitudeDegrees>50.205922</LatitudeDegrees>
              <LongitudeDegrees>16.947358</LongitudeDegrees>
            </Position>
            <AltitudeMeters>873.0</AltitudeMeters>
            <DistanceMeters>37665.80829606</DistanceMeters>
          </Trackpoint>
          <Trackpoint>
            <Position>
              <LatitudeDegrees>50.205833</LatitudeDegrees>
              <LongitudeDegrees>16.947403</LongitudeDegrees>
            </Position>
            <AltitudeMeters>874.0</AltitudeMeters>
            <DistanceMeters>37676.219685863</DistanceMeters>
          </Trackpoint>
          <Trackpoint>
            <Position>
              <LatitudeDegrees>50.205737</LatitudeDegrees>
              <LongitudeDegrees>16.947385</LongitudeDegrees>
            </Position>
            <AltitudeMeters>876.0</AltitudeMeters>
            <DistanceMeters>37686.981225269</DistanceMeters>
          </Trackpoint>
          <Trackpoint>
            <Position>
              <LatitudeDegrees>50.205643</LatitudeDegrees>
              <LongitudeDegrees>16.947358</LongitudeDegrees>
            </Position>
            <AltitudeMeters>877.0</AltitudeMeters>
            <DistanceMeters>37697.619125344</DistanceMeters>
          </Trackpoint>
          <Trackpoint>
            <Position>
              <LatitudeDegrees>50.205552</LatitudeDegrees>
              <LongitudeDegrees>16.947348</LongitudeDegrees>
            </Position>
            <AltitudeMeters>878.0</AltitudeMeters>
            <DistanceMeters>37707.772764236</DistanceMeters>
          </Trackpoint>
          <Trackpoint>
            <Position>
              <LatitudeDegrees>50.205473</LatitudeDegrees>
              <LongitudeDegrees>16.947277</LongitudeDegrees>
            </Position>
            <AltitudeMeters>878.0</AltitudeMeters>
            <DistanceMeters>37717.916615629</DistanceMeters>
          </Trackpoint>
          <Trackpoint>
            <Position>
              <LatitudeDegrees>50.205415</LatitudeDegrees>
              <LongitudeDegrees>16.947168</LongitudeDegrees>
            </Position>
            <AltitudeMeters>881.0</AltitudeMeters>
            <DistanceMeters>37728.01451755</DistanceMeters>
          </Trackpoint>
          <Trackpoint>
            <Position>
              <LatitudeDegrees>50.205325</LatitudeDegrees>
              <LongitudeDegrees>16.947143</LongitudeDegrees>
            </Position>
            <AltitudeMeters>882.0</AltitudeMeters>
            <DistanceMeters>37738.189034559</DistanceMeters>
          </Trackpoint>
          <Trackpoint>
            <Position>
              <LatitudeDegrees>50.205245</LatitudeDegrees>
              <LongitudeDegrees>16.947237</LongitudeDegrees>
            </Position>
            <AltitudeMeters>882.0</AltitudeMeters>
            <DistanceMeters>37749.330283627</DistanceMeters>
          </Trackpoint>
          <Trackpoint>
            <Position>
              <LatitudeDegrees>50.205218</LatitudeDegrees>
              <LongitudeDegrees>16.94709</LongitudeDegrees>
            </Position>
            <AltitudeMeters>886.0</AltitudeMeters>
            <DistanceMeters>37760.224838449</DistanceMeters>
          </Trackpoint>
          <Trackpoint>
            <Position>
              <LatitudeDegrees>50.205137</LatitudeDegrees>
              <LongitudeDegrees>16.947002</LongitudeDegrees>
            </Position>
            <AltitudeMeters>889.0</AltitudeMeters>
            <DistanceMeters>37771.205256505</DistanceMeters>
          </Trackpoint>
          <Trackpoint>
            <Position>
              <LatitudeDegrees>50.205055</LatitudeDegrees>
              <LongitudeDegrees>16.946917</LongitudeDegrees>
            </Position>
            <AltitudeMeters>890.0</AltitudeMeters>
            <DistanceMeters>37782.157677949</DistanceMeters>
          </Trackpoint>
          <Trackpoint>
            <Position>
              <LatitudeDegrees>50.205003</LatitudeDegrees>
              <LongitudeDegrees>16.946797</LongitudeDegrees>
            </Position>
            <AltitudeMeters>891.0</AltitudeMeters>
            <DistanceMeters>37792.481096093</DistanceMeters>
          </Trackpoint>
          <Trackpoint>
            <Position>
              <LatitudeDegrees>50.205022</LatitudeDegrees>
              <LongitudeDegrees>16.946648</LongitudeDegrees>
            </Position>
            <AltitudeMeters>890.0</AltitudeMeters>
            <DistanceMeters>37803.304134097</DistanceMeters>
          </Trackpoint>
          <Trackpoint>
            <Position>
              <LatitudeDegrees>50.204957</LatitudeDegrees>
              <LongitudeDegrees>16.946535</LongitudeDegrees>
            </Position>
            <AltitudeMeters>890.0</AltitudeMeters>
            <DistanceMeters>37814.127589262</DistanceMeters>
          </Trackpoint>
          <Trackpoint>
            <Position>
              <LatitudeDegrees>50.204882</LatitudeDegrees>
              <LongitudeDegrees>16.946458</LongitudeDegrees>
            </Position>
            <AltitudeMeters>890.0</AltitudeMeters>
            <DistanceMeters>37824.116248563</DistanceMeters>
          </Trackpoint>
          <Trackpoint>
            <Position>
              <LatitudeDegrees>50.204862</LatitudeDegrees>
              <LongitudeDegrees>16.946315</LongitudeDegrees>
            </Position>
            <AltitudeMeters>891.0</AltitudeMeters>
            <DistanceMeters>37834.543671565</DistanceMeters>
          </Trackpoint>
          <Trackpoint>
            <Position>
              <LatitudeDegrees>50.204817</LatitudeDegrees>
              <LongitudeDegrees>16.946165</LongitudeDegrees>
            </Position>
            <AltitudeMeters>892.0</AltitudeMeters>
            <DistanceMeters>37846.344979501</DistanceMeters>
          </Trackpoint>
          <Trackpoint>
            <Position>
              <LatitudeDegrees>50.204767</LatitudeDegrees>
              <LongitudeDegrees>16.946028</LongitudeDegrees>
            </Position>
            <AltitudeMeters>894.0</AltitudeMeters>
            <DistanceMeters>37857.579854157</DistanceMeters>
          </Trackpoint>
          <Trackpoint>
            <Position>
              <LatitudeDegrees>50.20477</LatitudeDegrees>
              <LongitudeDegrees>16.945878</LongitudeDegrees>
            </Position>
            <AltitudeMeters>893.0</AltitudeMeters>
            <DistanceMeters>37868.271098594</DistanceMeters>
          </Trackpoint>
          <Trackpoint>
            <Position>
              <LatitudeDegrees>50.20471</LatitudeDegrees>
              <LongitudeDegrees>16.945753</LongitudeDegrees>
            </Position>
            <AltitudeMeters>893.0</AltitudeMeters>
            <DistanceMeters>37879.401806066</DistanceMeters>
          </Trackpoint>
          <Trackpoint>
            <Position>
              <LatitudeDegrees>50.204665</LatitudeDegrees>
              <LongitudeDegrees>16.945628</LongitudeDegrees>
            </Position>
            <AltitudeMeters>892.0</AltitudeMeters>
            <DistanceMeters>37889.618835169</DistanceMeters>
          </Trackpoint>
          <Trackpoint>
            <Position>
              <LatitudeDegrees>50.20461</LatitudeDegrees>
              <LongitudeDegrees>16.945532</LongitudeDegrees>
            </Position>
            <AltitudeMeters>893.0</AltitudeMeters>
            <DistanceMeters>37898.797648448</DistanceMeters>
          </Trackpoint>
          <Trackpoint>
            <Position>
              <LatitudeDegrees>50.20459</LatitudeDegrees>
              <LongitudeDegrees>16.945517</LongitudeDegrees>
            </Position>
            <AltitudeMeters>894.0</AltitudeMeters>
            <DistanceMeters>37901.266514909</DistanceMeters>
          </Trackpoint>
          <Trackpoint>
            <Position>
              <LatitudeDegrees>50.204572</LatitudeDegrees>
              <LongitudeDegrees>16.945487</LongitudeDegrees>
            </Position>
            <AltitudeMeters>896.0</AltitudeMeters>
            <DistanceMeters>37904.195434952</DistanceMeters>
          </Trackpoint>
          <Trackpoint>
            <Position>
              <LatitudeDegrees>50.204558</LatitudeDegrees>
              <LongitudeDegrees>16.945465</LongitudeDegrees>
            </Position>
            <AltitudeMeters>896.0</AltitudeMeters>
            <DistanceMeters>37906.405699949</DistanceMeters>
          </Trackpoint>
          <Trackpoint>
            <Position>
              <LatitudeDegrees>50.20454</LatitudeDegrees>
              <LongitudeDegrees>16.945438</LongitudeDegrees>
            </Position>
            <AltitudeMeters>896.0</AltitudeMeters>
            <DistanceMeters>37909.182692078</DistanceMeters>
          </Trackpoint>
          <Trackpoint>
            <Position>
              <LatitudeDegrees>50.204453</LatitudeDegrees>
              <LongitudeDegrees>16.945377</LongitudeDegrees>
            </Position>
            <AltitudeMeters>896.0</AltitudeMeters>
            <DistanceMeters>37919.796797491</DistanceMeters>
          </Trackpoint>
          <Trackpoint>
            <Position>
              <LatitudeDegrees>50.204383</LatitudeDegrees>
              <LongitudeDegrees>16.94528</LongitudeDegrees>
            </Position>
            <AltitudeMeters>896.0</AltitudeMeters>
            <DistanceMeters>37930.210788949</DistanceMeters>
          </Trackpoint>
          <Trackpoint>
            <Position>
              <LatitudeDegrees>50.204325</LatitudeDegrees>
              <LongitudeDegrees>16.945135</LongitudeDegrees>
            </Position>
            <AltitudeMeters>896.0</AltitudeMeters>
            <DistanceMeters>37942.392012866</DistanceMeters>
          </Trackpoint>
          <Trackpoint>
            <Position>
              <LatitudeDegrees>50.204313</LatitudeDegrees>
              <LongitudeDegrees>16.944987</LongitudeDegrees>
            </Position>
            <AltitudeMeters>895.0</AltitudeMeters>
            <DistanceMeters>37953.019721752</DistanceMeters>
          </Trackpoint>
          <Trackpoint>
            <Position>
              <LatitudeDegrees>50.204292</LatitudeDegrees>
              <LongitudeDegrees>16.944835</LongitudeDegrees>
            </Position>
            <AltitudeMeters>895.0</AltitudeMeters>
            <DistanceMeters>37964.097570771</DistanceMeters>
          </Trackpoint>
          <Trackpoint>
            <Position>
              <LatitudeDegrees>50.204202</LatitudeDegrees>
              <LongitudeDegrees>16.944765</LongitudeDegrees>
            </Position>
            <AltitudeMeters>896.0</AltitudeMeters>
            <DistanceMeters>37975.287344672</DistanceMeters>
          </Trackpoint>
          <Trackpoint>
            <Position>
              <LatitudeDegrees>50.204122</LatitudeDegrees>
              <LongitudeDegrees>16.944672</LongitudeDegrees>
            </Position>
            <AltitudeMeters>897.0</AltitudeMeters>
            <DistanceMeters>37986.385553658</DistanceMeters>
          </Trackpoint>
          <Trackpoint>
            <Position>
              <LatitudeDegrees>50.204088</LatitudeDegrees>
              <LongitudeDegrees>16.944532</LongitudeDegrees>
            </Position>
            <AltitudeMeters>897.0</AltitudeMeters>
            <DistanceMeters>37997.053122423</DistanceMeters>
          </Trackpoint>
          <Trackpoint>
            <Position>
              <LatitudeDegrees>50.204022</LatitudeDegrees>
              <LongitudeDegrees>16.944435</LongitudeDegrees>
            </Position>
            <AltitudeMeters>897.0</AltitudeMeters>
            <DistanceMeters>38007.138497035</DistanceMeters>
          </Trackpoint>
          <Trackpoint>
            <Position>
              <LatitudeDegrees>50.203953</LatitudeDegrees>
              <LongitudeDegrees>16.944328</LongitudeDegrees>
            </Position>
            <AltitudeMeters>897.0</AltitudeMeters>
            <DistanceMeters>38017.959031734</DistanceMeters>
          </Trackpoint>
          <Trackpoint>
            <Position>
              <LatitudeDegrees>50.20392</LatitudeDegrees>
              <LongitudeDegrees>16.944175</LongitudeDegrees>
            </Position>
            <AltitudeMeters>897.0</AltitudeMeters>
            <DistanceMeters>38029.460797681</DistanceMeters>
          </Trackpoint>
          <Trackpoint>
            <Position>
              <LatitudeDegrees>50.203865</LatitudeDegrees>
              <LongitudeDegrees>16.944052</LongitudeDegrees>
            </Position>
            <AltitudeMeters>897.0</AltitudeMeters>
            <DistanceMeters>38040.149930351</DistanceMeters>
          </Trackpoint>
          <Trackpoint>
            <Position>
              <LatitudeDegrees>50.203793</LatitudeDegrees>
              <LongitudeDegrees>16.943882</LongitudeDegrees>
            </Position>
            <AltitudeMeters>898.0</AltitudeMeters>
            <DistanceMeters>38054.671927641</DistanceMeters>
          </Trackpoint>
          <Trackpoint>
            <Position>
              <LatitudeDegrees>50.203708</LatitudeDegrees>
              <LongitudeDegrees>16.94381</LongitudeDegrees>
            </Position>
            <AltitudeMeters>898.0</AltitudeMeters>
            <DistanceMeters>38065.433467047</DistanceMeters>
          </Trackpoint>
          <Trackpoint>
            <Position>
              <LatitudeDegrees>50.203632</LatitudeDegrees>
              <LongitudeDegrees>16.943715</LongitudeDegrees>
            </Position>
            <AltitudeMeters>897.0</AltitudeMeters>
            <DistanceMeters>38076.266512485</DistanceMeters>
          </Trackpoint>
          <Trackpoint>
            <Position>
              <LatitudeDegrees>50.203573</LatitudeDegrees>
              <LongitudeDegrees>16.943577</LongitudeDegrees>
            </Position>
            <AltitudeMeters>896.0</AltitudeMeters>
            <DistanceMeters>38088.089607823</DistanceMeters>
          </Trackpoint>
          <Trackpoint>
            <Position>
              <LatitudeDegrees>50.203533</LatitudeDegrees>
              <LongitudeDegrees>16.94343</LongitudeDegrees>
            </Position>
            <AltitudeMeters>896.0</AltitudeMeters>
            <DistanceMeters>38099.46903207</DistanceMeters>
          </Trackpoint>
          <Trackpoint>
            <Position>
              <LatitudeDegrees>50.203518</LatitudeDegrees>
              <LongitudeDegrees>16.943275</LongitudeDegrees>
            </Position>
            <AltitudeMeters>895.0</AltitudeMeters>
            <DistanceMeters>38110.636995888</DistanceMeters>
          </Trackpoint>
          <Trackpoint>
            <Position>
              <LatitudeDegrees>50.203438</LatitudeDegrees>
              <LongitudeDegrees>16.943175</LongitudeDegrees>
            </Position>
            <AltitudeMeters>896.0</AltitudeMeters>
            <DistanceMeters>38122.040993474</DistanceMeters>
          </Trackpoint>
          <Trackpoint>
            <Position>
              <LatitudeDegrees>50.203397</LatitudeDegrees>
              <LongitudeDegrees>16.94304</LongitudeDegrees>
            </Position>
            <AltitudeMeters>897.0</AltitudeMeters>
            <DistanceMeters>38132.686530538</DistanceMeters>
          </Trackpoint>
          <Trackpoint>
            <Position>
              <LatitudeDegrees>50.20332</LatitudeDegrees>
              <LongitudeDegrees>16.942955</LongitudeDegrees>
            </Position>
            <AltitudeMeters>897.0</AltitudeMeters>
            <DistanceMeters>38143.180853399</DistanceMeters>
          </Trackpoint>
          <Trackpoint>
            <Position>
              <LatitudeDegrees>50.203175</LatitudeDegrees>
              <LongitudeDegrees>16.94286</LongitudeDegrees>
            </Position>
            <AltitudeMeters>895.0</AltitudeMeters>
            <DistanceMeters>38160.681255471</DistanceMeters>
          </Trackpoint>
          <Trackpoint>
            <Position>
              <LatitudeDegrees>50.203145</LatitudeDegrees>
              <LongitudeDegrees>16.94272</LongitudeDegrees>
            </Position>
            <AltitudeMeters>894.0</AltitudeMeters>
            <DistanceMeters>38171.19878543</DistanceMeters>
          </Trackpoint>
          <Trackpoint>
            <Position>
              <LatitudeDegrees>50.203095</LatitudeDegrees>
              <LongitudeDegrees>16.942585</LongitudeDegrees>
            </Position>
            <AltitudeMeters>893.0</AltitudeMeters>
            <DistanceMeters>38182.310005216</DistanceMeters>
          </Trackpoint>
          <Trackpoint>
            <Position>
              <LatitudeDegrees>50.20307</LatitudeDegrees>
              <LongitudeDegrees>16.942372</LongitudeDegrees>
            </Position>
            <AltitudeMeters>892.0</AltitudeMeters>
            <DistanceMeters>38197.737732039</DistanceMeters>
          </Trackpoint>
          <Trackpoint>
            <Position>
              <LatitudeDegrees>50.203015</LatitudeDegrees>
              <LongitudeDegrees>16.94225</LongitudeDegrees>
            </Position>
            <AltitudeMeters>892.0</AltitudeMeters>
            <DistanceMeters>38208.368839073</DistanceMeters>
          </Trackpoint>
          <Trackpoint>
            <Position>
              <LatitudeDegrees>50.202925</LatitudeDegrees>
              <LongitudeDegrees>16.94224</LongitudeDegrees>
            </Position>
            <AltitudeMeters>892.0</AltitudeMeters>
            <DistanceMeters>38218.411144273</DistanceMeters>
          </Trackpoint>
          <Trackpoint>
            <Position>
              <LatitudeDegrees>50.202773</LatitudeDegrees>
              <LongitudeDegrees>16.942093</LongitudeDegrees>
            </Position>
            <AltitudeMeters>891.0</AltitudeMeters>
            <DistanceMeters>38238.30806819</DistanceMeters>
          </Trackpoint>
          <Trackpoint>
            <Position>
              <LatitudeDegrees>50.202672</LatitudeDegrees>
              <LongitudeDegrees>16.942023</LongitudeDegrees>
            </Position>
            <AltitudeMeters>886.0</AltitudeMeters>
            <DistanceMeters>38250.6058615</DistanceMeters>
          </Trackpoint>
          <Trackpoint>
            <Position>
              <LatitudeDegrees>50.202608</LatitudeDegrees>
              <LongitudeDegrees>16.94182</LongitudeDegrees>
            </Position>
            <AltitudeMeters>882.0</AltitudeMeters>
            <DistanceMeters>38266.727109284</DistanceMeters>
          </Trackpoint>
          <Trackpoint>
            <Position>
              <LatitudeDegrees>50.20256</LatitudeDegrees>
              <LongitudeDegrees>16.941702</LongitudeDegrees>
            </Position>
            <AltitudeMeters>882.0</AltitudeMeters>
            <DistanceMeters>38276.68815742</DistanceMeters>
          </Trackpoint>
          <Trackpoint>
            <Position>
              <LatitudeDegrees>50.202543</LatitudeDegrees>
              <LongitudeDegrees>16.941558</LongitudeDegrees>
            </Position>
            <AltitudeMeters>886.0</AltitudeMeters>
            <DistanceMeters>38287.119909489</DistanceMeters>
          </Trackpoint>
          <Trackpoint>
            <Position>
              <LatitudeDegrees>50.2025</LatitudeDegrees>
              <LongitudeDegrees>16.941432</LongitudeDegrees>
            </Position>
            <AltitudeMeters>888.0</AltitudeMeters>
            <DistanceMeters>38297.292651305</DistanceMeters>
          </Trackpoint>
          <Trackpoint>
            <Position>
              <LatitudeDegrees>50.202575</LatitudeDegrees>
              <LongitudeDegrees>16.941327</LongitudeDegrees>
            </Position>
            <AltitudeMeters>890.0</AltitudeMeters>
            <DistanceMeters>38308.501776322</DistanceMeters>
          </Trackpoint>
          <Trackpoint>
            <Position>
              <LatitudeDegrees>50.202595</LatitudeDegrees>
              <LongitudeDegrees>16.941188</LongitudeDegrees>
            </Position>
            <AltitudeMeters>890.0</AltitudeMeters>
            <DistanceMeters>38318.651412378</DistanceMeters>
          </Trackpoint>
          <Trackpoint>
            <Position>
              <LatitudeDegrees>50.202485</LatitudeDegrees>
              <LongitudeDegrees>16.941157</LongitudeDegrees>
            </Position>
            <AltitudeMeters>891.0</AltitudeMeters>
            <DistanceMeters>38331.092292984</DistanceMeters>
          </Trackpoint>
          <Trackpoint>
            <Position>
              <LatitudeDegrees>50.202405</LatitudeDegrees>
              <LongitudeDegrees>16.94109</LongitudeDegrees>
            </Position>
            <AltitudeMeters>892.0</AltitudeMeters>
            <DistanceMeters>38341.195558996</DistanceMeters>
          </Trackpoint>
          <Trackpoint>
            <Position>
              <LatitudeDegrees>50.202388</LatitudeDegrees>
              <LongitudeDegrees>16.940952</LongitudeDegrees>
            </Position>
            <AltitudeMeters>894.0</AltitudeMeters>
            <DistanceMeters>38351.207244595</DistanceMeters>
          </Trackpoint>
          <Trackpoint>
            <Position>
              <LatitudeDegrees>50.202295</LatitudeDegrees>
              <LongitudeDegrees>16.9409</LongitudeDegrees>
            </Position>
            <AltitudeMeters>895.0</AltitudeMeters>
            <DistanceMeters>38362.201223547</DistanceMeters>
          </Trackpoint>
          <Trackpoint>
            <Position>
              <LatitudeDegrees>50.202205</LatitudeDegrees>
              <LongitudeDegrees>16.940813</LongitudeDegrees>
            </Position>
            <AltitudeMeters>895.0</AltitudeMeters>
            <DistanceMeters>38373.980703784</DistanceMeters>
          </Trackpoint>
          <Trackpoint>
            <Position>
              <LatitudeDegrees>50.202115</LatitudeDegrees>
              <LongitudeDegrees>16.940775</LongitudeDegrees>
            </Position>
            <AltitudeMeters>896.0</AltitudeMeters>
            <DistanceMeters>38384.356907398</DistanceMeters>
          </Trackpoint>
          <Trackpoint>
            <Position>
              <LatitudeDegrees>50.202038</LatitudeDegrees>
              <LongitudeDegrees>16.940687</LongitudeDegrees>
            </Position>
            <AltitudeMeters>897.0</AltitudeMeters>
            <DistanceMeters>38394.975265768</DistanceMeters>
          </Trackpoint>
          <Trackpoint>
            <Position>
              <LatitudeDegrees>50.20194</LatitudeDegrees>
              <LongitudeDegrees>16.940672</LongitudeDegrees>
            </Position>
            <AltitudeMeters>898.0</AltitudeMeters>
            <DistanceMeters>38405.935105039</DistanceMeters>
          </Trackpoint>
          <Trackpoint>
            <Position>
              <LatitudeDegrees>50.201903</LatitudeDegrees>
              <LongitudeDegrees>16.940532</LongitudeDegrees>
            </Position>
            <AltitudeMeters>899.0</AltitudeMeters>
            <DistanceMeters>38416.725554783</DistanceMeters>
          </Trackpoint>
          <Trackpoint>
            <Position>
              <LatitudeDegrees>50.20181</LatitudeDegrees>
              <LongitudeDegrees>16.940592</LongitudeDegrees>
            </Position>
            <AltitudeMeters>899.0</AltitudeMeters>
            <DistanceMeters>38427.924605266</DistanceMeters>
          </Trackpoint>
          <Trackpoint>
            <Position>
              <LatitudeDegrees>50.201718</LatitudeDegrees>
              <LongitudeDegrees>16.940588</LongitudeDegrees>
            </Position>
            <AltitudeMeters>901.0</AltitudeMeters>
            <DistanceMeters>38438.168555596</DistanceMeters>
          </Trackpoint>
          <Trackpoint>
            <Position>
              <LatitudeDegrees>50.201655</LatitudeDegrees>
              <LongitudeDegrees>16.94046</LongitudeDegrees>
            </Position>
            <AltitudeMeters>901.0</AltitudeMeters>
            <DistanceMeters>38449.671891643</DistanceMeters>
          </Trackpoint>
          <Trackpoint>
            <Position>
              <LatitudeDegrees>50.201588</LatitudeDegrees>
              <LongitudeDegrees>16.94036</LongitudeDegrees>
            </Position>
            <AltitudeMeters>901.0</AltitudeMeters>
            <DistanceMeters>38459.985245629</DistanceMeters>
          </Trackpoint>
          <Trackpoint>
            <Position>
              <LatitudeDegrees>50.201488</LatitudeDegrees>
              <LongitudeDegrees>16.940397</LongitudeDegrees>
            </Position>
            <AltitudeMeters>901.0</AltitudeMeters>
            <DistanceMeters>38471.423241411</DistanceMeters>
          </Trackpoint>
          <Trackpoint>
            <Position>
              <LatitudeDegrees>50.201405</LatitudeDegrees>
              <LongitudeDegrees>16.940452</LongitudeDegrees>
            </Position>
            <AltitudeMeters>901.0</AltitudeMeters>
            <DistanceMeters>38481.45790047</DistanceMeters>
          </Trackpoint>
          <Trackpoint>
            <Position>
              <LatitudeDegrees>50.201272</LatitudeDegrees>
              <LongitudeDegrees>16.940238</LongitudeDegrees>
            </Position>
            <AltitudeMeters>901.0</AltitudeMeters>
            <DistanceMeters>38502.708219592</DistanceMeters>
          </Trackpoint>
          <Trackpoint>
            <Position>
              <LatitudeDegrees>50.201182</LatitudeDegrees>
              <LongitudeDegrees>16.940195</LongitudeDegrees>
            </Position>
            <AltitudeMeters>900.0</AltitudeMeters>
            <DistanceMeters>38513.183594953</DistanceMeters>
          </Trackpoint>
          <Trackpoint>
            <Position>
              <LatitudeDegrees>50.201122</LatitudeDegrees>
              <LongitudeDegrees>16.940078</LongitudeDegrees>
            </Position>
            <AltitudeMeters>900.0</AltitudeMeters>
            <DistanceMeters>38523.8646991</DistanceMeters>
          </Trackpoint>
          <Trackpoint>
            <Position>
              <LatitudeDegrees>50.201038</LatitudeDegrees>
              <LongitudeDegrees>16.940015</LongitudeDegrees>
            </Position>
            <AltitudeMeters>895.0</AltitudeMeters>
            <DistanceMeters>38534.23524443</DistanceMeters>
          </Trackpoint>
          <Trackpoint>
            <Position>
              <LatitudeDegrees>50.20095</LatitudeDegrees>
              <LongitudeDegrees>16.940067</LongitudeDegrees>
            </Position>
            <AltitudeMeters>886.0</AltitudeMeters>
            <DistanceMeters>38544.707171107</DistanceMeters>
          </Trackpoint>
          <Trackpoint>
            <Position>
              <LatitudeDegrees>50.20087</LatitudeDegrees>
              <LongitudeDegrees>16.94015</LongitudeDegrees>
            </Position>
            <AltitudeMeters>888.0</AltitudeMeters>
            <DistanceMeters>38555.396303778</DistanceMeters>
          </Trackpoint>
          <Trackpoint>
            <Position>
              <LatitudeDegrees>50.200797</LatitudeDegrees>
              <LongitudeDegrees>16.940067</LongitudeDegrees>
            </Position>
            <AltitudeMeters>888.0</AltitudeMeters>
            <DistanceMeters>38565.444901431</DistanceMeters>
          </Trackpoint>
          <Trackpoint>
            <Position>
              <LatitudeDegrees>50.200705</LatitudeDegrees>
              <LongitudeDegrees>16.940023</LongitudeDegrees>
            </Position>
            <AltitudeMeters>887.0</AltitudeMeters>
            <DistanceMeters>38576.153868274</DistanceMeters>
          </Trackpoint>
          <Trackpoint>
            <Position>
              <LatitudeDegrees>50.2006</LatitudeDegrees>
              <LongitudeDegrees>16.940055</LongitudeDegrees>
            </Position>
            <AltitudeMeters>887.0</AltitudeMeters>
            <DistanceMeters>38588.060681457</DistanceMeters>
          </Trackpoint>
          <Trackpoint>
            <Position>
              <LatitudeDegrees>50.200523</LatitudeDegrees>
              <LongitudeDegrees>16.940153</LongitudeDegrees>
            </Position>
            <AltitudeMeters>887.0</AltitudeMeters>
            <DistanceMeters>38599.114865933</DistanceMeters>
          </Trackpoint>
          <Trackpoint>
            <Position>
              <LatitudeDegrees>50.200443</LatitudeDegrees>
              <LongitudeDegrees>16.940257</LongitudeDegrees>
            </Position>
            <AltitudeMeters>886.0</AltitudeMeters>
            <DistanceMeters>38610.698774425</DistanceMeters>
          </Trackpoint>
          <Trackpoint>
            <Position>
              <LatitudeDegrees>50.200457</LatitudeDegrees>
              <LongitudeDegrees>16.940103</LongitudeDegrees>
            </Position>
            <AltitudeMeters>885.0</AltitudeMeters>
            <DistanceMeters>38621.78069843</DistanceMeters>
          </Trackpoint>
          <Trackpoint>
            <Position>
              <LatitudeDegrees>50.200438</LatitudeDegrees>
              <LongitudeDegrees>16.939963</LongitudeDegrees>
            </Position>
            <AltitudeMeters>885.0</AltitudeMeters>
            <DistanceMeters>38631.976936466</DistanceMeters>
          </Trackpoint>
          <Trackpoint>
            <Position>
              <LatitudeDegrees>50.2004</LatitudeDegrees>
              <LongitudeDegrees>16.939888</LongitudeDegrees>
            </Position>
            <AltitudeMeters>887.0</AltitudeMeters>
            <DistanceMeters>38638.792412475</DistanceMeters>
          </Trackpoint>
          <Trackpoint>
            <Position>
              <LatitudeDegrees>50.200402</LatitudeDegrees>
              <LongitudeDegrees>16.939737</LongitudeDegrees>
            </Position>
            <AltitudeMeters>888.0</AltitudeMeters>
            <DistanceMeters>38649.552693148</DistanceMeters>
          </Trackpoint>
          <Trackpoint>
            <Position>
              <LatitudeDegrees>50.200385</LatitudeDegrees>
              <LongitudeDegrees>16.939595</LongitudeDegrees>
            </Position>
            <AltitudeMeters>889.0</AltitudeMeters>
            <DistanceMeters>38659.844573282</DistanceMeters>
          </Trackpoint>
          <Trackpoint>
            <Position>
              <LatitudeDegrees>50.200427</LatitudeDegrees>
              <LongitudeDegrees>16.939425</LongitudeDegrees>
            </Position>
            <AltitudeMeters>889.0</AltitudeMeters>
            <DistanceMeters>38672.826766731</DistanceMeters>
          </Trackpoint>
          <Trackpoint>
            <Position>
              <LatitudeDegrees>50.200378</LatitudeDegrees>
              <LongitudeDegrees>16.939303</LongitudeDegrees>
            </Position>
            <AltitudeMeters>893.0</AltitudeMeters>
            <DistanceMeters>38683.087891978</DistanceMeters>
          </Trackpoint>
          <Trackpoint>
            <Position>
              <LatitudeDegrees>50.20032</LatitudeDegrees>
              <LongitudeDegrees>16.939183</LongitudeDegrees>
            </Position>
            <AltitudeMeters>894.0</AltitudeMeters>
            <DistanceMeters>38693.800231193</DistanceMeters>
          </Trackpoint>
          <Trackpoint>
            <Position>
              <LatitudeDegrees>50.200323</LatitudeDegrees>
              <LongitudeDegrees>16.939038</LongitudeDegrees>
            </Position>
            <AltitudeMeters>896.0</AltitudeMeters>
            <DistanceMeters>38704.13588813</DistanceMeters>
          </Trackpoint>
          <Trackpoint>
            <Position>
              <LatitudeDegrees>50.200288</LatitudeDegrees>
              <LongitudeDegrees>16.938902</LongitudeDegrees>
            </Position>
            <AltitudeMeters>897.0</AltitudeMeters>
            <DistanceMeters>38714.579319716</DistanceMeters>
          </Trackpoint>
          <Trackpoint>
            <Position>
              <LatitudeDegrees>50.2002</LatitudeDegrees>
              <LongitudeDegrees>16.938838</LongitudeDegrees>
            </Position>
            <AltitudeMeters>897.0</AltitudeMeters>
            <DistanceMeters>38725.383568797</DistanceMeters>
          </Trackpoint>
          <Trackpoint>
            <Position>
              <LatitudeDegrees>50.200127</LatitudeDegrees>
              <LongitudeDegrees>16.938703</LongitudeDegrees>
            </Position>
            <AltitudeMeters>897.0</AltitudeMeters>
            <DistanceMeters>38737.973801594</DistanceMeters>
          </Trackpoint>
          <Trackpoint>
            <Position>
              <LatitudeDegrees>50.200075</LatitudeDegrees>
              <LongitudeDegrees>16.938587</LongitudeDegrees>
            </Position>
            <AltitudeMeters>896.0</AltitudeMeters>
            <DistanceMeters>38748.063652031</DistanceMeters>
          </Trackpoint>
          <Trackpoint>
            <Position>
              <LatitudeDegrees>50.200072</LatitudeDegrees>
              <LongitudeDegrees>16.938445</LongitudeDegrees>
            </Position>
            <AltitudeMeters>896.0</AltitudeMeters>
            <DistanceMeters>38758.185669978</DistanceMeters>
          </Trackpoint>
          <Trackpoint>
            <Position>
              <LatitudeDegrees>50.200102</LatitudeDegrees>
              <LongitudeDegrees>16.938303</LongitudeDegrees>
            </Position>
            <AltitudeMeters>896.0</AltitudeMeters>
            <DistanceMeters>38768.839262369</DistanceMeters>
          </Trackpoint>
          <Trackpoint>
            <Position>
              <LatitudeDegrees>50.20006</LatitudeDegrees>
              <LongitudeDegrees>16.938158</LongitudeDegrees>
            </Position>
            <AltitudeMeters>895.0</AltitudeMeters>
            <DistanceMeters>38780.178143637</DistanceMeters>
          </Trackpoint>
          <Trackpoint>
            <Position>
              <LatitudeDegrees>50.200025</LatitudeDegrees>
              <LongitudeDegrees>16.938027</LongitudeDegrees>
            </Position>
            <AltitudeMeters>895.0</AltitudeMeters>
            <DistanceMeters>38790.292129298</DistanceMeters>
          </Trackpoint>
          <Trackpoint>
            <Position>
              <LatitudeDegrees>50.200035</LatitudeDegrees>
              <LongitudeDegrees>16.937797</LongitudeDegrees>
            </Position>
            <AltitudeMeters>895.0</AltitudeMeters>
            <DistanceMeters>38806.716088734</DistanceMeters>
          </Trackpoint>
          <Trackpoint>
            <Position>
              <LatitudeDegrees>50.200027</LatitudeDegrees>
              <LongitudeDegrees>16.937642</LongitudeDegrees>
            </Position>
            <AltitudeMeters>895.0</AltitudeMeters>
            <DistanceMeters>38817.794752869</DistanceMeters>
          </Trackpoint>
          <Trackpoint>
            <Position>
              <LatitudeDegrees>50.199967</LatitudeDegrees>
              <LongitudeDegrees>16.937535</LongitudeDegrees>
            </Position>
            <AltitudeMeters>895.0</AltitudeMeters>
            <DistanceMeters>38827.929698333</DistanceMeters>
          </Trackpoint>
          <Trackpoint>
            <Position>
              <LatitudeDegrees>50.199975</LatitudeDegrees>
              <LongitudeDegrees>16.93738</LongitudeDegrees>
            </Position>
            <AltitudeMeters>894.0</AltitudeMeters>
            <DistanceMeters>38839.008362468</DistanceMeters>
          </Trackpoint>
          <Trackpoint>
            <Position>
              <LatitudeDegrees>50.199952</LatitudeDegrees>
              <LongitudeDegrees>16.937228</LongitudeDegrees>
            </Position>
            <AltitudeMeters>894.0</AltitudeMeters>
            <DistanceMeters>38850.136230111</DistanceMeters>
          </Trackpoint>
          <Trackpoint>
            <Position>
              <LatitudeDegrees>50.199918</LatitudeDegrees>
              <LongitudeDegrees>16.937092</LongitudeDegrees>
            </Position>
            <AltitudeMeters>892.0</AltitudeMeters>
            <DistanceMeters>38860.538943031</DistanceMeters>
          </Trackpoint>
          <Trackpoint>
            <Position>
              <LatitudeDegrees>50.199903</LatitudeDegrees>
              <LongitudeDegrees>16.936938</LongitudeDegrees>
            </Position>
            <AltitudeMeters>890.0</AltitudeMeters>
            <DistanceMeters>38871.637152017</DistanceMeters>
          </Trackpoint>
          <Trackpoint>
            <Position>
              <LatitudeDegrees>50.199883</LatitudeDegrees>
              <LongitudeDegrees>16.936783</LongitudeDegrees>
            </Position>
            <AltitudeMeters>887.0</AltitudeMeters>
            <DistanceMeters>38882.902527925</DistanceMeters>
          </Trackpoint>
          <Trackpoint>
            <Position>
              <LatitudeDegrees>50.19979</LatitudeDegrees>
              <LongitudeDegrees>16.936772</LongitudeDegrees>
            </Position>
            <AltitudeMeters>886.0</AltitudeMeters>
            <DistanceMeters>38893.283081966</DistanceMeters>
          </Trackpoint>
          <Trackpoint>
            <Position>
              <LatitudeDegrees>50.199803</LatitudeDegrees>
              <LongitudeDegrees>16.936582</LongitudeDegrees>
            </Position>
            <AltitudeMeters>885.0</AltitudeMeters>
            <DistanceMeters>38906.896798907</DistanceMeters>
          </Trackpoint>
          <Trackpoint>
            <Position>
              <LatitudeDegrees>50.199842</LatitudeDegrees>
              <LongitudeDegrees>16.9364</LongitudeDegrees>
            </Position>
            <AltitudeMeters>885.0</AltitudeMeters>
            <DistanceMeters>38920.570743577</DistanceMeters>
          </Trackpoint>
          <Trackpoint>
            <Position>
              <LatitudeDegrees>50.199782</LatitudeDegrees>
              <LongitudeDegrees>16.93629</LongitudeDegrees>
            </Position>
            <AltitudeMeters>884.0</AltitudeMeters>
            <DistanceMeters>38930.867009767</DistanceMeters>
          </Trackpoint>
          <Trackpoint>
            <Position>
              <LatitudeDegrees>50.19971</LatitudeDegrees>
              <LongitudeDegrees>16.936202</LongitudeDegrees>
            </Position>
            <AltitudeMeters>880.0</AltitudeMeters>
            <DistanceMeters>38941.041970525</DistanceMeters>
          </Trackpoint>
          <Trackpoint>
            <Position>
              <LatitudeDegrees>50.199683</LatitudeDegrees>
              <LongitudeDegrees>16.936053</LongitudeDegrees>
            </Position>
            <AltitudeMeters>877.0</AltitudeMeters>
            <DistanceMeters>38952.074895363</DistanceMeters>
          </Trackpoint>
          <Trackpoint>
            <Position>
              <LatitudeDegrees>50.199687</LatitudeDegrees>
              <LongitudeDegrees>16.935905</LongitudeDegrees>
            </Position>
            <AltitudeMeters>875.0</AltitudeMeters>
            <DistanceMeters>38962.629279429</DistanceMeters>
          </Trackpoint>
          <Trackpoint>
            <Position>
              <LatitudeDegrees>50.199653</LatitudeDegrees>
              <LongitudeDegrees>16.935768</LongitudeDegrees>
            </Position>
            <AltitudeMeters>873.0</AltitudeMeters>
            <DistanceMeters>38973.097756286</DistanceMeters>
          </Trackpoint>
          <Trackpoint>
            <Position>
              <LatitudeDegrees>50.199607</LatitudeDegrees>
              <LongitudeDegrees>16.935633</LongitudeDegrees>
            </Position>
            <AltitudeMeters>872.0</AltitudeMeters>
            <DistanceMeters>38983.99355433</DistanceMeters>
          </Trackpoint>
          <Trackpoint>
            <Position>
              <LatitudeDegrees>50.199603</LatitudeDegrees>
              <LongitudeDegrees>16.935473</LongitudeDegrees>
            </Position>
            <AltitudeMeters>872.0</AltitudeMeters>
            <DistanceMeters>38995.401510401</DistanceMeters>
          </Trackpoint>
          <Trackpoint>
            <Position>
              <LatitudeDegrees>50.199523</LatitudeDegrees>
              <LongitudeDegrees>16.93537</LongitudeDegrees>
            </Position>
            <AltitudeMeters>873.0</AltitudeMeters>
            <DistanceMeters>39006.939334586</DistanceMeters>
          </Trackpoint>
          <Trackpoint>
            <Position>
              <LatitudeDegrees>50.199488</LatitudeDegrees>
              <LongitudeDegrees>16.935213</LongitudeDegrees>
            </Position>
            <AltitudeMeters>871.0</AltitudeMeters>
            <DistanceMeters>39018.783414861</DistanceMeters>
          </Trackpoint>
          <Trackpoint>
            <Position>
              <LatitudeDegrees>50.199495</LatitudeDegrees>
              <LongitudeDegrees>16.93506</LongitudeDegrees>
            </Position>
            <AltitudeMeters>870.0</AltitudeMeters>
            <DistanceMeters>39029.711487014</DistanceMeters>
          </Trackpoint>
          <Trackpoint>
            <Position>
              <LatitudeDegrees>50.199552</LatitudeDegrees>
              <LongitudeDegrees>16.934935</LongitudeDegrees>
            </Position>
            <AltitudeMeters>870.0</AltitudeMeters>
            <DistanceMeters>39040.645754804</DistanceMeters>
          </Trackpoint>
          <Trackpoint>
            <Position>
              <LatitudeDegrees>50.199548</LatitudeDegrees>
              <LongitudeDegrees>16.934792</LongitudeDegrees>
            </Position>
            <AltitudeMeters>867.0</AltitudeMeters>
            <DistanceMeters>39050.843321197</DistanceMeters>
          </Trackpoint>
          <Trackpoint>
            <Position>
              <LatitudeDegrees>50.19947</LatitudeDegrees>
              <LongitudeDegrees>16.934705</LongitudeDegrees>
            </Position>
            <AltitudeMeters>865.0</AltitudeMeters>
            <DistanceMeters>39061.510889961</DistanceMeters>
          </Trackpoint>
          <Trackpoint>
            <Position>
              <LatitudeDegrees>50.199382</LatitudeDegrees>
              <LongitudeDegrees>16.934673</LongitudeDegrees>
            </Position>
            <AltitudeMeters>864.0</AltitudeMeters>
            <DistanceMeters>39071.567572127</DistanceMeters>
          </Trackpoint>
          <Trackpoint>
            <Position>
              <LatitudeDegrees>50.199307</LatitudeDegrees>
              <LongitudeDegrees>16.934593</LongitudeDegrees>
            </Position>
            <AltitudeMeters>864.0</AltitudeMeters>
            <DistanceMeters>39081.675752723</DistanceMeters>
          </Trackpoint>
          <Trackpoint>
            <Position>
              <LatitudeDegrees>50.199323</LatitudeDegrees>
              <LongitudeDegrees>16.93444</LongitudeDegrees>
            </Position>
            <AltitudeMeters>863.0</AltitudeMeters>
            <DistanceMeters>39092.72094773</DistanceMeters>
          </Trackpoint>
          <Trackpoint>
            <Position>
              <LatitudeDegrees>50.199367</LatitudeDegrees>
              <LongitudeDegrees>16.934315</LongitudeDegrees>
            </Position>
            <AltitudeMeters>863.0</AltitudeMeters>
            <DistanceMeters>39102.884808932</DistanceMeters>
          </Trackpoint>
          <Trackpoint>
            <Position>
              <LatitudeDegrees>50.199272</LatitudeDegrees>
              <LongitudeDegrees>16.93433</LongitudeDegrees>
            </Position>
            <AltitudeMeters>861.0</AltitudeMeters>
            <DistanceMeters>39113.512517818</DistanceMeters>
          </Trackpoint>
          <Trackpoint>
            <Position>
              <LatitudeDegrees>50.19919</LatitudeDegrees>
              <LongitudeDegrees>16.934255</LongitudeDegrees>
            </Position>
            <AltitudeMeters>859.0</AltitudeMeters>
            <DistanceMeters>39124.088269651</DistanceMeters>
          </Trackpoint>
          <Trackpoint>
            <Position>
              <LatitudeDegrees>50.199135</LatitudeDegrees>
              <LongitudeDegrees>16.934143</LongitudeDegrees>
            </Position>
            <AltitudeMeters>859.0</AltitudeMeters>
            <DistanceMeters>39134.145400765</DistanceMeters>
          </Trackpoint>
          <Trackpoint>
            <Position>
              <LatitudeDegrees>50.199143</LatitudeDegrees>
              <LongitudeDegrees>16.933783</LongitudeDegrees>
            </Position>
            <AltitudeMeters>859.0</AltitudeMeters>
            <DistanceMeters>39159.809651695</DistanceMeters>
          </Trackpoint>
          <Trackpoint>
            <Position>
              <LatitudeDegrees>50.199055</LatitudeDegrees>
              <LongitudeDegrees>16.933672</LongitudeDegrees>
            </Position>
            <AltitudeMeters>859.0</AltitudeMeters>
            <DistanceMeters>39172.398449954</DistanceMeters>
          </Trackpoint>
          <Trackpoint>
            <Position>
              <LatitudeDegrees>50.199078</LatitudeDegrees>
              <LongitudeDegrees>16.933525</LongitudeDegrees>
            </Position>
            <AltitudeMeters>851.0</AltitudeMeters>
            <DistanceMeters>39183.179690327</DistanceMeters>
          </Trackpoint>
          <Trackpoint>
            <Position>
              <LatitudeDegrees>50.199083</LatitudeDegrees>
              <LongitudeDegrees>16.933378</LongitudeDegrees>
            </Position>
            <AltitudeMeters>842.0</AltitudeMeters>
            <DistanceMeters>39193.667988151</DistanceMeters>
          </Trackpoint>
          <Trackpoint>
            <Position>
              <LatitudeDegrees>50.199033</LatitudeDegrees>
              <LongitudeDegrees>16.93325</LongitudeDegrees>
            </Position>
            <AltitudeMeters>841.0</AltitudeMeters>
            <DistanceMeters>39204.351628273</DistanceMeters>
          </Trackpoint>
          <Trackpoint>
            <Position>
              <LatitudeDegrees>50.198965</LatitudeDegrees>
              <LongitudeDegrees>16.933158</LongitudeDegrees>
            </Position>
            <AltitudeMeters>839.0</AltitudeMeters>
            <DistanceMeters>39214.364215784</DistanceMeters>
          </Trackpoint>
          <Trackpoint>
            <Position>
              <LatitudeDegrees>50.198873</LatitudeDegrees>
              <LongitudeDegrees>16.933125</LongitudeDegrees>
            </Position>
            <AltitudeMeters>836.0</AltitudeMeters>
            <DistanceMeters>39224.870578354</DistanceMeters>
          </Trackpoint>
          <Trackpoint>
            <Position>
              <LatitudeDegrees>50.198825</LatitudeDegrees>
              <LongitudeDegrees>16.932998</LongitudeDegrees>
            </Position>
            <AltitudeMeters>835.0</AltitudeMeters>
            <DistanceMeters>39235.379089421</DistanceMeters>
          </Trackpoint>
          <Trackpoint>
            <Position>
              <LatitudeDegrees>50.198852</LatitudeDegrees>
              <LongitudeDegrees>16.932853</LongitudeDegrees>
            </Position>
            <AltitudeMeters>832.0</AltitudeMeters>
            <DistanceMeters>39246.138530857</DistanceMeters>
          </Trackpoint>
          <Trackpoint>
            <Position>
              <LatitudeDegrees>50.198857</LatitudeDegrees>
              <LongitudeDegrees>16.932825</LongitudeDegrees>
            </Position>
            <AltitudeMeters>832.0</AltitudeMeters>
            <DistanceMeters>39248.211768997</DistanceMeters>
          </Trackpoint>
          <Trackpoint>
            <Position>
              <LatitudeDegrees>50.198872</LatitudeDegrees>
              <LongitudeDegrees>16.932787</LongitudeDegrees>
            </Position>
            <AltitudeMeters>831.0</AltitudeMeters>
            <DistanceMeters>39251.391971132</DistanceMeters>
          </Trackpoint>
          <Trackpoint>
            <Position>
              <LatitudeDegrees>50.198887</LatitudeDegrees>
              <LongitudeDegrees>16.932752</LongitudeDegrees>
            </Position>
            <AltitudeMeters>831.0</AltitudeMeters>
            <DistanceMeters>39254.393973179</DistanceMeters>
          </Trackpoint>
          <Trackpoint>
            <Position>
              <LatitudeDegrees>50.198922</LatitudeDegrees>
              <LongitudeDegrees>16.932663</LongitudeDegrees>
            </Position>
            <AltitudeMeters>830.0</AltitudeMeters>
            <DistanceMeters>39261.836451859</DistanceMeters>
          </Trackpoint>
          <Trackpoint>
            <Position>
              <LatitudeDegrees>50.198943</LatitudeDegrees>
              <LongitudeDegrees>16.932607</LongitudeDegrees>
            </Position>
            <AltitudeMeters>829.0</AltitudeMeters>
            <DistanceMeters>39266.46065136</DistanceMeters>
          </Trackpoint>
          <Trackpoint>
            <Position>
              <LatitudeDegrees>50.198952</LatitudeDegrees>
              <LongitudeDegrees>16.93258</LongitudeDegrees>
            </Position>
            <AltitudeMeters>829.0</AltitudeMeters>
            <DistanceMeters>39268.631757047</DistanceMeters>
          </Trackpoint>
          <Trackpoint>
            <Position>
              <LatitudeDegrees>50.198963</LatitudeDegrees>
              <LongitudeDegrees>16.93251</LongitudeDegrees>
            </Position>
            <AltitudeMeters>829.0</AltitudeMeters>
            <DistanceMeters>39273.766717924</DistanceMeters>
          </Trackpoint>
          <Trackpoint>
            <Position>
              <LatitudeDegrees>50.198963</LatitudeDegrees>
              <LongitudeDegrees>16.932472</LongitudeDegrees>
            </Position>
            <AltitudeMeters>829.0</AltitudeMeters>
            <DistanceMeters>39276.472894562</DistanceMeters>
          </Trackpoint>
          <Trackpoint>
            <Position>
              <LatitudeDegrees>50.198972</LatitudeDegrees>
              <LongitudeDegrees>16.932328</LongitudeDegrees>
            </Position>
            <AltitudeMeters>829.0</AltitudeMeters>
            <DistanceMeters>39286.781431781</DistanceMeters>
          </Trackpoint>
          <Trackpoint>
            <Position>
              <LatitudeDegrees>50.198965</LatitudeDegrees>
              <LongitudeDegrees>16.932185</LongitudeDegrees>
            </Position>
            <AltitudeMeters>829.0</AltitudeMeters>
            <DistanceMeters>39297.000228383</DistanceMeters>
          </Trackpoint>
          <Trackpoint>
            <Position>
              <LatitudeDegrees>50.198982</LatitudeDegrees>
              <LongitudeDegrees>16.932035</LongitudeDegrees>
            </Position>
            <AltitudeMeters>829.0</AltitudeMeters>
            <DistanceMeters>39307.853677016</DistanceMeters>
          </Trackpoint>
          <Trackpoint>
            <Position>
              <LatitudeDegrees>50.198993</LatitudeDegrees>
              <LongitudeDegrees>16.93197</LongitudeDegrees>
            </Position>
            <AltitudeMeters>828.0</AltitudeMeters>
            <DistanceMeters>39312.642872581</DistanceMeters>
          </Trackpoint>
          <Trackpoint>
            <Position>
              <LatitudeDegrees>50.199005</LatitudeDegrees>
              <LongitudeDegrees>16.931935</LongitudeDegrees>
            </Position>
            <AltitudeMeters>828.0</AltitudeMeters>
            <DistanceMeters>39315.471414207</DistanceMeters>
          </Trackpoint>
          <Trackpoint>
            <Position>
              <LatitudeDegrees>50.199015</LatitudeDegrees>
              <LongitudeDegrees>16.931903</LongitudeDegrees>
            </Position>
            <AltitudeMeters>828.0</AltitudeMeters>
            <DistanceMeters>39318.007043208</DistanceMeters>
          </Trackpoint>
          <Trackpoint>
            <Position>
              <LatitudeDegrees>50.199018</LatitudeDegrees>
              <LongitudeDegrees>16.931863</LongitudeDegrees>
            </Position>
            <AltitudeMeters>828.0</AltitudeMeters>
            <DistanceMeters>39320.876787049</DistanceMeters>
          </Trackpoint>
          <Trackpoint>
            <Position>
              <LatitudeDegrees>50.199023</LatitudeDegrees>
              <LongitudeDegrees>16.931835</LongitudeDegrees>
            </Position>
            <AltitudeMeters>828.0</AltitudeMeters>
            <DistanceMeters>39322.947846274</DistanceMeters>
          </Trackpoint>
          <Trackpoint>
            <Position>
              <LatitudeDegrees>50.199018</LatitudeDegrees>
              <LongitudeDegrees>16.931682</LongitudeDegrees>
            </Position>
            <AltitudeMeters>829.0</AltitudeMeters>
            <DistanceMeters>39333.862689311</DistanceMeters>
          </Trackpoint>
          <Trackpoint>
            <Position>
              <LatitudeDegrees>50.199013</LatitudeDegrees>
              <LongitudeDegrees>16.931653</LongitudeDegrees>
            </Position>
            <AltitudeMeters>828.0</AltitudeMeters>
            <DistanceMeters>39336.004482679</DistanceMeters>
          </Trackpoint>
          <Trackpoint>
            <Position>
              <LatitudeDegrees>50.19902</LatitudeDegrees>
              <LongitudeDegrees>16.931605</LongitudeDegrees>
            </Position>
            <AltitudeMeters>828.0</AltitudeMeters>
            <DistanceMeters>39339.511470577</DistanceMeters>
          </Trackpoint>
          <Trackpoint>
            <Position>
              <LatitudeDegrees>50.19903</LatitudeDegrees>
              <LongitudeDegrees>16.931578</LongitudeDegrees>
            </Position>
            <AltitudeMeters>828.0</AltitudeMeters>
            <DistanceMeters>39341.733958331</DistanceMeters>
          </Trackpoint>
          <Trackpoint>
            <Position>
              <LatitudeDegrees>50.199038</LatitudeDegrees>
              <LongitudeDegrees>16.931538</LongitudeDegrees>
            </Position>
            <AltitudeMeters>828.0</AltitudeMeters>
            <DistanceMeters>39344.720882422</DistanceMeters>
          </Trackpoint>
          <Trackpoint>
            <Position>
              <LatitudeDegrees>50.199045</LatitudeDegrees>
              <LongitudeDegrees>16.931502</LongitudeDegrees>
            </Position>
            <AltitudeMeters>828.0</AltitudeMeters>
            <DistanceMeters>39347.401915964</DistanceMeters>
          </Trackpoint>
          <Trackpoint>
            <Position>
              <LatitudeDegrees>50.199057</LatitudeDegrees>
              <LongitudeDegrees>16.931475</LongitudeDegrees>
            </Position>
            <AltitudeMeters>827.0</AltitudeMeters>
            <DistanceMeters>39349.743124284</DistanceMeters>
          </Trackpoint>
          <Trackpoint>
            <Position>
              <LatitudeDegrees>50.199065</LatitudeDegrees>
              <LongitudeDegrees>16.931445</LongitudeDegrees>
            </Position>
            <AltitudeMeters>827.0</AltitudeMeters>
            <DistanceMeters>39352.057175998</DistanceMeters>
          </Trackpoint>
          <Trackpoint>
            <Position>
              <LatitudeDegrees>50.199067</LatitudeDegrees>
              <LongitudeDegrees>16.931408</LongitudeDegrees>
            </Position>
            <AltitudeMeters>826.0</AltitudeMeters>
            <DistanceMeters>39354.700900485</DistanceMeters>
          </Trackpoint>
          <Trackpoint>
            <Position>
              <LatitudeDegrees>50.199058</LatitudeDegrees>
              <LongitudeDegrees>16.931367</LongitudeDegrees>
            </Position>
            <AltitudeMeters>826.0</AltitudeMeters>
            <DistanceMeters>39357.788903193</DistanceMeters>
          </Trackpoint>
          <Trackpoint>
            <Position>
              <LatitudeDegrees>50.199065</LatitudeDegrees>
              <LongitudeDegrees>16.931333</LongitudeDegrees>
            </Position>
            <AltitudeMeters>825.0</AltitudeMeters>
            <DistanceMeters>39360.33341981</DistanceMeters>
          </Trackpoint>
          <Trackpoint>
            <Position>
              <LatitudeDegrees>50.199075</LatitudeDegrees>
              <LongitudeDegrees>16.931307</LongitudeDegrees>
            </Position>
            <AltitudeMeters>824.0</AltitudeMeters>
            <DistanceMeters>39362.494102461</DistanceMeters>
          </Trackpoint>
          <Trackpoint>
            <Position>
              <LatitudeDegrees>50.199075</LatitudeDegrees>
              <LongitudeDegrees>16.93128</LongitudeDegrees>
            </Position>
            <AltitudeMeters>824.0</AltitudeMeters>
            <DistanceMeters>39364.418246776</DistanceMeters>
          </Trackpoint>
          <Trackpoint>
            <Position>
              <LatitudeDegrees>50.199075</LatitudeDegrees>
              <LongitudeDegrees>16.931247</LongitudeDegrees>
            </Position>
            <AltitudeMeters>824.0</AltitudeMeters>
            <DistanceMeters>39366.769077859</DistanceMeters>
          </Trackpoint>
          <Trackpoint>
            <Position>
              <LatitudeDegrees>50.199075</LatitudeDegrees>
              <LongitudeDegrees>16.931215</LongitudeDegrees>
            </Position>
            <AltitudeMeters>824.0</AltitudeMeters>
            <DistanceMeters>39369.049719004</DistanceMeters>
          </Trackpoint>
          <Trackpoint>
            <Position>
              <LatitudeDegrees>50.19907</LatitudeDegrees>
              <LongitudeDegrees>16.931187</LongitudeDegrees>
            </Position>
            <AltitudeMeters>824.0</AltitudeMeters>
            <DistanceMeters>39371.122957145</DistanceMeters>
          </Trackpoint>
          <Trackpoint>
            <Position>
              <LatitudeDegrees>50.19907</LatitudeDegrees>
              <LongitudeDegrees>16.931147</LongitudeDegrees>
            </Position>
            <AltitudeMeters>824.0</AltitudeMeters>
            <DistanceMeters>39373.973758576</DistanceMeters>
          </Trackpoint>
          <Trackpoint>
            <Position>
              <LatitudeDegrees>50.19907</LatitudeDegrees>
              <LongitudeDegrees>16.931102</LongitudeDegrees>
            </Position>
            <AltitudeMeters>823.0</AltitudeMeters>
            <DistanceMeters>39377.179414046</DistanceMeters>
          </Trackpoint>
          <Trackpoint>
            <Position>
              <LatitudeDegrees>50.199073</LatitudeDegrees>
              <LongitudeDegrees>16.93106</LongitudeDegrees>
            </Position>
            <AltitudeMeters>824.0</AltitudeMeters>
            <DistanceMeters>39380.188926743</DistanceMeters>
          </Trackpoint>
          <Trackpoint>
            <Position>
              <LatitudeDegrees>50.19908</LatitudeDegrees>
              <LongitudeDegrees>16.931025</LongitudeDegrees>
            </Position>
            <AltitudeMeters>823.0</AltitudeMeters>
            <DistanceMeters>39382.801729413</DistanceMeters>
          </Trackpoint>
          <Trackpoint>
            <Position>
              <LatitudeDegrees>50.199087</LatitudeDegrees>
              <LongitudeDegrees>16.93099</LongitudeDegrees>
            </Position>
            <AltitudeMeters>823.0</AltitudeMeters>
            <DistanceMeters>39385.416259556</DistanceMeters>
          </Trackpoint>
          <Trackpoint>
            <Position>
              <LatitudeDegrees>50.199097</LatitudeDegrees>
              <LongitudeDegrees>16.930952</LongitudeDegrees>
            </Position>
            <AltitudeMeters>823.0</AltitudeMeters>
            <DistanceMeters>39388.342094901</DistanceMeters>
          </Trackpoint>
          <Trackpoint>
            <Position>
              <LatitudeDegrees>50.199108</LatitudeDegrees>
              <LongitudeDegrees>16.930912</LongitudeDegrees>
            </Position>
            <AltitudeMeters>823.0</AltitudeMeters>
            <DistanceMeters>39391.444684382</DistanceMeters>
          </Trackpoint>
          <Trackpoint>
            <Position>
              <LatitudeDegrees>50.199127</LatitudeDegrees>
              <LongitudeDegrees>16.930882</LongitudeDegrees>
            </Position>
            <AltitudeMeters>823.0</AltitudeMeters>
            <DistanceMeters>39394.45269645</DistanceMeters>
          </Trackpoint>
          <Trackpoint>
            <Position>
              <LatitudeDegrees>50.199145</LatitudeDegrees>
              <LongitudeDegrees>16.930852</LongitudeDegrees>
            </Position>
            <AltitudeMeters>822.0</AltitudeMeters>
            <DistanceMeters>39397.383157625</DistanceMeters>
          </Trackpoint>
          <Trackpoint>
            <Position>
              <LatitudeDegrees>50.199157</LatitudeDegrees>
              <LongitudeDegrees>16.930812</LongitudeDegrees>
            </Position>
            <AltitudeMeters>822.0</AltitudeMeters>
            <DistanceMeters>39400.531970724</DistanceMeters>
          </Trackpoint>
          <Trackpoint>
            <Position>
              <LatitudeDegrees>50.199177</LatitudeDegrees>
              <LongitudeDegrees>16.930788</LongitudeDegrees>
            </Position>
            <AltitudeMeters>822.0</AltitudeMeters>
            <DistanceMeters>39403.338075971</DistanceMeters>
          </Trackpoint>
          <Trackpoint>
            <Position>
              <LatitudeDegrees>50.199203</LatitudeDegrees>
              <LongitudeDegrees>16.930772</LongitudeDegrees>
            </Position>
            <AltitudeMeters>821.0</AltitudeMeters>
            <DistanceMeters>39406.447933182</DistanceMeters>
          </Trackpoint>
          <Trackpoint>
            <Position>
              <LatitudeDegrees>50.199225</LatitudeDegrees>
              <LongitudeDegrees>16.930738</LongitudeDegrees>
            </Position>
            <AltitudeMeters>820.0</AltitudeMeters>
            <DistanceMeters>39409.892569658</DistanceMeters>
          </Trackpoint>
          <Trackpoint>
            <Position>
              <LatitudeDegrees>50.199245</LatitudeDegrees>
              <LongitudeDegrees>16.930707</LongitudeDegrees>
            </Position>
            <AltitudeMeters>820.0</AltitudeMeters>
            <DistanceMeters>39413.028451232</DistanceMeters>
          </Trackpoint>
          <Trackpoint>
            <Position>
              <LatitudeDegrees>50.19926</LatitudeDegrees>
              <LongitudeDegrees>16.930677</LongitudeDegrees>
            </Position>
            <AltitudeMeters>820.0</AltitudeMeters>
            <DistanceMeters>39415.74129334</DistanceMeters>
          </Trackpoint>
          <Trackpoint>
            <Position>
              <LatitudeDegrees>50.19928</LatitudeDegrees>
              <LongitudeDegrees>16.930657</LongitudeDegrees>
            </Position>
            <AltitudeMeters>819.0</AltitudeMeters>
            <DistanceMeters>39418.385017827</DistanceMeters>
          </Trackpoint>
          <Trackpoint>
            <Position>
              <LatitudeDegrees>50.199298</LatitudeDegrees>
              <LongitudeDegrees>16.93063</LongitudeDegrees>
            </Position>
            <AltitudeMeters>819.0</AltitudeMeters>
            <DistanceMeters>39421.162009956</DistanceMeters>
          </Trackpoint>
          <Trackpoint>
            <Position>
              <LatitudeDegrees>50.199318</LatitudeDegrees>
              <LongitudeDegrees>16.9306</LongitudeDegrees>
            </Position>
            <AltitudeMeters>819.0</AltitudeMeters>
            <DistanceMeters>39424.247087033</DistanceMeters>
          </Trackpoint>
          <Trackpoint>
            <Position>
              <LatitudeDegrees>50.199337</LatitudeDegrees>
              <LongitudeDegrees>16.930577</LongitudeDegrees>
            </Position>
            <AltitudeMeters>818.0</AltitudeMeters>
            <DistanceMeters>39426.921375825</DistanceMeters>
          </Trackpoint>
          <Trackpoint>
            <Position>
              <LatitudeDegrees>50.199362</LatitudeDegrees>
              <LongitudeDegrees>16.930565</LongitudeDegrees>
            </Position>
            <AltitudeMeters>818.0</AltitudeMeters>
            <DistanceMeters>39429.831738639</DistanceMeters>
          </Trackpoint>
          <Trackpoint>
            <Position>
              <LatitudeDegrees>50.199377</LatitudeDegrees>
              <LongitudeDegrees>16.93054</LongitudeDegrees>
            </Position>
            <AltitudeMeters>818.0</AltitudeMeters>
            <DistanceMeters>39432.273019133</DistanceMeters>
          </Trackpoint>
          <Trackpoint>
            <Position>
              <LatitudeDegrees>50.199392</LatitudeDegrees>
              <LongitudeDegrees>16.930517</LongitudeDegrees>
            </Position>
            <AltitudeMeters>817.0</AltitudeMeters>
            <DistanceMeters>39434.612298151</DistanceMeters>
          </Trackpoint>
          <Trackpoint>
            <Position>
              <LatitudeDegrees>50.19941</LatitudeDegrees>
              <LongitudeDegrees>16.93049</LongitudeDegrees>
            </Position>
            <AltitudeMeters>817.0</AltitudeMeters>
            <DistanceMeters>39437.38929028</DistanceMeters>
          </Trackpoint>
          <Trackpoint>
            <Position>
              <LatitudeDegrees>50.199432</LatitudeDegrees>
              <LongitudeDegrees>16.930465</LongitudeDegrees>
            </Position>
            <AltitudeMeters>817.0</AltitudeMeters>
            <DistanceMeters>39440.41824351</DistanceMeters>
          </Trackpoint>
          <Trackpoint>
            <Position>
              <LatitudeDegrees>50.199535</LatitudeDegrees>
              <LongitudeDegrees>16.930402</LongitudeDegrees>
            </Position>
            <AltitudeMeters>817.0</AltitudeMeters>
            <DistanceMeters>39452.729980316</DistanceMeters>
          </Trackpoint>
          <Trackpoint>
            <Position>
              <LatitudeDegrees>50.199585</LatitudeDegrees>
              <LongitudeDegrees>16.93027</LongitudeDegrees>
            </Position>
            <AltitudeMeters>816.0</AltitudeMeters>
            <DistanceMeters>39463.657639301</DistanceMeters>
          </Trackpoint>
          <Trackpoint>
            <Position>
              <LatitudeDegrees>50.199638</LatitudeDegrees>
              <LongitudeDegrees>16.930137</LongitudeDegrees>
            </Position>
            <AltitudeMeters>815.0</AltitudeMeters>
            <DistanceMeters>39474.819941697</DistanceMeters>
          </Trackpoint>
          <Trackpoint>
            <Position>
              <LatitudeDegrees>50.199638</LatitudeDegrees>
              <LongitudeDegrees>16.929992</LongitudeDegrees>
            </Position>
            <AltitudeMeters>815.0</AltitudeMeters>
            <DistanceMeters>39485.150355213</DistanceMeters>
          </Trackpoint>
          <Trackpoint>
            <Position>
              <LatitudeDegrees>50.199733</LatitudeDegrees>
              <LongitudeDegrees>16.929907</LongitudeDegrees>
            </Position>
            <AltitudeMeters>814.0</AltitudeMeters>
            <DistanceMeters>39497.335655659</DistanceMeters>
          </Trackpoint>
          <Trackpoint>
            <Position>
              <LatitudeDegrees>50.199762</LatitudeDegrees>
              <LongitudeDegrees>16.929868</LongitudeDegrees>
            </Position>
            <AltitudeMeters>813.0</AltitudeMeters>
            <DistanceMeters>39501.594930665</DistanceMeters>
          </Trackpoint>
          <Trackpoint>
            <Position>
              <LatitudeDegrees>50.199775</LatitudeDegrees>
              <LongitudeDegrees>16.929848</LongitudeDegrees>
            </Position>
            <AltitudeMeters>813.0</AltitudeMeters>
            <DistanceMeters>39503.624145996</DistanceMeters>
          </Trackpoint>
          <Trackpoint>
            <Position>
              <LatitudeDegrees>50.19979</LatitudeDegrees>
              <LongitudeDegrees>16.929828</LongitudeDegrees>
            </Position>
            <AltitudeMeters>813.0</AltitudeMeters>
            <DistanceMeters>39505.820065125</DistanceMeters>
          </Trackpoint>
          <Trackpoint>
            <Position>
              <LatitudeDegrees>50.199855</LatitudeDegrees>
              <LongitudeDegrees>16.929727</LongitudeDegrees>
            </Position>
            <AltitudeMeters>812.0</AltitudeMeters>
            <DistanceMeters>39516.024270703</DistanceMeters>
          </Trackpoint>
          <Trackpoint>
            <Position>
              <LatitudeDegrees>50.199875</LatitudeDegrees>
              <LongitudeDegrees>16.929677</LongitudeDegrees>
            </Position>
            <AltitudeMeters>812.0</AltitudeMeters>
            <DistanceMeters>39520.224838447</DistanceMeters>
          </Trackpoint>
          <Trackpoint>
            <Position>
              <LatitudeDegrees>50.199892</LatitudeDegrees>
              <LongitudeDegrees>16.929657</LongitudeDegrees>
            </Position>
            <AltitudeMeters>812.0</AltitudeMeters>
            <DistanceMeters>39522.594797845</DistanceMeters>
          </Trackpoint>
          <Trackpoint>
            <Position>
              <LatitudeDegrees>50.199908</LatitudeDegrees>
              <LongitudeDegrees>16.92963</LongitudeDegrees>
            </Position>
            <AltitudeMeters>811.0</AltitudeMeters>
            <DistanceMeters>39525.216226496</DistanceMeters>
          </Trackpoint>
          <Trackpoint>
            <Position>
              <LatitudeDegrees>50.19993</LatitudeDegrees>
              <LongitudeDegrees>16.92959</LongitudeDegrees>
            </Position>
            <AltitudeMeters>811.0</AltitudeMeters>
            <DistanceMeters>39528.974289768</DistanceMeters>
          </Trackpoint>
          <Trackpoint>
            <Position>
              <LatitudeDegrees>50.19994</LatitudeDegrees>
              <LongitudeDegrees>16.929565</LongitudeDegrees>
            </Position>
            <AltitudeMeters>811.0</AltitudeMeters>
            <DistanceMeters>39531.075648229</DistanceMeters>
          </Trackpoint>
          <Trackpoint>
            <Position>
              <LatitudeDegrees>50.200018</LatitudeDegrees>
              <LongitudeDegrees>16.929495</LongitudeDegrees>
            </Position>
            <AltitudeMeters>811.0</AltitudeMeters>
            <DistanceMeters>39541.088235741</DistanceMeters>
          </Trackpoint>
          <Trackpoint>
            <Position>
              <LatitudeDegrees>50.200023</LatitudeDegrees>
              <LongitudeDegrees>16.929383</LongitudeDegrees>
            </Position>
            <AltitudeMeters>807.0</AltitudeMeters>
            <DistanceMeters>39549.087430806</DistanceMeters>
          </Trackpoint>
          <Trackpoint>
            <Position>
              <LatitudeDegrees>50.200033</LatitudeDegrees>
              <LongitudeDegrees>16.929348</LongitudeDegrees>
            </Position>
            <AltitudeMeters>806.0</AltitudeMeters>
            <DistanceMeters>39551.818519076</DistanceMeters>
          </Trackpoint>
          <Trackpoint>
            <Position>
              <LatitudeDegrees>50.200043</LatitudeDegrees>
              <LongitudeDegrees>16.929315</LongitudeDegrees>
            </Position>
            <AltitudeMeters>807.0</AltitudeMeters>
            <DistanceMeters>39554.420932828</DistanceMeters>
          </Trackpoint>
          <Trackpoint>
            <Position>
              <LatitudeDegrees>50.200047</LatitudeDegrees>
              <LongitudeDegrees>16.929268</LongitudeDegrees>
            </Position>
            <AltitudeMeters>806.0</AltitudeMeters>
            <DistanceMeters>39557.799396476</DistanceMeters>
          </Trackpoint>
          <Trackpoint>
            <Position>
              <LatitudeDegrees>50.200053</LatitudeDegrees>
              <LongitudeDegrees>16.92923</LongitudeDegrees>
            </Position>
            <AltitudeMeters>805.0</AltitudeMeters>
            <DistanceMeters>39560.589365275</DistanceMeters>
          </Trackpoint>
          <Trackpoint>
            <Position>
              <LatitudeDegrees>50.200065</LatitudeDegrees>
              <LongitudeDegrees>16.929193</LongitudeDegrees>
            </Position>
            <AltitudeMeters>804.0</AltitudeMeters>
            <DistanceMeters>39563.544375244</DistanceMeters>
          </Trackpoint>
          <Trackpoint>
            <Position>
              <LatitudeDegrees>50.200072</LatitudeDegrees>
              <LongitudeDegrees>16.929163</LongitudeDegrees>
            </Position>
            <AltitudeMeters>803.0</AltitudeMeters>
            <DistanceMeters>39565.8210535</DistanceMeters>
          </Trackpoint>
          <Trackpoint>
            <Position>
              <LatitudeDegrees>50.200077</LatitudeDegrees>
              <LongitudeDegrees>16.929135</LongitudeDegrees>
            </Position>
            <AltitudeMeters>802.0</AltitudeMeters>
            <DistanceMeters>39567.89429164</DistanceMeters>
          </Trackpoint>
          <Trackpoint>
            <Position>
              <LatitudeDegrees>50.200082</LatitudeDegrees>
              <LongitudeDegrees>16.929103</LongitudeDegrees>
            </Position>
            <AltitudeMeters>802.0</AltitudeMeters>
            <DistanceMeters>39570.239353805</DistanceMeters>
          </Trackpoint>
          <Trackpoint>
            <Position>
              <LatitudeDegrees>50.20009</LatitudeDegrees>
              <LongitudeDegrees>16.929073</LongitudeDegrees>
            </Position>
            <AltitudeMeters>801.0</AltitudeMeters>
            <DistanceMeters>39572.555355836</DistanceMeters>
          </Trackpoint>
          <Trackpoint>
            <Position>
              <LatitudeDegrees>50.20009</LatitudeDegrees>
              <LongitudeDegrees>16.92904</LongitudeDegrees>
            </Position>
            <AltitudeMeters>800.0</AltitudeMeters>
            <DistanceMeters>39574.902342549</DistanceMeters>
          </Trackpoint>
          <Trackpoint>
            <Position>
              <LatitudeDegrees>50.200092</LatitudeDegrees>
              <LongitudeDegrees>16.929003</LongitudeDegrees>
            </Position>
            <AltitudeMeters>800.0</AltitudeMeters>
            <DistanceMeters>39577.546067036</DistanceMeters>
          </Trackpoint>
          <Trackpoint>
            <Position>
              <LatitudeDegrees>50.200095</LatitudeDegrees>
              <LongitudeDegrees>16.92895</LongitudeDegrees>
            </Position>
            <AltitudeMeters>800.0</AltitudeMeters>
            <DistanceMeters>39581.337621032</DistanceMeters>
          </Trackpoint>
          <Trackpoint>
            <Position>
              <LatitudeDegrees>50.2001</LatitudeDegrees>
              <LongitudeDegrees>16.928918</LongitudeDegrees>
            </Position>
            <AltitudeMeters>800.0</AltitudeMeters>
            <DistanceMeters>39583.684607745</DistanceMeters>
          </Trackpoint>
          <Trackpoint>
            <Position>
              <LatitudeDegrees>50.200122</LatitudeDegrees>
              <LongitudeDegrees>16.928778</LongitudeDegrees>
            </Position>
            <AltitudeMeters>799.0</AltitudeMeters>
            <DistanceMeters>39593.955408737</DistanceMeters>
          </Trackpoint>
          <Trackpoint>
            <Position>
              <LatitudeDegrees>50.200128</LatitudeDegrees>
              <LongitudeDegrees>16.928748</LongitudeDegrees>
            </Position>
            <AltitudeMeters>798.0</AltitudeMeters>
            <DistanceMeters>39596.194089693</DistanceMeters>
          </Trackpoint>
          <Trackpoint>
            <Position>
              <LatitudeDegrees>50.200135</LatitudeDegrees>
              <LongitudeDegrees>16.92871</LongitudeDegrees>
            </Position>
            <AltitudeMeters>798.0</AltitudeMeters>
            <DistanceMeters>39599.009832423</DistanceMeters>
          </Trackpoint>
          <Trackpoint>
            <Position>
              <LatitudeDegrees>50.200143</LatitudeDegrees>
              <LongitudeDegrees>16.928668</LongitudeDegrees>
            </Position>
            <AltitudeMeters>797.0</AltitudeMeters>
            <DistanceMeters>39602.132728924</DistanceMeters>
          </Trackpoint>
          <Trackpoint>
            <Position>
              <LatitudeDegrees>50.200158</LatitudeDegrees>
              <LongitudeDegrees>16.928623</LongitudeDegrees>
            </Position>
            <AltitudeMeters>797.0</AltitudeMeters>
            <DistanceMeters>39605.746243908</DistanceMeters>
          </Trackpoint>
          <Trackpoint>
            <Position>
              <LatitudeDegrees>50.200172</LatitudeDegrees>
              <LongitudeDegrees>16.928583</LongitudeDegrees>
            </Position>
            <AltitudeMeters>797.0</AltitudeMeters>
            <DistanceMeters>39608.993878322</DistanceMeters>
          </Trackpoint>
          <Trackpoint>
            <Position>
              <LatitudeDegrees>50.200183</LatitudeDegrees>
              <LongitudeDegrees>16.928537</LongitudeDegrees>
            </Position>
            <AltitudeMeters>796.0</AltitudeMeters>
            <DistanceMeters>39612.493133051</DistanceMeters>
          </Trackpoint>
          <Trackpoint>
            <Position>
              <LatitudeDegrees>50.200197</LatitudeDegrees>
              <LongitudeDegrees>16.928498</LongitudeDegrees>
            </Position>
            <AltitudeMeters>796.0</AltitudeMeters>
            <DistanceMeters>39615.679009057</DistanceMeters>
          </Trackpoint>
          <Trackpoint>
            <Position>
              <LatitudeDegrees>50.200212</LatitudeDegrees>
              <LongitudeDegrees>16.928463</LongitudeDegrees>
            </Position>
            <AltitudeMeters>796.0</AltitudeMeters>
            <DistanceMeters>39618.679506718</DistanceMeters>
          </Trackpoint>
          <Trackpoint>
            <Position>
              <LatitudeDegrees>50.200225</LatitudeDegrees>
              <LongitudeDegrees>16.928427</LongitudeDegrees>
            </Position>
            <AltitudeMeters>796.0</AltitudeMeters>
            <DistanceMeters>39621.623801775</DistanceMeters>
          </Trackpoint>
          <Trackpoint>
            <Position>
              <LatitudeDegrees>50.200238</LatitudeDegrees>
              <LongitudeDegrees>16.928392</LongitudeDegrees>
            </Position>
            <AltitudeMeters>796.0</AltitudeMeters>
            <DistanceMeters>39624.506104731</DistanceMeters>
          </Trackpoint>
          <Trackpoint>
            <Position>
              <LatitudeDegrees>50.200252</LatitudeDegrees>
              <LongitudeDegrees>16.928348</LongitudeDegrees>
            </Position>
            <AltitudeMeters>796.0</AltitudeMeters>
            <DistanceMeters>39628.00793908</DistanceMeters>
          </Trackpoint>
          <Trackpoint>
            <Position>
              <LatitudeDegrees>50.200263</LatitudeDegrees>
              <LongitudeDegrees>16.928317</LongitudeDegrees>
            </Position>
            <AltitudeMeters>796.0</AltitudeMeters>
            <DistanceMeters>39630.532861647</DistanceMeters>
          </Trackpoint>
          <Trackpoint>
            <Position>
              <LatitudeDegrees>50.200275</LatitudeDegrees>
              <LongitudeDegrees>16.92829</LongitudeDegrees>
            </Position>
            <AltitudeMeters>796.0</AltitudeMeters>
            <DistanceMeters>39632.872140666</DistanceMeters>
          </Trackpoint>
          <Trackpoint>
            <Position>
              <LatitudeDegrees>50.200287</LatitudeDegrees>
              <LongitudeDegrees>16.928253</LongitudeDegrees>
            </Position>
            <AltitudeMeters>796.0</AltitudeMeters>
            <DistanceMeters>39635.827150635</DistanceMeters>
          </Trackpoint>
          <Trackpoint>
            <Position>
              <LatitudeDegrees>50.200297</LatitudeDegrees>
              <LongitudeDegrees>16.928218</LongitudeDegrees>
            </Position>
            <AltitudeMeters>796.0</AltitudeMeters>
            <DistanceMeters>39638.558238906</DistanceMeters>
          </Trackpoint>
          <Trackpoint>
            <Position>
              <LatitudeDegrees>50.200312</LatitudeDegrees>
              <LongitudeDegrees>16.928188</LongitudeDegrees>
            </Position>
            <AltitudeMeters>796.0</AltitudeMeters>
            <DistanceMeters>39641.271081014</DistanceMeters>
          </Trackpoint>
          <Trackpoint>
            <Position>
              <LatitudeDegrees>50.200325</LatitudeDegrees>
              <LongitudeDegrees>16.928157</LongitudeDegrees>
            </Position>
            <AltitudeMeters>796.0</AltitudeMeters>
            <DistanceMeters>39643.911387628</DistanceMeters>
          </Trackpoint>
          <Trackpoint>
            <Position>
              <LatitudeDegrees>50.200338</LatitudeDegrees>
              <LongitudeDegrees>16.928118</LongitudeDegrees>
            </Position>
            <AltitudeMeters>796.0</AltitudeMeters>
            <DistanceMeters>39647.045829073</DistanceMeters>
          </Trackpoint>
          <Trackpoint>
            <Position>
              <LatitudeDegrees>50.200353</LatitudeDegrees>
              <LongitudeDegrees>16.928083</LongitudeDegrees>
            </Position>
            <AltitudeMeters>796.0</AltitudeMeters>
            <DistanceMeters>39650.046326734</DistanceMeters>
          </Trackpoint>
          <Trackpoint>
            <Position>
              <LatitudeDegrees>50.200367</LatitudeDegrees>
              <LongitudeDegrees>16.928053</LongitudeDegrees>
            </Position>
            <AltitudeMeters>796.0</AltitudeMeters>
            <DistanceMeters>39652.691758503</DistanceMeters>
          </Trackpoint>
          <Trackpoint>
            <Position>
              <LatitudeDegrees>50.200378</LatitudeDegrees>
              <LongitudeDegrees>16.928017</LongitudeDegrees>
            </Position>
            <AltitudeMeters>796.0</AltitudeMeters>
            <DistanceMeters>39655.533041372</DistanceMeters>
          </Trackpoint>
          <Trackpoint>
            <Position>
              <LatitudeDegrees>50.200428</LatitudeDegrees>
              <LongitudeDegrees>16.927887</LongitudeDegrees>
            </Position>
            <AltitudeMeters>796.0</AltitudeMeters>
            <DistanceMeters>39666.338126209</DistanceMeters>
          </Trackpoint>
          <Trackpoint>
            <Position>
              <LatitudeDegrees>50.200502</LatitudeDegrees>
              <LongitudeDegrees>16.927802</LongitudeDegrees>
            </Position>
            <AltitudeMeters>796.0</AltitudeMeters>
            <DistanceMeters>39676.561340222</DistanceMeters>
          </Trackpoint>
          <Trackpoint>
            <Position>
              <LatitudeDegrees>50.200563</LatitudeDegrees>
              <LongitudeDegrees>16.927683</LongitudeDegrees>
            </Position>
            <AltitudeMeters>795.0</AltitudeMeters>
            <DistanceMeters>39687.423521348</DistanceMeters>
          </Trackpoint>
          <Trackpoint>
            <Position>
              <LatitudeDegrees>50.200597</LatitudeDegrees>
              <LongitudeDegrees>16.927533</LongitudeDegrees>
            </Position>
            <AltitudeMeters>794.0</AltitudeMeters>
            <DistanceMeters>39698.760809741</DistanceMeters>
          </Trackpoint>
          <Trackpoint>
            <Position>
              <LatitudeDegrees>50.200677</LatitudeDegrees>
              <LongitudeDegrees>16.927455</LongitudeDegrees>
            </Position>
            <AltitudeMeters>794.0</AltitudeMeters>
            <DistanceMeters>39709.255993039</DistanceMeters>
          </Trackpoint>
          <Trackpoint>
            <Position>
              <LatitudeDegrees>50.200765</LatitudeDegrees>
              <LongitudeDegrees>16.927382</LongitudeDegrees>
            </Position>
            <AltitudeMeters>794.0</AltitudeMeters>
            <DistanceMeters>39720.345655392</DistanceMeters>
          </Trackpoint>
          <Trackpoint>
            <Position>
              <LatitudeDegrees>50.200745</LatitudeDegrees>
              <LongitudeDegrees>16.927235</LongitudeDegrees>
            </Position>
            <AltitudeMeters>793.0</AltitudeMeters>
            <DistanceMeters>39731.05293565</DistanceMeters>
          </Trackpoint>
          <Trackpoint>
            <Position>
              <LatitudeDegrees>50.200718</LatitudeDegrees>
              <LongitudeDegrees>16.927052</LongitudeDegrees>
            </Position>
            <AltitudeMeters>792.0</AltitudeMeters>
            <DistanceMeters>39744.432818516</DistanceMeters>
          </Trackpoint>
          <Trackpoint>
            <Position>
              <LatitudeDegrees>50.20068</LatitudeDegrees>
              <LongitudeDegrees>16.926925</LongitudeDegrees>
            </Position>
            <AltitudeMeters>791.0</AltitudeMeters>
            <DistanceMeters>39754.42102579</DistanceMeters>
          </Trackpoint>
          <Trackpoint>
            <Position>
              <LatitudeDegrees>50.200687</LatitudeDegrees>
              <LongitudeDegrees>16.926775</LongitudeDegrees>
            </Position>
            <AltitudeMeters>790.0</AltitudeMeters>
            <DistanceMeters>39765.135893587</DistanceMeters>
          </Trackpoint>
          <Trackpoint>
            <Position>
              <LatitudeDegrees>50.200622</LatitudeDegrees>
              <LongitudeDegrees>16.926665</LongitudeDegrees>
            </Position>
            <AltitudeMeters>788.0</AltitudeMeters>
            <DistanceMeters>39775.801769221</DistanceMeters>
          </Trackpoint>
          <Trackpoint>
            <Position>
              <LatitudeDegrees>50.200625</LatitudeDegrees>
              <LongitudeDegrees>16.926517</LongitudeDegrees>
            </Position>
            <AltitudeMeters>788.0</AltitudeMeters>
            <DistanceMeters>39786.351018583</DistanceMeters>
          </Trackpoint>
          <Trackpoint>
            <Position>
              <LatitudeDegrees>50.200672</LatitudeDegrees>
              <LongitudeDegrees>16.926385</LongitudeDegrees>
            </Position>
            <AltitudeMeters>788.0</AltitudeMeters>
            <DistanceMeters>39797.112557989</DistanceMeters>
          </Trackpoint>
          <Trackpoint>
            <Position>
              <LatitudeDegrees>50.200688</LatitudeDegrees>
              <LongitudeDegrees>16.926237</LongitudeDegrees>
            </Position>
            <AltitudeMeters>788.0</AltitudeMeters>
            <DistanceMeters>39807.806335998</DistanceMeters>
          </Trackpoint>
          <Trackpoint>
            <Position>
              <LatitudeDegrees>50.200773</LatitudeDegrees>
              <LongitudeDegrees>16.926158</LongitudeDegrees>
            </Position>
            <AltitudeMeters>787.0</AltitudeMeters>
            <DistanceMeters>39818.814679464</DistanceMeters>
          </Trackpoint>
          <Trackpoint>
            <Position>
              <LatitudeDegrees>50.200828</LatitudeDegrees>
              <LongitudeDegrees>16.926022</LongitudeDegrees>
            </Position>
            <AltitudeMeters>787.0</AltitudeMeters>
            <DistanceMeters>39830.275547318</DistanceMeters>
          </Trackpoint>
          <Trackpoint>
            <Position>
              <LatitudeDegrees>50.200873</LatitudeDegrees>
              <LongitudeDegrees>16.925897</LongitudeDegrees>
            </Position>
            <AltitudeMeters>787.0</AltitudeMeters>
            <DistanceMeters>39840.492576421</DistanceMeters>
          </Trackpoint>
          <Trackpoint>
            <Position>
              <LatitudeDegrees>50.200913</LatitudeDegrees>
              <LongitudeDegrees>16.925767</LongitudeDegrees>
            </Position>
            <AltitudeMeters>787.0</AltitudeMeters>
            <DistanceMeters>39850.768651252</DistanceMeters>
          </Trackpoint>
          <Trackpoint>
            <Position>
              <LatitudeDegrees>50.200908</LatitudeDegrees>
              <LongitudeDegrees>16.925625</LongitudeDegrees>
            </Position>
            <AltitudeMeters>786.0</AltitudeMeters>
            <DistanceMeters>39860.90136901</DistanceMeters>
          </Trackpoint>
          <Trackpoint>
            <Position>
              <LatitudeDegrees>50.200953</LatitudeDegrees>
              <LongitudeDegrees>16.925502</LongitudeDegrees>
            </Position>
            <AltitudeMeters>786.0</AltitudeMeters>
            <DistanceMeters>39870.994798677</DistanceMeters>
          </Trackpoint>
          <Trackpoint>
            <Position>
              <LatitudeDegrees>50.201005</LatitudeDegrees>
              <LongitudeDegrees>16.92538</LongitudeDegrees>
            </Position>
            <AltitudeMeters>786.0</AltitudeMeters>
            <DistanceMeters>39881.437365561</DistanceMeters>
          </Trackpoint>
          <Trackpoint>
            <Position>
              <LatitudeDegrees>50.200975</LatitudeDegrees>
              <LongitudeDegrees>16.925243</LongitudeDegrees>
            </Position>
            <AltitudeMeters>786.0</AltitudeMeters>
            <DistanceMeters>39891.753345926</DistanceMeters>
          </Trackpoint>
          <Trackpoint>
            <Position>
              <LatitudeDegrees>50.200958</LatitudeDegrees>
              <LongitudeDegrees>16.925105</LongitudeDegrees>
            </Position>
            <AltitudeMeters>785.0</AltitudeMeters>
            <DistanceMeters>39901.765031525</DistanceMeters>
          </Trackpoint>
          <Trackpoint>
            <Position>
              <LatitudeDegrees>50.200978</LatitudeDegrees>
              <LongitudeDegrees>16.924955</LongitudeDegrees>
            </Position>
            <AltitudeMeters>785.0</AltitudeMeters>
            <DistanceMeters>39912.681115473</DistanceMeters>
          </Trackpoint>
          <Trackpoint>
            <Position>
              <LatitudeDegrees>50.201007</LatitudeDegrees>
              <LongitudeDegrees>16.924815</LongitudeDegrees>
            </Position>
            <AltitudeMeters>785.0</AltitudeMeters>
            <DistanceMeters>39923.164246223</DistanceMeters>
          </Trackpoint>
          <Trackpoint>
            <Position>
              <LatitudeDegrees>50.201008</LatitudeDegrees>
              <LongitudeDegrees>16.924668</LongitudeDegrees>
            </Position>
            <AltitudeMeters>785.0</AltitudeMeters>
            <DistanceMeters>39933.63746629</DistanceMeters>
          </Trackpoint>
          <Trackpoint>
            <Position>
              <LatitudeDegrees>50.201023</LatitudeDegrees>
              <LongitudeDegrees>16.924527</LongitudeDegrees>
            </Position>
            <AltitudeMeters>785.0</AltitudeMeters>
            <DistanceMeters>39943.82085462</DistanceMeters>
          </Trackpoint>
          <Trackpoint>
            <Position>
              <LatitudeDegrees>50.201035</LatitudeDegrees>
              <LongitudeDegrees>16.924375</LongitudeDegrees>
            </Position>
            <AltitudeMeters>785.0</AltitudeMeters>
            <DistanceMeters>39954.732387872</DistanceMeters>
          </Trackpoint>
          <Trackpoint>
            <Position>
              <LatitudeDegrees>50.20104</LatitudeDegrees>
              <LongitudeDegrees>16.924218</LongitudeDegrees>
            </Position>
            <AltitudeMeters>785.0</AltitudeMeters>
            <DistanceMeters>39965.931035185</DistanceMeters>
          </Trackpoint>
          <Trackpoint>
            <Position>
              <LatitudeDegrees>50.201058</LatitudeDegrees>
              <LongitudeDegrees>16.924067</LongitudeDegrees>
            </Position>
            <AltitudeMeters>786.0</AltitudeMeters>
            <DistanceMeters>39976.87355837</DistanceMeters>
          </Trackpoint>
          <Trackpoint>
            <Position>
              <LatitudeDegrees>50.201088</LatitudeDegrees>
              <LongitudeDegrees>16.923927</LongitudeDegrees>
            </Position>
            <AltitudeMeters>785.0</AltitudeMeters>
            <DistanceMeters>39987.391946868</DistanceMeters>
          </Trackpoint>
          <Trackpoint>
            <Position>
              <LatitudeDegrees>50.201088</LatitudeDegrees>
              <LongitudeDegrees>16.92378</LongitudeDegrees>
            </Position>
            <AltitudeMeters>785.0</AltitudeMeters>
            <DistanceMeters>39997.864735823</DistanceMeters>
          </Trackpoint>
          <Trackpoint>
            <Position>
              <LatitudeDegrees>50.201085</LatitudeDegrees>
              <LongitudeDegrees>16.92363</LongitudeDegrees>
            </Position>
            <AltitudeMeters>784.0</AltitudeMeters>
            <DistanceMeters>40008.556824851</DistanceMeters>
          </Trackpoint>
          <Trackpoint>
            <Position>
              <LatitudeDegrees>50.20111</LatitudeDegrees>
              <LongitudeDegrees>16.92348</LongitudeDegrees>
            </Position>
            <AltitudeMeters>785.0</AltitudeMeters>
            <DistanceMeters>40019.599566915</DistanceMeters>
          </Trackpoint>
          <Trackpoint>
            <Position>
              <LatitudeDegrees>50.201137</LatitudeDegrees>
              <LongitudeDegrees>16.923347</LongitudeDegrees>
            </Position>
            <AltitudeMeters>784.0</AltitudeMeters>
            <DistanceMeters>40029.540197002</DistanceMeters>
          </Trackpoint>
          <Trackpoint>
            <Position>
              <LatitudeDegrees>50.201162</LatitudeDegrees>
              <LongitudeDegrees>16.923295</LongitudeDegrees>
            </Position>
            <AltitudeMeters>782.0</AltitudeMeters>
            <DistanceMeters>40034.17415015</DistanceMeters>
          </Trackpoint>
          <Trackpoint>
            <Position>
              <LatitudeDegrees>50.201135</LatitudeDegrees>
              <LongitudeDegrees>16.923148</LongitudeDegrees>
            </Position>
            <AltitudeMeters>782.0</AltitudeMeters>
            <DistanceMeters>40045.069533803</DistanceMeters>
          </Trackpoint>
          <Trackpoint>
            <Position>
              <LatitudeDegrees>50.201068</LatitudeDegrees>
              <LongitudeDegrees>16.923025</LongitudeDegrees>
            </Position>
            <AltitudeMeters>783.0</AltitudeMeters>
            <DistanceMeters>40056.576009407</DistanceMeters>
          </Trackpoint>
          <Trackpoint>
            <Position>
              <LatitudeDegrees>50.201157</LatitudeDegrees>
              <LongitudeDegrees>16.922943</LongitudeDegrees>
            </Position>
            <AltitudeMeters>782.0</AltitudeMeters>
            <DistanceMeters>40068.07620504</DistanceMeters>
          </Trackpoint>
          <Trackpoint>
            <Position>
              <LatitudeDegrees>50.201187</LatitudeDegrees>
              <LongitudeDegrees>16.922797</LongitudeDegrees>
            </Position>
            <AltitudeMeters>782.0</AltitudeMeters>
            <DistanceMeters>40079.000558123</DistanceMeters>
          </Trackpoint>
          <Trackpoint>
            <Position>
              <LatitudeDegrees>50.201228</LatitudeDegrees>
              <LongitudeDegrees>16.922673</LongitudeDegrees>
            </Position>
            <AltitudeMeters>780.0</AltitudeMeters>
            <DistanceMeters>40088.943458952</DistanceMeters>
          </Trackpoint>
          <Trackpoint>
            <Position>
              <LatitudeDegrees>50.201223</LatitudeDegrees>
              <LongitudeDegrees>16.922532</LongitudeDegrees>
            </Position>
            <AltitudeMeters>779.0</AltitudeMeters>
            <DistanceMeters>40099.003732149</DistanceMeters>
          </Trackpoint>
          <Trackpoint>
            <Position>
              <LatitudeDegrees>50.201285</LatitudeDegrees>
              <LongitudeDegrees>16.922407</LongitudeDegrees>
            </Position>
            <AltitudeMeters>778.0</AltitudeMeters>
            <DistanceMeters>40110.269909606</DistanceMeters>
          </Trackpoint>
          <Trackpoint>
            <Position>
              <LatitudeDegrees>50.201253</LatitudeDegrees>
              <LongitudeDegrees>16.922267</LongitudeDegrees>
            </Position>
            <AltitudeMeters>775.0</AltitudeMeters>
            <DistanceMeters>40120.860166894</DistanceMeters>
          </Trackpoint>
          <Trackpoint>
            <Position>
              <LatitudeDegrees>50.201205</LatitudeDegrees>
              <LongitudeDegrees>16.922138</LongitudeDegrees>
            </Position>
            <AltitudeMeters>774.0</AltitudeMeters>
            <DistanceMeters>40131.490424493</DistanceMeters>
          </Trackpoint>
          <Trackpoint>
            <Position>
              <LatitudeDegrees>50.20111</LatitudeDegrees>
              <LongitudeDegrees>16.922143</LongitudeDegrees>
            </Position>
            <AltitudeMeters>772.0</AltitudeMeters>
            <DistanceMeters>40142.070017941</DistanceMeters>
          </Trackpoint>
          <Trackpoint>
            <Position>
              <LatitudeDegrees>50.201043</LatitudeDegrees>
              <LongitudeDegrees>16.922043</LongitudeDegrees>
            </Position>
            <AltitudeMeters>772.0</AltitudeMeters>
            <DistanceMeters>40152.383371927</DistanceMeters>
          </Trackpoint>
          <Trackpoint>
            <Position>
              <LatitudeDegrees>50.20098</LatitudeDegrees>
              <LongitudeDegrees>16.921933</LongitudeDegrees>
            </Position>
            <AltitudeMeters>770.0</AltitudeMeters>
            <DistanceMeters>40162.899184598</DistanceMeters>
          </Trackpoint>
          <Trackpoint>
            <Position>
              <LatitudeDegrees>50.200897</LatitudeDegrees>
              <LongitudeDegrees>16.921865</LongitudeDegrees>
            </Position>
            <AltitudeMeters>769.0</AltitudeMeters>
            <DistanceMeters>40173.330503841</DistanceMeters>
          </Trackpoint>
          <Trackpoint>
            <Position>
              <LatitudeDegrees>50.200872</LatitudeDegrees>
              <LongitudeDegrees>16.921722</LongitudeDegrees>
            </Position>
            <AltitudeMeters>768.0</AltitudeMeters>
            <DistanceMeters>40183.891730296</DistanceMeters>
          </Trackpoint>
          <Trackpoint>
            <Position>
              <LatitudeDegrees>50.20085</LatitudeDegrees>
              <LongitudeDegrees>16.921583</LongitudeDegrees>
            </Position>
            <AltitudeMeters>767.0</AltitudeMeters>
            <DistanceMeters>40194.092838125</DistanceMeters>
          </Trackpoint>
          <Trackpoint>
            <Position>
              <LatitudeDegrees>50.200797</LatitudeDegrees>
              <LongitudeDegrees>16.92145</LongitudeDegrees>
            </Position>
            <AltitudeMeters>764.0</AltitudeMeters>
            <DistanceMeters>40205.254331512</DistanceMeters>
          </Trackpoint>
          <Trackpoint>
            <Position>
              <LatitudeDegrees>50.20074</LatitudeDegrees>
              <LongitudeDegrees>16.921312</LongitudeDegrees>
            </Position>
            <AltitudeMeters>764.0</AltitudeMeters>
            <DistanceMeters>40216.955357921</DistanceMeters>
          </Trackpoint>
          <Trackpoint>
            <Position>
              <LatitudeDegrees>50.200645</LatitudeDegrees>
              <LongitudeDegrees>16.921295</LongitudeDegrees>
            </Position>
            <AltitudeMeters>763.0</AltitudeMeters>
            <DistanceMeters>40227.598349931</DistanceMeters>
          </Trackpoint>
          <Trackpoint>
            <Position>
              <LatitudeDegrees>50.200552</LatitudeDegrees>
              <LongitudeDegrees>16.92126</LongitudeDegrees>
            </Position>
            <AltitudeMeters>763.0</AltitudeMeters>
            <DistanceMeters>40238.246007408</DistanceMeters>
          </Trackpoint>
          <Trackpoint>
            <Position>
              <LatitudeDegrees>50.20052</LatitudeDegrees>
              <LongitudeDegrees>16.921108</LongitudeDegrees>
            </Position>
            <AltitudeMeters>763.0</AltitudeMeters>
            <DistanceMeters>40249.646045135</DistanceMeters>
          </Trackpoint>
          <Trackpoint>
            <Position>
              <LatitudeDegrees>50.200507</LatitudeDegrees>
              <LongitudeDegrees>16.92083</LongitudeDegrees>
            </Position>
            <AltitudeMeters>763.0</AltitudeMeters>
            <DistanceMeters>40269.504809662</DistanceMeters>
          </Trackpoint>
          <Trackpoint>
            <Position>
              <LatitudeDegrees>50.200412</LatitudeDegrees>
              <LongitudeDegrees>16.920777</LongitudeDegrees>
            </Position>
            <AltitudeMeters>745.0</AltitudeMeters>
            <DistanceMeters>40280.732448201</DistanceMeters>
          </Trackpoint>
          <Trackpoint>
            <Position>
              <LatitudeDegrees>50.200382</LatitudeDegrees>
              <LongitudeDegrees>16.920637</LongitudeDegrees>
            </Position>
            <AltitudeMeters>740.0</AltitudeMeters>
            <DistanceMeters>40291.250836699</DistanceMeters>
          </Trackpoint>
          <Trackpoint>
            <Position>
              <LatitudeDegrees>50.20033</LatitudeDegrees>
              <LongitudeDegrees>16.92052</LongitudeDegrees>
            </Position>
            <AltitudeMeters>735.0</AltitudeMeters>
            <DistanceMeters>40301.399138125</DistanceMeters>
          </Trackpoint>
          <Trackpoint>
            <Position>
              <LatitudeDegrees>50.200232</LatitudeDegrees>
              <LongitudeDegrees>16.920483</LongitudeDegrees>
            </Position>
            <AltitudeMeters>736.0</AltitudeMeters>
            <DistanceMeters>40312.620743002</DistanceMeters>
          </Trackpoint>
          <Trackpoint>
            <Position>
              <LatitudeDegrees>50.200225</LatitudeDegrees>
              <LongitudeDegrees>16.920327</LongitudeDegrees>
            </Position>
            <AltitudeMeters>731.0</AltitudeMeters>
            <DistanceMeters>40323.76199207</DistanceMeters>
          </Trackpoint>
          <Trackpoint>
            <Position>
              <LatitudeDegrees>50.200187</LatitudeDegrees>
              <LongitudeDegrees>16.920187</LongitudeDegrees>
            </Position>
            <AltitudeMeters>730.0</AltitudeMeters>
            <DistanceMeters>40334.595871044</DistanceMeters>
          </Trackpoint>
          <Trackpoint>
            <Position>
              <LatitudeDegrees>50.200095</LatitudeDegrees>
              <LongitudeDegrees>16.920218</LongitudeDegrees>
            </Position>
            <AltitudeMeters>729.0</AltitudeMeters>
            <DistanceMeters>40345.071246405</DistanceMeters>
          </Trackpoint>
          <Trackpoint>
            <Position>
              <LatitudeDegrees>50.200007</LatitudeDegrees>
              <LongitudeDegrees>16.920297</LongitudeDegrees>
            </Position>
            <AltitudeMeters>728.0</AltitudeMeters>
            <DistanceMeters>40356.367840595</DistanceMeters>
          </Trackpoint>
          <Trackpoint>
            <Position>
              <LatitudeDegrees>50.19993</LatitudeDegrees>
              <LongitudeDegrees>16.92042</LongitudeDegrees>
            </Position>
            <AltitudeMeters>725.0</AltitudeMeters>
            <DistanceMeters>40368.624813378</DistanceMeters>
          </Trackpoint>
          <Trackpoint>
            <Position>
              <LatitudeDegrees>50.199855</LatitudeDegrees>
              <LongitudeDegrees>16.920515</LongitudeDegrees>
            </Position>
            <AltitudeMeters>725.0</AltitudeMeters>
            <DistanceMeters>40379.37165839</DistanceMeters>
          </Trackpoint>
          <Trackpoint>
            <Position>
              <LatitudeDegrees>50.199793</LatitudeDegrees>
              <LongitudeDegrees>16.920412</LongitudeDegrees>
            </Position>
            <AltitudeMeters>725.0</AltitudeMeters>
            <DistanceMeters>40389.445386552</DistanceMeters>
          </Trackpoint>
          <Trackpoint>
            <Position>
              <LatitudeDegrees>50.199793</LatitudeDegrees>
              <LongitudeDegrees>16.920232</LongitudeDegrees>
            </Position>
            <AltitudeMeters>726.0</AltitudeMeters>
            <DistanceMeters>40402.269416816</DistanceMeters>
          </Trackpoint>
          <Trackpoint>
            <Position>
              <LatitudeDegrees>50.199802</LatitudeDegrees>
              <LongitudeDegrees>16.920057</LongitudeDegrees>
            </Position>
            <AltitudeMeters>726.0</AltitudeMeters>
            <DistanceMeters>40414.777618304</DistanceMeters>
          </Trackpoint>
          <Trackpoint>
            <Position>
              <LatitudeDegrees>50.199718</LatitudeDegrees>
              <LongitudeDegrees>16.920172</LongitudeDegrees>
            </Position>
            <AltitudeMeters>726.0</AltitudeMeters>
            <DistanceMeters>40427.209059421</DistanceMeters>
          </Trackpoint>
          <Trackpoint>
            <Position>
              <LatitudeDegrees>50.199635</LatitudeDegrees>
              <LongitudeDegrees>16.920103</LongitudeDegrees>
            </Position>
            <AltitudeMeters>725.0</AltitudeMeters>
            <DistanceMeters>40437.673653873</DistanceMeters>
          </Trackpoint>
          <Trackpoint>
            <Position>
              <LatitudeDegrees>50.199557</LatitudeDegrees>
              <LongitudeDegrees>16.920013</LongitudeDegrees>
            </Position>
            <AltitudeMeters>720.0</AltitudeMeters>
            <DistanceMeters>40448.466613899</DistanceMeters>
          </Trackpoint>
          <Trackpoint>
            <Position>
              <LatitudeDegrees>50.19953</LatitudeDegrees>
              <LongitudeDegrees>16.919867</LongitudeDegrees>
            </Position>
            <AltitudeMeters>718.0</AltitudeMeters>
            <DistanceMeters>40459.293822791</DistanceMeters>
          </Trackpoint>
          <Trackpoint>
            <Position>
              <LatitudeDegrees>50.199438</LatitudeDegrees>
              <LongitudeDegrees>16.91982</LongitudeDegrees>
            </Position>
            <AltitudeMeters>714.0</AltitudeMeters>
            <DistanceMeters>40470.066684178</DistanceMeters>
          </Trackpoint>
          <Trackpoint>
            <Position>
              <LatitudeDegrees>50.199392</LatitudeDegrees>
              <LongitudeDegrees>16.919743</LongitudeDegrees>
            </Position>
            <AltitudeMeters>710.0</AltitudeMeters>
            <DistanceMeters>40477.570786836</DistanceMeters>
          </Trackpoint>
          <Trackpoint>
            <Position>
              <LatitudeDegrees>50.199377</LatitudeDegrees>
              <LongitudeDegrees>16.919592</LongitudeDegrees>
            </Position>
            <AltitudeMeters>706.0</AltitudeMeters>
            <DistanceMeters>40488.45787935</DistanceMeters>
          </Trackpoint>
          <Trackpoint>
            <Position>
              <LatitudeDegrees>50.199347</LatitudeDegrees>
              <LongitudeDegrees>16.919442</LongitudeDegrees>
            </Position>
            <AltitudeMeters>702.0</AltitudeMeters>
            <DistanceMeters>40499.654913839</DistanceMeters>
          </Trackpoint>
          <Trackpoint>
            <Position>
              <LatitudeDegrees>50.199362</LatitudeDegrees>
              <LongitudeDegrees>16.919357</LongitudeDegrees>
            </Position>
            <AltitudeMeters>699.0</AltitudeMeters>
            <DistanceMeters>40505.936747493</DistanceMeters>
          </Trackpoint>
          <Trackpoint>
            <Position>
              <LatitudeDegrees>50.199378</LatitudeDegrees>
              <LongitudeDegrees>16.919262</LongitudeDegrees>
            </Position>
            <AltitudeMeters>698.0</AltitudeMeters>
            <DistanceMeters>40512.935902064</DistanceMeters>
          </Trackpoint>
          <Trackpoint>
            <Position>
              <LatitudeDegrees>50.199372</LatitudeDegrees>
              <LongitudeDegrees>16.919117</LongitudeDegrees>
            </Position>
            <AltitudeMeters>696.0</AltitudeMeters>
            <DistanceMeters>40523.288581781</DistanceMeters>
          </Trackpoint>
          <Trackpoint>
            <Position>
              <LatitudeDegrees>50.199435</LatitudeDegrees>
              <LongitudeDegrees>16.919015</LongitudeDegrees>
            </Position>
            <AltitudeMeters>689.0</AltitudeMeters>
            <DistanceMeters>40533.386930818</DistanceMeters>
          </Trackpoint>
          <Trackpoint>
            <Position>
              <LatitudeDegrees>50.199505</LatitudeDegrees>
              <LongitudeDegrees>16.91884</LongitudeDegrees>
            </Position>
            <AltitudeMeters>687.0</AltitudeMeters>
            <DistanceMeters>40548.089378571</DistanceMeters>
          </Trackpoint>
          <Trackpoint>
            <Position>
              <LatitudeDegrees>50.199435</LatitudeDegrees>
              <LongitudeDegrees>16.91874</LongitudeDegrees>
            </Position>
            <AltitudeMeters>691.0</AltitudeMeters>
            <DistanceMeters>40558.647184386</DistanceMeters>
          </Trackpoint>
          <Trackpoint>
            <Position>
              <LatitudeDegrees>50.199397</LatitudeDegrees>
              <LongitudeDegrees>16.918588</LongitudeDegrees>
            </Position>
            <AltitudeMeters>690.0</AltitudeMeters>
            <DistanceMeters>40570.273111627</DistanceMeters>
          </Trackpoint>
          <Trackpoint>
            <Position>
              <LatitudeDegrees>50.199528</LatitudeDegrees>
              <LongitudeDegrees>16.91865</LongitudeDegrees>
            </Position>
            <AltitudeMeters>695.0</AltitudeMeters>
            <DistanceMeters>40585.508238305</DistanceMeters>
          </Trackpoint>
          <Trackpoint>
            <Position>
              <LatitudeDegrees>50.19958</LatitudeDegrees>
              <LongitudeDegrees>16.91881</LongitudeDegrees>
            </Position>
            <AltitudeMeters>688.0</AltitudeMeters>
            <DistanceMeters>40598.292775201</DistanceMeters>
          </Trackpoint>
          <Trackpoint>
            <Position>
              <LatitudeDegrees>50.199472</LatitudeDegrees>
              <LongitudeDegrees>16.918902</LongitudeDegrees>
            </Position>
            <AltitudeMeters>688.0</AltitudeMeters>
            <DistanceMeters>40611.983879131</DistanceMeters>
          </Trackpoint>
          <Trackpoint>
            <Position>
              <LatitudeDegrees>50.199385</LatitudeDegrees>
              <LongitudeDegrees>16.918847</LongitudeDegrees>
            </Position>
            <AltitudeMeters>688.0</AltitudeMeters>
            <DistanceMeters>40622.429904392</DistanceMeters>
          </Trackpoint>
          <Trackpoint>
            <Position>
              <LatitudeDegrees>50.199345</LatitudeDegrees>
              <LongitudeDegrees>16.918715</LongitudeDegrees>
            </Position>
            <AltitudeMeters>685.0</AltitudeMeters>
            <DistanceMeters>40632.834787211</DistanceMeters>
          </Trackpoint>
          <Trackpoint>
            <Position>
              <LatitudeDegrees>50.199303</LatitudeDegrees>
              <LongitudeDegrees>16.918565</LongitudeDegrees>
            </Position>
            <AltitudeMeters>683.0</AltitudeMeters>
            <DistanceMeters>40644.499485744</DistanceMeters>
          </Trackpoint>
          <Trackpoint>
            <Position>
              <LatitudeDegrees>50.19942</LatitudeDegrees>
              <LongitudeDegrees>16.918493</LongitudeDegrees>
            </Position>
            <AltitudeMeters>681.0</AltitudeMeters>
            <DistanceMeters>40658.495536912</DistanceMeters>
          </Trackpoint>
          <Trackpoint>
            <Position>
              <LatitudeDegrees>50.199387</LatitudeDegrees>
              <LongitudeDegrees>16.918625</LongitudeDegrees>
            </Position>
            <AltitudeMeters>672.0</AltitudeMeters>
            <DistanceMeters>40668.591650169</DistanceMeters>
          </Trackpoint>
          <Trackpoint>
            <Position>
              <LatitudeDegrees>50.199333</LatitudeDegrees>
              <LongitudeDegrees>16.918745</LongitudeDegrees>
            </Position>
            <AltitudeMeters>672.0</AltitudeMeters>
            <DistanceMeters>40679.042860849</DistanceMeters>
          </Trackpoint>
          <Trackpoint>
            <Position>
              <LatitudeDegrees>50.199267</LatitudeDegrees>
              <LongitudeDegrees>16.91865</LongitudeDegrees>
            </Position>
            <AltitudeMeters>674.0</AltitudeMeters>
            <DistanceMeters>40689.031972156</DistanceMeters>
          </Trackpoint>
          <Trackpoint>
            <Position>
              <LatitudeDegrees>50.199177</LatitudeDegrees>
              <LongitudeDegrees>16.918647</LongitudeDegrees>
            </Position>
            <AltitudeMeters>673.0</AltitudeMeters>
            <DistanceMeters>40699.051772049</DistanceMeters>
          </Trackpoint>
          <Trackpoint>
            <Position>
              <LatitudeDegrees>50.199092</LatitudeDegrees>
              <LongitudeDegrees>16.918702</LongitudeDegrees>
            </Position>
            <AltitudeMeters>666.0</AltitudeMeters>
            <DistanceMeters>40709.291754845</DistanceMeters>
          </Trackpoint>
          <Trackpoint>
            <Position>
              <LatitudeDegrees>50.199168</LatitudeDegrees>
              <LongitudeDegrees>16.918775</LongitudeDegrees>
            </Position>
            <AltitudeMeters>664.0</AltitudeMeters>
            <DistanceMeters>40719.221932828</DistanceMeters>
          </Trackpoint>
          <Trackpoint>
            <Position>
              <LatitudeDegrees>50.199265</LatitudeDegrees>
              <LongitudeDegrees>16.918727</LongitudeDegrees>
            </Position>
            <AltitudeMeters>663.0</AltitudeMeters>
            <DistanceMeters>40730.547267517</DistanceMeters>
          </Trackpoint>
          <Trackpoint>
            <Position>
              <LatitudeDegrees>50.199367</LatitudeDegrees>
              <LongitudeDegrees>16.9187</LongitudeDegrees>
            </Position>
            <AltitudeMeters>663.0</AltitudeMeters>
            <DistanceMeters>40742.062372488</DistanceMeters>
          </Trackpoint>
          <Trackpoint>
            <Position>
              <LatitudeDegrees>50.199423</LatitudeDegrees>
              <LongitudeDegrees>16.91859</LongitudeDegrees>
            </Position>
            <AltitudeMeters>663.0</AltitudeMeters>
            <DistanceMeters>40752.076312717</DistanceMeters>
          </Trackpoint>
          <Trackpoint>
            <Position>
              <LatitudeDegrees>50.199515</LatitudeDegrees>
              <LongitudeDegrees>16.918577</LongitudeDegrees>
            </Position>
            <AltitudeMeters>664.0</AltitudeMeters>
            <DistanceMeters>40762.357658682</DistanceMeters>
          </Trackpoint>
          <Trackpoint>
            <Position>
              <LatitudeDegrees>50.199602</LatitudeDegrees>
              <LongitudeDegrees>16.91861</LongitudeDegrees>
            </Position>
            <AltitudeMeters>666.0</AltitudeMeters>
            <DistanceMeters>40772.321879199</DistanceMeters>
          </Trackpoint>
          <Trackpoint>
            <Position>
              <LatitudeDegrees>50.199702</LatitudeDegrees>
              <LongitudeDegrees>16.918598</LongitudeDegrees>
            </Position>
            <AltitudeMeters>667.0</AltitudeMeters>
            <DistanceMeters>40783.484990545</DistanceMeters>
          </Trackpoint>
          <Trackpoint>
            <Position>
              <LatitudeDegrees>50.199792</LatitudeDegrees>
              <LongitudeDegrees>16.918617</LongitudeDegrees>
            </Position>
            <AltitudeMeters>668.0</AltitudeMeters>
            <DistanceMeters>40793.593617803</DistanceMeters>
          </Trackpoint>
          <Trackpoint>
            <Position>
              <LatitudeDegrees>50.199872</LatitudeDegrees>
              <LongitudeDegrees>16.918532</LongitudeDegrees>
            </Position>
            <AltitudeMeters>668.0</AltitudeMeters>
            <DistanceMeters>40804.361867968</DistanceMeters>
          </Trackpoint>
          <Trackpoint>
            <Position>
              <LatitudeDegrees>50.199962</LatitudeDegrees>
              <LongitudeDegrees>16.91847</LongitudeDegrees>
            </Position>
            <AltitudeMeters>668.0</AltitudeMeters>
            <DistanceMeters>40815.30975382</DistanceMeters>
          </Trackpoint>
          <Trackpoint>
            <Position>
              <LatitudeDegrees>50.200032</LatitudeDegrees>
              <LongitudeDegrees>16.918365</LongitudeDegrees>
            </Position>
            <AltitudeMeters>667.0</AltitudeMeters>
            <DistanceMeters>40826.110659226</DistanceMeters>
          </Trackpoint>
          <Trackpoint>
            <Position>
              <LatitudeDegrees>50.200097</LatitudeDegrees>
              <LongitudeDegrees>16.918263</LongitudeDegrees>
            </Position>
            <AltitudeMeters>668.0</AltitudeMeters>
            <DistanceMeters>40836.364741833</DistanceMeters>
          </Trackpoint>
          <Trackpoint>
            <Position>
              <LatitudeDegrees>50.200177</LatitudeDegrees>
              <LongitudeDegrees>16.918183</LongitudeDegrees>
            </Position>
            <AltitudeMeters>668.0</AltitudeMeters>
            <DistanceMeters>40846.937077725</DistanceMeters>
          </Trackpoint>
          <Trackpoint>
            <Position>
              <LatitudeDegrees>50.200267</LatitudeDegrees>
              <LongitudeDegrees>16.918143</LongitudeDegrees>
            </Position>
            <AltitudeMeters>669.0</AltitudeMeters>
            <DistanceMeters>40857.351936258</DistanceMeters>
          </Trackpoint>
          <Trackpoint>
            <Position>
              <LatitudeDegrees>50.200338</LatitudeDegrees>
              <LongitudeDegrees>16.918042</LongitudeDegrees>
            </Position>
            <AltitudeMeters>668.0</AltitudeMeters>
            <DistanceMeters>40868.039379214</DistanceMeters>
          </Trackpoint>
          <Trackpoint>
            <Position>
              <LatitudeDegrees>50.20043</LatitudeDegrees>
              <LongitudeDegrees>16.918023</LongitudeDegrees>
            </Position>
            <AltitudeMeters>668.0</AltitudeMeters>
            <DistanceMeters>40878.368044331</DistanceMeters>
          </Trackpoint>
          <Trackpoint>
            <Position>
              <LatitudeDegrees>50.200427</LatitudeDegrees>
              <LongitudeDegrees>16.917883</LongitudeDegrees>
            </Position>
            <AltitudeMeters>664.0</AltitudeMeters>
            <DistanceMeters>40888.348111624</DistanceMeters>
          </Trackpoint>
          <Trackpoint>
            <Position>
              <LatitudeDegrees>50.200465</LatitudeDegrees>
              <LongitudeDegrees>16.917755</LongitudeDegrees>
            </Position>
            <AltitudeMeters>663.0</AltitudeMeters>
            <DistanceMeters>40898.400303197</DistanceMeters>
          </Trackpoint>
          <Trackpoint>
            <Position>
              <LatitudeDegrees>50.200545</LatitudeDegrees>
              <LongitudeDegrees>16.917685</LongitudeDegrees>
            </Position>
            <AltitudeMeters>659.0</AltitudeMeters>
            <DistanceMeters>40908.605836093</DistanceMeters>
          </Trackpoint>
          <Trackpoint>
            <Position>
              <LatitudeDegrees>50.200632</LatitudeDegrees>
              <LongitudeDegrees>16.917603</LongitudeDegrees>
            </Position>
            <AltitudeMeters>660.0</AltitudeMeters>
            <DistanceMeters>40919.914813619</DistanceMeters>
          </Trackpoint>
          <Trackpoint>
            <Position>
              <LatitudeDegrees>50.200707</LatitudeDegrees>
              <LongitudeDegrees>16.917512</LongitudeDegrees>
            </Position>
            <AltitudeMeters>652.0</AltitudeMeters>
            <DistanceMeters>40930.484586832</DistanceMeters>
          </Trackpoint>
          <Trackpoint>
            <Position>
              <LatitudeDegrees>50.200777</LatitudeDegrees>
              <LongitudeDegrees>16.9174</LongitudeDegrees>
            </Position>
            <AltitudeMeters>657.0</AltitudeMeters>
            <DistanceMeters>40941.637177245</DistanceMeters>
          </Trackpoint>
          <Trackpoint>
            <Position>
              <LatitudeDegrees>50.200872</LatitudeDegrees>
              <LongitudeDegrees>16.91736</LongitudeDegrees>
            </Position>
            <AltitudeMeters>653.0</AltitudeMeters>
            <DistanceMeters>40952.588361896</DistanceMeters>
          </Trackpoint>
          <Trackpoint>
            <Position>
              <LatitudeDegrees>50.200937</LatitudeDegrees>
              <LongitudeDegrees>16.917267</LongitudeDegrees>
            </Position>
            <AltitudeMeters>653.0</AltitudeMeters>
            <DistanceMeters>40962.398690878</DistanceMeters>
          </Trackpoint>
          <Trackpoint>
            <Position>
              <LatitudeDegrees>50.201008</LatitudeDegrees>
              <LongitudeDegrees>16.91718</LongitudeDegrees>
            </Position>
            <AltitudeMeters>655.0</AltitudeMeters>
            <DistanceMeters>40972.441895241</DistanceMeters>
          </Trackpoint>
          <Trackpoint>
            <Position>
              <LatitudeDegrees>50.201102</LatitudeDegrees>
              <LongitudeDegrees>16.917185</LongitudeDegrees>
            </Position>
            <AltitudeMeters>654.0</AltitudeMeters>
            <DistanceMeters>40982.910372099</DistanceMeters>
          </Trackpoint>
          <Trackpoint>
            <Position>
              <LatitudeDegrees>50.201158</LatitudeDegrees>
              <LongitudeDegrees>16.917068</LongitudeDegrees>
            </Position>
            <AltitudeMeters>654.0</AltitudeMeters>
            <DistanceMeters>40993.318725816</DistanceMeters>
          </Trackpoint>
          <Trackpoint>
            <Position>
              <LatitudeDegrees>50.201298</LatitudeDegrees>
              <LongitudeDegrees>16.917053</LongitudeDegrees>
            </Position>
            <AltitudeMeters>653.0</AltitudeMeters>
            <DistanceMeters>41008.937834152</DistanceMeters>
          </Trackpoint>
          <Trackpoint>
            <Position>
              <LatitudeDegrees>50.201395</LatitudeDegrees>
              <LongitudeDegrees>16.917155</LongitudeDegrees>
            </Position>
            <AltitudeMeters>652.0</AltitudeMeters>
            <DistanceMeters>41021.951984673</DistanceMeters>
          </Trackpoint>
          <Trackpoint>
            <Position>
              <LatitudeDegrees>50.201467</LatitudeDegrees>
              <LongitudeDegrees>16.917068</LongitudeDegrees>
            </Position>
            <AltitudeMeters>661.0</AltitudeMeters>
            <DistanceMeters>41032.082919914</DistanceMeters>
          </Trackpoint>
          <Trackpoint>
            <Position>
              <LatitudeDegrees>50.201552</LatitudeDegrees>
              <LongitudeDegrees>16.917017</LongitudeDegrees>
            </Position>
            <AltitudeMeters>668.0</AltitudeMeters>
            <DistanceMeters>41042.217419876</DistanceMeters>
          </Trackpoint>
          <Trackpoint>
            <Position>
              <LatitudeDegrees>50.201628</LatitudeDegrees>
              <LongitudeDegrees>16.917105</LongitudeDegrees>
            </Position>
            <AltitudeMeters>667.0</AltitudeMeters>
            <DistanceMeters>41052.746963009</DistanceMeters>
          </Trackpoint>
          <Trackpoint>
            <Position>
              <LatitudeDegrees>50.201713</LatitudeDegrees>
              <LongitudeDegrees>16.917147</LongitudeDegrees>
            </Position>
            <AltitudeMeters>663.0</AltitudeMeters>
            <DistanceMeters>41062.668953403</DistanceMeters>
          </Trackpoint>
          <Trackpoint>
            <Position>
              <LatitudeDegrees>50.201795</LatitudeDegrees>
              <LongitudeDegrees>16.917232</LongitudeDegrees>
            </Position>
            <AltitudeMeters>662.0</AltitudeMeters>
            <DistanceMeters>41073.622199298</DistanceMeters>
          </Trackpoint>
          <Trackpoint>
            <Position>
              <LatitudeDegrees>50.201903</LatitudeDegrees>
              <LongitudeDegrees>16.917407</LongitudeDegrees>
            </Position>
            <AltitudeMeters>662.0</AltitudeMeters>
            <DistanceMeters>41090.940540992</DistanceMeters>
          </Trackpoint>
          <Trackpoint>
            <Position>
              <LatitudeDegrees>50.202052</LatitudeDegrees>
              <LongitudeDegrees>16.917688</LongitudeDegrees>
            </Position>
            <AltitudeMeters>662.0</AltitudeMeters>
            <DistanceMeters>41116.936557242</DistanceMeters>
          </Trackpoint>
          <Trackpoint>
            <Position>
              <LatitudeDegrees>50.20214</LatitudeDegrees>
              <LongitudeDegrees>16.91766</LongitudeDegrees>
            </Position>
            <AltitudeMeters>678.0</AltitudeMeters>
            <DistanceMeters>41126.93244619</DistanceMeters>
          </Trackpoint>
          <Trackpoint>
            <Position>
              <LatitudeDegrees>50.202283</LatitudeDegrees>
              <LongitudeDegrees>16.91756</LongitudeDegrees>
            </Position>
            <AltitudeMeters>672.0</AltitudeMeters>
            <DistanceMeters>41144.370301396</DistanceMeters>
          </Trackpoint>
          <Trackpoint>
            <Position>
              <LatitudeDegrees>50.20221</LatitudeDegrees>
              <LongitudeDegrees>16.917665</LongitudeDegrees>
            </Position>
            <AltitudeMeters>669.0</AltitudeMeters>
            <DistanceMeters>41155.41427</DistanceMeters>
          </Trackpoint>
          <Trackpoint>
            <Position>
              <LatitudeDegrees>50.202198</LatitudeDegrees>
              <LongitudeDegrees>16.917823</LongitudeDegrees>
            </Position>
            <AltitudeMeters>669.0</AltitudeMeters>
            <DistanceMeters>41166.74916866</DistanceMeters>
          </Trackpoint>
          <Trackpoint>
            <Position>
              <LatitudeDegrees>50.202215</LatitudeDegrees>
              <LongitudeDegrees>16.917965</LongitudeDegrees>
            </Position>
            <AltitudeMeters>673.0</AltitudeMeters>
            <DistanceMeters>41177.040171359</DistanceMeters>
          </Trackpoint>
          <Trackpoint>
            <Position>
              <LatitudeDegrees>50.202215</LatitudeDegrees>
              <LongitudeDegrees>16.917932</LongitudeDegrees>
            </Position>
            <AltitudeMeters>698.0</AltitudeMeters>
            <DistanceMeters>41179.387158071</DistanceMeters>
          </Trackpoint>
          <Trackpoint>
            <Position>
              <LatitudeDegrees>50.20222</LatitudeDegrees>
              <LongitudeDegrees>16.917903</LongitudeDegrees>
            </Position>
            <AltitudeMeters>698.0</AltitudeMeters>
            <DistanceMeters>41181.526842337</DistanceMeters>
          </Trackpoint>
          <Trackpoint>
            <Position>
              <LatitudeDegrees>50.202227</LatitudeDegrees>
              <LongitudeDegrees>16.917867</LongitudeDegrees>
            </Position>
            <AltitudeMeters>699.0</AltitudeMeters>
            <DistanceMeters>41184.207875878</DistanceMeters>
          </Trackpoint>
          <Trackpoint>
            <Position>
              <LatitudeDegrees>50.202245</LatitudeDegrees>
              <LongitudeDegrees>16.91784</LongitudeDegrees>
            </Position>
            <AltitudeMeters>701.0</AltitudeMeters>
            <DistanceMeters>41186.984868007</DistanceMeters>
          </Trackpoint>
          <Trackpoint>
            <Position>
              <LatitudeDegrees>50.202268</LatitudeDegrees>
              <LongitudeDegrees>16.917818</LongitudeDegrees>
            </Position>
            <AltitudeMeters>701.0</AltitudeMeters>
            <DistanceMeters>41189.986870054</DistanceMeters>
          </Trackpoint>
          <Trackpoint>
            <Position>
              <LatitudeDegrees>50.202327</LatitudeDegrees>
              <LongitudeDegrees>16.917703</LongitudeDegrees>
            </Position>
            <AltitudeMeters>700.0</AltitudeMeters>
            <DistanceMeters>41200.486784497</DistanceMeters>
          </Trackpoint>
          <Trackpoint>
            <Position>
              <LatitudeDegrees>50.202405</LatitudeDegrees>
              <LongitudeDegrees>16.917603</LongitudeDegrees>
            </Position>
            <AltitudeMeters>698.0</AltitudeMeters>
            <DistanceMeters>41211.717639664</DistanceMeters>
          </Trackpoint>
          <Trackpoint>
            <Position>
              <LatitudeDegrees>50.20241</LatitudeDegrees>
              <LongitudeDegrees>16.917458</LongitudeDegrees>
            </Position>
            <AltitudeMeters>697.0</AltitudeMeters>
            <DistanceMeters>41222.062902638</DistanceMeters>
          </Trackpoint>
          <Trackpoint>
            <Position>
              <LatitudeDegrees>50.202392</LatitudeDegrees>
              <LongitudeDegrees>16.917315</LongitudeDegrees>
            </Position>
            <AltitudeMeters>695.0</AltitudeMeters>
            <DistanceMeters>41232.44563121</DistanceMeters>
          </Trackpoint>
          <Trackpoint>
            <Position>
              <LatitudeDegrees>50.202422</LatitudeDegrees>
              <LongitudeDegrees>16.91717</LongitudeDegrees>
            </Position>
            <AltitudeMeters>694.0</AltitudeMeters>
            <DistanceMeters>41243.301991454</DistanceMeters>
          </Trackpoint>
          <Trackpoint>
            <Position>
              <LatitudeDegrees>50.202432</LatitudeDegrees>
              <LongitudeDegrees>16.917023</LongitudeDegrees>
            </Position>
            <AltitudeMeters>695.0</AltitudeMeters>
            <DistanceMeters>41253.833678354</DistanceMeters>
          </Trackpoint>
          <Trackpoint>
            <Position>
              <LatitudeDegrees>50.202443</LatitudeDegrees>
              <LongitudeDegrees>16.916867</LongitudeDegrees>
            </Position>
            <AltitudeMeters>693.0</AltitudeMeters>
            <DistanceMeters>41265.014571801</DistanceMeters>
          </Trackpoint>
          <Trackpoint>
            <Position>
              <LatitudeDegrees>50.202393</LatitudeDegrees>
              <LongitudeDegrees>16.916735</LongitudeDegrees>
            </Position>
            <AltitudeMeters>693.0</AltitudeMeters>
            <DistanceMeters>41275.942230786</DistanceMeters>
          </Trackpoint>
          <Trackpoint>
            <Position>
              <LatitudeDegrees>50.202345</LatitudeDegrees>
              <LongitudeDegrees>16.916857</LongitudeDegrees>
            </Position>
            <AltitudeMeters>689.0</AltitudeMeters>
            <DistanceMeters>41286.144666337</DistanceMeters>
          </Trackpoint>
          <Trackpoint>
            <Position>
              <LatitudeDegrees>50.202233</LatitudeDegrees>
              <LongitudeDegrees>16.916775</LongitudeDegrees>
            </Position>
            <AltitudeMeters>688.0</AltitudeMeters>
            <DistanceMeters>41299.911410484</DistanceMeters>
          </Trackpoint>
          <Trackpoint>
            <Position>
              <LatitudeDegrees>50.202125</LatitudeDegrees>
              <LongitudeDegrees>16.916762</LongitudeDegrees>
            </Position>
            <AltitudeMeters>687.0</AltitudeMeters>
            <DistanceMeters>41311.967450897</DistanceMeters>
          </Trackpoint>
          <Trackpoint>
            <Position>
              <LatitudeDegrees>50.202032</LatitudeDegrees>
              <LongitudeDegrees>16.916688</LongitudeDegrees>
            </Position>
            <AltitudeMeters>685.0</AltitudeMeters>
            <DistanceMeters>41323.583276405</DistanceMeters>
          </Trackpoint>
          <Trackpoint>
            <Position>
              <LatitudeDegrees>50.201952</LatitudeDegrees>
              <LongitudeDegrees>16.916567</LongitudeDegrees>
            </Position>
            <AltitudeMeters>685.0</AltitudeMeters>
            <DistanceMeters>41335.976887675</DistanceMeters>
          </Trackpoint>
          <Trackpoint>
            <Position>
              <LatitudeDegrees>50.201982</LatitudeDegrees>
              <LongitudeDegrees>16.916427</LongitudeDegrees>
            </Position>
            <AltitudeMeters>681.0</AltitudeMeters>
            <DistanceMeters>41346.494846912</DistanceMeters>
          </Trackpoint>
          <Trackpoint>
            <Position>
              <LatitudeDegrees>50.202012</LatitudeDegrees>
              <LongitudeDegrees>16.916275</LongitudeDegrees>
            </Position>
            <AltitudeMeters>678.0</AltitudeMeters>
            <DistanceMeters>41357.826558479</DistanceMeters>
          </Trackpoint>
          <Trackpoint>
            <Position>
              <LatitudeDegrees>50.201922</LatitudeDegrees>
              <LongitudeDegrees>16.91624</LongitudeDegrees>
            </Position>
            <AltitudeMeters>664.0</AltitudeMeters>
            <DistanceMeters>41368.149101869</DistanceMeters>
          </Trackpoint>
          <Trackpoint>
            <Position>
              <LatitudeDegrees>50.202008</LatitudeDegrees>
              <LongitudeDegrees>16.916177</LongitudeDegrees>
            </Position>
            <AltitudeMeters>657.0</AltitudeMeters>
            <DistanceMeters>41378.721010691</DistanceMeters>
          </Trackpoint>
          <Trackpoint>
            <Position>
              <LatitudeDegrees>50.202088</LatitudeDegrees>
              <LongitudeDegrees>16.916085</LongitudeDegrees>
            </Position>
            <AltitudeMeters>655.0</AltitudeMeters>
            <DistanceMeters>41389.777645573</DistanceMeters>
          </Trackpoint>
          <Trackpoint>
            <Position>
              <LatitudeDegrees>50.202168</LatitudeDegrees>
              <LongitudeDegrees>16.915998</LongitudeDegrees>
            </Position>
            <AltitudeMeters>654.0</AltitudeMeters>
            <DistanceMeters>41400.626517236</DistanceMeters>
          </Trackpoint>
          <Trackpoint>
            <Position>
              <LatitudeDegrees>50.202245</LatitudeDegrees>
              <LongitudeDegrees>16.915917</LongitudeDegrees>
            </Position>
            <AltitudeMeters>652.0</AltitudeMeters>
            <DistanceMeters>41410.957804841</DistanceMeters>
          </Trackpoint>
          <Trackpoint>
            <Position>
              <LatitudeDegrees>50.202333</LatitudeDegrees>
              <LongitudeDegrees>16.915843</LongitudeDegrees>
            </Position>
            <AltitudeMeters>652.0</AltitudeMeters>
            <DistanceMeters>41422.081208431</DistanceMeters>
          </Trackpoint>
          <Trackpoint>
            <Position>
              <LatitudeDegrees>50.202427</LatitudeDegrees>
              <LongitudeDegrees>16.915788</LongitudeDegrees>
            </Position>
            <AltitudeMeters>651.0</AltitudeMeters>
            <DistanceMeters>41433.253618497</DistanceMeters>
          </Trackpoint>
          <Trackpoint>
            <Position>
              <LatitudeDegrees>50.202515</LatitudeDegrees>
              <LongitudeDegrees>16.91572</LongitudeDegrees>
            </Position>
            <AltitudeMeters>651.0</AltitudeMeters>
            <DistanceMeters>41444.181277482</DistanceMeters>
          </Trackpoint>
          <Trackpoint>
            <Position>
              <LatitudeDegrees>50.202605</LatitudeDegrees>
              <LongitudeDegrees>16.915647</LongitudeDegrees>
            </Position>
            <AltitudeMeters>650.0</AltitudeMeters>
            <DistanceMeters>41455.468275244</DistanceMeters>
          </Trackpoint>
          <Trackpoint>
            <Position>
              <LatitudeDegrees>50.202687</LatitudeDegrees>
              <LongitudeDegrees>16.915557</LongitudeDegrees>
            </Position>
            <AltitudeMeters>650.0</AltitudeMeters>
            <DistanceMeters>41466.621675313</DistanceMeters>
          </Trackpoint>
          <Trackpoint>
            <Position>
              <LatitudeDegrees>50.202767</LatitudeDegrees>
              <LongitudeDegrees>16.915477</LongitudeDegrees>
            </Position>
            <AltitudeMeters>648.0</AltitudeMeters>
            <DistanceMeters>41477.193584135</DistanceMeters>
          </Trackpoint>
          <Trackpoint>
            <Position>
              <LatitudeDegrees>50.202827</LatitudeDegrees>
              <LongitudeDegrees>16.915367</LongitudeDegrees>
            </Position>
            <AltitudeMeters>648.0</AltitudeMeters>
            <DistanceMeters>41487.489850325</DistanceMeters>
          </Trackpoint>
          <Trackpoint>
            <Position>
              <LatitudeDegrees>50.20291</LatitudeDegrees>
              <LongitudeDegrees>16.915288</LongitudeDegrees>
            </Position>
            <AltitudeMeters>647.0</AltitudeMeters>
            <DistanceMeters>41498.307046383</DistanceMeters>
          </Trackpoint>
          <Trackpoint>
            <Position>
              <LatitudeDegrees>50.202957</LatitudeDegrees>
              <LongitudeDegrees>16.915287</LongitudeDegrees>
            </Position>
            <AltitudeMeters>646.0</AltitudeMeters>
            <DistanceMeters>41503.537833286</DistanceMeters>
          </Trackpoint>
          <Trackpoint>
            <Position>
              <LatitudeDegrees>50.202978</LatitudeDegrees>
              <LongitudeDegrees>16.915268</LongitudeDegrees>
            </Position>
            <AltitudeMeters>646.0</AltitudeMeters>
            <DistanceMeters>41506.239000028</DistanceMeters>
          </Trackpoint>
          <Trackpoint>
            <Position>
              <LatitudeDegrees>50.203002</LatitudeDegrees>
              <LongitudeDegrees>16.915262</LongitudeDegrees>
            </Position>
            <AltitudeMeters>646.0</AltitudeMeters>
            <DistanceMeters>41508.943507731</DistanceMeters>
          </Trackpoint>
          <Trackpoint>
            <Position>
              <LatitudeDegrees>50.203028</LatitudeDegrees>
              <LongitudeDegrees>16.915262</LongitudeDegrees>
            </Position>
            <AltitudeMeters>646.0</AltitudeMeters>
            <DistanceMeters>41511.836755191</DistanceMeters>
          </Trackpoint>
          <Trackpoint>
            <Position>
              <LatitudeDegrees>50.203125</LatitudeDegrees>
              <LongitudeDegrees>16.915227</LongitudeDegrees>
            </Position>
            <AltitudeMeters>645.0</AltitudeMeters>
            <DistanceMeters>41522.917049381</DistanceMeters>
          </Trackpoint>
          <Trackpoint>
            <Position>
              <LatitudeDegrees>50.203167</LatitudeDegrees>
              <LongitudeDegrees>16.91522</LongitudeDegrees>
            </Position>
            <AltitudeMeters>645.0</AltitudeMeters>
            <DistanceMeters>41527.618711548</DistanceMeters>
          </Trackpoint>
          <Trackpoint>
            <Position>
              <LatitudeDegrees>50.203198</LatitudeDegrees>
              <LongitudeDegrees>16.915223</LongitudeDegrees>
            </Position>
            <AltitudeMeters>645.0</AltitudeMeters>
            <DistanceMeters>41531.076430625</DistanceMeters>
          </Trackpoint>
          <Trackpoint>
            <Position>
              <LatitudeDegrees>50.203307</LatitudeDegrees>
              <LongitudeDegrees>16.915168</LongitudeDegrees>
            </Position>
            <AltitudeMeters>645.0</AltitudeMeters>
            <DistanceMeters>41543.825248057</DistanceMeters>
          </Trackpoint>
          <Trackpoint>
            <Position>
              <LatitudeDegrees>50.203353</LatitudeDegrees>
              <LongitudeDegrees>16.915117</LongitudeDegrees>
            </Position>
            <AltitudeMeters>646.0</AltitudeMeters>
            <DistanceMeters>41550.102767758</DistanceMeters>
          </Trackpoint>
          <Trackpoint>
            <Position>
              <LatitudeDegrees>50.203362</LatitudeDegrees>
              <LongitudeDegrees>16.915088</LongitudeDegrees>
            </Position>
            <AltitudeMeters>646.0</AltitudeMeters>
            <DistanceMeters>41552.399192075</DistanceMeters>
          </Trackpoint>
          <Trackpoint>
            <Position>
              <LatitudeDegrees>50.203362</LatitudeDegrees>
              <LongitudeDegrees>16.915053</LongitudeDegrees>
            </Position>
            <AltitudeMeters>645.0</AltitudeMeters>
            <DistanceMeters>41554.895339656</DistanceMeters>
          </Trackpoint>
          <Trackpoint>
            <Position>
              <LatitudeDegrees>50.203357</LatitudeDegrees>
              <LongitudeDegrees>16.91502</LongitudeDegrees>
            </Position>
            <AltitudeMeters>644.0</AltitudeMeters>
            <DistanceMeters>41557.312457663</DistanceMeters>
          </Trackpoint>
          <Trackpoint>
            <Position>
              <LatitudeDegrees>50.203342</LatitudeDegrees>
              <LongitudeDegrees>16.915</LongitudeDegrees>
            </Position>
            <AltitudeMeters>643.0</AltitudeMeters>
            <DistanceMeters>41559.508376792</DistanceMeters>
          </Trackpoint>
          <Trackpoint>
            <Position>
              <LatitudeDegrees>50.203333</LatitudeDegrees>
              <LongitudeDegrees>16.914972</LongitudeDegrees>
            </Position>
            <AltitudeMeters>643.0</AltitudeMeters>
            <DistanceMeters>41561.740999061</DistanceMeters>
          </Trackpoint>
          <Trackpoint>
            <Position>
              <LatitudeDegrees>50.203345</LatitudeDegrees>
              <LongitudeDegrees>16.914947</LongitudeDegrees>
            </Position>
            <AltitudeMeters>643.0</AltitudeMeters>
            <DistanceMeters>41563.965517411</DistanceMeters>
          </Trackpoint>
          <Trackpoint>
            <Position>
              <LatitudeDegrees>50.203327</LatitudeDegrees>
              <LongitudeDegrees>16.914795</LongitudeDegrees>
            </Position>
            <AltitudeMeters>643.0</AltitudeMeters>
            <DistanceMeters>41574.977961584</DistanceMeters>
          </Trackpoint>
          <Trackpoint>
            <Position>
              <LatitudeDegrees>50.203325</LatitudeDegrees>
              <LongitudeDegrees>16.914757</LongitudeDegrees>
            </Position>
            <AltitudeMeters>643.0</AltitudeMeters>
            <DistanceMeters>41577.692467501</DistanceMeters>
          </Trackpoint>
          <Trackpoint>
            <Position>
              <LatitudeDegrees>50.203332</LatitudeDegrees>
              <LongitudeDegrees>16.914728</LongitudeDegrees>
            </Position>
            <AltitudeMeters>644.0</AltitudeMeters>
            <DistanceMeters>41579.900688795</DistanceMeters>
          </Trackpoint>
          <Trackpoint>
            <Position>
              <LatitudeDegrees>50.203342</LatitudeDegrees>
              <LongitudeDegrees>16.914698</LongitudeDegrees>
            </Position>
            <AltitudeMeters>644.0</AltitudeMeters>
            <DistanceMeters>41582.312196462</DistanceMeters>
          </Trackpoint>
          <Trackpoint>
            <Position>
              <LatitudeDegrees>50.203353</LatitudeDegrees>
              <LongitudeDegrees>16.914658</LongitudeDegrees>
            </Position>
            <AltitudeMeters>644.0</AltitudeMeters>
            <DistanceMeters>41585.414785943</DistanceMeters>
          </Trackpoint>
          <Trackpoint>
            <Position>
              <LatitudeDegrees>50.203367</LatitudeDegrees>
              <LongitudeDegrees>16.914628</LongitudeDegrees>
            </Position>
            <AltitudeMeters>644.0</AltitudeMeters>
            <DistanceMeters>41588.058510431</DistanceMeters>
          </Trackpoint>
          <Trackpoint>
            <Position>
              <LatitudeDegrees>50.203365</LatitudeDegrees>
              <LongitudeDegrees>16.914598</LongitudeDegrees>
            </Position>
            <AltitudeMeters>644.0</AltitudeMeters>
            <DistanceMeters>41590.208719523</DistanceMeters>
          </Trackpoint>
          <Trackpoint>
            <Position>
              <LatitudeDegrees>50.203378</LatitudeDegrees>
              <LongitudeDegrees>16.91458</LongitudeDegrees>
            </Position>
            <AltitudeMeters>644.0</AltitudeMeters>
            <DistanceMeters>41592.142227125</DistanceMeters>
          </Trackpoint>
          <Trackpoint>
            <Position>
              <LatitudeDegrees>50.203392</LatitudeDegrees>
              <LongitudeDegrees>16.914552</LongitudeDegrees>
            </Position>
            <AltitudeMeters>645.0</AltitudeMeters>
            <DistanceMeters>41594.672508572</DistanceMeters>
          </Trackpoint>
          <Trackpoint>
            <Position>
              <LatitudeDegrees>50.203402</LatitudeDegrees>
              <LongitudeDegrees>16.914513</LongitudeDegrees>
            </Position>
            <AltitudeMeters>646.0</AltitudeMeters>
            <DistanceMeters>41597.666981131</DistanceMeters>
          </Trackpoint>
          <Trackpoint>
            <Position>
              <LatitudeDegrees>50.203413</LatitudeDegrees>
              <LongitudeDegrees>16.914482</LongitudeDegrees>
            </Position>
            <AltitudeMeters>646.0</AltitudeMeters>
            <DistanceMeters>41600.193691254</DistanceMeters>
          </Trackpoint>
          <Trackpoint>
            <Position>
              <LatitudeDegrees>50.203423</LatitudeDegrees>
              <LongitudeDegrees>16.914448</LongitudeDegrees>
            </Position>
            <AltitudeMeters>646.0</AltitudeMeters>
            <DistanceMeters>41602.861218243</DistanceMeters>
          </Trackpoint>
          <Trackpoint>
            <Position>
              <LatitudeDegrees>50.20343</LatitudeDegrees>
              <LongitudeDegrees>16.914422</LongitudeDegrees>
            </Position>
            <AltitudeMeters>647.0</AltitudeMeters>
            <DistanceMeters>41604.872554676</DistanceMeters>
          </Trackpoint>
          <Trackpoint>
            <Position>
              <LatitudeDegrees>50.20344</LatitudeDegrees>
              <LongitudeDegrees>16.914383</LongitudeDegrees>
            </Position>
            <AltitudeMeters>647.0</AltitudeMeters>
            <DistanceMeters>41607.865519065</DistanceMeters>
          </Trackpoint>
          <Trackpoint>
            <Position>
              <LatitudeDegrees>50.203448</LatitudeDegrees>
              <LongitudeDegrees>16.914357</LongitudeDegrees>
            </Position>
            <AltitudeMeters>647.0</AltitudeMeters>
            <DistanceMeters>41609.916863898</DistanceMeters>
          </Trackpoint>
          <Trackpoint>
            <Position>
              <LatitudeDegrees>50.203453</LatitudeDegrees>
              <LongitudeDegrees>16.91432</LongitudeDegrees>
            </Position>
            <AltitudeMeters>647.0</AltitudeMeters>
            <DistanceMeters>41612.611336288</DistanceMeters>
          </Trackpoint>
          <Trackpoint>
            <Position>
              <LatitudeDegrees>50.203457</LatitudeDegrees>
              <LongitudeDegrees>16.914292</LongitudeDegrees>
            </Position>
            <AltitudeMeters>647.0</AltitudeMeters>
            <DistanceMeters>41614.656067418</DistanceMeters>
          </Trackpoint>
          <Trackpoint>
            <Position>
              <LatitudeDegrees>50.203458</LatitudeDegrees>
              <LongitudeDegrees>16.914262</LongitudeDegrees>
            </Position>
            <AltitudeMeters>647.0</AltitudeMeters>
            <DistanceMeters>41616.7936405</DistanceMeters>
          </Trackpoint>
          <Trackpoint>
            <Position>
              <LatitudeDegrees>50.203465</LatitudeDegrees>
              <LongitudeDegrees>16.914232</LongitudeDegrees>
            </Position>
            <AltitudeMeters>647.0</AltitudeMeters>
            <DistanceMeters>41619.066348956</DistanceMeters>
          </Trackpoint>
          <Trackpoint>
            <Position>
              <LatitudeDegrees>50.203472</LatitudeDegrees>
              <LongitudeDegrees>16.914197</LongitudeDegrees>
            </Position>
            <AltitudeMeters>647.0</AltitudeMeters>
            <DistanceMeters>41621.679151626</DistanceMeters>
          </Trackpoint>
          <Trackpoint>
            <Position>
              <LatitudeDegrees>50.203477</LatitudeDegrees>
              <LongitudeDegrees>16.914162</LongitudeDegrees>
            </Position>
            <AltitudeMeters>647.0</AltitudeMeters>
            <DistanceMeters>41624.234292575</DistanceMeters>
          </Trackpoint>
          <Trackpoint>
            <Position>
              <LatitudeDegrees>50.203487</LatitudeDegrees>
              <LongitudeDegrees>16.914128</LongitudeDegrees>
            </Position>
            <AltitudeMeters>647.0</AltitudeMeters>
            <DistanceMeters>41626.900126433</DistanceMeters>
          </Trackpoint>
          <Trackpoint>
            <Position>
              <LatitudeDegrees>50.203495</LatitudeDegrees>
              <LongitudeDegrees>16.914098</LongitudeDegrees>
            </Position>
            <AltitudeMeters>647.0</AltitudeMeters>
            <DistanceMeters>41629.216128464</DistanceMeters>
          </Trackpoint>
          <Trackpoint>
            <Position>
              <LatitudeDegrees>50.203502</LatitudeDegrees>
              <LongitudeDegrees>16.914065</LongitudeDegrees>
            </Position>
            <AltitudeMeters>647.0</AltitudeMeters>
            <DistanceMeters>41631.694122004</DistanceMeters>
          </Trackpoint>
          <Trackpoint>
            <Position>
              <LatitudeDegrees>50.203505</LatitudeDegrees>
              <LongitudeDegrees>16.914033</LongitudeDegrees>
            </Position>
            <AltitudeMeters>647.0</AltitudeMeters>
            <DistanceMeters>41633.998397367</DistanceMeters>
          </Trackpoint>
          <Trackpoint>
            <Position>
              <LatitudeDegrees>50.203512</LatitudeDegrees>
              <LongitudeDegrees>16.914002</LongitudeDegrees>
            </Position>
            <AltitudeMeters>647.0</AltitudeMeters>
            <DistanceMeters>41636.339605688</DistanceMeters>
          </Trackpoint>
          <Trackpoint>
            <Position>
              <LatitudeDegrees>50.20352</LatitudeDegrees>
              <LongitudeDegrees>16.913972</LongitudeDegrees>
            </Position>
            <AltitudeMeters>647.0</AltitudeMeters>
            <DistanceMeters>41638.653657401</DistanceMeters>
          </Trackpoint>
          <Trackpoint>
            <Position>
              <LatitudeDegrees>50.203527</LatitudeDegrees>
              <LongitudeDegrees>16.913938</LongitudeDegrees>
            </Position>
            <AltitudeMeters>647.0</AltitudeMeters>
            <DistanceMeters>41641.198174017</DistanceMeters>
          </Trackpoint>
          <Trackpoint>
            <Position>
              <LatitudeDegrees>50.203538</LatitudeDegrees>
              <LongitudeDegrees>16.913912</LongitudeDegrees>
            </Position>
            <AltitudeMeters>646.0</AltitudeMeters>
            <DistanceMeters>41643.418629317</DistanceMeters>
          </Trackpoint>
          <Trackpoint>
            <Position>
              <LatitudeDegrees>50.203548</LatitudeDegrees>
              <LongitudeDegrees>16.913877</LongitudeDegrees>
            </Position>
            <AltitudeMeters>646.0</AltitudeMeters>
            <DistanceMeters>41646.149717588</DistanceMeters>
          </Trackpoint>
          <Trackpoint>
            <Position>
              <LatitudeDegrees>50.203558</LatitudeDegrees>
              <LongitudeDegrees>16.913843</LongitudeDegrees>
            </Position>
            <AltitudeMeters>646.0</AltitudeMeters>
            <DistanceMeters>41648.81385724</DistanceMeters>
          </Trackpoint>
          <Trackpoint>
            <Position>
              <LatitudeDegrees>50.203568</LatitudeDegrees>
              <LongitudeDegrees>16.91381</LongitudeDegrees>
            </Position>
            <AltitudeMeters>646.0</AltitudeMeters>
            <DistanceMeters>41651.41279879</DistanceMeters>
          </Trackpoint>
          <Trackpoint>
            <Position>
              <LatitudeDegrees>50.203575</LatitudeDegrees>
              <LongitudeDegrees>16.913778</LongitudeDegrees>
            </Position>
            <AltitudeMeters>647.0</AltitudeMeters>
            <DistanceMeters>41653.820558968</DistanceMeters>
          </Trackpoint>
          <Trackpoint>
            <Position>
              <LatitudeDegrees>50.203583</LatitudeDegrees>
              <LongitudeDegrees>16.913747</LongitudeDegrees>
            </Position>
            <AltitudeMeters>646.0</AltitudeMeters>
            <DistanceMeters>41656.201921605</DistanceMeters>
          </Trackpoint>
          <Trackpoint>
            <Position>
              <LatitudeDegrees>50.203592</LatitudeDegrees>
              <LongitudeDegrees>16.913717</LongitudeDegrees>
            </Position>
            <AltitudeMeters>646.0</AltitudeMeters>
            <DistanceMeters>41658.562336222</DistanceMeters>
          </Trackpoint>
          <Trackpoint>
            <Position>
              <LatitudeDegrees>50.203605</LatitudeDegrees>
              <LongitudeDegrees>16.913687</LongitudeDegrees>
            </Position>
            <AltitudeMeters>646.0</AltitudeMeters>
            <DistanceMeters>41661.143846713</DistanceMeters>
          </Trackpoint>
          <Trackpoint>
            <Position>
              <LatitudeDegrees>50.203613</LatitudeDegrees>
              <LongitudeDegrees>16.913658</LongitudeDegrees>
            </Position>
            <AltitudeMeters>646.0</AltitudeMeters>
            <DistanceMeters>41663.394596118</DistanceMeters>
          </Trackpoint>
          <Trackpoint>
            <Position>
              <LatitudeDegrees>50.203622</LatitudeDegrees>
              <LongitudeDegrees>16.913627</LongitudeDegrees>
            </Position>
            <AltitudeMeters>646.0</AltitudeMeters>
            <DistanceMeters>41665.821035864</DistanceMeters>
          </Trackpoint>
          <Trackpoint>
            <Position>
              <LatitudeDegrees>50.203628</LatitudeDegrees>
              <LongitudeDegrees>16.913592</LongitudeDegrees>
            </Position>
            <AltitudeMeters>646.0</AltitudeMeters>
            <DistanceMeters>41668.402546356</DistanceMeters>
          </Trackpoint>
          <Trackpoint>
            <Position>
              <LatitudeDegrees>50.203633</LatitudeDegrees>
              <LongitudeDegrees>16.913557</LongitudeDegrees>
            </Position>
            <AltitudeMeters>646.0</AltitudeMeters>
            <DistanceMeters>41670.955919652</DistanceMeters>
          </Trackpoint>
          <Trackpoint>
            <Position>
              <LatitudeDegrees>50.203638</LatitudeDegrees>
              <LongitudeDegrees>16.913527</LongitudeDegrees>
            </Position>
            <AltitudeMeters>646.0</AltitudeMeters>
            <DistanceMeters>41673.164140945</DistanceMeters>
          </Trackpoint>
          <Trackpoint>
            <Position>
              <LatitudeDegrees>50.203647</LatitudeDegrees>
              <LongitudeDegrees>16.913495</LongitudeDegrees>
            </Position>
            <AltitudeMeters>646.0</AltitudeMeters>
            <DistanceMeters>41675.654856208</DistanceMeters>
          </Trackpoint>
          <Trackpoint>
            <Position>
              <LatitudeDegrees>50.203653</LatitudeDegrees>
              <LongitudeDegrees>16.913462</LongitudeDegrees>
            </Position>
            <AltitudeMeters>646.0</AltitudeMeters>
            <DistanceMeters>41678.096136702</DistanceMeters>
          </Trackpoint>
          <Trackpoint>
            <Position>
              <LatitudeDegrees>50.20366</LatitudeDegrees>
              <LongitudeDegrees>16.913427</LongitudeDegrees>
            </Position>
            <AltitudeMeters>646.0</AltitudeMeters>
            <DistanceMeters>41680.708939372</DistanceMeters>
          </Trackpoint>
          <Trackpoint>
            <Position>
              <LatitudeDegrees>50.203668</LatitudeDegrees>
              <LongitudeDegrees>16.913392</LongitudeDegrees>
            </Position>
            <AltitudeMeters>646.0</AltitudeMeters>
            <DistanceMeters>41683.357782402</DistanceMeters>
          </Trackpoint>
          <Trackpoint>
            <Position>
              <LatitudeDegrees>50.203683</LatitudeDegrees>
              <LongitudeDegrees>16.913362</LongitudeDegrees>
            </Position>
            <AltitudeMeters>646.0</AltitudeMeters>
            <DistanceMeters>41686.07062451</DistanceMeters>
          </Trackpoint>
          <Trackpoint>
            <Position>
              <LatitudeDegrees>50.203742</LatitudeDegrees>
              <LongitudeDegrees>16.913233</LongitudeDegrees>
            </Position>
            <AltitudeMeters>647.0</AltitudeMeters>
            <DistanceMeters>41697.365619862</DistanceMeters>
          </Trackpoint>
          <Trackpoint>
            <Position>
              <LatitudeDegrees>50.203787</LatitudeDegrees>
              <LongitudeDegrees>16.913108</LongitudeDegrees>
            </Position>
            <AltitudeMeters>647.0</AltitudeMeters>
            <DistanceMeters>41707.582648965</DistanceMeters>
          </Trackpoint>
          <Trackpoint>
            <Position>
              <LatitudeDegrees>50.203857</LatitudeDegrees>
              <LongitudeDegrees>16.913013</LongitudeDegrees>
            </Position>
            <AltitudeMeters>647.0</AltitudeMeters>
            <DistanceMeters>41717.902130129</DistanceMeters>
          </Trackpoint>
          <Trackpoint>
            <Position>
              <LatitudeDegrees>50.203902</LatitudeDegrees>
              <LongitudeDegrees>16.912842</LongitudeDegrees>
            </Position>
            <AltitudeMeters>646.0</AltitudeMeters>
            <DistanceMeters>41731.073532053</DistanceMeters>
          </Trackpoint>
          <Trackpoint>
            <Position>
              <LatitudeDegrees>50.20394</LatitudeDegrees>
              <LongitudeDegrees>16.912708</LongitudeDegrees>
            </Position>
            <AltitudeMeters>646.0</AltitudeMeters>
            <DistanceMeters>41741.514801751</DistanceMeters>
          </Trackpoint>
          <Trackpoint>
            <Position>
              <LatitudeDegrees>50.203993</LatitudeDegrees>
              <LongitudeDegrees>16.91258</LongitudeDegrees>
            </Position>
            <AltitudeMeters>647.0</AltitudeMeters>
            <DistanceMeters>41752.375320086</DistanceMeters>
          </Trackpoint>
          <Trackpoint>
            <Position>
              <LatitudeDegrees>50.204013</LatitudeDegrees>
              <LongitudeDegrees>16.91246</LongitudeDegrees>
            </Position>
            <AltitudeMeters>647.0</AltitudeMeters>
            <DistanceMeters>41761.209227525</DistanceMeters>
          </Trackpoint>
          <Trackpoint>
            <Position>
              <LatitudeDegrees>50.204028</LatitudeDegrees>
              <LongitudeDegrees>16.912423</LongitudeDegrees>
            </Position>
            <AltitudeMeters>648.0</AltitudeMeters>
            <DistanceMeters>41764.329231115</DistanceMeters>
          </Trackpoint>
          <Trackpoint>
            <Position>
              <LatitudeDegrees>50.204037</LatitudeDegrees>
              <LongitudeDegrees>16.912382</LongitudeDegrees>
            </Position>
            <AltitudeMeters>648.0</AltitudeMeters>
            <DistanceMeters>41767.417233823</DistanceMeters>
          </Trackpoint>
          <Trackpoint>
            <Position>
              <LatitudeDegrees>50.204052</LatitudeDegrees>
              <LongitudeDegrees>16.912345</LongitudeDegrees>
            </Position>
            <AltitudeMeters>649.0</AltitudeMeters>
            <DistanceMeters>41770.537237414</DistanceMeters>
          </Trackpoint>
          <Trackpoint>
            <Position>
              <LatitudeDegrees>50.204063</LatitudeDegrees>
              <LongitudeDegrees>16.912307</LongitudeDegrees>
            </Position>
            <AltitudeMeters>649.0</AltitudeMeters>
            <DistanceMeters>41773.509007049</DistanceMeters>
          </Trackpoint>
          <Trackpoint>
            <Position>
              <LatitudeDegrees>50.204078</LatitudeDegrees>
              <LongitudeDegrees>16.91227</LongitudeDegrees>
            </Position>
            <AltitudeMeters>650.0</AltitudeMeters>
            <DistanceMeters>41776.62901064</DistanceMeters>
          </Trackpoint>
          <Trackpoint>
            <Position>
              <LatitudeDegrees>50.204092</LatitudeDegrees>
              <LongitudeDegrees>16.912122</LongitudeDegrees>
            </Position>
            <AltitudeMeters>649.0</AltitudeMeters>
            <DistanceMeters>41787.287263858</DistanceMeters>
          </Trackpoint>
          <Trackpoint>
            <Position>
              <LatitudeDegrees>50.204162</LatitudeDegrees>
              <LongitudeDegrees>16.912028</LongitudeDegrees>
            </Position>
            <AltitudeMeters>650.0</AltitudeMeters>
            <DistanceMeters>41797.560702108</DistanceMeters>
          </Trackpoint>
          <Trackpoint>
            <Position>
              <LatitudeDegrees>50.204202</LatitudeDegrees>
              <LongitudeDegrees>16.911892</LongitudeDegrees>
            </Position>
            <AltitudeMeters>650.0</AltitudeMeters>
            <DistanceMeters>41808.223190675</DistanceMeters>
          </Trackpoint>
          <Trackpoint>
            <Position>
              <LatitudeDegrees>50.204225</LatitudeDegrees>
              <LongitudeDegrees>16.911708</LongitudeDegrees>
            </Position>
            <AltitudeMeters>652.0</AltitudeMeters>
            <DistanceMeters>41821.578755058</DistanceMeters>
          </Trackpoint>
          <Trackpoint>
            <Position>
              <LatitudeDegrees>50.204252</LatitudeDegrees>
              <LongitudeDegrees>16.911677</LongitudeDegrees>
            </Position>
            <AltitudeMeters>654.0</AltitudeMeters>
            <DistanceMeters>41825.307872611</DistanceMeters>
          </Trackpoint>
          <Trackpoint>
            <Position>
              <LatitudeDegrees>50.204257</LatitudeDegrees>
              <LongitudeDegrees>16.911635</LongitudeDegrees>
            </Position>
            <AltitudeMeters>654.0</AltitudeMeters>
            <DistanceMeters>41828.351695607</DistanceMeters>
          </Trackpoint>
          <Trackpoint>
            <Position>
              <LatitudeDegrees>50.204262</LatitudeDegrees>
              <LongitudeDegrees>16.9116</LongitudeDegrees>
            </Position>
            <AltitudeMeters>653.0</AltitudeMeters>
            <DistanceMeters>41830.905068904</DistanceMeters>
          </Trackpoint>
          <Trackpoint>
            <Position>
              <LatitudeDegrees>50.204267</LatitudeDegrees>
              <LongitudeDegrees>16.911567</LongitudeDegrees>
            </Position>
            <AltitudeMeters>654.0</AltitudeMeters>
            <DistanceMeters>41833.320318245</DistanceMeters>
          </Trackpoint>
          <Trackpoint>
            <Position>
              <LatitudeDegrees>50.204267</LatitudeDegrees>
              <LongitudeDegrees>16.911532</LongitudeDegrees>
            </Position>
            <AltitudeMeters>654.0</AltitudeMeters>
            <DistanceMeters>41835.814656368</DistanceMeters>
          </Trackpoint>
          <Trackpoint>
            <Position>
              <LatitudeDegrees>50.204272</LatitudeDegrees>
              <LongitudeDegrees>16.911503</LongitudeDegrees>
            </Position>
            <AltitudeMeters>655.0</AltitudeMeters>
            <DistanceMeters>41837.956449737</DistanceMeters>
          </Trackpoint>
          <Trackpoint>
            <Position>
              <LatitudeDegrees>50.204272</LatitudeDegrees>
              <LongitudeDegrees>16.911462</LongitudeDegrees>
            </Position>
            <AltitudeMeters>656.0</AltitudeMeters>
            <DistanceMeters>41840.876105909</DistanceMeters>
          </Trackpoint>
          <Trackpoint>
            <Position>
              <LatitudeDegrees>50.20427</LatitudeDegrees>
              <LongitudeDegrees>16.911435</LongitudeDegrees>
            </Position>
            <AltitudeMeters>656.0</AltitudeMeters>
            <DistanceMeters>41842.809613511</DistanceMeters>
          </Trackpoint>
          <Trackpoint>
            <Position>
              <LatitudeDegrees>50.204265</LatitudeDegrees>
              <LongitudeDegrees>16.911398</LongitudeDegrees>
            </Position>
            <AltitudeMeters>657.0</AltitudeMeters>
            <DistanceMeters>41845.504085901</DistanceMeters>
          </Trackpoint>
          <Trackpoint>
            <Position>
              <LatitudeDegrees>50.204265</LatitudeDegrees>
              <LongitudeDegrees>16.911358</LongitudeDegrees>
            </Position>
            <AltitudeMeters>657.0</AltitudeMeters>
            <DistanceMeters>41848.354887332</DistanceMeters>
          </Trackpoint>
          <Trackpoint>
            <Position>
              <LatitudeDegrees>50.204267</LatitudeDegrees>
              <LongitudeDegrees>16.911315</LongitudeDegrees>
            </Position>
            <AltitudeMeters>658.0</AltitudeMeters>
            <DistanceMeters>41851.428234036</DistanceMeters>
          </Trackpoint>
          <Trackpoint>
            <Position>
              <LatitudeDegrees>50.20427</LatitudeDegrees>
              <LongitudeDegrees>16.911272</LongitudeDegrees>
            </Position>
            <AltitudeMeters>658.0</AltitudeMeters>
            <DistanceMeters>41854.510382705</DistanceMeters>
          </Trackpoint>
          <Trackpoint>
            <Position>
              <LatitudeDegrees>50.204275</LatitudeDegrees>
              <LongitudeDegrees>16.911235</LongitudeDegrees>
            </Position>
            <AltitudeMeters>658.0</AltitudeMeters>
            <DistanceMeters>41857.204855095</DistanceMeters>
          </Trackpoint>
          <Trackpoint>
            <Position>
              <LatitudeDegrees>50.204277</LatitudeDegrees>
              <LongitudeDegrees>16.911188</LongitudeDegrees>
            </Position>
            <AltitudeMeters>658.0</AltitudeMeters>
            <DistanceMeters>41860.560522737</DistanceMeters>
          </Trackpoint>
          <Trackpoint>
            <Position>
              <LatitudeDegrees>50.204278</LatitudeDegrees>
              <LongitudeDegrees>16.911145</LongitudeDegrees>
            </Position>
            <AltitudeMeters>658.0</AltitudeMeters>
            <DistanceMeters>41863.625042194</DistanceMeters>
          </Trackpoint>
          <Trackpoint>
            <Position>
              <LatitudeDegrees>50.204282</LatitudeDegrees>
              <LongitudeDegrees>16.911103</LongitudeDegrees>
            </Position>
            <AltitudeMeters>659.0</AltitudeMeters>
            <DistanceMeters>41866.649520238</DistanceMeters>
          </Trackpoint>
          <Trackpoint>
            <Position>
              <LatitudeDegrees>50.204287</LatitudeDegrees>
              <LongitudeDegrees>16.91107</LongitudeDegrees>
            </Position>
            <AltitudeMeters>659.0</AltitudeMeters>
            <DistanceMeters>41869.06476958</DistanceMeters>
          </Trackpoint>
          <Trackpoint>
            <Position>
              <LatitudeDegrees>50.204322</LatitudeDegrees>
              <LongitudeDegrees>16.91093</LongitudeDegrees>
            </Position>
            <AltitudeMeters>659.0</AltitudeMeters>
            <DistanceMeters>41879.772049838</DistanceMeters>
          </Trackpoint>
          <Trackpoint>
            <Position>
              <LatitudeDegrees>50.204353</LatitudeDegrees>
              <LongitudeDegrees>16.910773</LongitudeDegrees>
            </Position>
            <AltitudeMeters>659.0</AltitudeMeters>
            <DistanceMeters>41891.47693428</DistanceMeters>
          </Trackpoint>
          <Trackpoint>
            <Position>
              <LatitudeDegrees>50.204377</LatitudeDegrees>
              <LongitudeDegrees>16.910618</LongitudeDegrees>
            </Position>
            <AltitudeMeters>661.0</AltitudeMeters>
            <DistanceMeters>41902.837297502</DistanceMeters>
          </Trackpoint>
          <Trackpoint>
            <Position>
              <LatitudeDegrees>50.204383</LatitudeDegrees>
              <LongitudeDegrees>16.910493</LongitudeDegrees>
            </Position>
            <AltitudeMeters>664.0</AltitudeMeters>
            <DistanceMeters>41911.767786579</DistanceMeters>
          </Trackpoint>
          <Trackpoint>
            <Position>
              <LatitudeDegrees>50.20439</LatitudeDegrees>
              <LongitudeDegrees>16.910458</LongitudeDegrees>
            </Position>
            <AltitudeMeters>664.0</AltitudeMeters>
            <DistanceMeters>41914.380589249</DistanceMeters>
          </Trackpoint>
          <Trackpoint>
            <Position>
              <LatitudeDegrees>50.204403</LatitudeDegrees>
              <LongitudeDegrees>16.910437</LongitudeDegrees>
            </Position>
            <AltitudeMeters>664.0</AltitudeMeters>
            <DistanceMeters>41916.46252025</DistanceMeters>
          </Trackpoint>
          <Trackpoint>
            <Position>
              <LatitudeDegrees>50.204418</LatitudeDegrees>
              <LongitudeDegrees>16.910415</LongitudeDegrees>
            </Position>
            <AltitudeMeters>663.0</AltitudeMeters>
            <DistanceMeters>41918.751066588</DistanceMeters>
          </Trackpoint>
          <Trackpoint>
            <Position>
              <LatitudeDegrees>50.204433</LatitudeDegrees>
              <LongitudeDegrees>16.910392</LongitudeDegrees>
            </Position>
            <AltitudeMeters>662.0</AltitudeMeters>
            <DistanceMeters>41921.090345606</DistanceMeters>
          </Trackpoint>
          <Trackpoint>
            <Position>
              <LatitudeDegrees>50.204445</LatitudeDegrees>
              <LongitudeDegrees>16.910358</LongitudeDegrees>
            </Position>
            <AltitudeMeters>662.0</AltitudeMeters>
            <DistanceMeters>41923.855933201</DistanceMeters>
          </Trackpoint>
          <Trackpoint>
            <Position>
              <LatitudeDegrees>50.204457</LatitudeDegrees>
              <LongitudeDegrees>16.91022</LongitudeDegrees>
            </Position>
            <AltitudeMeters>662.0</AltitudeMeters>
            <DistanceMeters>41933.777013447</DistanceMeters>
          </Trackpoint>
          <Trackpoint>
            <Position>
              <LatitudeDegrees>50.20446</LatitudeDegrees>
              <LongitudeDegrees>16.910153</LongitudeDegrees>
            </Position>
            <AltitudeMeters>663.0</AltitudeMeters>
            <DistanceMeters>41938.562436507</DistanceMeters>
          </Trackpoint>
          <Trackpoint>
            <Position>
              <LatitudeDegrees>50.204462</LatitudeDegrees>
              <LongitudeDegrees>16.910112</LongitudeDegrees>
            </Position>
            <AltitudeMeters>663.0</AltitudeMeters>
            <DistanceMeters>41941.49135655</DistanceMeters>
          </Trackpoint>
          <Trackpoint>
            <Position>
              <LatitudeDegrees>50.20446</LatitudeDegrees>
              <LongitudeDegrees>16.910078</LongitudeDegrees>
            </Position>
            <AltitudeMeters>663.0</AltitudeMeters>
            <DistanceMeters>41943.92337219</DistanceMeters>
          </Trackpoint>
          <Trackpoint>
            <Position>
              <LatitudeDegrees>50.204462</LatitudeDegrees>
              <LongitudeDegrees>16.910043</LongitudeDegrees>
            </Position>
            <AltitudeMeters>663.0</AltitudeMeters>
            <DistanceMeters>41946.426744526</DistanceMeters>
          </Trackpoint>
          <Trackpoint>
            <Position>
              <LatitudeDegrees>50.204468</LatitudeDegrees>
              <LongitudeDegrees>16.910005</LongitudeDegrees>
            </Position>
            <AltitudeMeters>663.0</AltitudeMeters>
            <DistanceMeters>41949.215094543</DistanceMeters>
          </Trackpoint>
          <Trackpoint>
            <Position>
              <LatitudeDegrees>50.20447</LatitudeDegrees>
              <LongitudeDegrees>16.909965</LongitudeDegrees>
            </Position>
            <AltitudeMeters>663.0</AltitudeMeters>
            <DistanceMeters>41952.07538286</DistanceMeters>
          </Trackpoint>
          <Trackpoint>
            <Position>
              <LatitudeDegrees>50.204468</LatitudeDegrees>
              <LongitudeDegrees>16.909923</LongitudeDegrees>
            </Position>
            <AltitudeMeters>662.0</AltitudeMeters>
            <DistanceMeters>41955.077384907</DistanceMeters>
          </Trackpoint>
          <Trackpoint>
            <Position>
              <LatitudeDegrees>50.204468</LatitudeDegrees>
              <LongitudeDegrees>16.909882</LongitudeDegrees>
            </Position>
            <AltitudeMeters>662.0</AltitudeMeters>
            <DistanceMeters>41958.000132299</DistanceMeters>
          </Trackpoint>
          <Trackpoint>
            <Position>
              <LatitudeDegrees>50.20447</LatitudeDegrees>
              <LongitudeDegrees>16.90984</LongitudeDegrees>
            </Position>
            <AltitudeMeters>661.0</AltitudeMeters>
            <DistanceMeters>41961.002134346</DistanceMeters>
          </Trackpoint>
          <Trackpoint>
            <Position>
              <LatitudeDegrees>50.20447</LatitudeDegrees>
              <LongitudeDegrees>16.909798</LongitudeDegrees>
            </Position>
            <AltitudeMeters>661.0</AltitudeMeters>
            <DistanceMeters>41963.995098735</DistanceMeters>
          </Trackpoint>
          <Trackpoint>
            <Position>
              <LatitudeDegrees>50.204473</LatitudeDegrees>
              <LongitudeDegrees>16.90976</LongitudeDegrees>
            </Position>
            <AltitudeMeters>660.0</AltitudeMeters>
            <DistanceMeters>41966.7228786</DistanceMeters>
          </Trackpoint>
          <Trackpoint>
            <Position>
              <LatitudeDegrees>50.20448</LatitudeDegrees>
              <LongitudeDegrees>16.909723</LongitudeDegrees>
            </Position>
            <AltitudeMeters>660.0</AltitudeMeters>
            <DistanceMeters>41969.470449146</DistanceMeters>
          </Trackpoint>
          <Trackpoint>
            <Position>
              <LatitudeDegrees>50.204483</LatitudeDegrees>
              <LongitudeDegrees>16.909687</LongitudeDegrees>
            </Position>
            <AltitudeMeters>660.0</AltitudeMeters>
            <DistanceMeters>41972.057201288</DistanceMeters>
          </Trackpoint>
          <Trackpoint>
            <Position>
              <LatitudeDegrees>50.204487</LatitudeDegrees>
              <LongitudeDegrees>16.909648</LongitudeDegrees>
            </Position>
            <AltitudeMeters>659.0</AltitudeMeters>
            <DistanceMeters>41974.871340062</DistanceMeters>
          </Trackpoint>
          <Trackpoint>
            <Position>
              <LatitudeDegrees>50.204488</LatitudeDegrees>
              <LongitudeDegrees>16.909613</LongitudeDegrees>
            </Position>
            <AltitudeMeters>659.0</AltitudeMeters>
            <DistanceMeters>41977.365678185</DistanceMeters>
          </Trackpoint>
          <Trackpoint>
            <Position>
              <LatitudeDegrees>50.204488</LatitudeDegrees>
              <LongitudeDegrees>16.909572</LongitudeDegrees>
            </Position>
            <AltitudeMeters>659.0</AltitudeMeters>
            <DistanceMeters>41980.285334357</DistanceMeters>
          </Trackpoint>
          <Trackpoint>
            <Position>
              <LatitudeDegrees>50.204492</LatitudeDegrees>
              <LongitudeDegrees>16.909532</LongitudeDegrees>
            </Position>
            <AltitudeMeters>659.0</AltitudeMeters>
            <DistanceMeters>41983.17076855</DistanceMeters>
          </Trackpoint>
          <Trackpoint>
            <Position>
              <LatitudeDegrees>50.204493</LatitudeDegrees>
              <LongitudeDegrees>16.909497</LongitudeDegrees>
            </Position>
            <AltitudeMeters>658.0</AltitudeMeters>
            <DistanceMeters>41985.666916131</DistanceMeters>
          </Trackpoint>
          <Trackpoint>
            <Position>
              <LatitudeDegrees>50.204492</LatitudeDegrees>
              <LongitudeDegrees>16.909458</LongitudeDegrees>
            </Position>
            <AltitudeMeters>658.0</AltitudeMeters>
            <DistanceMeters>41988.448781604</DistanceMeters>
          </Trackpoint>
          <Trackpoint>
            <Position>
              <LatitudeDegrees>50.20449</LatitudeDegrees>
              <LongitudeDegrees>16.909415</LongitudeDegrees>
            </Position>
            <AltitudeMeters>658.0</AltitudeMeters>
            <DistanceMeters>41991.522128308</DistanceMeters>
          </Trackpoint>
          <Trackpoint>
            <Position>
              <LatitudeDegrees>50.204492</LatitudeDegrees>
              <LongitudeDegrees>16.909373</LongitudeDegrees>
            </Position>
            <AltitudeMeters>658.0</AltitudeMeters>
            <DistanceMeters>41994.524130355</DistanceMeters>
          </Trackpoint>
          <Trackpoint>
            <Position>
              <LatitudeDegrees>50.204493</LatitudeDegrees>
              <LongitudeDegrees>16.909335</LongitudeDegrees>
            </Position>
            <AltitudeMeters>658.0</AltitudeMeters>
            <DistanceMeters>41997.235307632</DistanceMeters>
          </Trackpoint>
          <Trackpoint>
            <Position>
              <LatitudeDegrees>50.204495</LatitudeDegrees>
              <LongitudeDegrees>16.9093</LongitudeDegrees>
            </Position>
            <AltitudeMeters>658.0</AltitudeMeters>
            <DistanceMeters>41999.738679968</DistanceMeters>
          </Trackpoint>
          <Trackpoint>
            <Position>
              <LatitudeDegrees>50.204498</LatitudeDegrees>
              <LongitudeDegrees>16.909265</LongitudeDegrees>
            </Position>
            <AltitudeMeters>658.0</AltitudeMeters>
            <DistanceMeters>42002.256439619</DistanceMeters>
          </Trackpoint>
          <Trackpoint>
            <Position>
              <LatitudeDegrees>50.2045</LatitudeDegrees>
              <LongitudeDegrees>16.909225</LongitudeDegrees>
            </Position>
            <AltitudeMeters>658.0</AltitudeMeters>
            <DistanceMeters>42005.115148975</DistanceMeters>
          </Trackpoint>
          <Trackpoint>
            <Position>
              <LatitudeDegrees>50.2045</LatitudeDegrees>
              <LongitudeDegrees>16.909188</LongitudeDegrees>
            </Position>
            <AltitudeMeters>658.0</AltitudeMeters>
            <DistanceMeters>42007.752033285</DistanceMeters>
          </Trackpoint>
          <Trackpoint>
            <Position>
              <LatitudeDegrees>50.204503</LatitudeDegrees>
              <LongitudeDegrees>16.90915</LongitudeDegrees>
            </Position>
            <AltitudeMeters>658.0</AltitudeMeters>
            <DistanceMeters>42010.479813149</DistanceMeters>
          </Trackpoint>
          <Trackpoint>
            <Position>
              <LatitudeDegrees>50.204507</LatitudeDegrees>
              <LongitudeDegrees>16.909117</LongitudeDegrees>
            </Position>
            <AltitudeMeters>658.0</AltitudeMeters>
            <DistanceMeters>42012.872524679</DistanceMeters>
          </Trackpoint>
          <Trackpoint>
            <Position>
              <LatitudeDegrees>50.20451</LatitudeDegrees>
              <LongitudeDegrees>16.909082</LongitudeDegrees>
            </Position>
            <AltitudeMeters>659.0</AltitudeMeters>
            <DistanceMeters>42015.386695221</DistanceMeters>
          </Trackpoint>
          <Trackpoint>
            <Position>
              <LatitudeDegrees>50.204513</LatitudeDegrees>
              <LongitudeDegrees>16.909045</LongitudeDegrees>
            </Position>
            <AltitudeMeters>659.0</AltitudeMeters>
            <DistanceMeters>42018.044047245</DistanceMeters>
          </Trackpoint>
          <Trackpoint>
            <Position>
              <LatitudeDegrees>50.204515</LatitudeDegrees>
              <LongitudeDegrees>16.909013</LongitudeDegrees>
            </Position>
            <AltitudeMeters>659.0</AltitudeMeters>
            <DistanceMeters>42020.336535956</DistanceMeters>
          </Trackpoint>
          <Trackpoint>
            <Position>
              <LatitudeDegrees>50.20452</LatitudeDegrees>
              <LongitudeDegrees>16.90898</LongitudeDegrees>
            </Position>
            <AltitudeMeters>659.0</AltitudeMeters>
            <DistanceMeters>42022.751785297</DistanceMeters>
          </Trackpoint>
          <Trackpoint>
            <Position>
              <LatitudeDegrees>50.204523</LatitudeDegrees>
              <LongitudeDegrees>16.908943</LongitudeDegrees>
            </Position>
            <AltitudeMeters>659.0</AltitudeMeters>
            <DistanceMeters>42025.407437704</DistanceMeters>
          </Trackpoint>
          <Trackpoint>
            <Position>
              <LatitudeDegrees>50.204525</LatitudeDegrees>
              <LongitudeDegrees>16.908908</LongitudeDegrees>
            </Position>
            <AltitudeMeters>659.0</AltitudeMeters>
            <DistanceMeters>42027.909005807</DistanceMeters>
          </Trackpoint>
          <Trackpoint>
            <Position>
              <LatitudeDegrees>50.204528</LatitudeDegrees>
              <LongitudeDegrees>16.908873</LongitudeDegrees>
            </Position>
            <AltitudeMeters>659.0</AltitudeMeters>
            <DistanceMeters>42030.423176348</DistanceMeters>
          </Trackpoint>
          <Trackpoint>
            <Position>
              <LatitudeDegrees>50.204533</LatitudeDegrees>
              <LongitudeDegrees>16.908838</LongitudeDegrees>
            </Position>
            <AltitudeMeters>659.0</AltitudeMeters>
            <DistanceMeters>42032.976549645</DistanceMeters>
          </Trackpoint>
          <Trackpoint>
            <Position>
              <LatitudeDegrees>50.204538</LatitudeDegrees>
              <LongitudeDegrees>16.908803</LongitudeDegrees>
            </Position>
            <AltitudeMeters>659.0</AltitudeMeters>
            <DistanceMeters>42035.529922942</DistanceMeters>
          </Trackpoint>
          <Trackpoint>
            <Position>
              <LatitudeDegrees>50.204545</LatitudeDegrees>
              <LongitudeDegrees>16.908765</LongitudeDegrees>
            </Position>
            <AltitudeMeters>659.0</AltitudeMeters>
            <DistanceMeters>42038.345665671</DistanceMeters>
          </Trackpoint>
          <Trackpoint>
            <Position>
              <LatitudeDegrees>50.204553</LatitudeDegrees>
              <LongitudeDegrees>16.90873</LongitudeDegrees>
            </Position>
            <AltitudeMeters>659.0</AltitudeMeters>
            <DistanceMeters>42040.99280362</DistanceMeters>
          </Trackpoint>
          <Trackpoint>
            <Position>
              <LatitudeDegrees>50.204558</LatitudeDegrees>
              <LongitudeDegrees>16.9087</LongitudeDegrees>
            </Position>
            <AltitudeMeters>659.0</AltitudeMeters>
            <DistanceMeters>42043.201024913</DistanceMeters>
          </Trackpoint>
          <Trackpoint>
            <Position>
              <LatitudeDegrees>50.204563</LatitudeDegrees>
              <LongitudeDegrees>16.908662</LongitudeDegrees>
            </Position>
            <AltitudeMeters>659.0</AltitudeMeters>
            <DistanceMeters>42045.964979448</DistanceMeters>
          </Trackpoint>
          <Trackpoint>
            <Position>
              <LatitudeDegrees>50.20457</LatitudeDegrees>
              <LongitudeDegrees>16.908623</LongitudeDegrees>
            </Position>
            <AltitudeMeters>659.0</AltitudeMeters>
            <DistanceMeters>42048.850413641</DistanceMeters>
          </Trackpoint>
          <Trackpoint>
            <Position>
              <LatitudeDegrees>50.204578</LatitudeDegrees>
              <LongitudeDegrees>16.90859</LongitudeDegrees>
            </Position>
            <AltitudeMeters>659.0</AltitudeMeters>
            <DistanceMeters>42051.364584182</DistanceMeters>
          </Trackpoint>
          <Trackpoint>
            <Position>
              <LatitudeDegrees>50.20459</LatitudeDegrees>
              <LongitudeDegrees>16.908555</LongitudeDegrees>
            </Position>
            <AltitudeMeters>660.0</AltitudeMeters>
            <DistanceMeters>42054.193125808</DistanceMeters>
          </Trackpoint>
          <Trackpoint>
            <Position>
              <LatitudeDegrees>50.204603</LatitudeDegrees>
              <LongitudeDegrees>16.908523</LongitudeDegrees>
            </Position>
            <AltitudeMeters>660.0</AltitudeMeters>
            <DistanceMeters>42056.892620519</DistanceMeters>
          </Trackpoint>
          <Trackpoint>
            <Position>
              <LatitudeDegrees>50.204613</LatitudeDegrees>
              <LongitudeDegrees>16.90849</LongitudeDegrees>
            </Position>
            <AltitudeMeters>660.0</AltitudeMeters>
            <DistanceMeters>42059.49503427</DistanceMeters>
          </Trackpoint>
          <Trackpoint>
            <Position>
              <LatitudeDegrees>50.204627</LatitudeDegrees>
              <LongitudeDegrees>16.90846</LongitudeDegrees>
            </Position>
            <AltitudeMeters>660.0</AltitudeMeters>
            <DistanceMeters>42062.140466039</DistanceMeters>
          </Trackpoint>
          <Trackpoint>
            <Position>
              <LatitudeDegrees>50.204645</LatitudeDegrees>
              <LongitudeDegrees>16.908433</LongitudeDegrees>
            </Position>
            <AltitudeMeters>660.0</AltitudeMeters>
            <DistanceMeters>42064.917458167</DistanceMeters>
          </Trackpoint>
          <Trackpoint>
            <Position>
              <LatitudeDegrees>50.204663</LatitudeDegrees>
              <LongitudeDegrees>16.908405</LongitudeDegrees>
            </Position>
            <AltitudeMeters>660.0</AltitudeMeters>
            <DistanceMeters>42067.745999793</DistanceMeters>
          </Trackpoint>
          <Trackpoint>
            <Position>
              <LatitudeDegrees>50.204682</LatitudeDegrees>
              <LongitudeDegrees>16.908375</LongitudeDegrees>
            </Position>
            <AltitudeMeters>661.0</AltitudeMeters>
            <DistanceMeters>42070.752510482</DistanceMeters>
          </Trackpoint>
          <Trackpoint>
            <Position>
              <LatitudeDegrees>50.204707</LatitudeDegrees>
              <LongitudeDegrees>16.908352</LongitudeDegrees>
            </Position>
            <AltitudeMeters>661.0</AltitudeMeters>
            <DistanceMeters>42073.980622657</DistanceMeters>
          </Trackpoint>
          <Trackpoint>
            <Position>
              <LatitudeDegrees>50.204728</LatitudeDegrees>
              <LongitudeDegrees>16.90833</LongitudeDegrees>
            </Position>
            <AltitudeMeters>661.0</AltitudeMeters>
            <DistanceMeters>42076.794761432</DistanceMeters>
          </Trackpoint>
          <Trackpoint>
            <Position>
              <LatitudeDegrees>50.204752</LatitudeDegrees>
              <LongitudeDegrees>16.908312</LongitudeDegrees>
            </Position>
            <AltitudeMeters>661.0</AltitudeMeters>
            <DistanceMeters>42079.757401184</DistanceMeters>
          </Trackpoint>
          <Trackpoint>
            <Position>
              <LatitudeDegrees>50.204778</LatitudeDegrees>
              <LongitudeDegrees>16.908297</LongitudeDegrees>
            </Position>
            <AltitudeMeters>661.0</AltitudeMeters>
            <DistanceMeters>42082.843941423</DistanceMeters>
          </Trackpoint>
          <Trackpoint>
            <Position>
              <LatitudeDegrees>50.204812</LatitudeDegrees>
              <LongitudeDegrees>16.90829</LongitudeDegrees>
            </Position>
            <AltitudeMeters>661.0</AltitudeMeters>
            <DistanceMeters>42086.661603454</DistanceMeters>
          </Trackpoint>
          <Trackpoint>
            <Position>
              <LatitudeDegrees>50.204885</LatitudeDegrees>
              <LongitudeDegrees>16.908195</LongitudeDegrees>
            </Position>
            <AltitudeMeters>661.0</AltitudeMeters>
            <DistanceMeters>42097.236074439</DistanceMeters>
          </Trackpoint>
          <Trackpoint>
            <Position>
              <LatitudeDegrees>50.204912</LatitudeDegrees>
              <LongitudeDegrees>16.908135</LongitudeDegrees>
            </Position>
            <AltitudeMeters>661.0</AltitudeMeters>
            <DistanceMeters>42102.461679778</DistanceMeters>
          </Trackpoint>
          <Trackpoint>
            <Position>
              <LatitudeDegrees>50.204933</LatitudeDegrees>
              <LongitudeDegrees>16.908112</LongitudeDegrees>
            </Position>
            <AltitudeMeters>661.0</AltitudeMeters>
            <DistanceMeters>42105.315647009</DistanceMeters>
          </Trackpoint>
          <Trackpoint>
            <Position>
              <LatitudeDegrees>50.204955</LatitudeDegrees>
              <LongitudeDegrees>16.908085</LongitudeDegrees>
            </Position>
            <AltitudeMeters>661.0</AltitudeMeters>
            <DistanceMeters>42108.426955728</DistanceMeters>
          </Trackpoint>
          <Trackpoint>
            <Position>
              <LatitudeDegrees>50.204972</LatitudeDegrees>
              <LongitudeDegrees>16.90805</LongitudeDegrees>
            </Position>
            <AltitudeMeters>661.0</AltitudeMeters>
            <DistanceMeters>42111.555630027</DistanceMeters>
          </Trackpoint>
          <Trackpoint>
            <Position>
              <LatitudeDegrees>50.20499</LatitudeDegrees>
              <LongitudeDegrees>16.908025</LongitudeDegrees>
            </Position>
            <AltitudeMeters>661.0</AltitudeMeters>
            <DistanceMeters>42114.236663568</DistanceMeters>
          </Trackpoint>
          <Trackpoint>
            <Position>
              <LatitudeDegrees>50.205013</LatitudeDegrees>
              <LongitudeDegrees>16.908</LongitudeDegrees>
            </Position>
            <AltitudeMeters>661.0</AltitudeMeters>
            <DistanceMeters>42117.356667159</DistanceMeters>
          </Trackpoint>
          <Trackpoint>
            <Position>
              <LatitudeDegrees>50.205032</LatitudeDegrees>
              <LongitudeDegrees>16.907968</LongitudeDegrees>
            </Position>
            <AltitudeMeters>661.0</AltitudeMeters>
            <DistanceMeters>42120.467975878</DistanceMeters>
          </Trackpoint>
          <Trackpoint>
            <Position>
              <LatitudeDegrees>50.205047</LatitudeDegrees>
              <LongitudeDegrees>16.90795</LongitudeDegrees>
            </Position>
            <AltitudeMeters>662.0</AltitudeMeters>
            <DistanceMeters>42122.573627211</DistanceMeters>
          </Trackpoint>
          <Trackpoint>
            <Position>
              <LatitudeDegrees>50.205068</LatitudeDegrees>
              <LongitudeDegrees>16.90793</LongitudeDegrees>
            </Position>
            <AltitudeMeters>662.0</AltitudeMeters>
            <DistanceMeters>42125.3113203</DistanceMeters>
          </Trackpoint>
          <Trackpoint>
            <Position>
              <LatitudeDegrees>50.205087</LatitudeDegrees>
              <LongitudeDegrees>16.907917</LongitudeDegrees>
            </Position>
            <AltitudeMeters>662.0</AltitudeMeters>
            <DistanceMeters>42127.619511172</DistanceMeters>
          </Trackpoint>
          <Trackpoint>
            <Position>
              <LatitudeDegrees>50.205108</LatitudeDegrees>
              <LongitudeDegrees>16.907895</LongitudeDegrees>
            </Position>
            <AltitudeMeters>663.0</AltitudeMeters>
            <DistanceMeters>42130.435253901</DistanceMeters>
          </Trackpoint>
          <Trackpoint>
            <Position>
              <LatitudeDegrees>50.205123</LatitudeDegrees>
              <LongitudeDegrees>16.907873</LongitudeDegrees>
            </Position>
            <AltitudeMeters>663.0</AltitudeMeters>
            <DistanceMeters>42132.727742612</DistanceMeters>
          </Trackpoint>
          <Trackpoint>
            <Position>
              <LatitudeDegrees>50.20514</LatitudeDegrees>
              <LongitudeDegrees>16.90785</LongitudeDegrees>
            </Position>
            <AltitudeMeters>663.0</AltitudeMeters>
            <DistanceMeters>42135.232917881</DistanceMeters>
          </Trackpoint>
          <Trackpoint>
            <Position>
              <LatitudeDegrees>50.205152</LatitudeDegrees>
              <LongitudeDegrees>16.907822</LongitudeDegrees>
            </Position>
            <AltitudeMeters>663.0</AltitudeMeters>
            <DistanceMeters>42137.633165529</DistanceMeters>
          </Trackpoint>
          <Trackpoint>
            <Position>
              <LatitudeDegrees>50.205163</LatitudeDegrees>
              <LongitudeDegrees>16.90778</LongitudeDegrees>
            </Position>
            <AltitudeMeters>663.0</AltitudeMeters>
            <DistanceMeters>42140.866867513</DistanceMeters>
          </Trackpoint>
          <Trackpoint>
            <Position>
              <LatitudeDegrees>50.205178</LatitudeDegrees>
              <LongitudeDegrees>16.907752</LongitudeDegrees>
            </Position>
            <AltitudeMeters>663.0</AltitudeMeters>
            <DistanceMeters>42143.469281264</DistanceMeters>
          </Trackpoint>
          <Trackpoint>
            <Position>
              <LatitudeDegrees>50.205197</LatitudeDegrees>
              <LongitudeDegrees>16.907727</LongitudeDegrees>
            </Position>
            <AltitudeMeters>663.0</AltitudeMeters>
            <DistanceMeters>42146.233235799</DistanceMeters>
          </Trackpoint>
          <Trackpoint>
            <Position>
              <LatitudeDegrees>50.205213</LatitudeDegrees>
              <LongitudeDegrees>16.9077</LongitudeDegrees>
            </Position>
            <AltitudeMeters>663.0</AltitudeMeters>
            <DistanceMeters>42148.852941527</DistanceMeters>
          </Trackpoint>
          <Trackpoint>
            <Position>
              <LatitudeDegrees>50.205233</LatitudeDegrees>
              <LongitudeDegrees>16.907673</LongitudeDegrees>
            </Position>
            <AltitudeMeters>663.0</AltitudeMeters>
            <DistanceMeters>42151.794168011</DistanceMeters>
          </Trackpoint>
          <Trackpoint>
            <Position>
              <LatitudeDegrees>50.205252</LatitudeDegrees>
              <LongitudeDegrees>16.90765</LongitudeDegrees>
            </Position>
            <AltitudeMeters>664.0</AltitudeMeters>
            <DistanceMeters>42154.468456803</DistanceMeters>
          </Trackpoint>
          <Trackpoint>
            <Position>
              <LatitudeDegrees>50.205267</LatitudeDegrees>
              <LongitudeDegrees>16.907625</LongitudeDegrees>
            </Position>
            <AltitudeMeters>664.0</AltitudeMeters>
            <DistanceMeters>42156.909737298</DistanceMeters>
          </Trackpoint>
          <Trackpoint>
            <Position>
              <LatitudeDegrees>50.205282</LatitudeDegrees>
              <LongitudeDegrees>16.907602</LongitudeDegrees>
            </Position>
            <AltitudeMeters>665.0</AltitudeMeters>
            <DistanceMeters>42159.250945619</DistanceMeters>
          </Trackpoint>
          <Trackpoint>
            <Position>
              <LatitudeDegrees>50.205298</LatitudeDegrees>
              <LongitudeDegrees>16.90758</LongitudeDegrees>
            </Position>
            <AltitudeMeters>665.0</AltitudeMeters>
            <DistanceMeters>42161.622809364</DistanceMeters>
          </Trackpoint>
          <Trackpoint>
            <Position>
              <LatitudeDegrees>50.205315</LatitudeDegrees>
              <LongitudeDegrees>16.907558</LongitudeDegrees>
            </Position>
            <AltitudeMeters>665.0</AltitudeMeters>
            <DistanceMeters>42164.080678591</DistanceMeters>
          </Trackpoint>
          <Trackpoint>
            <Position>
              <LatitudeDegrees>50.205327</LatitudeDegrees>
              <LongitudeDegrees>16.907533</LongitudeDegrees>
            </Position>
            <AltitudeMeters>666.0</AltitudeMeters>
            <DistanceMeters>42166.305196942</DistanceMeters>
          </Trackpoint>
          <Trackpoint>
            <Position>
              <LatitudeDegrees>50.205342</LatitudeDegrees>
              <LongitudeDegrees>16.907508</LongitudeDegrees>
            </Position>
            <AltitudeMeters>666.0</AltitudeMeters>
            <DistanceMeters>42168.74277572</DistanceMeters>
          </Trackpoint>
          <Trackpoint>
            <Position>
              <LatitudeDegrees>50.205353</LatitudeDegrees>
              <LongitudeDegrees>16.907483</LongitudeDegrees>
            </Position>
            <AltitudeMeters>666.0</AltitudeMeters>
            <DistanceMeters>42170.901367725</DistanceMeters>
          </Trackpoint>
          <Trackpoint>
            <Position>
              <LatitudeDegrees>50.205367</LatitudeDegrees>
              <LongitudeDegrees>16.907458</LongitudeDegrees>
            </Position>
            <AltitudeMeters>667.0</AltitudeMeters>
            <DistanceMeters>42173.267513831</DistanceMeters>
          </Trackpoint>
          <Trackpoint>
            <Position>
              <LatitudeDegrees>50.20538</LatitudeDegrees>
              <LongitudeDegrees>16.90743</LongitudeDegrees>
            </Position>
            <AltitudeMeters>667.0</AltitudeMeters>
            <DistanceMeters>42175.734550824</DistanceMeters>
          </Trackpoint>
          <Trackpoint>
            <Position>
              <LatitudeDegrees>50.205392</LatitudeDegrees>
              <LongitudeDegrees>16.907405</LongitudeDegrees>
            </Position>
            <AltitudeMeters>667.0</AltitudeMeters>
            <DistanceMeters>42177.963124817</DistanceMeters>
          </Trackpoint>
          <Trackpoint>
            <Position>
              <LatitudeDegrees>50.205405</LatitudeDegrees>
              <LongitudeDegrees>16.907375</LongitudeDegrees>
            </Position>
            <AltitudeMeters>667.0</AltitudeMeters>
            <DistanceMeters>42180.544635309</DistanceMeters>
          </Trackpoint>
          <Trackpoint>
            <Position>
              <LatitudeDegrees>50.205415</LatitudeDegrees>
              <LongitudeDegrees>16.907345</LongitudeDegrees>
            </Position>
            <AltitudeMeters>668.0</AltitudeMeters>
            <DistanceMeters>42182.952395487</DistanceMeters>
          </Trackpoint>
          <Trackpoint>
            <Position>
              <LatitudeDegrees>50.205427</LatitudeDegrees>
              <LongitudeDegrees>16.907322</LongitudeDegrees>
            </Position>
            <AltitudeMeters>668.0</AltitudeMeters>
            <DistanceMeters>42185.066606413</DistanceMeters>
          </Trackpoint>
          <Trackpoint>
            <Position>
              <LatitudeDegrees>50.20544</LatitudeDegrees>
              <LongitudeDegrees>16.907295</LongitudeDegrees>
            </Position>
            <AltitudeMeters>668.0</AltitudeMeters>
            <DistanceMeters>42187.474366592</DistanceMeters>
          </Trackpoint>
          <Trackpoint>
            <Position>
              <LatitudeDegrees>50.205453</LatitudeDegrees>
              <LongitudeDegrees>16.907277</LongitudeDegrees>
            </Position>
            <AltitudeMeters>668.0</AltitudeMeters>
            <DistanceMeters>42189.407874194</DistanceMeters>
          </Trackpoint>
          <Trackpoint>
            <Position>
              <LatitudeDegrees>50.205467</LatitudeDegrees>
              <LongitudeDegrees>16.907243</LongitudeDegrees>
            </Position>
            <AltitudeMeters>668.0</AltitudeMeters>
            <DistanceMeters>42192.287042507</DistanceMeters>
          </Trackpoint>
          <Trackpoint>
            <Position>
              <LatitudeDegrees>50.205475</LatitudeDegrees>
              <LongitudeDegrees>16.907215</LongitudeDegrees>
            </Position>
            <AltitudeMeters>669.0</AltitudeMeters>
            <DistanceMeters>42194.470590162</DistanceMeters>
          </Trackpoint>
          <Trackpoint>
            <Position>
              <LatitudeDegrees>50.205485</LatitudeDegrees>
              <LongitudeDegrees>16.907188</LongitudeDegrees>
            </Position>
            <AltitudeMeters>669.0</AltitudeMeters>
            <DistanceMeters>42196.691045462</DistanceMeters>
          </Trackpoint>
          <Trackpoint>
            <Position>
              <LatitudeDegrees>50.205497</LatitudeDegrees>
              <LongitudeDegrees>16.907162</LongitudeDegrees>
            </Position>
            <AltitudeMeters>669.0</AltitudeMeters>
            <DistanceMeters>42198.973665472</DistanceMeters>
          </Trackpoint>
          <Trackpoint>
            <Position>
              <LatitudeDegrees>50.205508</LatitudeDegrees>
              <LongitudeDegrees>16.907135</LongitudeDegrees>
            </Position>
            <AltitudeMeters>670.0</AltitudeMeters>
            <DistanceMeters>42201.254306616</DistanceMeters>
          </Trackpoint>
          <Trackpoint>
            <Position>
              <LatitudeDegrees>50.20552</LatitudeDegrees>
              <LongitudeDegrees>16.907108</LongitudeDegrees>
            </Position>
            <AltitudeMeters>670.0</AltitudeMeters>
            <DistanceMeters>42203.595514937</DistanceMeters>
          </Trackpoint>
          <Trackpoint>
            <Position>
              <LatitudeDegrees>50.205528</LatitudeDegrees>
              <LongitudeDegrees>16.907075</LongitudeDegrees>
            </Position>
            <AltitudeMeters>670.0</AltitudeMeters>
            <DistanceMeters>42206.109685479</DistanceMeters>
          </Trackpoint>
          <Trackpoint>
            <Position>
              <LatitudeDegrees>50.205525</LatitudeDegrees>
              <LongitudeDegrees>16.90703</LongitudeDegrees>
            </Position>
            <AltitudeMeters>670.0</AltitudeMeters>
            <DistanceMeters>42209.332198149</DistanceMeters>
          </Trackpoint>
          <Trackpoint>
            <Position>
              <LatitudeDegrees>50.205537</LatitudeDegrees>
              <LongitudeDegrees>16.907003</LongitudeDegrees>
            </Position>
            <AltitudeMeters>670.0</AltitudeMeters>
            <DistanceMeters>42211.671477167</DistanceMeters>
          </Trackpoint>
          <Trackpoint>
            <Position>
              <LatitudeDegrees>50.205553</LatitudeDegrees>
              <LongitudeDegrees>16.90697</LongitudeDegrees>
            </Position>
            <AltitudeMeters>671.0</AltitudeMeters>
            <DistanceMeters>42214.621899796</DistanceMeters>
          </Trackpoint>
          <Trackpoint>
            <Position>
              <LatitudeDegrees>50.20557</LatitudeDegrees>
              <LongitudeDegrees>16.906947</LongitudeDegrees>
            </Position>
            <AltitudeMeters>671.0</AltitudeMeters>
            <DistanceMeters>42217.125272132</DistanceMeters>
          </Trackpoint>
          <Trackpoint>
            <Position>
              <LatitudeDegrees>50.205587</LatitudeDegrees>
              <LongitudeDegrees>16.906923</LongitudeDegrees>
            </Position>
            <AltitudeMeters>672.0</AltitudeMeters>
            <DistanceMeters>42219.675106448</DistanceMeters>
          </Trackpoint>
          <Trackpoint>
            <Position>
              <LatitudeDegrees>50.205605</LatitudeDegrees>
              <LongitudeDegrees>16.906895</LongitudeDegrees>
            </Position>
            <AltitudeMeters>672.0</AltitudeMeters>
            <DistanceMeters>42222.503648074</DistanceMeters>
          </Trackpoint>
          <Trackpoint>
            <Position>
              <LatitudeDegrees>50.20562</LatitudeDegrees>
              <LongitudeDegrees>16.906873</LongitudeDegrees>
            </Position>
            <AltitudeMeters>672.0</AltitudeMeters>
            <DistanceMeters>42224.794166447</DistanceMeters>
          </Trackpoint>
          <Trackpoint>
            <Position>
              <LatitudeDegrees>50.205633</LatitudeDegrees>
              <LongitudeDegrees>16.906847</LongitudeDegrees>
            </Position>
            <AltitudeMeters>672.0</AltitudeMeters>
            <DistanceMeters>42227.14499753</DistanceMeters>
          </Trackpoint>
          <Trackpoint>
            <Position>
              <LatitudeDegrees>50.205647</LatitudeDegrees>
              <LongitudeDegrees>16.90682</LongitudeDegrees>
            </Position>
            <AltitudeMeters>672.0</AltitudeMeters>
            <DistanceMeters>42229.619344278</DistanceMeters>
          </Trackpoint>
          <Trackpoint>
            <Position>
              <LatitudeDegrees>50.205663</LatitudeDegrees>
              <LongitudeDegrees>16.906805</LongitudeDegrees>
            </Position>
            <AltitudeMeters>672.0</AltitudeMeters>
            <DistanceMeters>42231.696933395</DistanceMeters>
          </Trackpoint>
          <Trackpoint>
            <Position>
              <LatitudeDegrees>50.205677</LatitudeDegrees>
              <LongitudeDegrees>16.906778</LongitudeDegrees>
            </Position>
            <AltitudeMeters>672.0</AltitudeMeters>
            <DistanceMeters>42234.171280143</DistanceMeters>
          </Trackpoint>
          <Trackpoint>
            <Position>
              <LatitudeDegrees>50.205692</LatitudeDegrees>
              <LongitudeDegrees>16.906757</LongitudeDegrees>
            </Position>
            <AltitudeMeters>673.0</AltitudeMeters>
            <DistanceMeters>42236.411977022</DistanceMeters>
          </Trackpoint>
          <Trackpoint>
            <Position>
              <LatitudeDegrees>50.205707</LatitudeDegrees>
              <LongitudeDegrees>16.906733</LongitudeDegrees>
            </Position>
            <AltitudeMeters>673.0</AltitudeMeters>
            <DistanceMeters>42238.800911578</DistanceMeters>
          </Trackpoint>
          <Trackpoint>
            <Position>
              <LatitudeDegrees>50.205717</LatitudeDegrees>
              <LongitudeDegrees>16.906705</LongitudeDegrees>
            </Position>
            <AltitudeMeters>673.0</AltitudeMeters>
            <DistanceMeters>42241.085508738</DistanceMeters>
          </Trackpoint>
          <Trackpoint>
            <Position>
              <LatitudeDegrees>50.205728</LatitudeDegrees>
              <LongitudeDegrees>16.90668</LongitudeDegrees>
            </Position>
            <AltitudeMeters>673.0</AltitudeMeters>
            <DistanceMeters>42243.248280016</DistanceMeters>
          </Trackpoint>
          <Trackpoint>
            <Position>
              <LatitudeDegrees>50.205745</LatitudeDegrees>
              <LongitudeDegrees>16.906655</LongitudeDegrees>
            </Position>
            <AltitudeMeters>674.0</AltitudeMeters>
            <DistanceMeters>42245.847221566</DistanceMeters>
          </Trackpoint>
          <Trackpoint>
            <Position>
              <LatitudeDegrees>50.205767</LatitudeDegrees>
              <LongitudeDegrees>16.906638</LongitudeDegrees>
            </Position>
            <AltitudeMeters>674.0</AltitudeMeters>
            <DistanceMeters>42248.578309836</DistanceMeters>
          </Trackpoint>
          <Trackpoint>
            <Position>
              <LatitudeDegrees>50.205782</LatitudeDegrees>
              <LongitudeDegrees>16.906613</LongitudeDegrees>
            </Position>
            <AltitudeMeters>675.0</AltitudeMeters>
            <DistanceMeters>42251.017740175</DistanceMeters>
          </Trackpoint>
          <Trackpoint>
            <Position>
              <LatitudeDegrees>50.205798</LatitudeDegrees>
              <LongitudeDegrees>16.906578</LongitudeDegrees>
            </Position>
            <AltitudeMeters>675.0</AltitudeMeters>
            <DistanceMeters>42254.082259632</DistanceMeters>
          </Trackpoint>
          <Trackpoint>
            <Position>
              <LatitudeDegrees>50.20581</LatitudeDegrees>
              <LongitudeDegrees>16.906545</LongitudeDegrees>
            </Position>
            <AltitudeMeters>676.0</AltitudeMeters>
            <DistanceMeters>42256.786767336</DistanceMeters>
          </Trackpoint>
          <Trackpoint>
            <Position>
              <LatitudeDegrees>50.205818</LatitudeDegrees>
              <LongitudeDegrees>16.906515</LongitudeDegrees>
            </Position>
            <AltitudeMeters>676.0</AltitudeMeters>
            <DistanceMeters>42259.102769367</DistanceMeters>
          </Trackpoint>
          <Trackpoint>
            <Position>
              <LatitudeDegrees>50.205832</LatitudeDegrees>
              <LongitudeDegrees>16.90648</LongitudeDegrees>
            </Position>
            <AltitudeMeters>676.0</AltitudeMeters>
            <DistanceMeters>42262.043995851</DistanceMeters>
          </Trackpoint>
          <Trackpoint>
            <Position>
              <LatitudeDegrees>50.205842</LatitudeDegrees>
              <LongitudeDegrees>16.906445</LongitudeDegrees>
            </Position>
            <AltitudeMeters>676.0</AltitudeMeters>
            <DistanceMeters>42264.775084122</DistanceMeters>
          </Trackpoint>
          <Trackpoint>
            <Position>
              <LatitudeDegrees>50.205855</LatitudeDegrees>
              <LongitudeDegrees>16.906425</LongitudeDegrees>
            </Position>
            <AltitudeMeters>676.0</AltitudeMeters>
            <DistanceMeters>42266.804299453</DistanceMeters>
          </Trackpoint>
          <Trackpoint>
            <Position>
              <LatitudeDegrees>50.205868</LatitudeDegrees>
              <LongitudeDegrees>16.9064</LongitudeDegrees>
            </Position>
            <AltitudeMeters>677.0</AltitudeMeters>
            <DistanceMeters>42269.096788164</DistanceMeters>
          </Trackpoint>
          <Trackpoint>
            <Position>
              <LatitudeDegrees>50.205883</LatitudeDegrees>
              <LongitudeDegrees>16.906375</LongitudeDegrees>
            </Position>
            <AltitudeMeters>677.0</AltitudeMeters>
            <DistanceMeters>42271.538068658</DistanceMeters>
          </Trackpoint>
          <Trackpoint>
            <Position>
              <LatitudeDegrees>50.205895</LatitudeDegrees>
              <LongitudeDegrees>16.90635</LongitudeDegrees>
            </Position>
            <AltitudeMeters>677.0</AltitudeMeters>
            <DistanceMeters>42273.762587009</DistanceMeters>
          </Trackpoint>
          <Trackpoint>
            <Position>
              <LatitudeDegrees>50.205908</LatitudeDegrees>
              <LongitudeDegrees>16.90632</LongitudeDegrees>
            </Position>
            <AltitudeMeters>677.0</AltitudeMeters>
            <DistanceMeters>42276.3440975</DistanceMeters>
          </Trackpoint>
          <Trackpoint>
            <Position>
              <LatitudeDegrees>50.205922</LatitudeDegrees>
              <LongitudeDegrees>16.906283</LongitudeDegrees>
            </Position>
            <AltitudeMeters>677.0</AltitudeMeters>
            <DistanceMeters>42279.405668885</DistanceMeters>
          </Trackpoint>
          <Trackpoint>
            <Position>
              <LatitudeDegrees>50.205937</LatitudeDegrees>
              <LongitudeDegrees>16.906248</LongitudeDegrees>
            </Position>
            <AltitudeMeters>678.0</AltitudeMeters>
            <DistanceMeters>42282.407670932</DistanceMeters>
          </Trackpoint>
          <Trackpoint>
            <Position>
              <LatitudeDegrees>50.205948</LatitudeDegrees>
              <LongitudeDegrees>16.906215</LongitudeDegrees>
            </Position>
            <AltitudeMeters>678.0</AltitudeMeters>
            <DistanceMeters>42285.058217946</DistanceMeters>
          </Trackpoint>
          <Trackpoint>
            <Position>
              <LatitudeDegrees>50.205963</LatitudeDegrees>
              <LongitudeDegrees>16.906188</LongitudeDegrees>
            </Position>
            <AltitudeMeters>678.0</AltitudeMeters>
            <DistanceMeters>42287.604508363</DistanceMeters>
          </Trackpoint>
          <Trackpoint>
            <Position>
              <LatitudeDegrees>50.205978</LatitudeDegrees>
              <LongitudeDegrees>16.906165</LongitudeDegrees>
            </Position>
            <AltitudeMeters>679.0</AltitudeMeters>
            <DistanceMeters>42289.945716684</DistanceMeters>
          </Trackpoint>
          <Trackpoint>
            <Position>
              <LatitudeDegrees>50.205995</LatitudeDegrees>
              <LongitudeDegrees>16.90614</LongitudeDegrees>
            </Position>
            <AltitudeMeters>679.0</AltitudeMeters>
            <DistanceMeters>42292.544658234</DistanceMeters>
          </Trackpoint>
          <Trackpoint>
            <Position>
              <LatitudeDegrees>50.206013</LatitudeDegrees>
              <LongitudeDegrees>16.906117</LongitudeDegrees>
            </Position>
            <AltitudeMeters>679.0</AltitudeMeters>
            <DistanceMeters>42295.133155235</DistanceMeters>
          </Trackpoint>
          <Trackpoint>
            <Position>
              <LatitudeDegrees>50.206037</LatitudeDegrees>
              <LongitudeDegrees>16.906088</LongitudeDegrees>
            </Position>
            <AltitudeMeters>680.0</AltitudeMeters>
            <DistanceMeters>42298.510282201</DistanceMeters>
          </Trackpoint>
          <Trackpoint>
            <Position>
              <LatitudeDegrees>50.206062</LatitudeDegrees>
              <LongitudeDegrees>16.90607</LongitudeDegrees>
            </Position>
            <AltitudeMeters>680.0</AltitudeMeters>
            <DistanceMeters>42301.574801658</DistanceMeters>
          </Trackpoint>
          <Trackpoint>
            <Position>
              <LatitudeDegrees>50.206078</LatitudeDegrees>
              <LongitudeDegrees>16.906042</LongitudeDegrees>
            </Position>
            <AltitudeMeters>680.0</AltitudeMeters>
            <DistanceMeters>42304.24909045</DistanceMeters>
          </Trackpoint>
          <Trackpoint>
            <Position>
              <LatitudeDegrees>50.206088</LatitudeDegrees>
              <LongitudeDegrees>16.906003</LongitudeDegrees>
            </Position>
            <AltitudeMeters>681.0</AltitudeMeters>
            <DistanceMeters>42307.242054839</DistanceMeters>
          </Trackpoint>
          <Trackpoint>
            <Position>
              <LatitudeDegrees>50.206098</LatitudeDegrees>
              <LongitudeDegrees>16.905978</LongitudeDegrees>
            </Position>
            <AltitudeMeters>681.0</AltitudeMeters>
            <DistanceMeters>42309.341263572</DistanceMeters>
          </Trackpoint>
          <Trackpoint>
            <Position>
              <LatitudeDegrees>50.206113</LatitudeDegrees>
              <LongitudeDegrees>16.905957</LongitudeDegrees>
            </Position>
            <AltitudeMeters>681.0</AltitudeMeters>
            <DistanceMeters>42311.583974561</DistanceMeters>
          </Trackpoint>
          <Trackpoint>
            <Position>
              <LatitudeDegrees>50.206125</LatitudeDegrees>
              <LongitudeDegrees>16.905927</LongitudeDegrees>
            </Position>
            <AltitudeMeters>682.0</AltitudeMeters>
            <DistanceMeters>42314.105318214</DistanceMeters>
          </Trackpoint>
          <Trackpoint>
            <Position>
              <LatitudeDegrees>50.206133</LatitudeDegrees>
              <LongitudeDegrees>16.905882</LongitudeDegrees>
            </Position>
            <AltitudeMeters>682.0</AltitudeMeters>
            <DistanceMeters>42317.432610464</DistanceMeters>
          </Trackpoint>
          <Trackpoint>
            <Position>
              <LatitudeDegrees>50.206138</LatitudeDegrees>
              <LongitudeDegrees>16.90584</LongitudeDegrees>
            </Position>
            <AltitudeMeters>682.0</AltitudeMeters>
            <DistanceMeters>42320.47643346</DistanceMeters>
          </Trackpoint>
          <Trackpoint>
            <Position>
              <LatitudeDegrees>50.206157</LatitudeDegrees>
              <LongitudeDegrees>16.905805</LongitudeDegrees>
            </Position>
            <AltitudeMeters>683.0</AltitudeMeters>
            <DistanceMeters>42323.744855164</DistanceMeters>
          </Trackpoint>
          <Trackpoint>
            <Position>
              <LatitudeDegrees>50.206173</LatitudeDegrees>
              <LongitudeDegrees>16.905783</LongitudeDegrees>
            </Position>
            <AltitudeMeters>683.0</AltitudeMeters>
            <DistanceMeters>42326.114814562</DistanceMeters>
          </Trackpoint>
          <Trackpoint>
            <Position>
              <LatitudeDegrees>50.206187</LatitudeDegrees>
              <LongitudeDegrees>16.905753</LongitudeDegrees>
            </Position>
            <AltitudeMeters>683.0</AltitudeMeters>
            <DistanceMeters>42328.75853905</DistanceMeters>
          </Trackpoint>
          <Trackpoint>
            <Position>
              <LatitudeDegrees>50.20625</LatitudeDegrees>
              <LongitudeDegrees>16.905645</LongitudeDegrees>
            </Position>
            <AltitudeMeters>683.0</AltitudeMeters>
            <DistanceMeters>42339.168194055</DistanceMeters>
          </Trackpoint>
          <Trackpoint>
            <Position>
              <LatitudeDegrees>50.206272</LatitudeDegrees>
              <LongitudeDegrees>16.905503</LongitudeDegrees>
            </Position>
            <AltitudeMeters>684.0</AltitudeMeters>
            <DistanceMeters>42349.575680156</DistanceMeters>
          </Trackpoint>
          <Trackpoint>
            <Position>
              <LatitudeDegrees>50.206343</LatitudeDegrees>
              <LongitudeDegrees>16.905408</LongitudeDegrees>
            </Position>
            <AltitudeMeters>684.0</AltitudeMeters>
            <DistanceMeters>42359.980129032</DistanceMeters>
          </Trackpoint>
          <Trackpoint>
            <Position>
              <LatitudeDegrees>50.206385</LatitudeDegrees>
              <LongitudeDegrees>16.905282</LongitudeDegrees>
            </Position>
            <AltitudeMeters>684.0</AltitudeMeters>
            <DistanceMeters>42370.100362578</DistanceMeters>
          </Trackpoint>
          <Trackpoint>
            <Position>
              <LatitudeDegrees>50.2065</LatitudeDegrees>
              <LongitudeDegrees>16.905205</LongitudeDegrees>
            </Position>
            <AltitudeMeters>686.0</AltitudeMeters>
            <DistanceMeters>42384.025910741</DistanceMeters>
          </Trackpoint>
          <Trackpoint>
            <Position>
              <LatitudeDegrees>50.206557</LatitudeDegrees>
              <LongitudeDegrees>16.905085</LongitudeDegrees>
            </Position>
            <AltitudeMeters>686.0</AltitudeMeters>
            <DistanceMeters>42394.671447804</DistanceMeters>
          </Trackpoint>
          <Trackpoint>
            <Position>
              <LatitudeDegrees>50.206595</LatitudeDegrees>
              <LongitudeDegrees>16.904943</LongitudeDegrees>
            </Position>
            <AltitudeMeters>686.0</AltitudeMeters>
            <DistanceMeters>42405.635405923</DistanceMeters>
          </Trackpoint>
          <Trackpoint>
            <Position>
              <LatitudeDegrees>50.206657</LatitudeDegrees>
              <LongitudeDegrees>16.904827</LongitudeDegrees>
            </Position>
            <AltitudeMeters>686.0</AltitudeMeters>
            <DistanceMeters>42416.401559425</DistanceMeters>
          </Trackpoint>
          <Trackpoint>
            <Position>
              <LatitudeDegrees>50.206707</LatitudeDegrees>
              <LongitudeDegrees>16.904692</LongitudeDegrees>
            </Position>
            <AltitudeMeters>687.0</AltitudeMeters>
            <DistanceMeters>42427.512372855</DistanceMeters>
          </Trackpoint>
          <Trackpoint>
            <Position>
              <LatitudeDegrees>50.206715</LatitudeDegrees>
              <LongitudeDegrees>16.904647</LongitudeDegrees>
            </Position>
            <AltitudeMeters>688.0</AltitudeMeters>
            <DistanceMeters>42430.838307858</DistanceMeters>
          </Trackpoint>
          <Trackpoint>
            <Position>
              <LatitudeDegrees>50.206722</LatitudeDegrees>
              <LongitudeDegrees>16.9046</LongitudeDegrees>
            </Position>
            <AltitudeMeters>689.0</AltitudeMeters>
            <DistanceMeters>42434.275070868</DistanceMeters>
          </Trackpoint>
          <Trackpoint>
            <Position>
              <LatitudeDegrees>50.206727</LatitudeDegrees>
              <LongitudeDegrees>16.90456</LongitudeDegrees>
            </Position>
            <AltitudeMeters>689.0</AltitudeMeters>
            <DistanceMeters>42437.179221587</DistanceMeters>
          </Trackpoint>
          <Trackpoint>
            <Position>
              <LatitudeDegrees>50.206732</LatitudeDegrees>
              <LongitudeDegrees>16.90452</LongitudeDegrees>
            </Position>
            <AltitudeMeters>690.0</AltitudeMeters>
            <DistanceMeters>42440.083372306</DistanceMeters>
          </Trackpoint>
          <Trackpoint>
            <Position>
              <LatitudeDegrees>50.206737</LatitudeDegrees>
              <LongitudeDegrees>16.90448</LongitudeDegrees>
            </Position>
            <AltitudeMeters>691.0</AltitudeMeters>
            <DistanceMeters>42442.987523025</DistanceMeters>
          </Trackpoint>
          <Trackpoint>
            <Position>
              <LatitudeDegrees>50.20675</LatitudeDegrees>
              <LongitudeDegrees>16.904447</LongitudeDegrees>
            </Position>
            <AltitudeMeters>692.0</AltitudeMeters>
            <DistanceMeters>42445.748208541</DistanceMeters>
          </Trackpoint>
          <Trackpoint>
            <Position>
              <LatitudeDegrees>50.20677</LatitudeDegrees>
              <LongitudeDegrees>16.904417</LongitudeDegrees>
            </Position>
            <AltitudeMeters>692.0</AltitudeMeters>
            <DistanceMeters>42448.833285618</DistanceMeters>
          </Trackpoint>
          <Trackpoint>
            <Position>
              <LatitudeDegrees>50.206792</LatitudeDegrees>
              <LongitudeDegrees>16.90439</LongitudeDegrees>
            </Position>
            <AltitudeMeters>693.0</AltitudeMeters>
            <DistanceMeters>42451.947495325</DistanceMeters>
          </Trackpoint>
          <Trackpoint>
            <Position>
              <LatitudeDegrees>50.206812</LatitudeDegrees>
              <LongitudeDegrees>16.90435</LongitudeDegrees>
            </Position>
            <AltitudeMeters>693.0</AltitudeMeters>
            <DistanceMeters>42455.563508419</DistanceMeters>
          </Trackpoint>
          <Trackpoint>
            <Position>
              <LatitudeDegrees>50.206832</LatitudeDegrees>
              <LongitudeDegrees>16.904318</LongitudeDegrees>
            </Position>
            <AltitudeMeters>693.0</AltitudeMeters>
            <DistanceMeters>42458.749384424</DistanceMeters>
          </Trackpoint>
          <Trackpoint>
            <Position>
              <LatitudeDegrees>50.20685</LatitudeDegrees>
              <LongitudeDegrees>16.904292</LongitudeDegrees>
            </Position>
            <AltitudeMeters>693.0</AltitudeMeters>
            <DistanceMeters>42461.477164289</DistanceMeters>
          </Trackpoint>
          <Trackpoint>
            <Position>
              <LatitudeDegrees>50.206863</LatitudeDegrees>
              <LongitudeDegrees>16.904255</LongitudeDegrees>
            </Position>
            <AltitudeMeters>694.0</AltitudeMeters>
            <DistanceMeters>42464.485176356</DistanceMeters>
          </Trackpoint>
          <Trackpoint>
            <Position>
              <LatitudeDegrees>50.206883</LatitudeDegrees>
              <LongitudeDegrees>16.904232</LongitudeDegrees>
            </Position>
            <AltitudeMeters>694.0</AltitudeMeters>
            <DistanceMeters>42467.249130891</DistanceMeters>
          </Trackpoint>
          <Trackpoint>
            <Position>
              <LatitudeDegrees>50.206903</LatitudeDegrees>
              <LongitudeDegrees>16.904213</LongitudeDegrees>
            </Position>
            <AltitudeMeters>694.0</AltitudeMeters>
            <DistanceMeters>42469.855012217</DistanceMeters>
          </Trackpoint>
          <Trackpoint>
            <Position>
              <LatitudeDegrees>50.206918</LatitudeDegrees>
              <LongitudeDegrees>16.904188</LongitudeDegrees>
            </Position>
            <AltitudeMeters>695.0</AltitudeMeters>
            <DistanceMeters>42472.296292712</DistanceMeters>
          </Trackpoint>
          <Trackpoint>
            <Position>
              <LatitudeDegrees>50.206935</LatitudeDegrees>
              <LongitudeDegrees>16.904167</LongitudeDegrees>
            </Position>
            <AltitudeMeters>695.0</AltitudeMeters>
            <DistanceMeters>42474.709671941</DistanceMeters>
          </Trackpoint>
          <Trackpoint>
            <Position>
              <LatitudeDegrees>50.206948</LatitudeDegrees>
              <LongitudeDegrees>16.904138</LongitudeDegrees>
            </Position>
            <AltitudeMeters>695.0</AltitudeMeters>
            <DistanceMeters>42477.231015595</DistanceMeters>
          </Trackpoint>
          <Trackpoint>
            <Position>
              <LatitudeDegrees>50.206963</LatitudeDegrees>
              <LongitudeDegrees>16.904112</LongitudeDegrees>
            </Position>
            <AltitudeMeters>696.0</AltitudeMeters>
            <DistanceMeters>42479.723542945</DistanceMeters>
          </Trackpoint>
          <Trackpoint>
            <Position>
              <LatitudeDegrees>50.206973</LatitudeDegrees>
              <LongitudeDegrees>16.90408</LongitudeDegrees>
            </Position>
            <AltitudeMeters>696.0</AltitudeMeters>
            <DistanceMeters>42482.260951959</DistanceMeters>
          </Trackpoint>
          <Trackpoint>
            <Position>
              <LatitudeDegrees>50.206997</LatitudeDegrees>
              <LongitudeDegrees>16.904048</LongitudeDegrees>
            </Position>
            <AltitudeMeters>696.0</AltitudeMeters>
            <DistanceMeters>42485.771800054</DistanceMeters>
          </Trackpoint>
          <Trackpoint>
            <Position>
              <LatitudeDegrees>50.207013</LatitudeDegrees>
              <LongitudeDegrees>16.904027</LongitudeDegrees>
            </Position>
            <AltitudeMeters>696.0</AltitudeMeters>
            <DistanceMeters>42488.099469675</DistanceMeters>
          </Trackpoint>
          <Trackpoint>
            <Position>
              <LatitudeDegrees>50.207018</LatitudeDegrees>
              <LongitudeDegrees>16.903997</LongitudeDegrees>
            </Position>
            <AltitudeMeters>697.0</AltitudeMeters>
            <DistanceMeters>42490.307690969</DistanceMeters>
          </Trackpoint>
          <Trackpoint>
            <Position>
              <LatitudeDegrees>50.207032</LatitudeDegrees>
              <LongitudeDegrees>16.90396</LongitudeDegrees>
            </Position>
            <AltitudeMeters>697.0</AltitudeMeters>
            <DistanceMeters>42493.370736745</DistanceMeters>
          </Trackpoint>
          <Trackpoint>
            <Position>
              <LatitudeDegrees>50.207045</LatitudeDegrees>
              <LongitudeDegrees>16.903928</LongitudeDegrees>
            </Position>
            <AltitudeMeters>697.0</AltitudeMeters>
            <DistanceMeters>42496.071903486</DistanceMeters>
          </Trackpoint>
          <Trackpoint>
            <Position>
              <LatitudeDegrees>50.207063</LatitudeDegrees>
              <LongitudeDegrees>16.903903</LongitudeDegrees>
            </Position>
            <AltitudeMeters>697.0</AltitudeMeters>
            <DistanceMeters>42498.752937028</DistanceMeters>
          </Trackpoint>
          <Trackpoint>
            <Position>
              <LatitudeDegrees>50.207077</LatitudeDegrees>
              <LongitudeDegrees>16.903873</LongitudeDegrees>
            </Position>
            <AltitudeMeters>698.0</AltitudeMeters>
            <DistanceMeters>42501.400074977</DistanceMeters>
          </Trackpoint>
          <Trackpoint>
            <Position>
              <LatitudeDegrees>50.207093</LatitudeDegrees>
              <LongitudeDegrees>16.903842</LongitudeDegrees>
            </Position>
            <AltitudeMeters>698.0</AltitudeMeters>
            <DistanceMeters>42504.238177897</DistanceMeters>
          </Trackpoint>
          <Trackpoint>
            <Position>
              <LatitudeDegrees>50.207112</LatitudeDegrees>
              <LongitudeDegrees>16.903807</LongitudeDegrees>
            </Position>
            <AltitudeMeters>698.0</AltitudeMeters>
            <DistanceMeters>42507.507980721</DistanceMeters>
          </Trackpoint>
          <Trackpoint>
            <Position>
              <LatitudeDegrees>50.207132</LatitudeDegrees>
              <LongitudeDegrees>16.903773</LongitudeDegrees>
            </Position>
            <AltitudeMeters>699.0</AltitudeMeters>
            <DistanceMeters>42510.79705834</DistanceMeters>
          </Trackpoint>
          <Trackpoint>
            <Position>
              <LatitudeDegrees>50.207148</LatitudeDegrees>
              <LongitudeDegrees>16.903743</LongitudeDegrees>
            </Position>
            <AltitudeMeters>699.0</AltitudeMeters>
            <DistanceMeters>42513.578923813</DistanceMeters>
          </Trackpoint>
          <Trackpoint>
            <Position>
              <LatitudeDegrees>50.207165</LatitudeDegrees>
              <LongitudeDegrees>16.90372</LongitudeDegrees>
            </Position>
            <AltitudeMeters>699.0</AltitudeMeters>
            <DistanceMeters>42516.082296149</DistanceMeters>
          </Trackpoint>
          <Trackpoint>
            <Position>
              <LatitudeDegrees>50.207182</LatitudeDegrees>
              <LongitudeDegrees>16.903692</LongitudeDegrees>
            </Position>
            <AltitudeMeters>699.0</AltitudeMeters>
            <DistanceMeters>42518.829866696</DistanceMeters>
          </Trackpoint>
          <Trackpoint>
            <Position>
              <LatitudeDegrees>50.207193</LatitudeDegrees>
              <LongitudeDegrees>16.903662</LongitudeDegrees>
            </Position>
            <AltitudeMeters>700.0</AltitudeMeters>
            <DistanceMeters>42521.293240677</DistanceMeters>
          </Trackpoint>
          <Trackpoint>
            <Position>
              <LatitudeDegrees>50.207208</LatitudeDegrees>
              <LongitudeDegrees>16.903635</LongitudeDegrees>
            </Position>
            <AltitudeMeters>700.0</AltitudeMeters>
            <DistanceMeters>42523.841303659</DistanceMeters>
          </Trackpoint>
          <Trackpoint>
            <Position>
              <LatitudeDegrees>50.20722</LatitudeDegrees>
              <LongitudeDegrees>16.903607</LongitudeDegrees>
            </Position>
            <AltitudeMeters>700.0</AltitudeMeters>
            <DistanceMeters>42526.241551307</DistanceMeters>
          </Trackpoint>
          <Trackpoint>
            <Position>
              <LatitudeDegrees>50.207233</LatitudeDegrees>
              <LongitudeDegrees>16.903572</LongitudeDegrees>
            </Position>
            <AltitudeMeters>700.0</AltitudeMeters>
            <DistanceMeters>42529.123854263</DistanceMeters>
          </Trackpoint>
          <Trackpoint>
            <Position>
              <LatitudeDegrees>50.207253</LatitudeDegrees>
              <LongitudeDegrees>16.903542</LongitudeDegrees>
            </Position>
            <AltitudeMeters>700.0</AltitudeMeters>
            <DistanceMeters>42532.210394502</DistanceMeters>
          </Trackpoint>
          <Trackpoint>
            <Position>
              <LatitudeDegrees>50.207273</LatitudeDegrees>
              <LongitudeDegrees>16.903515</LongitudeDegrees>
            </Position>
            <AltitudeMeters>701.0</AltitudeMeters>
            <DistanceMeters>42535.151620986</DistanceMeters>
          </Trackpoint>
          <Trackpoint>
            <Position>
              <LatitudeDegrees>50.207285</LatitudeDegrees>
              <LongitudeDegrees>16.903487</LongitudeDegrees>
            </Position>
            <AltitudeMeters>701.0</AltitudeMeters>
            <DistanceMeters>42537.551868634</DistanceMeters>
          </Trackpoint>
          <Trackpoint>
            <Position>
              <LatitudeDegrees>50.207297</LatitudeDegrees>
              <LongitudeDegrees>16.903453</LongitudeDegrees>
            </Position>
            <AltitudeMeters>702.0</AltitudeMeters>
            <DistanceMeters>42540.319088326</DistanceMeters>
          </Trackpoint>
          <Trackpoint>
            <Position>
              <LatitudeDegrees>50.207308</LatitudeDegrees>
              <LongitudeDegrees>16.903425</LongitudeDegrees>
            </Position>
            <AltitudeMeters>702.0</AltitudeMeters>
            <DistanceMeters>42542.660296647</DistanceMeters>
          </Trackpoint>
          <Trackpoint>
            <Position>
              <LatitudeDegrees>50.207323</LatitudeDegrees>
              <LongitudeDegrees>16.903392</LongitudeDegrees>
            </Position>
            <AltitudeMeters>702.0</AltitudeMeters>
            <DistanceMeters>42545.542599603</DistanceMeters>
          </Trackpoint>
          <Trackpoint>
            <Position>
              <LatitudeDegrees>50.207335</LatitudeDegrees>
              <LongitudeDegrees>16.903357</LongitudeDegrees>
            </Position>
            <AltitudeMeters>702.0</AltitudeMeters>
            <DistanceMeters>42548.371141229</DistanceMeters>
          </Trackpoint>
          <Trackpoint>
            <Position>
              <LatitudeDegrees>50.207355</LatitudeDegrees>
              <LongitudeDegrees>16.903323</LongitudeDegrees>
            </Position>
            <AltitudeMeters>702.0</AltitudeMeters>
            <DistanceMeters>42551.660218847</DistanceMeters>
          </Trackpoint>
          <Trackpoint>
            <Position>
              <LatitudeDegrees>50.207378</LatitudeDegrees>
              <LongitudeDegrees>16.903297</LongitudeDegrees>
            </Position>
            <AltitudeMeters>702.0</AltitudeMeters>
            <DistanceMeters>42554.8190532</DistanceMeters>
          </Trackpoint>
          <Trackpoint>
            <Position>
              <LatitudeDegrees>50.207393</LatitudeDegrees>
              <LongitudeDegrees>16.903267</LongitudeDegrees>
            </Position>
            <AltitudeMeters>702.0</AltitudeMeters>
            <DistanceMeters>42557.530230477</DistanceMeters>
          </Trackpoint>
          <Trackpoint>
            <Position>
              <LatitudeDegrees>50.20741</LatitudeDegrees>
              <LongitudeDegrees>16.903237</LongitudeDegrees>
            </Position>
            <AltitudeMeters>703.0</AltitudeMeters>
            <DistanceMeters>42560.384197708</DistanceMeters>
          </Trackpoint>
          <Trackpoint>
            <Position>
              <LatitudeDegrees>50.207428</LatitudeDegrees>
              <LongitudeDegrees>16.903208</LongitudeDegrees>
            </Position>
            <AltitudeMeters>703.0</AltitudeMeters>
            <DistanceMeters>42563.263366021</DistanceMeters>
          </Trackpoint>
          <Trackpoint>
            <Position>
              <LatitudeDegrees>50.207443</LatitudeDegrees>
              <LongitudeDegrees>16.903172</LongitudeDegrees>
            </Position>
            <AltitudeMeters>703.0</AltitudeMeters>
            <DistanceMeters>42566.324937406</DistanceMeters>
          </Trackpoint>
          <Trackpoint>
            <Position>
              <LatitudeDegrees>50.207457</LatitudeDegrees>
              <LongitudeDegrees>16.903133</LongitudeDegrees>
            </Position>
            <AltitudeMeters>704.0</AltitudeMeters>
            <DistanceMeters>42569.510813412</DistanceMeters>
          </Trackpoint>
          <Trackpoint>
            <Position>
              <LatitudeDegrees>50.207468</LatitudeDegrees>
              <LongitudeDegrees>16.903102</LongitudeDegrees>
            </Position>
            <AltitudeMeters>704.0</AltitudeMeters>
            <DistanceMeters>42572.035735979</DistanceMeters>
          </Trackpoint>
          <Trackpoint>
            <Position>
              <LatitudeDegrees>50.20748</LatitudeDegrees>
              <LongitudeDegrees>16.903073</LongitudeDegrees>
            </Position>
            <AltitudeMeters>704.0</AltitudeMeters>
            <DistanceMeters>42574.493605207</DistanceMeters>
          </Trackpoint>
          <Trackpoint>
            <Position>
              <LatitudeDegrees>50.207488</LatitudeDegrees>
              <LongitudeDegrees>16.903033</LongitudeDegrees>
            </Position>
            <AltitudeMeters>705.0</AltitudeMeters>
            <DistanceMeters>42577.477504564</DistanceMeters>
          </Trackpoint>
          <Trackpoint>
            <Position>
              <LatitudeDegrees>50.207497</LatitudeDegrees>
              <LongitudeDegrees>16.902988</LongitudeDegrees>
            </Position>
            <AltitudeMeters>705.0</AltitudeMeters>
            <DistanceMeters>42580.83586212</DistanceMeters>
          </Trackpoint>
          <Trackpoint>
            <Position>
              <LatitudeDegrees>50.207502</LatitudeDegrees>
              <LongitudeDegrees>16.902942</LongitudeDegrees>
            </Position>
            <AltitudeMeters>705.0</AltitudeMeters>
            <DistanceMeters>42584.160439322</DistanceMeters>
          </Trackpoint>
          <Trackpoint>
            <Position>
              <LatitudeDegrees>50.207505</LatitudeDegrees>
              <LongitudeDegrees>16.9029</LongitudeDegrees>
            </Position>
            <AltitudeMeters>706.0</AltitudeMeters>
            <DistanceMeters>42587.169952019</DistanceMeters>
          </Trackpoint>
          <Trackpoint>
            <Position>
              <LatitudeDegrees>50.207505</LatitudeDegrees>
              <LongitudeDegrees>16.902852</LongitudeDegrees>
            </Position>
            <AltitudeMeters>706.0</AltitudeMeters>
            <DistanceMeters>42590.588273086</DistanceMeters>
          </Trackpoint>
          <Trackpoint>
            <Position>
              <LatitudeDegrees>50.207502</LatitudeDegrees>
              <LongitudeDegrees>16.902812</LongitudeDegrees>
            </Position>
            <AltitudeMeters>706.0</AltitudeMeters>
            <DistanceMeters>42593.454868552</DistanceMeters>
          </Trackpoint>
          <Trackpoint>
            <Position>
              <LatitudeDegrees>50.207505</LatitudeDegrees>
              <LongitudeDegrees>16.902777</LongitudeDegrees>
            </Position>
            <AltitudeMeters>707.0</AltitudeMeters>
            <DistanceMeters>42595.969039093</DistanceMeters>
          </Trackpoint>
          <Trackpoint>
            <Position>
              <LatitudeDegrees>50.207512</LatitudeDegrees>
              <LongitudeDegrees>16.902742</LongitudeDegrees>
            </Position>
            <AltitudeMeters>707.0</AltitudeMeters>
            <DistanceMeters>42598.581841763</DistanceMeters>
          </Trackpoint>
          <Trackpoint>
            <Position>
              <LatitudeDegrees>50.20751</LatitudeDegrees>
              <LongitudeDegrees>16.902705</LongitudeDegrees>
            </Position>
            <AltitudeMeters>707.0</AltitudeMeters>
            <DistanceMeters>42601.228979712</DistanceMeters>
          </Trackpoint>
          <Trackpoint>
            <Position>
              <LatitudeDegrees>50.207512</LatitudeDegrees>
              <LongitudeDegrees>16.902667</LongitudeDegrees>
            </Position>
            <AltitudeMeters>707.0</AltitudeMeters>
            <DistanceMeters>42603.946810194</DistanceMeters>
          </Trackpoint>
          <Trackpoint>
            <Position>
              <LatitudeDegrees>50.207515</LatitudeDegrees>
              <LongitudeDegrees>16.902627</LongitudeDegrees>
            </Position>
            <AltitudeMeters>708.0</AltitudeMeters>
            <DistanceMeters>42606.816554036</DistanceMeters>
          </Trackpoint>
          <Trackpoint>
            <Position>
              <LatitudeDegrees>50.20752</LatitudeDegrees>
              <LongitudeDegrees>16.902588</LongitudeDegrees>
            </Position>
            <AltitudeMeters>708.0</AltitudeMeters>
            <DistanceMeters>42609.648286347</DistanceMeters>
          </Trackpoint>
          <Trackpoint>
            <Position>
              <LatitudeDegrees>50.207523</LatitudeDegrees>
              <LongitudeDegrees>16.902552</LongitudeDegrees>
            </Position>
            <AltitudeMeters>708.0</AltitudeMeters>
            <DistanceMeters>42612.233292453</DistanceMeters>
          </Trackpoint>
          <Trackpoint>
            <Position>
              <LatitudeDegrees>50.207523</LatitudeDegrees>
              <LongitudeDegrees>16.902517</LongitudeDegrees>
            </Position>
            <AltitudeMeters>709.0</AltitudeMeters>
            <DistanceMeters>42614.725819804</DistanceMeters>
          </Trackpoint>
          <Trackpoint>
            <Position>
              <LatitudeDegrees>50.207528</LatitudeDegrees>
              <LongitudeDegrees>16.902478</LongitudeDegrees>
            </Position>
            <AltitudeMeters>709.0</AltitudeMeters>
            <DistanceMeters>42617.557552115</DistanceMeters>
          </Trackpoint>
          <Trackpoint>
            <Position>
              <LatitudeDegrees>50.207533</LatitudeDegrees>
              <LongitudeDegrees>16.902442</LongitudeDegrees>
            </Position>
            <AltitudeMeters>710.0</AltitudeMeters>
            <DistanceMeters>42620.180702559</DistanceMeters>
          </Trackpoint>
          <Trackpoint>
            <Position>
              <LatitudeDegrees>50.207542</LatitudeDegrees>
              <LongitudeDegrees>16.902407</LongitudeDegrees>
            </Position>
            <AltitudeMeters>710.0</AltitudeMeters>
            <DistanceMeters>42622.868463924</DistanceMeters>
          </Trackpoint>
          <Trackpoint>
            <Position>
              <LatitudeDegrees>50.207548</LatitudeDegrees>
              <LongitudeDegrees>16.902373</LongitudeDegrees>
            </Position>
            <AltitudeMeters>710.0</AltitudeMeters>
            <DistanceMeters>42625.379040224</DistanceMeters>
          </Trackpoint>
          <Trackpoint>
            <Position>
              <LatitudeDegrees>50.207558</LatitudeDegrees>
              <LongitudeDegrees>16.902338</LongitudeDegrees>
            </Position>
            <AltitudeMeters>710.0</AltitudeMeters>
            <DistanceMeters>42628.110128494</DistanceMeters>
          </Trackpoint>
          <Trackpoint>
            <Position>
              <LatitudeDegrees>50.207565</LatitudeDegrees>
              <LongitudeDegrees>16.902307</LongitudeDegrees>
            </Position>
            <AltitudeMeters>710.0</AltitudeMeters>
            <DistanceMeters>42630.453264529</DistanceMeters>
          </Trackpoint>
          <Trackpoint>
            <Position>
              <LatitudeDegrees>50.207573</LatitudeDegrees>
              <LongitudeDegrees>16.902267</LongitudeDegrees>
            </Position>
            <AltitudeMeters>710.0</AltitudeMeters>
            <DistanceMeters>42633.437163886</DistanceMeters>
          </Trackpoint>
          <Trackpoint>
            <Position>
              <LatitudeDegrees>50.207578</LatitudeDegrees>
              <LongitudeDegrees>16.902227</LongitudeDegrees>
            </Position>
            <AltitudeMeters>710.0</AltitudeMeters>
            <DistanceMeters>42636.33820357</DistanceMeters>
          </Trackpoint>
          <Trackpoint>
            <Position>
              <LatitudeDegrees>50.207583</LatitudeDegrees>
              <LongitudeDegrees>16.902187</LongitudeDegrees>
            </Position>
            <AltitudeMeters>711.0</AltitudeMeters>
            <DistanceMeters>42639.240799188</DistanceMeters>
          </Trackpoint>
          <Trackpoint>
            <Position>
              <LatitudeDegrees>50.20759</LatitudeDegrees>
              <LongitudeDegrees>16.902142</LongitudeDegrees>
            </Position>
            <AltitudeMeters>711.0</AltitudeMeters>
            <DistanceMeters>42642.540840429</DistanceMeters>
          </Trackpoint>
          <Trackpoint>
            <Position>
              <LatitudeDegrees>50.2076</LatitudeDegrees>
              <LongitudeDegrees>16.902105</LongitudeDegrees>
            </Position>
            <AltitudeMeters>711.0</AltitudeMeters>
            <DistanceMeters>42645.401128746</DistanceMeters>
          </Trackpoint>
          <Trackpoint>
            <Position>
              <LatitudeDegrees>50.207608</LatitudeDegrees>
              <LongitudeDegrees>16.902075</LongitudeDegrees>
            </Position>
            <AltitudeMeters>711.0</AltitudeMeters>
            <DistanceMeters>42647.717130777</DistanceMeters>
          </Trackpoint>
          <Trackpoint>
            <Position>
              <LatitudeDegrees>50.207617</LatitudeDegrees>
              <LongitudeDegrees>16.902042</LongitudeDegrees>
            </Position>
            <AltitudeMeters>711.0</AltitudeMeters>
            <DistanceMeters>42650.270504074</DistanceMeters>
          </Trackpoint>
          <Trackpoint>
            <Position>
              <LatitudeDegrees>50.207623</LatitudeDegrees>
              <LongitudeDegrees>16.90201</LongitudeDegrees>
            </Position>
            <AltitudeMeters>711.0</AltitudeMeters>
            <DistanceMeters>42652.646171933</DistanceMeters>
          </Trackpoint>
          <Trackpoint>
            <Position>
              <LatitudeDegrees>50.20763</LatitudeDegrees>
              <LongitudeDegrees>16.901977</LongitudeDegrees>
            </Position>
            <AltitudeMeters>711.0</AltitudeMeters>
            <DistanceMeters>42655.124165473</DistanceMeters>
          </Trackpoint>
          <Trackpoint>
            <Position>
              <LatitudeDegrees>50.20764</LatitudeDegrees>
              <LongitudeDegrees>16.901942</LongitudeDegrees>
            </Position>
            <AltitudeMeters>711.0</AltitudeMeters>
            <DistanceMeters>42657.853600042</DistanceMeters>
          </Trackpoint>
          <Trackpoint>
            <Position>
              <LatitudeDegrees>50.207653</LatitudeDegrees>
              <LongitudeDegrees>16.901907</LongitudeDegrees>
            </Position>
            <AltitudeMeters>711.0</AltitudeMeters>
            <DistanceMeters>42660.735902997</DistanceMeters>
          </Trackpoint>
          <Trackpoint>
            <Position>
              <LatitudeDegrees>50.207662</LatitudeDegrees>
              <LongitudeDegrees>16.90187</LongitudeDegrees>
            </Position>
            <AltitudeMeters>711.0</AltitudeMeters>
            <DistanceMeters>42663.554850899</DistanceMeters>
          </Trackpoint>
          <Trackpoint>
            <Position>
              <LatitudeDegrees>50.20767</LatitudeDegrees>
              <LongitudeDegrees>16.901835</LongitudeDegrees>
            </Position>
            <AltitudeMeters>711.0</AltitudeMeters>
            <DistanceMeters>42666.201988848</DistanceMeters>
          </Trackpoint>
          <Trackpoint>
            <Position>
              <LatitudeDegrees>50.207678</LatitudeDegrees>
              <LongitudeDegrees>16.901798</LongitudeDegrees>
            </Position>
            <AltitudeMeters>712.0</AltitudeMeters>
            <DistanceMeters>42668.983854321</DistanceMeters>
          </Trackpoint>
          <Trackpoint>
            <Position>
              <LatitudeDegrees>50.207685</LatitudeDegrees>
              <LongitudeDegrees>16.90176</LongitudeDegrees>
            </Position>
            <AltitudeMeters>712.0</AltitudeMeters>
            <DistanceMeters>42671.801200092</DistanceMeters>
          </Trackpoint>
          <Trackpoint>
            <Position>
              <LatitudeDegrees>50.207695</LatitudeDegrees>
              <LongitudeDegrees>16.901722</LongitudeDegrees>
            </Position>
            <AltitudeMeters>712.0</AltitudeMeters>
            <DistanceMeters>42674.727035438</DistanceMeters>
          </Trackpoint>
          <Trackpoint>
            <Position>
              <LatitudeDegrees>50.207707</LatitudeDegrees>
              <LongitudeDegrees>16.901685</LongitudeDegrees>
            </Position>
            <AltitudeMeters>712.0</AltitudeMeters>
            <DistanceMeters>42677.682045408</DistanceMeters>
          </Trackpoint>
          <Trackpoint>
            <Position>
              <LatitudeDegrees>50.207715</LatitudeDegrees>
              <LongitudeDegrees>16.901652</LongitudeDegrees>
            </Position>
            <AltitudeMeters>712.0</AltitudeMeters>
            <DistanceMeters>42680.196215949</DistanceMeters>
          </Trackpoint>
          <Trackpoint>
            <Position>
              <LatitudeDegrees>50.207727</LatitudeDegrees>
              <LongitudeDegrees>16.901622</LongitudeDegrees>
            </Position>
            <AltitudeMeters>713.0</AltitudeMeters>
            <DistanceMeters>42682.717559602</DistanceMeters>
          </Trackpoint>
          <Trackpoint>
            <Position>
              <LatitudeDegrees>50.207738</LatitudeDegrees>
              <LongitudeDegrees>16.901587</LongitudeDegrees>
            </Position>
            <AltitudeMeters>713.0</AltitudeMeters>
            <DistanceMeters>42685.496177129</DistanceMeters>
          </Trackpoint>
          <Trackpoint>
            <Position>
              <LatitudeDegrees>50.20775</LatitudeDegrees>
              <LongitudeDegrees>16.901557</LongitudeDegrees>
            </Position>
            <AltitudeMeters>713.0</AltitudeMeters>
            <DistanceMeters>42688.017520782</DistanceMeters>
          </Trackpoint>
          <Trackpoint>
            <Position>
              <LatitudeDegrees>50.207755</LatitudeDegrees>
              <LongitudeDegrees>16.901515</LongitudeDegrees>
            </Position>
            <AltitudeMeters>713.0</AltitudeMeters>
            <DistanceMeters>42691.061343778</DistanceMeters>
          </Trackpoint>
          <Trackpoint>
            <Position>
              <LatitudeDegrees>50.207755</LatitudeDegrees>
              <LongitudeDegrees>16.901475</LongitudeDegrees>
            </Position>
            <AltitudeMeters>713.0</AltitudeMeters>
            <DistanceMeters>42693.91056099</DistanceMeters>
          </Trackpoint>
          <Trackpoint>
            <Position>
              <LatitudeDegrees>50.20776</LatitudeDegrees>
              <LongitudeDegrees>16.901435</LongitudeDegrees>
            </Position>
            <AltitudeMeters>714.0</AltitudeMeters>
            <DistanceMeters>42696.814711709</DistanceMeters>
          </Trackpoint>
          <Trackpoint>
            <Position>
              <LatitudeDegrees>50.207763</LatitudeDegrees>
              <LongitudeDegrees>16.901397</LongitudeDegrees>
            </Position>
            <AltitudeMeters>714.0</AltitudeMeters>
            <DistanceMeters>42699.542491574</DistanceMeters>
          </Trackpoint>
          <Trackpoint>
            <Position>
              <LatitudeDegrees>50.207765</LatitudeDegrees>
              <LongitudeDegrees>16.901362</LongitudeDegrees>
            </Position>
            <AltitudeMeters>714.0</AltitudeMeters>
            <DistanceMeters>42702.045863909</DistanceMeters>
          </Trackpoint>
          <Trackpoint>
            <Position>
              <LatitudeDegrees>50.207767</LatitudeDegrees>
              <LongitudeDegrees>16.901322</LongitudeDegrees>
            </Position>
            <AltitudeMeters>714.0</AltitudeMeters>
            <DistanceMeters>42704.902993431</DistanceMeters>
          </Trackpoint>
          <Trackpoint>
            <Position>
              <LatitudeDegrees>50.20777</LatitudeDegrees>
              <LongitudeDegrees>16.90128</LongitudeDegrees>
            </Position>
            <AltitudeMeters>715.0</AltitudeMeters>
            <DistanceMeters>42707.91400601</DistanceMeters>
          </Trackpoint>
          <Trackpoint>
            <Position>
              <LatitudeDegrees>50.207778</LatitudeDegrees>
              <LongitudeDegrees>16.901242</LongitudeDegrees>
            </Position>
            <AltitudeMeters>715.0</AltitudeMeters>
            <DistanceMeters>42710.763223223</DistanceMeters>
          </Trackpoint>
          <Trackpoint>
            <Position>
              <LatitudeDegrees>50.207783</LatitudeDegrees>
              <LongitudeDegrees>16.901202</LongitudeDegrees>
            </Position>
            <AltitudeMeters>715.0</AltitudeMeters>
            <DistanceMeters>42713.665818841</DistanceMeters>
          </Trackpoint>
          <Trackpoint>
            <Position>
              <LatitudeDegrees>50.207787</LatitudeDegrees>
              <LongitudeDegrees>16.901163</LongitudeDegrees>
            </Position>
            <AltitudeMeters>715.0</AltitudeMeters>
            <DistanceMeters>42716.478352745</DistanceMeters>
          </Trackpoint>
          <Trackpoint>
            <Position>
              <LatitudeDegrees>50.207792</LatitudeDegrees>
              <LongitudeDegrees>16.901128</LongitudeDegrees>
            </Position>
            <AltitudeMeters>716.0</AltitudeMeters>
            <DistanceMeters>42719.035260124</DistanceMeters>
          </Trackpoint>
          <Trackpoint>
            <Position>
              <LatitudeDegrees>50.207795</LatitudeDegrees>
              <LongitudeDegrees>16.901087</LongitudeDegrees>
            </Position>
            <AltitudeMeters>716.0</AltitudeMeters>
            <DistanceMeters>42721.976486609</DistanceMeters>
          </Trackpoint>
          <Trackpoint>
            <Position>
              <LatitudeDegrees>50.207798</LatitudeDegrees>
              <LongitudeDegrees>16.901047</LongitudeDegrees>
            </Position>
            <AltitudeMeters>717.0</AltitudeMeters>
            <DistanceMeters>42724.846230451</DistanceMeters>
          </Trackpoint>
          <Trackpoint>
            <Position>
              <LatitudeDegrees>50.207803</LatitudeDegrees>
              <LongitudeDegrees>16.901008</LongitudeDegrees>
            </Position>
            <AltitudeMeters>717.0</AltitudeMeters>
            <DistanceMeters>42727.681149856</DistanceMeters>
          </Trackpoint>
          <Trackpoint>
            <Position>
              <LatitudeDegrees>50.20781</LatitudeDegrees>
              <LongitudeDegrees>16.900972</LongitudeDegrees>
            </Position>
            <AltitudeMeters>717.0</AltitudeMeters>
            <DistanceMeters>42730.362183397</DistanceMeters>
          </Trackpoint>
          <Trackpoint>
            <Position>
              <LatitudeDegrees>50.207818</LatitudeDegrees>
              <LongitudeDegrees>16.900942</LongitudeDegrees>
            </Position>
            <AltitudeMeters>717.0</AltitudeMeters>
            <DistanceMeters>42732.678185428</DistanceMeters>
          </Trackpoint>
          <Trackpoint>
            <Position>
              <LatitudeDegrees>50.207823</LatitudeDegrees>
              <LongitudeDegrees>16.900908</LongitudeDegrees>
            </Position>
            <AltitudeMeters>717.0</AltitudeMeters>
            <DistanceMeters>42735.163456498</DistanceMeters>
          </Trackpoint>
          <Trackpoint>
            <Position>
              <LatitudeDegrees>50.207828</LatitudeDegrees>
              <LongitudeDegrees>16.900875</LongitudeDegrees>
            </Position>
            <AltitudeMeters>717.0</AltitudeMeters>
            <DistanceMeters>42737.582441726</DistanceMeters>
          </Trackpoint>
          <Trackpoint>
            <Position>
              <LatitudeDegrees>50.207832</LatitudeDegrees>
              <LongitudeDegrees>16.90084</LongitudeDegrees>
            </Position>
            <AltitudeMeters>718.0</AltitudeMeters>
            <DistanceMeters>42740.116289463</DistanceMeters>
          </Trackpoint>
          <Trackpoint>
            <Position>
              <LatitudeDegrees>50.207837</LatitudeDegrees>
              <LongitudeDegrees>16.900807</LongitudeDegrees>
            </Position>
            <AltitudeMeters>718.0</AltitudeMeters>
            <DistanceMeters>42742.531538804</DistanceMeters>
          </Trackpoint>
          <Trackpoint>
            <Position>
              <LatitudeDegrees>50.207842</LatitudeDegrees>
              <LongitudeDegrees>16.900775</LongitudeDegrees>
            </Position>
            <AltitudeMeters>718.0</AltitudeMeters>
            <DistanceMeters>42744.878525517</DistanceMeters>
          </Trackpoint>
          <Trackpoint>
            <Position>
              <LatitudeDegrees>50.207848</LatitudeDegrees>
              <LongitudeDegrees>16.900737</LongitudeDegrees>
            </Position>
            <AltitudeMeters>718.0</AltitudeMeters>
            <DistanceMeters>42747.665255813</DistanceMeters>
          </Trackpoint>
          <Trackpoint>
            <Position>
              <LatitudeDegrees>50.207855</LatitudeDegrees>
              <LongitudeDegrees>16.900703</LongitudeDegrees>
            </Position>
            <AltitudeMeters>718.0</AltitudeMeters>
            <DistanceMeters>42750.207997391</DistanceMeters>
          </Trackpoint>
          <Trackpoint>
            <Position>
              <LatitudeDegrees>50.20786</LatitudeDegrees>
              <LongitudeDegrees>16.900668</LongitudeDegrees>
            </Position>
            <AltitudeMeters>718.0</AltitudeMeters>
            <DistanceMeters>42752.761370688</DistanceMeters>
          </Trackpoint>
          <Trackpoint>
            <Position>
              <LatitudeDegrees>50.207867</LatitudeDegrees>
              <LongitudeDegrees>16.900633</LongitudeDegrees>
            </Position>
            <AltitudeMeters>719.0</AltitudeMeters>
            <DistanceMeters>42755.372444742</DistanceMeters>
          </Trackpoint>
          <Trackpoint>
            <Position>
              <LatitudeDegrees>50.207873</LatitudeDegrees>
              <LongitudeDegrees>16.900602</LongitudeDegrees>
            </Position>
            <AltitudeMeters>719.0</AltitudeMeters>
            <DistanceMeters>42757.680635614</DistanceMeters>
          </Trackpoint>
          <Trackpoint>
            <Position>
              <LatitudeDegrees>50.20788</LatitudeDegrees>
              <LongitudeDegrees>16.900568</LongitudeDegrees>
            </Position>
            <AltitudeMeters>719.0</AltitudeMeters>
            <DistanceMeters>42760.226926031</DistanceMeters>
          </Trackpoint>
          <Trackpoint>
            <Position>
              <LatitudeDegrees>50.207887</LatitudeDegrees>
              <LongitudeDegrees>16.900535</LongitudeDegrees>
            </Position>
            <AltitudeMeters>719.0</AltitudeMeters>
            <DistanceMeters>42762.704919571</DistanceMeters>
          </Trackpoint>
          <Trackpoint>
            <Position>
              <LatitudeDegrees>50.207892</LatitudeDegrees>
              <LongitudeDegrees>16.900502</LongitudeDegrees>
            </Position>
            <AltitudeMeters>719.0</AltitudeMeters>
            <DistanceMeters>42765.120168912</DistanceMeters>
          </Trackpoint>
          <Trackpoint>
            <Position>
              <LatitudeDegrees>50.207902</LatitudeDegrees>
              <LongitudeDegrees>16.900467</LongitudeDegrees>
            </Position>
            <AltitudeMeters>720.0</AltitudeMeters>
            <DistanceMeters>42767.851257183</DistanceMeters>
          </Trackpoint>
          <Trackpoint>
            <Position>
              <LatitudeDegrees>50.207915</LatitudeDegrees>
              <LongitudeDegrees>16.900432</LongitudeDegrees>
            </Position>
            <AltitudeMeters>720.0</AltitudeMeters>
            <DistanceMeters>42770.733560139</DistanceMeters>
          </Trackpoint>
          <Trackpoint>
            <Position>
              <LatitudeDegrees>50.20793</LatitudeDegrees>
              <LongitudeDegrees>16.900402</LongitudeDegrees>
            </Position>
            <AltitudeMeters>720.0</AltitudeMeters>
            <DistanceMeters>42773.446402247</DistanceMeters>
          </Trackpoint>
          <Trackpoint>
            <Position>
              <LatitudeDegrees>50.207943</LatitudeDegrees>
              <LongitudeDegrees>16.900378</LongitudeDegrees>
            </Position>
            <AltitudeMeters>720.0</AltitudeMeters>
            <DistanceMeters>42775.687099125</DistanceMeters>
          </Trackpoint>
          <Trackpoint>
            <Position>
              <LatitudeDegrees>50.207958</LatitudeDegrees>
              <LongitudeDegrees>16.900357</LongitudeDegrees>
            </Position>
            <AltitudeMeters>720.0</AltitudeMeters>
            <DistanceMeters>42777.931822417</DistanceMeters>
          </Trackpoint>
          <Trackpoint>
            <Position>
              <LatitudeDegrees>50.207968</LatitudeDegrees>
              <LongitudeDegrees>16.900328</LongitudeDegrees>
            </Position>
            <AltitudeMeters>721.0</AltitudeMeters>
            <DistanceMeters>42780.27880913</DistanceMeters>
          </Trackpoint>
          <Trackpoint>
            <Position>
              <LatitudeDegrees>50.20798</LatitudeDegrees>
              <LongitudeDegrees>16.900297</LongitudeDegrees>
            </Position>
            <AltitudeMeters>721.0</AltitudeMeters>
            <DistanceMeters>42782.856819266</DistanceMeters>
          </Trackpoint>
          <Trackpoint>
            <Position>
              <LatitudeDegrees>50.207993</LatitudeDegrees>
              <LongitudeDegrees>16.900267</LongitudeDegrees>
            </Position>
            <AltitudeMeters>721.0</AltitudeMeters>
            <DistanceMeters>42785.438329757</DistanceMeters>
          </Trackpoint>
          <Trackpoint>
            <Position>
              <LatitudeDegrees>50.208008</LatitudeDegrees>
              <LongitudeDegrees>16.900238</LongitudeDegrees>
            </Position>
            <AltitudeMeters>721.0</AltitudeMeters>
            <DistanceMeters>42788.093982164</DistanceMeters>
          </Trackpoint>
          <Trackpoint>
            <Position>
              <LatitudeDegrees>50.208025</LatitudeDegrees>
              <LongitudeDegrees>16.900213</LongitudeDegrees>
            </Position>
            <AltitudeMeters>721.0</AltitudeMeters>
            <DistanceMeters>42790.692923713</DistanceMeters>
          </Trackpoint>
          <Trackpoint>
            <Position>
              <LatitudeDegrees>50.20804</LatitudeDegrees>
              <LongitudeDegrees>16.900182</LongitudeDegrees>
            </Position>
            <AltitudeMeters>721.0</AltitudeMeters>
            <DistanceMeters>42793.46177454</DistanceMeters>
          </Trackpoint>
          <Trackpoint>
            <Position>
              <LatitudeDegrees>50.208055</LatitudeDegrees>
              <LongitudeDegrees>16.90015</LongitudeDegrees>
            </Position>
            <AltitudeMeters>721.0</AltitudeMeters>
            <DistanceMeters>42796.287121878</DistanceMeters>
          </Trackpoint>
          <Trackpoint>
            <Position>
              <LatitudeDegrees>50.20807</LatitudeDegrees>
              <LongitudeDegrees>16.900127</LongitudeDegrees>
            </Position>
            <AltitudeMeters>721.0</AltitudeMeters>
            <DistanceMeters>42798.626400896</DistanceMeters>
          </Trackpoint>
          <Trackpoint>
            <Position>
              <LatitudeDegrees>50.208083</LatitudeDegrees>
              <LongitudeDegrees>16.900103</LongitudeDegrees>
            </Position>
            <AltitudeMeters>721.0</AltitudeMeters>
            <DistanceMeters>42800.867097775</DistanceMeters>
          </Trackpoint>
          <Trackpoint>
            <Position>
              <LatitudeDegrees>50.208107</LatitudeDegrees>
              <LongitudeDegrees>16.900062</LongitudeDegrees>
            </Position>
            <AltitudeMeters>721.0</AltitudeMeters>
            <DistanceMeters>42804.824136131</DistanceMeters>
          </Trackpoint>
          <Trackpoint>
            <Position>
              <LatitudeDegrees>50.20812</LatitudeDegrees>
              <LongitudeDegrees>16.900038</LongitudeDegrees>
            </Position>
            <AltitudeMeters>722.0</AltitudeMeters>
            <DistanceMeters>42807.06483301</DistanceMeters>
          </Trackpoint>
          <Trackpoint>
            <Position>
              <LatitudeDegrees>50.20813</LatitudeDegrees>
              <LongitudeDegrees>16.900008</LongitudeDegrees>
            </Position>
            <AltitudeMeters>721.0</AltitudeMeters>
            <DistanceMeters>42809.474467661</DistanceMeters>
          </Trackpoint>
          <Trackpoint>
            <Position>
              <LatitudeDegrees>50.208138</LatitudeDegrees>
              <LongitudeDegrees>16.899978</LongitudeDegrees>
            </Position>
            <AltitudeMeters>721.0</AltitudeMeters>
            <DistanceMeters>42811.790469692</DistanceMeters>
          </Trackpoint>
          <Trackpoint>
            <Position>
              <LatitudeDegrees>50.208148</LatitudeDegrees>
              <LongitudeDegrees>16.899935</LongitudeDegrees>
            </Position>
            <AltitudeMeters>722.0</AltitudeMeters>
            <DistanceMeters>42815.05197702</DistanceMeters>
          </Trackpoint>
          <Trackpoint>
            <Position>
              <LatitudeDegrees>50.208162</LatitudeDegrees>
              <LongitudeDegrees>16.899897</LongitudeDegrees>
            </Position>
            <AltitudeMeters>722.0</AltitudeMeters>
            <DistanceMeters>42818.176318973</DistanceMeters>
          </Trackpoint>
          <Trackpoint>
            <Position>
              <LatitudeDegrees>50.208175</LatitudeDegrees>
              <LongitudeDegrees>16.899858</LongitudeDegrees>
            </Position>
            <AltitudeMeters>722.0</AltitudeMeters>
            <DistanceMeters>42821.307878172</DistanceMeters>
          </Trackpoint>
          <Trackpoint>
            <Position>
              <LatitudeDegrees>50.208188</LatitudeDegrees>
              <LongitudeDegrees>16.89982</LongitudeDegrees>
            </Position>
            <AltitudeMeters>722.0</AltitudeMeters>
            <DistanceMeters>42824.376814426</DistanceMeters>
          </Trackpoint>
          <Trackpoint>
            <Position>
              <LatitudeDegrees>50.2082</LatitudeDegrees>
              <LongitudeDegrees>16.899787</LongitudeDegrees>
            </Position>
            <AltitudeMeters>722.0</AltitudeMeters>
            <DistanceMeters>42827.079652165</DistanceMeters>
          </Trackpoint>
          <Trackpoint>
            <Position>
              <LatitudeDegrees>50.20821</LatitudeDegrees>
              <LongitudeDegrees>16.899753</LongitudeDegrees>
            </Position>
            <AltitudeMeters>723.0</AltitudeMeters>
            <DistanceMeters>42829.743791817</DistanceMeters>
          </Trackpoint>
          <Trackpoint>
            <Position>
              <LatitudeDegrees>50.208223</LatitudeDegrees>
              <LongitudeDegrees>16.89972</LongitudeDegrees>
            </Position>
            <AltitudeMeters>723.0</AltitudeMeters>
            <DistanceMeters>42832.504477333</DistanceMeters>
          </Trackpoint>
          <Trackpoint>
            <Position>
              <LatitudeDegrees>50.208235</LatitudeDegrees>
              <LongitudeDegrees>16.899692</LongitudeDegrees>
            </Position>
            <AltitudeMeters>723.0</AltitudeMeters>
            <DistanceMeters>42834.904724981</DistanceMeters>
          </Trackpoint>
          <Trackpoint>
            <Position>
              <LatitudeDegrees>50.208247</LatitudeDegrees>
              <LongitudeDegrees>16.899665</LongitudeDegrees>
            </Position>
            <AltitudeMeters>723.0</AltitudeMeters>
            <DistanceMeters>42837.245933302</DistanceMeters>
          </Trackpoint>
          <Trackpoint>
            <Position>
              <LatitudeDegrees>50.208258</LatitudeDegrees>
              <LongitudeDegrees>16.899638</LongitudeDegrees>
            </Position>
            <AltitudeMeters>724.0</AltitudeMeters>
            <DistanceMeters>42839.524593863</DistanceMeters>
          </Trackpoint>
          <Trackpoint>
            <Position>
              <LatitudeDegrees>50.208267</LatitudeDegrees>
              <LongitudeDegrees>16.899605</LongitudeDegrees>
            </Position>
            <AltitudeMeters>724.0</AltitudeMeters>
            <DistanceMeters>42842.079734812</DistanceMeters>
          </Trackpoint>
          <Trackpoint>
            <Position>
              <LatitudeDegrees>50.208273</LatitudeDegrees>
              <LongitudeDegrees>16.899572</LongitudeDegrees>
            </Position>
            <AltitudeMeters>724.0</AltitudeMeters>
            <DistanceMeters>42844.522864062</DistanceMeters>
          </Trackpoint>
          <Trackpoint>
            <Position>
              <LatitudeDegrees>50.208283</LatitudeDegrees>
              <LongitudeDegrees>16.899543</LongitudeDegrees>
            </Position>
            <AltitudeMeters>725.0</AltitudeMeters>
            <DistanceMeters>42846.869850775</DistanceMeters>
          </Trackpoint>
          <Trackpoint>
            <Position>
              <LatitudeDegrees>50.208293</LatitudeDegrees>
              <LongitudeDegrees>16.89951</LongitudeDegrees>
            </Position>
            <AltitudeMeters>725.0</AltitudeMeters>
            <DistanceMeters>42849.472264526</DistanceMeters>
          </Trackpoint>
          <Trackpoint>
            <Position>
              <LatitudeDegrees>50.2083</LatitudeDegrees>
              <LongitudeDegrees>16.89948</LongitudeDegrees>
            </Position>
            <AltitudeMeters>726.0</AltitudeMeters>
            <DistanceMeters>42851.748942781</DistanceMeters>
          </Trackpoint>
          <Trackpoint>
            <Position>
              <LatitudeDegrees>50.208308</LatitudeDegrees>
              <LongitudeDegrees>16.89945</LongitudeDegrees>
            </Position>
            <AltitudeMeters>726.0</AltitudeMeters>
            <DistanceMeters>42854.064944812</DistanceMeters>
          </Trackpoint>
          <Trackpoint>
            <Position>
              <LatitudeDegrees>50.208318</LatitudeDegrees>
              <LongitudeDegrees>16.89942</LongitudeDegrees>
            </Position>
            <AltitudeMeters>727.0</AltitudeMeters>
            <DistanceMeters>42856.47645248</DistanceMeters>
          </Trackpoint>
          <Trackpoint>
            <Position>
              <LatitudeDegrees>50.208328</LatitudeDegrees>
              <LongitudeDegrees>16.89939</LongitudeDegrees>
            </Position>
            <AltitudeMeters>727.0</AltitudeMeters>
            <DistanceMeters>42858.887960147</DistanceMeters>
          </Trackpoint>
          <Trackpoint>
            <Position>
              <LatitudeDegrees>50.208337</LatitudeDegrees>
              <LongitudeDegrees>16.899363</LongitudeDegrees>
            </Position>
            <AltitudeMeters>727.0</AltitudeMeters>
            <DistanceMeters>42861.054902636</DistanceMeters>
          </Trackpoint>
          <Trackpoint>
            <Position>
              <LatitudeDegrees>50.20835</LatitudeDegrees>
              <LongitudeDegrees>16.89934</LongitudeDegrees>
            </Position>
            <AltitudeMeters>728.0</AltitudeMeters>
            <DistanceMeters>42863.240517067</DistanceMeters>
          </Trackpoint>
          <Trackpoint>
            <Position>
              <LatitudeDegrees>50.20836</LatitudeDegrees>
              <LongitudeDegrees>16.899313</LongitudeDegrees>
            </Position>
            <AltitudeMeters>728.0</AltitudeMeters>
            <DistanceMeters>42865.460972367</DistanceMeters>
          </Trackpoint>
          <Trackpoint>
            <Position>
              <LatitudeDegrees>50.208368</LatitudeDegrees>
              <LongitudeDegrees>16.899287</LongitudeDegrees>
            </Position>
            <AltitudeMeters>729.0</AltitudeMeters>
            <DistanceMeters>42867.516714514</DistanceMeters>
          </Trackpoint>
          <Trackpoint>
            <Position>
              <LatitudeDegrees>50.20838</LatitudeDegrees>
              <LongitudeDegrees>16.89926</LongitudeDegrees>
            </Position>
            <AltitudeMeters>729.0</AltitudeMeters>
            <DistanceMeters>42869.859850549</DistanceMeters>
          </Trackpoint>
          <Trackpoint>
            <Position>
              <LatitudeDegrees>50.20839</LatitudeDegrees>
              <LongitudeDegrees>16.89923</LongitudeDegrees>
            </Position>
            <AltitudeMeters>729.0</AltitudeMeters>
            <DistanceMeters>42872.271358216</DistanceMeters>
          </Trackpoint>
          <Trackpoint>
            <Position>
              <LatitudeDegrees>50.2084</LatitudeDegrees>
              <LongitudeDegrees>16.899202</LongitudeDegrees>
            </Position>
            <AltitudeMeters>729.0</AltitudeMeters>
            <DistanceMeters>42874.555955376</DistanceMeters>
          </Trackpoint>
          <Trackpoint>
            <Position>
              <LatitudeDegrees>50.20841</LatitudeDegrees>
              <LongitudeDegrees>16.899172</LongitudeDegrees>
            </Position>
            <AltitudeMeters>730.0</AltitudeMeters>
            <DistanceMeters>42876.965590028</DistanceMeters>
          </Trackpoint>
          <Trackpoint>
            <Position>
              <LatitudeDegrees>50.208423</LatitudeDegrees>
              <LongitudeDegrees>16.899142</LongitudeDegrees>
            </Position>
            <AltitudeMeters>731.0</AltitudeMeters>
            <DistanceMeters>42879.547100519</DistanceMeters>
          </Trackpoint>
          <Trackpoint>
            <Position>
              <LatitudeDegrees>50.208435</LatitudeDegrees>
              <LongitudeDegrees>16.899112</LongitudeDegrees>
            </Position>
            <AltitudeMeters>731.0</AltitudeMeters>
            <DistanceMeters>42882.066652808</DistanceMeters>
          </Trackpoint>
          <Trackpoint>
            <Position>
              <LatitudeDegrees>50.20845</LatitudeDegrees>
              <LongitudeDegrees>16.899083</LongitudeDegrees>
            </Position>
            <AltitudeMeters>731.0</AltitudeMeters>
            <DistanceMeters>42884.722305215</DistanceMeters>
          </Trackpoint>
          <Trackpoint>
            <Position>
              <LatitudeDegrees>50.208463</LatitudeDegrees>
              <LongitudeDegrees>16.899055</LongitudeDegrees>
            </Position>
            <AltitudeMeters>731.0</AltitudeMeters>
            <DistanceMeters>42887.185679196</DistanceMeters>
          </Trackpoint>
          <Trackpoint>
            <Position>
              <LatitudeDegrees>50.208478</LatitudeDegrees>
              <LongitudeDegrees>16.899027</LongitudeDegrees>
            </Position>
            <AltitudeMeters>731.0</AltitudeMeters>
            <DistanceMeters>42889.786357426</DistanceMeters>
          </Trackpoint>
          <Trackpoint>
            <Position>
              <LatitudeDegrees>50.20849</LatitudeDegrees>
              <LongitudeDegrees>16.898997</LongitudeDegrees>
            </Position>
            <AltitudeMeters>732.0</AltitudeMeters>
            <DistanceMeters>42892.307701079</DistanceMeters>
          </Trackpoint>
          <Trackpoint>
            <Position>
              <LatitudeDegrees>50.208503</LatitudeDegrees>
              <LongitudeDegrees>16.89897</LongitudeDegrees>
            </Position>
            <AltitudeMeters>732.0</AltitudeMeters>
            <DistanceMeters>42894.713585324</DistanceMeters>
          </Trackpoint>
          <Trackpoint>
            <Position>
              <LatitudeDegrees>50.208517</LatitudeDegrees>
              <LongitudeDegrees>16.898945</LongitudeDegrees>
            </Position>
            <AltitudeMeters>732.0</AltitudeMeters>
            <DistanceMeters>42897.07973143</DistanceMeters>
          </Trackpoint>
          <Trackpoint>
            <Position>
              <LatitudeDegrees>50.20853</LatitudeDegrees>
              <LongitudeDegrees>16.898918</LongitudeDegrees>
            </Position>
            <AltitudeMeters>732.0</AltitudeMeters>
            <DistanceMeters>42899.483738278</DistanceMeters>
          </Trackpoint>
          <Trackpoint>
            <Position>
              <LatitudeDegrees>50.208543</LatitudeDegrees>
              <LongitudeDegrees>16.898893</LongitudeDegrees>
            </Position>
            <AltitudeMeters>733.0</AltitudeMeters>
            <DistanceMeters>42901.776226989</DistanceMeters>
          </Trackpoint>
          <Trackpoint>
            <Position>
              <LatitudeDegrees>50.208555</LatitudeDegrees>
              <LongitudeDegrees>16.898868</LongitudeDegrees>
            </Position>
            <AltitudeMeters>733.0</AltitudeMeters>
            <DistanceMeters>42904.000745339</DistanceMeters>
          </Trackpoint>
          <Trackpoint>
            <Position>
              <LatitudeDegrees>50.20857</LatitudeDegrees>
              <LongitudeDegrees>16.898843</LongitudeDegrees>
            </Position>
            <AltitudeMeters>733.0</AltitudeMeters>
            <DistanceMeters>42906.442025834</DistanceMeters>
          </Trackpoint>
          <Trackpoint>
            <Position>
              <LatitudeDegrees>50.208587</LatitudeDegrees>
              <LongitudeDegrees>16.898822</LongitudeDegrees>
            </Position>
            <AltitudeMeters>733.0</AltitudeMeters>
            <DistanceMeters>42908.853533501</DistanceMeters>
          </Trackpoint>
          <Trackpoint>
            <Position>
              <LatitudeDegrees>50.208602</LatitudeDegrees>
              <LongitudeDegrees>16.8988</LongitudeDegrees>
            </Position>
            <AltitudeMeters>733.0</AltitudeMeters>
            <DistanceMeters>42911.146022212</DistanceMeters>
          </Trackpoint>
          <Trackpoint>
            <Position>
              <LatitudeDegrees>50.208618</LatitudeDegrees>
              <LongitudeDegrees>16.898778</LongitudeDegrees>
            </Position>
            <AltitudeMeters>734.0</AltitudeMeters>
            <DistanceMeters>42913.519788776</DistanceMeters>
          </Trackpoint>
          <Trackpoint>
            <Position>
              <LatitudeDegrees>50.208633</LatitudeDegrees>
              <LongitudeDegrees>16.89875</LongitudeDegrees>
            </Position>
            <AltitudeMeters>734.0</AltitudeMeters>
            <DistanceMeters>42916.120467006</DistanceMeters>
          </Trackpoint>
          <Trackpoint>
            <Position>
              <LatitudeDegrees>50.208645</LatitudeDegrees>
              <LongitudeDegrees>16.898722</LongitudeDegrees>
            </Position>
            <AltitudeMeters>734.0</AltitudeMeters>
            <DistanceMeters>42918.520714654</DistanceMeters>
          </Trackpoint>
          <Trackpoint>
            <Position>
              <LatitudeDegrees>50.208658</LatitudeDegrees>
              <LongitudeDegrees>16.898693</LongitudeDegrees>
            </Position>
            <AltitudeMeters>735.0</AltitudeMeters>
            <DistanceMeters>42921.042058307</DistanceMeters>
          </Trackpoint>
          <Trackpoint>
            <Position>
              <LatitudeDegrees>50.208675</LatitudeDegrees>
              <LongitudeDegrees>16.898667</LongitudeDegrees>
            </Position>
            <AltitudeMeters>735.0</AltitudeMeters>
            <DistanceMeters>42923.689196256</DistanceMeters>
          </Trackpoint>
          <Trackpoint>
            <Position>
              <LatitudeDegrees>50.208688</LatitudeDegrees>
              <LongitudeDegrees>16.898637</LongitudeDegrees>
            </Position>
            <AltitudeMeters>735.0</AltitudeMeters>
            <DistanceMeters>42926.270706747</DistanceMeters>
          </Trackpoint>
          <Trackpoint>
            <Position>
              <LatitudeDegrees>50.208702</LatitudeDegrees>
              <LongitudeDegrees>16.898608</LongitudeDegrees>
            </Position>
            <AltitudeMeters>735.0</AltitudeMeters>
            <DistanceMeters>42928.859203748</DistanceMeters>
          </Trackpoint>
          <Trackpoint>
            <Position>
              <LatitudeDegrees>50.208715</LatitudeDegrees>
              <LongitudeDegrees>16.898582</LongitudeDegrees>
            </Position>
            <AltitudeMeters>736.0</AltitudeMeters>
            <DistanceMeters>42931.206190461</DistanceMeters>
          </Trackpoint>
          <Trackpoint>
            <Position>
              <LatitudeDegrees>50.208727</LatitudeDegrees>
              <LongitudeDegrees>16.89855</LongitudeDegrees>
            </Position>
            <AltitudeMeters>736.0</AltitudeMeters>
            <DistanceMeters>42933.846497075</DistanceMeters>
          </Trackpoint>
          <Trackpoint>
            <Position>
              <LatitudeDegrees>50.208735</LatitudeDegrees>
              <LongitudeDegrees>16.898518</LongitudeDegrees>
            </Position>
            <AltitudeMeters>736.0</AltitudeMeters>
            <DistanceMeters>42936.293319643</DistanceMeters>
          </Trackpoint>
          <Trackpoint>
            <Position>
              <LatitudeDegrees>50.20875</LatitudeDegrees>
              <LongitudeDegrees>16.898492</LongitudeDegrees>
            </Position>
            <AltitudeMeters>736.0</AltitudeMeters>
            <DistanceMeters>42938.785846994</DistanceMeters>
          </Trackpoint>
          <Trackpoint>
            <Position>
              <LatitudeDegrees>50.208767</LatitudeDegrees>
              <LongitudeDegrees>16.898462</LongitudeDegrees>
            </Position>
            <AltitudeMeters>737.0</AltitudeMeters>
            <DistanceMeters>42941.639814224</DistanceMeters>
          </Trackpoint>
          <Trackpoint>
            <Position>
              <LatitudeDegrees>50.208787</LatitudeDegrees>
              <LongitudeDegrees>16.898433</LongitudeDegrees>
            </Position>
            <AltitudeMeters>737.0</AltitudeMeters>
            <DistanceMeters>42944.677698048</DistanceMeters>
          </Trackpoint>
          <Trackpoint>
            <Position>
              <LatitudeDegrees>50.208808</LatitudeDegrees>
              <LongitudeDegrees>16.898408</LongitudeDegrees>
            </Position>
            <AltitudeMeters>737.0</AltitudeMeters>
            <DistanceMeters>42947.615852754</DistanceMeters>
          </Trackpoint>
          <Trackpoint>
            <Position>
              <LatitudeDegrees>50.20883</LatitudeDegrees>
              <LongitudeDegrees>16.898385</LongitudeDegrees>
            </Position>
            <AltitudeMeters>737.0</AltitudeMeters>
            <DistanceMeters>42950.56321319</DistanceMeters>
          </Trackpoint>
          <Trackpoint>
            <Position>
              <LatitudeDegrees>50.208848</LatitudeDegrees>
              <LongitudeDegrees>16.898363</LongitudeDegrees>
            </Position>
            <AltitudeMeters>737.0</AltitudeMeters>
            <DistanceMeters>42953.107729807</DistanceMeters>
          </Trackpoint>
          <Trackpoint>
            <Position>
              <LatitudeDegrees>50.208867</LatitudeDegrees>
              <LongitudeDegrees>16.89834</LongitudeDegrees>
            </Position>
            <AltitudeMeters>737.0</AltitudeMeters>
            <DistanceMeters>42955.782018599</DistanceMeters>
          </Trackpoint>
          <Trackpoint>
            <Position>
              <LatitudeDegrees>50.208887</LatitudeDegrees>
              <LongitudeDegrees>16.898315</LongitudeDegrees>
            </Position>
            <AltitudeMeters>737.0</AltitudeMeters>
            <DistanceMeters>42958.631235811</DistanceMeters>
          </Trackpoint>
          <Trackpoint>
            <Position>
              <LatitudeDegrees>50.208907</LatitudeDegrees>
              <LongitudeDegrees>16.89829</LongitudeDegrees>
            </Position>
            <AltitudeMeters>738.0</AltitudeMeters>
            <DistanceMeters>42961.482037242</DistanceMeters>
          </Trackpoint>
          <Trackpoint>
            <Position>
              <LatitudeDegrees>50.208925</LatitudeDegrees>
              <LongitudeDegrees>16.898265</LongitudeDegrees>
            </Position>
            <AltitudeMeters>738.0</AltitudeMeters>
            <DistanceMeters>42964.163070783</DistanceMeters>
          </Trackpoint>
          <Trackpoint>
            <Position>
              <LatitudeDegrees>50.208945</LatitudeDegrees>
              <LongitudeDegrees>16.898243</LongitudeDegrees>
            </Position>
            <AltitudeMeters>738.0</AltitudeMeters>
            <DistanceMeters>42966.885880501</DistanceMeters>
          </Trackpoint>
          <Trackpoint>
            <Position>
              <LatitudeDegrees>50.208962</LatitudeDegrees>
              <LongitudeDegrees>16.898215</LongitudeDegrees>
            </Position>
            <AltitudeMeters>738.0</AltitudeMeters>
            <DistanceMeters>42969.636735652</DistanceMeters>
          </Trackpoint>
          <Trackpoint>
            <Position>
              <LatitudeDegrees>50.208982</LatitudeDegrees>
              <LongitudeDegrees>16.898185</LongitudeDegrees>
            </Position>
            <AltitudeMeters>738.0</AltitudeMeters>
            <DistanceMeters>42972.721812729</DistanceMeters>
          </Trackpoint>
          <Trackpoint>
            <Position>
              <LatitudeDegrees>50.209</LatitudeDegrees>
              <LongitudeDegrees>16.898155</LongitudeDegrees>
            </Position>
            <AltitudeMeters>739.0</AltitudeMeters>
            <DistanceMeters>42975.650732773</DistanceMeters>
          </Trackpoint>
          <Trackpoint>
            <Position>
              <LatitudeDegrees>50.20902</LatitudeDegrees>
              <LongitudeDegrees>16.898127</LongitudeDegrees>
            </Position>
            <AltitudeMeters>739.0</AltitudeMeters>
            <DistanceMeters>42978.637656864</DistanceMeters>
          </Trackpoint>
          <Trackpoint>
            <Position>
              <LatitudeDegrees>50.209038</LatitudeDegrees>
              <LongitudeDegrees>16.898103</LongitudeDegrees>
            </Position>
            <AltitudeMeters>739.0</AltitudeMeters>
            <DistanceMeters>42981.271114422</DistanceMeters>
          </Trackpoint>
          <Trackpoint>
            <Position>
              <LatitudeDegrees>50.209055</LatitudeDegrees>
              <LongitudeDegrees>16.898073</LongitudeDegrees>
            </Position>
            <AltitudeMeters>739.0</AltitudeMeters>
            <DistanceMeters>42984.125081652</DistanceMeters>
          </Trackpoint>
          <Trackpoint>
            <Position>
              <LatitudeDegrees>50.20907</LatitudeDegrees>
              <LongitudeDegrees>16.898048</LongitudeDegrees>
            </Position>
            <AltitudeMeters>739.0</AltitudeMeters>
            <DistanceMeters>42986.566362147</DistanceMeters>
          </Trackpoint>
          <Trackpoint>
            <Position>
              <LatitudeDegrees>50.209077</LatitudeDegrees>
              <LongitudeDegrees>16.898017</LongitudeDegrees>
            </Position>
            <AltitudeMeters>740.0</AltitudeMeters>
            <DistanceMeters>42988.907570468</DistanceMeters>
          </Trackpoint>
          <Trackpoint>
            <Position>
              <LatitudeDegrees>50.209095</LatitudeDegrees>
              <LongitudeDegrees>16.898005</LongitudeDegrees>
            </Position>
            <AltitudeMeters>740.0</AltitudeMeters>
            <DistanceMeters>42991.086978692</DistanceMeters>
          </Trackpoint>
          <Trackpoint>
            <Position>
              <LatitudeDegrees>50.209122</LatitudeDegrees>
              <LongitudeDegrees>16.897982</LongitudeDegrees>
            </Position>
            <AltitudeMeters>740.0</AltitudeMeters>
            <DistanceMeters>42994.510579023</DistanceMeters>
          </Trackpoint>
          <Trackpoint>
            <Position>
              <LatitudeDegrees>50.20914</LatitudeDegrees>
              <LongitudeDegrees>16.897955</LongitudeDegrees>
            </Position>
            <AltitudeMeters>740.0</AltitudeMeters>
            <DistanceMeters>42997.287571152</DistanceMeters>
          </Trackpoint>
          <Trackpoint>
            <Position>
              <LatitudeDegrees>50.20916</LatitudeDegrees>
              <LongitudeDegrees>16.897927</LongitudeDegrees>
            </Position>
            <AltitudeMeters>740.0</AltitudeMeters>
            <DistanceMeters>43000.277516917</DistanceMeters>
          </Trackpoint>
          <Trackpoint>
            <Position>
              <LatitudeDegrees>50.209177</LatitudeDegrees>
              <LongitudeDegrees>16.897898</LongitudeDegrees>
            </Position>
            <AltitudeMeters>740.0</AltitudeMeters>
            <DistanceMeters>43003.080402306</DistanceMeters>
          </Trackpoint>
          <Trackpoint>
            <Position>
              <LatitudeDegrees>50.20919</LatitudeDegrees>
              <LongitudeDegrees>16.897873</LongitudeDegrees>
            </Position>
            <AltitudeMeters>740.0</AltitudeMeters>
            <DistanceMeters>43005.372891018</DistanceMeters>
          </Trackpoint>
          <Trackpoint>
            <Position>
              <LatitudeDegrees>50.20921</LatitudeDegrees>
              <LongitudeDegrees>16.897858</LongitudeDegrees>
            </Position>
            <AltitudeMeters>740.0</AltitudeMeters>
            <DistanceMeters>43007.83992801</DistanceMeters>
          </Trackpoint>
          <Trackpoint>
            <Position>
              <LatitudeDegrees>50.209235</LatitudeDegrees>
              <LongitudeDegrees>16.897833</LongitudeDegrees>
            </Position>
            <AltitudeMeters>740.0</AltitudeMeters>
            <DistanceMeters>43011.144071231</DistanceMeters>
          </Trackpoint>
          <Trackpoint>
            <Position>
              <LatitudeDegrees>50.209262</LatitudeDegrees>
              <LongitudeDegrees>16.897808</LongitudeDegrees>
            </Position>
            <AltitudeMeters>741.0</AltitudeMeters>
            <DistanceMeters>43014.638161005</DistanceMeters>
          </Trackpoint>
          <Trackpoint>
            <Position>
              <LatitudeDegrees>50.20928</LatitudeDegrees>
              <LongitudeDegrees>16.897787</LongitudeDegrees>
            </Position>
            <AltitudeMeters>741.0</AltitudeMeters>
            <DistanceMeters>43017.137923574</DistanceMeters>
          </Trackpoint>
          <Trackpoint>
            <Position>
              <LatitudeDegrees>50.209297</LatitudeDegrees>
              <LongitudeDegrees>16.897757</LongitudeDegrees>
            </Position>
            <AltitudeMeters>741.0</AltitudeMeters>
            <DistanceMeters>43019.991890804</DistanceMeters>
          </Trackpoint>
          <Trackpoint>
            <Position>
              <LatitudeDegrees>50.20931</LatitudeDegrees>
              <LongitudeDegrees>16.897727</LongitudeDegrees>
            </Position>
            <AltitudeMeters>741.0</AltitudeMeters>
            <DistanceMeters>43022.573401295</DistanceMeters>
          </Trackpoint>
          <Trackpoint>
            <Position>
              <LatitudeDegrees>50.209325</LatitudeDegrees>
              <LongitudeDegrees>16.897695</LongitudeDegrees>
            </Position>
            <AltitudeMeters>741.0</AltitudeMeters>
            <DistanceMeters>43025.398748633</DistanceMeters>
          </Trackpoint>
          <Trackpoint>
            <Position>
              <LatitudeDegrees>50.209342</LatitudeDegrees>
              <LongitudeDegrees>16.897665</LongitudeDegrees>
            </Position>
            <AltitudeMeters>742.0</AltitudeMeters>
            <DistanceMeters>43028.252715863</DistanceMeters>
          </Trackpoint>
          <Trackpoint>
            <Position>
              <LatitudeDegrees>50.209417</LatitudeDegrees>
              <LongitudeDegrees>16.897573</LongitudeDegrees>
            </Position>
            <AltitudeMeters>742.0</AltitudeMeters>
            <DistanceMeters>43038.865119616</DistanceMeters>
          </Trackpoint>
          <Trackpoint>
            <Position>
              <LatitudeDegrees>50.209445</LatitudeDegrees>
              <LongitudeDegrees>16.897513</LongitudeDegrees>
            </Position>
            <AltitudeMeters>742.0</AltitudeMeters>
            <DistanceMeters>43044.15512972</DistanceMeters>
          </Trackpoint>
          <Trackpoint>
            <Position>
              <LatitudeDegrees>50.209478</LatitudeDegrees>
              <LongitudeDegrees>16.897448</LongitudeDegrees>
            </Position>
            <AltitudeMeters>742.0</AltitudeMeters>
            <DistanceMeters>43050.065149659</DistanceMeters>
          </Trackpoint>
          <Trackpoint>
            <Position>
              <LatitudeDegrees>50.209508</LatitudeDegrees>
              <LongitudeDegrees>16.897365</LongitudeDegrees>
            </Position>
            <AltitudeMeters>742.0</AltitudeMeters>
            <DistanceMeters>43056.854740239</DistanceMeters>
          </Trackpoint>
          <Trackpoint>
            <Position>
              <LatitudeDegrees>50.209528</LatitudeDegrees>
              <LongitudeDegrees>16.897322</LongitudeDegrees>
            </Position>
            <AltitudeMeters>743.0</AltitudeMeters>
            <DistanceMeters>43060.64152798</DistanceMeters>
          </Trackpoint>
          <Trackpoint>
            <Position>
              <LatitudeDegrees>50.209557</LatitudeDegrees>
              <LongitudeDegrees>16.897293</LongitudeDegrees>
            </Position>
            <AltitudeMeters>743.0</AltitudeMeters>
            <DistanceMeters>43064.473355781</DistanceMeters>
          </Trackpoint>
          <Trackpoint>
            <Position>
              <LatitudeDegrees>50.209572</LatitudeDegrees>
              <LongitudeDegrees>16.897265</LongitudeDegrees>
            </Position>
            <AltitudeMeters>743.0</AltitudeMeters>
            <DistanceMeters>43067.075769532</DistanceMeters>
          </Trackpoint>
          <Trackpoint>
            <Position>
              <LatitudeDegrees>50.209608</LatitudeDegrees>
              <LongitudeDegrees>16.897223</LongitudeDegrees>
            </Position>
            <AltitudeMeters>744.0</AltitudeMeters>
            <DistanceMeters>43072.07710053</DistanceMeters>
          </Trackpoint>
          <Trackpoint>
            <Position>
              <LatitudeDegrees>50.209635</LatitudeDegrees>
              <LongitudeDegrees>16.897188</LongitudeDegrees>
            </Position>
            <AltitudeMeters>744.0</AltitudeMeters>
            <DistanceMeters>43075.983611658</DistanceMeters>
          </Trackpoint>
          <Trackpoint>
            <Position>
              <LatitudeDegrees>50.209658</LatitudeDegrees>
              <LongitudeDegrees>16.89715</LongitudeDegrees>
            </Position>
            <AltitudeMeters>745.0</AltitudeMeters>
            <DistanceMeters>43079.710306919</DistanceMeters>
          </Trackpoint>
          <Trackpoint>
            <Position>
              <LatitudeDegrees>50.209677</LatitudeDegrees>
              <LongitudeDegrees>16.897105</LongitudeDegrees>
            </Position>
            <AltitudeMeters>745.0</AltitudeMeters>
            <DistanceMeters>43083.550373954</DistanceMeters>
          </Trackpoint>
          <Trackpoint>
            <Position>
              <LatitudeDegrees>50.209693</LatitudeDegrees>
              <LongitudeDegrees>16.897068</LongitudeDegrees>
            </Position>
            <AltitudeMeters>745.0</AltitudeMeters>
            <DistanceMeters>43086.730576089</DistanceMeters>
          </Trackpoint>
          <Trackpoint>
            <Position>
              <LatitudeDegrees>50.209707</LatitudeDegrees>
              <LongitudeDegrees>16.897033</LongitudeDegrees>
            </Position>
            <AltitudeMeters>745.0</AltitudeMeters>
            <DistanceMeters>43089.671802573</DistanceMeters>
          </Trackpoint>
          <Trackpoint>
            <Position>
              <LatitudeDegrees>50.209723</LatitudeDegrees>
              <LongitudeDegrees>16.897</LongitudeDegrees>
            </Position>
            <AltitudeMeters>746.0</AltitudeMeters>
            <DistanceMeters>43092.622225203</DistanceMeters>
          </Trackpoint>
          <Trackpoint>
            <Position>
              <LatitudeDegrees>50.20974</LatitudeDegrees>
              <LongitudeDegrees>16.896975</LongitudeDegrees>
            </Position>
            <AltitudeMeters>746.0</AltitudeMeters>
            <DistanceMeters>43095.221166753</DistanceMeters>
          </Trackpoint>
          <Trackpoint>
            <Position>
              <LatitudeDegrees>50.209802</LatitudeDegrees>
              <LongitudeDegrees>16.896865</LongitudeDegrees>
            </Position>
            <AltitudeMeters>746.0</AltitudeMeters>
            <DistanceMeters>43105.662004019</DistanceMeters>
          </Trackpoint>
          <Trackpoint>
            <Position>
              <LatitudeDegrees>50.209888</LatitudeDegrees>
              <LongitudeDegrees>16.89691</LongitudeDegrees>
            </Position>
            <AltitudeMeters>747.0</AltitudeMeters>
            <DistanceMeters>43115.756328296</DistanceMeters>
          </Trackpoint>
          <Trackpoint>
            <Position>
              <LatitudeDegrees>50.209943</LatitudeDegrees>
              <LongitudeDegrees>16.897022</LongitudeDegrees>
            </Position>
            <AltitudeMeters>746.0</AltitudeMeters>
            <DistanceMeters>43125.812112503</DistanceMeters>
          </Trackpoint>
          <Trackpoint>
            <Position>
              <LatitudeDegrees>50.209982</LatitudeDegrees>
              <LongitudeDegrees>16.89716</LongitudeDegrees>
            </Position>
            <AltitudeMeters>745.0</AltitudeMeters>
            <DistanceMeters>43136.557276876</DistanceMeters>
          </Trackpoint>
          <Trackpoint>
            <Position>
              <LatitudeDegrees>50.21004</LatitudeDegrees>
              <LongitudeDegrees>16.897293</LongitudeDegrees>
            </Position>
            <AltitudeMeters>745.0</AltitudeMeters>
            <DistanceMeters>43148.021295917</DistanceMeters>
          </Trackpoint>
          <Trackpoint>
            <Position>
              <LatitudeDegrees>50.210082</LatitudeDegrees>
              <LongitudeDegrees>16.897437</LongitudeDegrees>
            </Position>
            <AltitudeMeters>745.0</AltitudeMeters>
            <DistanceMeters>43159.293483178</DistanceMeters>
          </Trackpoint>
          <Trackpoint>
            <Position>
              <LatitudeDegrees>50.210112</LatitudeDegrees>
              <LongitudeDegrees>16.897572</LongitudeDegrees>
            </Position>
            <AltitudeMeters>744.0</AltitudeMeters>
            <DistanceMeters>43169.473323907</DistanceMeters>
          </Trackpoint>
          <Trackpoint>
            <Position>
              <LatitudeDegrees>50.210138</LatitudeDegrees>
              <LongitudeDegrees>16.897715</LongitudeDegrees>
            </Position>
            <AltitudeMeters>743.0</AltitudeMeters>
            <DistanceMeters>43180.062728483</DistanceMeters>
          </Trackpoint>
          <Trackpoint>
            <Position>
              <LatitudeDegrees>50.21023</LatitudeDegrees>
              <LongitudeDegrees>16.897762</LongitudeDegrees>
            </Position>
            <AltitudeMeters>743.0</AltitudeMeters>
            <DistanceMeters>43190.836428062</DistanceMeters>
          </Trackpoint>
          <Trackpoint>
            <Position>
              <LatitudeDegrees>50.210248</LatitudeDegrees>
              <LongitudeDegrees>16.897617</LongitudeDegrees>
            </Position>
            <AltitudeMeters>743.0</AltitudeMeters>
            <DistanceMeters>43201.357391756</DistanceMeters>
          </Trackpoint>
          <Trackpoint>
            <Position>
              <LatitudeDegrees>50.210217</LatitudeDegrees>
              <LongitudeDegrees>16.897473</LongitudeDegrees>
            </Position>
            <AltitudeMeters>742.0</AltitudeMeters>
            <DistanceMeters>43212.179595389</DistanceMeters>
          </Trackpoint>
          <Trackpoint>
            <Position>
              <LatitudeDegrees>50.210212</LatitudeDegrees>
              <LongitudeDegrees>16.89732</LongitudeDegrees>
            </Position>
            <AltitudeMeters>742.0</AltitudeMeters>
            <DistanceMeters>43223.092369928</DistanceMeters>
          </Trackpoint>
          <Trackpoint>
            <Position>
              <LatitudeDegrees>50.210178</LatitudeDegrees>
              <LongitudeDegrees>16.897185</LongitudeDegrees>
            </Position>
            <AltitudeMeters>742.0</AltitudeMeters>
            <DistanceMeters>43233.426279354</DistanceMeters>
          </Trackpoint>
          <Trackpoint>
            <Position>
              <LatitudeDegrees>50.210152</LatitudeDegrees>
              <LongitudeDegrees>16.897038</LongitudeDegrees>
            </Position>
            <AltitudeMeters>743.0</AltitudeMeters>
            <DistanceMeters>43244.289707406</DistanceMeters>
          </Trackpoint>
          <Trackpoint>
            <Position>
              <LatitudeDegrees>50.210143</LatitudeDegrees>
              <LongitudeDegrees>16.896898</LongitudeDegrees>
            </Position>
            <AltitudeMeters>743.0</AltitudeMeters>
            <DistanceMeters>43254.312210605</DistanceMeters>
          </Trackpoint>
          <Trackpoint>
            <Position>
              <LatitudeDegrees>50.210077</LatitudeDegrees>
              <LongitudeDegrees>16.896777</LongitudeDegrees>
            </Position>
            <AltitudeMeters>745.0</AltitudeMeters>
            <DistanceMeters>43265.636747931</DistanceMeters>
          </Trackpoint>
          <Trackpoint>
            <Position>
              <LatitudeDegrees>50.210168</LatitudeDegrees>
              <LongitudeDegrees>16.896338</LongitudeDegrees>
            </Position>
            <AltitudeMeters>745.0</AltitudeMeters>
            <DistanceMeters>43298.506377169</DistanceMeters>
          </Trackpoint>
          <Trackpoint>
            <Position>
              <LatitudeDegrees>50.21023</LatitudeDegrees>
              <LongitudeDegrees>16.896198</LongitudeDegrees>
            </Position>
            <AltitudeMeters>749.0</AltitudeMeters>
            <DistanceMeters>43310.633364633</DistanceMeters>
          </Trackpoint>
          <Trackpoint>
            <Position>
              <LatitudeDegrees>50.210328</LatitudeDegrees>
              <LongitudeDegrees>16.8962</LongitudeDegrees>
            </Position>
            <AltitudeMeters>746.0</AltitudeMeters>
            <DistanceMeters>43321.541587096</DistanceMeters>
          </Trackpoint>
          <Trackpoint>
            <Position>
              <LatitudeDegrees>50.210427</LatitudeDegrees>
              <LongitudeDegrees>16.896158</LongitudeDegrees>
            </Position>
            <AltitudeMeters>754.0</AltitudeMeters>
            <DistanceMeters>43332.95903793</DistanceMeters>
          </Trackpoint>
          <Trackpoint>
            <Position>
              <LatitudeDegrees>50.210525</LatitudeDegrees>
              <LongitudeDegrees>16.896195</LongitudeDegrees>
            </Position>
            <AltitudeMeters>755.0</AltitudeMeters>
            <DistanceMeters>43344.180642807</DistanceMeters>
          </Trackpoint>
          <Trackpoint>
            <Position>
              <LatitudeDegrees>50.210613</LatitudeDegrees>
              <LongitudeDegrees>16.896132</LongitudeDegrees>
            </Position>
            <AltitudeMeters>754.0</AltitudeMeters>
            <DistanceMeters>43354.954342386</DistanceMeters>
          </Trackpoint>
          <Trackpoint>
            <Position>
              <LatitudeDegrees>50.210678</LatitudeDegrees>
              <LongitudeDegrees>16.89601</LongitudeDegrees>
            </Position>
            <AltitudeMeters>754.0</AltitudeMeters>
            <DistanceMeters>43366.262122117</DistanceMeters>
          </Trackpoint>
          <Trackpoint>
            <Position>
              <LatitudeDegrees>50.210925</LatitudeDegrees>
              <LongitudeDegrees>16.895762</LongitudeDegrees>
            </Position>
            <AltitudeMeters>754.0</AltitudeMeters>
            <DistanceMeters>43398.939984039</DistanceMeters>
          </Trackpoint>
          <Trackpoint>
            <Position>
              <LatitudeDegrees>50.210985</LatitudeDegrees>
              <LongitudeDegrees>16.895653</LongitudeDegrees>
            </Position>
            <AltitudeMeters>768.0</AltitudeMeters>
            <DistanceMeters>43409.180848642</DistanceMeters>
          </Trackpoint>
          <Trackpoint>
            <Position>
              <LatitudeDegrees>50.211023</LatitudeDegrees>
              <LongitudeDegrees>16.895522</LongitudeDegrees>
            </Position>
            <AltitudeMeters>765.0</AltitudeMeters>
            <DistanceMeters>43419.426121141</DistanceMeters>
          </Trackpoint>
          <Trackpoint>
            <Position>
              <LatitudeDegrees>50.211117</LatitudeDegrees>
              <LongitudeDegrees>16.89548</LongitudeDegrees>
            </Position>
            <AltitudeMeters>760.0</AltitudeMeters>
            <DistanceMeters>43430.307821028</DistanceMeters>
          </Trackpoint>
          <Trackpoint>
            <Position>
              <LatitudeDegrees>50.211215</LatitudeDegrees>
              <LongitudeDegrees>16.895458</LongitudeDegrees>
            </Position>
            <AltitudeMeters>760.0</AltitudeMeters>
            <DistanceMeters>43441.327232897</DistanceMeters>
          </Trackpoint>
          <Trackpoint>
            <Position>
              <LatitudeDegrees>50.211273</LatitudeDegrees>
              <LongitudeDegrees>16.895337</LongitudeDegrees>
            </Position>
            <AltitudeMeters>759.0</AltitudeMeters>
            <DistanceMeters>43452.095483062</DistanceMeters>
          </Trackpoint>
          <Trackpoint>
            <Position>
              <LatitudeDegrees>50.21131</LatitudeDegrees>
              <LongitudeDegrees>16.895208</LongitudeDegrees>
            </Position>
            <AltitudeMeters>760.0</AltitudeMeters>
            <DistanceMeters>43462.164728233</DistanceMeters>
          </Trackpoint>
          <Trackpoint>
            <Position>
              <LatitudeDegrees>50.21136</LatitudeDegrees>
              <LongitudeDegrees>16.895073</LongitudeDegrees>
            </Position>
            <AltitudeMeters>762.0</AltitudeMeters>
            <DistanceMeters>43473.274322502</DistanceMeters>
          </Trackpoint>
          <Trackpoint>
            <Position>
              <LatitudeDegrees>50.211438</LatitudeDegrees>
              <LongitudeDegrees>16.894995</LongitudeDegrees>
            </Position>
            <AltitudeMeters>764.0</AltitudeMeters>
            <DistanceMeters>43483.581107611</DistanceMeters>
          </Trackpoint>
          <Trackpoint>
            <Position>
              <LatitudeDegrees>50.211515</LatitudeDegrees>
              <LongitudeDegrees>16.89492</LongitudeDegrees>
            </Position>
            <AltitudeMeters>765.0</AltitudeMeters>
            <DistanceMeters>43493.679903746</DistanceMeters>
          </Trackpoint>
          <Trackpoint>
            <Position>
              <LatitudeDegrees>50.211572</LatitudeDegrees>
              <LongitudeDegrees>16.894807</LongitudeDegrees>
            </Position>
            <AltitudeMeters>766.0</AltitudeMeters>
            <DistanceMeters>43503.927820072</DistanceMeters>
          </Trackpoint>
          <Trackpoint>
            <Position>
              <LatitudeDegrees>50.211683</LatitudeDegrees>
              <LongitudeDegrees>16.894617</LongitudeDegrees>
            </Position>
            <AltitudeMeters>767.0</AltitudeMeters>
            <DistanceMeters>43522.252213448</DistanceMeters>
          </Trackpoint>
          <Trackpoint>
            <Position>
              <LatitudeDegrees>50.21177</LatitudeDegrees>
              <LongitudeDegrees>16.894572</LongitudeDegrees>
            </Position>
            <AltitudeMeters>766.0</AltitudeMeters>
            <DistanceMeters>43532.452436033</DistanceMeters>
          </Trackpoint>
          <Trackpoint>
            <Position>
              <LatitudeDegrees>50.211835</LatitudeDegrees>
              <LongitudeDegrees>16.894455</LongitudeDegrees>
            </Position>
            <AltitudeMeters>772.0</AltitudeMeters>
            <DistanceMeters>43543.487815996</DistanceMeters>
          </Trackpoint>
          <Trackpoint>
            <Position>
              <LatitudeDegrees>50.211898</LatitudeDegrees>
              <LongitudeDegrees>16.894347</LongitudeDegrees>
            </Position>
            <AltitudeMeters>779.0</AltitudeMeters>
            <DistanceMeters>43553.896603493</DistanceMeters>
          </Trackpoint>
          <Trackpoint>
            <Position>
              <LatitudeDegrees>50.211948</LatitudeDegrees>
              <LongitudeDegrees>16.894228</LongitudeDegrees>
            </Position>
            <AltitudeMeters>784.0</AltitudeMeters>
            <DistanceMeters>43564.036448186</DistanceMeters>
          </Trackpoint>
          <Trackpoint>
            <Position>
              <LatitudeDegrees>50.21204</LatitudeDegrees>
              <LongitudeDegrees>16.894182</LongitudeDegrees>
            </Position>
            <AltitudeMeters>786.0</AltitudeMeters>
            <DistanceMeters>43574.787493646</DistanceMeters>
          </Trackpoint>
          <Trackpoint>
            <Position>
              <LatitudeDegrees>50.212113</LatitudeDegrees>
              <LongitudeDegrees>16.894087</LongitudeDegrees>
            </Position>
            <AltitudeMeters>787.0</AltitudeMeters>
            <DistanceMeters>43585.361110646</DistanceMeters>
          </Trackpoint>
          <Trackpoint>
            <Position>
              <LatitudeDegrees>50.212203</LatitudeDegrees>
              <LongitudeDegrees>16.894065</LongitudeDegrees>
            </Position>
            <AltitudeMeters>788.0</AltitudeMeters>
            <DistanceMeters>43595.500064745</DistanceMeters>
          </Trackpoint>
          <Trackpoint>
            <Position>
              <LatitudeDegrees>50.212297</LatitudeDegrees>
              <LongitudeDegrees>16.894052</LongitudeDegrees>
            </Position>
            <AltitudeMeters>784.0</AltitudeMeters>
            <DistanceMeters>43606.002988807</DistanceMeters>
          </Trackpoint>
          <Trackpoint>
            <Position>
              <LatitudeDegrees>50.21235</LatitudeDegrees>
              <LongitudeDegrees>16.893938</LongitudeDegrees>
            </Position>
            <AltitudeMeters>780.0</AltitudeMeters>
            <DistanceMeters>43616.039447482</DistanceMeters>
          </Trackpoint>
          <Trackpoint>
            <Position>
              <LatitudeDegrees>50.21243</LatitudeDegrees>
              <LongitudeDegrees>16.893855</LongitudeDegrees>
            </Position>
            <AltitudeMeters>787.0</AltitudeMeters>
            <DistanceMeters>43626.727312891</DistanceMeters>
          </Trackpoint>
          <Trackpoint>
            <Position>
              <LatitudeDegrees>50.212502</LatitudeDegrees>
              <LongitudeDegrees>16.893752</LongitudeDegrees>
            </Position>
            <AltitudeMeters>790.0</AltitudeMeters>
            <DistanceMeters>43637.591987727</DistanceMeters>
          </Trackpoint>
          <Trackpoint>
            <Position>
              <LatitudeDegrees>50.212587</LatitudeDegrees>
              <LongitudeDegrees>16.8937</LongitudeDegrees>
            </Position>
            <AltitudeMeters>791.0</AltitudeMeters>
            <DistanceMeters>43647.75140571</DistanceMeters>
          </Trackpoint>
          <Trackpoint>
            <Position>
              <LatitudeDegrees>50.212673</LatitudeDegrees>
              <LongitudeDegrees>16.89378</LongitudeDegrees>
            </Position>
            <AltitudeMeters>792.0</AltitudeMeters>
            <DistanceMeters>43658.890628322</DistanceMeters>
          </Trackpoint>
          <Trackpoint>
            <Position>
              <LatitudeDegrees>50.212752</LatitudeDegrees>
              <LongitudeDegrees>16.893852</LongitudeDegrees>
            </Position>
            <AltitudeMeters>793.0</AltitudeMeters>
            <DistanceMeters>43669.069581958</DistanceMeters>
          </Trackpoint>
          <Trackpoint>
            <Position>
              <LatitudeDegrees>50.212847</LatitudeDegrees>
              <LongitudeDegrees>16.893917</LongitudeDegrees>
            </Position>
            <AltitudeMeters>794.0</AltitudeMeters>
            <DistanceMeters>43680.612101088</DistanceMeters>
          </Trackpoint>
          <Trackpoint>
            <Position>
              <LatitudeDegrees>50.212993</LatitudeDegrees>
              <LongitudeDegrees>16.893683</LongitudeDegrees>
            </Position>
            <AltitudeMeters>794.0</AltitudeMeters>
            <DistanceMeters>43703.889573178</DistanceMeters>
          </Trackpoint>
          <Trackpoint>
            <Position>
              <LatitudeDegrees>50.212972</LatitudeDegrees>
              <LongitudeDegrees>16.893823</LongitudeDegrees>
            </Position>
            <AltitudeMeters>794.0</AltitudeMeters>
            <DistanceMeters>43714.131319513</DistanceMeters>
          </Trackpoint>
          <Trackpoint>
            <Position>
              <LatitudeDegrees>50.213028</LatitudeDegrees>
              <LongitudeDegrees>16.893965</LongitudeDegrees>
            </Position>
            <AltitudeMeters>795.0</AltitudeMeters>
            <DistanceMeters>43726.011559191</DistanceMeters>
          </Trackpoint>
          <Trackpoint>
            <Position>
              <LatitudeDegrees>50.213052</LatitudeDegrees>
              <LongitudeDegrees>16.894108</LongitudeDegrees>
            </Position>
            <AltitudeMeters>799.0</AltitudeMeters>
            <DistanceMeters>43736.541102324</DistanceMeters>
          </Trackpoint>
          <Trackpoint>
            <Position>
              <LatitudeDegrees>50.213163</LatitudeDegrees>
              <LongitudeDegrees>16.894325</LongitudeDegrees>
            </Position>
            <AltitudeMeters>804.0</AltitudeMeters>
            <DistanceMeters>43756.327663276</DistanceMeters>
          </Trackpoint>
          <Trackpoint>
            <Position>
              <LatitudeDegrees>50.213242</LatitudeDegrees>
              <LongitudeDegrees>16.894397</LongitudeDegrees>
            </Position>
            <AltitudeMeters>802.0</AltitudeMeters>
            <DistanceMeters>43766.506616911</DistanceMeters>
          </Trackpoint>
          <Trackpoint>
            <Position>
              <LatitudeDegrees>50.213327</LatitudeDegrees>
              <LongitudeDegrees>16.894443</LongitudeDegrees>
            </Position>
            <AltitudeMeters>811.0</AltitudeMeters>
            <DistanceMeters>43776.519204423</DistanceMeters>
          </Trackpoint>
          <Trackpoint>
            <Position>
              <LatitudeDegrees>50.21341</LatitudeDegrees>
              <LongitudeDegrees>16.894527</LongitudeDegrees>
            </Position>
            <AltitudeMeters>811.0</AltitudeMeters>
            <DistanceMeters>43787.525496964</DistanceMeters>
          </Trackpoint>
          <Trackpoint>
            <Position>
              <LatitudeDegrees>50.21339</LatitudeDegrees>
              <LongitudeDegrees>16.89467</LongitudeDegrees>
            </Position>
            <AltitudeMeters>812.0</AltitudeMeters>
            <DistanceMeters>43797.951187836</DistanceMeters>
          </Trackpoint>
          <Trackpoint>
            <Position>
              <LatitudeDegrees>50.213508</LatitudeDegrees>
              <LongitudeDegrees>16.895128</LongitudeDegrees>
            </Position>
            <AltitudeMeters>813.0</AltitudeMeters>
            <DistanceMeters>43833.116978723</DistanceMeters>
          </Trackpoint>
          <Trackpoint>
            <Position>
              <LatitudeDegrees>50.213572</LatitudeDegrees>
              <LongitudeDegrees>16.895025</LongitudeDegrees>
            </Position>
            <AltitudeMeters>820.0</AltitudeMeters>
            <DistanceMeters>43843.342842267</DistanceMeters>
          </Trackpoint>
          <Trackpoint>
            <Position>
              <LatitudeDegrees>50.213662</LatitudeDegrees>
              <LongitudeDegrees>16.895067</LongitudeDegrees>
            </Position>
            <AltitudeMeters>830.0</AltitudeMeters>
            <DistanceMeters>43853.797508463</DistanceMeters>
          </Trackpoint>
          <Trackpoint>
            <Position>
              <LatitudeDegrees>50.213725</LatitudeDegrees>
              <LongitudeDegrees>16.89518</LongitudeDegrees>
            </Position>
            <AltitudeMeters>836.0</AltitudeMeters>
            <DistanceMeters>43864.471847064</DistanceMeters>
          </Trackpoint>
          <Trackpoint>
            <Position>
              <LatitudeDegrees>50.213807</LatitudeDegrees>
              <LongitudeDegrees>16.895237</LongitudeDegrees>
            </Position>
            <AltitudeMeters>837.0</AltitudeMeters>
            <DistanceMeters>43874.460506365</DistanceMeters>
          </Trackpoint>
          <Trackpoint>
            <Position>
              <LatitudeDegrees>50.21387</LatitudeDegrees>
              <LongitudeDegrees>16.895343</LongitudeDegrees>
            </Position>
            <AltitudeMeters>836.0</AltitudeMeters>
            <DistanceMeters>43884.764224565</DistanceMeters>
          </Trackpoint>
          <Trackpoint>
            <Position>
              <LatitudeDegrees>50.213917</LatitudeDegrees>
              <LongitudeDegrees>16.895465</LongitudeDegrees>
            </Position>
            <AltitudeMeters>838.0</AltitudeMeters>
            <DistanceMeters>43894.906740567</DistanceMeters>
          </Trackpoint>
          <Trackpoint>
            <Position>
              <LatitudeDegrees>50.213985</LatitudeDegrees>
              <LongitudeDegrees>16.895568</LongitudeDegrees>
            </Position>
            <AltitudeMeters>838.0</AltitudeMeters>
            <DistanceMeters>43905.446998177</DistanceMeters>
          </Trackpoint>
          <Trackpoint>
            <Position>
              <LatitudeDegrees>50.214067</LatitudeDegrees>
              <LongitudeDegrees>16.895635</LongitudeDegrees>
            </Position>
            <AltitudeMeters>840.0</AltitudeMeters>
            <DistanceMeters>43915.745895104</DistanceMeters>
          </Trackpoint>
          <Trackpoint>
            <Position>
              <LatitudeDegrees>50.214132</LatitudeDegrees>
              <LongitudeDegrees>16.895738</LongitudeDegrees>
            </Position>
            <AltitudeMeters>841.0</AltitudeMeters>
            <DistanceMeters>43926.0491751</DistanceMeters>
          </Trackpoint>
          <Trackpoint>
            <Position>
              <LatitudeDegrees>50.214208</LatitudeDegrees>
              <LongitudeDegrees>16.895825</LongitudeDegrees>
            </Position>
            <AltitudeMeters>842.0</AltitudeMeters>
            <DistanceMeters>43936.534889706</DistanceMeters>
          </Trackpoint>
          <Trackpoint>
            <Position>
              <LatitudeDegrees>50.21429</LatitudeDegrees>
              <LongitudeDegrees>16.895907</LongitudeDegrees>
            </Position>
            <AltitudeMeters>843.0</AltitudeMeters>
            <DistanceMeters>43947.370435558</DistanceMeters>
          </Trackpoint>
          <Trackpoint>
            <Position>
              <LatitudeDegrees>50.214335</LatitudeDegrees>
              <LongitudeDegrees>16.896042</LongitudeDegrees>
            </Position>
            <AltitudeMeters>844.0</AltitudeMeters>
            <DistanceMeters>43958.211813468</DistanceMeters>
          </Trackpoint>
          <Trackpoint>
            <Position>
              <LatitudeDegrees>50.214747</LatitudeDegrees>
              <LongitudeDegrees>16.89628</LongitudeDegrees>
            </Position>
            <AltitudeMeters>844.0</AltitudeMeters>
            <DistanceMeters>44007.101003212</DistanceMeters>
          </Trackpoint>
          <Trackpoint>
            <Position>
              <LatitudeDegrees>50.214793</LatitudeDegrees>
              <LongitudeDegrees>16.89613</LongitudeDegrees>
            </Position>
            <AltitudeMeters>840.0</AltitudeMeters>
            <DistanceMeters>44018.948132745</DistanceMeters>
          </Trackpoint>
          <Trackpoint>
            <Position>
              <LatitudeDegrees>50.214772</LatitudeDegrees>
              <LongitudeDegrees>16.895987</LongitudeDegrees>
            </Position>
            <AltitudeMeters>847.0</AltitudeMeters>
            <DistanceMeters>44029.397615238</DistanceMeters>
          </Trackpoint>
          <Trackpoint>
            <Position>
              <LatitudeDegrees>50.214755</LatitudeDegrees>
              <LongitudeDegrees>16.895848</LongitudeDegrees>
            </Position>
            <AltitudeMeters>850.0</AltitudeMeters>
            <DistanceMeters>44039.476720356</DistanceMeters>
          </Trackpoint>
          <Trackpoint>
            <Position>
              <LatitudeDegrees>50.21475</LatitudeDegrees>
              <LongitudeDegrees>16.895787</LongitudeDegrees>
            </Position>
            <AltitudeMeters>851.0</AltitudeMeters>
            <DistanceMeters>44043.856204614</DistanceMeters>
          </Trackpoint>
          <Trackpoint>
            <Position>
              <LatitudeDegrees>50.214747</LatitudeDegrees>
              <LongitudeDegrees>16.895747</LongitudeDegrees>
            </Position>
            <AltitudeMeters>852.0</AltitudeMeters>
            <DistanceMeters>44046.7243747</DistanceMeters>
          </Trackpoint>
          <Trackpoint>
            <Position>
              <LatitudeDegrees>50.214752</LatitudeDegrees>
              <LongitudeDegrees>16.895702</LongitudeDegrees>
            </Position>
            <AltitudeMeters>853.0</AltitudeMeters>
            <DistanceMeters>44049.977565379</DistanceMeters>
          </Trackpoint>
          <Trackpoint>
            <Position>
              <LatitudeDegrees>50.214755</LatitudeDegrees>
              <LongitudeDegrees>16.895665</LongitudeDegrees>
            </Position>
            <AltitudeMeters>854.0</AltitudeMeters>
            <DistanceMeters>44052.634917403</DistanceMeters>
          </Trackpoint>
          <Trackpoint>
            <Position>
              <LatitudeDegrees>50.214755</LatitudeDegrees>
              <LongitudeDegrees>16.895632</LongitudeDegrees>
            </Position>
            <AltitudeMeters>855.0</AltitudeMeters>
            <DistanceMeters>44054.985748486</DistanceMeters>
          </Trackpoint>
          <Trackpoint>
            <Position>
              <LatitudeDegrees>50.214763</LatitudeDegrees>
              <LongitudeDegrees>16.895595</LongitudeDegrees>
            </Position>
            <AltitudeMeters>855.0</AltitudeMeters>
            <DistanceMeters>44057.76761396</DistanceMeters>
          </Trackpoint>
          <Trackpoint>
            <Position>
              <LatitudeDegrees>50.214765</LatitudeDegrees>
              <LongitudeDegrees>16.895552</LongitudeDegrees>
            </Position>
            <AltitudeMeters>856.0</AltitudeMeters>
            <DistanceMeters>44060.839491217</DistanceMeters>
          </Trackpoint>
          <Trackpoint>
            <Position>
              <LatitudeDegrees>50.214768</LatitudeDegrees>
              <LongitudeDegrees>16.895515</LongitudeDegrees>
            </Position>
            <AltitudeMeters>856.0</AltitudeMeters>
            <DistanceMeters>44063.496843241</DistanceMeters>
          </Trackpoint>
          <Trackpoint>
            <Position>
              <LatitudeDegrees>50.214768</LatitudeDegrees>
              <LongitudeDegrees>16.895473</LongitudeDegrees>
            </Position>
            <AltitudeMeters>856.0</AltitudeMeters>
            <DistanceMeters>44066.48980763</DistanceMeters>
          </Trackpoint>
          <Trackpoint>
            <Position>
              <LatitudeDegrees>50.214768</LatitudeDegrees>
              <LongitudeDegrees>16.895432</LongitudeDegrees>
            </Position>
            <AltitudeMeters>857.0</AltitudeMeters>
            <DistanceMeters>44069.411009821</DistanceMeters>
          </Trackpoint>
          <Trackpoint>
            <Position>
              <LatitudeDegrees>50.21477</LatitudeDegrees>
              <LongitudeDegrees>16.895387</LongitudeDegrees>
            </Position>
            <AltitudeMeters>857.0</AltitudeMeters>
            <DistanceMeters>44072.623699874</DistanceMeters>
          </Trackpoint>
          <Trackpoint>
            <Position>
              <LatitudeDegrees>50.214777</LatitudeDegrees>
              <LongitudeDegrees>16.895348</LongitudeDegrees>
            </Position>
            <AltitudeMeters>858.0</AltitudeMeters>
            <DistanceMeters>44075.506002829</DistanceMeters>
          </Trackpoint>
          <Trackpoint>
            <Position>
              <LatitudeDegrees>50.214777</LatitudeDegrees>
              <LongitudeDegrees>16.895312</LongitudeDegrees>
            </Position>
            <AltitudeMeters>858.0</AltitudeMeters>
            <DistanceMeters>44078.066439413</DistanceMeters>
          </Trackpoint>
          <Trackpoint>
            <Position>
              <LatitudeDegrees>50.214777</LatitudeDegrees>
              <LongitudeDegrees>16.895275</LongitudeDegrees>
            </Position>
            <AltitudeMeters>858.0</AltitudeMeters>
            <DistanceMeters>44080.699896971</DistanceMeters>
          </Trackpoint>
          <Trackpoint>
            <Position>
              <LatitudeDegrees>50.21478</LatitudeDegrees>
              <LongitudeDegrees>16.895238</LongitudeDegrees>
            </Position>
            <AltitudeMeters>858.0</AltitudeMeters>
            <DistanceMeters>44083.353848671</DistanceMeters>
          </Trackpoint>
          <Trackpoint>
            <Position>
              <LatitudeDegrees>50.214788</LatitudeDegrees>
              <LongitudeDegrees>16.895202</LongitudeDegrees>
            </Position>
            <AltitudeMeters>858.0</AltitudeMeters>
            <DistanceMeters>44086.068354589</DistanceMeters>
          </Trackpoint>
          <Trackpoint>
            <Position>
              <LatitudeDegrees>50.214817</LatitudeDegrees>
              <LongitudeDegrees>16.895068</LongitudeDegrees>
            </Position>
            <AltitudeMeters>857.0</AltitudeMeters>
            <DistanceMeters>44096.143427259</DistanceMeters>
          </Trackpoint>
          <Trackpoint>
            <Position>
              <LatitudeDegrees>50.214822</LatitudeDegrees>
              <LongitudeDegrees>16.895008</LongitudeDegrees>
            </Position>
            <AltitudeMeters>857.0</AltitudeMeters>
            <DistanceMeters>44100.45223651</DistanceMeters>
          </Trackpoint>
          <Trackpoint>
            <Position>
              <LatitudeDegrees>50.21483</LatitudeDegrees>
              <LongitudeDegrees>16.89497</LongitudeDegrees>
            </Position>
            <AltitudeMeters>857.0</AltitudeMeters>
            <DistanceMeters>44103.303037942</DistanceMeters>
          </Trackpoint>
          <Trackpoint>
            <Position>
              <LatitudeDegrees>50.214835</LatitudeDegrees>
              <LongitudeDegrees>16.894928</LongitudeDegrees>
            </Position>
            <AltitudeMeters>857.0</AltitudeMeters>
            <DistanceMeters>44106.345377231</DistanceMeters>
          </Trackpoint>
          <Trackpoint>
            <Position>
              <LatitudeDegrees>50.214838</LatitudeDegrees>
              <LongitudeDegrees>16.894885</LongitudeDegrees>
            </Position>
            <AltitudeMeters>858.0</AltitudeMeters>
            <DistanceMeters>44109.424594708</DistanceMeters>
          </Trackpoint>
          <Trackpoint>
            <Position>
              <LatitudeDegrees>50.214845</LatitudeDegrees>
              <LongitudeDegrees>16.89484</LongitudeDegrees>
            </Position>
            <AltitudeMeters>858.0</AltitudeMeters>
            <DistanceMeters>44112.721898461</DistanceMeters>
          </Trackpoint>
          <Trackpoint>
            <Position>
              <LatitudeDegrees>50.214853</LatitudeDegrees>
              <LongitudeDegrees>16.894798</LongitudeDegrees>
            </Position>
            <AltitudeMeters>858.0</AltitudeMeters>
            <DistanceMeters>44115.841902051</DistanceMeters>
          </Trackpoint>
          <Trackpoint>
            <Position>
              <LatitudeDegrees>50.21486</LatitudeDegrees>
              <LongitudeDegrees>16.89476</LongitudeDegrees>
            </Position>
            <AltitudeMeters>858.0</AltitudeMeters>
            <DistanceMeters>44118.657644781</DistanceMeters>
          </Trackpoint>
          <Trackpoint>
            <Position>
              <LatitudeDegrees>50.214862</LatitudeDegrees>
              <LongitudeDegrees>16.894717</LongitudeDegrees>
            </Position>
            <AltitudeMeters>858.0</AltitudeMeters>
            <DistanceMeters>44121.729522038</DistanceMeters>
          </Trackpoint>
          <Trackpoint>
            <Position>
              <LatitudeDegrees>50.214862</LatitudeDegrees>
              <LongitudeDegrees>16.894675</LongitudeDegrees>
            </Position>
            <AltitudeMeters>857.0</AltitudeMeters>
            <DistanceMeters>44124.722486427</DistanceMeters>
          </Trackpoint>
          <Trackpoint>
            <Position>
              <LatitudeDegrees>50.214862</LatitudeDegrees>
              <LongitudeDegrees>16.894633</LongitudeDegrees>
            </Position>
            <AltitudeMeters>857.0</AltitudeMeters>
            <DistanceMeters>44127.715450816</DistanceMeters>
          </Trackpoint>
          <Trackpoint>
            <Position>
              <LatitudeDegrees>50.214858</LatitudeDegrees>
              <LongitudeDegrees>16.89459</LongitudeDegrees>
            </Position>
            <AltitudeMeters>857.0</AltitudeMeters>
            <DistanceMeters>44130.812213833</DistanceMeters>
          </Trackpoint>
          <Trackpoint>
            <Position>
              <LatitudeDegrees>50.214885</LatitudeDegrees>
              <LongitudeDegrees>16.894438</LongitudeDegrees>
            </Position>
            <AltitudeMeters>856.0</AltitudeMeters>
            <DistanceMeters>44142.047088488</DistanceMeters>
          </Trackpoint>
          <Trackpoint>
            <Position>
              <LatitudeDegrees>50.214905</LatitudeDegrees>
              <LongitudeDegrees>16.894363</LongitudeDegrees>
            </Position>
            <AltitudeMeters>856.0</AltitudeMeters>
            <DistanceMeters>44147.833583408</DistanceMeters>
          </Trackpoint>
          <Trackpoint>
            <Position>
              <LatitudeDegrees>50.21493</LatitudeDegrees>
              <LongitudeDegrees>16.894255</LongitudeDegrees>
            </Position>
            <AltitudeMeters>856.0</AltitudeMeters>
            <DistanceMeters>44156.01361192</DistanceMeters>
          </Trackpoint>
          <Trackpoint>
            <Position>
              <LatitudeDegrees>50.214932</LatitudeDegrees>
              <LongitudeDegrees>16.89422</LongitudeDegrees>
            </Position>
            <AltitudeMeters>856.0</AltitudeMeters>
            <DistanceMeters>44158.516984255</DistanceMeters>
          </Trackpoint>
          <Trackpoint>
            <Position>
              <LatitudeDegrees>50.214938</LatitudeDegrees>
              <LongitudeDegrees>16.894178</LongitudeDegrees>
            </Position>
            <AltitudeMeters>857.0</AltitudeMeters>
            <DistanceMeters>44161.581503712</DistanceMeters>
          </Trackpoint>
          <Trackpoint>
            <Position>
              <LatitudeDegrees>50.214943</LatitudeDegrees>
              <LongitudeDegrees>16.894145</LongitudeDegrees>
            </Position>
            <AltitudeMeters>857.0</AltitudeMeters>
            <DistanceMeters>44163.996753054</DistanceMeters>
          </Trackpoint>
          <Trackpoint>
            <Position>
              <LatitudeDegrees>50.214948</LatitudeDegrees>
              <LongitudeDegrees>16.894108</LongitudeDegrees>
            </Position>
            <AltitudeMeters>857.0</AltitudeMeters>
            <DistanceMeters>44166.691225444</DistanceMeters>
          </Trackpoint>
          <Trackpoint>
            <Position>
              <LatitudeDegrees>50.21495</LatitudeDegrees>
              <LongitudeDegrees>16.894067</LongitudeDegrees>
            </Position>
            <AltitudeMeters>857.0</AltitudeMeters>
            <DistanceMeters>44169.621686619</DistanceMeters>
          </Trackpoint>
          <Trackpoint>
            <Position>
              <LatitudeDegrees>50.214953</LatitudeDegrees>
              <LongitudeDegrees>16.89403</LongitudeDegrees>
            </Position>
            <AltitudeMeters>857.0</AltitudeMeters>
            <DistanceMeters>44172.279038643</DistanceMeters>
          </Trackpoint>
          <Trackpoint>
            <Position>
              <LatitudeDegrees>50.214962</LatitudeDegrees>
              <LongitudeDegrees>16.893995</LongitudeDegrees>
            </Position>
            <AltitudeMeters>857.0</AltitudeMeters>
            <DistanceMeters>44174.966800008</DistanceMeters>
          </Trackpoint>
          <Trackpoint>
            <Position>
              <LatitudeDegrees>50.21497</LatitudeDegrees>
              <LongitudeDegrees>16.893957</LongitudeDegrees>
            </Position>
            <AltitudeMeters>857.0</AltitudeMeters>
            <DistanceMeters>44177.81443212</DistanceMeters>
          </Trackpoint>
          <Trackpoint>
            <Position>
              <LatitudeDegrees>50.214978</LatitudeDegrees>
              <LongitudeDegrees>16.893922</LongitudeDegrees>
            </Position>
            <AltitudeMeters>857.0</AltitudeMeters>
            <DistanceMeters>44180.461570069</DistanceMeters>
          </Trackpoint>
          <Trackpoint>
            <Position>
              <LatitudeDegrees>50.21499</LatitudeDegrees>
              <LongitudeDegrees>16.893887</LongitudeDegrees>
            </Position>
            <AltitudeMeters>857.0</AltitudeMeters>
            <DistanceMeters>44183.290111695</DistanceMeters>
          </Trackpoint>
          <Trackpoint>
            <Position>
              <LatitudeDegrees>50.214993</LatitudeDegrees>
              <LongitudeDegrees>16.893842</LongitudeDegrees>
            </Position>
            <AltitudeMeters>857.0</AltitudeMeters>
            <DistanceMeters>44186.512624366</DistanceMeters>
          </Trackpoint>
          <Trackpoint>
            <Position>
              <LatitudeDegrees>50.214997</LatitudeDegrees>
              <LongitudeDegrees>16.893797</LongitudeDegrees>
            </Position>
            <AltitudeMeters>857.0</AltitudeMeters>
            <DistanceMeters>44189.749117634</DistanceMeters>
          </Trackpoint>
          <Trackpoint>
            <Position>
              <LatitudeDegrees>50.214992</LatitudeDegrees>
              <LongitudeDegrees>16.893647</LongitudeDegrees>
            </Position>
            <AltitudeMeters>858.0</AltitudeMeters>
            <DistanceMeters>44200.447116926</DistanceMeters>
          </Trackpoint>
          <Trackpoint>
            <Position>
              <LatitudeDegrees>50.215002</LatitudeDegrees>
              <LongitudeDegrees>16.893505</LongitudeDegrees>
            </Position>
            <AltitudeMeters>858.0</AltitudeMeters>
            <DistanceMeters>44210.621633934</DistanceMeters>
          </Trackpoint>
          <Trackpoint>
            <Position>
              <LatitudeDegrees>50.214988</LatitudeDegrees>
              <LongitudeDegrees>16.893348</LongitudeDegrees>
            </Position>
            <AltitudeMeters>859.0</AltitudeMeters>
            <DistanceMeters>44221.911831412</DistanceMeters>
          </Trackpoint>
          <Trackpoint>
            <Position>
              <LatitudeDegrees>50.21496</LatitudeDegrees>
              <LongitudeDegrees>16.893212</LongitudeDegrees>
            </Position>
            <AltitudeMeters>859.0</AltitudeMeters>
            <DistanceMeters>44232.0872359</DistanceMeters>
          </Trackpoint>
          <Trackpoint>
            <Position>
              <LatitudeDegrees>50.214897</LatitudeDegrees>
              <LongitudeDegrees>16.893112</LongitudeDegrees>
            </Position>
            <AltitudeMeters>860.0</AltitudeMeters>
            <DistanceMeters>44242.082221428</DistanceMeters>
          </Trackpoint>
          <Trackpoint>
            <Position>
              <LatitudeDegrees>50.214825</LatitudeDegrees>
              <LongitudeDegrees>16.893018</LongitudeDegrees>
            </Position>
            <AltitudeMeters>860.0</AltitudeMeters>
            <DistanceMeters>44252.524788312</DistanceMeters>
          </Trackpoint>
          <Trackpoint>
            <Position>
              <LatitudeDegrees>50.214773</LatitudeDegrees>
              <LongitudeDegrees>16.892923</LongitudeDegrees>
            </Position>
            <AltitudeMeters>859.0</AltitudeMeters>
            <DistanceMeters>44261.428948642</DistanceMeters>
          </Trackpoint>
          <Trackpoint>
            <Position>
              <LatitudeDegrees>50.214762</LatitudeDegrees>
              <LongitudeDegrees>16.892893</LongitudeDegrees>
            </Position>
            <AltitudeMeters>859.0</AltitudeMeters>
            <DistanceMeters>44263.890489073</DistanceMeters>
          </Trackpoint>
          <Trackpoint>
            <Position>
              <LatitudeDegrees>50.214743</LatitudeDegrees>
              <LongitudeDegrees>16.892873</LongitudeDegrees>
            </Position>
            <AltitudeMeters>860.0</AltitudeMeters>
            <DistanceMeters>44266.438552056</DistanceMeters>
          </Trackpoint>
          <Trackpoint>
            <Position>
              <LatitudeDegrees>50.21471</LatitudeDegrees>
              <LongitudeDegrees>16.892738</LongitudeDegrees>
            </Position>
            <AltitudeMeters>860.0</AltitudeMeters>
            <DistanceMeters>44276.73130955</DistanceMeters>
          </Trackpoint>
          <Trackpoint>
            <Position>
              <LatitudeDegrees>50.2147</LatitudeDegrees>
              <LongitudeDegrees>16.892687</LongitudeDegrees>
            </Position>
            <AltitudeMeters>860.0</AltitudeMeters>
            <DistanceMeters>44280.530001714</DistanceMeters>
          </Trackpoint>
          <Trackpoint>
            <Position>
              <LatitudeDegrees>50.214692</LatitudeDegrees>
              <LongitudeDegrees>16.892637</LongitudeDegrees>
            </Position>
            <AltitudeMeters>859.0</AltitudeMeters>
            <DistanceMeters>44284.200543099</DistanceMeters>
          </Trackpoint>
          <Trackpoint>
            <Position>
              <LatitudeDegrees>50.214685</LatitudeDegrees>
              <LongitudeDegrees>16.892565</LongitudeDegrees>
            </Position>
            <AltitudeMeters>859.0</AltitudeMeters>
            <DistanceMeters>44289.387992164</DistanceMeters>
          </Trackpoint>
          <Trackpoint>
            <Position>
              <LatitudeDegrees>50.21468</LatitudeDegrees>
              <LongitudeDegrees>16.892518</LongitudeDegrees>
            </Position>
            <AltitudeMeters>859.0</AltitudeMeters>
            <DistanceMeters>44292.782454941</DistanceMeters>
          </Trackpoint>
          <Trackpoint>
            <Position>
              <LatitudeDegrees>50.214672</LatitudeDegrees>
              <LongitudeDegrees>16.892478</LongitudeDegrees>
            </Position>
            <AltitudeMeters>859.0</AltitudeMeters>
            <DistanceMeters>44295.766354298</DistanceMeters>
          </Trackpoint>
          <Trackpoint>
            <Position>
              <LatitudeDegrees>50.214665</LatitudeDegrees>
              <LongitudeDegrees>16.892425</LongitudeDegrees>
            </Position>
            <AltitudeMeters>859.0</AltitudeMeters>
            <DistanceMeters>44299.620504755</DistanceMeters>
          </Trackpoint>
          <Trackpoint>
            <Position>
              <LatitudeDegrees>50.214662</LatitudeDegrees>
              <LongitudeDegrees>16.892397</LongitudeDegrees>
            </Position>
            <AltitudeMeters>858.0</AltitudeMeters>
            <DistanceMeters>44301.640800415</DistanceMeters>
          </Trackpoint>
          <Trackpoint>
            <Position>
              <LatitudeDegrees>50.214655</LatitudeDegrees>
              <LongitudeDegrees>16.892348</LongitudeDegrees>
            </Position>
            <AltitudeMeters>858.0</AltitudeMeters>
            <DistanceMeters>44305.217896769</DistanceMeters>
          </Trackpoint>
          <Trackpoint>
            <Position>
              <LatitudeDegrees>50.214645</LatitudeDegrees>
              <LongitudeDegrees>16.892308</LongitudeDegrees>
            </Position>
            <AltitudeMeters>858.0</AltitudeMeters>
            <DistanceMeters>44308.276517241</DistanceMeters>
          </Trackpoint>
          <Trackpoint>
            <Position>
              <LatitudeDegrees>50.214638</LatitudeDegrees>
              <LongitudeDegrees>16.892265</LongitudeDegrees>
            </Position>
            <AltitudeMeters>858.0</AltitudeMeters>
            <DistanceMeters>44311.438208976</DistanceMeters>
          </Trackpoint>
          <Trackpoint>
            <Position>
              <LatitudeDegrees>50.21463</LatitudeDegrees>
              <LongitudeDegrees>16.892227</LongitudeDegrees>
            </Position>
            <AltitudeMeters>858.0</AltitudeMeters>
            <DistanceMeters>44314.289010407</DistanceMeters>
          </Trackpoint>
          <Trackpoint>
            <Position>
              <LatitudeDegrees>50.214622</LatitudeDegrees>
              <LongitudeDegrees>16.892167</LongitudeDegrees>
            </Position>
            <AltitudeMeters>857.0</AltitudeMeters>
            <DistanceMeters>44318.654037474</DistanceMeters>
          </Trackpoint>
          <Trackpoint>
            <Position>
              <LatitudeDegrees>50.214622</LatitudeDegrees>
              <LongitudeDegrees>16.892138</LongitudeDegrees>
            </Position>
            <AltitudeMeters>857.0</AltitudeMeters>
            <DistanceMeters>44320.718546152</DistanceMeters>
          </Trackpoint>
          <Trackpoint>
            <Position>
              <LatitudeDegrees>50.214625</LatitudeDegrees>
              <LongitudeDegrees>16.892088</LongitudeDegrees>
            </Position>
            <AltitudeMeters>857.0</AltitudeMeters>
            <DistanceMeters>44324.294380075</DistanceMeters>
          </Trackpoint>
          <Trackpoint>
            <Position>
              <LatitudeDegrees>50.214618</LatitudeDegrees>
              <LongitudeDegrees>16.892012</LongitudeDegrees>
            </Position>
            <AltitudeMeters>857.0</AltitudeMeters>
            <DistanceMeters>44329.763165423</DistanceMeters>
          </Trackpoint>
          <Trackpoint>
            <Position>
              <LatitudeDegrees>50.21461</LatitudeDegrees>
              <LongitudeDegrees>16.891962</LongitudeDegrees>
            </Position>
            <AltitudeMeters>857.0</AltitudeMeters>
            <DistanceMeters>44333.433706807</DistanceMeters>
          </Trackpoint>
          <Trackpoint>
            <Position>
              <LatitudeDegrees>50.2146</LatitudeDegrees>
              <LongitudeDegrees>16.891917</LongitudeDegrees>
            </Position>
            <AltitudeMeters>857.0</AltitudeMeters>
            <DistanceMeters>44336.825508303</DistanceMeters>
          </Trackpoint>
          <Trackpoint>
            <Position>
              <LatitudeDegrees>50.214597</LatitudeDegrees>
              <LongitudeDegrees>16.891873</LongitudeDegrees>
            </Position>
            <AltitudeMeters>856.0</AltitudeMeters>
            <DistanceMeters>44339.97718787</DistanceMeters>
          </Trackpoint>
          <Trackpoint>
            <Position>
              <LatitudeDegrees>50.214592</LatitudeDegrees>
              <LongitudeDegrees>16.891828</LongitudeDegrees>
            </Position>
            <AltitudeMeters>856.0</AltitudeMeters>
            <DistanceMeters>44343.230378548</DistanceMeters>
          </Trackpoint>
          <Trackpoint>
            <Position>
              <LatitudeDegrees>50.214585</LatitudeDegrees>
              <LongitudeDegrees>16.89178</LongitudeDegrees>
            </Position>
            <AltitudeMeters>856.0</AltitudeMeters>
            <DistanceMeters>44346.737366446</DistanceMeters>
          </Trackpoint>
          <Trackpoint>
            <Position>
              <LatitudeDegrees>50.214582</LatitudeDegrees>
              <LongitudeDegrees>16.891735</LongitudeDegrees>
            </Position>
            <AltitudeMeters>856.0</AltitudeMeters>
            <DistanceMeters>44349.959879117</DistanceMeters>
          </Trackpoint>
          <Trackpoint>
            <Position>
              <LatitudeDegrees>50.214582</LatitudeDegrees>
              <LongitudeDegrees>16.891695</LongitudeDegrees>
            </Position>
            <AltitudeMeters>856.0</AltitudeMeters>
            <DistanceMeters>44352.807511229</DistanceMeters>
          </Trackpoint>
          <Trackpoint>
            <Position>
              <LatitudeDegrees>50.214572</LatitudeDegrees>
              <LongitudeDegrees>16.891547</LongitudeDegrees>
            </Position>
            <AltitudeMeters>856.0</AltitudeMeters>
            <DistanceMeters>44363.407143822</DistanceMeters>
          </Trackpoint>
          <Trackpoint>
            <Position>
              <LatitudeDegrees>50.214557</LatitudeDegrees>
              <LongitudeDegrees>16.891415</LongitudeDegrees>
            </Position>
            <AltitudeMeters>856.0</AltitudeMeters>
            <DistanceMeters>44372.956264825</DistanceMeters>
          </Trackpoint>
          <Trackpoint>
            <Position>
              <LatitudeDegrees>50.214555</LatitudeDegrees>
              <LongitudeDegrees>16.891368</LongitudeDegrees>
            </Position>
            <AltitudeMeters>856.0</AltitudeMeters>
            <DistanceMeters>44376.310586702</DistanceMeters>
          </Trackpoint>
          <Trackpoint>
            <Position>
              <LatitudeDegrees>50.21455</LatitudeDegrees>
              <LongitudeDegrees>16.891327</LongitudeDegrees>
            </Position>
            <AltitudeMeters>857.0</AltitudeMeters>
            <DistanceMeters>44379.283875258</DistanceMeters>
          </Trackpoint>
          <Trackpoint>
            <Position>
              <LatitudeDegrees>50.214545</LatitudeDegrees>
              <LongitudeDegrees>16.891282</LongitudeDegrees>
            </Position>
            <AltitudeMeters>857.0</AltitudeMeters>
            <DistanceMeters>44382.537065937</DistanceMeters>
          </Trackpoint>
          <Trackpoint>
            <Position>
              <LatitudeDegrees>50.214532</LatitudeDegrees>
              <LongitudeDegrees>16.891237</LongitudeDegrees>
            </Position>
            <AltitudeMeters>857.0</AltitudeMeters>
            <DistanceMeters>44386.053054368</DistanceMeters>
          </Trackpoint>
          <Trackpoint>
            <Position>
              <LatitudeDegrees>50.214507</LatitudeDegrees>
              <LongitudeDegrees>16.891083</LongitudeDegrees>
            </Position>
            <AltitudeMeters>857.0</AltitudeMeters>
            <DistanceMeters>44397.368817002</DistanceMeters>
          </Trackpoint>
          <Trackpoint>
            <Position>
              <LatitudeDegrees>50.214507</LatitudeDegrees>
              <LongitudeDegrees>16.891038</LongitudeDegrees>
            </Position>
            <AltitudeMeters>857.0</AltitudeMeters>
            <DistanceMeters>44400.575880623</DistanceMeters>
          </Trackpoint>
          <Trackpoint>
            <Position>
              <LatitudeDegrees>50.214505</LatitudeDegrees>
              <LongitudeDegrees>16.890993</LongitudeDegrees>
            </Position>
            <AltitudeMeters>857.0</AltitudeMeters>
            <DistanceMeters>44403.787164992</DistanceMeters>
          </Trackpoint>
          <Trackpoint>
            <Position>
              <LatitudeDegrees>50.214497</LatitudeDegrees>
              <LongitudeDegrees>16.890948</LongitudeDegrees>
            </Position>
            <AltitudeMeters>857.0</AltitudeMeters>
            <DistanceMeters>44407.113099995</DistanceMeters>
          </Trackpoint>
          <Trackpoint>
            <Position>
              <LatitudeDegrees>50.214487</LatitudeDegrees>
              <LongitudeDegrees>16.890907</LongitudeDegrees>
            </Position>
            <AltitudeMeters>857.0</AltitudeMeters>
            <DistanceMeters>44410.23888673</DistanceMeters>
          </Trackpoint>
          <Trackpoint>
            <Position>
              <LatitudeDegrees>50.214482</LatitudeDegrees>
              <LongitudeDegrees>16.890863</LongitudeDegrees>
            </Position>
            <AltitudeMeters>857.0</AltitudeMeters>
            <DistanceMeters>44413.423345215</DistanceMeters>
          </Trackpoint>
          <Trackpoint>
            <Position>
              <LatitudeDegrees>50.214457</LatitudeDegrees>
              <LongitudeDegrees>16.890758</LongitudeDegrees>
            </Position>
            <AltitudeMeters>857.0</AltitudeMeters>
            <DistanceMeters>44421.403326361</DistanceMeters>
          </Trackpoint>
          <Trackpoint>
            <Position>
              <LatitudeDegrees>50.214445</LatitudeDegrees>
              <LongitudeDegrees>16.890717</LongitudeDegrees>
            </Position>
            <AltitudeMeters>858.0</AltitudeMeters>
            <DistanceMeters>44424.61461073</DistanceMeters>
          </Trackpoint>
          <Trackpoint>
            <Position>
              <LatitudeDegrees>50.21444</LatitudeDegrees>
              <LongitudeDegrees>16.89068</LongitudeDegrees>
            </Position>
            <AltitudeMeters>858.0</AltitudeMeters>
            <DistanceMeters>44427.307406932</DistanceMeters>
          </Trackpoint>
          <Trackpoint>
            <Position>
              <LatitudeDegrees>50.21444</LatitudeDegrees>
              <LongitudeDegrees>16.890642</LongitudeDegrees>
            </Position>
            <AltitudeMeters>858.0</AltitudeMeters>
            <DistanceMeters>44430.011914635</DistanceMeters>
          </Trackpoint>
          <Trackpoint>
            <Position>
              <LatitudeDegrees>50.214442</LatitudeDegrees>
              <LongitudeDegrees>16.890607</LongitudeDegrees>
            </Position>
            <AltitudeMeters>858.0</AltitudeMeters>
            <DistanceMeters>44432.515286971</DistanceMeters>
          </Trackpoint>
          <Trackpoint>
            <Position>
              <LatitudeDegrees>50.21444</LatitudeDegrees>
              <LongitudeDegrees>16.89057</LongitudeDegrees>
            </Position>
            <AltitudeMeters>858.0</AltitudeMeters>
            <DistanceMeters>44435.159011459</DistanceMeters>
          </Trackpoint>
          <Trackpoint>
            <Position>
              <LatitudeDegrees>50.214433</LatitudeDegrees>
              <LongitudeDegrees>16.890502</LongitudeDegrees>
            </Position>
            <AltitudeMeters>858.0</AltitudeMeters>
            <DistanceMeters>44440.065556455</DistanceMeters>
          </Trackpoint>
          <Trackpoint>
            <Position>
              <LatitudeDegrees>50.214422</LatitudeDegrees>
              <LongitudeDegrees>16.890477</LongitudeDegrees>
            </Position>
            <AltitudeMeters>858.0</AltitudeMeters>
            <DistanceMeters>44442.228327733</DistanceMeters>
          </Trackpoint>
          <Trackpoint>
            <Position>
              <LatitudeDegrees>50.214477</LatitudeDegrees>
              <LongitudeDegrees>16.890353</LongitudeDegrees>
            </Position>
            <AltitudeMeters>860.0</AltitudeMeters>
            <DistanceMeters>44452.974332458</DistanceMeters>
          </Trackpoint>
          <Trackpoint>
            <Position>
              <LatitudeDegrees>50.21456</LatitudeDegrees>
              <LongitudeDegrees>16.890295</LongitudeDegrees>
            </Position>
            <AltitudeMeters>861.0</AltitudeMeters>
            <DistanceMeters>44463.093673686</DistanceMeters>
          </Trackpoint>
          <Trackpoint>
            <Position>
              <LatitudeDegrees>50.21465</LatitudeDegrees>
              <LongitudeDegrees>16.890245</LongitudeDegrees>
            </Position>
            <AltitudeMeters>861.0</AltitudeMeters>
            <DistanceMeters>44473.72478072</DistanceMeters>
          </Trackpoint>
          <Trackpoint>
            <Position>
              <LatitudeDegrees>50.214733</LatitudeDegrees>
              <LongitudeDegrees>16.890183</LongitudeDegrees>
            </Position>
            <AltitudeMeters>863.0</AltitudeMeters>
            <DistanceMeters>44483.963881633</DistanceMeters>
          </Trackpoint>
          <Trackpoint>
            <Position>
              <LatitudeDegrees>50.214813</LatitudeDegrees>
              <LongitudeDegrees>16.890098</LongitudeDegrees>
            </Position>
            <AltitudeMeters>864.0</AltitudeMeters>
            <DistanceMeters>44494.731293182</DistanceMeters>
          </Trackpoint>
          <Trackpoint>
            <Position>
              <LatitudeDegrees>50.214902</LatitudeDegrees>
              <LongitudeDegrees>16.890062</LongitudeDegrees>
            </Position>
            <AltitudeMeters>866.0</AltitudeMeters>
            <DistanceMeters>44504.964218788</DistanceMeters>
          </Trackpoint>
          <Trackpoint>
            <Position>
              <LatitudeDegrees>50.214983</LatitudeDegrees>
              <LongitudeDegrees>16.889995</LongitudeDegrees>
            </Position>
            <AltitudeMeters>867.0</AltitudeMeters>
            <DistanceMeters>44515.164441373</DistanceMeters>
          </Trackpoint>
          <Trackpoint>
            <Position>
              <LatitudeDegrees>50.215033</LatitudeDegrees>
              <LongitudeDegrees>16.889875</LongitudeDegrees>
            </Position>
            <AltitudeMeters>869.0</AltitudeMeters>
            <DistanceMeters>44525.363335948</DistanceMeters>
          </Trackpoint>
          <Trackpoint>
            <Position>
              <LatitudeDegrees>50.215103</LatitudeDegrees>
              <LongitudeDegrees>16.88978</LongitudeDegrees>
            </Position>
            <AltitudeMeters>870.0</AltitudeMeters>
            <DistanceMeters>44535.682379578</DistanceMeters>
          </Trackpoint>
          <Trackpoint>
            <Position>
              <LatitudeDegrees>50.215175</LatitudeDegrees>
              <LongitudeDegrees>16.88969</LongitudeDegrees>
            </Position>
            <AltitudeMeters>871.0</AltitudeMeters>
            <DistanceMeters>44545.943944829</DistanceMeters>
          </Trackpoint>
          <Trackpoint>
            <Position>
              <LatitudeDegrees>50.21527</LatitudeDegrees>
              <LongitudeDegrees>16.889738</LongitudeDegrees>
            </Position>
            <AltitudeMeters>874.0</AltitudeMeters>
            <DistanceMeters>44557.056789895</DistanceMeters>
          </Trackpoint>
          <Trackpoint>
            <Position>
              <LatitudeDegrees>50.215335</LatitudeDegrees>
              <LongitudeDegrees>16.889638</LongitudeDegrees>
            </Position>
            <AltitudeMeters>877.0</AltitudeMeters>
            <DistanceMeters>44567.209094684</DistanceMeters>
          </Trackpoint>
          <Trackpoint>
            <Position>
              <LatitudeDegrees>50.215428</LatitudeDegrees>
              <LongitudeDegrees>16.88959</LongitudeDegrees>
            </Position>
            <AltitudeMeters>879.0</AltitudeMeters>
            <DistanceMeters>44578.110278381</DistanceMeters>
          </Trackpoint>
          <Trackpoint>
            <Position>
              <LatitudeDegrees>50.215513</LatitudeDegrees>
              <LongitudeDegrees>16.889535</LongitudeDegrees>
            </Position>
            <AltitudeMeters>880.0</AltitudeMeters>
            <DistanceMeters>44588.349379294</DistanceMeters>
          </Trackpoint>
          <Trackpoint>
            <Position>
              <LatitudeDegrees>50.215585</LatitudeDegrees>
              <LongitudeDegrees>16.88943</LongitudeDegrees>
            </Position>
            <AltitudeMeters>880.0</AltitudeMeters>
            <DistanceMeters>44599.310454382</DistanceMeters>
          </Trackpoint>
          <Trackpoint>
            <Position>
              <LatitudeDegrees>50.215698</LatitudeDegrees>
              <LongitudeDegrees>16.889435</LongitudeDegrees>
            </Position>
            <AltitudeMeters>881.0</AltitudeMeters>
            <DistanceMeters>44611.892795191</DistanceMeters>
          </Trackpoint>
          <Trackpoint>
            <Position>
              <LatitudeDegrees>50.21571</LatitudeDegrees>
              <LongitudeDegrees>16.889277</LongitudeDegrees>
            </Position>
            <AltitudeMeters>881.0</AltitudeMeters>
            <DistanceMeters>44623.225303615</DistanceMeters>
          </Trackpoint>
          <Trackpoint>
            <Position>
              <LatitudeDegrees>50.2158</LatitudeDegrees>
              <LongitudeDegrees>16.889223</LongitudeDegrees>
            </Position>
            <AltitudeMeters>883.0</AltitudeMeters>
            <DistanceMeters>44633.956171931</DistanceMeters>
          </Trackpoint>
          <Trackpoint>
            <Position>
              <LatitudeDegrees>50.215888</LatitudeDegrees>
              <LongitudeDegrees>16.889158</LongitudeDegrees>
            </Position>
            <AltitudeMeters>886.0</AltitudeMeters>
            <DistanceMeters>44644.790050905</DistanceMeters>
          </Trackpoint>
          <Trackpoint>
            <Position>
              <LatitudeDegrees>50.21596</LatitudeDegrees>
              <LongitudeDegrees>16.889048</LongitudeDegrees>
            </Position>
            <AltitudeMeters>888.0</AltitudeMeters>
            <DistanceMeters>44655.997161739</DistanceMeters>
          </Trackpoint>
          <Trackpoint>
            <Position>
              <LatitudeDegrees>50.215997</LatitudeDegrees>
              <LongitudeDegrees>16.888908</LongitudeDegrees>
            </Position>
            <AltitudeMeters>888.0</AltitudeMeters>
            <DistanceMeters>44666.785519134</DistanceMeters>
          </Trackpoint>
          <Trackpoint>
            <Position>
              <LatitudeDegrees>50.215997</LatitudeDegrees>
              <LongitudeDegrees>16.888762</LongitudeDegrees>
            </Position>
            <AltitudeMeters>890.0</AltitudeMeters>
            <DistanceMeters>44677.184325096</DistanceMeters>
          </Trackpoint>
          <Trackpoint>
            <Position>
              <LatitudeDegrees>50.216087</LatitudeDegrees>
              <LongitudeDegrees>16.888808</LongitudeDegrees>
            </Position>
            <AltitudeMeters>891.0</AltitudeMeters>
            <DistanceMeters>44687.723297544</DistanceMeters>
          </Trackpoint>
          <Trackpoint>
            <Position>
              <LatitudeDegrees>50.216138</LatitudeDegrees>
              <LongitudeDegrees>16.888938</LongitudeDegrees>
            </Position>
            <AltitudeMeters>890.0</AltitudeMeters>
            <DistanceMeters>44698.583815879</DistanceMeters>
          </Trackpoint>
          <Trackpoint>
            <Position>
              <LatitudeDegrees>50.216167</LatitudeDegrees>
              <LongitudeDegrees>16.8888</LongitudeDegrees>
            </Position>
            <AltitudeMeters>887.0</AltitudeMeters>
            <DistanceMeters>44708.929078853</DistanceMeters>
          </Trackpoint>
          <Trackpoint>
            <Position>
              <LatitudeDegrees>50.216115</LatitudeDegrees>
              <LongitudeDegrees>16.888677</LongitudeDegrees>
            </Position>
            <AltitudeMeters>888.0</AltitudeMeters>
            <DistanceMeters>44719.42856328</DistanceMeters>
          </Trackpoint>
          <Trackpoint>
            <Position>
              <LatitudeDegrees>50.216095</LatitudeDegrees>
              <LongitudeDegrees>16.888562</LongitudeDegrees>
            </Position>
            <AltitudeMeters>894.0</AltitudeMeters>
            <DistanceMeters>44727.916316214</DistanceMeters>
          </Trackpoint>
          <Trackpoint>
            <Position>
              <LatitudeDegrees>50.21611</LatitudeDegrees>
              <LongitudeDegrees>16.888538</LongitudeDegrees>
            </Position>
            <AltitudeMeters>896.0</AltitudeMeters>
            <DistanceMeters>44730.30525077</DistanceMeters>
          </Trackpoint>
          <Trackpoint>
            <Position>
              <LatitudeDegrees>50.216187</LatitudeDegrees>
              <LongitudeDegrees>16.888437</LongitudeDegrees>
            </Position>
            <AltitudeMeters>896.0</AltitudeMeters>
            <DistanceMeters>44741.494217649</DistanceMeters>
          </Trackpoint>
          <Trackpoint>
            <Position>
              <LatitudeDegrees>50.216208</LatitudeDegrees>
              <LongitudeDegrees>16.888282</LongitudeDegrees>
            </Position>
            <AltitudeMeters>897.0</AltitudeMeters>
            <DistanceMeters>44752.778815028</DistanceMeters>
          </Trackpoint>
          <Trackpoint>
            <Position>
              <LatitudeDegrees>50.216218</LatitudeDegrees>
              <LongitudeDegrees>16.888228</LongitudeDegrees>
            </Position>
            <AltitudeMeters>897.0</AltitudeMeters>
            <DistanceMeters>44756.782361667</DistanceMeters>
          </Trackpoint>
          <Trackpoint>
            <Position>
              <LatitudeDegrees>50.216223</LatitudeDegrees>
              <LongitudeDegrees>16.8882</LongitudeDegrees>
            </Position>
            <AltitudeMeters>897.0</AltitudeMeters>
            <DistanceMeters>44758.853420892</DistanceMeters>
          </Trackpoint>
          <Trackpoint>
            <Position>
              <LatitudeDegrees>50.216213</LatitudeDegrees>
              <LongitudeDegrees>16.888172</LongitudeDegrees>
            </Position>
            <AltitudeMeters>897.0</AltitudeMeters>
            <DistanceMeters>44761.138018052</DistanceMeters>
          </Trackpoint>
          <Trackpoint>
            <Position>
              <LatitudeDegrees>50.216215</LatitudeDegrees>
              <LongitudeDegrees>16.88813</LongitudeDegrees>
            </Position>
            <AltitudeMeters>897.0</AltitudeMeters>
            <DistanceMeters>44764.137010572</DistanceMeters>
          </Trackpoint>
          <Trackpoint>
            <Position>
              <LatitudeDegrees>50.216225</LatitudeDegrees>
              <LongitudeDegrees>16.887983</LongitudeDegrees>
            </Position>
            <AltitudeMeters>897.0</AltitudeMeters>
            <DistanceMeters>44774.665696076</DistanceMeters>
          </Trackpoint>
          <Trackpoint>
            <Position>
              <LatitudeDegrees>50.216242</LatitudeDegrees>
              <LongitudeDegrees>16.88784</LongitudeDegrees>
            </Position>
            <AltitudeMeters>898.0</AltitudeMeters>
            <DistanceMeters>44785.02447971</DistanceMeters>
          </Trackpoint>
          <Trackpoint>
            <Position>
              <LatitudeDegrees>50.21626</LatitudeDegrees>
              <LongitudeDegrees>16.887695</LongitudeDegrees>
            </Position>
            <AltitudeMeters>898.0</AltitudeMeters>
            <DistanceMeters>44795.543726677</DistanceMeters>
          </Trackpoint>
          <Trackpoint>
            <Position>
              <LatitudeDegrees>50.216265</LatitudeDegrees>
              <LongitudeDegrees>16.887553</LongitudeDegrees>
            </Position>
            <AltitudeMeters>898.0</AltitudeMeters>
            <DistanceMeters>44805.671987554</DistanceMeters>
          </Trackpoint>
          <Trackpoint>
            <Position>
              <LatitudeDegrees>50.21628</LatitudeDegrees>
              <LongitudeDegrees>16.887408</LongitudeDegrees>
            </Position>
            <AltitudeMeters>898.0</AltitudeMeters>
            <DistanceMeters>44816.13356136</DistanceMeters>
          </Trackpoint>
          <Trackpoint>
            <Position>
              <LatitudeDegrees>50.216288</LatitudeDegrees>
              <LongitudeDegrees>16.887265</LongitudeDegrees>
            </Position>
            <AltitudeMeters>898.0</AltitudeMeters>
            <DistanceMeters>44826.356775373</DistanceMeters>
          </Trackpoint>
          <Trackpoint>
            <Position>
              <LatitudeDegrees>50.216267</LatitudeDegrees>
              <LongitudeDegrees>16.887115</LongitudeDegrees>
            </Position>
            <AltitudeMeters>899.0</AltitudeMeters>
            <DistanceMeters>44837.291868984</DistanceMeters>
          </Trackpoint>
          <Trackpoint>
            <Position>
              <LatitudeDegrees>50.216237</LatitudeDegrees>
              <LongitudeDegrees>16.886962</LongitudeDegrees>
            </Position>
            <AltitudeMeters>899.0</AltitudeMeters>
            <DistanceMeters>44848.688737833</DistanceMeters>
          </Trackpoint>
          <Trackpoint>
            <Position>
              <LatitudeDegrees>50.21626</LatitudeDegrees>
              <LongitudeDegrees>16.886818</LongitudeDegrees>
            </Position>
            <AltitudeMeters>899.0</AltitudeMeters>
            <DistanceMeters>44859.259365342</DistanceMeters>
          </Trackpoint>
          <Trackpoint>
            <Position>
              <LatitudeDegrees>50.216252</LatitudeDegrees>
              <LongitudeDegrees>16.88666</LongitudeDegrees>
            </Position>
            <AltitudeMeters>899.0</AltitudeMeters>
            <DistanceMeters>44870.547163117</DistanceMeters>
          </Trackpoint>
          <Trackpoint>
            <Position>
              <LatitudeDegrees>50.21624</LatitudeDegrees>
              <LongitudeDegrees>16.886513</LongitudeDegrees>
            </Position>
            <AltitudeMeters>898.0</AltitudeMeters>
            <DistanceMeters>44881.101974963</DistanceMeters>
          </Trackpoint>
          <Trackpoint>
            <Position>
              <LatitudeDegrees>50.216207</LatitudeDegrees>
              <LongitudeDegrees>16.886373</LongitudeDegrees>
            </Position>
            <AltitudeMeters>897.0</AltitudeMeters>
            <DistanceMeters>44891.727984367</DistanceMeters>
          </Trackpoint>
          <Trackpoint>
            <Position>
              <LatitudeDegrees>50.216152</LatitudeDegrees>
              <LongitudeDegrees>16.88625</LongitudeDegrees>
            </Position>
            <AltitudeMeters>899.0</AltitudeMeters>
            <DistanceMeters>44902.415004852</DistanceMeters>
          </Trackpoint>
          <Trackpoint>
            <Position>
              <LatitudeDegrees>50.21614</LatitudeDegrees>
              <LongitudeDegrees>16.886107</LongitudeDegrees>
            </Position>
            <AltitudeMeters>895.0</AltitudeMeters>
            <DistanceMeters>44912.686685006</DistanceMeters>
          </Trackpoint>
          <Trackpoint>
            <Position>
              <LatitudeDegrees>50.216147</LatitudeDegrees>
              <LongitudeDegrees>16.885962</LongitudeDegrees>
            </Position>
            <AltitudeMeters>894.0</AltitudeMeters>
            <DistanceMeters>44923.043289082</DistanceMeters>
          </Trackpoint>
          <Trackpoint>
            <Position>
              <LatitudeDegrees>50.216187</LatitudeDegrees>
              <LongitudeDegrees>16.885835</LongitudeDegrees>
            </Position>
            <AltitudeMeters>895.0</AltitudeMeters>
            <DistanceMeters>44933.124633753</DistanceMeters>
          </Trackpoint>
          <Trackpoint>
            <Position>
              <LatitudeDegrees>50.21618</LatitudeDegrees>
              <LongitudeDegrees>16.885693</LongitudeDegrees>
            </Position>
            <AltitudeMeters>894.0</AltitudeMeters>
            <DistanceMeters>44943.268040035</DistanceMeters>
          </Trackpoint>
          <Trackpoint>
            <Position>
              <LatitudeDegrees>50.216147</LatitudeDegrees>
              <LongitudeDegrees>16.885552</LongitudeDegrees>
            </Position>
            <AltitudeMeters>894.0</AltitudeMeters>
            <DistanceMeters>44953.960551333</DistanceMeters>
          </Trackpoint>
          <Trackpoint>
            <Position>
              <LatitudeDegrees>50.216107</LatitudeDegrees>
              <LongitudeDegrees>16.885422</LongitudeDegrees>
            </Position>
            <AltitudeMeters>895.0</AltitudeMeters>
            <DistanceMeters>44964.233989583</DistanceMeters>
          </Trackpoint>
          <Trackpoint>
            <Position>
              <LatitudeDegrees>50.216142</LatitudeDegrees>
              <LongitudeDegrees>16.885288</LongitudeDegrees>
            </Position>
            <AltitudeMeters>894.0</AltitudeMeters>
            <DistanceMeters>44974.541650785</DistanceMeters>
          </Trackpoint>
          <Trackpoint>
            <Position>
              <LatitudeDegrees>50.216133</LatitudeDegrees>
              <LongitudeDegrees>16.885142</LongitudeDegrees>
            </Position>
            <AltitudeMeters>893.0</AltitudeMeters>
            <DistanceMeters>44984.988108262</DistanceMeters>
          </Trackpoint>
          <Trackpoint>
            <Position>
              <LatitudeDegrees>50.216112</LatitudeDegrees>
              <LongitudeDegrees>16.885003</LongitudeDegrees>
            </Position>
            <AltitudeMeters>893.0</AltitudeMeters>
            <DistanceMeters>44995.159962365</DistanceMeters>
          </Trackpoint>
          <Trackpoint>
            <Position>
              <LatitudeDegrees>50.216037</LatitudeDegrees>
              <LongitudeDegrees>16.8849</LongitudeDegrees>
            </Position>
            <AltitudeMeters>893.0</AltitudeMeters>
            <DistanceMeters>45006.273213713</DistanceMeters>
          </Trackpoint>
          <Trackpoint>
            <Position>
              <LatitudeDegrees>50.215992</LatitudeDegrees>
              <LongitudeDegrees>16.884767</LongitudeDegrees>
            </Position>
            <AltitudeMeters>892.0</AltitudeMeters>
            <DistanceMeters>45016.98808151</DistanceMeters>
          </Trackpoint>
          <Trackpoint>
            <Position>
              <LatitudeDegrees>50.215987</LatitudeDegrees>
              <LongitudeDegrees>16.884625</LongitudeDegrees>
            </Position>
            <AltitudeMeters>891.0</AltitudeMeters>
            <DistanceMeters>45027.116342388</DistanceMeters>
          </Trackpoint>
          <Trackpoint>
            <Position>
              <LatitudeDegrees>50.216037</LatitudeDegrees>
              <LongitudeDegrees>16.884497</LongitudeDegrees>
            </Position>
            <AltitudeMeters>892.0</AltitudeMeters>
            <DistanceMeters>45037.797446534</DistanceMeters>
          </Trackpoint>
          <Trackpoint>
            <Position>
              <LatitudeDegrees>50.216067</LatitudeDegrees>
              <LongitudeDegrees>16.884333</LongitudeDegrees>
            </Position>
            <AltitudeMeters>893.0</AltitudeMeters>
            <DistanceMeters>45049.945637318</DistanceMeters>
          </Trackpoint>
          <Trackpoint>
            <Position>
              <LatitudeDegrees>50.21604</LatitudeDegrees>
              <LongitudeDegrees>16.884192</LongitudeDegrees>
            </Position>
            <AltitudeMeters>894.0</AltitudeMeters>
            <DistanceMeters>45060.427906642</DistanceMeters>
          </Trackpoint>
          <Trackpoint>
            <Position>
              <LatitudeDegrees>50.216077</LatitudeDegrees>
              <LongitudeDegrees>16.88404</LongitudeDegrees>
            </Position>
            <AltitudeMeters>893.0</AltitudeMeters>
            <DistanceMeters>45072.010255957</DistanceMeters>
          </Trackpoint>
          <Trackpoint>
            <Position>
              <LatitudeDegrees>50.216032</LatitudeDegrees>
              <LongitudeDegrees>16.883918</LongitudeDegrees>
            </Position>
            <AltitudeMeters>892.0</AltitudeMeters>
            <DistanceMeters>45082.03951423</DistanceMeters>
          </Trackpoint>
          <Trackpoint>
            <Position>
              <LatitudeDegrees>50.215993</LatitudeDegrees>
              <LongitudeDegrees>16.883873</LongitudeDegrees>
            </Position>
            <AltitudeMeters>888.0</AltitudeMeters>
            <DistanceMeters>45087.435157514</DistanceMeters>
          </Trackpoint>
          <Trackpoint>
            <Position>
              <LatitudeDegrees>50.215965</LatitudeDegrees>
              <LongitudeDegrees>16.883868</LongitudeDegrees>
            </Position>
            <AltitudeMeters>888.0</AltitudeMeters>
            <DistanceMeters>45090.571039089</DistanceMeters>
          </Trackpoint>
          <Trackpoint>
            <Position>
              <LatitudeDegrees>50.215977</LatitudeDegrees>
              <LongitudeDegrees>16.883723</LongitudeDegrees>
            </Position>
            <AltitudeMeters>888.0</AltitudeMeters>
            <DistanceMeters>45100.984163401</DistanceMeters>
          </Trackpoint>
          <Trackpoint>
            <Position>
              <LatitudeDegrees>50.215995</LatitudeDegrees>
              <LongitudeDegrees>16.88364</LongitudeDegrees>
            </Position>
            <AltitudeMeters>887.0</AltitudeMeters>
            <DistanceMeters>45107.227064163</DistanceMeters>
          </Trackpoint>
          <Trackpoint>
            <Position>
              <LatitudeDegrees>50.215962</LatitudeDegrees>
              <LongitudeDegrees>16.883682</LongitudeDegrees>
            </Position>
            <AltitudeMeters>885.0</AltitudeMeters>
            <DistanceMeters>45111.965077464</DistanceMeters>
          </Trackpoint>
          <Trackpoint>
            <Position>
              <LatitudeDegrees>50.215985</LatitudeDegrees>
              <LongitudeDegrees>16.883818</LongitudeDegrees>
            </Position>
            <AltitudeMeters>886.0</AltitudeMeters>
            <DistanceMeters>45121.983976094</DistanceMeters>
          </Trackpoint>
          <Trackpoint>
            <Position>
              <LatitudeDegrees>50.215942</LatitudeDegrees>
              <LongitudeDegrees>16.883948</LongitudeDegrees>
            </Position>
            <AltitudeMeters>887.0</AltitudeMeters>
            <DistanceMeters>45132.406635045</DistanceMeters>
          </Trackpoint>
          <Trackpoint>
            <Position>
              <LatitudeDegrees>50.215847</LatitudeDegrees>
              <LongitudeDegrees>16.883943</LongitudeDegrees>
            </Position>
            <AltitudeMeters>888.0</AltitudeMeters>
            <DistanceMeters>45142.986228493</DistanceMeters>
          </Trackpoint>
          <Trackpoint>
            <Position>
              <LatitudeDegrees>50.215825</LatitudeDegrees>
              <LongitudeDegrees>16.883798</LongitudeDegrees>
            </Position>
            <AltitudeMeters>888.0</AltitudeMeters>
            <DistanceMeters>45153.599908517</DistanceMeters>
          </Trackpoint>
          <Trackpoint>
            <Position>
              <LatitudeDegrees>50.21589</LatitudeDegrees>
              <LongitudeDegrees>16.883702</LongitudeDegrees>
            </Position>
            <AltitudeMeters>889.0</AltitudeMeters>
            <DistanceMeters>45163.55415529</DistanceMeters>
          </Trackpoint>
          <Trackpoint>
            <Position>
              <LatitudeDegrees>50.215967</LatitudeDegrees>
              <LongitudeDegrees>16.883607</LongitudeDegrees>
            </Position>
            <AltitudeMeters>889.0</AltitudeMeters>
            <DistanceMeters>45174.472720636</DistanceMeters>
          </Trackpoint>
          <Trackpoint>
            <Position>
              <LatitudeDegrees>50.216048</LatitudeDegrees>
              <LongitudeDegrees>16.883542</LongitudeDegrees>
            </Position>
            <AltitudeMeters>888.0</AltitudeMeters>
            <DistanceMeters>45184.607220597</DistanceMeters>
          </Trackpoint>
          <Trackpoint>
            <Position>
              <LatitudeDegrees>50.216127</LatitudeDegrees>
              <LongitudeDegrees>16.883488</LongitudeDegrees>
            </Position>
            <AltitudeMeters>887.0</AltitudeMeters>
            <DistanceMeters>45194.204448308</DistanceMeters>
          </Trackpoint>
          <Trackpoint>
            <Position>
              <LatitudeDegrees>50.216135</LatitudeDegrees>
              <LongitudeDegrees>16.883338</LongitudeDegrees>
            </Position>
            <AltitudeMeters>886.0</AltitudeMeters>
            <DistanceMeters>45204.924792654</DistanceMeters>
          </Trackpoint>
          <Trackpoint>
            <Position>
              <LatitudeDegrees>50.216133</LatitudeDegrees>
              <LongitudeDegrees>16.883198</LongitudeDegrees>
            </Position>
            <AltitudeMeters>884.0</AltitudeMeters>
            <DistanceMeters>45214.897618831</DistanceMeters>
          </Trackpoint>
          <Trackpoint>
            <Position>
              <LatitudeDegrees>50.216162</LatitudeDegrees>
              <LongitudeDegrees>16.88306</LongitudeDegrees>
            </Position>
            <AltitudeMeters>883.0</AltitudeMeters>
            <DistanceMeters>45225.242445361</DistanceMeters>
          </Trackpoint>
          <Trackpoint>
            <Position>
              <LatitudeDegrees>50.216</LatitudeDegrees>
              <LongitudeDegrees>16.882885</LongitudeDegrees>
            </Position>
            <AltitudeMeters>883.0</AltitudeMeters>
            <DistanceMeters>45247.161711938</DistanceMeters>
          </Trackpoint>
          <Trackpoint>
            <Position>
              <LatitudeDegrees>50.216107</LatitudeDegrees>
              <LongitudeDegrees>16.882832</LongitudeDegrees>
            </Position>
            <AltitudeMeters>884.0</AltitudeMeters>
            <DistanceMeters>45259.654743646</DistanceMeters>
          </Trackpoint>
          <Trackpoint>
            <Position>
              <LatitudeDegrees>50.216185</LatitudeDegrees>
              <LongitudeDegrees>16.882728</LongitudeDegrees>
            </Position>
            <AltitudeMeters>879.0</AltitudeMeters>
            <DistanceMeters>45271.066656828</DistanceMeters>
          </Trackpoint>
          <Trackpoint>
            <Position>
              <LatitudeDegrees>50.216182</LatitudeDegrees>
              <LongitudeDegrees>16.882585</LongitudeDegrees>
            </Position>
            <AltitudeMeters>868.0</AltitudeMeters>
            <DistanceMeters>45281.256693581</DistanceMeters>
          </Trackpoint>
          <Trackpoint>
            <Position>
              <LatitudeDegrees>50.216238</LatitudeDegrees>
              <LongitudeDegrees>16.882477</LongitudeDegrees>
            </Position>
            <AltitudeMeters>853.0</AltitudeMeters>
            <DistanceMeters>45291.156817304</DistanceMeters>
          </Trackpoint>
          <Trackpoint>
            <Position>
              <LatitudeDegrees>50.21616</LatitudeDegrees>
              <LongitudeDegrees>16.882403</LongitudeDegrees>
            </Position>
            <AltitudeMeters>857.0</AltitudeMeters>
            <DistanceMeters>45301.312679313</DistanceMeters>
          </Trackpoint>
          <Trackpoint>
            <Position>
              <LatitudeDegrees>50.216085</LatitudeDegrees>
              <LongitudeDegrees>16.88231</LongitudeDegrees>
            </Position>
            <AltitudeMeters>858.0</AltitudeMeters>
            <DistanceMeters>45311.969237921</DistanceMeters>
          </Trackpoint>
          <Trackpoint>
            <Position>
              <LatitudeDegrees>50.216035</LatitudeDegrees>
              <LongitudeDegrees>16.882183</LongitudeDegrees>
            </Position>
            <AltitudeMeters>858.0</AltitudeMeters>
            <DistanceMeters>45322.589296997</DistanceMeters>
          </Trackpoint>
          <Trackpoint>
            <Position>
              <LatitudeDegrees>50.216058</LatitudeDegrees>
              <LongitudeDegrees>16.88204</LongitudeDegrees>
            </Position>
            <AltitudeMeters>857.0</AltitudeMeters>
            <DistanceMeters>45333.090501382</DistanceMeters>
          </Trackpoint>
          <Trackpoint>
            <Position>
              <LatitudeDegrees>50.216048</LatitudeDegrees>
              <LongitudeDegrees>16.881893</LongitudeDegrees>
            </Position>
            <AltitudeMeters>855.0</AltitudeMeters>
            <DistanceMeters>45343.619186885</DistanceMeters>
          </Trackpoint>
          <Trackpoint>
            <Position>
              <LatitudeDegrees>50.216042</LatitudeDegrees>
              <LongitudeDegrees>16.881738</LongitudeDegrees>
            </Position>
            <AltitudeMeters>852.0</AltitudeMeters>
            <DistanceMeters>45354.678679886</DistanceMeters>
          </Trackpoint>
          <Trackpoint>
            <Position>
              <LatitudeDegrees>50.216017</LatitudeDegrees>
              <LongitudeDegrees>16.881598</LongitudeDegrees>
            </Position>
            <AltitudeMeters>848.0</AltitudeMeters>
            <DistanceMeters>45365.03048732</DistanceMeters>
          </Trackpoint>
          <Trackpoint>
            <Position>
              <LatitudeDegrees>50.216033</LatitudeDegrees>
              <LongitudeDegrees>16.881563</LongitudeDegrees>
            </Position>
            <AltitudeMeters>848.0</AltitudeMeters>
            <DistanceMeters>45368.093533096</DistanceMeters>
          </Trackpoint>
          <Trackpoint>
            <Position>
              <LatitudeDegrees>50.216038</LatitudeDegrees>
              <LongitudeDegrees>16.881418</LongitudeDegrees>
            </Position>
            <AltitudeMeters>846.0</AltitudeMeters>
            <DistanceMeters>45378.435303999</DistanceMeters>
          </Trackpoint>
          <Trackpoint>
            <Position>
              <LatitudeDegrees>50.215948</LatitudeDegrees>
              <LongitudeDegrees>16.881505</LongitudeDegrees>
            </Position>
            <AltitudeMeters>844.0</AltitudeMeters>
            <DistanceMeters>45390.214017616</DistanceMeters>
          </Trackpoint>
          <Trackpoint>
            <Position>
              <LatitudeDegrees>50.2159</LatitudeDegrees>
              <LongitudeDegrees>16.881522</LongitudeDegrees>
            </Position>
            <AltitudeMeters>843.0</AltitudeMeters>
            <DistanceMeters>45395.691877054</DistanceMeters>
          </Trackpoint>
          <Trackpoint>
            <Position>
              <LatitudeDegrees>50.215903</LatitudeDegrees>
              <LongitudeDegrees>16.88149</LongitudeDegrees>
            </Position>
            <AltitudeMeters>843.0</AltitudeMeters>
            <DistanceMeters>45397.994192166</DistanceMeters>
          </Trackpoint>
          <Trackpoint>
            <Position>
              <LatitudeDegrees>50.215883</LatitudeDegrees>
              <LongitudeDegrees>16.881477</LongitudeDegrees>
            </Position>
            <AltitudeMeters>842.0</AltitudeMeters>
            <DistanceMeters>45400.405699833</DistanceMeters>
          </Trackpoint>
          <Trackpoint>
            <Position>
              <LatitudeDegrees>50.215858</LatitudeDegrees>
              <LongitudeDegrees>16.881483</LongitudeDegrees>
            </Position>
            <AltitudeMeters>842.0</AltitudeMeters>
            <DistanceMeters>45403.221442563</DistanceMeters>
          </Trackpoint>
          <Trackpoint>
            <Position>
              <LatitudeDegrees>50.215862</LatitudeDegrees>
              <LongitudeDegrees>16.881447</LongitudeDegrees>
            </Position>
            <AltitudeMeters>842.0</AltitudeMeters>
            <DistanceMeters>45405.823856314</DistanceMeters>
          </Trackpoint>
          <Trackpoint>
            <Position>
              <LatitudeDegrees>50.21587</LatitudeDegrees>
              <LongitudeDegrees>16.881297</LongitudeDegrees>
            </Position>
            <AltitudeMeters>841.0</AltitudeMeters>
            <DistanceMeters>45416.54420066</DistanceMeters>
          </Trackpoint>
          <Trackpoint>
            <Position>
              <LatitudeDegrees>50.215878</LatitudeDegrees>
              <LongitudeDegrees>16.881265</LongitudeDegrees>
            </Position>
            <AltitudeMeters>840.0</AltitudeMeters>
            <DistanceMeters>45418.991023229</DistanceMeters>
          </Trackpoint>
          <Trackpoint>
            <Position>
              <LatitudeDegrees>50.215887</LatitudeDegrees>
              <LongitudeDegrees>16.881232</LongitudeDegrees>
            </Position>
            <AltitudeMeters>840.0</AltitudeMeters>
            <DistanceMeters>45421.544396526</DistanceMeters>
          </Trackpoint>
          <Trackpoint>
            <Position>
              <LatitudeDegrees>50.215932</LatitudeDegrees>
              <LongitudeDegrees>16.881175</LongitudeDegrees>
            </Position>
            <AltitudeMeters>839.0</AltitudeMeters>
            <DistanceMeters>45427.990822807</DistanceMeters>
          </Trackpoint>
          <Trackpoint>
            <Position>
              <LatitudeDegrees>50.215923</LatitudeDegrees>
              <LongitudeDegrees>16.881138</LongitudeDegrees>
            </Position>
            <AltitudeMeters>838.0</AltitudeMeters>
            <DistanceMeters>45430.809770708</DistanceMeters>
          </Trackpoint>
          <Trackpoint>
            <Position>
              <LatitudeDegrees>50.21592</LatitudeDegrees>
              <LongitudeDegrees>16.8811</LongitudeDegrees>
            </Position>
            <AltitudeMeters>838.0</AltitudeMeters>
            <DistanceMeters>45433.537550572</DistanceMeters>
          </Trackpoint>
          <Trackpoint>
            <Position>
              <LatitudeDegrees>50.215872</LatitudeDegrees>
              <LongitudeDegrees>16.881003</LongitudeDegrees>
            </Position>
            <AltitudeMeters>837.0</AltitudeMeters>
            <DistanceMeters>45442.270707255</DistanceMeters>
          </Trackpoint>
          <Trackpoint>
            <Position>
              <LatitudeDegrees>50.215875</LatitudeDegrees>
              <LongitudeDegrees>16.880862</LongitudeDegrees>
            </Position>
            <AltitudeMeters>834.0</AltitudeMeters>
            <DistanceMeters>45452.318406228</DistanceMeters>
          </Trackpoint>
          <Trackpoint>
            <Position>
              <LatitudeDegrees>50.215787</LatitudeDegrees>
              <LongitudeDegrees>16.880837</LongitudeDegrees>
            </Position>
            <AltitudeMeters>831.0</AltitudeMeters>
            <DistanceMeters>45462.27310657</DistanceMeters>
          </Trackpoint>
          <Trackpoint>
            <Position>
              <LatitudeDegrees>50.215755</LatitudeDegrees>
              <LongitudeDegrees>16.880815</LongitudeDegrees>
            </Position>
            <AltitudeMeters>827.0</AltitudeMeters>
            <DistanceMeters>45466.165723719</DistanceMeters>
          </Trackpoint>
          <Trackpoint>
            <Position>
              <LatitudeDegrees>50.21576</LatitudeDegrees>
              <LongitudeDegrees>16.880783</LongitudeDegrees>
            </Position>
            <AltitudeMeters>825.0</AltitudeMeters>
            <DistanceMeters>45468.512710432</DistanceMeters>
          </Trackpoint>
          <Trackpoint>
            <Position>
              <LatitudeDegrees>50.2158</LatitudeDegrees>
              <LongitudeDegrees>16.880735</LongitudeDegrees>
            </Position>
            <AltitudeMeters>821.0</AltitudeMeters>
            <DistanceMeters>45474.126529702</DistanceMeters>
          </Trackpoint>
          <Trackpoint>
            <Position>
              <LatitudeDegrees>50.21582</LatitudeDegrees>
              <LongitudeDegrees>16.88073</LongitudeDegrees>
            </Position>
            <AltitudeMeters>820.0</AltitudeMeters>
            <DistanceMeters>45476.383289129</DistanceMeters>
          </Trackpoint>
          <Trackpoint>
            <Position>
              <LatitudeDegrees>50.215813</LatitudeDegrees>
              <LongitudeDegrees>16.880765</LongitudeDegrees>
            </Position>
            <AltitudeMeters>816.0</AltitudeMeters>
            <DistanceMeters>45478.996091799</DistanceMeters>
          </Trackpoint>
          <Trackpoint>
            <Position>
              <LatitudeDegrees>50.215797</LatitudeDegrees>
              <LongitudeDegrees>16.880782</LongitudeDegrees>
            </Position>
            <AltitudeMeters>816.0</AltitudeMeters>
            <DistanceMeters>45481.14839968</DistanceMeters>
          </Trackpoint>
          <Trackpoint>
            <Position>
              <LatitudeDegrees>50.215777</LatitudeDegrees>
              <LongitudeDegrees>16.880797</LongitudeDegrees>
            </Position>
            <AltitudeMeters>816.0</AltitudeMeters>
            <DistanceMeters>45483.619094254</DistanceMeters>
          </Trackpoint>
          <Trackpoint>
            <Position>
              <LatitudeDegrees>50.215768</LatitudeDegrees>
              <LongitudeDegrees>16.880772</LongitudeDegrees>
            </Position>
            <AltitudeMeters>816.0</AltitudeMeters>
            <DistanceMeters>45485.661616057</DistanceMeters>
          </Trackpoint>
          <Trackpoint>
            <Position>
              <LatitudeDegrees>50.21575</LatitudeDegrees>
              <LongitudeDegrees>16.880745</LongitudeDegrees>
            </Position>
            <AltitudeMeters>815.0</AltitudeMeters>
            <DistanceMeters>45488.438608186</DistanceMeters>
          </Trackpoint>
          <Trackpoint>
            <Position>
              <LatitudeDegrees>50.215735</LatitudeDegrees>
              <LongitudeDegrees>16.880725</LongitudeDegrees>
            </Position>
            <AltitudeMeters>815.0</AltitudeMeters>
            <DistanceMeters>45490.634527315</DistanceMeters>
          </Trackpoint>
          <Trackpoint>
            <Position>
              <LatitudeDegrees>50.215732</LatitudeDegrees>
              <LongitudeDegrees>16.880697</LongitudeDegrees>
            </Position>
            <AltitudeMeters>815.0</AltitudeMeters>
            <DistanceMeters>45492.65705658</DistanceMeters>
          </Trackpoint>
          <Trackpoint>
            <Position>
              <LatitudeDegrees>50.21572</LatitudeDegrees>
              <LongitudeDegrees>16.880672</LongitudeDegrees>
            </Position>
            <AltitudeMeters>814.0</AltitudeMeters>
            <DistanceMeters>45494.881574931</DistanceMeters>
          </Trackpoint>
          <Trackpoint>
            <Position>
              <LatitudeDegrees>50.215708</LatitudeDegrees>
              <LongitudeDegrees>16.880647</LongitudeDegrees>
            </Position>
            <AltitudeMeters>814.0</AltitudeMeters>
            <DistanceMeters>45497.106093281</DistanceMeters>
          </Trackpoint>
          <Trackpoint>
            <Position>
              <LatitudeDegrees>50.215695</LatitudeDegrees>
              <LongitudeDegrees>16.880622</LongitudeDegrees>
            </Position>
            <AltitudeMeters>814.0</AltitudeMeters>
            <DistanceMeters>45499.398581992</DistanceMeters>
          </Trackpoint>
          <Trackpoint>
            <Position>
              <LatitudeDegrees>50.215677</LatitudeDegrees>
              <LongitudeDegrees>16.8806</LongitudeDegrees>
            </Position>
            <AltitudeMeters>814.0</AltitudeMeters>
            <DistanceMeters>45501.944872409</DistanceMeters>
          </Trackpoint>
          <Trackpoint>
            <Position>
              <LatitudeDegrees>50.21563</LatitudeDegrees>
              <LongitudeDegrees>16.880583</LongitudeDegrees>
            </Position>
            <AltitudeMeters>814.0</AltitudeMeters>
            <DistanceMeters>45507.315353222</DistanceMeters>
          </Trackpoint>
          <Trackpoint>
            <Position>
              <LatitudeDegrees>50.215635</LatitudeDegrees>
              <LongitudeDegrees>16.88055</LongitudeDegrees>
            </Position>
            <AltitudeMeters>814.0</AltitudeMeters>
            <DistanceMeters>45509.732471229</DistanceMeters>
          </Trackpoint>
          <Trackpoint>
            <Position>
              <LatitudeDegrees>50.215655</LatitudeDegrees>
              <LongitudeDegrees>16.88053</LongitudeDegrees>
            </Position>
            <AltitudeMeters>813.0</AltitudeMeters>
            <DistanceMeters>45512.376195717</DistanceMeters>
          </Trackpoint>
          <Trackpoint>
            <Position>
              <LatitudeDegrees>50.215663</LatitudeDegrees>
              <LongitudeDegrees>16.880502</LongitudeDegrees>
            </Position>
            <AltitudeMeters>812.0</AltitudeMeters>
            <DistanceMeters>45514.559743372</DistanceMeters>
          </Trackpoint>
          <Trackpoint>
            <Position>
              <LatitudeDegrees>50.215672</LatitudeDegrees>
              <LongitudeDegrees>16.880448</LongitudeDegrees>
            </Position>
            <AltitudeMeters>810.0</AltitudeMeters>
            <DistanceMeters>45518.532723818</DistanceMeters>
          </Trackpoint>
          <Trackpoint>
            <Position>
              <LatitudeDegrees>50.215683</LatitudeDegrees>
              <LongitudeDegrees>16.880425</LongitudeDegrees>
            </Position>
            <AltitudeMeters>810.0</AltitudeMeters>
            <DistanceMeters>45520.575245621</DistanceMeters>
          </Trackpoint>
          <Trackpoint>
            <Position>
              <LatitudeDegrees>50.215675</LatitudeDegrees>
              <LongitudeDegrees>16.880393</LongitudeDegrees>
            </Position>
            <AltitudeMeters>808.0</AltitudeMeters>
            <DistanceMeters>45523.02391276</DistanceMeters>
          </Trackpoint>
          <Trackpoint>
            <Position>
              <LatitudeDegrees>50.215682</LatitudeDegrees>
              <LongitudeDegrees>16.880277</LongitudeDegrees>
            </Position>
            <AltitudeMeters>806.0</AltitudeMeters>
            <DistanceMeters>45531.322307964</DistanceMeters>
          </Trackpoint>
          <Trackpoint>
            <Position>
              <LatitudeDegrees>50.215695</LatitudeDegrees>
              <LongitudeDegrees>16.880252</LongitudeDegrees>
            </Position>
            <AltitudeMeters>806.0</AltitudeMeters>
            <DistanceMeters>45533.616765322</DistanceMeters>
          </Trackpoint>
          <Trackpoint>
            <Position>
              <LatitudeDegrees>50.21571</LatitudeDegrees>
              <LongitudeDegrees>16.880225</LongitudeDegrees>
            </Position>
            <AltitudeMeters>805.0</AltitudeMeters>
            <DistanceMeters>45536.163055739</DistanceMeters>
          </Trackpoint>
          <Trackpoint>
            <Position>
              <LatitudeDegrees>50.215723</LatitudeDegrees>
              <LongitudeDegrees>16.880202</LongitudeDegrees>
            </Position>
            <AltitudeMeters>805.0</AltitudeMeters>
            <DistanceMeters>45538.350734992</DistanceMeters>
          </Trackpoint>
          <Trackpoint>
            <Position>
              <LatitudeDegrees>50.215728</LatitudeDegrees>
              <LongitudeDegrees>16.880173</LongitudeDegrees>
            </Position>
            <AltitudeMeters>805.0</AltitudeMeters>
            <DistanceMeters>45540.490419258</DistanceMeters>
          </Trackpoint>
          <Trackpoint>
            <Position>
              <LatitudeDegrees>50.215702</LatitudeDegrees>
              <LongitudeDegrees>16.880122</LongitudeDegrees>
            </Position>
            <AltitudeMeters>803.0</AltitudeMeters>
            <DistanceMeters>45545.134105568</DistanceMeters>
          </Trackpoint>
          <Trackpoint>
            <Position>
              <LatitudeDegrees>50.215715</LatitudeDegrees>
              <LongitudeDegrees>16.880097</LongitudeDegrees>
            </Position>
            <AltitudeMeters>802.0</AltitudeMeters>
            <DistanceMeters>45547.426594279</DistanceMeters>
          </Trackpoint>
          <Trackpoint>
            <Position>
              <LatitudeDegrees>50.215757</LatitudeDegrees>
              <LongitudeDegrees>16.880063</LongitudeDegrees>
            </Position>
            <AltitudeMeters>802.0</AltitudeMeters>
            <DistanceMeters>45552.691794625</DistanceMeters>
          </Trackpoint>
          <Trackpoint>
            <Position>
              <LatitudeDegrees>50.215773</LatitudeDegrees>
              <LongitudeDegrees>16.88005</LongitudeDegrees>
            </Position>
            <AltitudeMeters>802.0</AltitudeMeters>
            <DistanceMeters>45554.698636446</DistanceMeters>
          </Trackpoint>
          <Trackpoint>
            <Position>
              <LatitudeDegrees>50.215795</LatitudeDegrees>
              <LongitudeDegrees>16.88005</LongitudeDegrees>
            </Position>
            <AltitudeMeters>801.0</AltitudeMeters>
            <DistanceMeters>45557.149146768</DistanceMeters>
          </Trackpoint>
          <Trackpoint>
            <Position>
              <LatitudeDegrees>50.215802</LatitudeDegrees>
              <LongitudeDegrees>16.880013</LongitudeDegrees>
            </Position>
            <AltitudeMeters>801.0</AltitudeMeters>
            <DistanceMeters>45559.898360107</DistanceMeters>
          </Trackpoint>
          <Trackpoint>
            <Position>
              <LatitudeDegrees>50.21581</LatitudeDegrees>
              <LongitudeDegrees>16.87998</LongitudeDegrees>
            </Position>
            <AltitudeMeters>801.0</AltitudeMeters>
            <DistanceMeters>45562.412530648</DistanceMeters>
          </Trackpoint>
          <Trackpoint>
            <Position>
              <LatitudeDegrees>50.215815</LatitudeDegrees>
              <LongitudeDegrees>16.879943</LongitudeDegrees>
            </Position>
            <AltitudeMeters>801.0</AltitudeMeters>
            <DistanceMeters>45565.107003038</DistanceMeters>
          </Trackpoint>
          <Trackpoint>
            <Position>
              <LatitudeDegrees>50.215862</LatitudeDegrees>
              <LongitudeDegrees>16.879823</LongitudeDegrees>
            </Position>
            <AltitudeMeters>801.0</AltitudeMeters>
            <DistanceMeters>45575.127253533</DistanceMeters>
          </Trackpoint>
          <Trackpoint>
            <Position>
              <LatitudeDegrees>50.215857</LatitudeDegrees>
              <LongitudeDegrees>16.879795</LongitudeDegrees>
            </Position>
            <AltitudeMeters>800.0</AltitudeMeters>
            <DistanceMeters>45577.196131546</DistanceMeters>
          </Trackpoint>
          <Trackpoint>
            <Position>
              <LatitudeDegrees>50.215848</LatitudeDegrees>
              <LongitudeDegrees>16.879767</LongitudeDegrees>
            </Position>
            <AltitudeMeters>799.0</AltitudeMeters>
            <DistanceMeters>45579.428753816</DistanceMeters>
          </Trackpoint>
          <Trackpoint>
            <Position>
              <LatitudeDegrees>50.215847</LatitudeDegrees>
              <LongitudeDegrees>16.879733</LongitudeDegrees>
            </Position>
            <AltitudeMeters>798.0</AltitudeMeters>
            <DistanceMeters>45581.853332081</DistanceMeters>
          </Trackpoint>
          <Trackpoint>
            <Position>
              <LatitudeDegrees>50.21586</LatitudeDegrees>
              <LongitudeDegrees>16.8797</LongitudeDegrees>
            </Position>
            <AltitudeMeters>797.0</AltitudeMeters>
            <DistanceMeters>45584.612381635</DistanceMeters>
          </Trackpoint>
          <Trackpoint>
            <Position>
              <LatitudeDegrees>50.215838</LatitudeDegrees>
              <LongitudeDegrees>16.879612</LongitudeDegrees>
            </Position>
            <AltitudeMeters>791.0</AltitudeMeters>
            <DistanceMeters>45591.340514602</DistanceMeters>
          </Trackpoint>
          <Trackpoint>
            <Position>
              <LatitudeDegrees>50.215842</LatitudeDegrees>
              <LongitudeDegrees>16.879582</LongitudeDegrees>
            </Position>
            <AltitudeMeters>787.0</AltitudeMeters>
            <DistanceMeters>45593.524062257</DistanceMeters>
          </Trackpoint>
          <Trackpoint>
            <Position>
              <LatitudeDegrees>50.21583</LatitudeDegrees>
              <LongitudeDegrees>16.87956</LongitudeDegrees>
            </Position>
            <AltitudeMeters>786.0</AltitudeMeters>
            <DistanceMeters>45595.584192332</DistanceMeters>
          </Trackpoint>
          <Trackpoint>
            <Position>
              <LatitudeDegrees>50.215825</LatitudeDegrees>
              <LongitudeDegrees>16.879525</LongitudeDegrees>
            </Position>
            <AltitudeMeters>785.0</AltitudeMeters>
            <DistanceMeters>45598.137565629</DistanceMeters>
          </Trackpoint>
          <Trackpoint>
            <Position>
              <LatitudeDegrees>50.215823</LatitudeDegrees>
              <LongitudeDegrees>16.879495</LongitudeDegrees>
            </Position>
            <AltitudeMeters>784.0</AltitudeMeters>
            <DistanceMeters>45600.287774721</DistanceMeters>
          </Trackpoint>
          <Trackpoint>
            <Position>
              <LatitudeDegrees>50.215815</LatitudeDegrees>
              <LongitudeDegrees>16.879463</LongitudeDegrees>
            </Position>
            <AltitudeMeters>784.0</AltitudeMeters>
            <DistanceMeters>45602.73644186</DistanceMeters>
          </Trackpoint>
          <Trackpoint>
            <Position>
              <LatitudeDegrees>50.2158</LatitudeDegrees>
              <LongitudeDegrees>16.87944</LongitudeDegrees>
            </Position>
            <AltitudeMeters>784.0</AltitudeMeters>
            <DistanceMeters>45605.077650181</DistanceMeters>
          </Trackpoint>
          <Trackpoint>
            <Position>
              <LatitudeDegrees>50.215727</LatitudeDegrees>
              <LongitudeDegrees>16.87939</LongitudeDegrees>
            </Position>
            <AltitudeMeters>782.0</AltitudeMeters>
            <DistanceMeters>45613.949298635</DistanceMeters>
          </Trackpoint>
          <Trackpoint>
            <Position>
              <LatitudeDegrees>50.215635</LatitudeDegrees>
              <LongitudeDegrees>16.879332</LongitudeDegrees>
            </Position>
            <AltitudeMeters>781.0</AltitudeMeters>
            <DistanceMeters>45624.99122293</DistanceMeters>
          </Trackpoint>
          <Trackpoint>
            <Position>
              <LatitudeDegrees>50.215573</LatitudeDegrees>
              <LongitudeDegrees>16.879438</LongitudeDegrees>
            </Position>
            <AltitudeMeters>780.0</AltitudeMeters>
            <DistanceMeters>45635.218852447</DistanceMeters>
          </Trackpoint>
          <Trackpoint>
            <Position>
              <LatitudeDegrees>50.215655</LatitudeDegrees>
              <LongitudeDegrees>16.879515</LongitudeDegrees>
            </Position>
            <AltitudeMeters>779.0</AltitudeMeters>
            <DistanceMeters>45645.866085875</DistanceMeters>
          </Trackpoint>
          <Trackpoint>
            <Position>
              <LatitudeDegrees>50.215633</LatitudeDegrees>
              <LongitudeDegrees>16.879365</LongitudeDegrees>
            </Position>
            <AltitudeMeters>782.0</AltitudeMeters>
            <DistanceMeters>45656.825925147</DistanceMeters>
          </Trackpoint>
          <Trackpoint>
            <Position>
              <LatitudeDegrees>50.21565</LatitudeDegrees>
              <LongitudeDegrees>16.879525</LongitudeDegrees>
            </Position>
            <AltitudeMeters>779.0</AltitudeMeters>
            <DistanceMeters>45668.377046717</DistanceMeters>
          </Trackpoint>
          <Trackpoint>
            <Position>
              <LatitudeDegrees>50.215507</LatitudeDegrees>
              <LongitudeDegrees>16.879382</LongitudeDegrees>
            </Position>
            <AltitudeMeters>780.0</AltitudeMeters>
            <DistanceMeters>45687.272792868</DistanceMeters>
          </Trackpoint>
          <Trackpoint>
            <Position>
              <LatitudeDegrees>50.215398</LatitudeDegrees>
              <LongitudeDegrees>16.879398</LongitudeDegrees>
            </Position>
            <AltitudeMeters>782.0</AltitudeMeters>
            <DistanceMeters>45699.457722777</DistanceMeters>
          </Trackpoint>
          <Trackpoint>
            <Position>
              <LatitudeDegrees>50.215313</LatitudeDegrees>
              <LongitudeDegrees>16.879317</LongitudeDegrees>
            </Position>
            <AltitudeMeters>785.0</AltitudeMeters>
            <DistanceMeters>45710.538424443</DistanceMeters>
          </Trackpoint>
          <Trackpoint>
            <Position>
              <LatitudeDegrees>50.215212</LatitudeDegrees>
              <LongitudeDegrees>16.879365</LongitudeDegrees>
            </Position>
            <AltitudeMeters>788.0</AltitudeMeters>
            <DistanceMeters>45722.287969484</DistanceMeters>
          </Trackpoint>
          <Trackpoint>
            <Position>
              <LatitudeDegrees>50.215123</LatitudeDegrees>
              <LongitudeDegrees>16.8793</LongitudeDegrees>
            </Position>
            <AltitudeMeters>787.0</AltitudeMeters>
            <DistanceMeters>45733.222237275</DistanceMeters>
          </Trackpoint>
          <Trackpoint>
            <Position>
              <LatitudeDegrees>50.215027</LatitudeDegrees>
              <LongitudeDegrees>16.879323</LongitudeDegrees>
            </Position>
            <AltitudeMeters>789.0</AltitudeMeters>
            <DistanceMeters>45744.031917621</DistanceMeters>
          </Trackpoint>
          <Trackpoint>
            <Position>
              <LatitudeDegrees>50.214928</LatitudeDegrees>
              <LongitudeDegrees>16.879303</LongitudeDegrees>
            </Position>
            <AltitudeMeters>789.0</AltitudeMeters>
            <DistanceMeters>45755.142324679</DistanceMeters>
          </Trackpoint>
          <Trackpoint>
            <Position>
              <LatitudeDegrees>50.214848</LatitudeDegrees>
              <LongitudeDegrees>16.87922</LongitudeDegrees>
            </Position>
            <AltitudeMeters>788.0</AltitudeMeters>
            <DistanceMeters>45765.830190088</DistanceMeters>
          </Trackpoint>
          <Trackpoint>
            <Position>
              <LatitudeDegrees>50.214812</LatitudeDegrees>
              <LongitudeDegrees>16.879088</LongitudeDegrees>
            </Position>
            <AltitudeMeters>784.0</AltitudeMeters>
            <DistanceMeters>45776.049870326</DistanceMeters>
          </Trackpoint>
          <Trackpoint>
            <Position>
              <LatitudeDegrees>50.214793</LatitudeDegrees>
              <LongitudeDegrees>16.879068</LongitudeDegrees>
            </Position>
            <AltitudeMeters>784.0</AltitudeMeters>
            <DistanceMeters>45778.601474746</DistanceMeters>
          </Trackpoint>
          <Trackpoint>
            <Position>
              <LatitudeDegrees>50.21471</LatitudeDegrees>
              <LongitudeDegrees>16.87898</LongitudeDegrees>
            </Position>
            <AltitudeMeters>784.0</AltitudeMeters>
            <DistanceMeters>45789.765394984</DistanceMeters>
          </Trackpoint>
          <Trackpoint>
            <Position>
              <LatitudeDegrees>50.21462</LatitudeDegrees>
              <LongitudeDegrees>16.878923</LongitudeDegrees>
            </Position>
            <AltitudeMeters>784.0</AltitudeMeters>
            <DistanceMeters>45800.574239928</DistanceMeters>
          </Trackpoint>
          <Trackpoint>
            <Position>
              <LatitudeDegrees>50.214628</LatitudeDegrees>
              <LongitudeDegrees>16.87877</LongitudeDegrees>
            </Position>
            <AltitudeMeters>784.0</AltitudeMeters>
            <DistanceMeters>45811.507681836</DistanceMeters>
          </Trackpoint>
          <Trackpoint>
            <Position>
              <LatitudeDegrees>50.214518</LatitudeDegrees>
              <LongitudeDegrees>16.878827</LongitudeDegrees>
            </Position>
            <AltitudeMeters>784.0</AltitudeMeters>
            <DistanceMeters>45824.406836404</DistanceMeters>
          </Trackpoint>
          <Trackpoint>
            <Position>
              <LatitudeDegrees>50.214437</LatitudeDegrees>
              <LongitudeDegrees>16.878755</LongitudeDegrees>
            </Position>
            <AltitudeMeters>785.0</AltitudeMeters>
            <DistanceMeters>45834.779123073</DistanceMeters>
          </Trackpoint>
          <Trackpoint>
            <Position>
              <LatitudeDegrees>50.214407</LatitudeDegrees>
              <LongitudeDegrees>16.878702</LongitudeDegrees>
            </Position>
            <AltitudeMeters>784.0</AltitudeMeters>
            <DistanceMeters>45839.819123573</DistanceMeters>
          </Trackpoint>
          <Trackpoint>
            <Position>
              <LatitudeDegrees>50.214392</LatitudeDegrees>
              <LongitudeDegrees>16.878673</LongitudeDegrees>
            </Position>
            <AltitudeMeters>783.0</AltitudeMeters>
            <DistanceMeters>45842.474775979</DistanceMeters>
          </Trackpoint>
          <Trackpoint>
            <Position>
              <LatitudeDegrees>50.21437</LatitudeDegrees>
              <LongitudeDegrees>16.878653</LongitudeDegrees>
            </Position>
            <AltitudeMeters>782.0</AltitudeMeters>
            <DistanceMeters>45845.30650829</DistanceMeters>
          </Trackpoint>
          <Trackpoint>
            <Position>
              <LatitudeDegrees>50.214353</LatitudeDegrees>
              <LongitudeDegrees>16.87864</LongitudeDegrees>
            </Position>
            <AltitudeMeters>783.0</AltitudeMeters>
            <DistanceMeters>45847.410014282</DistanceMeters>
          </Trackpoint>
          <Trackpoint>
            <Position>
              <LatitudeDegrees>50.214333</LatitudeDegrees>
              <LongitudeDegrees>16.878632</LongitudeDegrees>
            </Position>
            <AltitudeMeters>783.0</AltitudeMeters>
            <DistanceMeters>45849.706438599</DistanceMeters>
          </Trackpoint>
          <Trackpoint>
            <Position>
              <LatitudeDegrees>50.214308</LatitudeDegrees>
              <LongitudeDegrees>16.878632</LongitudeDegrees>
            </Position>
            <AltitudeMeters>784.0</AltitudeMeters>
            <DistanceMeters>45852.489926625</DistanceMeters>
          </Trackpoint>
          <Trackpoint>
            <Position>
              <LatitudeDegrees>50.214292</LatitudeDegrees>
              <LongitudeDegrees>16.878607</LongitudeDegrees>
            </Position>
            <AltitudeMeters>784.0</AltitudeMeters>
            <DistanceMeters>45855.007686277</DistanceMeters>
          </Trackpoint>
          <Trackpoint>
            <Position>
              <LatitudeDegrees>50.214268</LatitudeDegrees>
              <LongitudeDegrees>16.878588</LongitudeDegrees>
            </Position>
            <AltitudeMeters>786.0</AltitudeMeters>
            <DistanceMeters>45858.000650665</DistanceMeters>
          </Trackpoint>
          <Trackpoint>
            <Position>
              <LatitudeDegrees>50.214252</LatitudeDegrees>
              <LongitudeDegrees>16.878575</LongitudeDegrees>
            </Position>
            <AltitudeMeters>786.0</AltitudeMeters>
            <DistanceMeters>45860.007492486</DistanceMeters>
          </Trackpoint>
          <Trackpoint>
            <Position>
              <LatitudeDegrees>50.214237</LatitudeDegrees>
              <LongitudeDegrees>16.87856</LongitudeDegrees>
            </Position>
            <AltitudeMeters>787.0</AltitudeMeters>
            <DistanceMeters>45861.991708535</DistanceMeters>
          </Trackpoint>
          <Trackpoint>
            <Position>
              <LatitudeDegrees>50.214218</LatitudeDegrees>
              <LongitudeDegrees>16.878542</LongitudeDegrees>
            </Position>
            <AltitudeMeters>787.0</AltitudeMeters>
            <DistanceMeters>45864.466055283</DistanceMeters>
          </Trackpoint>
          <Trackpoint>
            <Position>
              <LatitudeDegrees>50.214198</LatitudeDegrees>
              <LongitudeDegrees>16.878528</LongitudeDegrees>
            </Position>
            <AltitudeMeters>787.0</AltitudeMeters>
            <DistanceMeters>45866.907335778</DistanceMeters>
          </Trackpoint>
          <Trackpoint>
            <Position>
              <LatitudeDegrees>50.214117</LatitudeDegrees>
              <LongitudeDegrees>16.878438</LongitudeDegrees>
            </Position>
            <AltitudeMeters>788.0</AltitudeMeters>
            <DistanceMeters>45877.969278007</DistanceMeters>
          </Trackpoint>
          <Trackpoint>
            <Position>
              <LatitudeDegrees>50.214003</LatitudeDegrees>
              <LongitudeDegrees>16.878392</LongitudeDegrees>
            </Position>
            <AltitudeMeters>788.0</AltitudeMeters>
            <DistanceMeters>45891.073665202</DistanceMeters>
          </Trackpoint>
          <Trackpoint>
            <Position>
              <LatitudeDegrees>50.213897</LatitudeDegrees>
              <LongitudeDegrees>16.878342</LongitudeDegrees>
            </Position>
            <AltitudeMeters>788.0</AltitudeMeters>
            <DistanceMeters>45903.397131663</DistanceMeters>
          </Trackpoint>
          <Trackpoint>
            <Position>
              <LatitudeDegrees>50.213947</LatitudeDegrees>
              <LongitudeDegrees>16.878222</LongitudeDegrees>
            </Position>
            <AltitudeMeters>788.0</AltitudeMeters>
            <DistanceMeters>45913.596026239</DistanceMeters>
          </Trackpoint>
          <Trackpoint>
            <Position>
              <LatitudeDegrees>50.213947</LatitudeDegrees>
              <LongitudeDegrees>16.878075</LongitudeDegrees>
            </Position>
            <AltitudeMeters>789.0</AltitudeMeters>
            <DistanceMeters>45924.066228148</DistanceMeters>
          </Trackpoint>
          <Trackpoint>
            <Position>
              <LatitudeDegrees>50.21397</LatitudeDegrees>
              <LongitudeDegrees>16.877932</LongitudeDegrees>
            </Position>
            <AltitudeMeters>789.0</AltitudeMeters>
            <DistanceMeters>45934.568292407</DistanceMeters>
          </Trackpoint>
          <Trackpoint>
            <Position>
              <LatitudeDegrees>50.213948</LatitudeDegrees>
              <LongitudeDegrees>16.877782</LongitudeDegrees>
            </Position>
            <AltitudeMeters>791.0</AltitudeMeters>
            <DistanceMeters>45945.529367495</DistanceMeters>
          </Trackpoint>
          <Trackpoint>
            <Position>
              <LatitudeDegrees>50.213927</LatitudeDegrees>
              <LongitudeDegrees>16.877705</LongitudeDegrees>
            </Position>
            <AltitudeMeters>791.0</AltitudeMeters>
            <DistanceMeters>45951.491110603</DistanceMeters>
          </Trackpoint>
          <Trackpoint>
            <Position>
              <LatitudeDegrees>50.213923</LatitudeDegrees>
              <LongitudeDegrees>16.877675</LongitudeDegrees>
            </Position>
            <AltitudeMeters>791.0</AltitudeMeters>
            <DistanceMeters>45953.672589524</DistanceMeters>
          </Trackpoint>
          <Trackpoint>
            <Position>
              <LatitudeDegrees>50.213907</LatitudeDegrees>
              <LongitudeDegrees>16.877537</LongitudeDegrees>
            </Position>
            <AltitudeMeters>792.0</AltitudeMeters>
            <DistanceMeters>45963.661700831</DistanceMeters>
          </Trackpoint>
          <Trackpoint>
            <Position>
              <LatitudeDegrees>50.21389</LatitudeDegrees>
              <LongitudeDegrees>16.877393</LongitudeDegrees>
            </Position>
            <AltitudeMeters>796.0</AltitudeMeters>
            <DistanceMeters>45974.091288591</DistanceMeters>
          </Trackpoint>
          <Trackpoint>
            <Position>
              <LatitudeDegrees>50.213842</LatitudeDegrees>
              <LongitudeDegrees>16.877263</LongitudeDegrees>
            </Position>
            <AltitudeMeters>800.0</AltitudeMeters>
            <DistanceMeters>45984.781266019</DistanceMeters>
          </Trackpoint>
          <Trackpoint>
            <Position>
              <LatitudeDegrees>50.21384</LatitudeDegrees>
              <LongitudeDegrees>16.877113</LongitudeDegrees>
            </Position>
            <AltitudeMeters>806.0</AltitudeMeters>
            <DistanceMeters>45995.467018993</DistanceMeters>
          </Trackpoint>
          <Trackpoint>
            <Position>
              <LatitudeDegrees>50.213837</LatitudeDegrees>
              <LongitudeDegrees>16.876967</LongitudeDegrees>
            </Position>
            <AltitudeMeters>807.0</AltitudeMeters>
            <DistanceMeters>46005.871467869</DistanceMeters>
          </Trackpoint>
          <Trackpoint>
            <Position>
              <LatitudeDegrees>50.213813</LatitudeDegrees>
              <LongitudeDegrees>16.876818</LongitudeDegrees>
            </Position>
            <AltitudeMeters>808.0</AltitudeMeters>
            <DistanceMeters>46016.814816251</DistanceMeters>
          </Trackpoint>
          <Trackpoint>
            <Position>
              <LatitudeDegrees>50.21377</LatitudeDegrees>
              <LongitudeDegrees>16.876688</LongitudeDegrees>
            </Position>
            <AltitudeMeters>808.0</AltitudeMeters>
            <DistanceMeters>46027.237908388</DistanceMeters>
          </Trackpoint>
          <Trackpoint>
            <Position>
              <LatitudeDegrees>50.213742</LatitudeDegrees>
              <LongitudeDegrees>16.876548</LongitudeDegrees>
            </Position>
            <AltitudeMeters>809.0</AltitudeMeters>
            <DistanceMeters>46037.684798064</DistanceMeters>
          </Trackpoint>
          <Trackpoint>
            <Position>
              <LatitudeDegrees>50.213718</LatitudeDegrees>
              <LongitudeDegrees>16.876413</LongitudeDegrees>
            </Position>
            <AltitudeMeters>810.0</AltitudeMeters>
            <DistanceMeters>46047.664412941</DistanceMeters>
          </Trackpoint>
          <Trackpoint>
            <Position>
              <LatitudeDegrees>50.213693</LatitudeDegrees>
              <LongitudeDegrees>16.876273</LongitudeDegrees>
            </Position>
            <AltitudeMeters>812.0</AltitudeMeters>
            <DistanceMeters>46058.017092658</DistanceMeters>
          </Trackpoint>
          <Trackpoint>
            <Position>
              <LatitudeDegrees>50.213693</LatitudeDegrees>
              <LongitudeDegrees>16.876233</LongitudeDegrees>
            </Position>
            <AltitudeMeters>812.0</AltitudeMeters>
            <DistanceMeters>46060.86630987</DistanceMeters>
          </Trackpoint>
          <Trackpoint>
            <Position>
              <LatitudeDegrees>50.213687</LatitudeDegrees>
              <LongitudeDegrees>16.876205</LongitudeDegrees>
            </Position>
            <AltitudeMeters>813.0</AltitudeMeters>
            <DistanceMeters>46062.969815862</DistanceMeters>
          </Trackpoint>
          <Trackpoint>
            <Position>
              <LatitudeDegrees>50.213687</LatitudeDegrees>
              <LongitudeDegrees>16.87617</LongitudeDegrees>
            </Position>
            <AltitudeMeters>813.0</AltitudeMeters>
            <DistanceMeters>46065.462343212</DistanceMeters>
          </Trackpoint>
          <Trackpoint>
            <Position>
              <LatitudeDegrees>50.213687</LatitudeDegrees>
              <LongitudeDegrees>16.876133</LongitudeDegrees>
            </Position>
            <AltitudeMeters>813.0</AltitudeMeters>
            <DistanceMeters>46068.09580077</DistanceMeters>
          </Trackpoint>
          <Trackpoint>
            <Position>
              <LatitudeDegrees>50.213677</LatitudeDegrees>
              <LongitudeDegrees>16.876105</LongitudeDegrees>
            </Position>
            <AltitudeMeters>814.0</AltitudeMeters>
            <DistanceMeters>46070.38039793</DistanceMeters>
          </Trackpoint>
          <Trackpoint>
            <Position>
              <LatitudeDegrees>50.213658</LatitudeDegrees>
              <LongitudeDegrees>16.876035</LongitudeDegrees>
            </Position>
            <AltitudeMeters>814.0</AltitudeMeters>
            <DistanceMeters>46075.796087018</DistanceMeters>
          </Trackpoint>
          <Trackpoint>
            <Position>
              <LatitudeDegrees>50.213662</LatitudeDegrees>
              <LongitudeDegrees>16.875875</LongitudeDegrees>
            </Position>
            <AltitudeMeters>814.0</AltitudeMeters>
            <DistanceMeters>46087.200876411</DistanceMeters>
          </Trackpoint>
          <Trackpoint>
            <Position>
              <LatitudeDegrees>50.213653</LatitudeDegrees>
              <LongitudeDegrees>16.875825</LongitudeDegrees>
            </Position>
            <AltitudeMeters>814.0</AltitudeMeters>
            <DistanceMeters>46090.899601301</DistanceMeters>
          </Trackpoint>
          <Trackpoint>
            <Position>
              <LatitudeDegrees>50.213657</LatitudeDegrees>
              <LongitudeDegrees>16.875795</LongitudeDegrees>
            </Position>
            <AltitudeMeters>815.0</AltitudeMeters>
            <DistanceMeters>46093.081080223</DistanceMeters>
          </Trackpoint>
          <Trackpoint>
            <Position>
              <LatitudeDegrees>50.21368</LatitudeDegrees>
              <LongitudeDegrees>16.875658</LongitudeDegrees>
            </Position>
            <AltitudeMeters>815.0</AltitudeMeters>
            <DistanceMeters>46103.168692995</DistanceMeters>
          </Trackpoint>
          <Trackpoint>
            <Position>
              <LatitudeDegrees>50.213705</LatitudeDegrees>
              <LongitudeDegrees>16.875522</LongitudeDegrees>
            </Position>
            <AltitudeMeters>816.0</AltitudeMeters>
            <DistanceMeters>46113.246902153</DistanceMeters>
          </Trackpoint>
          <Trackpoint>
            <Position>
              <LatitudeDegrees>50.213745</LatitudeDegrees>
              <LongitudeDegrees>16.875378</LongitudeDegrees>
            </Position>
            <AltitudeMeters>817.0</AltitudeMeters>
            <DistanceMeters>46124.427795601</DistanceMeters>
          </Trackpoint>
          <Trackpoint>
            <Position>
              <LatitudeDegrees>50.213767</LatitudeDegrees>
              <LongitudeDegrees>16.875242</LongitudeDegrees>
            </Position>
            <AltitudeMeters>818.0</AltitudeMeters>
            <DistanceMeters>46134.418714729</DistanceMeters>
          </Trackpoint>
          <Trackpoint>
            <Position>
              <LatitudeDegrees>50.213773</LatitudeDegrees>
              <LongitudeDegrees>16.875092</LongitudeDegrees>
            </Position>
            <AltitudeMeters>820.0</AltitudeMeters>
            <DistanceMeters>46145.123042825</DistanceMeters>
          </Trackpoint>
          <Trackpoint>
            <Position>
              <LatitudeDegrees>50.21373</LatitudeDegrees>
              <LongitudeDegrees>16.874963</LongitudeDegrees>
            </Position>
            <AltitudeMeters>823.0</AltitudeMeters>
            <DistanceMeters>46155.482262316</DistanceMeters>
          </Trackpoint>
          <Trackpoint>
            <Position>
              <LatitudeDegrees>50.213737</LatitudeDegrees>
              <LongitudeDegrees>16.874822</LongitudeDegrees>
            </Position>
            <AltitudeMeters>824.0</AltitudeMeters>
            <DistanceMeters>46165.555094039</DistanceMeters>
          </Trackpoint>
          <Trackpoint>
            <Position>
              <LatitudeDegrees>50.213695</LatitudeDegrees>
              <LongitudeDegrees>16.874692</LongitudeDegrees>
            </Position>
            <AltitudeMeters>826.0</AltitudeMeters>
            <DistanceMeters>46175.927380709</DistanceMeters>
          </Trackpoint>
          <Trackpoint>
            <Position>
              <LatitudeDegrees>50.213672</LatitudeDegrees>
              <LongitudeDegrees>16.874555</LongitudeDegrees>
            </Position>
            <AltitudeMeters>828.0</AltitudeMeters>
            <DistanceMeters>46186.015441054</DistanceMeters>
          </Trackpoint>
          <Trackpoint>
            <Position>
              <LatitudeDegrees>50.213662</LatitudeDegrees>
              <LongitudeDegrees>16.874402</LongitudeDegrees>
            </Position>
            <AltitudeMeters>829.0</AltitudeMeters>
            <DistanceMeters>46196.969511338</DistanceMeters>
          </Trackpoint>
          <Trackpoint>
            <Position>
              <LatitudeDegrees>50.213632</LatitudeDegrees>
              <LongitudeDegrees>16.87427</LongitudeDegrees>
            </Position>
            <AltitudeMeters>830.0</AltitudeMeters>
            <DistanceMeters>46206.946863828</DistanceMeters>
          </Trackpoint>
          <Trackpoint>
            <Position>
              <LatitudeDegrees>50.213623</LatitudeDegrees>
              <LongitudeDegrees>16.874205</LongitudeDegrees>
            </Position>
            <AltitudeMeters>832.0</AltitudeMeters>
            <DistanceMeters>46211.682970867</DistanceMeters>
          </Trackpoint>
          <Trackpoint>
            <Position>
              <LatitudeDegrees>50.213635</LatitudeDegrees>
              <LongitudeDegrees>16.874065</LongitudeDegrees>
            </Position>
            <AltitudeMeters>833.0</AltitudeMeters>
            <DistanceMeters>46221.743244064</DistanceMeters>
          </Trackpoint>
          <Trackpoint>
            <Position>
              <LatitudeDegrees>50.213565</LatitudeDegrees>
              <LongitudeDegrees>16.873965</LongitudeDegrees>
            </Position>
            <AltitudeMeters>835.0</AltitudeMeters>
            <DistanceMeters>46232.299339143</DistanceMeters>
          </Trackpoint>
          <Trackpoint>
            <Position>
              <LatitudeDegrees>50.213565</LatitudeDegrees>
              <LongitudeDegrees>16.87381</LongitudeDegrees>
            </Position>
            <AltitudeMeters>835.0</AltitudeMeters>
            <DistanceMeters>46243.339218751</DistanceMeters>
          </Trackpoint>
          <Trackpoint>
            <Position>
              <LatitudeDegrees>50.213558</LatitudeDegrees>
              <LongitudeDegrees>16.873775</LongitudeDegrees>
            </Position>
            <AltitudeMeters>836.0</AltitudeMeters>
            <DistanceMeters>46245.952021421</DistanceMeters>
          </Trackpoint>
          <Trackpoint>
            <Position>
              <LatitudeDegrees>50.21356</LatitudeDegrees>
              <LongitudeDegrees>16.873747</LongitudeDegrees>
            </Position>
            <AltitudeMeters>836.0</AltitudeMeters>
            <DistanceMeters>46247.958863242</DistanceMeters>
          </Trackpoint>
          <Trackpoint>
            <Position>
              <LatitudeDegrees>50.213543</LatitudeDegrees>
              <LongitudeDegrees>16.873607</LongitudeDegrees>
            </Position>
            <AltitudeMeters>838.0</AltitudeMeters>
            <DistanceMeters>46258.108944135</DistanceMeters>
          </Trackpoint>
          <Trackpoint>
            <Position>
              <LatitudeDegrees>50.213532</LatitudeDegrees>
              <LongitudeDegrees>16.873465</LongitudeDegrees>
            </Position>
            <AltitudeMeters>841.0</AltitudeMeters>
            <DistanceMeters>46268.2972084</DistanceMeters>
          </Trackpoint>
          <Trackpoint>
            <Position>
              <LatitudeDegrees>50.213577</LatitudeDegrees>
              <LongitudeDegrees>16.873338</LongitudeDegrees>
            </Position>
            <AltitudeMeters>841.0</AltitudeMeters>
            <DistanceMeters>46278.637232824</DistanceMeters>
          </Trackpoint>
          <Trackpoint>
            <Position>
              <LatitudeDegrees>50.213553</LatitudeDegrees>
              <LongitudeDegrees>16.873202</LongitudeDegrees>
            </Position>
            <AltitudeMeters>843.0</AltitudeMeters>
            <DistanceMeters>46288.685381147</DistanceMeters>
          </Trackpoint>
          <Trackpoint>
            <Position>
              <LatitudeDegrees>50.213568</LatitudeDegrees>
              <LongitudeDegrees>16.873062</LongitudeDegrees>
            </Position>
            <AltitudeMeters>846.0</AltitudeMeters>
            <DistanceMeters>46298.795794855</DistanceMeters>
          </Trackpoint>
          <Trackpoint>
            <Position>
              <LatitudeDegrees>50.213487</LatitudeDegrees>
              <LongitudeDegrees>16.872988</LongitudeDegrees>
            </Position>
            <AltitudeMeters>849.0</AltitudeMeters>
            <DistanceMeters>46309.238794099</DistanceMeters>
          </Trackpoint>
          <Trackpoint>
            <Position>
              <LatitudeDegrees>50.21353</LatitudeDegrees>
              <LongitudeDegrees>16.872797</LongitudeDegrees>
            </Position>
            <AltitudeMeters>849.0</AltitudeMeters>
            <DistanceMeters>46323.660330795</DistanceMeters>
          </Trackpoint>
          <Trackpoint>
            <Position>
              <LatitudeDegrees>50.21346</LatitudeDegrees>
              <LongitudeDegrees>16.872885</LongitudeDegrees>
            </Position>
            <AltitudeMeters>849.0</AltitudeMeters>
            <DistanceMeters>46333.660284122</DistanceMeters>
          </Trackpoint>
          <Trackpoint>
            <Position>
              <LatitudeDegrees>50.213545</LatitudeDegrees>
              <LongitudeDegrees>16.872942</LongitudeDegrees>
            </Position>
            <AltitudeMeters>847.0</AltitudeMeters>
            <DistanceMeters>46343.95567325</DistanceMeters>
          </Trackpoint>
          <Trackpoint>
            <Position>
              <LatitudeDegrees>50.2135</LatitudeDegrees>
              <LongitudeDegrees>16.872813</LongitudeDegrees>
            </Position>
            <AltitudeMeters>852.0</AltitudeMeters>
            <DistanceMeters>46354.420699151</DistanceMeters>
          </Trackpoint>
          <Trackpoint>
            <Position>
              <LatitudeDegrees>50.213485</LatitudeDegrees>
              <LongitudeDegrees>16.87267</LongitudeDegrees>
            </Position>
            <AltitudeMeters>855.0</AltitudeMeters>
            <DistanceMeters>46364.741492809</DistanceMeters>
          </Trackpoint>
          <Trackpoint>
            <Position>
              <LatitudeDegrees>50.21352</LatitudeDegrees>
              <LongitudeDegrees>16.872527</LongitudeDegrees>
            </Position>
            <AltitudeMeters>857.0</AltitudeMeters>
            <DistanceMeters>46375.645989433</DistanceMeters>
          </Trackpoint>
          <Trackpoint>
            <Position>
              <LatitudeDegrees>50.213563</LatitudeDegrees>
              <LongitudeDegrees>16.872397</LongitudeDegrees>
            </Position>
            <AltitudeMeters>858.0</AltitudeMeters>
            <DistanceMeters>46386.069514737</DistanceMeters>
          </Trackpoint>
          <Trackpoint>
            <Position>
              <LatitudeDegrees>50.213542</LatitudeDegrees>
              <LongitudeDegrees>16.872252</LongitudeDegrees>
            </Position>
            <AltitudeMeters>860.0</AltitudeMeters>
            <DistanceMeters>46396.658919313</DistanceMeters>
          </Trackpoint>
          <Trackpoint>
            <Position>
              <LatitudeDegrees>50.213477</LatitudeDegrees>
              <LongitudeDegrees>16.872143</LongitudeDegrees>
            </Position>
            <AltitudeMeters>862.0</AltitudeMeters>
            <DistanceMeters>46407.270897608</DistanceMeters>
          </Trackpoint>
          <Trackpoint>
            <Position>
              <LatitudeDegrees>50.213387</LatitudeDegrees>
              <LongitudeDegrees>16.872103</LongitudeDegrees>
            </Position>
            <AltitudeMeters>863.0</AltitudeMeters>
            <DistanceMeters>46417.685756141</DistanceMeters>
          </Trackpoint>
          <Trackpoint>
            <Position>
              <LatitudeDegrees>50.213302</LatitudeDegrees>
              <LongitudeDegrees>16.872042</LongitudeDegrees>
            </Position>
            <AltitudeMeters>864.0</AltitudeMeters>
            <DistanceMeters>46428.096278581</DistanceMeters>
          </Trackpoint>
          <Trackpoint>
            <Position>
              <LatitudeDegrees>50.213208</LatitudeDegrees>
              <LongitudeDegrees>16.872032</LongitudeDegrees>
            </Position>
            <AltitudeMeters>866.0</AltitudeMeters>
            <DistanceMeters>46438.582423767</DistanceMeters>
          </Trackpoint>
          <Trackpoint>
            <Position>
              <LatitudeDegrees>50.21314</LatitudeDegrees>
              <LongitudeDegrees>16.871938</LongitudeDegrees>
            </Position>
            <AltitudeMeters>866.0</AltitudeMeters>
            <DistanceMeters>46448.687477177</DistanceMeters>
          </Trackpoint>
          <Trackpoint>
            <Position>
              <LatitudeDegrees>50.213053</LatitudeDegrees>
              <LongitudeDegrees>16.871888</LongitudeDegrees>
            </Position>
            <AltitudeMeters>867.0</AltitudeMeters>
            <DistanceMeters>46459.004770481</DistanceMeters>
          </Trackpoint>
          <Trackpoint>
            <Position>
              <LatitudeDegrees>50.213023</LatitudeDegrees>
              <LongitudeDegrees>16.871748</LongitudeDegrees>
            </Position>
            <AltitudeMeters>869.0</AltitudeMeters>
            <DistanceMeters>46469.520583152</DistanceMeters>
          </Trackpoint>
          <Trackpoint>
            <Position>
              <LatitudeDegrees>50.212937</LatitudeDegrees>
              <LongitudeDegrees>16.871688</LongitudeDegrees>
            </Position>
            <AltitudeMeters>870.0</AltitudeMeters>
            <DistanceMeters>46480.002852476</DistanceMeters>
          </Trackpoint>
          <Trackpoint>
            <Position>
              <LatitudeDegrees>50.212882</LatitudeDegrees>
              <LongitudeDegrees>16.871575</LongitudeDegrees>
            </Position>
            <AltitudeMeters>871.0</AltitudeMeters>
            <DistanceMeters>46490.115052318</DistanceMeters>
          </Trackpoint>
          <Trackpoint>
            <Position>
              <LatitudeDegrees>50.21286</LatitudeDegrees>
              <LongitudeDegrees>16.871433</LongitudeDegrees>
            </Position>
            <AltitudeMeters>872.0</AltitudeMeters>
            <DistanceMeters>46500.52123686</DistanceMeters>
          </Trackpoint>
          <Trackpoint>
            <Position>
              <LatitudeDegrees>50.212768</LatitudeDegrees>
              <LongitudeDegrees>16.871422</LongitudeDegrees>
            </Position>
            <AltitudeMeters>875.0</AltitudeMeters>
            <DistanceMeters>46510.791158615</DistanceMeters>
          </Trackpoint>
          <Trackpoint>
            <Position>
              <LatitudeDegrees>50.212672</LatitudeDegrees>
              <LongitudeDegrees>16.871405</LongitudeDegrees>
            </Position>
            <AltitudeMeters>875.0</AltitudeMeters>
            <DistanceMeters>46521.544303684</DistanceMeters>
          </Trackpoint>
          <Trackpoint>
            <Position>
              <LatitudeDegrees>50.212672</LatitudeDegrees>
              <LongitudeDegrees>16.871247</LongitudeDegrees>
            </Position>
            <AltitudeMeters>877.0</AltitudeMeters>
            <DistanceMeters>46532.7976495</DistanceMeters>
          </Trackpoint>
          <Trackpoint>
            <Position>
              <LatitudeDegrees>50.212692</LatitudeDegrees>
              <LongitudeDegrees>16.871093</LongitudeDegrees>
            </Position>
            <AltitudeMeters>878.0</AltitudeMeters>
            <DistanceMeters>46543.98984412</DistanceMeters>
          </Trackpoint>
          <Trackpoint>
            <Position>
              <LatitudeDegrees>50.212718</LatitudeDegrees>
              <LongitudeDegrees>16.870947</LongitudeDegrees>
            </Position>
            <AltitudeMeters>878.0</AltitudeMeters>
            <DistanceMeters>46554.784477344</DistanceMeters>
          </Trackpoint>
          <Trackpoint>
            <Position>
              <LatitudeDegrees>50.212747</LatitudeDegrees>
              <LongitudeDegrees>16.87079</LongitudeDegrees>
            </Position>
            <AltitudeMeters>878.0</AltitudeMeters>
            <DistanceMeters>46566.423601315</DistanceMeters>
          </Trackpoint>
          <Trackpoint>
            <Position>
              <LatitudeDegrees>50.212715</LatitudeDegrees>
              <LongitudeDegrees>16.870657</LongitudeDegrees>
            </Position>
            <AltitudeMeters>880.0</AltitudeMeters>
            <DistanceMeters>46576.543834861</DistanceMeters>
          </Trackpoint>
          <Trackpoint>
            <Position>
              <LatitudeDegrees>50.212688</LatitudeDegrees>
              <LongitudeDegrees>16.870807</LongitudeDegrees>
            </Position>
            <AltitudeMeters>879.0</AltitudeMeters>
            <DistanceMeters>46587.642043847</DistanceMeters>
          </Trackpoint>
          <Trackpoint>
            <Position>
              <LatitudeDegrees>50.212628</LatitudeDegrees>
              <LongitudeDegrees>16.870687</LongitudeDegrees>
            </Position>
            <AltitudeMeters>879.0</AltitudeMeters>
            <DistanceMeters>46598.488418168</DistanceMeters>
          </Trackpoint>
          <Trackpoint>
            <Position>
              <LatitudeDegrees>50.212573</LatitudeDegrees>
              <LongitudeDegrees>16.870572</LongitudeDegrees>
            </Position>
            <AltitudeMeters>881.0</AltitudeMeters>
            <DistanceMeters>46608.714281712</DistanceMeters>
          </Trackpoint>
          <Trackpoint>
            <Position>
              <LatitudeDegrees>50.212518</LatitudeDegrees>
              <LongitudeDegrees>16.87045</LongitudeDegrees>
            </Position>
            <AltitudeMeters>881.0</AltitudeMeters>
            <DistanceMeters>46619.343689808</DistanceMeters>
          </Trackpoint>
          <Trackpoint>
            <Position>
              <LatitudeDegrees>50.212453</LatitudeDegrees>
              <LongitudeDegrees>16.870345</LongitudeDegrees>
            </Position>
            <AltitudeMeters>884.0</AltitudeMeters>
            <DistanceMeters>46629.749006553</DistanceMeters>
          </Trackpoint>
          <Trackpoint>
            <Position>
              <LatitudeDegrees>50.212368</LatitudeDegrees>
              <LongitudeDegrees>16.870278</LongitudeDegrees>
            </Position>
            <AltitudeMeters>885.0</AltitudeMeters>
            <DistanceMeters>46640.345230904</DistanceMeters>
          </Trackpoint>
          <Trackpoint>
            <Position>
              <LatitudeDegrees>50.2123</LatitudeDegrees>
              <LongitudeDegrees>16.870168</LongitudeDegrees>
            </Position>
            <AltitudeMeters>886.0</AltitudeMeters>
            <DistanceMeters>46651.238956834</DistanceMeters>
          </Trackpoint>
          <Trackpoint>
            <Position>
              <LatitudeDegrees>50.21219</LatitudeDegrees>
              <LongitudeDegrees>16.870213</LongitudeDegrees>
            </Position>
            <AltitudeMeters>887.0</AltitudeMeters>
            <DistanceMeters>46663.894289141</DistanceMeters>
          </Trackpoint>
          <Trackpoint>
            <Position>
              <LatitudeDegrees>50.21213</LatitudeDegrees>
              <LongitudeDegrees>16.870107</LongitudeDegrees>
            </Position>
            <AltitudeMeters>896.0</AltitudeMeters>
            <DistanceMeters>46673.97429014</DistanceMeters>
          </Trackpoint>
          <Trackpoint>
            <Position>
              <LatitudeDegrees>50.21212</LatitudeDegrees>
              <LongitudeDegrees>16.869963</LongitudeDegrees>
            </Position>
            <AltitudeMeters>898.0</AltitudeMeters>
            <DistanceMeters>46684.291583445</DistanceMeters>
          </Trackpoint>
          <Trackpoint>
            <Position>
              <LatitudeDegrees>50.212075</LatitudeDegrees>
              <LongitudeDegrees>16.869842</LongitudeDegrees>
            </Position>
            <AltitudeMeters>899.0</AltitudeMeters>
            <DistanceMeters>46694.259881253</DistanceMeters>
          </Trackpoint>
          <Trackpoint>
            <Position>
              <LatitudeDegrees>50.21196</LatitudeDegrees>
              <LongitudeDegrees>16.869695</LongitudeDegrees>
            </Position>
            <AltitudeMeters>900.0</AltitudeMeters>
            <DistanceMeters>46710.796713931</DistanceMeters>
          </Trackpoint>
          <Trackpoint>
            <Position>
              <LatitudeDegrees>50.21189</LatitudeDegrees>
              <LongitudeDegrees>16.869603</LongitudeDegrees>
            </Position>
            <AltitudeMeters>909.0</AltitudeMeters>
            <DistanceMeters>46720.977441676</DistanceMeters>
          </Trackpoint>
          <Trackpoint>
            <Position>
              <LatitudeDegrees>50.211875</LatitudeDegrees>
              <LongitudeDegrees>16.869447</LongitudeDegrees>
            </Position>
            <AltitudeMeters>905.0</AltitudeMeters>
            <DistanceMeters>46732.213923725</DistanceMeters>
          </Trackpoint>
          <Trackpoint>
            <Position>
              <LatitudeDegrees>50.21183</LatitudeDegrees>
              <LongitudeDegrees>16.869322</LongitudeDegrees>
            </Position>
            <AltitudeMeters>906.0</AltitudeMeters>
            <DistanceMeters>46742.429627003</DistanceMeters>
          </Trackpoint>
          <Trackpoint>
            <Position>
              <LatitudeDegrees>50.211743</LatitudeDegrees>
              <LongitudeDegrees>16.869273</LongitudeDegrees>
            </Position>
            <AltitudeMeters>908.0</AltitudeMeters>
            <DistanceMeters>46752.722384498</DistanceMeters>
          </Trackpoint>
          <Trackpoint>
            <Position>
              <LatitudeDegrees>50.211675</LatitudeDegrees>
              <LongitudeDegrees>16.86917</LongitudeDegrees>
            </Position>
            <AltitudeMeters>910.0</AltitudeMeters>
            <DistanceMeters>46763.26307046</DistanceMeters>
          </Trackpoint>
          <Trackpoint>
            <Position>
              <LatitudeDegrees>50.211597</LatitudeDegrees>
              <LongitudeDegrees>16.86907</LongitudeDegrees>
            </Position>
            <AltitudeMeters>912.0</AltitudeMeters>
            <DistanceMeters>46774.492719499</DistanceMeters>
          </Trackpoint>
          <Trackpoint>
            <Position>
              <LatitudeDegrees>50.21151</LatitudeDegrees>
              <LongitudeDegrees>16.869</LongitudeDegrees>
            </Position>
            <AltitudeMeters>915.0</AltitudeMeters>
            <DistanceMeters>46785.383958371</DistanceMeters>
          </Trackpoint>
          <Trackpoint>
            <Position>
              <LatitudeDegrees>50.21147</LatitudeDegrees>
              <LongitudeDegrees>16.868865</LongitudeDegrees>
            </Position>
            <AltitudeMeters>915.0</AltitudeMeters>
            <DistanceMeters>46795.980182723</DistanceMeters>
          </Trackpoint>
          <Trackpoint>
            <Position>
              <LatitudeDegrees>50.211393</LatitudeDegrees>
              <LongitudeDegrees>16.868788</LongitudeDegrees>
            </Position>
            <AltitudeMeters>921.0</AltitudeMeters>
            <DistanceMeters>46806.155143481</DistanceMeters>
          </Trackpoint>
          <Trackpoint>
            <Position>
              <LatitudeDegrees>50.211348</LatitudeDegrees>
              <LongitudeDegrees>16.868668</LongitudeDegrees>
            </Position>
            <AltitudeMeters>923.0</AltitudeMeters>
            <DistanceMeters>46816.061649969</DistanceMeters>
          </Trackpoint>
          <Trackpoint>
            <Position>
              <LatitudeDegrees>50.211298</LatitudeDegrees>
              <LongitudeDegrees>16.868535</LongitudeDegrees>
            </Position>
            <AltitudeMeters>925.0</AltitudeMeters>
            <DistanceMeters>46827.048645095</DistanceMeters>
          </Trackpoint>
          <Trackpoint>
            <Position>
              <LatitudeDegrees>50.211253</LatitudeDegrees>
              <LongitudeDegrees>16.868412</LongitudeDegrees>
            </Position>
            <AltitudeMeters>926.0</AltitudeMeters>
            <DistanceMeters>46837.140732699</DistanceMeters>
          </Trackpoint>
          <Trackpoint>
            <Position>
              <LatitudeDegrees>50.211193</LatitudeDegrees>
              <LongitudeDegrees>16.868293</LongitudeDegrees>
            </Position>
            <AltitudeMeters>924.0</AltitudeMeters>
            <DistanceMeters>46847.932019269</DistanceMeters>
          </Trackpoint>
          <Trackpoint>
            <Position>
              <LatitudeDegrees>50.211168</LatitudeDegrees>
              <LongitudeDegrees>16.868155</LongitudeDegrees>
            </Position>
            <AltitudeMeters>926.0</AltitudeMeters>
            <DistanceMeters>46858.147722546</DistanceMeters>
          </Trackpoint>
          <Trackpoint>
            <Position>
              <LatitudeDegrees>50.211115</LatitudeDegrees>
              <LongitudeDegrees>16.868032</LongitudeDegrees>
            </Position>
            <AltitudeMeters>927.0</AltitudeMeters>
            <DistanceMeters>46868.709803989</DistanceMeters>
          </Trackpoint>
          <Trackpoint>
            <Position>
              <LatitudeDegrees>50.211038</LatitudeDegrees>
              <LongitudeDegrees>16.867947</LongitudeDegrees>
            </Position>
            <AltitudeMeters>929.0</AltitudeMeters>
            <DistanceMeters>46879.203266342</DistanceMeters>
          </Trackpoint>
          <Trackpoint>
            <Position>
              <LatitudeDegrees>50.211013</LatitudeDegrees>
              <LongitudeDegrees>16.867803</LongitudeDegrees>
            </Position>
            <AltitudeMeters>931.0</AltitudeMeters>
            <DistanceMeters>46889.830975227</DistanceMeters>
          </Trackpoint>
          <Trackpoint>
            <Position>
              <LatitudeDegrees>50.211023</LatitudeDegrees>
              <LongitudeDegrees>16.867653</LongitudeDegrees>
            </Position>
            <AltitudeMeters>933.0</AltitudeMeters>
            <DistanceMeters>46900.57361815</DistanceMeters>
          </Trackpoint>
          <Trackpoint>
            <Position>
              <LatitudeDegrees>50.211008</LatitudeDegrees>
              <LongitudeDegrees>16.867505</LongitudeDegrees>
            </Position>
            <AltitudeMeters>933.0</AltitudeMeters>
            <DistanceMeters>46911.247110756</DistanceMeters>
          </Trackpoint>
          <Trackpoint>
            <Position>
              <LatitudeDegrees>50.210915</LatitudeDegrees>
              <LongitudeDegrees>16.867447</LongitudeDegrees>
            </Position>
            <AltitudeMeters>932.0</AltitudeMeters>
            <DistanceMeters>46922.39241163</DistanceMeters>
          </Trackpoint>
          <Trackpoint>
            <Position>
              <LatitudeDegrees>50.210842</LatitudeDegrees>
              <LongitudeDegrees>16.86734</LongitudeDegrees>
            </Position>
            <AltitudeMeters>933.0</AltitudeMeters>
            <DistanceMeters>46933.53285016</DistanceMeters>
          </Trackpoint>
          <Trackpoint>
            <Position>
              <LatitudeDegrees>50.21079</LatitudeDegrees>
              <LongitudeDegrees>16.867223</LongitudeDegrees>
            </Position>
            <AltitudeMeters>936.0</AltitudeMeters>
            <DistanceMeters>46943.679371807</DistanceMeters>
          </Trackpoint>
          <Trackpoint>
            <Position>
              <LatitudeDegrees>50.210707</LatitudeDegrees>
              <LongitudeDegrees>16.867122</LongitudeDegrees>
            </Position>
            <AltitudeMeters>937.0</AltitudeMeters>
            <DistanceMeters>46955.388113011</DistanceMeters>
          </Trackpoint>
          <Trackpoint>
            <Position>
              <LatitudeDegrees>50.210623</LatitudeDegrees>
              <LongitudeDegrees>16.867048</LongitudeDegrees>
            </Position>
            <AltitudeMeters>937.0</AltitudeMeters>
            <DistanceMeters>46966.121084882</DistanceMeters>
          </Trackpoint>
          <Trackpoint>
            <Position>
              <LatitudeDegrees>50.21073</LatitudeDegrees>
              <LongitudeDegrees>16.866982</LongitudeDegrees>
            </Position>
            <AltitudeMeters>938.0</AltitudeMeters>
            <DistanceMeters>46978.924678431</DistanceMeters>
          </Trackpoint>
          <Trackpoint>
            <Position>
              <LatitudeDegrees>50.21068</LatitudeDegrees>
              <LongitudeDegrees>16.86685</LongitudeDegrees>
            </Position>
            <AltitudeMeters>940.0</AltitudeMeters>
            <DistanceMeters>46989.85068459</DistanceMeters>
          </Trackpoint>
          <Trackpoint>
            <Position>
              <LatitudeDegrees>50.210657</LatitudeDegrees>
              <LongitudeDegrees>16.86671</LongitudeDegrees>
            </Position>
            <AltitudeMeters>943.0</AltitudeMeters>
            <DistanceMeters>47000.146073718</DistanceMeters>
          </Trackpoint>
          <Trackpoint>
            <Position>
              <LatitudeDegrees>50.210615</LatitudeDegrees>
              <LongitudeDegrees>16.866567</LongitudeDegrees>
            </Position>
            <AltitudeMeters>946.0</AltitudeMeters>
            <DistanceMeters>47011.353184553</DistanceMeters>
          </Trackpoint>
          <Trackpoint>
            <Position>
              <LatitudeDegrees>50.210577</LatitudeDegrees>
              <LongitudeDegrees>16.86616</LongitudeDegrees>
            </Position>
            <AltitudeMeters>947.0</AltitudeMeters>
            <DistanceMeters>47040.650708105</DistanceMeters>
          </Trackpoint>
          <Trackpoint>
            <Position>
              <LatitudeDegrees>50.210553</LatitudeDegrees>
              <LongitudeDegrees>16.865998</LongitudeDegrees>
            </Position>
            <AltitudeMeters>951.0</AltitudeMeters>
            <DistanceMeters>47052.49516958</DistanceMeters>
          </Trackpoint>
          <Trackpoint>
            <Position>
              <LatitudeDegrees>50.210548</LatitudeDegrees>
              <LongitudeDegrees>16.865855</LongitudeDegrees>
            </Position>
            <AltitudeMeters>960.0</AltitudeMeters>
            <DistanceMeters>47062.695834797</DistanceMeters>
          </Trackpoint>
          <Trackpoint>
            <Position>
              <LatitudeDegrees>50.210475</LatitudeDegrees>
              <LongitudeDegrees>16.865763</LongitudeDegrees>
            </Position>
            <AltitudeMeters>970.0</AltitudeMeters>
            <DistanceMeters>47073.1340771</DistanceMeters>
          </Trackpoint>
          <Trackpoint>
            <Position>
              <LatitudeDegrees>50.210428</LatitudeDegrees>
              <LongitudeDegrees>16.86562</LongitudeDegrees>
            </Position>
            <AltitudeMeters>971.0</AltitudeMeters>
            <DistanceMeters>47084.584697606</DistanceMeters>
          </Trackpoint>
          <Trackpoint>
            <Position>
              <LatitudeDegrees>50.210417</LatitudeDegrees>
              <LongitudeDegrees>16.865473</LongitudeDegrees>
            </Position>
            <AltitudeMeters>973.0</AltitudeMeters>
            <DistanceMeters>47095.127096805</DistanceMeters>
          </Trackpoint>
          <Trackpoint>
            <Position>
              <LatitudeDegrees>50.210393</LatitudeDegrees>
              <LongitudeDegrees>16.865337</LongitudeDegrees>
            </Position>
            <AltitudeMeters>974.0</AltitudeMeters>
            <DistanceMeters>47105.175694458</DistanceMeters>
          </Trackpoint>
          <Trackpoint>
            <Position>
              <LatitudeDegrees>50.210475</LatitudeDegrees>
              <LongitudeDegrees>16.865277</LongitudeDegrees>
            </Position>
            <AltitudeMeters>974.0</AltitudeMeters>
            <DistanceMeters>47115.253903616</DistanceMeters>
          </Trackpoint>
          <Trackpoint>
            <Position>
              <LatitudeDegrees>50.210573</LatitudeDegrees>
              <LongitudeDegrees>16.865253</LongitudeDegrees>
            </Position>
            <AltitudeMeters>973.0</AltitudeMeters>
            <DistanceMeters>47126.294601145</DistanceMeters>
          </Trackpoint>
          <Trackpoint>
            <Position>
              <LatitudeDegrees>50.210472</LatitudeDegrees>
              <LongitudeDegrees>16.865287</LongitudeDegrees>
            </Position>
            <AltitudeMeters>972.0</AltitudeMeters>
            <DistanceMeters>47137.79401154</DistanceMeters>
          </Trackpoint>
          <Trackpoint>
            <Position>
              <LatitudeDegrees>50.2104</LatitudeDegrees>
              <LongitudeDegrees>16.865193</LongitudeDegrees>
            </Position>
            <AltitudeMeters>974.0</AltitudeMeters>
            <DistanceMeters>47148.236578425</DistanceMeters>
          </Trackpoint>
          <Trackpoint>
            <Position>
              <LatitudeDegrees>50.210332</LatitudeDegrees>
              <LongitudeDegrees>16.865103</LongitudeDegrees>
            </Position>
            <AltitudeMeters>975.0</AltitudeMeters>
            <DistanceMeters>47158.154927722</DistanceMeters>
          </Trackpoint>
          <Trackpoint>
            <Position>
              <LatitudeDegrees>50.21038</LatitudeDegrees>
              <LongitudeDegrees>16.864975</LongitudeDegrees>
            </Position>
            <AltitudeMeters>979.0</AltitudeMeters>
            <DistanceMeters>47168.722137633</DistanceMeters>
          </Trackpoint>
          <Trackpoint>
            <Position>
              <LatitudeDegrees>50.2105</LatitudeDegrees>
              <LongitudeDegrees>16.864925</LongitudeDegrees>
            </Position>
            <AltitudeMeters>979.0</AltitudeMeters>
            <DistanceMeters>47182.545177008</DistanceMeters>
          </Trackpoint>
          <Trackpoint>
            <Position>
              <LatitudeDegrees>50.210375</LatitudeDegrees>
              <LongitudeDegrees>16.864962</LongitudeDegrees>
            </Position>
            <AltitudeMeters>979.0</AltitudeMeters>
            <DistanceMeters>47196.705114061</DistanceMeters>
          </Trackpoint>
          <Trackpoint>
            <Position>
              <LatitudeDegrees>50.21026</LatitudeDegrees>
              <LongitudeDegrees>16.864975</LongitudeDegrees>
            </Position>
            <AltitudeMeters>979.0</AltitudeMeters>
            <DistanceMeters>47209.538295046</DistanceMeters>
          </Trackpoint>
          <Trackpoint>
            <Position>
              <LatitudeDegrees>50.210177</LatitudeDegrees>
              <LongitudeDegrees>16.864882</LongitudeDegrees>
            </Position>
            <AltitudeMeters>979.0</AltitudeMeters>
            <DistanceMeters>47220.905809898</DistanceMeters>
          </Trackpoint>
          <Trackpoint>
            <Position>
              <LatitudeDegrees>50.210068</LatitudeDegrees>
              <LongitudeDegrees>16.8647</LongitudeDegrees>
            </Position>
            <AltitudeMeters>980.0</AltitudeMeters>
            <DistanceMeters>47238.660808312</DistanceMeters>
          </Trackpoint>
          <Trackpoint>
            <Position>
              <LatitudeDegrees>50.210133</LatitudeDegrees>
              <LongitudeDegrees>16.864552</LongitudeDegrees>
            </Position>
            <AltitudeMeters>979.0</AltitudeMeters>
            <DistanceMeters>47251.446404655</DistanceMeters>
          </Trackpoint>
          <Trackpoint>
            <Position>
              <LatitudeDegrees>50.210218</LatitudeDegrees>
              <LongitudeDegrees>16.864473</LongitudeDegrees>
            </Position>
            <AltitudeMeters>987.0</AltitudeMeters>
            <DistanceMeters>47262.453927797</DistanceMeters>
          </Trackpoint>
          <Trackpoint>
            <Position>
              <LatitudeDegrees>50.210158</LatitudeDegrees>
              <LongitudeDegrees>16.864352</LongitudeDegrees>
            </Position>
            <AltitudeMeters>990.0</AltitudeMeters>
            <DistanceMeters>47273.356768084</DistanceMeters>
          </Trackpoint>
          <Trackpoint>
            <Position>
              <LatitudeDegrees>50.210072</LatitudeDegrees>
              <LongitudeDegrees>16.864297</LongitudeDegrees>
            </Position>
            <AltitudeMeters>992.0</AltitudeMeters>
            <DistanceMeters>47283.699412115</DistanceMeters>
          </Trackpoint>
          <Trackpoint>
            <Position>
              <LatitudeDegrees>50.209978</LatitudeDegrees>
              <LongitudeDegrees>16.86426</LongitudeDegrees>
            </Position>
            <AltitudeMeters>994.0</AltitudeMeters>
            <DistanceMeters>47294.488606498</DistanceMeters>
          </Trackpoint>
          <Trackpoint>
            <Position>
              <LatitudeDegrees>50.209925</LatitudeDegrees>
              <LongitudeDegrees>16.864133</LongitudeDegrees>
            </Position>
            <AltitudeMeters>997.0</AltitudeMeters>
            <DistanceMeters>47305.288257759</DistanceMeters>
          </Trackpoint>
          <Trackpoint>
            <Position>
              <LatitudeDegrees>50.210015</LatitudeDegrees>
              <LongitudeDegrees>16.864082</LongitudeDegrees>
            </Position>
            <AltitudeMeters>999.0</AltitudeMeters>
            <DistanceMeters>47315.943545232</DistanceMeters>
          </Trackpoint>
          <Trackpoint>
            <Position>
              <LatitudeDegrees>50.210097</LatitudeDegrees>
              <LongitudeDegrees>16.864143</LongitudeDegrees>
            </Position>
            <AltitudeMeters>1001.0</AltitudeMeters>
            <DistanceMeters>47326.05217249</DistanceMeters>
          </Trackpoint>
          <Trackpoint>
            <Position>
              <LatitudeDegrees>50.210182</LatitudeDegrees>
              <LongitudeDegrees>16.864203</LongitudeDegrees>
            </Position>
            <AltitudeMeters>1001.0</AltitudeMeters>
            <DistanceMeters>47336.433161473</DistanceMeters>
          </Trackpoint>
          <Trackpoint>
            <Position>
              <LatitudeDegrees>50.210245</LatitudeDegrees>
              <LongitudeDegrees>16.864328</LongitudeDegrees>
            </Position>
            <AltitudeMeters>1001.0</AltitudeMeters>
            <DistanceMeters>47347.766466699</DistanceMeters>
          </Trackpoint>
          <Trackpoint>
            <Position>
              <LatitudeDegrees>50.210345</LatitudeDegrees>
              <LongitudeDegrees>16.864353</LongitudeDegrees>
            </Position>
            <AltitudeMeters>1001.0</AltitudeMeters>
            <DistanceMeters>47359.038253406</DistanceMeters>
          </Trackpoint>
          <Trackpoint>
            <Position>
              <LatitudeDegrees>50.210392</LatitudeDegrees>
              <LongitudeDegrees>16.864497</LongitudeDegrees>
            </Position>
            <AltitudeMeters>1001.0</AltitudeMeters>
            <DistanceMeters>47370.552574157</DistanceMeters>
          </Trackpoint>
          <Trackpoint>
            <Position>
              <LatitudeDegrees>50.210462</LatitudeDegrees>
              <LongitudeDegrees>16.864587</LongitudeDegrees>
            </Position>
            <AltitudeMeters>1001.0</AltitudeMeters>
            <DistanceMeters>47380.641529587</DistanceMeters>
          </Trackpoint>
          <Trackpoint>
            <Position>
              <LatitudeDegrees>50.210498</LatitudeDegrees>
              <LongitudeDegrees>16.864715</LongitudeDegrees>
            </Position>
            <AltitudeMeters>1000.0</AltitudeMeters>
            <DistanceMeters>47390.600311118</DistanceMeters>
          </Trackpoint>
          <Trackpoint>
            <Position>
              <LatitudeDegrees>50.21059</LatitudeDegrees>
              <LongitudeDegrees>16.86472</LongitudeDegrees>
            </Position>
            <AltitudeMeters>1000.0</AltitudeMeters>
            <DistanceMeters>47400.846464969</DistanceMeters>
          </Trackpoint>
          <Trackpoint>
            <Position>
              <LatitudeDegrees>50.210685</LatitudeDegrees>
              <LongitudeDegrees>16.864755</LongitudeDegrees>
            </Position>
            <AltitudeMeters>1000.0</AltitudeMeters>
            <DistanceMeters>47411.710308632</DistanceMeters>
          </Trackpoint>
          <Trackpoint>
            <Position>
              <LatitudeDegrees>50.210777</LatitudeDegrees>
              <LongitudeDegrees>16.864752</LongitudeDegrees>
            </Position>
            <AltitudeMeters>1000.0</AltitudeMeters>
            <DistanceMeters>47421.952054966</DistanceMeters>
          </Trackpoint>
          <Trackpoint>
            <Position>
              <LatitudeDegrees>50.210845</LatitudeDegrees>
              <LongitudeDegrees>16.864792</LongitudeDegrees>
            </Position>
            <AltitudeMeters>1000.0</AltitudeMeters>
            <DistanceMeters>47430.038822775</DistanceMeters>
          </Trackpoint>
          <Trackpoint>
            <Position>
              <LatitudeDegrees>50.210868</LatitudeDegrees>
              <LongitudeDegrees>16.8648</LongitudeDegrees>
            </Position>
            <AltitudeMeters>1000.0</AltitudeMeters>
            <DistanceMeters>47432.661973219</DistanceMeters>
          </Trackpoint>
          <Trackpoint>
            <Position>
              <LatitudeDegrees>50.21089</LatitudeDegrees>
              <LongitudeDegrees>16.864812</LongitudeDegrees>
            </Position>
            <AltitudeMeters>1000.0</AltitudeMeters>
            <DistanceMeters>47435.255697752</DistanceMeters>
          </Trackpoint>
          <Trackpoint>
            <Position>
              <LatitudeDegrees>50.210915</LatitudeDegrees>
              <LongitudeDegrees>16.864828</LongitudeDegrees>
            </Position>
            <AltitudeMeters>1000.0</AltitudeMeters>
            <DistanceMeters>47438.263709819</DistanceMeters>
          </Trackpoint>
          <Trackpoint>
            <Position>
              <LatitudeDegrees>50.21096</LatitudeDegrees>
              <LongitudeDegrees>16.864862</LongitudeDegrees>
            </Position>
            <AltitudeMeters>999.0</AltitudeMeters>
            <DistanceMeters>47443.827440766</DistanceMeters>
          </Trackpoint>
          <Trackpoint>
            <Position>
              <LatitudeDegrees>50.21104</LatitudeDegrees>
              <LongitudeDegrees>16.864905</LongitudeDegrees>
            </Position>
            <AltitudeMeters>999.0</AltitudeMeters>
            <DistanceMeters>47453.244199799</DistanceMeters>
          </Trackpoint>
          <Trackpoint>
            <Position>
              <LatitudeDegrees>50.211063</LatitudeDegrees>
              <LongitudeDegrees>16.864922</LongitudeDegrees>
            </Position>
            <AltitudeMeters>999.0</AltitudeMeters>
            <DistanceMeters>47456.07593211</DistanceMeters>
          </Trackpoint>
          <Trackpoint>
            <Position>
              <LatitudeDegrees>50.21109</LatitudeDegrees>
              <LongitudeDegrees>16.864938</LongitudeDegrees>
            </Position>
            <AltitudeMeters>999.0</AltitudeMeters>
            <DistanceMeters>47459.290027231</DistanceMeters>
          </Trackpoint>
          <Trackpoint>
            <Position>
              <LatitudeDegrees>50.211112</LatitudeDegrees>
              <LongitudeDegrees>16.86495</LongitudeDegrees>
            </Position>
            <AltitudeMeters>999.0</AltitudeMeters>
            <DistanceMeters>47461.882010425</DistanceMeters>
          </Trackpoint>
          <Trackpoint>
            <Position>
              <LatitudeDegrees>50.211198</LatitudeDegrees>
              <LongitudeDegrees>16.865005</LongitudeDegrees>
            </Position>
            <AltitudeMeters>999.0</AltitudeMeters>
            <DistanceMeters>47472.224654456</DistanceMeters>
          </Trackpoint>
          <Trackpoint>
            <Position>
              <LatitudeDegrees>50.211218</LatitudeDegrees>
              <LongitudeDegrees>16.865018</LongitudeDegrees>
            </Position>
            <AltitudeMeters>999.0</AltitudeMeters>
            <DistanceMeters>47474.636162123</DistanceMeters>
          </Trackpoint>
          <Trackpoint>
            <Position>
              <LatitudeDegrees>50.211242</LatitudeDegrees>
              <LongitudeDegrees>16.86504</LongitudeDegrees>
            </Position>
            <AltitudeMeters>998.0</AltitudeMeters>
            <DistanceMeters>47477.73292514</DistanceMeters>
          </Trackpoint>
          <Trackpoint>
            <Position>
              <LatitudeDegrees>50.211325</LatitudeDegrees>
              <LongitudeDegrees>16.865097</LongitudeDegrees>
            </Position>
            <AltitudeMeters>998.0</AltitudeMeters>
            <DistanceMeters>47487.824565351</DistanceMeters>
          </Trackpoint>
          <Trackpoint>
            <Position>
              <LatitudeDegrees>50.21142</LatitudeDegrees>
              <LongitudeDegrees>16.865112</LongitudeDegrees>
            </Position>
            <AltitudeMeters>998.0</AltitudeMeters>
            <DistanceMeters>47498.452274236</DistanceMeters>
          </Trackpoint>
          <Trackpoint>
            <Position>
              <LatitudeDegrees>50.211525</LatitudeDegrees>
              <LongitudeDegrees>16.865127</LongitudeDegrees>
            </Position>
            <AltitudeMeters>997.0</AltitudeMeters>
            <DistanceMeters>47510.187207801</DistanceMeters>
          </Trackpoint>
          <Trackpoint>
            <Position>
              <LatitudeDegrees>50.211622</LatitudeDegrees>
              <LongitudeDegrees>16.86515</LongitudeDegrees>
            </Position>
            <AltitudeMeters>997.0</AltitudeMeters>
            <DistanceMeters>47521.107427099</DistanceMeters>
          </Trackpoint>
          <Trackpoint>
            <Position>
              <LatitudeDegrees>50.21171</LatitudeDegrees>
              <LongitudeDegrees>16.865192</LongitudeDegrees>
            </Position>
            <AltitudeMeters>997.0</AltitudeMeters>
            <DistanceMeters>47531.349173434</DistanceMeters>
          </Trackpoint>
          <Trackpoint>
            <Position>
              <LatitudeDegrees>50.2118</LatitudeDegrees>
              <LongitudeDegrees>16.865247</LongitudeDegrees>
            </Position>
            <AltitudeMeters>997.0</AltitudeMeters>
            <DistanceMeters>47542.105257265</DistanceMeters>
          </Trackpoint>
          <Trackpoint>
            <Position>
              <LatitudeDegrees>50.211898</LatitudeDegrees>
              <LongitudeDegrees>16.865278</LongitudeDegrees>
            </Position>
            <AltitudeMeters>996.0</AltitudeMeters>
            <DistanceMeters>47553.234342066</DistanceMeters>
          </Trackpoint>
          <Trackpoint>
            <Position>
              <LatitudeDegrees>50.211993</LatitudeDegrees>
              <LongitudeDegrees>16.865315</LongitudeDegrees>
            </Position>
            <AltitudeMeters>996.0</AltitudeMeters>
            <DistanceMeters>47564.131383189</DistanceMeters>
          </Trackpoint>
          <Trackpoint>
            <Position>
              <LatitudeDegrees>50.21204</LatitudeDegrees>
              <LongitudeDegrees>16.865343</LongitudeDegrees>
            </Position>
            <AltitudeMeters>995.0</AltitudeMeters>
            <DistanceMeters>47569.729900434</DistanceMeters>
          </Trackpoint>
          <Trackpoint>
            <Position>
              <LatitudeDegrees>50.212127</LatitudeDegrees>
              <LongitudeDegrees>16.865385</LongitudeDegrees>
            </Position>
            <AltitudeMeters>995.0</AltitudeMeters>
            <DistanceMeters>47579.864845898</DistanceMeters>
          </Trackpoint>
          <Trackpoint>
            <Position>
              <LatitudeDegrees>50.212157</LatitudeDegrees>
              <LongitudeDegrees>16.865398</LongitudeDegrees>
            </Position>
            <AltitudeMeters>995.0</AltitudeMeters>
            <DistanceMeters>47583.330390829</DistanceMeters>
          </Trackpoint>
          <Trackpoint>
            <Position>
              <LatitudeDegrees>50.212182</LatitudeDegrees>
              <LongitudeDegrees>16.86541</LongitudeDegrees>
            </Position>
            <AltitudeMeters>996.0</AltitudeMeters>
            <DistanceMeters>47586.240753642</DistanceMeters>
          </Trackpoint>
          <Trackpoint>
            <Position>
              <LatitudeDegrees>50.212202</LatitudeDegrees>
              <LongitudeDegrees>16.86542</LongitudeDegrees>
            </Position>
            <AltitudeMeters>996.0</AltitudeMeters>
            <DistanceMeters>47588.576169274</DistanceMeters>
          </Trackpoint>
          <Trackpoint>
            <Position>
              <LatitudeDegrees>50.212228</LatitudeDegrees>
              <LongitudeDegrees>16.86543</LongitudeDegrees>
            </Position>
            <AltitudeMeters>996.0</AltitudeMeters>
            <DistanceMeters>47591.557040827</DistanceMeters>
          </Trackpoint>
          <Trackpoint>
            <Position>
              <LatitudeDegrees>50.212255</LatitudeDegrees>
              <LongitudeDegrees>16.865443</LongitudeDegrees>
            </Position>
            <AltitudeMeters>996.0</AltitudeMeters>
            <DistanceMeters>47594.702984848</DistanceMeters>
          </Trackpoint>
          <Trackpoint>
            <Position>
              <LatitudeDegrees>50.212283</LatitudeDegrees>
              <LongitudeDegrees>16.865452</LongitudeDegrees>
            </Position>
            <AltitudeMeters>996.0</AltitudeMeters>
            <DistanceMeters>47597.883186983</DistanceMeters>
          </Trackpoint>
          <Trackpoint>
            <Position>
              <LatitudeDegrees>50.212312</LatitudeDegrees>
              <LongitudeDegrees>16.86547</LongitudeDegrees>
            </Position>
            <AltitudeMeters>996.0</AltitudeMeters>
            <DistanceMeters>47601.356540136</DistanceMeters>
          </Trackpoint>
          <Trackpoint>
            <Position>
              <LatitudeDegrees>50.21234</LatitudeDegrees>
              <LongitudeDegrees>16.865487</LongitudeDegrees>
            </Position>
            <AltitudeMeters>996.0</AltitudeMeters>
            <DistanceMeters>47604.698725733</DistanceMeters>
          </Trackpoint>
          <Trackpoint>
            <Position>
              <LatitudeDegrees>50.212372</LatitudeDegrees>
              <LongitudeDegrees>16.865497</LongitudeDegrees>
            </Position>
            <AltitudeMeters>996.0</AltitudeMeters>
            <DistanceMeters>47608.329691391</DistanceMeters>
          </Trackpoint>
          <Trackpoint>
            <Position>
              <LatitudeDegrees>50.2124</LatitudeDegrees>
              <LongitudeDegrees>16.865507</LongitudeDegrees>
            </Position>
            <AltitudeMeters>997.0</AltitudeMeters>
            <DistanceMeters>47611.526884931</DistanceMeters>
          </Trackpoint>
          <Trackpoint>
            <Position>
              <LatitudeDegrees>50.21243</LatitudeDegrees>
              <LongitudeDegrees>16.865517</LongitudeDegrees>
            </Position>
            <AltitudeMeters>996.0</AltitudeMeters>
            <DistanceMeters>47614.939918569</DistanceMeters>
          </Trackpoint>
          <Trackpoint>
            <Position>
              <LatitudeDegrees>50.212457</LatitudeDegrees>
              <LongitudeDegrees>16.865528</LongitudeDegrees>
            </Position>
            <AltitudeMeters>997.0</AltitudeMeters>
            <DistanceMeters>47618.045417183</DistanceMeters>
          </Trackpoint>
          <Trackpoint>
            <Position>
              <LatitudeDegrees>50.212475</LatitudeDegrees>
              <LongitudeDegrees>16.865545</LongitudeDegrees>
            </Position>
            <AltitudeMeters>997.0</AltitudeMeters>
            <DistanceMeters>47620.384696201</DistanceMeters>
          </Trackpoint>
          <Trackpoint>
            <Position>
              <LatitudeDegrees>50.212495</LatitudeDegrees>
              <LongitudeDegrees>16.865557</LongitudeDegrees>
            </Position>
            <AltitudeMeters>996.0</AltitudeMeters>
            <DistanceMeters>47622.769847802</DistanceMeters>
          </Trackpoint>
          <Trackpoint>
            <Position>
              <LatitudeDegrees>50.212528</LatitudeDegrees>
              <LongitudeDegrees>16.865565</LongitudeDegrees>
            </Position>
            <AltitudeMeters>997.0</AltitudeMeters>
            <DistanceMeters>47626.486838111</DistanceMeters>
          </Trackpoint>
          <Trackpoint>
            <Position>
              <LatitudeDegrees>50.212557</LatitudeDegrees>
              <LongitudeDegrees>16.86559</LongitudeDegrees>
            </Position>
            <AltitudeMeters>997.0</AltitudeMeters>
            <DistanceMeters>47630.172110825</DistanceMeters>
          </Trackpoint>
          <Trackpoint>
            <Position>
              <LatitudeDegrees>50.212587</LatitudeDegrees>
              <LongitudeDegrees>16.865602</LongitudeDegrees>
            </Position>
            <AltitudeMeters>997.0</AltitudeMeters>
            <DistanceMeters>47633.618057795</DistanceMeters>
          </Trackpoint>
          <Trackpoint>
            <Position>
              <LatitudeDegrees>50.212617</LatitudeDegrees>
              <LongitudeDegrees>16.865605</LongitudeDegrees>
            </Position>
            <AltitudeMeters>997.0</AltitudeMeters>
            <DistanceMeters>47636.962944148</DistanceMeters>
          </Trackpoint>
          <Trackpoint>
            <Position>
              <LatitudeDegrees>50.212642</LatitudeDegrees>
              <LongitudeDegrees>16.865608</LongitudeDegrees>
            </Position>
            <AltitudeMeters>997.0</AltitudeMeters>
            <DistanceMeters>47639.752912946</DistanceMeters>
          </Trackpoint>
          <Trackpoint>
            <Position>
              <LatitudeDegrees>50.21267</LatitudeDegrees>
              <LongitudeDegrees>16.865612</LongitudeDegrees>
            </Position>
            <AltitudeMeters>997.0</AltitudeMeters>
            <DistanceMeters>47642.883030028</DistanceMeters>
          </Trackpoint>
          <Trackpoint>
            <Position>
              <LatitudeDegrees>50.212697</LatitudeDegrees>
              <LongitudeDegrees>16.865617</LongitudeDegrees>
            </Position>
            <AltitudeMeters>997.0</AltitudeMeters>
            <DistanceMeters>47645.909000535</DistanceMeters>
          </Trackpoint>
          <Trackpoint>
            <Position>
              <LatitudeDegrees>50.21272</LatitudeDegrees>
              <LongitudeDegrees>16.865615</LongitudeDegrees>
            </Position>
            <AltitudeMeters>997.0</AltitudeMeters>
            <DistanceMeters>47648.472961466</DistanceMeters>
          </Trackpoint>
          <Trackpoint>
            <Position>
              <LatitudeDegrees>50.21281</LatitudeDegrees>
              <LongitudeDegrees>16.865637</LongitudeDegrees>
            </Position>
            <AltitudeMeters>997.0</AltitudeMeters>
            <DistanceMeters>47658.611915565</DistanceMeters>
          </Trackpoint>
          <Trackpoint>
            <Position>
              <LatitudeDegrees>50.21291</LatitudeDegrees>
              <LongitudeDegrees>16.865648</LongitudeDegrees>
            </Position>
            <AltitudeMeters>997.0</AltitudeMeters>
            <DistanceMeters>47669.769767685</DistanceMeters>
          </Trackpoint>
          <Trackpoint>
            <Position>
              <LatitudeDegrees>50.213</LatitudeDegrees>
              <LongitudeDegrees>16.865663</LongitudeDegrees>
            </Position>
            <AltitudeMeters>996.0</AltitudeMeters>
            <DistanceMeters>47679.843944037</DistanceMeters>
          </Trackpoint>
          <Trackpoint>
            <Position>
              <LatitudeDegrees>50.21303</LatitudeDegrees>
              <LongitudeDegrees>16.865672</LongitudeDegrees>
            </Position>
            <AltitudeMeters>996.0</AltitudeMeters>
            <DistanceMeters>47683.243723125</DistanceMeters>
          </Trackpoint>
          <Trackpoint>
            <Position>
              <LatitudeDegrees>50.213123</LatitudeDegrees>
              <LongitudeDegrees>16.865697</LongitudeDegrees>
            </Position>
            <AltitudeMeters>996.0</AltitudeMeters>
            <DistanceMeters>47693.746647186</DistanceMeters>
          </Trackpoint>
          <Trackpoint>
            <Position>
              <LatitudeDegrees>50.213223</LatitudeDegrees>
              <LongitudeDegrees>16.865717</LongitudeDegrees>
            </Position>
            <AltitudeMeters>997.0</AltitudeMeters>
            <DistanceMeters>47704.967849703</DistanceMeters>
          </Trackpoint>
          <Trackpoint>
            <Position>
              <LatitudeDegrees>50.213258</LatitudeDegrees>
              <LongitudeDegrees>16.86572</LongitudeDegrees>
            </Position>
            <AltitudeMeters>997.0</AltitudeMeters>
            <DistanceMeters>47708.869735002</DistanceMeters>
          </Trackpoint>
          <Trackpoint>
            <Position>
              <LatitudeDegrees>50.213285</LatitudeDegrees>
              <LongitudeDegrees>16.865727</LongitudeDegrees>
            </Position>
            <AltitudeMeters>996.0</AltitudeMeters>
            <DistanceMeters>47711.916523243</DistanceMeters>
          </Trackpoint>
          <Trackpoint>
            <Position>
              <LatitudeDegrees>50.213317</LatitudeDegrees>
              <LongitudeDegrees>16.865728</LongitudeDegrees>
            </Position>
            <AltitudeMeters>997.0</AltitudeMeters>
            <DistanceMeters>47715.478440901</DistanceMeters>
          </Trackpoint>
          <Trackpoint>
            <Position>
              <LatitudeDegrees>50.213347</LatitudeDegrees>
              <LongitudeDegrees>16.865728</LongitudeDegrees>
            </Position>
            <AltitudeMeters>997.0</AltitudeMeters>
            <DistanceMeters>47718.815218427</DistanceMeters>
          </Trackpoint>
          <Trackpoint>
            <Position>
              <LatitudeDegrees>50.213378</LatitudeDegrees>
              <LongitudeDegrees>16.865732</LongitudeDegrees>
            </Position>
            <AltitudeMeters>997.0</AltitudeMeters>
            <DistanceMeters>47722.275548088</DistanceMeters>
          </Trackpoint>
          <Trackpoint>
            <Position>
              <LatitudeDegrees>50.213407</LatitudeDegrees>
              <LongitudeDegrees>16.865732</LongitudeDegrees>
            </Position>
            <AltitudeMeters>997.0</AltitudeMeters>
            <DistanceMeters>47725.502261298</DistanceMeters>
          </Trackpoint>
          <Trackpoint>
            <Position>
              <LatitudeDegrees>50.213437</LatitudeDegrees>
              <LongitudeDegrees>16.865732</LongitudeDegrees>
            </Position>
            <AltitudeMeters>997.0</AltitudeMeters>
            <DistanceMeters>47728.841743954</DistanceMeters>
          </Trackpoint>
          <Trackpoint>
            <Position>
              <LatitudeDegrees>50.213467</LatitudeDegrees>
              <LongitudeDegrees>16.865732</LongitudeDegrees>
            </Position>
            <AltitudeMeters>997.0</AltitudeMeters>
            <DistanceMeters>47732.18122661</DistanceMeters>
          </Trackpoint>
          <Trackpoint>
            <Position>
              <LatitudeDegrees>50.213497</LatitudeDegrees>
              <LongitudeDegrees>16.865733</LongitudeDegrees>
            </Position>
            <AltitudeMeters>997.0</AltitudeMeters>
            <DistanceMeters>47735.520709265</DistanceMeters>
          </Trackpoint>
          <Trackpoint>
            <Position>
              <LatitudeDegrees>50.213523</LatitudeDegrees>
              <LongitudeDegrees>16.865733</LongitudeDegrees>
            </Position>
            <AltitudeMeters>998.0</AltitudeMeters>
            <DistanceMeters>47738.415516848</DistanceMeters>
          </Trackpoint>
          <Trackpoint>
            <Position>
              <LatitudeDegrees>50.21355</LatitudeDegrees>
              <LongitudeDegrees>16.865732</LongitudeDegrees>
            </Position>
            <AltitudeMeters>998.0</AltitudeMeters>
            <DistanceMeters>47741.422027537</DistanceMeters>
          </Trackpoint>
          <Trackpoint>
            <Position>
              <LatitudeDegrees>50.213575</LatitudeDegrees>
              <LongitudeDegrees>16.865732</LongitudeDegrees>
            </Position>
            <AltitudeMeters>997.0</AltitudeMeters>
            <DistanceMeters>47744.205515562</DistanceMeters>
          </Trackpoint>
          <Trackpoint>
            <Position>
              <LatitudeDegrees>50.213602</LatitudeDegrees>
              <LongitudeDegrees>16.865727</LongitudeDegrees>
            </Position>
            <AltitudeMeters>997.0</AltitudeMeters>
            <DistanceMeters>47747.23148607</DistanceMeters>
          </Trackpoint>
          <Trackpoint>
            <Position>
              <LatitudeDegrees>50.21363</LatitudeDegrees>
              <LongitudeDegrees>16.86573</LongitudeDegrees>
            </Position>
            <AltitudeMeters>997.0</AltitudeMeters>
            <DistanceMeters>47750.354382572</DistanceMeters>
          </Trackpoint>
          <Trackpoint>
            <Position>
              <LatitudeDegrees>50.213657</LatitudeDegrees>
              <LongitudeDegrees>16.865733</LongitudeDegrees>
            </Position>
            <AltitudeMeters>997.0</AltitudeMeters>
            <DistanceMeters>47753.366894285</DistanceMeters>
          </Trackpoint>
          <Trackpoint>
            <Position>
              <LatitudeDegrees>50.213683</LatitudeDegrees>
              <LongitudeDegrees>16.865733</LongitudeDegrees>
            </Position>
            <AltitudeMeters>996.0</AltitudeMeters>
            <DistanceMeters>47756.260141745</DistanceMeters>
          </Trackpoint>
          <Trackpoint>
            <Position>
              <LatitudeDegrees>50.213708</LatitudeDegrees>
              <LongitudeDegrees>16.865733</LongitudeDegrees>
            </Position>
            <AltitudeMeters>996.0</AltitudeMeters>
            <DistanceMeters>47759.043629771</DistanceMeters>
          </Trackpoint>
          <Trackpoint>
            <Position>
              <LatitudeDegrees>50.213737</LatitudeDegrees>
              <LongitudeDegrees>16.86573</LongitudeDegrees>
            </Position>
            <AltitudeMeters>996.0</AltitudeMeters>
            <DistanceMeters>47762.278727698</DistanceMeters>
          </Trackpoint>
          <Trackpoint>
            <Position>
              <LatitudeDegrees>50.213765</LatitudeDegrees>
              <LongitudeDegrees>16.865728</LongitudeDegrees>
            </Position>
            <AltitudeMeters>996.0</AltitudeMeters>
            <DistanceMeters>47765.398731289</DistanceMeters>
          </Trackpoint>
          <Trackpoint>
            <Position>
              <LatitudeDegrees>50.213793</LatitudeDegrees>
              <LongitudeDegrees>16.865728</LongitudeDegrees>
            </Position>
            <AltitudeMeters>996.0</AltitudeMeters>
            <DistanceMeters>47768.514390477</DistanceMeters>
          </Trackpoint>
          <Trackpoint>
            <Position>
              <LatitudeDegrees>50.213815</LatitudeDegrees>
              <LongitudeDegrees>16.865727</LongitudeDegrees>
            </Position>
            <AltitudeMeters>996.0</AltitudeMeters>
            <DistanceMeters>47770.963057616</DistanceMeters>
          </Trackpoint>
          <Trackpoint>
            <Position>
              <LatitudeDegrees>50.21384</LatitudeDegrees>
              <LongitudeDegrees>16.865727</LongitudeDegrees>
            </Position>
            <AltitudeMeters>996.0</AltitudeMeters>
            <DistanceMeters>47773.74492309</DistanceMeters>
          </Trackpoint>
          <Trackpoint>
            <Position>
              <LatitudeDegrees>50.213867</LatitudeDegrees>
              <LongitudeDegrees>16.865732</LongitudeDegrees>
            </Position>
            <AltitudeMeters>997.0</AltitudeMeters>
            <DistanceMeters>47776.770893598</DistanceMeters>
          </Trackpoint>
          <Trackpoint>
            <Position>
              <LatitudeDegrees>50.213893</LatitudeDegrees>
              <LongitudeDegrees>16.865728</LongitudeDegrees>
            </Position>
            <AltitudeMeters>996.0</AltitudeMeters>
            <DistanceMeters>47779.678152023</DistanceMeters>
          </Trackpoint>
          <Trackpoint>
            <Position>
              <LatitudeDegrees>50.213915</LatitudeDegrees>
              <LongitudeDegrees>16.865725</LongitudeDegrees>
            </Position>
            <AltitudeMeters>996.0</AltitudeMeters>
            <DistanceMeters>47782.136021251</DistanceMeters>
          </Trackpoint>
          <Trackpoint>
            <Position>
              <LatitudeDegrees>50.213935</LatitudeDegrees>
              <LongitudeDegrees>16.865712</LongitudeDegrees>
            </Position>
            <AltitudeMeters>996.0</AltitudeMeters>
            <DistanceMeters>47784.545655902</DistanceMeters>
          </Trackpoint>
          <Trackpoint>
            <Position>
              <LatitudeDegrees>50.213945</LatitudeDegrees>
              <LongitudeDegrees>16.865687</LongitudeDegrees>
            </Position>
            <AltitudeMeters>996.0</AltitudeMeters>
            <DistanceMeters>47786.644864635</DistanceMeters>
          </Trackpoint>
          <Trackpoint>
            <Position>
              <LatitudeDegrees>50.21396</LatitudeDegrees>
              <LongitudeDegrees>16.865707</LongitudeDegrees>
            </Position>
            <AltitudeMeters>996.0</AltitudeMeters>
            <DistanceMeters>47788.838726697</DistanceMeters>
          </Trackpoint>
          <Trackpoint>
            <Position>
              <LatitudeDegrees>50.213977</LatitudeDegrees>
              <LongitudeDegrees>16.86572</LongitudeDegrees>
            </Position>
            <AltitudeMeters>996.0</AltitudeMeters>
            <DistanceMeters>47790.946521186</DistanceMeters>
          </Trackpoint>
          <Trackpoint>
            <Position>
              <LatitudeDegrees>50.214003</LatitudeDegrees>
              <LongitudeDegrees>16.865718</LongitudeDegrees>
            </Position>
            <AltitudeMeters>996.0</AltitudeMeters>
            <DistanceMeters>47793.844446495</DistanceMeters>
          </Trackpoint>
          <Trackpoint>
            <Position>
              <LatitudeDegrees>50.214023</LatitudeDegrees>
              <LongitudeDegrees>16.865715</LongitudeDegrees>
            </Position>
            <AltitudeMeters>996.0</AltitudeMeters>
            <DistanceMeters>47796.081109712</DistanceMeters>
          </Trackpoint>
          <Trackpoint>
            <Position>
              <LatitudeDegrees>50.214045</LatitudeDegrees>
              <LongitudeDegrees>16.865717</LongitudeDegrees>
            </Position>
            <AltitudeMeters>996.0</AltitudeMeters>
            <DistanceMeters>47798.533461831</DistanceMeters>
          </Trackpoint>
          <Trackpoint>
            <Position>
              <LatitudeDegrees>50.214065</LatitudeDegrees>
              <LongitudeDegrees>16.865718</LongitudeDegrees>
            </Position>
            <AltitudeMeters>996.0</AltitudeMeters>
            <DistanceMeters>47800.762035824</DistanceMeters>
          </Trackpoint>
          <Trackpoint>
            <Position>
              <LatitudeDegrees>50.214095</LatitudeDegrees>
              <LongitudeDegrees>16.865723</LongitudeDegrees>
            </Position>
            <AltitudeMeters>996.0</AltitudeMeters>
            <DistanceMeters>47804.119048693</DistanceMeters>
          </Trackpoint>
          <Trackpoint>
            <Position>
              <LatitudeDegrees>50.21412</LatitudeDegrees>
              <LongitudeDegrees>16.865725</LongitudeDegrees>
            </Position>
            <AltitudeMeters>996.0</AltitudeMeters>
            <DistanceMeters>47806.904158325</DistanceMeters>
          </Trackpoint>
          <Trackpoint>
            <Position>
              <LatitudeDegrees>50.214143</LatitudeDegrees>
              <LongitudeDegrees>16.865723</LongitudeDegrees>
            </Position>
            <AltitudeMeters>996.0</AltitudeMeters>
            <DistanceMeters>47809.468119256</DistanceMeters>
          </Trackpoint>
          <Trackpoint>
            <Position>
              <LatitudeDegrees>50.214168</LatitudeDegrees>
              <LongitudeDegrees>16.865728</LongitudeDegrees>
            </Position>
            <AltitudeMeters>996.0</AltitudeMeters>
            <DistanceMeters>47812.274224503</DistanceMeters>
          </Trackpoint>
          <Trackpoint>
            <Position>
              <LatitudeDegrees>50.214193</LatitudeDegrees>
              <LongitudeDegrees>16.86573</LongitudeDegrees>
            </Position>
            <AltitudeMeters>996.0</AltitudeMeters>
            <DistanceMeters>47815.060954799</DistanceMeters>
          </Trackpoint>
          <Trackpoint>
            <Position>
              <LatitudeDegrees>50.21422</LatitudeDegrees>
              <LongitudeDegrees>16.865735</LongitudeDegrees>
            </Position>
            <AltitudeMeters>996.0</AltitudeMeters>
            <DistanceMeters>47818.086925307</DistanceMeters>
          </Trackpoint>
          <Trackpoint>
            <Position>
              <LatitudeDegrees>50.21425</LatitudeDegrees>
              <LongitudeDegrees>16.86574</LongitudeDegrees>
            </Position>
            <AltitudeMeters>997.0</AltitudeMeters>
            <DistanceMeters>47821.445282863</DistanceMeters>
          </Trackpoint>
          <Trackpoint>
            <Position>
              <LatitudeDegrees>50.214278</LatitudeDegrees>
              <LongitudeDegrees>16.865742</LongitudeDegrees>
            </Position>
            <AltitudeMeters>997.0</AltitudeMeters>
            <DistanceMeters>47824.565286454</DistanceMeters>
          </Trackpoint>
          <Trackpoint>
            <Position>
              <LatitudeDegrees>50.214302</LatitudeDegrees>
              <LongitudeDegrees>16.865742</LongitudeDegrees>
            </Position>
            <AltitudeMeters>997.0</AltitudeMeters>
            <DistanceMeters>47827.236196485</DistanceMeters>
          </Trackpoint>
          <Trackpoint>
            <Position>
              <LatitudeDegrees>50.214322</LatitudeDegrees>
              <LongitudeDegrees>16.865742</LongitudeDegrees>
            </Position>
            <AltitudeMeters>997.0</AltitudeMeters>
            <DistanceMeters>47829.460714835</DistanceMeters>
          </Trackpoint>
          <Trackpoint>
            <Position>
              <LatitudeDegrees>50.214348</LatitudeDegrees>
              <LongitudeDegrees>16.865748</LongitudeDegrees>
            </Position>
            <AltitudeMeters>996.0</AltitudeMeters>
            <DistanceMeters>47832.38655018</DistanceMeters>
          </Trackpoint>
          <Trackpoint>
            <Position>
              <LatitudeDegrees>50.214377</LatitudeDegrees>
              <LongitudeDegrees>16.86575</LongitudeDegrees>
            </Position>
            <AltitudeMeters>997.0</AltitudeMeters>
            <DistanceMeters>47835.617458469</DistanceMeters>
          </Trackpoint>
          <Trackpoint>
            <Position>
              <LatitudeDegrees>50.214403</LatitudeDegrees>
              <LongitudeDegrees>16.865753</LongitudeDegrees>
            </Position>
            <AltitudeMeters>997.0</AltitudeMeters>
            <DistanceMeters>47838.520054087</DistanceMeters>
          </Trackpoint>
          <Trackpoint>
            <Position>
              <LatitudeDegrees>50.21443</LatitudeDegrees>
              <LongitudeDegrees>16.865752</LongitudeDegrees>
            </Position>
            <AltitudeMeters>997.0</AltitudeMeters>
            <DistanceMeters>47841.528066154</DistanceMeters>
          </Trackpoint>
          <Trackpoint>
            <Position>
              <LatitudeDegrees>50.214458</LatitudeDegrees>
              <LongitudeDegrees>16.865755</LongitudeDegrees>
            </Position>
            <AltitudeMeters>997.0</AltitudeMeters>
            <DistanceMeters>47844.653852889</DistanceMeters>
          </Trackpoint>
          <Trackpoint>
            <Position>
              <LatitudeDegrees>50.214492</LatitudeDegrees>
              <LongitudeDegrees>16.86576</LongitudeDegrees>
            </Position>
            <AltitudeMeters>996.0</AltitudeMeters>
            <DistanceMeters>47848.454921464</DistanceMeters>
          </Trackpoint>
          <Trackpoint>
            <Position>
              <LatitudeDegrees>50.21452</LatitudeDegrees>
              <LongitudeDegrees>16.865762</LongitudeDegrees>
            </Position>
            <AltitudeMeters>996.0</AltitudeMeters>
            <DistanceMeters>47851.574925055</DistanceMeters>
          </Trackpoint>
          <Trackpoint>
            <Position>
              <LatitudeDegrees>50.214547</LatitudeDegrees>
              <LongitudeDegrees>16.865762</LongitudeDegrees>
            </Position>
            <AltitudeMeters>996.0</AltitudeMeters>
            <DistanceMeters>47854.579933615</DistanceMeters>
          </Trackpoint>
          <Trackpoint>
            <Position>
              <LatitudeDegrees>50.214567</LatitudeDegrees>
              <LongitudeDegrees>16.865768</LongitudeDegrees>
            </Position>
            <AltitudeMeters>996.0</AltitudeMeters>
            <DistanceMeters>47856.846674336</DistanceMeters>
          </Trackpoint>
          <Trackpoint>
            <Position>
              <LatitudeDegrees>50.214583</LatitudeDegrees>
              <LongitudeDegrees>16.865785</LongitudeDegrees>
            </Position>
            <AltitudeMeters>996.0</AltitudeMeters>
            <DistanceMeters>47858.998982217</DistanceMeters>
          </Trackpoint>
          <Trackpoint>
            <Position>
              <LatitudeDegrees>50.2146</LatitudeDegrees>
              <LongitudeDegrees>16.865807</LongitudeDegrees>
            </Position>
            <AltitudeMeters>996.0</AltitudeMeters>
            <DistanceMeters>47861.456851445</DistanceMeters>
          </Trackpoint>
          <Trackpoint>
            <Position>
              <LatitudeDegrees>50.214685</LatitudeDegrees>
              <LongitudeDegrees>16.865857</LongitudeDegrees>
            </Position>
            <AltitudeMeters>996.0</AltitudeMeters>
            <DistanceMeters>47871.565925345</DistanceMeters>
          </Trackpoint>
          <Trackpoint>
            <Position>
              <LatitudeDegrees>50.214778</LatitudeDegrees>
              <LongitudeDegrees>16.86585</LongitudeDegrees>
            </Position>
            <AltitudeMeters>995.0</AltitudeMeters>
            <DistanceMeters>47881.929502393</DistanceMeters>
          </Trackpoint>
          <Trackpoint>
            <Position>
              <LatitudeDegrees>50.214857</LatitudeDegrees>
              <LongitudeDegrees>16.86577</LongitudeDegrees>
            </Position>
            <AltitudeMeters>996.0</AltitudeMeters>
            <DistanceMeters>47892.407032604</DistanceMeters>
          </Trackpoint>
          <Trackpoint>
            <Position>
              <LatitudeDegrees>50.214945</LatitudeDegrees>
              <LongitudeDegrees>16.865742</LongitudeDegrees>
            </Position>
            <AltitudeMeters>996.0</AltitudeMeters>
            <DistanceMeters>47902.402469852</DistanceMeters>
          </Trackpoint>
          <Trackpoint>
            <Position>
              <LatitudeDegrees>50.215022</LatitudeDegrees>
              <LongitudeDegrees>16.865822</LongitudeDegrees>
            </Position>
            <AltitudeMeters>996.0</AltitudeMeters>
            <DistanceMeters>47912.694349985</DistanceMeters>
          </Trackpoint>
          <Trackpoint>
            <Position>
              <LatitudeDegrees>50.215118</LatitudeDegrees>
              <LongitudeDegrees>16.865875</LongitudeDegrees>
            </Position>
            <AltitudeMeters>996.0</AltitudeMeters>
            <DistanceMeters>47924.026459988</DistanceMeters>
          </Trackpoint>
          <Trackpoint>
            <Position>
              <LatitudeDegrees>50.215198</LatitudeDegrees>
              <LongitudeDegrees>16.865938</LongitudeDegrees>
            </Position>
            <AltitudeMeters>996.0</AltitudeMeters>
            <DistanceMeters>47933.997022238</DistanceMeters>
          </Trackpoint>
          <Trackpoint>
            <Position>
              <LatitudeDegrees>50.215265</LatitudeDegrees>
              <LongitudeDegrees>16.866048</LongitudeDegrees>
            </Position>
            <AltitudeMeters>996.0</AltitudeMeters>
            <DistanceMeters>47944.813383474</DistanceMeters>
          </Trackpoint>
          <Trackpoint>
            <Position>
              <LatitudeDegrees>50.21536</LatitudeDegrees>
              <LongitudeDegrees>16.866007</LongitudeDegrees>
            </Position>
            <AltitudeMeters>995.0</AltitudeMeters>
            <DistanceMeters>47955.78310538</DistanceMeters>
          </Trackpoint>
          <Trackpoint>
            <Position>
              <LatitudeDegrees>50.215458</LatitudeDegrees>
              <LongitudeDegrees>16.866007</LongitudeDegrees>
            </Position>
            <AltitudeMeters>995.0</AltitudeMeters>
            <DistanceMeters>47966.690913924</DistanceMeters>
          </Trackpoint>
          <Trackpoint>
            <Position>
              <LatitudeDegrees>50.21548</LatitudeDegrees>
              <LongitudeDegrees>16.866012</LongitudeDegrees>
            </Position>
            <AltitudeMeters>995.0</AltitudeMeters>
            <DistanceMeters>47969.165260672</DistanceMeters>
          </Trackpoint>
          <Trackpoint>
            <Position>
              <LatitudeDegrees>50.215503</LatitudeDegrees>
              <LongitudeDegrees>16.866027</LongitudeDegrees>
            </Position>
            <AltitudeMeters>995.0</AltitudeMeters>
            <DistanceMeters>47971.938999147</DistanceMeters>
          </Trackpoint>
          <Trackpoint>
            <Position>
              <LatitudeDegrees>50.2156</LatitudeDegrees>
              <LongitudeDegrees>16.866067</LongitudeDegrees>
            </Position>
            <AltitudeMeters>994.0</AltitudeMeters>
            <DistanceMeters>47983.104941359</DistanceMeters>
          </Trackpoint>
          <Trackpoint>
            <Position>
              <LatitudeDegrees>50.215728</LatitudeDegrees>
              <LongitudeDegrees>16.866045</LongitudeDegrees>
            </Position>
            <AltitudeMeters>994.0</AltitudeMeters>
            <DistanceMeters>47997.437288652</DistanceMeters>
          </Trackpoint>
          <Trackpoint>
            <Position>
              <LatitudeDegrees>50.215757</LatitudeDegrees>
              <LongitudeDegrees>16.86591</LongitudeDegrees>
            </Position>
            <AltitudeMeters>993.0</AltitudeMeters>
            <DistanceMeters>48007.578914296</DistanceMeters>
          </Trackpoint>
          <Trackpoint>
            <Position>
              <LatitudeDegrees>50.215728</LatitudeDegrees>
              <LongitudeDegrees>16.865773</LongitudeDegrees>
            </Position>
            <AltitudeMeters>993.0</AltitudeMeters>
            <DistanceMeters>48017.855867837</DistanceMeters>
          </Trackpoint>
          <Trackpoint>
            <Position>
              <LatitudeDegrees>50.21575</LatitudeDegrees>
              <LongitudeDegrees>16.86563</LongitudeDegrees>
            </Position>
            <AltitudeMeters>994.0</AltitudeMeters>
            <DistanceMeters>48028.331243198</DistanceMeters>
          </Trackpoint>
          <Trackpoint>
            <Position>
              <LatitudeDegrees>50.215927</LatitudeDegrees>
              <LongitudeDegrees>16.865625</LongitudeDegrees>
            </Position>
            <AltitudeMeters>994.0</AltitudeMeters>
            <DistanceMeters>48048.035027267</DistanceMeters>
          </Trackpoint>
          <Trackpoint>
            <Position>
              <LatitudeDegrees>50.215907</LatitudeDegrees>
              <LongitudeDegrees>16.865473</LongitudeDegrees>
            </Position>
            <AltitudeMeters>997.0</AltitudeMeters>
            <DistanceMeters>48059.087169324</DistanceMeters>
          </Trackpoint>
          <Trackpoint>
            <Position>
              <LatitudeDegrees>50.21582</LatitudeDegrees>
              <LongitudeDegrees>16.865318</LongitudeDegrees>
            </Position>
            <AltitudeMeters>998.0</AltitudeMeters>
            <DistanceMeters>48073.771179857</DistanceMeters>
          </Trackpoint>
          <Trackpoint>
            <Position>
              <LatitudeDegrees>50.215727</LatitudeDegrees>
              <LongitudeDegrees>16.865202</LongitudeDegrees>
            </Position>
            <AltitudeMeters>1000.0</AltitudeMeters>
            <DistanceMeters>48087.015054095</DistanceMeters>
          </Trackpoint>
          <Trackpoint>
            <Position>
              <LatitudeDegrees>50.215632</LatitudeDegrees>
              <LongitudeDegrees>16.865183</LongitudeDegrees>
            </Position>
            <AltitudeMeters>1005.0</AltitudeMeters>
            <DistanceMeters>48097.674578095</DistanceMeters>
          </Trackpoint>
          <Trackpoint>
            <Position>
              <LatitudeDegrees>50.215612</LatitudeDegrees>
              <LongitudeDegrees>16.865027</LongitudeDegrees>
            </Position>
            <AltitudeMeters>1015.0</AltitudeMeters>
            <DistanceMeters>48109.006289662</DistanceMeters>
          </Trackpoint>
          <Trackpoint>
            <Position>
              <LatitudeDegrees>50.21557</LatitudeDegrees>
              <LongitudeDegrees>16.86489</LongitudeDegrees>
            </Position>
            <AltitudeMeters>1015.0</AltitudeMeters>
            <DistanceMeters>48119.825572491</DistanceMeters>
          </Trackpoint>
          <Trackpoint>
            <Position>
              <LatitudeDegrees>50.21549</LatitudeDegrees>
              <LongitudeDegrees>16.864803</LongitudeDegrees>
            </Position>
            <AltitudeMeters>1015.0</AltitudeMeters>
            <DistanceMeters>48130.673611771</DistanceMeters>
          </Trackpoint>
          <Trackpoint>
            <Position>
              <LatitudeDegrees>50.215497</LatitudeDegrees>
              <LongitudeDegrees>16.8647</LongitudeDegrees>
            </Position>
            <AltitudeMeters>1016.0</AltitudeMeters>
            <DistanceMeters>48138.050892485</DistanceMeters>
          </Trackpoint>
          <Trackpoint>
            <Position>
              <LatitudeDegrees>50.215488</LatitudeDegrees>
              <LongitudeDegrees>16.864665</LongitudeDegrees>
            </Position>
            <AltitudeMeters>1016.0</AltitudeMeters>
            <DistanceMeters>48140.73865385</DistanceMeters>
          </Trackpoint>
          <Trackpoint>
            <Position>
              <LatitudeDegrees>50.215482</LatitudeDegrees>
              <LongitudeDegrees>16.864627</LongitudeDegrees>
            </Position>
            <AltitudeMeters>1016.0</AltitudeMeters>
            <DistanceMeters>48143.525384145</DistanceMeters>
          </Trackpoint>
          <Trackpoint>
            <Position>
              <LatitudeDegrees>50.215465</LatitudeDegrees>
              <LongitudeDegrees>16.8646</LongitudeDegrees>
            </Position>
            <AltitudeMeters>1016.0</AltitudeMeters>
            <DistanceMeters>48146.221531682</DistanceMeters>
          </Trackpoint>
          <Trackpoint>
            <Position>
              <LatitudeDegrees>50.21549</LatitudeDegrees>
              <LongitudeDegrees>16.864465</LongitudeDegrees>
            </Position>
            <AltitudeMeters>1016.0</AltitudeMeters>
            <DistanceMeters>48156.230511054</DistanceMeters>
          </Trackpoint>
          <Trackpoint>
            <Position>
              <LatitudeDegrees>50.215423</LatitudeDegrees>
              <LongitudeDegrees>16.864358</LongitudeDegrees>
            </Position>
            <AltitudeMeters>1019.0</AltitudeMeters>
            <DistanceMeters>48166.89299962</DistanceMeters>
          </Trackpoint>
          <Trackpoint>
            <Position>
              <LatitudeDegrees>50.215412</LatitudeDegrees>
              <LongitudeDegrees>16.86431</LongitudeDegrees>
            </Position>
            <AltitudeMeters>1023.0</AltitudeMeters>
            <DistanceMeters>48170.525208547</DistanceMeters>
          </Trackpoint>
          <Trackpoint>
            <Position>
              <LatitudeDegrees>50.2154</LatitudeDegrees>
              <LongitudeDegrees>16.864277</LongitudeDegrees>
            </Position>
            <AltitudeMeters>1023.0</AltitudeMeters>
            <DistanceMeters>48173.22971625</DistanceMeters>
          </Trackpoint>
          <Trackpoint>
            <Position>
              <LatitudeDegrees>50.215397</LatitudeDegrees>
              <LongitudeDegrees>16.864247</LongitudeDegrees>
            </Position>
            <AltitudeMeters>1024.0</AltitudeMeters>
            <DistanceMeters>48175.392487528</DistanceMeters>
          </Trackpoint>
          <Trackpoint>
            <Position>
              <LatitudeDegrees>50.21539</LatitudeDegrees>
              <LongitudeDegrees>16.864217</LongitudeDegrees>
            </Position>
            <AltitudeMeters>1025.0</AltitudeMeters>
            <DistanceMeters>48177.667181749</DistanceMeters>
          </Trackpoint>
          <Trackpoint>
            <Position>
              <LatitudeDegrees>50.215247</LatitudeDegrees>
              <LongitudeDegrees>16.863727</LongitudeDegrees>
            </Position>
            <AltitudeMeters>1025.0</AltitudeMeters>
            <DistanceMeters>48216.024323914</DistanceMeters>
          </Trackpoint>
          <Trackpoint>
            <Position>
              <LatitudeDegrees>50.21531</LatitudeDegrees>
              <LongitudeDegrees>16.863612</LongitudeDegrees>
            </Position>
            <AltitudeMeters>1023.0</AltitudeMeters>
            <DistanceMeters>48226.806401828</DistanceMeters>
          </Trackpoint>
          <Trackpoint>
            <Position>
              <LatitudeDegrees>50.215275</LatitudeDegrees>
              <LongitudeDegrees>16.863578</LongitudeDegrees>
            </Position>
            <AltitudeMeters>1031.0</AltitudeMeters>
            <DistanceMeters>48231.393348319</DistanceMeters>
          </Trackpoint>
          <Trackpoint>
            <Position>
              <LatitudeDegrees>50.21518</LatitudeDegrees>
              <LongitudeDegrees>16.863565</LongitudeDegrees>
            </Position>
            <AltitudeMeters>1037.0</AltitudeMeters>
            <DistanceMeters>48242.007453732</DistanceMeters>
          </Trackpoint>
          <Trackpoint>
            <Position>
              <LatitudeDegrees>50.215212</LatitudeDegrees>
              <LongitudeDegrees>16.863428</LongitudeDegrees>
            </Position>
            <AltitudeMeters>1042.0</AltitudeMeters>
            <DistanceMeters>48252.394529998</DistanceMeters>
          </Trackpoint>
          <Trackpoint>
            <Position>
              <LatitudeDegrees>50.215215</LatitudeDegrees>
              <LongitudeDegrees>16.863373</LongitudeDegrees>
            </Position>
            <AltitudeMeters>1047.0</AltitudeMeters>
            <DistanceMeters>48256.326385904</DistanceMeters>
          </Trackpoint>
          <Trackpoint>
            <Position>
              <LatitudeDegrees>50.215207</LatitudeDegrees>
              <LongitudeDegrees>16.863345</LongitudeDegrees>
            </Position>
            <AltitudeMeters>1046.0</AltitudeMeters>
            <DistanceMeters>48258.50993356</DistanceMeters>
          </Trackpoint>
          <Trackpoint>
            <Position>
              <LatitudeDegrees>50.215122</LatitudeDegrees>
              <LongitudeDegrees>16.863343</LongitudeDegrees>
            </Position>
            <AltitudeMeters>1047.0</AltitudeMeters>
            <DistanceMeters>48267.971655277</DistanceMeters>
          </Trackpoint>
          <Trackpoint>
            <Position>
              <LatitudeDegrees>50.215067</LatitudeDegrees>
              <LongitudeDegrees>16.863342</LongitudeDegrees>
            </Position>
            <AltitudeMeters>1046.0</AltitudeMeters>
            <DistanceMeters>48274.094060631</DistanceMeters>
          </Trackpoint>
          <Trackpoint>
            <Position>
              <LatitudeDegrees>50.215052</LatitudeDegrees>
              <LongitudeDegrees>16.863322</LongitudeDegrees>
            </Position>
            <AltitudeMeters>1046.0</AltitudeMeters>
            <DistanceMeters>48276.28997976</DistanceMeters>
          </Trackpoint>
          <Trackpoint>
            <Position>
              <LatitudeDegrees>50.215037</LatitudeDegrees>
              <LongitudeDegrees>16.863288</LongitudeDegrees>
            </Position>
            <AltitudeMeters>1046.0</AltitudeMeters>
            <DistanceMeters>48279.231206245</DistanceMeters>
          </Trackpoint>
          <Trackpoint>
            <Position>
              <LatitudeDegrees>50.215025</LatitudeDegrees>
              <LongitudeDegrees>16.863263</LongitudeDegrees>
            </Position>
            <AltitudeMeters>1046.0</AltitudeMeters>
            <DistanceMeters>48281.455724595</DistanceMeters>
          </Trackpoint>
          <Trackpoint>
            <Position>
              <LatitudeDegrees>50.21501</LatitudeDegrees>
              <LongitudeDegrees>16.863247</LongitudeDegrees>
            </Position>
            <AltitudeMeters>1046.0</AltitudeMeters>
            <DistanceMeters>48283.476020255</DistanceMeters>
          </Trackpoint>
          <Trackpoint>
            <Position>
              <LatitudeDegrees>50.215002</LatitudeDegrees>
              <LongitudeDegrees>16.86321</LongitudeDegrees>
            </Position>
            <AltitudeMeters>1046.0</AltitudeMeters>
            <DistanceMeters>48286.259508281</DistanceMeters>
          </Trackpoint>
          <Trackpoint>
            <Position>
              <LatitudeDegrees>50.214943</LatitudeDegrees>
              <LongitudeDegrees>16.863093</LongitudeDegrees>
            </Position>
            <AltitudeMeters>1047.0</AltitudeMeters>
            <DistanceMeters>48296.869359031</DistanceMeters>
          </Trackpoint>
          <Trackpoint>
            <Position>
              <LatitudeDegrees>50.2149</LatitudeDegrees>
              <LongitudeDegrees>16.862885</LongitudeDegrees>
            </Position>
            <AltitudeMeters>1047.0</AltitudeMeters>
            <DistanceMeters>48312.437507661</DistanceMeters>
          </Trackpoint>
          <Trackpoint>
            <Position>
              <LatitudeDegrees>50.214808</LatitudeDegrees>
              <LongitudeDegrees>16.862923</LongitudeDegrees>
            </Position>
            <AltitudeMeters>1048.0</AltitudeMeters>
            <DistanceMeters>48323.028617593</DistanceMeters>
          </Trackpoint>
          <Trackpoint>
            <Position>
              <LatitudeDegrees>50.214715</LatitudeDegrees>
              <LongitudeDegrees>16.8629</LongitudeDegrees>
            </Position>
            <AltitudeMeters>1051.0</AltitudeMeters>
            <DistanceMeters>48333.508302212</DistanceMeters>
          </Trackpoint>
          <Trackpoint>
            <Position>
              <LatitudeDegrees>50.214618</LatitudeDegrees>
              <LongitudeDegrees>16.862898</LongitudeDegrees>
            </Position>
            <AltitudeMeters>1051.0</AltitudeMeters>
            <DistanceMeters>48344.305026567</DistanceMeters>
          </Trackpoint>
          <Trackpoint>
            <Position>
              <LatitudeDegrees>50.214522</LatitudeDegrees>
              <LongitudeDegrees>16.862933</LongitudeDegrees>
            </Position>
            <AltitudeMeters>1051.0</AltitudeMeters>
            <DistanceMeters>48355.276806235</DistanceMeters>
          </Trackpoint>
          <Trackpoint>
            <Position>
              <LatitudeDegrees>50.214422</LatitudeDegrees>
              <LongitudeDegrees>16.862978</LongitudeDegrees>
            </Position>
            <AltitudeMeters>1053.0</AltitudeMeters>
            <DistanceMeters>48366.859545364</DistanceMeters>
          </Trackpoint>
          <Trackpoint>
            <Position>
              <LatitudeDegrees>50.21433</LatitudeDegrees>
              <LongitudeDegrees>16.86292</LongitudeDegrees>
            </Position>
            <AltitudeMeters>1054.0</AltitudeMeters>
            <DistanceMeters>48377.901469659</DistanceMeters>
          </Trackpoint>
          <Trackpoint>
            <Position>
              <LatitudeDegrees>50.214247</LatitudeDegrees>
              <LongitudeDegrees>16.862863</LongitudeDegrees>
            </Position>
            <AltitudeMeters>1055.0</AltitudeMeters>
            <DistanceMeters>48387.992215022</DistanceMeters>
          </Trackpoint>
          <Trackpoint>
            <Position>
              <LatitudeDegrees>50.214153</LatitudeDegrees>
              <LongitudeDegrees>16.862857</LongitudeDegrees>
            </Position>
            <AltitudeMeters>1058.0</AltitudeMeters>
            <DistanceMeters>48398.463279351</DistanceMeters>
          </Trackpoint>
          <Trackpoint>
            <Position>
              <LatitudeDegrees>50.213928</LatitudeDegrees>
              <LongitudeDegrees>16.86276</LongitudeDegrees>
            </Position>
            <AltitudeMeters>1058.0</AltitudeMeters>
            <DistanceMeters>48424.441747805</DistanceMeters>
          </Trackpoint>
          <Trackpoint>
            <Position>
              <LatitudeDegrees>50.213783</LatitudeDegrees>
              <LongitudeDegrees>16.862758</LongitudeDegrees>
            </Position>
            <AltitudeMeters>1058.0</AltitudeMeters>
            <DistanceMeters>48440.581189713</DistanceMeters>
          </Trackpoint>
          <Trackpoint>
            <Position>
              <LatitudeDegrees>50.213877</LatitudeDegrees>
              <LongitudeDegrees>16.86274</LongitudeDegrees>
            </Position>
            <AltitudeMeters>1058.0</AltitudeMeters>
            <DistanceMeters>48451.121875676</DistanceMeters>
          </Trackpoint>
          <Trackpoint>
            <Position>
              <LatitudeDegrees>50.213985</LatitudeDegrees>
              <LongitudeDegrees>16.862745</LongitudeDegrees>
            </Position>
            <AltitudeMeters>1061.0</AltitudeMeters>
            <DistanceMeters>48463.14791843</DistanceMeters>
          </Trackpoint>
          <Trackpoint>
            <Position>
              <LatitudeDegrees>50.2139</LatitudeDegrees>
              <LongitudeDegrees>16.862692</LongitudeDegrees>
            </Position>
            <AltitudeMeters>1084.0</AltitudeMeters>
            <DistanceMeters>48473.33396665</DistanceMeters>
          </Trackpoint>
          <Trackpoint>
            <Position>
              <LatitudeDegrees>50.213837</LatitudeDegrees>
              <LongitudeDegrees>16.86268</LongitudeDegrees>
            </Position>
            <AltitudeMeters>1085.0</AltitudeMeters>
            <DistanceMeters>48480.397974183</DistanceMeters>
          </Trackpoint>
          <Trackpoint>
            <Position>
              <LatitudeDegrees>50.213815</LatitudeDegrees>
              <LongitudeDegrees>16.862668</LongitudeDegrees>
            </Position>
            <AltitudeMeters>1086.0</AltitudeMeters>
            <DistanceMeters>48482.991698716</DistanceMeters>
          </Trackpoint>
          <Trackpoint>
            <Position>
              <LatitudeDegrees>50.213788</LatitudeDegrees>
              <LongitudeDegrees>16.862658</LongitudeDegrees>
            </Position>
            <AltitudeMeters>1086.0</AltitudeMeters>
            <DistanceMeters>48486.079701424</DistanceMeters>
          </Trackpoint>
          <Trackpoint>
            <Position>
              <LatitudeDegrees>50.213698</LatitudeDegrees>
              <LongitudeDegrees>16.862653</LongitudeDegrees>
            </Position>
            <AltitudeMeters>1087.0</AltitudeMeters>
            <DistanceMeters>48496.103105562</DistanceMeters>
          </Trackpoint>
          <Trackpoint>
            <Position>
              <LatitudeDegrees>50.213607</LatitudeDegrees>
              <LongitudeDegrees>16.862663</LongitudeDegrees>
            </Position>
            <AltitudeMeters>1087.0</AltitudeMeters>
            <DistanceMeters>48506.256744455</DistanceMeters>
          </Trackpoint>
          <Trackpoint>
            <Position>
              <LatitudeDegrees>50.213513</LatitudeDegrees>
              <LongitudeDegrees>16.862672</LongitudeDegrees>
            </Position>
            <AltitudeMeters>1087.0</AltitudeMeters>
            <DistanceMeters>48516.739013778</DistanceMeters>
          </Trackpoint>
          <Trackpoint>
            <Position>
              <LatitudeDegrees>50.213425</LatitudeDegrees>
              <LongitudeDegrees>16.862628</LongitudeDegrees>
            </Position>
            <AltitudeMeters>1087.0</AltitudeMeters>
            <DistanceMeters>48527.022994297</DistanceMeters>
          </Trackpoint>
          <Trackpoint>
            <Position>
              <LatitudeDegrees>50.213303</LatitudeDegrees>
              <LongitudeDegrees>16.862657</LongitudeDegrees>
            </Position>
            <AltitudeMeters>1087.0</AltitudeMeters>
            <DistanceMeters>48540.757888799</DistanceMeters>
          </Trackpoint>
          <Trackpoint>
            <Position>
              <LatitudeDegrees>50.213205</LatitudeDegrees>
              <LongitudeDegrees>16.862587</LongitudeDegrees>
            </Position>
            <AltitudeMeters>1086.0</AltitudeMeters>
            <DistanceMeters>48552.750847467</DistanceMeters>
          </Trackpoint>
          <Trackpoint>
            <Position>
              <LatitudeDegrees>50.21311</LatitudeDegrees>
              <LongitudeDegrees>16.862557</LongitudeDegrees>
            </Position>
            <AltitudeMeters>1087.0</AltitudeMeters>
            <DistanceMeters>48563.538786343</DistanceMeters>
          </Trackpoint>
          <Trackpoint>
            <Position>
              <LatitudeDegrees>50.213007</LatitudeDegrees>
              <LongitudeDegrees>16.86255</LongitudeDegrees>
            </Position>
            <AltitudeMeters>1087.0</AltitudeMeters>
            <DistanceMeters>48575.013827725</DistanceMeters>
          </Trackpoint>
          <Trackpoint>
            <Position>
              <LatitudeDegrees>50.2129</LatitudeDegrees>
              <LongitudeDegrees>16.86255</LongitudeDegrees>
            </Position>
            <AltitudeMeters>1084.0</AltitudeMeters>
            <DistanceMeters>48586.923674104</DistanceMeters>
          </Trackpoint>
          <Trackpoint>
            <Position>
              <LatitudeDegrees>50.212852</LatitudeDegrees>
              <LongitudeDegrees>16.862673</LongitudeDegrees>
            </Position>
            <AltitudeMeters>1086.0</AltitudeMeters>
            <DistanceMeters>48597.184799351</DistanceMeters>
          </Trackpoint>
          <Trackpoint>
            <Position>
              <LatitudeDegrees>50.212735</LatitudeDegrees>
              <LongitudeDegrees>16.862615</LongitudeDegrees>
            </Position>
            <AltitudeMeters>1087.0</AltitudeMeters>
            <DistanceMeters>48610.846851909</DistanceMeters>
          </Trackpoint>
          <Trackpoint>
            <Position>
              <LatitudeDegrees>50.212637</LatitudeDegrees>
              <LongitudeDegrees>16.862553</LongitudeDegrees>
            </Position>
            <AltitudeMeters>1087.0</AltitudeMeters>
            <DistanceMeters>48622.614443943</DistanceMeters>
          </Trackpoint>
          <Trackpoint>
            <Position>
              <LatitudeDegrees>50.21258</LatitudeDegrees>
              <LongitudeDegrees>16.862395</LongitudeDegrees>
            </Position>
            <AltitudeMeters>1087.0</AltitudeMeters>
            <DistanceMeters>48635.53318509</DistanceMeters>
          </Trackpoint>
          <Trackpoint>
            <Position>
              <LatitudeDegrees>50.212497</LatitudeDegrees>
              <LongitudeDegrees>16.862327</LongitudeDegrees>
            </Position>
            <AltitudeMeters>1088.0</AltitudeMeters>
            <DistanceMeters>48645.963638628</DistanceMeters>
          </Trackpoint>
          <Trackpoint>
            <Position>
              <LatitudeDegrees>50.212407</LatitudeDegrees>
              <LongitudeDegrees>16.862287</LongitudeDegrees>
            </Position>
            <AltitudeMeters>1091.0</AltitudeMeters>
            <DistanceMeters>48656.378063632</DistanceMeters>
          </Trackpoint>
          <Trackpoint>
            <Position>
              <LatitudeDegrees>50.212305</LatitudeDegrees>
              <LongitudeDegrees>16.862293</LongitudeDegrees>
            </Position>
            <AltitudeMeters>1095.0</AltitudeMeters>
            <DistanceMeters>48667.739221702</DistanceMeters>
          </Trackpoint>
          <Trackpoint>
            <Position>
              <LatitudeDegrees>50.212208</LatitudeDegrees>
              <LongitudeDegrees>16.862268</LongitudeDegrees>
            </Position>
            <AltitudeMeters>1096.0</AltitudeMeters>
            <DistanceMeters>48678.681744887</DistanceMeters>
          </Trackpoint>
          <Trackpoint>
            <Position>
              <LatitudeDegrees>50.212115</LatitudeDegrees>
              <LongitudeDegrees>16.862208</LongitudeDegrees>
            </Position>
            <AltitudeMeters>1095.0</AltitudeMeters>
            <DistanceMeters>48689.8803922</DistanceMeters>
          </Trackpoint>
          <Trackpoint>
            <Position>
              <LatitudeDegrees>50.21203</LatitudeDegrees>
              <LongitudeDegrees>16.862152</LongitudeDegrees>
            </Position>
            <AltitudeMeters>1093.0</AltitudeMeters>
            <DistanceMeters>48700.147675795</DistanceMeters>
          </Trackpoint>
          <Trackpoint>
            <Position>
              <LatitudeDegrees>50.211935</LatitudeDegrees>
              <LongitudeDegrees>16.862098</LongitudeDegrees>
            </Position>
            <AltitudeMeters>1093.0</AltitudeMeters>
            <DistanceMeters>48711.399416626</DistanceMeters>
          </Trackpoint>
          <Trackpoint>
            <Position>
              <LatitudeDegrees>50.211855</LatitudeDegrees>
              <LongitudeDegrees>16.862017</LongitudeDegrees>
            </Position>
            <AltitudeMeters>1094.0</AltitudeMeters>
            <DistanceMeters>48722.009267377</DistanceMeters>
          </Trackpoint>
          <Trackpoint>
            <Position>
              <LatitudeDegrees>50.211768</LatitudeDegrees>
              <LongitudeDegrees>16.861948</LongitudeDegrees>
            </Position>
            <AltitudeMeters>1095.0</AltitudeMeters>
            <DistanceMeters>48732.868122667</DistanceMeters>
          </Trackpoint>
          <Trackpoint>
            <Position>
              <LatitudeDegrees>50.211668</LatitudeDegrees>
              <LongitudeDegrees>16.86193</LongitudeDegrees>
            </Position>
            <AltitudeMeters>1096.0</AltitudeMeters>
            <DistanceMeters>48744.071607061</DistanceMeters>
          </Trackpoint>
          <Trackpoint>
            <Position>
              <LatitudeDegrees>50.21157</LatitudeDegrees>
              <LongitudeDegrees>16.861903</LongitudeDegrees>
            </Position>
            <AltitudeMeters>1096.0</AltitudeMeters>
            <DistanceMeters>48755.147010368</DistanceMeters>
          </Trackpoint>
          <Trackpoint>
            <Position>
              <LatitudeDegrees>50.211452</LatitudeDegrees>
              <LongitudeDegrees>16.861855</LongitudeDegrees>
            </Position>
            <AltitudeMeters>1096.0</AltitudeMeters>
            <DistanceMeters>48768.718209252</DistanceMeters>
          </Trackpoint>
          <Trackpoint>
            <Position>
              <LatitudeDegrees>50.211272</LatitudeDegrees>
              <LongitudeDegrees>16.861713</LongitudeDegrees>
            </Position>
            <AltitudeMeters>1095.0</AltitudeMeters>
            <DistanceMeters>48791.160815469</DistanceMeters>
          </Trackpoint>
          <Trackpoint>
            <Position>
              <LatitudeDegrees>50.210747</LatitudeDegrees>
              <LongitudeDegrees>16.861092</LongitudeDegrees>
            </Position>
            <AltitudeMeters>1095.0</AltitudeMeters>
            <DistanceMeters>48864.448286081</DistanceMeters>
          </Trackpoint>
          <Trackpoint>
            <Position>
              <LatitudeDegrees>50.210653</LatitudeDegrees>
              <LongitudeDegrees>16.861072</LongitudeDegrees>
            </Position>
            <AltitudeMeters>1090.0</AltitudeMeters>
            <DistanceMeters>48875.006947159</DistanceMeters>
          </Trackpoint>
          <Trackpoint>
            <Position>
              <LatitudeDegrees>50.21058</LatitudeDegrees>
              <LongitudeDegrees>16.860973</LongitudeDegrees>
            </Position>
            <AltitudeMeters>1089.0</AltitudeMeters>
            <DistanceMeters>48885.765129617</DistanceMeters>
          </Trackpoint>
          <Trackpoint>
            <Position>
              <LatitudeDegrees>50.210487</LatitudeDegrees>
              <LongitudeDegrees>16.860785</LongitudeDegrees>
            </Position>
            <AltitudeMeters>1088.0</AltitudeMeters>
            <DistanceMeters>48902.690558566</DistanceMeters>
          </Trackpoint>
          <Trackpoint>
            <Position>
              <LatitudeDegrees>50.210405</LatitudeDegrees>
              <LongitudeDegrees>16.86089</LongitudeDegrees>
            </Position>
            <AltitudeMeters>1087.0</AltitudeMeters>
            <DistanceMeters>48914.490718682</DistanceMeters>
          </Trackpoint>
          <Trackpoint>
            <Position>
              <LatitudeDegrees>50.210297</LatitudeDegrees>
              <LongitudeDegrees>16.860847</LongitudeDegrees>
            </Position>
            <AltitudeMeters>1091.0</AltitudeMeters>
            <DistanceMeters>48926.895982192</DistanceMeters>
          </Trackpoint>
          <Trackpoint>
            <Position>
              <LatitudeDegrees>50.210042</LatitudeDegrees>
              <LongitudeDegrees>16.86075</LongitudeDegrees>
            </Position>
            <AltitudeMeters>1095.0</AltitudeMeters>
            <DistanceMeters>48956.106767586</DistanceMeters>
          </Trackpoint>
          <Trackpoint>
            <Position>
              <LatitudeDegrees>50.210188</LatitudeDegrees>
              <LongitudeDegrees>16.86087</LongitudeDegrees>
            </Position>
            <AltitudeMeters>1096.0</AltitudeMeters>
            <DistanceMeters>48974.468083008</DistanceMeters>
          </Trackpoint>
          <Trackpoint>
            <Position>
              <LatitudeDegrees>50.210283</LatitudeDegrees>
              <LongitudeDegrees>16.860902</LongitudeDegrees>
            </Position>
            <AltitudeMeters>1102.0</AltitudeMeters>
            <DistanceMeters>48985.284861664</DistanceMeters>
          </Trackpoint>
          <Trackpoint>
            <Position>
              <LatitudeDegrees>50.210377</LatitudeDegrees>
              <LongitudeDegrees>16.860937</LongitudeDegrees>
            </Position>
            <AltitudeMeters>1105.0</AltitudeMeters>
            <DistanceMeters>48996.040105931</DistanceMeters>
          </Trackpoint>
          <Trackpoint>
            <Position>
              <LatitudeDegrees>50.210478</LatitudeDegrees>
              <LongitudeDegrees>16.860997</LongitudeDegrees>
            </Position>
            <AltitudeMeters>1105.0</AltitudeMeters>
            <DistanceMeters>49008.066899539</DistanceMeters>
          </Trackpoint>
          <Trackpoint>
            <Position>
              <LatitudeDegrees>50.210588</LatitudeDegrees>
              <LongitudeDegrees>16.860987</LongitudeDegrees>
            </Position>
            <AltitudeMeters>1104.0</AltitudeMeters>
            <DistanceMeters>49020.330869257</DistanceMeters>
          </Trackpoint>
          <Trackpoint>
            <Position>
              <LatitudeDegrees>50.210502</LatitudeDegrees>
              <LongitudeDegrees>16.860905</LongitudeDegrees>
            </Position>
            <AltitudeMeters>1102.0</AltitudeMeters>
            <DistanceMeters>49031.544021553</DistanceMeters>
          </Trackpoint>
          <Trackpoint>
            <Position>
              <LatitudeDegrees>50.210418</LatitudeDegrees>
              <LongitudeDegrees>16.860965</LongitudeDegrees>
            </Position>
            <AltitudeMeters>1100.0</AltitudeMeters>
            <DistanceMeters>49041.823610773</DistanceMeters>
          </Trackpoint>
          <Trackpoint>
            <Position>
              <LatitudeDegrees>50.210338</LatitudeDegrees>
              <LongitudeDegrees>16.860897</LongitudeDegrees>
            </Position>
            <AltitudeMeters>1099.0</AltitudeMeters>
            <DistanceMeters>49051.959892625</DistanceMeters>
          </Trackpoint>
          <Trackpoint>
            <Position>
              <LatitudeDegrees>50.21043</LatitudeDegrees>
              <LongitudeDegrees>16.860982</LongitudeDegrees>
            </Position>
            <AltitudeMeters>1101.0</AltitudeMeters>
            <DistanceMeters>49063.855324432</DistanceMeters>
          </Trackpoint>
          <Trackpoint>
            <Position>
              <LatitudeDegrees>50.210345</LatitudeDegrees>
              <LongitudeDegrees>16.861057</LongitudeDegrees>
            </Position>
            <AltitudeMeters>1100.0</AltitudeMeters>
            <DistanceMeters>49074.719999268</DistanceMeters>
          </Trackpoint>
          <Trackpoint>
            <Position>
              <LatitudeDegrees>50.210253</LatitudeDegrees>
              <LongitudeDegrees>16.860967</LongitudeDegrees>
            </Position>
            <AltitudeMeters>1100.0</AltitudeMeters>
            <DistanceMeters>49086.801105407</DistanceMeters>
          </Trackpoint>
          <Trackpoint>
            <Position>
              <LatitudeDegrees>50.210333</LatitudeDegrees>
              <LongitudeDegrees>16.860885</LongitudeDegrees>
            </Position>
            <AltitudeMeters>1100.0</AltitudeMeters>
            <DistanceMeters>49097.45003493</DistanceMeters>
          </Trackpoint>
          <Trackpoint>
            <Position>
              <LatitudeDegrees>50.210465</LatitudeDegrees>
              <LongitudeDegrees>16.86081</LongitudeDegrees>
            </Position>
            <AltitudeMeters>1100.0</AltitudeMeters>
            <DistanceMeters>49113.083012538</DistanceMeters>
          </Trackpoint>
          <Trackpoint>
            <Position>
              <LatitudeDegrees>50.210393</LatitudeDegrees>
              <LongitudeDegrees>16.8606</LongitudeDegrees>
            </Position>
            <AltitudeMeters>1100.0</AltitudeMeters>
            <DistanceMeters>49130.052665976</DistanceMeters>
          </Trackpoint>
          <Trackpoint>
            <Position>
              <LatitudeDegrees>50.21003</LatitudeDegrees>
              <LongitudeDegrees>16.860415</LongitudeDegrees>
            </Position>
            <AltitudeMeters>1100.0</AltitudeMeters>
            <DistanceMeters>49172.549904578</DistanceMeters>
          </Trackpoint>
          <Trackpoint>
            <Position>
              <LatitudeDegrees>50.209925</LatitudeDegrees>
              <LongitudeDegrees>16.860463</LongitudeDegrees>
            </Position>
            <AltitudeMeters>1101.0</AltitudeMeters>
            <DistanceMeters>49184.726679816</DistanceMeters>
          </Trackpoint>
          <Trackpoint>
            <Position>
              <LatitudeDegrees>50.20983</LatitudeDegrees>
              <LongitudeDegrees>16.860508</LongitudeDegrees>
            </Position>
            <AltitudeMeters>1099.0</AltitudeMeters>
            <DistanceMeters>49195.775144568</DistanceMeters>
          </Trackpoint>
          <Trackpoint>
            <Position>
              <LatitudeDegrees>50.209747</LatitudeDegrees>
              <LongitudeDegrees>16.860433</LongitudeDegrees>
            </Position>
            <AltitudeMeters>1096.0</AltitudeMeters>
            <DistanceMeters>49206.446944984</DistanceMeters>
          </Trackpoint>
          <Trackpoint>
            <Position>
              <LatitudeDegrees>50.209637</LatitudeDegrees>
              <LongitudeDegrees>16.860363</LongitudeDegrees>
            </Position>
            <AltitudeMeters>1096.0</AltitudeMeters>
            <DistanceMeters>49219.666592082</DistanceMeters>
          </Trackpoint>
          <Trackpoint>
            <Position>
              <LatitudeDegrees>50.20954</LatitudeDegrees>
              <LongitudeDegrees>16.8604</LongitudeDegrees>
            </Position>
            <AltitudeMeters>1101.0</AltitudeMeters>
            <DistanceMeters>49230.780249698</DistanceMeters>
          </Trackpoint>
          <Trackpoint>
            <Position>
              <LatitudeDegrees>50.209473</LatitudeDegrees>
              <LongitudeDegrees>16.860512</LongitudeDegrees>
            </Position>
            <AltitudeMeters>1101.0</AltitudeMeters>
            <DistanceMeters>49241.700468996</DistanceMeters>
          </Trackpoint>
          <Trackpoint>
            <Position>
              <LatitudeDegrees>50.209397</LatitudeDegrees>
              <LongitudeDegrees>16.860593</LongitudeDegrees>
            </Position>
            <AltitudeMeters>1103.0</AltitudeMeters>
            <DistanceMeters>49251.93956991</DistanceMeters>
          </Trackpoint>
          <Trackpoint>
            <Position>
              <LatitudeDegrees>50.209297</LatitudeDegrees>
              <LongitudeDegrees>16.860517</LongitudeDegrees>
            </Position>
            <AltitudeMeters>1100.0</AltitudeMeters>
            <DistanceMeters>49264.316411865</DistanceMeters>
          </Trackpoint>
          <Trackpoint>
            <Position>
              <LatitudeDegrees>50.209238</LatitudeDegrees>
              <LongitudeDegrees>16.860393</LongitudeDegrees>
            </Position>
            <AltitudeMeters>1098.0</AltitudeMeters>
            <DistanceMeters>49275.323114622</DistanceMeters>
          </Trackpoint>
          <Trackpoint>
            <Position>
              <LatitudeDegrees>50.209153</LatitudeDegrees>
              <LongitudeDegrees>16.860337</LongitudeDegrees>
            </Position>
            <AltitudeMeters>1102.0</AltitudeMeters>
            <DistanceMeters>49285.590398216</DistanceMeters>
          </Trackpoint>
          <Trackpoint>
            <Position>
              <LatitudeDegrees>50.209043</LatitudeDegrees>
              <LongitudeDegrees>16.860352</LongitudeDegrees>
            </Position>
            <AltitudeMeters>1102.0</AltitudeMeters>
            <DistanceMeters>49297.880111744</DistanceMeters>
          </Trackpoint>
          <Trackpoint>
            <Position>
              <LatitudeDegrees>50.209202</LatitudeDegrees>
              <LongitudeDegrees>16.86036</LongitudeDegrees>
            </Position>
            <AltitudeMeters>1104.0</AltitudeMeters>
            <DistanceMeters>49315.586217866</DistanceMeters>
          </Trackpoint>
          <Trackpoint>
            <Position>
              <LatitudeDegrees>50.209107</LatitudeDegrees>
              <LongitudeDegrees>16.860348</LongitudeDegrees>
            </Position>
            <AltitudeMeters>1107.0</AltitudeMeters>
            <DistanceMeters>49326.194366274</DistanceMeters>
          </Trackpoint>
          <Trackpoint>
            <Position>
              <LatitudeDegrees>50.209207</LatitudeDegrees>
              <LongitudeDegrees>16.860378</LongitudeDegrees>
            </Position>
            <AltitudeMeters>1108.0</AltitudeMeters>
            <DistanceMeters>49337.527671499</DistanceMeters>
          </Trackpoint>
          <Trackpoint>
            <Position>
              <LatitudeDegrees>50.209157</LatitudeDegrees>
              <LongitudeDegrees>16.860507</LongitudeDegrees>
            </Position>
            <AltitudeMeters>1106.0</AltitudeMeters>
            <DistanceMeters>49348.270734705</DistanceMeters>
          </Trackpoint>
          <Trackpoint>
            <Position>
              <LatitudeDegrees>50.209108</LatitudeDegrees>
              <LongitudeDegrees>16.860627</LongitudeDegrees>
            </Position>
            <AltitudeMeters>1103.0</AltitudeMeters>
            <DistanceMeters>49358.410579397</DistanceMeters>
          </Trackpoint>
          <Trackpoint>
            <Position>
              <LatitudeDegrees>50.209055</LatitudeDegrees>
              <LongitudeDegrees>16.860748</LongitudeDegrees>
            </Position>
            <AltitudeMeters>1103.0</AltitudeMeters>
            <DistanceMeters>49368.854875613</DistanceMeters>
          </Trackpoint>
          <Trackpoint>
            <Position>
              <LatitudeDegrees>50.208977</LatitudeDegrees>
              <LongitudeDegrees>16.860823</LongitudeDegrees>
            </Position>
            <AltitudeMeters>1105.0</AltitudeMeters>
            <DistanceMeters>49379.048899339</DistanceMeters>
          </Trackpoint>
          <Trackpoint>
            <Position>
              <LatitudeDegrees>50.208887</LatitudeDegrees>
              <LongitudeDegrees>16.860857</LongitudeDegrees>
            </Position>
            <AltitudeMeters>1099.0</AltitudeMeters>
            <DistanceMeters>49389.354808281</DistanceMeters>
          </Trackpoint>
          <Trackpoint>
            <Position>
              <LatitudeDegrees>50.208928</LatitudeDegrees>
              <LongitudeDegrees>16.861028</LongitudeDegrees>
            </Position>
            <AltitudeMeters>1100.0</AltitudeMeters>
            <DistanceMeters>49402.362018292</DistanceMeters>
          </Trackpoint>
          <Trackpoint>
            <Position>
              <LatitudeDegrees>50.208837</LatitudeDegrees>
              <LongitudeDegrees>16.861055</LongitudeDegrees>
            </Position>
            <AltitudeMeters>1103.0</AltitudeMeters>
            <DistanceMeters>49412.671431454</DistanceMeters>
          </Trackpoint>
          <Trackpoint>
            <Position>
              <LatitudeDegrees>50.20878</LatitudeDegrees>
              <LongitudeDegrees>16.861175</LongitudeDegrees>
            </Position>
            <AltitudeMeters>1108.0</AltitudeMeters>
            <DistanceMeters>49423.316544384</DistanceMeters>
          </Trackpoint>
          <Trackpoint>
            <Position>
              <LatitudeDegrees>50.208717</LatitudeDegrees>
              <LongitudeDegrees>16.86128</LongitudeDegrees>
            </Position>
            <AltitudeMeters>1109.0</AltitudeMeters>
            <DistanceMeters>49433.568865575</DistanceMeters>
          </Trackpoint>
          <Trackpoint>
            <Position>
              <LatitudeDegrees>50.208667</LatitudeDegrees>
              <LongitudeDegrees>16.861402</LongitudeDegrees>
            </Position>
            <AltitudeMeters>1108.0</AltitudeMeters>
            <DistanceMeters>49443.888346739</DistanceMeters>
          </Trackpoint>
          <Trackpoint>
            <Position>
              <LatitudeDegrees>50.208577</LatitudeDegrees>
              <LongitudeDegrees>16.861437</LongitudeDegrees>
            </Position>
            <AltitudeMeters>1112.0</AltitudeMeters>
            <DistanceMeters>49454.211764884</DistanceMeters>
          </Trackpoint>
          <Trackpoint>
            <Position>
              <LatitudeDegrees>50.20851</LatitudeDegrees>
              <LongitudeDegrees>16.861552</LongitudeDegrees>
            </Position>
            <AltitudeMeters>1114.0</AltitudeMeters>
            <DistanceMeters>49465.289613902</DistanceMeters>
          </Trackpoint>
          <Trackpoint>
            <Position>
              <LatitudeDegrees>50.20847</LatitudeDegrees>
              <LongitudeDegrees>16.861682</LongitudeDegrees>
            </Position>
            <AltitudeMeters>1112.0</AltitudeMeters>
            <DistanceMeters>49475.564809948</DistanceMeters>
          </Trackpoint>
          <Trackpoint>
            <Position>
              <LatitudeDegrees>50.208388</LatitudeDegrees>
              <LongitudeDegrees>16.861758</LongitudeDegrees>
            </Position>
            <AltitudeMeters>1115.0</AltitudeMeters>
            <DistanceMeters>49486.176362769</DistanceMeters>
          </Trackpoint>
          <Trackpoint>
            <Position>
              <LatitudeDegrees>50.208357</LatitudeDegrees>
              <LongitudeDegrees>16.861893</LongitudeDegrees>
            </Position>
            <AltitudeMeters>1120.0</AltitudeMeters>
            <DistanceMeters>49496.392508007</DistanceMeters>
          </Trackpoint>
          <Trackpoint>
            <Position>
              <LatitudeDegrees>50.208277</LatitudeDegrees>
              <LongitudeDegrees>16.861967</LongitudeDegrees>
            </Position>
            <AltitudeMeters>1128.0</AltitudeMeters>
            <DistanceMeters>49506.739516576</DistanceMeters>
          </Trackpoint>
          <Trackpoint>
            <Position>
              <LatitudeDegrees>50.208238</LatitudeDegrees>
              <LongitudeDegrees>16.862095</LongitudeDegrees>
            </Position>
            <AltitudeMeters>1131.0</AltitudeMeters>
            <DistanceMeters>49516.83831271</DistanceMeters>
          </Trackpoint>
          <Trackpoint>
            <Position>
              <LatitudeDegrees>50.208168</LatitudeDegrees>
              <LongitudeDegrees>16.862183</LongitudeDegrees>
            </Position>
            <AltitudeMeters>1131.0</AltitudeMeters>
            <DistanceMeters>49526.838266037</DistanceMeters>
          </Trackpoint>
          <Trackpoint>
            <Position>
              <LatitudeDegrees>50.208097</LatitudeDegrees>
              <LongitudeDegrees>16.862277</LongitudeDegrees>
            </Position>
            <AltitudeMeters>1132.0</AltitudeMeters>
            <DistanceMeters>49537.195741992</DistanceMeters>
          </Trackpoint>
          <Trackpoint>
            <Position>
              <LatitudeDegrees>50.2079</LatitudeDegrees>
              <LongitudeDegrees>16.862685</LongitudeDegrees>
            </Position>
            <AltitudeMeters>1132.0</AltitudeMeters>
            <DistanceMeters>49573.602508953</DistanceMeters>
          </Trackpoint>
          <Trackpoint>
            <Position>
              <LatitudeDegrees>50.207802</LatitudeDegrees>
              <LongitudeDegrees>16.862693</LongitudeDegrees>
            </Position>
            <AltitudeMeters>1133.0</AltitudeMeters>
            <DistanceMeters>49584.52520871</DistanceMeters>
          </Trackpoint>
          <Trackpoint>
            <Position>
              <LatitudeDegrees>50.207783</LatitudeDegrees>
              <LongitudeDegrees>16.862835</LongitudeDegrees>
            </Position>
            <AltitudeMeters>1142.0</AltitudeMeters>
            <DistanceMeters>49594.859118136</DistanceMeters>
          </Trackpoint>
          <Trackpoint>
            <Position>
              <LatitudeDegrees>50.207688</LatitudeDegrees>
              <LongitudeDegrees>16.862897</LongitudeDegrees>
            </Position>
            <AltitudeMeters>1137.0</AltitudeMeters>
            <DistanceMeters>49606.317622031</DistanceMeters>
          </Trackpoint>
          <Trackpoint>
            <Position>
              <LatitudeDegrees>50.207602</LatitudeDegrees>
              <LongitudeDegrees>16.86296</LongitudeDegrees>
            </Position>
            <AltitudeMeters>1137.0</AltitudeMeters>
            <DistanceMeters>49616.889103766</DistanceMeters>
          </Trackpoint>
          <Trackpoint>
            <Position>
              <LatitudeDegrees>50.207483</LatitudeDegrees>
              <LongitudeDegrees>16.862963</LongitudeDegrees>
            </Position>
            <AltitudeMeters>1136.0</AltitudeMeters>
            <DistanceMeters>49630.135705045</DistanceMeters>
          </Trackpoint>
          <Trackpoint>
            <Position>
              <LatitudeDegrees>50.207327</LatitudeDegrees>
              <LongitudeDegrees>16.863042</LongitudeDegrees>
            </Position>
            <AltitudeMeters>1136.0</AltitudeMeters>
            <DistanceMeters>49648.388256656</DistanceMeters>
          </Trackpoint>
          <Trackpoint>
            <Position>
              <LatitudeDegrees>50.207428</LatitudeDegrees>
              <LongitudeDegrees>16.863083</LongitudeDegrees>
            </Position>
            <AltitudeMeters>1140.0</AltitudeMeters>
            <DistanceMeters>49660.002527271</DistanceMeters>
          </Trackpoint>
          <Trackpoint>
            <Position>
              <LatitudeDegrees>50.20752</LatitudeDegrees>
              <LongitudeDegrees>16.863135</LongitudeDegrees>
            </Position>
            <AltitudeMeters>1144.0</AltitudeMeters>
            <DistanceMeters>49670.891693162</DistanceMeters>
          </Trackpoint>
          <Trackpoint>
            <Position>
              <LatitudeDegrees>50.207438</LatitudeDegrees>
              <LongitudeDegrees>16.863077</LongitudeDegrees>
            </Position>
            <AltitudeMeters>1144.0</AltitudeMeters>
            <DistanceMeters>49680.910141129</DistanceMeters>
          </Trackpoint>
          <Trackpoint>
            <Position>
              <LatitudeDegrees>50.207532</LatitudeDegrees>
              <LongitudeDegrees>16.863138</LongitudeDegrees>
            </Position>
            <AltitudeMeters>1145.0</AltitudeMeters>
            <DistanceMeters>49692.239063253</DistanceMeters>
          </Trackpoint>
          <Trackpoint>
            <Position>
              <LatitudeDegrees>50.20756</LatitudeDegrees>
              <LongitudeDegrees>16.863003</LongitudeDegrees>
            </Position>
            <AltitudeMeters>1143.0</AltitudeMeters>
            <DistanceMeters>49702.347690511</DistanceMeters>
          </Trackpoint>
          <Trackpoint>
            <Position>
              <LatitudeDegrees>50.2075</LatitudeDegrees>
              <LongitudeDegrees>16.86312</LongitudeDegrees>
            </Position>
            <AltitudeMeters>1144.0</AltitudeMeters>
            <DistanceMeters>49713.027526445</DistanceMeters>
          </Trackpoint>
          <Trackpoint>
            <Position>
              <LatitudeDegrees>50.207457</LatitudeDegrees>
              <LongitudeDegrees>16.862997</LongitudeDegrees>
            </Position>
            <AltitudeMeters>1147.0</AltitudeMeters>
            <DistanceMeters>49723.011212327</DistanceMeters>
          </Trackpoint>
          <Trackpoint>
            <Position>
              <LatitudeDegrees>50.207417</LatitudeDegrees>
              <LongitudeDegrees>16.863138</LongitudeDegrees>
            </Position>
            <AltitudeMeters>1146.0</AltitudeMeters>
            <DistanceMeters>49733.998207453</DistanceMeters>
          </Trackpoint>
          <Trackpoint>
            <Position>
              <LatitudeDegrees>50.207518</LatitudeDegrees>
              <LongitudeDegrees>16.86311</LongitudeDegrees>
            </Position>
            <AltitudeMeters>1143.0</AltitudeMeters>
            <DistanceMeters>49745.415262829</DistanceMeters>
          </Trackpoint>
          <Trackpoint>
            <Position>
              <LatitudeDegrees>50.207452</LatitudeDegrees>
              <LongitudeDegrees>16.863227</LongitudeDegrees>
            </Position>
            <AltitudeMeters>1144.0</AltitudeMeters>
            <DistanceMeters>49756.524857099</DistanceMeters>
          </Trackpoint>
          <Trackpoint>
            <Position>
              <LatitudeDegrees>50.207513</LatitudeDegrees>
              <LongitudeDegrees>16.863122</LongitudeDegrees>
            </Position>
            <AltitudeMeters>1145.0</AltitudeMeters>
            <DistanceMeters>49766.626335397</DistanceMeters>
          </Trackpoint>
          <Trackpoint>
            <Position>
              <LatitudeDegrees>50.207405</LatitudeDegrees>
              <LongitudeDegrees>16.863182</LongitudeDegrees>
            </Position>
            <AltitudeMeters>1145.0</AltitudeMeters>
            <DistanceMeters>49779.384003594</DistanceMeters>
          </Trackpoint>
          <Trackpoint>
            <Position>
              <LatitudeDegrees>50.20729</LatitudeDegrees>
              <LongitudeDegrees>16.863132</LongitudeDegrees>
            </Position>
            <AltitudeMeters>1145.0</AltitudeMeters>
            <DistanceMeters>49792.670084067</DistanceMeters>
          </Trackpoint>
          <Trackpoint>
            <Position>
              <LatitudeDegrees>50.207182</LatitudeDegrees>
              <LongitudeDegrees>16.863088</LongitudeDegrees>
            </Position>
            <AltitudeMeters>1146.0</AltitudeMeters>
            <DistanceMeters>49805.092805445</DistanceMeters>
          </Trackpoint>
          <Trackpoint>
            <Position>
              <LatitudeDegrees>50.207397</LatitudeDegrees>
              <LongitudeDegrees>16.863223</LongitudeDegrees>
            </Position>
            <AltitudeMeters>1146.0</AltitudeMeters>
            <DistanceMeters>49830.882887659</DistanceMeters>
          </Trackpoint>
          <Trackpoint>
            <Position>
              <LatitudeDegrees>50.207552</LatitudeDegrees>
              <LongitudeDegrees>16.863223</LongitudeDegrees>
            </Position>
            <AltitudeMeters>1146.0</AltitudeMeters>
            <DistanceMeters>49848.134882315</DistanceMeters>
          </Trackpoint>
          <Trackpoint>
            <Position>
              <LatitudeDegrees>50.20768</LatitudeDegrees>
              <LongitudeDegrees>16.863305</LongitudeDegrees>
            </Position>
            <AltitudeMeters>1146.0</AltitudeMeters>
            <DistanceMeters>49863.532142687</DistanceMeters>
          </Trackpoint>
          <Trackpoint>
            <Position>
              <LatitudeDegrees>50.207478</LatitudeDegrees>
              <LongitudeDegrees>16.863185</LongitudeDegrees>
            </Position>
            <AltitudeMeters>1142.0</AltitudeMeters>
            <DistanceMeters>49887.585354484</DistanceMeters>
          </Trackpoint>
          <Trackpoint>
            <Position>
              <LatitudeDegrees>50.207385</LatitudeDegrees>
              <LongitudeDegrees>16.863105</LongitudeDegrees>
            </Position>
            <AltitudeMeters>1143.0</AltitudeMeters>
            <DistanceMeters>49899.401191818</DistanceMeters>
          </Trackpoint>
          <Trackpoint>
            <Position>
              <LatitudeDegrees>50.20735</LatitudeDegrees>
              <LongitudeDegrees>16.86334</LongitudeDegrees>
            </Position>
            <AltitudeMeters>1144.0</AltitudeMeters>
            <DistanceMeters>49916.588159573</DistanceMeters>
          </Trackpoint>
          <Trackpoint>
            <Position>
              <LatitudeDegrees>50.207418</LatitudeDegrees>
              <LongitudeDegrees>16.863455</LongitudeDegrees>
            </Position>
            <AltitudeMeters>1145.0</AltitudeMeters>
            <DistanceMeters>49927.741154822</DistanceMeters>
          </Trackpoint>
          <Trackpoint>
            <Position>
              <LatitudeDegrees>50.207425</LatitudeDegrees>
              <LongitudeDegrees>16.863315</LongitudeDegrees>
            </Position>
            <AltitudeMeters>1143.0</AltitudeMeters>
            <DistanceMeters>49937.744719544</DistanceMeters>
          </Trackpoint>
          <Trackpoint>
            <Position>
              <LatitudeDegrees>50.207367</LatitudeDegrees>
              <LongitudeDegrees>16.8632</LongitudeDegrees>
            </Position>
            <AltitudeMeters>1141.0</AltitudeMeters>
            <DistanceMeters>49948.174740202</DistanceMeters>
          </Trackpoint>
          <Trackpoint>
            <Position>
              <LatitudeDegrees>50.207547</LatitudeDegrees>
              <LongitudeDegrees>16.863405</LongitudeDegrees>
            </Position>
            <AltitudeMeters>1140.0</AltitudeMeters>
            <DistanceMeters>49972.966334001</DistanceMeters>
          </Trackpoint>
          <Trackpoint>
            <Position>
              <LatitudeDegrees>50.207572</LatitudeDegrees>
              <LongitudeDegrees>16.863268</LongitudeDegrees>
            </Position>
            <AltitudeMeters>1144.0</AltitudeMeters>
            <DistanceMeters>49983.114190512</DistanceMeters>
          </Trackpoint>
          <Trackpoint>
            <Position>
              <LatitudeDegrees>50.207477</LatitudeDegrees>
              <LongitudeDegrees>16.863247</LongitudeDegrees>
            </Position>
            <AltitudeMeters>1152.0</AltitudeMeters>
            <DistanceMeters>49993.793603674</DistanceMeters>
          </Trackpoint>
          <Trackpoint>
            <Position>
              <LatitudeDegrees>50.207445</LatitudeDegrees>
              <LongitudeDegrees>16.863113</LongitudeDegrees>
            </Position>
            <AltitudeMeters>1147.0</AltitudeMeters>
            <DistanceMeters>50003.981867938</DistanceMeters>
          </Trackpoint>
          <Trackpoint>
            <Position>
              <LatitudeDegrees>50.207792</LatitudeDegrees>
              <LongitudeDegrees>16.863343</LongitudeDegrees>
            </Position>
            <AltitudeMeters>1144.0</AltitudeMeters>
            <DistanceMeters>50045.935166854</DistanceMeters>
          </Trackpoint>
          <Trackpoint>
            <Position>
              <LatitudeDegrees>50.207665</LatitudeDegrees>
              <LongitudeDegrees>16.863265</LongitudeDegrees>
            </Position>
            <AltitudeMeters>1146.0</AltitudeMeters>
            <DistanceMeters>50061.12339693</DistanceMeters>
          </Trackpoint>
          <Trackpoint>
            <Position>
              <LatitudeDegrees>50.207542</LatitudeDegrees>
              <LongitudeDegrees>16.863202</LongitudeDegrees>
            </Position>
            <AltitudeMeters>1145.0</AltitudeMeters>
            <DistanceMeters>50075.530524928</DistanceMeters>
          </Trackpoint>
          <Trackpoint>
            <Position>
              <LatitudeDegrees>50.207462</LatitudeDegrees>
              <LongitudeDegrees>16.863115</LongitudeDegrees>
            </Position>
            <AltitudeMeters>1139.0</AltitudeMeters>
            <DistanceMeters>50086.379396591</DistanceMeters>
          </Trackpoint>
          <Trackpoint>
            <Position>
              <LatitudeDegrees>50.207555</LatitudeDegrees>
              <LongitudeDegrees>16.863112</LongitudeDegrees>
            </Position>
            <AltitudeMeters>1140.0</AltitudeMeters>
            <DistanceMeters>50096.732512421</DistanceMeters>
          </Trackpoint>
          <Trackpoint>
            <Position>
              <LatitudeDegrees>50.207463</LatitudeDegrees>
              <LongitudeDegrees>16.86311</LongitudeDegrees>
            </Position>
            <AltitudeMeters>1140.0</AltitudeMeters>
            <DistanceMeters>50106.97293613</DistanceMeters>
          </Trackpoint>
          <Trackpoint>
            <Position>
              <LatitudeDegrees>50.207368</LatitudeDegrees>
              <LongitudeDegrees>16.86307</LongitudeDegrees>
            </Position>
            <AltitudeMeters>1139.0</AltitudeMeters>
            <DistanceMeters>50117.923708486</DistanceMeters>
          </Trackpoint>
          <Trackpoint>
            <Position>
              <LatitudeDegrees>50.207458</LatitudeDegrees>
              <LongitudeDegrees>16.863038</LongitudeDegrees>
            </Position>
            <AltitudeMeters>1141.0</AltitudeMeters>
            <DistanceMeters>50128.197146736</DistanceMeters>
          </Trackpoint>
          <Trackpoint>
            <Position>
              <LatitudeDegrees>50.207465</LatitudeDegrees>
              <LongitudeDegrees>16.8632</LongitudeDegrees>
            </Position>
            <AltitudeMeters>1139.0</AltitudeMeters>
            <DistanceMeters>50139.763111998</DistanceMeters>
          </Trackpoint>
          <Trackpoint>
            <Position>
              <LatitudeDegrees>50.207473</LatitudeDegrees>
              <LongitudeDegrees>16.86304</LongitudeDegrees>
            </Position>
            <AltitudeMeters>1146.0</AltitudeMeters>
            <DistanceMeters>50151.19558008</DistanceMeters>
          </Trackpoint>
          <Trackpoint>
            <Position>
              <LatitudeDegrees>50.207498</LatitudeDegrees>
              <LongitudeDegrees>16.863182</LongitudeDegrees>
            </Position>
            <AltitudeMeters>1145.0</AltitudeMeters>
            <DistanceMeters>50161.686460486</DistanceMeters>
          </Trackpoint>
          <Trackpoint>
            <Position>
              <LatitudeDegrees>50.207415</LatitudeDegrees>
              <LongitudeDegrees>16.863113</LongitudeDegrees>
            </Position>
            <AltitudeMeters>1141.0</AltitudeMeters>
            <DistanceMeters>50172.15062347</DistanceMeters>
          </Trackpoint>
          <Trackpoint>
            <Position>
              <LatitudeDegrees>50.207567</LatitudeDegrees>
              <LongitudeDegrees>16.863142</LongitudeDegrees>
            </Position>
            <AltitudeMeters>1138.0</AltitudeMeters>
            <DistanceMeters>50189.194082598</DistanceMeters>
          </Trackpoint>
          <Trackpoint>
            <Position>
              <LatitudeDegrees>50.207627</LatitudeDegrees>
              <LongitudeDegrees>16.863037</LongitudeDegrees>
            </Position>
            <AltitudeMeters>1144.0</AltitudeMeters>
            <DistanceMeters>50199.221089686</DistanceMeters>
          </Trackpoint>
          <Trackpoint>
            <Position>
              <LatitudeDegrees>50.2077</LatitudeDegrees>
              <LongitudeDegrees>16.863138</LongitudeDegrees>
            </Position>
            <AltitudeMeters>1147.0</AltitudeMeters>
            <DistanceMeters>50210.073290245</DistanceMeters>
          </Trackpoint>
          <Trackpoint>
            <Position>
              <LatitudeDegrees>50.207705</LatitudeDegrees>
              <LongitudeDegrees>16.863402</LongitudeDegrees>
            </Position>
            <AltitudeMeters>1146.0</AltitudeMeters>
            <DistanceMeters>50228.887139836</DistanceMeters>
          </Trackpoint>
          <Trackpoint>
            <Position>
              <LatitudeDegrees>50.207707</LatitudeDegrees>
              <LongitudeDegrees>16.863543</LongitudeDegrees>
            </Position>
            <AltitudeMeters>1149.0</AltitudeMeters>
            <DistanceMeters>50238.933490637</DistanceMeters>
          </Trackpoint>
          <Trackpoint>
            <Position>
              <LatitudeDegrees>50.207792</LatitudeDegrees>
              <LongitudeDegrees>16.864588</LongitudeDegrees>
            </Position>
            <AltitudeMeters>1148.0</AltitudeMeters>
            <DistanceMeters>50313.971749459</DistanceMeters>
          </Trackpoint>
          <Trackpoint>
            <Position>
              <LatitudeDegrees>50.20788</LatitudeDegrees>
              <LongitudeDegrees>16.86455</LongitudeDegrees>
            </Position>
            <AltitudeMeters>1132.0</AltitudeMeters>
            <DistanceMeters>50324.133833606</DistanceMeters>
          </Trackpoint>
          <Trackpoint>
            <Position>
              <LatitudeDegrees>50.207953</LatitudeDegrees>
              <LongitudeDegrees>16.86465</LongitudeDegrees>
            </Position>
            <AltitudeMeters>1130.0</AltitudeMeters>
            <DistanceMeters>50334.939754136</DistanceMeters>
          </Trackpoint>
          <Trackpoint>
            <Position>
              <LatitudeDegrees>50.208043</LatitudeDegrees>
              <LongitudeDegrees>16.86474</LongitudeDegrees>
            </Position>
            <AltitudeMeters>1123.0</AltitudeMeters>
            <DistanceMeters>50346.832908361</DistanceMeters>
          </Trackpoint>
          <Trackpoint>
            <Position>
              <LatitudeDegrees>50.208142</LatitudeDegrees>
              <LongitudeDegrees>16.864878</LongitudeDegrees>
            </Position>
            <AltitudeMeters>1117.0</AltitudeMeters>
            <DistanceMeters>50361.599399342</DistanceMeters>
          </Trackpoint>
          <Trackpoint>
            <Position>
              <LatitudeDegrees>50.208227</LatitudeDegrees>
              <LongitudeDegrees>16.864977</LongitudeDegrees>
            </Position>
            <AltitudeMeters>1115.0</AltitudeMeters>
            <DistanceMeters>50373.399176827</DistanceMeters>
          </Trackpoint>
          <Trackpoint>
            <Position>
              <LatitudeDegrees>50.20809</LatitudeDegrees>
              <LongitudeDegrees>16.865128</LongitudeDegrees>
            </Position>
            <AltitudeMeters>1130.0</AltitudeMeters>
            <DistanceMeters>50392.059771882</DistanceMeters>
          </Trackpoint>
          <Trackpoint>
            <Position>
              <LatitudeDegrees>50.208187</LatitudeDegrees>
              <LongitudeDegrees>16.865115</LongitudeDegrees>
            </Position>
            <AltitudeMeters>1135.0</AltitudeMeters>
            <DistanceMeters>50402.895734415</DistanceMeters>
          </Trackpoint>
          <Trackpoint>
            <Position>
              <LatitudeDegrees>50.208092</LatitudeDegrees>
              <LongitudeDegrees>16.865252</LongitudeDegrees>
            </Position>
            <AltitudeMeters>1135.0</AltitudeMeters>
            <DistanceMeters>50417.284674358</DistanceMeters>
          </Trackpoint>
          <Trackpoint>
            <Position>
              <LatitudeDegrees>50.208003</LatitudeDegrees>
              <LongitudeDegrees>16.865303</LongitudeDegrees>
            </Position>
            <AltitudeMeters>1136.0</AltitudeMeters>
            <DistanceMeters>50427.835635566</DistanceMeters>
          </Trackpoint>
          <Trackpoint>
            <Position>
              <LatitudeDegrees>50.207862</LatitudeDegrees>
              <LongitudeDegrees>16.865327</LongitudeDegrees>
            </Position>
            <AltitudeMeters>1135.0</AltitudeMeters>
            <DistanceMeters>50443.622087026</DistanceMeters>
          </Trackpoint>
          <Trackpoint>
            <Position>
              <LatitudeDegrees>50.207738</LatitudeDegrees>
              <LongitudeDegrees>16.865312</LongitudeDegrees>
            </Position>
            <AltitudeMeters>1131.0</AltitudeMeters>
            <DistanceMeters>50457.465036575</DistanceMeters>
          </Trackpoint>
          <Trackpoint>
            <Position>
              <LatitudeDegrees>50.20764</LatitudeDegrees>
              <LongitudeDegrees>16.865428</LongitudeDegrees>
            </Position>
            <AltitudeMeters>1128.0</AltitudeMeters>
            <DistanceMeters>50471.149213394</DistanceMeters>
          </Trackpoint>
          <Trackpoint>
            <Position>
              <LatitudeDegrees>50.207542</LatitudeDegrees>
              <LongitudeDegrees>16.865583</LongitudeDegrees>
            </Position>
            <AltitudeMeters>1124.0</AltitudeMeters>
            <DistanceMeters>50486.669726247</DistanceMeters>
          </Trackpoint>
          <Trackpoint>
            <Position>
              <LatitudeDegrees>50.207427</LatitudeDegrees>
              <LongitudeDegrees>16.865672</LongitudeDegrees>
            </Position>
            <AltitudeMeters>1121.0</AltitudeMeters>
            <DistanceMeters>50500.953477406</DistanceMeters>
          </Trackpoint>
          <Trackpoint>
            <Position>
              <LatitudeDegrees>50.207422</LatitudeDegrees>
              <LongitudeDegrees>16.865878</LongitudeDegrees>
            </Position>
            <AltitudeMeters>1111.0</AltitudeMeters>
            <DistanceMeters>50515.63841035</DistanceMeters>
          </Trackpoint>
          <Trackpoint>
            <Position>
              <LatitudeDegrees>50.207442</LatitudeDegrees>
              <LongitudeDegrees>16.866067</LongitudeDegrees>
            </Position>
            <AltitudeMeters>1099.0</AltitudeMeters>
            <DistanceMeters>50529.284590637</DistanceMeters>
          </Trackpoint>
          <Trackpoint>
            <Position>
              <LatitudeDegrees>50.207477</LatitudeDegrees>
              <LongitudeDegrees>16.86622</LongitudeDegrees>
            </Position>
            <AltitudeMeters>1088.0</AltitudeMeters>
            <DistanceMeters>50540.858750824</DistanceMeters>
          </Trackpoint>
          <Trackpoint>
            <Position>
              <LatitudeDegrees>50.207652</LatitudeDegrees>
              <LongitudeDegrees>16.866207</LongitudeDegrees>
            </Position>
            <AltitudeMeters>1084.0</AltitudeMeters>
            <DistanceMeters>50560.358454897</DistanceMeters>
          </Trackpoint>
          <Trackpoint>
            <Position>
              <LatitudeDegrees>50.207768</LatitudeDegrees>
              <LongitudeDegrees>16.866207</LongitudeDegrees>
            </Position>
            <AltitudeMeters>1113.0</AltitudeMeters>
            <DistanceMeters>50573.26950486</DistanceMeters>
          </Trackpoint>
          <Trackpoint>
            <Position>
              <LatitudeDegrees>50.207877</LatitudeDegrees>
              <LongitudeDegrees>16.86628</LongitudeDegrees>
            </Position>
            <AltitudeMeters>1109.0</AltitudeMeters>
            <DistanceMeters>50586.468643651</DistanceMeters>
          </Trackpoint>
          <Trackpoint>
            <Position>
              <LatitudeDegrees>50.207992</LatitudeDegrees>
              <LongitudeDegrees>16.866295</LongitudeDegrees>
            </Position>
            <AltitudeMeters>1107.0</AltitudeMeters>
            <DistanceMeters>50599.312726591</DistanceMeters>
          </Trackpoint>
          <Trackpoint>
            <Position>
              <LatitudeDegrees>50.208093</LatitudeDegrees>
              <LongitudeDegrees>16.86626</LongitudeDegrees>
            </Position>
            <AltitudeMeters>1105.0</AltitudeMeters>
            <DistanceMeters>50610.827047341</DistanceMeters>
          </Trackpoint>
          <Trackpoint>
            <Position>
              <LatitudeDegrees>50.208162</LatitudeDegrees>
              <LongitudeDegrees>16.866382</LongitudeDegrees>
            </Position>
            <AltitudeMeters>1104.0</AltitudeMeters>
            <DistanceMeters>50622.424589694</DistanceMeters>
          </Trackpoint>
          <Trackpoint>
            <Position>
              <LatitudeDegrees>50.208178</LatitudeDegrees>
              <LongitudeDegrees>16.866533</LongitudeDegrees>
            </Position>
            <AltitudeMeters>1104.0</AltitudeMeters>
            <DistanceMeters>50633.327429981</DistanceMeters>
          </Trackpoint>
          <Trackpoint>
            <Position>
              <LatitudeDegrees>50.208152</LatitudeDegrees>
              <LongitudeDegrees>16.866695</LongitudeDegrees>
            </Position>
            <AltitudeMeters>1103.0</AltitudeMeters>
            <DistanceMeters>50645.224379934</DistanceMeters>
          </Trackpoint>
          <Trackpoint>
            <Position>
              <LatitudeDegrees>50.208083</LatitudeDegrees>
              <LongitudeDegrees>16.86679</LongitudeDegrees>
            </Position>
            <AltitudeMeters>1103.0</AltitudeMeters>
            <DistanceMeters>50655.459952556</DistanceMeters>
          </Trackpoint>
          <Trackpoint>
            <Position>
              <LatitudeDegrees>50.208082</LatitudeDegrees>
              <LongitudeDegrees>16.866937</LongitudeDegrees>
            </Position>
            <AltitudeMeters>1102.0</AltitudeMeters>
            <DistanceMeters>50665.931879233</DistanceMeters>
          </Trackpoint>
          <Trackpoint>
            <Position>
              <LatitudeDegrees>50.208103</LatitudeDegrees>
              <LongitudeDegrees>16.867078</LongitudeDegrees>
            </Position>
            <AltitudeMeters>1102.0</AltitudeMeters>
            <DistanceMeters>50676.243919778</DistanceMeters>
          </Trackpoint>
          <Trackpoint>
            <Position>
              <LatitudeDegrees>50.208188</LatitudeDegrees>
              <LongitudeDegrees>16.867135</LongitudeDegrees>
            </Position>
            <AltitudeMeters>1102.0</AltitudeMeters>
            <DistanceMeters>50686.538870347</DistanceMeters>
          </Trackpoint>
          <Trackpoint>
            <Position>
              <LatitudeDegrees>50.20822</LatitudeDegrees>
              <LongitudeDegrees>16.867453</LongitudeDegrees>
            </Position>
            <AltitudeMeters>1101.0</AltitudeMeters>
            <DistanceMeters>50709.469271373</DistanceMeters>
          </Trackpoint>
          <Trackpoint>
            <Position>
              <LatitudeDegrees>50.208178</LatitudeDegrees>
              <LongitudeDegrees>16.867612</LongitudeDegrees>
            </Position>
            <AltitudeMeters>1101.0</AltitudeMeters>
            <DistanceMeters>50721.722191472</DistanceMeters>
          </Trackpoint>
          <Trackpoint>
            <Position>
              <LatitudeDegrees>50.208257</LatitudeDegrees>
              <LongitudeDegrees>16.867697</LongitudeDegrees>
            </Position>
            <AltitudeMeters>1096.0</AltitudeMeters>
            <DistanceMeters>50732.398221861</DistanceMeters>
          </Trackpoint>
          <Trackpoint>
            <Position>
              <LatitudeDegrees>50.208368</LatitudeDegrees>
              <LongitudeDegrees>16.867697</LongitudeDegrees>
            </Position>
            <AltitudeMeters>1094.0</AltitudeMeters>
            <DistanceMeters>50744.752791143</DistanceMeters>
          </Trackpoint>
          <Trackpoint>
            <Position>
              <LatitudeDegrees>50.208445</LatitudeDegrees>
              <LongitudeDegrees>16.867772</LongitudeDegrees>
            </Position>
            <AltitudeMeters>1086.0</AltitudeMeters>
            <DistanceMeters>50754.852034354</DistanceMeters>
          </Trackpoint>
          <Trackpoint>
            <Position>
              <LatitudeDegrees>50.208473</LatitudeDegrees>
              <LongitudeDegrees>16.867907</LongitudeDegrees>
            </Position>
            <AltitudeMeters>1080.0</AltitudeMeters>
            <DistanceMeters>50764.960661612</DistanceMeters>
          </Trackpoint>
          <Trackpoint>
            <Position>
              <LatitudeDegrees>50.208523</LatitudeDegrees>
              <LongitudeDegrees>16.868037</LongitudeDegrees>
            </Position>
            <AltitudeMeters>1077.0</AltitudeMeters>
            <DistanceMeters>50775.764492789</DistanceMeters>
          </Trackpoint>
          <Trackpoint>
            <Position>
              <LatitudeDegrees>50.208498</LatitudeDegrees>
              <LongitudeDegrees>16.868172</LongitudeDegrees>
            </Position>
            <AltitudeMeters>1077.0</AltitudeMeters>
            <DistanceMeters>50785.775276394</DistanceMeters>
          </Trackpoint>
          <Trackpoint>
            <Position>
              <LatitudeDegrees>50.208493</LatitudeDegrees>
              <LongitudeDegrees>16.868312</LongitudeDegrees>
            </Position>
            <AltitudeMeters>1078.0</AltitudeMeters>
            <DistanceMeters>50795.763483668</DistanceMeters>
          </Trackpoint>
          <Trackpoint>
            <Position>
              <LatitudeDegrees>50.20848</LatitudeDegrees>
              <LongitudeDegrees>16.868485</LongitudeDegrees>
            </Position>
            <AltitudeMeters>1077.0</AltitudeMeters>
            <DistanceMeters>50808.171658529</DistanceMeters>
          </Trackpoint>
          <Trackpoint>
            <Position>
              <LatitudeDegrees>50.208493</LatitudeDegrees>
              <LongitudeDegrees>16.868648</LongitudeDegrees>
            </Position>
            <AltitudeMeters>1077.0</AltitudeMeters>
            <DistanceMeters>50819.872684938</DistanceMeters>
          </Trackpoint>
          <Trackpoint>
            <Position>
              <LatitudeDegrees>50.208468</LatitudeDegrees>
              <LongitudeDegrees>16.868767</LongitudeDegrees>
            </Position>
            <AltitudeMeters>1074.0</AltitudeMeters>
            <DistanceMeters>50828.794069011</DistanceMeters>
          </Trackpoint>
          <Trackpoint>
            <Position>
              <LatitudeDegrees>50.208463</LatitudeDegrees>
              <LongitudeDegrees>16.868793</LongitudeDegrees>
            </Position>
            <AltitudeMeters>1074.0</AltitudeMeters>
            <DistanceMeters>50830.727576614</DistanceMeters>
          </Trackpoint>
          <Trackpoint>
            <Position>
              <LatitudeDegrees>50.20846</LatitudeDegrees>
              <LongitudeDegrees>16.868835</LongitudeDegrees>
            </Position>
            <AltitudeMeters>1072.0</AltitudeMeters>
            <DistanceMeters>50833.737089311</DistanceMeters>
          </Trackpoint>
          <Trackpoint>
            <Position>
              <LatitudeDegrees>50.208455</LatitudeDegrees>
              <LongitudeDegrees>16.868875</LongitudeDegrees>
            </Position>
            <AltitudeMeters>1071.0</AltitudeMeters>
            <DistanceMeters>50836.638128994</DistanceMeters>
          </Trackpoint>
          <Trackpoint>
            <Position>
              <LatitudeDegrees>50.208448</LatitudeDegrees>
              <LongitudeDegrees>16.868917</LongitudeDegrees>
            </Position>
            <AltitudeMeters>1071.0</AltitudeMeters>
            <DistanceMeters>50839.729054564</DistanceMeters>
          </Trackpoint>
          <Trackpoint>
            <Position>
              <LatitudeDegrees>50.20841</LatitudeDegrees>
              <LongitudeDegrees>16.869053</LongitudeDegrees>
            </Position>
            <AltitudeMeters>1071.0</AltitudeMeters>
            <DistanceMeters>50850.299682072</DistanceMeters>
          </Trackpoint>
          <Trackpoint>
            <Position>
              <LatitudeDegrees>50.208392</LatitudeDegrees>
              <LongitudeDegrees>16.869193</LongitudeDegrees>
            </Position>
            <AltitudeMeters>1068.0</AltitudeMeters>
            <DistanceMeters>50860.471536175</DistanceMeters>
          </Trackpoint>
          <Trackpoint>
            <Position>
              <LatitudeDegrees>50.208358</LatitudeDegrees>
              <LongitudeDegrees>16.869333</LongitudeDegrees>
            </Position>
            <AltitudeMeters>1067.0</AltitudeMeters>
            <DistanceMeters>50871.138258408</DistanceMeters>
          </Trackpoint>
          <Trackpoint>
            <Position>
              <LatitudeDegrees>50.208305</LatitudeDegrees>
              <LongitudeDegrees>16.869493</LongitudeDegrees>
            </Position>
            <AltitudeMeters>1065.0</AltitudeMeters>
            <DistanceMeters>50883.971439393</DistanceMeters>
          </Trackpoint>
          <Trackpoint>
            <Position>
              <LatitudeDegrees>50.208318</LatitudeDegrees>
              <LongitudeDegrees>16.869665</LongitudeDegrees>
            </Position>
            <AltitudeMeters>1066.0</AltitudeMeters>
            <DistanceMeters>50896.308820336</DistanceMeters>
          </Trackpoint>
          <Trackpoint>
            <Position>
              <LatitudeDegrees>50.208387</LatitudeDegrees>
              <LongitudeDegrees>16.869765</LongitudeDegrees>
            </Position>
            <AltitudeMeters>1063.0</AltitudeMeters>
            <DistanceMeters>50906.783764673</DistanceMeters>
          </Trackpoint>
          <Trackpoint>
            <Position>
              <LatitudeDegrees>50.208327</LatitudeDegrees>
              <LongitudeDegrees>16.86988</LongitudeDegrees>
            </Position>
            <AltitudeMeters>1043.0</AltitudeMeters>
            <DistanceMeters>50917.352683521</DistanceMeters>
          </Trackpoint>
          <Trackpoint>
            <Position>
              <LatitudeDegrees>50.208307</LatitudeDegrees>
              <LongitudeDegrees>16.87002</LongitudeDegrees>
            </Position>
            <AltitudeMeters>1042.0</AltitudeMeters>
            <DistanceMeters>50927.570596412</DistanceMeters>
          </Trackpoint>
          <Trackpoint>
            <Position>
              <LatitudeDegrees>50.208263</LatitudeDegrees>
              <LongitudeDegrees>16.870153</LongitudeDegrees>
            </Position>
            <AltitudeMeters>1042.0</AltitudeMeters>
            <DistanceMeters>50938.23562538</DistanceMeters>
          </Trackpoint>
          <Trackpoint>
            <Position>
              <LatitudeDegrees>50.208233</LatitudeDegrees>
              <LongitudeDegrees>16.870243</LongitudeDegrees>
            </Position>
            <AltitudeMeters>1040.0</AltitudeMeters>
            <DistanceMeters>50945.464529334</DistanceMeters>
          </Trackpoint>
          <Trackpoint>
            <Position>
              <LatitudeDegrees>50.208223</LatitudeDegrees>
              <LongitudeDegrees>16.87028</LongitudeDegrees>
            </Position>
            <AltitudeMeters>1040.0</AltitudeMeters>
            <DistanceMeters>50948.324817652</DistanceMeters>
          </Trackpoint>
          <Trackpoint>
            <Position>
              <LatitudeDegrees>50.208182</LatitudeDegrees>
              <LongitudeDegrees>16.870423</LongitudeDegrees>
            </Position>
            <AltitudeMeters>1040.0</AltitudeMeters>
            <DistanceMeters>50959.486311038</DistanceMeters>
          </Trackpoint>
          <Trackpoint>
            <Position>
              <LatitudeDegrees>50.208192</LatitudeDegrees>
              <LongitudeDegrees>16.870508</LongitudeDegrees>
            </Position>
            <AltitudeMeters>1037.0</AltitudeMeters>
            <DistanceMeters>50965.642546157</DistanceMeters>
          </Trackpoint>
          <Trackpoint>
            <Position>
              <LatitudeDegrees>50.208173</LatitudeDegrees>
              <LongitudeDegrees>16.870538</LongitudeDegrees>
            </Position>
            <AltitudeMeters>1037.0</AltitudeMeters>
            <DistanceMeters>50968.650558224</DistanceMeters>
          </Trackpoint>
          <Trackpoint>
            <Position>
              <LatitudeDegrees>50.208167</LatitudeDegrees>
              <LongitudeDegrees>16.87068</LongitudeDegrees>
            </Position>
            <AltitudeMeters>1036.0</AltitudeMeters>
            <DistanceMeters>50978.787730904</DistanceMeters>
          </Trackpoint>
          <Trackpoint>
            <Position>
              <LatitudeDegrees>50.208162</LatitudeDegrees>
              <LongitudeDegrees>16.870808</LongitudeDegrees>
            </Position>
            <AltitudeMeters>1035.0</AltitudeMeters>
            <DistanceMeters>50987.922166099</DistanceMeters>
          </Trackpoint>
          <Trackpoint>
            <Position>
              <LatitudeDegrees>50.208208</LatitudeDegrees>
              <LongitudeDegrees>16.87094</LongitudeDegrees>
            </Position>
            <AltitudeMeters>1035.0</AltitudeMeters>
            <DistanceMeters>50998.628602966</DistanceMeters>
          </Trackpoint>
          <Trackpoint>
            <Position>
              <LatitudeDegrees>50.208132</LatitudeDegrees>
              <LongitudeDegrees>16.871027</LongitudeDegrees>
            </Position>
            <AltitudeMeters>1035.0</AltitudeMeters>
            <DistanceMeters>51009.115178715</DistanceMeters>
          </Trackpoint>
          <Trackpoint>
            <Position>
              <LatitudeDegrees>50.208043</LatitudeDegrees>
              <LongitudeDegrees>16.870927</LongitudeDegrees>
            </Position>
            <AltitudeMeters>1035.0</AltitudeMeters>
            <DistanceMeters>51021.316401615</DistanceMeters>
          </Trackpoint>
          <Trackpoint>
            <Position>
              <LatitudeDegrees>50.208022</LatitudeDegrees>
              <LongitudeDegrees>16.871275</LongitudeDegrees>
            </Position>
            <AltitudeMeters>1035.0</AltitudeMeters>
            <DistanceMeters>51046.215576869</DistanceMeters>
          </Trackpoint>
          <Trackpoint>
            <Position>
              <LatitudeDegrees>50.208077</LatitudeDegrees>
              <LongitudeDegrees>16.871462</LongitudeDegrees>
            </Position>
            <AltitudeMeters>1035.0</AltitudeMeters>
            <DistanceMeters>51060.875584351</DistanceMeters>
          </Trackpoint>
          <Trackpoint>
            <Position>
              <LatitudeDegrees>50.208102</LatitudeDegrees>
              <LongitudeDegrees>16.871618</LongitudeDegrees>
            </Position>
            <AltitudeMeters>1027.0</AltitudeMeters>
            <DistanceMeters>51072.33093554</DistanceMeters>
          </Trackpoint>
          <Trackpoint>
            <Position>
              <LatitudeDegrees>50.208107</LatitudeDegrees>
              <LongitudeDegrees>16.87176</LongitudeDegrees>
            </Position>
            <AltitudeMeters>1025.0</AltitudeMeters>
            <DistanceMeters>51082.461425103</DistanceMeters>
          </Trackpoint>
          <Trackpoint>
            <Position>
              <LatitudeDegrees>50.2081</LatitudeDegrees>
              <LongitudeDegrees>16.871793</LongitudeDegrees>
            </Position>
            <AltitudeMeters>1024.0</AltitudeMeters>
            <DistanceMeters>51084.937595919</DistanceMeters>
          </Trackpoint>
          <Trackpoint>
            <Position>
              <LatitudeDegrees>50.208093</LatitudeDegrees>
              <LongitudeDegrees>16.87183</LongitudeDegrees>
            </Position>
            <AltitudeMeters>1023.0</AltitudeMeters>
            <DistanceMeters>51087.685166465</DistanceMeters>
          </Trackpoint>
          <Trackpoint>
            <Position>
              <LatitudeDegrees>50.208087</LatitudeDegrees>
              <LongitudeDegrees>16.871875</LongitudeDegrees>
            </Position>
            <AltitudeMeters>1022.0</AltitudeMeters>
            <DistanceMeters>51090.959109155</DistanceMeters>
          </Trackpoint>
          <Trackpoint>
            <Position>
              <LatitudeDegrees>50.208087</LatitudeDegrees>
              <LongitudeDegrees>16.871915</LongitudeDegrees>
            </Position>
            <AltitudeMeters>1021.0</AltitudeMeters>
            <DistanceMeters>51093.806741267</DistanceMeters>
          </Trackpoint>
          <Trackpoint>
            <Position>
              <LatitudeDegrees>50.208085</LatitudeDegrees>
              <LongitudeDegrees>16.871953</LongitudeDegrees>
            </Position>
            <AltitudeMeters>1019.0</AltitudeMeters>
            <DistanceMeters>51096.521247185</DistanceMeters>
          </Trackpoint>
          <Trackpoint>
            <Position>
              <LatitudeDegrees>50.20808</LatitudeDegrees>
              <LongitudeDegrees>16.871995</LongitudeDegrees>
            </Position>
            <AltitudeMeters>1018.0</AltitudeMeters>
            <DistanceMeters>51099.563586475</DistanceMeters>
          </Trackpoint>
          <Trackpoint>
            <Position>
              <LatitudeDegrees>50.208072</LatitudeDegrees>
              <LongitudeDegrees>16.872035</LongitudeDegrees>
            </Position>
            <AltitudeMeters>1019.0</AltitudeMeters>
            <DistanceMeters>51102.548998582</DistanceMeters>
          </Trackpoint>
          <Trackpoint>
            <Position>
              <LatitudeDegrees>50.208065</LatitudeDegrees>
              <LongitudeDegrees>16.872078</LongitudeDegrees>
            </Position>
            <AltitudeMeters>1018.0</AltitudeMeters>
            <DistanceMeters>51105.710690317</DistanceMeters>
          </Trackpoint>
          <Trackpoint>
            <Position>
              <LatitudeDegrees>50.208062</LatitudeDegrees>
              <LongitudeDegrees>16.872122</LongitudeDegrees>
            </Position>
            <AltitudeMeters>1018.0</AltitudeMeters>
            <DistanceMeters>51108.862369883</DistanceMeters>
          </Trackpoint>
          <Trackpoint>
            <Position>
              <LatitudeDegrees>50.20806</LatitudeDegrees>
              <LongitudeDegrees>16.87216</LongitudeDegrees>
            </Position>
            <AltitudeMeters>1019.0</AltitudeMeters>
            <DistanceMeters>51111.580200366</DistanceMeters>
          </Trackpoint>
          <Trackpoint>
            <Position>
              <LatitudeDegrees>50.208057</LatitudeDegrees>
              <LongitudeDegrees>16.872205</LongitudeDegrees>
            </Position>
            <AltitudeMeters>1019.0</AltitudeMeters>
            <DistanceMeters>51114.802713036</DistanceMeters>
          </Trackpoint>
          <Trackpoint>
            <Position>
              <LatitudeDegrees>50.20803</LatitudeDegrees>
              <LongitudeDegrees>16.87235</LongitudeDegrees>
            </Position>
            <AltitudeMeters>1019.0</AltitudeMeters>
            <DistanceMeters>51125.559636367</DistanceMeters>
          </Trackpoint>
          <Trackpoint>
            <Position>
              <LatitudeDegrees>50.208017</LatitudeDegrees>
              <LongitudeDegrees>16.872387</LongitudeDegrees>
            </Position>
            <AltitudeMeters>1018.0</AltitudeMeters>
            <DistanceMeters>51128.564644927</DistanceMeters>
          </Trackpoint>
          <Trackpoint>
            <Position>
              <LatitudeDegrees>50.208007</LatitudeDegrees>
              <LongitudeDegrees>16.872412</LongitudeDegrees>
            </Position>
            <AltitudeMeters>1017.0</AltitudeMeters>
            <DistanceMeters>51130.66385366</DistanceMeters>
          </Trackpoint>
          <Trackpoint>
            <Position>
              <LatitudeDegrees>50.208002</LatitudeDegrees>
              <LongitudeDegrees>16.872438</LongitudeDegrees>
            </Position>
            <AltitudeMeters>1017.0</AltitudeMeters>
            <DistanceMeters>51132.597361262</DistanceMeters>
          </Trackpoint>
          <Trackpoint>
            <Position>
              <LatitudeDegrees>50.207997</LatitudeDegrees>
              <LongitudeDegrees>16.872468</LongitudeDegrees>
            </Position>
            <AltitudeMeters>1016.0</AltitudeMeters>
            <DistanceMeters>51134.805582555</DistanceMeters>
          </Trackpoint>
          <Trackpoint>
            <Position>
              <LatitudeDegrees>50.20799</LatitudeDegrees>
              <LongitudeDegrees>16.872497</LongitudeDegrees>
            </Position>
            <AltitudeMeters>1016.0</AltitudeMeters>
            <DistanceMeters>51137.013803848</DistanceMeters>
          </Trackpoint>
          <Trackpoint>
            <Position>
              <LatitudeDegrees>50.207975</LatitudeDegrees>
              <LongitudeDegrees>16.87252</LongitudeDegrees>
            </Position>
            <AltitudeMeters>1015.0</AltitudeMeters>
            <DistanceMeters>51139.353082867</DistanceMeters>
          </Trackpoint>
          <Trackpoint>
            <Position>
              <LatitudeDegrees>50.207968</LatitudeDegrees>
              <LongitudeDegrees>16.87255</LongitudeDegrees>
            </Position>
            <AltitudeMeters>1015.0</AltitudeMeters>
            <DistanceMeters>51141.627777088</DistanceMeters>
          </Trackpoint>
          <Trackpoint>
            <Position>
              <LatitudeDegrees>50.207962</LatitudeDegrees>
              <LongitudeDegrees>16.87259</LongitudeDegrees>
            </Position>
            <AltitudeMeters>1015.0</AltitudeMeters>
            <DistanceMeters>51144.553612434</DistanceMeters>
          </Trackpoint>
          <Trackpoint>
            <Position>
              <LatitudeDegrees>50.20796</LatitudeDegrees>
              <LongitudeDegrees>16.872633</LongitudeDegrees>
            </Position>
            <AltitudeMeters>1015.0</AltitudeMeters>
            <DistanceMeters>51147.625489691</DistanceMeters>
          </Trackpoint>
          <Trackpoint>
            <Position>
              <LatitudeDegrees>50.207955</LatitudeDegrees>
              <LongitudeDegrees>16.872668</LongitudeDegrees>
            </Position>
            <AltitudeMeters>1014.0</AltitudeMeters>
            <DistanceMeters>51150.18239707</DistanceMeters>
          </Trackpoint>
          <Trackpoint>
            <Position>
              <LatitudeDegrees>50.207942</LatitudeDegrees>
              <LongitudeDegrees>16.872768</LongitudeDegrees>
            </Position>
            <AltitudeMeters>1014.0</AltitudeMeters>
            <DistanceMeters>51157.451785445</DistanceMeters>
          </Trackpoint>
          <Trackpoint>
            <Position>
              <LatitudeDegrees>50.208015</LatitudeDegrees>
              <LongitudeDegrees>16.872857</LongitudeDegrees>
            </Position>
            <AltitudeMeters>1013.0</AltitudeMeters>
            <DistanceMeters>51167.757256277</DistanceMeters>
          </Trackpoint>
          <Trackpoint>
            <Position>
              <LatitudeDegrees>50.207945</LatitudeDegrees>
              <LongitudeDegrees>16.87295</LongitudeDegrees>
            </Position>
            <AltitudeMeters>1011.0</AltitudeMeters>
            <DistanceMeters>51177.984444329</DistanceMeters>
          </Trackpoint>
          <Trackpoint>
            <Position>
              <LatitudeDegrees>50.207943</LatitudeDegrees>
              <LongitudeDegrees>16.872993</LongitudeDegrees>
            </Position>
            <AltitudeMeters>1011.0</AltitudeMeters>
            <DistanceMeters>51181.057791032</DistanceMeters>
          </Trackpoint>
          <Trackpoint>
            <Position>
              <LatitudeDegrees>50.207927</LatitudeDegrees>
              <LongitudeDegrees>16.873145</LongitudeDegrees>
            </Position>
            <AltitudeMeters>1008.0</AltitudeMeters>
            <DistanceMeters>51192.031216632</DistanceMeters>
          </Trackpoint>
          <Trackpoint>
            <Position>
              <LatitudeDegrees>50.207837</LatitudeDegrees>
              <LongitudeDegrees>16.87319</LongitudeDegrees>
            </Position>
            <AltitudeMeters>1008.0</AltitudeMeters>
            <DistanceMeters>51202.548746591</DistanceMeters>
          </Trackpoint>
          <Trackpoint>
            <Position>
              <LatitudeDegrees>50.207737</LatitudeDegrees>
              <LongitudeDegrees>16.873178</LongitudeDegrees>
            </Position>
            <AltitudeMeters>1008.0</AltitudeMeters>
            <DistanceMeters>51213.711857937</DistanceMeters>
          </Trackpoint>
          <Trackpoint>
            <Position>
              <LatitudeDegrees>50.207508</LatitudeDegrees>
              <LongitudeDegrees>16.872992</LongitudeDegrees>
            </Position>
            <AltitudeMeters>1008.0</AltitudeMeters>
            <DistanceMeters>51242.437916587</DistanceMeters>
          </Trackpoint>
          <Trackpoint>
            <Position>
              <LatitudeDegrees>50.207447</LatitudeDegrees>
              <LongitudeDegrees>16.872855</LongitudeDegrees>
            </Position>
            <AltitudeMeters>1006.0</AltitudeMeters>
            <DistanceMeters>51254.326514339</DistanceMeters>
          </Trackpoint>
          <Trackpoint>
            <Position>
              <LatitudeDegrees>50.207468</LatitudeDegrees>
              <LongitudeDegrees>16.872772</LongitudeDegrees>
            </Position>
            <AltitudeMeters>1007.0</AltitudeMeters>
            <DistanceMeters>51260.684078508</DistanceMeters>
          </Trackpoint>
          <Trackpoint>
            <Position>
              <LatitudeDegrees>50.207473</LatitudeDegrees>
              <LongitudeDegrees>16.872742</LongitudeDegrees>
            </Position>
            <AltitudeMeters>1006.0</AltitudeMeters>
            <DistanceMeters>51262.892299801</DistanceMeters>
          </Trackpoint>
          <Trackpoint>
            <Position>
              <LatitudeDegrees>50.207478</LatitudeDegrees>
              <LongitudeDegrees>16.8727</LongitudeDegrees>
            </Position>
            <AltitudeMeters>1005.0</AltitudeMeters>
            <DistanceMeters>51265.936122797</DistanceMeters>
          </Trackpoint>
          <Trackpoint>
            <Position>
              <LatitudeDegrees>50.207485</LatitudeDegrees>
              <LongitudeDegrees>16.872643</LongitudeDegrees>
            </Position>
            <AltitudeMeters>1005.0</AltitudeMeters>
            <DistanceMeters>51270.069511798</DistanceMeters>
          </Trackpoint>
          <Trackpoint>
            <Position>
              <LatitudeDegrees>50.207487</LatitudeDegrees>
              <LongitudeDegrees>16.872607</LongitudeDegrees>
            </Position>
            <AltitudeMeters>1005.0</AltitudeMeters>
            <DistanceMeters>51272.64401682</DistanceMeters>
          </Trackpoint>
          <Trackpoint>
            <Position>
              <LatitudeDegrees>50.207488</LatitudeDegrees>
              <LongitudeDegrees>16.872567</LongitudeDegrees>
            </Position>
            <AltitudeMeters>1005.0</AltitudeMeters>
            <DistanceMeters>51275.494818252</DistanceMeters>
          </Trackpoint>
          <Trackpoint>
            <Position>
              <LatitudeDegrees>50.207488</LatitudeDegrees>
              <LongitudeDegrees>16.87253</LongitudeDegrees>
            </Position>
            <AltitudeMeters>1005.0</AltitudeMeters>
            <DistanceMeters>51278.131702561</DistanceMeters>
          </Trackpoint>
          <Trackpoint>
            <Position>
              <LatitudeDegrees>50.207528</LatitudeDegrees>
              <LongitudeDegrees>16.872397</LongitudeDegrees>
            </Position>
            <AltitudeMeters>1004.0</AltitudeMeters>
            <DistanceMeters>51288.599316786</DistanceMeters>
          </Trackpoint>
          <Trackpoint>
            <Position>
              <LatitudeDegrees>50.207563</LatitudeDegrees>
              <LongitudeDegrees>16.872258</LongitudeDegrees>
            </Position>
            <AltitudeMeters>1003.0</AltitudeMeters>
            <DistanceMeters>51299.239338797</DistanceMeters>
          </Trackpoint>
          <Trackpoint>
            <Position>
              <LatitudeDegrees>50.207578</LatitudeDegrees>
              <LongitudeDegrees>16.87209</LongitudeDegrees>
            </Position>
            <AltitudeMeters>1002.0</AltitudeMeters>
            <DistanceMeters>51311.322313428</DistanceMeters>
          </Trackpoint>
          <Trackpoint>
            <Position>
              <LatitudeDegrees>50.20758</LatitudeDegrees>
              <LongitudeDegrees>16.871947</LongitudeDegrees>
            </Position>
            <AltitudeMeters>1002.0</AltitudeMeters>
            <DistanceMeters>51321.511020844</DistanceMeters>
          </Trackpoint>
          <Trackpoint>
            <Position>
              <LatitudeDegrees>50.207583</LatitudeDegrees>
              <LongitudeDegrees>16.871778</LongitudeDegrees>
            </Position>
            <AltitudeMeters>1002.0</AltitudeMeters>
            <DistanceMeters>51333.554321382</DistanceMeters>
          </Trackpoint>
          <Trackpoint>
            <Position>
              <LatitudeDegrees>50.207583</LatitudeDegrees>
              <LongitudeDegrees>16.871615</LongitudeDegrees>
            </Position>
            <AltitudeMeters>1002.0</AltitudeMeters>
            <DistanceMeters>51345.165481587</DistanceMeters>
          </Trackpoint>
          <Trackpoint>
            <Position>
              <LatitudeDegrees>50.207583</LatitudeDegrees>
              <LongitudeDegrees>16.871472</LongitudeDegrees>
            </Position>
            <AltitudeMeters>1002.0</AltitudeMeters>
            <DistanceMeters>51355.351973054</DistanceMeters>
          </Trackpoint>
          <Trackpoint>
            <Position>
              <LatitudeDegrees>50.207618</LatitudeDegrees>
              <LongitudeDegrees>16.871315</LongitudeDegrees>
            </Position>
            <AltitudeMeters>999.0</AltitudeMeters>
            <DistanceMeters>51367.194528406</DistanceMeters>
          </Trackpoint>
          <Trackpoint>
            <Position>
              <LatitudeDegrees>50.207595</LatitudeDegrees>
              <LongitudeDegrees>16.871163</LongitudeDegrees>
            </Position>
            <AltitudeMeters>997.0</AltitudeMeters>
            <DistanceMeters>51378.320772964</DistanceMeters>
          </Trackpoint>
          <Trackpoint>
            <Position>
              <LatitudeDegrees>50.207563</LatitudeDegrees>
              <LongitudeDegrees>16.871028</LongitudeDegrees>
            </Position>
            <AltitudeMeters>997.0</AltitudeMeters>
            <DistanceMeters>51388.575736165</DistanceMeters>
          </Trackpoint>
          <Trackpoint>
            <Position>
              <LatitudeDegrees>50.207542</LatitudeDegrees>
              <LongitudeDegrees>16.870892</LongitudeDegrees>
            </Position>
            <AltitudeMeters>997.0</AltitudeMeters>
            <DistanceMeters>51398.541315964</DistanceMeters>
          </Trackpoint>
          <Trackpoint>
            <Position>
              <LatitudeDegrees>50.20752</LatitudeDegrees>
              <LongitudeDegrees>16.870752</LongitudeDegrees>
            </Position>
            <AltitudeMeters>997.0</AltitudeMeters>
            <DistanceMeters>51408.810358408</DistanceMeters>
          </Trackpoint>
          <Trackpoint>
            <Position>
              <LatitudeDegrees>50.207477</LatitudeDegrees>
              <LongitudeDegrees>16.870618</LongitudeDegrees>
            </Position>
            <AltitudeMeters>997.0</AltitudeMeters>
            <DistanceMeters>51419.488503156</DistanceMeters>
          </Trackpoint>
          <Trackpoint>
            <Position>
              <LatitudeDegrees>50.20743</LatitudeDegrees>
              <LongitudeDegrees>16.870467</LongitudeDegrees>
            </Position>
            <AltitudeMeters>997.0</AltitudeMeters>
            <DistanceMeters>51431.44904123</DistanceMeters>
          </Trackpoint>
          <Trackpoint>
            <Position>
              <LatitudeDegrees>50.207388</LatitudeDegrees>
              <LongitudeDegrees>16.870337</LongitudeDegrees>
            </Position>
            <AltitudeMeters>999.0</AltitudeMeters>
            <DistanceMeters>51441.82219846</DistanceMeters>
          </Trackpoint>
          <Trackpoint>
            <Position>
              <LatitudeDegrees>50.207342</LatitudeDegrees>
              <LongitudeDegrees>16.870192</LongitudeDegrees>
            </Position>
            <AltitudeMeters>1000.0</AltitudeMeters>
            <DistanceMeters>51453.350627022</DistanceMeters>
          </Trackpoint>
          <Trackpoint>
            <Position>
              <LatitudeDegrees>50.207313</LatitudeDegrees>
              <LongitudeDegrees>16.87016</LongitudeDegrees>
            </Position>
            <AltitudeMeters>1000.0</AltitudeMeters>
            <DistanceMeters>51457.300813358</DistanceMeters>
          </Trackpoint>
          <Trackpoint>
            <Position>
              <LatitudeDegrees>50.207285</LatitudeDegrees>
              <LongitudeDegrees>16.87014</LongitudeDegrees>
            </Position>
            <AltitudeMeters>1001.0</AltitudeMeters>
            <DistanceMeters>51460.72705027</DistanceMeters>
          </Trackpoint>
          <Trackpoint>
            <Position>
              <LatitudeDegrees>50.207263</LatitudeDegrees>
              <LongitudeDegrees>16.870105</LongitudeDegrees>
            </Position>
            <AltitudeMeters>1001.0</AltitudeMeters>
            <DistanceMeters>51464.221140045</DistanceMeters>
          </Trackpoint>
          <Trackpoint>
            <Position>
              <LatitudeDegrees>50.207248</LatitudeDegrees>
              <LongitudeDegrees>16.870068</LongitudeDegrees>
            </Position>
            <AltitudeMeters>1002.0</AltitudeMeters>
            <DistanceMeters>51467.342590426</DistanceMeters>
          </Trackpoint>
          <Trackpoint>
            <Position>
              <LatitudeDegrees>50.20724</LatitudeDegrees>
              <LongitudeDegrees>16.87003</LongitudeDegrees>
            </Position>
            <AltitudeMeters>1002.0</AltitudeMeters>
            <DistanceMeters>51470.193391857</DistanceMeters>
          </Trackpoint>
          <Trackpoint>
            <Position>
              <LatitudeDegrees>50.207233</LatitudeDegrees>
              <LongitudeDegrees>16.869993</LongitudeDegrees>
            </Position>
            <AltitudeMeters>1002.0</AltitudeMeters>
            <DistanceMeters>51472.944247008</DistanceMeters>
          </Trackpoint>
          <Trackpoint>
            <Position>
              <LatitudeDegrees>50.207223</LatitudeDegrees>
              <LongitudeDegrees>16.869958</LongitudeDegrees>
            </Position>
            <AltitudeMeters>1002.0</AltitudeMeters>
            <DistanceMeters>51475.675335279</DistanceMeters>
          </Trackpoint>
          <Trackpoint>
            <Position>
              <LatitudeDegrees>50.207213</LatitudeDegrees>
              <LongitudeDegrees>16.869918</LongitudeDegrees>
            </Position>
            <AltitudeMeters>1002.0</AltitudeMeters>
            <DistanceMeters>51478.735431563</DistanceMeters>
          </Trackpoint>
          <Trackpoint>
            <Position>
              <LatitudeDegrees>50.2072</LatitudeDegrees>
              <LongitudeDegrees>16.869882</LongitudeDegrees>
            </Position>
            <AltitudeMeters>1002.0</AltitudeMeters>
            <DistanceMeters>51481.682791999</DistanceMeters>
          </Trackpoint>
          <Trackpoint>
            <Position>
              <LatitudeDegrees>50.207183</LatitudeDegrees>
              <LongitudeDegrees>16.86984</LongitudeDegrees>
            </Position>
            <AltitudeMeters>1002.0</AltitudeMeters>
            <DistanceMeters>51485.223095108</DistanceMeters>
          </Trackpoint>
          <Trackpoint>
            <Position>
              <LatitudeDegrees>50.207165</LatitudeDegrees>
              <LongitudeDegrees>16.869793</LongitudeDegrees>
            </Position>
            <AltitudeMeters>1002.0</AltitudeMeters>
            <DistanceMeters>51489.124980407</DistanceMeters>
          </Trackpoint>
          <Trackpoint>
            <Position>
              <LatitudeDegrees>50.207102</LatitudeDegrees>
              <LongitudeDegrees>16.869678</LongitudeDegrees>
            </Position>
            <AltitudeMeters>1003.0</AltitudeMeters>
            <DistanceMeters>51499.907895796</DistanceMeters>
          </Trackpoint>
          <Trackpoint>
            <Position>
              <LatitudeDegrees>50.207053</LatitudeDegrees>
              <LongitudeDegrees>16.869542</LongitudeDegrees>
            </Position>
            <AltitudeMeters>1003.0</AltitudeMeters>
            <DistanceMeters>51511.025209154</DistanceMeters>
          </Trackpoint>
          <Trackpoint>
            <Position>
              <LatitudeDegrees>50.206988</LatitudeDegrees>
              <LongitudeDegrees>16.869437</LongitudeDegrees>
            </Position>
            <AltitudeMeters>1003.0</AltitudeMeters>
            <DistanceMeters>51521.430959806</DistanceMeters>
          </Trackpoint>
          <Trackpoint>
            <Position>
              <LatitudeDegrees>50.206982</LatitudeDegrees>
              <LongitudeDegrees>16.869587</LongitudeDegrees>
            </Position>
            <AltitudeMeters>1005.0</AltitudeMeters>
            <DistanceMeters>51532.137396673</DistanceMeters>
          </Trackpoint>
          <Trackpoint>
            <Position>
              <LatitudeDegrees>50.206965</LatitudeDegrees>
              <LongitudeDegrees>16.86974</LongitudeDegrees>
            </Position>
            <AltitudeMeters>1005.0</AltitudeMeters>
            <DistanceMeters>51543.199747055</DistanceMeters>
          </Trackpoint>
          <Trackpoint>
            <Position>
              <LatitudeDegrees>50.206952</LatitudeDegrees>
              <LongitudeDegrees>16.869915</LongitudeDegrees>
            </Position>
            <AltitudeMeters>1006.0</AltitudeMeters>
            <DistanceMeters>51555.749750773</DistanceMeters>
          </Trackpoint>
          <Trackpoint>
            <Position>
              <LatitudeDegrees>50.206948</LatitudeDegrees>
              <LongitudeDegrees>16.87006</LongitudeDegrees>
            </Position>
            <AltitudeMeters>1007.0</AltitudeMeters>
            <DistanceMeters>51566.088028424</DistanceMeters>
          </Trackpoint>
          <Trackpoint>
            <Position>
              <LatitudeDegrees>50.206938</LatitudeDegrees>
              <LongitudeDegrees>16.870213</LongitudeDegrees>
            </Position>
            <AltitudeMeters>1007.0</AltitudeMeters>
            <DistanceMeters>51577.043335176</DistanceMeters>
          </Trackpoint>
          <Trackpoint>
            <Position>
              <LatitudeDegrees>50.206905</LatitudeDegrees>
              <LongitudeDegrees>16.87038</LongitudeDegrees>
            </Position>
            <AltitudeMeters>1006.0</AltitudeMeters>
            <DistanceMeters>51589.493648113</DistanceMeters>
          </Trackpoint>
          <Trackpoint>
            <Position>
              <LatitudeDegrees>50.206853</LatitudeDegrees>
              <LongitudeDegrees>16.870518</LongitudeDegrees>
            </Position>
            <AltitudeMeters>1006.0</AltitudeMeters>
            <DistanceMeters>51600.901604184</DistanceMeters>
          </Trackpoint>
          <Trackpoint>
            <Position>
              <LatitudeDegrees>50.206803</LatitudeDegrees>
              <LongitudeDegrees>16.870668</LongitudeDegrees>
            </Position>
            <AltitudeMeters>1006.0</AltitudeMeters>
            <DistanceMeters>51612.94902792</DistanceMeters>
          </Trackpoint>
          <Trackpoint>
            <Position>
              <LatitudeDegrees>50.206735</LatitudeDegrees>
              <LongitudeDegrees>16.87078</LongitudeDegrees>
            </Position>
            <AltitudeMeters>1006.0</AltitudeMeters>
            <DistanceMeters>51623.945881276</DistanceMeters>
          </Trackpoint>
          <Trackpoint>
            <Position>
              <LatitudeDegrees>50.20666</LatitudeDegrees>
              <LongitudeDegrees>16.870892</LongitudeDegrees>
            </Position>
            <AltitudeMeters>1006.0</AltitudeMeters>
            <DistanceMeters>51635.493093441</DistanceMeters>
          </Trackpoint>
          <Trackpoint>
            <Position>
              <LatitudeDegrees>50.206605</LatitudeDegrees>
              <LongitudeDegrees>16.871017</LongitudeDegrees>
            </Position>
            <AltitudeMeters>1006.0</AltitudeMeters>
            <DistanceMeters>51646.299013971</DistanceMeters>
          </Trackpoint>
          <Trackpoint>
            <Position>
              <LatitudeDegrees>50.20653</LatitudeDegrees>
              <LongitudeDegrees>16.87115</LongitudeDegrees>
            </Position>
            <AltitudeMeters>1007.0</AltitudeMeters>
            <DistanceMeters>51658.926487584</DistanceMeters>
          </Trackpoint>
          <Trackpoint>
            <Position>
              <LatitudeDegrees>50.206452</LatitudeDegrees>
              <LongitudeDegrees>16.871255</LongitudeDegrees>
            </Position>
            <AltitudeMeters>1007.0</AltitudeMeters>
            <DistanceMeters>51670.385779518</DistanceMeters>
          </Trackpoint>
          <Trackpoint>
            <Position>
              <LatitudeDegrees>50.206358</LatitudeDegrees>
              <LongitudeDegrees>16.871348</LongitudeDegrees>
            </Position>
            <AltitudeMeters>1007.0</AltitudeMeters>
            <DistanceMeters>51682.769186084</DistanceMeters>
          </Trackpoint>
          <Trackpoint>
            <Position>
              <LatitudeDegrees>50.206282</LatitudeDegrees>
              <LongitudeDegrees>16.871428</LongitudeDegrees>
            </Position>
            <AltitudeMeters>1007.0</AltitudeMeters>
            <DistanceMeters>51692.968523349</DistanceMeters>
          </Trackpoint>
          <Trackpoint>
            <Position>
              <LatitudeDegrees>50.206202</LatitudeDegrees>
              <LongitudeDegrees>16.87152</LongitudeDegrees>
            </Position>
            <AltitudeMeters>1007.0</AltitudeMeters>
            <DistanceMeters>51704.024749867</DistanceMeters>
          </Trackpoint>
          <Trackpoint>
            <Position>
              <LatitudeDegrees>50.206118</LatitudeDegrees>
              <LongitudeDegrees>16.871603</LongitudeDegrees>
            </Position>
            <AltitudeMeters>1008.0</AltitudeMeters>
            <DistanceMeters>51715.086692096</DistanceMeters>
          </Trackpoint>
          <Trackpoint>
            <Position>
              <LatitudeDegrees>50.206025</LatitudeDegrees>
              <LongitudeDegrees>16.871657</LongitudeDegrees>
            </Position>
            <AltitudeMeters>1008.0</AltitudeMeters>
            <DistanceMeters>51726.129025284</DistanceMeters>
          </Trackpoint>
          <Trackpoint>
            <Position>
              <LatitudeDegrees>50.20593</LatitudeDegrees>
              <LongitudeDegrees>16.871698</LongitudeDegrees>
            </Position>
            <AltitudeMeters>1008.0</AltitudeMeters>
            <DistanceMeters>51737.09874719</DistanceMeters>
          </Trackpoint>
          <Trackpoint>
            <Position>
              <LatitudeDegrees>50.20584</LatitudeDegrees>
              <LongitudeDegrees>16.871742</LongitudeDegrees>
            </Position>
            <AltitudeMeters>1008.0</AltitudeMeters>
            <DistanceMeters>51747.594790855</DistanceMeters>
          </Trackpoint>
          <Trackpoint>
            <Position>
              <LatitudeDegrees>50.205748</LatitudeDegrees>
              <LongitudeDegrees>16.871778</LongitudeDegrees>
            </Position>
            <AltitudeMeters>1008.0</AltitudeMeters>
            <DistanceMeters>51758.151313644</DistanceMeters>
          </Trackpoint>
          <Trackpoint>
            <Position>
              <LatitudeDegrees>50.205673</LatitudeDegrees>
              <LongitudeDegrees>16.871867</LongitudeDegrees>
            </Position>
            <AltitudeMeters>1008.0</AltitudeMeters>
            <DistanceMeters>51768.634444394</DistanceMeters>
          </Trackpoint>
          <Trackpoint>
            <Position>
              <LatitudeDegrees>50.205583</LatitudeDegrees>
              <LongitudeDegrees>16.871913</LongitudeDegrees>
            </Position>
            <AltitudeMeters>1008.0</AltitudeMeters>
            <DistanceMeters>51779.174273634</DistanceMeters>
          </Trackpoint>
          <Trackpoint>
            <Position>
              <LatitudeDegrees>50.205485</LatitudeDegrees>
              <LongitudeDegrees>16.87195</LongitudeDegrees>
            </Position>
            <AltitudeMeters>1009.0</AltitudeMeters>
            <DistanceMeters>51790.395476151</DistanceMeters>
          </Trackpoint>
          <Trackpoint>
            <Position>
              <LatitudeDegrees>50.205402</LatitudeDegrees>
              <LongitudeDegrees>16.872037</LongitudeDegrees>
            </Position>
            <AltitudeMeters>1009.0</AltitudeMeters>
            <DistanceMeters>51801.520097388</DistanceMeters>
          </Trackpoint>
          <Trackpoint>
            <Position>
              <LatitudeDegrees>50.205315</LatitudeDegrees>
              <LongitudeDegrees>16.872112</LongitudeDegrees>
            </Position>
            <AltitudeMeters>1010.0</AltitudeMeters>
            <DistanceMeters>51812.579998631</DistanceMeters>
          </Trackpoint>
          <Trackpoint>
            <Position>
              <LatitudeDegrees>50.205242</LatitudeDegrees>
              <LongitudeDegrees>16.872197</LongitudeDegrees>
            </Position>
            <AltitudeMeters>1011.0</AltitudeMeters>
            <DistanceMeters>51822.71316197</DistanceMeters>
          </Trackpoint>
          <Trackpoint>
            <Position>
              <LatitudeDegrees>50.205168</LatitudeDegrees>
              <LongitudeDegrees>16.872302</LongitudeDegrees>
            </Position>
            <AltitudeMeters>1011.0</AltitudeMeters>
            <DistanceMeters>51833.83900072</DistanceMeters>
          </Trackpoint>
          <Trackpoint>
            <Position>
              <LatitudeDegrees>50.205088</LatitudeDegrees>
              <LongitudeDegrees>16.8724</LongitudeDegrees>
            </Position>
            <AltitudeMeters>1011.0</AltitudeMeters>
            <DistanceMeters>51845.153566277</DistanceMeters>
          </Trackpoint>
          <Trackpoint>
            <Position>
              <LatitudeDegrees>50.205017</LatitudeDegrees>
              <LongitudeDegrees>16.872497</LongitudeDegrees>
            </Position>
            <AltitudeMeters>1011.0</AltitudeMeters>
            <DistanceMeters>51855.65090036</DistanceMeters>
          </Trackpoint>
          <Trackpoint>
            <Position>
              <LatitudeDegrees>50.204955</LatitudeDegrees>
              <LongitudeDegrees>16.872602</LongitudeDegrees>
            </Position>
            <AltitudeMeters>1013.0</AltitudeMeters>
            <DistanceMeters>51865.827635924</DistanceMeters>
          </Trackpoint>
          <Trackpoint>
            <Position>
              <LatitudeDegrees>50.20488</LatitudeDegrees>
              <LongitudeDegrees>16.872692</LongitudeDegrees>
            </Position>
            <AltitudeMeters>1013.0</AltitudeMeters>
            <DistanceMeters>51876.353319174</DistanceMeters>
          </Trackpoint>
          <Trackpoint>
            <Position>
              <LatitudeDegrees>50.204797</LatitudeDegrees>
              <LongitudeDegrees>16.872772</LongitudeDegrees>
            </Position>
            <AltitudeMeters>1013.0</AltitudeMeters>
            <DistanceMeters>51887.208015736</DistanceMeters>
          </Trackpoint>
          <Trackpoint>
            <Position>
              <LatitudeDegrees>50.204722</LatitudeDegrees>
              <LongitudeDegrees>16.87287</LongitudeDegrees>
            </Position>
            <AltitudeMeters>1013.0</AltitudeMeters>
            <DistanceMeters>51898.090130534</DistanceMeters>
          </Trackpoint>
          <Trackpoint>
            <Position>
              <LatitudeDegrees>50.204648</LatitudeDegrees>
              <LongitudeDegrees>16.872962</LongitudeDegrees>
            </Position>
            <AltitudeMeters>1013.0</AltitudeMeters>
            <DistanceMeters>51908.61624273</DistanceMeters>
          </Trackpoint>
          <Trackpoint>
            <Position>
              <LatitudeDegrees>50.204572</LatitudeDegrees>
              <LongitudeDegrees>16.873055</LongitudeDegrees>
            </Position>
            <AltitudeMeters>1013.0</AltitudeMeters>
            <DistanceMeters>51919.360566686</DistanceMeters>
          </Trackpoint>
          <Trackpoint>
            <Position>
              <LatitudeDegrees>50.204528</LatitudeDegrees>
              <LongitudeDegrees>16.87314</LongitudeDegrees>
            </Position>
            <AltitudeMeters>1013.0</AltitudeMeters>
            <DistanceMeters>51927.148120435</DistanceMeters>
          </Trackpoint>
          <Trackpoint>
            <Position>
              <LatitudeDegrees>50.2045</LatitudeDegrees>
              <LongitudeDegrees>16.873152</LongitudeDegrees>
            </Position>
            <AltitudeMeters>1013.0</AltitudeMeters>
            <DistanceMeters>51930.379028724</DistanceMeters>
          </Trackpoint>
          <Trackpoint>
            <Position>
              <LatitudeDegrees>50.204478</LatitudeDegrees>
              <LongitudeDegrees>16.873155</LongitudeDegrees>
            </Position>
            <AltitudeMeters>1012.0</AltitudeMeters>
            <DistanceMeters>51932.836897951</DistanceMeters>
          </Trackpoint>
          <Trackpoint>
            <Position>
              <LatitudeDegrees>50.204455</LatitudeDegrees>
              <LongitudeDegrees>16.873158</LongitudeDegrees>
            </Position>
            <AltitudeMeters>1012.0</AltitudeMeters>
            <DistanceMeters>51935.407893081</DistanceMeters>
          </Trackpoint>
          <Trackpoint>
            <Position>
              <LatitudeDegrees>50.204353</LatitudeDegrees>
              <LongitudeDegrees>16.873208</LongitudeDegrees>
            </Position>
            <AltitudeMeters>1011.0</AltitudeMeters>
            <DistanceMeters>51947.306360986</DistanceMeters>
          </Trackpoint>
          <Trackpoint>
            <Position>
              <LatitudeDegrees>50.204265</LatitudeDegrees>
              <LongitudeDegrees>16.87325</LongitudeDegrees>
            </Position>
            <AltitudeMeters>1011.0</AltitudeMeters>
            <DistanceMeters>51957.54810732</DistanceMeters>
          </Trackpoint>
          <Trackpoint>
            <Position>
              <LatitudeDegrees>50.204162</LatitudeDegrees>
              <LongitudeDegrees>16.873272</LongitudeDegrees>
            </Position>
            <AltitudeMeters>1011.0</AltitudeMeters>
            <DistanceMeters>51969.118756108</DistanceMeters>
          </Trackpoint>
          <Trackpoint>
            <Position>
              <LatitudeDegrees>50.20406</LatitudeDegrees>
              <LongitudeDegrees>16.873317</LongitudeDegrees>
            </Position>
            <AltitudeMeters>1010.0</AltitudeMeters>
            <DistanceMeters>51980.915854825</DistanceMeters>
          </Trackpoint>
          <Trackpoint>
            <Position>
              <LatitudeDegrees>50.203963</LatitudeDegrees>
              <LongitudeDegrees>16.873348</LongitudeDegrees>
            </Position>
            <AltitudeMeters>1010.0</AltitudeMeters>
            <DistanceMeters>51991.935676422</DistanceMeters>
          </Trackpoint>
          <Trackpoint>
            <Position>
              <LatitudeDegrees>50.203883</LatitudeDegrees>
              <LongitudeDegrees>16.873418</LongitudeDegrees>
            </Position>
            <AltitudeMeters>1009.0</AltitudeMeters>
            <DistanceMeters>52002.141209318</DistanceMeters>
          </Trackpoint>
          <Trackpoint>
            <Position>
              <LatitudeDegrees>50.203802</LatitudeDegrees>
              <LongitudeDegrees>16.873502</LongitudeDegrees>
            </Position>
            <AltitudeMeters>1009.0</AltitudeMeters>
            <DistanceMeters>52012.961744017</DistanceMeters>
          </Trackpoint>
          <Trackpoint>
            <Position>
              <LatitudeDegrees>50.20372</LatitudeDegrees>
              <LongitudeDegrees>16.873582</LongitudeDegrees>
            </Position>
            <AltitudeMeters>1010.0</AltitudeMeters>
            <DistanceMeters>52023.72160508</DistanceMeters>
          </Trackpoint>
          <Trackpoint>
            <Position>
              <LatitudeDegrees>50.203632</LatitudeDegrees>
              <LongitudeDegrees>16.873623</LongitudeDegrees>
            </Position>
            <AltitudeMeters>1009.0</AltitudeMeters>
            <DistanceMeters>52033.942168876</DistanceMeters>
          </Trackpoint>
          <Trackpoint>
            <Position>
              <LatitudeDegrees>50.203542</LatitudeDegrees>
              <LongitudeDegrees>16.873677</LongitudeDegrees>
            </Position>
            <AltitudeMeters>1009.0</AltitudeMeters>
            <DistanceMeters>52044.672195654</DistanceMeters>
          </Trackpoint>
          <Trackpoint>
            <Position>
              <LatitudeDegrees>50.203447</LatitudeDegrees>
              <LongitudeDegrees>16.873673</LongitudeDegrees>
            </Position>
            <AltitudeMeters>1008.0</AltitudeMeters>
            <DistanceMeters>52055.249655044</DistanceMeters>
          </Trackpoint>
          <Trackpoint>
            <Position>
              <LatitudeDegrees>50.203352</LatitudeDegrees>
              <LongitudeDegrees>16.873647</LongitudeDegrees>
            </Position>
            <AltitudeMeters>1007.0</AltitudeMeters>
            <DistanceMeters>52065.984730059</DistanceMeters>
          </Trackpoint>
          <Trackpoint>
            <Position>
              <LatitudeDegrees>50.20325</LatitudeDegrees>
              <LongitudeDegrees>16.873685</LongitudeDegrees>
            </Position>
            <AltitudeMeters>1008.0</AltitudeMeters>
            <DistanceMeters>52077.655620045</DistanceMeters>
          </Trackpoint>
          <Trackpoint>
            <Position>
              <LatitudeDegrees>50.20316</LatitudeDegrees>
              <LongitudeDegrees>16.873712</LongitudeDegrees>
            </Position>
            <AltitudeMeters>1008.0</AltitudeMeters>
            <DistanceMeters>52087.855842631</DistanceMeters>
          </Trackpoint>
          <Trackpoint>
            <Position>
              <LatitudeDegrees>50.20309</LatitudeDegrees>
              <LongitudeDegrees>16.873592</LongitudeDegrees>
            </Position>
            <AltitudeMeters>1008.0</AltitudeMeters>
            <DistanceMeters>52099.422588612</DistanceMeters>
          </Trackpoint>
          <Trackpoint>
            <Position>
              <LatitudeDegrees>50.202998</LatitudeDegrees>
              <LongitudeDegrees>16.873577</LongitudeDegrees>
            </Position>
            <AltitudeMeters>1007.0</AltitudeMeters>
            <DistanceMeters>52109.71797774</DistanceMeters>
          </Trackpoint>
          <Trackpoint>
            <Position>
              <LatitudeDegrees>50.202913</LatitudeDegrees>
              <LongitudeDegrees>16.873647</LongitudeDegrees>
            </Position>
            <AltitudeMeters>1006.0</AltitudeMeters>
            <DistanceMeters>52120.412600138</DistanceMeters>
          </Trackpoint>
          <Trackpoint>
            <Position>
              <LatitudeDegrees>50.20282</LatitudeDegrees>
              <LongitudeDegrees>16.87368</LongitudeDegrees>
            </Position>
            <AltitudeMeters>1005.0</AltitudeMeters>
            <DistanceMeters>52131.027130923</DistanceMeters>
          </Trackpoint>
          <Trackpoint>
            <Position>
              <LatitudeDegrees>50.20274</LatitudeDegrees>
              <LongitudeDegrees>16.873745</LongitudeDegrees>
            </Position>
            <AltitudeMeters>1005.0</AltitudeMeters>
            <DistanceMeters>52141.063589598</DistanceMeters>
          </Trackpoint>
          <Trackpoint>
            <Position>
              <LatitudeDegrees>50.202708</LatitudeDegrees>
              <LongitudeDegrees>16.873895</LongitudeDegrees>
            </Position>
            <AltitudeMeters>1004.0</AltitudeMeters>
            <DistanceMeters>52152.327362236</DistanceMeters>
          </Trackpoint>
          <Trackpoint>
            <Position>
              <LatitudeDegrees>50.20267</LatitudeDegrees>
              <LongitudeDegrees>16.874048</LongitudeDegrees>
            </Position>
            <AltitudeMeters>1004.0</AltitudeMeters>
            <DistanceMeters>52164.019124174</DistanceMeters>
          </Trackpoint>
          <Trackpoint>
            <Position>
              <LatitudeDegrees>50.202623</LatitudeDegrees>
              <LongitudeDegrees>16.874185</LongitudeDegrees>
            </Position>
            <AltitudeMeters>1004.0</AltitudeMeters>
            <DistanceMeters>52175.092488976</DistanceMeters>
          </Trackpoint>
          <Trackpoint>
            <Position>
              <LatitudeDegrees>50.202513</LatitudeDegrees>
              <LongitudeDegrees>16.874267</LongitudeDegrees>
            </Position>
            <AltitudeMeters>1003.0</AltitudeMeters>
            <DistanceMeters>52188.65769807</DistanceMeters>
          </Trackpoint>
          <Trackpoint>
            <Position>
              <LatitudeDegrees>50.20239</LatitudeDegrees>
              <LongitudeDegrees>16.874253</LongitudeDegrees>
            </Position>
            <AltitudeMeters>1003.0</AltitudeMeters>
            <DistanceMeters>52202.384042995</DistanceMeters>
          </Trackpoint>
          <Trackpoint>
            <Position>
              <LatitudeDegrees>50.202298</LatitudeDegrees>
              <LongitudeDegrees>16.874257</LongitudeDegrees>
            </Position>
            <AltitudeMeters>1003.0</AltitudeMeters>
            <DistanceMeters>52212.627552563</DistanceMeters>
          </Trackpoint>
          <Trackpoint>
            <Position>
              <LatitudeDegrees>50.202203</LatitudeDegrees>
              <LongitudeDegrees>16.874263</LongitudeDegrees>
            </Position>
            <AltitudeMeters>1003.0</AltitudeMeters>
            <DistanceMeters>52223.209279639</DistanceMeters>
          </Trackpoint>
          <Trackpoint>
            <Position>
              <LatitudeDegrees>50.20211</LatitudeDegrees>
              <LongitudeDegrees>16.874322</LongitudeDegrees>
            </Position>
            <AltitudeMeters>1003.0</AltitudeMeters>
            <DistanceMeters>52234.380881428</DistanceMeters>
          </Trackpoint>
          <Trackpoint>
            <Position>
              <LatitudeDegrees>50.202012</LatitudeDegrees>
              <LongitudeDegrees>16.874388</LongitudeDegrees>
            </Position>
            <AltitudeMeters>1003.0</AltitudeMeters>
            <DistanceMeters>52246.258840612</DistanceMeters>
          </Trackpoint>
          <Trackpoint>
            <Position>
              <LatitudeDegrees>50.201922</LatitudeDegrees>
              <LongitudeDegrees>16.874422</LongitudeDegrees>
            </Position>
            <AltitudeMeters>1003.0</AltitudeMeters>
            <DistanceMeters>52256.564749554</DistanceMeters>
          </Trackpoint>
          <Trackpoint>
            <Position>
              <LatitudeDegrees>50.201845</LatitudeDegrees>
              <LongitudeDegrees>16.874338</LongitudeDegrees>
            </Position>
            <AltitudeMeters>1001.0</AltitudeMeters>
            <DistanceMeters>52267.017256186</DistanceMeters>
          </Trackpoint>
          <Trackpoint>
            <Position>
              <LatitudeDegrees>50.201753</LatitudeDegrees>
              <LongitudeDegrees>16.874317</LongitudeDegrees>
            </Position>
            <AltitudeMeters>997.0</AltitudeMeters>
            <DistanceMeters>52277.366010055</DistanceMeters>
          </Trackpoint>
          <Trackpoint>
            <Position>
              <LatitudeDegrees>50.201663</LatitudeDegrees>
              <LongitudeDegrees>16.874297</LongitudeDegrees>
            </Position>
            <AltitudeMeters>995.0</AltitudeMeters>
            <DistanceMeters>52287.484012656</DistanceMeters>
          </Trackpoint>
          <Trackpoint>
            <Position>
              <LatitudeDegrees>50.201652</LatitudeDegrees>
              <LongitudeDegrees>16.874152</LongitudeDegrees>
            </Position>
            <AltitudeMeters>993.0</AltitudeMeters>
            <DistanceMeters>52297.886725576</DistanceMeters>
          </Trackpoint>
          <Trackpoint>
            <Position>
              <LatitudeDegrees>50.201657</LatitudeDegrees>
              <LongitudeDegrees>16.874007</LongitudeDegrees>
            </Position>
            <AltitudeMeters>992.0</AltitudeMeters>
            <DistanceMeters>52308.231988551</DistanceMeters>
          </Trackpoint>
          <Trackpoint>
            <Position>
              <LatitudeDegrees>50.201662</LatitudeDegrees>
              <LongitudeDegrees>16.873837</LongitudeDegrees>
            </Position>
            <AltitudeMeters>990.0</AltitudeMeters>
            <DistanceMeters>52320.356369543</DistanceMeters>
          </Trackpoint>
          <Trackpoint>
            <Position>
              <LatitudeDegrees>50.201657</LatitudeDegrees>
              <LongitudeDegrees>16.873697</LongitudeDegrees>
            </Position>
            <AltitudeMeters>989.0</AltitudeMeters>
            <DistanceMeters>52330.346384801</DistanceMeters>
          </Trackpoint>
          <Trackpoint>
            <Position>
              <LatitudeDegrees>50.20166</LatitudeDegrees>
              <LongitudeDegrees>16.873543</LongitudeDegrees>
            </Position>
            <AltitudeMeters>989.0</AltitudeMeters>
            <DistanceMeters>52341.322690186</DistanceMeters>
          </Trackpoint>
          <Trackpoint>
            <Position>
              <LatitudeDegrees>50.20168</LatitudeDegrees>
              <LongitudeDegrees>16.873395</LongitudeDegrees>
            </Position>
            <AltitudeMeters>988.0</AltitudeMeters>
            <DistanceMeters>52352.09890395</DistanceMeters>
          </Trackpoint>
          <Trackpoint>
            <Position>
              <LatitudeDegrees>50.201653</LatitudeDegrees>
              <LongitudeDegrees>16.87325</LongitudeDegrees>
            </Position>
            <AltitudeMeters>987.0</AltitudeMeters>
            <DistanceMeters>52362.856666714</DistanceMeters>
          </Trackpoint>
          <Trackpoint>
            <Position>
              <LatitudeDegrees>50.201585</LatitudeDegrees>
              <LongitudeDegrees>16.873135</LongitudeDegrees>
            </Position>
            <AltitudeMeters>987.0</AltitudeMeters>
            <DistanceMeters>52374.010471589</DistanceMeters>
          </Trackpoint>
          <Trackpoint>
            <Position>
              <LatitudeDegrees>50.201572</LatitudeDegrees>
              <LongitudeDegrees>16.872993</LongitudeDegrees>
            </Position>
            <AltitudeMeters>987.0</AltitudeMeters>
            <DistanceMeters>52384.229710018</DistanceMeters>
          </Trackpoint>
          <Trackpoint>
            <Position>
              <LatitudeDegrees>50.20154</LatitudeDegrees>
              <LongitudeDegrees>16.872858</LongitudeDegrees>
            </Position>
            <AltitudeMeters>987.0</AltitudeMeters>
            <DistanceMeters>52394.485553738</DistanceMeters>
          </Trackpoint>
          <Trackpoint>
            <Position>
              <LatitudeDegrees>50.201473</LatitudeDegrees>
              <LongitudeDegrees>16.872737</LongitudeDegrees>
            </Position>
            <AltitudeMeters>987.0</AltitudeMeters>
            <DistanceMeters>52405.884007137</DistanceMeters>
          </Trackpoint>
          <Trackpoint>
            <Position>
              <LatitudeDegrees>50.201525</LatitudeDegrees>
              <LongitudeDegrees>16.872607</LongitudeDegrees>
            </Position>
            <AltitudeMeters>987.0</AltitudeMeters>
            <DistanceMeters>52416.805053317</DistanceMeters>
          </Trackpoint>
          <Trackpoint>
            <Position>
              <LatitudeDegrees>50.20152</LatitudeDegrees>
              <LongitudeDegrees>16.87245</LongitudeDegrees>
            </Position>
            <AltitudeMeters>988.0</AltitudeMeters>
            <DistanceMeters>52428.003700631</DistanceMeters>
          </Trackpoint>
          <Trackpoint>
            <Position>
              <LatitudeDegrees>50.201458</LatitudeDegrees>
              <LongitudeDegrees>16.872333</LongitudeDegrees>
            </Position>
            <AltitudeMeters>988.0</AltitudeMeters>
            <DistanceMeters>52438.825069829</DistanceMeters>
          </Trackpoint>
          <Trackpoint>
            <Position>
              <LatitudeDegrees>50.201308</LatitudeDegrees>
              <LongitudeDegrees>16.872238</LongitudeDegrees>
            </Position>
            <AltitudeMeters>988.0</AltitudeMeters>
            <DistanceMeters>52456.840089879</DistanceMeters>
          </Trackpoint>
          <Trackpoint>
            <Position>
              <LatitudeDegrees>50.201298</LatitudeDegrees>
              <LongitudeDegrees>16.872097</LongitudeDegrees>
            </Position>
            <AltitudeMeters>989.0</AltitudeMeters>
            <DistanceMeters>52466.946930371</DistanceMeters>
          </Trackpoint>
          <Trackpoint>
            <Position>
              <LatitudeDegrees>50.201208</LatitudeDegrees>
              <LongitudeDegrees>16.872028</LongitudeDegrees>
            </Position>
            <AltitudeMeters>993.0</AltitudeMeters>
            <DistanceMeters>52478.105187135</DistanceMeters>
          </Trackpoint>
          <Trackpoint>
            <Position>
              <LatitudeDegrees>50.2012</LatitudeDegrees>
              <LongitudeDegrees>16.871875</LongitudeDegrees>
            </Position>
            <AltitudeMeters>1001.0</AltitudeMeters>
            <DistanceMeters>52489.041519358</DistanceMeters>
          </Trackpoint>
          <Trackpoint>
            <Position>
              <LatitudeDegrees>50.201212</LatitudeDegrees>
              <LongitudeDegrees>16.871732</LongitudeDegrees>
            </Position>
            <AltitudeMeters>1005.0</AltitudeMeters>
            <DistanceMeters>52499.315836544</DistanceMeters>
          </Trackpoint>
          <Trackpoint>
            <Position>
              <LatitudeDegrees>50.201235</LatitudeDegrees>
              <LongitudeDegrees>16.871597</LongitudeDegrees>
            </Position>
            <AltitudeMeters>1005.0</AltitudeMeters>
            <DistanceMeters>52509.268722486</DistanceMeters>
          </Trackpoint>
          <Trackpoint>
            <Position>
              <LatitudeDegrees>50.20115</LatitudeDegrees>
              <LongitudeDegrees>16.871178</LongitudeDegrees>
            </Position>
            <AltitudeMeters>1008.0</AltitudeMeters>
            <DistanceMeters>52540.583161029</DistanceMeters>
          </Trackpoint>
          <Trackpoint>
            <Position>
              <LatitudeDegrees>50.201268</LatitudeDegrees>
              <LongitudeDegrees>16.871182</LongitudeDegrees>
            </Position>
            <AltitudeMeters>1007.0</AltitudeMeters>
            <DistanceMeters>52553.719895437</DistanceMeters>
          </Trackpoint>
          <Trackpoint>
            <Position>
              <LatitudeDegrees>50.201213</LatitudeDegrees>
              <LongitudeDegrees>16.871053</LongitudeDegrees>
            </Position>
            <AltitudeMeters>1019.0</AltitudeMeters>
            <DistanceMeters>52564.762228625</DistanceMeters>
          </Trackpoint>
          <Trackpoint>
            <Position>
              <LatitudeDegrees>50.201207</LatitudeDegrees>
              <LongitudeDegrees>16.870912</LongitudeDegrees>
            </Position>
            <AltitudeMeters>1018.0</AltitudeMeters>
            <DistanceMeters>52574.82968004</DistanceMeters>
          </Trackpoint>
          <Trackpoint>
            <Position>
              <LatitudeDegrees>50.201163</LatitudeDegrees>
              <LongitudeDegrees>16.870787</LongitudeDegrees>
            </Position>
            <AltitudeMeters>1019.0</AltitudeMeters>
            <DistanceMeters>52584.993097007</DistanceMeters>
          </Trackpoint>
          <Trackpoint>
            <Position>
              <LatitudeDegrees>50.201193</LatitudeDegrees>
              <LongitudeDegrees>16.870922</LongitudeDegrees>
            </Position>
            <AltitudeMeters>1021.0</AltitudeMeters>
            <DistanceMeters>52595.174268231</DistanceMeters>
          </Trackpoint>
          <Trackpoint>
            <Position>
              <LatitudeDegrees>50.20113</LatitudeDegrees>
              <LongitudeDegrees>16.871027</LongitudeDegrees>
            </Position>
            <AltitudeMeters>1021.0</AltitudeMeters>
            <DistanceMeters>52605.427470168</DistanceMeters>
          </Trackpoint>
          <Trackpoint>
            <Position>
              <LatitudeDegrees>50.201047</LatitudeDegrees>
              <LongitudeDegrees>16.8711</LongitudeDegrees>
            </Position>
            <AltitudeMeters>1024.0</AltitudeMeters>
            <DistanceMeters>52616.029232357</DistanceMeters>
          </Trackpoint>
          <Trackpoint>
            <Position>
              <LatitudeDegrees>50.200975</LatitudeDegrees>
              <LongitudeDegrees>16.871217</LongitudeDegrees>
            </Position>
            <AltitudeMeters>1026.0</AltitudeMeters>
            <DistanceMeters>52627.592074215</DistanceMeters>
          </Trackpoint>
          <Trackpoint>
            <Position>
              <LatitudeDegrees>50.2009</LatitudeDegrees>
              <LongitudeDegrees>16.87134</LongitudeDegrees>
            </Position>
            <AltitudeMeters>1027.0</AltitudeMeters>
            <DistanceMeters>52639.694837122</DistanceMeters>
          </Trackpoint>
          <Trackpoint>
            <Position>
              <LatitudeDegrees>50.200827</LatitudeDegrees>
              <LongitudeDegrees>16.871447</LongitudeDegrees>
            </Position>
            <AltitudeMeters>1027.0</AltitudeMeters>
            <DistanceMeters>52650.83608619</DistanceMeters>
          </Trackpoint>
          <Trackpoint>
            <Position>
              <LatitudeDegrees>50.20076</LatitudeDegrees>
              <LongitudeDegrees>16.871592</LongitudeDegrees>
            </Position>
            <AltitudeMeters>1027.0</AltitudeMeters>
            <DistanceMeters>52663.576755488</DistanceMeters>
          </Trackpoint>
          <Trackpoint>
            <Position>
              <LatitudeDegrees>50.200695</LatitudeDegrees>
              <LongitudeDegrees>16.871743</LongitudeDegrees>
            </Position>
            <AltitudeMeters>1027.0</AltitudeMeters>
            <DistanceMeters>52676.540851399</DistanceMeters>
          </Trackpoint>
          <Trackpoint>
            <Position>
              <LatitudeDegrees>50.200543</LatitudeDegrees>
              <LongitudeDegrees>16.87195</LongitudeDegrees>
            </Position>
            <AltitudeMeters>1027.0</AltitudeMeters>
            <DistanceMeters>52698.984262327</DistanceMeters>
          </Trackpoint>
          <Trackpoint>
            <Position>
              <LatitudeDegrees>50.200647</LatitudeDegrees>
              <LongitudeDegrees>16.871902</LongitudeDegrees>
            </Position>
            <AltitudeMeters>1026.0</AltitudeMeters>
            <DistanceMeters>52711.054525512</DistanceMeters>
          </Trackpoint>
          <Trackpoint>
            <Position>
              <LatitudeDegrees>50.200735</LatitudeDegrees>
              <LongitudeDegrees>16.871865</LongitudeDegrees>
            </Position>
            <AltitudeMeters>1027.0</AltitudeMeters>
            <DistanceMeters>52721.197931794</DistanceMeters>
          </Trackpoint>
          <Trackpoint>
            <Position>
              <LatitudeDegrees>50.200652</LatitudeDegrees>
              <LongitudeDegrees>16.872547</LongitudeDegrees>
            </Position>
            <AltitudeMeters>1027.0</AltitudeMeters>
            <DistanceMeters>52770.657122936</DistanceMeters>
          </Trackpoint>
          <Trackpoint>
            <Position>
              <LatitudeDegrees>50.200538</LatitudeDegrees>
              <LongitudeDegrees>16.872602</LongitudeDegrees>
            </Position>
            <AltitudeMeters>1024.0</AltitudeMeters>
            <DistanceMeters>52783.93708502</DistanceMeters>
          </Trackpoint>
          <Trackpoint>
            <Position>
              <LatitudeDegrees>50.20053</LatitudeDegrees>
              <LongitudeDegrees>16.872743</LongitudeDegrees>
            </Position>
            <AltitudeMeters>1023.0</AltitudeMeters>
            <DistanceMeters>52794.02201194</DistanceMeters>
          </Trackpoint>
          <Trackpoint>
            <Position>
              <LatitudeDegrees>50.200495</LatitudeDegrees>
              <LongitudeDegrees>16.872875</LongitudeDegrees>
            </Position>
            <AltitudeMeters>1021.0</AltitudeMeters>
            <DistanceMeters>52804.200965576</DistanceMeters>
          </Trackpoint>
          <Trackpoint>
            <Position>
              <LatitudeDegrees>50.200528</LatitudeDegrees>
              <LongitudeDegrees>16.873028</LongitudeDegrees>
            </Position>
            <AltitudeMeters>1018.0</AltitudeMeters>
            <DistanceMeters>52815.703516599</DistanceMeters>
          </Trackpoint>
          <Trackpoint>
            <Position>
              <LatitudeDegrees>50.200525</LatitudeDegrees>
              <LongitudeDegrees>16.873177</LongitudeDegrees>
            </Position>
            <AltitudeMeters>1016.0</AltitudeMeters>
            <DistanceMeters>52826.32400081</DistanceMeters>
          </Trackpoint>
          <Trackpoint>
            <Position>
              <LatitudeDegrees>50.200462</LatitudeDegrees>
              <LongitudeDegrees>16.873303</LongitudeDegrees>
            </Position>
            <AltitudeMeters>1016.0</AltitudeMeters>
            <DistanceMeters>52837.714925637</DistanceMeters>
          </Trackpoint>
          <Trackpoint>
            <Position>
              <LatitudeDegrees>50.200452</LatitudeDegrees>
              <LongitudeDegrees>16.873455</LongitudeDegrees>
            </Position>
            <AltitudeMeters>1018.0</AltitudeMeters>
            <DistanceMeters>52848.600773935</DistanceMeters>
          </Trackpoint>
          <Trackpoint>
            <Position>
              <LatitudeDegrees>50.200532</LatitudeDegrees>
              <LongitudeDegrees>16.87354</LongitudeDegrees>
            </Position>
            <AltitudeMeters>1016.0</AltitudeMeters>
            <DistanceMeters>52859.369024101</DistanceMeters>
          </Trackpoint>
          <Trackpoint>
            <Position>
              <LatitudeDegrees>50.20051</LatitudeDegrees>
              <LongitudeDegrees>16.874683</LongitudeDegrees>
            </Position>
            <AltitudeMeters>1015.0</AltitudeMeters>
            <DistanceMeters>52940.838569257</DistanceMeters>
          </Trackpoint>
          <Trackpoint>
            <Position>
              <LatitudeDegrees>50.200477</LatitudeDegrees>
              <LongitudeDegrees>16.874815</LongitudeDegrees>
            </Position>
            <AltitudeMeters>1020.0</AltitudeMeters>
            <DistanceMeters>52950.934682514</DistanceMeters>
          </Trackpoint>
          <Trackpoint>
            <Position>
              <LatitudeDegrees>50.200958</LatitudeDegrees>
              <LongitudeDegrees>16.87538</LongitudeDegrees>
            </Position>
            <AltitudeMeters>1021.0</AltitudeMeters>
            <DistanceMeters>53017.915642495</DistanceMeters>
          </Trackpoint>
          <Trackpoint>
            <Position>
              <LatitudeDegrees>50.20076</LatitudeDegrees>
              <LongitudeDegrees>16.875453</LongitudeDegrees>
            </Position>
            <AltitudeMeters>1017.0</AltitudeMeters>
            <DistanceMeters>53040.55873593</DistanceMeters>
          </Trackpoint>
          <Trackpoint>
            <Position>
              <LatitudeDegrees>50.200667</LatitudeDegrees>
              <LongitudeDegrees>16.87547</LongitudeDegrees>
            </Position>
            <AltitudeMeters>1018.0</AltitudeMeters>
            <DistanceMeters>53050.980528457</DistanceMeters>
          </Trackpoint>
          <Trackpoint>
            <Position>
              <LatitudeDegrees>50.200632</LatitudeDegrees>
              <LongitudeDegrees>16.875602</LongitudeDegrees>
            </Position>
            <AltitudeMeters>1023.0</AltitudeMeters>
            <DistanceMeters>53061.159482093</DistanceMeters>
          </Trackpoint>
          <Trackpoint>
            <Position>
              <LatitudeDegrees>50.200615</LatitudeDegrees>
              <LongitudeDegrees>16.87575</LongitudeDegrees>
            </Position>
            <AltitudeMeters>1025.0</AltitudeMeters>
            <DistanceMeters>53071.872242779</DistanceMeters>
          </Trackpoint>
          <Trackpoint>
            <Position>
              <LatitudeDegrees>50.200513</LatitudeDegrees>
              <LongitudeDegrees>16.875792</LongitudeDegrees>
            </Position>
            <AltitudeMeters>1018.0</AltitudeMeters>
            <DistanceMeters>53083.612561635</DistanceMeters>
          </Trackpoint>
          <Trackpoint>
            <Position>
              <LatitudeDegrees>50.200573</LatitudeDegrees>
              <LongitudeDegrees>16.875902</LongitudeDegrees>
            </Position>
            <AltitudeMeters>1021.0</AltitudeMeters>
            <DistanceMeters>53093.909266328</DistanceMeters>
          </Trackpoint>
          <Trackpoint>
            <Position>
              <LatitudeDegrees>50.200512</LatitudeDegrees>
              <LongitudeDegrees>16.876007</LongitudeDegrees>
            </Position>
            <AltitudeMeters>1018.0</AltitudeMeters>
            <DistanceMeters>53104.011638523</DistanceMeters>
          </Trackpoint>
          <Trackpoint>
            <Position>
              <LatitudeDegrees>50.200473</LatitudeDegrees>
              <LongitudeDegrees>16.876147</LongitudeDegrees>
            </Position>
            <AltitudeMeters>1024.0</AltitudeMeters>
            <DistanceMeters>53114.889603485</DistanceMeters>
          </Trackpoint>
          <Trackpoint>
            <Position>
              <LatitudeDegrees>50.20047</LatitudeDegrees>
              <LongitudeDegrees>16.8763</LongitudeDegrees>
            </Position>
            <AltitudeMeters>1025.0</AltitudeMeters>
            <DistanceMeters>53125.794928183</DistanceMeters>
          </Trackpoint>
          <Trackpoint>
            <Position>
              <LatitudeDegrees>50.200448</LatitudeDegrees>
              <LongitudeDegrees>16.876435</LongitudeDegrees>
            </Position>
            <AltitudeMeters>1027.0</AltitudeMeters>
            <DistanceMeters>53135.719648525</DistanceMeters>
          </Trackpoint>
          <Trackpoint>
            <Position>
              <LatitudeDegrees>50.200385</LatitudeDegrees>
              <LongitudeDegrees>16.876538</LongitudeDegrees>
            </Position>
            <AltitudeMeters>1028.0</AltitudeMeters>
            <DistanceMeters>53145.869284581</DistanceMeters>
          </Trackpoint>
          <Trackpoint>
            <Position>
              <LatitudeDegrees>50.200355</LatitudeDegrees>
              <LongitudeDegrees>16.876683</LongitudeDegrees>
            </Position>
            <AltitudeMeters>1028.0</AltitudeMeters>
            <DistanceMeters>53156.725644825</DistanceMeters>
          </Trackpoint>
          <Trackpoint>
            <Position>
              <LatitudeDegrees>50.20034</LatitudeDegrees>
              <LongitudeDegrees>16.876832</LongitudeDegrees>
            </Position>
            <AltitudeMeters>1027.0</AltitudeMeters>
            <DistanceMeters>53167.472069702</DistanceMeters>
          </Trackpoint>
          <Trackpoint>
            <Position>
              <LatitudeDegrees>50.200262</LatitudeDegrees>
              <LongitudeDegrees>16.876907</LongitudeDegrees>
            </Position>
            <AltitudeMeters>1026.0</AltitudeMeters>
            <DistanceMeters>53177.666536328</DistanceMeters>
          </Trackpoint>
          <Trackpoint>
            <Position>
              <LatitudeDegrees>50.200168</LatitudeDegrees>
              <LongitudeDegrees>16.87695</LongitudeDegrees>
            </Position>
            <AltitudeMeters>1029.0</AltitudeMeters>
            <DistanceMeters>53188.568134196</DistanceMeters>
          </Trackpoint>
          <Trackpoint>
            <Position>
              <LatitudeDegrees>50.200145</LatitudeDegrees>
              <LongitudeDegrees>16.876925</LongitudeDegrees>
            </Position>
            <AltitudeMeters>1029.0</AltitudeMeters>
            <DistanceMeters>53191.685242191</DistanceMeters>
          </Trackpoint>
          <Trackpoint>
            <Position>
              <LatitudeDegrees>50.200118</LatitudeDegrees>
              <LongitudeDegrees>16.876917</LongitudeDegrees>
            </Position>
            <AltitudeMeters>1030.0</AltitudeMeters>
            <DistanceMeters>53194.743862664</DistanceMeters>
          </Trackpoint>
          <Trackpoint>
            <Position>
              <LatitudeDegrees>50.2001</LatitudeDegrees>
              <LongitudeDegrees>16.876897</LongitudeDegrees>
            </Position>
            <AltitudeMeters>1030.0</AltitudeMeters>
            <DistanceMeters>53197.203568178</DistanceMeters>
          </Trackpoint>
          <Trackpoint>
            <Position>
              <LatitudeDegrees>50.200083</LatitudeDegrees>
              <LongitudeDegrees>16.876863</LongitudeDegrees>
            </Position>
            <AltitudeMeters>1030.0</AltitudeMeters>
            <DistanceMeters>53200.276914882</DistanceMeters>
          </Trackpoint>
          <Trackpoint>
            <Position>
              <LatitudeDegrees>50.200058</LatitudeDegrees>
              <LongitudeDegrees>16.876853</LongitudeDegrees>
            </Position>
            <AltitudeMeters>1031.0</AltitudeMeters>
            <DistanceMeters>53203.149803649</DistanceMeters>
          </Trackpoint>
          <Trackpoint>
            <Position>
              <LatitudeDegrees>50.20004</LatitudeDegrees>
              <LongitudeDegrees>16.876842</LongitudeDegrees>
            </Position>
            <AltitudeMeters>1031.0</AltitudeMeters>
            <DistanceMeters>53205.302111531</DistanceMeters>
          </Trackpoint>
          <Trackpoint>
            <Position>
              <LatitudeDegrees>50.200063</LatitudeDegrees>
              <LongitudeDegrees>16.876857</LongitudeDegrees>
            </Position>
            <AltitudeMeters>1031.0</AltitudeMeters>
            <DistanceMeters>53208.075850006</DistanceMeters>
          </Trackpoint>
          <Trackpoint>
            <Position>
              <LatitudeDegrees>50.200088</LatitudeDegrees>
              <LongitudeDegrees>16.87686</LongitudeDegrees>
            </Position>
            <AltitudeMeters>1030.0</AltitudeMeters>
            <DistanceMeters>53210.865818804</DistanceMeters>
          </Trackpoint>
          <Trackpoint>
            <Position>
              <LatitudeDegrees>50.200123</LatitudeDegrees>
              <LongitudeDegrees>16.876885</LongitudeDegrees>
            </Position>
            <AltitudeMeters>1029.0</AltitudeMeters>
            <DistanceMeters>53215.14835138</DistanceMeters>
          </Trackpoint>
          <Trackpoint>
            <Position>
              <LatitudeDegrees>50.20019</LatitudeDegrees>
              <LongitudeDegrees>16.876995</LongitudeDegrees>
            </Position>
            <AltitudeMeters>1029.0</AltitudeMeters>
            <DistanceMeters>53225.966382195</DistanceMeters>
          </Trackpoint>
          <Trackpoint>
            <Position>
              <LatitudeDegrees>50.200108</LatitudeDegrees>
              <LongitudeDegrees>16.877087</LongitudeDegrees>
            </Position>
            <AltitudeMeters>1028.0</AltitudeMeters>
            <DistanceMeters>53237.202864244</DistanceMeters>
          </Trackpoint>
          <Trackpoint>
            <Position>
              <LatitudeDegrees>50.200018</LatitudeDegrees>
              <LongitudeDegrees>16.877148</LongitudeDegrees>
            </Position>
            <AltitudeMeters>1028.0</AltitudeMeters>
            <DistanceMeters>53248.122256597</DistanceMeters>
          </Trackpoint>
          <Trackpoint>
            <Position>
              <LatitudeDegrees>50.199903</LatitudeDegrees>
              <LongitudeDegrees>16.877413</LongitudeDegrees>
            </Position>
            <AltitudeMeters>1029.0</AltitudeMeters>
            <DistanceMeters>53270.932231269</DistanceMeters>
          </Trackpoint>
          <Trackpoint>
            <Position>
              <LatitudeDegrees>50.199798</LatitudeDegrees>
              <LongitudeDegrees>16.87742</LongitudeDegrees>
            </Position>
            <AltitudeMeters>1029.0</AltitudeMeters>
            <DistanceMeters>53282.629398374</DistanceMeters>
          </Trackpoint>
          <Trackpoint>
            <Position>
              <LatitudeDegrees>50.1997</LatitudeDegrees>
              <LongitudeDegrees>16.877413</LongitudeDegrees>
            </Position>
            <AltitudeMeters>1029.0</AltitudeMeters>
            <DistanceMeters>53293.548790727</DistanceMeters>
          </Trackpoint>
          <Trackpoint>
            <Position>
              <LatitudeDegrees>50.199613</LatitudeDegrees>
              <LongitudeDegrees>16.877365</LongitudeDegrees>
            </Position>
            <AltitudeMeters>1029.0</AltitudeMeters>
            <DistanceMeters>53303.817833171</DistanceMeters>
          </Trackpoint>
          <Trackpoint>
            <Position>
              <LatitudeDegrees>50.19953</LatitudeDegrees>
              <LongitudeDegrees>16.877453</LongitudeDegrees>
            </Position>
            <AltitudeMeters>1029.0</AltitudeMeters>
            <DistanceMeters>53314.982562242</DistanceMeters>
          </Trackpoint>
          <Trackpoint>
            <Position>
              <LatitudeDegrees>50.199443</LatitudeDegrees>
              <LongitudeDegrees>16.877582</LongitudeDegrees>
            </Position>
            <AltitudeMeters>1029.0</AltitudeMeters>
            <DistanceMeters>53328.332716503</DistanceMeters>
          </Trackpoint>
          <Trackpoint>
            <Position>
              <LatitudeDegrees>50.19941</LatitudeDegrees>
              <LongitudeDegrees>16.87744</LongitudeDegrees>
            </Position>
            <AltitudeMeters>1029.0</AltitudeMeters>
            <DistanceMeters>53339.095514495</DistanceMeters>
          </Trackpoint>
          <Trackpoint>
            <Position>
              <LatitudeDegrees>50.199332</LatitudeDegrees>
              <LongitudeDegrees>16.877363</LongitudeDegrees>
            </Position>
            <AltitudeMeters>1029.0</AltitudeMeters>
            <DistanceMeters>53349.36543625</DistanceMeters>
          </Trackpoint>
          <Trackpoint>
            <Position>
              <LatitudeDegrees>50.199308</LatitudeDegrees>
              <LongitudeDegrees>16.877403</LongitudeDegrees>
            </Position>
            <AltitudeMeters>1028.0</AltitudeMeters>
            <DistanceMeters>53353.271947378</DistanceMeters>
          </Trackpoint>
          <Trackpoint>
            <Position>
              <LatitudeDegrees>50.199285</LatitudeDegrees>
              <LongitudeDegrees>16.87739</LongitudeDegrees>
            </Position>
            <AltitudeMeters>1028.0</AltitudeMeters>
            <DistanceMeters>53355.993098363</DistanceMeters>
          </Trackpoint>
          <Trackpoint>
            <Position>
              <LatitudeDegrees>50.199267</LatitudeDegrees>
              <LongitudeDegrees>16.877385</LongitudeDegrees>
            </Position>
            <AltitudeMeters>1030.0</AltitudeMeters>
            <DistanceMeters>53358.031194329</DistanceMeters>
          </Trackpoint>
          <Trackpoint>
            <Position>
              <LatitudeDegrees>50.19924</LatitudeDegrees>
              <LongitudeDegrees>16.877392</LongitudeDegrees>
            </Position>
            <AltitudeMeters>1030.0</AltitudeMeters>
            <DistanceMeters>53361.07946411</DistanceMeters>
          </Trackpoint>
          <Trackpoint>
            <Position>
              <LatitudeDegrees>50.199218</LatitudeDegrees>
              <LongitudeDegrees>16.877375</LongitudeDegrees>
            </Position>
            <AltitudeMeters>1030.0</AltitudeMeters>
            <DistanceMeters>53363.810552381</DistanceMeters>
          </Trackpoint>
          <Trackpoint>
            <Position>
              <LatitudeDegrees>50.199198</LatitudeDegrees>
              <LongitudeDegrees>16.877358</LongitudeDegrees>
            </Position>
            <AltitudeMeters>1031.0</AltitudeMeters>
            <DistanceMeters>53366.344400117</DistanceMeters>
          </Trackpoint>
          <Trackpoint>
            <Position>
              <LatitudeDegrees>50.1991</LatitudeDegrees>
              <LongitudeDegrees>16.877335</LongitudeDegrees>
            </Position>
            <AltitudeMeters>1032.0</AltitudeMeters>
            <DistanceMeters>53377.374050604</DistanceMeters>
          </Trackpoint>
          <Trackpoint>
            <Position>
              <LatitudeDegrees>50.199027</LatitudeDegrees>
              <LongitudeDegrees>16.87725</LongitudeDegrees>
            </Position>
            <AltitudeMeters>1032.0</AltitudeMeters>
            <DistanceMeters>53387.507659503</DistanceMeters>
          </Trackpoint>
          <Trackpoint>
            <Position>
              <LatitudeDegrees>50.198928</LatitudeDegrees>
              <LongitudeDegrees>16.877225</LongitudeDegrees>
            </Position>
            <AltitudeMeters>1031.0</AltitudeMeters>
            <DistanceMeters>53398.669961899</DistanceMeters>
          </Trackpoint>
          <Trackpoint>
            <Position>
              <LatitudeDegrees>50.198837</LatitudeDegrees>
              <LongitudeDegrees>16.877217</LongitudeDegrees>
            </Position>
            <AltitudeMeters>1032.0</AltitudeMeters>
            <DistanceMeters>53408.814258383</DistanceMeters>
          </Trackpoint>
          <Trackpoint>
            <Position>
              <LatitudeDegrees>50.198747</LatitudeDegrees>
              <LongitudeDegrees>16.877268</LongitudeDegrees>
            </Position>
            <AltitudeMeters>1029.0</AltitudeMeters>
            <DistanceMeters>53419.469969584</DistanceMeters>
          </Trackpoint>
          <Trackpoint>
            <Position>
              <LatitudeDegrees>50.198643</LatitudeDegrees>
              <LongitudeDegrees>16.87722</LongitudeDegrees>
            </Position>
            <AltitudeMeters>1029.0</AltitudeMeters>
            <DistanceMeters>53431.540232769</DistanceMeters>
          </Trackpoint>
          <Trackpoint>
            <Position>
              <LatitudeDegrees>50.198598</LatitudeDegrees>
              <LongitudeDegrees>16.877097</LongitudeDegrees>
            </Position>
            <AltitudeMeters>1030.0</AltitudeMeters>
            <DistanceMeters>53441.634557045</DistanceMeters>
          </Trackpoint>
          <Trackpoint>
            <Position>
              <LatitudeDegrees>50.198542</LatitudeDegrees>
              <LongitudeDegrees>16.876987</LongitudeDegrees>
            </Position>
            <AltitudeMeters>1031.0</AltitudeMeters>
            <DistanceMeters>53451.648046389</DistanceMeters>
          </Trackpoint>
          <Trackpoint>
            <Position>
              <LatitudeDegrees>50.198472</LatitudeDegrees>
              <LongitudeDegrees>16.876895</LongitudeDegrees>
            </Position>
            <AltitudeMeters>1033.0</AltitudeMeters>
            <DistanceMeters>53461.829661073</DistanceMeters>
          </Trackpoint>
          <Trackpoint>
            <Position>
              <LatitudeDegrees>50.198458</LatitudeDegrees>
              <LongitudeDegrees>16.876752</LongitudeDegrees>
            </Position>
            <AltitudeMeters>1035.0</AltitudeMeters>
            <DistanceMeters>53472.136008108</DistanceMeters>
          </Trackpoint>
          <Trackpoint>
            <Position>
              <LatitudeDegrees>50.1984</LatitudeDegrees>
              <LongitudeDegrees>16.876642</LongitudeDegrees>
            </Position>
            <AltitudeMeters>1038.0</AltitudeMeters>
            <DistanceMeters>53482.289202319</DistanceMeters>
          </Trackpoint>
          <Trackpoint>
            <Position>
              <LatitudeDegrees>50.198375</LatitudeDegrees>
              <LongitudeDegrees>16.876492</LongitudeDegrees>
            </Position>
            <AltitudeMeters>1039.0</AltitudeMeters>
            <DistanceMeters>53493.332762091</DistanceMeters>
          </Trackpoint>
          <Trackpoint>
            <Position>
              <LatitudeDegrees>50.198402</LatitudeDegrees>
              <LongitudeDegrees>16.876345</LongitudeDegrees>
            </Position>
            <AltitudeMeters>1040.0</AltitudeMeters>
            <DistanceMeters>53504.228560135</DistanceMeters>
          </Trackpoint>
          <Trackpoint>
            <Position>
              <LatitudeDegrees>50.198303</LatitudeDegrees>
              <LongitudeDegrees>16.876315</LongitudeDegrees>
            </Position>
            <AltitudeMeters>1042.0</AltitudeMeters>
            <DistanceMeters>53515.452981124</DistanceMeters>
          </Trackpoint>
          <Trackpoint>
            <Position>
              <LatitudeDegrees>50.198263</LatitudeDegrees>
              <LongitudeDegrees>16.876058</LongitudeDegrees>
            </Position>
            <AltitudeMeters>1044.0</AltitudeMeters>
            <DistanceMeters>53534.297044542</DistanceMeters>
          </Trackpoint>
          <Trackpoint>
            <Position>
              <LatitudeDegrees>50.19819</LatitudeDegrees>
              <LongitudeDegrees>16.876157</LongitudeDegrees>
            </Position>
            <AltitudeMeters>1043.0</AltitudeMeters>
            <DistanceMeters>53545.056485978</DistanceMeters>
          </Trackpoint>
          <Trackpoint>
            <Position>
              <LatitudeDegrees>50.198113</LatitudeDegrees>
              <LongitudeDegrees>16.87607</LongitudeDegrees>
            </Position>
            <AltitudeMeters>1052.0</AltitudeMeters>
            <DistanceMeters>53555.633518504</DistanceMeters>
          </Trackpoint>
          <Trackpoint>
            <Position>
              <LatitudeDegrees>50.19802</LatitudeDegrees>
              <LongitudeDegrees>16.876108</LongitudeDegrees>
            </Position>
            <AltitudeMeters>1047.0</AltitudeMeters>
            <DistanceMeters>53566.333205843</DistanceMeters>
          </Trackpoint>
          <Trackpoint>
            <Position>
              <LatitudeDegrees>50.197958</LatitudeDegrees>
              <LongitudeDegrees>16.875997</LongitudeDegrees>
            </Position>
            <AltitudeMeters>1056.0</AltitudeMeters>
            <DistanceMeters>53576.829249508</DistanceMeters>
          </Trackpoint>
          <Trackpoint>
            <Position>
              <LatitudeDegrees>50.19787</LatitudeDegrees>
              <LongitudeDegrees>16.875952</LongitudeDegrees>
            </Position>
            <AltitudeMeters>1065.0</AltitudeMeters>
            <DistanceMeters>53587.135158451</DistanceMeters>
          </Trackpoint>
          <Trackpoint>
            <Position>
              <LatitudeDegrees>50.197768</LatitudeDegrees>
              <LongitudeDegrees>16.875938</LongitudeDegrees>
            </Position>
            <AltitudeMeters>1069.0</AltitudeMeters>
            <DistanceMeters>53598.531234943</DistanceMeters>
          </Trackpoint>
          <Trackpoint>
            <Position>
              <LatitudeDegrees>50.197685</LatitudeDegrees>
              <LongitudeDegrees>16.876023</LongitudeDegrees>
            </Position>
            <AltitudeMeters>1069.0</AltitudeMeters>
            <DistanceMeters>53609.577247478</DistanceMeters>
          </Trackpoint>
          <Trackpoint>
            <Position>
              <LatitudeDegrees>50.197668</LatitudeDegrees>
              <LongitudeDegrees>16.875877</LongitudeDegrees>
            </Position>
            <AltitudeMeters>1069.0</AltitudeMeters>
            <DistanceMeters>53620.150437459</DistanceMeters>
          </Trackpoint>
          <Trackpoint>
            <Position>
              <LatitudeDegrees>50.197687</LatitudeDegrees>
              <LongitudeDegrees>16.875717</LongitudeDegrees>
            </Position>
            <AltitudeMeters>1069.0</AltitudeMeters>
            <DistanceMeters>53631.744864914</DistanceMeters>
          </Trackpoint>
          <Trackpoint>
            <Position>
              <LatitudeDegrees>50.19758</LatitudeDegrees>
              <LongitudeDegrees>16.87564</LongitudeDegrees>
            </Position>
            <AltitudeMeters>1067.0</AltitudeMeters>
            <DistanceMeters>53644.857174226</DistanceMeters>
          </Trackpoint>
          <Trackpoint>
            <Position>
              <LatitudeDegrees>50.197517</LatitudeDegrees>
              <LongitudeDegrees>16.875522</LongitudeDegrees>
            </Position>
            <AltitudeMeters>1067.0</AltitudeMeters>
            <DistanceMeters>53655.804647659</DistanceMeters>
          </Trackpoint>
          <Trackpoint>
            <Position>
              <LatitudeDegrees>50.19742</LatitudeDegrees>
              <LongitudeDegrees>16.875458</LongitudeDegrees>
            </Position>
            <AltitudeMeters>1066.0</AltitudeMeters>
            <DistanceMeters>53667.524181042</DistanceMeters>
          </Trackpoint>
          <Trackpoint>
            <Position>
              <LatitudeDegrees>50.197362</LatitudeDegrees>
              <LongitudeDegrees>16.875337</LongitudeDegrees>
            </Position>
            <AltitudeMeters>1069.0</AltitudeMeters>
            <DistanceMeters>53678.294527462</DistanceMeters>
          </Trackpoint>
          <Trackpoint>
            <Position>
              <LatitudeDegrees>50.197333</LatitudeDegrees>
              <LongitudeDegrees>16.875372</LongitudeDegrees>
            </Position>
            <AltitudeMeters>1072.0</AltitudeMeters>
            <DistanceMeters>53682.374041022</DistanceMeters>
          </Trackpoint>
          <Trackpoint>
            <Position>
              <LatitudeDegrees>50.197335</LatitudeDegrees>
              <LongitudeDegrees>16.875402</LongitudeDegrees>
            </Position>
            <AltitudeMeters>1074.0</AltitudeMeters>
            <DistanceMeters>53684.524250114</DistanceMeters>
          </Trackpoint>
          <Trackpoint>
            <Position>
              <LatitudeDegrees>50.197343</LatitudeDegrees>
              <LongitudeDegrees>16.875432</LongitudeDegrees>
            </Position>
            <AltitudeMeters>1078.0</AltitudeMeters>
            <DistanceMeters>53686.840252145</DistanceMeters>
          </Trackpoint>
          <Trackpoint>
            <Position>
              <LatitudeDegrees>50.197325</LatitudeDegrees>
              <LongitudeDegrees>16.875482</LongitudeDegrees>
            </Position>
            <AltitudeMeters>1080.0</AltitudeMeters>
            <DistanceMeters>53690.927505675</DistanceMeters>
          </Trackpoint>
          <Trackpoint>
            <Position>
              <LatitudeDegrees>50.197328</LatitudeDegrees>
              <LongitudeDegrees>16.875453</LongitudeDegrees>
            </Position>
            <AltitudeMeters>1082.0</AltitudeMeters>
            <DistanceMeters>53693.022408334</DistanceMeters>
          </Trackpoint>
          <Trackpoint>
            <Position>
              <LatitudeDegrees>50.197322</LatitudeDegrees>
              <LongitudeDegrees>16.875422</LongitudeDegrees>
            </Position>
            <AltitudeMeters>1086.0</AltitudeMeters>
            <DistanceMeters>53695.328642283</DistanceMeters>
          </Trackpoint>
          <Trackpoint>
            <Position>
              <LatitudeDegrees>50.197268</LatitudeDegrees>
              <LongitudeDegrees>16.875428</LongitudeDegrees>
            </Position>
            <AltitudeMeters>1084.0</AltitudeMeters>
            <DistanceMeters>53701.353665711</DistanceMeters>
          </Trackpoint>
          <Trackpoint>
            <Position>
              <LatitudeDegrees>50.197287</LatitudeDegrees>
              <LongitudeDegrees>16.875422</LongitudeDegrees>
            </Position>
            <AltitudeMeters>1084.0</AltitudeMeters>
            <DistanceMeters>53703.512257716</DistanceMeters>
          </Trackpoint>
          <Trackpoint>
            <Position>
              <LatitudeDegrees>50.197295</LatitudeDegrees>
              <LongitudeDegrees>16.875397</LongitudeDegrees>
            </Position>
            <AltitudeMeters>1085.0</AltitudeMeters>
            <DistanceMeters>53705.505554893</DistanceMeters>
          </Trackpoint>
          <Trackpoint>
            <Position>
              <LatitudeDegrees>50.197317</LatitudeDegrees>
              <LongitudeDegrees>16.875405</LongitudeDegrees>
            </Position>
            <AltitudeMeters>1085.0</AltitudeMeters>
            <DistanceMeters>53708.019725434</DistanceMeters>
          </Trackpoint>
          <Trackpoint>
            <Position>
              <LatitudeDegrees>50.197293</LatitudeDegrees>
              <LongitudeDegrees>16.87542</LongitudeDegrees>
            </Position>
            <AltitudeMeters>1085.0</AltitudeMeters>
            <DistanceMeters>53710.895755688</DistanceMeters>
          </Trackpoint>
          <Trackpoint>
            <Position>
              <LatitudeDegrees>50.197282</LatitudeDegrees>
              <LongitudeDegrees>16.87545</LongitudeDegrees>
            </Position>
            <AltitudeMeters>1085.0</AltitudeMeters>
            <DistanceMeters>53713.357296119</DistanceMeters>
          </Trackpoint>
          <Trackpoint>
            <Position>
              <LatitudeDegrees>50.19727</LatitudeDegrees>
              <LongitudeDegrees>16.875477</LongitudeDegrees>
            </Position>
            <AltitudeMeters>1085.0</AltitudeMeters>
            <DistanceMeters>53715.700432154</DistanceMeters>
          </Trackpoint>
          <Trackpoint>
            <Position>
              <LatitudeDegrees>50.197257</LatitudeDegrees>
              <LongitudeDegrees>16.875513</LongitudeDegrees>
            </Position>
            <AltitudeMeters>1085.0</AltitudeMeters>
            <DistanceMeters>53718.644727212</DistanceMeters>
          </Trackpoint>
          <Trackpoint>
            <Position>
              <LatitudeDegrees>50.197223</LatitudeDegrees>
              <LongitudeDegrees>16.875645</LongitudeDegrees>
            </Position>
            <AltitudeMeters>1085.0</AltitudeMeters>
            <DistanceMeters>53728.78279064</DistanceMeters>
          </Trackpoint>
          <Trackpoint>
            <Position>
              <LatitudeDegrees>50.197145</LatitudeDegrees>
              <LongitudeDegrees>16.875758</LongitudeDegrees>
            </Position>
            <AltitudeMeters>1085.0</AltitudeMeters>
            <DistanceMeters>53740.623058238</DistanceMeters>
          </Trackpoint>
          <Trackpoint>
            <Position>
              <LatitudeDegrees>50.19709</LatitudeDegrees>
              <LongitudeDegrees>16.875907</LongitudeDegrees>
            </Position>
            <AltitudeMeters>1084.0</AltitudeMeters>
            <DistanceMeters>53752.877820633</DistanceMeters>
          </Trackpoint>
          <Trackpoint>
            <Position>
              <LatitudeDegrees>50.197007</LatitudeDegrees>
              <LongitudeDegrees>16.876005</LongitudeDegrees>
            </Position>
            <AltitudeMeters>1083.0</AltitudeMeters>
            <DistanceMeters>53764.457830788</DistanceMeters>
          </Trackpoint>
          <Trackpoint>
            <Position>
              <LatitudeDegrees>50.196908</LatitudeDegrees>
              <LongitudeDegrees>16.876047</LongitudeDegrees>
            </Position>
            <AltitudeMeters>1083.0</AltitudeMeters>
            <DistanceMeters>53775.876072496</DistanceMeters>
          </Trackpoint>
          <Trackpoint>
            <Position>
              <LatitudeDegrees>50.196817</LatitudeDegrees>
              <LongitudeDegrees>16.876085</LongitudeDegrees>
            </Position>
            <AltitudeMeters>1083.0</AltitudeMeters>
            <DistanceMeters>53786.360495253</DistanceMeters>
          </Trackpoint>
          <Trackpoint>
            <Position>
              <LatitudeDegrees>50.19673</LatitudeDegrees>
              <LongitudeDegrees>16.876127</LongitudeDegrees>
            </Position>
            <AltitudeMeters>1083.0</AltitudeMeters>
            <DistanceMeters>53796.494995215</DistanceMeters>
          </Trackpoint>
          <Trackpoint>
            <Position>
              <LatitudeDegrees>50.196642</LatitudeDegrees>
              <LongitudeDegrees>16.876155</LongitudeDegrees>
            </Position>
            <AltitudeMeters>1083.0</AltitudeMeters>
            <DistanceMeters>53806.490432462</DistanceMeters>
          </Trackpoint>
          <Trackpoint>
            <Position>
              <LatitudeDegrees>50.19654</LatitudeDegrees>
              <LongitudeDegrees>16.876192</LongitudeDegrees>
            </Position>
            <AltitudeMeters>1083.0</AltitudeMeters>
            <DistanceMeters>53818.145062867</DistanceMeters>
          </Trackpoint>
          <Trackpoint>
            <Position>
              <LatitudeDegrees>50.196437</LatitudeDegrees>
              <LongitudeDegrees>16.876213</LongitudeDegrees>
            </Position>
            <AltitudeMeters>1083.0</AltitudeMeters>
            <DistanceMeters>53829.706342706</DistanceMeters>
          </Trackpoint>
          <Trackpoint>
            <Position>
              <LatitudeDegrees>50.196333</LatitudeDegrees>
              <LongitudeDegrees>16.876212</LongitudeDegrees>
            </Position>
            <AltitudeMeters>1083.0</AltitudeMeters>
            <DistanceMeters>53841.281673124</DistanceMeters>
          </Trackpoint>
          <Trackpoint>
            <Position>
              <LatitudeDegrees>50.196233</LatitudeDegrees>
              <LongitudeDegrees>16.87624</LongitudeDegrees>
            </Position>
            <AltitudeMeters>1083.0</AltitudeMeters>
            <DistanceMeters>53852.589452855</DistanceMeters>
          </Trackpoint>
          <Trackpoint>
            <Position>
              <LatitudeDegrees>50.196122</LatitudeDegrees>
              <LongitudeDegrees>16.87628</LongitudeDegrees>
            </Position>
            <AltitudeMeters>1082.0</AltitudeMeters>
            <DistanceMeters>53865.268310093</DistanceMeters>
          </Trackpoint>
          <Trackpoint>
            <Position>
              <LatitudeDegrees>50.19604</LatitudeDegrees>
              <LongitudeDegrees>16.876337</LongitudeDegrees>
            </Position>
            <AltitudeMeters>1082.0</AltitudeMeters>
            <DistanceMeters>53875.2574214</DistanceMeters>
          </Trackpoint>
          <Trackpoint>
            <Position>
              <LatitudeDegrees>50.195958</LatitudeDegrees>
              <LongitudeDegrees>16.876407</LongitudeDegrees>
            </Position>
            <AltitudeMeters>1081.0</AltitudeMeters>
            <DistanceMeters>53885.657963969</DistanceMeters>
          </Trackpoint>
          <Trackpoint>
            <Position>
              <LatitudeDegrees>50.195865</LatitudeDegrees>
              <LongitudeDegrees>16.876435</LongitudeDegrees>
            </Position>
            <AltitudeMeters>1081.0</AltitudeMeters>
            <DistanceMeters>53896.199506584</DistanceMeters>
          </Trackpoint>
          <Trackpoint>
            <Position>
              <LatitudeDegrees>50.195762</LatitudeDegrees>
              <LongitudeDegrees>16.876458</LongitudeDegrees>
            </Position>
            <AltitudeMeters>1081.0</AltitudeMeters>
            <DistanceMeters>53907.780296512</DistanceMeters>
          </Trackpoint>
          <Trackpoint>
            <Position>
              <LatitudeDegrees>50.195662</LatitudeDegrees>
              <LongitudeDegrees>16.876497</LongitudeDegrees>
            </Position>
            <AltitudeMeters>1080.0</AltitudeMeters>
            <DistanceMeters>53919.252189734</DistanceMeters>
          </Trackpoint>
          <Trackpoint>
            <Position>
              <LatitudeDegrees>50.195568</LatitudeDegrees>
              <LongitudeDegrees>16.876547</LongitudeDegrees>
            </Position>
            <AltitudeMeters>1080.0</AltitudeMeters>
            <DistanceMeters>53930.304740305</DistanceMeters>
          </Trackpoint>
          <Trackpoint>
            <Position>
              <LatitudeDegrees>50.195462</LatitudeDegrees>
              <LongitudeDegrees>16.87658</LongitudeDegrees>
            </Position>
            <AltitudeMeters>1079.0</AltitudeMeters>
            <DistanceMeters>53942.334536857</DistanceMeters>
          </Trackpoint>
          <Trackpoint>
            <Position>
              <LatitudeDegrees>50.195363</LatitudeDegrees>
              <LongitudeDegrees>16.876652</LongitudeDegrees>
            </Position>
            <AltitudeMeters>1079.0</AltitudeMeters>
            <DistanceMeters>53954.489044277</DistanceMeters>
          </Trackpoint>
          <Trackpoint>
            <Position>
              <LatitudeDegrees>50.195262</LatitudeDegrees>
              <LongitudeDegrees>16.87671</LongitudeDegrees>
            </Position>
            <AltitudeMeters>1078.0</AltitudeMeters>
            <DistanceMeters>53966.466180596</DistanceMeters>
          </Trackpoint>
          <Trackpoint>
            <Position>
              <LatitudeDegrees>50.195175</LatitudeDegrees>
              <LongitudeDegrees>16.876742</LongitudeDegrees>
            </Position>
            <AltitudeMeters>1077.0</AltitudeMeters>
            <DistanceMeters>53976.414529093</DistanceMeters>
          </Trackpoint>
          <Trackpoint>
            <Position>
              <LatitudeDegrees>50.19507</LatitudeDegrees>
              <LongitudeDegrees>16.876783</LongitudeDegrees>
            </Position>
            <AltitudeMeters>1077.0</AltitudeMeters>
            <DistanceMeters>53988.460828461</DistanceMeters>
          </Trackpoint>
          <Trackpoint>
            <Position>
              <LatitudeDegrees>50.194985</LatitudeDegrees>
              <LongitudeDegrees>16.876862</LongitudeDegrees>
            </Position>
            <AltitudeMeters>1075.0</AltitudeMeters>
            <DistanceMeters>53999.469582067</DistanceMeters>
          </Trackpoint>
          <Trackpoint>
            <Position>
              <LatitudeDegrees>50.194888</LatitudeDegrees>
              <LongitudeDegrees>16.876933</LongitudeDegrees>
            </Position>
            <AltitudeMeters>1074.0</AltitudeMeters>
            <DistanceMeters>54011.392310923</DistanceMeters>
          </Trackpoint>
          <Trackpoint>
            <Position>
              <LatitudeDegrees>50.194797</LatitudeDegrees>
              <LongitudeDegrees>16.876923</LongitudeDegrees>
            </Position>
            <AltitudeMeters>1072.0</AltitudeMeters>
            <DistanceMeters>54021.545949816</DistanceMeters>
          </Trackpoint>
          <Trackpoint>
            <Position>
              <LatitudeDegrees>50.194697</LatitudeDegrees>
              <LongitudeDegrees>16.876877</LongitudeDegrees>
            </Position>
            <AltitudeMeters>1071.0</AltitudeMeters>
            <DistanceMeters>54033.148552094</DistanceMeters>
          </Trackpoint>
          <Trackpoint>
            <Position>
              <LatitudeDegrees>50.194588</LatitudeDegrees>
              <LongitudeDegrees>16.876793</LongitudeDegrees>
            </Position>
            <AltitudeMeters>1069.0</AltitudeMeters>
            <DistanceMeters>54046.676431795</DistanceMeters>
          </Trackpoint>
          <Trackpoint>
            <Position>
              <LatitudeDegrees>50.194507</LatitudeDegrees>
              <LongitudeDegrees>16.876712</LongitudeDegrees>
            </Position>
            <AltitudeMeters>1067.0</AltitudeMeters>
            <DistanceMeters>54057.381181679</DistanceMeters>
          </Trackpoint>
          <Trackpoint>
            <Position>
              <LatitudeDegrees>50.194472</LatitudeDegrees>
              <LongitudeDegrees>16.876602</LongitudeDegrees>
            </Position>
            <AltitudeMeters>1065.0</AltitudeMeters>
            <DistanceMeters>54066.133962297</DistanceMeters>
          </Trackpoint>
          <Trackpoint>
            <Position>
              <LatitudeDegrees>50.19446</LatitudeDegrees>
              <LongitudeDegrees>16.876568</LongitudeDegrees>
            </Position>
            <AltitudeMeters>1064.0</AltitudeMeters>
            <DistanceMeters>54068.897916832</DistanceMeters>
          </Trackpoint>
          <Trackpoint>
            <Position>
              <LatitudeDegrees>50.194443</LatitudeDegrees>
              <LongitudeDegrees>16.876543</LongitudeDegrees>
            </Position>
            <AltitudeMeters>1064.0</AltitudeMeters>
            <DistanceMeters>54071.495120541</DistanceMeters>
          </Trackpoint>
          <Trackpoint>
            <Position>
              <LatitudeDegrees>50.194425</LatitudeDegrees>
              <LongitudeDegrees>16.876528</LongitudeDegrees>
            </Position>
            <AltitudeMeters>1063.0</AltitudeMeters>
            <DistanceMeters>54073.767828997</DistanceMeters>
          </Trackpoint>
          <Trackpoint>
            <Position>
              <LatitudeDegrees>50.194408</LatitudeDegrees>
              <LongitudeDegrees>16.876512</LongitudeDegrees>
            </Position>
            <AltitudeMeters>1063.0</AltitudeMeters>
            <DistanceMeters>54075.978093993</DistanceMeters>
          </Trackpoint>
          <Trackpoint>
            <Position>
              <LatitudeDegrees>50.194397</LatitudeDegrees>
              <LongitudeDegrees>16.876487</LongitudeDegrees>
            </Position>
            <AltitudeMeters>1063.0</AltitudeMeters>
            <DistanceMeters>54078.136685999</DistanceMeters>
          </Trackpoint>
          <Trackpoint>
            <Position>
              <LatitudeDegrees>50.194387</LatitudeDegrees>
              <LongitudeDegrees>16.87646</LongitudeDegrees>
            </Position>
            <AltitudeMeters>1062.0</AltitudeMeters>
            <DistanceMeters>54080.361204349</DistanceMeters>
          </Trackpoint>
          <Trackpoint>
            <Position>
              <LatitudeDegrees>50.194375</LatitudeDegrees>
              <LongitudeDegrees>16.876427</LongitudeDegrees>
            </Position>
            <AltitudeMeters>1062.0</AltitudeMeters>
            <DistanceMeters>54083.065712053</DistanceMeters>
          </Trackpoint>
          <Trackpoint>
            <Position>
              <LatitudeDegrees>50.194362</LatitudeDegrees>
              <LongitudeDegrees>16.8764</LongitudeDegrees>
            </Position>
            <AltitudeMeters>1062.0</AltitudeMeters>
            <DistanceMeters>54085.473472231</DistanceMeters>
          </Trackpoint>
          <Trackpoint>
            <Position>
              <LatitudeDegrees>50.194352</LatitudeDegrees>
              <LongitudeDegrees>16.876377</LongitudeDegrees>
            </Position>
            <AltitudeMeters>1061.0</AltitudeMeters>
            <DistanceMeters>54087.453132095</DistanceMeters>
          </Trackpoint>
          <Trackpoint>
            <Position>
              <LatitudeDegrees>50.19434</LatitudeDegrees>
              <LongitudeDegrees>16.876347</LongitudeDegrees>
            </Position>
            <AltitudeMeters>1061.0</AltitudeMeters>
            <DistanceMeters>54089.972684385</DistanceMeters>
          </Trackpoint>
          <Trackpoint>
            <Position>
              <LatitudeDegrees>50.194328</LatitudeDegrees>
              <LongitudeDegrees>16.876322</LongitudeDegrees>
            </Position>
            <AltitudeMeters>1060.0</AltitudeMeters>
            <DistanceMeters>54092.197202735</DistanceMeters>
          </Trackpoint>
          <Trackpoint>
            <Position>
              <LatitudeDegrees>50.194317</LatitudeDegrees>
              <LongitudeDegrees>16.876293</LongitudeDegrees>
            </Position>
            <AltitudeMeters>1060.0</AltitudeMeters>
            <DistanceMeters>54094.601209583</DistanceMeters>
          </Trackpoint>
          <Trackpoint>
            <Position>
              <LatitudeDegrees>50.194308</LatitudeDegrees>
              <LongitudeDegrees>16.876263</LongitudeDegrees>
            </Position>
            <AltitudeMeters>1060.0</AltitudeMeters>
            <DistanceMeters>54096.9616242</DistanceMeters>
          </Trackpoint>
          <Trackpoint>
            <Position>
              <LatitudeDegrees>50.1943</LatitudeDegrees>
              <LongitudeDegrees>16.876232</LongitudeDegrees>
            </Position>
            <AltitudeMeters>1060.0</AltitudeMeters>
            <DistanceMeters>54099.342986837</DistanceMeters>
          </Trackpoint>
          <Trackpoint>
            <Position>
              <LatitudeDegrees>50.19429</LatitudeDegrees>
              <LongitudeDegrees>16.876203</LongitudeDegrees>
            </Position>
            <AltitudeMeters>1060.0</AltitudeMeters>
            <DistanceMeters>54101.68997355</DistanceMeters>
          </Trackpoint>
          <Trackpoint>
            <Position>
              <LatitudeDegrees>50.194277</LatitudeDegrees>
              <LongitudeDegrees>16.876178</LongitudeDegrees>
            </Position>
            <AltitudeMeters>1059.0</AltitudeMeters>
            <DistanceMeters>54103.984430908</DistanceMeters>
          </Trackpoint>
          <Trackpoint>
            <Position>
              <LatitudeDegrees>50.194263</LatitudeDegrees>
              <LongitudeDegrees>16.876152</LongitudeDegrees>
            </Position>
            <AltitudeMeters>1059.0</AltitudeMeters>
            <DistanceMeters>54106.407146262</DistanceMeters>
          </Trackpoint>
          <Trackpoint>
            <Position>
              <LatitudeDegrees>50.194252</LatitudeDegrees>
              <LongitudeDegrees>16.87612</LongitudeDegrees>
            </Position>
            <AltitudeMeters>1059.0</AltitudeMeters>
            <DistanceMeters>54108.995643263</DistanceMeters>
          </Trackpoint>
          <Trackpoint>
            <Position>
              <LatitudeDegrees>50.19424</LatitudeDegrees>
              <LongitudeDegrees>16.87609</LongitudeDegrees>
            </Position>
            <AltitudeMeters>1059.0</AltitudeMeters>
            <DistanceMeters>54111.516986916</DistanceMeters>
          </Trackpoint>
          <Trackpoint>
            <Position>
              <LatitudeDegrees>50.194223</LatitudeDegrees>
              <LongitudeDegrees>16.876053</LongitudeDegrees>
            </Position>
            <AltitudeMeters>1058.0</AltitudeMeters>
            <DistanceMeters>54114.763230777</DistanceMeters>
          </Trackpoint>
          <Trackpoint>
            <Position>
              <LatitudeDegrees>50.194185</LatitudeDegrees>
              <LongitudeDegrees>16.875917</LongitudeDegrees>
            </Position>
            <AltitudeMeters>1058.0</AltitudeMeters>
            <DistanceMeters>54125.337274778</DistanceMeters>
          </Trackpoint>
          <Trackpoint>
            <Position>
              <LatitudeDegrees>50.19414</LatitudeDegrees>
              <LongitudeDegrees>16.875757</LongitudeDegrees>
            </Position>
            <AltitudeMeters>1057.0</AltitudeMeters>
            <DistanceMeters>54137.789763393</DistanceMeters>
          </Trackpoint>
          <Trackpoint>
            <Position>
              <LatitudeDegrees>50.19412</LatitudeDegrees>
              <LongitudeDegrees>16.875683</LongitudeDegrees>
            </Position>
            <AltitudeMeters>1056.0</AltitudeMeters>
            <DistanceMeters>54143.512707326</DistanceMeters>
          </Trackpoint>
          <Trackpoint>
            <Position>
              <LatitudeDegrees>50.194108</LatitudeDegrees>
              <LongitudeDegrees>16.875652</LongitudeDegrees>
            </Position>
            <AltitudeMeters>1056.0</AltitudeMeters>
            <DistanceMeters>54146.094217817</DistanceMeters>
          </Trackpoint>
          <Trackpoint>
            <Position>
              <LatitudeDegrees>50.194095</LatitudeDegrees>
              <LongitudeDegrees>16.875618</LongitudeDegrees>
            </Position>
            <AltitudeMeters>1056.0</AltitudeMeters>
            <DistanceMeters>54148.91636725</DistanceMeters>
          </Trackpoint>
          <Trackpoint>
            <Position>
              <LatitudeDegrees>50.194082</LatitudeDegrees>
              <LongitudeDegrees>16.87559</LongitudeDegrees>
            </Position>
            <AltitudeMeters>1055.0</AltitudeMeters>
            <DistanceMeters>54151.379741231</DistanceMeters>
          </Trackpoint>
          <Trackpoint>
            <Position>
              <LatitudeDegrees>50.194073</LatitudeDegrees>
              <LongitudeDegrees>16.875553</LongitudeDegrees>
            </Position>
            <AltitudeMeters>1055.0</AltitudeMeters>
            <DistanceMeters>54154.198689132</DistanceMeters>
          </Trackpoint>
          <Trackpoint>
            <Position>
              <LatitudeDegrees>50.194063</LatitudeDegrees>
              <LongitudeDegrees>16.875522</LongitudeDegrees>
            </Position>
            <AltitudeMeters>1055.0</AltitudeMeters>
            <DistanceMeters>54156.669383706</DistanceMeters>
          </Trackpoint>
          <Trackpoint>
            <Position>
              <LatitudeDegrees>50.194053</LatitudeDegrees>
              <LongitudeDegrees>16.875492</LongitudeDegrees>
            </Position>
            <AltitudeMeters>1054.0</AltitudeMeters>
            <DistanceMeters>54159.079018358</DistanceMeters>
          </Trackpoint>
          <Trackpoint>
            <Position>
              <LatitudeDegrees>50.19404</LatitudeDegrees>
              <LongitudeDegrees>16.875463</LongitudeDegrees>
            </Position>
            <AltitudeMeters>1054.0</AltitudeMeters>
            <DistanceMeters>54161.602152102</DistanceMeters>
          </Trackpoint>
          <Trackpoint>
            <Position>
              <LatitudeDegrees>50.194027</LatitudeDegrees>
              <LongitudeDegrees>16.875437</LongitudeDegrees>
            </Position>
            <AltitudeMeters>1053.0</AltitudeMeters>
            <DistanceMeters>54163.951061787</DistanceMeters>
          </Trackpoint>
          <Trackpoint>
            <Position>
              <LatitudeDegrees>50.194015</LatitudeDegrees>
              <LongitudeDegrees>16.87541</LongitudeDegrees>
            </Position>
            <AltitudeMeters>1053.0</AltitudeMeters>
            <DistanceMeters>54166.294197822</DistanceMeters>
          </Trackpoint>
          <Trackpoint>
            <Position>
              <LatitudeDegrees>50.194</LatitudeDegrees>
              <LongitudeDegrees>16.875367</LongitudeDegrees>
            </Position>
            <AltitudeMeters>1052.0</AltitudeMeters>
            <DistanceMeters>54169.783114996</DistanceMeters>
          </Trackpoint>
          <Trackpoint>
            <Position>
              <LatitudeDegrees>50.193988</LatitudeDegrees>
              <LongitudeDegrees>16.875337</LongitudeDegrees>
            </Position>
            <AltitudeMeters>1052.0</AltitudeMeters>
            <DistanceMeters>54172.304458649</DistanceMeters>
          </Trackpoint>
          <Trackpoint>
            <Position>
              <LatitudeDegrees>50.19398</LatitudeDegrees>
              <LongitudeDegrees>16.875312</LongitudeDegrees>
            </Position>
            <AltitudeMeters>1051.0</AltitudeMeters>
            <DistanceMeters>54174.293220445</DistanceMeters>
          </Trackpoint>
          <Trackpoint>
            <Position>
              <LatitudeDegrees>50.193965</LatitudeDegrees>
              <LongitudeDegrees>16.875285</LongitudeDegrees>
            </Position>
            <AltitudeMeters>1050.0</AltitudeMeters>
            <DistanceMeters>54176.839510862</DistanceMeters>
          </Trackpoint>
          <Trackpoint>
            <Position>
              <LatitudeDegrees>50.193943</LatitudeDegrees>
              <LongitudeDegrees>16.87525</LongitudeDegrees>
            </Position>
            <AltitudeMeters>1050.0</AltitudeMeters>
            <DistanceMeters>54180.336184067</DistanceMeters>
          </Trackpoint>
          <Trackpoint>
            <Position>
              <LatitudeDegrees>50.193928</LatitudeDegrees>
              <LongitudeDegrees>16.875213</LongitudeDegrees>
            </Position>
            <AltitudeMeters>1050.0</AltitudeMeters>
            <DistanceMeters>54183.457634448</DistanceMeters>
          </Trackpoint>
          <Trackpoint>
            <Position>
              <LatitudeDegrees>50.193912</LatitudeDegrees>
              <LongitudeDegrees>16.875182</LongitudeDegrees>
            </Position>
            <AltitudeMeters>1049.0</AltitudeMeters>
            <DistanceMeters>54186.292553854</DistanceMeters>
          </Trackpoint>
          <Trackpoint>
            <Position>
              <LatitudeDegrees>50.1939</LatitudeDegrees>
              <LongitudeDegrees>16.87515</LongitudeDegrees>
            </Position>
            <AltitudeMeters>1049.0</AltitudeMeters>
            <DistanceMeters>54188.936278342</DistanceMeters>
          </Trackpoint>
          <Trackpoint>
            <Position>
              <LatitudeDegrees>50.193887</LatitudeDegrees>
              <LongitudeDegrees>16.875117</LongitudeDegrees>
            </Position>
            <AltitudeMeters>1049.0</AltitudeMeters>
            <DistanceMeters>54191.696963858</DistanceMeters>
          </Trackpoint>
          <Trackpoint>
            <Position>
              <LatitudeDegrees>50.193877</LatitudeDegrees>
              <LongitudeDegrees>16.875078</LongitudeDegrees>
            </Position>
            <AltitudeMeters>1049.0</AltitudeMeters>
            <DistanceMeters>54194.689928247</DistanceMeters>
          </Trackpoint>
          <Trackpoint>
            <Position>
              <LatitudeDegrees>50.193868</LatitudeDegrees>
              <LongitudeDegrees>16.875042</LongitudeDegrees>
            </Position>
            <AltitudeMeters>1049.0</AltitudeMeters>
            <DistanceMeters>54197.444064084</DistanceMeters>
          </Trackpoint>
          <Trackpoint>
            <Position>
              <LatitudeDegrees>50.193858</LatitudeDegrees>
              <LongitudeDegrees>16.875003</LongitudeDegrees>
            </Position>
            <AltitudeMeters>1049.0</AltitudeMeters>
            <DistanceMeters>54200.440044055</DistanceMeters>
          </Trackpoint>
          <Trackpoint>
            <Position>
              <LatitudeDegrees>50.193847</LatitudeDegrees>
              <LongitudeDegrees>16.874967</LongitudeDegrees>
            </Position>
            <AltitudeMeters>1049.0</AltitudeMeters>
            <DistanceMeters>54203.281326924</DistanceMeters>
          </Trackpoint>
          <Trackpoint>
            <Position>
              <LatitudeDegrees>50.193832</LatitudeDegrees>
              <LongitudeDegrees>16.874928</LongitudeDegrees>
            </Position>
            <AltitudeMeters>1049.0</AltitudeMeters>
            <DistanceMeters>54206.523395551</DistanceMeters>
          </Trackpoint>
          <Trackpoint>
            <Position>
              <LatitudeDegrees>50.193818</LatitudeDegrees>
              <LongitudeDegrees>16.874897</LongitudeDegrees>
            </Position>
            <AltitudeMeters>1048.0</AltitudeMeters>
            <DistanceMeters>54209.22623329</DistanceMeters>
          </Trackpoint>
          <Trackpoint>
            <Position>
              <LatitudeDegrees>50.193808</LatitudeDegrees>
              <LongitudeDegrees>16.874862</LongitudeDegrees>
            </Position>
            <AltitudeMeters>1048.0</AltitudeMeters>
            <DistanceMeters>54211.95732156</DistanceMeters>
          </Trackpoint>
          <Trackpoint>
            <Position>
              <LatitudeDegrees>50.193798</LatitudeDegrees>
              <LongitudeDegrees>16.87483</LongitudeDegrees>
            </Position>
            <AltitudeMeters>1048.0</AltitudeMeters>
            <DistanceMeters>54214.492950561</DistanceMeters>
          </Trackpoint>
          <Trackpoint>
            <Position>
              <LatitudeDegrees>50.193788</LatitudeDegrees>
              <LongitudeDegrees>16.874793</LongitudeDegrees>
            </Position>
            <AltitudeMeters>1048.0</AltitudeMeters>
            <DistanceMeters>54217.353238878</DistanceMeters>
          </Trackpoint>
          <Trackpoint>
            <Position>
              <LatitudeDegrees>50.193778</LatitudeDegrees>
              <LongitudeDegrees>16.87476</LongitudeDegrees>
            </Position>
            <AltitudeMeters>1048.0</AltitudeMeters>
            <DistanceMeters>54219.95565263</DistanceMeters>
          </Trackpoint>
          <Trackpoint>
            <Position>
              <LatitudeDegrees>50.193767</LatitudeDegrees>
              <LongitudeDegrees>16.874725</LongitudeDegrees>
            </Position>
            <AltitudeMeters>1048.0</AltitudeMeters>
            <DistanceMeters>54222.735894604</DistanceMeters>
          </Trackpoint>
          <Trackpoint>
            <Position>
              <LatitudeDegrees>50.193755</LatitudeDegrees>
              <LongitudeDegrees>16.874687</LongitudeDegrees>
            </Position>
            <AltitudeMeters>1048.0</AltitudeMeters>
            <DistanceMeters>54225.755890831</DistanceMeters>
          </Trackpoint>
          <Trackpoint>
            <Position>
              <LatitudeDegrees>50.193748</LatitudeDegrees>
              <LongitudeDegrees>16.874647</LongitudeDegrees>
            </Position>
            <AltitudeMeters>1047.0</AltitudeMeters>
            <DistanceMeters>54228.7109008</DistanceMeters>
          </Trackpoint>
          <Trackpoint>
            <Position>
              <LatitudeDegrees>50.193738</LatitudeDegrees>
              <LongitudeDegrees>16.874603</LongitudeDegrees>
            </Position>
            <AltitudeMeters>1047.0</AltitudeMeters>
            <DistanceMeters>54232.035478002</DistanceMeters>
          </Trackpoint>
          <Trackpoint>
            <Position>
              <LatitudeDegrees>50.19373</LatitudeDegrees>
              <LongitudeDegrees>16.874562</LongitudeDegrees>
            </Position>
            <AltitudeMeters>1046.0</AltitudeMeters>
            <DistanceMeters>54235.088188091</DistanceMeters>
          </Trackpoint>
          <Trackpoint>
            <Position>
              <LatitudeDegrees>50.193722</LatitudeDegrees>
              <LongitudeDegrees>16.874523</LongitudeDegrees>
            </Position>
            <AltitudeMeters>1046.0</AltitudeMeters>
            <DistanceMeters>54238.007844263</DistanceMeters>
          </Trackpoint>
          <Trackpoint>
            <Position>
              <LatitudeDegrees>50.193713</LatitudeDegrees>
              <LongitudeDegrees>16.874485</LongitudeDegrees>
            </Position>
            <AltitudeMeters>1046.0</AltitudeMeters>
            <DistanceMeters>54240.894842801</DistanceMeters>
          </Trackpoint>
          <Trackpoint>
            <Position>
              <LatitudeDegrees>50.193708</LatitudeDegrees>
              <LongitudeDegrees>16.874445</LongitudeDegrees>
            </Position>
            <AltitudeMeters>1046.0</AltitudeMeters>
            <DistanceMeters>54243.79899352</DistanceMeters>
          </Trackpoint>
          <Trackpoint>
            <Position>
              <LatitudeDegrees>50.193698</LatitudeDegrees>
              <LongitudeDegrees>16.874408</LongitudeDegrees>
            </Position>
            <AltitudeMeters>1045.0</AltitudeMeters>
            <DistanceMeters>54246.659281837</DistanceMeters>
          </Trackpoint>
          <Trackpoint>
            <Position>
              <LatitudeDegrees>50.193685</LatitudeDegrees>
              <LongitudeDegrees>16.87438</LongitudeDegrees>
            </Position>
            <AltitudeMeters>1045.0</AltitudeMeters>
            <DistanceMeters>54249.122655818</DistanceMeters>
          </Trackpoint>
          <Trackpoint>
            <Position>
              <LatitudeDegrees>50.193672</LatitudeDegrees>
              <LongitudeDegrees>16.87435</LongitudeDegrees>
            </Position>
            <AltitudeMeters>1045.0</AltitudeMeters>
            <DistanceMeters>54251.704166309</DistanceMeters>
          </Trackpoint>
          <Trackpoint>
            <Position>
              <LatitudeDegrees>50.193658</LatitudeDegrees>
              <LongitudeDegrees>16.874323</LongitudeDegrees>
            </Position>
            <AltitudeMeters>1044.0</AltitudeMeters>
            <DistanceMeters>54254.178513057</DistanceMeters>
          </Trackpoint>
          <Trackpoint>
            <Position>
              <LatitudeDegrees>50.193647</LatitudeDegrees>
              <LongitudeDegrees>16.8743</LongitudeDegrees>
            </Position>
            <AltitudeMeters>1044.0</AltitudeMeters>
            <DistanceMeters>54256.225451129</DistanceMeters>
          </Trackpoint>
          <Trackpoint>
            <Position>
              <LatitudeDegrees>50.193627</LatitudeDegrees>
              <LongitudeDegrees>16.874277</LongitudeDegrees>
            </Position>
            <AltitudeMeters>1044.0</AltitudeMeters>
            <DistanceMeters>54258.989405664</DistanceMeters>
          </Trackpoint>
          <Trackpoint>
            <Position>
              <LatitudeDegrees>50.19361</LatitudeDegrees>
              <LongitudeDegrees>16.874262</LongitudeDegrees>
            </Position>
            <AltitudeMeters>1043.0</AltitudeMeters>
            <DistanceMeters>54261.160511351</DistanceMeters>
          </Trackpoint>
          <Trackpoint>
            <Position>
              <LatitudeDegrees>50.193592</LatitudeDegrees>
              <LongitudeDegrees>16.874243</LongitudeDegrees>
            </Position>
            <AltitudeMeters>1043.0</AltitudeMeters>
            <DistanceMeters>54263.57949658</DistanceMeters>
          </Trackpoint>
          <Trackpoint>
            <Position>
              <LatitudeDegrees>50.193572</LatitudeDegrees>
              <LongitudeDegrees>16.874217</LongitudeDegrees>
            </Position>
            <AltitudeMeters>1043.0</AltitudeMeters>
            <DistanceMeters>54266.475863445</DistanceMeters>
          </Trackpoint>
          <Trackpoint>
            <Position>
              <LatitudeDegrees>50.193548</LatitudeDegrees>
              <LongitudeDegrees>16.874193</LongitudeDegrees>
            </Position>
            <AltitudeMeters>1043.0</AltitudeMeters>
            <DistanceMeters>54269.647535741</DistanceMeters>
          </Trackpoint>
          <Trackpoint>
            <Position>
              <LatitudeDegrees>50.193513</LatitudeDegrees>
              <LongitudeDegrees>16.874143</LongitudeDegrees>
            </Position>
            <AltitudeMeters>1042.0</AltitudeMeters>
            <DistanceMeters>54274.926438649</DistanceMeters>
          </Trackpoint>
          <Trackpoint>
            <Position>
              <LatitudeDegrees>50.193418</LatitudeDegrees>
              <LongitudeDegrees>16.874047</LongitudeDegrees>
            </Position>
            <AltitudeMeters>1041.0</AltitudeMeters>
            <DistanceMeters>54287.520257079</DistanceMeters>
          </Trackpoint>
          <Trackpoint>
            <Position>
              <LatitudeDegrees>50.193402</LatitudeDegrees>
              <LongitudeDegrees>16.874022</LongitudeDegrees>
            </Position>
            <AltitudeMeters>1041.0</AltitudeMeters>
            <DistanceMeters>54290.038016731</DistanceMeters>
          </Trackpoint>
          <Trackpoint>
            <Position>
              <LatitudeDegrees>50.193378</LatitudeDegrees>
              <LongitudeDegrees>16.873995</LongitudeDegrees>
            </Position>
            <AltitudeMeters>1040.0</AltitudeMeters>
            <DistanceMeters>54293.329838678</DistanceMeters>
          </Trackpoint>
          <Trackpoint>
            <Position>
              <LatitudeDegrees>50.193357</LatitudeDegrees>
              <LongitudeDegrees>16.873968</LongitudeDegrees>
            </Position>
            <AltitudeMeters>1040.0</AltitudeMeters>
            <DistanceMeters>54296.358791908</DistanceMeters>
          </Trackpoint>
          <Trackpoint>
            <Position>
              <LatitudeDegrees>50.193267</LatitudeDegrees>
              <LongitudeDegrees>16.873887</LongitudeDegrees>
            </Position>
            <AltitudeMeters>1039.0</AltitudeMeters>
            <DistanceMeters>54307.91968121</DistanceMeters>
          </Trackpoint>
          <Trackpoint>
            <Position>
              <LatitudeDegrees>50.193193</LatitudeDegrees>
              <LongitudeDegrees>16.873788</LongitudeDegrees>
            </Position>
            <AltitudeMeters>1038.0</AltitudeMeters>
            <DistanceMeters>54318.764390316</DistanceMeters>
          </Trackpoint>
          <Trackpoint>
            <Position>
              <LatitudeDegrees>50.193128</LatitudeDegrees>
              <LongitudeDegrees>16.873682</LongitudeDegrees>
            </Position>
            <AltitudeMeters>1037.0</AltitudeMeters>
            <DistanceMeters>54329.223374303</DistanceMeters>
          </Trackpoint>
          <Trackpoint>
            <Position>
              <LatitudeDegrees>50.193047</LatitudeDegrees>
              <LongitudeDegrees>16.873577</LongitudeDegrees>
            </Position>
            <AltitudeMeters>1037.0</AltitudeMeters>
            <DistanceMeters>54340.939054478</DistanceMeters>
          </Trackpoint>
          <Trackpoint>
            <Position>
              <LatitudeDegrees>50.192972</LatitudeDegrees>
              <LongitudeDegrees>16.873455</LongitudeDegrees>
            </Position>
            <AltitudeMeters>1036.0</AltitudeMeters>
            <DistanceMeters>54352.991349267</DistanceMeters>
          </Trackpoint>
          <Trackpoint>
            <Position>
              <LatitudeDegrees>50.192912</LatitudeDegrees>
              <LongitudeDegrees>16.873332</LongitudeDegrees>
            </Position>
            <AltitudeMeters>1036.0</AltitudeMeters>
            <DistanceMeters>54364.010351393</DistanceMeters>
          </Trackpoint>
          <Trackpoint>
            <Position>
              <LatitudeDegrees>50.192822</LatitudeDegrees>
              <LongitudeDegrees>16.873272</LongitudeDegrees>
            </Position>
            <AltitudeMeters>1035.0</AltitudeMeters>
            <DistanceMeters>54374.901590265</DistanceMeters>
          </Trackpoint>
          <Trackpoint>
            <Position>
              <LatitudeDegrees>50.192725</LatitudeDegrees>
              <LongitudeDegrees>16.873358</LongitudeDegrees>
            </Position>
            <AltitudeMeters>1034.0</AltitudeMeters>
            <DistanceMeters>54387.315222067</DistanceMeters>
          </Trackpoint>
          <Trackpoint>
            <Position>
              <LatitudeDegrees>50.192682</LatitudeDegrees>
              <LongitudeDegrees>16.873508</LongitudeDegrees>
            </Position>
            <AltitudeMeters>1034.0</AltitudeMeters>
            <DistanceMeters>54399.026276718</DistanceMeters>
          </Trackpoint>
          <Trackpoint>
            <Position>
              <LatitudeDegrees>50.192693</LatitudeDegrees>
              <LongitudeDegrees>16.873657</LongitudeDegrees>
            </Position>
            <AltitudeMeters>1032.0</AltitudeMeters>
            <DistanceMeters>54409.714142128</DistanceMeters>
          </Trackpoint>
          <Trackpoint>
            <Position>
              <LatitudeDegrees>50.192685</LatitudeDegrees>
              <LongitudeDegrees>16.873695</LongitudeDegrees>
            </Position>
            <AltitudeMeters>1031.0</AltitudeMeters>
            <DistanceMeters>54412.564943559</DistanceMeters>
          </Trackpoint>
          <Trackpoint>
            <Position>
              <LatitudeDegrees>50.192677</LatitudeDegrees>
              <LongitudeDegrees>16.873737</LongitudeDegrees>
            </Position>
            <AltitudeMeters>1030.0</AltitudeMeters>
            <DistanceMeters>54415.68784006</DistanceMeters>
          </Trackpoint>
          <Trackpoint>
            <Position>
              <LatitudeDegrees>50.19267</LatitudeDegrees>
              <LongitudeDegrees>16.873765</LongitudeDegrees>
            </Position>
            <AltitudeMeters>1030.0</AltitudeMeters>
            <DistanceMeters>54417.829633429</DistanceMeters>
          </Trackpoint>
          <Trackpoint>
            <Position>
              <LatitudeDegrees>50.192657</LatitudeDegrees>
              <LongitudeDegrees>16.873807</LongitudeDegrees>
            </Position>
            <AltitudeMeters>1028.0</AltitudeMeters>
            <DistanceMeters>54421.15421063</DistanceMeters>
          </Trackpoint>
          <Trackpoint>
            <Position>
              <LatitudeDegrees>50.192648</LatitudeDegrees>
              <LongitudeDegrees>16.873848</LongitudeDegrees>
            </Position>
            <AltitudeMeters>1028.0</AltitudeMeters>
            <DistanceMeters>54424.242213338</DistanceMeters>
          </Trackpoint>
          <Trackpoint>
            <Position>
              <LatitudeDegrees>50.192625</LatitudeDegrees>
              <LongitudeDegrees>16.873883</LongitudeDegrees>
            </Position>
            <AltitudeMeters>1028.0</AltitudeMeters>
            <DistanceMeters>54427.815521062</DistanceMeters>
          </Trackpoint>
          <Trackpoint>
            <Position>
              <LatitudeDegrees>50.192612</LatitudeDegrees>
              <LongitudeDegrees>16.873905</LongitudeDegrees>
            </Position>
            <AltitudeMeters>1027.0</AltitudeMeters>
            <DistanceMeters>54429.946748045</DistanceMeters>
          </Trackpoint>
          <Trackpoint>
            <Position>
              <LatitudeDegrees>50.192595</LatitudeDegrees>
              <LongitudeDegrees>16.873938</LongitudeDegrees>
            </Position>
            <AltitudeMeters>1025.0</AltitudeMeters>
            <DistanceMeters>54432.963752694</DistanceMeters>
          </Trackpoint>
          <Trackpoint>
            <Position>
              <LatitudeDegrees>50.192578</LatitudeDegrees>
              <LongitudeDegrees>16.873975</LongitudeDegrees>
            </Position>
            <AltitudeMeters>1024.0</AltitudeMeters>
            <DistanceMeters>54436.207213663</DistanceMeters>
          </Trackpoint>
          <Trackpoint>
            <Position>
              <LatitudeDegrees>50.192567</LatitudeDegrees>
              <LongitudeDegrees>16.874008</LongitudeDegrees>
            </Position>
            <AltitudeMeters>1022.0</AltitudeMeters>
            <DistanceMeters>54438.857760677</DistanceMeters>
          </Trackpoint>
          <Trackpoint>
            <Position>
              <LatitudeDegrees>50.19256</LatitudeDegrees>
              <LongitudeDegrees>16.87404</LongitudeDegrees>
            </Position>
            <AltitudeMeters>1022.0</AltitudeMeters>
            <DistanceMeters>54441.269268345</DistanceMeters>
          </Trackpoint>
          <Trackpoint>
            <Position>
              <LatitudeDegrees>50.192542</LatitudeDegrees>
              <LongitudeDegrees>16.874188</LongitudeDegrees>
            </Position>
            <AltitudeMeters>1022.0</AltitudeMeters>
            <DistanceMeters>54452.003502152</DistanceMeters>
          </Trackpoint>
          <Trackpoint>
            <Position>
              <LatitudeDegrees>50.192507</LatitudeDegrees>
              <LongitudeDegrees>16.874323</LongitudeDegrees>
            </Position>
            <AltitudeMeters>1023.0</AltitudeMeters>
            <DistanceMeters>54462.381881208</DistanceMeters>
          </Trackpoint>
          <Trackpoint>
            <Position>
              <LatitudeDegrees>50.192447</LatitudeDegrees>
              <LongitudeDegrees>16.87444</LongitudeDegrees>
            </Position>
            <AltitudeMeters>1022.0</AltitudeMeters>
            <DistanceMeters>54473.063830746</DistanceMeters>
          </Trackpoint>
          <Trackpoint>
            <Position>
              <LatitudeDegrees>50.192403</LatitudeDegrees>
              <LongitudeDegrees>16.874588</LongitudeDegrees>
            </Position>
            <AltitudeMeters>1022.0</AltitudeMeters>
            <DistanceMeters>54484.691311321</DistanceMeters>
          </Trackpoint>
          <Trackpoint>
            <Position>
              <LatitudeDegrees>50.192363</LatitudeDegrees>
              <LongitudeDegrees>16.874735</LongitudeDegrees>
            </Position>
            <AltitudeMeters>1021.0</AltitudeMeters>
            <DistanceMeters>54496.073115952</DistanceMeters>
          </Trackpoint>
          <Trackpoint>
            <Position>
              <LatitudeDegrees>50.192315</LatitudeDegrees>
              <LongitudeDegrees>16.874883</LongitudeDegrees>
            </Position>
            <AltitudeMeters>1020.0</AltitudeMeters>
            <DistanceMeters>54507.895447499</DistanceMeters>
          </Trackpoint>
          <Trackpoint>
            <Position>
              <LatitudeDegrees>50.192272</LatitudeDegrees>
              <LongitudeDegrees>16.87503</LongitudeDegrees>
            </Position>
            <AltitudeMeters>1020.0</AltitudeMeters>
            <DistanceMeters>54519.412120752</DistanceMeters>
          </Trackpoint>
          <Trackpoint>
            <Position>
              <LatitudeDegrees>50.192205</LatitudeDegrees>
              <LongitudeDegrees>16.87514</LongitudeDegrees>
            </Position>
            <AltitudeMeters>1019.0</AltitudeMeters>
            <DistanceMeters>54530.230986259</DistanceMeters>
          </Trackpoint>
          <Trackpoint>
            <Position>
              <LatitudeDegrees>50.192133</LatitudeDegrees>
              <LongitudeDegrees>16.875255</LongitudeDegrees>
            </Position>
            <AltitudeMeters>1019.0</AltitudeMeters>
            <DistanceMeters>54541.692641991</DistanceMeters>
          </Trackpoint>
          <Trackpoint>
            <Position>
              <LatitudeDegrees>50.192068</LatitudeDegrees>
              <LongitudeDegrees>16.875375</LongitudeDegrees>
            </Position>
            <AltitudeMeters>1018.0</AltitudeMeters>
            <DistanceMeters>54552.892901896</DistanceMeters>
          </Trackpoint>
          <Trackpoint>
            <Position>
              <LatitudeDegrees>50.19199</LatitudeDegrees>
              <LongitudeDegrees>16.875493</LongitudeDegrees>
            </Position>
            <AltitudeMeters>1017.0</AltitudeMeters>
            <DistanceMeters>54564.978491931</DistanceMeters>
          </Trackpoint>
          <Trackpoint>
            <Position>
              <LatitudeDegrees>50.191905</LatitudeDegrees>
              <LongitudeDegrees>16.875603</LongitudeDegrees>
            </Position>
            <AltitudeMeters>1017.0</AltitudeMeters>
            <DistanceMeters>54577.264531074</DistanceMeters>
          </Trackpoint>
          <Trackpoint>
            <Position>
              <LatitudeDegrees>50.191823</LatitudeDegrees>
              <LongitudeDegrees>16.875693</LongitudeDegrees>
            </Position>
            <AltitudeMeters>1016.0</AltitudeMeters>
            <DistanceMeters>54588.419550276</DistanceMeters>
          </Trackpoint>
          <Trackpoint>
            <Position>
              <LatitudeDegrees>50.191757</LatitudeDegrees>
              <LongitudeDegrees>16.875805</LongitudeDegrees>
            </Position>
            <AltitudeMeters>1016.0</AltitudeMeters>
            <DistanceMeters>54599.266340861</DistanceMeters>
          </Trackpoint>
          <Trackpoint>
            <Position>
              <LatitudeDegrees>50.191725</LatitudeDegrees>
              <LongitudeDegrees>16.87585</LongitudeDegrees>
            </Position>
            <AltitudeMeters>1016.0</AltitudeMeters>
            <DistanceMeters>54604.058363857</DistanceMeters>
          </Trackpoint>
          <Trackpoint>
            <Position>
              <LatitudeDegrees>50.191645</LatitudeDegrees>
              <LongitudeDegrees>16.875923</LongitudeDegrees>
            </Position>
            <AltitudeMeters>1015.0</AltitudeMeters>
            <DistanceMeters>54614.370404403</DistanceMeters>
          </Trackpoint>
          <Trackpoint>
            <Position>
              <LatitudeDegrees>50.191618</LatitudeDegrees>
              <LongitudeDegrees>16.875935</LongitudeDegrees>
            </Position>
            <AltitudeMeters>1015.0</AltitudeMeters>
            <DistanceMeters>54617.494746355</DistanceMeters>
          </Trackpoint>
          <Trackpoint>
            <Position>
              <LatitudeDegrees>50.19154</LatitudeDegrees>
              <LongitudeDegrees>16.876012</LongitudeDegrees>
            </Position>
            <AltitudeMeters>1014.0</AltitudeMeters>
            <DistanceMeters>54627.765107738</DistanceMeters>
          </Trackpoint>
          <Trackpoint>
            <Position>
              <LatitudeDegrees>50.191467</LatitudeDegrees>
              <LongitudeDegrees>16.876117</LongitudeDegrees>
            </Position>
            <AltitudeMeters>1013.0</AltitudeMeters>
            <DistanceMeters>54638.810302746</DistanceMeters>
          </Trackpoint>
          <Trackpoint>
            <Position>
              <LatitudeDegrees>50.191398</LatitudeDegrees>
              <LongitudeDegrees>16.876237</LongitudeDegrees>
            </Position>
            <AltitudeMeters>1011.0</AltitudeMeters>
            <DistanceMeters>54650.30382215</DistanceMeters>
          </Trackpoint>
          <Trackpoint>
            <Position>
              <LatitudeDegrees>50.191373</LatitudeDegrees>
              <LongitudeDegrees>16.876277</LongitudeDegrees>
            </Position>
            <AltitudeMeters>1010.0</AltitudeMeters>
            <DistanceMeters>54654.287017389</DistanceMeters>
          </Trackpoint>
          <Trackpoint>
            <Position>
              <LatitudeDegrees>50.191357</LatitudeDegrees>
              <LongitudeDegrees>16.876292</LongitudeDegrees>
            </Position>
            <AltitudeMeters>1010.0</AltitudeMeters>
            <DistanceMeters>54656.364606507</DistanceMeters>
          </Trackpoint>
          <Trackpoint>
            <Position>
              <LatitudeDegrees>50.191282</LatitudeDegrees>
              <LongitudeDegrees>16.876387</LongitudeDegrees>
            </Position>
            <AltitudeMeters>1010.0</AltitudeMeters>
            <DistanceMeters>54667.11229174</DistanceMeters>
          </Trackpoint>
          <Trackpoint>
            <Position>
              <LatitudeDegrees>50.191198</LatitudeDegrees>
              <LongitudeDegrees>16.876477</LongitudeDegrees>
            </Position>
            <AltitudeMeters>1010.0</AltitudeMeters>
            <DistanceMeters>54678.449978372</DistanceMeters>
          </Trackpoint>
          <Trackpoint>
            <Position>
              <LatitudeDegrees>50.1911</LatitudeDegrees>
              <LongitudeDegrees>16.876547</LongitudeDegrees>
            </Position>
            <AltitudeMeters>1009.0</AltitudeMeters>
            <DistanceMeters>54690.444066409</DistanceMeters>
          </Trackpoint>
          <Trackpoint>
            <Position>
              <LatitudeDegrees>50.191035</LatitudeDegrees>
              <LongitudeDegrees>16.876658</LongitudeDegrees>
            </Position>
            <AltitudeMeters>1009.0</AltitudeMeters>
            <DistanceMeters>54701.163147185</DistanceMeters>
          </Trackpoint>
          <Trackpoint>
            <Position>
              <LatitudeDegrees>50.190975</LatitudeDegrees>
              <LongitudeDegrees>16.876787</LongitudeDegrees>
            </Position>
            <AltitudeMeters>1009.0</AltitudeMeters>
            <DistanceMeters>54712.525100047</DistanceMeters>
          </Trackpoint>
          <Trackpoint>
            <Position>
              <LatitudeDegrees>50.190898</LatitudeDegrees>
              <LongitudeDegrees>16.876863</LongitudeDegrees>
            </Position>
            <AltitudeMeters>1008.0</AltitudeMeters>
            <DistanceMeters>54722.663163475</DistanceMeters>
          </Trackpoint>
          <Trackpoint>
            <Position>
              <LatitudeDegrees>50.190823</LatitudeDegrees>
              <LongitudeDegrees>16.876987</LongitudeDegrees>
            </Position>
            <AltitudeMeters>1007.0</AltitudeMeters>
            <DistanceMeters>54734.819156686</DistanceMeters>
          </Trackpoint>
          <Trackpoint>
            <Position>
              <LatitudeDegrees>50.190753</LatitudeDegrees>
              <LongitudeDegrees>16.87709</LongitudeDegrees>
            </Position>
            <AltitudeMeters>1006.0</AltitudeMeters>
            <DistanceMeters>54745.522219321</DistanceMeters>
          </Trackpoint>
          <Trackpoint>
            <Position>
              <LatitudeDegrees>50.19069</LatitudeDegrees>
              <LongitudeDegrees>16.877232</LongitudeDegrees>
            </Position>
            <AltitudeMeters>1004.0</AltitudeMeters>
            <DistanceMeters>54757.832855899</DistanceMeters>
          </Trackpoint>
          <Trackpoint>
            <Position>
              <LatitudeDegrees>50.190618</LatitudeDegrees>
              <LongitudeDegrees>16.877325</LongitudeDegrees>
            </Position>
            <AltitudeMeters>1003.0</AltitudeMeters>
            <DistanceMeters>54768.232096039</DistanceMeters>
          </Trackpoint>
          <Trackpoint>
            <Position>
              <LatitudeDegrees>50.190597</LatitudeDegrees>
              <LongitudeDegrees>16.877358</LongitudeDegrees>
            </Position>
            <AltitudeMeters>1003.0</AltitudeMeters>
            <DistanceMeters>54771.547153057</DistanceMeters>
          </Trackpoint>
          <Trackpoint>
            <Position>
              <LatitudeDegrees>50.190553</LatitudeDegrees>
              <LongitudeDegrees>16.877427</LongitudeDegrees>
            </Position>
            <AltitudeMeters>1002.0</AltitudeMeters>
            <DistanceMeters>54778.486706189</DistanceMeters>
          </Trackpoint>
          <Trackpoint>
            <Position>
              <LatitudeDegrees>50.19053</LatitudeDegrees>
              <LongitudeDegrees>16.877458</LongitudeDegrees>
            </Position>
            <AltitudeMeters>1002.0</AltitudeMeters>
            <DistanceMeters>54781.869176715</DistanceMeters>
          </Trackpoint>
          <Trackpoint>
            <Position>
              <LatitudeDegrees>50.190515</LatitudeDegrees>
              <LongitudeDegrees>16.877485</LongitudeDegrees>
            </Position>
            <AltitudeMeters>1002.0</AltitudeMeters>
            <DistanceMeters>54784.415467131</DistanceMeters>
          </Trackpoint>
          <Trackpoint>
            <Position>
              <LatitudeDegrees>50.190497</LatitudeDegrees>
              <LongitudeDegrees>16.87751</LongitudeDegrees>
            </Position>
            <AltitudeMeters>1002.0</AltitudeMeters>
            <DistanceMeters>54787.096500673</DistanceMeters>
          </Trackpoint>
          <Trackpoint>
            <Position>
              <LatitudeDegrees>50.190477</LatitudeDegrees>
              <LongitudeDegrees>16.877537</LongitudeDegrees>
            </Position>
            <AltitudeMeters>1002.0</AltitudeMeters>
            <DistanceMeters>54790.037727157</DistanceMeters>
          </Trackpoint>
          <Trackpoint>
            <Position>
              <LatitudeDegrees>50.19045</LatitudeDegrees>
              <LongitudeDegrees>16.877567</LongitudeDegrees>
            </Position>
            <AltitudeMeters>1001.0</AltitudeMeters>
            <DistanceMeters>54793.724224824</DistanceMeters>
          </Trackpoint>
          <Trackpoint>
            <Position>
              <LatitudeDegrees>50.190403</LatitudeDegrees>
              <LongitudeDegrees>16.877653</LongitudeDegrees>
            </Position>
            <AltitudeMeters>1001.0</AltitudeMeters>
            <DistanceMeters>54801.781347112</DistanceMeters>
          </Trackpoint>
          <Trackpoint>
            <Position>
              <LatitudeDegrees>50.190388</LatitudeDegrees>
              <LongitudeDegrees>16.877688</LongitudeDegrees>
            </Position>
            <AltitudeMeters>1000.0</AltitudeMeters>
            <DistanceMeters>54804.781844773</DistanceMeters>
          </Trackpoint>
          <Trackpoint>
            <Position>
              <LatitudeDegrees>50.190362</LatitudeDegrees>
              <LongitudeDegrees>16.87775</LongitudeDegrees>
            </Position>
            <AltitudeMeters>1000.0</AltitudeMeters>
            <DistanceMeters>54810.063312953</DistanceMeters>
          </Trackpoint>
          <Trackpoint>
            <Position>
              <LatitudeDegrees>50.190352</LatitudeDegrees>
              <LongitudeDegrees>16.877783</LongitudeDegrees>
            </Position>
            <AltitudeMeters>1000.0</AltitudeMeters>
            <DistanceMeters>54812.665726704</DistanceMeters>
          </Trackpoint>
          <Trackpoint>
            <Position>
              <LatitudeDegrees>50.190302</LatitudeDegrees>
              <LongitudeDegrees>16.877933</LongitudeDegrees>
            </Position>
            <AltitudeMeters>999.0</AltitudeMeters>
            <DistanceMeters>54824.716522917</DistanceMeters>
          </Trackpoint>
          <Trackpoint>
            <Position>
              <LatitudeDegrees>50.190297</LatitudeDegrees>
              <LongitudeDegrees>16.877963</LongitudeDegrees>
            </Position>
            <AltitudeMeters>998.0</AltitudeMeters>
            <DistanceMeters>54826.92474421</DistanceMeters>
          </Trackpoint>
          <Trackpoint>
            <Position>
              <LatitudeDegrees>50.190277</LatitudeDegrees>
              <LongitudeDegrees>16.878028</LongitudeDegrees>
            </Position>
            <AltitudeMeters>998.0</AltitudeMeters>
            <DistanceMeters>54832.064099578</DistanceMeters>
          </Trackpoint>
          <Trackpoint>
            <Position>
              <LatitudeDegrees>50.19027</LatitudeDegrees>
              <LongitudeDegrees>16.878058</LongitudeDegrees>
            </Position>
            <AltitudeMeters>997.0</AltitudeMeters>
            <DistanceMeters>54834.3387938</DistanceMeters>
          </Trackpoint>
          <Trackpoint>
            <Position>
              <LatitudeDegrees>50.190265</LatitudeDegrees>
              <LongitudeDegrees>16.878093</LongitudeDegrees>
            </Position>
            <AltitudeMeters>997.0</AltitudeMeters>
            <DistanceMeters>54836.895701179</DistanceMeters>
          </Trackpoint>
          <Trackpoint>
            <Position>
              <LatitudeDegrees>50.19025</LatitudeDegrees>
              <LongitudeDegrees>16.878125</LongitudeDegrees>
            </Position>
            <AltitudeMeters>997.0</AltitudeMeters>
            <DistanceMeters>54839.724242805</DistanceMeters>
          </Trackpoint>
          <Trackpoint>
            <Position>
              <LatitudeDegrees>50.190233</LatitudeDegrees>
              <LongitudeDegrees>16.87815</LongitudeDegrees>
            </Position>
            <AltitudeMeters>996.0</AltitudeMeters>
            <DistanceMeters>54842.323184355</DistanceMeters>
          </Trackpoint>
          <Trackpoint>
            <Position>
              <LatitudeDegrees>50.190223</LatitudeDegrees>
              <LongitudeDegrees>16.878173</LongitudeDegrees>
            </Position>
            <AltitudeMeters>996.0</AltitudeMeters>
            <DistanceMeters>54844.307400404</DistanceMeters>
          </Trackpoint>
          <Trackpoint>
            <Position>
              <LatitudeDegrees>50.190208</LatitudeDegrees>
              <LongitudeDegrees>16.878195</LongitudeDegrees>
            </Position>
            <AltitudeMeters>996.0</AltitudeMeters>
            <DistanceMeters>54846.597918776</DistanceMeters>
          </Trackpoint>
          <Trackpoint>
            <Position>
              <LatitudeDegrees>50.190197</LatitudeDegrees>
              <LongitudeDegrees>16.878218</LongitudeDegrees>
            </Position>
            <AltitudeMeters>995.0</AltitudeMeters>
            <DistanceMeters>54848.644856848</DistanceMeters>
          </Trackpoint>
          <Trackpoint>
            <Position>
              <LatitudeDegrees>50.190185</LatitudeDegrees>
              <LongitudeDegrees>16.878245</LongitudeDegrees>
            </Position>
            <AltitudeMeters>995.0</AltitudeMeters>
            <DistanceMeters>54850.987992883</DistanceMeters>
          </Trackpoint>
          <Trackpoint>
            <Position>
              <LatitudeDegrees>50.190172</LatitudeDegrees>
              <LongitudeDegrees>16.878287</LongitudeDegrees>
            </Position>
            <AltitudeMeters>994.0</AltitudeMeters>
            <DistanceMeters>54854.311211728</DistanceMeters>
          </Trackpoint>
          <Trackpoint>
            <Position>
              <LatitudeDegrees>50.190158</LatitudeDegrees>
              <LongitudeDegrees>16.87832</LongitudeDegrees>
            </Position>
            <AltitudeMeters>993.0</AltitudeMeters>
            <DistanceMeters>54857.130159629</DistanceMeters>
          </Trackpoint>
          <Trackpoint>
            <Position>
              <LatitudeDegrees>50.190145</LatitudeDegrees>
              <LongitudeDegrees>16.878353</LongitudeDegrees>
            </Position>
            <AltitudeMeters>993.0</AltitudeMeters>
            <DistanceMeters>54859.890845145</DistanceMeters>
          </Trackpoint>
          <Trackpoint>
            <Position>
              <LatitudeDegrees>50.190132</LatitudeDegrees>
              <LongitudeDegrees>16.87838</LongitudeDegrees>
            </Position>
            <AltitudeMeters>992.0</AltitudeMeters>
            <DistanceMeters>54862.298605324</DistanceMeters>
          </Trackpoint>
          <Trackpoint>
            <Position>
              <LatitudeDegrees>50.190122</LatitudeDegrees>
              <LongitudeDegrees>16.878407</LongitudeDegrees>
            </Position>
            <AltitudeMeters>991.0</AltitudeMeters>
            <DistanceMeters>54864.523123674</DistanceMeters>
          </Trackpoint>
          <Trackpoint>
            <Position>
              <LatitudeDegrees>50.190115</LatitudeDegrees>
              <LongitudeDegrees>16.87844</LongitudeDegrees>
            </Position>
            <AltitudeMeters>990.0</AltitudeMeters>
            <DistanceMeters>54867.001117214</DistanceMeters>
          </Trackpoint>
          <Trackpoint>
            <Position>
              <LatitudeDegrees>50.190105</LatitudeDegrees>
              <LongitudeDegrees>16.878465</LongitudeDegrees>
            </Position>
            <AltitudeMeters>990.0</AltitudeMeters>
            <DistanceMeters>54869.104623206</DistanceMeters>
          </Trackpoint>
          <Trackpoint>
            <Position>
              <LatitudeDegrees>50.190095</LatitudeDegrees>
              <LongitudeDegrees>16.878497</LongitudeDegrees>
            </Position>
            <AltitudeMeters>989.0</AltitudeMeters>
            <DistanceMeters>54871.643810985</DistanceMeters>
          </Trackpoint>
          <Trackpoint>
            <Position>
              <LatitudeDegrees>50.19008</LatitudeDegrees>
              <LongitudeDegrees>16.87853</LongitudeDegrees>
            </Position>
            <AltitudeMeters>988.0</AltitudeMeters>
            <DistanceMeters>54874.529245178</DistanceMeters>
          </Trackpoint>
          <Trackpoint>
            <Position>
              <LatitudeDegrees>50.190058</LatitudeDegrees>
              <LongitudeDegrees>16.878565</LongitudeDegrees>
            </Position>
            <AltitudeMeters>988.0</AltitudeMeters>
            <DistanceMeters>54878.025918384</DistanceMeters>
          </Trackpoint>
          <Trackpoint>
            <Position>
              <LatitudeDegrees>50.190042</LatitudeDegrees>
              <LongitudeDegrees>16.878598</LongitudeDegrees>
            </Position>
            <AltitudeMeters>987.0</AltitudeMeters>
            <DistanceMeters>54880.977870919</DistanceMeters>
          </Trackpoint>
          <Trackpoint>
            <Position>
              <LatitudeDegrees>50.190023</LatitudeDegrees>
              <LongitudeDegrees>16.878633</LongitudeDegrees>
            </Position>
            <AltitudeMeters>987.0</AltitudeMeters>
            <DistanceMeters>54884.247673743</DistanceMeters>
          </Trackpoint>
          <Trackpoint>
            <Position>
              <LatitudeDegrees>50.189998</LatitudeDegrees>
              <LongitudeDegrees>16.878665</LongitudeDegrees>
            </Position>
            <AltitudeMeters>987.0</AltitudeMeters>
            <DistanceMeters>54887.846163651</DistanceMeters>
          </Trackpoint>
          <Trackpoint>
            <Position>
              <LatitudeDegrees>50.189983</LatitudeDegrees>
              <LongitudeDegrees>16.878702</LongitudeDegrees>
            </Position>
            <AltitudeMeters>986.0</AltitudeMeters>
            <DistanceMeters>54890.966167242</DistanceMeters>
          </Trackpoint>
          <Trackpoint>
            <Position>
              <LatitudeDegrees>50.189968</LatitudeDegrees>
              <LongitudeDegrees>16.878743</LongitudeDegrees>
            </Position>
            <AltitudeMeters>986.0</AltitudeMeters>
            <DistanceMeters>54894.331240177</DistanceMeters>
          </Trackpoint>
          <Trackpoint>
            <Position>
              <LatitudeDegrees>50.18995</LatitudeDegrees>
              <LongitudeDegrees>16.878772</LongitudeDegrees>
            </Position>
            <AltitudeMeters>986.0</AltitudeMeters>
            <DistanceMeters>54897.210408491</DistanceMeters>
          </Trackpoint>
          <Trackpoint>
            <Position>
              <LatitudeDegrees>50.189935</LatitudeDegrees>
              <LongitudeDegrees>16.878798</LongitudeDegrees>
            </Position>
            <AltitudeMeters>986.0</AltitudeMeters>
            <DistanceMeters>54899.702935841</DistanceMeters>
          </Trackpoint>
          <Trackpoint>
            <Position>
              <LatitudeDegrees>50.189922</LatitudeDegrees>
              <LongitudeDegrees>16.878825</LongitudeDegrees>
            </Position>
            <AltitudeMeters>986.0</AltitudeMeters>
            <DistanceMeters>54902.11069602</DistanceMeters>
          </Trackpoint>
          <Trackpoint>
            <Position>
              <LatitudeDegrees>50.189908</LatitudeDegrees>
              <LongitudeDegrees>16.878847</LongitudeDegrees>
            </Position>
            <AltitudeMeters>985.0</AltitudeMeters>
            <DistanceMeters>54904.318917313</DistanceMeters>
          </Trackpoint>
          <Trackpoint>
            <Position>
              <LatitudeDegrees>50.189887</LatitudeDegrees>
              <LongitudeDegrees>16.878887</LongitudeDegrees>
            </Position>
            <AltitudeMeters>984.0</AltitudeMeters>
            <DistanceMeters>54908.00541498</DistanceMeters>
          </Trackpoint>
          <Trackpoint>
            <Position>
              <LatitudeDegrees>50.189868</LatitudeDegrees>
              <LongitudeDegrees>16.878913</LongitudeDegrees>
            </Position>
            <AltitudeMeters>984.0</AltitudeMeters>
            <DistanceMeters>54910.814736395</DistanceMeters>
          </Trackpoint>
          <Trackpoint>
            <Position>
              <LatitudeDegrees>50.18985</LatitudeDegrees>
              <LongitudeDegrees>16.878895</LongitudeDegrees>
            </Position>
            <AltitudeMeters>983.0</AltitudeMeters>
            <DistanceMeters>54913.192304029</DistanceMeters>
          </Trackpoint>
          <Trackpoint>
            <Position>
              <LatitudeDegrees>50.189833</LatitudeDegrees>
              <LongitudeDegrees>16.878913</LongitudeDegrees>
            </Position>
            <AltitudeMeters>982.0</AltitudeMeters>
            <DistanceMeters>54915.476901189</DistanceMeters>
          </Trackpoint>
          <Trackpoint>
            <Position>
              <LatitudeDegrees>50.189838</LatitudeDegrees>
              <LongitudeDegrees>16.878885</LongitudeDegrees>
            </Position>
            <AltitudeMeters>982.0</AltitudeMeters>
            <DistanceMeters>54917.550139329</DistanceMeters>
          </Trackpoint>
          <Trackpoint>
            <Position>
              <LatitudeDegrees>50.18985</LatitudeDegrees>
              <LongitudeDegrees>16.878857</LongitudeDegrees>
            </Position>
            <AltitudeMeters>981.0</AltitudeMeters>
            <DistanceMeters>54919.950386977</DistanceMeters>
          </Trackpoint>
          <Trackpoint>
            <Position>
              <LatitudeDegrees>50.189865</LatitudeDegrees>
              <LongitudeDegrees>16.878823</LongitudeDegrees>
            </Position>
            <AltitudeMeters>981.0</AltitudeMeters>
            <DistanceMeters>54922.893148148</DistanceMeters>
          </Trackpoint>
          <Trackpoint>
            <Position>
              <LatitudeDegrees>50.18988</LatitudeDegrees>
              <LongitudeDegrees>16.878782</LongitudeDegrees>
            </Position>
            <AltitudeMeters>981.0</AltitudeMeters>
            <DistanceMeters>54926.258221084</DistanceMeters>
          </Trackpoint>
          <Trackpoint>
            <Position>
              <LatitudeDegrees>50.18989</LatitudeDegrees>
              <LongitudeDegrees>16.878737</LongitudeDegrees>
            </Position>
            <AltitudeMeters>981.0</AltitudeMeters>
            <DistanceMeters>54929.65268386</DistanceMeters>
          </Trackpoint>
          <Trackpoint>
            <Position>
              <LatitudeDegrees>50.189903</LatitudeDegrees>
              <LongitudeDegrees>16.878695</LongitudeDegrees>
            </Position>
            <AltitudeMeters>981.0</AltitudeMeters>
            <DistanceMeters>54932.978618863</DistanceMeters>
          </Trackpoint>
          <Trackpoint>
            <Position>
              <LatitudeDegrees>50.189915</LatitudeDegrees>
              <LongitudeDegrees>16.878652</LongitudeDegrees>
            </Position>
            <AltitudeMeters>981.0</AltitudeMeters>
            <DistanceMeters>54936.32080446</DistanceMeters>
          </Trackpoint>
          <Trackpoint>
            <Position>
              <LatitudeDegrees>50.189928</LatitudeDegrees>
              <LongitudeDegrees>16.878613</LongitudeDegrees>
            </Position>
            <AltitudeMeters>981.0</AltitudeMeters>
            <DistanceMeters>54939.452363659</DistanceMeters>
          </Trackpoint>
          <Trackpoint>
            <Position>
              <LatitudeDegrees>50.189948</LatitudeDegrees>
              <LongitudeDegrees>16.878583</LongitudeDegrees>
            </Position>
            <AltitudeMeters>981.0</AltitudeMeters>
            <DistanceMeters>54942.538903898</DistanceMeters>
          </Trackpoint>
          <Trackpoint>
            <Position>
              <LatitudeDegrees>50.189968</LatitudeDegrees>
              <LongitudeDegrees>16.878558</LongitudeDegrees>
            </Position>
            <AltitudeMeters>981.0</AltitudeMeters>
            <DistanceMeters>54945.389705329</DistanceMeters>
          </Trackpoint>
          <Trackpoint>
            <Position>
              <LatitudeDegrees>50.189985</LatitudeDegrees>
              <LongitudeDegrees>16.878528</LongitudeDegrees>
            </Position>
            <AltitudeMeters>981.0</AltitudeMeters>
            <DistanceMeters>54948.24367256</DistanceMeters>
          </Trackpoint>
          <Trackpoint>
            <Position>
              <LatitudeDegrees>50.189997</LatitudeDegrees>
              <LongitudeDegrees>16.87849</LongitudeDegrees>
            </Position>
            <AltitudeMeters>981.0</AltitudeMeters>
            <DistanceMeters>54951.262173369</DistanceMeters>
          </Trackpoint>
          <Trackpoint>
            <Position>
              <LatitudeDegrees>50.19001</LatitudeDegrees>
              <LongitudeDegrees>16.878455</LongitudeDegrees>
            </Position>
            <AltitudeMeters>981.0</AltitudeMeters>
            <DistanceMeters>54954.144476324</DistanceMeters>
          </Trackpoint>
          <Trackpoint>
            <Position>
              <LatitudeDegrees>50.190027</LatitudeDegrees>
              <LongitudeDegrees>16.87843</LongitudeDegrees>
            </Position>
            <AltitudeMeters>981.0</AltitudeMeters>
            <DistanceMeters>54956.743417874</DistanceMeters>
          </Trackpoint>
          <Trackpoint>
            <Position>
              <LatitudeDegrees>50.190038</LatitudeDegrees>
              <LongitudeDegrees>16.878397</LongitudeDegrees>
            </Position>
            <AltitudeMeters>981.0</AltitudeMeters>
            <DistanceMeters>54959.395667778</DistanceMeters>
          </Trackpoint>
          <Trackpoint>
            <Position>
              <LatitudeDegrees>50.19005</LatitudeDegrees>
              <LongitudeDegrees>16.878363</LongitudeDegrees>
            </Position>
            <AltitudeMeters>981.0</AltitudeMeters>
            <DistanceMeters>54962.161255373</DistanceMeters>
          </Trackpoint>
          <Trackpoint>
            <Position>
              <LatitudeDegrees>50.190063</LatitudeDegrees>
              <LongitudeDegrees>16.878332</LongitudeDegrees>
            </Position>
            <AltitudeMeters>981.0</AltitudeMeters>
            <DistanceMeters>54964.801561987</DistanceMeters>
          </Trackpoint>
          <Trackpoint>
            <Position>
              <LatitudeDegrees>50.190077</LatitudeDegrees>
              <LongitudeDegrees>16.878298</LongitudeDegrees>
            </Position>
            <AltitudeMeters>981.0</AltitudeMeters>
            <DistanceMeters>54967.683864942</DistanceMeters>
          </Trackpoint>
          <Trackpoint>
            <Position>
              <LatitudeDegrees>50.190095</LatitudeDegrees>
              <LongitudeDegrees>16.878272</LongitudeDegrees>
            </Position>
            <AltitudeMeters>981.0</AltitudeMeters>
            <DistanceMeters>54970.411644807</DistanceMeters>
          </Trackpoint>
          <Trackpoint>
            <Position>
              <LatitudeDegrees>50.190113</LatitudeDegrees>
              <LongitudeDegrees>16.87824</LongitudeDegrees>
            </Position>
            <AltitudeMeters>981.0</AltitudeMeters>
            <DistanceMeters>54973.446554686</DistanceMeters>
          </Trackpoint>
          <Trackpoint>
            <Position>
              <LatitudeDegrees>50.190135</LatitudeDegrees>
              <LongitudeDegrees>16.878205</LongitudeDegrees>
            </Position>
            <AltitudeMeters>982.0</AltitudeMeters>
            <DistanceMeters>54976.94064446</DistanceMeters>
          </Trackpoint>
          <Trackpoint>
            <Position>
              <LatitudeDegrees>50.19015</LatitudeDegrees>
              <LongitudeDegrees>16.878172</LongitudeDegrees>
            </Position>
            <AltitudeMeters>981.0</AltitudeMeters>
            <DistanceMeters>54979.822947416</DistanceMeters>
          </Trackpoint>
          <Trackpoint>
            <Position>
              <LatitudeDegrees>50.19016</LatitudeDegrees>
              <LongitudeDegrees>16.878127</LongitudeDegrees>
            </Position>
            <AltitudeMeters>981.0</AltitudeMeters>
            <DistanceMeters>54983.216079813</DistanceMeters>
          </Trackpoint>
          <Trackpoint>
            <Position>
              <LatitudeDegrees>50.190177</LatitudeDegrees>
              <LongitudeDegrees>16.878095</LongitudeDegrees>
            </Position>
            <AltitudeMeters>982.0</AltitudeMeters>
            <DistanceMeters>54986.180243166</DistanceMeters>
          </Trackpoint>
          <Trackpoint>
            <Position>
              <LatitudeDegrees>50.190192</LatitudeDegrees>
              <LongitudeDegrees>16.878057</LongitudeDegrees>
            </Position>
            <AltitudeMeters>982.0</AltitudeMeters>
            <DistanceMeters>54989.360445301</DistanceMeters>
          </Trackpoint>
          <Trackpoint>
            <Position>
              <LatitudeDegrees>50.190208</LatitudeDegrees>
              <LongitudeDegrees>16.878025</LongitudeDegrees>
            </Position>
            <AltitudeMeters>982.0</AltitudeMeters>
            <DistanceMeters>54992.252131796</DistanceMeters>
          </Trackpoint>
          <Trackpoint>
            <Position>
              <LatitudeDegrees>50.190228</LatitudeDegrees>
              <LongitudeDegrees>16.878</LongitudeDegrees>
            </Position>
            <AltitudeMeters>982.0</AltitudeMeters>
            <DistanceMeters>54995.102933227</DistanceMeters>
          </Trackpoint>
          <Trackpoint>
            <Position>
              <LatitudeDegrees>50.190245</LatitudeDegrees>
              <LongitudeDegrees>16.877973</LongitudeDegrees>
            </Position>
            <AltitudeMeters>982.0</AltitudeMeters>
            <DistanceMeters>54997.800754869</DistanceMeters>
          </Trackpoint>
          <Trackpoint>
            <Position>
              <LatitudeDegrees>50.190258</LatitudeDegrees>
              <LongitudeDegrees>16.877935</LongitudeDegrees>
            </Position>
            <AltitudeMeters>982.0</AltitudeMeters>
            <DistanceMeters>55000.871161977</DistanceMeters>
          </Trackpoint>
          <Trackpoint>
            <Position>
              <LatitudeDegrees>50.190272</LatitudeDegrees>
              <LongitudeDegrees>16.87789</LongitudeDegrees>
            </Position>
            <AltitudeMeters>982.0</AltitudeMeters>
            <DistanceMeters>55004.436880367</DistanceMeters>
          </Trackpoint>
          <Trackpoint>
            <Position>
              <LatitudeDegrees>50.190282</LatitudeDegrees>
              <LongitudeDegrees>16.877843</LongitudeDegrees>
            </Position>
            <AltitudeMeters>982.0</AltitudeMeters>
            <DistanceMeters>55007.966966129</DistanceMeters>
          </Trackpoint>
          <Trackpoint>
            <Position>
              <LatitudeDegrees>50.190295</LatitudeDegrees>
              <LongitudeDegrees>16.877805</LongitudeDegrees>
            </Position>
            <AltitudeMeters>982.0</AltitudeMeters>
            <DistanceMeters>55011.037373237</DistanceMeters>
          </Trackpoint>
          <Trackpoint>
            <Position>
              <LatitudeDegrees>50.1903</LatitudeDegrees>
              <LongitudeDegrees>16.877758</LongitudeDegrees>
            </Position>
            <AltitudeMeters>982.0</AltitudeMeters>
            <DistanceMeters>55014.431836014</DistanceMeters>
          </Trackpoint>
          <Trackpoint>
            <Position>
              <LatitudeDegrees>50.190313</LatitudeDegrees>
              <LongitudeDegrees>16.87772</LongitudeDegrees>
            </Position>
            <AltitudeMeters>982.0</AltitudeMeters>
            <DistanceMeters>55017.502243122</DistanceMeters>
          </Trackpoint>
          <Trackpoint>
            <Position>
              <LatitudeDegrees>50.19033</LatitudeDegrees>
              <LongitudeDegrees>16.877693</LongitudeDegrees>
            </Position>
            <AltitudeMeters>982.0</AltitudeMeters>
            <DistanceMeters>55020.200064764</DistanceMeters>
          </Trackpoint>
          <Trackpoint>
            <Position>
              <LatitudeDegrees>50.190342</LatitudeDegrees>
              <LongitudeDegrees>16.877662</LongitudeDegrees>
            </Position>
            <AltitudeMeters>983.0</AltitudeMeters>
            <DistanceMeters>55022.783323654</DistanceMeters>
          </Trackpoint>
          <Trackpoint>
            <Position>
              <LatitudeDegrees>50.19035</LatitudeDegrees>
              <LongitudeDegrees>16.877632</LongitudeDegrees>
            </Position>
            <AltitudeMeters>982.0</AltitudeMeters>
            <DistanceMeters>55025.099325685</DistanceMeters>
          </Trackpoint>
          <Trackpoint>
            <Position>
              <LatitudeDegrees>50.190345</LatitudeDegrees>
              <LongitudeDegrees>16.8776</LongitudeDegrees>
            </Position>
            <AltitudeMeters>983.0</AltitudeMeters>
            <DistanceMeters>55027.44823537</DistanceMeters>
          </Trackpoint>
          <Trackpoint>
            <Position>
              <LatitudeDegrees>50.190325</LatitudeDegrees>
              <LongitudeDegrees>16.877605</LongitudeDegrees>
            </Position>
            <AltitudeMeters>983.0</AltitudeMeters>
            <DistanceMeters>55029.702993236</DistanceMeters>
          </Trackpoint>
          <Trackpoint>
            <Position>
              <LatitudeDegrees>50.190302</LatitudeDegrees>
              <LongitudeDegrees>16.877623</LongitudeDegrees>
            </Position>
            <AltitudeMeters>983.0</AltitudeMeters>
            <DistanceMeters>55032.566436864</DistanceMeters>
          </Trackpoint>
          <Trackpoint>
            <Position>
              <LatitudeDegrees>50.19028</LatitudeDegrees>
              <LongitudeDegrees>16.877645</LongitudeDegrees>
            </Position>
            <AltitudeMeters>984.0</AltitudeMeters>
            <DistanceMeters>55035.47369529</DistanceMeters>
          </Trackpoint>
          <Trackpoint>
            <Position>
              <LatitudeDegrees>50.190267</LatitudeDegrees>
              <LongitudeDegrees>16.877672</LongitudeDegrees>
            </Position>
            <AltitudeMeters>984.0</AltitudeMeters>
            <DistanceMeters>55037.881455468</DistanceMeters>
          </Trackpoint>
          <Trackpoint>
            <Position>
              <LatitudeDegrees>50.19027</LatitudeDegrees>
              <LongitudeDegrees>16.8777</LongitudeDegrees>
            </Position>
            <AltitudeMeters>984.0</AltitudeMeters>
            <DistanceMeters>55039.903984734</DistanceMeters>
          </Trackpoint>
          <Trackpoint>
            <Position>
              <LatitudeDegrees>50.190267</LatitudeDegrees>
              <LongitudeDegrees>16.87773</LongitudeDegrees>
            </Position>
            <AltitudeMeters>984.0</AltitudeMeters>
            <DistanceMeters>55042.066756011</DistanceMeters>
          </Trackpoint>
          <Trackpoint>
            <Position>
              <LatitudeDegrees>50.19025</LatitudeDegrees>
              <LongitudeDegrees>16.877752</LongitudeDegrees>
            </Position>
            <AltitudeMeters>984.0</AltitudeMeters>
            <DistanceMeters>55044.522787579</DistanceMeters>
          </Trackpoint>
          <Trackpoint>
            <Position>
              <LatitudeDegrees>50.19024</LatitudeDegrees>
              <LongitudeDegrees>16.877778</LongitudeDegrees>
            </Position>
            <AltitudeMeters>984.0</AltitudeMeters>
            <DistanceMeters>55046.685558857</DistanceMeters>
          </Trackpoint>
          <Trackpoint>
            <Position>
              <LatitudeDegrees>50.190225</LatitudeDegrees>
              <LongitudeDegrees>16.87781</LongitudeDegrees>
            </Position>
            <AltitudeMeters>984.0</AltitudeMeters>
            <DistanceMeters>55049.512503789</DistanceMeters>
          </Trackpoint>
          <Trackpoint>
            <Position>
              <LatitudeDegrees>50.190213</LatitudeDegrees>
              <LongitudeDegrees>16.877837</LongitudeDegrees>
            </Position>
            <AltitudeMeters>984.0</AltitudeMeters>
            <DistanceMeters>55051.855639824</DistanceMeters>
          </Trackpoint>
          <Trackpoint>
            <Position>
              <LatitudeDegrees>50.190195</LatitudeDegrees>
              <LongitudeDegrees>16.877862</LongitudeDegrees>
            </Position>
            <AltitudeMeters>985.0</AltitudeMeters>
            <DistanceMeters>55054.536673365</DistanceMeters>
          </Trackpoint>
          <Trackpoint>
            <Position>
              <LatitudeDegrees>50.190173</LatitudeDegrees>
              <LongitudeDegrees>16.87788</LongitudeDegrees>
            </Position>
            <AltitudeMeters>985.0</AltitudeMeters>
            <DistanceMeters>55057.3006279</DistanceMeters>
          </Trackpoint>
          <Trackpoint>
            <Position>
              <LatitudeDegrees>50.190157</LatitudeDegrees>
              <LongitudeDegrees>16.8779</LongitudeDegrees>
            </Position>
            <AltitudeMeters>985.0</AltitudeMeters>
            <DistanceMeters>55059.58324791</DistanceMeters>
          </Trackpoint>
          <Trackpoint>
            <Position>
              <LatitudeDegrees>50.19014</LatitudeDegrees>
              <LongitudeDegrees>16.877922</LongitudeDegrees>
            </Position>
            <AltitudeMeters>985.0</AltitudeMeters>
            <DistanceMeters>55062.039279478</DistanceMeters>
          </Trackpoint>
          <Trackpoint>
            <Position>
              <LatitudeDegrees>50.190113</LatitudeDegrees>
              <LongitudeDegrees>16.877947</LongitudeDegrees>
            </Position>
            <AltitudeMeters>985.0</AltitudeMeters>
            <DistanceMeters>55065.533369253</DistanceMeters>
          </Trackpoint>
          <Trackpoint>
            <Position>
              <LatitudeDegrees>50.190035</LatitudeDegrees>
              <LongitudeDegrees>16.878027</LongitudeDegrees>
            </Position>
            <AltitudeMeters>985.0</AltitudeMeters>
            <DistanceMeters>55075.919141401</DistanceMeters>
          </Trackpoint>
          <Trackpoint>
            <Position>
              <LatitudeDegrees>50.189957</LatitudeDegrees>
              <LongitudeDegrees>16.87811</LongitudeDegrees>
            </Position>
            <AltitudeMeters>985.0</AltitudeMeters>
            <DistanceMeters>55086.423784858</DistanceMeters>
          </Trackpoint>
          <Trackpoint>
            <Position>
              <LatitudeDegrees>50.189925</LatitudeDegrees>
              <LongitudeDegrees>16.878142</LongitudeDegrees>
            </Position>
            <AltitudeMeters>986.0</AltitudeMeters>
            <DistanceMeters>55090.65220671</DistanceMeters>
          </Trackpoint>
          <Trackpoint>
            <Position>
              <LatitudeDegrees>50.189907</LatitudeDegrees>
              <LongitudeDegrees>16.878162</LongitudeDegrees>
            </Position>
            <AltitudeMeters>986.0</AltitudeMeters>
            <DistanceMeters>55093.110075938</DistanceMeters>
          </Trackpoint>
          <Trackpoint>
            <Position>
              <LatitudeDegrees>50.189863</LatitudeDegrees>
              <LongitudeDegrees>16.878203</LongitudeDegrees>
            </Position>
            <AltitudeMeters>987.0</AltitudeMeters>
            <DistanceMeters>55098.812470634</DistanceMeters>
          </Trackpoint>
          <Trackpoint>
            <Position>
              <LatitudeDegrees>50.189825</LatitudeDegrees>
              <LongitudeDegrees>16.878247</LongitudeDegrees>
            </Position>
            <AltitudeMeters>985.0</AltitudeMeters>
            <DistanceMeters>55104.07767098</DistanceMeters>
          </Trackpoint>
          <Trackpoint>
            <Position>
              <LatitudeDegrees>50.189808</LatitudeDegrees>
              <LongitudeDegrees>16.878267</LongitudeDegrees>
            </Position>
            <AltitudeMeters>985.0</AltitudeMeters>
            <DistanceMeters>55106.447630378</DistanceMeters>
          </Trackpoint>
          <Trackpoint>
            <Position>
              <LatitudeDegrees>50.189795</LatitudeDegrees>
              <LongitudeDegrees>16.878285</LongitudeDegrees>
            </Position>
            <AltitudeMeters>985.0</AltitudeMeters>
            <DistanceMeters>55108.38113798</DistanceMeters>
          </Trackpoint>
          <Trackpoint>
            <Position>
              <LatitudeDegrees>50.18972</LatitudeDegrees>
              <LongitudeDegrees>16.878367</LongitudeDegrees>
            </Position>
            <AltitudeMeters>985.0</AltitudeMeters>
            <DistanceMeters>55118.57073164</DistanceMeters>
          </Trackpoint>
          <Trackpoint>
            <Position>
              <LatitudeDegrees>50.189642</LatitudeDegrees>
              <LongitudeDegrees>16.878467</LongitudeDegrees>
            </Position>
            <AltitudeMeters>986.0</AltitudeMeters>
            <DistanceMeters>55129.80239082</DistanceMeters>
          </Trackpoint>
          <Trackpoint>
            <Position>
              <LatitudeDegrees>50.189552</LatitudeDegrees>
              <LongitudeDegrees>16.878548</LongitudeDegrees>
            </Position>
            <AltitudeMeters>985.0</AltitudeMeters>
            <DistanceMeters>55141.363280121</DistanceMeters>
          </Trackpoint>
          <Trackpoint>
            <Position>
              <LatitudeDegrees>50.1895</LatitudeDegrees>
              <LongitudeDegrees>16.878625</LongitudeDegrees>
            </Position>
            <AltitudeMeters>988.0</AltitudeMeters>
            <DistanceMeters>55149.338733618</DistanceMeters>
          </Trackpoint>
          <Trackpoint>
            <Position>
              <LatitudeDegrees>50.189485</LatitudeDegrees>
              <LongitudeDegrees>16.878648</LongitudeDegrees>
            </Position>
            <AltitudeMeters>988.0</AltitudeMeters>
            <DistanceMeters>55151.678012636</DistanceMeters>
          </Trackpoint>
          <Trackpoint>
            <Position>
              <LatitudeDegrees>50.189472</LatitudeDegrees>
              <LongitudeDegrees>16.878672</LongitudeDegrees>
            </Position>
            <AltitudeMeters>989.0</AltitudeMeters>
            <DistanceMeters>55153.918709515</DistanceMeters>
          </Trackpoint>
          <Trackpoint>
            <Position>
              <LatitudeDegrees>50.189452</LatitudeDegrees>
              <LongitudeDegrees>16.87869</LongitudeDegrees>
            </Position>
            <AltitudeMeters>989.0</AltitudeMeters>
            <DistanceMeters>55156.489704644</DistanceMeters>
          </Trackpoint>
          <Trackpoint>
            <Position>
              <LatitudeDegrees>50.189425</LatitudeDegrees>
              <LongitudeDegrees>16.878717</LongitudeDegrees>
            </Position>
            <AltitudeMeters>988.0</AltitudeMeters>
            <DistanceMeters>55160.060484383</DistanceMeters>
          </Trackpoint>
          <Trackpoint>
            <Position>
              <LatitudeDegrees>50.189405</LatitudeDegrees>
              <LongitudeDegrees>16.878733</LongitudeDegrees>
            </Position>
            <AltitudeMeters>987.0</AltitudeMeters>
            <DistanceMeters>55162.560246951</DistanceMeters>
          </Trackpoint>
          <Trackpoint>
            <Position>
              <LatitudeDegrees>50.189385</LatitudeDegrees>
              <LongitudeDegrees>16.878743</LongitudeDegrees>
            </Position>
            <AltitudeMeters>988.0</AltitudeMeters>
            <DistanceMeters>55164.895662583</DistanceMeters>
          </Trackpoint>
          <Trackpoint>
            <Position>
              <LatitudeDegrees>50.189365</LatitudeDegrees>
              <LongitudeDegrees>16.87877</LongitudeDegrees>
            </Position>
            <AltitudeMeters>988.0</AltitudeMeters>
            <DistanceMeters>55167.836889067</DistanceMeters>
          </Trackpoint>
          <Trackpoint>
            <Position>
              <LatitudeDegrees>50.189347</LatitudeDegrees>
              <LongitudeDegrees>16.878798</LongitudeDegrees>
            </Position>
            <AltitudeMeters>988.0</AltitudeMeters>
            <DistanceMeters>55170.665430693</DistanceMeters>
          </Trackpoint>
          <Trackpoint>
            <Position>
              <LatitudeDegrees>50.189327</LatitudeDegrees>
              <LongitudeDegrees>16.878822</LongitudeDegrees>
            </Position>
            <AltitudeMeters>988.0</AltitudeMeters>
            <DistanceMeters>55173.47153594</DistanceMeters>
          </Trackpoint>
          <Trackpoint>
            <Position>
              <LatitudeDegrees>50.189305</LatitudeDegrees>
              <LongitudeDegrees>16.878842</LongitudeDegrees>
            </Position>
            <AltitudeMeters>988.0</AltitudeMeters>
            <DistanceMeters>55176.306455346</DistanceMeters>
          </Trackpoint>
          <Trackpoint>
            <Position>
              <LatitudeDegrees>50.189282</LatitudeDegrees>
              <LongitudeDegrees>16.878863</LongitudeDegrees>
            </Position>
            <AltitudeMeters>988.0</AltitudeMeters>
            <DistanceMeters>55179.272141515</DistanceMeters>
          </Trackpoint>
          <Trackpoint>
            <Position>
              <LatitudeDegrees>50.189267</LatitudeDegrees>
              <LongitudeDegrees>16.878898</LongitudeDegrees>
            </Position>
            <AltitudeMeters>988.0</AltitudeMeters>
            <DistanceMeters>55182.271134036</DistanceMeters>
          </Trackpoint>
          <Trackpoint>
            <Position>
              <LatitudeDegrees>50.189173</LatitudeDegrees>
              <LongitudeDegrees>16.87891</LongitudeDegrees>
            </Position>
            <AltitudeMeters>990.0</AltitudeMeters>
            <DistanceMeters>55192.768037997</DistanceMeters>
          </Trackpoint>
          <Trackpoint>
            <Position>
              <LatitudeDegrees>50.189122</LatitudeDegrees>
              <LongitudeDegrees>16.878992</LongitudeDegrees>
            </Position>
            <AltitudeMeters>989.0</AltitudeMeters>
            <DistanceMeters>55200.914327446</DistanceMeters>
          </Trackpoint>
          <Trackpoint>
            <Position>
              <LatitudeDegrees>50.189097</LatitudeDegrees>
              <LongitudeDegrees>16.879013</LongitudeDegrees>
            </Position>
            <AltitudeMeters>989.0</AltitudeMeters>
            <DistanceMeters>55204.074590813</DistanceMeters>
          </Trackpoint>
          <Trackpoint>
            <Position>
              <LatitudeDegrees>50.189077</LatitudeDegrees>
              <LongitudeDegrees>16.879022</LongitudeDegrees>
            </Position>
            <AltitudeMeters>989.0</AltitudeMeters>
            <DistanceMeters>55206.392541521</DistanceMeters>
          </Trackpoint>
          <Trackpoint>
            <Position>
              <LatitudeDegrees>50.189057</LatitudeDegrees>
              <LongitudeDegrees>16.879028</LongitudeDegrees>
            </Position>
            <AltitudeMeters>989.0</AltitudeMeters>
            <DistanceMeters>55208.657289502</DistanceMeters>
          </Trackpoint>
          <Trackpoint>
            <Position>
              <LatitudeDegrees>50.189037</LatitudeDegrees>
              <LongitudeDegrees>16.87904</LongitudeDegrees>
            </Position>
            <AltitudeMeters>989.0</AltitudeMeters>
            <DistanceMeters>55211.042441103</DistanceMeters>
          </Trackpoint>
          <Trackpoint>
            <Position>
              <LatitudeDegrees>50.189012</LatitudeDegrees>
              <LongitudeDegrees>16.879063</LongitudeDegrees>
            </Position>
            <AltitudeMeters>989.0</AltitudeMeters>
            <DistanceMeters>55214.271951638</DistanceMeters>
          </Trackpoint>
          <Trackpoint>
            <Position>
              <LatitudeDegrees>50.188987</LatitudeDegrees>
              <LongitudeDegrees>16.879088</LongitudeDegrees>
            </Position>
            <AltitudeMeters>989.0</AltitudeMeters>
            <DistanceMeters>55217.577461053</DistanceMeters>
          </Trackpoint>
          <Trackpoint>
            <Position>
              <LatitudeDegrees>50.188962</LatitudeDegrees>
              <LongitudeDegrees>16.879115</LongitudeDegrees>
            </Position>
            <AltitudeMeters>989.0</AltitudeMeters>
            <DistanceMeters>55220.96126615</DistanceMeters>
          </Trackpoint>
          <Trackpoint>
            <Position>
              <LatitudeDegrees>50.188935</LatitudeDegrees>
              <LongitudeDegrees>16.879137</LongitudeDegrees>
            </Position>
            <AltitudeMeters>989.0</AltitudeMeters>
            <DistanceMeters>55224.350404276</DistanceMeters>
          </Trackpoint>
          <Trackpoint>
            <Position>
              <LatitudeDegrees>50.18891</LatitudeDegrees>
              <LongitudeDegrees>16.87915</LongitudeDegrees>
            </Position>
            <AltitudeMeters>989.0</AltitudeMeters>
            <DistanceMeters>55227.280865451</DistanceMeters>
          </Trackpoint>
          <Trackpoint>
            <Position>
              <LatitudeDegrees>50.188885</LatitudeDegrees>
              <LongitudeDegrees>16.879163</LongitudeDegrees>
            </Position>
            <AltitudeMeters>990.0</AltitudeMeters>
            <DistanceMeters>55230.212866947</DistanceMeters>
          </Trackpoint>
          <Trackpoint>
            <Position>
              <LatitudeDegrees>50.188865</LatitudeDegrees>
              <LongitudeDegrees>16.879173</LongitudeDegrees>
            </Position>
            <AltitudeMeters>990.0</AltitudeMeters>
            <DistanceMeters>55232.548282579</DistanceMeters>
          </Trackpoint>
          <Trackpoint>
            <Position>
              <LatitudeDegrees>50.188847</LatitudeDegrees>
              <LongitudeDegrees>16.879182</LongitudeDegrees>
            </Position>
            <AltitudeMeters>990.0</AltitudeMeters>
            <DistanceMeters>55234.651788571</DistanceMeters>
          </Trackpoint>
          <Trackpoint>
            <Position>
              <LatitudeDegrees>50.188828</LatitudeDegrees>
              <LongitudeDegrees>16.879198</LongitudeDegrees>
            </Position>
            <AltitudeMeters>990.0</AltitudeMeters>
            <DistanceMeters>55237.052036219</DistanceMeters>
          </Trackpoint>
          <Trackpoint>
            <Position>
              <LatitudeDegrees>50.188808</LatitudeDegrees>
              <LongitudeDegrees>16.879212</LongitudeDegrees>
            </Position>
            <AltitudeMeters>990.0</AltitudeMeters>
            <DistanceMeters>55239.491466557</DistanceMeters>
          </Trackpoint>
          <Trackpoint>
            <Position>
              <LatitudeDegrees>50.188787</LatitudeDegrees>
              <LongitudeDegrees>16.879223</LongitudeDegrees>
            </Position>
            <AltitudeMeters>991.0</AltitudeMeters>
            <DistanceMeters>55241.956672724</DistanceMeters>
          </Trackpoint>
          <Trackpoint>
            <Position>
              <LatitudeDegrees>50.188765</LatitudeDegrees>
              <LongitudeDegrees>16.879232</LongitudeDegrees>
            </Position>
            <AltitudeMeters>991.0</AltitudeMeters>
            <DistanceMeters>55244.486954171</DistanceMeters>
          </Trackpoint>
          <Trackpoint>
            <Position>
              <LatitudeDegrees>50.188738</LatitudeDegrees>
              <LongitudeDegrees>16.87925</LongitudeDegrees>
            </Position>
            <AltitudeMeters>991.0</AltitudeMeters>
            <DistanceMeters>55247.75399417</DistanceMeters>
          </Trackpoint>
          <Trackpoint>
            <Position>
              <LatitudeDegrees>50.188712</LatitudeDegrees>
              <LongitudeDegrees>16.879265</LongitudeDegrees>
            </Position>
            <AltitudeMeters>991.0</AltitudeMeters>
            <DistanceMeters>55250.839071247</DistanceMeters>
          </Trackpoint>
          <Trackpoint>
            <Position>
              <LatitudeDegrees>50.188688</LatitudeDegrees>
              <LongitudeDegrees>16.879277</LongitudeDegrees>
            </Position>
            <AltitudeMeters>991.0</AltitudeMeters>
            <DistanceMeters>55253.645176495</DistanceMeters>
          </Trackpoint>
          <Trackpoint>
            <Position>
              <LatitudeDegrees>50.188665</LatitudeDegrees>
              <LongitudeDegrees>16.879297</LongitudeDegrees>
            </Position>
            <AltitudeMeters>991.0</AltitudeMeters>
            <DistanceMeters>55256.57563767</DistanceMeters>
          </Trackpoint>
          <Trackpoint>
            <Position>
              <LatitudeDegrees>50.188638</LatitudeDegrees>
              <LongitudeDegrees>16.879313</LongitudeDegrees>
            </Position>
            <AltitudeMeters>991.0</AltitudeMeters>
            <DistanceMeters>55259.789732791</DistanceMeters>
          </Trackpoint>
          <Trackpoint>
            <Position>
              <LatitudeDegrees>50.18862</LatitudeDegrees>
              <LongitudeDegrees>16.879318</LongitudeDegrees>
            </Position>
            <AltitudeMeters>991.0</AltitudeMeters>
            <DistanceMeters>55261.82561223</DistanceMeters>
          </Trackpoint>
          <Trackpoint>
            <Position>
              <LatitudeDegrees>50.188597</LatitudeDegrees>
              <LongitudeDegrees>16.879333</LongitudeDegrees>
            </Position>
            <AltitudeMeters>991.0</AltitudeMeters>
            <DistanceMeters>55264.599350705</DistanceMeters>
          </Trackpoint>
          <Trackpoint>
            <Position>
              <LatitudeDegrees>50.188575</LatitudeDegrees>
              <LongitudeDegrees>16.87934</LongitudeDegrees>
            </Position>
            <AltitudeMeters>991.0</AltitudeMeters>
            <DistanceMeters>55267.099113274</DistanceMeters>
          </Trackpoint>
          <Trackpoint>
            <Position>
              <LatitudeDegrees>50.188555</LatitudeDegrees>
              <LongitudeDegrees>16.879355</LongitudeDegrees>
            </Position>
            <AltitudeMeters>992.0</AltitudeMeters>
            <DistanceMeters>55269.566150266</DistanceMeters>
          </Trackpoint>
          <Trackpoint>
            <Position>
              <LatitudeDegrees>50.188532</LatitudeDegrees>
              <LongitudeDegrees>16.879367</LongitudeDegrees>
            </Position>
            <AltitudeMeters>991.0</AltitudeMeters>
            <DistanceMeters>55272.265644977</DistanceMeters>
          </Trackpoint>
          <Trackpoint>
            <Position>
              <LatitudeDegrees>50.188503</LatitudeDegrees>
              <LongitudeDegrees>16.879373</LongitudeDegrees>
            </Position>
            <AltitudeMeters>991.0</AltitudeMeters>
            <DistanceMeters>55275.521610232</DistanceMeters>
          </Trackpoint>
          <Trackpoint>
            <Position>
              <LatitudeDegrees>50.188485</LatitudeDegrees>
              <LongitudeDegrees>16.879377</LongitudeDegrees>
            </Position>
            <AltitudeMeters>992.0</AltitudeMeters>
            <DistanceMeters>55277.546370639</DistanceMeters>
          </Trackpoint>
          <Trackpoint>
            <Position>
              <LatitudeDegrees>50.188382</LatitudeDegrees>
              <LongitudeDegrees>16.879422</LongitudeDegrees>
            </Position>
            <AltitudeMeters>992.0</AltitudeMeters>
            <DistanceMeters>55289.450908417</DistanceMeters>
          </Trackpoint>
          <Trackpoint>
            <Position>
              <LatitudeDegrees>50.188288</LatitudeDegrees>
              <LongitudeDegrees>16.879463</LongitudeDegrees>
            </Position>
            <AltitudeMeters>993.0</AltitudeMeters>
            <DistanceMeters>55300.313920843</DistanceMeters>
          </Trackpoint>
          <Trackpoint>
            <Position>
              <LatitudeDegrees>50.188183</LatitudeDegrees>
              <LongitudeDegrees>16.879477</LongitudeDegrees>
            </Position>
            <AltitudeMeters>993.0</AltitudeMeters>
            <DistanceMeters>55312.043466644</DistanceMeters>
          </Trackpoint>
          <Trackpoint>
            <Position>
              <LatitudeDegrees>50.188095</LatitudeDegrees>
              <LongitudeDegrees>16.879517</LongitudeDegrees>
            </Position>
            <AltitudeMeters>993.0</AltitudeMeters>
            <DistanceMeters>55322.244574474</DistanceMeters>
          </Trackpoint>
          <Trackpoint>
            <Position>
              <LatitudeDegrees>50.188007</LatitudeDegrees>
              <LongitudeDegrees>16.879467</LongitudeDegrees>
            </Position>
            <AltitudeMeters>993.0</AltitudeMeters>
            <DistanceMeters>55332.666800222</DistanceMeters>
          </Trackpoint>
          <Trackpoint>
            <Position>
              <LatitudeDegrees>50.1879</LatitudeDegrees>
              <LongitudeDegrees>16.879467</LongitudeDegrees>
            </Position>
            <AltitudeMeters>993.0</AltitudeMeters>
            <DistanceMeters>55344.575888374</DistanceMeters>
          </Trackpoint>
          <Trackpoint>
            <Position>
              <LatitudeDegrees>50.187822</LatitudeDegrees>
              <LongitudeDegrees>16.879378</LongitudeDegrees>
            </Position>
            <AltitudeMeters>993.0</AltitudeMeters>
            <DistanceMeters>55355.327353789</DistanceMeters>
          </Trackpoint>
          <Trackpoint>
            <Position>
              <LatitudeDegrees>50.187735</LatitudeDegrees>
              <LongitudeDegrees>16.879348</LongitudeDegrees>
            </Position>
            <AltitudeMeters>996.0</AltitudeMeters>
            <DistanceMeters>55365.243426721</DistanceMeters>
          </Trackpoint>
          <Trackpoint>
            <Position>
              <LatitudeDegrees>50.187647</LatitudeDegrees>
              <LongitudeDegrees>16.879277</LongitudeDegrees>
            </Position>
            <AltitudeMeters>995.0</AltitudeMeters>
            <DistanceMeters>55376.267344753</DistanceMeters>
          </Trackpoint>
          <Trackpoint>
            <Position>
              <LatitudeDegrees>50.187567</LatitudeDegrees>
              <LongitudeDegrees>16.879353</LongitudeDegrees>
            </Position>
            <AltitudeMeters>995.0</AltitudeMeters>
            <DistanceMeters>55386.68913728</DistanceMeters>
          </Trackpoint>
          <Trackpoint>
            <Position>
              <LatitudeDegrees>50.187482</LatitudeDegrees>
              <LongitudeDegrees>16.879408</LongitudeDegrees>
            </Position>
            <AltitudeMeters>995.0</AltitudeMeters>
            <DistanceMeters>55396.929120076</DistanceMeters>
          </Trackpoint>
          <Trackpoint>
            <Position>
              <LatitudeDegrees>50.187392</LatitudeDegrees>
              <LongitudeDegrees>16.879355</LongitudeDegrees>
            </Position>
            <AltitudeMeters>997.0</AltitudeMeters>
            <DistanceMeters>55407.634713485</DistanceMeters>
          </Trackpoint>
          <Trackpoint>
            <Position>
              <LatitudeDegrees>50.187315</LatitudeDegrees>
              <LongitudeDegrees>16.879267</LongitudeDegrees>
            </Position>
            <AltitudeMeters>996.0</AltitudeMeters>
            <DistanceMeters>55418.254772561</DistanceMeters>
          </Trackpoint>
          <Trackpoint>
            <Position>
              <LatitudeDegrees>50.187257</LatitudeDegrees>
              <LongitudeDegrees>16.879212</LongitudeDegrees>
            </Position>
            <AltitudeMeters>997.0</AltitudeMeters>
            <DistanceMeters>55425.806855904</DistanceMeters>
          </Trackpoint>
          <Trackpoint>
            <Position>
              <LatitudeDegrees>50.187167</LatitudeDegrees>
              <LongitudeDegrees>16.879175</LongitudeDegrees>
            </Position>
            <AltitudeMeters>997.0</AltitudeMeters>
            <DistanceMeters>55436.165203664</DistanceMeters>
          </Trackpoint>
          <Trackpoint>
            <Position>
              <LatitudeDegrees>50.187072</LatitudeDegrees>
              <LongitudeDegrees>16.879143</LongitudeDegrees>
            </Position>
            <AltitudeMeters>996.0</AltitudeMeters>
            <DistanceMeters>55446.981982319</DistanceMeters>
          </Trackpoint>
          <Trackpoint>
            <Position>
              <LatitudeDegrees>50.186972</LatitudeDegrees>
              <LongitudeDegrees>16.879102</LongitudeDegrees>
            </Position>
            <AltitudeMeters>998.0</AltitudeMeters>
            <DistanceMeters>55458.489242678</DistanceMeters>
          </Trackpoint>
          <Trackpoint>
            <Position>
              <LatitudeDegrees>50.186885</LatitudeDegrees>
              <LongitudeDegrees>16.879043</LongitudeDegrees>
            </Position>
            <AltitudeMeters>999.0</AltitudeMeters>
            <DistanceMeters>55469.045337757</DistanceMeters>
          </Trackpoint>
          <Trackpoint>
            <Position>
              <LatitudeDegrees>50.186825</LatitudeDegrees>
              <LongitudeDegrees>16.878918</LongitudeDegrees>
            </Position>
            <AltitudeMeters>998.0</AltitudeMeters>
            <DistanceMeters>55480.178478791</DistanceMeters>
          </Trackpoint>
          <Trackpoint>
            <Position>
              <LatitudeDegrees>50.186747</LatitudeDegrees>
              <LongitudeDegrees>16.878835</LongitudeDegrees>
            </Position>
            <AltitudeMeters>998.0</AltitudeMeters>
            <DistanceMeters>55490.683981839</DistanceMeters>
          </Trackpoint>
          <Trackpoint>
            <Position>
              <LatitudeDegrees>50.186655</LatitudeDegrees>
              <LongitudeDegrees>16.878778</LongitudeDegrees>
            </Position>
            <AltitudeMeters>998.0</AltitudeMeters>
            <DistanceMeters>55501.699705476</DistanceMeters>
          </Trackpoint>
          <Trackpoint>
            <Position>
              <LatitudeDegrees>50.18659</LatitudeDegrees>
              <LongitudeDegrees>16.878672</LongitudeDegrees>
            </Position>
            <AltitudeMeters>999.0</AltitudeMeters>
            <DistanceMeters>55512.158689464</DistanceMeters>
          </Trackpoint>
          <Trackpoint>
            <Position>
              <LatitudeDegrees>50.186577</LatitudeDegrees>
              <LongitudeDegrees>16.878608</LongitudeDegrees>
            </Position>
            <AltitudeMeters>998.0</AltitudeMeters>
            <DistanceMeters>55516.942225155</DistanceMeters>
          </Trackpoint>
          <Trackpoint>
            <Position>
              <LatitudeDegrees>50.186563</LatitudeDegrees>
              <LongitudeDegrees>16.878538</LongitudeDegrees>
            </Position>
            <AltitudeMeters>998.0</AltitudeMeters>
            <DistanceMeters>55522.168694445</DistanceMeters>
          </Trackpoint>
          <Trackpoint>
            <Position>
              <LatitudeDegrees>50.186545</LatitudeDegrees>
              <LongitudeDegrees>16.878532</LongitudeDegrees>
            </Position>
            <AltitudeMeters>999.0</AltitudeMeters>
            <DistanceMeters>55524.215632517</DistanceMeters>
          </Trackpoint>
          <Trackpoint>
            <Position>
              <LatitudeDegrees>50.186542</LatitudeDegrees>
              <LongitudeDegrees>16.878503</LongitudeDegrees>
            </Position>
            <AltitudeMeters>999.0</AltitudeMeters>
            <DistanceMeters>55526.310535176</DistanceMeters>
          </Trackpoint>
          <Trackpoint>
            <Position>
              <LatitudeDegrees>50.186533</LatitudeDegrees>
              <LongitudeDegrees>16.878473</LongitudeDegrees>
            </Position>
            <AltitudeMeters>999.0</AltitudeMeters>
            <DistanceMeters>55528.672861835</DistanceMeters>
          </Trackpoint>
          <Trackpoint>
            <Position>
              <LatitudeDegrees>50.18652</LatitudeDegrees>
              <LongitudeDegrees>16.878437</LongitudeDegrees>
            </Position>
            <AltitudeMeters>999.0</AltitudeMeters>
            <DistanceMeters>55531.61868998</DistanceMeters>
          </Trackpoint>
          <Trackpoint>
            <Position>
              <LatitudeDegrees>50.18651</LatitudeDegrees>
              <LongitudeDegrees>16.878402</LongitudeDegrees>
            </Position>
            <AltitudeMeters>999.0</AltitudeMeters>
            <DistanceMeters>55534.349778251</DistanceMeters>
          </Trackpoint>
          <Trackpoint>
            <Position>
              <LatitudeDegrees>50.186502</LatitudeDegrees>
              <LongitudeDegrees>16.878365</LongitudeDegrees>
            </Position>
            <AltitudeMeters>1000.0</AltitudeMeters>
            <DistanceMeters>55537.133266277</DistanceMeters>
          </Trackpoint>
          <Trackpoint>
            <Position>
              <LatitudeDegrees>50.186487</LatitudeDegrees>
              <LongitudeDegrees>16.878328</LongitudeDegrees>
            </Position>
            <AltitudeMeters>1000.0</AltitudeMeters>
            <DistanceMeters>55540.253269868</DistanceMeters>
          </Trackpoint>
          <Trackpoint>
            <Position>
              <LatitudeDegrees>50.186437</LatitudeDegrees>
              <LongitudeDegrees>16.878168</LongitudeDegrees>
            </Position>
            <AltitudeMeters>1000.0</AltitudeMeters>
            <DistanceMeters>55552.941382526</DistanceMeters>
          </Trackpoint>
          <Trackpoint>
            <Position>
              <LatitudeDegrees>50.186453</LatitudeDegrees>
              <LongitudeDegrees>16.87802</LongitudeDegrees>
            </Position>
            <AltitudeMeters>1001.0</AltitudeMeters>
            <DistanceMeters>55563.637693505</DistanceMeters>
          </Trackpoint>
          <Trackpoint>
            <Position>
              <LatitudeDegrees>50.186415</LatitudeDegrees>
              <LongitudeDegrees>16.877938</LongitudeDegrees>
            </Position>
            <AltitudeMeters>998.0</AltitudeMeters>
            <DistanceMeters>55570.850966026</DistanceMeters>
          </Trackpoint>
          <Trackpoint>
            <Position>
              <LatitudeDegrees>50.186407</LatitudeDegrees>
              <LongitudeDegrees>16.877913</LongitudeDegrees>
            </Position>
            <AltitudeMeters>998.0</AltitudeMeters>
            <DistanceMeters>55572.844263203</DistanceMeters>
          </Trackpoint>
          <Trackpoint>
            <Position>
              <LatitudeDegrees>50.186398</LatitudeDegrees>
              <LongitudeDegrees>16.877883</LongitudeDegrees>
            </Position>
            <AltitudeMeters>998.0</AltitudeMeters>
            <DistanceMeters>55575.206589862</DistanceMeters>
          </Trackpoint>
          <Trackpoint>
            <Position>
              <LatitudeDegrees>50.186393</LatitudeDegrees>
              <LongitudeDegrees>16.877852</LongitudeDegrees>
            </Position>
            <AltitudeMeters>1000.0</AltitudeMeters>
            <DistanceMeters>55577.485250423</DistanceMeters>
          </Trackpoint>
          <Trackpoint>
            <Position>
              <LatitudeDegrees>50.186387</LatitudeDegrees>
              <LongitudeDegrees>16.877825</LongitudeDegrees>
            </Position>
            <AltitudeMeters>1000.0</AltitudeMeters>
            <DistanceMeters>55579.518910919</DistanceMeters>
          </Trackpoint>
          <Trackpoint>
            <Position>
              <LatitudeDegrees>50.186373</LatitudeDegrees>
              <LongitudeDegrees>16.877797</LongitudeDegrees>
            </Position>
            <AltitudeMeters>1001.0</AltitudeMeters>
            <DistanceMeters>55582.049192366</DistanceMeters>
          </Trackpoint>
          <Trackpoint>
            <Position>
              <LatitudeDegrees>50.186367</LatitudeDegrees>
              <LongitudeDegrees>16.877755</LongitudeDegrees>
            </Position>
            <AltitudeMeters>1001.0</AltitudeMeters>
            <DistanceMeters>55585.115184795</DistanceMeters>
          </Trackpoint>
          <Trackpoint>
            <Position>
              <LatitudeDegrees>50.18636</LatitudeDegrees>
              <LongitudeDegrees>16.877717</LongitudeDegrees>
            </Position>
            <AltitudeMeters>1001.0</AltitudeMeters>
            <DistanceMeters>55587.932530566</DistanceMeters>
          </Trackpoint>
          <Trackpoint>
            <Position>
              <LatitudeDegrees>50.186355</LatitudeDegrees>
              <LongitudeDegrees>16.877683</LongitudeDegrees>
            </Position>
            <AltitudeMeters>1001.0</AltitudeMeters>
            <DistanceMeters>55590.415984253</DistanceMeters>
          </Trackpoint>
          <Trackpoint>
            <Position>
              <LatitudeDegrees>50.186345</LatitudeDegrees>
              <LongitudeDegrees>16.877655</LongitudeDegrees>
            </Position>
            <AltitudeMeters>1001.0</AltitudeMeters>
            <DistanceMeters>55592.700581413</DistanceMeters>
          </Trackpoint>
          <Trackpoint>
            <Position>
              <LatitudeDegrees>50.186335</LatitudeDegrees>
              <LongitudeDegrees>16.877625</LongitudeDegrees>
            </Position>
            <AltitudeMeters>1001.0</AltitudeMeters>
            <DistanceMeters>55595.11208908</DistanceMeters>
          </Trackpoint>
          <Trackpoint>
            <Position>
              <LatitudeDegrees>50.186327</LatitudeDegrees>
              <LongitudeDegrees>16.877593</LongitudeDegrees>
            </Position>
            <AltitudeMeters>1001.0</AltitudeMeters>
            <DistanceMeters>55597.562599402</DistanceMeters>
          </Trackpoint>
          <Trackpoint>
            <Position>
              <LatitudeDegrees>50.18632</LatitudeDegrees>
              <LongitudeDegrees>16.877558</LongitudeDegrees>
            </Position>
            <AltitudeMeters>1001.0</AltitudeMeters>
            <DistanceMeters>55600.175402071</DistanceMeters>
          </Trackpoint>
          <Trackpoint>
            <Position>
              <LatitudeDegrees>50.186308</LatitudeDegrees>
              <LongitudeDegrees>16.87752</LongitudeDegrees>
            </Position>
            <AltitudeMeters>1002.0</AltitudeMeters>
            <DistanceMeters>55603.19390288</DistanceMeters>
          </Trackpoint>
          <Trackpoint>
            <Position>
              <LatitudeDegrees>50.186298</LatitudeDegrees>
              <LongitudeDegrees>16.877487</LongitudeDegrees>
            </Position>
            <AltitudeMeters>1002.0</AltitudeMeters>
            <DistanceMeters>55605.79458111</DistanceMeters>
          </Trackpoint>
          <Trackpoint>
            <Position>
              <LatitudeDegrees>50.186288</LatitudeDegrees>
              <LongitudeDegrees>16.877465</LongitudeDegrees>
            </Position>
            <AltitudeMeters>1002.0</AltitudeMeters>
            <DistanceMeters>55607.716377474</DistanceMeters>
          </Trackpoint>
          <Trackpoint>
            <Position>
              <LatitudeDegrees>50.186233</LatitudeDegrees>
              <LongitudeDegrees>16.877345</LongitudeDegrees>
            </Position>
            <AltitudeMeters>1003.0</AltitudeMeters>
            <DistanceMeters>55618.233048824</DistanceMeters>
          </Trackpoint>
          <Trackpoint>
            <Position>
              <LatitudeDegrees>50.186167</LatitudeDegrees>
              <LongitudeDegrees>16.877247</LongitudeDegrees>
            </Position>
            <AltitudeMeters>1003.0</AltitudeMeters>
            <DistanceMeters>55628.369330676</DistanceMeters>
          </Trackpoint>
          <Trackpoint>
            <Position>
              <LatitudeDegrees>50.186142</LatitudeDegrees>
              <LongitudeDegrees>16.877097</LongitudeDegrees>
            </Position>
            <AltitudeMeters>1004.0</AltitudeMeters>
            <DistanceMeters>55639.415751951</DistanceMeters>
          </Trackpoint>
          <Trackpoint>
            <Position>
              <LatitudeDegrees>50.186157</LatitudeDegrees>
              <LongitudeDegrees>16.87694</LongitudeDegrees>
            </Position>
            <AltitudeMeters>1004.0</AltitudeMeters>
            <DistanceMeters>55650.7283221</DistanceMeters>
          </Trackpoint>
          <Trackpoint>
            <Position>
              <LatitudeDegrees>50.186118</LatitudeDegrees>
              <LongitudeDegrees>16.876813</LongitudeDegrees>
            </Position>
            <AltitudeMeters>1004.0</AltitudeMeters>
            <DistanceMeters>55660.766130275</DistanceMeters>
          </Trackpoint>
          <Trackpoint>
            <Position>
              <LatitudeDegrees>50.186068</LatitudeDegrees>
              <LongitudeDegrees>16.876692</LongitudeDegrees>
            </Position>
            <AltitudeMeters>1005.0</AltitudeMeters>
            <DistanceMeters>55671.029015427</DistanceMeters>
          </Trackpoint>
          <Trackpoint>
            <Position>
              <LatitudeDegrees>50.186012</LatitudeDegrees>
              <LongitudeDegrees>16.876565</LongitudeDegrees>
            </Position>
            <AltitudeMeters>1008.0</AltitudeMeters>
            <DistanceMeters>55682.01847594</DistanceMeters>
          </Trackpoint>
          <Trackpoint>
            <Position>
              <LatitudeDegrees>50.186005</LatitudeDegrees>
              <LongitudeDegrees>16.876422</LongitudeDegrees>
            </Position>
            <AltitudeMeters>1010.0</AltitudeMeters>
            <DistanceMeters>55692.239481486</DistanceMeters>
          </Trackpoint>
          <Trackpoint>
            <Position>
              <LatitudeDegrees>50.185913</LatitudeDegrees>
              <LongitudeDegrees>16.876387</LongitudeDegrees>
            </Position>
            <AltitudeMeters>1010.0</AltitudeMeters>
            <DistanceMeters>55702.778453934</DistanceMeters>
          </Trackpoint>
          <Trackpoint>
            <Position>
              <LatitudeDegrees>50.18582</LatitudeDegrees>
              <LongitudeDegrees>16.876395</LongitudeDegrees>
            </Position>
            <AltitudeMeters>1011.0</AltitudeMeters>
            <DistanceMeters>55713.145080182</DistanceMeters>
          </Trackpoint>
          <Trackpoint>
            <Position>
              <LatitudeDegrees>50.185737</LatitudeDegrees>
              <LongitudeDegrees>16.876325</LongitudeDegrees>
            </Position>
            <AltitudeMeters>1010.0</AltitudeMeters>
            <DistanceMeters>55723.643704524</DistanceMeters>
          </Trackpoint>
          <Trackpoint>
            <Position>
              <LatitudeDegrees>50.185683</LatitudeDegrees>
              <LongitudeDegrees>16.876205</LongitudeDegrees>
            </Position>
            <AltitudeMeters>1011.0</AltitudeMeters>
            <DistanceMeters>55734.096643105</DistanceMeters>
          </Trackpoint>
          <Trackpoint>
            <Position>
              <LatitudeDegrees>50.185595</LatitudeDegrees>
              <LongitudeDegrees>16.876153</LongitudeDegrees>
            </Position>
            <AltitudeMeters>1010.0</AltitudeMeters>
            <DistanceMeters>55744.568569782</DistanceMeters>
          </Trackpoint>
          <Trackpoint>
            <Position>
              <LatitudeDegrees>50.185505</LatitudeDegrees>
              <LongitudeDegrees>16.876107</LongitudeDegrees>
            </Position>
            <AltitudeMeters>1010.0</AltitudeMeters>
            <DistanceMeters>55755.108399022</DistanceMeters>
          </Trackpoint>
          <Trackpoint>
            <Position>
              <LatitudeDegrees>50.18544</LatitudeDegrees>
              <LongitudeDegrees>16.876005</LongitudeDegrees>
            </Position>
            <AltitudeMeters>1010.0</AltitudeMeters>
            <DistanceMeters>55765.364682974</DistanceMeters>
          </Trackpoint>
          <Trackpoint>
            <Position>
              <LatitudeDegrees>50.185355</LatitudeDegrees>
              <LongitudeDegrees>16.875942</LongitudeDegrees>
            </Position>
            <AltitudeMeters>1010.0</AltitudeMeters>
            <DistanceMeters>55775.837040799</DistanceMeters>
          </Trackpoint>
          <Trackpoint>
            <Position>
              <LatitudeDegrees>50.185258</LatitudeDegrees>
              <LongitudeDegrees>16.875897</LongitudeDegrees>
            </Position>
            <AltitudeMeters>1010.0</AltitudeMeters>
            <DistanceMeters>55787.099610834</DistanceMeters>
          </Trackpoint>
          <Trackpoint>
            <Position>
              <LatitudeDegrees>50.185168</LatitudeDegrees>
              <LongitudeDegrees>16.875923</LongitudeDegrees>
            </Position>
            <AltitudeMeters>1011.0</AltitudeMeters>
            <DistanceMeters>55797.28654553</DistanceMeters>
          </Trackpoint>
          <Trackpoint>
            <Position>
              <LatitudeDegrees>50.185093</LatitudeDegrees>
              <LongitudeDegrees>16.875815</LongitudeDegrees>
            </Position>
            <AltitudeMeters>1012.0</AltitudeMeters>
            <DistanceMeters>55808.641343259</DistanceMeters>
          </Trackpoint>
          <Trackpoint>
            <Position>
              <LatitudeDegrees>50.185057</LatitudeDegrees>
              <LongitudeDegrees>16.875685</LongitudeDegrees>
            </Position>
            <AltitudeMeters>1012.0</AltitudeMeters>
            <DistanceMeters>55818.735667535</DistanceMeters>
          </Trackpoint>
          <Trackpoint>
            <Position>
              <LatitudeDegrees>50.185043</LatitudeDegrees>
              <LongitudeDegrees>16.875535</LongitudeDegrees>
            </Position>
            <AltitudeMeters>1011.0</AltitudeMeters>
            <DistanceMeters>55829.538662859</DistanceMeters>
          </Trackpoint>
          <Trackpoint>
            <Position>
              <LatitudeDegrees>50.184978</LatitudeDegrees>
              <LongitudeDegrees>16.875423</LongitudeDegrees>
            </Position>
            <AltitudeMeters>1011.0</AltitudeMeters>
            <DistanceMeters>55840.311524246</DistanceMeters>
          </Trackpoint>
          <Trackpoint>
            <Position>
              <LatitudeDegrees>50.18492</LatitudeDegrees>
              <LongitudeDegrees>16.87536</LongitudeDegrees>
            </Position>
            <AltitudeMeters>1012.0</AltitudeMeters>
            <DistanceMeters>55848.175236059</DistanceMeters>
          </Trackpoint>
          <Trackpoint>
            <Position>
              <LatitudeDegrees>50.184907</LatitudeDegrees>
              <LongitudeDegrees>16.875337</LongitudeDegrees>
            </Position>
            <AltitudeMeters>1012.0</AltitudeMeters>
            <DistanceMeters>55850.362915313</DistanceMeters>
          </Trackpoint>
          <Trackpoint>
            <Position>
              <LatitudeDegrees>50.184878</LatitudeDegrees>
              <LongitudeDegrees>16.875323</LongitudeDegrees>
            </Position>
            <AltitudeMeters>1012.0</AltitudeMeters>
            <DistanceMeters>55853.741378961</DistanceMeters>
          </Trackpoint>
          <Trackpoint>
            <Position>
              <LatitudeDegrees>50.184853</LatitudeDegrees>
              <LongitudeDegrees>16.875308</LongitudeDegrees>
            </Position>
            <AltitudeMeters>1013.0</AltitudeMeters>
            <DistanceMeters>55856.722250515</DistanceMeters>
          </Trackpoint>
          <Trackpoint>
            <Position>
              <LatitudeDegrees>50.184832</LatitudeDegrees>
              <LongitudeDegrees>16.87529</LongitudeDegrees>
            </Position>
            <AltitudeMeters>1013.0</AltitudeMeters>
            <DistanceMeters>55859.386390167</DistanceMeters>
          </Trackpoint>
          <Trackpoint>
            <Position>
              <LatitudeDegrees>50.184807</LatitudeDegrees>
              <LongitudeDegrees>16.875273</LongitudeDegrees>
            </Position>
            <AltitudeMeters>1013.0</AltitudeMeters>
            <DistanceMeters>55862.421300046</DistanceMeters>
          </Trackpoint>
          <Trackpoint>
            <Position>
              <LatitudeDegrees>50.184772</LatitudeDegrees>
              <LongitudeDegrees>16.875238</LongitudeDegrees>
            </Position>
            <AltitudeMeters>1013.0</AltitudeMeters>
            <DistanceMeters>55867.046475837</DistanceMeters>
          </Trackpoint>
          <Trackpoint>
            <Position>
              <LatitudeDegrees>50.184755</LatitudeDegrees>
              <LongitudeDegrees>16.87522</LongitudeDegrees>
            </Position>
            <AltitudeMeters>1014.0</AltitudeMeters>
            <DistanceMeters>55869.331072997</DistanceMeters>
          </Trackpoint>
          <Trackpoint>
            <Position>
              <LatitudeDegrees>50.1847</LatitudeDegrees>
              <LongitudeDegrees>16.875107</LongitudeDegrees>
            </Position>
            <AltitudeMeters>1014.0</AltitudeMeters>
            <DistanceMeters>55879.447290489</DistanceMeters>
          </Trackpoint>
          <Trackpoint>
            <Position>
              <LatitudeDegrees>50.184662</LatitudeDegrees>
              <LongitudeDegrees>16.874965</LongitudeDegrees>
            </Position>
            <AltitudeMeters>1014.0</AltitudeMeters>
            <DistanceMeters>55890.415777552</DistanceMeters>
          </Trackpoint>
          <Trackpoint>
            <Position>
              <LatitudeDegrees>50.184613</LatitudeDegrees>
              <LongitudeDegrees>16.874842</LongitudeDegrees>
            </Position>
            <AltitudeMeters>1014.0</AltitudeMeters>
            <DistanceMeters>55900.740070378</DistanceMeters>
          </Trackpoint>
          <Trackpoint>
            <Position>
              <LatitudeDegrees>50.184547</LatitudeDegrees>
              <LongitudeDegrees>16.874737</LongitudeDegrees>
            </Position>
            <AltitudeMeters>1015.0</AltitudeMeters>
            <DistanceMeters>55911.226215563</DistanceMeters>
          </Trackpoint>
          <Trackpoint>
            <Position>
              <LatitudeDegrees>50.184455</LatitudeDegrees>
              <LongitudeDegrees>16.874722</LongitudeDegrees>
            </Position>
            <AltitudeMeters>1017.0</AltitudeMeters>
            <DistanceMeters>55921.521166133</DistanceMeters>
          </Trackpoint>
          <Trackpoint>
            <Position>
              <LatitudeDegrees>50.184365</LatitudeDegrees>
              <LongitudeDegrees>16.874732</LongitudeDegrees>
            </Position>
            <AltitudeMeters>1018.0</AltitudeMeters>
            <DistanceMeters>55931.563471332</DistanceMeters>
          </Trackpoint>
          <Trackpoint>
            <Position>
              <LatitudeDegrees>50.184342</LatitudeDegrees>
              <LongitudeDegrees>16.874595</LongitudeDegrees>
            </Position>
            <AltitudeMeters>1020.0</AltitudeMeters>
            <DistanceMeters>55941.656900999</DistanceMeters>
          </Trackpoint>
          <Trackpoint>
            <Position>
              <LatitudeDegrees>50.184245</LatitudeDegrees>
              <LongitudeDegrees>16.874622</LongitudeDegrees>
            </Position>
            <AltitudeMeters>1020.0</AltitudeMeters>
            <DistanceMeters>55952.623329683</DistanceMeters>
          </Trackpoint>
          <Trackpoint>
            <Position>
              <LatitudeDegrees>50.184322</LatitudeDegrees>
              <LongitudeDegrees>16.874538</LongitudeDegrees>
            </Position>
            <AltitudeMeters>1022.0</AltitudeMeters>
            <DistanceMeters>55963.077564002</DistanceMeters>
          </Trackpoint>
          <Trackpoint>
            <Position>
              <LatitudeDegrees>50.184408</LatitudeDegrees>
              <LongitudeDegrees>16.8746</LongitudeDegrees>
            </Position>
            <AltitudeMeters>1024.0</AltitudeMeters>
            <DistanceMeters>55973.620391467</DistanceMeters>
          </Trackpoint>
          <Trackpoint>
            <Position>
              <LatitudeDegrees>50.184502</LatitudeDegrees>
              <LongitudeDegrees>16.87457</LongitudeDegrees>
            </Position>
            <AltitudeMeters>1028.0</AltitudeMeters>
            <DistanceMeters>55984.299381841</DistanceMeters>
          </Trackpoint>
          <Trackpoint>
            <Position>
              <LatitudeDegrees>50.1844</LatitudeDegrees>
              <LongitudeDegrees>16.87454</LongitudeDegrees>
            </Position>
            <AltitudeMeters>1029.0</AltitudeMeters>
            <DistanceMeters>55995.852066804</DistanceMeters>
          </Trackpoint>
          <Trackpoint>
            <Position>
              <LatitudeDegrees>50.184307</LatitudeDegrees>
              <LongitudeDegrees>16.874605</LongitudeDegrees>
            </Position>
            <AltitudeMeters>1029.0</AltitudeMeters>
            <DistanceMeters>56007.192540723</DistanceMeters>
          </Trackpoint>
          <Trackpoint>
            <Position>
              <LatitudeDegrees>50.18425</LatitudeDegrees>
              <LongitudeDegrees>16.874715</LongitudeDegrees>
            </Position>
            <AltitudeMeters>1028.0</AltitudeMeters>
            <DistanceMeters>56017.277915335</DistanceMeters>
          </Trackpoint>
          <Trackpoint>
            <Position>
              <LatitudeDegrees>50.184177</LatitudeDegrees>
              <LongitudeDegrees>16.874812</LongitudeDegrees>
            </Position>
            <AltitudeMeters>1028.0</AltitudeMeters>
            <DistanceMeters>56027.946330564</DistanceMeters>
          </Trackpoint>
          <Trackpoint>
            <Position>
              <LatitudeDegrees>50.184093</LatitudeDegrees>
              <LongitudeDegrees>16.874917</LongitudeDegrees>
            </Position>
            <AltitudeMeters>1027.0</AltitudeMeters>
            <DistanceMeters>56039.921958902</DistanceMeters>
          </Trackpoint>
          <Trackpoint>
            <Position>
              <LatitudeDegrees>50.184015</LatitudeDegrees>
              <LongitudeDegrees>16.875015</LongitudeDegrees>
            </Position>
            <AltitudeMeters>1026.0</AltitudeMeters>
            <DistanceMeters>56051.064423666</DistanceMeters>
          </Trackpoint>
          <Trackpoint>
            <Position>
              <LatitudeDegrees>50.183942</LatitudeDegrees>
              <LongitudeDegrees>16.875108</LongitudeDegrees>
            </Position>
            <AltitudeMeters>1026.0</AltitudeMeters>
            <DistanceMeters>56061.550138271</DistanceMeters>
          </Trackpoint>
          <Trackpoint>
            <Position>
              <LatitudeDegrees>50.183883</LatitudeDegrees>
              <LongitudeDegrees>16.875217</LongitudeDegrees>
            </Position>
            <AltitudeMeters>1027.0</AltitudeMeters>
            <DistanceMeters>56071.722436241</DistanceMeters>
          </Trackpoint>
          <Trackpoint>
            <Position>
              <LatitudeDegrees>50.183815</LatitudeDegrees>
              <LongitudeDegrees>16.875313</LongitudeDegrees>
            </Position>
            <AltitudeMeters>1028.0</AltitudeMeters>
            <DistanceMeters>56081.925314327</DistanceMeters>
          </Trackpoint>
          <Trackpoint>
            <Position>
              <LatitudeDegrees>50.183762</LatitudeDegrees>
              <LongitudeDegrees>16.87543</LongitudeDegrees>
            </Position>
            <AltitudeMeters>1030.0</AltitudeMeters>
            <DistanceMeters>56092.139691608</DistanceMeters>
          </Trackpoint>
          <Trackpoint>
            <Position>
              <LatitudeDegrees>50.183715</LatitudeDegrees>
              <LongitudeDegrees>16.87556</LongitudeDegrees>
            </Position>
            <AltitudeMeters>1030.0</AltitudeMeters>
            <DistanceMeters>56102.779713618</DistanceMeters>
          </Trackpoint>
          <Trackpoint>
            <Position>
              <LatitudeDegrees>50.183652</LatitudeDegrees>
              <LongitudeDegrees>16.875662</LongitudeDegrees>
            </Position>
            <AltitudeMeters>1031.0</AltitudeMeters>
            <DistanceMeters>56112.879850923</DistanceMeters>
          </Trackpoint>
          <Trackpoint>
            <Position>
              <LatitudeDegrees>50.183605</LatitudeDegrees>
              <LongitudeDegrees>16.875787</LongitudeDegrees>
            </Position>
            <AltitudeMeters>1031.0</AltitudeMeters>
            <DistanceMeters>56123.211138528</DistanceMeters>
          </Trackpoint>
          <Trackpoint>
            <Position>
              <LatitudeDegrees>50.183532</LatitudeDegrees>
              <LongitudeDegrees>16.875893</LongitudeDegrees>
            </Position>
            <AltitudeMeters>1031.0</AltitudeMeters>
            <DistanceMeters>56134.305685477</DistanceMeters>
          </Trackpoint>
          <Trackpoint>
            <Position>
              <LatitudeDegrees>50.18351</LatitudeDegrees>
              <LongitudeDegrees>16.875917</LongitudeDegrees>
            </Position>
            <AltitudeMeters>1031.0</AltitudeMeters>
            <DistanceMeters>56137.292609568</DistanceMeters>
          </Trackpoint>
          <Trackpoint>
            <Position>
              <LatitudeDegrees>50.183498</LatitudeDegrees>
              <LongitudeDegrees>16.875947</LongitudeDegrees>
            </Position>
            <AltitudeMeters>1031.0</AltitudeMeters>
            <DistanceMeters>56139.813953221</DistanceMeters>
          </Trackpoint>
          <Trackpoint>
            <Position>
              <LatitudeDegrees>50.183427</LatitudeDegrees>
              <LongitudeDegrees>16.87606</LongitudeDegrees>
            </Position>
            <AltitudeMeters>1031.0</AltitudeMeters>
            <DistanceMeters>56151.096950062</DistanceMeters>
          </Trackpoint>
          <Trackpoint>
            <Position>
              <LatitudeDegrees>50.183345</LatitudeDegrees>
              <LongitudeDegrees>16.87616</LongitudeDegrees>
            </Position>
            <AltitudeMeters>1030.0</AltitudeMeters>
            <DistanceMeters>56162.676960217</DistanceMeters>
          </Trackpoint>
          <Trackpoint>
            <Position>
              <LatitudeDegrees>50.183315</LatitudeDegrees>
              <LongitudeDegrees>16.876188</LongitudeDegrees>
            </Position>
            <AltitudeMeters>1030.0</AltitudeMeters>
            <DistanceMeters>56166.567256879</DistanceMeters>
          </Trackpoint>
          <Trackpoint>
            <Position>
              <LatitudeDegrees>50.18329</LatitudeDegrees>
              <LongitudeDegrees>16.876215</LongitudeDegrees>
            </Position>
            <AltitudeMeters>1030.0</AltitudeMeters>
            <DistanceMeters>56169.951061976</DistanceMeters>
          </Trackpoint>
          <Trackpoint>
            <Position>
              <LatitudeDegrees>50.183268</LatitudeDegrees>
              <LongitudeDegrees>16.87624</LongitudeDegrees>
            </Position>
            <AltitudeMeters>1029.0</AltitudeMeters>
            <DistanceMeters>56172.980015205</DistanceMeters>
          </Trackpoint>
          <Trackpoint>
            <Position>
              <LatitudeDegrees>50.183252</LatitudeDegrees>
              <LongitudeDegrees>16.876253</LongitudeDegrees>
            </Position>
            <AltitudeMeters>1029.0</AltitudeMeters>
            <DistanceMeters>56174.986857026</DistanceMeters>
          </Trackpoint>
          <Trackpoint>
            <Position>
              <LatitudeDegrees>50.183237</LatitudeDegrees>
              <LongitudeDegrees>16.876272</LongitudeDegrees>
            </Position>
            <AltitudeMeters>1029.0</AltitudeMeters>
            <DistanceMeters>56177.137066118</DistanceMeters>
          </Trackpoint>
          <Trackpoint>
            <Position>
              <LatitudeDegrees>50.183213</LatitudeDegrees>
              <LongitudeDegrees>16.876302</LongitudeDegrees>
            </Position>
            <AltitudeMeters>1029.0</AltitudeMeters>
            <DistanceMeters>56180.559347396</DistanceMeters>
          </Trackpoint>
          <Trackpoint>
            <Position>
              <LatitudeDegrees>50.183192</LatitudeDegrees>
              <LongitudeDegrees>16.876318</LongitudeDegrees>
            </Position>
            <AltitudeMeters>1029.0</AltitudeMeters>
            <DistanceMeters>56183.161761148</DistanceMeters>
          </Trackpoint>
          <Trackpoint>
            <Position>
              <LatitudeDegrees>50.183172</LatitudeDegrees>
              <LongitudeDegrees>16.87634</LongitudeDegrees>
            </Position>
            <AltitudeMeters>1028.0</AltitudeMeters>
            <DistanceMeters>56185.886228589</DistanceMeters>
          </Trackpoint>
          <Trackpoint>
            <Position>
              <LatitudeDegrees>50.183153</LatitudeDegrees>
              <LongitudeDegrees>16.876355</LongitudeDegrees>
            </Position>
            <AltitudeMeters>1028.0</AltitudeMeters>
            <DistanceMeters>56188.256187987</DistanceMeters>
          </Trackpoint>
          <Trackpoint>
            <Position>
              <LatitudeDegrees>50.183135</LatitudeDegrees>
              <LongitudeDegrees>16.876375</LongitudeDegrees>
            </Position>
            <AltitudeMeters>1028.0</AltitudeMeters>
            <DistanceMeters>56190.715893501</DistanceMeters>
          </Trackpoint>
          <Trackpoint>
            <Position>
              <LatitudeDegrees>50.18311</LatitudeDegrees>
              <LongitudeDegrees>16.8764</LongitudeDegrees>
            </Position>
            <AltitudeMeters>1027.0</AltitudeMeters>
            <DistanceMeters>56194.018669961</DistanceMeters>
          </Trackpoint>
          <Trackpoint>
            <Position>
              <LatitudeDegrees>50.18308</LatitudeDegrees>
              <LongitudeDegrees>16.876437</LongitudeDegrees>
            </Position>
            <AltitudeMeters>1027.0</AltitudeMeters>
            <DistanceMeters>56198.272641422</DistanceMeters>
          </Trackpoint>
          <Trackpoint>
            <Position>
              <LatitudeDegrees>50.183048</LatitudeDegrees>
              <LongitudeDegrees>16.876472</LongitudeDegrees>
            </Position>
            <AltitudeMeters>1027.0</AltitudeMeters>
            <DistanceMeters>56202.62108713</DistanceMeters>
          </Trackpoint>
          <Trackpoint>
            <Position>
              <LatitudeDegrees>50.183025</LatitudeDegrees>
              <LongitudeDegrees>16.876487</LongitudeDegrees>
            </Position>
            <AltitudeMeters>1027.0</AltitudeMeters>
            <DistanceMeters>56205.394825606</DistanceMeters>
          </Trackpoint>
          <Trackpoint>
            <Position>
              <LatitudeDegrees>50.182978</LatitudeDegrees>
              <LongitudeDegrees>16.87651</LongitudeDegrees>
            </Position>
            <AltitudeMeters>1027.0</AltitudeMeters>
            <DistanceMeters>56210.876804665</DistanceMeters>
          </Trackpoint>
          <Trackpoint>
            <Position>
              <LatitudeDegrees>50.182962</LatitudeDegrees>
              <LongitudeDegrees>16.876532</LongitudeDegrees>
            </Position>
            <AltitudeMeters>1026.0</AltitudeMeters>
            <DistanceMeters>56213.250571229</DistanceMeters>
          </Trackpoint>
          <Trackpoint>
            <Position>
              <LatitudeDegrees>50.182938</LatitudeDegrees>
              <LongitudeDegrees>16.876545</LongitudeDegrees>
            </Position>
            <AltitudeMeters>1026.0</AltitudeMeters>
            <DistanceMeters>56216.079112855</DistanceMeters>
          </Trackpoint>
          <Trackpoint>
            <Position>
              <LatitudeDegrees>50.182915</LatitudeDegrees>
              <LongitudeDegrees>16.876562</LongitudeDegrees>
            </Position>
            <AltitudeMeters>1026.0</AltitudeMeters>
            <DistanceMeters>56218.912439161</DistanceMeters>
          </Trackpoint>
          <Trackpoint>
            <Position>
              <LatitudeDegrees>50.182897</LatitudeDegrees>
              <LongitudeDegrees>16.876582</LongitudeDegrees>
            </Position>
            <AltitudeMeters>1026.0</AltitudeMeters>
            <DistanceMeters>56221.372144676</DistanceMeters>
          </Trackpoint>
          <Trackpoint>
            <Position>
              <LatitudeDegrees>50.182872</LatitudeDegrees>
              <LongitudeDegrees>16.876593</LongitudeDegrees>
            </Position>
            <AltitudeMeters>1025.0</AltitudeMeters>
            <DistanceMeters>56224.263831171</DistanceMeters>
          </Trackpoint>
          <Trackpoint>
            <Position>
              <LatitudeDegrees>50.18284</LatitudeDegrees>
              <LongitudeDegrees>16.87661</LongitudeDegrees>
            </Position>
            <AltitudeMeters>1025.0</AltitudeMeters>
            <DistanceMeters>56228.026697082</DistanceMeters>
          </Trackpoint>
          <Trackpoint>
            <Position>
              <LatitudeDegrees>50.18281</LatitudeDegrees>
              <LongitudeDegrees>16.87663</LongitudeDegrees>
            </Position>
            <AltitudeMeters>1025.0</AltitudeMeters>
            <DistanceMeters>56231.65766274</DistanceMeters>
          </Trackpoint>
          <Trackpoint>
            <Position>
              <LatitudeDegrees>50.182785</LatitudeDegrees>
              <LongitudeDegrees>16.87665</LongitudeDegrees>
            </Position>
            <AltitudeMeters>1025.0</AltitudeMeters>
            <DistanceMeters>56234.783449475</DistanceMeters>
          </Trackpoint>
          <Trackpoint>
            <Position>
              <LatitudeDegrees>50.182755</LatitudeDegrees>
              <LongitudeDegrees>16.876663</LongitudeDegrees>
            </Position>
            <AltitudeMeters>1024.0</AltitudeMeters>
            <DistanceMeters>56238.248994406</DistanceMeters>
          </Trackpoint>
          <Trackpoint>
            <Position>
              <LatitudeDegrees>50.182735</LatitudeDegrees>
              <LongitudeDegrees>16.876673</LongitudeDegrees>
            </Position>
            <AltitudeMeters>1024.0</AltitudeMeters>
            <DistanceMeters>56240.586342529</DistanceMeters>
          </Trackpoint>
          <Trackpoint>
            <Position>
              <LatitudeDegrees>50.182715</LatitudeDegrees>
              <LongitudeDegrees>16.876687</LongitudeDegrees>
            </Position>
            <AltitudeMeters>1024.0</AltitudeMeters>
            <DistanceMeters>56243.025772868</DistanceMeters>
          </Trackpoint>
          <Trackpoint>
            <Position>
              <LatitudeDegrees>50.182692</LatitudeDegrees>
              <LongitudeDegrees>16.876708</LongitudeDegrees>
            </Position>
            <AltitudeMeters>1024.0</AltitudeMeters>
            <DistanceMeters>56245.98993622</DistanceMeters>
          </Trackpoint>
          <Trackpoint>
            <Position>
              <LatitudeDegrees>50.182667</LatitudeDegrees>
              <LongitudeDegrees>16.876728</LongitudeDegrees>
            </Position>
            <AltitudeMeters>1024.0</AltitudeMeters>
            <DistanceMeters>56249.11716707</DistanceMeters>
          </Trackpoint>
          <Trackpoint>
            <Position>
              <LatitudeDegrees>50.182642</LatitudeDegrees>
              <LongitudeDegrees>16.876753</LongitudeDegrees>
            </Position>
            <AltitudeMeters>1023.0</AltitudeMeters>
            <DistanceMeters>56252.42131029</DistanceMeters>
          </Trackpoint>
          <Trackpoint>
            <Position>
              <LatitudeDegrees>50.182617</LatitudeDegrees>
              <LongitudeDegrees>16.876772</LongitudeDegrees>
            </Position>
            <AltitudeMeters>1023.0</AltitudeMeters>
            <DistanceMeters>56255.51515596</DistanceMeters>
          </Trackpoint>
          <Trackpoint>
            <Position>
              <LatitudeDegrees>50.182592</LatitudeDegrees>
              <LongitudeDegrees>16.87679</LongitudeDegrees>
            </Position>
            <AltitudeMeters>1023.0</AltitudeMeters>
            <DistanceMeters>56258.579675417</DistanceMeters>
          </Trackpoint>
          <Trackpoint>
            <Position>
              <LatitudeDegrees>50.182567</LatitudeDegrees>
              <LongitudeDegrees>16.876807</LongitudeDegrees>
            </Position>
            <AltitudeMeters>1023.0</AltitudeMeters>
            <DistanceMeters>56261.614585296</DistanceMeters>
          </Trackpoint>
          <Trackpoint>
            <Position>
              <LatitudeDegrees>50.182543</LatitudeDegrees>
              <LongitudeDegrees>16.87682</LongitudeDegrees>
            </Position>
            <AltitudeMeters>1023.0</AltitudeMeters>
            <DistanceMeters>56264.441530229</DistanceMeters>
          </Trackpoint>
          <Trackpoint>
            <Position>
              <LatitudeDegrees>50.182522</LatitudeDegrees>
              <LongitudeDegrees>16.876837</LongitudeDegrees>
            </Position>
            <AltitudeMeters>1023.0</AltitudeMeters>
            <DistanceMeters>56267.074987787</DistanceMeters>
          </Trackpoint>
          <Trackpoint>
            <Position>
              <LatitudeDegrees>50.182497</LatitudeDegrees>
              <LongitudeDegrees>16.876855</LongitudeDegrees>
            </Position>
            <AltitudeMeters>1023.0</AltitudeMeters>
            <DistanceMeters>56270.139507244</DistanceMeters>
          </Trackpoint>
          <Trackpoint>
            <Position>
              <LatitudeDegrees>50.182473</LatitudeDegrees>
              <LongitudeDegrees>16.876872</LongitudeDegrees>
            </Position>
            <AltitudeMeters>1023.0</AltitudeMeters>
            <DistanceMeters>56273.073048253</DistanceMeters>
          </Trackpoint>
          <Trackpoint>
            <Position>
              <LatitudeDegrees>50.182448</LatitudeDegrees>
              <LongitudeDegrees>16.876885</LongitudeDegrees>
            </Position>
            <AltitudeMeters>1023.0</AltitudeMeters>
            <DistanceMeters>56276.006589262</DistanceMeters>
          </Trackpoint>
          <Trackpoint>
            <Position>
              <LatitudeDegrees>50.182422</LatitudeDegrees>
              <LongitudeDegrees>16.876893</LongitudeDegrees>
            </Position>
            <AltitudeMeters>1023.0</AltitudeMeters>
            <DistanceMeters>56278.955481192</DistanceMeters>
          </Trackpoint>
          <Trackpoint>
            <Position>
              <LatitudeDegrees>50.182402</LatitudeDegrees>
              <LongitudeDegrees>16.876898</LongitudeDegrees>
            </Position>
            <AltitudeMeters>1023.0</AltitudeMeters>
            <DistanceMeters>56281.208235719</DistanceMeters>
          </Trackpoint>
          <Trackpoint>
            <Position>
              <LatitudeDegrees>50.18237</LatitudeDegrees>
              <LongitudeDegrees>16.876925</LongitudeDegrees>
            </Position>
            <AltitudeMeters>1023.0</AltitudeMeters>
            <DistanceMeters>56285.255526007</DistanceMeters>
          </Trackpoint>
          <Trackpoint>
            <Position>
              <LatitudeDegrees>50.182352</LatitudeDegrees>
              <LongitudeDegrees>16.87694</LongitudeDegrees>
            </Position>
            <AltitudeMeters>1023.0</AltitudeMeters>
            <DistanceMeters>56287.524257717</DistanceMeters>
          </Trackpoint>
          <Trackpoint>
            <Position>
              <LatitudeDegrees>50.18233</LatitudeDegrees>
              <LongitudeDegrees>16.876952</LongitudeDegrees>
            </Position>
            <AltitudeMeters>1023.0</AltitudeMeters>
            <DistanceMeters>56290.117982249</DistanceMeters>
          </Trackpoint>
          <Trackpoint>
            <Position>
              <LatitudeDegrees>50.182307</LatitudeDegrees>
              <LongitudeDegrees>16.87696</LongitudeDegrees>
            </Position>
            <AltitudeMeters>1023.0</AltitudeMeters>
            <DistanceMeters>56292.741132693</DistanceMeters>
          </Trackpoint>
          <Trackpoint>
            <Position>
              <LatitudeDegrees>50.182212</LatitudeDegrees>
              <LongitudeDegrees>16.876953</LongitudeDegrees>
            </Position>
            <AltitudeMeters>1023.0</AltitudeMeters>
            <DistanceMeters>56303.326272679</DistanceMeters>
          </Trackpoint>
          <Trackpoint>
            <Position>
              <LatitudeDegrees>50.18213</LatitudeDegrees>
              <LongitudeDegrees>16.877043</LongitudeDegrees>
            </Position>
            <AltitudeMeters>1024.0</AltitudeMeters>
            <DistanceMeters>56314.481291881</DistanceMeters>
          </Trackpoint>
          <Trackpoint>
            <Position>
              <LatitudeDegrees>50.18208</LatitudeDegrees>
              <LongitudeDegrees>16.877107</LongitudeDegrees>
            </Position>
            <AltitudeMeters>1024.0</AltitudeMeters>
            <DistanceMeters>56321.676389396</DistanceMeters>
          </Trackpoint>
          <Trackpoint>
            <Position>
              <LatitudeDegrees>50.182062</LatitudeDegrees>
              <LongitudeDegrees>16.877142</LongitudeDegrees>
            </Position>
            <AltitudeMeters>1024.0</AltitudeMeters>
            <DistanceMeters>56324.876406066</DistanceMeters>
          </Trackpoint>
          <Trackpoint>
            <Position>
              <LatitudeDegrees>50.18204</LatitudeDegrees>
              <LongitudeDegrees>16.877162</LongitudeDegrees>
            </Position>
            <AltitudeMeters>1024.0</AltitudeMeters>
            <DistanceMeters>56327.711325471</DistanceMeters>
          </Trackpoint>
          <Trackpoint>
            <Position>
              <LatitudeDegrees>50.182018</LatitudeDegrees>
              <LongitudeDegrees>16.877183</LongitudeDegrees>
            </Position>
            <AltitudeMeters>1023.0</AltitudeMeters>
            <DistanceMeters>56330.581069313</DistanceMeters>
          </Trackpoint>
          <Trackpoint>
            <Position>
              <LatitudeDegrees>50.182008</LatitudeDegrees>
              <LongitudeDegrees>16.877212</LongitudeDegrees>
            </Position>
            <AltitudeMeters>1023.0</AltitudeMeters>
            <DistanceMeters>56332.929978998</DistanceMeters>
          </Trackpoint>
          <Trackpoint>
            <Position>
              <LatitudeDegrees>50.181988</LatitudeDegrees>
              <LongitudeDegrees>16.877233</LongitudeDegrees>
            </Position>
            <AltitudeMeters>1023.0</AltitudeMeters>
            <DistanceMeters>56335.614378559</DistanceMeters>
          </Trackpoint>
          <Trackpoint>
            <Position>
              <LatitudeDegrees>50.18197</LatitudeDegrees>
              <LongitudeDegrees>16.87727</LongitudeDegrees>
            </Position>
            <AltitudeMeters>1023.0</AltitudeMeters>
            <DistanceMeters>56338.926710498</DistanceMeters>
          </Trackpoint>
          <Trackpoint>
            <Position>
              <LatitudeDegrees>50.181952</LatitudeDegrees>
              <LongitudeDegrees>16.877283</LongitudeDegrees>
            </Position>
            <AltitudeMeters>1023.0</AltitudeMeters>
            <DistanceMeters>56341.134931792</DistanceMeters>
          </Trackpoint>
          <Trackpoint>
            <Position>
              <LatitudeDegrees>50.181927</LatitudeDegrees>
              <LongitudeDegrees>16.877288</LongitudeDegrees>
            </Position>
            <AltitudeMeters>1023.0</AltitudeMeters>
            <DistanceMeters>56343.941037039</DistanceMeters>
          </Trackpoint>
          <Trackpoint>
            <Position>
              <LatitudeDegrees>50.181908</LatitudeDegrees>
              <LongitudeDegrees>16.877303</LongitudeDegrees>
            </Position>
            <AltitudeMeters>1023.0</AltitudeMeters>
            <DistanceMeters>56346.310996437</DistanceMeters>
          </Trackpoint>
          <Trackpoint>
            <Position>
              <LatitudeDegrees>50.18189</LatitudeDegrees>
              <LongitudeDegrees>16.877317</LongitudeDegrees>
            </Position>
            <AltitudeMeters>1023.0</AltitudeMeters>
            <DistanceMeters>56348.547659655</DistanceMeters>
          </Trackpoint>
          <Trackpoint>
            <Position>
              <LatitudeDegrees>50.181875</LatitudeDegrees>
              <LongitudeDegrees>16.87734</LongitudeDegrees>
            </Position>
            <AltitudeMeters>1022.0</AltitudeMeters>
            <DistanceMeters>56350.886938673</DistanceMeters>
          </Trackpoint>
          <Trackpoint>
            <Position>
              <LatitudeDegrees>50.181857</LatitudeDegrees>
              <LongitudeDegrees>16.877363</LongitudeDegrees>
            </Position>
            <AltitudeMeters>1022.0</AltitudeMeters>
            <DistanceMeters>56353.475435673</DistanceMeters>
          </Trackpoint>
          <Trackpoint>
            <Position>
              <LatitudeDegrees>50.181838</LatitudeDegrees>
              <LongitudeDegrees>16.877382</LongitudeDegrees>
            </Position>
            <AltitudeMeters>1022.0</AltitudeMeters>
            <DistanceMeters>56355.986011973</DistanceMeters>
          </Trackpoint>
          <Trackpoint>
            <Position>
              <LatitudeDegrees>50.18182</LatitudeDegrees>
              <LongitudeDegrees>16.877398</LongitudeDegrees>
            </Position>
            <AltitudeMeters>1022.0</AltitudeMeters>
            <DistanceMeters>56358.290287336</DistanceMeters>
          </Trackpoint>
          <Trackpoint>
            <Position>
              <LatitudeDegrees>50.181798</LatitudeDegrees>
              <LongitudeDegrees>16.877423</LongitudeDegrees>
            </Position>
            <AltitudeMeters>1022.0</AltitudeMeters>
            <DistanceMeters>56361.319240566</DistanceMeters>
          </Trackpoint>
          <Trackpoint>
            <Position>
              <LatitudeDegrees>50.18177</LatitudeDegrees>
              <LongitudeDegrees>16.87745</LongitudeDegrees>
            </Position>
            <AltitudeMeters>1021.0</AltitudeMeters>
            <DistanceMeters>56364.98239407</DistanceMeters>
          </Trackpoint>
          <Trackpoint>
            <Position>
              <LatitudeDegrees>50.18175</LatitudeDegrees>
              <LongitudeDegrees>16.877468</LongitudeDegrees>
            </Position>
            <AltitudeMeters>1021.0</AltitudeMeters>
            <DistanceMeters>56367.551632456</DistanceMeters>
          </Trackpoint>
          <Trackpoint>
            <Position>
              <LatitudeDegrees>50.181718</LatitudeDegrees>
              <LongitudeDegrees>16.877493</LongitudeDegrees>
            </Position>
            <AltitudeMeters>1021.0</AltitudeMeters>
            <DistanceMeters>56371.533694012</DistanceMeters>
          </Trackpoint>
          <Trackpoint>
            <Position>
              <LatitudeDegrees>50.181697</LatitudeDegrees>
              <LongitudeDegrees>16.877487</LongitudeDegrees>
            </Position>
            <AltitudeMeters>1021.0</AltitudeMeters>
            <DistanceMeters>56373.909361871</DistanceMeters>
          </Trackpoint>
          <Trackpoint>
            <Position>
              <LatitudeDegrees>50.181615</LatitudeDegrees>
              <LongitudeDegrees>16.877565</LongitudeDegrees>
            </Position>
            <AltitudeMeters>1021.0</AltitudeMeters>
            <DistanceMeters>56384.596382357</DistanceMeters>
          </Trackpoint>
          <Trackpoint>
            <Position>
              <LatitudeDegrees>50.181548</LatitudeDegrees>
              <LongitudeDegrees>16.877682</LongitudeDegrees>
            </Position>
            <AltitudeMeters>1020.0</AltitudeMeters>
            <DistanceMeters>56395.783735015</DistanceMeters>
          </Trackpoint>
          <Trackpoint>
            <Position>
              <LatitudeDegrees>50.181473</LatitudeDegrees>
              <LongitudeDegrees>16.877772</LongitudeDegrees>
            </Position>
            <AltitudeMeters>1020.0</AltitudeMeters>
            <DistanceMeters>56406.31156282</DistanceMeters>
          </Trackpoint>
          <Trackpoint>
            <Position>
              <LatitudeDegrees>50.181387</LatitudeDegrees>
              <LongitudeDegrees>16.877845</LongitudeDegrees>
            </Position>
            <AltitudeMeters>1020.0</AltitudeMeters>
            <DistanceMeters>56417.206946472</DistanceMeters>
          </Trackpoint>
          <Trackpoint>
            <Position>
              <LatitudeDegrees>50.181355</LatitudeDegrees>
              <LongitudeDegrees>16.87789</LongitudeDegrees>
            </Position>
            <AltitudeMeters>1020.0</AltitudeMeters>
            <DistanceMeters>56421.999911574</DistanceMeters>
          </Trackpoint>
          <Trackpoint>
            <Position>
              <LatitudeDegrees>50.181335</LatitudeDegrees>
              <LongitudeDegrees>16.877918</LongitudeDegrees>
            </Position>
            <AltitudeMeters>1020.0</AltitudeMeters>
            <DistanceMeters>56424.98985734</DistanceMeters>
          </Trackpoint>
          <Trackpoint>
            <Position>
              <LatitudeDegrees>50.181318</LatitudeDegrees>
              <LongitudeDegrees>16.877962</LongitudeDegrees>
            </Position>
            <AltitudeMeters>1020.0</AltitudeMeters>
            <DistanceMeters>56428.653010844</DistanceMeters>
          </Trackpoint>
          <Trackpoint>
            <Position>
              <LatitudeDegrees>50.181305</LatitudeDegrees>
              <LongitudeDegrees>16.877985</LongitudeDegrees>
            </Position>
            <AltitudeMeters>1020.0</AltitudeMeters>
            <DistanceMeters>56430.836558499</DistanceMeters>
          </Trackpoint>
          <Trackpoint>
            <Position>
              <LatitudeDegrees>50.18129</LatitudeDegrees>
              <LongitudeDegrees>16.87802</LongitudeDegrees>
            </Position>
            <AltitudeMeters>1020.0</AltitudeMeters>
            <DistanceMeters>56433.83705616</DistanceMeters>
          </Trackpoint>
          <Trackpoint>
            <Position>
              <LatitudeDegrees>50.181268</LatitudeDegrees>
              <LongitudeDegrees>16.878052</LongitudeDegrees>
            </Position>
            <AltitudeMeters>1020.0</AltitudeMeters>
            <DistanceMeters>56437.183292074</DistanceMeters>
          </Trackpoint>
          <Trackpoint>
            <Position>
              <LatitudeDegrees>50.181248</LatitudeDegrees>
              <LongitudeDegrees>16.87808</LongitudeDegrees>
            </Position>
            <AltitudeMeters>1020.0</AltitudeMeters>
            <DistanceMeters>56440.173237839</DistanceMeters>
          </Trackpoint>
          <Trackpoint>
            <Position>
              <LatitudeDegrees>50.181228</LatitudeDegrees>
              <LongitudeDegrees>16.87811</LongitudeDegrees>
            </Position>
            <AltitudeMeters>1020.0</AltitudeMeters>
            <DistanceMeters>56443.259778079</DistanceMeters>
          </Trackpoint>
          <Trackpoint>
            <Position>
              <LatitudeDegrees>50.181203</LatitudeDegrees>
              <LongitudeDegrees>16.87814</LongitudeDegrees>
            </Position>
            <AltitudeMeters>1021.0</AltitudeMeters>
            <DistanceMeters>56446.769339913</DistanceMeters>
          </Trackpoint>
          <Trackpoint>
            <Position>
              <LatitudeDegrees>50.181187</LatitudeDegrees>
              <LongitudeDegrees>16.878165</LongitudeDegrees>
            </Position>
            <AltitudeMeters>1021.0</AltitudeMeters>
            <DistanceMeters>56449.290683566</DistanceMeters>
          </Trackpoint>
          <Trackpoint>
            <Position>
              <LatitudeDegrees>50.181112</LatitudeDegrees>
              <LongitudeDegrees>16.87825</LongitudeDegrees>
            </Position>
            <AltitudeMeters>1021.0</AltitudeMeters>
            <DistanceMeters>56459.605350825</DistanceMeters>
          </Trackpoint>
          <Trackpoint>
            <Position>
              <LatitudeDegrees>50.181032</LatitudeDegrees>
              <LongitudeDegrees>16.878322</LongitudeDegrees>
            </Position>
            <AltitudeMeters>1021.0</AltitudeMeters>
            <DistanceMeters>56469.882304366</DistanceMeters>
          </Trackpoint>
          <Trackpoint>
            <Position>
              <LatitudeDegrees>50.180952</LatitudeDegrees>
              <LongitudeDegrees>16.87839</LongitudeDegrees>
            </Position>
            <AltitudeMeters>1021.0</AltitudeMeters>
            <DistanceMeters>56480.020367795</DistanceMeters>
          </Trackpoint>
          <Trackpoint>
            <Position>
              <LatitudeDegrees>50.180925</LatitudeDegrees>
              <LongitudeDegrees>16.878407</LongitudeDegrees>
            </Position>
            <AltitudeMeters>1021.0</AltitudeMeters>
            <DistanceMeters>56483.261043481</DistanceMeters>
          </Trackpoint>
          <Trackpoint>
            <Position>
              <LatitudeDegrees>50.180903</LatitudeDegrees>
              <LongitudeDegrees>16.878427</LongitudeDegrees>
            </Position>
            <AltitudeMeters>1021.0</AltitudeMeters>
            <DistanceMeters>56486.092775792</DistanceMeters>
          </Trackpoint>
          <Trackpoint>
            <Position>
              <LatitudeDegrees>50.180877</LatitudeDegrees>
              <LongitudeDegrees>16.878445</LongitudeDegrees>
            </Position>
            <AltitudeMeters>1021.0</AltitudeMeters>
            <DistanceMeters>56489.25589525</DistanceMeters>
          </Trackpoint>
          <Trackpoint>
            <Position>
              <LatitudeDegrees>50.180857</LatitudeDegrees>
              <LongitudeDegrees>16.878455</LongitudeDegrees>
            </Position>
            <AltitudeMeters>1021.0</AltitudeMeters>
            <DistanceMeters>56491.591310881</DistanceMeters>
          </Trackpoint>
          <Trackpoint>
            <Position>
              <LatitudeDegrees>50.180837</LatitudeDegrees>
              <LongitudeDegrees>16.87847</LongitudeDegrees>
            </Position>
            <AltitudeMeters>1021.0</AltitudeMeters>
            <DistanceMeters>56494.062005455</DistanceMeters>
          </Trackpoint>
          <Trackpoint>
            <Position>
              <LatitudeDegrees>50.180762</LatitudeDegrees>
              <LongitudeDegrees>16.878517</LongitudeDegrees>
            </Position>
            <AltitudeMeters>1021.0</AltitudeMeters>
            <DistanceMeters>56503.056975435</DistanceMeters>
          </Trackpoint>
          <Trackpoint>
            <Position>
              <LatitudeDegrees>50.180742</LatitudeDegrees>
              <LongitudeDegrees>16.878532</LongitudeDegrees>
            </Position>
            <AltitudeMeters>1021.0</AltitudeMeters>
            <DistanceMeters>56505.524012427</DistanceMeters>
          </Trackpoint>
          <Trackpoint>
            <Position>
              <LatitudeDegrees>50.180717</LatitudeDegrees>
              <LongitudeDegrees>16.878535</LongitudeDegrees>
            </Position>
            <AltitudeMeters>1021.0</AltitudeMeters>
            <DistanceMeters>56508.313981225</DistanceMeters>
          </Trackpoint>
          <Trackpoint>
            <Position>
              <LatitudeDegrees>50.180692</LatitudeDegrees>
              <LongitudeDegrees>16.878537</LongitudeDegrees>
            </Position>
            <AltitudeMeters>1020.0</AltitudeMeters>
            <DistanceMeters>56511.099090858</DistanceMeters>
          </Trackpoint>
          <Trackpoint>
            <Position>
              <LatitudeDegrees>50.180663</LatitudeDegrees>
              <LongitudeDegrees>16.878543</LongitudeDegrees>
            </Position>
            <AltitudeMeters>1020.0</AltitudeMeters>
            <DistanceMeters>56514.355056113</DistanceMeters>
          </Trackpoint>
          <Trackpoint>
            <Position>
              <LatitudeDegrees>50.180633</LatitudeDegrees>
              <LongitudeDegrees>16.878552</LongitudeDegrees>
            </Position>
            <AltitudeMeters>1020.0</AltitudeMeters>
            <DistanceMeters>56517.754835202</DistanceMeters>
          </Trackpoint>
          <Trackpoint>
            <Position>
              <LatitudeDegrees>50.180608</LatitudeDegrees>
              <LongitudeDegrees>16.878548</LongitudeDegrees>
            </Position>
            <AltitudeMeters>1020.0</AltitudeMeters>
            <DistanceMeters>56520.551269753</DistanceMeters>
          </Trackpoint>
          <Trackpoint>
            <Position>
              <LatitudeDegrees>50.180585</LatitudeDegrees>
              <LongitudeDegrees>16.878547</LongitudeDegrees>
            </Position>
            <AltitudeMeters>1020.0</AltitudeMeters>
            <DistanceMeters>56523.111706337</DistanceMeters>
          </Trackpoint>
          <Trackpoint>
            <Position>
              <LatitudeDegrees>50.180562</LatitudeDegrees>
              <LongitudeDegrees>16.87855</LongitudeDegrees>
            </Position>
            <AltitudeMeters>1020.0</AltitudeMeters>
            <DistanceMeters>56525.682701466</DistanceMeters>
          </Trackpoint>
          <Trackpoint>
            <Position>
              <LatitudeDegrees>50.180533</LatitudeDegrees>
              <LongitudeDegrees>16.878555</LongitudeDegrees>
            </Position>
            <AltitudeMeters>1020.0</AltitudeMeters>
            <DistanceMeters>56528.93033588</DistanceMeters>
          </Trackpoint>
          <Trackpoint>
            <Position>
              <LatitudeDegrees>50.180508</LatitudeDegrees>
              <LongitudeDegrees>16.87856</LongitudeDegrees>
            </Position>
            <AltitudeMeters>1020.0</AltitudeMeters>
            <DistanceMeters>56531.734831661</DistanceMeters>
          </Trackpoint>
          <Trackpoint>
            <Position>
              <LatitudeDegrees>50.180485</LatitudeDegrees>
              <LongitudeDegrees>16.87856</LongitudeDegrees>
            </Position>
            <AltitudeMeters>1020.0</AltitudeMeters>
            <DistanceMeters>56534.295268244</DistanceMeters>
          </Trackpoint>
          <Trackpoint>
            <Position>
              <LatitudeDegrees>50.180462</LatitudeDegrees>
              <LongitudeDegrees>16.878567</LongitudeDegrees>
            </Position>
            <AltitudeMeters>1020.0</AltitudeMeters>
            <DistanceMeters>56536.904612537</DistanceMeters>
          </Trackpoint>
          <Trackpoint>
            <Position>
              <LatitudeDegrees>50.180437</LatitudeDegrees>
              <LongitudeDegrees>16.878565</LongitudeDegrees>
            </Position>
            <AltitudeMeters>1019.0</AltitudeMeters>
            <DistanceMeters>56539.691342833</DistanceMeters>
          </Trackpoint>
          <Trackpoint>
            <Position>
              <LatitudeDegrees>50.180413</LatitudeDegrees>
              <LongitudeDegrees>16.878555</LongitudeDegrees>
            </Position>
            <AltitudeMeters>1020.0</AltitudeMeters>
            <DistanceMeters>56542.456930428</DistanceMeters>
          </Trackpoint>
          <Trackpoint>
            <Position>
              <LatitudeDegrees>50.180397</LatitudeDegrees>
              <LongitudeDegrees>16.878558</LongitudeDegrees>
            </Position>
            <AltitudeMeters>1020.0</AltitudeMeters>
            <DistanceMeters>56544.252407326</DistanceMeters>
          </Trackpoint>
          <Trackpoint>
            <Position>
              <LatitudeDegrees>50.180378</LatitudeDegrees>
              <LongitudeDegrees>16.87857</LongitudeDegrees>
            </Position>
            <AltitudeMeters>1020.0</AltitudeMeters>
            <DistanceMeters>56546.535027336</DistanceMeters>
          </Trackpoint>
          <Trackpoint>
            <Position>
              <LatitudeDegrees>50.180358</LatitudeDegrees>
              <LongitudeDegrees>16.878583</LongitudeDegrees>
            </Position>
            <AltitudeMeters>1020.0</AltitudeMeters>
            <DistanceMeters>56548.946535003</DistanceMeters>
          </Trackpoint>
          <Trackpoint>
            <Position>
              <LatitudeDegrees>50.180337</LatitudeDegrees>
              <LongitudeDegrees>16.878602</LongitudeDegrees>
            </Position>
            <AltitudeMeters>1020.0</AltitudeMeters>
            <DistanceMeters>56551.647701745</DistanceMeters>
          </Trackpoint>
          <Trackpoint>
            <Position>
              <LatitudeDegrees>50.180332</LatitudeDegrees>
              <LongitudeDegrees>16.87863</LongitudeDegrees>
            </Position>
            <AltitudeMeters>1020.0</AltitudeMeters>
            <DistanceMeters>56553.720939885</DistanceMeters>
          </Trackpoint>
          <Trackpoint>
            <Position>
              <LatitudeDegrees>50.180307</LatitudeDegrees>
              <LongitudeDegrees>16.878648</LongitudeDegrees>
            </Position>
            <AltitudeMeters>1020.0</AltitudeMeters>
            <DistanceMeters>56556.785459342</DistanceMeters>
          </Trackpoint>
          <Trackpoint>
            <Position>
              <LatitudeDegrees>50.180283</LatitudeDegrees>
              <LongitudeDegrees>16.878645</LongitudeDegrees>
            </Position>
            <AltitudeMeters>1020.0</AltitudeMeters>
            <DistanceMeters>56559.464808288</DistanceMeters>
          </Trackpoint>
          <Trackpoint>
            <Position>
              <LatitudeDegrees>50.180257</LatitudeDegrees>
              <LongitudeDegrees>16.878652</LongitudeDegrees>
            </Position>
            <AltitudeMeters>1020.0</AltitudeMeters>
            <DistanceMeters>56562.401425901</DistanceMeters>
          </Trackpoint>
          <Trackpoint>
            <Position>
              <LatitudeDegrees>50.180233</LatitudeDegrees>
              <LongitudeDegrees>16.878657</LongitudeDegrees>
            </Position>
            <AltitudeMeters>1020.0</AltitudeMeters>
            <DistanceMeters>56565.095898291</DistanceMeters>
          </Trackpoint>
          <Trackpoint>
            <Position>
              <LatitudeDegrees>50.180233</LatitudeDegrees>
              <LongitudeDegrees>16.878623</LongitudeDegrees>
            </Position>
            <AltitudeMeters>1020.0</AltitudeMeters>
            <DistanceMeters>56567.518613645</DistanceMeters>
          </Trackpoint>
          <Trackpoint>
            <Position>
              <LatitudeDegrees>50.180242</LatitudeDegrees>
              <LongitudeDegrees>16.878597</LongitudeDegrees>
            </Position>
            <AltitudeMeters>1020.0</AltitudeMeters>
            <DistanceMeters>56569.626408135</DistanceMeters>
          </Trackpoint>
          <Trackpoint>
            <Position>
              <LatitudeDegrees>50.180252</LatitudeDegrees>
              <LongitudeDegrees>16.878562</LongitudeDegrees>
            </Position>
            <AltitudeMeters>1021.0</AltitudeMeters>
            <DistanceMeters>56572.357496406</DistanceMeters>
          </Trackpoint>
          <Trackpoint>
            <Position>
              <LatitudeDegrees>50.18025</LatitudeDegrees>
              <LongitudeDegrees>16.878527</LongitudeDegrees>
            </Position>
            <AltitudeMeters>1021.0</AltitudeMeters>
            <DistanceMeters>56574.864473311</DistanceMeters>
          </Trackpoint>
          <Trackpoint>
            <Position>
              <LatitudeDegrees>50.180248</LatitudeDegrees>
              <LongitudeDegrees>16.878493</LongitudeDegrees>
            </Position>
            <AltitudeMeters>1021.0</AltitudeMeters>
            <DistanceMeters>56577.298344743</DistanceMeters>
          </Trackpoint>
          <Trackpoint>
            <Position>
              <LatitudeDegrees>50.180238</LatitudeDegrees>
              <LongitudeDegrees>16.87847</LongitudeDegrees>
            </Position>
            <AltitudeMeters>1021.0</AltitudeMeters>
            <DistanceMeters>56579.278004607</DistanceMeters>
          </Trackpoint>
          <Trackpoint>
            <Position>
              <LatitudeDegrees>50.180235</LatitudeDegrees>
              <LongitudeDegrees>16.878437</LongitudeDegrees>
            </Position>
            <AltitudeMeters>1021.0</AltitudeMeters>
            <DistanceMeters>56581.651771171</DistanceMeters>
          </Trackpoint>
          <Trackpoint>
            <Position>
              <LatitudeDegrees>50.180225</LatitudeDegrees>
              <LongitudeDegrees>16.878405</LongitudeDegrees>
            </Position>
            <AltitudeMeters>1022.0</AltitudeMeters>
            <DistanceMeters>56584.190958951</DistanceMeters>
          </Trackpoint>
          <Trackpoint>
            <Position>
              <LatitudeDegrees>50.180212</LatitudeDegrees>
              <LongitudeDegrees>16.878372</LongitudeDegrees>
            </Position>
            <AltitudeMeters>1022.0</AltitudeMeters>
            <DistanceMeters>56586.951644467</DistanceMeters>
          </Trackpoint>
          <Trackpoint>
            <Position>
              <LatitudeDegrees>50.1802</LatitudeDegrees>
              <LongitudeDegrees>16.87834</LongitudeDegrees>
            </Position>
            <AltitudeMeters>1022.0</AltitudeMeters>
            <DistanceMeters>56589.593660571</DistanceMeters>
          </Trackpoint>
          <Trackpoint>
            <Position>
              <LatitudeDegrees>50.180195</LatitudeDegrees>
              <LongitudeDegrees>16.878305</LongitudeDegrees>
            </Position>
            <AltitudeMeters>1022.0</AltitudeMeters>
            <DistanceMeters>56592.15056795</DistanceMeters>
          </Trackpoint>
          <Trackpoint>
            <Position>
              <LatitudeDegrees>50.18019</LatitudeDegrees>
              <LongitudeDegrees>16.878275</LongitudeDegrees>
            </Position>
            <AltitudeMeters>1023.0</AltitudeMeters>
            <DistanceMeters>56594.358789243</DistanceMeters>
          </Trackpoint>
          <Trackpoint>
            <Position>
              <LatitudeDegrees>50.180137</LatitudeDegrees>
              <LongitudeDegrees>16.878155</LongitudeDegrees>
            </Position>
            <AltitudeMeters>1023.0</AltitudeMeters>
            <DistanceMeters>56604.748473252</DistanceMeters>
          </Trackpoint>
          <Trackpoint>
            <Position>
              <LatitudeDegrees>50.180035</LatitudeDegrees>
              <LongitudeDegrees>16.878132</LongitudeDegrees>
            </Position>
            <AltitudeMeters>1024.0</AltitudeMeters>
            <DistanceMeters>56616.21879207</DistanceMeters>
          </Trackpoint>
          <Trackpoint>
            <Position>
              <LatitudeDegrees>50.179957</LatitudeDegrees>
              <LongitudeDegrees>16.878158</LongitudeDegrees>
            </Position>
            <AltitudeMeters>1025.0</AltitudeMeters>
            <DistanceMeters>56625.095528354</DistanceMeters>
          </Trackpoint>
          <Trackpoint>
            <Position>
              <LatitudeDegrees>50.179852</LatitudeDegrees>
              <LongitudeDegrees>16.878147</LongitudeDegrees>
            </Position>
            <AltitudeMeters>1025.0</AltitudeMeters>
            <DistanceMeters>56636.808510528</DistanceMeters>
          </Trackpoint>
          <Trackpoint>
            <Position>
              <LatitudeDegrees>50.179752</LatitudeDegrees>
              <LongitudeDegrees>16.878185</LongitudeDegrees>
            </Position>
            <AltitudeMeters>1025.0</AltitudeMeters>
            <DistanceMeters>56648.263467569</DistanceMeters>
          </Trackpoint>
          <Trackpoint>
            <Position>
              <LatitudeDegrees>50.179653</LatitudeDegrees>
              <LongitudeDegrees>16.878237</LongitudeDegrees>
            </Position>
            <AltitudeMeters>1025.0</AltitudeMeters>
            <DistanceMeters>56659.888618065</DistanceMeters>
          </Trackpoint>
          <Trackpoint>
            <Position>
              <LatitudeDegrees>50.179548</LatitudeDegrees>
              <LongitudeDegrees>16.878245</LongitudeDegrees>
            </Position>
            <AltitudeMeters>1025.0</AltitudeMeters>
            <DistanceMeters>56671.588872716</DistanceMeters>
          </Trackpoint>
          <Trackpoint>
            <Position>
              <LatitudeDegrees>50.179458</LatitudeDegrees>
              <LongitudeDegrees>16.878197</LongitudeDegrees>
            </Position>
            <AltitudeMeters>1025.0</AltitudeMeters>
            <DistanceMeters>56682.174439238</DistanceMeters>
          </Trackpoint>
          <Trackpoint>
            <Position>
              <LatitudeDegrees>50.179363</LatitudeDegrees>
              <LongitudeDegrees>16.87823</LongitudeDegrees>
            </Position>
            <AltitudeMeters>1025.0</AltitudeMeters>
            <DistanceMeters>56693.006651076</DistanceMeters>
          </Trackpoint>
          <Trackpoint>
            <Position>
              <LatitudeDegrees>50.179263</LatitudeDegrees>
              <LongitudeDegrees>16.878273</LongitudeDegrees>
            </Position>
            <AltitudeMeters>1025.0</AltitudeMeters>
            <DistanceMeters>56704.550734763</DistanceMeters>
          </Trackpoint>
          <Trackpoint>
            <Position>
              <LatitudeDegrees>50.179158</LatitudeDegrees>
              <LongitudeDegrees>16.878288</LongitudeDegrees>
            </Position>
            <AltitudeMeters>1025.0</AltitudeMeters>
            <DistanceMeters>56716.286437806</DistanceMeters>
          </Trackpoint>
          <Trackpoint>
            <Position>
              <LatitudeDegrees>50.179065</LatitudeDegrees>
              <LongitudeDegrees>16.878282</LongitudeDegrees>
            </Position>
            <AltitudeMeters>1026.0</AltitudeMeters>
            <DistanceMeters>56726.646528955</DistanceMeters>
          </Trackpoint>
          <Trackpoint>
            <Position>
              <LatitudeDegrees>50.178972</LatitudeDegrees>
              <LongitudeDegrees>16.87825</LongitudeDegrees>
            </Position>
            <AltitudeMeters>1025.0</AltitudeMeters>
            <DistanceMeters>56737.246161549</DistanceMeters>
          </Trackpoint>
          <Trackpoint>
            <Position>
              <LatitudeDegrees>50.17886</LatitudeDegrees>
              <LongitudeDegrees>16.878215</LongitudeDegrees>
            </Position>
            <AltitudeMeters>1025.0</AltitudeMeters>
            <DistanceMeters>56749.959159157</DistanceMeters>
          </Trackpoint>
          <Trackpoint>
            <Position>
              <LatitudeDegrees>50.178767</LatitudeDegrees>
              <LongitudeDegrees>16.878195</LongitudeDegrees>
            </Position>
            <AltitudeMeters>1025.0</AltitudeMeters>
            <DistanceMeters>56760.407777449</DistanceMeters>
          </Trackpoint>
          <Trackpoint>
            <Position>
              <LatitudeDegrees>50.17876</LatitudeDegrees>
              <LongitudeDegrees>16.878053</LongitudeDegrees>
            </Position>
            <AltitudeMeters>1025.0</AltitudeMeters>
            <DistanceMeters>56770.558747959</DistanceMeters>
          </Trackpoint>
          <Trackpoint>
            <Position>
              <LatitudeDegrees>50.178753</LatitudeDegrees>
              <LongitudeDegrees>16.878215</LongitudeDegrees>
            </Position>
            <AltitudeMeters>1024.0</AltitudeMeters>
            <DistanceMeters>56782.131737798</DistanceMeters>
          </Trackpoint>
          <Trackpoint>
            <Position>
              <LatitudeDegrees>50.178705</LatitudeDegrees>
              <LongitudeDegrees>16.878342</LongitudeDegrees>
            </Position>
            <AltitudeMeters>1024.0</AltitudeMeters>
            <DistanceMeters>56792.642826481</DistanceMeters>
          </Trackpoint>
          <Trackpoint>
            <Position>
              <LatitudeDegrees>50.178638</LatitudeDegrees>
              <LongitudeDegrees>16.878437</LongitudeDegrees>
            </Position>
            <AltitudeMeters>1025.0</AltitudeMeters>
            <DistanceMeters>56802.715658204</DistanceMeters>
          </Trackpoint>
          <Trackpoint>
            <Position>
              <LatitudeDegrees>50.178578</LatitudeDegrees>
              <LongitudeDegrees>16.87855</LongitudeDegrees>
            </Position>
            <AltitudeMeters>1025.0</AltitudeMeters>
            <DistanceMeters>56813.178526679</DistanceMeters>
          </Trackpoint>
          <Trackpoint>
            <Position>
              <LatitudeDegrees>50.178512</LatitudeDegrees>
              <LongitudeDegrees>16.878665</LongitudeDegrees>
            </Position>
            <AltitudeMeters>1024.0</AltitudeMeters>
            <DistanceMeters>56824.185229436</DistanceMeters>
          </Trackpoint>
          <Trackpoint>
            <Position>
              <LatitudeDegrees>50.17843</LatitudeDegrees>
              <LongitudeDegrees>16.878752</LongitudeDegrees>
            </Position>
            <AltitudeMeters>1021.0</AltitudeMeters>
            <DistanceMeters>56835.219381904</DistanceMeters>
          </Trackpoint>
          <Trackpoint>
            <Position>
              <LatitudeDegrees>50.178317</LatitudeDegrees>
              <LongitudeDegrees>16.878817</LongitudeDegrees>
            </Position>
            <AltitudeMeters>1020.0</AltitudeMeters>
            <DistanceMeters>56848.622528579</DistanceMeters>
          </Trackpoint>
          <Trackpoint>
            <Position>
              <LatitudeDegrees>50.178225</LatitudeDegrees>
              <LongitudeDegrees>16.878897</LongitudeDegrees>
            </Position>
            <AltitudeMeters>1019.0</AltitudeMeters>
            <DistanceMeters>56860.342832451</DistanceMeters>
          </Trackpoint>
          <Trackpoint>
            <Position>
              <LatitudeDegrees>50.17815</LatitudeDegrees>
              <LongitudeDegrees>16.878997</LongitudeDegrees>
            </Position>
            <AltitudeMeters>1018.0</AltitudeMeters>
            <DistanceMeters>56871.319549173</DistanceMeters>
          </Trackpoint>
          <Trackpoint>
            <Position>
              <LatitudeDegrees>50.178073</LatitudeDegrees>
              <LongitudeDegrees>16.87909</LongitudeDegrees>
            </Position>
            <AltitudeMeters>1017.0</AltitudeMeters>
            <DistanceMeters>56882.154261618</DistanceMeters>
          </Trackpoint>
          <Trackpoint>
            <Position>
              <LatitudeDegrees>50.178002</LatitudeDegrees>
              <LongitudeDegrees>16.87919</LongitudeDegrees>
            </Position>
            <AltitudeMeters>1017.0</AltitudeMeters>
            <DistanceMeters>56892.796405141</DistanceMeters>
          </Trackpoint>
          <Trackpoint>
            <Position>
              <LatitudeDegrees>50.17793</LatitudeDegrees>
              <LongitudeDegrees>16.879307</LongitudeDegrees>
            </Position>
            <AltitudeMeters>1015.0</AltitudeMeters>
            <DistanceMeters>56904.362370403</DistanceMeters>
          </Trackpoint>
          <Trackpoint>
            <Position>
              <LatitudeDegrees>50.177855</LatitudeDegrees>
              <LongitudeDegrees>16.8794</LongitudeDegrees>
            </Position>
            <AltitudeMeters>1013.0</AltitudeMeters>
            <DistanceMeters>56915.022317963</DistanceMeters>
          </Trackpoint>
          <Trackpoint>
            <Position>
              <LatitudeDegrees>50.177787</LatitudeDegrees>
              <LongitudeDegrees>16.879553</LongitudeDegrees>
            </Position>
            <AltitudeMeters>1012.0</AltitudeMeters>
            <DistanceMeters>56928.296839111</DistanceMeters>
          </Trackpoint>
          <Trackpoint>
            <Position>
              <LatitudeDegrees>50.17773</LatitudeDegrees>
              <LongitudeDegrees>16.879667</LongitudeDegrees>
            </Position>
            <AltitudeMeters>1011.0</AltitudeMeters>
            <DistanceMeters>56938.60537633</DistanceMeters>
          </Trackpoint>
          <Trackpoint>
            <Position>
              <LatitudeDegrees>50.177693</LatitudeDegrees>
              <LongitudeDegrees>16.8798</LongitudeDegrees>
            </Position>
            <AltitudeMeters>1010.0</AltitudeMeters>
            <DistanceMeters>56948.941033268</DistanceMeters>
          </Trackpoint>
          <Trackpoint>
            <Position>
              <LatitudeDegrees>50.177642</LatitudeDegrees>
              <LongitudeDegrees>16.87992</LongitudeDegrees>
            </Position>
            <AltitudeMeters>1009.0</AltitudeMeters>
            <DistanceMeters>56959.206997527</DistanceMeters>
          </Trackpoint>
          <Trackpoint>
            <Position>
              <LatitudeDegrees>50.177557</LatitudeDegrees>
              <LongitudeDegrees>16.880022</LongitudeDegrees>
            </Position>
            <AltitudeMeters>1009.0</AltitudeMeters>
            <DistanceMeters>56971.138811522</DistanceMeters>
          </Trackpoint>
          <Trackpoint>
            <Position>
              <LatitudeDegrees>50.177513</LatitudeDegrees>
              <LongitudeDegrees>16.880145</LongitudeDegrees>
            </Position>
            <AltitudeMeters>1008.0</AltitudeMeters>
            <DistanceMeters>56981.181116722</DistanceMeters>
          </Trackpoint>
          <Trackpoint>
            <Position>
              <LatitudeDegrees>50.17744</LatitudeDegrees>
              <LongitudeDegrees>16.88024</LongitudeDegrees>
            </Position>
            <AltitudeMeters>1006.0</AltitudeMeters>
            <DistanceMeters>56991.758149249</DistanceMeters>
          </Trackpoint>
          <Trackpoint>
            <Position>
              <LatitudeDegrees>50.177362</LatitudeDegrees>
              <LongitudeDegrees>16.880308</LongitudeDegrees>
            </Position>
            <AltitudeMeters>1005.0</AltitudeMeters>
            <DistanceMeters>57001.701504165</DistanceMeters>
          </Trackpoint>
          <Trackpoint>
            <Position>
              <LatitudeDegrees>50.177282</LatitudeDegrees>
              <LongitudeDegrees>16.880403</LongitudeDegrees>
            </Position>
            <AltitudeMeters>1003.0</AltitudeMeters>
            <DistanceMeters>57012.888049626</DistanceMeters>
          </Trackpoint>
          <Trackpoint>
            <Position>
              <LatitudeDegrees>50.177177</LatitudeDegrees>
              <LongitudeDegrees>16.880495</LongitudeDegrees>
            </Position>
            <AltitudeMeters>1002.0</AltitudeMeters>
            <DistanceMeters>57026.288838045</DistanceMeters>
          </Trackpoint>
          <Trackpoint>
            <Position>
              <LatitudeDegrees>50.177098</LatitudeDegrees>
              <LongitudeDegrees>16.88062</LongitudeDegrees>
            </Position>
            <AltitudeMeters>997.0</AltitudeMeters>
            <DistanceMeters>57038.806421136</DistanceMeters>
          </Trackpoint>
          <Trackpoint>
            <Position>
              <LatitudeDegrees>50.17701</LatitudeDegrees>
              <LongitudeDegrees>16.880658</LongitudeDegrees>
            </Position>
            <AltitudeMeters>994.0</AltitudeMeters>
            <DistanceMeters>57048.968505283</DistanceMeters>
          </Trackpoint>
          <Trackpoint>
            <Position>
              <LatitudeDegrees>50.176928</LatitudeDegrees>
              <LongitudeDegrees>16.880595</LongitudeDegrees>
            </Position>
            <AltitudeMeters>991.0</AltitudeMeters>
            <DistanceMeters>57059.140359386</DistanceMeters>
          </Trackpoint>
          <Trackpoint>
            <Position>
              <LatitudeDegrees>50.17684</LatitudeDegrees>
              <LongitudeDegrees>16.880568</LongitudeDegrees>
            </Position>
            <AltitudeMeters>990.0</AltitudeMeters>
            <DistanceMeters>57069.122236138</DistanceMeters>
          </Trackpoint>
          <Trackpoint>
            <Position>
              <LatitudeDegrees>50.176727</LatitudeDegrees>
              <LongitudeDegrees>16.88056</LongitudeDegrees>
            </Position>
            <AltitudeMeters>988.0</AltitudeMeters>
            <DistanceMeters>57081.711751686</DistanceMeters>
          </Trackpoint>
          <Trackpoint>
            <Position>
              <LatitudeDegrees>50.176618</LatitudeDegrees>
              <LongitudeDegrees>16.880583</LongitudeDegrees>
            </Position>
            <AltitudeMeters>986.0</AltitudeMeters>
            <DistanceMeters>57093.953612193</DistanceMeters>
          </Trackpoint>
          <Trackpoint>
            <Position>
              <LatitudeDegrees>50.176517</LatitudeDegrees>
              <LongitudeDegrees>16.880577</LongitudeDegrees>
            </Position>
            <AltitudeMeters>986.0</AltitudeMeters>
            <DistanceMeters>57105.202945119</DistanceMeters>
          </Trackpoint>
          <Trackpoint>
            <Position>
              <LatitudeDegrees>50.176418</LatitudeDegrees>
              <LongitudeDegrees>16.88058</LongitudeDegrees>
            </Position>
            <AltitudeMeters>987.0</AltitudeMeters>
            <DistanceMeters>57116.223586125</DistanceMeters>
          </Trackpoint>
          <Trackpoint>
            <Position>
              <LatitudeDegrees>50.17637</LatitudeDegrees>
              <LongitudeDegrees>16.88046</LongitudeDegrees>
            </Position>
            <AltitudeMeters>988.0</AltitudeMeters>
            <DistanceMeters>57126.308960737</DistanceMeters>
          </Trackpoint>
          <Trackpoint>
            <Position>
              <LatitudeDegrees>50.176255</LatitudeDegrees>
              <LongitudeDegrees>16.880465</LongitudeDegrees>
            </Position>
            <AltitudeMeters>986.0</AltitudeMeters>
            <DistanceMeters>57139.113964761</DistanceMeters>
          </Trackpoint>
          <Trackpoint>
            <Position>
              <LatitudeDegrees>50.176163</LatitudeDegrees>
              <LongitudeDegrees>16.880478</LongitudeDegrees>
            </Position>
            <AltitudeMeters>983.0</AltitudeMeters>
            <DistanceMeters>57149.395749866</DistanceMeters>
          </Trackpoint>
          <Trackpoint>
            <Position>
              <LatitudeDegrees>50.17607</LatitudeDegrees>
              <LongitudeDegrees>16.880417</LongitudeDegrees>
            </Position>
            <AltitudeMeters>982.0</AltitudeMeters>
            <DistanceMeters>57160.622584103</DistanceMeters>
          </Trackpoint>
          <Trackpoint>
            <Position>
              <LatitudeDegrees>50.175953</LatitudeDegrees>
              <LongitudeDegrees>16.88041</LongitudeDegrees>
            </Position>
            <AltitudeMeters>983.0</AltitudeMeters>
            <DistanceMeters>57173.654762653</DistanceMeters>
          </Trackpoint>
          <Trackpoint>
            <Position>
              <LatitudeDegrees>50.17589</LatitudeDegrees>
              <LongitudeDegrees>16.88029</LongitudeDegrees>
            </Position>
            <AltitudeMeters>983.0</AltitudeMeters>
            <DistanceMeters>57184.715480336</DistanceMeters>
          </Trackpoint>
          <Trackpoint>
            <Position>
              <LatitudeDegrees>50.175863</LatitudeDegrees>
              <LongitudeDegrees>16.880155</LongitudeDegrees>
            </Position>
            <AltitudeMeters>978.0</AltitudeMeters>
            <DistanceMeters>57194.796377137</DistanceMeters>
          </Trackpoint>
          <Trackpoint>
            <Position>
              <LatitudeDegrees>50.175782</LatitudeDegrees>
              <LongitudeDegrees>16.88007</LongitudeDegrees>
            </Position>
            <AltitudeMeters>975.0</AltitudeMeters>
            <DistanceMeters>57205.658558263</DistanceMeters>
          </Trackpoint>
          <Trackpoint>
            <Position>
              <LatitudeDegrees>50.175698</LatitudeDegrees>
              <LongitudeDegrees>16.879992</LongitudeDegrees>
            </Position>
            <AltitudeMeters>974.0</AltitudeMeters>
            <DistanceMeters>57216.536108155</DistanceMeters>
          </Trackpoint>
          <Trackpoint>
            <Position>
              <LatitudeDegrees>50.175588</LatitudeDegrees>
              <LongitudeDegrees>16.880055</LongitudeDegrees>
            </Position>
            <AltitudeMeters>974.0</AltitudeMeters>
            <DistanceMeters>57229.577291373</DistanceMeters>
          </Trackpoint>
          <Trackpoint>
            <Position>
              <LatitudeDegrees>50.17549</LatitudeDegrees>
              <LongitudeDegrees>16.880078</LongitudeDegrees>
            </Position>
            <AltitudeMeters>974.0</AltitudeMeters>
            <DistanceMeters>57240.607760539</DistanceMeters>
          </Trackpoint>
          <Trackpoint>
            <Position>
              <LatitudeDegrees>50.17549</LatitudeDegrees>
              <LongitudeDegrees>16.87993</LongitudeDegrees>
            </Position>
            <AltitudeMeters>972.0</AltitudeMeters>
            <DistanceMeters>57251.157865858</DistanceMeters>
          </Trackpoint>
          <Trackpoint>
            <Position>
              <LatitudeDegrees>50.175477</LatitudeDegrees>
              <LongitudeDegrees>16.879777</LongitudeDegrees>
            </Position>
            <AltitudeMeters>971.0</AltitudeMeters>
            <DistanceMeters>57262.159645017</DistanceMeters>
          </Trackpoint>
          <Trackpoint>
            <Position>
              <LatitudeDegrees>50.175393</LatitudeDegrees>
              <LongitudeDegrees>16.879722</LongitudeDegrees>
            </Position>
            <AltitudeMeters>968.0</AltitudeMeters>
            <DistanceMeters>57272.297708445</DistanceMeters>
          </Trackpoint>
          <Trackpoint>
            <Position>
              <LatitudeDegrees>50.1753</LatitudeDegrees>
              <LongitudeDegrees>16.879663</LongitudeDegrees>
            </Position>
            <AltitudeMeters>963.0</AltitudeMeters>
            <DistanceMeters>57283.470522628</DistanceMeters>
          </Trackpoint>
          <Trackpoint>
            <Position>
              <LatitudeDegrees>50.17521</LatitudeDegrees>
              <LongitudeDegrees>16.87963</LongitudeDegrees>
            </Position>
            <AltitudeMeters>961.0</AltitudeMeters>
            <DistanceMeters>57293.759770231</DistanceMeters>
          </Trackpoint>
          <Trackpoint>
            <Position>
              <LatitudeDegrees>50.17512</LatitudeDegrees>
              <LongitudeDegrees>16.8796</LongitudeDegrees>
            </Position>
            <AltitudeMeters>957.0</AltitudeMeters>
            <DistanceMeters>57304.002839019</DistanceMeters>
          </Trackpoint>
          <Trackpoint>
            <Position>
              <LatitudeDegrees>50.175028</LatitudeDegrees>
              <LongitudeDegrees>16.879583</LongitudeDegrees>
            </Position>
            <AltitudeMeters>955.0</AltitudeMeters>
            <DistanceMeters>57314.314003844</DistanceMeters>
          </Trackpoint>
          <Trackpoint>
            <Position>
              <LatitudeDegrees>50.174915</LatitudeDegrees>
              <LongitudeDegrees>16.879518</LongitudeDegrees>
            </Position>
            <AltitudeMeters>954.0</AltitudeMeters>
            <DistanceMeters>57327.717487378</DistanceMeters>
          </Trackpoint>
          <Trackpoint>
            <Position>
              <LatitudeDegrees>50.174838</LatitudeDegrees>
              <LongitudeDegrees>16.87943</LongitudeDegrees>
            </Position>
            <AltitudeMeters>951.0</AltitudeMeters>
            <DistanceMeters>57338.338396706</DistanceMeters>
          </Trackpoint>
          <Trackpoint>
            <Position>
              <LatitudeDegrees>50.17475</LatitudeDegrees>
              <LongitudeDegrees>16.87935</LongitudeDegrees>
            </Position>
            <AltitudeMeters>947.0</AltitudeMeters>
            <DistanceMeters>57349.672498677</DistanceMeters>
          </Trackpoint>
          <Trackpoint>
            <Position>
              <LatitudeDegrees>50.174722</LatitudeDegrees>
              <LongitudeDegrees>16.87921</LongitudeDegrees>
            </Position>
            <AltitudeMeters>944.0</AltitudeMeters>
            <DistanceMeters>57360.127596732</DistanceMeters>
          </Trackpoint>
          <Trackpoint>
            <Position>
              <LatitudeDegrees>50.174707</LatitudeDegrees>
              <LongitudeDegrees>16.879067</LongitudeDegrees>
            </Position>
            <AltitudeMeters>940.0</AltitudeMeters>
            <DistanceMeters>57370.456698977</DistanceMeters>
          </Trackpoint>
          <Trackpoint>
            <Position>
              <LatitudeDegrees>50.174653</LatitudeDegrees>
              <LongitudeDegrees>16.87894</LongitudeDegrees>
            </Position>
            <AltitudeMeters>938.0</AltitudeMeters>
            <DistanceMeters>57381.323035967</DistanceMeters>
          </Trackpoint>
          <Trackpoint>
            <Position>
              <LatitudeDegrees>50.1746</LatitudeDegrees>
              <LongitudeDegrees>16.87881</LongitudeDegrees>
            </Position>
            <AltitudeMeters>935.0</AltitudeMeters>
            <DistanceMeters>57392.308387195</DistanceMeters>
          </Trackpoint>
          <Trackpoint>
            <Position>
              <LatitudeDegrees>50.174538</LatitudeDegrees>
              <LongitudeDegrees>16.878682</LongitudeDegrees>
            </Position>
            <AltitudeMeters>934.0</AltitudeMeters>
            <DistanceMeters>57403.748356509</DistanceMeters>
          </Trackpoint>
          <Trackpoint>
            <Position>
              <LatitudeDegrees>50.174482</LatitudeDegrees>
              <LongitudeDegrees>16.87857</LongitudeDegrees>
            </Position>
            <AltitudeMeters>933.0</AltitudeMeters>
            <DistanceMeters>57413.877063163</DistanceMeters>
          </Trackpoint>
          <Trackpoint>
            <Position>
              <LatitudeDegrees>50.174437</LatitudeDegrees>
              <LongitudeDegrees>16.87844</LongitudeDegrees>
            </Position>
            <AltitudeMeters>931.0</AltitudeMeters>
            <DistanceMeters>57424.410893394</DistanceMeters>
          </Trackpoint>
          <Trackpoint>
            <Position>
              <LatitudeDegrees>50.174378</LatitudeDegrees>
              <LongitudeDegrees>16.878332</LongitudeDegrees>
            </Position>
            <AltitudeMeters>931.0</AltitudeMeters>
            <DistanceMeters>57434.530234621</DistanceMeters>
          </Trackpoint>
          <Trackpoint>
            <Position>
              <LatitudeDegrees>50.17431</LatitudeDegrees>
              <LongitudeDegrees>16.878217</LongitudeDegrees>
            </Position>
            <AltitudeMeters>929.0</AltitudeMeters>
            <DistanceMeters>57445.687682083</DistanceMeters>
          </Trackpoint>
          <Trackpoint>
            <Position>
              <LatitudeDegrees>50.174252</LatitudeDegrees>
              <LongitudeDegrees>16.878097</LongitudeDegrees>
            </Position>
            <AltitudeMeters>929.0</AltitudeMeters>
            <DistanceMeters>57456.40423527</DistanceMeters>
          </Trackpoint>
          <Trackpoint>
            <Position>
              <LatitudeDegrees>50.174175</LatitudeDegrees>
              <LongitudeDegrees>16.878012</LongitudeDegrees>
            </Position>
            <AltitudeMeters>928.0</AltitudeMeters>
            <DistanceMeters>57466.899848761</DistanceMeters>
          </Trackpoint>
          <Trackpoint>
            <Position>
              <LatitudeDegrees>50.174095</LatitudeDegrees>
              <LongitudeDegrees>16.877947</LongitudeDegrees>
            </Position>
            <AltitudeMeters>927.0</AltitudeMeters>
            <DistanceMeters>57476.937207122</DistanceMeters>
          </Trackpoint>
          <Trackpoint>
            <Position>
              <LatitudeDegrees>50.174008</LatitudeDegrees>
              <LongitudeDegrees>16.877893</LongitudeDegrees>
            </Position>
            <AltitudeMeters>927.0</AltitudeMeters>
            <DistanceMeters>57487.357266583</DistanceMeters>
          </Trackpoint>
          <Trackpoint>
            <Position>
              <LatitudeDegrees>50.173935</LatitudeDegrees>
              <LongitudeDegrees>16.877798</LongitudeDegrees>
            </Position>
            <AltitudeMeters>927.0</AltitudeMeters>
            <DistanceMeters>57497.934725973</DistanceMeters>
          </Trackpoint>
          <Trackpoint>
            <Position>
              <LatitudeDegrees>50.173853</LatitudeDegrees>
              <LongitudeDegrees>16.877707</LongitudeDegrees>
            </Position>
            <AltitudeMeters>928.0</AltitudeMeters>
            <DistanceMeters>57509.131760462</DistanceMeters>
          </Trackpoint>
          <Trackpoint>
            <Position>
              <LatitudeDegrees>50.173798</LatitudeDegrees>
              <LongitudeDegrees>16.877585</LongitudeDegrees>
            </Position>
            <AltitudeMeters>928.0</AltitudeMeters>
            <DistanceMeters>57519.767113655</DistanceMeters>
          </Trackpoint>
          <Trackpoint>
            <Position>
              <LatitudeDegrees>50.173723</LatitudeDegrees>
              <LongitudeDegrees>16.877495</LongitudeDegrees>
            </Position>
            <AltitudeMeters>928.0</AltitudeMeters>
            <DistanceMeters>57530.295370317</DistanceMeters>
          </Trackpoint>
          <Trackpoint>
            <Position>
              <LatitudeDegrees>50.173647</LatitudeDegrees>
              <LongitudeDegrees>16.877393</LongitudeDegrees>
            </Position>
            <AltitudeMeters>928.0</AltitudeMeters>
            <DistanceMeters>57541.449984758</DistanceMeters>
          </Trackpoint>
          <Trackpoint>
            <Position>
              <LatitudeDegrees>50.173588</LatitudeDegrees>
              <LongitudeDegrees>16.877272</LongitudeDegrees>
            </Position>
            <AltitudeMeters>928.0</AltitudeMeters>
            <DistanceMeters>57552.290529709</DistanceMeters>
          </Trackpoint>
          <Trackpoint>
            <Position>
              <LatitudeDegrees>50.173523</LatitudeDegrees>
              <LongitudeDegrees>16.87717</LongitudeDegrees>
            </Position>
            <AltitudeMeters>928.0</AltitudeMeters>
            <DistanceMeters>57562.547253873</DistanceMeters>
          </Trackpoint>
          <Trackpoint>
            <Position>
              <LatitudeDegrees>50.173458</LatitudeDegrees>
              <LongitudeDegrees>16.87706</LongitudeDegrees>
            </Position>
            <AltitudeMeters>929.0</AltitudeMeters>
            <DistanceMeters>57573.215669102</DistanceMeters>
          </Trackpoint>
          <Trackpoint>
            <Position>
              <LatitudeDegrees>50.173367</LatitudeDegrees>
              <LongitudeDegrees>16.876998</LongitudeDegrees>
            </Position>
            <AltitudeMeters>928.0</AltitudeMeters>
            <DistanceMeters>57584.266176952</DistanceMeters>
          </Trackpoint>
          <Trackpoint>
            <Position>
              <LatitudeDegrees>50.173303</LatitudeDegrees>
              <LongitudeDegrees>16.876897</LongitudeDegrees>
            </Position>
            <AltitudeMeters>928.0</AltitudeMeters>
            <DistanceMeters>57594.393992034</DistanceMeters>
          </Trackpoint>
          <Trackpoint>
            <Position>
              <LatitudeDegrees>50.173223</LatitudeDegrees>
              <LongitudeDegrees>16.876797</LongitudeDegrees>
            </Position>
            <AltitudeMeters>928.0</AltitudeMeters>
            <DistanceMeters>57605.799969034</DistanceMeters>
          </Trackpoint>
          <Trackpoint>
            <Position>
              <LatitudeDegrees>50.173178</LatitudeDegrees>
              <LongitudeDegrees>16.876668</LongitudeDegrees>
            </Position>
            <AltitudeMeters>927.0</AltitudeMeters>
            <DistanceMeters>57616.271033363</DistanceMeters>
          </Trackpoint>
          <Trackpoint>
            <Position>
              <LatitudeDegrees>50.173097</LatitudeDegrees>
              <LongitudeDegrees>16.87657</LongitudeDegrees>
            </Position>
            <AltitudeMeters>927.0</AltitudeMeters>
            <DistanceMeters>57627.675822756</DistanceMeters>
          </Trackpoint>
          <Trackpoint>
            <Position>
              <LatitudeDegrees>50.173065</LatitudeDegrees>
              <LongitudeDegrees>16.876422</LongitudeDegrees>
            </Position>
            <AltitudeMeters>927.0</AltitudeMeters>
            <DistanceMeters>57638.810991352</DistanceMeters>
          </Trackpoint>
          <Trackpoint>
            <Position>
              <LatitudeDegrees>50.173007</LatitudeDegrees>
              <LongitudeDegrees>16.876305</LongitudeDegrees>
            </Position>
            <AltitudeMeters>927.0</AltitudeMeters>
            <DistanceMeters>57649.357672424</DistanceMeters>
          </Trackpoint>
          <Trackpoint>
            <Position>
              <LatitudeDegrees>50.172972</LatitudeDegrees>
              <LongitudeDegrees>16.876263</LongitudeDegrees>
            </Position>
            <AltitudeMeters>927.0</AltitudeMeters>
            <DistanceMeters>57654.270654648</DistanceMeters>
          </Trackpoint>
          <Trackpoint>
            <Position>
              <LatitudeDegrees>50.17295</LatitudeDegrees>
              <LongitudeDegrees>16.87624</LongitudeDegrees>
            </Position>
            <AltitudeMeters>927.0</AltitudeMeters>
            <DistanceMeters>57657.218015084</DistanceMeters>
          </Trackpoint>
          <Trackpoint>
            <Position>
              <LatitudeDegrees>50.172928</LatitudeDegrees>
              <LongitudeDegrees>16.876212</LongitudeDegrees>
            </Position>
            <AltitudeMeters>927.0</AltitudeMeters>
            <DistanceMeters>57660.378278451</DistanceMeters>
          </Trackpoint>
          <Trackpoint>
            <Position>
              <LatitudeDegrees>50.172908</LatitudeDegrees>
              <LongitudeDegrees>16.876185</LongitudeDegrees>
            </Position>
            <AltitudeMeters>927.0</AltitudeMeters>
            <DistanceMeters>57663.321039622</DistanceMeters>
          </Trackpoint>
          <Trackpoint>
            <Position>
              <LatitudeDegrees>50.172878</LatitudeDegrees>
              <LongitudeDegrees>16.876167</LongitudeDegrees>
            </Position>
            <AltitudeMeters>928.0</AltitudeMeters>
            <DistanceMeters>57666.89939796</DistanceMeters>
          </Trackpoint>
          <Trackpoint>
            <Position>
              <LatitudeDegrees>50.172855</LatitudeDegrees>
              <LongitudeDegrees>16.876143</LongitudeDegrees>
            </Position>
            <AltitudeMeters>928.0</AltitudeMeters>
            <DistanceMeters>57669.978615436</DistanceMeters>
          </Trackpoint>
          <Trackpoint>
            <Position>
              <LatitudeDegrees>50.172772</LatitudeDegrees>
              <LongitudeDegrees>16.87608</LongitudeDegrees>
            </Position>
            <AltitudeMeters>928.0</AltitudeMeters>
            <DistanceMeters>57680.250295589</DistanceMeters>
          </Trackpoint>
          <Trackpoint>
            <Position>
              <LatitudeDegrees>50.172668</LatitudeDegrees>
              <LongitudeDegrees>16.876047</LongitudeDegrees>
            </Position>
            <AltitudeMeters>928.0</AltitudeMeters>
            <DistanceMeters>57692.062693365</DistanceMeters>
          </Trackpoint>
          <Trackpoint>
            <Position>
              <LatitudeDegrees>50.172608</LatitudeDegrees>
              <LongitudeDegrees>16.875935</LongitudeDegrees>
            </Position>
            <AltitudeMeters>930.0</AltitudeMeters>
            <DistanceMeters>57702.471914626</DistanceMeters>
          </Trackpoint>
          <Trackpoint>
            <Position>
              <LatitudeDegrees>50.172598</LatitudeDegrees>
              <LongitudeDegrees>16.875788</LongitudeDegrees>
            </Position>
            <AltitudeMeters>930.0</AltitudeMeters>
            <DistanceMeters>57713.010030212</DistanceMeters>
          </Trackpoint>
          <Trackpoint>
            <Position>
              <LatitudeDegrees>50.172598</LatitudeDegrees>
              <LongitudeDegrees>16.875662</LongitudeDegrees>
            </Position>
            <AltitudeMeters>930.0</AltitudeMeters>
            <DistanceMeters>57721.991939973</DistanceMeters>
          </Trackpoint>
          <Trackpoint>
            <Position>
              <LatitudeDegrees>50.172605</LatitudeDegrees>
              <LongitudeDegrees>16.87562</LongitudeDegrees>
            </Position>
            <AltitudeMeters>930.0</AltitudeMeters>
            <DistanceMeters>57725.085785643</DistanceMeters>
          </Trackpoint>
          <Trackpoint>
            <Position>
              <LatitudeDegrees>50.172612</LatitudeDegrees>
              <LongitudeDegrees>16.875527</LongitudeDegrees>
            </Position>
            <AltitudeMeters>931.0</AltitudeMeters>
            <DistanceMeters>57731.761370055</DistanceMeters>
          </Trackpoint>
          <Trackpoint>
            <Position>
              <LatitudeDegrees>50.172622</LatitudeDegrees>
              <LongitudeDegrees>16.87549</LongitudeDegrees>
            </Position>
            <AltitudeMeters>931.0</AltitudeMeters>
            <DistanceMeters>57734.624813684</DistanceMeters>
          </Trackpoint>
          <Trackpoint>
            <Position>
              <LatitudeDegrees>50.172617</LatitudeDegrees>
              <LongitudeDegrees>16.875457</LongitudeDegrees>
            </Position>
            <AltitudeMeters>932.0</AltitudeMeters>
            <DistanceMeters>57737.043798912</DistanceMeters>
          </Trackpoint>
          <Trackpoint>
            <Position>
              <LatitudeDegrees>50.172618</LatitudeDegrees>
              <LongitudeDegrees>16.875422</LongitudeDegrees>
            </Position>
            <AltitudeMeters>932.0</AltitudeMeters>
            <DistanceMeters>57739.541754641</DistanceMeters>
          </Trackpoint>
          <Trackpoint>
            <Position>
              <LatitudeDegrees>50.172615</LatitudeDegrees>
              <LongitudeDegrees>16.87527</LongitudeDegrees>
            </Position>
            <AltitudeMeters>932.0</AltitudeMeters>
            <DistanceMeters>57750.382299592</DistanceMeters>
          </Trackpoint>
          <Trackpoint>
            <Position>
              <LatitudeDegrees>50.172568</LatitudeDegrees>
              <LongitudeDegrees>16.875145</LongitudeDegrees>
            </Position>
            <AltitudeMeters>933.0</AltitudeMeters>
            <DistanceMeters>57760.715335152</DistanceMeters>
          </Trackpoint>
          <Trackpoint>
            <Position>
              <LatitudeDegrees>50.172565</LatitudeDegrees>
              <LongitudeDegrees>16.875002</LongitudeDegrees>
            </Position>
            <AltitudeMeters>935.0</AltitudeMeters>
            <DistanceMeters>57770.914672416</DistanceMeters>
          </Trackpoint>
          <Trackpoint>
            <Position>
              <LatitudeDegrees>50.172492</LatitudeDegrees>
              <LongitudeDegrees>16.874903</LongitudeDegrees>
            </Position>
            <AltitudeMeters>936.0</AltitudeMeters>
            <DistanceMeters>57781.676631367</DistanceMeters>
          </Trackpoint>
          <Trackpoint>
            <Position>
              <LatitudeDegrees>50.172425</LatitudeDegrees>
              <LongitudeDegrees>16.874803</LongitudeDegrees>
            </Position>
            <AltitudeMeters>938.0</AltitudeMeters>
            <DistanceMeters>57791.993049397</DistanceMeters>
          </Trackpoint>
          <Trackpoint>
            <Position>
              <LatitudeDegrees>50.17239</LatitudeDegrees>
              <LongitudeDegrees>16.874667</LongitudeDegrees>
            </Position>
            <AltitudeMeters>940.0</AltitudeMeters>
            <DistanceMeters>57802.441235562</DistanceMeters>
          </Trackpoint>
          <Trackpoint>
            <Position>
              <LatitudeDegrees>50.17234</LatitudeDegrees>
              <LongitudeDegrees>16.874537</LongitudeDegrees>
            </Position>
            <AltitudeMeters>942.0</AltitudeMeters>
            <DistanceMeters>57813.251333585</DistanceMeters>
          </Trackpoint>
          <Trackpoint>
            <Position>
              <LatitudeDegrees>50.17232</LatitudeDegrees>
              <LongitudeDegrees>16.874393</LongitudeDegrees>
            </Position>
            <AltitudeMeters>942.0</AltitudeMeters>
            <DistanceMeters>57823.755117379</DistanceMeters>
          </Trackpoint>
          <Trackpoint>
            <Position>
              <LatitudeDegrees>50.17228</LatitudeDegrees>
              <LongitudeDegrees>16.874257</LongitudeDegrees>
            </Position>
            <AltitudeMeters>944.0</AltitudeMeters>
            <DistanceMeters>57834.423532608</DistanceMeters>
          </Trackpoint>
          <Trackpoint>
            <Position>
              <LatitudeDegrees>50.172227</LatitudeDegrees>
              <LongitudeDegrees>16.874142</LongitudeDegrees>
            </Position>
            <AltitudeMeters>947.0</AltitudeMeters>
            <DistanceMeters>57844.523222876</DistanceMeters>
          </Trackpoint>
          <Trackpoint>
            <Position>
              <LatitudeDegrees>50.172185</LatitudeDegrees>
              <LongitudeDegrees>16.874008</LongitudeDegrees>
            </Position>
            <AltitudeMeters>951.0</AltitudeMeters>
            <DistanceMeters>57855.158576069</DistanceMeters>
          </Trackpoint>
          <Trackpoint>
            <Position>
              <LatitudeDegrees>50.172163</LatitudeDegrees>
              <LongitudeDegrees>16.873872</LongitudeDegrees>
            </Position>
            <AltitudeMeters>954.0</AltitudeMeters>
            <DistanceMeters>57865.15807788</DistanceMeters>
          </Trackpoint>
          <Trackpoint>
            <Position>
              <LatitudeDegrees>50.172072</LatitudeDegrees>
              <LongitudeDegrees>16.87385</LongitudeDegrees>
            </Position>
            <AltitudeMeters>956.0</AltitudeMeters>
            <DistanceMeters>57875.406875331</DistanceMeters>
          </Trackpoint>
          <Trackpoint>
            <Position>
              <LatitudeDegrees>50.171977</LatitudeDegrees>
              <LongitudeDegrees>16.873843</LongitudeDegrees>
            </Position>
            <AltitudeMeters>956.0</AltitudeMeters>
            <DistanceMeters>57885.992015316</DistanceMeters>
          </Trackpoint>
          <Trackpoint>
            <Position>
              <LatitudeDegrees>50.17208</LatitudeDegrees>
              <LongitudeDegrees>16.873822</LongitudeDegrees>
            </Position>
            <AltitudeMeters>957.0</AltitudeMeters>
            <DistanceMeters>57897.55368568</DistanceMeters>
          </Trackpoint>
          <Trackpoint>
            <Position>
              <LatitudeDegrees>50.172152</LatitudeDegrees>
              <LongitudeDegrees>16.873728</LongitudeDegrees>
            </Position>
            <AltitudeMeters>960.0</AltitudeMeters>
            <DistanceMeters>57908.000143158</DistanceMeters>
          </Trackpoint>
          <Trackpoint>
            <Position>
              <LatitudeDegrees>50.172055</LatitudeDegrees>
              <LongitudeDegrees>16.873712</LongitudeDegrees>
            </Position>
            <AltitudeMeters>973.0</AltitudeMeters>
            <DistanceMeters>57918.856503401</DistanceMeters>
          </Trackpoint>
          <Trackpoint>
            <Position>
              <LatitudeDegrees>50.171962</LatitudeDegrees>
              <LongitudeDegrees>16.873688</LongitudeDegrees>
            </Position>
            <AltitudeMeters>974.0</AltitudeMeters>
            <DistanceMeters>57929.348244527</DistanceMeters>
          </Trackpoint>
          <Trackpoint>
            <Position>
              <LatitudeDegrees>50.172105</LatitudeDegrees>
              <LongitudeDegrees>16.873758</LongitudeDegrees>
            </Position>
            <AltitudeMeters>974.0</AltitudeMeters>
            <DistanceMeters>57946.028072321</DistanceMeters>
          </Trackpoint>
          <Trackpoint>
            <Position>
              <LatitudeDegrees>50.172125</LatitudeDegrees>
              <LongitudeDegrees>16.873898</LongitudeDegrees>
            </Position>
            <AltitudeMeters>975.0</AltitudeMeters>
            <DistanceMeters>57956.253494325</DistanceMeters>
          </Trackpoint>
          <Trackpoint>
            <Position>
              <LatitudeDegrees>50.172023</LatitudeDegrees>
              <LongitudeDegrees>16.87393</LongitudeDegrees>
            </Position>
            <AltitudeMeters>977.0</AltitudeMeters>
            <DistanceMeters>57967.833114574</DistanceMeters>
          </Trackpoint>
          <Trackpoint>
            <Position>
              <LatitudeDegrees>50.17206</LatitudeDegrees>
              <LongitudeDegrees>16.874088</LongitudeDegrees>
            </Position>
            <AltitudeMeters>978.0</AltitudeMeters>
            <DistanceMeters>57979.825320269</DistanceMeters>
          </Trackpoint>
          <Trackpoint>
            <Position>
              <LatitudeDegrees>50.172</LatitudeDegrees>
              <LongitudeDegrees>16.873968</LongitudeDegrees>
            </Position>
            <AltitudeMeters>977.0</AltitudeMeters>
            <DistanceMeters>57990.677520829</DistanceMeters>
          </Trackpoint>
          <Trackpoint>
            <Position>
              <LatitudeDegrees>50.171945</LatitudeDegrees>
              <LongitudeDegrees>16.87385</LongitudeDegrees>
            </Position>
            <AltitudeMeters>973.0</AltitudeMeters>
            <DistanceMeters>58001.081101763</DistanceMeters>
          </Trackpoint>
          <Trackpoint>
            <Position>
              <LatitudeDegrees>50.171953</LatitudeDegrees>
              <LongitudeDegrees>16.874</LongitudeDegrees>
            </Position>
            <AltitudeMeters>981.0</AltitudeMeters>
            <DistanceMeters>58011.811128541</DistanceMeters>
          </Trackpoint>
          <Trackpoint>
            <Position>
              <LatitudeDegrees>50.17194</LatitudeDegrees>
              <LongitudeDegrees>16.87415</LongitudeDegrees>
            </Position>
            <AltitudeMeters>987.0</AltitudeMeters>
            <DistanceMeters>58022.601578285</DistanceMeters>
          </Trackpoint>
          <Trackpoint>
            <Position>
              <LatitudeDegrees>50.171913</LatitudeDegrees>
              <LongitudeDegrees>16.874293</LongitudeDegrees>
            </Position>
            <AltitudeMeters>988.0</AltitudeMeters>
            <DistanceMeters>58033.229287171</DistanceMeters>
          </Trackpoint>
          <Trackpoint>
            <Position>
              <LatitudeDegrees>50.171948</LatitudeDegrees>
              <LongitudeDegrees>16.874425</LongitudeDegrees>
            </Position>
            <AltitudeMeters>990.0</AltitudeMeters>
            <DistanceMeters>58043.414005533</DistanceMeters>
          </Trackpoint>
          <Trackpoint>
            <Position>
              <LatitudeDegrees>50.171877</LatitudeDegrees>
              <LongitudeDegrees>16.874517</LongitudeDegrees>
            </Position>
            <AltitudeMeters>990.0</AltitudeMeters>
            <DistanceMeters>58053.683487642</DistanceMeters>
          </Trackpoint>
          <Trackpoint>
            <Position>
              <LatitudeDegrees>50.171858</LatitudeDegrees>
              <LongitudeDegrees>16.874667</LongitudeDegrees>
            </Position>
            <AltitudeMeters>990.0</AltitudeMeters>
            <DistanceMeters>58064.58384295</DistanceMeters>
          </Trackpoint>
          <Trackpoint>
            <Position>
              <LatitudeDegrees>50.171793</LatitudeDegrees>
              <LongitudeDegrees>16.874767</LongitudeDegrees>
            </Position>
            <AltitudeMeters>991.0</AltitudeMeters>
            <DistanceMeters>58074.740594069</DistanceMeters>
          </Trackpoint>
          <Trackpoint>
            <Position>
              <LatitudeDegrees>50.171715</LatitudeDegrees>
              <LongitudeDegrees>16.874842</LongitudeDegrees>
            </Position>
            <AltitudeMeters>991.0</AltitudeMeters>
            <DistanceMeters>58084.936389282</DistanceMeters>
          </Trackpoint>
          <Trackpoint>
            <Position>
              <LatitudeDegrees>50.171662</LatitudeDegrees>
              <LongitudeDegrees>16.874957</LongitudeDegrees>
            </Position>
            <AltitudeMeters>990.0</AltitudeMeters>
            <DistanceMeters>58095.035632493</DistanceMeters>
          </Trackpoint>
          <Trackpoint>
            <Position>
              <LatitudeDegrees>50.17162</LatitudeDegrees>
              <LongitudeDegrees>16.875082</LongitudeDegrees>
            </Position>
            <AltitudeMeters>990.0</AltitudeMeters>
            <DistanceMeters>58105.098598122</DistanceMeters>
          </Trackpoint>
          <Trackpoint>
            <Position>
              <LatitudeDegrees>50.17158</LatitudeDegrees>
              <LongitudeDegrees>16.875212</LongitudeDegrees>
            </Position>
            <AltitudeMeters>994.0</AltitudeMeters>
            <DistanceMeters>58115.379944087</DistanceMeters>
          </Trackpoint>
          <Trackpoint>
            <Position>
              <LatitudeDegrees>50.171648</LatitudeDegrees>
              <LongitudeDegrees>16.87533</LongitudeDegrees>
            </Position>
            <AltitudeMeters>998.0</AltitudeMeters>
            <DistanceMeters>58126.69570672</DistanceMeters>
          </Trackpoint>
          <Trackpoint>
            <Position>
              <LatitudeDegrees>50.171605</LatitudeDegrees>
              <LongitudeDegrees>16.875513</LongitudeDegrees>
            </Position>
            <AltitudeMeters>1002.0</AltitudeMeters>
            <DistanceMeters>58140.591718906</DistanceMeters>
          </Trackpoint>
          <Trackpoint>
            <Position>
              <LatitudeDegrees>50.171515</LatitudeDegrees>
              <LongitudeDegrees>16.875493</LongitudeDegrees>
            </Position>
            <AltitudeMeters>997.0</AltitudeMeters>
            <DistanceMeters>58150.709721508</DistanceMeters>
          </Trackpoint>
          <Trackpoint>
            <Position>
              <LatitudeDegrees>50.171427</LatitudeDegrees>
              <LongitudeDegrees>16.875512</LongitudeDegrees>
            </Position>
            <AltitudeMeters>999.0</AltitudeMeters>
            <DistanceMeters>58160.597523977</DistanceMeters>
          </Trackpoint>
          <Trackpoint>
            <Position>
              <LatitudeDegrees>50.171317</LatitudeDegrees>
              <LongitudeDegrees>16.875452</LongitudeDegrees>
            </Position>
            <AltitudeMeters>998.0</AltitudeMeters>
            <DistanceMeters>58173.566494786</DistanceMeters>
          </Trackpoint>
          <Trackpoint>
            <Position>
              <LatitudeDegrees>50.171195</LatitudeDegrees>
              <LongitudeDegrees>16.875352</LongitudeDegrees>
            </Position>
            <AltitudeMeters>994.0</AltitudeMeters>
            <DistanceMeters>58188.902935088</DistanceMeters>
          </Trackpoint>
          <Trackpoint>
            <Position>
              <LatitudeDegrees>50.171065</LatitudeDegrees>
              <LongitudeDegrees>16.875215</LongitudeDegrees>
            </Position>
            <AltitudeMeters>987.0</AltitudeMeters>
            <DistanceMeters>58206.35993998</DistanceMeters>
          </Trackpoint>
          <Trackpoint>
            <Position>
              <LatitudeDegrees>50.171103</LatitudeDegrees>
              <LongitudeDegrees>16.875355</LongitudeDegrees>
            </Position>
            <AltitudeMeters>987.0</AltitudeMeters>
            <DistanceMeters>58217.199651909</DistanceMeters>
          </Trackpoint>
          <Trackpoint>
            <Position>
              <LatitudeDegrees>50.171157</LatitudeDegrees>
              <LongitudeDegrees>16.875487</LongitudeDegrees>
            </Position>
            <AltitudeMeters>981.0</AltitudeMeters>
            <DistanceMeters>58228.36559412</DistanceMeters>
          </Trackpoint>
          <Trackpoint>
            <Position>
              <LatitudeDegrees>50.171202</LatitudeDegrees>
              <LongitudeDegrees>16.875623</LongitudeDegrees>
            </Position>
            <AltitudeMeters>977.0</AltitudeMeters>
            <DistanceMeters>58239.278368659</DistanceMeters>
          </Trackpoint>
          <Trackpoint>
            <Position>
              <LatitudeDegrees>50.171277</LatitudeDegrees>
              <LongitudeDegrees>16.875723</LongitudeDegrees>
            </Position>
            <AltitudeMeters>982.0</AltitudeMeters>
            <DistanceMeters>58250.255908007</DistanceMeters>
          </Trackpoint>
          <Trackpoint>
            <Position>
              <LatitudeDegrees>50.171315</LatitudeDegrees>
              <LongitudeDegrees>16.875877</LongitudeDegrees>
            </Position>
            <AltitudeMeters>987.0</AltitudeMeters>
            <DistanceMeters>58262.020813946</DistanceMeters>
          </Trackpoint>
          <Trackpoint>
            <Position>
              <LatitudeDegrees>50.17137</LatitudeDegrees>
              <LongitudeDegrees>16.875992</LongitudeDegrees>
            </Position>
            <AltitudeMeters>994.0</AltitudeMeters>
            <DistanceMeters>58272.252415786</DistanceMeters>
          </Trackpoint>
          <Trackpoint>
            <Position>
              <LatitudeDegrees>50.171307</LatitudeDegrees>
              <LongitudeDegrees>16.876115</LongitudeDegrees>
            </Position>
            <AltitudeMeters>993.0</AltitudeMeters>
            <DistanceMeters>58283.480054324</DistanceMeters>
          </Trackpoint>
          <Trackpoint>
            <Position>
              <LatitudeDegrees>50.171117</LatitudeDegrees>
              <LongitudeDegrees>16.876423</LongitudeDegrees>
            </Position>
            <AltitudeMeters>993.0</AltitudeMeters>
            <DistanceMeters>58313.964825722</DistanceMeters>
          </Trackpoint>
          <Trackpoint>
            <Position>
              <LatitudeDegrees>50.171202</LatitudeDegrees>
              <LongitudeDegrees>16.87649</LongitudeDegrees>
            </Position>
            <AltitudeMeters>994.0</AltitudeMeters>
            <DistanceMeters>58324.562328292</DistanceMeters>
          </Trackpoint>
          <Trackpoint>
            <Position>
              <LatitudeDegrees>50.171258</LatitudeDegrees>
              <LongitudeDegrees>16.876628</LongitudeDegrees>
            </Position>
            <AltitudeMeters>1008.0</AltitudeMeters>
            <DistanceMeters>58336.208432714</DistanceMeters>
          </Trackpoint>
          <Trackpoint>
            <Position>
              <LatitudeDegrees>50.171275</LatitudeDegrees>
              <LongitudeDegrees>16.876777</LongitudeDegrees>
            </Position>
            <AltitudeMeters>1013.0</AltitudeMeters>
            <DistanceMeters>58346.997627097</DistanceMeters>
          </Trackpoint>
          <Trackpoint>
            <Position>
              <LatitudeDegrees>50.171265</LatitudeDegrees>
              <LongitudeDegrees>16.876918</LongitudeDegrees>
            </Position>
            <AltitudeMeters>1016.0</AltitudeMeters>
            <DistanceMeters>58357.110719888</DistanceMeters>
          </Trackpoint>
          <Trackpoint>
            <Position>
              <LatitudeDegrees>50.171207</LatitudeDegrees>
              <LongitudeDegrees>16.87704</LongitudeDegrees>
            </Position>
            <AltitudeMeters>1017.0</AltitudeMeters>
            <DistanceMeters>58367.942098063</DistanceMeters>
          </Trackpoint>
          <Trackpoint>
            <Position>
              <LatitudeDegrees>50.17121</LatitudeDegrees>
              <LongitudeDegrees>16.877185</LongitudeDegrees>
            </Position>
            <AltitudeMeters>1022.0</AltitudeMeters>
            <DistanceMeters>58378.284305539</DistanceMeters>
          </Trackpoint>
          <Trackpoint>
            <Position>
              <LatitudeDegrees>50.171147</LatitudeDegrees>
              <LongitudeDegrees>16.877312</LongitudeDegrees>
            </Position>
            <AltitudeMeters>1023.0</AltitudeMeters>
            <DistanceMeters>58389.735714628</DistanceMeters>
          </Trackpoint>
          <Trackpoint>
            <Position>
              <LatitudeDegrees>50.171072</LatitudeDegrees>
              <LongitudeDegrees>16.877562</LongitudeDegrees>
            </Position>
            <AltitudeMeters>1023.0</AltitudeMeters>
            <DistanceMeters>58409.415882532</DistanceMeters>
          </Trackpoint>
          <Trackpoint>
            <Position>
              <LatitudeDegrees>50.17107</LatitudeDegrees>
              <LongitudeDegrees>16.87771</LongitudeDegrees>
            </Position>
            <AltitudeMeters>1024.0</AltitudeMeters>
            <DistanceMeters>58419.968555308</DistanceMeters>
          </Trackpoint>
          <Trackpoint>
            <Position>
              <LatitudeDegrees>50.171042</LatitudeDegrees>
              <LongitudeDegrees>16.877852</LongitudeDegrees>
            </Position>
            <AltitudeMeters>1034.0</AltitudeMeters>
            <DistanceMeters>58430.560517814</DistanceMeters>
          </Trackpoint>
          <Trackpoint>
            <Position>
              <LatitudeDegrees>50.171017</LatitudeDegrees>
              <LongitudeDegrees>16.878</LongitudeDegrees>
            </Position>
            <AltitudeMeters>1032.0</AltitudeMeters>
            <DistanceMeters>58441.471637273</DistanceMeters>
          </Trackpoint>
          <Trackpoint>
            <Position>
              <LatitudeDegrees>50.17095</LatitudeDegrees>
              <LongitudeDegrees>16.878112</LongitudeDegrees>
            </Position>
            <AltitudeMeters>1033.0</AltitudeMeters>
            <DistanceMeters>58452.396816925</DistanceMeters>
          </Trackpoint>
          <Trackpoint>
            <Position>
              <LatitudeDegrees>50.170877</LatitudeDegrees>
              <LongitudeDegrees>16.878205</LongitudeDegrees>
            </Position>
            <AltitudeMeters>1032.0</AltitudeMeters>
            <DistanceMeters>58462.883392674</DistanceMeters>
          </Trackpoint>
          <Trackpoint>
            <Position>
              <LatitudeDegrees>50.170925</LatitudeDegrees>
              <LongitudeDegrees>16.878365</LongitudeDegrees>
            </Position>
            <AltitudeMeters>1033.0</AltitudeMeters>
            <DistanceMeters>58475.478645072</DistanceMeters>
          </Trackpoint>
          <Trackpoint>
            <Position>
              <LatitudeDegrees>50.170955</LatitudeDegrees>
              <LongitudeDegrees>16.878507</LongitudeDegrees>
            </Position>
            <AltitudeMeters>1033.0</AltitudeMeters>
            <DistanceMeters>58486.137745494</DistanceMeters>
          </Trackpoint>
          <Trackpoint>
            <Position>
              <LatitudeDegrees>50.17097</LatitudeDegrees>
              <LongitudeDegrees>16.878687</LongitudeDegrees>
            </Position>
            <AltitudeMeters>1032.0</AltitudeMeters>
            <DistanceMeters>58499.077439363</DistanceMeters>
          </Trackpoint>
          <Trackpoint>
            <Position>
              <LatitudeDegrees>50.171</LatitudeDegrees>
              <LongitudeDegrees>16.878822</LongitudeDegrees>
            </Position>
            <AltitudeMeters>1031.0</AltitudeMeters>
            <DistanceMeters>58509.263930831</DistanceMeters>
          </Trackpoint>
          <Trackpoint>
            <Position>
              <LatitudeDegrees>50.1708</LatitudeDegrees>
              <LongitudeDegrees>16.878872</LongitudeDegrees>
            </Position>
            <AltitudeMeters>1030.0</AltitudeMeters>
            <DistanceMeters>58531.807904802</DistanceMeters>
          </Trackpoint>
          <Trackpoint>
            <Position>
              <LatitudeDegrees>50.170762</LatitudeDegrees>
              <LongitudeDegrees>16.878625</LongitudeDegrees>
            </Position>
            <AltitudeMeters>1028.0</AltitudeMeters>
            <DistanceMeters>58549.917164484</DistanceMeters>
          </Trackpoint>
          <Trackpoint>
            <Position>
              <LatitudeDegrees>50.170667</LatitudeDegrees>
              <LongitudeDegrees>16.878603</LongitudeDegrees>
            </Position>
            <AltitudeMeters>1029.0</AltitudeMeters>
            <DistanceMeters>58560.606297154</DistanceMeters>
          </Trackpoint>
          <Trackpoint>
            <Position>
              <LatitudeDegrees>50.170572</LatitudeDegrees>
              <LongitudeDegrees>16.878688</LongitudeDegrees>
            </Position>
            <AltitudeMeters>1035.0</AltitudeMeters>
            <DistanceMeters>58572.793450117</DistanceMeters>
          </Trackpoint>
          <Trackpoint>
            <Position>
              <LatitudeDegrees>50.17051</LatitudeDegrees>
              <LongitudeDegrees>16.8788</LongitudeDegrees>
            </Position>
            <AltitudeMeters>1039.0</AltitudeMeters>
            <DistanceMeters>58583.346550742</DistanceMeters>
          </Trackpoint>
          <Trackpoint>
            <Position>
              <LatitudeDegrees>50.17033</LatitudeDegrees>
              <LongitudeDegrees>16.879032</LongitudeDegrees>
            </Position>
            <AltitudeMeters>1039.0</AltitudeMeters>
            <DistanceMeters>58609.325714383</DistanceMeters>
          </Trackpoint>
          <Trackpoint>
            <Position>
              <LatitudeDegrees>50.170225</LatitudeDegrees>
              <LongitudeDegrees>16.879068</LongitudeDegrees>
            </Position>
            <AltitudeMeters>1041.0</AltitudeMeters>
            <DistanceMeters>58621.290781534</DistanceMeters>
          </Trackpoint>
          <Trackpoint>
            <Position>
              <LatitudeDegrees>50.17013</LatitudeDegrees>
              <LongitudeDegrees>16.87911</LongitudeDegrees>
            </Position>
            <AltitudeMeters>1044.0</AltitudeMeters>
            <DistanceMeters>58632.280242047</DistanceMeters>
          </Trackpoint>
          <Trackpoint>
            <Position>
              <LatitudeDegrees>50.170037</LatitudeDegrees>
              <LongitudeDegrees>16.879165</LongitudeDegrees>
            </Position>
            <AltitudeMeters>1047.0</AltitudeMeters>
            <DistanceMeters>58643.349120816</DistanceMeters>
          </Trackpoint>
          <Trackpoint>
            <Position>
              <LatitudeDegrees>50.16994</LatitudeDegrees>
              <LongitudeDegrees>16.87918</LongitudeDegrees>
            </Position>
            <AltitudeMeters>1054.0</AltitudeMeters>
            <DistanceMeters>58654.197992479</DistanceMeters>
          </Trackpoint>
          <Trackpoint>
            <Position>
              <LatitudeDegrees>50.169947</LatitudeDegrees>
              <LongitudeDegrees>16.87932</LongitudeDegrees>
            </Position>
            <AltitudeMeters>1056.0</AltitudeMeters>
            <DistanceMeters>58664.208776084</DistanceMeters>
          </Trackpoint>
          <Trackpoint>
            <Position>
              <LatitudeDegrees>50.169855</LatitudeDegrees>
              <LongitudeDegrees>16.879338</LongitudeDegrees>
            </Position>
            <AltitudeMeters>1058.0</AltitudeMeters>
            <DistanceMeters>58674.528694764</DistanceMeters>
          </Trackpoint>
          <Trackpoint>
            <Position>
              <LatitudeDegrees>50.16976</LatitudeDegrees>
              <LongitudeDegrees>16.879375</LongitudeDegrees>
            </Position>
            <AltitudeMeters>1060.0</AltitudeMeters>
            <DistanceMeters>58685.426564528</DistanceMeters>
          </Trackpoint>
          <Trackpoint>
            <Position>
              <LatitudeDegrees>50.169655</LatitudeDegrees>
              <LongitudeDegrees>16.879397</LongitudeDegrees>
            </Position>
            <AltitudeMeters>1060.0</AltitudeMeters>
            <DistanceMeters>58697.218303886</DistanceMeters>
          </Trackpoint>
          <Trackpoint>
            <Position>
              <LatitudeDegrees>50.169563</LatitudeDegrees>
              <LongitudeDegrees>16.879432</LongitudeDegrees>
            </Position>
            <AltitudeMeters>1060.0</AltitudeMeters>
            <DistanceMeters>58707.757704739</DistanceMeters>
          </Trackpoint>
          <Trackpoint>
            <Position>
              <LatitudeDegrees>50.16946</LatitudeDegrees>
              <LongitudeDegrees>16.879435</LongitudeDegrees>
            </Position>
            <AltitudeMeters>1061.0</AltitudeMeters>
            <DistanceMeters>58719.223299049</DistanceMeters>
          </Trackpoint>
          <Trackpoint>
            <Position>
              <LatitudeDegrees>50.169375</LatitudeDegrees>
              <LongitudeDegrees>16.87949</LongitudeDegrees>
            </Position>
            <AltitudeMeters>1061.0</AltitudeMeters>
            <DistanceMeters>58729.464163652</DistanceMeters>
          </Trackpoint>
          <Trackpoint>
            <Position>
              <LatitudeDegrees>50.169277</LatitudeDegrees>
              <LongitudeDegrees>16.879547</LongitudeDegrees>
            </Position>
            <AltitudeMeters>1062.0</AltitudeMeters>
            <DistanceMeters>58741.104063435</DistanceMeters>
          </Trackpoint>
          <Trackpoint>
            <Position>
              <LatitudeDegrees>50.169185</LatitudeDegrees>
              <LongitudeDegrees>16.8796</LongitudeDegrees>
            </Position>
            <AltitudeMeters>1062.0</AltitudeMeters>
            <DistanceMeters>58752.018906472</DistanceMeters>
          </Trackpoint>
          <Trackpoint>
            <Position>
              <LatitudeDegrees>50.169097</LatitudeDegrees>
              <LongitudeDegrees>16.879645</LongitudeDegrees>
            </Position>
            <AltitudeMeters>1063.0</AltitudeMeters>
            <DistanceMeters>58762.325253507</DistanceMeters>
          </Trackpoint>
          <Trackpoint>
            <Position>
              <LatitudeDegrees>50.169063</LatitudeDegrees>
              <LongitudeDegrees>16.87963</LongitudeDegrees>
            </Position>
            <AltitudeMeters>1064.0</AltitudeMeters>
            <DistanceMeters>58766.258257569</DistanceMeters>
          </Trackpoint>
          <Trackpoint>
            <Position>
              <LatitudeDegrees>50.169043</LatitudeDegrees>
              <LongitudeDegrees>16.879633</LongitudeDegrees>
            </Position>
            <AltitudeMeters>1064.0</AltitudeMeters>
            <DistanceMeters>58768.494920787</DistanceMeters>
          </Trackpoint>
          <Trackpoint>
            <Position>
              <LatitudeDegrees>50.169025</LatitudeDegrees>
              <LongitudeDegrees>16.87964</LongitudeDegrees>
            </Position>
            <AltitudeMeters>1064.0</AltitudeMeters>
            <DistanceMeters>58770.559429465</DistanceMeters>
          </Trackpoint>
          <Trackpoint>
            <Position>
              <LatitudeDegrees>50.168915</LatitudeDegrees>
              <LongitudeDegrees>16.879585</LongitudeDegrees>
            </Position>
            <AltitudeMeters>1065.0</AltitudeMeters>
            <DistanceMeters>58783.415458757</DistanceMeters>
          </Trackpoint>
          <Trackpoint>
            <Position>
              <LatitudeDegrees>50.168888</LatitudeDegrees>
              <LongitudeDegrees>16.879645</LongitudeDegrees>
            </Position>
            <AltitudeMeters>1066.0</AltitudeMeters>
            <DistanceMeters>58788.642791855</DistanceMeters>
          </Trackpoint>
          <Trackpoint>
            <Position>
              <LatitudeDegrees>50.168842</LatitudeDegrees>
              <LongitudeDegrees>16.879673</LongitudeDegrees>
            </Position>
            <AltitudeMeters>1067.0</AltitudeMeters>
            <DistanceMeters>58794.137932948</DistanceMeters>
          </Trackpoint>
          <Trackpoint>
            <Position>
              <LatitudeDegrees>50.168818</LatitudeDegrees>
              <LongitudeDegrees>16.879685</LongitudeDegrees>
            </Position>
            <AltitudeMeters>1068.0</AltitudeMeters>
            <DistanceMeters>58796.944038195</DistanceMeters>
          </Trackpoint>
          <Trackpoint>
            <Position>
              <LatitudeDegrees>50.168792</LatitudeDegrees>
              <LongitudeDegrees>16.879697</LongitudeDegrees>
            </Position>
            <AltitudeMeters>1069.0</AltitudeMeters>
            <DistanceMeters>58799.961042845</DistanceMeters>
          </Trackpoint>
          <Trackpoint>
            <Position>
              <LatitudeDegrees>50.16877</LatitudeDegrees>
              <LongitudeDegrees>16.879703</LongitudeDegrees>
            </Position>
            <AltitudeMeters>1069.0</AltitudeMeters>
            <DistanceMeters>58802.444496531</DistanceMeters>
          </Trackpoint>
          <Trackpoint>
            <Position>
              <LatitudeDegrees>50.168748</LatitudeDegrees>
              <LongitudeDegrees>16.879703</LongitudeDegrees>
            </Position>
            <AltitudeMeters>1070.0</AltitudeMeters>
            <DistanceMeters>58804.89316367</DistanceMeters>
          </Trackpoint>
          <Trackpoint>
            <Position>
              <LatitudeDegrees>50.168723</LatitudeDegrees>
              <LongitudeDegrees>16.879712</LongitudeDegrees>
            </Position>
            <AltitudeMeters>1070.0</AltitudeMeters>
            <DistanceMeters>58807.7471309</DistanceMeters>
          </Trackpoint>
          <Trackpoint>
            <Position>
              <LatitudeDegrees>50.168697</LatitudeDegrees>
              <LongitudeDegrees>16.879747</LongitudeDegrees>
            </Position>
            <AltitudeMeters>1070.0</AltitudeMeters>
            <DistanceMeters>58811.567157541</DistanceMeters>
          </Trackpoint>
          <Trackpoint>
            <Position>
              <LatitudeDegrees>50.1686</LatitudeDegrees>
              <LongitudeDegrees>16.879708</LongitudeDegrees>
            </Position>
            <AltitudeMeters>1072.0</AltitudeMeters>
            <DistanceMeters>58822.715698798</DistanceMeters>
          </Trackpoint>
          <Trackpoint>
            <Position>
              <LatitudeDegrees>50.168523</LatitudeDegrees>
              <LongitudeDegrees>16.87972</LongitudeDegrees>
            </Position>
            <AltitudeMeters>1072.0</AltitudeMeters>
            <DistanceMeters>58831.328600632</DistanceMeters>
          </Trackpoint>
          <Trackpoint>
            <Position>
              <LatitudeDegrees>50.168538</LatitudeDegrees>
              <LongitudeDegrees>16.879687</LongitudeDegrees>
            </Position>
            <AltitudeMeters>1073.0</AltitudeMeters>
            <DistanceMeters>58834.214034824</DistanceMeters>
          </Trackpoint>
          <Trackpoint>
            <Position>
              <LatitudeDegrees>50.168543</LatitudeDegrees>
              <LongitudeDegrees>16.879717</LongitudeDegrees>
            </Position>
            <AltitudeMeters>1073.0</AltitudeMeters>
            <DistanceMeters>58836.422256118</DistanceMeters>
          </Trackpoint>
          <Trackpoint>
            <Position>
              <LatitudeDegrees>50.168542</LatitudeDegrees>
              <LongitudeDegrees>16.879868</LongitudeDegrees>
            </Position>
            <AltitudeMeters>1073.0</AltitudeMeters>
            <DistanceMeters>58847.18757084</DistanceMeters>
          </Trackpoint>
          <Trackpoint>
            <Position>
              <LatitudeDegrees>50.16853</LatitudeDegrees>
              <LongitudeDegrees>16.880008</LongitudeDegrees>
            </Position>
            <AltitudeMeters>1073.0</AltitudeMeters>
            <DistanceMeters>58857.2572644</DistanceMeters>
          </Trackpoint>
          <Trackpoint>
            <Position>
              <LatitudeDegrees>50.168603</LatitudeDegrees>
              <LongitudeDegrees>16.880102</LongitudeDegrees>
            </Position>
            <AltitudeMeters>1072.0</AltitudeMeters>
            <DistanceMeters>58867.789380002</DistanceMeters>
          </Trackpoint>
          <Trackpoint>
            <Position>
              <LatitudeDegrees>50.168623</LatitudeDegrees>
              <LongitudeDegrees>16.880132</LongitudeDegrees>
            </Position>
            <AltitudeMeters>1071.0</AltitudeMeters>
            <DistanceMeters>58870.87738271</DistanceMeters>
          </Trackpoint>
          <Trackpoint>
            <Position>
              <LatitudeDegrees>50.168628</LatitudeDegrees>
              <LongitudeDegrees>16.880167</LongitudeDegrees>
            </Position>
            <AltitudeMeters>1070.0</AltitudeMeters>
            <DistanceMeters>58873.434290089</DistanceMeters>
          </Trackpoint>
          <Trackpoint>
            <Position>
              <LatitudeDegrees>50.168628</LatitudeDegrees>
              <LongitudeDegrees>16.8802</LongitudeDegrees>
            </Position>
            <AltitudeMeters>1070.0</AltitudeMeters>
            <DistanceMeters>58875.788959266</DistanceMeters>
          </Trackpoint>
          <Trackpoint>
            <Position>
              <LatitudeDegrees>50.168613</LatitudeDegrees>
              <LongitudeDegrees>16.880248</LongitudeDegrees>
            </Position>
            <AltitudeMeters>1070.0</AltitudeMeters>
            <DistanceMeters>58879.597148176</DistanceMeters>
          </Trackpoint>
          <Trackpoint>
            <Position>
              <LatitudeDegrees>50.168615</LatitudeDegrees>
              <LongitudeDegrees>16.880287</LongitudeDegrees>
            </Position>
            <AltitudeMeters>1070.0</AltitudeMeters>
            <DistanceMeters>58882.387116974</DistanceMeters>
          </Trackpoint>
          <Trackpoint>
            <Position>
              <LatitudeDegrees>50.168633</LatitudeDegrees>
              <LongitudeDegrees>16.880308</LongitudeDegrees>
            </Position>
            <AltitudeMeters>1069.0</AltitudeMeters>
            <DistanceMeters>58884.886879542</DistanceMeters>
          </Trackpoint>
          <Trackpoint>
            <Position>
              <LatitudeDegrees>50.16864</LatitudeDegrees>
              <LongitudeDegrees>16.880343</LongitudeDegrees>
            </Position>
            <AltitudeMeters>1069.0</AltitudeMeters>
            <DistanceMeters>58887.499682212</DistanceMeters>
          </Trackpoint>
          <Trackpoint>
            <Position>
              <LatitudeDegrees>50.168652</LatitudeDegrees>
              <LongitudeDegrees>16.880368</LongitudeDegrees>
            </Position>
            <AltitudeMeters>1069.0</AltitudeMeters>
            <DistanceMeters>58889.726229308</DistanceMeters>
          </Trackpoint>
          <Trackpoint>
            <Position>
              <LatitudeDegrees>50.168663</LatitudeDegrees>
              <LongitudeDegrees>16.880392</LongitudeDegrees>
            </Position>
            <AltitudeMeters>1069.0</AltitudeMeters>
            <DistanceMeters>58891.829735299</DistanceMeters>
          </Trackpoint>
          <Trackpoint>
            <Position>
              <LatitudeDegrees>50.168673</LatitudeDegrees>
              <LongitudeDegrees>16.88043</LongitudeDegrees>
            </Position>
            <AltitudeMeters>1068.0</AltitudeMeters>
            <DistanceMeters>58894.758655343</DistanceMeters>
          </Trackpoint>
          <Trackpoint>
            <Position>
              <LatitudeDegrees>50.168673</LatitudeDegrees>
              <LongitudeDegrees>16.88047</LongitudeDegrees>
            </Position>
            <AltitudeMeters>1068.0</AltitudeMeters>
            <DistanceMeters>58897.611040113</DistanceMeters>
          </Trackpoint>
          <Trackpoint>
            <Position>
              <LatitudeDegrees>50.168677</LatitudeDegrees>
              <LongitudeDegrees>16.88051</LongitudeDegrees>
            </Position>
            <AltitudeMeters>1067.0</AltitudeMeters>
            <DistanceMeters>58900.496474306</DistanceMeters>
          </Trackpoint>
          <Trackpoint>
            <Position>
              <LatitudeDegrees>50.168683</LatitudeDegrees>
              <LongitudeDegrees>16.880555</LongitudeDegrees>
            </Position>
            <AltitudeMeters>1067.0</AltitudeMeters>
            <DistanceMeters>58903.774551634</DistanceMeters>
          </Trackpoint>
          <Trackpoint>
            <Position>
              <LatitudeDegrees>50.168702</LatitudeDegrees>
              <LongitudeDegrees>16.880707</LongitudeDegrees>
            </Position>
            <AltitudeMeters>1066.0</AltitudeMeters>
            <DistanceMeters>58914.815249162</DistanceMeters>
          </Trackpoint>
          <Trackpoint>
            <Position>
              <LatitudeDegrees>50.168725</LatitudeDegrees>
              <LongitudeDegrees>16.880852</LongitudeDegrees>
            </Position>
            <AltitudeMeters>1064.0</AltitudeMeters>
            <DistanceMeters>58925.464178685</DistanceMeters>
          </Trackpoint>
          <Trackpoint>
            <Position>
              <LatitudeDegrees>50.168805</LatitudeDegrees>
              <LongitudeDegrees>16.880945</LongitudeDegrees>
            </Position>
            <AltitudeMeters>1063.0</AltitudeMeters>
            <DistanceMeters>58936.565235087</DistanceMeters>
          </Trackpoint>
          <Trackpoint>
            <Position>
              <LatitudeDegrees>50.168795</LatitudeDegrees>
              <LongitudeDegrees>16.880982</LongitudeDegrees>
            </Position>
            <AltitudeMeters>1060.0</AltitudeMeters>
            <DistanceMeters>58939.428678715</DistanceMeters>
          </Trackpoint>
          <Trackpoint>
            <Position>
              <LatitudeDegrees>50.16878</LatitudeDegrees>
              <LongitudeDegrees>16.881002</LongitudeDegrees>
            </Position>
            <AltitudeMeters>1059.0</AltitudeMeters>
            <DistanceMeters>58941.624597844</DistanceMeters>
          </Trackpoint>
          <Trackpoint>
            <Position>
              <LatitudeDegrees>50.168783</LatitudeDegrees>
              <LongitudeDegrees>16.881037</LongitudeDegrees>
            </Position>
            <AltitudeMeters>1056.0</AltitudeMeters>
            <DistanceMeters>58944.142357496</DistanceMeters>
          </Trackpoint>
          <Trackpoint>
            <Position>
              <LatitudeDegrees>50.168795</LatitudeDegrees>
              <LongitudeDegrees>16.881072</LongitudeDegrees>
            </Position>
            <AltitudeMeters>1055.0</AltitudeMeters>
            <DistanceMeters>58946.972494914</DistanceMeters>
          </Trackpoint>
          <Trackpoint>
            <Position>
              <LatitudeDegrees>50.168798</LatitudeDegrees>
              <LongitudeDegrees>16.88111</LongitudeDegrees>
            </Position>
            <AltitudeMeters>1055.0</AltitudeMeters>
            <DistanceMeters>58949.703583185</DistanceMeters>
          </Trackpoint>
          <Trackpoint>
            <Position>
              <LatitudeDegrees>50.1688</LatitudeDegrees>
              <LongitudeDegrees>16.881145</LongitudeDegrees>
            </Position>
            <AltitudeMeters>1054.0</AltitudeMeters>
            <DistanceMeters>58952.20695552</DistanceMeters>
          </Trackpoint>
          <Trackpoint>
            <Position>
              <LatitudeDegrees>50.168805</LatitudeDegrees>
              <LongitudeDegrees>16.881178</LongitudeDegrees>
            </Position>
            <AltitudeMeters>1053.0</AltitudeMeters>
            <DistanceMeters>58954.622204862</DistanceMeters>
          </Trackpoint>
          <Trackpoint>
            <Position>
              <LatitudeDegrees>50.168853</LatitudeDegrees>
              <LongitudeDegrees>16.8813</LongitudeDegrees>
            </Position>
            <AltitudeMeters>1053.0</AltitudeMeters>
            <DistanceMeters>58964.829507249</DistanceMeters>
          </Trackpoint>
          <Trackpoint>
            <Position>
              <LatitudeDegrees>50.168885</LatitudeDegrees>
              <LongitudeDegrees>16.881435</LongitudeDegrees>
            </Position>
            <AltitudeMeters>1053.0</AltitudeMeters>
            <DistanceMeters>58975.091952453</DistanceMeters>
          </Trackpoint>
          <Trackpoint>
            <Position>
              <LatitudeDegrees>50.168862</LatitudeDegrees>
              <LongitudeDegrees>16.881583</LongitudeDegrees>
            </Position>
            <AltitudeMeters>1051.0</AltitudeMeters>
            <DistanceMeters>58985.949560291</DistanceMeters>
          </Trackpoint>
          <Trackpoint>
            <Position>
              <LatitudeDegrees>50.168765</LatitudeDegrees>
              <LongitudeDegrees>16.881652</LongitudeDegrees>
            </Position>
            <AltitudeMeters>1050.0</AltitudeMeters>
            <DistanceMeters>58997.813827298</DistanceMeters>
          </Trackpoint>
          <Trackpoint>
            <Position>
              <LatitudeDegrees>50.168653</LatitudeDegrees>
              <LongitudeDegrees>16.881685</LongitudeDegrees>
            </Position>
            <AltitudeMeters>1049.0</AltitudeMeters>
            <DistanceMeters>59010.49980469</DistanceMeters>
          </Trackpoint>
          <Trackpoint>
            <Position>
              <LatitudeDegrees>50.168525</LatitudeDegrees>
              <LongitudeDegrees>16.881708</LongitudeDegrees>
            </Position>
            <AltitudeMeters>1049.0</AltitudeMeters>
            <DistanceMeters>59024.840340277</DistanceMeters>
          </Trackpoint>
          <Trackpoint>
            <Position>
              <LatitudeDegrees>50.168435</LatitudeDegrees>
              <LongitudeDegrees>16.881767</LongitudeDegrees>
            </Position>
            <AltitudeMeters>1042.0</AltitudeMeters>
            <DistanceMeters>59035.70418394</DistanceMeters>
          </Trackpoint>
          <Trackpoint>
            <Position>
              <LatitudeDegrees>50.168335</LatitudeDegrees>
              <LongitudeDegrees>16.881785</LongitudeDegrees>
            </Position>
            <AltitudeMeters>1038.0</AltitudeMeters>
            <DistanceMeters>59046.907668334</DistanceMeters>
          </Trackpoint>
          <Trackpoint>
            <Position>
              <LatitudeDegrees>50.168232</LatitudeDegrees>
              <LongitudeDegrees>16.881822</LongitudeDegrees>
            </Position>
            <AltitudeMeters>1035.0</AltitudeMeters>
            <DistanceMeters>59058.671039085</DistanceMeters>
          </Trackpoint>
          <Trackpoint>
            <Position>
              <LatitudeDegrees>50.168203</LatitudeDegrees>
              <LongitudeDegrees>16.881825</LongitudeDegrees>
            </Position>
            <AltitudeMeters>1034.0</AltitudeMeters>
            <DistanceMeters>59061.906137012</DistanceMeters>
          </Trackpoint>
          <Trackpoint>
            <Position>
              <LatitudeDegrees>50.168172</LatitudeDegrees>
              <LongitudeDegrees>16.881822</LongitudeDegrees>
            </Position>
            <AltitudeMeters>1034.0</AltitudeMeters>
            <DistanceMeters>59065.363856089</DistanceMeters>
          </Trackpoint>
          <Trackpoint>
            <Position>
              <LatitudeDegrees>50.168143</LatitudeDegrees>
              <LongitudeDegrees>16.881813</LongitudeDegrees>
            </Position>
            <AltitudeMeters>1034.0</AltitudeMeters>
            <DistanceMeters>59068.655678036</DistanceMeters>
          </Trackpoint>
          <Trackpoint>
            <Position>
              <LatitudeDegrees>50.16812</LatitudeDegrees>
              <LongitudeDegrees>16.881815</LongitudeDegrees>
            </Position>
            <AltitudeMeters>1034.0</AltitudeMeters>
            <DistanceMeters>59071.219638966</DistanceMeters>
          </Trackpoint>
          <Trackpoint>
            <Position>
              <LatitudeDegrees>50.1681</LatitudeDegrees>
              <LongitudeDegrees>16.88182</LongitudeDegrees>
            </Position>
            <AltitudeMeters>1034.0</AltitudeMeters>
            <DistanceMeters>59073.472393494</DistanceMeters>
          </Trackpoint>
          <Trackpoint>
            <Position>
              <LatitudeDegrees>50.168073</LatitudeDegrees>
              <LongitudeDegrees>16.881825</LongitudeDegrees>
            </Position>
            <AltitudeMeters>1033.0</AltitudeMeters>
            <DistanceMeters>59076.498364002</DistanceMeters>
          </Trackpoint>
          <Trackpoint>
            <Position>
              <LatitudeDegrees>50.16804</LatitudeDegrees>
              <LongitudeDegrees>16.881832</LongitudeDegrees>
            </Position>
            <AltitudeMeters>1034.0</AltitudeMeters>
            <DistanceMeters>59080.205623953</DistanceMeters>
          </Trackpoint>
          <Trackpoint>
            <Position>
              <LatitudeDegrees>50.167938</LatitudeDegrees>
              <LongitudeDegrees>16.881863</LongitudeDegrees>
            </Position>
            <AltitudeMeters>1034.0</AltitudeMeters>
            <DistanceMeters>59091.771589215</DistanceMeters>
          </Trackpoint>
          <Trackpoint>
            <Position>
              <LatitudeDegrees>50.167842</LatitudeDegrees>
              <LongitudeDegrees>16.88188</LongitudeDegrees>
            </Position>
            <AltitudeMeters>1034.0</AltitudeMeters>
            <DistanceMeters>59102.525154156</DistanceMeters>
          </Trackpoint>
          <Trackpoint>
            <Position>
              <LatitudeDegrees>50.167735</LatitudeDegrees>
              <LongitudeDegrees>16.881902</LongitudeDegrees>
            </Position>
            <AltitudeMeters>1033.0</AltitudeMeters>
            <DistanceMeters>59114.537297657</DistanceMeters>
          </Trackpoint>
          <Trackpoint>
            <Position>
              <LatitudeDegrees>50.167633</LatitudeDegrees>
              <LongitudeDegrees>16.88191</LongitudeDegrees>
            </Position>
            <AltitudeMeters>1032.0</AltitudeMeters>
            <DistanceMeters>59125.904018106</DistanceMeters>
          </Trackpoint>
          <Trackpoint>
            <Position>
              <LatitudeDegrees>50.167533</LatitudeDegrees>
              <LongitudeDegrees>16.881892</LongitudeDegrees>
            </Position>
            <AltitudeMeters>1032.0</AltitudeMeters>
            <DistanceMeters>59137.1075025</DistanceMeters>
          </Trackpoint>
          <Trackpoint>
            <Position>
              <LatitudeDegrees>50.167435</LatitudeDegrees>
              <LongitudeDegrees>16.88189</LongitudeDegrees>
            </Position>
            <AltitudeMeters>1031.0</AltitudeMeters>
            <DistanceMeters>59148.016138867</DistanceMeters>
          </Trackpoint>
          <Trackpoint>
            <Position>
              <LatitudeDegrees>50.167333</LatitudeDegrees>
              <LongitudeDegrees>16.881908</LongitudeDegrees>
            </Position>
            <AltitudeMeters>1031.0</AltitudeMeters>
            <DistanceMeters>59159.441100792</DistanceMeters>
          </Trackpoint>
          <Trackpoint>
            <Position>
              <LatitudeDegrees>50.167237</LatitudeDegrees>
              <LongitudeDegrees>16.881912</LongitudeDegrees>
            </Position>
            <AltitudeMeters>1030.0</AltitudeMeters>
            <DistanceMeters>59170.129811059</DistanceMeters>
          </Trackpoint>
          <Trackpoint>
            <Position>
              <LatitudeDegrees>50.167142</LatitudeDegrees>
              <LongitudeDegrees>16.881908</LongitudeDegrees>
            </Position>
            <AltitudeMeters>1030.0</AltitudeMeters>
            <DistanceMeters>59180.707270449</DistanceMeters>
          </Trackpoint>
          <Trackpoint>
            <Position>
              <LatitudeDegrees>50.16704</LatitudeDegrees>
              <LongitudeDegrees>16.881882</LongitudeDegrees>
            </Position>
            <AltitudeMeters>1029.0</AltitudeMeters>
            <DistanceMeters>59192.210606496</DistanceMeters>
          </Trackpoint>
          <Trackpoint>
            <Position>
              <LatitudeDegrees>50.166933</LatitudeDegrees>
              <LongitudeDegrees>16.881838</LongitudeDegrees>
            </Position>
            <AltitudeMeters>1029.0</AltitudeMeters>
            <DistanceMeters>59204.526376631</DistanceMeters>
          </Trackpoint>
          <Trackpoint>
            <Position>
              <LatitudeDegrees>50.16685</LatitudeDegrees>
              <LongitudeDegrees>16.88177</LongitudeDegrees>
            </Position>
            <AltitudeMeters>1029.0</AltitudeMeters>
            <DistanceMeters>59214.95942707</DistanceMeters>
          </Trackpoint>
          <Trackpoint>
            <Position>
              <LatitudeDegrees>50.166753</LatitudeDegrees>
              <LongitudeDegrees>16.881748</LongitudeDegrees>
            </Position>
            <AltitudeMeters>1030.0</AltitudeMeters>
            <DistanceMeters>59225.869305053</DistanceMeters>
          </Trackpoint>
          <Trackpoint>
            <Position>
              <LatitudeDegrees>50.166658</LatitudeDegrees>
              <LongitudeDegrees>16.881705</LongitudeDegrees>
            </Position>
            <AltitudeMeters>1030.0</AltitudeMeters>
            <DistanceMeters>59236.878468783</DistanceMeters>
          </Trackpoint>
          <Trackpoint>
            <Position>
              <LatitudeDegrees>50.166565</LatitudeDegrees>
              <LongitudeDegrees>16.881665</LongitudeDegrees>
            </Position>
            <AltitudeMeters>1030.0</AltitudeMeters>
            <DistanceMeters>59247.615226016</DistanceMeters>
          </Trackpoint>
          <Trackpoint>
            <Position>
              <LatitudeDegrees>50.166477</LatitudeDegrees>
              <LongitudeDegrees>16.881615</LongitudeDegrees>
            </Position>
            <AltitudeMeters>1030.0</AltitudeMeters>
            <DistanceMeters>59258.038751321</DistanceMeters>
          </Trackpoint>
          <Trackpoint>
            <Position>
              <LatitudeDegrees>50.166378</LatitudeDegrees>
              <LongitudeDegrees>16.881565</LongitudeDegrees>
            </Position>
            <AltitudeMeters>1030.0</AltitudeMeters>
            <DistanceMeters>59269.620320968</DistanceMeters>
          </Trackpoint>
          <Trackpoint>
            <Position>
              <LatitudeDegrees>50.166287</LatitudeDegrees>
              <LongitudeDegrees>16.881557</LongitudeDegrees>
            </Position>
            <AltitudeMeters>1030.0</AltitudeMeters>
            <DistanceMeters>59279.764617452</DistanceMeters>
          </Trackpoint>
          <Trackpoint>
            <Position>
              <LatitudeDegrees>50.166187</LatitudeDegrees>
              <LongitudeDegrees>16.881512</LongitudeDegrees>
            </Position>
            <AltitudeMeters>1030.0</AltitudeMeters>
            <DistanceMeters>59291.347746382</DistanceMeters>
          </Trackpoint>
          <Trackpoint>
            <Position>
              <LatitudeDegrees>50.16609</LatitudeDegrees>
              <LongitudeDegrees>16.881533</LongitudeDegrees>
            </Position>
            <AltitudeMeters>1030.0</AltitudeMeters>
            <DistanceMeters>59302.247273238</DistanceMeters>
          </Trackpoint>
          <Trackpoint>
            <Position>
              <LatitudeDegrees>50.166047</LatitudeDegrees>
              <LongitudeDegrees>16.881408</LongitudeDegrees>
            </Position>
            <AltitudeMeters>1031.0</AltitudeMeters>
            <DistanceMeters>59312.363044404</DistanceMeters>
          </Trackpoint>
          <Trackpoint>
            <Position>
              <LatitudeDegrees>50.165957</LatitudeDegrees>
              <LongitudeDegrees>16.881385</LongitudeDegrees>
            </Position>
            <AltitudeMeters>1032.0</AltitudeMeters>
            <DistanceMeters>59322.513570115</DistanceMeters>
          </Trackpoint>
          <Trackpoint>
            <Position>
              <LatitudeDegrees>50.16595</LatitudeDegrees>
              <LongitudeDegrees>16.881223</LongitudeDegrees>
            </Position>
            <AltitudeMeters>1031.0</AltitudeMeters>
            <DistanceMeters>59334.090070645</DistanceMeters>
          </Trackpoint>
          <Trackpoint>
            <Position>
              <LatitudeDegrees>50.165553</LatitudeDegrees>
              <LongitudeDegrees>16.880988</LongitudeDegrees>
            </Position>
            <AltitudeMeters>1031.0</AltitudeMeters>
            <DistanceMeters>59381.346827993</DistanceMeters>
          </Trackpoint>
          <Trackpoint>
            <Position>
              <LatitudeDegrees>50.165465</LatitudeDegrees>
              <LongitudeDegrees>16.88093</LongitudeDegrees>
            </Position>
            <AltitudeMeters>1028.0</AltitudeMeters>
            <DistanceMeters>59391.977935028</DistanceMeters>
          </Trackpoint>
          <Trackpoint>
            <Position>
              <LatitudeDegrees>50.165358</LatitudeDegrees>
              <LongitudeDegrees>16.880882</LongitudeDegrees>
            </Position>
            <AltitudeMeters>1029.0</AltitudeMeters>
            <DistanceMeters>59404.369360283</DistanceMeters>
          </Trackpoint>
          <Trackpoint>
            <Position>
              <LatitudeDegrees>50.165253</LatitudeDegrees>
              <LongitudeDegrees>16.880872</LongitudeDegrees>
            </Position>
            <AltitudeMeters>1028.0</AltitudeMeters>
            <DistanceMeters>59416.077715867</DistanceMeters>
          </Trackpoint>
          <Trackpoint>
            <Position>
              <LatitudeDegrees>50.16516</LatitudeDegrees>
              <LongitudeDegrees>16.880828</LongitudeDegrees>
            </Position>
            <AltitudeMeters>1020.0</AltitudeMeters>
            <DistanceMeters>59426.893242219</DistanceMeters>
          </Trackpoint>
          <Trackpoint>
            <Position>
              <LatitudeDegrees>50.165065</LatitudeDegrees>
              <LongitudeDegrees>16.880742</LongitudeDegrees>
            </Position>
            <AltitudeMeters>1024.0</AltitudeMeters>
            <DistanceMeters>59439.115909059</DistanceMeters>
          </Trackpoint>
          <Trackpoint>
            <Position>
              <LatitudeDegrees>50.164977</LatitudeDegrees>
              <LongitudeDegrees>16.88072</LongitudeDegrees>
            </Position>
            <AltitudeMeters>1028.0</AltitudeMeters>
            <DistanceMeters>59449.035168756</DistanceMeters>
          </Trackpoint>
          <Trackpoint>
            <Position>
              <LatitudeDegrees>50.164882</LatitudeDegrees>
              <LongitudeDegrees>16.880655</LongitudeDegrees>
            </Position>
            <AltitudeMeters>1029.0</AltitudeMeters>
            <DistanceMeters>59460.580034641</DistanceMeters>
          </Trackpoint>
          <Trackpoint>
            <Position>
              <LatitudeDegrees>50.164785</LatitudeDegrees>
              <LongitudeDegrees>16.880627</LongitudeDegrees>
            </Position>
            <AltitudeMeters>1030.0</AltitudeMeters>
            <DistanceMeters>59471.559219058</DistanceMeters>
          </Trackpoint>
          <Trackpoint>
            <Position>
              <LatitudeDegrees>50.164693</LatitudeDegrees>
              <LongitudeDegrees>16.880617</LongitudeDegrees>
            </Position>
            <AltitudeMeters>1030.0</AltitudeMeters>
            <DistanceMeters>59481.82342394</DistanceMeters>
          </Trackpoint>
          <Trackpoint>
            <Position>
              <LatitudeDegrees>50.164507</LatitudeDegrees>
              <LongitudeDegrees>16.880303</LongitudeDegrees>
            </Position>
            <AltitudeMeters>1030.0</AltitudeMeters>
            <DistanceMeters>59512.315895981</DistanceMeters>
          </Trackpoint>
          <Trackpoint>
            <Position>
              <LatitudeDegrees>50.164422</LatitudeDegrees>
              <LongitudeDegrees>16.880247</LongitudeDegrees>
            </Position>
            <AltitudeMeters>1043.0</AltitudeMeters>
            <DistanceMeters>59522.584938424</DistanceMeters>
          </Trackpoint>
          <Trackpoint>
            <Position>
              <LatitudeDegrees>50.164327</LatitudeDegrees>
              <LongitudeDegrees>16.880212</LongitudeDegrees>
            </Position>
            <AltitudeMeters>1042.0</AltitudeMeters>
            <DistanceMeters>59533.449197681</DistanceMeters>
          </Trackpoint>
          <Trackpoint>
            <Position>
              <LatitudeDegrees>50.164237</LatitudeDegrees>
              <LongitudeDegrees>16.880175</LongitudeDegrees>
            </Position>
            <AltitudeMeters>1040.0</AltitudeMeters>
            <DistanceMeters>59543.807545441</DistanceMeters>
          </Trackpoint>
          <Trackpoint>
            <Position>
              <LatitudeDegrees>50.164198</LatitudeDegrees>
              <LongitudeDegrees>16.880047</LongitudeDegrees>
            </Position>
            <AltitudeMeters>1040.0</AltitudeMeters>
            <DistanceMeters>59553.913492432</DistanceMeters>
          </Trackpoint>
          <Trackpoint>
            <Position>
              <LatitudeDegrees>50.164113</LatitudeDegrees>
              <LongitudeDegrees>16.879967</LongitudeDegrees>
            </Position>
            <AltitudeMeters>1038.0</AltitudeMeters>
            <DistanceMeters>59564.960322432</DistanceMeters>
          </Trackpoint>
          <Trackpoint>
            <Position>
              <LatitudeDegrees>50.164023</LatitudeDegrees>
              <LongitudeDegrees>16.879982</LongitudeDegrees>
            </Position>
            <AltitudeMeters>1038.0</AltitudeMeters>
            <DistanceMeters>59575.034946953</DistanceMeters>
          </Trackpoint>
          <Trackpoint>
            <Position>
              <LatitudeDegrees>50.163912</LatitudeDegrees>
              <LongitudeDegrees>16.88003</LongitudeDegrees>
            </Position>
            <AltitudeMeters>1038.0</AltitudeMeters>
            <DistanceMeters>59587.854751603</DistanceMeters>
          </Trackpoint>
          <Trackpoint>
            <Position>
              <LatitudeDegrees>50.163835</LatitudeDegrees>
              <LongitudeDegrees>16.879918</LongitudeDegrees>
            </Position>
            <AltitudeMeters>1039.0</AltitudeMeters>
            <DistanceMeters>59599.568890139</DistanceMeters>
          </Trackpoint>
          <Trackpoint>
            <Position>
              <LatitudeDegrees>50.163923</LatitudeDegrees>
              <LongitudeDegrees>16.879842</LongitudeDegrees>
            </Position>
            <AltitudeMeters>1039.0</AltitudeMeters>
            <DistanceMeters>59610.762698282</DistanceMeters>
          </Trackpoint>
          <Trackpoint>
            <Position>
              <LatitudeDegrees>50.164028</LatitudeDegrees>
              <LongitudeDegrees>16.879813</LongitudeDegrees>
            </Position>
            <AltitudeMeters>1039.0</AltitudeMeters>
            <DistanceMeters>59622.630770256</DistanceMeters>
          </Trackpoint>
          <Trackpoint>
            <Position>
              <LatitudeDegrees>50.164095</LatitudeDegrees>
              <LongitudeDegrees>16.879912</LongitudeDegrees>
            </Position>
            <AltitudeMeters>1042.0</AltitudeMeters>
            <DistanceMeters>59632.898933313</DistanceMeters>
          </Trackpoint>
          <Trackpoint>
            <Position>
              <LatitudeDegrees>50.16417</LatitudeDegrees>
              <LongitudeDegrees>16.880002</LongitudeDegrees>
            </Position>
            <AltitudeMeters>1043.0</AltitudeMeters>
            <DistanceMeters>59643.428047639</DistanceMeters>
          </Trackpoint>
          <Trackpoint>
            <Position>
              <LatitudeDegrees>50.16412</LatitudeDegrees>
              <LongitudeDegrees>16.880148</LongitudeDegrees>
            </Position>
            <AltitudeMeters>1042.0</AltitudeMeters>
            <DistanceMeters>59655.231650879</DistanceMeters>
          </Trackpoint>
          <Trackpoint>
            <Position>
              <LatitudeDegrees>50.164055</LatitudeDegrees>
              <LongitudeDegrees>16.88025</LongitudeDegrees>
            </Position>
            <AltitudeMeters>1044.0</AltitudeMeters>
            <DistanceMeters>59665.490135703</DistanceMeters>
          </Trackpoint>
          <Trackpoint>
            <Position>
              <LatitudeDegrees>50.164015</LatitudeDegrees>
              <LongitudeDegrees>16.8804</LongitudeDegrees>
            </Position>
            <AltitudeMeters>1041.0</AltitudeMeters>
            <DistanceMeters>59677.074433957</DistanceMeters>
          </Trackpoint>
          <Trackpoint>
            <Position>
              <LatitudeDegrees>50.16395</LatitudeDegrees>
              <LongitudeDegrees>16.880513</LongitudeDegrees>
            </Position>
            <AltitudeMeters>1040.0</AltitudeMeters>
            <DistanceMeters>59687.902476834</DistanceMeters>
          </Trackpoint>
          <Trackpoint>
            <Position>
              <LatitudeDegrees>50.163908</LatitudeDegrees>
              <LongitudeDegrees>16.88064</LongitudeDegrees>
            </Position>
            <AltitudeMeters>1038.0</AltitudeMeters>
            <DistanceMeters>59698.092956661</DistanceMeters>
          </Trackpoint>
          <Trackpoint>
            <Position>
              <LatitudeDegrees>50.163905</LatitudeDegrees>
              <LongitudeDegrees>16.880783</LongitudeDegrees>
            </Position>
            <AltitudeMeters>1036.0</AltitudeMeters>
            <DistanceMeters>59708.29406449</DistanceMeters>
          </Trackpoint>
          <Trackpoint>
            <Position>
              <LatitudeDegrees>50.163963</LatitudeDegrees>
              <LongitudeDegrees>16.880982</LongitudeDegrees>
            </Position>
            <AltitudeMeters>1035.0</AltitudeMeters>
            <DistanceMeters>59723.881921846</DistanceMeters>
          </Trackpoint>
          <Trackpoint>
            <Position>
              <LatitudeDegrees>50.163858</LatitudeDegrees>
              <LongitudeDegrees>16.880947</LongitudeDegrees>
            </Position>
            <AltitudeMeters>1037.0</AltitudeMeters>
            <DistanceMeters>59735.832263221</DistanceMeters>
          </Trackpoint>
          <Trackpoint>
            <Position>
              <LatitudeDegrees>50.163748</LatitudeDegrees>
              <LongitudeDegrees>16.880957</LongitudeDegrees>
            </Position>
            <AltitudeMeters>1037.0</AltitudeMeters>
            <DistanceMeters>59748.095864779</DistanceMeters>
          </Trackpoint>
          <Trackpoint>
            <Position>
              <LatitudeDegrees>50.163673</LatitudeDegrees>
              <LongitudeDegrees>16.881062</LongitudeDegrees>
            </Position>
            <AltitudeMeters>1037.0</AltitudeMeters>
            <DistanceMeters>59759.309017074</DistanceMeters>
          </Trackpoint>
          <Trackpoint>
            <Position>
              <LatitudeDegrees>50.163808</LatitudeDegrees>
              <LongitudeDegrees>16.881083</LongitudeDegrees>
            </Position>
            <AltitudeMeters>1038.0</AltitudeMeters>
            <DistanceMeters>59774.409596214</DistanceMeters>
          </Trackpoint>
          <Trackpoint>
            <Position>
              <LatitudeDegrees>50.163883</LatitudeDegrees>
              <LongitudeDegrees>16.88116</LongitudeDegrees>
            </Position>
            <AltitudeMeters>1037.0</AltitudeMeters>
            <DistanceMeters>59784.400967246</DistanceMeters>
          </Trackpoint>
          <Trackpoint>
            <Position>
              <LatitudeDegrees>50.163828</LatitudeDegrees>
              <LongitudeDegrees>16.881048</LongitudeDegrees>
            </Position>
            <AltitudeMeters>1035.0</AltitudeMeters>
            <DistanceMeters>59794.463035477</DistanceMeters>
          </Trackpoint>
          <Trackpoint>
            <Position>
              <LatitudeDegrees>50.163903</LatitudeDegrees>
              <LongitudeDegrees>16.880957</LongitudeDegrees>
            </Position>
            <AltitudeMeters>1032.0</AltitudeMeters>
            <DistanceMeters>59805.035371369</DistanceMeters>
          </Trackpoint>
          <Trackpoint>
            <Position>
              <LatitudeDegrees>50.163992</LatitudeDegrees>
              <LongitudeDegrees>16.880928</LongitudeDegrees>
            </Position>
            <AltitudeMeters>1027.0</AltitudeMeters>
            <DistanceMeters>59815.154712597</DistanceMeters>
          </Trackpoint>
          <Trackpoint>
            <Position>
              <LatitudeDegrees>50.163973</LatitudeDegrees>
              <LongitudeDegrees>16.880785</LongitudeDegrees>
            </Position>
            <AltitudeMeters>1024.0</AltitudeMeters>
            <DistanceMeters>59825.567836909</DistanceMeters>
          </Trackpoint>
          <Trackpoint>
            <Position>
              <LatitudeDegrees>50.164065</LatitudeDegrees>
              <LongitudeDegrees>16.88075</LongitudeDegrees>
            </Position>
            <AltitudeMeters>1030.0</AltitudeMeters>
            <DistanceMeters>59836.107666149</DistanceMeters>
          </Trackpoint>
          <Trackpoint>
            <Position>
              <LatitudeDegrees>50.164125</LatitudeDegrees>
              <LongitudeDegrees>16.880855</LongitudeDegrees>
            </Position>
            <AltitudeMeters>1025.0</AltitudeMeters>
            <DistanceMeters>59846.140075234</DistanceMeters>
          </Trackpoint>
          <Trackpoint>
            <Position>
              <LatitudeDegrees>50.16418</LatitudeDegrees>
              <LongitudeDegrees>16.881005</LongitudeDegrees>
            </Position>
            <AltitudeMeters>1021.0</AltitudeMeters>
            <DistanceMeters>59858.462808919</DistanceMeters>
          </Trackpoint>
          <Trackpoint>
            <Position>
              <LatitudeDegrees>50.164248</LatitudeDegrees>
              <LongitudeDegrees>16.881117</LongitudeDegrees>
            </Position>
            <AltitudeMeters>1017.0</AltitudeMeters>
            <DistanceMeters>59869.46540883</DistanceMeters>
          </Trackpoint>
          <Trackpoint>
            <Position>
              <LatitudeDegrees>50.164305</LatitudeDegrees>
              <LongitudeDegrees>16.881228</LongitudeDegrees>
            </Position>
            <AltitudeMeters>1014.0</AltitudeMeters>
            <DistanceMeters>59879.608815112</DistanceMeters>
          </Trackpoint>
          <Trackpoint>
            <Position>
              <LatitudeDegrees>50.164367</LatitudeDegrees>
              <LongitudeDegrees>16.881343</LongitudeDegrees>
            </Position>
            <AltitudeMeters>1013.0</AltitudeMeters>
            <DistanceMeters>59890.3253683</DistanceMeters>
          </Trackpoint>
          <Trackpoint>
            <Position>
              <LatitudeDegrees>50.164417</LatitudeDegrees>
              <LongitudeDegrees>16.88148</LongitudeDegrees>
            </Position>
            <AltitudeMeters>1012.0</AltitudeMeters>
            <DistanceMeters>59901.567474415</DistanceMeters>
          </Trackpoint>
          <Trackpoint>
            <Position>
              <LatitudeDegrees>50.164505</LatitudeDegrees>
              <LongitudeDegrees>16.88154</LongitudeDegrees>
            </Position>
            <AltitudeMeters>1009.0</AltitudeMeters>
            <DistanceMeters>59912.255339825</DistanceMeters>
          </Trackpoint>
          <Trackpoint>
            <Position>
              <LatitudeDegrees>50.164575</LatitudeDegrees>
              <LongitudeDegrees>16.881633</LongitudeDegrees>
            </Position>
            <AltitudeMeters>1008.0</AltitudeMeters>
            <DistanceMeters>59922.486500372</DistanceMeters>
          </Trackpoint>
          <Trackpoint>
            <Position>
              <LatitudeDegrees>50.1646</LatitudeDegrees>
              <LongitudeDegrees>16.881775</LongitudeDegrees>
            </Position>
            <AltitudeMeters>1008.0</AltitudeMeters>
            <DistanceMeters>59932.985984799</DistanceMeters>
          </Trackpoint>
          <Trackpoint>
            <Position>
              <LatitudeDegrees>50.164677</LatitudeDegrees>
              <LongitudeDegrees>16.881882</LongitudeDegrees>
            </Position>
            <AltitudeMeters>1007.0</AltitudeMeters>
            <DistanceMeters>59944.459452208</DistanceMeters>
          </Trackpoint>
          <Trackpoint>
            <Position>
              <LatitudeDegrees>50.164797</LatitudeDegrees>
              <LongitudeDegrees>16.881958</LongitudeDegrees>
            </Position>
            <AltitudeMeters>1007.0</AltitudeMeters>
            <DistanceMeters>59958.872846627</DistanceMeters>
          </Trackpoint>
          <Trackpoint>
            <Position>
              <LatitudeDegrees>50.16491</LatitudeDegrees>
              <LongitudeDegrees>16.882053</LongitudeDegrees>
            </Position>
            <AltitudeMeters>1006.0</AltitudeMeters>
            <DistanceMeters>59973.157862114</DistanceMeters>
          </Trackpoint>
          <Trackpoint>
            <Position>
              <LatitudeDegrees>50.165012</LatitudeDegrees>
              <LongitudeDegrees>16.88215</LongitudeDegrees>
            </Position>
            <AltitudeMeters>1005.0</AltitudeMeters>
            <DistanceMeters>59986.451077148</DistanceMeters>
          </Trackpoint>
          <Trackpoint>
            <Position>
              <LatitudeDegrees>50.165107</LatitudeDegrees>
              <LongitudeDegrees>16.882257</LongitudeDegrees>
            </Position>
            <AltitudeMeters>1004.0</AltitudeMeters>
            <DistanceMeters>59999.48914407</DistanceMeters>
          </Trackpoint>
          <Trackpoint>
            <Position>
              <LatitudeDegrees>50.165202</LatitudeDegrees>
              <LongitudeDegrees>16.882363</LongitudeDegrees>
            </Position>
            <AltitudeMeters>1003.0</AltitudeMeters>
            <DistanceMeters>60012.485936365</DistanceMeters>
          </Trackpoint>
          <Trackpoint>
            <Position>
              <LatitudeDegrees>50.165298</LatitudeDegrees>
              <LongitudeDegrees>16.882482</LongitudeDegrees>
            </Position>
            <AltitudeMeters>1003.0</AltitudeMeters>
            <DistanceMeters>60026.129469478</DistanceMeters>
          </Trackpoint>
          <Trackpoint>
            <Position>
              <LatitudeDegrees>50.165362</LatitudeDegrees>
              <LongitudeDegrees>16.882602</LongitudeDegrees>
            </Position>
            <AltitudeMeters>1002.0</AltitudeMeters>
            <DistanceMeters>60037.262610512</DistanceMeters>
          </Trackpoint>
          <Trackpoint>
            <Position>
              <LatitudeDegrees>50.16543</LatitudeDegrees>
              <LongitudeDegrees>16.882753</LongitudeDegrees>
            </Position>
            <AltitudeMeters>1002.0</AltitudeMeters>
            <DistanceMeters>60050.423038552</DistanceMeters>
          </Trackpoint>
          <Trackpoint>
            <Position>
              <LatitudeDegrees>50.165505</LatitudeDegrees>
              <LongitudeDegrees>16.88287</LongitudeDegrees>
            </Position>
            <AltitudeMeters>1001.0</AltitudeMeters>
            <DistanceMeters>60062.224729069</DistanceMeters>
          </Trackpoint>
          <Trackpoint>
            <Position>
              <LatitudeDegrees>50.165593</LatitudeDegrees>
              <LongitudeDegrees>16.88299</LongitudeDegrees>
            </Position>
            <AltitudeMeters>1001.0</AltitudeMeters>
            <DistanceMeters>60075.229856204</DistanceMeters>
          </Trackpoint>
          <Trackpoint>
            <Position>
              <LatitudeDegrees>50.165702</LatitudeDegrees>
              <LongitudeDegrees>16.883073</LongitudeDegrees>
            </Position>
            <AltitudeMeters>1000.0</AltitudeMeters>
            <DistanceMeters>60088.728333247</DistanceMeters>
          </Trackpoint>
          <Trackpoint>
            <Position>
              <LatitudeDegrees>50.165778</LatitudeDegrees>
              <LongitudeDegrees>16.88314</LongitudeDegrees>
            </Position>
            <AltitudeMeters>1000.0</AltitudeMeters>
            <DistanceMeters>60098.442462073</DistanceMeters>
          </Trackpoint>
          <Trackpoint>
            <Position>
              <LatitudeDegrees>50.165873</LatitudeDegrees>
              <LongitudeDegrees>16.88325</LongitudeDegrees>
            </Position>
            <AltitudeMeters>1000.0</AltitudeMeters>
            <DistanceMeters>60111.607006391</DistanceMeters>
          </Trackpoint>
          <Trackpoint>
            <Position>
              <LatitudeDegrees>50.165948</LatitudeDegrees>
              <LongitudeDegrees>16.883338</LongitudeDegrees>
            </Position>
            <AltitudeMeters>1000.0</AltitudeMeters>
            <DistanceMeters>60122.049573276</DistanceMeters>
          </Trackpoint>
          <Trackpoint>
            <Position>
              <LatitudeDegrees>50.166022</LatitudeDegrees>
              <LongitudeDegrees>16.883423</LongitudeDegrees>
            </Position>
            <AltitudeMeters>999.0</AltitudeMeters>
            <DistanceMeters>60132.27543682</DistanceMeters>
          </Trackpoint>
          <Trackpoint>
            <Position>
              <LatitudeDegrees>50.166108</LatitudeDegrees>
              <LongitudeDegrees>16.883485</LongitudeDegrees>
            </Position>
            <AltitudeMeters>996.0</AltitudeMeters>
            <DistanceMeters>60142.818692533</DistanceMeters>
          </Trackpoint>
          <Trackpoint>
            <Position>
              <LatitudeDegrees>50.166177</LatitudeDegrees>
              <LongitudeDegrees>16.88358</LongitudeDegrees>
            </Position>
            <AltitudeMeters>993.0</AltitudeMeters>
            <DistanceMeters>60153.058234397</DistanceMeters>
          </Trackpoint>
          <Trackpoint>
            <Position>
              <LatitudeDegrees>50.166245</LatitudeDegrees>
              <LongitudeDegrees>16.883683</LongitudeDegrees>
            </Position>
            <AltitudeMeters>993.0</AltitudeMeters>
            <DistanceMeters>60163.604059234</DistanceMeters>
          </Trackpoint>
          <Trackpoint>
            <Position>
              <LatitudeDegrees>50.166313</LatitudeDegrees>
              <LongitudeDegrees>16.88381</LongitudeDegrees>
            </Position>
            <AltitudeMeters>992.0</AltitudeMeters>
            <DistanceMeters>60175.405749751</DistanceMeters>
          </Trackpoint>
          <Trackpoint>
            <Position>
              <LatitudeDegrees>50.166372</LatitudeDegrees>
              <LongitudeDegrees>16.883943</LongitudeDegrees>
            </Position>
            <AltitudeMeters>991.0</AltitudeMeters>
            <DistanceMeters>60186.940051475</DistanceMeters>
          </Trackpoint>
          <Trackpoint>
            <Position>
              <LatitudeDegrees>50.16647</LatitudeDegrees>
              <LongitudeDegrees>16.883953</LongitudeDegrees>
            </Position>
            <AltitudeMeters>990.0</AltitudeMeters>
            <DistanceMeters>60197.870602304</DistanceMeters>
          </Trackpoint>
          <Trackpoint>
            <Position>
              <LatitudeDegrees>50.166567</LatitudeDegrees>
              <LongitudeDegrees>16.883922</LongitudeDegrees>
            </Position>
            <AltitudeMeters>989.0</AltitudeMeters>
            <DistanceMeters>60208.8904239</DistanceMeters>
          </Trackpoint>
          <Trackpoint>
            <Position>
              <LatitudeDegrees>50.16666</LatitudeDegrees>
              <LongitudeDegrees>16.883963</LongitudeDegrees>
            </Position>
            <AltitudeMeters>988.0</AltitudeMeters>
            <DistanceMeters>60219.646087958</DistanceMeters>
          </Trackpoint>
          <Trackpoint>
            <Position>
              <LatitudeDegrees>50.166745</LatitudeDegrees>
              <LongitudeDegrees>16.884067</LongitudeDegrees>
            </Position>
            <AltitudeMeters>987.0</AltitudeMeters>
            <DistanceMeters>60231.666122197</DistanceMeters>
          </Trackpoint>
          <Trackpoint>
            <Position>
              <LatitudeDegrees>50.166843</LatitudeDegrees>
              <LongitudeDegrees>16.884127</LongitudeDegrees>
            </Position>
            <AltitudeMeters>985.0</AltitudeMeters>
            <DistanceMeters>60243.382573114</DistanceMeters>
          </Trackpoint>
          <Trackpoint>
            <Position>
              <LatitudeDegrees>50.166952</LatitudeDegrees>
              <LongitudeDegrees>16.884182</LongitudeDegrees>
            </Position>
            <AltitudeMeters>984.0</AltitudeMeters>
            <DistanceMeters>60256.132452963</DistanceMeters>
          </Trackpoint>
          <Trackpoint>
            <Position>
              <LatitudeDegrees>50.167043</LatitudeDegrees>
              <LongitudeDegrees>16.884215</LongitudeDegrees>
            </Position>
            <AltitudeMeters>983.0</AltitudeMeters>
            <DistanceMeters>60266.530824727</DistanceMeters>
          </Trackpoint>
          <Trackpoint>
            <Position>
              <LatitudeDegrees>50.167135</LatitudeDegrees>
              <LongitudeDegrees>16.884295</LongitudeDegrees>
            </Position>
            <AltitudeMeters>983.0</AltitudeMeters>
            <DistanceMeters>60278.251899038</DistanceMeters>
          </Trackpoint>
          <Trackpoint>
            <Position>
              <LatitudeDegrees>50.167217</LatitudeDegrees>
              <LongitudeDegrees>16.884353</LongitudeDegrees>
            </Position>
            <AltitudeMeters>983.0</AltitudeMeters>
            <DistanceMeters>60288.271698932</DistanceMeters>
          </Trackpoint>
          <Trackpoint>
            <Position>
              <LatitudeDegrees>50.167327</LatitudeDegrees>
              <LongitudeDegrees>16.884387</LongitudeDegrees>
            </Position>
            <AltitudeMeters>983.0</AltitudeMeters>
            <DistanceMeters>60300.752436837</DistanceMeters>
          </Trackpoint>
          <Trackpoint>
            <Position>
              <LatitudeDegrees>50.167435</LatitudeDegrees>
              <LongitudeDegrees>16.884432</LongitudeDegrees>
            </Position>
            <AltitudeMeters>982.0</AltitudeMeters>
            <DistanceMeters>60313.19404326</DistanceMeters>
          </Trackpoint>
          <Trackpoint>
            <Position>
              <LatitudeDegrees>50.167538</LatitudeDegrees>
              <LongitudeDegrees>16.884488</LongitudeDegrees>
            </Position>
            <AltitudeMeters>982.0</AltitudeMeters>
            <DistanceMeters>60325.333310845</DistanceMeters>
          </Trackpoint>
          <Trackpoint>
            <Position>
              <LatitudeDegrees>50.167648</LatitudeDegrees>
              <LongitudeDegrees>16.884525</LongitudeDegrees>
            </Position>
            <AltitudeMeters>981.0</AltitudeMeters>
            <DistanceMeters>60337.857384776</DistanceMeters>
          </Trackpoint>
          <Trackpoint>
            <Position>
              <LatitudeDegrees>50.167745</LatitudeDegrees>
              <LongitudeDegrees>16.884542</LongitudeDegrees>
            </Position>
            <AltitudeMeters>981.0</AltitudeMeters>
            <DistanceMeters>60348.721228439</DistanceMeters>
          </Trackpoint>
          <Trackpoint>
            <Position>
              <LatitudeDegrees>50.167882</LatitudeDegrees>
              <LongitudeDegrees>16.884588</LongitudeDegrees>
            </Position>
            <AltitudeMeters>981.0</AltitudeMeters>
            <DistanceMeters>60364.318351872</DistanceMeters>
          </Trackpoint>
          <Trackpoint>
            <Position>
              <LatitudeDegrees>50.168017</LatitudeDegrees>
              <LongitudeDegrees>16.884607</LongitudeDegrees>
            </Position>
            <AltitudeMeters>979.0</AltitudeMeters>
            <DistanceMeters>60379.405170849</DistanceMeters>
          </Trackpoint>
          <Trackpoint>
            <Position>
              <LatitudeDegrees>50.16811</LatitudeDegrees>
              <LongitudeDegrees>16.884637</LongitudeDegrees>
            </Position>
            <AltitudeMeters>978.0</AltitudeMeters>
            <DistanceMeters>60389.974944062</DistanceMeters>
          </Trackpoint>
          <Trackpoint>
            <Position>
              <LatitudeDegrees>50.16821</LatitudeDegrees>
              <LongitudeDegrees>16.884617</LongitudeDegrees>
            </Position>
            <AltitudeMeters>976.0</AltitudeMeters>
            <DistanceMeters>60401.195744205</DistanceMeters>
          </Trackpoint>
          <Trackpoint>
            <Position>
              <LatitudeDegrees>50.168308</LatitudeDegrees>
              <LongitudeDegrees>16.884607</LongitudeDegrees>
            </Position>
            <AltitudeMeters>975.0</AltitudeMeters>
            <DistanceMeters>60412.126295034</DistanceMeters>
          </Trackpoint>
          <Trackpoint>
            <Position>
              <LatitudeDegrees>50.168423</LatitudeDegrees>
              <LongitudeDegrees>16.884595</LongitudeDegrees>
            </Position>
            <AltitudeMeters>974.0</AltitudeMeters>
            <DistanceMeters>60424.954549519</DistanceMeters>
          </Trackpoint>
          <Trackpoint>
            <Position>
              <LatitudeDegrees>50.168518</LatitudeDegrees>
              <LongitudeDegrees>16.88457</LongitudeDegrees>
            </Position>
            <AltitudeMeters>974.0</AltitudeMeters>
            <DistanceMeters>60435.67742056</DistanceMeters>
          </Trackpoint>
          <Trackpoint>
            <Position>
              <LatitudeDegrees>50.168628</LatitudeDegrees>
              <LongitudeDegrees>16.88456</LongitudeDegrees>
            </Position>
            <AltitudeMeters>973.0</AltitudeMeters>
            <DistanceMeters>60447.941390278</DistanceMeters>
          </Trackpoint>
          <Trackpoint>
            <Position>
              <LatitudeDegrees>50.168728</LatitudeDegrees>
              <LongitudeDegrees>16.884587</LongitudeDegrees>
            </Position>
            <AltitudeMeters>973.0</AltitudeMeters>
            <DistanceMeters>60459.237185077</DistanceMeters>
          </Trackpoint>
          <Trackpoint>
            <Position>
              <LatitudeDegrees>50.168817</LatitudeDegrees>
              <LongitudeDegrees>16.884608</LongitudeDegrees>
            </Position>
            <AltitudeMeters>973.0</AltitudeMeters>
            <DistanceMeters>60469.255633045</DistanceMeters>
          </Trackpoint>
          <Trackpoint>
            <Position>
              <LatitudeDegrees>50.168927</LatitudeDegrees>
              <LongitudeDegrees>16.88464</LongitudeDegrees>
            </Position>
            <AltitudeMeters>973.0</AltitudeMeters>
            <DistanceMeters>60481.7095719</DistanceMeters>
          </Trackpoint>
          <Trackpoint>
            <Position>
              <LatitudeDegrees>50.16904</LatitudeDegrees>
              <LongitudeDegrees>16.884638</LongitudeDegrees>
            </Position>
            <AltitudeMeters>972.0</AltitudeMeters>
            <DistanceMeters>60494.287605899</DistanceMeters>
          </Trackpoint>
          <Trackpoint>
            <Position>
              <LatitudeDegrees>50.169155</LatitudeDegrees>
              <LongitudeDegrees>16.884628</LongitudeDegrees>
            </Position>
            <AltitudeMeters>972.0</AltitudeMeters>
            <DistanceMeters>60507.107058353</DistanceMeters>
          </Trackpoint>
          <Trackpoint>
            <Position>
              <LatitudeDegrees>50.169257</LatitudeDegrees>
              <LongitudeDegrees>16.884628</LongitudeDegrees>
            </Position>
            <AltitudeMeters>972.0</AltitudeMeters>
            <DistanceMeters>60518.459867744</DistanceMeters>
          </Trackpoint>
          <Trackpoint>
            <Position>
              <LatitudeDegrees>50.169372</LatitudeDegrees>
              <LongitudeDegrees>16.884623</LongitudeDegrees>
            </Position>
            <AltitudeMeters>971.0</AltitudeMeters>
            <DistanceMeters>60531.264871769</DistanceMeters>
          </Trackpoint>
          <Trackpoint>
            <Position>
              <LatitudeDegrees>50.16947</LatitudeDegrees>
              <LongitudeDegrees>16.884632</LongitudeDegrees>
            </Position>
            <AltitudeMeters>971.0</AltitudeMeters>
            <DistanceMeters>60542.191291158</DistanceMeters>
          </Trackpoint>
          <Trackpoint>
            <Position>
              <LatitudeDegrees>50.169585</LatitudeDegrees>
              <LongitudeDegrees>16.884602</LongitudeDegrees>
            </Position>
            <AltitudeMeters>971.0</AltitudeMeters>
            <DistanceMeters>60555.168614676</DistanceMeters>
          </Trackpoint>
          <Trackpoint>
            <Position>
              <LatitudeDegrees>50.169678</LatitudeDegrees>
              <LongitudeDegrees>16.884588</LongitudeDegrees>
            </Position>
            <AltitudeMeters>970.0</AltitudeMeters>
            <DistanceMeters>60565.567854816</DistanceMeters>
          </Trackpoint>
          <Trackpoint>
            <Position>
              <LatitudeDegrees>50.169772</LatitudeDegrees>
              <LongitudeDegrees>16.884598</LongitudeDegrees>
            </Position>
            <AltitudeMeters>970.0</AltitudeMeters>
            <DistanceMeters>60576.054430565</DistanceMeters>
          </Trackpoint>
          <Trackpoint>
            <Position>
              <LatitudeDegrees>50.169877</LatitudeDegrees>
              <LongitudeDegrees>16.88461</LongitudeDegrees>
            </Position>
            <AltitudeMeters>970.0</AltitudeMeters>
            <DistanceMeters>60587.772422816</DistanceMeters>
          </Trackpoint>
          <Trackpoint>
            <Position>
              <LatitudeDegrees>50.169967</LatitudeDegrees>
              <LongitudeDegrees>16.884567</LongitudeDegrees>
            </Position>
            <AltitudeMeters>970.0</AltitudeMeters>
            <DistanceMeters>60598.24866017</DistanceMeters>
          </Trackpoint>
          <Trackpoint>
            <Position>
              <LatitudeDegrees>50.17007</LatitudeDegrees>
              <LongitudeDegrees>16.884472</LongitudeDegrees>
            </Position>
            <AltitudeMeters>969.0</AltitudeMeters>
            <DistanceMeters>60611.563595049</DistanceMeters>
          </Trackpoint>
          <Trackpoint>
            <Position>
              <LatitudeDegrees>50.170155</LatitudeDegrees>
              <LongitudeDegrees>16.884392</LongitudeDegrees>
            </Position>
            <AltitudeMeters>968.0</AltitudeMeters>
            <DistanceMeters>60622.61042505</DistanceMeters>
          </Trackpoint>
          <Trackpoint>
            <Position>
              <LatitudeDegrees>50.17026</LatitudeDegrees>
              <LongitudeDegrees>16.884343</LongitudeDegrees>
            </Position>
            <AltitudeMeters>966.0</AltitudeMeters>
            <DistanceMeters>60634.807946908</DistanceMeters>
          </Trackpoint>
          <Trackpoint>
            <Position>
              <LatitudeDegrees>50.170352</LatitudeDegrees>
              <LongitudeDegrees>16.88429</LongitudeDegrees>
            </Position>
            <AltitudeMeters>964.0</AltitudeMeters>
            <DistanceMeters>60645.722376277</DistanceMeters>
          </Trackpoint>
          <Trackpoint>
            <Position>
              <LatitudeDegrees>50.170442</LatitudeDegrees>
              <LongitudeDegrees>16.884237</LongitudeDegrees>
            </Position>
            <AltitudeMeters>961.0</AltitudeMeters>
            <DistanceMeters>60656.428391423</DistanceMeters>
          </Trackpoint>
          <Trackpoint>
            <Position>
              <LatitudeDegrees>50.170512</LatitudeDegrees>
              <LongitudeDegrees>16.884147</LongitudeDegrees>
            </Position>
            <AltitudeMeters>956.0</AltitudeMeters>
            <DistanceMeters>60666.520926401</DistanceMeters>
          </Trackpoint>
          <Trackpoint>
            <Position>
              <LatitudeDegrees>50.170605</LatitudeDegrees>
              <LongitudeDegrees>16.884097</LongitudeDegrees>
            </Position>
            <AltitudeMeters>951.0</AltitudeMeters>
            <DistanceMeters>60677.468399834</DistanceMeters>
          </Trackpoint>
          <Trackpoint>
            <Position>
              <LatitudeDegrees>50.170697</LatitudeDegrees>
              <LongitudeDegrees>16.884075</LongitudeDegrees>
            </Position>
            <AltitudeMeters>951.0</AltitudeMeters>
            <DistanceMeters>60687.827619325</DistanceMeters>
          </Trackpoint>
          <Trackpoint>
            <Position>
              <LatitudeDegrees>50.170787</LatitudeDegrees>
              <LongitudeDegrees>16.884073</LongitudeDegrees>
            </Position>
            <AltitudeMeters>951.0</AltitudeMeters>
            <DistanceMeters>60697.84561661</DistanceMeters>
          </Trackpoint>
          <Trackpoint>
            <Position>
              <LatitudeDegrees>50.170842</LatitudeDegrees>
              <LongitudeDegrees>16.884058</LongitudeDegrees>
            </Position>
            <AltitudeMeters>950.0</AltitudeMeters>
            <DistanceMeters>60704.059520928</DistanceMeters>
          </Trackpoint>
          <Trackpoint>
            <Position>
              <LatitudeDegrees>50.170867</LatitudeDegrees>
              <LongitudeDegrees>16.884057</LongitudeDegrees>
            </Position>
            <AltitudeMeters>949.0</AltitudeMeters>
            <DistanceMeters>60706.841386401</DistanceMeters>
          </Trackpoint>
          <Trackpoint>
            <Position>
              <LatitudeDegrees>50.17092</LatitudeDegrees>
              <LongitudeDegrees>16.88394</LongitudeDegrees>
            </Position>
            <AltitudeMeters>947.0</AltitudeMeters>
            <DistanceMeters>60717.05753164</DistanceMeters>
          </Trackpoint>
          <Trackpoint>
            <Position>
              <LatitudeDegrees>50.170922</LatitudeDegrees>
              <LongitudeDegrees>16.8839</LongitudeDegrees>
            </Position>
            <AltitudeMeters>945.0</AltitudeMeters>
            <DistanceMeters>60719.917819957</DistanceMeters>
          </Trackpoint>
          <Trackpoint>
            <Position>
              <LatitudeDegrees>50.170932</LatitudeDegrees>
              <LongitudeDegrees>16.883857</LongitudeDegrees>
            </Position>
            <AltitudeMeters>945.0</AltitudeMeters>
            <DistanceMeters>60723.179327285</DistanceMeters>
          </Trackpoint>
          <Trackpoint>
            <Position>
              <LatitudeDegrees>50.170947</LatitudeDegrees>
              <LongitudeDegrees>16.88382</LongitudeDegrees>
            </Position>
            <AltitudeMeters>945.0</AltitudeMeters>
            <DistanceMeters>60726.302223787</DistanceMeters>
          </Trackpoint>
          <Trackpoint>
            <Position>
              <LatitudeDegrees>50.17096</LatitudeDegrees>
              <LongitudeDegrees>16.883783</LongitudeDegrees>
            </Position>
            <AltitudeMeters>944.0</AltitudeMeters>
            <DistanceMeters>60729.310235854</DistanceMeters>
          </Trackpoint>
          <Trackpoint>
            <Position>
              <LatitudeDegrees>50.170977</LatitudeDegrees>
              <LongitudeDegrees>16.883745</LongitudeDegrees>
            </Position>
            <AltitudeMeters>944.0</AltitudeMeters>
            <DistanceMeters>60732.614379075</DistanceMeters>
          </Trackpoint>
          <Trackpoint>
            <Position>
              <LatitudeDegrees>50.17099</LatitudeDegrees>
              <LongitudeDegrees>16.883707</LongitudeDegrees>
            </Position>
            <AltitudeMeters>944.0</AltitudeMeters>
            <DistanceMeters>60735.684786182</DistanceMeters>
          </Trackpoint>
          <Trackpoint>
            <Position>
              <LatitudeDegrees>50.171003</LatitudeDegrees>
              <LongitudeDegrees>16.88367</LongitudeDegrees>
            </Position>
            <AltitudeMeters>944.0</AltitudeMeters>
            <DistanceMeters>60738.69279825</DistanceMeters>
          </Trackpoint>
          <Trackpoint>
            <Position>
              <LatitudeDegrees>50.171013</LatitudeDegrees>
              <LongitudeDegrees>16.883625</LongitudeDegrees>
            </Position>
            <AltitudeMeters>944.0</AltitudeMeters>
            <DistanceMeters>60742.087261026</DistanceMeters>
          </Trackpoint>
          <Trackpoint>
            <Position>
              <LatitudeDegrees>50.171035</LatitudeDegrees>
              <LongitudeDegrees>16.883595</LongitudeDegrees>
            </Position>
            <AltitudeMeters>943.0</AltitudeMeters>
            <DistanceMeters>60745.33767476</DistanceMeters>
          </Trackpoint>
          <Trackpoint>
            <Position>
              <LatitudeDegrees>50.171053</LatitudeDegrees>
              <LongitudeDegrees>16.883557</LongitudeDegrees>
            </Position>
            <AltitudeMeters>943.0</AltitudeMeters>
            <DistanceMeters>60748.706770498</DistanceMeters>
          </Trackpoint>
          <Trackpoint>
            <Position>
              <LatitudeDegrees>50.171073</LatitudeDegrees>
              <LongitudeDegrees>16.883522</LongitudeDegrees>
            </Position>
            <AltitudeMeters>943.0</AltitudeMeters>
            <DistanceMeters>60752.050306745</DistanceMeters>
          </Trackpoint>
          <Trackpoint>
            <Position>
              <LatitudeDegrees>50.1711</LatitudeDegrees>
              <LongitudeDegrees>16.883503</LongitudeDegrees>
            </Position>
            <AltitudeMeters>943.0</AltitudeMeters>
            <DistanceMeters>60755.347610498</DistanceMeters>
          </Trackpoint>
          <Trackpoint>
            <Position>
              <LatitudeDegrees>50.17118</LatitudeDegrees>
              <LongitudeDegrees>16.883405</LongitudeDegrees>
            </Position>
            <AltitudeMeters>943.0</AltitudeMeters>
            <DistanceMeters>60766.664969036</DistanceMeters>
          </Trackpoint>
          <Trackpoint>
            <Position>
              <LatitudeDegrees>50.171278</LatitudeDegrees>
              <LongitudeDegrees>16.883352</LongitudeDegrees>
            </Position>
            <AltitudeMeters>943.0</AltitudeMeters>
            <DistanceMeters>60778.208270471</DistanceMeters>
          </Trackpoint>
          <Trackpoint>
            <Position>
              <LatitudeDegrees>50.17136</LatitudeDegrees>
              <LongitudeDegrees>16.883415</LongitudeDegrees>
            </Position>
            <AltitudeMeters>942.0</AltitudeMeters>
            <DistanceMeters>60788.380124574</DistanceMeters>
          </Trackpoint>
          <Trackpoint>
            <Position>
              <LatitudeDegrees>50.17125</LatitudeDegrees>
              <LongitudeDegrees>16.883508</LongitudeDegrees>
            </Position>
            <AltitudeMeters>941.0</AltitudeMeters>
            <DistanceMeters>60802.303402963</DistanceMeters>
          </Trackpoint>
          <Trackpoint>
            <Position>
              <LatitudeDegrees>50.171158</LatitudeDegrees>
              <LongitudeDegrees>16.883628</LongitudeDegrees>
            </Position>
            <AltitudeMeters>941.0</AltitudeMeters>
            <DistanceMeters>60815.646114722</DistanceMeters>
          </Trackpoint>
          <Trackpoint>
            <Position>
              <LatitudeDegrees>50.17105</LatitudeDegrees>
              <LongitudeDegrees>16.88381</LongitudeDegrees>
            </Position>
            <AltitudeMeters>941.0</AltitudeMeters>
            <DistanceMeters>60833.333085583</DistanceMeters>
          </Trackpoint>
          <Trackpoint>
            <Position>
              <LatitudeDegrees>50.171317</LatitudeDegrees>
              <LongitudeDegrees>16.88406</LongitudeDegrees>
            </Position>
            <AltitudeMeters>941.0</AltitudeMeters>
            <DistanceMeters>60867.985147355</DistanceMeters>
          </Trackpoint>
          <Trackpoint>
            <Position>
              <LatitudeDegrees>50.17126</LatitudeDegrees>
              <LongitudeDegrees>16.88417</LongitudeDegrees>
            </Position>
            <AltitudeMeters>933.0</AltitudeMeters>
            <DistanceMeters>60878.071864923</DistanceMeters>
          </Trackpoint>
          <Trackpoint>
            <Position>
              <LatitudeDegrees>50.171155</LatitudeDegrees>
              <LongitudeDegrees>16.88446</LongitudeDegrees>
            </Position>
            <AltitudeMeters>932.0</AltitudeMeters>
            <DistanceMeters>60901.820179693</DistanceMeters>
          </Trackpoint>
          <Trackpoint>
            <Position>
              <LatitudeDegrees>50.171155</LatitudeDegrees>
              <LongitudeDegrees>16.884628</LongitudeDegrees>
            </Position>
            <AltitudeMeters>936.0</AltitudeMeters>
            <DistanceMeters>60913.796562044</DistanceMeters>
          </Trackpoint>
          <Trackpoint>
            <Position>
              <LatitudeDegrees>50.17128</LatitudeDegrees>
              <LongitudeDegrees>16.884842</LongitudeDegrees>
            </Position>
            <AltitudeMeters>936.0</AltitudeMeters>
            <DistanceMeters>60934.443398334</DistanceMeters>
          </Trackpoint>
          <Trackpoint>
            <Position>
              <LatitudeDegrees>50.171405</LatitudeDegrees>
              <LongitudeDegrees>16.884843</LongitudeDegrees>
            </Position>
            <AltitudeMeters>935.0</AltitudeMeters>
            <DistanceMeters>60948.356295899</DistanceMeters>
          </Trackpoint>
          <Trackpoint>
            <Position>
              <LatitudeDegrees>50.171493</LatitudeDegrees>
              <LongitudeDegrees>16.884825</LongitudeDegrees>
            </Position>
            <AltitudeMeters>935.0</AltitudeMeters>
            <DistanceMeters>60958.234504545</DistanceMeters>
          </Trackpoint>
          <Trackpoint>
            <Position>
              <LatitudeDegrees>50.171585</LatitudeDegrees>
              <LongitudeDegrees>16.884857</LongitudeDegrees>
            </Position>
            <AltitudeMeters>933.0</AltitudeMeters>
            <DistanceMeters>60968.725384951</DistanceMeters>
          </Trackpoint>
          <Trackpoint>
            <Position>
              <LatitudeDegrees>50.17154</LatitudeDegrees>
              <LongitudeDegrees>16.884727</LongitudeDegrees>
            </Position>
            <AltitudeMeters>910.0</AltitudeMeters>
            <DistanceMeters>60979.259643796</DistanceMeters>
          </Trackpoint>
          <Trackpoint>
            <Position>
              <LatitudeDegrees>50.171443</LatitudeDegrees>
              <LongitudeDegrees>16.884823</LongitudeDegrees>
            </Position>
            <AltitudeMeters>901.0</AltitudeMeters>
            <DistanceMeters>60992.042061532</DistanceMeters>
          </Trackpoint>
          <Trackpoint>
            <Position>
              <LatitudeDegrees>50.171358</LatitudeDegrees>
              <LongitudeDegrees>16.884872</LongitudeDegrees>
            </Position>
            <AltitudeMeters>906.0</AltitudeMeters>
            <DistanceMeters>61002.127436144</DistanceMeters>
          </Trackpoint>
          <Trackpoint>
            <Position>
              <LatitudeDegrees>50.171102</LatitudeDegrees>
              <LongitudeDegrees>16.884908</LongitudeDegrees>
            </Position>
            <AltitudeMeters>908.0</AltitudeMeters>
            <DistanceMeters>61030.736159266</DistanceMeters>
          </Trackpoint>
          <Trackpoint>
            <Position>
              <LatitudeDegrees>50.171067</LatitudeDegrees>
              <LongitudeDegrees>16.885038</LongitudeDegrees>
            </Position>
            <AltitudeMeters>910.0</AltitudeMeters>
            <DistanceMeters>61040.789698227</DistanceMeters>
          </Trackpoint>
          <Trackpoint>
            <Position>
              <LatitudeDegrees>50.171145</LatitudeDegrees>
              <LongitudeDegrees>16.885143</LongitudeDegrees>
            </Position>
            <AltitudeMeters>909.0</AltitudeMeters>
            <DistanceMeters>61052.252929552</DistanceMeters>
          </Trackpoint>
          <Trackpoint>
            <Position>
              <LatitudeDegrees>50.171247</LatitudeDegrees>
              <LongitudeDegrees>16.88523</LongitudeDegrees>
            </Position>
            <AltitudeMeters>908.0</AltitudeMeters>
            <DistanceMeters>61065.189133658</DistanceMeters>
          </Trackpoint>
          <Trackpoint>
            <Position>
              <LatitudeDegrees>50.171205</LatitudeDegrees>
              <LongitudeDegrees>16.88539</LongitudeDegrees>
            </Position>
            <AltitudeMeters>908.0</AltitudeMeters>
            <DistanceMeters>61077.516263348</DistanceMeters>
          </Trackpoint>
          <Trackpoint>
            <Position>
              <LatitudeDegrees>50.171235</LatitudeDegrees>
              <LongitudeDegrees>16.885573</LongitudeDegrees>
            </Position>
            <AltitudeMeters>908.0</AltitudeMeters>
            <DistanceMeters>61090.982591546</DistanceMeters>
          </Trackpoint>
          <Trackpoint>
            <Position>
              <LatitudeDegrees>50.171352</LatitudeDegrees>
              <LongitudeDegrees>16.885408</LongitudeDegrees>
            </Position>
            <AltitudeMeters>909.0</AltitudeMeters>
            <DistanceMeters>61108.530915309</DistanceMeters>
          </Trackpoint>
          <Trackpoint>
            <Position>
              <LatitudeDegrees>50.171463</LatitudeDegrees>
              <LongitudeDegrees>16.885582</LongitudeDegrees>
            </Position>
            <AltitudeMeters>910.0</AltitudeMeters>
            <DistanceMeters>61126.038023999</DistanceMeters>
          </Trackpoint>
          <Trackpoint>
            <Position>
              <LatitudeDegrees>50.171555</LatitudeDegrees>
              <LongitudeDegrees>16.885652</LongitudeDegrees>
            </Position>
            <AltitudeMeters>906.0</AltitudeMeters>
            <DistanceMeters>61137.429345191</DistanceMeters>
          </Trackpoint>
          <Trackpoint>
            <Position>
              <LatitudeDegrees>50.171693</LatitudeDegrees>
              <LongitudeDegrees>16.885645</LongitudeDegrees>
            </Position>
            <AltitudeMeters>899.0</AltitudeMeters>
            <DistanceMeters>61152.79725394</DistanceMeters>
          </Trackpoint>
          <Trackpoint>
            <Position>
              <LatitudeDegrees>50.171795</LatitudeDegrees>
              <LongitudeDegrees>16.885643</LongitudeDegrees>
            </Position>
            <AltitudeMeters>889.0</AltitudeMeters>
            <DistanceMeters>61164.150858708</DistanceMeters>
          </Trackpoint>
          <Trackpoint>
            <Position>
              <LatitudeDegrees>50.171842</LatitudeDegrees>
              <LongitudeDegrees>16.885768</LongitudeDegrees>
            </Position>
            <AltitudeMeters>865.0</AltitudeMeters>
            <DistanceMeters>61174.483894267</DistanceMeters>
          </Trackpoint>
          <Trackpoint>
            <Position>
              <LatitudeDegrees>50.171838</LatitudeDegrees>
              <LongitudeDegrees>16.885913</LongitudeDegrees>
            </Position>
            <AltitudeMeters>856.0</AltitudeMeters>
            <DistanceMeters>61184.830466465</DistanceMeters>
          </Trackpoint>
          <Trackpoint>
            <Position>
              <LatitudeDegrees>50.171843</LatitudeDegrees>
              <LongitudeDegrees>16.886068</LongitudeDegrees>
            </Position>
            <AltitudeMeters>856.0</AltitudeMeters>
            <DistanceMeters>61195.894041213</DistanceMeters>
          </Trackpoint>
          <Trackpoint>
            <Position>
              <LatitudeDegrees>50.171903</LatitudeDegrees>
              <LongitudeDegrees>16.886187</LongitudeDegrees>
            </Position>
            <AltitudeMeters>854.0</AltitudeMeters>
            <DistanceMeters>61206.690347375</DistanceMeters>
          </Trackpoint>
          <Trackpoint>
            <Position>
              <LatitudeDegrees>50.17196</LatitudeDegrees>
              <LongitudeDegrees>16.886305</LongitudeDegrees>
            </Position>
            <AltitudeMeters>848.0</AltitudeMeters>
            <DistanceMeters>61217.226320501</DistanceMeters>
          </Trackpoint>
          <Trackpoint>
            <Position>
              <LatitudeDegrees>50.171978</LatitudeDegrees>
              <LongitudeDegrees>16.886448</LongitudeDegrees>
            </Position>
            <AltitudeMeters>848.0</AltitudeMeters>
            <DistanceMeters>61227.615569932</DistanceMeters>
          </Trackpoint>
          <Trackpoint>
            <Position>
              <LatitudeDegrees>50.172047</LatitudeDegrees>
              <LongitudeDegrees>16.886567</LongitudeDegrees>
            </Position>
            <AltitudeMeters>846.0</AltitudeMeters>
            <DistanceMeters>61239.059090745</DistanceMeters>
          </Trackpoint>
          <Trackpoint>
            <Position>
              <LatitudeDegrees>50.17214</LatitudeDegrees>
              <LongitudeDegrees>16.886587</LongitudeDegrees>
            </Position>
            <AltitudeMeters>846.0</AltitudeMeters>
            <DistanceMeters>61249.507709037</DistanceMeters>
          </Trackpoint>
          <Trackpoint>
            <Position>
              <LatitudeDegrees>50.172248</LatitudeDegrees>
              <LongitudeDegrees>16.886583</LongitudeDegrees>
            </Position>
            <AltitudeMeters>846.0</AltitudeMeters>
            <DistanceMeters>61261.532249943</DistanceMeters>
          </Trackpoint>
          <Trackpoint>
            <Position>
              <LatitudeDegrees>50.172335</LatitudeDegrees>
              <LongitudeDegrees>16.886637</LongitudeDegrees>
            </Position>
            <AltitudeMeters>846.0</AltitudeMeters>
            <DistanceMeters>61271.952742697</DistanceMeters>
          </Trackpoint>
          <Trackpoint>
            <Position>
              <LatitudeDegrees>50.172333</LatitudeDegrees>
              <LongitudeDegrees>16.886807</LongitudeDegrees>
            </Position>
            <AltitudeMeters>844.0</AltitudeMeters>
            <DistanceMeters>61284.073399184</DistanceMeters>
          </Trackpoint>
          <Trackpoint>
            <Position>
              <LatitudeDegrees>50.172508</LatitudeDegrees>
              <LongitudeDegrees>16.886863</LongitudeDegrees>
            </Position>
            <AltitudeMeters>843.0</AltitudeMeters>
            <DistanceMeters>61303.956021913</DistanceMeters>
          </Trackpoint>
          <Trackpoint>
            <Position>
              <LatitudeDegrees>50.172558</LatitudeDegrees>
              <LongitudeDegrees>16.886747</LongitudeDegrees>
            </Position>
            <AltitudeMeters>845.0</AltitudeMeters>
            <DistanceMeters>61313.9234138</DistanceMeters>
          </Trackpoint>
          <Trackpoint>
            <Position>
              <LatitudeDegrees>50.172648</LatitudeDegrees>
              <LongitudeDegrees>16.886722</LongitudeDegrees>
            </Position>
            <AltitudeMeters>847.0</AltitudeMeters>
            <DistanceMeters>61324.097930808</DistanceMeters>
          </Trackpoint>
          <Trackpoint>
            <Position>
              <LatitudeDegrees>50.172685</LatitudeDegrees>
              <LongitudeDegrees>16.88685</LongitudeDegrees>
            </Position>
            <AltitudeMeters>847.0</AltitudeMeters>
            <DistanceMeters>61334.108714413</DistanceMeters>
          </Trackpoint>
          <Trackpoint>
            <Position>
              <LatitudeDegrees>50.172665</LatitudeDegrees>
              <LongitudeDegrees>16.886993</LongitudeDegrees>
            </Position>
            <AltitudeMeters>839.0</AltitudeMeters>
            <DistanceMeters>61344.542630342</DistanceMeters>
          </Trackpoint>
          <Trackpoint>
            <Position>
              <LatitudeDegrees>50.172627</LatitudeDegrees>
              <LongitudeDegrees>16.887132</LongitudeDegrees>
            </Position>
            <AltitudeMeters>823.0</AltitudeMeters>
            <DistanceMeters>61355.31632992</DistanceMeters>
          </Trackpoint>
          <Trackpoint>
            <Position>
              <LatitudeDegrees>50.172655</LatitudeDegrees>
              <LongitudeDegrees>16.887273</LongitudeDegrees>
            </Position>
            <AltitudeMeters>824.0</AltitudeMeters>
            <DistanceMeters>61365.83943913</DistanceMeters>
          </Trackpoint>
          <Trackpoint>
            <Position>
              <LatitudeDegrees>50.172583</LatitudeDegrees>
              <LongitudeDegrees>16.887402</LongitudeDegrees>
            </Position>
            <AltitudeMeters>822.0</AltitudeMeters>
            <DistanceMeters>61378.036960988</DistanceMeters>
          </Trackpoint>
          <Trackpoint>
            <Position>
              <LatitudeDegrees>50.172645</LatitudeDegrees>
              <LongitudeDegrees>16.887503</LongitudeDegrees>
            </Position>
            <AltitudeMeters>815.0</AltitudeMeters>
            <DistanceMeters>61388.009787165</DistanceMeters>
          </Trackpoint>
          <Trackpoint>
            <Position>
              <LatitudeDegrees>50.172678</LatitudeDegrees>
              <LongitudeDegrees>16.887637</LongitudeDegrees>
            </Position>
            <AltitudeMeters>811.0</AltitudeMeters>
            <DistanceMeters>61398.243595185</DistanceMeters>
          </Trackpoint>
          <Trackpoint>
            <Position>
              <LatitudeDegrees>50.172703</LatitudeDegrees>
              <LongitudeDegrees>16.88781</LongitudeDegrees>
            </Position>
            <AltitudeMeters>808.0</AltitudeMeters>
            <DistanceMeters>61410.886077262</DistanceMeters>
          </Trackpoint>
          <Trackpoint>
            <Position>
              <LatitudeDegrees>50.172797</LatitudeDegrees>
              <LongitudeDegrees>16.887865</LongitudeDegrees>
            </Position>
            <AltitudeMeters>806.0</AltitudeMeters>
            <DistanceMeters>61422.058891445</DistanceMeters>
          </Trackpoint>
          <Trackpoint>
            <Position>
              <LatitudeDegrees>50.172858</LatitudeDegrees>
              <LongitudeDegrees>16.887745</LongitudeDegrees>
            </Position>
            <AltitudeMeters>802.0</AltitudeMeters>
            <DistanceMeters>61432.979937625</DistanceMeters>
          </Trackpoint>
          <Trackpoint>
            <Position>
              <LatitudeDegrees>50.17292</LatitudeDegrees>
              <LongitudeDegrees>16.887642</LongitudeDegrees>
            </Position>
            <AltitudeMeters>800.0</AltitudeMeters>
            <DistanceMeters>61443.056354624</DistanceMeters>
          </Trackpoint>
          <Trackpoint>
            <Position>
              <LatitudeDegrees>50.173005</LatitudeDegrees>
              <LongitudeDegrees>16.887592</LongitudeDegrees>
            </Position>
            <AltitudeMeters>799.0</AltitudeMeters>
            <DistanceMeters>61453.166768332</DistanceMeters>
          </Trackpoint>
          <Trackpoint>
            <Position>
              <LatitudeDegrees>50.173092</LatitudeDegrees>
              <LongitudeDegrees>16.887518</LongitudeDegrees>
            </Position>
            <AltitudeMeters>799.0</AltitudeMeters>
            <DistanceMeters>61464.193962417</DistanceMeters>
          </Trackpoint>
          <Trackpoint>
            <Position>
              <LatitudeDegrees>50.173177</LatitudeDegrees>
              <LongitudeDegrees>16.887453</LongitudeDegrees>
            </Position>
            <AltitudeMeters>798.0</AltitudeMeters>
            <DistanceMeters>61474.728649859</DistanceMeters>
          </Trackpoint>
          <Trackpoint>
            <Position>
              <LatitudeDegrees>50.17327</LatitudeDegrees>
              <LongitudeDegrees>16.887417</LongitudeDegrees>
            </Position>
            <AltitudeMeters>798.0</AltitudeMeters>
            <DistanceMeters>61485.393678827</DistanceMeters>
          </Trackpoint>
          <Trackpoint>
            <Position>
              <LatitudeDegrees>50.17336</LatitudeDegrees>
              <LongitudeDegrees>16.887372</LongitudeDegrees>
            </Position>
            <AltitudeMeters>797.0</AltitudeMeters>
            <DistanceMeters>61495.912067325</DistanceMeters>
          </Trackpoint>
          <Trackpoint>
            <Position>
              <LatitudeDegrees>50.173458</LatitudeDegrees>
              <LongitudeDegrees>16.887328</LongitudeDegrees>
            </Position>
            <AltitudeMeters>795.0</AltitudeMeters>
            <DistanceMeters>61507.261296831</DistanceMeters>
          </Trackpoint>
          <Trackpoint>
            <Position>
              <LatitudeDegrees>50.173562</LatitudeDegrees>
              <LongitudeDegrees>16.887378</LongitudeDegrees>
            </Position>
            <AltitudeMeters>794.0</AltitudeMeters>
            <DistanceMeters>61519.372637044</DistanceMeters>
          </Trackpoint>
          <Trackpoint>
            <Position>
              <LatitudeDegrees>50.173662</LatitudeDegrees>
              <LongitudeDegrees>16.887423</LongitudeDegrees>
            </Position>
            <AltitudeMeters>793.0</AltitudeMeters>
            <DistanceMeters>61530.955765974</DistanceMeters>
          </Trackpoint>
          <Trackpoint>
            <Position>
              <LatitudeDegrees>50.173768</LatitudeDegrees>
              <LongitudeDegrees>16.887463</LongitudeDegrees>
            </Position>
            <AltitudeMeters>792.0</AltitudeMeters>
            <DistanceMeters>61543.093173733</DistanceMeters>
          </Trackpoint>
          <Trackpoint>
            <Position>
              <LatitudeDegrees>50.17386</LatitudeDegrees>
              <LongitudeDegrees>16.887485</LongitudeDegrees>
            </Position>
            <AltitudeMeters>790.0</AltitudeMeters>
            <DistanceMeters>61553.451957368</DistanceMeters>
          </Trackpoint>
          <Trackpoint>
            <Position>
              <LatitudeDegrees>50.17395</LatitudeDegrees>
              <LongitudeDegrees>16.88751</LongitudeDegrees>
            </Position>
            <AltitudeMeters>790.0</AltitudeMeters>
            <DistanceMeters>61563.626030607</DistanceMeters>
          </Trackpoint>
          <Trackpoint>
            <Position>
              <LatitudeDegrees>50.174047</LatitudeDegrees>
              <LongitudeDegrees>16.887565</LongitudeDegrees>
            </Position>
            <AltitudeMeters>789.0</AltitudeMeters>
            <DistanceMeters>61575.112083752</DistanceMeters>
          </Trackpoint>
          <Trackpoint>
            <Position>
              <LatitudeDegrees>50.174135</LatitudeDegrees>
              <LongitudeDegrees>16.8876</LongitudeDegrees>
            </Position>
            <AltitudeMeters>789.0</AltitudeMeters>
            <DistanceMeters>61585.219370965</DistanceMeters>
          </Trackpoint>
          <Trackpoint>
            <Position>
              <LatitudeDegrees>50.174222</LatitudeDegrees>
              <LongitudeDegrees>16.887675</LongitudeDegrees>
            </Position>
            <AltitudeMeters>787.0</AltitudeMeters>
            <DistanceMeters>61596.280088648</DistanceMeters>
          </Trackpoint>
          <Trackpoint>
            <Position>
              <LatitudeDegrees>50.17427</LatitudeDegrees>
              <LongitudeDegrees>16.887797</LongitudeDegrees>
            </Position>
            <AltitudeMeters>785.0</AltitudeMeters>
            <DistanceMeters>61606.486506328</DistanceMeters>
          </Trackpoint>
          <Trackpoint>
            <Position>
              <LatitudeDegrees>50.174288</LatitudeDegrees>
              <LongitudeDegrees>16.88795</LongitudeDegrees>
            </Position>
            <AltitudeMeters>785.0</AltitudeMeters>
            <DistanceMeters>61617.575354371</DistanceMeters>
          </Trackpoint>
          <Trackpoint>
            <Position>
              <LatitudeDegrees>50.174265</LatitudeDegrees>
              <LongitudeDegrees>16.888085</LongitudeDegrees>
            </Position>
            <AltitudeMeters>785.0</AltitudeMeters>
            <DistanceMeters>61627.53368252</DistanceMeters>
          </Trackpoint>
          <Trackpoint>
            <Position>
              <LatitudeDegrees>50.174257</LatitudeDegrees>
              <LongitudeDegrees>16.888228</LongitudeDegrees>
            </Position>
            <AltitudeMeters>784.0</AltitudeMeters>
            <DistanceMeters>61637.766166889</DistanceMeters>
          </Trackpoint>
          <Trackpoint>
            <Position>
              <LatitudeDegrees>50.17424</LatitudeDegrees>
              <LongitudeDegrees>16.888378</LongitudeDegrees>
            </Position>
            <AltitudeMeters>782.0</AltitudeMeters>
            <DistanceMeters>61648.625022179</DistanceMeters>
          </Trackpoint>
          <Trackpoint>
            <Position>
              <LatitudeDegrees>50.174202</LatitudeDegrees>
              <LongitudeDegrees>16.888523</LongitudeDegrees>
            </Position>
            <AltitudeMeters>782.0</AltitudeMeters>
            <DistanceMeters>61659.792985997</DistanceMeters>
          </Trackpoint>
          <Trackpoint>
            <Position>
              <LatitudeDegrees>50.17415</LatitudeDegrees>
              <LongitudeDegrees>16.888657</LongitudeDegrees>
            </Position>
            <AltitudeMeters>782.0</AltitudeMeters>
            <DistanceMeters>61670.961758355</DistanceMeters>
          </Trackpoint>
          <Trackpoint>
            <Position>
              <LatitudeDegrees>50.17409</LatitudeDegrees>
              <LongitudeDegrees>16.888793</LongitudeDegrees>
            </Position>
            <AltitudeMeters>782.0</AltitudeMeters>
            <DistanceMeters>61682.734337226</DistanceMeters>
          </Trackpoint>
          <Trackpoint>
            <Position>
              <LatitudeDegrees>50.17408</LatitudeDegrees>
              <LongitudeDegrees>16.888937</LongitudeDegrees>
            </Position>
            <AltitudeMeters>781.0</AltitudeMeters>
            <DistanceMeters>61693.059067364</DistanceMeters>
          </Trackpoint>
          <Trackpoint>
            <Position>
              <LatitudeDegrees>50.174052</LatitudeDegrees>
              <LongitudeDegrees>16.889097</LongitudeDegrees>
            </Position>
            <AltitudeMeters>779.0</AltitudeMeters>
            <DistanceMeters>61704.882926442</DistanceMeters>
          </Trackpoint>
          <Trackpoint>
            <Position>
              <LatitudeDegrees>50.173995</LatitudeDegrees>
              <LongitudeDegrees>16.889205</LongitudeDegrees>
            </Position>
            <AltitudeMeters>776.0</AltitudeMeters>
            <DistanceMeters>61714.859373834</DistanceMeters>
          </Trackpoint>
          <Trackpoint>
            <Position>
              <LatitudeDegrees>50.173953</LatitudeDegrees>
              <LongitudeDegrees>16.889362</LongitudeDegrees>
            </Position>
            <AltitudeMeters>773.0</AltitudeMeters>
            <DistanceMeters>61726.98785046</DistanceMeters>
          </Trackpoint>
          <Trackpoint>
            <Position>
              <LatitudeDegrees>50.17393</LatitudeDegrees>
              <LongitudeDegrees>16.889517</LongitudeDegrees>
            </Position>
            <AltitudeMeters>771.0</AltitudeMeters>
            <DistanceMeters>61738.329120622</DistanceMeters>
          </Trackpoint>
          <Trackpoint>
            <Position>
              <LatitudeDegrees>50.173938</LatitudeDegrees>
              <LongitudeDegrees>16.88968</LongitudeDegrees>
            </Position>
            <AltitudeMeters>772.0</AltitudeMeters>
            <DistanceMeters>61749.982201311</DistanceMeters>
          </Trackpoint>
          <Trackpoint>
            <Position>
              <LatitudeDegrees>50.173978</LatitudeDegrees>
              <LongitudeDegrees>16.889825</LongitudeDegrees>
            </Position>
            <AltitudeMeters>773.0</AltitudeMeters>
            <DistanceMeters>61761.236349533</DistanceMeters>
          </Trackpoint>
          <Trackpoint>
            <Position>
              <LatitudeDegrees>50.173915</LatitudeDegrees>
              <LongitudeDegrees>16.889938</LongitudeDegrees>
            </Position>
            <AltitudeMeters>772.0</AltitudeMeters>
            <DistanceMeters>61771.915762696</DistanceMeters>
          </Trackpoint>
          <Trackpoint>
            <Position>
              <LatitudeDegrees>50.173817</LatitudeDegrees>
              <LongitudeDegrees>16.890005</LongitudeDegrees>
            </Position>
            <AltitudeMeters>772.0</AltitudeMeters>
            <DistanceMeters>61783.82333425</DistanceMeters>
          </Trackpoint>
          <Trackpoint>
            <Position>
              <LatitudeDegrees>50.173747</LatitudeDegrees>
              <LongitudeDegrees>16.890123</LongitudeDegrees>
            </Position>
            <AltitudeMeters>771.0</AltitudeMeters>
            <DistanceMeters>61795.28892856</DistanceMeters>
          </Trackpoint>
          <Trackpoint>
            <Position>
              <LatitudeDegrees>50.17369</LatitudeDegrees>
              <LongitudeDegrees>16.890253</LongitudeDegrees>
            </Position>
            <AltitudeMeters>767.0</AltitudeMeters>
            <DistanceMeters>61806.519783726</DistanceMeters>
          </Trackpoint>
          <Trackpoint>
            <Position>
              <LatitudeDegrees>50.17367</LatitudeDegrees>
              <LongitudeDegrees>16.890393</LongitudeDegrees>
            </Position>
            <AltitudeMeters>762.0</AltitudeMeters>
            <DistanceMeters>61816.744764169</DistanceMeters>
          </Trackpoint>
          <Trackpoint>
            <Position>
              <LatitudeDegrees>50.173638</LatitudeDegrees>
              <LongitudeDegrees>16.890532</LongitudeDegrees>
            </Position>
            <AltitudeMeters>761.0</AltitudeMeters>
            <DistanceMeters>61827.274307302</DistanceMeters>
          </Trackpoint>
          <Trackpoint>
            <Position>
              <LatitudeDegrees>50.1736</LatitudeDegrees>
              <LongitudeDegrees>16.890677</LongitudeDegrees>
            </Position>
            <AltitudeMeters>760.0</AltitudeMeters>
            <DistanceMeters>61838.44227112</DistanceMeters>
          </Trackpoint>
          <Trackpoint>
            <Position>
              <LatitudeDegrees>50.173545</LatitudeDegrees>
              <LongitudeDegrees>16.890792</LongitudeDegrees>
            </Position>
            <AltitudeMeters>760.0</AltitudeMeters>
            <DistanceMeters>61848.673431667</DistanceMeters>
          </Trackpoint>
          <Trackpoint>
            <Position>
              <LatitudeDegrees>50.173482</LatitudeDegrees>
              <LongitudeDegrees>16.890913</LongitudeDegrees>
            </Position>
            <AltitudeMeters>758.0</AltitudeMeters>
            <DistanceMeters>61859.789526577</DistanceMeters>
          </Trackpoint>
          <Trackpoint>
            <Position>
              <LatitudeDegrees>50.17345</LatitudeDegrees>
              <LongitudeDegrees>16.891063</LongitudeDegrees>
            </Position>
            <AltitudeMeters>757.0</AltitudeMeters>
            <DistanceMeters>61871.059710926</DistanceMeters>
          </Trackpoint>
          <Trackpoint>
            <Position>
              <LatitudeDegrees>50.173448</LatitudeDegrees>
              <LongitudeDegrees>16.891237</LongitudeDegrees>
            </Position>
            <AltitudeMeters>755.0</AltitudeMeters>
            <DistanceMeters>61883.465338393</DistanceMeters>
          </Trackpoint>
          <Trackpoint>
            <Position>
              <LatitudeDegrees>50.173422</LatitudeDegrees>
              <LongitudeDegrees>16.891375</LongitudeDegrees>
            </Position>
            <AltitudeMeters>754.0</AltitudeMeters>
            <DistanceMeters>61893.719421</DistanceMeters>
          </Trackpoint>
          <Trackpoint>
            <Position>
              <LatitudeDegrees>50.173427</LatitudeDegrees>
              <LongitudeDegrees>16.891533</LongitudeDegrees>
            </Position>
            <AltitudeMeters>752.0</AltitudeMeters>
            <DistanceMeters>61904.996013415</DistanceMeters>
          </Trackpoint>
          <Trackpoint>
            <Position>
              <LatitudeDegrees>50.173422</LatitudeDegrees>
              <LongitudeDegrees>16.891697</LongitudeDegrees>
            </Position>
            <AltitudeMeters>752.0</AltitudeMeters>
            <DistanceMeters>61916.700126352</DistanceMeters>
          </Trackpoint>
          <Trackpoint>
            <Position>
              <LatitudeDegrees>50.173402</LatitudeDegrees>
              <LongitudeDegrees>16.891845</LongitudeDegrees>
            </Position>
            <AltitudeMeters>751.0</AltitudeMeters>
            <DistanceMeters>61927.483041741</DistanceMeters>
          </Trackpoint>
          <Trackpoint>
            <Position>
              <LatitudeDegrees>50.173332</LatitudeDegrees>
              <LongitudeDegrees>16.891985</LongitudeDegrees>
            </Position>
            <AltitudeMeters>751.0</AltitudeMeters>
            <DistanceMeters>61940.144081076</DistanceMeters>
          </Trackpoint>
          <Trackpoint>
            <Position>
              <LatitudeDegrees>50.173335</LatitudeDegrees>
              <LongitudeDegrees>16.892167</LongitudeDegrees>
            </Position>
            <AltitudeMeters>751.0</AltitudeMeters>
            <DistanceMeters>61953.12210041</DistanceMeters>
          </Trackpoint>
          <Trackpoint>
            <Position>
              <LatitudeDegrees>50.173268</LatitudeDegrees>
              <LongitudeDegrees>16.892282</LongitudeDegrees>
            </Position>
            <AltitudeMeters>752.0</AltitudeMeters>
            <DistanceMeters>61964.204024414</DistanceMeters>
          </Trackpoint>
          <Trackpoint>
            <Position>
              <LatitudeDegrees>50.173598</LatitudeDegrees>
              <LongitudeDegrees>16.89229</LongitudeDegrees>
            </Position>
            <AltitudeMeters>752.0</AltitudeMeters>
            <DistanceMeters>62000.938087806</DistanceMeters>
          </Trackpoint>
          <Trackpoint>
            <Position>
              <LatitudeDegrees>50.173742</LatitudeDegrees>
              <LongitudeDegrees>16.892302</LongitudeDegrees>
            </Position>
            <AltitudeMeters>751.0</AltitudeMeters>
            <DistanceMeters>62016.988603401</DistanceMeters>
          </Trackpoint>
          <Trackpoint>
            <Position>
              <LatitudeDegrees>50.173842</LatitudeDegrees>
              <LongitudeDegrees>16.892318</LongitudeDegrees>
            </Position>
            <AltitudeMeters>750.0</AltitudeMeters>
            <DistanceMeters>62028.17757028</DistanceMeters>
          </Trackpoint>
          <Trackpoint>
            <Position>
              <LatitudeDegrees>50.1737</LatitudeDegrees>
              <LongitudeDegrees>16.892378</LongitudeDegrees>
            </Position>
            <AltitudeMeters>748.0</AltitudeMeters>
            <DistanceMeters>62044.550868954</DistanceMeters>
          </Trackpoint>
          <Trackpoint>
            <Position>
              <LatitudeDegrees>50.173597</LatitudeDegrees>
              <LongitudeDegrees>16.89241</LongitudeDegrees>
            </Position>
            <AltitudeMeters>745.0</AltitudeMeters>
            <DistanceMeters>62056.239541103</DistanceMeters>
          </Trackpoint>
          <Trackpoint>
            <Position>
              <LatitudeDegrees>50.173627</LatitudeDegrees>
              <LongitudeDegrees>16.892568</LongitudeDegrees>
            </Position>
            <AltitudeMeters>741.0</AltitudeMeters>
            <DistanceMeters>62067.987164619</DistanceMeters>
          </Trackpoint>
          <Trackpoint>
            <Position>
              <LatitudeDegrees>50.173692</LatitudeDegrees>
              <LongitudeDegrees>16.892695</LongitudeDegrees>
            </Position>
            <AltitudeMeters>735.0</AltitudeMeters>
            <DistanceMeters>62079.575749385</DistanceMeters>
          </Trackpoint>
          <Trackpoint>
            <Position>
              <LatitudeDegrees>50.17375</LatitudeDegrees>
              <LongitudeDegrees>16.89283</LongitudeDegrees>
            </Position>
            <AltitudeMeters>734.0</AltitudeMeters>
            <DistanceMeters>62091.163554903</DistanceMeters>
          </Trackpoint>
          <Trackpoint>
            <Position>
              <LatitudeDegrees>50.173805</LatitudeDegrees>
              <LongitudeDegrees>16.892952</LongitudeDegrees>
            </Position>
            <AltitudeMeters>735.0</AltitudeMeters>
            <DistanceMeters>62101.798908096</DistanceMeters>
          </Trackpoint>
          <Trackpoint>
            <Position>
              <LatitudeDegrees>50.17383</LatitudeDegrees>
              <LongitudeDegrees>16.893097</LongitudeDegrees>
            </Position>
            <AltitudeMeters>733.0</AltitudeMeters>
            <DistanceMeters>62112.503236192</DistanceMeters>
          </Trackpoint>
          <Trackpoint>
            <Position>
              <LatitudeDegrees>50.173837</LatitudeDegrees>
              <LongitudeDegrees>16.893257</LongitudeDegrees>
            </Position>
            <AltitudeMeters>735.0</AltitudeMeters>
            <DistanceMeters>62123.935309337</DistanceMeters>
          </Trackpoint>
          <Trackpoint>
            <Position>
              <LatitudeDegrees>50.173817</LatitudeDegrees>
              <LongitudeDegrees>16.893395</LongitudeDegrees>
            </Position>
            <AltitudeMeters>735.0</AltitudeMeters>
            <DistanceMeters>62134.021579272</DistanceMeters>
          </Trackpoint>
          <Trackpoint>
            <Position>
              <LatitudeDegrees>50.173815</LatitudeDegrees>
              <LongitudeDegrees>16.893545</LongitudeDegrees>
            </Position>
            <AltitudeMeters>734.0</AltitudeMeters>
            <DistanceMeters>62144.716623841</DistanceMeters>
          </Trackpoint>
          <Trackpoint>
            <Position>
              <LatitudeDegrees>50.173892</LatitudeDegrees>
              <LongitudeDegrees>16.893658</LongitudeDegrees>
            </Position>
            <AltitudeMeters>733.0</AltitudeMeters>
            <DistanceMeters>62156.478459204</DistanceMeters>
          </Trackpoint>
          <Trackpoint>
            <Position>
              <LatitudeDegrees>50.17395</LatitudeDegrees>
              <LongitudeDegrees>16.893787</LongitudeDegrees>
            </Position>
            <AltitudeMeters>733.0</AltitudeMeters>
            <DistanceMeters>62167.71333386</DistanceMeters>
          </Trackpoint>
          <Trackpoint>
            <Position>
              <LatitudeDegrees>50.173998</LatitudeDegrees>
              <LongitudeDegrees>16.893912</LongitudeDegrees>
            </Position>
            <AltitudeMeters>734.0</AltitudeMeters>
            <DistanceMeters>62178.102583291</DistanceMeters>
          </Trackpoint>
          <Trackpoint>
            <Position>
              <LatitudeDegrees>50.17404</LatitudeDegrees>
              <LongitudeDegrees>16.894053</LongitudeDegrees>
            </Position>
            <AltitudeMeters>733.0</AltitudeMeters>
            <DistanceMeters>62189.187766205</DistanceMeters>
          </Trackpoint>
          <Trackpoint>
            <Position>
              <LatitudeDegrees>50.174077</LatitudeDegrees>
              <LongitudeDegrees>16.894182</LongitudeDegrees>
            </Position>
            <AltitudeMeters>733.0</AltitudeMeters>
            <DistanceMeters>62199.263287005</DistanceMeters>
          </Trackpoint>
          <Trackpoint>
            <Position>
              <LatitudeDegrees>50.174137</LatitudeDegrees>
              <LongitudeDegrees>16.894312</LongitudeDegrees>
            </Position>
            <AltitudeMeters>733.0</AltitudeMeters>
            <DistanceMeters>62210.686272806</DistanceMeters>
          </Trackpoint>
          <Trackpoint>
            <Position>
              <LatitudeDegrees>50.17422</LatitudeDegrees>
              <LongitudeDegrees>16.89439</LongitudeDegrees>
            </Position>
            <AltitudeMeters>733.0</AltitudeMeters>
            <DistanceMeters>62221.46835072</DistanceMeters>
          </Trackpoint>
          <Trackpoint>
            <Position>
              <LatitudeDegrees>50.17428</LatitudeDegrees>
              <LongitudeDegrees>16.894498</LongitudeDegrees>
            </Position>
            <AltitudeMeters>733.0</AltitudeMeters>
            <DistanceMeters>62231.659716637</DistanceMeters>
          </Trackpoint>
          <Trackpoint>
            <Position>
              <LatitudeDegrees>50.1743</LatitudeDegrees>
              <LongitudeDegrees>16.894665</LongitudeDegrees>
            </Position>
            <AltitudeMeters>733.0</AltitudeMeters>
            <DistanceMeters>62243.770311239</DistanceMeters>
          </Trackpoint>
          <Trackpoint>
            <Position>
              <LatitudeDegrees>50.174303</LatitudeDegrees>
              <LongitudeDegrees>16.894847</LongitudeDegrees>
            </Position>
            <AltitudeMeters>732.0</AltitudeMeters>
            <DistanceMeters>62256.748330573</DistanceMeters>
          </Trackpoint>
          <Trackpoint>
            <Position>
              <LatitudeDegrees>50.174322</LatitudeDegrees>
              <LongitudeDegrees>16.894998</LongitudeDegrees>
            </Position>
            <AltitudeMeters>732.0</AltitudeMeters>
            <DistanceMeters>62267.718052479</DistanceMeters>
          </Trackpoint>
          <Trackpoint>
            <Position>
              <LatitudeDegrees>50.1743</LatitudeDegrees>
              <LongitudeDegrees>16.895155</LongitudeDegrees>
            </Position>
            <AltitudeMeters>731.0</AltitudeMeters>
            <DistanceMeters>62279.174191926</DistanceMeters>
          </Trackpoint>
          <Trackpoint>
            <Position>
              <LatitudeDegrees>50.174295</LatitudeDegrees>
              <LongitudeDegrees>16.8953</LongitudeDegrees>
            </Position>
            <AltitudeMeters>724.0</AltitudeMeters>
            <DistanceMeters>62289.525127005</DistanceMeters>
          </Trackpoint>
          <Trackpoint>
            <Position>
              <LatitudeDegrees>50.17435</LatitudeDegrees>
              <LongitudeDegrees>16.895427</LongitudeDegrees>
            </Position>
            <AltitudeMeters>723.0</AltitudeMeters>
            <DistanceMeters>62300.453612309</DistanceMeters>
          </Trackpoint>
          <Trackpoint>
            <Position>
              <LatitudeDegrees>50.17439</LatitudeDegrees>
              <LongitudeDegrees>16.895577</LongitudeDegrees>
            </Position>
            <AltitudeMeters>721.0</AltitudeMeters>
            <DistanceMeters>62312.035961624</DistanceMeters>
          </Trackpoint>
          <Trackpoint>
            <Position>
              <LatitudeDegrees>50.17443</LatitudeDegrees>
              <LongitudeDegrees>16.895703</LongitudeDegrees>
            </Position>
            <AltitudeMeters>720.0</AltitudeMeters>
            <DistanceMeters>62322.060266621</DistanceMeters>
          </Trackpoint>
          <Trackpoint>
            <Position>
              <LatitudeDegrees>50.17446</LatitudeDegrees>
              <LongitudeDegrees>16.895852</LongitudeDegrees>
            </Position>
            <AltitudeMeters>719.0</AltitudeMeters>
            <DistanceMeters>62333.194218723</DistanceMeters>
          </Trackpoint>
          <Trackpoint>
            <Position>
              <LatitudeDegrees>50.174503</LatitudeDegrees>
              <LongitudeDegrees>16.895987</LongitudeDegrees>
            </Position>
            <AltitudeMeters>718.0</AltitudeMeters>
            <DistanceMeters>62343.941903957</DistanceMeters>
          </Trackpoint>
          <Trackpoint>
            <Position>
              <LatitudeDegrees>50.174595</LatitudeDegrees>
              <LongitudeDegrees>16.89603</LongitudeDegrees>
            </Position>
            <AltitudeMeters>717.0</AltitudeMeters>
            <DistanceMeters>62354.630614224</DistanceMeters>
          </Trackpoint>
          <Trackpoint>
            <Position>
              <LatitudeDegrees>50.174673</LatitudeDegrees>
              <LongitudeDegrees>16.896103</LongitudeDegrees>
            </Position>
            <AltitudeMeters>716.0</AltitudeMeters>
            <DistanceMeters>62364.752632171</DistanceMeters>
          </Trackpoint>
          <Trackpoint>
            <Position>
              <LatitudeDegrees>50.174747</LatitudeDegrees>
              <LongitudeDegrees>16.896212</LongitudeDegrees>
            </Position>
            <AltitudeMeters>715.0</AltitudeMeters>
            <DistanceMeters>62376.075175846</DistanceMeters>
          </Trackpoint>
          <Trackpoint>
            <Position>
              <LatitudeDegrees>50.174798</LatitudeDegrees>
              <LongitudeDegrees>16.896338</LongitudeDegrees>
            </Position>
            <AltitudeMeters>715.0</AltitudeMeters>
            <DistanceMeters>62386.700335408</DistanceMeters>
          </Trackpoint>
          <Trackpoint>
            <Position>
              <LatitudeDegrees>50.174915</LatitudeDegrees>
              <LongitudeDegrees>16.896475</LongitudeDegrees>
            </Position>
            <AltitudeMeters>715.0</AltitudeMeters>
            <DistanceMeters>62402.977665439</DistanceMeters>
          </Trackpoint>
          <Trackpoint>
            <Position>
              <LatitudeDegrees>50.17505</LatitudeDegrees>
              <LongitudeDegrees>16.896737</LongitudeDegrees>
            </Position>
            <AltitudeMeters>715.0</AltitudeMeters>
            <DistanceMeters>62426.947765647</DistanceMeters>
          </Trackpoint>
          <Trackpoint>
            <Position>
              <LatitudeDegrees>50.175128</LatitudeDegrees>
              <LongitudeDegrees>16.896843</LongitudeDegrees>
            </Position>
            <AltitudeMeters>711.0</AltitudeMeters>
            <DistanceMeters>62438.456595356</DistanceMeters>
          </Trackpoint>
          <Trackpoint>
            <Position>
              <LatitudeDegrees>50.175162</LatitudeDegrees>
              <LongitudeDegrees>16.896973</LongitudeDegrees>
            </Position>
            <AltitudeMeters>708.0</AltitudeMeters>
            <DistanceMeters>62448.466476885</DistanceMeters>
          </Trackpoint>
          <Trackpoint>
            <Position>
              <LatitudeDegrees>50.17527</LatitudeDegrees>
              <LongitudeDegrees>16.897</LongitudeDegrees>
            </Position>
            <AltitudeMeters>707.0</AltitudeMeters>
            <DistanceMeters>62460.640285434</DistanceMeters>
          </Trackpoint>
          <Trackpoint>
            <Position>
              <LatitudeDegrees>50.175373</LatitudeDegrees>
              <LongitudeDegrees>16.897045</LongitudeDegrees>
            </Position>
            <AltitudeMeters>707.0</AltitudeMeters>
            <DistanceMeters>62472.544823212</DistanceMeters>
          </Trackpoint>
          <Trackpoint>
            <Position>
              <LatitudeDegrees>50.175475</LatitudeDegrees>
              <LongitudeDegrees>16.897075</LongitudeDegrees>
            </Position>
            <AltitudeMeters>708.0</AltitudeMeters>
            <DistanceMeters>62484.097508175</DistanceMeters>
          </Trackpoint>
          <Trackpoint>
            <Position>
              <LatitudeDegrees>50.175568</LatitudeDegrees>
              <LongitudeDegrees>16.897137</LongitudeDegrees>
            </Position>
            <AltitudeMeters>709.0</AltitudeMeters>
            <DistanceMeters>62495.353261038</DistanceMeters>
          </Trackpoint>
          <Trackpoint>
            <Position>
              <LatitudeDegrees>50.175573</LatitudeDegrees>
              <LongitudeDegrees>16.897302</LongitudeDegrees>
            </Position>
            <AltitudeMeters>709.0</AltitudeMeters>
            <DistanceMeters>62507.128140813</DistanceMeters>
          </Trackpoint>
          <Trackpoint>
            <Position>
              <LatitudeDegrees>50.175647</LatitudeDegrees>
              <LongitudeDegrees>16.897382</LongitudeDegrees>
            </Position>
            <AltitudeMeters>709.0</AltitudeMeters>
            <DistanceMeters>62517.146138098</DistanceMeters>
          </Trackpoint>
          <Trackpoint>
            <Position>
              <LatitudeDegrees>50.175683</LatitudeDegrees>
              <LongitudeDegrees>16.897527</LongitudeDegrees>
            </Position>
            <AltitudeMeters>709.0</AltitudeMeters>
            <DistanceMeters>62528.231728309</DistanceMeters>
          </Trackpoint>
          <Trackpoint>
            <Position>
              <LatitudeDegrees>50.175778</LatitudeDegrees>
              <LongitudeDegrees>16.897582</LongitudeDegrees>
            </Position>
            <AltitudeMeters>709.0</AltitudeMeters>
            <DistanceMeters>62539.509121475</DistanceMeters>
          </Trackpoint>
          <Trackpoint>
            <Position>
              <LatitudeDegrees>50.175877</LatitudeDegrees>
              <LongitudeDegrees>16.897615</LongitudeDegrees>
            </Position>
            <AltitudeMeters>709.0</AltitudeMeters>
            <DistanceMeters>62550.77650115</DistanceMeters>
          </Trackpoint>
          <Trackpoint>
            <Position>
              <LatitudeDegrees>50.175983</LatitudeDegrees>
              <LongitudeDegrees>16.897622</LongitudeDegrees>
            </Position>
            <AltitudeMeters>709.0</AltitudeMeters>
            <DistanceMeters>62562.585076019</DistanceMeters>
          </Trackpoint>
          <Trackpoint>
            <Position>
              <LatitudeDegrees>50.176075</LatitudeDegrees>
              <LongitudeDegrees>16.897682</LongitudeDegrees>
            </Position>
            <AltitudeMeters>710.0</AltitudeMeters>
            <DistanceMeters>62573.681657582</DistanceMeters>
          </Trackpoint>
          <Trackpoint>
            <Position>
              <LatitudeDegrees>50.176282</LatitudeDegrees>
              <LongitudeDegrees>16.898178</LongitudeDegrees>
            </Position>
            <AltitudeMeters>710.0</AltitudeMeters>
            <DistanceMeters>62615.881436913</DistanceMeters>
          </Trackpoint>
          <Trackpoint>
            <Position>
              <LatitudeDegrees>50.176378</LatitudeDegrees>
              <LongitudeDegrees>16.898235</LongitudeDegrees>
            </Position>
            <AltitudeMeters>709.0</AltitudeMeters>
            <DistanceMeters>62627.313115105</DistanceMeters>
          </Trackpoint>
          <Trackpoint>
            <Position>
              <LatitudeDegrees>50.176523</LatitudeDegrees>
              <LongitudeDegrees>16.898535</LongitudeDegrees>
            </Position>
            <AltitudeMeters>710.0</AltitudeMeters>
            <DistanceMeters>62654.103739697</DistanceMeters>
          </Trackpoint>
          <Trackpoint>
            <Position>
              <LatitudeDegrees>50.176593</LatitudeDegrees>
              <LongitudeDegrees>16.89863</LongitudeDegrees>
            </Position>
            <AltitudeMeters>708.0</AltitudeMeters>
            <DistanceMeters>62664.426283087</DistanceMeters>
          </Trackpoint>
          <Trackpoint>
            <Position>
              <LatitudeDegrees>50.176693</LatitudeDegrees>
              <LongitudeDegrees>16.898642</LongitudeDegrees>
            </Position>
            <AltitudeMeters>707.0</AltitudeMeters>
            <DistanceMeters>62675.589394433</DistanceMeters>
          </Trackpoint>
          <Trackpoint>
            <Position>
              <LatitudeDegrees>50.176788</LatitudeDegrees>
              <LongitudeDegrees>16.898732</LongitudeDegrees>
            </Position>
            <AltitudeMeters>705.0</AltitudeMeters>
            <DistanceMeters>62687.956748022</DistanceMeters>
          </Trackpoint>
          <Trackpoint>
            <Position>
              <LatitudeDegrees>50.176848</LatitudeDegrees>
              <LongitudeDegrees>16.898847</LongitudeDegrees>
            </Position>
            <AltitudeMeters>696.0</AltitudeMeters>
            <DistanceMeters>62698.529938003</DistanceMeters>
          </Trackpoint>
          <Trackpoint>
            <Position>
              <LatitudeDegrees>50.176938</LatitudeDegrees>
              <LongitudeDegrees>16.898955</LongitudeDegrees>
            </Position>
            <AltitudeMeters>695.0</AltitudeMeters>
            <DistanceMeters>62711.163845998</DistanceMeters>
          </Trackpoint>
          <Trackpoint>
            <Position>
              <LatitudeDegrees>50.177018</LatitudeDegrees>
              <LongitudeDegrees>16.899052</LongitudeDegrees>
            </Position>
            <AltitudeMeters>694.0</AltitudeMeters>
            <DistanceMeters>62722.437234835</DistanceMeters>
          </Trackpoint>
          <Trackpoint>
            <Position>
              <LatitudeDegrees>50.177037</LatitudeDegrees>
              <LongitudeDegrees>16.899215</LongitudeDegrees>
            </Position>
            <AltitudeMeters>694.0</AltitudeMeters>
            <DistanceMeters>62734.246956707</DistanceMeters>
          </Trackpoint>
          <Trackpoint>
            <Position>
              <LatitudeDegrees>50.17701</LatitudeDegrees>
              <LongitudeDegrees>16.89935</LongitudeDegrees>
            </Position>
            <AltitudeMeters>688.0</AltitudeMeters>
            <DistanceMeters>62744.327853507</DistanceMeters>
          </Trackpoint>
          <Trackpoint>
            <Position>
              <LatitudeDegrees>50.17708</LatitudeDegrees>
              <LongitudeDegrees>16.899447</LongitudeDegrees>
            </Position>
            <AltitudeMeters>684.0</AltitudeMeters>
            <DistanceMeters>62754.74444597</DistanceMeters>
          </Trackpoint>
          <Trackpoint>
            <Position>
              <LatitudeDegrees>50.177133</LatitudeDegrees>
              <LongitudeDegrees>16.89957</LongitudeDegrees>
            </Position>
            <AltitudeMeters>683.0</AltitudeMeters>
            <DistanceMeters>62765.311655882</DistanceMeters>
          </Trackpoint>
          <Trackpoint>
            <Position>
              <LatitudeDegrees>50.177212</LatitudeDegrees>
              <LongitudeDegrees>16.899663</LongitudeDegrees>
            </Position>
            <AltitudeMeters>682.0</AltitudeMeters>
            <DistanceMeters>62776.323280035</DistanceMeters>
          </Trackpoint>
          <Trackpoint>
            <Position>
              <LatitudeDegrees>50.17727</LatitudeDegrees>
              <LongitudeDegrees>16.899773</LongitudeDegrees>
            </Position>
            <AltitudeMeters>681.0</AltitudeMeters>
            <DistanceMeters>62786.480031154</DistanceMeters>
          </Trackpoint>
          <Trackpoint>
            <Position>
              <LatitudeDegrees>50.177273</LatitudeDegrees>
              <LongitudeDegrees>16.89993</LongitudeDegrees>
            </Position>
            <AltitudeMeters>680.0</AltitudeMeters>
            <DistanceMeters>62797.675855872</DistanceMeters>
          </Trackpoint>
          <Trackpoint>
            <Position>
              <LatitudeDegrees>50.177318</LatitudeDegrees>
              <LongitudeDegrees>16.900053</LongitudeDegrees>
            </Position>
            <AltitudeMeters>679.0</AltitudeMeters>
            <DistanceMeters>62807.772863501</DistanceMeters>
          </Trackpoint>
          <Trackpoint>
            <Position>
              <LatitudeDegrees>50.177358</LatitudeDegrees>
              <LongitudeDegrees>16.90018</LongitudeDegrees>
            </Position>
            <AltitudeMeters>678.0</AltitudeMeters>
            <DistanceMeters>62817.860923845</DistanceMeters>
          </Trackpoint>
          <Trackpoint>
            <Position>
              <LatitudeDegrees>50.177442</LatitudeDegrees>
              <LongitudeDegrees>16.900268</LongitudeDegrees>
            </Position>
            <AltitudeMeters>678.0</AltitudeMeters>
            <DistanceMeters>62829.119885304</DistanceMeters>
          </Trackpoint>
          <Trackpoint>
            <Position>
              <LatitudeDegrees>50.177473</LatitudeDegrees>
              <LongitudeDegrees>16.9004</LongitudeDegrees>
            </Position>
            <AltitudeMeters>676.0</AltitudeMeters>
            <DistanceMeters>62839.141487482</DistanceMeters>
          </Trackpoint>
          <Trackpoint>
            <Position>
              <LatitudeDegrees>50.177553</LatitudeDegrees>
              <LongitudeDegrees>16.900493</LongitudeDegrees>
            </Position>
            <AltitudeMeters>674.0</AltitudeMeters>
            <DistanceMeters>62850.242137154</DistanceMeters>
          </Trackpoint>
          <Trackpoint>
            <Position>
              <LatitudeDegrees>50.177637</LatitudeDegrees>
              <LongitudeDegrees>16.90056</LongitudeDegrees>
            </Position>
            <AltitudeMeters>674.0</AltitudeMeters>
            <DistanceMeters>62860.740331427</DistanceMeters>
          </Trackpoint>
          <Trackpoint>
            <Position>
              <LatitudeDegrees>50.177715</LatitudeDegrees>
              <LongitudeDegrees>16.900637</LongitudeDegrees>
            </Position>
            <AltitudeMeters>674.0</AltitudeMeters>
            <DistanceMeters>62871.011132419</DistanceMeters>
          </Trackpoint>
          <Trackpoint>
            <Position>
              <LatitudeDegrees>50.177802</LatitudeDegrees>
              <LongitudeDegrees>16.900718</LongitudeDegrees>
            </Position>
            <AltitudeMeters>673.0</AltitudeMeters>
            <DistanceMeters>62882.285322236</DistanceMeters>
          </Trackpoint>
          <Trackpoint>
            <Position>
              <LatitudeDegrees>50.177857</LatitudeDegrees>
              <LongitudeDegrees>16.900838</LongitudeDegrees>
            </Position>
            <AltitudeMeters>672.0</AltitudeMeters>
            <DistanceMeters>62892.803710734</DistanceMeters>
          </Trackpoint>
          <Trackpoint>
            <Position>
              <LatitudeDegrees>50.177902</LatitudeDegrees>
              <LongitudeDegrees>16.900965</LongitudeDegrees>
            </Position>
            <AltitudeMeters>668.0</AltitudeMeters>
            <DistanceMeters>62903.148973709</DistanceMeters>
          </Trackpoint>
          <Trackpoint>
            <Position>
              <LatitudeDegrees>50.177955</LatitudeDegrees>
              <LongitudeDegrees>16.901092</LongitudeDegrees>
            </Position>
            <AltitudeMeters>666.0</AltitudeMeters>
            <DistanceMeters>62913.953640676</DistanceMeters>
          </Trackpoint>
          <Trackpoint>
            <Position>
              <LatitudeDegrees>50.178007</LatitudeDegrees>
              <LongitudeDegrees>16.901227</LongitudeDegrees>
            </Position>
            <AltitudeMeters>666.0</AltitudeMeters>
            <DistanceMeters>62925.182887643</DistanceMeters>
          </Trackpoint>
          <Trackpoint>
            <Position>
              <LatitudeDegrees>50.178068</LatitudeDegrees>
              <LongitudeDegrees>16.901347</LongitudeDegrees>
            </Position>
            <AltitudeMeters>666.0</AltitudeMeters>
            <DistanceMeters>62936.10352039</DistanceMeters>
          </Trackpoint>
          <Trackpoint>
            <Position>
              <LatitudeDegrees>50.178132</LatitudeDegrees>
              <LongitudeDegrees>16.901447</LongitudeDegrees>
            </Position>
            <AltitudeMeters>665.0</AltitudeMeters>
            <DistanceMeters>62946.180833509</DistanceMeters>
          </Trackpoint>
          <Trackpoint>
            <Position>
              <LatitudeDegrees>50.178198</LatitudeDegrees>
              <LongitudeDegrees>16.901553</LongitudeDegrees>
            </Position>
            <AltitudeMeters>665.0</AltitudeMeters>
            <DistanceMeters>62956.718949095</DistanceMeters>
          </Trackpoint>
          <Trackpoint>
            <Position>
              <LatitudeDegrees>50.178222</LatitudeDegrees>
              <LongitudeDegrees>16.90169</LongitudeDegrees>
            </Position>
            <AltitudeMeters>665.0</AltitudeMeters>
            <DistanceMeters>62966.84275113</DistanceMeters>
          </Trackpoint>
          <Trackpoint>
            <Position>
              <LatitudeDegrees>50.178238</LatitudeDegrees>
              <LongitudeDegrees>16.901853</LongitudeDegrees>
            </Position>
            <AltitudeMeters>662.0</AltitudeMeters>
            <DistanceMeters>62978.596906548</DistanceMeters>
          </Trackpoint>
          <Trackpoint>
            <Position>
              <LatitudeDegrees>50.178275</LatitudeDegrees>
              <LongitudeDegrees>16.901987</LongitudeDegrees>
            </Position>
            <AltitudeMeters>660.0</AltitudeMeters>
            <DistanceMeters>62988.997883223</DistanceMeters>
          </Trackpoint>
          <Trackpoint>
            <Position>
              <LatitudeDegrees>50.178308</LatitudeDegrees>
              <LongitudeDegrees>16.902133</LongitudeDegrees>
            </Position>
            <AltitudeMeters>659.0</AltitudeMeters>
            <DistanceMeters>63000.033672321</DistanceMeters>
          </Trackpoint>
          <Trackpoint>
            <Position>
              <LatitudeDegrees>50.178338</LatitudeDegrees>
              <LongitudeDegrees>16.902272</LongitudeDegrees>
            </Position>
            <AltitudeMeters>658.0</AltitudeMeters>
            <DistanceMeters>63010.488770376</DistanceMeters>
          </Trackpoint>
          <Trackpoint>
            <Position>
              <LatitudeDegrees>50.178373</LatitudeDegrees>
              <LongitudeDegrees>16.902418</LongitudeDegrees>
            </Position>
            <AltitudeMeters>657.0</AltitudeMeters>
            <DistanceMeters>63021.600802832</DistanceMeters>
          </Trackpoint>
          <Trackpoint>
            <Position>
              <LatitudeDegrees>50.178403</LatitudeDegrees>
              <LongitudeDegrees>16.902568</LongitudeDegrees>
            </Position>
            <AltitudeMeters>657.0</AltitudeMeters>
            <DistanceMeters>63032.801868947</DistanceMeters>
          </Trackpoint>
          <Trackpoint>
            <Position>
              <LatitudeDegrees>50.178378</LatitudeDegrees>
              <LongitudeDegrees>16.902725</LongitudeDegrees>
            </Position>
            <AltitudeMeters>656.0</AltitudeMeters>
            <DistanceMeters>63044.333430234</DistanceMeters>
          </Trackpoint>
          <Trackpoint>
            <Position>
              <LatitudeDegrees>50.178393</LatitudeDegrees>
              <LongitudeDegrees>16.902885</LongitudeDegrees>
            </Position>
            <AltitudeMeters>655.0</AltitudeMeters>
            <DistanceMeters>63055.859116962</DistanceMeters>
          </Trackpoint>
          <Trackpoint>
            <Position>
              <LatitudeDegrees>50.178388</LatitudeDegrees>
              <LongitudeDegrees>16.903042</LongitudeDegrees>
            </Position>
            <AltitudeMeters>655.0</AltitudeMeters>
            <DistanceMeters>63067.0638103</DistanceMeters>
          </Trackpoint>
          <Trackpoint>
            <Position>
              <LatitudeDegrees>50.178357</LatitudeDegrees>
              <LongitudeDegrees>16.90318</LongitudeDegrees>
            </Position>
            <AltitudeMeters>655.0</AltitudeMeters>
            <DistanceMeters>63077.488201886</DistanceMeters>
          </Trackpoint>
          <Trackpoint>
            <Position>
              <LatitudeDegrees>50.178385</LatitudeDegrees>
              <LongitudeDegrees>16.903337</LongitudeDegrees>
            </Position>
            <AltitudeMeters>654.0</AltitudeMeters>
            <DistanceMeters>63089.104804762</DistanceMeters>
          </Trackpoint>
          <Trackpoint>
            <Position>
              <LatitudeDegrees>50.178423</LatitudeDegrees>
              <LongitudeDegrees>16.903473</LongitudeDegrees>
            </Position>
            <AltitudeMeters>654.0</AltitudeMeters>
            <DistanceMeters>63099.680556595</DistanceMeters>
          </Trackpoint>
          <Trackpoint>
            <Position>
              <LatitudeDegrees>50.178398</LatitudeDegrees>
              <LongitudeDegrees>16.903625</LongitudeDegrees>
            </Position>
            <AltitudeMeters>654.0</AltitudeMeters>
            <DistanceMeters>63110.866294801</DistanceMeters>
          </Trackpoint>
          <Trackpoint>
            <Position>
              <LatitudeDegrees>50.178375</LatitudeDegrees>
              <LongitudeDegrees>16.903762</LongitudeDegrees>
            </Position>
            <AltitudeMeters>653.0</AltitudeMeters>
            <DistanceMeters>63120.961066352</DistanceMeters>
          </Trackpoint>
          <Trackpoint>
            <Position>
              <LatitudeDegrees>50.178385</LatitudeDegrees>
              <LongitudeDegrees>16.903932</LongitudeDegrees>
            </Position>
            <AltitudeMeters>651.0</AltitudeMeters>
            <DistanceMeters>63133.128939353</DistanceMeters>
          </Trackpoint>
          <Trackpoint>
            <Position>
              <LatitudeDegrees>50.178377</LatitudeDegrees>
              <LongitudeDegrees>16.904088</LongitudeDegrees>
            </Position>
            <AltitudeMeters>650.0</AltitudeMeters>
            <DistanceMeters>63144.283553794</DistanceMeters>
          </Trackpoint>
          <Trackpoint>
            <Position>
              <LatitudeDegrees>50.178375</LatitudeDegrees>
              <LongitudeDegrees>16.904248</LongitudeDegrees>
            </Position>
            <AltitudeMeters>649.0</AltitudeMeters>
            <DistanceMeters>63155.689926636</DistanceMeters>
          </Trackpoint>
          <Trackpoint>
            <Position>
              <LatitudeDegrees>50.178353</LatitudeDegrees>
              <LongitudeDegrees>16.904387</LongitudeDegrees>
            </Position>
            <AltitudeMeters>647.0</AltitudeMeters>
            <DistanceMeters>63165.895459532</DistanceMeters>
          </Trackpoint>
          <Trackpoint>
            <Position>
              <LatitudeDegrees>50.17833</LatitudeDegrees>
              <LongitudeDegrees>16.904527</LongitudeDegrees>
            </Position>
            <AltitudeMeters>646.0</AltitudeMeters>
            <DistanceMeters>63176.196986524</DistanceMeters>
          </Trackpoint>
          <Trackpoint>
            <Position>
              <LatitudeDegrees>50.178313</LatitudeDegrees>
              <LongitudeDegrees>16.904665</LongitudeDegrees>
            </Position>
            <AltitudeMeters>644.0</AltitudeMeters>
            <DistanceMeters>63186.213180876</DistanceMeters>
          </Trackpoint>
          <Trackpoint>
            <Position>
              <LatitudeDegrees>50.1783</LatitudeDegrees>
              <LongitudeDegrees>16.904822</LongitudeDegrees>
            </Position>
            <AltitudeMeters>643.0</AltitudeMeters>
            <DistanceMeters>63197.496577873</DistanceMeters>
          </Trackpoint>
          <Trackpoint>
            <Position>
              <LatitudeDegrees>50.1783</LatitudeDegrees>
              <LongitudeDegrees>16.904978</LongitudeDegrees>
            </Position>
            <AltitudeMeters>643.0</AltitudeMeters>
            <DistanceMeters>63208.615515619</DistanceMeters>
          </Trackpoint>
          <Trackpoint>
            <Position>
              <LatitudeDegrees>50.1783</LatitudeDegrees>
              <LongitudeDegrees>16.905132</LongitudeDegrees>
            </Position>
            <AltitudeMeters>642.0</AltitudeMeters>
            <DistanceMeters>63219.591821004</DistanceMeters>
          </Trackpoint>
          <Trackpoint>
            <Position>
              <LatitudeDegrees>50.178297</LatitudeDegrees>
              <LongitudeDegrees>16.90528</LongitudeDegrees>
            </Position>
            <AltitudeMeters>641.0</AltitudeMeters>
            <DistanceMeters>63230.14620507</DistanceMeters>
          </Trackpoint>
          <Trackpoint>
            <Position>
              <LatitudeDegrees>50.178277</LatitudeDegrees>
              <LongitudeDegrees>16.90542</LongitudeDegrees>
            </Position>
            <AltitudeMeters>640.0</AltitudeMeters>
            <DistanceMeters>63240.370302337</DistanceMeters>
          </Trackpoint>
          <Trackpoint>
            <Position>
              <LatitudeDegrees>50.178237</LatitudeDegrees>
              <LongitudeDegrees>16.905555</LongitudeDegrees>
            </Position>
            <AltitudeMeters>639.0</AltitudeMeters>
            <DistanceMeters>63250.972490393</DistanceMeters>
          </Trackpoint>
          <Trackpoint>
            <Position>
              <LatitudeDegrees>50.178278</LatitudeDegrees>
              <LongitudeDegrees>16.905698</LongitudeDegrees>
            </Position>
            <AltitudeMeters>641.0</AltitudeMeters>
            <DistanceMeters>63262.140454211</DistanceMeters>
          </Trackpoint>
          <Trackpoint>
            <Position>
              <LatitudeDegrees>50.178285</LatitudeDegrees>
              <LongitudeDegrees>16.905853</LongitudeDegrees>
            </Position>
            <AltitudeMeters>643.0</AltitudeMeters>
            <DistanceMeters>63273.215857518</DistanceMeters>
          </Trackpoint>
          <Trackpoint>
            <Position>
              <LatitudeDegrees>50.178225</LatitudeDegrees>
              <LongitudeDegrees>16.905963</LongitudeDegrees>
            </Position>
            <AltitudeMeters>643.0</AltitudeMeters>
            <DistanceMeters>63283.514754445</DistanceMeters>
          </Trackpoint>
          <Trackpoint>
            <Position>
              <LatitudeDegrees>50.178167</LatitudeDegrees>
              <LongitudeDegrees>16.906093</LongitudeDegrees>
            </Position>
            <AltitudeMeters>643.0</AltitudeMeters>
            <DistanceMeters>63294.80775093</DistanceMeters>
          </Trackpoint>
          <Trackpoint>
            <Position>
              <LatitudeDegrees>50.178193</LatitudeDegrees>
              <LongitudeDegrees>16.906262</LongitudeDegrees>
            </Position>
            <AltitudeMeters>643.0</AltitudeMeters>
            <DistanceMeters>63307.19589644</DistanceMeters>
          </Trackpoint>
          <Trackpoint>
            <Position>
              <LatitudeDegrees>50.17822</LatitudeDegrees>
              <LongitudeDegrees>16.906443</LongitudeDegrees>
            </Position>
            <AltitudeMeters>644.0</AltitudeMeters>
            <DistanceMeters>63320.442497719</DistanceMeters>
          </Trackpoint>
          <Trackpoint>
            <Position>
              <LatitudeDegrees>50.178238</LatitudeDegrees>
              <LongitudeDegrees>16.906612</LongitudeDegrees>
            </Position>
            <AltitudeMeters>643.0</AltitudeMeters>
            <DistanceMeters>63332.653707828</DistanceMeters>
          </Trackpoint>
          <Trackpoint>
            <Position>
              <LatitudeDegrees>50.1782</LatitudeDegrees>
              <LongitudeDegrees>16.906778</LongitudeDegrees>
            </Position>
            <AltitudeMeters>643.0</AltitudeMeters>
            <DistanceMeters>63345.218812545</DistanceMeters>
          </Trackpoint>
          <Trackpoint>
            <Position>
              <LatitudeDegrees>50.178185</LatitudeDegrees>
              <LongitudeDegrees>16.906933</LongitudeDegrees>
            </Position>
            <AltitudeMeters>643.0</AltitudeMeters>
            <DistanceMeters>63356.392434917</DistanceMeters>
          </Trackpoint>
          <Trackpoint>
            <Position>
              <LatitudeDegrees>50.178173</LatitudeDegrees>
              <LongitudeDegrees>16.90712</LongitudeDegrees>
            </Position>
            <AltitudeMeters>643.0</AltitudeMeters>
            <DistanceMeters>63369.788168532</DistanceMeters>
          </Trackpoint>
          <Trackpoint>
            <Position>
              <LatitudeDegrees>50.178173</LatitudeDegrees>
              <LongitudeDegrees>16.907277</LongitudeDegrees>
            </Position>
            <AltitudeMeters>643.0</AltitudeMeters>
            <DistanceMeters>63380.979152859</DistanceMeters>
          </Trackpoint>
          <Trackpoint>
            <Position>
              <LatitudeDegrees>50.178128</LatitudeDegrees>
              <LongitudeDegrees>16.907422</LongitudeDegrees>
            </Position>
            <AltitudeMeters>643.0</AltitudeMeters>
            <DistanceMeters>63392.464419799</DistanceMeters>
          </Trackpoint>
          <Trackpoint>
            <Position>
              <LatitudeDegrees>50.178047</LatitudeDegrees>
              <LongitudeDegrees>16.907558</LongitudeDegrees>
            </Position>
            <AltitudeMeters>642.0</AltitudeMeters>
            <DistanceMeters>63405.702838271</DistanceMeters>
          </Trackpoint>
          <Trackpoint>
            <Position>
              <LatitudeDegrees>50.178038</LatitudeDegrees>
              <LongitudeDegrees>16.90771</LongitudeDegrees>
            </Position>
            <AltitudeMeters>642.0</AltitudeMeters>
            <DistanceMeters>63416.583293325</DistanceMeters>
          </Trackpoint>
          <Trackpoint>
            <Position>
              <LatitudeDegrees>50.17803</LatitudeDegrees>
              <LongitudeDegrees>16.907857</LongitudeDegrees>
            </Position>
            <AltitudeMeters>641.0</AltitudeMeters>
            <DistanceMeters>63427.099105996</DistanceMeters>
          </Trackpoint>
          <Trackpoint>
            <Position>
              <LatitudeDegrees>50.17801</LatitudeDegrees>
              <LongitudeDegrees>16.907998</LongitudeDegrees>
            </Position>
            <AltitudeMeters>641.0</AltitudeMeters>
            <DistanceMeters>63437.392740776</DistanceMeters>
          </Trackpoint>
          <Trackpoint>
            <Position>
              <LatitudeDegrees>50.178007</LatitudeDegrees>
              <LongitudeDegrees>16.908152</LongitudeDegrees>
            </Position>
            <AltitudeMeters>640.0</AltitudeMeters>
            <DistanceMeters>63448.374803469</DistanceMeters>
          </Trackpoint>
          <Trackpoint>
            <Position>
              <LatitudeDegrees>50.177975</LatitudeDegrees>
              <LongitudeDegrees>16.908297</LongitudeDegrees>
            </Position>
            <AltitudeMeters>639.0</AltitudeMeters>
            <DistanceMeters>63459.306593426</DistanceMeters>
          </Trackpoint>
          <Trackpoint>
            <Position>
              <LatitudeDegrees>50.177958</LatitudeDegrees>
              <LongitudeDegrees>16.908458</LongitudeDegrees>
            </Position>
            <AltitudeMeters>638.0</AltitudeMeters>
            <DistanceMeters>63470.937956428</DistanceMeters>
          </Trackpoint>
          <Trackpoint>
            <Position>
              <LatitudeDegrees>50.17794</LatitudeDegrees>
              <LongitudeDegrees>16.908637</LongitudeDegrees>
            </Position>
            <AltitudeMeters>636.0</AltitudeMeters>
            <DistanceMeters>63483.85320215</DistanceMeters>
          </Trackpoint>
          <Trackpoint>
            <Position>
              <LatitudeDegrees>50.177928</LatitudeDegrees>
              <LongitudeDegrees>16.908805</LongitudeDegrees>
            </Position>
            <AltitudeMeters>636.0</AltitudeMeters>
            <DistanceMeters>63495.902499601</DistanceMeters>
          </Trackpoint>
          <Trackpoint>
            <Position>
              <LatitudeDegrees>50.17789</LatitudeDegrees>
              <LongitudeDegrees>16.908935</LongitudeDegrees>
            </Position>
            <AltitudeMeters>636.0</AltitudeMeters>
            <DistanceMeters>63506.088547821</DistanceMeters>
          </Trackpoint>
          <Trackpoint>
            <Position>
              <LatitudeDegrees>50.177797</LatitudeDegrees>
              <LongitudeDegrees>16.908947</LongitudeDegrees>
            </Position>
            <AltitudeMeters>632.0</AltitudeMeters>
            <DistanceMeters>63516.474754694</DistanceMeters>
          </Trackpoint>
          <Trackpoint>
            <Position>
              <LatitudeDegrees>50.177748</LatitudeDegrees>
              <LongitudeDegrees>16.909077</LongitudeDegrees>
            </Position>
            <AltitudeMeters>632.0</AltitudeMeters>
            <DistanceMeters>63527.226640046</DistanceMeters>
          </Trackpoint>
          <Trackpoint>
            <Position>
              <LatitudeDegrees>50.177717</LatitudeDegrees>
              <LongitudeDegrees>16.908928</LongitudeDegrees>
            </Position>
            <AltitudeMeters>635.0</AltitudeMeters>
            <DistanceMeters>63538.393795266</DistanceMeters>
          </Trackpoint>
          <Trackpoint>
            <Position>
              <LatitudeDegrees>50.17777</LatitudeDegrees>
              <LongitudeDegrees>16.909043</LongitudeDegrees>
            </Position>
            <AltitudeMeters>635.0</AltitudeMeters>
            <DistanceMeters>63548.4925914</DistanceMeters>
          </Trackpoint>
          <Trackpoint>
            <Position>
              <LatitudeDegrees>50.177758</LatitudeDegrees>
              <LongitudeDegrees>16.909238</LongitudeDegrees>
            </Position>
            <AltitudeMeters>635.0</AltitudeMeters>
            <DistanceMeters>63562.456022589</DistanceMeters>
          </Trackpoint>
          <Trackpoint>
            <Position>
              <LatitudeDegrees>50.177757</LatitudeDegrees>
              <LongitudeDegrees>16.909398</LongitudeDegrees>
            </Position>
            <AltitudeMeters>634.0</AltitudeMeters>
            <DistanceMeters>63573.860811982</DistanceMeters>
          </Trackpoint>
          <Trackpoint>
            <Position>
              <LatitudeDegrees>50.177722</LatitudeDegrees>
              <LongitudeDegrees>16.909562</LongitudeDegrees>
            </Position>
            <AltitudeMeters>633.0</AltitudeMeters>
            <DistanceMeters>63586.182446421</DistanceMeters>
          </Trackpoint>
          <Trackpoint>
            <Position>
              <LatitudeDegrees>50.177702</LatitudeDegrees>
              <LongitudeDegrees>16.90973</LongitudeDegrees>
            </Position>
            <AltitudeMeters>632.0</AltitudeMeters>
            <DistanceMeters>63598.362187626</DistanceMeters>
          </Trackpoint>
          <Trackpoint>
            <Position>
              <LatitudeDegrees>50.177693</LatitudeDegrees>
              <LongitudeDegrees>16.909907</LongitudeDegrees>
            </Position>
            <AltitudeMeters>632.0</AltitudeMeters>
            <DistanceMeters>63611.018233453</DistanceMeters>
          </Trackpoint>
          <Trackpoint>
            <Position>
              <LatitudeDegrees>50.177682</LatitudeDegrees>
              <LongitudeDegrees>16.910073</LongitudeDegrees>
            </Position>
            <AltitudeMeters>632.0</AltitudeMeters>
            <DistanceMeters>63622.91366526</DistanceMeters>
          </Trackpoint>
          <Trackpoint>
            <Position>
              <LatitudeDegrees>50.17767</LatitudeDegrees>
              <LongitudeDegrees>16.910248</LongitudeDegrees>
            </Position>
            <AltitudeMeters>631.0</AltitudeMeters>
            <DistanceMeters>63635.458631273</DistanceMeters>
          </Trackpoint>
          <Trackpoint>
            <Position>
              <LatitudeDegrees>50.177663</LatitudeDegrees>
              <LongitudeDegrees>16.910388</LongitudeDegrees>
            </Position>
            <AltitudeMeters>630.0</AltitudeMeters>
            <DistanceMeters>63645.468512802</DistanceMeters>
          </Trackpoint>
          <Trackpoint>
            <Position>
              <LatitudeDegrees>50.177637</LatitudeDegrees>
              <LongitudeDegrees>16.910523</LongitudeDegrees>
            </Position>
            <AltitudeMeters>629.0</AltitudeMeters>
            <DistanceMeters>63655.517110455</DistanceMeters>
          </Trackpoint>
          <Trackpoint>
            <Position>
              <LatitudeDegrees>50.177627</LatitudeDegrees>
              <LongitudeDegrees>16.91069</LongitudeDegrees>
            </Position>
            <AltitudeMeters>629.0</AltitudeMeters>
            <DistanceMeters>63667.472740092</DistanceMeters>
          </Trackpoint>
          <Trackpoint>
            <Position>
              <LatitudeDegrees>50.17754</LatitudeDegrees>
              <LongitudeDegrees>16.910717</LongitudeDegrees>
            </Position>
            <AltitudeMeters>628.0</AltitudeMeters>
            <DistanceMeters>63677.345462368</DistanceMeters>
          </Trackpoint>
          <Trackpoint>
            <Position>
              <LatitudeDegrees>50.177468</LatitudeDegrees>
              <LongitudeDegrees>16.910765</LongitudeDegrees>
            </Position>
            <AltitudeMeters>625.0</AltitudeMeters>
            <DistanceMeters>63686.059987191</DistanceMeters>
          </Trackpoint>
          <Trackpoint>
            <Position>
              <LatitudeDegrees>50.177462</LatitudeDegrees>
              <LongitudeDegrees>16.910798</LongitudeDegrees>
            </Position>
            <AltitudeMeters>624.0</AltitudeMeters>
            <DistanceMeters>63688.504963798</DistanceMeters>
          </Trackpoint>
          <Trackpoint>
            <Position>
              <LatitudeDegrees>50.177452</LatitudeDegrees>
              <LongitudeDegrees>16.910832</LongitudeDegrees>
            </Position>
            <AltitudeMeters>624.0</AltitudeMeters>
            <DistanceMeters>63691.172490787</DistanceMeters>
          </Trackpoint>
          <Trackpoint>
            <Position>
              <LatitudeDegrees>50.17745</LatitudeDegrees>
              <LongitudeDegrees>16.910867</LongitudeDegrees>
            </Position>
            <AltitudeMeters>625.0</AltitudeMeters>
            <DistanceMeters>63693.677666056</DistanceMeters>
          </Trackpoint>
          <Trackpoint>
            <Position>
              <LatitudeDegrees>50.177442</LatitudeDegrees>
              <LongitudeDegrees>16.910907</LongitudeDegrees>
            </Position>
            <AltitudeMeters>624.0</AltitudeMeters>
            <DistanceMeters>63696.664590147</DistanceMeters>
          </Trackpoint>
          <Trackpoint>
            <Position>
              <LatitudeDegrees>50.177422</LatitudeDegrees>
              <LongitudeDegrees>16.910943</LongitudeDegrees>
            </Position>
            <AltitudeMeters>624.0</AltitudeMeters>
            <DistanceMeters>63700.06171212</DistanceMeters>
          </Trackpoint>
          <Trackpoint>
            <Position>
              <LatitudeDegrees>50.177407</LatitudeDegrees>
              <LongitudeDegrees>16.910982</LongitudeDegrees>
            </Position>
            <AltitudeMeters>623.0</AltitudeMeters>
            <DistanceMeters>63703.305173089</DistanceMeters>
          </Trackpoint>
          <Trackpoint>
            <Position>
              <LatitudeDegrees>50.1774</LatitudeDegrees>
              <LongitudeDegrees>16.911142</LongitudeDegrees>
            </Position>
            <AltitudeMeters>622.0</AltitudeMeters>
            <DistanceMeters>63714.736456316</DistanceMeters>
          </Trackpoint>
          <Trackpoint>
            <Position>
              <LatitudeDegrees>50.17738</LatitudeDegrees>
              <LongitudeDegrees>16.911182</LongitudeDegrees>
            </Position>
            <AltitudeMeters>621.0</AltitudeMeters>
            <DistanceMeters>63718.354965794</DistanceMeters>
          </Trackpoint>
          <Trackpoint>
            <Position>
              <LatitudeDegrees>50.177362</LatitudeDegrees>
              <LongitudeDegrees>16.911227</LongitudeDegrees>
            </Position>
            <AltitudeMeters>621.0</AltitudeMeters>
            <DistanceMeters>63722.136981274</DistanceMeters>
          </Trackpoint>
          <Trackpoint>
            <Position>
              <LatitudeDegrees>50.17735</LatitudeDegrees>
              <LongitudeDegrees>16.911263</LongitudeDegrees>
            </Position>
            <AltitudeMeters>621.0</AltitudeMeters>
            <DistanceMeters>63725.031788856</DistanceMeters>
          </Trackpoint>
          <Trackpoint>
            <Position>
              <LatitudeDegrees>50.177337</LatitudeDegrees>
              <LongitudeDegrees>16.9113</LongitudeDegrees>
            </Position>
            <AltitudeMeters>620.0</AltitudeMeters>
            <DistanceMeters>63728.041301553</DistanceMeters>
          </Trackpoint>
          <Trackpoint>
            <Position>
              <LatitudeDegrees>50.17733</LatitudeDegrees>
              <LongitudeDegrees>16.91134</LongitudeDegrees>
            </Position>
            <AltitudeMeters>620.0</AltitudeMeters>
            <DistanceMeters>63730.997839055</DistanceMeters>
          </Trackpoint>
          <Trackpoint>
            <Position>
              <LatitudeDegrees>50.177315</LatitudeDegrees>
              <LongitudeDegrees>16.911382</LongitudeDegrees>
            </Position>
            <AltitudeMeters>620.0</AltitudeMeters>
            <DistanceMeters>63734.42671052</DistanceMeters>
          </Trackpoint>
          <Trackpoint>
            <Position>
              <LatitudeDegrees>50.177303</LatitudeDegrees>
              <LongitudeDegrees>16.911425</LongitudeDegrees>
            </Position>
            <AltitudeMeters>620.0</AltitudeMeters>
            <DistanceMeters>63737.770246768</DistanceMeters>
          </Trackpoint>
          <Trackpoint>
            <Position>
              <LatitudeDegrees>50.177295</LatitudeDegrees>
              <LongitudeDegrees>16.911467</LongitudeDegrees>
            </Position>
            <AltitudeMeters>619.0</AltitudeMeters>
            <DistanceMeters>63740.893143269</DistanceMeters>
          </Trackpoint>
          <Trackpoint>
            <Position>
              <LatitudeDegrees>50.177285</LatitudeDegrees>
              <LongitudeDegrees>16.911515</LongitudeDegrees>
            </Position>
            <AltitudeMeters>619.0</AltitudeMeters>
            <DistanceMeters>63744.491633178</DistanceMeters>
          </Trackpoint>
          <Trackpoint>
            <Position>
              <LatitudeDegrees>50.177277</LatitudeDegrees>
              <LongitudeDegrees>16.911557</LongitudeDegrees>
            </Position>
            <AltitudeMeters>619.0</AltitudeMeters>
            <DistanceMeters>63747.614529679</DistanceMeters>
          </Trackpoint>
          <Trackpoint>
            <Position>
              <LatitudeDegrees>50.177268</LatitudeDegrees>
              <LongitudeDegrees>16.9116</LongitudeDegrees>
            </Position>
            <AltitudeMeters>619.0</AltitudeMeters>
            <DistanceMeters>63750.839843317</DistanceMeters>
          </Trackpoint>
          <Trackpoint>
            <Position>
              <LatitudeDegrees>50.177263</LatitudeDegrees>
              <LongitudeDegrees>16.911643</LongitudeDegrees>
            </Position>
            <AltitudeMeters>619.0</AltitudeMeters>
            <DistanceMeters>63753.954053025</DistanceMeters>
          </Trackpoint>
          <Trackpoint>
            <Position>
              <LatitudeDegrees>50.177257</LatitudeDegrees>
              <LongitudeDegrees>16.911687</LongitudeDegrees>
            </Position>
            <AltitudeMeters>618.0</AltitudeMeters>
            <DistanceMeters>63757.162524179</DistanceMeters>
          </Trackpoint>
          <Trackpoint>
            <Position>
              <LatitudeDegrees>50.17725</LatitudeDegrees>
              <LongitudeDegrees>16.911728</LongitudeDegrees>
            </Position>
            <AltitudeMeters>618.0</AltitudeMeters>
            <DistanceMeters>63760.187002223</DistanceMeters>
          </Trackpoint>
          <Trackpoint>
            <Position>
              <LatitudeDegrees>50.177245</LatitudeDegrees>
              <LongitudeDegrees>16.911772</LongitudeDegrees>
            </Position>
            <AltitudeMeters>618.0</AltitudeMeters>
            <DistanceMeters>63763.371460708</DistanceMeters>
          </Trackpoint>
          <Trackpoint>
            <Position>
              <LatitudeDegrees>50.177242</LatitudeDegrees>
              <LongitudeDegrees>16.911815</LongitudeDegrees>
            </Position>
            <AltitudeMeters>618.0</AltitudeMeters>
            <DistanceMeters>63766.453609377</DistanceMeters>
          </Trackpoint>
          <Trackpoint>
            <Position>
              <LatitudeDegrees>50.177238</LatitudeDegrees>
              <LongitudeDegrees>16.911855</LongitudeDegrees>
            </Position>
            <AltitudeMeters>617.0</AltitudeMeters>
            <DistanceMeters>63769.337478377</DistanceMeters>
          </Trackpoint>
          <Trackpoint>
            <Position>
              <LatitudeDegrees>50.177232</LatitudeDegrees>
              <LongitudeDegrees>16.911893</LongitudeDegrees>
            </Position>
            <AltitudeMeters>617.0</AltitudeMeters>
            <DistanceMeters>63772.127447175</DistanceMeters>
          </Trackpoint>
          <Trackpoint>
            <Position>
              <LatitudeDegrees>50.177225</LatitudeDegrees>
              <LongitudeDegrees>16.911927</LongitudeDegrees>
            </Position>
            <AltitudeMeters>617.0</AltitudeMeters>
            <DistanceMeters>63774.673737592</DistanceMeters>
          </Trackpoint>
          <Trackpoint>
            <Position>
              <LatitudeDegrees>50.177223</LatitudeDegrees>
              <LongitudeDegrees>16.91196</LongitudeDegrees>
            </Position>
            <AltitudeMeters>616.0</AltitudeMeters>
            <DistanceMeters>63777.03606425</DistanceMeters>
          </Trackpoint>
          <Trackpoint>
            <Position>
              <LatitudeDegrees>50.17722</LatitudeDegrees>
              <LongitudeDegrees>16.912002</LongitudeDegrees>
            </Position>
            <AltitudeMeters>617.0</AltitudeMeters>
            <DistanceMeters>63780.047076829</DistanceMeters>
          </Trackpoint>
          <Trackpoint>
            <Position>
              <LatitudeDegrees>50.177218</LatitudeDegrees>
              <LongitudeDegrees>16.912043</LongitudeDegrees>
            </Position>
            <AltitudeMeters>616.0</AltitudeMeters>
            <DistanceMeters>63782.977538004</DistanceMeters>
          </Trackpoint>
          <Trackpoint>
            <Position>
              <LatitudeDegrees>50.177215</LatitudeDegrees>
              <LongitudeDegrees>16.912087</LongitudeDegrees>
            </Position>
            <AltitudeMeters>616.0</AltitudeMeters>
            <DistanceMeters>63786.132081432</DistanceMeters>
          </Trackpoint>
          <Trackpoint>
            <Position>
              <LatitudeDegrees>50.177225</LatitudeDegrees>
              <LongitudeDegrees>16.912115</LongitudeDegrees>
            </Position>
            <AltitudeMeters>616.0</AltitudeMeters>
            <DistanceMeters>63788.42062777</DistanceMeters>
          </Trackpoint>
          <Trackpoint>
            <Position>
              <LatitudeDegrees>50.17722</LatitudeDegrees>
              <LongitudeDegrees>16.91216</LongitudeDegrees>
            </Position>
            <AltitudeMeters>616.0</AltitudeMeters>
            <DistanceMeters>63791.676593025</DistanceMeters>
          </Trackpoint>
          <Trackpoint>
            <Position>
              <LatitudeDegrees>50.177215</LatitudeDegrees>
              <LongitudeDegrees>16.912208</LongitudeDegrees>
            </Position>
            <AltitudeMeters>615.0</AltitudeMeters>
            <DistanceMeters>63795.143440548</DistanceMeters>
          </Trackpoint>
          <Trackpoint>
            <Position>
              <LatitudeDegrees>50.17721</LatitudeDegrees>
              <LongitudeDegrees>16.912252</LongitudeDegrees>
            </Position>
            <AltitudeMeters>615.0</AltitudeMeters>
            <DistanceMeters>63798.329316554</DistanceMeters>
          </Trackpoint>
          <Trackpoint>
            <Position>
              <LatitudeDegrees>50.177203</LatitudeDegrees>
              <LongitudeDegrees>16.91229</LongitudeDegrees>
            </Position>
            <AltitudeMeters>615.0</AltitudeMeters>
            <DistanceMeters>63801.148264455</DistanceMeters>
          </Trackpoint>
          <Trackpoint>
            <Position>
              <LatitudeDegrees>50.177198</LatitudeDegrees>
              <LongitudeDegrees>16.912332</LongitudeDegrees>
            </Position>
            <AltitudeMeters>614.0</AltitudeMeters>
            <DistanceMeters>63804.192087451</DistanceMeters>
          </Trackpoint>
          <Trackpoint>
            <Position>
              <LatitudeDegrees>50.177193</LatitudeDegrees>
              <LongitudeDegrees>16.912375</LongitudeDegrees>
            </Position>
            <AltitudeMeters>614.0</AltitudeMeters>
            <DistanceMeters>63807.306297158</DistanceMeters>
          </Trackpoint>
          <Trackpoint>
            <Position>
              <LatitudeDegrees>50.177188</LatitudeDegrees>
              <LongitudeDegrees>16.912417</LongitudeDegrees>
            </Position>
            <AltitudeMeters>614.0</AltitudeMeters>
            <DistanceMeters>63810.351603138</DistanceMeters>
          </Trackpoint>
          <Trackpoint>
            <Position>
              <LatitudeDegrees>50.177188</LatitudeDegrees>
              <LongitudeDegrees>16.91246</LongitudeDegrees>
            </Position>
            <AltitudeMeters>613.0</AltitudeMeters>
            <DistanceMeters>63813.417595567</DistanceMeters>
          </Trackpoint>
          <Trackpoint>
            <Position>
              <LatitudeDegrees>50.177182</LatitudeDegrees>
              <LongitudeDegrees>16.91251</LongitudeDegrees>
            </Position>
            <AltitudeMeters>613.0</AltitudeMeters>
            <DistanceMeters>63817.043583888</DistanceMeters>
          </Trackpoint>
          <Trackpoint>
            <Position>
              <LatitudeDegrees>50.17718</LatitudeDegrees>
              <LongitudeDegrees>16.912543</LongitudeDegrees>
            </Position>
            <AltitudeMeters>613.0</AltitudeMeters>
            <DistanceMeters>63819.405910547</DistanceMeters>
          </Trackpoint>
          <Trackpoint>
            <Position>
              <LatitudeDegrees>50.177177</LatitudeDegrees>
              <LongitudeDegrees>16.91258</LongitudeDegrees>
            </Position>
            <AltitudeMeters>613.0</AltitudeMeters>
            <DistanceMeters>63822.063262571</DistanceMeters>
          </Trackpoint>
          <Trackpoint>
            <Position>
              <LatitudeDegrees>50.177175</LatitudeDegrees>
              <LongitudeDegrees>16.912625</LongitudeDegrees>
            </Position>
            <AltitudeMeters>613.0</AltitudeMeters>
            <DistanceMeters>63825.277357692</DistanceMeters>
          </Trackpoint>
          <Trackpoint>
            <Position>
              <LatitudeDegrees>50.177172</LatitudeDegrees>
              <LongitudeDegrees>16.912673</LongitudeDegrees>
            </Position>
            <AltitudeMeters>613.0</AltitudeMeters>
            <DistanceMeters>63828.714120703</DistanceMeters>
          </Trackpoint>
          <Trackpoint>
            <Position>
              <LatitudeDegrees>50.177163</LatitudeDegrees>
              <LongitudeDegrees>16.91286</LongitudeDegrees>
            </Position>
            <AltitudeMeters>613.0</AltitudeMeters>
            <DistanceMeters>63842.080836549</DistanceMeters>
          </Trackpoint>
          <Trackpoint>
            <Position>
              <LatitudeDegrees>50.17717</LatitudeDegrees>
              <LongitudeDegrees>16.913045</LongitudeDegrees>
            </Position>
            <AltitudeMeters>613.0</AltitudeMeters>
            <DistanceMeters>63855.290575275</DistanceMeters>
          </Trackpoint>
          <Trackpoint>
            <Position>
              <LatitudeDegrees>50.177173</LatitudeDegrees>
              <LongitudeDegrees>16.913215</LongitudeDegrees>
            </Position>
            <AltitudeMeters>613.0</AltitudeMeters>
            <DistanceMeters>63867.412349233</DistanceMeters>
          </Trackpoint>
          <Trackpoint>
            <Position>
              <LatitudeDegrees>50.17717</LatitudeDegrees>
              <LongitudeDegrees>16.91341</LongitudeDegrees>
            </Position>
            <AltitudeMeters>613.0</AltitudeMeters>
            <DistanceMeters>63881.315507736</DistanceMeters>
          </Trackpoint>
          <Trackpoint>
            <Position>
              <LatitudeDegrees>50.17717</LatitudeDegrees>
              <LongitudeDegrees>16.913578</LongitudeDegrees>
            </Position>
            <AltitudeMeters>613.0</AltitudeMeters>
            <DistanceMeters>63893.290382012</DistanceMeters>
          </Trackpoint>
          <Trackpoint>
            <Position>
              <LatitudeDegrees>50.17717</LatitudeDegrees>
              <LongitudeDegrees>16.913727</LongitudeDegrees>
            </Position>
            <AltitudeMeters>613.0</AltitudeMeters>
            <DistanceMeters>63903.91129134</DistanceMeters>
          </Trackpoint>
          <Trackpoint>
            <Position>
              <LatitudeDegrees>50.177153</LatitudeDegrees>
              <LongitudeDegrees>16.91387</LongitudeDegrees>
            </Position>
            <AltitudeMeters>613.0</AltitudeMeters>
            <DistanceMeters>63914.278353114</DistanceMeters>
          </Trackpoint>
          <Trackpoint>
            <Position>
              <LatitudeDegrees>50.177147</LatitudeDegrees>
              <LongitudeDegrees>16.914048</LongitudeDegrees>
            </Position>
            <AltitudeMeters>614.0</AltitudeMeters>
            <DistanceMeters>63926.983534991</DistanceMeters>
          </Trackpoint>
          <Trackpoint>
            <Position>
              <LatitudeDegrees>50.17713</LatitudeDegrees>
              <LongitudeDegrees>16.914207</LongitudeDegrees>
            </Position>
            <AltitudeMeters>613.0</AltitudeMeters>
            <DistanceMeters>63938.47351835</DistanceMeters>
          </Trackpoint>
          <Trackpoint>
            <Position>
              <LatitudeDegrees>50.17712</LatitudeDegrees>
              <LongitudeDegrees>16.914365</LongitudeDegrees>
            </Position>
            <AltitudeMeters>613.0</AltitudeMeters>
            <DistanceMeters>63949.790477933</DistanceMeters>
          </Trackpoint>
          <Trackpoint>
            <Position>
              <LatitudeDegrees>50.177127</LatitudeDegrees>
              <LongitudeDegrees>16.914543</LongitudeDegrees>
            </Position>
            <AltitudeMeters>613.0</AltitudeMeters>
            <DistanceMeters>63962.502054857</DistanceMeters>
          </Trackpoint>
          <Trackpoint>
            <Position>
              <LatitudeDegrees>50.177132</LatitudeDegrees>
              <LongitudeDegrees>16.9147</LongitudeDegrees>
            </Position>
            <AltitudeMeters>613.0</AltitudeMeters>
            <DistanceMeters>63973.706345228</DistanceMeters>
          </Trackpoint>
          <Trackpoint>
            <Position>
              <LatitudeDegrees>50.17714</LatitudeDegrees>
              <LongitudeDegrees>16.914845</LongitudeDegrees>
            </Position>
            <AltitudeMeters>613.0</AltitudeMeters>
            <DistanceMeters>63984.080372945</DistanceMeters>
          </Trackpoint>
          <Trackpoint>
            <Position>
              <LatitudeDegrees>50.177143</LatitudeDegrees>
              <LongitudeDegrees>16.914988</LongitudeDegrees>
            </Position>
            <AltitudeMeters>613.0</AltitudeMeters>
            <DistanceMeters>63994.278824812</DistanceMeters>
          </Trackpoint>
          <Trackpoint>
            <Position>
              <LatitudeDegrees>50.177172</LatitudeDegrees>
              <LongitudeDegrees>16.915123</LongitudeDegrees>
            </Position>
            <AltitudeMeters>612.0</AltitudeMeters>
            <DistanceMeters>64004.428460868</DistanceMeters>
          </Trackpoint>
          <Trackpoint>
            <Position>
              <LatitudeDegrees>50.177218</LatitudeDegrees>
              <LongitudeDegrees>16.915248</LongitudeDegrees>
            </Position>
            <AltitudeMeters>612.0</AltitudeMeters>
            <DistanceMeters>64014.704535699</DistanceMeters>
          </Trackpoint>
          <Trackpoint>
            <Position>
              <LatitudeDegrees>50.17724</LatitudeDegrees>
              <LongitudeDegrees>16.915423</LongitudeDegrees>
            </Position>
            <AltitudeMeters>612.0</AltitudeMeters>
            <DistanceMeters>64027.416822985</DistanceMeters>
          </Trackpoint>
          <Trackpoint>
            <Position>
              <LatitudeDegrees>50.177292</LatitudeDegrees>
              <LongitudeDegrees>16.915568</LongitudeDegrees>
            </Position>
            <AltitudeMeters>612.0</AltitudeMeters>
            <DistanceMeters>64039.262427987</DistanceMeters>
          </Trackpoint>
          <Trackpoint>
            <Position>
              <LatitudeDegrees>50.177248</LatitudeDegrees>
              <LongitudeDegrees>16.915698</LongitudeDegrees>
            </Position>
            <AltitudeMeters>609.0</AltitudeMeters>
            <DistanceMeters>64049.742974245</DistanceMeters>
          </Trackpoint>
          <Trackpoint>
            <Position>
              <LatitudeDegrees>50.177222</LatitudeDegrees>
              <LongitudeDegrees>16.915712</LongitudeDegrees>
            </Position>
            <AltitudeMeters>609.0</AltitudeMeters>
            <DistanceMeters>64052.80307053</DistanceMeters>
          </Trackpoint>
          <Trackpoint>
            <Position>
              <LatitudeDegrees>50.177188</LatitudeDegrees>
              <LongitudeDegrees>16.915727</LongitudeDegrees>
            </Position>
            <AltitudeMeters>608.0</AltitudeMeters>
            <DistanceMeters>64056.734926437</DistanceMeters>
          </Trackpoint>
          <Trackpoint>
            <Position>
              <LatitudeDegrees>50.17716</LatitudeDegrees>
              <LongitudeDegrees>16.915747</LongitudeDegrees>
            </Position>
            <AltitudeMeters>607.0</AltitudeMeters>
            <DistanceMeters>64060.162480879</DistanceMeters>
          </Trackpoint>
          <Trackpoint>
            <Position>
              <LatitudeDegrees>50.177132</LatitudeDegrees>
              <LongitudeDegrees>16.915758</LongitudeDegrees>
            </Position>
            <AltitudeMeters>607.0</AltitudeMeters>
            <DistanceMeters>64063.375170931</DistanceMeters>
          </Trackpoint>
          <Trackpoint>
            <Position>
              <LatitudeDegrees>50.177103</LatitudeDegrees>
              <LongitudeDegrees>16.915775</LongitudeDegrees>
            </Position>
            <AltitudeMeters>606.0</AltitudeMeters>
            <DistanceMeters>64066.823737398</DistanceMeters>
          </Trackpoint>
          <Trackpoint>
            <Position>
              <LatitudeDegrees>50.177075</LatitudeDegrees>
              <LongitudeDegrees>16.915797</LongitudeDegrees>
            </Position>
            <AltitudeMeters>606.0</AltitudeMeters>
            <DistanceMeters>64070.313948441</DistanceMeters>
          </Trackpoint>
          <Trackpoint>
            <Position>
              <LatitudeDegrees>50.177052</LatitudeDegrees>
              <LongitudeDegrees>16.915815</LongitudeDegrees>
            </Position>
            <AltitudeMeters>606.0</AltitudeMeters>
            <DistanceMeters>64073.177392069</DistanceMeters>
          </Trackpoint>
          <Trackpoint>
            <Position>
              <LatitudeDegrees>50.177028</LatitudeDegrees>
              <LongitudeDegrees>16.915837</LongitudeDegrees>
            </Position>
            <AltitudeMeters>605.0</AltitudeMeters>
            <DistanceMeters>64076.277069687</DistanceMeters>
          </Trackpoint>
          <Trackpoint>
            <Position>
              <LatitudeDegrees>50.17701</LatitudeDegrees>
              <LongitudeDegrees>16.915863</LongitudeDegrees>
            </Position>
            <AltitudeMeters>605.0</AltitudeMeters>
            <DistanceMeters>64079.006504256</DistanceMeters>
          </Trackpoint>
          <Trackpoint>
            <Position>
              <LatitudeDegrees>50.176993</LatitudeDegrees>
              <LongitudeDegrees>16.915897</LongitudeDegrees>
            </Position>
            <AltitudeMeters>605.0</AltitudeMeters>
            <DistanceMeters>64082.082787747</DistanceMeters>
          </Trackpoint>
          <Trackpoint>
            <Position>
              <LatitudeDegrees>50.176983</LatitudeDegrees>
              <LongitudeDegrees>16.915935</LongitudeDegrees>
            </Position>
            <AltitudeMeters>605.0</AltitudeMeters>
            <DistanceMeters>64085.010165848</DistanceMeters>
          </Trackpoint>
          <Trackpoint>
            <Position>
              <LatitudeDegrees>50.176958</LatitudeDegrees>
              <LongitudeDegrees>16.915992</LongitudeDegrees>
            </Position>
            <AltitudeMeters>605.0</AltitudeMeters>
            <DistanceMeters>64089.935080601</DistanceMeters>
          </Trackpoint>
          <Trackpoint>
            <Position>
              <LatitudeDegrees>50.176922</LatitudeDegrees>
              <LongitudeDegrees>16.91609</LongitudeDegrees>
            </Position>
            <AltitudeMeters>605.0</AltitudeMeters>
            <DistanceMeters>64097.988279283</DistanceMeters>
          </Trackpoint>
          <Trackpoint>
            <Position>
              <LatitudeDegrees>50.176878</LatitudeDegrees>
              <LongitudeDegrees>16.91623</LongitudeDegrees>
            </Position>
            <AltitudeMeters>604.0</AltitudeMeters>
            <DistanceMeters>64109.104374194</DistanceMeters>
          </Trackpoint>
          <Trackpoint>
            <Position>
              <LatitudeDegrees>50.176847</LatitudeDegrees>
              <LongitudeDegrees>16.916372</LongitudeDegrees>
            </Position>
            <AltitudeMeters>604.0</AltitudeMeters>
            <DistanceMeters>64119.797729982</DistanceMeters>
          </Trackpoint>
          <Trackpoint>
            <Position>
              <LatitudeDegrees>50.176825</LatitudeDegrees>
              <LongitudeDegrees>16.916492</LongitudeDegrees>
            </Position>
            <AltitudeMeters>603.0</AltitudeMeters>
            <DistanceMeters>64128.694788491</DistanceMeters>
          </Trackpoint>
          <Trackpoint>
            <Position>
              <LatitudeDegrees>50.176812</LatitudeDegrees>
              <LongitudeDegrees>16.916593</LongitudeDegrees>
            </Position>
            <AltitudeMeters>603.0</AltitudeMeters>
            <DistanceMeters>64136.038330996</DistanceMeters>
          </Trackpoint>
          <Trackpoint>
            <Position>
              <LatitudeDegrees>50.17681</LatitudeDegrees>
              <LongitudeDegrees>16.916622</LongitudeDegrees>
            </Position>
            <AltitudeMeters>603.0</AltitudeMeters>
            <DistanceMeters>64138.120261997</DistanceMeters>
          </Trackpoint>
          <Trackpoint>
            <Position>
              <LatitudeDegrees>50.17681</LatitudeDegrees>
              <LongitudeDegrees>16.916725</LongitudeDegrees>
            </Position>
            <AltitudeMeters>603.0</AltitudeMeters>
            <DistanceMeters>64145.462574737</DistanceMeters>
          </Trackpoint>
          <Trackpoint>
            <Position>
              <LatitudeDegrees>50.176822</LatitudeDegrees>
              <LongitudeDegrees>16.916888</LongitudeDegrees>
            </Position>
            <AltitudeMeters>603.0</AltitudeMeters>
            <DistanceMeters>64157.157811712</DistanceMeters>
          </Trackpoint>
          <Trackpoint>
            <Position>
              <LatitudeDegrees>50.176837</LatitudeDegrees>
              <LongitudeDegrees>16.917027</LongitudeDegrees>
            </Position>
            <AltitudeMeters>603.0</AltitudeMeters>
            <DistanceMeters>64167.205510684</DistanceMeters>
          </Trackpoint>
          <Trackpoint>
            <Position>
              <LatitudeDegrees>50.17686</LatitudeDegrees>
              <LongitudeDegrees>16.917172</LongitudeDegrees>
            </Position>
            <AltitudeMeters>604.0</AltitudeMeters>
            <DistanceMeters>64177.853592193</DistanceMeters>
          </Trackpoint>
          <Trackpoint>
            <Position>
              <LatitudeDegrees>50.176895</LatitudeDegrees>
              <LongitudeDegrees>16.917303</LongitudeDegrees>
            </Position>
            <AltitudeMeters>605.0</AltitudeMeters>
            <DistanceMeters>64187.971148547</DistanceMeters>
          </Trackpoint>
          <Trackpoint>
            <Position>
              <LatitudeDegrees>50.176942</LatitudeDegrees>
              <LongitudeDegrees>16.917448</LongitudeDegrees>
            </Position>
            <AltitudeMeters>611.0</AltitudeMeters>
            <DistanceMeters>64199.555446801</DistanceMeters>
          </Trackpoint>
          <Trackpoint>
            <Position>
              <LatitudeDegrees>50.177012</LatitudeDegrees>
              <LongitudeDegrees>16.91756</LongitudeDegrees>
            </Position>
            <AltitudeMeters>611.0</AltitudeMeters>
            <DistanceMeters>64210.710466003</DistanceMeters>
          </Trackpoint>
          <Trackpoint>
            <Position>
              <LatitudeDegrees>50.177082</LatitudeDegrees>
              <LongitudeDegrees>16.917663</LongitudeDegrees>
            </Position>
            <AltitudeMeters>610.0</AltitudeMeters>
            <DistanceMeters>64221.416059411</DistanceMeters>
          </Trackpoint>
          <Trackpoint>
            <Position>
              <LatitudeDegrees>50.177665</LatitudeDegrees>
              <LongitudeDegrees>16.918748</LongitudeDegrees>
            </Position>
            <AltitudeMeters>610.0</AltitudeMeters>
            <DistanceMeters>64322.370304782</DistanceMeters>
          </Trackpoint>
          <Trackpoint>
            <Position>
              <LatitudeDegrees>50.177548</LatitudeDegrees>
              <LongitudeDegrees>16.918938</LongitudeDegrees>
            </Position>
            <AltitudeMeters>604.0</AltitudeMeters>
            <DistanceMeters>64341.158458451</DistanceMeters>
          </Trackpoint>
          <Trackpoint>
            <Position>
              <LatitudeDegrees>50.177435</LatitudeDegrees>
              <LongitudeDegrees>16.91903</LongitudeDegrees>
            </Position>
            <AltitudeMeters>602.0</AltitudeMeters>
            <DistanceMeters>64355.342608167</DistanceMeters>
          </Trackpoint>
          <Trackpoint>
            <Position>
              <LatitudeDegrees>50.17733</LatitudeDegrees>
              <LongitudeDegrees>16.919042</LongitudeDegrees>
            </Position>
            <AltitudeMeters>602.0</AltitudeMeters>
            <DistanceMeters>64367.060600418</DistanceMeters>
          </Trackpoint>
          <Trackpoint>
            <Position>
              <LatitudeDegrees>50.177252</LatitudeDegrees>
              <LongitudeDegrees>16.919148</LongitudeDegrees>
            </Position>
            <AltitudeMeters>600.0</AltitudeMeters>
            <DistanceMeters>64378.569430128</DistanceMeters>
          </Trackpoint>
          <Trackpoint>
            <Position>
              <LatitudeDegrees>50.17724</LatitudeDegrees>
              <LongitudeDegrees>16.919288</LongitudeDegrees>
            </Position>
            <AltitudeMeters>600.0</AltitudeMeters>
            <DistanceMeters>64388.637778461</DistanceMeters>
          </Trackpoint>
          <Trackpoint>
            <Position>
              <LatitudeDegrees>50.177205</LatitudeDegrees>
              <LongitudeDegrees>16.91944</LongitudeDegrees>
            </Position>
            <AltitudeMeters>605.0</AltitudeMeters>
            <DistanceMeters>64400.151314938</DistanceMeters>
          </Trackpoint>
          <Trackpoint>
            <Position>
              <LatitudeDegrees>50.17719</LatitudeDegrees>
              <LongitudeDegrees>16.919585</LongitudeDegrees>
            </Position>
            <AltitudeMeters>606.0</AltitudeMeters>
            <DistanceMeters>64410.620654357</DistanceMeters>
          </Trackpoint>
          <Trackpoint>
            <Position>
              <LatitudeDegrees>50.177133</LatitudeDegrees>
              <LongitudeDegrees>16.919708</LongitudeDegrees>
            </Position>
            <AltitudeMeters>607.0</AltitudeMeters>
            <DistanceMeters>64421.44285799</DistanceMeters>
          </Trackpoint>
          <Trackpoint>
            <Position>
              <LatitudeDegrees>50.177093</LatitudeDegrees>
              <LongitudeDegrees>16.919847</LongitudeDegrees>
            </Position>
            <AltitudeMeters>608.0</AltitudeMeters>
            <DistanceMeters>64432.305039116</DistanceMeters>
          </Trackpoint>
          <Trackpoint>
            <Position>
              <LatitudeDegrees>50.177135</LatitudeDegrees>
              <LongitudeDegrees>16.919972</LongitudeDegrees>
            </Position>
            <AltitudeMeters>608.0</AltitudeMeters>
            <DistanceMeters>64442.367107347</DistanceMeters>
          </Trackpoint>
          <Trackpoint>
            <Position>
              <LatitudeDegrees>50.177105</LatitudeDegrees>
              <LongitudeDegrees>16.920112</LongitudeDegrees>
            </Position>
            <AltitudeMeters>608.0</AltitudeMeters>
            <DistanceMeters>64452.890645607</DistanceMeters>
          </Trackpoint>
          <Trackpoint>
            <Position>
              <LatitudeDegrees>50.177048</LatitudeDegrees>
              <LongitudeDegrees>16.920247</LongitudeDegrees>
            </Position>
            <AltitudeMeters>611.0</AltitudeMeters>
            <DistanceMeters>64464.416332336</DistanceMeters>
          </Trackpoint>
          <Trackpoint>
            <Position>
              <LatitudeDegrees>50.177027</LatitudeDegrees>
              <LongitudeDegrees>16.920397</LongitudeDegrees>
            </Position>
            <AltitudeMeters>613.0</AltitudeMeters>
            <DistanceMeters>64475.360505852</DistanceMeters>
          </Trackpoint>
          <Trackpoint>
            <Position>
              <LatitudeDegrees>50.17699</LatitudeDegrees>
              <LongitudeDegrees>16.920468</LongitudeDegrees>
            </Position>
            <AltitudeMeters>614.0</AltitudeMeters>
            <DistanceMeters>64481.885596689</DistanceMeters>
          </Trackpoint>
          <Trackpoint>
            <Position>
              <LatitudeDegrees>50.176993</LatitudeDegrees>
              <LongitudeDegrees>16.920505</LongitudeDegrees>
            </Position>
            <AltitudeMeters>613.0</AltitudeMeters>
            <DistanceMeters>64484.542948713</DistanceMeters>
          </Trackpoint>
          <Trackpoint>
            <Position>
              <LatitudeDegrees>50.176998</LatitudeDegrees>
              <LongitudeDegrees>16.920548</LongitudeDegrees>
            </Position>
            <AltitudeMeters>613.0</AltitudeMeters>
            <DistanceMeters>64487.657158421</DistanceMeters>
          </Trackpoint>
          <Trackpoint>
            <Position>
              <LatitudeDegrees>50.177017</LatitudeDegrees>
              <LongitudeDegrees>16.9207</LongitudeDegrees>
            </Position>
            <AltitudeMeters>612.0</AltitudeMeters>
            <DistanceMeters>64498.695811035</DistanceMeters>
          </Trackpoint>
          <Trackpoint>
            <Position>
              <LatitudeDegrees>50.177047</LatitudeDegrees>
              <LongitudeDegrees>16.920833</LongitudeDegrees>
            </Position>
            <AltitudeMeters>612.0</AltitudeMeters>
            <DistanceMeters>64508.746655038</DistanceMeters>
          </Trackpoint>
          <Trackpoint>
            <Position>
              <LatitudeDegrees>50.177055</LatitudeDegrees>
              <LongitudeDegrees>16.920983</LongitudeDegrees>
            </Position>
            <AltitudeMeters>611.0</AltitudeMeters>
            <DistanceMeters>64519.475419386</DistanceMeters>
          </Trackpoint>
          <Trackpoint>
            <Position>
              <LatitudeDegrees>50.177085</LatitudeDegrees>
              <LongitudeDegrees>16.921137</LongitudeDegrees>
            </Position>
            <AltitudeMeters>611.0</AltitudeMeters>
            <DistanceMeters>64530.948886795</DistanceMeters>
          </Trackpoint>
          <Trackpoint>
            <Position>
              <LatitudeDegrees>50.177098</LatitudeDegrees>
              <LongitudeDegrees>16.921303</LongitudeDegrees>
            </Position>
            <AltitudeMeters>610.0</AltitudeMeters>
            <DistanceMeters>64542.869343285</DistanceMeters>
          </Trackpoint>
          <Trackpoint>
            <Position>
              <LatitudeDegrees>50.177118</LatitudeDegrees>
              <LongitudeDegrees>16.921443</LongitudeDegrees>
            </Position>
            <AltitudeMeters>610.0</AltitudeMeters>
            <DistanceMeters>64553.09388215</DistanceMeters>
          </Trackpoint>
          <Trackpoint>
            <Position>
              <LatitudeDegrees>50.177158</LatitudeDegrees>
              <LongitudeDegrees>16.921577</LongitudeDegrees>
            </Position>
            <AltitudeMeters>611.0</AltitudeMeters>
            <DistanceMeters>64563.631997736</DistanceMeters>
          </Trackpoint>
          <Trackpoint>
            <Position>
              <LatitudeDegrees>50.177175</LatitudeDegrees>
              <LongitudeDegrees>16.921723</LongitudeDegrees>
            </Position>
            <AltitudeMeters>611.0</AltitudeMeters>
            <DistanceMeters>64574.209457125</DistanceMeters>
          </Trackpoint>
          <Trackpoint>
            <Position>
              <LatitudeDegrees>50.177185</LatitudeDegrees>
              <LongitudeDegrees>16.921838</LongitudeDegrees>
            </Position>
            <AltitudeMeters>611.0</AltitudeMeters>
            <DistanceMeters>64582.48169499</DistanceMeters>
          </Trackpoint>
          <Trackpoint>
            <Position>
              <LatitudeDegrees>50.17718</LatitudeDegrees>
              <LongitudeDegrees>16.921872</LongitudeDegrees>
            </Position>
            <AltitudeMeters>612.0</AltitudeMeters>
            <DistanceMeters>64584.96696606</DistanceMeters>
          </Trackpoint>
          <Trackpoint>
            <Position>
              <LatitudeDegrees>50.177182</LatitudeDegrees>
              <LongitudeDegrees>16.922022</LongitudeDegrees>
            </Position>
            <AltitudeMeters>612.0</AltitudeMeters>
            <DistanceMeters>64595.660744068</DistanceMeters>
          </Trackpoint>
          <Trackpoint>
            <Position>
              <LatitudeDegrees>50.17717</LatitudeDegrees>
              <LongitudeDegrees>16.922165</LongitudeDegrees>
            </Position>
            <AltitudeMeters>613.0</AltitudeMeters>
            <DistanceMeters>64605.940772503</DistanceMeters>
          </Trackpoint>
          <Trackpoint>
            <Position>
              <LatitudeDegrees>50.177212</LatitudeDegrees>
              <LongitudeDegrees>16.922305</LongitudeDegrees>
            </Position>
            <AltitudeMeters>613.0</AltitudeMeters>
            <DistanceMeters>64616.960594099</DistanceMeters>
          </Trackpoint>
          <Trackpoint>
            <Position>
              <LatitudeDegrees>50.177232</LatitudeDegrees>
              <LongitudeDegrees>16.922457</LongitudeDegrees>
            </Position>
            <AltitudeMeters>614.0</AltitudeMeters>
            <DistanceMeters>64628.021719979</DistanceMeters>
          </Trackpoint>
          <Trackpoint>
            <Position>
              <LatitudeDegrees>50.177182</LatitudeDegrees>
              <LongitudeDegrees>16.922598</LongitudeDegrees>
            </Position>
            <AltitudeMeters>617.0</AltitudeMeters>
            <DistanceMeters>64639.510131415</DistanceMeters>
          </Trackpoint>
          <Trackpoint>
            <Position>
              <LatitudeDegrees>50.17715</LatitudeDegrees>
              <LongitudeDegrees>16.922652</LongitudeDegrees>
            </Position>
            <AltitudeMeters>620.0</AltitudeMeters>
            <DistanceMeters>64644.754710792</DistanceMeters>
          </Trackpoint>
          <Trackpoint>
            <Position>
              <LatitudeDegrees>50.177145</LatitudeDegrees>
              <LongitudeDegrees>16.9227</LongitudeDegrees>
            </Position>
            <AltitudeMeters>622.0</AltitudeMeters>
            <DistanceMeters>64648.221558315</DistanceMeters>
          </Trackpoint>
          <Trackpoint>
            <Position>
              <LatitudeDegrees>50.177152</LatitudeDegrees>
              <LongitudeDegrees>16.922768</LongitudeDegrees>
            </Position>
            <AltitudeMeters>623.0</AltitudeMeters>
            <DistanceMeters>64653.131782761</DistanceMeters>
          </Trackpoint>
          <Trackpoint>
            <Position>
              <LatitudeDegrees>50.177155</LatitudeDegrees>
              <LongitudeDegrees>16.922808</LongitudeDegrees>
            </Position>
            <AltitudeMeters>623.0</AltitudeMeters>
            <DistanceMeters>64656.003099496</DistanceMeters>
          </Trackpoint>
          <Trackpoint>
            <Position>
              <LatitudeDegrees>50.177157</LatitudeDegrees>
              <LongitudeDegrees>16.922853</LongitudeDegrees>
            </Position>
            <AltitudeMeters>624.0</AltitudeMeters>
            <DistanceMeters>64659.218599073</DistanceMeters>
          </Trackpoint>
          <Trackpoint>
            <Position>
              <LatitudeDegrees>50.177158</LatitudeDegrees>
              <LongitudeDegrees>16.922883</LongitudeDegrees>
            </Position>
            <AltitudeMeters>624.0</AltitudeMeters>
            <DistanceMeters>64661.360392441</DistanceMeters>
          </Trackpoint>
          <Trackpoint>
            <Position>
              <LatitudeDegrees>50.177163</LatitudeDegrees>
              <LongitudeDegrees>16.922932</LongitudeDegrees>
            </Position>
            <AltitudeMeters>624.0</AltitudeMeters>
            <DistanceMeters>64664.89814398</DistanceMeters>
          </Trackpoint>
          <Trackpoint>
            <Position>
              <LatitudeDegrees>50.177163</LatitudeDegrees>
              <LongitudeDegrees>16.922978</LongitudeDegrees>
            </Position>
            <AltitudeMeters>624.0</AltitudeMeters>
            <DistanceMeters>64668.176221308</DistanceMeters>
          </Trackpoint>
          <Trackpoint>
            <Position>
              <LatitudeDegrees>50.177153</LatitudeDegrees>
              <LongitudeDegrees>16.923128</LongitudeDegrees>
            </Position>
            <AltitudeMeters>625.0</AltitudeMeters>
            <DistanceMeters>64678.925586786</DistanceMeters>
          </Trackpoint>
          <Trackpoint>
            <Position>
              <LatitudeDegrees>50.177152</LatitudeDegrees>
              <LongitudeDegrees>16.923173</LongitudeDegrees>
            </Position>
            <AltitudeMeters>625.0</AltitudeMeters>
            <DistanceMeters>64682.135464856</DistanceMeters>
          </Trackpoint>
          <Trackpoint>
            <Position>
              <LatitudeDegrees>50.177153</LatitudeDegrees>
              <LongitudeDegrees>16.923223</LongitudeDegrees>
            </Position>
            <AltitudeMeters>625.0</AltitudeMeters>
            <DistanceMeters>64685.701183245</DistanceMeters>
          </Trackpoint>
          <Trackpoint>
            <Position>
              <LatitudeDegrees>50.177157</LatitudeDegrees>
              <LongitudeDegrees>16.923273</LongitudeDegrees>
            </Position>
            <AltitudeMeters>626.0</AltitudeMeters>
            <DistanceMeters>64689.292137041</DistanceMeters>
          </Trackpoint>
          <Trackpoint>
            <Position>
              <LatitudeDegrees>50.177152</LatitudeDegrees>
              <LongitudeDegrees>16.92331</LongitudeDegrees>
            </Position>
            <AltitudeMeters>626.0</AltitudeMeters>
            <DistanceMeters>64691.986609431</DistanceMeters>
          </Trackpoint>
          <Trackpoint>
            <Position>
              <LatitudeDegrees>50.177133</LatitudeDegrees>
              <LongitudeDegrees>16.923352</LongitudeDegrees>
            </Position>
            <AltitudeMeters>626.0</AltitudeMeters>
            <DistanceMeters>64695.652227216</DistanceMeters>
          </Trackpoint>
          <Trackpoint>
            <Position>
              <LatitudeDegrees>50.177118</LatitudeDegrees>
              <LongitudeDegrees>16.923398</LongitudeDegrees>
            </Position>
            <AltitudeMeters>627.0</AltitudeMeters>
            <DistanceMeters>64699.332596038</DistanceMeters>
          </Trackpoint>
          <Trackpoint>
            <Position>
              <LatitudeDegrees>50.17711</LatitudeDegrees>
              <LongitudeDegrees>16.923443</LongitudeDegrees>
            </Position>
            <AltitudeMeters>627.0</AltitudeMeters>
            <DistanceMeters>64702.662601124</DistanceMeters>
          </Trackpoint>
          <Trackpoint>
            <Position>
              <LatitudeDegrees>50.177107</LatitudeDegrees>
              <LongitudeDegrees>16.923492</LongitudeDegrees>
            </Position>
            <AltitudeMeters>627.0</AltitudeMeters>
            <DistanceMeters>64706.172162959</DistanceMeters>
          </Trackpoint>
          <Trackpoint>
            <Position>
              <LatitudeDegrees>50.177105</LatitudeDegrees>
              <LongitudeDegrees>16.923543</LongitudeDegrees>
            </Position>
            <AltitudeMeters>626.0</AltitudeMeters>
            <DistanceMeters>64709.81554221</DistanceMeters>
          </Trackpoint>
          <Trackpoint>
            <Position>
              <LatitudeDegrees>50.177103</LatitudeDegrees>
              <LongitudeDegrees>16.923593</LongitudeDegrees>
            </Position>
            <AltitudeMeters>626.0</AltitudeMeters>
            <DistanceMeters>64713.386321949</DistanceMeters>
          </Trackpoint>
          <Trackpoint>
            <Position>
              <LatitudeDegrees>50.177098</LatitudeDegrees>
              <LongitudeDegrees>16.923642</LongitudeDegrees>
            </Position>
            <AltitudeMeters>626.0</AltitudeMeters>
            <DistanceMeters>64716.922797012</DistanceMeters>
          </Trackpoint>
          <Trackpoint>
            <Position>
              <LatitudeDegrees>50.177093</LatitudeDegrees>
              <LongitudeDegrees>16.923685</LongitudeDegrees>
            </Position>
            <AltitudeMeters>625.0</AltitudeMeters>
            <DistanceMeters>64720.0384562</DistanceMeters>
          </Trackpoint>
          <Trackpoint>
            <Position>
              <LatitudeDegrees>50.177083</LatitudeDegrees>
              <LongitudeDegrees>16.923735</LongitudeDegrees>
            </Position>
            <AltitudeMeters>625.0</AltitudeMeters>
            <DistanceMeters>64723.772413622</DistanceMeters>
          </Trackpoint>
          <Trackpoint>
            <Position>
              <LatitudeDegrees>50.177077</LatitudeDegrees>
              <LongitudeDegrees>16.923782</LongitudeDegrees>
            </Position>
            <AltitudeMeters>625.0</AltitudeMeters>
            <DistanceMeters>64727.188091998</DistanceMeters>
          </Trackpoint>
          <Trackpoint>
            <Position>
              <LatitudeDegrees>50.177057</LatitudeDegrees>
              <LongitudeDegrees>16.923825</LongitudeDegrees>
            </Position>
            <AltitudeMeters>625.0</AltitudeMeters>
            <DistanceMeters>64730.974879739</DistanceMeters>
          </Trackpoint>
          <Trackpoint>
            <Position>
              <LatitudeDegrees>50.177037</LatitudeDegrees>
              <LongitudeDegrees>16.923863</LongitudeDegrees>
            </Position>
            <AltitudeMeters>625.0</AltitudeMeters>
            <DistanceMeters>64734.481867637</DistanceMeters>
          </Trackpoint>
          <Trackpoint>
            <Position>
              <LatitudeDegrees>50.177025</LatitudeDegrees>
              <LongitudeDegrees>16.923897</LongitudeDegrees>
            </Position>
            <AltitudeMeters>625.0</AltitudeMeters>
            <DistanceMeters>64737.249087329</DistanceMeters>
          </Trackpoint>
          <Trackpoint>
            <Position>
              <LatitudeDegrees>50.177003</LatitudeDegrees>
              <LongitudeDegrees>16.923928</LongitudeDegrees>
            </Position>
            <AltitudeMeters>626.0</AltitudeMeters>
            <DistanceMeters>64740.54776011</DistanceMeters>
          </Trackpoint>
          <Trackpoint>
            <Position>
              <LatitudeDegrees>50.176992</LatitudeDegrees>
              <LongitudeDegrees>16.923963</LongitudeDegrees>
            </Position>
            <AltitudeMeters>626.0</AltitudeMeters>
            <DistanceMeters>64743.328002084</DistanceMeters>
          </Trackpoint>
          <Trackpoint>
            <Position>
              <LatitudeDegrees>50.176973</LatitudeDegrees>
              <LongitudeDegrees>16.924003</LongitudeDegrees>
            </Position>
            <AltitudeMeters>627.0</AltitudeMeters>
            <DistanceMeters>64746.878493137</DistanceMeters>
          </Trackpoint>
          <Trackpoint>
            <Position>
              <LatitudeDegrees>50.176963</LatitudeDegrees>
              <LongitudeDegrees>16.924048</LongitudeDegrees>
            </Position>
            <AltitudeMeters>627.0</AltitudeMeters>
            <DistanceMeters>64750.274285772</DistanceMeters>
          </Trackpoint>
          <Trackpoint>
            <Position>
              <LatitudeDegrees>50.176952</LatitudeDegrees>
              <LongitudeDegrees>16.924085</LongitudeDegrees>
            </Position>
            <AltitudeMeters>626.0</AltitudeMeters>
            <DistanceMeters>64753.181544197</DistanceMeters>
          </Trackpoint>
          <Trackpoint>
            <Position>
              <LatitudeDegrees>50.176937</LatitudeDegrees>
              <LongitudeDegrees>16.924118</LongitudeDegrees>
            </Position>
            <AltitudeMeters>626.0</AltitudeMeters>
            <DistanceMeters>64756.06697839</DistanceMeters>
          </Trackpoint>
          <Trackpoint>
            <Position>
              <LatitudeDegrees>50.176927</LatitudeDegrees>
              <LongitudeDegrees>16.924155</LongitudeDegrees>
            </Position>
            <AltitudeMeters>626.0</AltitudeMeters>
            <DistanceMeters>64758.928844797</DistanceMeters>
          </Trackpoint>
          <Trackpoint>
            <Position>
              <LatitudeDegrees>50.176918</LatitudeDegrees>
              <LongitudeDegrees>16.924188</LongitudeDegrees>
            </Position>
            <AltitudeMeters>626.0</AltitudeMeters>
            <DistanceMeters>64761.485752176</DistanceMeters>
          </Trackpoint>
          <Trackpoint>
            <Position>
              <LatitudeDegrees>50.176905</LatitudeDegrees>
              <LongitudeDegrees>16.924223</LongitudeDegrees>
            </Position>
            <AltitudeMeters>626.0</AltitudeMeters>
            <DistanceMeters>64764.371186369</DistanceMeters>
          </Trackpoint>
          <Trackpoint>
            <Position>
              <LatitudeDegrees>50.176895</LatitudeDegrees>
              <LongitudeDegrees>16.924253</LongitudeDegrees>
            </Position>
            <AltitudeMeters>626.0</AltitudeMeters>
            <DistanceMeters>64766.782694037</DistanceMeters>
          </Trackpoint>
          <Trackpoint>
            <Position>
              <LatitudeDegrees>50.176883</LatitudeDegrees>
              <LongitudeDegrees>16.924278</LongitudeDegrees>
            </Position>
            <AltitudeMeters>626.0</AltitudeMeters>
            <DistanceMeters>64769.009241132</DistanceMeters>
          </Trackpoint>
          <Trackpoint>
            <Position>
              <LatitudeDegrees>50.176873</LatitudeDegrees>
              <LongitudeDegrees>16.924325</LongitudeDegrees>
            </Position>
            <AltitudeMeters>626.0</AltitudeMeters>
            <DistanceMeters>64772.538047646</DistanceMeters>
          </Trackpoint>
          <Trackpoint>
            <Position>
              <LatitudeDegrees>50.176865</LatitudeDegrees>
              <LongitudeDegrees>16.92437</LongitudeDegrees>
            </Position>
            <AltitudeMeters>626.0</AltitudeMeters>
            <DistanceMeters>64775.866696591</DistanceMeters>
          </Trackpoint>
          <Trackpoint>
            <Position>
              <LatitudeDegrees>50.176862</LatitudeDegrees>
              <LongitudeDegrees>16.9244</LongitudeDegrees>
            </Position>
            <AltitudeMeters>625.0</AltitudeMeters>
            <DistanceMeters>64778.03363908</DistanceMeters>
          </Trackpoint>
          <Trackpoint>
            <Position>
              <LatitudeDegrees>50.176847</LatitudeDegrees>
              <LongitudeDegrees>16.924445</LongitudeDegrees>
            </Position>
            <AltitudeMeters>625.0</AltitudeMeters>
            <DistanceMeters>64781.649652173</DistanceMeters>
          </Trackpoint>
          <Trackpoint>
            <Position>
              <LatitudeDegrees>50.176832</LatitudeDegrees>
              <LongitudeDegrees>16.924492</LongitudeDegrees>
            </Position>
            <AltitudeMeters>625.0</AltitudeMeters>
            <DistanceMeters>64785.393270562</DistanceMeters>
          </Trackpoint>
          <Trackpoint>
            <Position>
              <LatitudeDegrees>50.176812</LatitudeDegrees>
              <LongitudeDegrees>16.924535</LongitudeDegrees>
            </Position>
            <AltitudeMeters>625.0</AltitudeMeters>
            <DistanceMeters>64789.18244218</DistanceMeters>
          </Trackpoint>
          <Trackpoint>
            <Position>
              <LatitudeDegrees>50.176802</LatitudeDegrees>
              <LongitudeDegrees>16.92456</LongitudeDegrees>
            </Position>
            <AltitudeMeters>625.0</AltitudeMeters>
            <DistanceMeters>64791.281650913</DistanceMeters>
          </Trackpoint>
          <Trackpoint>
            <Position>
              <LatitudeDegrees>50.176785</LatitudeDegrees>
              <LongitudeDegrees>16.924605</LongitudeDegrees>
            </Position>
            <AltitudeMeters>625.0</AltitudeMeters>
            <DistanceMeters>64795.005922307</DistanceMeters>
          </Trackpoint>
          <Trackpoint>
            <Position>
              <LatitudeDegrees>50.176767</LatitudeDegrees>
              <LongitudeDegrees>16.92464</LongitudeDegrees>
            </Position>
            <AltitudeMeters>625.0</AltitudeMeters>
            <DistanceMeters>64798.205938977</DistanceMeters>
          </Trackpoint>
          <Trackpoint>
            <Position>
              <LatitudeDegrees>50.17675</LatitudeDegrees>
              <LongitudeDegrees>16.924678</LongitudeDegrees>
            </Position>
            <AltitudeMeters>625.0</AltitudeMeters>
            <DistanceMeters>64801.510082197</DistanceMeters>
          </Trackpoint>
          <Trackpoint>
            <Position>
              <LatitudeDegrees>50.17673</LatitudeDegrees>
              <LongitudeDegrees>16.924718</LongitudeDegrees>
            </Position>
            <AltitudeMeters>625.0</AltitudeMeters>
            <DistanceMeters>64805.128591675</DistanceMeters>
          </Trackpoint>
          <Trackpoint>
            <Position>
              <LatitudeDegrees>50.176715</LatitudeDegrees>
              <LongitudeDegrees>16.924755</LongitudeDegrees>
            </Position>
            <AltitudeMeters>625.0</AltitudeMeters>
            <DistanceMeters>64808.250042057</DistanceMeters>
          </Trackpoint>
          <Trackpoint>
            <Position>
              <LatitudeDegrees>50.176705</LatitudeDegrees>
              <LongitudeDegrees>16.924795</LongitudeDegrees>
            </Position>
            <AltitudeMeters>624.0</AltitudeMeters>
            <DistanceMeters>64811.311613442</DistanceMeters>
          </Trackpoint>
          <Trackpoint>
            <Position>
              <LatitudeDegrees>50.176692</LatitudeDegrees>
              <LongitudeDegrees>16.924847</LongitudeDegrees>
            </Position>
            <AltitudeMeters>624.0</AltitudeMeters>
            <DistanceMeters>64815.290272011</DistanceMeters>
          </Trackpoint>
          <Trackpoint>
            <Position>
              <LatitudeDegrees>50.176685</LatitudeDegrees>
              <LongitudeDegrees>16.924873</LongitudeDegrees>
            </Position>
            <AltitudeMeters>624.0</AltitudeMeters>
            <DistanceMeters>64817.301608444</DistanceMeters>
          </Trackpoint>
          <Trackpoint>
            <Position>
              <LatitudeDegrees>50.176675</LatitudeDegrees>
              <LongitudeDegrees>16.924923</LongitudeDegrees>
            </Position>
            <AltitudeMeters>624.0</AltitudeMeters>
            <DistanceMeters>64821.035565866</DistanceMeters>
          </Trackpoint>
          <Trackpoint>
            <Position>
              <LatitudeDegrees>50.176665</LatitudeDegrees>
              <LongitudeDegrees>16.924977</LongitudeDegrees>
            </Position>
            <AltitudeMeters>624.0</AltitudeMeters>
            <DistanceMeters>64825.042494355</DistanceMeters>
          </Trackpoint>
          <Trackpoint>
            <Position>
              <LatitudeDegrees>50.176637</LatitudeDegrees>
              <LongitudeDegrees>16.925135</LongitudeDegrees>
            </Position>
            <AltitudeMeters>623.0</AltitudeMeters>
            <DistanceMeters>64836.728075898</DistanceMeters>
          </Trackpoint>
          <Trackpoint>
            <Position>
              <LatitudeDegrees>50.176627</LatitudeDegrees>
              <LongitudeDegrees>16.92529</LongitudeDegrees>
            </Position>
            <AltitudeMeters>623.0</AltitudeMeters>
            <DistanceMeters>64847.831978985</DistanceMeters>
          </Trackpoint>
          <Trackpoint>
            <Position>
              <LatitudeDegrees>50.176615</LatitudeDegrees>
              <LongitudeDegrees>16.92543</LongitudeDegrees>
            </Position>
            <AltitudeMeters>622.0</AltitudeMeters>
            <DistanceMeters>64857.900327318</DistanceMeters>
          </Trackpoint>
          <Trackpoint>
            <Position>
              <LatitudeDegrees>50.176597</LatitudeDegrees>
              <LongitudeDegrees>16.92558</LongitudeDegrees>
            </Position>
            <AltitudeMeters>622.0</AltitudeMeters>
            <DistanceMeters>64868.778707335</DistanceMeters>
          </Trackpoint>
          <Trackpoint>
            <Position>
              <LatitudeDegrees>50.176563</LatitudeDegrees>
              <LongitudeDegrees>16.925715</LongitudeDegrees>
            </Position>
            <AltitudeMeters>622.0</AltitudeMeters>
            <DistanceMeters>64879.118731759</DistanceMeters>
          </Trackpoint>
          <Trackpoint>
            <Position>
              <LatitudeDegrees>50.176552</LatitudeDegrees>
              <LongitudeDegrees>16.925865</LongitudeDegrees>
            </Position>
            <AltitudeMeters>621.0</AltitudeMeters>
            <DistanceMeters>64889.880690711</DistanceMeters>
          </Trackpoint>
          <Trackpoint>
            <Position>
              <LatitudeDegrees>50.176538</LatitudeDegrees>
              <LongitudeDegrees>16.925918</LongitudeDegrees>
            </Position>
            <AltitudeMeters>618.0</AltitudeMeters>
            <DistanceMeters>64893.967944241</DistanceMeters>
          </Trackpoint>
          <Trackpoint>
            <Position>
              <LatitudeDegrees>50.176532</LatitudeDegrees>
              <LongitudeDegrees>16.92596</LongitudeDegrees>
            </Position>
            <AltitudeMeters>617.0</AltitudeMeters>
            <DistanceMeters>64897.035408936</DistanceMeters>
          </Trackpoint>
          <Trackpoint>
            <Position>
              <LatitudeDegrees>50.176522</LatitudeDegrees>
              <LongitudeDegrees>16.926005</LongitudeDegrees>
            </Position>
            <AltitudeMeters>616.0</AltitudeMeters>
            <DistanceMeters>64900.431201571</DistanceMeters>
          </Trackpoint>
          <Trackpoint>
            <Position>
              <LatitudeDegrees>50.176513</LatitudeDegrees>
              <LongitudeDegrees>16.92605</LongitudeDegrees>
            </Position>
            <AltitudeMeters>616.0</AltitudeMeters>
            <DistanceMeters>64903.792246889</DistanceMeters>
          </Trackpoint>
          <Trackpoint>
            <Position>
              <LatitudeDegrees>50.176505</LatitudeDegrees>
              <LongitudeDegrees>16.926097</LongitudeDegrees>
            </Position>
            <AltitudeMeters>615.0</AltitudeMeters>
            <DistanceMeters>64907.25779182</DistanceMeters>
          </Trackpoint>
          <Trackpoint>
            <Position>
              <LatitudeDegrees>50.176495</LatitudeDegrees>
              <LongitudeDegrees>16.926145</LongitudeDegrees>
            </Position>
            <AltitudeMeters>615.0</AltitudeMeters>
            <DistanceMeters>64910.855026806</DistanceMeters>
          </Trackpoint>
          <Trackpoint>
            <Position>
              <LatitudeDegrees>50.176485</LatitudeDegrees>
              <LongitudeDegrees>16.926187</LongitudeDegrees>
            </Position>
            <AltitudeMeters>615.0</AltitudeMeters>
            <DistanceMeters>64914.047980972</DistanceMeters>
          </Trackpoint>
          <Trackpoint>
            <Position>
              <LatitudeDegrees>50.176473</LatitudeDegrees>
              <LongitudeDegrees>16.926232</LongitudeDegrees>
            </Position>
            <AltitudeMeters>615.0</AltitudeMeters>
            <DistanceMeters>64917.523932969</DistanceMeters>
          </Trackpoint>
          <Trackpoint>
            <Position>
              <LatitudeDegrees>50.176462</LatitudeDegrees>
              <LongitudeDegrees>16.926277</LongitudeDegrees>
            </Position>
            <AltitudeMeters>614.0</AltitudeMeters>
            <DistanceMeters>64920.958067479</DistanceMeters>
          </Trackpoint>
          <Trackpoint>
            <Position>
              <LatitudeDegrees>50.176448</LatitudeDegrees>
              <LongitudeDegrees>16.926322</LongitudeDegrees>
            </Position>
            <AltitudeMeters>614.0</AltitudeMeters>
            <DistanceMeters>64924.523785869</DistanceMeters>
          </Trackpoint>
          <Trackpoint>
            <Position>
              <LatitudeDegrees>50.176438</LatitudeDegrees>
              <LongitudeDegrees>16.926363</LongitudeDegrees>
            </Position>
            <AltitudeMeters>614.0</AltitudeMeters>
            <DistanceMeters>64927.651016719</DistanceMeters>
          </Trackpoint>
          <Trackpoint>
            <Position>
              <LatitudeDegrees>50.176427</LatitudeDegrees>
              <LongitudeDegrees>16.926408</LongitudeDegrees>
            </Position>
            <AltitudeMeters>613.0</AltitudeMeters>
            <DistanceMeters>64931.085151229</DistanceMeters>
          </Trackpoint>
          <Trackpoint>
            <Position>
              <LatitudeDegrees>50.176413</LatitudeDegrees>
              <LongitudeDegrees>16.926452</LongitudeDegrees>
            </Position>
            <AltitudeMeters>613.0</AltitudeMeters>
            <DistanceMeters>64934.586985578</DistanceMeters>
          </Trackpoint>
          <Trackpoint>
            <Position>
              <LatitudeDegrees>50.176398</LatitudeDegrees>
              <LongitudeDegrees>16.926495</LongitudeDegrees>
            </Position>
            <AltitudeMeters>613.0</AltitudeMeters>
            <DistanceMeters>64938.075902752</DistanceMeters>
          </Trackpoint>
          <Trackpoint>
            <Position>
              <LatitudeDegrees>50.176383</LatitudeDegrees>
              <LongitudeDegrees>16.92654</LongitudeDegrees>
            </Position>
            <AltitudeMeters>613.0</AltitudeMeters>
            <DistanceMeters>64941.690667007</DistanceMeters>
          </Trackpoint>
          <Trackpoint>
            <Position>
              <LatitudeDegrees>50.176372</LatitudeDegrees>
              <LongitudeDegrees>16.926587</LongitudeDegrees>
            </Position>
            <AltitudeMeters>613.0</AltitudeMeters>
            <DistanceMeters>64945.256385396</DistanceMeters>
          </Trackpoint>
          <Trackpoint>
            <Position>
              <LatitudeDegrees>50.176358</LatitudeDegrees>
              <LongitudeDegrees>16.926632</LongitudeDegrees>
            </Position>
            <AltitudeMeters>613.0</AltitudeMeters>
            <DistanceMeters>64948.820837325</DistanceMeters>
          </Trackpoint>
          <Trackpoint>
            <Position>
              <LatitudeDegrees>50.176347</LatitudeDegrees>
              <LongitudeDegrees>16.92668</LongitudeDegrees>
            </Position>
            <AltitudeMeters>613.0</AltitudeMeters>
            <DistanceMeters>64952.454289095</DistanceMeters>
          </Trackpoint>
          <Trackpoint>
            <Position>
              <LatitudeDegrees>50.176335</LatitudeDegrees>
              <LongitudeDegrees>16.926727</LongitudeDegrees>
            </Position>
            <AltitudeMeters>613.0</AltitudeMeters>
            <DistanceMeters>64956.060299367</DistanceMeters>
          </Trackpoint>
          <Trackpoint>
            <Position>
              <LatitudeDegrees>50.176327</LatitudeDegrees>
              <LongitudeDegrees>16.926772</LongitudeDegrees>
            </Position>
            <AltitudeMeters>613.0</AltitudeMeters>
            <DistanceMeters>64959.390304453</DistanceMeters>
          </Trackpoint>
          <Trackpoint>
            <Position>
              <LatitudeDegrees>50.17632</LatitudeDegrees>
              <LongitudeDegrees>16.926798</LongitudeDegrees>
            </Position>
            <AltitudeMeters>613.0</AltitudeMeters>
            <DistanceMeters>64961.401640886</DistanceMeters>
          </Trackpoint>
          <Trackpoint>
            <Position>
              <LatitudeDegrees>50.176312</LatitudeDegrees>
              <LongitudeDegrees>16.926827</LongitudeDegrees>
            </Position>
            <AltitudeMeters>613.0</AltitudeMeters>
            <DistanceMeters>64963.654395413</DistanceMeters>
          </Trackpoint>
          <Trackpoint>
            <Position>
              <LatitudeDegrees>50.176302</LatitudeDegrees>
              <LongitudeDegrees>16.926857</LongitudeDegrees>
            </Position>
            <AltitudeMeters>613.0</AltitudeMeters>
            <DistanceMeters>64966.065903081</DistanceMeters>
          </Trackpoint>
          <Trackpoint>
            <Position>
              <LatitudeDegrees>50.176292</LatitudeDegrees>
              <LongitudeDegrees>16.92689</LongitudeDegrees>
            </Position>
            <AltitudeMeters>613.0</AltitudeMeters>
            <DistanceMeters>64968.668316832</DistanceMeters>
          </Trackpoint>
          <Trackpoint>
            <Position>
              <LatitudeDegrees>50.176257</LatitudeDegrees>
              <LongitudeDegrees>16.92702</LongitudeDegrees>
            </Position>
            <AltitudeMeters>613.0</AltitudeMeters>
            <DistanceMeters>64978.720508404</DistanceMeters>
          </Trackpoint>
          <Trackpoint>
            <Position>
              <LatitudeDegrees>50.176193</LatitudeDegrees>
              <LongitudeDegrees>16.927142</LongitudeDegrees>
            </Position>
            <AltitudeMeters>613.0</AltitudeMeters>
            <DistanceMeters>64989.961811254</DistanceMeters>
          </Trackpoint>
          <Trackpoint>
            <Position>
              <LatitudeDegrees>50.176168</LatitudeDegrees>
              <LongitudeDegrees>16.927227</LongitudeDegrees>
            </Position>
            <AltitudeMeters>613.0</AltitudeMeters>
            <DistanceMeters>64996.629274515</DistanceMeters>
          </Trackpoint>
          <Trackpoint>
            <Position>
              <LatitudeDegrees>50.17616</LatitudeDegrees>
              <LongitudeDegrees>16.927265</LongitudeDegrees>
            </Position>
            <AltitudeMeters>613.0</AltitudeMeters>
            <DistanceMeters>64999.480075946</DistanceMeters>
          </Trackpoint>
          <Trackpoint>
            <Position>
              <LatitudeDegrees>50.176157</LatitudeDegrees>
              <LongitudeDegrees>16.927297</LongitudeDegrees>
            </Position>
            <AltitudeMeters>612.0</AltitudeMeters>
            <DistanceMeters>65001.784351309</DistanceMeters>
          </Trackpoint>
          <Trackpoint>
            <Position>
              <LatitudeDegrees>50.176145</LatitudeDegrees>
              <LongitudeDegrees>16.927342</LongitudeDegrees>
            </Position>
            <AltitudeMeters>612.0</AltitudeMeters>
            <DistanceMeters>65005.260303305</DistanceMeters>
          </Trackpoint>
          <Trackpoint>
            <Position>
              <LatitudeDegrees>50.176128</LatitudeDegrees>
              <LongitudeDegrees>16.92738</LongitudeDegrees>
            </Position>
            <AltitudeMeters>613.0</AltitudeMeters>
            <DistanceMeters>65008.564446526</DistanceMeters>
          </Trackpoint>
          <Trackpoint>
            <Position>
              <LatitudeDegrees>50.176115</LatitudeDegrees>
              <LongitudeDegrees>16.9274</LongitudeDegrees>
            </Position>
            <AltitudeMeters>613.0</AltitudeMeters>
            <DistanceMeters>65010.593661857</DistanceMeters>
          </Trackpoint>
          <Trackpoint>
            <Position>
              <LatitudeDegrees>50.176095</LatitudeDegrees>
              <LongitudeDegrees>16.92744</LongitudeDegrees>
            </Position>
            <AltitudeMeters>613.0</AltitudeMeters>
            <DistanceMeters>65014.210923358</DistanceMeters>
          </Trackpoint>
          <Trackpoint>
            <Position>
              <LatitudeDegrees>50.176075</LatitudeDegrees>
              <LongitudeDegrees>16.927473</LongitudeDegrees>
            </Position>
            <AltitudeMeters>613.0</AltitudeMeters>
            <DistanceMeters>65017.450205505</DistanceMeters>
          </Trackpoint>
          <Trackpoint>
            <Position>
              <LatitudeDegrees>50.176057</LatitudeDegrees>
              <LongitudeDegrees>16.927512</LongitudeDegrees>
            </Position>
            <AltitudeMeters>613.0</AltitudeMeters>
            <DistanceMeters>65020.876442417</DistanceMeters>
          </Trackpoint>
          <Trackpoint>
            <Position>
              <LatitudeDegrees>50.176043</LatitudeDegrees>
              <LongitudeDegrees>16.927542</LongitudeDegrees>
            </Position>
            <AltitudeMeters>612.0</AltitudeMeters>
            <DistanceMeters>65023.523580366</DistanceMeters>
          </Trackpoint>
          <Trackpoint>
            <Position>
              <LatitudeDegrees>50.176032</LatitudeDegrees>
              <LongitudeDegrees>16.927582</LongitudeDegrees>
            </Position>
            <AltitudeMeters>612.0</AltitudeMeters>
            <DistanceMeters>65026.626169847</DistanceMeters>
          </Trackpoint>
          <Trackpoint>
            <Position>
              <LatitudeDegrees>50.17602</LatitudeDegrees>
              <LongitudeDegrees>16.927623</LongitudeDegrees>
            </Position>
            <AltitudeMeters>612.0</AltitudeMeters>
            <DistanceMeters>65029.840264969</DistanceMeters>
          </Trackpoint>
          <Trackpoint>
            <Position>
              <LatitudeDegrees>50.176005</LatitudeDegrees>
              <LongitudeDegrees>16.927662</LongitudeDegrees>
            </Position>
            <AltitudeMeters>613.0</AltitudeMeters>
            <DistanceMeters>65033.082333595</DistanceMeters>
          </Trackpoint>
          <Trackpoint>
            <Position>
              <LatitudeDegrees>50.175988</LatitudeDegrees>
              <LongitudeDegrees>16.927702</LongitudeDegrees>
            </Position>
            <AltitudeMeters>613.0</AltitudeMeters>
            <DistanceMeters>65036.504614874</DistanceMeters>
          </Trackpoint>
          <Trackpoint>
            <Position>
              <LatitudeDegrees>50.175972</LatitudeDegrees>
              <LongitudeDegrees>16.92775</LongitudeDegrees>
            </Position>
            <AltitudeMeters>613.0</AltitudeMeters>
            <DistanceMeters>65040.362278153</DistanceMeters>
          </Trackpoint>
          <Trackpoint>
            <Position>
              <LatitudeDegrees>50.175957</LatitudeDegrees>
              <LongitudeDegrees>16.927795</LongitudeDegrees>
            </Position>
            <AltitudeMeters>613.0</AltitudeMeters>
            <DistanceMeters>65043.978291247</DistanceMeters>
          </Trackpoint>
          <Trackpoint>
            <Position>
              <LatitudeDegrees>50.175943</LatitudeDegrees>
              <LongitudeDegrees>16.92784</LongitudeDegrees>
            </Position>
            <AltitudeMeters>612.0</AltitudeMeters>
            <DistanceMeters>65047.544009636</DistanceMeters>
          </Trackpoint>
          <Trackpoint>
            <Position>
              <LatitudeDegrees>50.17593</LatitudeDegrees>
              <LongitudeDegrees>16.927883</LongitudeDegrees>
            </Position>
            <AltitudeMeters>613.0</AltitudeMeters>
            <DistanceMeters>65050.933147762</DistanceMeters>
          </Trackpoint>
          <Trackpoint>
            <Position>
              <LatitudeDegrees>50.17592</LatitudeDegrees>
              <LongitudeDegrees>16.927923</LongitudeDegrees>
            </Position>
            <AltitudeMeters>613.0</AltitudeMeters>
            <DistanceMeters>65053.994719148</DistanceMeters>
          </Trackpoint>
          <Trackpoint>
            <Position>
              <LatitudeDegrees>50.175908</LatitudeDegrees>
              <LongitudeDegrees>16.927972</LongitudeDegrees>
            </Position>
            <AltitudeMeters>613.0</AltitudeMeters>
            <DistanceMeters>65057.733510174</DistanceMeters>
          </Trackpoint>
          <Trackpoint>
            <Position>
              <LatitudeDegrees>50.17586</LatitudeDegrees>
              <LongitudeDegrees>16.928097</LongitudeDegrees>
            </Position>
            <AltitudeMeters>612.0</AltitudeMeters>
            <DistanceMeters>65068.122325008</DistanceMeters>
          </Trackpoint>
          <Trackpoint>
            <Position>
              <LatitudeDegrees>50.17581</LatitudeDegrees>
              <LongitudeDegrees>16.928232</LongitudeDegrees>
            </Position>
            <AltitudeMeters>612.0</AltitudeMeters>
            <DistanceMeters>65079.238419918</DistanceMeters>
          </Trackpoint>
          <Trackpoint>
            <Position>
              <LatitudeDegrees>50.175763</LatitudeDegrees>
              <LongitudeDegrees>16.928373</LongitudeDegrees>
            </Position>
            <AltitudeMeters>613.0</AltitudeMeters>
            <DistanceMeters>65090.568537602</DistanceMeters>
          </Trackpoint>
          <Trackpoint>
            <Position>
              <LatitudeDegrees>50.175753</LatitudeDegrees>
              <LongitudeDegrees>16.92842</LongitudeDegrees>
            </Position>
            <AltitudeMeters>613.0</AltitudeMeters>
            <DistanceMeters>65094.098623365</DistanceMeters>
          </Trackpoint>
          <Trackpoint>
            <Position>
              <LatitudeDegrees>50.175738</LatitudeDegrees>
              <LongitudeDegrees>16.92846</LongitudeDegrees>
            </Position>
            <AltitudeMeters>613.0</AltitudeMeters>
            <DistanceMeters>65097.402766585</DistanceMeters>
          </Trackpoint>
          <Trackpoint>
            <Position>
              <LatitudeDegrees>50.175718</LatitudeDegrees>
              <LongitudeDegrees>16.928497</LongitudeDegrees>
            </Position>
            <AltitudeMeters>613.0</AltitudeMeters>
            <DistanceMeters>65100.85525857</DistanceMeters>
          </Trackpoint>
          <Trackpoint>
            <Position>
              <LatitudeDegrees>50.1757</LatitudeDegrees>
              <LongitudeDegrees>16.92854</LongitudeDegrees>
            </Position>
            <AltitudeMeters>613.0</AltitudeMeters>
            <DistanceMeters>65104.517179312</DistanceMeters>
          </Trackpoint>
          <Trackpoint>
            <Position>
              <LatitudeDegrees>50.175683</LatitudeDegrees>
              <LongitudeDegrees>16.92857</LongitudeDegrees>
            </Position>
            <AltitudeMeters>613.0</AltitudeMeters>
            <DistanceMeters>65107.374308834</DistanceMeters>
          </Trackpoint>
          <Trackpoint>
            <Position>
              <LatitudeDegrees>50.175668</LatitudeDegrees>
              <LongitudeDegrees>16.928608</LongitudeDegrees>
            </Position>
            <AltitudeMeters>613.0</AltitudeMeters>
            <DistanceMeters>65110.555930385</DistanceMeters>
          </Trackpoint>
          <Trackpoint>
            <Position>
              <LatitudeDegrees>50.175652</LatitudeDegrees>
              <LongitudeDegrees>16.92865</LongitudeDegrees>
            </Position>
            <AltitudeMeters>613.0</AltitudeMeters>
            <DistanceMeters>65114.039667278</DistanceMeters>
          </Trackpoint>
          <Trackpoint>
            <Position>
              <LatitudeDegrees>50.175633</LatitudeDegrees>
              <LongitudeDegrees>16.928687</LongitudeDegrees>
            </Position>
            <AltitudeMeters>613.0</AltitudeMeters>
            <DistanceMeters>65117.420802705</DistanceMeters>
          </Trackpoint>
          <Trackpoint>
            <Position>
              <LatitudeDegrees>50.175617</LatitudeDegrees>
              <LongitudeDegrees>16.928727</LongitudeDegrees>
            </Position>
            <AltitudeMeters>613.0</AltitudeMeters>
            <DistanceMeters>65120.783191099</DistanceMeters>
          </Trackpoint>
          <Trackpoint>
            <Position>
              <LatitudeDegrees>50.1756</LatitudeDegrees>
              <LongitudeDegrees>16.928765</LongitudeDegrees>
            </Position>
            <AltitudeMeters>613.0</AltitudeMeters>
            <DistanceMeters>65124.087334319</DistanceMeters>
          </Trackpoint>
          <Trackpoint>
            <Position>
              <LatitudeDegrees>50.175583</LatitudeDegrees>
              <LongitudeDegrees>16.92881</LongitudeDegrees>
            </Position>
            <AltitudeMeters>613.0</AltitudeMeters>
            <DistanceMeters>65127.811605713</DistanceMeters>
          </Trackpoint>
          <Trackpoint>
            <Position>
              <LatitudeDegrees>50.175568</LatitudeDegrees>
              <LongitudeDegrees>16.928857</LongitudeDegrees>
            </Position>
            <AltitudeMeters>613.0</AltitudeMeters>
            <DistanceMeters>65131.555224102</DistanceMeters>
          </Trackpoint>
          <Trackpoint>
            <Position>
              <LatitudeDegrees>50.175553</LatitudeDegrees>
              <LongitudeDegrees>16.928902</LongitudeDegrees>
            </Position>
            <AltitudeMeters>613.0</AltitudeMeters>
            <DistanceMeters>65135.171237195</DistanceMeters>
          </Trackpoint>
          <Trackpoint>
            <Position>
              <LatitudeDegrees>50.175537</LatitudeDegrees>
              <LongitudeDegrees>16.928945</LongitudeDegrees>
            </Position>
            <AltitudeMeters>613.0</AltitudeMeters>
            <DistanceMeters>65138.715364215</DistanceMeters>
          </Trackpoint>
          <Trackpoint>
            <Position>
              <LatitudeDegrees>50.175518</LatitudeDegrees>
              <LongitudeDegrees>16.928985</LongitudeDegrees>
            </Position>
            <AltitudeMeters>613.0</AltitudeMeters>
            <DistanceMeters>65142.265855268</DistanceMeters>
          </Trackpoint>
          <Trackpoint>
            <Position>
              <LatitudeDegrees>50.175502</LatitudeDegrees>
              <LongitudeDegrees>16.929025</LongitudeDegrees>
            </Position>
            <AltitudeMeters>613.0</AltitudeMeters>
            <DistanceMeters>65145.628243661</DistanceMeters>
          </Trackpoint>
          <Trackpoint>
            <Position>
              <LatitudeDegrees>50.175482</LatitudeDegrees>
              <LongitudeDegrees>16.929063</LongitudeDegrees>
            </Position>
            <AltitudeMeters>613.0</AltitudeMeters>
            <DistanceMeters>65149.135231559</DistanceMeters>
          </Trackpoint>
          <Trackpoint>
            <Position>
              <LatitudeDegrees>50.175463</LatitudeDegrees>
              <LongitudeDegrees>16.929102</LongitudeDegrees>
            </Position>
            <AltitudeMeters>613.0</AltitudeMeters>
            <DistanceMeters>65152.629321334</DistanceMeters>
          </Trackpoint>
          <Trackpoint>
            <Position>
              <LatitudeDegrees>50.175443</LatitudeDegrees>
              <LongitudeDegrees>16.929137</LongitudeDegrees>
            </Position>
            <AltitudeMeters>613.0</AltitudeMeters>
            <DistanceMeters>65155.972857581</DistanceMeters>
          </Trackpoint>
          <Trackpoint>
            <Position>
              <LatitudeDegrees>50.175427</LatitudeDegrees>
              <LongitudeDegrees>16.929172</LongitudeDegrees>
            </Position>
            <AltitudeMeters>613.0</AltitudeMeters>
            <DistanceMeters>65159.037377038</DistanceMeters>
          </Trackpoint>
          <Trackpoint>
            <Position>
              <LatitudeDegrees>50.175407</LatitudeDegrees>
              <LongitudeDegrees>16.929205</LongitudeDegrees>
            </Position>
            <AltitudeMeters>613.0</AltitudeMeters>
            <DistanceMeters>65162.276659185</DistanceMeters>
          </Trackpoint>
          <Trackpoint>
            <Position>
              <LatitudeDegrees>50.175383</LatitudeDegrees>
              <LongitudeDegrees>16.929237</LongitudeDegrees>
            </Position>
            <AltitudeMeters>613.0</AltitudeMeters>
            <DistanceMeters>65165.78879307</DistanceMeters>
          </Trackpoint>
          <Trackpoint>
            <Position>
              <LatitudeDegrees>50.175363</LatitudeDegrees>
              <LongitudeDegrees>16.92927</LongitudeDegrees>
            </Position>
            <AltitudeMeters>613.0</AltitudeMeters>
            <DistanceMeters>65169.026681078</DistanceMeters>
          </Trackpoint>
          <Trackpoint>
            <Position>
              <LatitudeDegrees>50.175342</LatitudeDegrees>
              <LongitudeDegrees>16.929305</LongitudeDegrees>
            </Position>
            <AltitudeMeters>613.0</AltitudeMeters>
            <DistanceMeters>65172.445002145</DistanceMeters>
          </Trackpoint>
          <Trackpoint>
            <Position>
              <LatitudeDegrees>50.175322</LatitudeDegrees>
              <LongitudeDegrees>16.92934</LongitudeDegrees>
            </Position>
            <AltitudeMeters>613.0</AltitudeMeters>
            <DistanceMeters>65175.788538392</DistanceMeters>
          </Trackpoint>
          <Trackpoint>
            <Position>
              <LatitudeDegrees>50.175302</LatitudeDegrees>
              <LongitudeDegrees>16.929375</LongitudeDegrees>
            </Position>
            <AltitudeMeters>613.0</AltitudeMeters>
            <DistanceMeters>65179.132074639</DistanceMeters>
          </Trackpoint>
          <Trackpoint>
            <Position>
              <LatitudeDegrees>50.175282</LatitudeDegrees>
              <LongitudeDegrees>16.929408</LongitudeDegrees>
            </Position>
            <AltitudeMeters>613.0</AltitudeMeters>
            <DistanceMeters>65182.371356786</DistanceMeters>
          </Trackpoint>
          <Trackpoint>
            <Position>
              <LatitudeDegrees>50.175262</LatitudeDegrees>
              <LongitudeDegrees>16.929445</LongitudeDegrees>
            </Position>
            <AltitudeMeters>613.0</AltitudeMeters>
            <DistanceMeters>65185.823848771</DistanceMeters>
          </Trackpoint>
          <Trackpoint>
            <Position>
              <LatitudeDegrees>50.175242</LatitudeDegrees>
              <LongitudeDegrees>16.929482</LongitudeDegrees>
            </Position>
            <AltitudeMeters>614.0</AltitudeMeters>
            <DistanceMeters>65189.273724241</DistanceMeters>
          </Trackpoint>
          <Trackpoint>
            <Position>
              <LatitudeDegrees>50.175222</LatitudeDegrees>
              <LongitudeDegrees>16.929517</LongitudeDegrees>
            </Position>
            <AltitudeMeters>614.0</AltitudeMeters>
            <DistanceMeters>65192.617260488</DistanceMeters>
          </Trackpoint>
          <Trackpoint>
            <Position>
              <LatitudeDegrees>50.175202</LatitudeDegrees>
              <LongitudeDegrees>16.929553</LongitudeDegrees>
            </Position>
            <AltitudeMeters>614.0</AltitudeMeters>
            <DistanceMeters>65196.01438246</DistanceMeters>
          </Trackpoint>
          <Trackpoint>
            <Position>
              <LatitudeDegrees>50.175182</LatitudeDegrees>
              <LongitudeDegrees>16.929592</LongitudeDegrees>
            </Position>
            <AltitudeMeters>614.0</AltitudeMeters>
            <DistanceMeters>65199.576300119</DistanceMeters>
          </Trackpoint>
          <Trackpoint>
            <Position>
              <LatitudeDegrees>50.17516</LatitudeDegrees>
              <LongitudeDegrees>16.92963</LongitudeDegrees>
            </Position>
            <AltitudeMeters>614.0</AltitudeMeters>
            <DistanceMeters>65203.227107267</DistanceMeters>
          </Trackpoint>
          <Trackpoint>
            <Position>
              <LatitudeDegrees>50.175137</LatitudeDegrees>
              <LongitudeDegrees>16.929665</LongitudeDegrees>
            </Position>
            <AltitudeMeters>614.0</AltitudeMeters>
            <DistanceMeters>65206.801678313</DistanceMeters>
          </Trackpoint>
          <Trackpoint>
            <Position>
              <LatitudeDegrees>50.175115</LatitudeDegrees>
              <LongitudeDegrees>16.929698</LongitudeDegrees>
            </Position>
            <AltitudeMeters>614.0</AltitudeMeters>
            <DistanceMeters>65210.198800286</DistanceMeters>
          </Trackpoint>
          <Trackpoint>
            <Position>
              <LatitudeDegrees>50.175092</LatitudeDegrees>
              <LongitudeDegrees>16.92973</LongitudeDegrees>
            </Position>
            <AltitudeMeters>614.0</AltitudeMeters>
            <DistanceMeters>65213.627671752</DistanceMeters>
          </Trackpoint>
          <Trackpoint>
            <Position>
              <LatitudeDegrees>50.175072</LatitudeDegrees>
              <LongitudeDegrees>16.929765</LongitudeDegrees>
            </Position>
            <AltitudeMeters>614.0</AltitudeMeters>
            <DistanceMeters>65216.971207999</DistanceMeters>
          </Trackpoint>
          <Trackpoint>
            <Position>
              <LatitudeDegrees>50.175052</LatitudeDegrees>
              <LongitudeDegrees>16.9298</LongitudeDegrees>
            </Position>
            <AltitudeMeters>614.0</AltitudeMeters>
            <DistanceMeters>65220.314744246</DistanceMeters>
          </Trackpoint>
          <Trackpoint>
            <Position>
              <LatitudeDegrees>50.17503</LatitudeDegrees>
              <LongitudeDegrees>16.929832</LongitudeDegrees>
            </Position>
            <AltitudeMeters>614.0</AltitudeMeters>
            <DistanceMeters>65223.66098016</DistanceMeters>
          </Trackpoint>
          <Trackpoint>
            <Position>
              <LatitudeDegrees>50.175007</LatitudeDegrees>
              <LongitudeDegrees>16.929867</LongitudeDegrees>
            </Position>
            <AltitudeMeters>613.0</AltitudeMeters>
            <DistanceMeters>65227.234287884</DistanceMeters>
          </Trackpoint>
          <Trackpoint>
            <Position>
              <LatitudeDegrees>50.174983</LatitudeDegrees>
              <LongitudeDegrees>16.9299</LongitudeDegrees>
            </Position>
            <AltitudeMeters>613.0</AltitudeMeters>
            <DistanceMeters>65230.792400751</DistanceMeters>
          </Trackpoint>
          <Trackpoint>
            <Position>
              <LatitudeDegrees>50.17496</LatitudeDegrees>
              <LongitudeDegrees>16.92993</LongitudeDegrees>
            </Position>
            <AltitudeMeters>613.0</AltitudeMeters>
            <DistanceMeters>65234.129178277</DistanceMeters>
          </Trackpoint>
          <Trackpoint>
            <Position>
              <LatitudeDegrees>50.174938</LatitudeDegrees>
              <LongitudeDegrees>16.92996</LongitudeDegrees>
            </Position>
            <AltitudeMeters>613.0</AltitudeMeters>
            <DistanceMeters>65237.379592011</DistanceMeters>
          </Trackpoint>
          <Trackpoint>
            <Position>
              <LatitudeDegrees>50.174915</LatitudeDegrees>
              <LongitudeDegrees>16.929992</LongitudeDegrees>
            </Position>
            <AltitudeMeters>613.0</AltitudeMeters>
            <DistanceMeters>65240.808463476</DistanceMeters>
          </Trackpoint>
          <Trackpoint>
            <Position>
              <LatitudeDegrees>50.174888</LatitudeDegrees>
              <LongitudeDegrees>16.930017</LongitudeDegrees>
            </Position>
            <AltitudeMeters>613.0</AltitudeMeters>
            <DistanceMeters>65244.301260819</DistanceMeters>
          </Trackpoint>
          <Trackpoint>
            <Position>
              <LatitudeDegrees>50.174865</LatitudeDegrees>
              <LongitudeDegrees>16.93004</LongitudeDegrees>
            </Position>
            <AltitudeMeters>613.0</AltitudeMeters>
            <DistanceMeters>65247.340630524</DistanceMeters>
          </Trackpoint>
          <Trackpoint>
            <Position>
              <LatitudeDegrees>50.17484</LatitudeDegrees>
              <LongitudeDegrees>16.930067</LongitudeDegrees>
            </Position>
            <AltitudeMeters>613.0</AltitudeMeters>
            <DistanceMeters>65250.721765951</DistanceMeters>
          </Trackpoint>
          <Trackpoint>
            <Position>
              <LatitudeDegrees>50.17482</LatitudeDegrees>
              <LongitudeDegrees>16.930095</LongitudeDegrees>
            </Position>
            <AltitudeMeters>613.0</AltitudeMeters>
            <DistanceMeters>65253.710201261</DistanceMeters>
          </Trackpoint>
          <Trackpoint>
            <Position>
              <LatitudeDegrees>50.174797</LatitudeDegrees>
              <LongitudeDegrees>16.930123</LongitudeDegrees>
            </Position>
            <AltitudeMeters>613.0</AltitudeMeters>
            <DistanceMeters>65256.956445123</DistanceMeters>
          </Trackpoint>
          <Trackpoint>
            <Position>
              <LatitudeDegrees>50.174773</LatitudeDegrees>
              <LongitudeDegrees>16.93015</LongitudeDegrees>
            </Position>
            <AltitudeMeters>613.0</AltitudeMeters>
            <DistanceMeters>65260.24826707</DistanceMeters>
          </Trackpoint>
          <Trackpoint>
            <Position>
              <LatitudeDegrees>50.174747</LatitudeDegrees>
              <LongitudeDegrees>16.930173</LongitudeDegrees>
            </Position>
            <AltitudeMeters>613.0</AltitudeMeters>
            <DistanceMeters>65263.572844272</DistanceMeters>
          </Trackpoint>
          <Trackpoint>
            <Position>
              <LatitudeDegrees>50.17472</LatitudeDegrees>
              <LongitudeDegrees>16.930202</LongitudeDegrees>
            </Position>
            <AltitudeMeters>613.0</AltitudeMeters>
            <DistanceMeters>65267.221177135</DistanceMeters>
          </Trackpoint>
          <Trackpoint>
            <Position>
              <LatitudeDegrees>50.174697</LatitudeDegrees>
              <LongitudeDegrees>16.930225</LongitudeDegrees>
            </Position>
            <AltitudeMeters>613.0</AltitudeMeters>
            <DistanceMeters>65270.260546839</DistanceMeters>
          </Trackpoint>
          <Trackpoint>
            <Position>
              <LatitudeDegrees>50.17467</LatitudeDegrees>
              <LongitudeDegrees>16.930247</LongitudeDegrees>
            </Position>
            <AltitudeMeters>613.0</AltitudeMeters>
            <DistanceMeters>65273.651016912</DistanceMeters>
          </Trackpoint>
          <Trackpoint>
            <Position>
              <LatitudeDegrees>50.174645</LatitudeDegrees>
              <LongitudeDegrees>16.93027</LongitudeDegrees>
            </Position>
            <AltitudeMeters>613.0</AltitudeMeters>
            <DistanceMeters>65276.8819252</DistanceMeters>
          </Trackpoint>
          <Trackpoint>
            <Position>
              <LatitudeDegrees>50.174622</LatitudeDegrees>
              <LongitudeDegrees>16.930293</LongitudeDegrees>
            </Position>
            <AltitudeMeters>613.0</AltitudeMeters>
            <DistanceMeters>65279.92278006</DistanceMeters>
          </Trackpoint>
          <Trackpoint>
            <Position>
              <LatitudeDegrees>50.174597</LatitudeDegrees>
              <LongitudeDegrees>16.930312</LongitudeDegrees>
            </Position>
            <AltitudeMeters>613.0</AltitudeMeters>
            <DistanceMeters>65283.01662573</DistanceMeters>
          </Trackpoint>
          <Trackpoint>
            <Position>
              <LatitudeDegrees>50.174575</LatitudeDegrees>
              <LongitudeDegrees>16.930337</LongitudeDegrees>
            </Position>
            <AltitudeMeters>613.0</AltitudeMeters>
            <DistanceMeters>65286.042596238</DistanceMeters>
          </Trackpoint>
          <Trackpoint>
            <Position>
              <LatitudeDegrees>50.174548</LatitudeDegrees>
              <LongitudeDegrees>16.930358</LongitudeDegrees>
            </Position>
            <AltitudeMeters>613.0</AltitudeMeters>
            <DistanceMeters>65289.399609107</DistanceMeters>
          </Trackpoint>
          <Trackpoint>
            <Position>
              <LatitudeDegrees>50.17452</LatitudeDegrees>
              <LongitudeDegrees>16.930383</LongitudeDegrees>
            </Position>
            <AltitudeMeters>613.0</AltitudeMeters>
            <DistanceMeters>65292.988047348</DistanceMeters>
          </Trackpoint>
          <Trackpoint>
            <Position>
              <LatitudeDegrees>50.174495</LatitudeDegrees>
              <LongitudeDegrees>16.930403</LongitudeDegrees>
            </Position>
            <AltitudeMeters>614.0</AltitudeMeters>
            <DistanceMeters>65296.113834083</DistanceMeters>
          </Trackpoint>
          <Trackpoint>
            <Position>
              <LatitudeDegrees>50.174472</LatitudeDegrees>
              <LongitudeDegrees>16.930432</LongitudeDegrees>
            </Position>
            <AltitudeMeters>614.0</AltitudeMeters>
            <DistanceMeters>65299.40565603</DistanceMeters>
          </Trackpoint>
          <Trackpoint>
            <Position>
              <LatitudeDegrees>50.174447</LatitudeDegrees>
              <LongitudeDegrees>16.930458</LongitudeDegrees>
            </Position>
            <AltitudeMeters>614.0</AltitudeMeters>
            <DistanceMeters>65302.749192278</DistanceMeters>
          </Trackpoint>
          <Trackpoint>
            <Position>
              <LatitudeDegrees>50.174422</LatitudeDegrees>
              <LongitudeDegrees>16.930487</LongitudeDegrees>
            </Position>
            <AltitudeMeters>614.0</AltitudeMeters>
            <DistanceMeters>65306.217341903</DistanceMeters>
          </Trackpoint>
          <Trackpoint>
            <Position>
              <LatitudeDegrees>50.174397</LatitudeDegrees>
              <LongitudeDegrees>16.930513</LongitudeDegrees>
            </Position>
            <AltitudeMeters>614.0</AltitudeMeters>
            <DistanceMeters>65309.56087815</DistanceMeters>
          </Trackpoint>
          <Trackpoint>
            <Position>
              <LatitudeDegrees>50.174373</LatitudeDegrees>
              <LongitudeDegrees>16.93054</LongitudeDegrees>
            </Position>
            <AltitudeMeters>614.0</AltitudeMeters>
            <DistanceMeters>65312.852700098</DistanceMeters>
          </Trackpoint>
          <Trackpoint>
            <Position>
              <LatitudeDegrees>50.17435</LatitudeDegrees>
              <LongitudeDegrees>16.930568</LongitudeDegrees>
            </Position>
            <AltitudeMeters>614.0</AltitudeMeters>
            <DistanceMeters>65316.100334512</DistanceMeters>
          </Trackpoint>
          <Trackpoint>
            <Position>
              <LatitudeDegrees>50.174332</LatitudeDegrees>
              <LongitudeDegrees>16.9306</LongitudeDegrees>
            </Position>
            <AltitudeMeters>615.0</AltitudeMeters>
            <DistanceMeters>65319.136731727</DistanceMeters>
          </Trackpoint>
          <Trackpoint>
            <Position>
              <LatitudeDegrees>50.174307</LatitudeDegrees>
              <LongitudeDegrees>16.930627</LongitudeDegrees>
            </Position>
            <AltitudeMeters>615.0</AltitudeMeters>
            <DistanceMeters>65322.520536823</DistanceMeters>
          </Trackpoint>
          <Trackpoint>
            <Position>
              <LatitudeDegrees>50.174288</LatitudeDegrees>
              <LongitudeDegrees>16.930643</LongitudeDegrees>
            </Position>
            <AltitudeMeters>615.0</AltitudeMeters>
            <DistanceMeters>65324.924543671</DistanceMeters>
          </Trackpoint>
          <Trackpoint>
            <Position>
              <LatitudeDegrees>50.17426</LatitudeDegrees>
              <LongitudeDegrees>16.930673</LongitudeDegrees>
            </Position>
            <AltitudeMeters>615.0</AltitudeMeters>
            <DistanceMeters>65328.70417076</DistanceMeters>
          </Trackpoint>
          <Trackpoint>
            <Position>
              <LatitudeDegrees>50.174245</LatitudeDegrees>
              <LongitudeDegrees>16.930692</LongitudeDegrees>
            </Position>
            <AltitudeMeters>614.0</AltitudeMeters>
            <DistanceMeters>65330.852279013</DistanceMeters>
          </Trackpoint>
          <Trackpoint>
            <Position>
              <LatitudeDegrees>50.17423</LatitudeDegrees>
              <LongitudeDegrees>16.930708</LongitudeDegrees>
            </Position>
            <AltitudeMeters>614.0</AltitudeMeters>
            <DistanceMeters>65332.872574672</DistanceMeters>
          </Trackpoint>
          <Trackpoint>
            <Position>
              <LatitudeDegrees>50.174203</LatitudeDegrees>
              <LongitudeDegrees>16.930737</LongitudeDegrees>
            </Position>
            <AltitudeMeters>614.0</AltitudeMeters>
            <DistanceMeters>65336.520907535</DistanceMeters>
          </Trackpoint>
          <Trackpoint>
            <Position>
              <LatitudeDegrees>50.174178</LatitudeDegrees>
              <LongitudeDegrees>16.930762</LongitudeDegrees>
            </Position>
            <AltitudeMeters>615.0</AltitudeMeters>
            <DistanceMeters>65339.826416951</DistanceMeters>
          </Trackpoint>
          <Trackpoint>
            <Position>
              <LatitudeDegrees>50.174152</LatitudeDegrees>
              <LongitudeDegrees>16.930787</LongitudeDegrees>
            </Position>
            <AltitudeMeters>615.0</AltitudeMeters>
            <DistanceMeters>65343.226196039</DistanceMeters>
          </Trackpoint>
          <Trackpoint>
            <Position>
              <LatitudeDegrees>50.174127</LatitudeDegrees>
              <LongitudeDegrees>16.930817</LongitudeDegrees>
            </Position>
            <AltitudeMeters>615.0</AltitudeMeters>
            <DistanceMeters>65346.735757873</DistanceMeters>
          </Trackpoint>
          <Trackpoint>
            <Position>
              <LatitudeDegrees>50.174107</LatitudeDegrees>
              <LongitudeDegrees>16.930842</LongitudeDegrees>
            </Position>
            <AltitudeMeters>615.0</AltitudeMeters>
            <DistanceMeters>65349.586559305</DistanceMeters>
          </Trackpoint>
          <Trackpoint>
            <Position>
              <LatitudeDegrees>50.17409</LatitudeDegrees>
              <LongitudeDegrees>16.930863</LongitudeDegrees>
            </Position>
            <AltitudeMeters>614.0</AltitudeMeters>
            <DistanceMeters>65351.998066972</DistanceMeters>
          </Trackpoint>
          <Trackpoint>
            <Position>
              <LatitudeDegrees>50.174072</LatitudeDegrees>
              <LongitudeDegrees>16.930882</LongitudeDegrees>
            </Position>
            <AltitudeMeters>614.0</AltitudeMeters>
            <DistanceMeters>65354.415184979</DistanceMeters>
          </Trackpoint>
          <Trackpoint>
            <Position>
              <LatitudeDegrees>50.174035</LatitudeDegrees>
              <LongitudeDegrees>16.93098</LongitudeDegrees>
            </Position>
            <AltitudeMeters>615.0</AltitudeMeters>
            <DistanceMeters>65362.524255003</DistanceMeters>
          </Trackpoint>
          <Trackpoint>
            <Position>
              <LatitudeDegrees>50.174037</LatitudeDegrees>
              <LongitudeDegrees>16.931027</LongitudeDegrees>
            </Position>
            <AltitudeMeters>615.0</AltitudeMeters>
            <DistanceMeters>65365.88261256</DistanceMeters>
          </Trackpoint>
          <Trackpoint>
            <Position>
              <LatitudeDegrees>50.17404</LatitudeDegrees>
              <LongitudeDegrees>16.931072</LongitudeDegrees>
            </Position>
            <AltitudeMeters>615.0</AltitudeMeters>
            <DistanceMeters>65369.107926198</DistanceMeters>
          </Trackpoint>
          <Trackpoint>
            <Position>
              <LatitudeDegrees>50.17404</LatitudeDegrees>
              <LongitudeDegrees>16.931105</LongitudeDegrees>
            </Position>
            <AltitudeMeters>615.0</AltitudeMeters>
            <DistanceMeters>65371.460677111</DistanceMeters>
          </Trackpoint>
          <Trackpoint>
            <Position>
              <LatitudeDegrees>50.174045</LatitudeDegrees>
              <LongitudeDegrees>16.931152</LongitudeDegrees>
            </Position>
            <AltitudeMeters>615.0</AltitudeMeters>
            <DistanceMeters>65374.855139888</DistanceMeters>
          </Trackpoint>
          <Trackpoint>
            <Position>
              <LatitudeDegrees>50.174045</LatitudeDegrees>
              <LongitudeDegrees>16.931198</LongitudeDegrees>
            </Position>
            <AltitudeMeters>616.0</AltitudeMeters>
            <DistanceMeters>65378.133217216</DistanceMeters>
          </Trackpoint>
          <Trackpoint>
            <Position>
              <LatitudeDegrees>50.174047</LatitudeDegrees>
              <LongitudeDegrees>16.931242</LongitudeDegrees>
            </Position>
            <AltitudeMeters>616.0</AltitudeMeters>
            <DistanceMeters>65381.27628954</DistanceMeters>
          </Trackpoint>
          <Trackpoint>
            <Position>
              <LatitudeDegrees>50.174052</LatitudeDegrees>
              <LongitudeDegrees>16.931285</LongitudeDegrees>
            </Position>
            <AltitudeMeters>616.0</AltitudeMeters>
            <DistanceMeters>65384.391948728</DistanceMeters>
          </Trackpoint>
          <Trackpoint>
            <Position>
              <LatitudeDegrees>50.17406</LatitudeDegrees>
              <LongitudeDegrees>16.931333</LongitudeDegrees>
            </Position>
            <AltitudeMeters>616.0</AltitudeMeters>
            <DistanceMeters>65387.927146855</DistanceMeters>
          </Trackpoint>
          <Trackpoint>
            <Position>
              <LatitudeDegrees>50.174062</LatitudeDegrees>
              <LongitudeDegrees>16.931378</LongitudeDegrees>
            </Position>
            <AltitudeMeters>616.0</AltitudeMeters>
            <DistanceMeters>65391.144050274</DistanceMeters>
          </Trackpoint>
          <Trackpoint>
            <Position>
              <LatitudeDegrees>50.17406</LatitudeDegrees>
              <LongitudeDegrees>16.93142</LongitudeDegrees>
            </Position>
            <AltitudeMeters>616.0</AltitudeMeters>
            <DistanceMeters>65394.146052321</DistanceMeters>
          </Trackpoint>
          <Trackpoint>
            <Position>
              <LatitudeDegrees>50.174058</LatitudeDegrees>
              <LongitudeDegrees>16.931462</LongitudeDegrees>
            </Position>
            <AltitudeMeters>616.0</AltitudeMeters>
            <DistanceMeters>65397.149558</DistanceMeters>
          </Trackpoint>
          <Trackpoint>
            <Position>
              <LatitudeDegrees>50.17406</LatitudeDegrees>
              <LongitudeDegrees>16.931505</LongitudeDegrees>
            </Position>
            <AltitudeMeters>616.0</AltitudeMeters>
            <DistanceMeters>65400.224373448</DistanceMeters>
          </Trackpoint>
          <Trackpoint>
            <Position>
              <LatitudeDegrees>50.174063</LatitudeDegrees>
              <LongitudeDegrees>16.931548</LongitudeDegrees>
            </Position>
            <AltitudeMeters>617.0</AltitudeMeters>
            <DistanceMeters>65403.309450525</DistanceMeters>
          </Trackpoint>
          <Trackpoint>
            <Position>
              <LatitudeDegrees>50.174065</LatitudeDegrees>
              <LongitudeDegrees>16.931593</LongitudeDegrees>
            </Position>
            <AltitudeMeters>617.0</AltitudeMeters>
            <DistanceMeters>65406.524950102</DistanceMeters>
          </Trackpoint>
          <Trackpoint>
            <Position>
              <LatitudeDegrees>50.17407</LatitudeDegrees>
              <LongitudeDegrees>16.931637</LongitudeDegrees>
            </Position>
            <AltitudeMeters>618.0</AltitudeMeters>
            <DistanceMeters>65409.709408587</DistanceMeters>
          </Trackpoint>
          <Trackpoint>
            <Position>
              <LatitudeDegrees>50.174075</LatitudeDegrees>
              <LongitudeDegrees>16.931678</LongitudeDegrees>
            </Position>
            <AltitudeMeters>618.0</AltitudeMeters>
            <DistanceMeters>65412.68421529</DistanceMeters>
          </Trackpoint>
          <Trackpoint>
            <Position>
              <LatitudeDegrees>50.17408</LatitudeDegrees>
              <LongitudeDegrees>16.93172</LongitudeDegrees>
            </Position>
            <AltitudeMeters>618.0</AltitudeMeters>
            <DistanceMeters>65415.728038286</DistanceMeters>
          </Trackpoint>
          <Trackpoint>
            <Position>
              <LatitudeDegrees>50.174087</LatitudeDegrees>
              <LongitudeDegrees>16.931762</LongitudeDegrees>
            </Position>
            <AltitudeMeters>619.0</AltitudeMeters>
            <DistanceMeters>65418.821883956</DistanceMeters>
          </Trackpoint>
          <Trackpoint>
            <Position>
              <LatitudeDegrees>50.174095</LatitudeDegrees>
              <LongitudeDegrees>16.931803</LongitudeDegrees>
            </Position>
            <AltitudeMeters>619.0</AltitudeMeters>
            <DistanceMeters>65421.877550666</DistanceMeters>
          </Trackpoint>
          <Trackpoint>
            <Position>
              <LatitudeDegrees>50.174103</LatitudeDegrees>
              <LongitudeDegrees>16.931847</LongitudeDegrees>
            </Position>
            <AltitudeMeters>620.0</AltitudeMeters>
            <DistanceMeters>65425.137673359</DistanceMeters>
          </Trackpoint>
          <Trackpoint>
            <Position>
              <LatitudeDegrees>50.174108</LatitudeDegrees>
              <LongitudeDegrees>16.93189</LongitudeDegrees>
            </Position>
            <AltitudeMeters>620.0</AltitudeMeters>
            <DistanceMeters>65428.251883066</DistanceMeters>
          </Trackpoint>
          <Trackpoint>
            <Position>
              <LatitudeDegrees>50.174115</LatitudeDegrees>
              <LongitudeDegrees>16.93193</LongitudeDegrees>
            </Position>
            <AltitudeMeters>620.0</AltitudeMeters>
            <DistanceMeters>65431.208420568</DistanceMeters>
          </Trackpoint>
          <Trackpoint>
            <Position>
              <LatitudeDegrees>50.174118</LatitudeDegrees>
              <LongitudeDegrees>16.931968</LongitudeDegrees>
            </Position>
            <AltitudeMeters>620.0</AltitudeMeters>
            <DistanceMeters>65433.936200432</DistanceMeters>
          </Trackpoint>
          <Trackpoint>
            <Position>
              <LatitudeDegrees>50.174123</LatitudeDegrees>
              <LongitudeDegrees>16.932013</LongitudeDegrees>
            </Position>
            <AltitudeMeters>620.0</AltitudeMeters>
            <DistanceMeters>65437.192165688</DistanceMeters>
          </Trackpoint>
          <Trackpoint>
            <Position>
              <LatitudeDegrees>50.174122</LatitudeDegrees>
              <LongitudeDegrees>16.932048</LongitudeDegrees>
            </Position>
            <AltitudeMeters>620.0</AltitudeMeters>
            <DistanceMeters>65439.688313269</DistanceMeters>
          </Trackpoint>
          <Trackpoint>
            <Position>
              <LatitudeDegrees>50.174128</LatitudeDegrees>
              <LongitudeDegrees>16.932083</LongitudeDegrees>
            </Position>
            <AltitudeMeters>620.0</AltitudeMeters>
            <DistanceMeters>65442.26982376</DistanceMeters>
          </Trackpoint>
          <Trackpoint>
            <Position>
              <LatitudeDegrees>50.174128</LatitudeDegrees>
              <LongitudeDegrees>16.932125</LongitudeDegrees>
            </Position>
            <AltitudeMeters>620.0</AltitudeMeters>
            <DistanceMeters>65445.262788149</DistanceMeters>
          </Trackpoint>
          <Trackpoint>
            <Position>
              <LatitudeDegrees>50.17415</LatitudeDegrees>
              <LongitudeDegrees>16.932283</LongitudeDegrees>
            </Position>
            <AltitudeMeters>620.0</AltitudeMeters>
            <DistanceMeters>65456.788866608</DistanceMeters>
          </Trackpoint>
          <Trackpoint>
            <Position>
              <LatitudeDegrees>50.174157</LatitudeDegrees>
              <LongitudeDegrees>16.932357</LongitudeDegrees>
            </Position>
            <AltitudeMeters>620.0</AltitudeMeters>
            <DistanceMeters>65462.122227724</DistanceMeters>
          </Trackpoint>
          <Trackpoint>
            <Position>
              <LatitudeDegrees>50.17415</LatitudeDegrees>
              <LongitudeDegrees>16.932397</LongitudeDegrees>
            </Position>
            <AltitudeMeters>622.0</AltitudeMeters>
            <DistanceMeters>65465.078765226</DistanceMeters>
          </Trackpoint>
          <Trackpoint>
            <Position>
              <LatitudeDegrees>50.174143</LatitudeDegrees>
              <LongitudeDegrees>16.932432</LongitudeDegrees>
            </Position>
            <AltitudeMeters>623.0</AltitudeMeters>
            <DistanceMeters>65467.695021701</DistanceMeters>
          </Trackpoint>
          <Trackpoint>
            <Position>
              <LatitudeDegrees>50.174142</LatitudeDegrees>
              <LongitudeDegrees>16.932472</LongitudeDegrees>
            </Position>
            <AltitudeMeters>624.0</AltitudeMeters>
            <DistanceMeters>65470.548988932</DistanceMeters>
          </Trackpoint>
          <Trackpoint>
            <Position>
              <LatitudeDegrees>50.174127</LatitudeDegrees>
              <LongitudeDegrees>16.932505</LongitudeDegrees>
            </Position>
            <AltitudeMeters>624.0</AltitudeMeters>
            <DistanceMeters>65473.434423124</DistanceMeters>
          </Trackpoint>
          <Trackpoint>
            <Position>
              <LatitudeDegrees>50.174117</LatitudeDegrees>
              <LongitudeDegrees>16.93254</LongitudeDegrees>
            </Position>
            <AltitudeMeters>625.0</AltitudeMeters>
            <DistanceMeters>65476.165511395</DistanceMeters>
          </Trackpoint>
          <Trackpoint>
            <Position>
              <LatitudeDegrees>50.174122</LatitudeDegrees>
              <LongitudeDegrees>16.932577</LongitudeDegrees>
            </Position>
            <AltitudeMeters>625.0</AltitudeMeters>
            <DistanceMeters>65478.859983785</DistanceMeters>
          </Trackpoint>
          <Trackpoint>
            <Position>
              <LatitudeDegrees>50.17413</LatitudeDegrees>
              <LongitudeDegrees>16.932608</LongitudeDegrees>
            </Position>
            <AltitudeMeters>626.0</AltitudeMeters>
            <DistanceMeters>65481.241346422</DistanceMeters>
          </Trackpoint>
          <Trackpoint>
            <Position>
              <LatitudeDegrees>50.17415</LatitudeDegrees>
              <LongitudeDegrees>16.93262</LongitudeDegrees>
            </Position>
            <AltitudeMeters>626.0</AltitudeMeters>
            <DistanceMeters>65483.626498023</DistanceMeters>
          </Trackpoint>
          <Trackpoint>
            <Position>
              <LatitudeDegrees>50.174177</LatitudeDegrees>
              <LongitudeDegrees>16.932632</LongitudeDegrees>
            </Position>
            <AltitudeMeters>626.0</AltitudeMeters>
            <DistanceMeters>65486.752284758</DistanceMeters>
          </Trackpoint>
          <Trackpoint>
            <Position>
              <LatitudeDegrees>50.174197</LatitudeDegrees>
              <LongitudeDegrees>16.932643</LongitudeDegrees>
            </Position>
            <AltitudeMeters>626.0</AltitudeMeters>
            <DistanceMeters>65489.110785784</DistanceMeters>
          </Trackpoint>
          <Trackpoint>
            <Position>
              <LatitudeDegrees>50.174213</LatitudeDegrees>
              <LongitudeDegrees>16.932653</LongitudeDegrees>
            </Position>
            <AltitudeMeters>626.0</AltitudeMeters>
            <DistanceMeters>65491.025521023</DistanceMeters>
          </Trackpoint>
          <Trackpoint>
            <Position>
              <LatitudeDegrees>50.174217</LatitudeDegrees>
              <LongitudeDegrees>16.932685</LongitudeDegrees>
            </Position>
            <AltitudeMeters>627.0</AltitudeMeters>
            <DistanceMeters>65493.351250111</DistanceMeters>
          </Trackpoint>
          <Trackpoint>
            <Position>
              <LatitudeDegrees>50.174225</LatitudeDegrees>
              <LongitudeDegrees>16.932723</LongitudeDegrees>
            </Position>
            <AltitudeMeters>627.0</AltitudeMeters>
            <DistanceMeters>65496.202051542</DistanceMeters>
          </Trackpoint>
          <Trackpoint>
            <Position>
              <LatitudeDegrees>50.174233</LatitudeDegrees>
              <LongitudeDegrees>16.932753</LongitudeDegrees>
            </Position>
            <AltitudeMeters>628.0</AltitudeMeters>
            <DistanceMeters>65498.518053573</DistanceMeters>
          </Trackpoint>
          <Trackpoint>
            <Position>
              <LatitudeDegrees>50.174257</LatitudeDegrees>
              <LongitudeDegrees>16.932777</LongitudeDegrees>
            </Position>
            <AltitudeMeters>628.0</AltitudeMeters>
            <DistanceMeters>65501.68972587</DistanceMeters>
          </Trackpoint>
          <Trackpoint>
            <Position>
              <LatitudeDegrees>50.174277</LatitudeDegrees>
              <LongitudeDegrees>16.932792</LongitudeDegrees>
            </Position>
            <AltitudeMeters>629.0</AltitudeMeters>
            <DistanceMeters>65504.160420443</DistanceMeters>
          </Trackpoint>
          <Trackpoint>
            <Position>
              <LatitudeDegrees>50.174283</LatitudeDegrees>
              <LongitudeDegrees>16.932822</LongitudeDegrees>
            </Position>
            <AltitudeMeters>630.0</AltitudeMeters>
            <DistanceMeters>65506.401117322</DistanceMeters>
          </Trackpoint>
          <Trackpoint>
            <Position>
              <LatitudeDegrees>50.174288</LatitudeDegrees>
              <LongitudeDegrees>16.932853</LongitudeDegrees>
            </Position>
            <AltitudeMeters>630.0</AltitudeMeters>
            <DistanceMeters>65508.679777884</DistanceMeters>
          </Trackpoint>
          <Trackpoint>
            <Position>
              <LatitudeDegrees>50.174307</LatitudeDegrees>
              <LongitudeDegrees>16.932872</LongitudeDegrees>
            </Position>
            <AltitudeMeters>630.0</AltitudeMeters>
            <DistanceMeters>65511.190354184</DistanceMeters>
          </Trackpoint>
          <Trackpoint>
            <Position>
              <LatitudeDegrees>50.174328</LatitudeDegrees>
              <LongitudeDegrees>16.932882</LongitudeDegrees>
            </Position>
            <AltitudeMeters>630.0</AltitudeMeters>
            <DistanceMeters>65513.63533079</DistanceMeters>
          </Trackpoint>
          <Trackpoint>
            <Position>
              <LatitudeDegrees>50.174343</LatitudeDegrees>
              <LongitudeDegrees>16.9329</LongitudeDegrees>
            </Position>
            <AltitudeMeters>630.0</AltitudeMeters>
            <DistanceMeters>65515.738836782</DistanceMeters>
          </Trackpoint>
          <Trackpoint>
            <Position>
              <LatitudeDegrees>50.17435</LatitudeDegrees>
              <LongitudeDegrees>16.932937</LongitudeDegrees>
            </Position>
            <AltitudeMeters>631.0</AltitudeMeters>
            <DistanceMeters>65518.489691933</DistanceMeters>
          </Trackpoint>
          <Trackpoint>
            <Position>
              <LatitudeDegrees>50.174355</LatitudeDegrees>
              <LongitudeDegrees>16.932967</LongitudeDegrees>
            </Position>
            <AltitudeMeters>631.0</AltitudeMeters>
            <DistanceMeters>65520.697913226</DistanceMeters>
          </Trackpoint>
          <Trackpoint>
            <Position>
              <LatitudeDegrees>50.17436</LatitudeDegrees>
              <LongitudeDegrees>16.932998</LongitudeDegrees>
            </Position>
            <AltitudeMeters>631.0</AltitudeMeters>
            <DistanceMeters>65522.974591481</DistanceMeters>
          </Trackpoint>
          <Trackpoint>
            <Position>
              <LatitudeDegrees>50.174372</LatitudeDegrees>
              <LongitudeDegrees>16.933033</LongitudeDegrees>
            </Position>
            <AltitudeMeters>631.0</AltitudeMeters>
            <DistanceMeters>65525.803133107</DistanceMeters>
          </Trackpoint>
          <Trackpoint>
            <Position>
              <LatitudeDegrees>50.17437</LatitudeDegrees>
              <LongitudeDegrees>16.933062</LongitudeDegrees>
            </Position>
            <AltitudeMeters>631.0</AltitudeMeters>
            <DistanceMeters>65527.880722224</DistanceMeters>
          </Trackpoint>
          <Trackpoint>
            <Position>
              <LatitudeDegrees>50.174355</LatitudeDegrees>
              <LongitudeDegrees>16.93308</LongitudeDegrees>
            </Position>
            <AltitudeMeters>631.0</AltitudeMeters>
            <DistanceMeters>65529.984228216</DistanceMeters>
          </Trackpoint>
          <Trackpoint>
            <Position>
              <LatitudeDegrees>50.174335</LatitudeDegrees>
              <LongitudeDegrees>16.933082</LongitudeDegrees>
            </Position>
            <AltitudeMeters>631.0</AltitudeMeters>
            <DistanceMeters>65532.21280221</DistanceMeters>
          </Trackpoint>
          <Trackpoint>
            <Position>
              <LatitudeDegrees>50.17431</LatitudeDegrees>
              <LongitudeDegrees>16.933108</LongitudeDegrees>
            </Position>
            <AltitudeMeters>631.0</AltitudeMeters>
            <DistanceMeters>65535.553636609</DistanceMeters>
          </Trackpoint>
          <Trackpoint>
            <Position>
              <LatitudeDegrees>50.1743</LatitudeDegrees>
              <LongitudeDegrees>16.933145</LongitudeDegrees>
            </Position>
            <AltitudeMeters>631.0</AltitudeMeters>
            <DistanceMeters>65538.415503017</DistanceMeters>
          </Trackpoint>
          <Trackpoint>
            <Position>
              <LatitudeDegrees>50.174287</LatitudeDegrees>
              <LongitudeDegrees>16.93318</LongitudeDegrees>
            </Position>
            <AltitudeMeters>631.0</AltitudeMeters>
            <DistanceMeters>65541.299372016</DistanceMeters>
          </Trackpoint>
          <Trackpoint>
            <Position>
              <LatitudeDegrees>50.174277</LatitudeDegrees>
              <LongitudeDegrees>16.93322</LongitudeDegrees>
            </Position>
            <AltitudeMeters>631.0</AltitudeMeters>
            <DistanceMeters>65544.360943402</DistanceMeters>
          </Trackpoint>
          <Trackpoint>
            <Position>
              <LatitudeDegrees>50.174265</LatitudeDegrees>
              <LongitudeDegrees>16.933258</LongitudeDegrees>
            </Position>
            <AltitudeMeters>631.0</AltitudeMeters>
            <DistanceMeters>65547.380939628</DistanceMeters>
          </Trackpoint>
          <Trackpoint>
            <Position>
              <LatitudeDegrees>50.17425</LatitudeDegrees>
              <LongitudeDegrees>16.933288</LongitudeDegrees>
            </Position>
            <AltitudeMeters>631.0</AltitudeMeters>
            <DistanceMeters>65550.093781736</DistanceMeters>
          </Trackpoint>
          <Trackpoint>
            <Position>
              <LatitudeDegrees>50.174235</LatitudeDegrees>
              <LongitudeDegrees>16.933437</LongitudeDegrees>
            </Position>
            <AltitudeMeters>631.0</AltitudeMeters>
            <DistanceMeters>65560.845667089</DistanceMeters>
          </Trackpoint>
          <Trackpoint>
            <Position>
              <LatitudeDegrees>50.174245</LatitudeDegrees>
              <LongitudeDegrees>16.933458</LongitudeDegrees>
            </Position>
            <AltitudeMeters>631.0</AltitudeMeters>
            <DistanceMeters>65562.707802786</DistanceMeters>
          </Trackpoint>
          <Trackpoint>
            <Position>
              <LatitudeDegrees>50.174268</LatitudeDegrees>
              <LongitudeDegrees>16.933465</LongitudeDegrees>
            </Position>
            <AltitudeMeters>630.0</AltitudeMeters>
            <DistanceMeters>65565.31541617</DistanceMeters>
          </Trackpoint>
          <Trackpoint>
            <Position>
              <LatitudeDegrees>50.174293</LatitudeDegrees>
              <LongitudeDegrees>16.93347</LongitudeDegrees>
            </Position>
            <AltitudeMeters>630.0</AltitudeMeters>
            <DistanceMeters>65568.11991195</DistanceMeters>
          </Trackpoint>
          <Trackpoint>
            <Position>
              <LatitudeDegrees>50.17431</LatitudeDegrees>
              <LongitudeDegrees>16.933477</LongitudeDegrees>
            </Position>
            <AltitudeMeters>631.0</AltitudeMeters>
            <DistanceMeters>65570.074322945</DistanceMeters>
          </Trackpoint>
          <Trackpoint>
            <Position>
              <LatitudeDegrees>50.174255</LatitudeDegrees>
              <LongitudeDegrees>16.933602</LongitudeDegrees>
            </Position>
            <AltitudeMeters>630.0</AltitudeMeters>
            <DistanceMeters>65580.884838628</DistanceMeters>
          </Trackpoint>
          <Trackpoint>
            <Position>
              <LatitudeDegrees>50.17422</LatitudeDegrees>
              <LongitudeDegrees>16.933575</LongitudeDegrees>
            </Position>
            <AltitudeMeters>630.0</AltitudeMeters>
            <DistanceMeters>65585.229129108</DistanceMeters>
          </Trackpoint>
          <Trackpoint>
            <Position>
              <LatitudeDegrees>50.174212</LatitudeDegrees>
              <LongitudeDegrees>16.93355</LongitudeDegrees>
            </Position>
            <AltitudeMeters>630.0</AltitudeMeters>
            <DistanceMeters>65587.222426284</DistanceMeters>
          </Trackpoint>
          <Trackpoint>
            <Position>
              <LatitudeDegrees>50.17422</LatitudeDegrees>
              <LongitudeDegrees>16.933513</LongitudeDegrees>
            </Position>
            <AltitudeMeters>630.0</AltitudeMeters>
            <DistanceMeters>65590.00591431</DistanceMeters>
          </Trackpoint>
          <Trackpoint>
            <Position>
              <LatitudeDegrees>50.174233</LatitudeDegrees>
              <LongitudeDegrees>16.933495</LongitudeDegrees>
            </Position>
            <AltitudeMeters>629.0</AltitudeMeters>
            <DistanceMeters>65591.939421912</DistanceMeters>
          </Trackpoint>
          <Trackpoint>
            <Position>
              <LatitudeDegrees>50.174188</LatitudeDegrees>
              <LongitudeDegrees>16.93347</LongitudeDegrees>
            </Position>
            <AltitudeMeters>630.0</AltitudeMeters>
            <DistanceMeters>65597.255824763</DistanceMeters>
          </Trackpoint>
          <Trackpoint>
            <Position>
              <LatitudeDegrees>50.174177</LatitudeDegrees>
              <LongitudeDegrees>16.933447</LongitudeDegrees>
            </Position>
            <AltitudeMeters>630.0</AltitudeMeters>
            <DistanceMeters>65599.302762835</DistanceMeters>
          </Trackpoint>
          <Trackpoint>
            <Position>
              <LatitudeDegrees>50.174153</LatitudeDegrees>
              <LongitudeDegrees>16.93339</LongitudeDegrees>
            </Position>
            <AltitudeMeters>630.0</AltitudeMeters>
            <DistanceMeters>65604.164937259</DistanceMeters>
          </Trackpoint>
          <Trackpoint>
            <Position>
              <LatitudeDegrees>50.174147</LatitudeDegrees>
              <LongitudeDegrees>16.933357</LongitudeDegrees>
            </Position>
            <AltitudeMeters>630.0</AltitudeMeters>
            <DistanceMeters>65606.609913865</DistanceMeters>
          </Trackpoint>
          <Trackpoint>
            <Position>
              <LatitudeDegrees>50.174147</LatitudeDegrees>
              <LongitudeDegrees>16.933322</LongitudeDegrees>
            </Position>
            <AltitudeMeters>630.0</AltitudeMeters>
            <DistanceMeters>65609.104251988</DistanceMeters>
          </Trackpoint>
          <Trackpoint>
            <Position>
              <LatitudeDegrees>50.17415</LatitudeDegrees>
              <LongitudeDegrees>16.933282</LongitudeDegrees>
            </Position>
            <AltitudeMeters>630.0</AltitudeMeters>
            <DistanceMeters>65611.977140755</DistanceMeters>
          </Trackpoint>
          <Trackpoint>
            <Position>
              <LatitudeDegrees>50.174153</LatitudeDegrees>
              <LongitudeDegrees>16.933255</LongitudeDegrees>
            </Position>
            <AltitudeMeters>631.0</AltitudeMeters>
            <DistanceMeters>65613.929240204</DistanceMeters>
          </Trackpoint>
          <Trackpoint>
            <Position>
              <LatitudeDegrees>50.174155</LatitudeDegrees>
              <LongitudeDegrees>16.93322</LongitudeDegrees>
            </Position>
            <AltitudeMeters>631.0</AltitudeMeters>
            <DistanceMeters>65616.43621711</DistanceMeters>
          </Trackpoint>
          <Trackpoint>
            <Position>
              <LatitudeDegrees>50.174213</LatitudeDegrees>
              <LongitudeDegrees>16.933108</LongitudeDegrees>
            </Position>
            <AltitudeMeters>629.0</AltitudeMeters>
            <DistanceMeters>65626.703500704</DistanceMeters>
          </Trackpoint>
          <Trackpoint>
            <Position>
              <LatitudeDegrees>50.174237</LatitudeDegrees>
              <LongitudeDegrees>16.93311</LongitudeDegrees>
            </Position>
            <AltitudeMeters>630.0</AltitudeMeters>
            <DistanceMeters>65629.377789496</DistanceMeters>
          </Trackpoint>
          <Trackpoint>
            <Position>
              <LatitudeDegrees>50.174258</LatitudeDegrees>
              <LongitudeDegrees>16.933098</LongitudeDegrees>
            </Position>
            <AltitudeMeters>629.0</AltitudeMeters>
            <DistanceMeters>65631.866691351</DistanceMeters>
          </Trackpoint>
          <Trackpoint>
            <Position>
              <LatitudeDegrees>50.174277</LatitudeDegrees>
              <LongitudeDegrees>16.933083</LongitudeDegrees>
            </Position>
            <AltitudeMeters>630.0</AltitudeMeters>
            <DistanceMeters>65634.238555096</DistanceMeters>
          </Trackpoint>
          <Trackpoint>
            <Position>
              <LatitudeDegrees>50.174342</LatitudeDegrees>
              <LongitudeDegrees>16.932978</LongitudeDegrees>
            </Position>
            <AltitudeMeters>631.0</AltitudeMeters>
            <DistanceMeters>65644.648210101</DistanceMeters>
          </Trackpoint>
          <Trackpoint>
            <Position>
              <LatitudeDegrees>50.174255</LatitudeDegrees>
              <LongitudeDegrees>16.9329</LongitudeDegrees>
            </Position>
            <AltitudeMeters>632.0</AltitudeMeters>
            <DistanceMeters>65655.814152312</DistanceMeters>
          </Trackpoint>
          <Trackpoint>
            <Position>
              <LatitudeDegrees>50.174292</LatitudeDegrees>
              <LongitudeDegrees>16.93277</LongitudeDegrees>
            </Position>
            <AltitudeMeters>631.0</AltitudeMeters>
            <DistanceMeters>65665.954887519</DistanceMeters>
          </Trackpoint>
          <Trackpoint>
            <Position>
              <LatitudeDegrees>50.174282</LatitudeDegrees>
              <LongitudeDegrees>16.932748</LongitudeDegrees>
            </Position>
            <AltitudeMeters>630.0</AltitudeMeters>
            <DistanceMeters>65667.876683883</DistanceMeters>
          </Trackpoint>
          <Trackpoint>
            <Position>
              <LatitudeDegrees>50.174292</LatitudeDegrees>
              <LongitudeDegrees>16.932723</LongitudeDegrees>
            </Position>
            <AltitudeMeters>629.0</AltitudeMeters>
            <DistanceMeters>65669.975892616</DistanceMeters>
          </Trackpoint>
          <Trackpoint>
            <Position>
              <LatitudeDegrees>50.174298</LatitudeDegrees>
              <LongitudeDegrees>16.93269</LongitudeDegrees>
            </Position>
            <AltitudeMeters>629.0</AltitudeMeters>
            <DistanceMeters>65672.420869223</DistanceMeters>
          </Trackpoint>
          <Trackpoint>
            <Position>
              <LatitudeDegrees>50.174307</LatitudeDegrees>
              <LongitudeDegrees>16.932662</LongitudeDegrees>
            </Position>
            <AltitudeMeters>629.0</AltitudeMeters>
            <DistanceMeters>65674.653491492</DistanceMeters>
          </Trackpoint>
          <Trackpoint>
            <Position>
              <LatitudeDegrees>50.174305</LatitudeDegrees>
              <LongitudeDegrees>16.932633</LongitudeDegrees>
            </Position>
            <AltitudeMeters>629.0</AltitudeMeters>
            <DistanceMeters>65676.735422493</DistanceMeters>
          </Trackpoint>
          <Trackpoint>
            <Position>
              <LatitudeDegrees>50.174308</LatitudeDegrees>
              <LongitudeDegrees>16.9326</LongitudeDegrees>
            </Position>
            <AltitudeMeters>629.0</AltitudeMeters>
            <DistanceMeters>65679.112990127</DistanceMeters>
          </Trackpoint>
          <Trackpoint>
            <Position>
              <LatitudeDegrees>50.1743</LatitudeDegrees>
              <LongitudeDegrees>16.932568</LongitudeDegrees>
            </Position>
            <AltitudeMeters>629.0</AltitudeMeters>
            <DistanceMeters>65681.561657266</DistanceMeters>
          </Trackpoint>
          <Trackpoint>
            <Position>
              <LatitudeDegrees>50.174282</LatitudeDegrees>
              <LongitudeDegrees>16.932533</LongitudeDegrees>
            </Position>
            <AltitudeMeters>629.0</AltitudeMeters>
            <DistanceMeters>65684.761673936</DistanceMeters>
          </Trackpoint>
          <Trackpoint>
            <Position>
              <LatitudeDegrees>50.174262</LatitudeDegrees>
              <LongitudeDegrees>16.932498</LongitudeDegrees>
            </Position>
            <AltitudeMeters>629.0</AltitudeMeters>
            <DistanceMeters>65688.105210183</DistanceMeters>
          </Trackpoint>
          <Trackpoint>
            <Position>
              <LatitudeDegrees>50.174235</LatitudeDegrees>
              <LongitudeDegrees>16.932475</LongitudeDegrees>
            </Position>
            <AltitudeMeters>629.0</AltitudeMeters>
            <DistanceMeters>65691.527491462</DistanceMeters>
          </Trackpoint>
          <Trackpoint>
            <Position>
              <LatitudeDegrees>50.174208</LatitudeDegrees>
              <LongitudeDegrees>16.932458</LongitudeDegrees>
            </Position>
            <AltitudeMeters>629.0</AltitudeMeters>
            <DistanceMeters>65694.766773609</DistanceMeters>
          </Trackpoint>
          <Trackpoint>
            <Position>
              <LatitudeDegrees>50.174185</LatitudeDegrees>
              <LongitudeDegrees>16.932443</LongitudeDegrees>
            </Position>
            <AltitudeMeters>628.0</AltitudeMeters>
            <DistanceMeters>65697.540512084</DistanceMeters>
          </Trackpoint>
          <Trackpoint>
            <Position>
              <LatitudeDegrees>50.174162</LatitudeDegrees>
              <LongitudeDegrees>16.932425</LongitudeDegrees>
            </Position>
            <AltitudeMeters>628.0</AltitudeMeters>
            <DistanceMeters>65700.403955712</DistanceMeters>
          </Trackpoint>
          <Trackpoint>
            <Position>
              <LatitudeDegrees>50.174142</LatitudeDegrees>
              <LongitudeDegrees>16.932408</LongitudeDegrees>
            </Position>
            <AltitudeMeters>628.0</AltitudeMeters>
            <DistanceMeters>65702.936020932</DistanceMeters>
          </Trackpoint>
          <Trackpoint>
            <Position>
              <LatitudeDegrees>50.174123</LatitudeDegrees>
              <LongitudeDegrees>16.9324</LongitudeDegrees>
            </Position>
            <AltitudeMeters>628.0</AltitudeMeters>
            <DistanceMeters>65705.125763061</DistanceMeters>
          </Trackpoint>
          <Trackpoint>
            <Position>
              <LatitudeDegrees>50.174102</LatitudeDegrees>
              <LongitudeDegrees>16.932397</LongitudeDegrees>
            </Position>
            <AltitudeMeters>628.0</AltitudeMeters>
            <DistanceMeters>65707.472749774</DistanceMeters>
          </Trackpoint>
          <Trackpoint>
            <Position>
              <LatitudeDegrees>50.17408</LatitudeDegrees>
              <LongitudeDegrees>16.932388</LongitudeDegrees>
            </Position>
            <AltitudeMeters>628.0</AltitudeMeters>
            <DistanceMeters>65710.00303122</DistanceMeters>
          </Trackpoint>
          <Trackpoint>
            <Position>
              <LatitudeDegrees>50.174058</LatitudeDegrees>
              <LongitudeDegrees>16.932387</LongitudeDegrees>
            </Position>
            <AltitudeMeters>627.0</AltitudeMeters>
            <DistanceMeters>65712.453541542</DistanceMeters>
          </Trackpoint>
          <Trackpoint>
            <Position>
              <LatitudeDegrees>50.174037</LatitudeDegrees>
              <LongitudeDegrees>16.932377</LongitudeDegrees>
            </Position>
            <AltitudeMeters>627.0</AltitudeMeters>
            <DistanceMeters>65714.896670791</DistanceMeters>
          </Trackpoint>
          <Trackpoint>
            <Position>
              <LatitudeDegrees>50.17402</LatitudeDegrees>
              <LongitudeDegrees>16.932363</LongitudeDegrees>
            </Position>
            <AltitudeMeters>627.0</AltitudeMeters>
            <DistanceMeters>65717.034243873</DistanceMeters>
          </Trackpoint>
          <Trackpoint>
            <Position>
              <LatitudeDegrees>50.173997</LatitudeDegrees>
              <LongitudeDegrees>16.932347</LongitudeDegrees>
            </Position>
            <AltitudeMeters>626.0</AltitudeMeters>
            <DistanceMeters>65719.837129262</DistanceMeters>
          </Trackpoint>
          <Trackpoint>
            <Position>
              <LatitudeDegrees>50.173975</LatitudeDegrees>
              <LongitudeDegrees>16.932337</LongitudeDegrees>
            </Position>
            <AltitudeMeters>626.0</AltitudeMeters>
            <DistanceMeters>65722.386963579</DistanceMeters>
          </Trackpoint>
          <Trackpoint>
            <Position>
              <LatitudeDegrees>50.17394</LatitudeDegrees>
              <LongitudeDegrees>16.932325</LongitudeDegrees>
            </Position>
            <AltitudeMeters>625.0</AltitudeMeters>
            <DistanceMeters>65726.3758224</DistanceMeters>
          </Trackpoint>
          <Trackpoint>
            <Position>
              <LatitudeDegrees>50.17392</LatitudeDegrees>
              <LongitudeDegrees>16.932313</LongitudeDegrees>
            </Position>
            <AltitudeMeters>625.0</AltitudeMeters>
            <DistanceMeters>65728.760974001</DistanceMeters>
          </Trackpoint>
          <Trackpoint>
            <Position>
              <LatitudeDegrees>50.173897</LatitudeDegrees>
              <LongitudeDegrees>16.932298</LongitudeDegrees>
            </Position>
            <AltitudeMeters>625.0</AltitudeMeters>
            <DistanceMeters>65731.534712476</DistanceMeters>
          </Trackpoint>
          <Trackpoint>
            <Position>
              <LatitudeDegrees>50.173873</LatitudeDegrees>
              <LongitudeDegrees>16.932287</LongitudeDegrees>
            </Position>
            <AltitudeMeters>625.0</AltitudeMeters>
            <DistanceMeters>65734.318200502</DistanceMeters>
          </Trackpoint>
          <Trackpoint>
            <Position>
              <LatitudeDegrees>50.17385</LatitudeDegrees>
              <LongitudeDegrees>16.932272</LongitudeDegrees>
            </Position>
            <AltitudeMeters>625.0</AltitudeMeters>
            <DistanceMeters>65737.091938977</DistanceMeters>
          </Trackpoint>
          <Trackpoint>
            <Position>
              <LatitudeDegrees>50.17383</LatitudeDegrees>
              <LongitudeDegrees>16.93226</LongitudeDegrees>
            </Position>
            <AltitudeMeters>625.0</AltitudeMeters>
            <DistanceMeters>65739.475196849</DistanceMeters>
          </Trackpoint>
          <Trackpoint>
            <Position>
              <LatitudeDegrees>50.17371</LatitudeDegrees>
              <LongitudeDegrees>16.932218</LongitudeDegrees>
            </Position>
            <AltitudeMeters>625.0</AltitudeMeters>
            <DistanceMeters>65753.163002592</DistanceMeters>
          </Trackpoint>
          <Trackpoint>
            <Position>
              <LatitudeDegrees>50.173582</LatitudeDegrees>
              <LongitudeDegrees>16.932193</LongitudeDegrees>
            </Position>
            <AltitudeMeters>624.0</AltitudeMeters>
            <DistanceMeters>65767.520529714</DistanceMeters>
          </Trackpoint>
          <Trackpoint>
            <Position>
              <LatitudeDegrees>50.173462</LatitudeDegrees>
              <LongitudeDegrees>16.932177</LongitudeDegrees>
            </Position>
            <AltitudeMeters>624.0</AltitudeMeters>
            <DistanceMeters>65780.925023777</DistanceMeters>
          </Trackpoint>
          <Trackpoint>
            <Position>
              <LatitudeDegrees>50.173352</LatitudeDegrees>
              <LongitudeDegrees>16.932165</LongitudeDegrees>
            </Position>
            <AltitudeMeters>624.0</AltitudeMeters>
            <DistanceMeters>65793.198193912</DistanceMeters>
          </Trackpoint>
          <Trackpoint>
            <Position>
              <LatitudeDegrees>50.173233</LatitudeDegrees>
              <LongitudeDegrees>16.932158</LongitudeDegrees>
            </Position>
            <AltitudeMeters>623.0</AltitudeMeters>
            <DistanceMeters>65806.452972948</DistanceMeters>
          </Trackpoint>
          <Trackpoint>
            <Position>
              <LatitudeDegrees>50.17312</LatitudeDegrees>
              <LongitudeDegrees>16.932142</LongitudeDegrees>
            </Position>
            <AltitudeMeters>623.0</AltitudeMeters>
            <DistanceMeters>65819.081876707</DistanceMeters>
          </Trackpoint>
          <Trackpoint>
            <Position>
              <LatitudeDegrees>50.173112</LatitudeDegrees>
              <LongitudeDegrees>16.932002</LongitudeDegrees>
            </Position>
            <AltitudeMeters>621.0</AltitudeMeters>
            <DistanceMeters>65829.1016766</DistanceMeters>
          </Trackpoint>
          <Trackpoint>
            <Position>
              <LatitudeDegrees>50.173062</LatitudeDegrees>
              <LongitudeDegrees>16.931978</LongitudeDegrees>
            </Position>
            <AltitudeMeters>619.0</AltitudeMeters>
            <DistanceMeters>65834.923953386</DistanceMeters>
          </Trackpoint>
          <Trackpoint>
            <Position>
              <LatitudeDegrees>50.173042</LatitudeDegrees>
              <LongitudeDegrees>16.931972</LongitudeDegrees>
            </Position>
            <AltitudeMeters>618.0</AltitudeMeters>
            <DistanceMeters>65837.188701368</DistanceMeters>
          </Trackpoint>
          <Trackpoint>
            <Position>
              <LatitudeDegrees>50.173015</LatitudeDegrees>
              <LongitudeDegrees>16.931992</LongitudeDegrees>
            </Position>
            <AltitudeMeters>618.0</AltitudeMeters>
            <DistanceMeters>65840.514636371</DistanceMeters>
          </Trackpoint>
          <Trackpoint>
            <Position>
              <LatitudeDegrees>50.17299</LatitudeDegrees>
              <LongitudeDegrees>16.93202</LongitudeDegrees>
            </Position>
            <AltitudeMeters>617.0</AltitudeMeters>
            <DistanceMeters>65843.939555246</DistanceMeters>
          </Trackpoint>
          <Trackpoint>
            <Position>
              <LatitudeDegrees>50.172912</LatitudeDegrees>
              <LongitudeDegrees>16.932095</LongitudeDegrees>
            </Position>
            <AltitudeMeters>617.0</AltitudeMeters>
            <DistanceMeters>65854.135350459</DistanceMeters>
          </Trackpoint>
          <Trackpoint>
            <Position>
              <LatitudeDegrees>50.17283</LatitudeDegrees>
              <LongitudeDegrees>16.932192</LongitudeDegrees>
            </Position>
            <AltitudeMeters>617.0</AltitudeMeters>
            <DistanceMeters>65865.585970964</DistanceMeters>
          </Trackpoint>
          <Trackpoint>
            <Position>
              <LatitudeDegrees>50.172745</LatitudeDegrees>
              <LongitudeDegrees>16.932285</LongitudeDegrees>
            </Position>
            <AltitudeMeters>616.0</AltitudeMeters>
            <DistanceMeters>65877.138265099</DistanceMeters>
          </Trackpoint>
          <Trackpoint>
            <Position>
              <LatitudeDegrees>50.172652</LatitudeDegrees>
              <LongitudeDegrees>16.932395</LongitudeDegrees>
            </Position>
            <AltitudeMeters>616.0</AltitudeMeters>
            <DistanceMeters>65890.123935952</DistanceMeters>
          </Trackpoint>
          <Trackpoint>
            <Position>
              <LatitudeDegrees>50.172575</LatitudeDegrees>
              <LongitudeDegrees>16.932498</LongitudeDegrees>
            </Position>
            <AltitudeMeters>615.0</AltitudeMeters>
            <DistanceMeters>65901.409333516</DistanceMeters>
          </Trackpoint>
          <Trackpoint>
            <Position>
              <LatitudeDegrees>50.172503</LatitudeDegrees>
              <LongitudeDegrees>16.932595</LongitudeDegrees>
            </Position>
            <AltitudeMeters>615.0</AltitudeMeters>
            <DistanceMeters>65911.994473501</DistanceMeters>
          </Trackpoint>
          <Trackpoint>
            <Position>
              <LatitudeDegrees>50.17241</LatitudeDegrees>
              <LongitudeDegrees>16.932695</LongitudeDegrees>
            </Position>
            <AltitudeMeters>614.0</AltitudeMeters>
            <DistanceMeters>65924.56317102</DistanceMeters>
          </Trackpoint>
          <Trackpoint>
            <Position>
              <LatitudeDegrees>50.172335</LatitudeDegrees>
              <LongitudeDegrees>16.932772</LongitudeDegrees>
            </Position>
            <AltitudeMeters>614.0</AltitudeMeters>
            <DistanceMeters>65934.554090147</DistanceMeters>
          </Trackpoint>
          <Trackpoint>
            <Position>
              <LatitudeDegrees>50.172267</LatitudeDegrees>
              <LongitudeDegrees>16.932875</LongitudeDegrees>
            </Position>
            <AltitudeMeters>614.0</AltitudeMeters>
            <DistanceMeters>65945.099058679</DistanceMeters>
          </Trackpoint>
          <Trackpoint>
            <Position>
              <LatitudeDegrees>50.172178</LatitudeDegrees>
              <LongitudeDegrees>16.933007</LongitudeDegrees>
            </Position>
            <AltitudeMeters>613.0</AltitudeMeters>
            <DistanceMeters>65958.762102641</DistanceMeters>
          </Trackpoint>
          <Trackpoint>
            <Position>
              <LatitudeDegrees>50.172095</LatitudeDegrees>
              <LongitudeDegrees>16.933098</LongitudeDegrees>
            </Position>
            <AltitudeMeters>613.0</AltitudeMeters>
            <DistanceMeters>65970.050700374</DistanceMeters>
          </Trackpoint>
          <Trackpoint>
            <Position>
              <LatitudeDegrees>50.172015</LatitudeDegrees>
              <LongitudeDegrees>16.933207</LongitudeDegrees>
            </Position>
            <AltitudeMeters>613.0</AltitudeMeters>
            <DistanceMeters>65981.868830191</DistanceMeters>
          </Trackpoint>
          <Trackpoint>
            <Position>
              <LatitudeDegrees>50.171943</LatitudeDegrees>
              <LongitudeDegrees>16.933348</LongitudeDegrees>
            </Position>
            <AltitudeMeters>613.0</AltitudeMeters>
            <DistanceMeters>65994.723805839</DistanceMeters>
          </Trackpoint>
          <Trackpoint>
            <Position>
              <LatitudeDegrees>50.171875</LatitudeDegrees>
              <LongitudeDegrees>16.933458</LongitudeDegrees>
            </Position>
            <AltitudeMeters>613.0</AltitudeMeters>
            <DistanceMeters>66005.6220899</DistanceMeters>
          </Trackpoint>
          <Trackpoint>
            <Position>
              <LatitudeDegrees>50.171822</LatitudeDegrees>
              <LongitudeDegrees>16.933577</LongitudeDegrees>
            </Position>
            <AltitudeMeters>612.0</AltitudeMeters>
            <DistanceMeters>66015.954688499</DistanceMeters>
          </Trackpoint>
          <Trackpoint>
            <Position>
              <LatitudeDegrees>50.171788</LatitudeDegrees>
              <LongitudeDegrees>16.93375</LongitudeDegrees>
            </Position>
            <AltitudeMeters>611.0</AltitudeMeters>
            <DistanceMeters>66028.855243094</DistanceMeters>
          </Trackpoint>
          <Trackpoint>
            <Position>
              <LatitudeDegrees>50.17173</LatitudeDegrees>
              <LongitudeDegrees>16.933897</LongitudeDegrees>
            </Position>
            <AltitudeMeters>610.0</AltitudeMeters>
            <DistanceMeters>66041.16331209</DistanceMeters>
          </Trackpoint>
          <Trackpoint>
            <Position>
              <LatitudeDegrees>50.171688</LatitudeDegrees>
              <LongitudeDegrees>16.93402</LongitudeDegrees>
            </Position>
            <AltitudeMeters>609.0</AltitudeMeters>
            <DistanceMeters>66051.10030791</DistanceMeters>
          </Trackpoint>
          <Trackpoint>
            <Position>
              <LatitudeDegrees>50.171675</LatitudeDegrees>
              <LongitudeDegrees>16.934062</LongitudeDegrees>
            </Position>
            <AltitudeMeters>609.0</AltitudeMeters>
            <DistanceMeters>66054.426242913</DistanceMeters>
          </Trackpoint>
          <Trackpoint>
            <Position>
              <LatitudeDegrees>50.171658</LatitudeDegrees>
              <LongitudeDegrees>16.934105</LongitudeDegrees>
            </Position>
            <AltitudeMeters>608.0</AltitudeMeters>
            <DistanceMeters>66058.027241354</DistanceMeters>
          </Trackpoint>
          <Trackpoint>
            <Position>
              <LatitudeDegrees>50.17164</LatitudeDegrees>
              <LongitudeDegrees>16.934142</LongitudeDegrees>
            </Position>
            <AltitudeMeters>608.0</AltitudeMeters>
            <DistanceMeters>66061.338209913</DistanceMeters>
          </Trackpoint>
          <Trackpoint>
            <Position>
              <LatitudeDegrees>50.171603</LatitudeDegrees>
              <LongitudeDegrees>16.934225</LongitudeDegrees>
            </Position>
            <AltitudeMeters>608.0</AltitudeMeters>
            <DistanceMeters>66068.547725848</DistanceMeters>
          </Trackpoint>
          <Trackpoint>
            <Position>
              <LatitudeDegrees>50.17155</LatitudeDegrees>
              <LongitudeDegrees>16.934347</LongitudeDegrees>
            </Position>
            <AltitudeMeters>608.0</AltitudeMeters>
            <DistanceMeters>66079.056666561</DistanceMeters>
          </Trackpoint>
          <Trackpoint>
            <Position>
              <LatitudeDegrees>50.171493</LatitudeDegrees>
              <LongitudeDegrees>16.934465</LongitudeDegrees>
            </Position>
            <AltitudeMeters>608.0</AltitudeMeters>
            <DistanceMeters>66089.592211143</DistanceMeters>
          </Trackpoint>
          <Trackpoint>
            <Position>
              <LatitudeDegrees>50.171442</LatitudeDegrees>
              <LongitudeDegrees>16.934592</LongitudeDegrees>
            </Position>
            <AltitudeMeters>606.0</AltitudeMeters>
            <DistanceMeters>66100.277541581</DistanceMeters>
          </Trackpoint>
          <Trackpoint>
            <Position>
              <LatitudeDegrees>50.171362</LatitudeDegrees>
              <LongitudeDegrees>16.934722</LongitudeDegrees>
            </Position>
            <AltitudeMeters>605.0</AltitudeMeters>
            <DistanceMeters>66113.129004461</DistanceMeters>
          </Trackpoint>
          <Trackpoint>
            <Position>
              <LatitudeDegrees>50.171282</LatitudeDegrees>
              <LongitudeDegrees>16.93485</LongitudeDegrees>
            </Position>
            <AltitudeMeters>605.0</AltitudeMeters>
            <DistanceMeters>66125.87853018</DistanceMeters>
          </Trackpoint>
          <Trackpoint>
            <Position>
              <LatitudeDegrees>50.171198</LatitudeDegrees>
              <LongitudeDegrees>16.934963</LongitudeDegrees>
            </Position>
            <AltitudeMeters>604.0</AltitudeMeters>
            <DistanceMeters>66138.219570222</DistanceMeters>
          </Trackpoint>
          <Trackpoint>
            <Position>
              <LatitudeDegrees>50.171105</LatitudeDegrees>
              <LongitudeDegrees>16.935073</LongitudeDegrees>
            </Position>
            <AltitudeMeters>603.0</AltitudeMeters>
            <DistanceMeters>66151.205588764</DistanceMeters>
          </Trackpoint>
          <Trackpoint>
            <Position>
              <LatitudeDegrees>50.171037</LatitudeDegrees>
              <LongitudeDegrees>16.935217</LongitudeDegrees>
            </Position>
            <AltitudeMeters>602.0</AltitudeMeters>
            <DistanceMeters>66163.959717393</DistanceMeters>
          </Trackpoint>
          <Trackpoint>
            <Position>
              <LatitudeDegrees>50.170962</LatitudeDegrees>
              <LongitudeDegrees>16.93535</LongitudeDegrees>
            </Position>
            <AltitudeMeters>600.0</AltitudeMeters>
            <DistanceMeters>66176.592195808</DistanceMeters>
          </Trackpoint>
          <Trackpoint>
            <Position>
              <LatitudeDegrees>50.170953</LatitudeDegrees>
              <LongitudeDegrees>16.935385</LongitudeDegrees>
            </Position>
            <AltitudeMeters>600.0</AltitudeMeters>
            <DistanceMeters>66179.279957173</DistanceMeters>
          </Trackpoint>
          <Trackpoint>
            <Position>
              <LatitudeDegrees>50.170942</LatitudeDegrees>
              <LongitudeDegrees>16.935413</LongitudeDegrees>
            </Position>
            <AltitudeMeters>599.0</AltitudeMeters>
            <DistanceMeters>66181.623093208</DistanceMeters>
          </Trackpoint>
          <Trackpoint>
            <Position>
              <LatitudeDegrees>50.170925</LatitudeDegrees>
              <LongitudeDegrees>16.935443</LongitudeDegrees>
            </Position>
            <AltitudeMeters>599.0</AltitudeMeters>
            <DistanceMeters>66184.477060438</DistanceMeters>
          </Trackpoint>
          <Trackpoint>
            <Position>
              <LatitudeDegrees>50.170908</LatitudeDegrees>
              <LongitudeDegrees>16.935475</LongitudeDegrees>
            </Position>
            <AltitudeMeters>598.0</AltitudeMeters>
            <DistanceMeters>66187.441223791</DistanceMeters>
          </Trackpoint>
          <Trackpoint>
            <Position>
              <LatitudeDegrees>50.170843</LatitudeDegrees>
              <LongitudeDegrees>16.935588</LongitudeDegrees>
            </Position>
            <AltitudeMeters>597.0</AltitudeMeters>
            <DistanceMeters>66198.268849683</DistanceMeters>
          </Trackpoint>
          <Trackpoint>
            <Position>
              <LatitudeDegrees>50.170757</LatitudeDegrees>
              <LongitudeDegrees>16.935693</LongitudeDegrees>
            </Position>
            <AltitudeMeters>596.0</AltitudeMeters>
            <DistanceMeters>66210.420384978</DistanceMeters>
          </Trackpoint>
          <Trackpoint>
            <Position>
              <LatitudeDegrees>50.170672</LatitudeDegrees>
              <LongitudeDegrees>16.935792</LongitudeDegrees>
            </Position>
            <AltitudeMeters>595.0</AltitudeMeters>
            <DistanceMeters>66222.223605698</DistanceMeters>
          </Trackpoint>
          <Trackpoint>
            <Position>
              <LatitudeDegrees>50.170597</LatitudeDegrees>
              <LongitudeDegrees>16.935903</LongitudeDegrees>
            </Position>
            <AltitudeMeters>594.0</AltitudeMeters>
            <DistanceMeters>66233.725371646</DistanceMeters>
          </Trackpoint>
          <Trackpoint>
            <Position>
              <LatitudeDegrees>50.170515</LatitudeDegrees>
              <LongitudeDegrees>16.936015</LongitudeDegrees>
            </Position>
            <AltitudeMeters>593.0</AltitudeMeters>
            <DistanceMeters>66245.851614461</DistanceMeters>
          </Trackpoint>
          <Trackpoint>
            <Position>
              <LatitudeDegrees>50.170443</LatitudeDegrees>
              <LongitudeDegrees>16.936118</LongitudeDegrees>
            </Position>
            <AltitudeMeters>592.0</AltitudeMeters>
            <DistanceMeters>66256.72085961</DistanceMeters>
          </Trackpoint>
          <Trackpoint>
            <Position>
              <LatitudeDegrees>50.170365</LatitudeDegrees>
              <LongitudeDegrees>16.936208</LongitudeDegrees>
            </Position>
            <AltitudeMeters>591.0</AltitudeMeters>
            <DistanceMeters>66267.516329335</DistanceMeters>
          </Trackpoint>
          <Trackpoint>
            <Position>
              <LatitudeDegrees>50.170293</LatitudeDegrees>
              <LongitudeDegrees>16.936332</LongitudeDegrees>
            </Position>
            <AltitudeMeters>590.0</AltitudeMeters>
            <DistanceMeters>66279.44814333</DistanceMeters>
          </Trackpoint>
          <Trackpoint>
            <Position>
              <LatitudeDegrees>50.170208</LatitudeDegrees>
              <LongitudeDegrees>16.936432</LongitudeDegrees>
            </Position>
            <AltitudeMeters>589.0</AltitudeMeters>
            <DistanceMeters>66291.294129484</DistanceMeters>
          </Trackpoint>
          <Trackpoint>
            <Position>
              <LatitudeDegrees>50.170128</LatitudeDegrees>
              <LongitudeDegrees>16.936523</LongitudeDegrees>
            </Position>
            <AltitudeMeters>589.0</AltitudeMeters>
            <DistanceMeters>66302.310672835</DistanceMeters>
          </Trackpoint>
          <Trackpoint>
            <Position>
              <LatitudeDegrees>50.170055</LatitudeDegrees>
              <LongitudeDegrees>16.936608</LongitudeDegrees>
            </Position>
            <AltitudeMeters>588.0</AltitudeMeters>
            <DistanceMeters>66312.446954686</DistanceMeters>
          </Trackpoint>
          <Trackpoint>
            <Position>
              <LatitudeDegrees>50.169985</LatitudeDegrees>
              <LongitudeDegrees>16.936702</LongitudeDegrees>
            </Position>
            <AltitudeMeters>587.0</AltitudeMeters>
            <DistanceMeters>66322.723468882</DistanceMeters>
          </Trackpoint>
          <Trackpoint>
            <Position>
              <LatitudeDegrees>50.169893</LatitudeDegrees>
              <LongitudeDegrees>16.936803</LongitudeDegrees>
            </Position>
            <AltitudeMeters>588.0</AltitudeMeters>
            <DistanceMeters>66335.241412664</DistanceMeters>
          </Trackpoint>
          <Trackpoint>
            <Position>
              <LatitudeDegrees>50.169823</LatitudeDegrees>
              <LongitudeDegrees>16.936893</LongitudeDegrees>
            </Position>
            <AltitudeMeters>587.0</AltitudeMeters>
            <DistanceMeters>66345.334394997</DistanceMeters>
          </Trackpoint>
          <Trackpoint>
            <Position>
              <LatitudeDegrees>50.169753</LatitudeDegrees>
              <LongitudeDegrees>16.936988</LongitudeDegrees>
            </Position>
            <AltitudeMeters>586.0</AltitudeMeters>
            <DistanceMeters>66355.657375773</DistanceMeters>
          </Trackpoint>
          <Trackpoint>
            <Position>
              <LatitudeDegrees>50.169682</LatitudeDegrees>
              <LongitudeDegrees>16.93708</LongitudeDegrees>
            </Position>
            <AltitudeMeters>586.0</AltitudeMeters>
            <DistanceMeters>66365.927297529</DistanceMeters>
          </Trackpoint>
          <Trackpoint>
            <Position>
              <LatitudeDegrees>50.169632</LatitudeDegrees>
              <LongitudeDegrees>16.937217</LongitudeDegrees>
            </Position>
            <AltitudeMeters>585.0</AltitudeMeters>
            <DistanceMeters>66377.168600378</DistanceMeters>
          </Trackpoint>
          <Trackpoint>
            <Position>
              <LatitudeDegrees>50.169553</LatitudeDegrees>
              <LongitudeDegrees>16.937328</LongitudeDegrees>
            </Position>
            <AltitudeMeters>585.0</AltitudeMeters>
            <DistanceMeters>66388.997804264</DistanceMeters>
          </Trackpoint>
          <Trackpoint>
            <Position>
              <LatitudeDegrees>50.16949</LatitudeDegrees>
              <LongitudeDegrees>16.937442</LongitudeDegrees>
            </Position>
            <AltitudeMeters>585.0</AltitudeMeters>
            <DistanceMeters>66399.732038071</DistanceMeters>
          </Trackpoint>
          <Trackpoint>
            <Position>
              <LatitudeDegrees>50.16943</LatitudeDegrees>
              <LongitudeDegrees>16.937588</LongitudeDegrees>
            </Position>
            <AltitudeMeters>584.0</AltitudeMeters>
            <DistanceMeters>66412.098661485</DistanceMeters>
          </Trackpoint>
          <Trackpoint>
            <Position>
              <LatitudeDegrees>50.169378</LatitudeDegrees>
              <LongitudeDegrees>16.937753</LongitudeDegrees>
            </Position>
            <AltitudeMeters>583.0</AltitudeMeters>
            <DistanceMeters>66425.208215821</DistanceMeters>
          </Trackpoint>
          <Trackpoint>
            <Position>
              <LatitudeDegrees>50.169348</LatitudeDegrees>
              <LongitudeDegrees>16.937905</LongitudeDegrees>
            </Position>
            <AltitudeMeters>582.0</AltitudeMeters>
            <DistanceMeters>66436.547097089</DistanceMeters>
          </Trackpoint>
          <Trackpoint>
            <Position>
              <LatitudeDegrees>50.169312</LatitudeDegrees>
              <LongitudeDegrees>16.938067</LongitudeDegrees>
            </Position>
            <AltitudeMeters>582.0</AltitudeMeters>
            <DistanceMeters>66448.771610783</DistanceMeters>
          </Trackpoint>
          <Trackpoint>
            <Position>
              <LatitudeDegrees>50.169265</LatitudeDegrees>
              <LongitudeDegrees>16.93821</LongitudeDegrees>
            </Position>
            <AltitudeMeters>581.0</AltitudeMeters>
            <DistanceMeters>66460.230114678</DistanceMeters>
          </Trackpoint>
          <Trackpoint>
            <Position>
              <LatitudeDegrees>50.169202</LatitudeDegrees>
              <LongitudeDegrees>16.938318</LongitudeDegrees>
            </Position>
            <AltitudeMeters>579.0</AltitudeMeters>
            <DistanceMeters>66470.644106136</DistanceMeters>
          </Trackpoint>
          <Trackpoint>
            <Position>
              <LatitudeDegrees>50.16916</LatitudeDegrees>
              <LongitudeDegrees>16.938467</LongitudeDegrees>
            </Position>
            <AltitudeMeters>577.0</AltitudeMeters>
            <DistanceMeters>66482.249821118</DistanceMeters>
          </Trackpoint>
          <Trackpoint>
            <Position>
              <LatitudeDegrees>50.169095</LatitudeDegrees>
              <LongitudeDegrees>16.938577</LongitudeDegrees>
            </Position>
            <AltitudeMeters>575.0</AltitudeMeters>
            <DistanceMeters>66492.919505918</DistanceMeters>
          </Trackpoint>
          <Trackpoint>
            <Position>
              <LatitudeDegrees>50.169015</LatitudeDegrees>
              <LongitudeDegrees>16.938715</LongitudeDegrees>
            </Position>
            <AltitudeMeters>574.0</AltitudeMeters>
            <DistanceMeters>66506.188924163</DistanceMeters>
          </Trackpoint>
          <Trackpoint>
            <Position>
              <LatitudeDegrees>50.168952</LatitudeDegrees>
              <LongitudeDegrees>16.938835</LongitudeDegrees>
            </Position>
            <AltitudeMeters>573.0</AltitudeMeters>
            <DistanceMeters>66517.250458226</DistanceMeters>
          </Trackpoint>
          <Trackpoint>
            <Position>
              <LatitudeDegrees>50.168848</LatitudeDegrees>
              <LongitudeDegrees>16.938925</LongitudeDegrees>
            </Position>
            <AltitudeMeters>569.0</AltitudeMeters>
            <DistanceMeters>66530.485124553</DistanceMeters>
          </Trackpoint>
          <Trackpoint>
            <Position>
              <LatitudeDegrees>50.168773</LatitudeDegrees>
              <LongitudeDegrees>16.939037</LongitudeDegrees>
            </Position>
            <AltitudeMeters>568.0</AltitudeMeters>
            <DistanceMeters>66542.037027846</DistanceMeters>
          </Trackpoint>
          <Trackpoint>
            <Position>
              <LatitudeDegrees>50.168695</LatitudeDegrees>
              <LongitudeDegrees>16.93915</LongitudeDegrees>
            </Position>
            <AltitudeMeters>567.0</AltitudeMeters>
            <DistanceMeters>66553.880345683</DistanceMeters>
          </Trackpoint>
          <Trackpoint>
            <Position>
              <LatitudeDegrees>50.168613</LatitudeDegrees>
              <LongitudeDegrees>16.93925</LongitudeDegrees>
            </Position>
            <AltitudeMeters>566.0</AltitudeMeters>
            <DistanceMeters>66565.461525477</DistanceMeters>
          </Trackpoint>
          <Trackpoint>
            <Position>
              <LatitudeDegrees>50.168517</LatitudeDegrees>
              <LongitudeDegrees>16.939335</LongitudeDegrees>
            </Position>
            <AltitudeMeters>565.0</AltitudeMeters>
            <DistanceMeters>66577.745359463</DistanceMeters>
          </Trackpoint>
          <Trackpoint>
            <Position>
              <LatitudeDegrees>50.168423</LatitudeDegrees>
              <LongitudeDegrees>16.939398</LongitudeDegrees>
            </Position>
            <AltitudeMeters>564.0</AltitudeMeters>
            <DistanceMeters>66589.131130294</DistanceMeters>
          </Trackpoint>
          <Trackpoint>
            <Position>
              <LatitudeDegrees>50.168323</LatitudeDegrees>
              <LongitudeDegrees>16.939447</LongitudeDegrees>
            </Position>
            <AltitudeMeters>563.0</AltitudeMeters>
            <DistanceMeters>66600.796602938</DistanceMeters>
          </Trackpoint>
          <Trackpoint>
            <Position>
              <LatitudeDegrees>50.16823</LatitudeDegrees>
              <LongitudeDegrees>16.93952</LongitudeDegrees>
            </Position>
            <AltitudeMeters>562.0</AltitudeMeters>
            <DistanceMeters>66612.382070398</DistanceMeters>
          </Trackpoint>
          <Trackpoint>
            <Position>
              <LatitudeDegrees>50.168163</LatitudeDegrees>
              <LongitudeDegrees>16.939613</LongitudeDegrees>
            </Position>
            <AltitudeMeters>561.0</AltitudeMeters>
            <DistanceMeters>66622.360327905</DistanceMeters>
          </Trackpoint>
          <Trackpoint>
            <Position>
              <LatitudeDegrees>50.168073</LatitudeDegrees>
              <LongitudeDegrees>16.939712</LongitudeDegrees>
            </Position>
            <AltitudeMeters>561.0</AltitudeMeters>
            <DistanceMeters>66634.614353414</DistanceMeters>
          </Trackpoint>
          <Trackpoint>
            <Position>
              <LatitudeDegrees>50.167997</LatitudeDegrees>
              <LongitudeDegrees>16.939802</LongitudeDegrees>
            </Position>
            <AltitudeMeters>560.0</AltitudeMeters>
            <DistanceMeters>66645.23186133</DistanceMeters>
          </Trackpoint>
          <Trackpoint>
            <Position>
              <LatitudeDegrees>50.167933</LatitudeDegrees>
              <LongitudeDegrees>16.939917</LongitudeDegrees>
            </Position>
            <AltitudeMeters>559.0</AltitudeMeters>
            <DistanceMeters>66656.093211092</DistanceMeters>
          </Trackpoint>
          <Trackpoint>
            <Position>
              <LatitudeDegrees>50.167848</LatitudeDegrees>
              <LongitudeDegrees>16.940025</LongitudeDegrees>
            </Position>
            <AltitudeMeters>558.0</AltitudeMeters>
            <DistanceMeters>66668.291103105</DistanceMeters>
          </Trackpoint>
          <Trackpoint>
            <Position>
              <LatitudeDegrees>50.167768</LatitudeDegrees>
              <LongitudeDegrees>16.940112</LongitudeDegrees>
            </Position>
            <AltitudeMeters>557.0</AltitudeMeters>
            <DistanceMeters>66679.142471536</DistanceMeters>
          </Trackpoint>
          <Trackpoint>
            <Position>
              <LatitudeDegrees>50.167685</LatitudeDegrees>
              <LongitudeDegrees>16.940207</LongitudeDegrees>
            </Position>
            <AltitudeMeters>556.0</AltitudeMeters>
            <DistanceMeters>66690.597428577</DistanceMeters>
          </Trackpoint>
          <Trackpoint>
            <Position>
              <LatitudeDegrees>50.167608</LatitudeDegrees>
              <LongitudeDegrees>16.940298</LongitudeDegrees>
            </Position>
            <AltitudeMeters>556.0</AltitudeMeters>
            <DistanceMeters>66701.345953966</DistanceMeters>
          </Trackpoint>
          <Trackpoint>
            <Position>
              <LatitudeDegrees>50.16753</LatitudeDegrees>
              <LongitudeDegrees>16.940392</LongitudeDegrees>
            </Position>
            <AltitudeMeters>555.0</AltitudeMeters>
            <DistanceMeters>66712.313206048</DistanceMeters>
          </Trackpoint>
          <Trackpoint>
            <Position>
              <LatitudeDegrees>50.167448</LatitudeDegrees>
              <LongitudeDegrees>16.940477</LongitudeDegrees>
            </Position>
            <AltitudeMeters>555.0</AltitudeMeters>
            <DistanceMeters>66723.268512799</DistanceMeters>
          </Trackpoint>
          <Trackpoint>
            <Position>
              <LatitudeDegrees>50.167365</LatitudeDegrees>
              <LongitudeDegrees>16.940593</LongitudeDegrees>
            </Position>
            <AltitudeMeters>555.0</AltitudeMeters>
            <DistanceMeters>66735.667223272</DistanceMeters>
          </Trackpoint>
          <Trackpoint>
            <Position>
              <LatitudeDegrees>50.167288</LatitudeDegrees>
              <LongitudeDegrees>16.940692</LongitudeDegrees>
            </Position>
            <AltitudeMeters>554.0</AltitudeMeters>
            <DistanceMeters>66746.76990644</DistanceMeters>
          </Trackpoint>
          <Trackpoint>
            <Position>
              <LatitudeDegrees>50.167198</LatitudeDegrees>
              <LongitudeDegrees>16.940787</LongitudeDegrees>
            </Position>
            <AltitudeMeters>553.0</AltitudeMeters>
            <DistanceMeters>66758.861845812</DistanceMeters>
          </Trackpoint>
          <Trackpoint>
            <Position>
              <LatitudeDegrees>50.167125</LatitudeDegrees>
              <LongitudeDegrees>16.94089</LongitudeDegrees>
            </Position>
            <AltitudeMeters>553.0</AltitudeMeters>
            <DistanceMeters>66769.813855007</DistanceMeters>
          </Trackpoint>
          <Trackpoint>
            <Position>
              <LatitudeDegrees>50.16705</LatitudeDegrees>
              <LongitudeDegrees>16.940978</LongitudeDegrees>
            </Position>
            <AltitudeMeters>552.0</AltitudeMeters>
            <DistanceMeters>66780.256421892</DistanceMeters>
          </Trackpoint>
          <Trackpoint>
            <Position>
              <LatitudeDegrees>50.16697</LatitudeDegrees>
              <LongitudeDegrees>16.94107</LongitudeDegrees>
            </Position>
            <AltitudeMeters>550.0</AltitudeMeters>
            <DistanceMeters>66791.315914892</DistanceMeters>
          </Trackpoint>
          <Trackpoint>
            <Position>
              <LatitudeDegrees>50.166888</LatitudeDegrees>
              <LongitudeDegrees>16.941187</LongitudeDegrees>
            </Position>
            <AltitudeMeters>549.0</AltitudeMeters>
            <DistanceMeters>66803.68034752</DistanceMeters>
          </Trackpoint>
          <Trackpoint>
            <Position>
              <LatitudeDegrees>50.166815</LatitudeDegrees>
              <LongitudeDegrees>16.94127</LongitudeDegrees>
            </Position>
            <AltitudeMeters>548.0</AltitudeMeters>
            <DistanceMeters>66813.732089922</DistanceMeters>
          </Trackpoint>
          <Trackpoint>
            <Position>
              <LatitudeDegrees>50.166738</LatitudeDegrees>
              <LongitudeDegrees>16.941348</LongitudeDegrees>
            </Position>
            <AltitudeMeters>547.0</AltitudeMeters>
            <DistanceMeters>66823.948235161</DistanceMeters>
          </Trackpoint>
          <Trackpoint>
            <Position>
              <LatitudeDegrees>50.166657</LatitudeDegrees>
              <LongitudeDegrees>16.941413</LongitudeDegrees>
            </Position>
            <AltitudeMeters>546.0</AltitudeMeters>
            <DistanceMeters>66834.084962437</DistanceMeters>
          </Trackpoint>
          <Trackpoint>
            <Position>
              <LatitudeDegrees>50.166563</LatitudeDegrees>
              <LongitudeDegrees>16.941508</LongitudeDegrees>
            </Position>
            <AltitudeMeters>545.0</AltitudeMeters>
            <DistanceMeters>66846.54832374</DistanceMeters>
          </Trackpoint>
          <Trackpoint>
            <Position>
              <LatitudeDegrees>50.166468</LatitudeDegrees>
              <LongitudeDegrees>16.941602</LongitudeDegrees>
            </Position>
            <AltitudeMeters>545.0</AltitudeMeters>
            <DistanceMeters>66859.066628203</DistanceMeters>
          </Trackpoint>
          <Trackpoint>
            <Position>
              <LatitudeDegrees>50.166375</LatitudeDegrees>
              <LongitudeDegrees>16.941678</LongitudeDegrees>
            </Position>
            <AltitudeMeters>544.0</AltitudeMeters>
            <DistanceMeters>66870.749891254</DistanceMeters>
          </Trackpoint>
          <Trackpoint>
            <Position>
              <LatitudeDegrees>50.166293</LatitudeDegrees>
              <LongitudeDegrees>16.941775</LongitudeDegrees>
            </Position>
            <AltitudeMeters>543.0</AltitudeMeters>
            <DistanceMeters>66882.20051176</DistanceMeters>
          </Trackpoint>
          <Trackpoint>
            <Position>
              <LatitudeDegrees>50.166215</LatitudeDegrees>
              <LongitudeDegrees>16.941882</LongitudeDegrees>
            </Position>
            <AltitudeMeters>541.0</AltitudeMeters>
            <DistanceMeters>66893.757885629</DistanceMeters>
          </Trackpoint>
          <Trackpoint>
            <Position>
              <LatitudeDegrees>50.166148</LatitudeDegrees>
              <LongitudeDegrees>16.94198</LongitudeDegrees>
            </Position>
            <AltitudeMeters>540.0</AltitudeMeters>
            <DistanceMeters>66903.976682231</DistanceMeters>
          </Trackpoint>
          <Trackpoint>
            <Position>
              <LatitudeDegrees>50.166062</LatitudeDegrees>
              <LongitudeDegrees>16.942085</LongitudeDegrees>
            </Position>
            <AltitudeMeters>539.0</AltitudeMeters>
            <DistanceMeters>66916.128589081</DistanceMeters>
          </Trackpoint>
          <Trackpoint>
            <Position>
              <LatitudeDegrees>50.165983</LatitudeDegrees>
              <LongitudeDegrees>16.942202</LongitudeDegrees>
            </Position>
            <AltitudeMeters>538.0</AltitudeMeters>
            <DistanceMeters>66928.248873054</DistanceMeters>
          </Trackpoint>
          <Trackpoint>
            <Position>
              <LatitudeDegrees>50.165893</LatitudeDegrees>
              <LongitudeDegrees>16.942285</LongitudeDegrees>
            </Position>
            <AltitudeMeters>537.0</AltitudeMeters>
            <DistanceMeters>66939.883341065</DistanceMeters>
          </Trackpoint>
          <Trackpoint>
            <Position>
              <LatitudeDegrees>50.165812</LatitudeDegrees>
              <LongitudeDegrees>16.9424</LongitudeDegrees>
            </Position>
            <AltitudeMeters>537.0</AltitudeMeters>
            <DistanceMeters>66952.069753056</DistanceMeters>
          </Trackpoint>
          <Trackpoint>
            <Position>
              <LatitudeDegrees>50.165728</LatitudeDegrees>
              <LongitudeDegrees>16.942507</LongitudeDegrees>
            </Position>
            <AltitudeMeters>536.0</AltitudeMeters>
            <DistanceMeters>66964.136649204</DistanceMeters>
          </Trackpoint>
          <Trackpoint>
            <Position>
              <LatitudeDegrees>50.165623</LatitudeDegrees>
              <LongitudeDegrees>16.942565</LongitudeDegrees>
            </Position>
            <AltitudeMeters>537.0</AltitudeMeters>
            <DistanceMeters>66976.533174561</DistanceMeters>
          </Trackpoint>
          <Trackpoint>
            <Position>
              <LatitudeDegrees>50.165523</LatitudeDegrees>
              <LongitudeDegrees>16.94256</LongitudeDegrees>
            </Position>
            <AltitudeMeters>536.0</AltitudeMeters>
            <DistanceMeters>66987.669154078</DistanceMeters>
          </Trackpoint>
          <Trackpoint>
            <Position>
              <LatitudeDegrees>50.165423</LatitudeDegrees>
              <LongitudeDegrees>16.942575</LongitudeDegrees>
            </Position>
            <AltitudeMeters>535.0</AltitudeMeters>
            <DistanceMeters>66998.850855131</DistanceMeters>
          </Trackpoint>
          <Trackpoint>
            <Position>
              <LatitudeDegrees>50.16539</LatitudeDegrees>
              <LongitudeDegrees>16.942577</LongitudeDegrees>
            </Position>
            <AltitudeMeters>535.0</AltitudeMeters>
            <DistanceMeters>67002.526313519</DistanceMeters>
          </Trackpoint>
          <Trackpoint>
            <Position>
              <LatitudeDegrees>50.16536</LatitudeDegrees>
              <LongitudeDegrees>16.94258</LongitudeDegrees>
            </Position>
            <AltitudeMeters>535.0</AltitudeMeters>
            <DistanceMeters>67005.872549433</DistanceMeters>
          </Trackpoint>
          <Trackpoint>
            <Position>
              <LatitudeDegrees>50.16533</LatitudeDegrees>
              <LongitudeDegrees>16.942585</LongitudeDegrees>
            </Position>
            <AltitudeMeters>534.0</AltitudeMeters>
            <DistanceMeters>67009.229562302</DistanceMeters>
          </Trackpoint>
          <Trackpoint>
            <Position>
              <LatitudeDegrees>50.165298</LatitudeDegrees>
              <LongitudeDegrees>16.942592</LongitudeDegrees>
            </Position>
            <AltitudeMeters>534.0</AltitudeMeters>
            <DistanceMeters>67012.825541927</DistanceMeters>
          </Trackpoint>
          <Trackpoint>
            <Position>
              <LatitudeDegrees>50.16526</LatitudeDegrees>
              <LongitudeDegrees>16.942595</LongitudeDegrees>
            </Position>
            <AltitudeMeters>534.0</AltitudeMeters>
            <DistanceMeters>67017.060365633</DistanceMeters>
          </Trackpoint>
          <Trackpoint>
            <Position>
              <LatitudeDegrees>50.165237</LatitudeDegrees>
              <LongitudeDegrees>16.942592</LongitudeDegrees>
            </Position>
            <AltitudeMeters>534.0</AltitudeMeters>
            <DistanceMeters>67019.627846072</DistanceMeters>
          </Trackpoint>
          <Trackpoint>
            <Position>
              <LatitudeDegrees>50.165213</LatitudeDegrees>
              <LongitudeDegrees>16.942585</LongitudeDegrees>
            </Position>
            <AltitudeMeters>534.0</AltitudeMeters>
            <DistanceMeters>67022.345676554</DistanceMeters>
          </Trackpoint>
          <Trackpoint>
            <Position>
              <LatitudeDegrees>50.165188</LatitudeDegrees>
              <LongitudeDegrees>16.942577</LongitudeDegrees>
            </Position>
            <AltitudeMeters>534.0</AltitudeMeters>
            <DistanceMeters>67025.186959423</DistanceMeters>
          </Trackpoint>
          <Trackpoint>
            <Position>
              <LatitudeDegrees>50.165165</LatitudeDegrees>
              <LongitudeDegrees>16.942565</LongitudeDegrees>
            </Position>
            <AltitudeMeters>535.0</AltitudeMeters>
            <DistanceMeters>67027.884781065</DistanceMeters>
          </Trackpoint>
          <Trackpoint>
            <Position>
              <LatitudeDegrees>50.165142</LatitudeDegrees>
              <LongitudeDegrees>16.942557</LongitudeDegrees>
            </Position>
            <AltitudeMeters>535.0</AltitudeMeters>
            <DistanceMeters>67030.507931509</DistanceMeters>
          </Trackpoint>
          <Trackpoint>
            <Position>
              <LatitudeDegrees>50.16512</LatitudeDegrees>
              <LongitudeDegrees>16.942547</LongitudeDegrees>
            </Position>
            <AltitudeMeters>535.0</AltitudeMeters>
            <DistanceMeters>67033.055994492</DistanceMeters>
          </Trackpoint>
          <Trackpoint>
            <Position>
              <LatitudeDegrees>50.165098</LatitudeDegrees>
              <LongitudeDegrees>16.942537</LongitudeDegrees>
            </Position>
            <AltitudeMeters>535.0</AltitudeMeters>
            <DistanceMeters>67035.605828808</DistanceMeters>
          </Trackpoint>
          <Trackpoint>
            <Position>
              <LatitudeDegrees>50.165078</LatitudeDegrees>
              <LongitudeDegrees>16.942522</LongitudeDegrees>
            </Position>
            <AltitudeMeters>535.0</AltitudeMeters>
            <DistanceMeters>67038.076523381</DistanceMeters>
          </Trackpoint>
          <Trackpoint>
            <Position>
              <LatitudeDegrees>50.164973</LatitudeDegrees>
              <LongitudeDegrees>16.942472</LongitudeDegrees>
            </Position>
            <AltitudeMeters>534.0</AltitudeMeters>
            <DistanceMeters>67050.294756632</DistanceMeters>
          </Trackpoint>
          <Trackpoint>
            <Position>
              <LatitudeDegrees>50.164875</LatitudeDegrees>
              <LongitudeDegrees>16.942415</LongitudeDegrees>
            </Position>
            <AltitudeMeters>535.0</AltitudeMeters>
            <DistanceMeters>67061.934656415</DistanceMeters>
          </Trackpoint>
          <Trackpoint>
            <Position>
              <LatitudeDegrees>50.164778</LatitudeDegrees>
              <LongitudeDegrees>16.942372</LongitudeDegrees>
            </Position>
            <AltitudeMeters>535.0</AltitudeMeters>
            <DistanceMeters>67073.158272873</DistanceMeters>
          </Trackpoint>
          <Trackpoint>
            <Position>
              <LatitudeDegrees>50.164663</LatitudeDegrees>
              <LongitudeDegrees>16.942392</LongitudeDegrees>
            </Position>
            <AltitudeMeters>534.0</AltitudeMeters>
            <DistanceMeters>67086.037460511</DistanceMeters>
          </Trackpoint>
          <Trackpoint>
            <Position>
              <LatitudeDegrees>50.164557</LatitudeDegrees>
              <LongitudeDegrees>16.942417</LongitudeDegrees>
            </Position>
            <AltitudeMeters>534.0</AltitudeMeters>
            <DistanceMeters>67097.969274506</DistanceMeters>
          </Trackpoint>
          <Trackpoint>
            <Position>
              <LatitudeDegrees>50.164487</LatitudeDegrees>
              <LongitudeDegrees>16.942415</LongitudeDegrees>
            </Position>
            <AltitudeMeters>533.0</AltitudeMeters>
            <DistanceMeters>67105.761465084</DistanceMeters>
          </Trackpoint>
          <Trackpoint>
            <Position>
              <LatitudeDegrees>50.164462</LatitudeDegrees>
              <LongitudeDegrees>16.942415</LongitudeDegrees>
            </Position>
            <AltitudeMeters>533.0</AltitudeMeters>
            <DistanceMeters>67108.543330558</DistanceMeters>
          </Trackpoint>
          <Trackpoint>
            <Position>
              <LatitudeDegrees>50.164437</LatitudeDegrees>
              <LongitudeDegrees>16.942417</LongitudeDegrees>
            </Position>
            <AltitudeMeters>533.0</AltitudeMeters>
            <DistanceMeters>67111.32844019</DistanceMeters>
          </Trackpoint>
          <Trackpoint>
            <Position>
              <LatitudeDegrees>50.164413</LatitudeDegrees>
              <LongitudeDegrees>16.94242</LongitudeDegrees>
            </Position>
            <AltitudeMeters>533.0</AltitudeMeters>
            <DistanceMeters>67114.007789136</DistanceMeters>
          </Trackpoint>
          <Trackpoint>
            <Position>
              <LatitudeDegrees>50.16439</LatitudeDegrees>
              <LongitudeDegrees>16.942423</LongitudeDegrees>
            </Position>
            <AltitudeMeters>533.0</AltitudeMeters>
            <DistanceMeters>67116.577027521</DistanceMeters>
          </Trackpoint>
          <Trackpoint>
            <Position>
              <LatitudeDegrees>50.164365</LatitudeDegrees>
              <LongitudeDegrees>16.942425</LongitudeDegrees>
            </Position>
            <AltitudeMeters>533.0</AltitudeMeters>
            <DistanceMeters>67119.363757817</DistanceMeters>
          </Trackpoint>
          <Trackpoint>
            <Position>
              <LatitudeDegrees>50.16434</LatitudeDegrees>
              <LongitudeDegrees>16.942418</LongitudeDegrees>
            </Position>
            <AltitudeMeters>533.0</AltitudeMeters>
            <DistanceMeters>67122.192299443</DistanceMeters>
          </Trackpoint>
          <Trackpoint>
            <Position>
              <LatitudeDegrees>50.164318</LatitudeDegrees>
              <LongitudeDegrees>16.942412</LongitudeDegrees>
            </Position>
            <AltitudeMeters>533.0</AltitudeMeters>
            <DistanceMeters>67124.677570512</DistanceMeters>
          </Trackpoint>
          <Trackpoint>
            <Position>
              <LatitudeDegrees>50.164297</LatitudeDegrees>
              <LongitudeDegrees>16.942407</LongitudeDegrees>
            </Position>
            <AltitudeMeters>533.0</AltitudeMeters>
            <DistanceMeters>67127.039897171</DistanceMeters>
          </Trackpoint>
          <Trackpoint>
            <Position>
              <LatitudeDegrees>50.164257</LatitudeDegrees>
              <LongitudeDegrees>16.942407</LongitudeDegrees>
            </Position>
            <AltitudeMeters>533.0</AltitudeMeters>
            <DistanceMeters>67131.490963079</DistanceMeters>
          </Trackpoint>
          <Trackpoint>
            <Position>
              <LatitudeDegrees>50.164232</LatitudeDegrees>
              <LongitudeDegrees>16.942403</LongitudeDegrees>
            </Position>
            <AltitudeMeters>533.0</AltitudeMeters>
            <DistanceMeters>67134.28739763</DistanceMeters>
          </Trackpoint>
          <Trackpoint>
            <Position>
              <LatitudeDegrees>50.164207</LatitudeDegrees>
              <LongitudeDegrees>16.942397</LongitudeDegrees>
            </Position>
            <AltitudeMeters>533.0</AltitudeMeters>
            <DistanceMeters>67137.10314036</DistanceMeters>
          </Trackpoint>
          <Trackpoint>
            <Position>
              <LatitudeDegrees>50.164185</LatitudeDegrees>
              <LongitudeDegrees>16.942392</LongitudeDegrees>
            </Position>
            <AltitudeMeters>533.0</AltitudeMeters>
            <DistanceMeters>67139.577487108</DistanceMeters>
          </Trackpoint>
          <Trackpoint>
            <Position>
              <LatitudeDegrees>50.164072</LatitudeDegrees>
              <LongitudeDegrees>16.942397</LongitudeDegrees>
            </Position>
            <AltitudeMeters>532.0</AltitudeMeters>
            <DistanceMeters>67152.159469072</DistanceMeters>
          </Trackpoint>
          <Trackpoint>
            <Position>
              <LatitudeDegrees>50.16398</LatitudeDegrees>
              <LongitudeDegrees>16.94241</LongitudeDegrees>
            </Position>
            <AltitudeMeters>532.0</AltitudeMeters>
            <DistanceMeters>67162.440815037</DistanceMeters>
          </Trackpoint>
          <Trackpoint>
            <Position>
              <LatitudeDegrees>50.16389</LatitudeDegrees>
              <LongitudeDegrees>16.942402</LongitudeDegrees>
            </Position>
            <AltitudeMeters>532.0</AltitudeMeters>
            <DistanceMeters>67172.474124172</DistanceMeters>
          </Trackpoint>
          <Trackpoint>
            <Position>
              <LatitudeDegrees>50.163782</LatitudeDegrees>
              <LongitudeDegrees>16.94245</LongitudeDegrees>
            </Position>
            <AltitudeMeters>532.0</AltitudeMeters>
            <DistanceMeters>67184.972575772</DistanceMeters>
          </Trackpoint>
          <Trackpoint>
            <Position>
              <LatitudeDegrees>50.16372</LatitudeDegrees>
              <LongitudeDegrees>16.942558</LongitudeDegrees>
            </Position>
            <AltitudeMeters>532.0</AltitudeMeters>
            <DistanceMeters>67195.312600196</DistanceMeters>
          </Trackpoint>
          <Trackpoint>
            <Position>
              <LatitudeDegrees>50.163727</LatitudeDegrees>
              <LongitudeDegrees>16.942705</LongitudeDegrees>
            </Position>
            <AltitudeMeters>531.0</AltitudeMeters>
            <DistanceMeters>67205.82240015</DistanceMeters>
          </Trackpoint>
          <Trackpoint>
            <Position>
              <LatitudeDegrees>50.163758</LatitudeDegrees>
              <LongitudeDegrees>16.942867</LongitudeDegrees>
            </Position>
            <AltitudeMeters>530.0</AltitudeMeters>
            <DistanceMeters>67217.876942453</DistanceMeters>
          </Trackpoint>
          <Trackpoint>
            <Position>
              <LatitudeDegrees>50.163785</LatitudeDegrees>
              <LongitudeDegrees>16.943015</LongitudeDegrees>
            </Position>
            <AltitudeMeters>530.0</AltitudeMeters>
            <DistanceMeters>67228.84872212</DistanceMeters>
          </Trackpoint>
          <Trackpoint>
            <Position>
              <LatitudeDegrees>50.163823</LatitudeDegrees>
              <LongitudeDegrees>16.943172</LongitudeDegrees>
            </Position>
            <AltitudeMeters>530.0</AltitudeMeters>
            <DistanceMeters>67240.814543952</DistanceMeters>
          </Trackpoint>
          <Trackpoint>
            <Position>
              <LatitudeDegrees>50.163835</LatitudeDegrees>
              <LongitudeDegrees>16.943337</LongitudeDegrees>
            </Position>
            <AltitudeMeters>530.0</AltitudeMeters>
            <DistanceMeters>67252.654048867</DistanceMeters>
          </Trackpoint>
          <Trackpoint>
            <Position>
              <LatitudeDegrees>50.163845</LatitudeDegrees>
              <LongitudeDegrees>16.943492</LongitudeDegrees>
            </Position>
            <AltitudeMeters>530.0</AltitudeMeters>
            <DistanceMeters>67263.761204415</DistanceMeters>
          </Trackpoint>
          <Trackpoint>
            <Position>
              <LatitudeDegrees>50.163865</LatitudeDegrees>
              <LongitudeDegrees>16.943652</LongitudeDegrees>
            </Position>
            <AltitudeMeters>530.0</AltitudeMeters>
            <DistanceMeters>67275.384024366</DistanceMeters>
          </Trackpoint>
          <Trackpoint>
            <Position>
              <LatitudeDegrees>50.163885</LatitudeDegrees>
              <LongitudeDegrees>16.943795</LongitudeDegrees>
            </Position>
            <AltitudeMeters>530.0</AltitudeMeters>
            <DistanceMeters>67285.819671059</DistanceMeters>
          </Trackpoint>
          <Trackpoint>
            <Position>
              <LatitudeDegrees>50.163893</LatitudeDegrees>
              <LongitudeDegrees>16.943937</LongitudeDegrees>
            </Position>
            <AltitudeMeters>530.0</AltitudeMeters>
            <DistanceMeters>67295.982643772</DistanceMeters>
          </Trackpoint>
          <Trackpoint>
            <Position>
              <LatitudeDegrees>50.163908</LatitudeDegrees>
              <LongitudeDegrees>16.944083</LongitudeDegrees>
            </Position>
            <AltitudeMeters>531.0</AltitudeMeters>
            <DistanceMeters>67306.525042971</DistanceMeters>
          </Trackpoint>
          <Trackpoint>
            <Position>
              <LatitudeDegrees>50.163923</LatitudeDegrees>
              <LongitudeDegrees>16.94423</LongitudeDegrees>
            </Position>
            <AltitudeMeters>530.0</AltitudeMeters>
            <DistanceMeters>67317.138297588</DistanceMeters>
          </Trackpoint>
          <Trackpoint>
            <Position>
              <LatitudeDegrees>50.163942</LatitudeDegrees>
              <LongitudeDegrees>16.9444</LongitudeDegrees>
            </Position>
            <AltitudeMeters>530.0</AltitudeMeters>
            <DistanceMeters>67329.442697682</DistanceMeters>
          </Trackpoint>
          <Trackpoint>
            <Position>
              <LatitudeDegrees>50.163972</LatitudeDegrees>
              <LongitudeDegrees>16.944545</LongitudeDegrees>
            </Position>
            <AltitudeMeters>530.0</AltitudeMeters>
            <DistanceMeters>67340.307372517</DistanceMeters>
          </Trackpoint>
          <Trackpoint>
            <Position>
              <LatitudeDegrees>50.163995</LatitudeDegrees>
              <LongitudeDegrees>16.944708</LongitudeDegrees>
            </Position>
            <AltitudeMeters>530.0</AltitudeMeters>
            <DistanceMeters>67352.20773759</DistanceMeters>
          </Trackpoint>
          <Trackpoint>
            <Position>
              <LatitudeDegrees>50.164025</LatitudeDegrees>
              <LongitudeDegrees>16.944842</LongitudeDegrees>
            </Position>
            <AltitudeMeters>530.0</AltitudeMeters>
            <DistanceMeters>67362.327971136</DistanceMeters>
          </Trackpoint>
          <Trackpoint>
            <Position>
              <LatitudeDegrees>50.164073</LatitudeDegrees>
              <LongitudeDegrees>16.944993</LongitudeDegrees>
            </Position>
            <AltitudeMeters>530.0</AltitudeMeters>
            <DistanceMeters>67374.346878444</DistanceMeters>
          </Trackpoint>
          <Trackpoint>
            <Position>
              <LatitudeDegrees>50.16409</LatitudeDegrees>
              <LongitudeDegrees>16.945157</LongitudeDegrees>
            </Position>
            <AltitudeMeters>530.0</AltitudeMeters>
            <DistanceMeters>67386.192102283</DistanceMeters>
          </Trackpoint>
          <Trackpoint>
            <Position>
              <LatitudeDegrees>50.164077</LatitudeDegrees>
              <LongitudeDegrees>16.945295</LongitudeDegrees>
            </Position>
            <AltitudeMeters>530.0</AltitudeMeters>
            <DistanceMeters>67396.137273336</DistanceMeters>
          </Trackpoint>
          <Trackpoint>
            <Position>
              <LatitudeDegrees>50.16406</LatitudeDegrees>
              <LongitudeDegrees>16.945455</LongitudeDegrees>
            </Position>
            <AltitudeMeters>530.0</AltitudeMeters>
            <DistanceMeters>67407.70128657</DistanceMeters>
          </Trackpoint>
          <Trackpoint>
            <Position>
              <LatitudeDegrees>50.16404</LatitudeDegrees>
              <LongitudeDegrees>16.94561</LongitudeDegrees>
            </Position>
            <AltitudeMeters>531.0</AltitudeMeters>
            <DistanceMeters>67418.974675407</DistanceMeters>
          </Trackpoint>
          <Trackpoint>
            <Position>
              <LatitudeDegrees>50.164027</LatitudeDegrees>
              <LongitudeDegrees>16.945777</LongitudeDegrees>
            </Position>
            <AltitudeMeters>531.0</AltitudeMeters>
            <DistanceMeters>67430.969139876</DistanceMeters>
          </Trackpoint>
          <Trackpoint>
            <Position>
              <LatitudeDegrees>50.164015</LatitudeDegrees>
              <LongitudeDegrees>16.945927</LongitudeDegrees>
            </Position>
            <AltitudeMeters>532.0</AltitudeMeters>
            <DistanceMeters>67441.746610511</DistanceMeters>
          </Trackpoint>
          <Trackpoint>
            <Position>
              <LatitudeDegrees>50.16398</LatitudeDegrees>
              <LongitudeDegrees>16.946068</LongitudeDegrees>
            </Position>
            <AltitudeMeters>531.0</AltitudeMeters>
            <DistanceMeters>67452.52743209</DistanceMeters>
          </Trackpoint>
          <Trackpoint>
            <Position>
              <LatitudeDegrees>50.163957</LatitudeDegrees>
              <LongitudeDegrees>16.946208</LongitudeDegrees>
            </Position>
            <AltitudeMeters>531.0</AltitudeMeters>
            <DistanceMeters>67462.832026643</DistanceMeters>
          </Trackpoint>
          <Trackpoint>
            <Position>
              <LatitudeDegrees>50.163952</LatitudeDegrees>
              <LongitudeDegrees>16.946267</LongitudeDegrees>
            </Position>
            <AltitudeMeters>531.0</AltitudeMeters>
            <DistanceMeters>67467.07537113</DistanceMeters>
          </Trackpoint>
          <Trackpoint>
            <Position>
              <LatitudeDegrees>50.163925</LatitudeDegrees>
              <LongitudeDegrees>16.946292</LongitudeDegrees>
            </Position>
            <AltitudeMeters>531.0</AltitudeMeters>
            <DistanceMeters>67470.568168472</DistanceMeters>
          </Trackpoint>
          <Trackpoint>
            <Position>
              <LatitudeDegrees>50.163895</LatitudeDegrees>
              <LongitudeDegrees>16.946307</LongitudeDegrees>
            </Position>
            <AltitudeMeters>531.0</AltitudeMeters>
            <DistanceMeters>67474.07515637</DistanceMeters>
          </Trackpoint>
          <Trackpoint>
            <Position>
              <LatitudeDegrees>50.163875</LatitudeDegrees>
              <LongitudeDegrees>16.946317</LongitudeDegrees>
            </Position>
            <AltitudeMeters>531.0</AltitudeMeters>
            <DistanceMeters>67476.414435388</DistanceMeters>
          </Trackpoint>
          <Trackpoint>
            <Position>
              <LatitudeDegrees>50.163852</LatitudeDegrees>
              <LongitudeDegrees>16.946318</LongitudeDegrees>
            </Position>
            <AltitudeMeters>531.0</AltitudeMeters>
            <DistanceMeters>67478.974871972</DistanceMeters>
          </Trackpoint>
          <Trackpoint>
            <Position>
              <LatitudeDegrees>50.163823</LatitudeDegrees>
              <LongitudeDegrees>16.946308</LongitudeDegrees>
            </Position>
            <AltitudeMeters>531.0</AltitudeMeters>
            <DistanceMeters>67482.279015192</DistanceMeters>
          </Trackpoint>
          <Trackpoint>
            <Position>
              <LatitudeDegrees>50.163793</LatitudeDegrees>
              <LongitudeDegrees>16.946305</LongitudeDegrees>
            </Position>
            <AltitudeMeters>530.0</AltitudeMeters>
            <DistanceMeters>67485.623901545</DistanceMeters>
          </Trackpoint>
          <Trackpoint>
            <Position>
              <LatitudeDegrees>50.163765</LatitudeDegrees>
              <LongitudeDegrees>16.946297</LongitudeDegrees>
            </Position>
            <AltitudeMeters>530.0</AltitudeMeters>
            <DistanceMeters>67488.79272546</DistanceMeters>
          </Trackpoint>
          <Trackpoint>
            <Position>
              <LatitudeDegrees>50.163747</LatitudeDegrees>
              <LongitudeDegrees>16.946292</LongitudeDegrees>
            </Position>
            <AltitudeMeters>531.0</AltitudeMeters>
            <DistanceMeters>67490.826385956</DistanceMeters>
          </Trackpoint>
          <Trackpoint>
            <Position>
              <LatitudeDegrees>50.163725</LatitudeDegrees>
              <LongitudeDegrees>16.946287</LongitudeDegrees>
            </Position>
            <AltitudeMeters>531.0</AltitudeMeters>
            <DistanceMeters>67493.300732704</DistanceMeters>
          </Trackpoint>
          <Trackpoint>
            <Position>
              <LatitudeDegrees>50.163702</LatitudeDegrees>
              <LongitudeDegrees>16.946277</LongitudeDegrees>
            </Position>
            <AltitudeMeters>531.0</AltitudeMeters>
            <DistanceMeters>67495.958084728</DistanceMeters>
          </Trackpoint>
          <Trackpoint>
            <Position>
              <LatitudeDegrees>50.163673</LatitudeDegrees>
              <LongitudeDegrees>16.946262</LongitudeDegrees>
            </Position>
            <AltitudeMeters>531.0</AltitudeMeters>
            <DistanceMeters>67499.360518857</DistanceMeters>
          </Trackpoint>
          <Trackpoint>
            <Position>
              <LatitudeDegrees>50.163648</LatitudeDegrees>
              <LongitudeDegrees>16.946243</LongitudeDegrees>
            </Position>
            <AltitudeMeters>531.0</AltitudeMeters>
            <DistanceMeters>67502.454364527</DistanceMeters>
          </Trackpoint>
          <Trackpoint>
            <Position>
              <LatitudeDegrees>50.163617</LatitudeDegrees>
              <LongitudeDegrees>16.94623</LongitudeDegrees>
            </Position>
            <AltitudeMeters>530.0</AltitudeMeters>
            <DistanceMeters>67506.026408482</DistanceMeters>
          </Trackpoint>
          <Trackpoint>
            <Position>
              <LatitudeDegrees>50.16354</LatitudeDegrees>
              <LongitudeDegrees>16.946192</LongitudeDegrees>
            </Position>
            <AltitudeMeters>530.0</AltitudeMeters>
            <DistanceMeters>67515.014348394</DistanceMeters>
          </Trackpoint>
          <Trackpoint>
            <Position>
              <LatitudeDegrees>50.163465</LatitudeDegrees>
              <LongitudeDegrees>16.946123</LongitudeDegrees>
            </Position>
            <AltitudeMeters>530.0</AltitudeMeters>
            <DistanceMeters>67524.703346005</DistanceMeters>
          </Trackpoint>
          <Trackpoint>
            <Position>
              <LatitudeDegrees>50.16345</LatitudeDegrees>
              <LongitudeDegrees>16.946108</LongitudeDegrees>
            </Position>
            <AltitudeMeters>530.0</AltitudeMeters>
            <DistanceMeters>67526.687562054</DistanceMeters>
          </Trackpoint>
          <Trackpoint>
            <Position>
              <LatitudeDegrees>50.163377</LatitudeDegrees>
              <LongitudeDegrees>16.946007</LongitudeDegrees>
            </Position>
            <AltitudeMeters>530.0</AltitudeMeters>
            <DistanceMeters>67537.544754044</DistanceMeters>
          </Trackpoint>
          <Trackpoint>
            <Position>
              <LatitudeDegrees>50.16329</LatitudeDegrees>
              <LongitudeDegrees>16.945927</LongitudeDegrees>
            </Position>
            <AltitudeMeters>531.0</AltitudeMeters>
            <DistanceMeters>67548.782843256</DistanceMeters>
          </Trackpoint>
          <Trackpoint>
            <Position>
              <LatitudeDegrees>50.163</LatitudeDegrees>
              <LongitudeDegrees>16.945677</LongitudeDegrees>
            </Position>
            <AltitudeMeters>531.0</AltitudeMeters>
            <DistanceMeters>67585.655167694</DistanceMeters>
          </Trackpoint>
          <Trackpoint>
            <Position>
              <LatitudeDegrees>50.162838</LatitudeDegrees>
              <LongitudeDegrees>16.945742</LongitudeDegrees>
            </Position>
            <AltitudeMeters>531.0</AltitudeMeters>
            <DistanceMeters>67604.272159773</DistanceMeters>
          </Trackpoint>
          <Trackpoint>
            <Position>
              <LatitudeDegrees>50.162797</LatitudeDegrees>
              <LongitudeDegrees>16.945603</LongitudeDegrees>
            </Position>
            <AltitudeMeters>527.0</AltitudeMeters>
            <DistanceMeters>67615.183279231</DistanceMeters>
          </Trackpoint>
          <Trackpoint>
            <Position>
              <LatitudeDegrees>50.162743</LatitudeDegrees>
              <LongitudeDegrees>16.945552</LongitudeDegrees>
            </Position>
            <AltitudeMeters>528.0</AltitudeMeters>
            <DistanceMeters>67622.208189748</DistanceMeters>
          </Trackpoint>
          <Trackpoint>
            <Position>
              <LatitudeDegrees>50.162718</LatitudeDegrees>
              <LongitudeDegrees>16.945542</LongitudeDegrees>
            </Position>
            <AltitudeMeters>529.0</AltitudeMeters>
            <DistanceMeters>67625.081078515</DistanceMeters>
          </Trackpoint>
          <Trackpoint>
            <Position>
              <LatitudeDegrees>50.162688</LatitudeDegrees>
              <LongitudeDegrees>16.94552</LongitudeDegrees>
            </Position>
            <AltitudeMeters>532.0</AltitudeMeters>
            <DistanceMeters>67628.771248603</DistanceMeters>
          </Trackpoint>
          <Trackpoint>
            <Position>
              <LatitudeDegrees>50.162663</LatitudeDegrees>
              <LongitudeDegrees>16.945513</LongitudeDegrees>
            </Position>
            <AltitudeMeters>533.0</AltitudeMeters>
            <DistanceMeters>67631.598193536</DistanceMeters>
          </Trackpoint>
          <Trackpoint>
            <Position>
              <LatitudeDegrees>50.16264</LatitudeDegrees>
              <LongitudeDegrees>16.945502</LongitudeDegrees>
            </Position>
            <AltitudeMeters>534.0</AltitudeMeters>
            <DistanceMeters>67634.274170109</DistanceMeters>
          </Trackpoint>
          <Trackpoint>
            <Position>
              <LatitudeDegrees>50.162548</LatitudeDegrees>
              <LongitudeDegrees>16.945517</LongitudeDegrees>
            </Position>
            <AltitudeMeters>537.0</AltitudeMeters>
            <DistanceMeters>67644.569559237</DistanceMeters>
          </Trackpoint>
          <Trackpoint>
            <Position>
              <LatitudeDegrees>50.162457</LatitudeDegrees>
              <LongitudeDegrees>16.945517</LongitudeDegrees>
            </Position>
            <AltitudeMeters>538.0</AltitudeMeters>
            <DistanceMeters>67654.697374319</DistanceMeters>
          </Trackpoint>
          <Trackpoint>
            <Position>
              <LatitudeDegrees>50.16243</LatitudeDegrees>
              <LongitudeDegrees>16.945508</LongitudeDegrees>
            </Position>
            <AltitudeMeters>538.0</AltitudeMeters>
            <DistanceMeters>67657.767781426</DistanceMeters>
          </Trackpoint>
          <Trackpoint>
            <Position>
              <LatitudeDegrees>50.162407</LatitudeDegrees>
              <LongitudeDegrees>16.945508</LongitudeDegrees>
            </Position>
            <AltitudeMeters>539.0</AltitudeMeters>
            <DistanceMeters>67660.32821801</DistanceMeters>
          </Trackpoint>
          <Trackpoint>
            <Position>
              <LatitudeDegrees>50.162383</LatitudeDegrees>
              <LongitudeDegrees>16.945518</LongitudeDegrees>
            </Position>
            <AltitudeMeters>538.0</AltitudeMeters>
            <DistanceMeters>67663.092172545</DistanceMeters>
          </Trackpoint>
          <Trackpoint>
            <Position>
              <LatitudeDegrees>50.16236</LatitudeDegrees>
              <LongitudeDegrees>16.945523</LongitudeDegrees>
            </Position>
            <AltitudeMeters>539.0</AltitudeMeters>
            <DistanceMeters>67665.677178651</DistanceMeters>
          </Trackpoint>
          <Trackpoint>
            <Position>
              <LatitudeDegrees>50.162337</LatitudeDegrees>
              <LongitudeDegrees>16.945528</LongitudeDegrees>
            </Position>
            <AltitudeMeters>539.0</AltitudeMeters>
            <DistanceMeters>67668.262184757</DistanceMeters>
          </Trackpoint>
          <Trackpoint>
            <Position>
              <LatitudeDegrees>50.162315</LatitudeDegrees>
              <LongitudeDegrees>16.945542</LongitudeDegrees>
            </Position>
            <AltitudeMeters>540.0</AltitudeMeters>
            <DistanceMeters>67670.905909245</DistanceMeters>
          </Trackpoint>
          <Trackpoint>
            <Position>
              <LatitudeDegrees>50.162293</LatitudeDegrees>
              <LongitudeDegrees>16.945557</LongitudeDegrees>
            </Position>
            <AltitudeMeters>540.0</AltitudeMeters>
            <DistanceMeters>67673.580198037</DistanceMeters>
          </Trackpoint>
          <Trackpoint>
            <Position>
              <LatitudeDegrees>50.162277</LatitudeDegrees>
              <LongitudeDegrees>16.94558</LongitudeDegrees>
            </Position>
            <AltitudeMeters>540.0</AltitudeMeters>
            <DistanceMeters>67676.002913391</DistanceMeters>
          </Trackpoint>
          <Trackpoint>
            <Position>
              <LatitudeDegrees>50.16226</LatitudeDegrees>
              <LongitudeDegrees>16.945603</LongitudeDegrees>
            </Position>
            <AltitudeMeters>540.0</AltitudeMeters>
            <DistanceMeters>67678.506285727</DistanceMeters>
          </Trackpoint>
          <Trackpoint>
            <Position>
              <LatitudeDegrees>50.162245</LatitudeDegrees>
              <LongitudeDegrees>16.945628</LongitudeDegrees>
            </Position>
            <AltitudeMeters>540.0</AltitudeMeters>
            <DistanceMeters>67680.947566222</DistanceMeters>
          </Trackpoint>
          <Trackpoint>
            <Position>
              <LatitudeDegrees>50.162232</LatitudeDegrees>
              <LongitudeDegrees>16.945667</LongitudeDegrees>
            </Position>
            <AltitudeMeters>540.0</AltitudeMeters>
            <DistanceMeters>67684.083447796</DistanceMeters>
          </Trackpoint>
          <Trackpoint>
            <Position>
              <LatitudeDegrees>50.162217</LatitudeDegrees>
              <LongitudeDegrees>16.945707</LongitudeDegrees>
            </Position>
            <AltitudeMeters>540.0</AltitudeMeters>
            <DistanceMeters>67687.388957212</DistanceMeters>
          </Trackpoint>
          <Trackpoint>
            <Position>
              <LatitudeDegrees>50.162207</LatitudeDegrees>
              <LongitudeDegrees>16.945745</LongitudeDegrees>
            </Position>
            <AltitudeMeters>540.0</AltitudeMeters>
            <DistanceMeters>67690.317877255</DistanceMeters>
          </Trackpoint>
          <Trackpoint>
            <Position>
              <LatitudeDegrees>50.162202</LatitudeDegrees>
              <LongitudeDegrees>16.945783</LongitudeDegrees>
            </Position>
            <AltitudeMeters>540.0</AltitudeMeters>
            <DistanceMeters>67693.083464851</DistanceMeters>
          </Trackpoint>
          <Trackpoint>
            <Position>
              <LatitudeDegrees>50.162187</LatitudeDegrees>
              <LongitudeDegrees>16.945932</LongitudeDegrees>
            </Position>
            <AltitudeMeters>541.0</AltitudeMeters>
            <DistanceMeters>67703.837869488</DistanceMeters>
          </Trackpoint>
          <Trackpoint>
            <Position>
              <LatitudeDegrees>50.162193</LatitudeDegrees>
              <LongitudeDegrees>16.945968</LongitudeDegrees>
            </Position>
            <AltitudeMeters>542.0</AltitudeMeters>
            <DistanceMeters>67706.491821188</DistanceMeters>
          </Trackpoint>
          <Trackpoint>
            <Position>
              <LatitudeDegrees>50.162198</LatitudeDegrees>
              <LongitudeDegrees>16.946017</LongitudeDegrees>
            </Position>
            <AltitudeMeters>542.0</AltitudeMeters>
            <DistanceMeters>67710.029572727</DistanceMeters>
          </Trackpoint>
          <Trackpoint>
            <Position>
              <LatitudeDegrees>50.162202</LatitudeDegrees>
              <LongitudeDegrees>16.946067</LongitudeDegrees>
            </Position>
            <AltitudeMeters>542.0</AltitudeMeters>
            <DistanceMeters>67713.623040316</DistanceMeters>
          </Trackpoint>
          <Trackpoint>
            <Position>
              <LatitudeDegrees>50.162208</LatitudeDegrees>
              <LongitudeDegrees>16.946113</LongitudeDegrees>
            </Position>
            <AltitudeMeters>541.0</AltitudeMeters>
            <DistanceMeters>67716.970625246</DistanceMeters>
          </Trackpoint>
          <Trackpoint>
            <Position>
              <LatitudeDegrees>50.162197</LatitudeDegrees>
              <LongitudeDegrees>16.946153</LongitudeDegrees>
            </Position>
            <AltitudeMeters>541.0</AltitudeMeters>
            <DistanceMeters>67720.074669635</DistanceMeters>
          </Trackpoint>
          <Trackpoint>
            <Position>
              <LatitudeDegrees>50.162172</LatitudeDegrees>
              <LongitudeDegrees>16.946177</LongitudeDegrees>
            </Position>
            <AltitudeMeters>542.0</AltitudeMeters>
            <DistanceMeters>67723.341709634</DistanceMeters>
          </Trackpoint>
          <Trackpoint>
            <Position>
              <LatitudeDegrees>50.162143</LatitudeDegrees>
              <LongitudeDegrees>16.94619</LongitudeDegrees>
            </Position>
            <AltitudeMeters>542.0</AltitudeMeters>
            <DistanceMeters>67726.700067191</DistanceMeters>
          </Trackpoint>
          <Trackpoint>
            <Position>
              <LatitudeDegrees>50.162115</LatitudeDegrees>
              <LongitudeDegrees>16.946212</LongitudeDegrees>
            </Position>
            <AltitudeMeters>542.0</AltitudeMeters>
            <DistanceMeters>67730.188984365</DistanceMeters>
          </Trackpoint>
          <Trackpoint>
            <Position>
              <LatitudeDegrees>50.162097</LatitudeDegrees>
              <LongitudeDegrees>16.946223</LongitudeDegrees>
            </Position>
            <AltitudeMeters>542.0</AltitudeMeters>
            <DistanceMeters>67732.339193457</DistanceMeters>
          </Trackpoint>
          <Trackpoint>
            <Position>
              <LatitudeDegrees>50.162072</LatitudeDegrees>
              <LongitudeDegrees>16.94624</LongitudeDegrees>
            </Position>
            <AltitudeMeters>542.0</AltitudeMeters>
            <DistanceMeters>67735.374103336</DistanceMeters>
          </Trackpoint>
          <Trackpoint>
            <Position>
              <LatitudeDegrees>50.162028</LatitudeDegrees>
              <LongitudeDegrees>16.946252</LongitudeDegrees>
            </Position>
            <AltitudeMeters>542.0</AltitudeMeters>
            <DistanceMeters>67740.346461861</DistanceMeters>
          </Trackpoint>
          <Trackpoint>
            <Position>
              <LatitudeDegrees>50.161957</LatitudeDegrees>
              <LongitudeDegrees>16.946267</LongitudeDegrees>
            </Position>
            <AltitudeMeters>542.0</AltitudeMeters>
            <DistanceMeters>67748.320783043</DistanceMeters>
          </Trackpoint>
          <Trackpoint>
            <Position>
              <LatitudeDegrees>50.161878</LatitudeDegrees>
              <LongitudeDegrees>16.946337</LongitudeDegrees>
            </Position>
            <AltitudeMeters>543.0</AltitudeMeters>
            <DistanceMeters>67758.431196751</DistanceMeters>
          </Trackpoint>
          <Trackpoint>
            <Position>
              <LatitudeDegrees>50.161803</LatitudeDegrees>
              <LongitudeDegrees>16.946412</LongitudeDegrees>
            </Position>
            <AltitudeMeters>544.0</AltitudeMeters>
            <DistanceMeters>67768.345448215</DistanceMeters>
          </Trackpoint>
          <Trackpoint>
            <Position>
              <LatitudeDegrees>50.161792</LatitudeDegrees>
              <LongitudeDegrees>16.946365</LongitudeDegrees>
            </Position>
            <AltitudeMeters>545.0</AltitudeMeters>
            <DistanceMeters>67771.913698176</DistanceMeters>
          </Trackpoint>
          <Trackpoint>
            <Position>
              <LatitudeDegrees>50.161798</LatitudeDegrees>
              <LongitudeDegrees>16.947055</LongitudeDegrees>
            </Position>
            <AltitudeMeters>547.0</AltitudeMeters>
            <DistanceMeters>67821.116985614</DistanceMeters>
          </Trackpoint>
          <Trackpoint>
            <Position>
              <LatitudeDegrees>50.161685</LatitudeDegrees>
              <LongitudeDegrees>16.946835</LongitudeDegrees>
            </Position>
            <AltitudeMeters>541.0</AltitudeMeters>
            <DistanceMeters>67841.223165316</DistanceMeters>
          </Trackpoint>
          <Trackpoint>
            <Position>
              <LatitudeDegrees>50.161623</LatitudeDegrees>
              <LongitudeDegrees>16.946702</LongitudeDegrees>
            </Position>
            <AltitudeMeters>543.0</AltitudeMeters>
            <DistanceMeters>67852.951171302</DistanceMeters>
          </Trackpoint>
          <Trackpoint>
            <Position>
              <LatitudeDegrees>50.161563</LatitudeDegrees>
              <LongitudeDegrees>16.94659</LongitudeDegrees>
            </Position>
            <AltitudeMeters>542.0</AltitudeMeters>
            <DistanceMeters>67863.361693742</DistanceMeters>
          </Trackpoint>
          <Trackpoint>
            <Position>
              <LatitudeDegrees>50.161517</LatitudeDegrees>
              <LongitudeDegrees>16.94646</LongitudeDegrees>
            </Position>
            <AltitudeMeters>536.0</AltitudeMeters>
            <DistanceMeters>67873.951098319</DistanceMeters>
          </Trackpoint>
          <Trackpoint>
            <Position>
              <LatitudeDegrees>50.161448</LatitudeDegrees>
              <LongitudeDegrees>16.946365</LongitudeDegrees>
            </Position>
            <AltitudeMeters>534.0</AltitudeMeters>
            <DistanceMeters>67884.191522028</DistanceMeters>
          </Trackpoint>
          <Trackpoint>
            <Position>
              <LatitudeDegrees>50.161358</LatitudeDegrees>
              <LongitudeDegrees>16.946385</LongitudeDegrees>
            </Position>
            <AltitudeMeters>534.0</AltitudeMeters>
            <DistanceMeters>67894.309970858</DistanceMeters>
          </Trackpoint>
          <Trackpoint>
            <Position>
              <LatitudeDegrees>50.161458</LatitudeDegrees>
              <LongitudeDegrees>16.946378</LongitudeDegrees>
            </Position>
            <AltitudeMeters>535.0</AltitudeMeters>
            <DistanceMeters>67905.451219926</DistanceMeters>
          </Trackpoint>
          <Trackpoint>
            <Position>
              <LatitudeDegrees>50.161505</LatitudeDegrees>
              <LongitudeDegrees>16.94639</LongitudeDegrees>
            </Position>
            <AltitudeMeters>535.0</AltitudeMeters>
            <DistanceMeters>67910.752313954</DistanceMeters>
          </Trackpoint>
          <Trackpoint>
            <Position>
              <LatitudeDegrees>50.161578</LatitudeDegrees>
              <LongitudeDegrees>16.946503</LongitudeDegrees>
            </Position>
            <AltitudeMeters>536.0</AltitudeMeters>
            <DistanceMeters>67922.194256459</DistanceMeters>
          </Trackpoint>
          <Trackpoint>
            <Position>
              <LatitudeDegrees>50.161627</LatitudeDegrees>
              <LongitudeDegrees>16.946643</LongitudeDegrees>
            </Position>
            <AltitudeMeters>536.0</AltitudeMeters>
            <DistanceMeters>67933.568918444</DistanceMeters>
          </Trackpoint>
          <Trackpoint>
            <Position>
              <LatitudeDegrees>50.161605</LatitudeDegrees>
              <LongitudeDegrees>16.94679</LongitudeDegrees>
            </Position>
            <AltitudeMeters>538.0</AltitudeMeters>
            <DistanceMeters>67944.332555412</DistanceMeters>
          </Trackpoint>
          <Trackpoint>
            <Position>
              <LatitudeDegrees>50.161622</LatitudeDegrees>
              <LongitudeDegrees>16.94694</LongitudeDegrees>
            </Position>
            <AltitudeMeters>539.0</AltitudeMeters>
            <DistanceMeters>67955.193905175</DistanceMeters>
          </Trackpoint>
          <Trackpoint>
            <Position>
              <LatitudeDegrees>50.161655</LatitudeDegrees>
              <LongitudeDegrees>16.947082</LongitudeDegrees>
            </Position>
            <AltitudeMeters>540.0</AltitudeMeters>
            <DistanceMeters>67965.964251594</DistanceMeters>
          </Trackpoint>
          <Trackpoint>
            <Position>
              <LatitudeDegrees>50.161707</LatitudeDegrees>
              <LongitudeDegrees>16.947212</LongitudeDegrees>
            </Position>
            <AltitudeMeters>541.0</AltitudeMeters>
            <DistanceMeters>67976.891910579</DistanceMeters>
          </Trackpoint>
          <Trackpoint>
            <Position>
              <LatitudeDegrees>50.161757</LatitudeDegrees>
              <LongitudeDegrees>16.947343</LongitudeDegrees>
            </Position>
            <AltitudeMeters>543.0</AltitudeMeters>
            <DistanceMeters>67987.764893648</DistanceMeters>
          </Trackpoint>
          <Trackpoint>
            <Position>
              <LatitudeDegrees>50.161763</LatitudeDegrees>
              <LongitudeDegrees>16.947378</LongitudeDegrees>
            </Position>
            <AltitudeMeters>542.0</AltitudeMeters>
            <DistanceMeters>67990.348152538</DistanceMeters>
          </Trackpoint>
          <Trackpoint>
            <Position>
              <LatitudeDegrees>50.161772</LatitudeDegrees>
              <LongitudeDegrees>16.947345</LongitudeDegrees>
            </Position>
            <AltitudeMeters>542.0</AltitudeMeters>
            <DistanceMeters>67992.906825127</DistanceMeters>
          </Trackpoint>
          <Trackpoint>
            <Position>
              <LatitudeDegrees>50.161768</LatitudeDegrees>
              <LongitudeDegrees>16.947292</LongitudeDegrees>
            </Position>
            <AltitudeMeters>542.0</AltitudeMeters>
            <DistanceMeters>67996.712642072</DistanceMeters>
          </Trackpoint>
          <Trackpoint>
            <Position>
              <LatitudeDegrees>50.161773</LatitudeDegrees>
              <LongitudeDegrees>16.94724</LongitudeDegrees>
            </Position>
            <AltitudeMeters>542.0</AltitudeMeters>
            <DistanceMeters>68000.461081607</DistanceMeters>
          </Trackpoint>
          <Trackpoint>
            <Position>
              <LatitudeDegrees>50.161775</LatitudeDegrees>
              <LongitudeDegrees>16.947195</LongitudeDegrees>
            </Position>
            <AltitudeMeters>542.0</AltitudeMeters>
            <DistanceMeters>68003.676581184</DistanceMeters>
          </Trackpoint>
          <Trackpoint>
            <Position>
              <LatitudeDegrees>50.161777</LatitudeDegrees>
              <LongitudeDegrees>16.94715</LongitudeDegrees>
            </Position>
            <AltitudeMeters>542.0</AltitudeMeters>
            <DistanceMeters>68006.893484602</DistanceMeters>
          </Trackpoint>
          <Trackpoint>
            <Position>
              <LatitudeDegrees>50.161782</LatitudeDegrees>
              <LongitudeDegrees>16.947112</LongitudeDegrees>
            </Position>
            <AltitudeMeters>542.0</AltitudeMeters>
            <DistanceMeters>68009.659072198</DistanceMeters>
          </Trackpoint>
          <Trackpoint>
            <Position>
              <LatitudeDegrees>50.161783</LatitudeDegrees>
              <LongitudeDegrees>16.947072</LongitudeDegrees>
            </Position>
            <AltitudeMeters>542.0</AltitudeMeters>
            <DistanceMeters>68012.513039428</DistanceMeters>
          </Trackpoint>
          <Trackpoint>
            <Position>
              <LatitudeDegrees>50.161785</LatitudeDegrees>
              <LongitudeDegrees>16.94703</LongitudeDegrees>
            </Position>
            <AltitudeMeters>543.0</AltitudeMeters>
            <DistanceMeters>68015.515041475</DistanceMeters>
          </Trackpoint>
          <Trackpoint>
            <Position>
              <LatitudeDegrees>50.16179</LatitudeDegrees>
              <LongitudeDegrees>16.946982</LongitudeDegrees>
            </Position>
            <AltitudeMeters>543.0</AltitudeMeters>
            <DistanceMeters>68018.983191101</DistanceMeters>
          </Trackpoint>
          <Trackpoint>
            <Position>
              <LatitudeDegrees>50.161798</LatitudeDegrees>
              <LongitudeDegrees>16.94695</LongitudeDegrees>
            </Position>
            <AltitudeMeters>543.0</AltitudeMeters>
            <DistanceMeters>68021.433701422</DistanceMeters>
          </Trackpoint>
          <Trackpoint>
            <Position>
              <LatitudeDegrees>50.16181</LatitudeDegrees>
              <LongitudeDegrees>16.94691</LongitudeDegrees>
            </Position>
            <AltitudeMeters>543.0</AltitudeMeters>
            <DistanceMeters>68024.583948081</DistanceMeters>
          </Trackpoint>
          <Trackpoint>
            <Position>
              <LatitudeDegrees>50.16182</LatitudeDegrees>
              <LongitudeDegrees>16.946873</LongitudeDegrees>
            </Position>
            <AltitudeMeters>543.0</AltitudeMeters>
            <DistanceMeters>68027.447391709</DistanceMeters>
          </Trackpoint>
          <Trackpoint>
            <Position>
              <LatitudeDegrees>50.16182</LatitudeDegrees>
              <LongitudeDegrees>16.946835</LongitudeDegrees>
            </Position>
            <AltitudeMeters>543.0</AltitudeMeters>
            <DistanceMeters>68030.158568986</DistanceMeters>
          </Trackpoint>
          <Trackpoint>
            <Position>
              <LatitudeDegrees>50.161823</LatitudeDegrees>
              <LongitudeDegrees>16.946792</LongitudeDegrees>
            </Position>
            <AltitudeMeters>543.0</AltitudeMeters>
            <DistanceMeters>68033.243646063</DistanceMeters>
          </Trackpoint>
          <Trackpoint>
            <Position>
              <LatitudeDegrees>50.161823</LatitudeDegrees>
              <LongitudeDegrees>16.946725</LongitudeDegrees>
            </Position>
            <AltitudeMeters>543.0</AltitudeMeters>
            <DistanceMeters>68038.019624821</DistanceMeters>
          </Trackpoint>
          <Trackpoint>
            <Position>
              <LatitudeDegrees>50.161833</LatitudeDegrees>
              <LongitudeDegrees>16.946632</LongitudeDegrees>
            </Position>
            <AltitudeMeters>543.0</AltitudeMeters>
            <DistanceMeters>68044.743058667</DistanceMeters>
          </Trackpoint>
          <Trackpoint>
            <Position>
              <LatitudeDegrees>50.16184</LatitudeDegrees>
              <LongitudeDegrees>16.946587</LongitudeDegrees>
            </Position>
            <AltitudeMeters>543.0</AltitudeMeters>
            <DistanceMeters>68048.0444678</DistanceMeters>
          </Trackpoint>
          <Trackpoint>
            <Position>
              <LatitudeDegrees>50.16185</LatitudeDegrees>
              <LongitudeDegrees>16.946537</LongitudeDegrees>
            </Position>
            <AltitudeMeters>543.0</AltitudeMeters>
            <DistanceMeters>68051.778425222</DistanceMeters>
          </Trackpoint>
          <Trackpoint>
            <Position>
              <LatitudeDegrees>50.16185</LatitudeDegrees>
              <LongitudeDegrees>16.946487</LongitudeDegrees>
            </Position>
            <AltitudeMeters>543.0</AltitudeMeters>
            <DistanceMeters>68055.341610241</DistanceMeters>
          </Trackpoint>
          <Trackpoint>
            <Position>
              <LatitudeDegrees>50.161853</LatitudeDegrees>
              <LongitudeDegrees>16.94644</LongitudeDegrees>
            </Position>
            <AltitudeMeters>543.0</AltitudeMeters>
            <DistanceMeters>68058.708024645</DistanceMeters>
          </Trackpoint>
          <Trackpoint>
            <Position>
              <LatitudeDegrees>50.161857</LatitudeDegrees>
              <LongitudeDegrees>16.946395</LongitudeDegrees>
            </Position>
            <AltitudeMeters>543.0</AltitudeMeters>
            <DistanceMeters>68061.947306792</DistanceMeters>
          </Trackpoint>
          <Trackpoint>
            <Position>
              <LatitudeDegrees>50.161858</LatitudeDegrees>
              <LongitudeDegrees>16.946353</LongitudeDegrees>
            </Position>
            <AltitudeMeters>543.0</AltitudeMeters>
            <DistanceMeters>68064.943286763</DistanceMeters>
          </Trackpoint>
          <Trackpoint>
            <Position>
              <LatitudeDegrees>50.161855</LatitudeDegrees>
              <LongitudeDegrees>16.946317</LongitudeDegrees>
            </Position>
            <AltitudeMeters>543.0</AltitudeMeters>
            <DistanceMeters>68067.531783763</DistanceMeters>
          </Trackpoint>
          <Trackpoint>
            <Position>
              <LatitudeDegrees>50.16185</LatitudeDegrees>
              <LongitudeDegrees>16.94628</LongitudeDegrees>
            </Position>
            <AltitudeMeters>543.0</AltitudeMeters>
            <DistanceMeters>68070.226256153</DistanceMeters>
          </Trackpoint>
          <Trackpoint>
            <Position>
              <LatitudeDegrees>50.161857</LatitudeDegrees>
              <LongitudeDegrees>16.946252</LongitudeDegrees>
            </Position>
            <AltitudeMeters>543.0</AltitudeMeters>
            <DistanceMeters>68072.368049522</DistanceMeters>
          </Trackpoint>
          <Trackpoint>
            <Position>
              <LatitudeDegrees>50.16187</LatitudeDegrees>
              <LongitudeDegrees>16.94623</LongitudeDegrees>
            </Position>
            <AltitudeMeters>543.0</AltitudeMeters>
            <DistanceMeters>68074.501393969</DistanceMeters>
          </Trackpoint>
          <Trackpoint>
            <Position>
              <LatitudeDegrees>50.16189</LatitudeDegrees>
              <LongitudeDegrees>16.946217</LongitudeDegrees>
            </Position>
            <AltitudeMeters>543.0</AltitudeMeters>
            <DistanceMeters>68076.912901636</DistanceMeters>
          </Trackpoint>
          <Trackpoint>
            <Position>
              <LatitudeDegrees>50.161978</LatitudeDegrees>
              <LongitudeDegrees>16.946143</LongitudeDegrees>
            </Position>
            <AltitudeMeters>544.0</AltitudeMeters>
            <DistanceMeters>68088.038740386</DistanceMeters>
          </Trackpoint>
        </Track>
      </Lap>
    </Activity>
  </Activities>
</TrainingCenterDatabase>
